<?xml version="1.0" encoding="UTF-8"?>
<gpx version="1.1" creator="https://www.www-youtrack-es.amenigma.com" xsi:schemaLocation="http://www.topografix.com/GPX/1/1 http://www.topografix.com/GPX/1/1/gpx.xsd http://www.garmin.com/xmlschemas/GpxExtensions/v3 http://www.garmin.com/xmlschemas/GpxExtensionsv3.xsd http://www.garmin.com/xmlschemas/TrackPointExtension/v1 http://www.garmin.com/xmlschemas/TrackPointExtensionv1.xsd" xmlns:gpxtpx="http://www.garmin.com/xmlschemas/TrackPointExtension/v1" xmlns:gpxx="http://www.garmin.com/xmlschemas/GpxExtensions/v3" xmlns:xsi="http://www.w3.org/2001/XMLSchema-instance">
  <metadata>
    <link href="https://www.www-youtrack-es.amenigma.com">
      <text>YouTrack.es</text>
    </link>
    <time>2026-08-31T05:08:55Z</time>
  </metadata>
  <trk>
    <src>https://www.www-youtrack-es.amenigma.com</src>
    <link href="https://www.www-youtrack-es.amenigma.com/ruta/17577-camino-de-invierno">
      <text>YouTrack.es</text>
    </link>
    <trkseg>
      <trkpt lat="42.5507926940918" lon="-6.598306655883789">
        <ele>704.0</ele>
        <time>2019-04-23T05:26:11.000Z</time>
      </trkpt>
      <trkpt lat="42.550724029541016" lon="-6.597949504852295">
        <ele>702.0</ele>
        <time>2019-04-23T05:26:21.000Z</time>
      </trkpt>
      <trkpt lat="42.550716400146484" lon="-6.597954273223877">
        <ele>701.0</ele>
        <time>2019-04-23T05:26:23.000Z</time>
      </trkpt>
      <trkpt lat="42.55071258544922" lon="-6.59799861907959">
        <ele>701.0</ele>
        <time>2019-04-23T05:26:24.000Z</time>
      </trkpt>
      <trkpt lat="42.55070877075195" lon="-6.598069190979004">
        <ele>700.0</ele>
        <time>2019-04-23T05:26:25.000Z</time>
      </trkpt>
      <trkpt lat="42.55070495605469" lon="-6.598153114318848">
        <ele>700.0</ele>
        <time>2019-04-23T05:26:26.000Z</time>
      </trkpt>
      <trkpt lat="42.55073165893555" lon="-6.598182678222656">
        <ele>699.0</ele>
        <time>2019-04-23T05:26:27.000Z</time>
      </trkpt>
      <trkpt lat="42.55077362060547" lon="-6.598202705383301">
        <ele>699.0</ele>
        <time>2019-04-23T05:26:28.000Z</time>
      </trkpt>
      <trkpt lat="42.55082321166992" lon="-6.598217487335205">
        <ele>698.0</ele>
        <time>2019-04-23T05:26:29.000Z</time>
      </trkpt>
      <trkpt lat="42.55087661743164" lon="-6.598228931427002">
        <ele>697.0</ele>
        <time>2019-04-23T05:26:30.000Z</time>
      </trkpt>
      <trkpt lat="42.55085754394531" lon="-6.598260402679443">
        <ele>695.0</ele>
        <time>2019-04-23T05:26:32.000Z</time>
      </trkpt>
      <trkpt lat="42.55080795288086" lon="-6.598296642303467">
        <ele>693.0</ele>
        <time>2019-04-23T05:26:34.000Z</time>
      </trkpt>
      <trkpt lat="42.55074691772461" lon="-6.598336696624756">
        <ele>690.0</ele>
        <time>2019-04-23T05:26:36.000Z</time>
      </trkpt>
      <trkpt lat="42.55067443847656" lon="-6.5983781814575195">
        <ele>688.0</ele>
        <time>2019-04-23T05:26:38.000Z</time>
      </trkpt>
      <trkpt lat="42.55055618286133" lon="-6.598385334014893">
        <ele>683.0</ele>
        <time>2019-04-23T05:26:43.000Z</time>
      </trkpt>
      <trkpt lat="42.55043411254883" lon="-6.598361492156982">
        <ele>679.0</ele>
        <time>2019-04-23T05:26:47.000Z</time>
      </trkpt>
      <trkpt lat="42.55028533935547" lon="-6.5982584953308105">
        <ele>668.0</ele>
        <time>2019-04-23T05:26:57.000Z</time>
      </trkpt>
      <trkpt lat="42.55012512207031" lon="-6.598112106323242">
        <ele>656.0</ele>
        <time>2019-04-23T05:27:06.000Z</time>
      </trkpt>
      <trkpt lat="42.55007553100586" lon="-6.598081588745117">
        <ele>652.0</ele>
        <time>2019-04-23T05:27:08.000Z</time>
      </trkpt>
      <trkpt lat="42.55003356933594" lon="-6.598063945770264">
        <ele>649.0</ele>
        <time>2019-04-23T05:27:10.000Z</time>
      </trkpt>
      <trkpt lat="42.54999923706055" lon="-6.598055362701416">
        <ele>647.0</ele>
        <time>2019-04-23T05:27:12.000Z</time>
      </trkpt>
      <trkpt lat="42.54996871948242" lon="-6.598051071166992">
        <ele>645.0</ele>
        <time>2019-04-23T05:27:14.000Z</time>
      </trkpt>
      <trkpt lat="42.54987716674805" lon="-6.598075866699219">
        <ele>641.0</ele>
        <time>2019-04-23T05:27:21.000Z</time>
      </trkpt>
      <trkpt lat="42.549781799316406" lon="-6.598126411437988">
        <ele>638.0</ele>
        <time>2019-04-23T05:27:27.000Z</time>
      </trkpt>
      <trkpt lat="42.54974365234375" lon="-6.598134994506836">
        <ele>637.0</ele>
        <time>2019-04-23T05:27:29.000Z</time>
      </trkpt>
      <trkpt lat="42.549705505371094" lon="-6.598138809204102">
        <ele>636.0</ele>
        <time>2019-04-23T05:27:31.000Z</time>
      </trkpt>
      <trkpt lat="42.54967498779297" lon="-6.598140239715576">
        <ele>635.0</ele>
        <time>2019-04-23T05:27:33.000Z</time>
      </trkpt>
      <trkpt lat="42.549644470214844" lon="-6.598139762878418">
        <ele>634.0</ele>
        <time>2019-04-23T05:27:35.000Z</time>
      </trkpt>
      <trkpt lat="42.54963302612305" lon="-6.598172664642334">
        <ele>633.0</ele>
        <time>2019-04-23T05:27:38.000Z</time>
      </trkpt>
      <trkpt lat="42.54962921142578" lon="-6.5982184410095215">
        <ele>631.0</ele>
        <time>2019-04-23T05:27:41.000Z</time>
      </trkpt>
      <trkpt lat="42.54962921142578" lon="-6.598272800445557">
        <ele>629.0</ele>
        <time>2019-04-23T05:27:44.000Z</time>
      </trkpt>
      <trkpt lat="42.54963684082031" lon="-6.598330974578857">
        <ele>626.0</ele>
        <time>2019-04-23T05:27:47.000Z</time>
      </trkpt>
      <trkpt lat="42.54964065551758" lon="-6.598330497741699">
        <ele>624.0</ele>
        <time>2019-04-23T05:27:50.000Z</time>
      </trkpt>
      <trkpt lat="42.549652099609375" lon="-6.5983099937438965">
        <ele>622.0</ele>
        <time>2019-04-23T05:27:52.000Z</time>
      </trkpt>
      <trkpt lat="42.54966354370117" lon="-6.598275661468506">
        <ele>621.0</ele>
        <time>2019-04-23T05:27:55.000Z</time>
      </trkpt>
      <trkpt lat="42.549678802490234" lon="-6.598235130310059">
        <ele>619.0</ele>
        <time>2019-04-23T05:27:57.000Z</time>
      </trkpt>
      <trkpt lat="42.549678802490234" lon="-6.598227024078369">
        <ele>617.0</ele>
        <time>2019-04-23T05:28:01.000Z</time>
      </trkpt>
      <trkpt lat="42.5496711730957" lon="-6.598226070404053">
        <ele>615.0</ele>
        <time>2019-04-23T05:28:05.000Z</time>
      </trkpt>
      <trkpt lat="42.54966354370117" lon="-6.598228931427002">
        <ele>613.0</ele>
        <time>2019-04-23T05:28:09.000Z</time>
      </trkpt>
      <trkpt lat="42.54965591430664" lon="-6.5982346534729">
        <ele>611.0</ele>
        <time>2019-04-23T05:28:12.000Z</time>
      </trkpt>
      <trkpt lat="42.54964828491211" lon="-6.5982346534729">
        <ele>610.0</ele>
        <time>2019-04-23T05:28:13.000Z</time>
      </trkpt>
      <trkpt lat="42.549644470214844" lon="-6.5982346534729">
        <ele>610.0</ele>
        <time>2019-04-23T05:28:13.000Z</time>
      </trkpt>
      <trkpt lat="42.54964065551758" lon="-6.5982346534729">
        <ele>610.0</ele>
        <time>2019-04-23T05:28:13.000Z</time>
      </trkpt>
      <trkpt lat="42.54963302612305" lon="-6.598234176635742">
        <ele>611.0</ele>
        <time>2019-04-23T05:28:13.000Z</time>
      </trkpt>
      <trkpt lat="42.549625396728516" lon="-6.5982346534729">
        <ele>611.0</ele>
        <time>2019-04-23T05:28:14.000Z</time>
      </trkpt>
      <trkpt lat="42.54961395263672" lon="-6.598235607147217">
        <ele>610.0</ele>
        <time>2019-04-23T05:28:15.000Z</time>
      </trkpt>
      <trkpt lat="42.54960250854492" lon="-6.598236560821533">
        <ele>610.0</ele>
        <time>2019-04-23T05:28:16.000Z</time>
      </trkpt>
      <trkpt lat="42.549591064453125" lon="-6.59823751449585">
        <ele>609.0</ele>
        <time>2019-04-23T05:28:16.000Z</time>
      </trkpt>
      <trkpt lat="42.549537658691406" lon="-6.598249912261963">
        <ele>608.0</ele>
        <time>2019-04-23T05:28:20.000Z</time>
      </trkpt>
      <trkpt lat="42.54946517944336" lon="-6.5982666015625">
        <ele>605.0</ele>
        <time>2019-04-23T05:28:24.000Z</time>
      </trkpt>
      <trkpt lat="42.54937744140625" lon="-6.598286151885986">
        <ele>603.0</ele>
        <time>2019-04-23T05:28:28.000Z</time>
      </trkpt>
      <trkpt lat="42.54928970336914" lon="-6.5983076095581055">
        <ele>600.0</ele>
        <time>2019-04-23T05:28:32.000Z</time>
      </trkpt>
      <trkpt lat="42.549217224121094" lon="-6.598317623138428">
        <ele>597.0</ele>
        <time>2019-04-23T05:28:37.000Z</time>
      </trkpt>
      <trkpt lat="42.54914855957031" lon="-6.598324775695801">
        <ele>594.0</ele>
        <time>2019-04-23T05:28:41.000Z</time>
      </trkpt>
      <trkpt lat="42.5490837097168" lon="-6.598329544067383">
        <ele>590.0</ele>
        <time>2019-04-23T05:28:46.000Z</time>
      </trkpt>
      <trkpt lat="42.549015045166016" lon="-6.598333835601807">
        <ele>587.0</ele>
        <time>2019-04-23T05:28:50.000Z</time>
      </trkpt>
      <trkpt lat="42.548980712890625" lon="-6.5983147621154785">
        <ele>584.0</ele>
        <time>2019-04-23T05:28:53.000Z</time>
      </trkpt>
      <trkpt lat="42.548954010009766" lon="-6.59828519821167">
        <ele>582.0</ele>
        <time>2019-04-23T05:28:56.000Z</time>
      </trkpt>
      <trkpt lat="42.5489387512207" lon="-6.5982489585876465">
        <ele>579.0</ele>
        <time>2019-04-23T05:28:59.000Z</time>
      </trkpt>
      <trkpt lat="42.54893112182617" lon="-6.598208904266357">
        <ele>578.0</ele>
        <time>2019-04-23T05:29:01.000Z</time>
      </trkpt>
      <trkpt lat="42.54891586303711" lon="-6.598212242126465">
        <ele>576.0</ele>
        <time>2019-04-23T05:29:03.000Z</time>
      </trkpt>
      <trkpt lat="42.54890441894531" lon="-6.598229885101318">
        <ele>575.0</ele>
        <time>2019-04-23T05:29:04.000Z</time>
      </trkpt>
      <trkpt lat="42.548892974853516" lon="-6.598257541656494">
        <ele>575.0</ele>
        <time>2019-04-23T05:29:06.000Z</time>
      </trkpt>
      <trkpt lat="42.548885345458984" lon="-6.598289966583252">
        <ele>574.0</ele>
        <time>2019-04-23T05:29:07.000Z</time>
      </trkpt>
      <trkpt lat="42.54887008666992" lon="-6.598306179046631">
        <ele>571.0</ele>
        <time>2019-04-23T05:29:18.000Z</time>
      </trkpt>
      <trkpt lat="42.548851013183594" lon="-6.598321437835693">
        <ele>567.0</ele>
        <time>2019-04-23T05:29:28.000Z</time>
      </trkpt>
      <trkpt lat="42.548831939697266" lon="-6.598335266113281">
        <ele>562.0</ele>
        <time>2019-04-23T05:29:38.000Z</time>
      </trkpt>
      <trkpt lat="42.54881286621094" lon="-6.598348617553711">
        <ele>557.0</ele>
        <time>2019-04-23T05:29:48.000Z</time>
      </trkpt>
      <trkpt lat="42.54880142211914" lon="-6.598358154296875">
        <ele>556.0</ele>
        <time>2019-04-23T05:29:49.000Z</time>
      </trkpt>
      <trkpt lat="42.54879379272461" lon="-6.598365306854248">
        <ele>555.0</ele>
        <time>2019-04-23T05:29:49.000Z</time>
      </trkpt>
      <trkpt lat="42.54878616333008" lon="-6.5983710289001465">
        <ele>556.0</ele>
        <time>2019-04-23T05:29:49.000Z</time>
      </trkpt>
      <trkpt lat="42.54878234863281" lon="-6.598376274108887">
        <ele>557.0</ele>
        <time>2019-04-23T05:29:49.000Z</time>
      </trkpt>
      <trkpt lat="42.54875946044922" lon="-6.59838342666626">
        <ele>557.0</ele>
        <time>2019-04-23T05:29:50.000Z</time>
      </trkpt>
      <trkpt lat="42.54873275756836" lon="-6.598390102386475">
        <ele>557.0</ele>
        <time>2019-04-23T05:29:51.000Z</time>
      </trkpt>
      <trkpt lat="42.5487060546875" lon="-6.598397254943848">
        <ele>557.0</ele>
        <time>2019-04-23T05:29:52.000Z</time>
      </trkpt>
      <trkpt lat="42.54867172241211" lon="-6.598404407501221">
        <ele>556.0</ele>
        <time>2019-04-23T05:29:52.000Z</time>
      </trkpt>
      <trkpt lat="42.548641204833984" lon="-6.598381996154785">
        <ele>556.0</ele>
        <time>2019-04-23T05:29:55.000Z</time>
      </trkpt>
      <trkpt lat="42.54861068725586" lon="-6.598347187042236">
        <ele>555.0</ele>
        <time>2019-04-23T05:29:58.000Z</time>
      </trkpt>
      <trkpt lat="42.54857635498047" lon="-6.59830379486084">
        <ele>555.0</ele>
        <time>2019-04-23T05:30:01.000Z</time>
      </trkpt>
      <trkpt lat="42.548545837402344" lon="-6.598256587982178">
        <ele>554.0</ele>
        <time>2019-04-23T05:30:04.000Z</time>
      </trkpt>
      <trkpt lat="42.54852294921875" lon="-6.598204612731934">
        <ele>553.0</ele>
        <time>2019-04-23T05:30:11.000Z</time>
      </trkpt>
      <trkpt lat="42.54851531982422" lon="-6.5981621742248535">
        <ele>552.0</ele>
        <time>2019-04-23T05:30:17.000Z</time>
      </trkpt>
      <trkpt lat="42.54850769042969" lon="-6.598149299621582">
        <ele>551.0</ele>
        <time>2019-04-23T05:30:28.000Z</time>
      </trkpt>
      <trkpt lat="42.548500061035156" lon="-6.598151683807373">
        <ele>551.0</ele>
        <time>2019-04-23T05:30:38.000Z</time>
      </trkpt>
      <trkpt lat="42.54849624633789" lon="-6.598149299621582">
        <ele>550.0</ele>
        <time>2019-04-23T05:30:39.000Z</time>
      </trkpt>
      <trkpt lat="42.54848861694336" lon="-6.598146915435791">
        <ele>550.0</ele>
        <time>2019-04-23T05:30:39.000Z</time>
      </trkpt>
      <trkpt lat="42.548484802246094" lon="-6.598145008087158">
        <ele>551.0</ele>
        <time>2019-04-23T05:30:39.000Z</time>
      </trkpt>
      <trkpt lat="42.54848098754883" lon="-6.598142623901367">
        <ele>551.0</ele>
        <time>2019-04-23T05:30:39.000Z</time>
      </trkpt>
      <trkpt lat="42.548439025878906" lon="-6.598113536834717">
        <ele>551.0</ele>
        <time>2019-04-23T05:30:40.000Z</time>
      </trkpt>
      <trkpt lat="42.54838180541992" lon="-6.598073482513428">
        <ele>551.0</ele>
        <time>2019-04-23T05:30:40.000Z</time>
      </trkpt>
      <trkpt lat="42.54831314086914" lon="-6.598026275634766">
        <ele>551.0</ele>
        <time>2019-04-23T05:30:41.000Z</time>
      </trkpt>
      <trkpt lat="42.54823684692383" lon="-6.597975254058838">
        <ele>551.0</ele>
        <time>2019-04-23T05:30:41.000Z</time>
      </trkpt>
      <trkpt lat="42.54818344116211" lon="-6.597938060760498">
        <ele>551.0</ele>
        <time>2019-04-23T05:30:42.000Z</time>
      </trkpt>
      <trkpt lat="42.548133850097656" lon="-6.597902774810791">
        <ele>551.0</ele>
        <time>2019-04-23T05:30:43.000Z</time>
      </trkpt>
      <trkpt lat="42.54808807373047" lon="-6.597869396209717">
        <ele>551.0</ele>
        <time>2019-04-23T05:30:44.000Z</time>
      </trkpt>
      <trkpt lat="42.548038482666016" lon="-6.597836017608643">
        <ele>551.0</ele>
        <time>2019-04-23T05:30:44.000Z</time>
      </trkpt>
      <trkpt lat="42.5479621887207" lon="-6.597822666168213">
        <ele>551.0</ele>
        <time>2019-04-23T05:30:48.000Z</time>
      </trkpt>
      <trkpt lat="42.54789733886719" lon="-6.597835063934326">
        <ele>551.0</ele>
        <time>2019-04-23T05:30:51.000Z</time>
      </trkpt>
      <trkpt lat="42.54786682128906" lon="-6.597847938537598">
        <ele>551.0</ele>
        <time>2019-04-23T05:30:55.000Z</time>
      </trkpt>
      <trkpt lat="42.54785919189453" lon="-6.597867488861084">
        <ele>551.0</ele>
        <time>2019-04-23T05:30:58.000Z</time>
      </trkpt>
      <trkpt lat="42.547847747802734" lon="-6.597867965698242">
        <ele>551.0</ele>
        <time>2019-04-23T05:31:05.000Z</time>
      </trkpt>
      <trkpt lat="42.5478401184082" lon="-6.597865104675293">
        <ele>552.0</ele>
        <time>2019-04-23T05:31:11.000Z</time>
      </trkpt>
      <trkpt lat="42.547828674316406" lon="-6.597860336303711">
        <ele>552.0</ele>
        <time>2019-04-23T05:31:18.000Z</time>
      </trkpt>
      <trkpt lat="42.54781723022461" lon="-6.597854137420654">
        <ele>553.0</ele>
        <time>2019-04-23T05:31:24.000Z</time>
      </trkpt>
      <trkpt lat="42.54780960083008" lon="-6.597851276397705">
        <ele>553.0</ele>
        <time>2019-04-23T05:31:25.000Z</time>
      </trkpt>
      <trkpt lat="42.54780578613281" lon="-6.597849369049072">
        <ele>553.0</ele>
        <time>2019-04-23T05:31:25.000Z</time>
      </trkpt>
      <trkpt lat="42.54779815673828" lon="-6.597846984863281">
        <ele>553.0</ele>
        <time>2019-04-23T05:31:25.000Z</time>
      </trkpt>
      <trkpt lat="42.54779052734375" lon="-6.597845077514648">
        <ele>553.0</ele>
        <time>2019-04-23T05:31:25.000Z</time>
      </trkpt>
      <trkpt lat="42.547733306884766" lon="-6.597841739654541">
        <ele>553.0</ele>
        <time>2019-04-23T05:31:28.000Z</time>
      </trkpt>
      <trkpt lat="42.54764938354492" lon="-6.597838401794434">
        <ele>554.0</ele>
        <time>2019-04-23T05:31:31.000Z</time>
      </trkpt>
      <trkpt lat="42.54755401611328" lon="-6.597834587097168">
        <ele>554.0</ele>
        <time>2019-04-23T05:31:34.000Z</time>
      </trkpt>
      <trkpt lat="42.54745101928711" lon="-6.597830295562744">
        <ele>555.0</ele>
        <time>2019-04-23T05:31:37.000Z</time>
      </trkpt>
      <trkpt lat="42.54738998413086" lon="-6.597840309143066">
        <ele>555.0</ele>
        <time>2019-04-23T05:31:40.000Z</time>
      </trkpt>
      <trkpt lat="42.54734420776367" lon="-6.597855567932129">
        <ele>554.0</ele>
        <time>2019-04-23T05:31:43.000Z</time>
      </trkpt>
      <trkpt lat="42.547306060791016" lon="-6.597874164581299">
        <ele>553.0</ele>
        <time>2019-04-23T05:31:46.000Z</time>
      </trkpt>
      <trkpt lat="42.54726791381836" lon="-6.597894668579102">
        <ele>553.0</ele>
        <time>2019-04-23T05:31:48.000Z</time>
      </trkpt>
      <trkpt lat="42.54724884033203" lon="-6.597896099090576">
        <ele>552.0</ele>
        <time>2019-04-23T05:31:50.000Z</time>
      </trkpt>
      <trkpt lat="42.547245025634766" lon="-6.597890853881836">
        <ele>553.0</ele>
        <time>2019-04-23T05:31:52.000Z</time>
      </trkpt>
      <trkpt lat="42.547245025634766" lon="-6.597881317138672">
        <ele>553.0</ele>
        <time>2019-04-23T05:31:54.000Z</time>
      </trkpt>
      <trkpt lat="42.5472526550293" lon="-6.597869873046875">
        <ele>553.0</ele>
        <time>2019-04-23T05:31:56.000Z</time>
      </trkpt>
      <trkpt lat="42.54724884033203" lon="-6.597864627838135">
        <ele>553.0</ele>
        <time>2019-04-23T05:31:57.000Z</time>
      </trkpt>
      <trkpt lat="42.547245025634766" lon="-6.597859859466553">
        <ele>553.0</ele>
        <time>2019-04-23T05:31:57.000Z</time>
      </trkpt>
      <trkpt lat="42.5472412109375" lon="-6.597855091094971">
        <ele>553.0</ele>
        <time>2019-04-23T05:31:57.000Z</time>
      </trkpt>
      <trkpt lat="42.5472412109375" lon="-6.597850799560547">
        <ele>553.0</ele>
        <time>2019-04-23T05:31:57.000Z</time>
      </trkpt>
      <trkpt lat="42.547218322753906" lon="-6.597825527191162">
        <ele>553.0</ele>
        <time>2019-04-23T05:31:59.000Z</time>
      </trkpt>
      <trkpt lat="42.54719543457031" lon="-6.59779167175293">
        <ele>553.0</ele>
        <time>2019-04-23T05:32:01.000Z</time>
      </trkpt>
      <trkpt lat="42.54716491699219" lon="-6.597752094268799">
        <ele>553.0</ele>
        <time>2019-04-23T05:32:03.000Z</time>
      </trkpt>
      <trkpt lat="42.5471305847168" lon="-6.597710132598877">
        <ele>552.0</ele>
        <time>2019-04-23T05:32:04.000Z</time>
      </trkpt>
      <trkpt lat="42.547115325927734" lon="-6.597692966461182">
        <ele>551.0</ele>
        <time>2019-04-23T05:32:15.000Z</time>
      </trkpt>
      <trkpt lat="42.54710388183594" lon="-6.597683429718018">
        <ele>550.0</ele>
        <time>2019-04-23T05:32:25.000Z</time>
      </trkpt>
      <trkpt lat="42.547096252441406" lon="-6.597679138183594">
        <ele>548.0</ele>
        <time>2019-04-23T05:32:36.000Z</time>
      </trkpt>
      <trkpt lat="42.54709243774414" lon="-6.597677230834961">
        <ele>547.0</ele>
        <time>2019-04-23T05:32:46.000Z</time>
      </trkpt>
      <trkpt lat="42.54708480834961" lon="-6.597671031951904">
        <ele>546.0</ele>
        <time>2019-04-23T05:32:47.000Z</time>
      </trkpt>
      <trkpt lat="42.54707717895508" lon="-6.597665309906006">
        <ele>546.0</ele>
        <time>2019-04-23T05:32:47.000Z</time>
      </trkpt>
      <trkpt lat="42.54706954956055" lon="-6.597660064697266">
        <ele>546.0</ele>
        <time>2019-04-23T05:32:47.000Z</time>
      </trkpt>
      <trkpt lat="42.547061920166016" lon="-6.597654819488525">
        <ele>547.0</ele>
        <time>2019-04-23T05:32:47.000Z</time>
      </trkpt>
      <trkpt lat="42.547000885009766" lon="-6.5976433753967285">
        <ele>546.0</ele>
        <time>2019-04-23T05:32:50.000Z</time>
      </trkpt>
      <trkpt lat="42.546913146972656" lon="-6.597629547119141">
        <ele>545.0</ele>
        <time>2019-04-23T05:32:53.000Z</time>
      </trkpt>
      <trkpt lat="42.54681396484375" lon="-6.59761381149292">
        <ele>544.0</ele>
        <time>2019-04-23T05:32:56.000Z</time>
      </trkpt>
      <trkpt lat="42.54670333862305" lon="-6.597597122192383">
        <ele>543.0</ele>
        <time>2019-04-23T05:32:59.000Z</time>
      </trkpt>
      <trkpt lat="42.54635238647461" lon="-6.597620487213135">
        <ele>541.0</ele>
        <time>2019-04-23T05:33:19.000Z</time>
      </trkpt>
      <trkpt lat="42.54621887207031" lon="-6.597596645355225">
        <ele>538.0</ele>
        <time>2019-04-23T05:33:34.000Z</time>
      </trkpt>
      <trkpt lat="42.546199798583984" lon="-6.5975823402404785">
        <ele>539.0</ele>
        <time>2019-04-23T05:33:39.000Z</time>
      </trkpt>
      <trkpt lat="42.54618835449219" lon="-6.597565174102783">
        <ele>539.0</ele>
        <time>2019-04-23T05:33:43.000Z</time>
      </trkpt>
      <trkpt lat="42.54618453979492" lon="-6.597545146942139">
        <ele>540.0</ele>
        <time>2019-04-23T05:33:47.000Z</time>
      </trkpt>
      <trkpt lat="42.546180725097656" lon="-6.597524642944336">
        <ele>541.0</ele>
        <time>2019-04-23T05:33:51.000Z</time>
      </trkpt>
      <trkpt lat="42.546173095703125" lon="-6.597511291503906">
        <ele>541.0</ele>
        <time>2019-04-23T05:33:52.000Z</time>
      </trkpt>
      <trkpt lat="42.54616928100586" lon="-6.597500324249268">
        <ele>541.0</ele>
        <time>2019-04-23T05:33:52.000Z</time>
      </trkpt>
      <trkpt lat="42.54616165161133" lon="-6.5974907875061035">
        <ele>541.0</ele>
        <time>2019-04-23T05:33:52.000Z</time>
      </trkpt>
      <trkpt lat="42.54615783691406" lon="-6.597482204437256">
        <ele>541.0</ele>
        <time>2019-04-23T05:33:52.000Z</time>
      </trkpt>
      <trkpt lat="42.546138763427734" lon="-6.597443580627441">
        <ele>541.0</ele>
        <time>2019-04-23T05:33:54.000Z</time>
      </trkpt>
      <trkpt lat="42.54610824584961" lon="-6.59739351272583">
        <ele>541.0</ele>
        <time>2019-04-23T05:33:55.000Z</time>
      </trkpt>
      <trkpt lat="42.546077728271484" lon="-6.5973358154296875">
        <ele>541.0</ele>
        <time>2019-04-23T05:33:57.000Z</time>
      </trkpt>
      <trkpt lat="42.546043395996094" lon="-6.597274303436279">
        <ele>541.0</ele>
        <time>2019-04-23T05:33:58.000Z</time>
      </trkpt>
      <trkpt lat="42.545982360839844" lon="-6.597230434417725">
        <ele>540.0</ele>
        <time>2019-04-23T05:34:04.000Z</time>
      </trkpt>
      <trkpt lat="42.545921325683594" lon="-6.5972137451171875">
        <ele>538.0</ele>
        <time>2019-04-23T05:34:10.000Z</time>
      </trkpt>
      <trkpt lat="42.54590606689453" lon="-6.5972065925598145">
        <ele>538.0</ele>
        <time>2019-04-23T05:34:11.000Z</time>
      </trkpt>
      <trkpt lat="42.5458984375" lon="-6.597202777862549">
        <ele>538.0</ele>
        <time>2019-04-23T05:34:11.000Z</time>
      </trkpt>
      <trkpt lat="42.545894622802734" lon="-6.597200870513916">
        <ele>538.0</ele>
        <time>2019-04-23T05:34:11.000Z</time>
      </trkpt>
      <trkpt lat="42.545894622802734" lon="-6.597200393676758">
        <ele>538.0</ele>
        <time>2019-04-23T05:34:11.000Z</time>
      </trkpt>
      <trkpt lat="42.545875549316406" lon="-6.597188472747803">
        <ele>538.0</ele>
        <time>2019-04-23T05:34:14.000Z</time>
      </trkpt>
      <trkpt lat="42.54585266113281" lon="-6.59717321395874">
        <ele>538.0</ele>
        <time>2019-04-23T05:34:16.000Z</time>
      </trkpt>
      <trkpt lat="42.54582595825195" lon="-6.597156047821045">
        <ele>537.0</ele>
        <time>2019-04-23T05:34:18.000Z</time>
      </trkpt>
      <trkpt lat="42.54579544067383" lon="-6.597137451171875">
        <ele>537.0</ele>
        <time>2019-04-23T05:34:20.000Z</time>
      </trkpt>
      <trkpt lat="42.54566955566406" lon="-6.597134113311768">
        <ele>535.0</ele>
        <time>2019-04-23T05:34:30.000Z</time>
      </trkpt>
      <trkpt lat="42.545501708984375" lon="-6.59714412689209">
        <ele>534.0</ele>
        <time>2019-04-23T05:34:40.000Z</time>
      </trkpt>
      <trkpt lat="42.54541778564453" lon="-6.59712553024292">
        <ele>533.0</ele>
        <time>2019-04-23T05:34:45.000Z</time>
      </trkpt>
      <trkpt lat="42.54533386230469" lon="-6.597097873687744">
        <ele>532.0</ele>
        <time>2019-04-23T05:34:50.000Z</time>
      </trkpt>
      <trkpt lat="42.54524230957031" lon="-6.597064971923828">
        <ele>531.0</ele>
        <time>2019-04-23T05:34:55.000Z</time>
      </trkpt>
      <trkpt lat="42.54515075683594" lon="-6.597028732299805">
        <ele>530.0</ele>
        <time>2019-04-23T05:34:59.000Z</time>
      </trkpt>
      <trkpt lat="42.54511260986328" lon="-6.597017288208008">
        <ele>529.0</ele>
        <time>2019-04-23T05:35:01.000Z</time>
      </trkpt>
      <trkpt lat="42.54509735107422" lon="-6.597013473510742">
        <ele>529.0</ele>
        <time>2019-04-23T05:35:03.000Z</time>
      </trkpt>
      <trkpt lat="42.54509735107422" lon="-6.597014427185059">
        <ele>529.0</ele>
        <time>2019-04-23T05:35:05.000Z</time>
      </trkpt>
      <trkpt lat="42.545101165771484" lon="-6.597018241882324">
        <ele>530.0</ele>
        <time>2019-04-23T05:35:07.000Z</time>
      </trkpt>
      <trkpt lat="42.54509353637695" lon="-6.597023010253906">
        <ele>529.0</ele>
        <time>2019-04-23T05:35:13.000Z</time>
      </trkpt>
      <trkpt lat="42.54508972167969" lon="-6.597031116485596">
        <ele>528.0</ele>
        <time>2019-04-23T05:35:19.000Z</time>
      </trkpt>
      <trkpt lat="42.54508590698242" lon="-6.597041130065918">
        <ele>527.0</ele>
        <time>2019-04-23T05:35:25.000Z</time>
      </trkpt>
      <trkpt lat="42.545082092285156" lon="-6.597052097320557">
        <ele>526.0</ele>
        <time>2019-04-23T05:35:30.000Z</time>
      </trkpt>
      <trkpt lat="42.54507827758789" lon="-6.59705924987793">
        <ele>525.0</ele>
        <time>2019-04-23T05:35:31.000Z</time>
      </trkpt>
      <trkpt lat="42.545074462890625" lon="-6.597065448760986">
        <ele>525.0</ele>
        <time>2019-04-23T05:35:31.000Z</time>
      </trkpt>
      <trkpt lat="42.54507064819336" lon="-6.597071170806885">
        <ele>525.0</ele>
        <time>2019-04-23T05:35:31.000Z</time>
      </trkpt>
      <trkpt lat="42.545066833496094" lon="-6.597076892852783">
        <ele>526.0</ele>
        <time>2019-04-23T05:35:31.000Z</time>
      </trkpt>
      <trkpt lat="42.54505920410156" lon="-6.597093105316162">
        <ele>526.0</ele>
        <time>2019-04-23T05:35:32.000Z</time>
      </trkpt>
      <trkpt lat="42.5450439453125" lon="-6.597113132476807">
        <ele>525.0</ele>
        <time>2019-04-23T05:35:33.000Z</time>
      </trkpt>
      <trkpt lat="42.5450325012207" lon="-6.5971360206604">
        <ele>525.0</ele>
        <time>2019-04-23T05:35:34.000Z</time>
      </trkpt>
      <trkpt lat="42.545013427734375" lon="-6.597160339355469">
        <ele>525.0</ele>
        <time>2019-04-23T05:35:35.000Z</time>
      </trkpt>
      <trkpt lat="42.54500198364258" lon="-6.597167015075684">
        <ele>525.0</ele>
        <time>2019-04-23T05:35:39.000Z</time>
      </trkpt>
      <trkpt lat="42.54499435424805" lon="-6.59716796875">
        <ele>525.0</ele>
        <time>2019-04-23T05:35:42.000Z</time>
      </trkpt>
      <trkpt lat="42.54498291015625" lon="-6.597165107727051">
        <ele>524.0</ele>
        <time>2019-04-23T05:35:46.000Z</time>
      </trkpt>
      <trkpt lat="42.54497146606445" lon="-6.5971598625183105">
        <ele>524.0</ele>
        <time>2019-04-23T05:35:49.000Z</time>
      </trkpt>
      <trkpt lat="42.54496383666992" lon="-6.5971598625183105">
        <ele>524.0</ele>
        <time>2019-04-23T05:35:50.000Z</time>
      </trkpt>
      <trkpt lat="42.54495620727539" lon="-6.5971598625183105">
        <ele>524.0</ele>
        <time>2019-04-23T05:35:50.000Z</time>
      </trkpt>
      <trkpt lat="42.54494857788086" lon="-6.5971598625183105">
        <ele>524.0</ele>
        <time>2019-04-23T05:35:50.000Z</time>
      </trkpt>
      <trkpt lat="42.544944763183594" lon="-6.5971598625183105">
        <ele>524.0</ele>
        <time>2019-04-23T05:35:50.000Z</time>
      </trkpt>
      <trkpt lat="42.544883728027344" lon="-6.597158432006836">
        <ele>524.0</ele>
        <time>2019-04-23T05:35:55.000Z</time>
      </trkpt>
      <trkpt lat="42.5447998046875" lon="-6.597156524658203">
        <ele>523.0</ele>
        <time>2019-04-23T05:35:59.000Z</time>
      </trkpt>
      <trkpt lat="42.54470443725586" lon="-6.597154140472412">
        <ele>522.0</ele>
        <time>2019-04-23T05:36:04.000Z</time>
      </trkpt>
      <trkpt lat="42.54459762573242" lon="-6.597151756286621">
        <ele>522.0</ele>
        <time>2019-04-23T05:36:08.000Z</time>
      </trkpt>
      <trkpt lat="42.54452133178711" lon="-6.597198486328125">
        <ele>521.0</ele>
        <time>2019-04-23T05:36:16.000Z</time>
      </trkpt>
      <trkpt lat="42.54444885253906" lon="-6.597265243530273">
        <ele>520.0</ele>
        <time>2019-04-23T05:36:23.000Z</time>
      </trkpt>
      <trkpt lat="42.54438018798828" lon="-6.59734582901001">
        <ele>520.0</ele>
        <time>2019-04-23T05:36:31.000Z</time>
      </trkpt>
      <trkpt lat="42.544315338134766" lon="-6.597433090209961">
        <ele>519.0</ele>
        <time>2019-04-23T05:36:38.000Z</time>
      </trkpt>
      <trkpt lat="42.54420471191406" lon="-6.597476482391357">
        <ele>518.0</ele>
        <time>2019-04-23T05:36:46.000Z</time>
      </trkpt>
      <trkpt lat="42.54411315917969" lon="-6.597475051879883">
        <ele>516.0</ele>
        <time>2019-04-23T05:36:53.000Z</time>
      </trkpt>
      <trkpt lat="42.54404067993164" lon="-6.597530841827393">
        <ele>515.0</ele>
        <time>2019-04-23T05:36:59.000Z</time>
      </trkpt>
      <trkpt lat="42.543983459472656" lon="-6.597602844238281">
        <ele>515.0</ele>
        <time>2019-04-23T05:37:04.000Z</time>
      </trkpt>
      <trkpt lat="42.543975830078125" lon="-6.5976715087890625">
        <ele>514.0</ele>
        <time>2019-04-23T05:37:07.000Z</time>
      </trkpt>
      <trkpt lat="42.543975830078125" lon="-6.5977559089660645">
        <ele>514.0</ele>
        <time>2019-04-23T05:37:10.000Z</time>
      </trkpt>
      <trkpt lat="42.54397964477539" lon="-6.597850799560547">
        <ele>513.0</ele>
        <time>2019-04-23T05:37:13.000Z</time>
      </trkpt>
      <trkpt lat="42.54398727416992" lon="-6.597950458526611">
        <ele>513.0</ele>
        <time>2019-04-23T05:37:15.000Z</time>
      </trkpt>
      <trkpt lat="42.543975830078125" lon="-6.5980000495910645">
        <ele>512.0</ele>
        <time>2019-04-23T05:37:18.000Z</time>
      </trkpt>
      <trkpt lat="42.5439567565918" lon="-6.598034381866455">
        <ele>512.0</ele>
        <time>2019-04-23T05:37:21.000Z</time>
      </trkpt>
      <trkpt lat="42.54393768310547" lon="-6.598057746887207">
        <ele>512.0</ele>
        <time>2019-04-23T05:37:24.000Z</time>
      </trkpt>
      <trkpt lat="42.543914794921875" lon="-6.598076343536377">
        <ele>511.0</ele>
        <time>2019-04-23T05:37:27.000Z</time>
      </trkpt>
      <trkpt lat="42.54389190673828" lon="-6.598093509674072">
        <ele>511.0</ele>
        <time>2019-04-23T05:37:31.000Z</time>
      </trkpt>
      <trkpt lat="42.54387664794922" lon="-6.598089218139648">
        <ele>510.0</ele>
        <time>2019-04-23T05:37:35.000Z</time>
      </trkpt>
      <trkpt lat="42.54386901855469" lon="-6.598090171813965">
        <ele>510.0</ele>
        <time>2019-04-23T05:37:37.000Z</time>
      </trkpt>
      <trkpt lat="42.54386520385742" lon="-6.598089694976807">
        <ele>510.0</ele>
        <time>2019-04-23T05:37:39.000Z</time>
      </trkpt>
      <trkpt lat="42.54385757446289" lon="-6.598089218139648">
        <ele>510.0</ele>
        <time>2019-04-23T05:37:41.000Z</time>
      </trkpt>
      <trkpt lat="42.543853759765625" lon="-6.598087787628174">
        <ele>509.0</ele>
        <time>2019-04-23T05:37:43.000Z</time>
      </trkpt>
      <trkpt lat="42.543846130371094" lon="-6.598087787628174">
        <ele>509.0</ele>
        <time>2019-04-23T05:37:44.000Z</time>
      </trkpt>
      <trkpt lat="42.54384231567383" lon="-6.598087310791016">
        <ele>509.0</ele>
        <time>2019-04-23T05:37:44.000Z</time>
      </trkpt>
      <trkpt lat="42.54383850097656" lon="-6.598087310791016">
        <ele>509.0</ele>
        <time>2019-04-23T05:37:44.000Z</time>
      </trkpt>
      <trkpt lat="42.5438346862793" lon="-6.598086833953857">
        <ele>509.0</ele>
        <time>2019-04-23T05:37:44.000Z</time>
      </trkpt>
      <trkpt lat="42.54377746582031" lon="-6.598092079162598">
        <ele>509.0</ele>
        <time>2019-04-23T05:37:48.000Z</time>
      </trkpt>
      <trkpt lat="42.543697357177734" lon="-6.598099231719971">
        <ele>509.0</ele>
        <time>2019-04-23T05:37:51.000Z</time>
      </trkpt>
      <trkpt lat="42.543601989746094" lon="-6.598108291625977">
        <ele>508.0</ele>
        <time>2019-04-23T05:37:55.000Z</time>
      </trkpt>
      <trkpt lat="42.54349899291992" lon="-6.598117828369141">
        <ele>508.0</ele>
        <time>2019-04-23T05:37:58.000Z</time>
      </trkpt>
      <trkpt lat="42.54345703125" lon="-6.598128318786621">
        <ele>507.0</ele>
        <time>2019-04-23T05:38:00.000Z</time>
      </trkpt>
      <trkpt lat="42.543434143066406" lon="-6.598139762878418">
        <ele>507.0</ele>
        <time>2019-04-23T05:38:01.000Z</time>
      </trkpt>
      <trkpt lat="42.543426513671875" lon="-6.598152160644531">
        <ele>507.0</ele>
        <time>2019-04-23T05:38:03.000Z</time>
      </trkpt>
      <trkpt lat="42.54342269897461" lon="-6.598165035247803">
        <ele>507.0</ele>
        <time>2019-04-23T05:38:04.000Z</time>
      </trkpt>
      <trkpt lat="42.54343032836914" lon="-6.598210334777832">
        <ele>507.0</ele>
        <time>2019-04-23T05:38:08.000Z</time>
      </trkpt>
      <trkpt lat="42.54344940185547" lon="-6.598269462585449">
        <ele>507.0</ele>
        <time>2019-04-23T05:38:12.000Z</time>
      </trkpt>
      <trkpt lat="42.54347610473633" lon="-6.5983381271362305">
        <ele>507.0</ele>
        <time>2019-04-23T05:38:16.000Z</time>
      </trkpt>
      <trkpt lat="42.54350662231445" lon="-6.598411560058594">
        <ele>507.0</ele>
        <time>2019-04-23T05:38:19.000Z</time>
      </trkpt>
      <trkpt lat="42.54350662231445" lon="-6.598438262939453">
        <ele>509.0</ele>
        <time>2019-04-23T05:38:28.000Z</time>
      </trkpt>
      <trkpt lat="42.54349899291992" lon="-6.598450183868408">
        <ele>513.0</ele>
        <time>2019-04-23T05:38:36.000Z</time>
      </trkpt>
      <trkpt lat="42.54348373413086" lon="-6.598452568054199">
        <ele>517.0</ele>
        <time>2019-04-23T05:38:44.000Z</time>
      </trkpt>
      <trkpt lat="42.54346466064453" lon="-6.598450183868408">
        <ele>522.0</ele>
        <time>2019-04-23T05:38:52.000Z</time>
      </trkpt>
      <trkpt lat="42.543453216552734" lon="-6.598458290100098">
        <ele>523.0</ele>
        <time>2019-04-23T05:38:53.000Z</time>
      </trkpt>
      <trkpt lat="42.5434455871582" lon="-6.598466396331787">
        <ele>524.0</ele>
        <time>2019-04-23T05:38:53.000Z</time>
      </trkpt>
      <trkpt lat="42.543434143066406" lon="-6.598474025726318">
        <ele>523.0</ele>
        <time>2019-04-23T05:38:53.000Z</time>
      </trkpt>
      <trkpt lat="42.543426513671875" lon="-6.59848165512085">
        <ele>522.0</ele>
        <time>2019-04-23T05:38:53.000Z</time>
      </trkpt>
      <trkpt lat="42.543373107910156" lon="-6.5985307693481445">
        <ele>521.0</ele>
        <time>2019-04-23T05:38:54.000Z</time>
      </trkpt>
      <trkpt lat="42.54330062866211" lon="-6.598598003387451">
        <ele>519.0</ele>
        <time>2019-04-23T05:38:54.000Z</time>
      </trkpt>
      <trkpt lat="42.543212890625" lon="-6.5986762046813965">
        <ele>517.0</ele>
        <time>2019-04-23T05:38:55.000Z</time>
      </trkpt>
      <trkpt lat="42.543121337890625" lon="-6.598760604858398">
        <ele>515.0</ele>
        <time>2019-04-23T05:38:55.000Z</time>
      </trkpt>
      <trkpt lat="42.54307174682617" lon="-6.598817825317383">
        <ele>514.0</ele>
        <time>2019-04-23T05:38:59.000Z</time>
      </trkpt>
      <trkpt lat="42.54303741455078" lon="-6.598870277404785">
        <ele>513.0</ele>
        <time>2019-04-23T05:39:03.000Z</time>
      </trkpt>
      <trkpt lat="42.54301452636719" lon="-6.598918914794922">
        <ele>511.0</ele>
        <time>2019-04-23T05:39:07.000Z</time>
      </trkpt>
      <trkpt lat="42.542991638183594" lon="-6.598966121673584">
        <ele>510.0</ele>
        <time>2019-04-23T05:39:10.000Z</time>
      </trkpt>
      <trkpt lat="42.54298400878906" lon="-6.5989861488342285">
        <ele>511.0</ele>
        <time>2019-04-23T05:39:18.000Z</time>
      </trkpt>
      <trkpt lat="42.5429801940918" lon="-6.598992824554443">
        <ele>513.0</ele>
        <time>2019-04-23T05:39:25.000Z</time>
      </trkpt>
      <trkpt lat="42.54298400878906" lon="-6.598990440368652">
        <ele>515.0</ele>
        <time>2019-04-23T05:39:33.000Z</time>
      </trkpt>
      <trkpt lat="42.542991638183594" lon="-6.5989837646484375">
        <ele>518.0</ele>
        <time>2019-04-23T05:39:40.000Z</time>
      </trkpt>
      <trkpt lat="42.54299545288086" lon="-6.598988056182861">
        <ele>519.0</ele>
        <time>2019-04-23T05:39:41.000Z</time>
      </trkpt>
      <trkpt lat="42.54299545288086" lon="-6.598992347717285">
        <ele>519.0</ele>
        <time>2019-04-23T05:39:41.000Z</time>
      </trkpt>
      <trkpt lat="42.54299545288086" lon="-6.598996162414551">
        <ele>518.0</ele>
        <time>2019-04-23T05:39:41.000Z</time>
      </trkpt>
      <trkpt lat="42.54299545288086" lon="-6.598999977111816">
        <ele>518.0</ele>
        <time>2019-04-23T05:39:41.000Z</time>
      </trkpt>
      <trkpt lat="42.54301452636719" lon="-6.599430561065674">
        <ele>515.0</ele>
        <time>2019-04-23T05:39:52.000Z</time>
      </trkpt>
      <trkpt lat="42.54302978515625" lon="-6.599592208862305">
        <ele>514.0</ele>
        <time>2019-04-23T05:40:00.000Z</time>
      </trkpt>
      <trkpt lat="42.543006896972656" lon="-6.599628925323486">
        <ele>514.0</ele>
        <time>2019-04-23T05:40:03.000Z</time>
      </trkpt>
      <trkpt lat="42.54296875" lon="-6.599663734436035">
        <ele>513.0</ele>
        <time>2019-04-23T05:40:06.000Z</time>
      </trkpt>
      <trkpt lat="42.54292678833008" lon="-6.599697589874268">
        <ele>513.0</ele>
        <time>2019-04-23T05:40:09.000Z</time>
      </trkpt>
      <trkpt lat="42.54288101196289" lon="-6.599730491638184">
        <ele>512.0</ele>
        <time>2019-04-23T05:40:11.000Z</time>
      </trkpt>
      <trkpt lat="42.542850494384766" lon="-6.599747657775879">
        <ele>512.0</ele>
        <time>2019-04-23T05:40:16.000Z</time>
      </trkpt>
      <trkpt lat="42.54282760620117" lon="-6.599757194519043">
        <ele>511.0</ele>
        <time>2019-04-23T05:40:20.000Z</time>
      </trkpt>
      <trkpt lat="42.54280471801758" lon="-6.599761962890625">
        <ele>511.0</ele>
        <time>2019-04-23T05:40:24.000Z</time>
      </trkpt>
      <trkpt lat="42.54278564453125" lon="-6.599763870239258">
        <ele>511.0</ele>
        <time>2019-04-23T05:40:28.000Z</time>
      </trkpt>
      <trkpt lat="42.54277038574219" lon="-6.599769115447998">
        <ele>511.0</ele>
        <time>2019-04-23T05:40:29.000Z</time>
      </trkpt>
      <trkpt lat="42.542762756347656" lon="-6.599772930145264">
        <ele>511.0</ele>
        <time>2019-04-23T05:40:29.000Z</time>
      </trkpt>
      <trkpt lat="42.542755126953125" lon="-6.599775314331055">
        <ele>511.0</ele>
        <time>2019-04-23T05:40:29.000Z</time>
      </trkpt>
      <trkpt lat="42.542747497558594" lon="-6.599777698516846">
        <ele>511.0</ele>
        <time>2019-04-23T05:40:29.000Z</time>
      </trkpt>
      <trkpt lat="42.542720794677734" lon="-6.599783420562744">
        <ele>511.0</ele>
        <time>2019-04-23T05:40:31.000Z</time>
      </trkpt>
      <trkpt lat="42.54268264770508" lon="-6.599790573120117">
        <ele>511.0</ele>
        <time>2019-04-23T05:40:32.000Z</time>
      </trkpt>
      <trkpt lat="42.54264450073242" lon="-6.59979772567749">
        <ele>511.0</ele>
        <time>2019-04-23T05:40:34.000Z</time>
      </trkpt>
      <trkpt lat="42.542598724365234" lon="-6.59980583190918">
        <ele>511.0</ele>
        <time>2019-04-23T05:40:35.000Z</time>
      </trkpt>
      <trkpt lat="42.54258346557617" lon="-6.599797248840332">
        <ele>511.0</ele>
        <time>2019-04-23T05:40:38.000Z</time>
      </trkpt>
      <trkpt lat="42.54257583618164" lon="-6.599782943725586">
        <ele>512.0</ele>
        <time>2019-04-23T05:40:41.000Z</time>
      </trkpt>
      <trkpt lat="42.54257583618164" lon="-6.599763870239258">
        <ele>512.0</ele>
        <time>2019-04-23T05:40:44.000Z</time>
      </trkpt>
      <trkpt lat="42.54257583618164" lon="-6.599743366241455">
        <ele>512.0</ele>
        <time>2019-04-23T05:40:47.000Z</time>
      </trkpt>
      <trkpt lat="42.542572021484375" lon="-6.599742412567139">
        <ele>512.0</ele>
        <time>2019-04-23T05:40:52.000Z</time>
      </trkpt>
      <trkpt lat="42.54256820678711" lon="-6.599748134613037">
        <ele>511.0</ele>
        <time>2019-04-23T05:40:56.000Z</time>
      </trkpt>
      <trkpt lat="42.542564392089844" lon="-6.599757671356201">
        <ele>510.0</ele>
        <time>2019-04-23T05:41:01.000Z</time>
      </trkpt>
      <trkpt lat="42.542564392089844" lon="-6.599769592285156">
        <ele>508.0</ele>
        <time>2019-04-23T05:41:05.000Z</time>
      </trkpt>
      <trkpt lat="42.54256057739258" lon="-6.599775314331055">
        <ele>508.0</ele>
        <time>2019-04-23T05:41:06.000Z</time>
      </trkpt>
      <trkpt lat="42.54255676269531" lon="-6.599780559539795">
        <ele>508.0</ele>
        <time>2019-04-23T05:41:06.000Z</time>
      </trkpt>
      <trkpt lat="42.54255294799805" lon="-6.599785804748535">
        <ele>508.0</ele>
        <time>2019-04-23T05:41:06.000Z</time>
      </trkpt>
      <trkpt lat="42.54255294799805" lon="-6.599791049957275">
        <ele>508.0</ele>
        <time>2019-04-23T05:41:06.000Z</time>
      </trkpt>
      <trkpt lat="42.54252624511719" lon="-6.599859237670898">
        <ele>508.0</ele>
        <time>2019-04-23T05:41:10.000Z</time>
      </trkpt>
      <trkpt lat="42.5424919128418" lon="-6.599954128265381">
        <ele>508.0</ele>
        <time>2019-04-23T05:41:14.000Z</time>
      </trkpt>
      <trkpt lat="42.542449951171875" lon="-6.600066661834717">
        <ele>507.0</ele>
        <time>2019-04-23T05:41:18.000Z</time>
      </trkpt>
      <trkpt lat="42.54240417480469" lon="-6.600188255310059">
        <ele>506.0</ele>
        <time>2019-04-23T05:41:21.000Z</time>
      </trkpt>
      <trkpt lat="42.54237365722656" lon="-6.600297451019287">
        <ele>505.0</ele>
        <time>2019-04-23T05:41:28.000Z</time>
      </trkpt>
      <trkpt lat="42.5423469543457" lon="-6.600411415100098">
        <ele>503.0</ele>
        <time>2019-04-23T05:41:35.000Z</time>
      </trkpt>
      <trkpt lat="42.54232406616211" lon="-6.600527763366699">
        <ele>501.0</ele>
        <time>2019-04-23T05:41:42.000Z</time>
      </trkpt>
      <trkpt lat="42.542301177978516" lon="-6.600646018981934">
        <ele>499.0</ele>
        <time>2019-04-23T05:41:48.000Z</time>
      </trkpt>
      <trkpt lat="42.54228591918945" lon="-6.600741863250732">
        <ele>498.0</ele>
        <time>2019-04-23T05:41:55.000Z</time>
      </trkpt>
      <trkpt lat="42.542274475097656" lon="-6.600830078125">
        <ele>497.0</ele>
        <time>2019-04-23T05:42:02.000Z</time>
      </trkpt>
      <trkpt lat="42.542266845703125" lon="-6.600913047790527">
        <ele>495.0</ele>
        <time>2019-04-23T05:42:09.000Z</time>
      </trkpt>
      <trkpt lat="42.542259216308594" lon="-6.600993633270264">
        <ele>494.0</ele>
        <time>2019-04-23T05:42:15.000Z</time>
      </trkpt>
      <trkpt lat="42.542240142822266" lon="-6.601037979125977">
        <ele>493.0</ele>
        <time>2019-04-23T05:42:23.000Z</time>
      </trkpt>
      <trkpt lat="42.54222106933594" lon="-6.601022243499756">
        <ele>491.0</ele>
        <time>2019-04-23T05:42:30.000Z</time>
      </trkpt>
      <trkpt lat="42.542213439941406" lon="-6.601027965545654">
        <ele>491.0</ele>
        <time>2019-04-23T05:42:31.000Z</time>
      </trkpt>
      <trkpt lat="42.54220962524414" lon="-6.601032733917236">
        <ele>491.0</ele>
        <time>2019-04-23T05:42:31.000Z</time>
      </trkpt>
      <trkpt lat="42.54220199584961" lon="-6.60103702545166">
        <ele>491.0</ele>
        <time>2019-04-23T05:42:31.000Z</time>
      </trkpt>
      <trkpt lat="42.542198181152344" lon="-6.601041316986084">
        <ele>491.0</ele>
        <time>2019-04-23T05:42:31.000Z</time>
      </trkpt>
      <trkpt lat="42.54216384887695" lon="-6.601075649261475">
        <ele>491.0</ele>
        <time>2019-04-23T05:42:33.000Z</time>
      </trkpt>
      <trkpt lat="42.54212188720703" lon="-6.6011223793029785">
        <ele>491.0</ele>
        <time>2019-04-23T05:42:35.000Z</time>
      </trkpt>
      <trkpt lat="42.54207229614258" lon="-6.601177215576172">
        <ele>491.0</ele>
        <time>2019-04-23T05:42:37.000Z</time>
      </trkpt>
      <trkpt lat="42.54201889038086" lon="-6.601236343383789">
        <ele>490.0</ele>
        <time>2019-04-23T05:42:39.000Z</time>
      </trkpt>
      <trkpt lat="42.54199981689453" lon="-6.6012864112854">
        <ele>490.0</ele>
        <time>2019-04-23T05:42:43.000Z</time>
      </trkpt>
      <trkpt lat="42.5419921875" lon="-6.601336479187012">
        <ele>489.0</ele>
        <time>2019-04-23T05:42:47.000Z</time>
      </trkpt>
      <trkpt lat="42.5419921875" lon="-6.601387023925781">
        <ele>489.0</ele>
        <time>2019-04-23T05:42:51.000Z</time>
      </trkpt>
      <trkpt lat="42.5419921875" lon="-6.601438045501709">
        <ele>488.0</ele>
        <time>2019-04-23T05:42:55.000Z</time>
      </trkpt>
      <trkpt lat="42.5419807434082" lon="-6.601535320281982">
        <ele>488.0</ele>
        <time>2019-04-23T05:43:03.000Z</time>
      </trkpt>
      <trkpt lat="42.541969299316406" lon="-6.6016526222229">
        <ele>487.0</ele>
        <time>2019-04-23T05:43:11.000Z</time>
      </trkpt>
      <trkpt lat="42.54195785522461" lon="-6.60178279876709">
        <ele>486.0</ele>
        <time>2019-04-23T05:43:19.000Z</time>
      </trkpt>
      <trkpt lat="42.54194259643555" lon="-6.601919651031494">
        <ele>486.0</ele>
        <time>2019-04-23T05:43:26.000Z</time>
      </trkpt>
      <trkpt lat="42.541934967041016" lon="-6.601973533630371">
        <ele>486.0</ele>
        <time>2019-04-23T05:43:28.000Z</time>
      </trkpt>
      <trkpt lat="42.54192352294922" lon="-6.601999282836914">
        <ele>486.0</ele>
        <time>2019-04-23T05:43:30.000Z</time>
      </trkpt>
      <trkpt lat="42.54191589355469" lon="-6.602005958557129">
        <ele>486.0</ele>
        <time>2019-04-23T05:43:32.000Z</time>
      </trkpt>
      <trkpt lat="42.541908264160156" lon="-6.602004051208496">
        <ele>486.0</ele>
        <time>2019-04-23T05:43:33.000Z</time>
      </trkpt>
      <trkpt lat="42.541893005371094" lon="-6.602010726928711">
        <ele>487.0</ele>
        <time>2019-04-23T05:43:36.000Z</time>
      </trkpt>
      <trkpt lat="42.541873931884766" lon="-6.602011680603027">
        <ele>488.0</ele>
        <time>2019-04-23T05:43:39.000Z</time>
      </trkpt>
      <trkpt lat="42.54185485839844" lon="-6.602008819580078">
        <ele>490.0</ele>
        <time>2019-04-23T05:43:42.000Z</time>
      </trkpt>
      <trkpt lat="42.54183578491211" lon="-6.602003574371338">
        <ele>491.0</ele>
        <time>2019-04-23T05:43:45.000Z</time>
      </trkpt>
      <trkpt lat="42.541831970214844" lon="-6.601992607116699">
        <ele>492.0</ele>
        <time>2019-04-23T05:43:47.000Z</time>
      </trkpt>
      <trkpt lat="42.54183578491211" lon="-6.601977348327637">
        <ele>493.0</ele>
        <time>2019-04-23T05:43:49.000Z</time>
      </trkpt>
      <trkpt lat="42.541847229003906" lon="-6.601958751678467">
        <ele>493.0</ele>
        <time>2019-04-23T05:43:50.000Z</time>
      </trkpt>
      <trkpt lat="42.5418586730957" lon="-6.601938724517822">
        <ele>494.0</ele>
        <time>2019-04-23T05:43:52.000Z</time>
      </trkpt>
      <trkpt lat="42.54184341430664" lon="-6.601939678192139">
        <ele>494.0</ele>
        <time>2019-04-23T05:43:54.000Z</time>
      </trkpt>
      <trkpt lat="42.54182052612305" lon="-6.601948261260986">
        <ele>495.0</ele>
        <time>2019-04-23T05:43:56.000Z</time>
      </trkpt>
      <trkpt lat="42.54179382324219" lon="-6.601961135864258">
        <ele>496.0</ele>
        <time>2019-04-23T05:43:58.000Z</time>
      </trkpt>
      <trkpt lat="42.5417594909668" lon="-6.6019768714904785">
        <ele>497.0</ele>
        <time>2019-04-23T05:44:00.000Z</time>
      </trkpt>
      <trkpt lat="42.54167175292969" lon="-6.601963043212891">
        <ele>501.0</ele>
        <time>2019-04-23T05:44:12.000Z</time>
      </trkpt>
      <trkpt lat="42.541561126708984" lon="-6.601934432983398">
        <ele>506.0</ele>
        <time>2019-04-23T05:44:23.000Z</time>
      </trkpt>
      <trkpt lat="42.541500091552734" lon="-6.60197114944458">
        <ele>508.0</ele>
        <time>2019-04-23T05:44:35.000Z</time>
      </trkpt>
      <trkpt lat="42.54143142700195" lon="-6.602027416229248">
        <ele>510.0</ele>
        <time>2019-04-23T05:44:47.000Z</time>
      </trkpt>
      <trkpt lat="42.54136276245117" lon="-6.602097034454346">
        <ele>511.0</ele>
        <time>2019-04-23T05:44:59.000Z</time>
      </trkpt>
      <trkpt lat="42.54128646850586" lon="-6.602173328399658">
        <ele>512.0</ele>
        <time>2019-04-23T05:45:11.000Z</time>
      </trkpt>
      <trkpt lat="42.541255950927734" lon="-6.60223388671875">
        <ele>511.0</ele>
        <time>2019-04-23T05:45:23.000Z</time>
      </trkpt>
      <trkpt lat="42.5412712097168" lon="-6.602267265319824">
        <ele>509.0</ele>
        <time>2019-04-23T05:45:34.000Z</time>
      </trkpt>
      <trkpt lat="42.5412712097168" lon="-6.602282524108887">
        <ele>508.0</ele>
        <time>2019-04-23T05:45:35.000Z</time>
      </trkpt>
      <trkpt lat="42.54126739501953" lon="-6.602294445037842">
        <ele>508.0</ele>
        <time>2019-04-23T05:45:35.000Z</time>
      </trkpt>
      <trkpt lat="42.54126739501953" lon="-6.602303981781006">
        <ele>508.0</ele>
        <time>2019-04-23T05:45:35.000Z</time>
      </trkpt>
      <trkpt lat="42.54126739501953" lon="-6.602312088012695">
        <ele>509.0</ele>
        <time>2019-04-23T05:45:35.000Z</time>
      </trkpt>
      <trkpt lat="42.541263580322266" lon="-6.602325439453125">
        <ele>509.0</ele>
        <time>2019-04-23T05:45:36.000Z</time>
      </trkpt>
      <trkpt lat="42.541259765625" lon="-6.602339267730713">
        <ele>509.0</ele>
        <time>2019-04-23T05:45:36.000Z</time>
      </trkpt>
      <trkpt lat="42.541259765625" lon="-6.602353572845459">
        <ele>508.0</ele>
        <time>2019-04-23T05:45:37.000Z</time>
      </trkpt>
      <trkpt lat="42.541255950927734" lon="-6.602368354797363">
        <ele>508.0</ele>
        <time>2019-04-23T05:45:37.000Z</time>
      </trkpt>
      <trkpt lat="42.541255950927734" lon="-6.602375507354736">
        <ele>508.0</ele>
        <time>2019-04-23T05:45:40.000Z</time>
      </trkpt>
      <trkpt lat="42.541255950927734" lon="-6.602380275726318">
        <ele>507.0</ele>
        <time>2019-04-23T05:45:42.000Z</time>
      </trkpt>
      <trkpt lat="42.541255950927734" lon="-6.602382659912109">
        <ele>506.0</ele>
        <time>2019-04-23T05:45:45.000Z</time>
      </trkpt>
      <trkpt lat="42.541255950927734" lon="-6.602384090423584">
        <ele>506.0</ele>
        <time>2019-04-23T05:45:47.000Z</time>
      </trkpt>
      <trkpt lat="42.541255950927734" lon="-6.60238790512085">
        <ele>505.0</ele>
        <time>2019-04-23T05:45:48.000Z</time>
      </trkpt>
      <trkpt lat="42.541255950927734" lon="-6.602391719818115">
        <ele>505.0</ele>
        <time>2019-04-23T05:45:48.000Z</time>
      </trkpt>
      <trkpt lat="42.54125213623047" lon="-6.602395057678223">
        <ele>505.0</ele>
        <time>2019-04-23T05:45:48.000Z</time>
      </trkpt>
      <trkpt lat="42.54125213623047" lon="-6.60239839553833">
        <ele>506.0</ele>
        <time>2019-04-23T05:45:48.000Z</time>
      </trkpt>
      <trkpt lat="42.54124450683594" lon="-6.602478504180908">
        <ele>505.0</ele>
        <time>2019-04-23T05:45:53.000Z</time>
      </trkpt>
      <trkpt lat="42.54123306274414" lon="-6.602590084075928">
        <ele>504.0</ele>
        <time>2019-04-23T05:45:57.000Z</time>
      </trkpt>
      <trkpt lat="42.54121780395508" lon="-6.602723121643066">
        <ele>502.0</ele>
        <time>2019-04-23T05:46:02.000Z</time>
      </trkpt>
      <trkpt lat="42.541202545166016" lon="-6.6028666496276855">
        <ele>501.0</ele>
        <time>2019-04-23T05:46:06.000Z</time>
      </trkpt>
      <trkpt lat="42.54106140136719" lon="-6.603302478790283">
        <ele>497.0</ele>
        <time>2019-04-23T05:46:33.000Z</time>
      </trkpt>
      <trkpt lat="42.541038513183594" lon="-6.603767395019531">
        <ele>494.0</ele>
        <time>2019-04-23T05:47:09.000Z</time>
      </trkpt>
      <trkpt lat="42.540958404541016" lon="-6.603961944580078">
        <ele>493.0</ele>
        <time>2019-04-23T05:47:22.000Z</time>
      </trkpt>
      <trkpt lat="42.54084777832031" lon="-6.6041388511657715">
        <ele>493.0</ele>
        <time>2019-04-23T05:47:34.000Z</time>
      </trkpt>
      <trkpt lat="42.540828704833984" lon="-6.604201793670654">
        <ele>493.0</ele>
        <time>2019-04-23T05:47:38.000Z</time>
      </trkpt>
      <trkpt lat="42.54082107543945" lon="-6.604251861572266">
        <ele>494.0</ele>
        <time>2019-04-23T05:47:41.000Z</time>
      </trkpt>
      <trkpt lat="42.54082107543945" lon="-6.604293346405029">
        <ele>494.0</ele>
        <time>2019-04-23T05:47:45.000Z</time>
      </trkpt>
      <trkpt lat="42.54082107543945" lon="-6.604331016540527">
        <ele>494.0</ele>
        <time>2019-04-23T05:47:48.000Z</time>
      </trkpt>
      <trkpt lat="42.54082107543945" lon="-6.60435152053833">
        <ele>494.0</ele>
        <time>2019-04-23T05:47:52.000Z</time>
      </trkpt>
      <trkpt lat="42.54081726074219" lon="-6.604360580444336">
        <ele>495.0</ele>
        <time>2019-04-23T05:47:55.000Z</time>
      </trkpt>
      <trkpt lat="42.54081726074219" lon="-6.604362487792969">
        <ele>495.0</ele>
        <time>2019-04-23T05:47:59.000Z</time>
      </trkpt>
      <trkpt lat="42.54081726074219" lon="-6.604360103607178">
        <ele>496.0</ele>
        <time>2019-04-23T05:48:02.000Z</time>
      </trkpt>
      <trkpt lat="42.54081726074219" lon="-6.604366302490234">
        <ele>496.0</ele>
        <time>2019-04-23T05:48:03.000Z</time>
      </trkpt>
      <trkpt lat="42.54081344604492" lon="-6.604372024536133">
        <ele>496.0</ele>
        <time>2019-04-23T05:48:03.000Z</time>
      </trkpt>
      <trkpt lat="42.54081344604492" lon="-6.604377746582031">
        <ele>496.0</ele>
        <time>2019-04-23T05:48:03.000Z</time>
      </trkpt>
      <trkpt lat="42.54081344604492" lon="-6.60438346862793">
        <ele>496.0</ele>
        <time>2019-04-23T05:48:03.000Z</time>
      </trkpt>
      <trkpt lat="42.54079818725586" lon="-6.604455947875977">
        <ele>496.0</ele>
        <time>2019-04-23T05:48:08.000Z</time>
      </trkpt>
      <trkpt lat="42.54077911376953" lon="-6.604556083679199">
        <ele>496.0</ele>
        <time>2019-04-23T05:48:12.000Z</time>
      </trkpt>
      <trkpt lat="42.54075622558594" lon="-6.60467529296875">
        <ele>496.0</ele>
        <time>2019-04-23T05:48:17.000Z</time>
      </trkpt>
      <trkpt lat="42.54072952270508" lon="-6.604803562164307">
        <ele>497.0</ele>
        <time>2019-04-23T05:48:21.000Z</time>
      </trkpt>
      <trkpt lat="42.54070281982422" lon="-6.604912281036377">
        <ele>497.0</ele>
        <time>2019-04-23T05:48:28.000Z</time>
      </trkpt>
      <trkpt lat="42.540672302246094" lon="-6.605022430419922">
        <ele>497.0</ele>
        <time>2019-04-23T05:48:34.000Z</time>
      </trkpt>
      <trkpt lat="42.5406379699707" lon="-6.605134010314941">
        <ele>497.0</ele>
        <time>2019-04-23T05:48:40.000Z</time>
      </trkpt>
      <trkpt lat="42.54060363769531" lon="-6.605246067047119">
        <ele>498.0</ele>
        <time>2019-04-23T05:48:46.000Z</time>
      </trkpt>
      <trkpt lat="42.5404052734375" lon="-6.6056318283081055">
        <ele>498.0</ele>
        <time>2019-04-23T05:49:20.000Z</time>
      </trkpt>
      <trkpt lat="42.54024887084961" lon="-6.606054306030273">
        <ele>497.0</ele>
        <time>2019-04-23T05:49:49.000Z</time>
      </trkpt>
      <trkpt lat="42.540184020996094" lon="-6.606512069702148">
        <ele>495.0</ele>
        <time>2019-04-23T05:50:22.000Z</time>
      </trkpt>
      <trkpt lat="42.54018020629883" lon="-6.606558799743652">
        <ele>495.0</ele>
        <time>2019-04-23T05:50:27.000Z</time>
      </trkpt>
      <trkpt lat="42.54017639160156" lon="-6.606613636016846">
        <ele>492.0</ele>
        <time>2019-04-23T05:50:42.000Z</time>
      </trkpt>
      <trkpt lat="42.5401725769043" lon="-6.606651306152344">
        <ele>492.0</ele>
        <time>2019-04-23T05:50:43.000Z</time>
      </trkpt>
      <trkpt lat="42.540138244628906" lon="-6.607120037078857">
        <ele>491.0</ele>
        <time>2019-04-23T05:51:04.000Z</time>
      </trkpt>
      <trkpt lat="42.54014587402344" lon="-6.607174873352051">
        <ele>491.0</ele>
        <time>2019-04-23T05:51:09.000Z</time>
      </trkpt>
      <trkpt lat="42.5401496887207" lon="-6.6072163581848145">
        <ele>490.0</ele>
        <time>2019-04-23T05:51:24.000Z</time>
      </trkpt>
      <trkpt lat="42.54015350341797" lon="-6.6072468757629395">
        <ele>490.0</ele>
        <time>2019-04-23T05:51:25.000Z</time>
      </trkpt>
      <trkpt lat="42.540283203125" lon="-6.6076860427856445">
        <ele>489.0</ele>
        <time>2019-04-23T05:51:42.000Z</time>
      </trkpt>
      <trkpt lat="42.540374755859375" lon="-6.607997417449951">
        <ele>489.0</ele>
        <time>2019-04-23T05:52:07.000Z</time>
      </trkpt>
      <trkpt lat="42.54039001464844" lon="-6.6080522537231445">
        <ele>488.0</ele>
        <time>2019-04-23T05:52:37.000Z</time>
      </trkpt>
      <trkpt lat="42.540401458740234" lon="-6.60808801651001">
        <ele>488.0</ele>
        <time>2019-04-23T05:52:38.000Z</time>
      </trkpt>
      <trkpt lat="42.540550231933594" lon="-6.608505725860596">
        <ele>482.0</ele>
        <time>2019-04-23T05:53:03.000Z</time>
      </trkpt>
      <trkpt lat="42.54073715209961" lon="-6.6088948249816895">
        <ele>480.0</ele>
        <time>2019-04-23T05:53:35.000Z</time>
      </trkpt>
      <trkpt lat="42.54087829589844" lon="-6.609333038330078">
        <ele>481.0</ele>
        <time>2019-04-23T05:54:04.000Z</time>
      </trkpt>
      <trkpt lat="42.54104232788086" lon="-6.609755039215088">
        <ele>484.0</ele>
        <time>2019-04-23T05:54:35.000Z</time>
      </trkpt>
      <trkpt lat="42.541160583496094" lon="-6.610198020935059">
        <ele>485.0</ele>
        <time>2019-04-23T05:55:11.000Z</time>
      </trkpt>
      <trkpt lat="42.541255950927734" lon="-6.610655307769775">
        <ele>490.0</ele>
        <time>2019-04-23T05:55:50.000Z</time>
      </trkpt>
      <trkpt lat="42.54127883911133" lon="-6.611140727996826">
        <ele>489.0</ele>
        <time>2019-04-23T05:56:21.000Z</time>
      </trkpt>
      <trkpt lat="42.5412712097168" lon="-6.611622333526611">
        <ele>490.0</ele>
        <time>2019-04-23T05:56:59.000Z</time>
      </trkpt>
      <trkpt lat="42.54125213623047" lon="-6.611788749694824">
        <ele>490.0</ele>
        <time>2019-04-23T05:57:16.000Z</time>
      </trkpt>
      <trkpt lat="42.54125213623047" lon="-6.611830711364746">
        <ele>492.0</ele>
        <time>2019-04-23T05:57:39.000Z</time>
      </trkpt>
      <trkpt lat="42.54125213623047" lon="-6.611861228942871">
        <ele>492.0</ele>
        <time>2019-04-23T05:57:40.000Z</time>
      </trkpt>
      <trkpt lat="42.5412483215332" lon="-6.612310409545898">
        <ele>494.0</ele>
        <time>2019-04-23T05:58:04.000Z</time>
      </trkpt>
      <trkpt lat="42.54121398925781" lon="-6.612509727478027">
        <ele>494.0</ele>
        <time>2019-04-23T05:58:19.000Z</time>
      </trkpt>
      <trkpt lat="42.54118347167969" lon="-6.612640857696533">
        <ele>498.0</ele>
        <time>2019-04-23T05:58:40.000Z</time>
      </trkpt>
      <trkpt lat="42.54117202758789" lon="-6.6126909255981445">
        <ele>498.0</ele>
        <time>2019-04-23T05:58:41.000Z</time>
      </trkpt>
      <trkpt lat="42.5411376953125" lon="-6.612834930419922">
        <ele>499.0</ele>
        <time>2019-04-23T05:58:50.000Z</time>
      </trkpt>
      <trkpt lat="42.54107666015625" lon="-6.612944602966309">
        <ele>504.0</ele>
        <time>2019-04-23T05:59:05.000Z</time>
      </trkpt>
      <trkpt lat="42.54105758666992" lon="-6.612981796264648">
        <ele>504.0</ele>
        <time>2019-04-23T05:59:06.000Z</time>
      </trkpt>
      <trkpt lat="42.5408935546875" lon="-6.6133809089660645">
        <ele>507.0</ele>
        <time>2019-04-23T05:59:36.000Z</time>
      </trkpt>
      <trkpt lat="42.5408935546875" lon="-6.61338472366333">
        <ele>508.0</ele>
        <time>2019-04-23T05:59:37.000Z</time>
      </trkpt>
      <trkpt lat="42.54084777832031" lon="-6.613489151000977">
        <ele>511.0</ele>
        <time>2019-04-23T05:59:50.000Z</time>
      </trkpt>
      <trkpt lat="42.540828704833984" lon="-6.61353063583374">
        <ele>511.0</ele>
        <time>2019-04-23T05:59:51.000Z</time>
      </trkpt>
      <trkpt lat="42.54063415527344" lon="-6.613919258117676">
        <ele>517.0</ele>
        <time>2019-04-23T06:00:17.000Z</time>
      </trkpt>
      <trkpt lat="42.54044723510742" lon="-6.614289283752441">
        <ele>523.0</ele>
        <time>2019-04-23T06:00:46.000Z</time>
      </trkpt>
      <trkpt lat="42.540225982666016" lon="-6.6146416664123535">
        <ele>526.0</ele>
        <time>2019-04-23T06:01:13.000Z</time>
      </trkpt>
      <trkpt lat="42.54021072387695" lon="-6.614711284637451">
        <ele>528.0</ele>
        <time>2019-04-23T06:01:33.000Z</time>
      </trkpt>
      <trkpt lat="42.540199279785156" lon="-6.614751815795898">
        <ele>528.0</ele>
        <time>2019-04-23T06:01:34.000Z</time>
      </trkpt>
      <trkpt lat="42.5400505065918" lon="-6.615166664123535">
        <ele>529.0</ele>
        <time>2019-04-23T06:01:53.000Z</time>
      </trkpt>
      <trkpt lat="42.53998565673828" lon="-6.615285873413086">
        <ele>530.0</ele>
        <time>2019-04-23T06:02:03.000Z</time>
      </trkpt>
      <trkpt lat="42.53996658325195" lon="-6.615319728851318">
        <ele>531.0</ele>
        <time>2019-04-23T06:02:18.000Z</time>
      </trkpt>
      <trkpt lat="42.53995132446289" lon="-6.615345001220703">
        <ele>531.0</ele>
        <time>2019-04-23T06:02:19.000Z</time>
      </trkpt>
      <trkpt lat="42.53978729248047" lon="-6.615751266479492">
        <ele>532.0</ele>
        <time>2019-04-23T06:02:40.000Z</time>
      </trkpt>
      <trkpt lat="42.539764404296875" lon="-6.615972995758057">
        <ele>534.0</ele>
        <time>2019-04-23T06:02:54.000Z</time>
      </trkpt>
      <trkpt lat="42.53976058959961" lon="-6.616203784942627">
        <ele>535.0</ele>
        <time>2019-04-23T06:03:08.000Z</time>
      </trkpt>
      <trkpt lat="42.53974914550781" lon="-6.6163201332092285">
        <ele>536.0</ele>
        <time>2019-04-23T06:03:16.000Z</time>
      </trkpt>
      <trkpt lat="42.53973388671875" lon="-6.616436958312988">
        <ele>538.0</ele>
        <time>2019-04-23T06:03:23.000Z</time>
      </trkpt>
      <trkpt lat="42.53971481323242" lon="-6.616555213928223">
        <ele>539.0</ele>
        <time>2019-04-23T06:03:31.000Z</time>
      </trkpt>
      <trkpt lat="42.53969955444336" lon="-6.616673469543457">
        <ele>541.0</ele>
        <time>2019-04-23T06:03:38.000Z</time>
      </trkpt>
      <trkpt lat="42.539676666259766" lon="-6.6167893409729">
        <ele>541.0</ele>
        <time>2019-04-23T06:03:46.000Z</time>
      </trkpt>
      <trkpt lat="42.539649963378906" lon="-6.616903781890869">
        <ele>542.0</ele>
        <time>2019-04-23T06:03:53.000Z</time>
      </trkpt>
      <trkpt lat="42.53962326049805" lon="-6.617018222808838">
        <ele>542.0</ele>
        <time>2019-04-23T06:04:01.000Z</time>
      </trkpt>
      <trkpt lat="42.53959274291992" lon="-6.617132186889648">
        <ele>542.0</ele>
        <time>2019-04-23T06:04:08.000Z</time>
      </trkpt>
      <trkpt lat="42.53956985473633" lon="-6.617249011993408">
        <ele>542.0</ele>
        <time>2019-04-23T06:04:18.000Z</time>
      </trkpt>
      <trkpt lat="42.539546966552734" lon="-6.617366790771484">
        <ele>541.0</ele>
        <time>2019-04-23T06:04:28.000Z</time>
      </trkpt>
      <trkpt lat="42.539527893066406" lon="-6.617485046386719">
        <ele>541.0</ele>
        <time>2019-04-23T06:04:38.000Z</time>
      </trkpt>
      <trkpt lat="42.53950881958008" lon="-6.6176042556762695">
        <ele>540.0</ele>
        <time>2019-04-23T06:04:48.000Z</time>
      </trkpt>
      <trkpt lat="42.53947448730469" lon="-6.617711067199707">
        <ele>540.0</ele>
        <time>2019-04-23T06:04:56.000Z</time>
      </trkpt>
      <trkpt lat="42.539432525634766" lon="-6.617813587188721">
        <ele>539.0</ele>
        <time>2019-04-23T06:05:04.000Z</time>
      </trkpt>
      <trkpt lat="42.53938674926758" lon="-6.617913246154785">
        <ele>538.0</ele>
        <time>2019-04-23T06:05:12.000Z</time>
      </trkpt>
      <trkpt lat="42.539337158203125" lon="-6.618011474609375">
        <ele>538.0</ele>
        <time>2019-04-23T06:05:20.000Z</time>
      </trkpt>
      <trkpt lat="42.539306640625" lon="-6.618122577667236">
        <ele>537.0</ele>
        <time>2019-04-23T06:05:27.000Z</time>
      </trkpt>
      <trkpt lat="42.539283752441406" lon="-6.618237495422363">
        <ele>536.0</ele>
        <time>2019-04-23T06:05:34.000Z</time>
      </trkpt>
      <trkpt lat="42.53926467895508" lon="-6.618354797363281">
        <ele>536.0</ele>
        <time>2019-04-23T06:05:41.000Z</time>
      </trkpt>
      <trkpt lat="42.53924560546875" lon="-6.618474006652832">
        <ele>535.0</ele>
        <time>2019-04-23T06:05:48.000Z</time>
      </trkpt>
      <trkpt lat="42.5390739440918" lon="-6.618899345397949">
        <ele>535.0</ele>
        <time>2019-04-23T06:06:20.000Z</time>
      </trkpt>
      <trkpt lat="42.53889846801758" lon="-6.619300365447998">
        <ele>536.0</ele>
        <time>2019-04-23T06:06:49.000Z</time>
      </trkpt>
      <trkpt lat="42.5387077331543" lon="-6.619697093963623">
        <ele>538.0</ele>
        <time>2019-04-23T06:07:19.000Z</time>
      </trkpt>
      <trkpt lat="42.53852462768555" lon="-6.620091915130615">
        <ele>538.0</ele>
        <time>2019-04-23T06:07:49.000Z</time>
      </trkpt>
      <trkpt lat="42.53840637207031" lon="-6.620543003082275">
        <ele>537.0</ele>
        <time>2019-04-23T06:08:19.000Z</time>
      </trkpt>
      <trkpt lat="42.53834915161133" lon="-6.621006965637207">
        <ele>539.0</ele>
        <time>2019-04-23T06:08:55.000Z</time>
      </trkpt>
      <trkpt lat="42.53825378417969" lon="-6.621204376220703">
        <ele>539.0</ele>
        <time>2019-04-23T06:09:11.000Z</time>
      </trkpt>
      <trkpt lat="42.53812789916992" lon="-6.6213860511779785">
        <ele>541.0</ele>
        <time>2019-04-23T06:09:27.000Z</time>
      </trkpt>
      <trkpt lat="42.538108825683594" lon="-6.62141752243042">
        <ele>541.0</ele>
        <time>2019-04-23T06:09:28.000Z</time>
      </trkpt>
      <trkpt lat="42.538108825683594" lon="-6.621421813964844">
        <ele>541.0</ele>
        <time>2019-04-23T06:09:28.000Z</time>
      </trkpt>
      <trkpt lat="42.538116455078125" lon="-6.621408462524414">
        <ele>541.0</ele>
        <time>2019-04-23T06:09:28.000Z</time>
      </trkpt>
      <trkpt lat="42.53812789916992" lon="-6.621386528015137">
        <ele>541.0</ele>
        <time>2019-04-23T06:09:28.000Z</time>
      </trkpt>
      <trkpt lat="42.538124084472656" lon="-6.621391296386719">
        <ele>541.0</ele>
        <time>2019-04-23T06:09:33.000Z</time>
      </trkpt>
      <trkpt lat="42.53812026977539" lon="-6.621398448944092">
        <ele>541.0</ele>
        <time>2019-04-23T06:09:37.000Z</time>
      </trkpt>
      <trkpt lat="42.53811264038086" lon="-6.621406555175781">
        <ele>542.0</ele>
        <time>2019-04-23T06:09:41.000Z</time>
      </trkpt>
      <trkpt lat="42.538108825683594" lon="-6.621415615081787">
        <ele>542.0</ele>
        <time>2019-04-23T06:09:45.000Z</time>
      </trkpt>
      <trkpt lat="42.53810501098633" lon="-6.6214213371276855">
        <ele>542.0</ele>
        <time>2019-04-23T06:09:46.000Z</time>
      </trkpt>
      <trkpt lat="42.5380973815918" lon="-6.621427059173584">
        <ele>542.0</ele>
        <time>2019-04-23T06:09:46.000Z</time>
      </trkpt>
      <trkpt lat="42.5380973815918" lon="-6.621432304382324">
        <ele>542.0</ele>
        <time>2019-04-23T06:09:46.000Z</time>
      </trkpt>
      <trkpt lat="42.53809356689453" lon="-6.6214375495910645">
        <ele>542.0</ele>
        <time>2019-04-23T06:09:46.000Z</time>
      </trkpt>
      <trkpt lat="42.538047790527344" lon="-6.621496677398682">
        <ele>542.0</ele>
        <time>2019-04-23T06:09:53.000Z</time>
      </trkpt>
      <trkpt lat="42.537986755371094" lon="-6.621578216552734">
        <ele>543.0</ele>
        <time>2019-04-23T06:10:00.000Z</time>
      </trkpt>
      <trkpt lat="42.53791427612305" lon="-6.621674537658691">
        <ele>544.0</ele>
        <time>2019-04-23T06:10:07.000Z</time>
      </trkpt>
      <trkpt lat="42.537837982177734" lon="-6.62177848815918">
        <ele>544.0</ele>
        <time>2019-04-23T06:10:14.000Z</time>
      </trkpt>
      <trkpt lat="42.53781509399414" lon="-6.621807098388672">
        <ele>545.0</ele>
        <time>2019-04-23T06:10:15.000Z</time>
      </trkpt>
      <trkpt lat="42.537811279296875" lon="-6.621812343597412">
        <ele>545.0</ele>
        <time>2019-04-23T06:10:16.000Z</time>
      </trkpt>
      <trkpt lat="42.537818908691406" lon="-6.62180233001709">
        <ele>545.0</ele>
        <time>2019-04-23T06:10:17.000Z</time>
      </trkpt>
      <trkpt lat="42.53783416748047" lon="-6.62178373336792">
        <ele>544.0</ele>
        <time>2019-04-23T06:10:17.000Z</time>
      </trkpt>
      <trkpt lat="42.53779220581055" lon="-6.621809482574463">
        <ele>545.0</ele>
        <time>2019-04-23T06:10:32.000Z</time>
      </trkpt>
      <trkpt lat="42.53776550292969" lon="-6.621826171875">
        <ele>545.0</ele>
        <time>2019-04-23T06:10:33.000Z</time>
      </trkpt>
      <trkpt lat="42.53745651245117" lon="-6.622074604034424">
        <ele>546.0</ele>
        <time>2019-04-23T06:10:50.000Z</time>
      </trkpt>
      <trkpt lat="42.537410736083984" lon="-6.622170448303223">
        <ele>546.0</ele>
        <time>2019-04-23T06:10:59.000Z</time>
      </trkpt>
      <trkpt lat="42.537384033203125" lon="-6.622280120849609">
        <ele>547.0</ele>
        <time>2019-04-23T06:11:08.000Z</time>
      </trkpt>
      <trkpt lat="42.5373649597168" lon="-6.62239933013916">
        <ele>548.0</ele>
        <time>2019-04-23T06:11:17.000Z</time>
      </trkpt>
      <trkpt lat="42.537353515625" lon="-6.622523307800293">
        <ele>548.0</ele>
        <time>2019-04-23T06:11:26.000Z</time>
      </trkpt>
      <trkpt lat="42.537330627441406" lon="-6.6226396560668945">
        <ele>549.0</ele>
        <time>2019-04-23T06:11:35.000Z</time>
      </trkpt>
      <trkpt lat="42.53730773925781" lon="-6.622757434844971">
        <ele>550.0</ele>
        <time>2019-04-23T06:11:43.000Z</time>
      </trkpt>
      <trkpt lat="42.53728485107422" lon="-6.622876167297363">
        <ele>552.0</ele>
        <time>2019-04-23T06:11:52.000Z</time>
      </trkpt>
      <trkpt lat="42.537261962890625" lon="-6.622995853424072">
        <ele>553.0</ele>
        <time>2019-04-23T06:12:00.000Z</time>
      </trkpt>
      <trkpt lat="42.53715896606445" lon="-6.623195648193359">
        <ele>556.0</ele>
        <time>2019-04-23T06:12:16.000Z</time>
      </trkpt>
      <trkpt lat="42.53703308105469" lon="-6.623379230499268">
        <ele>559.0</ele>
        <time>2019-04-23T06:12:32.000Z</time>
      </trkpt>
      <trkpt lat="42.53697204589844" lon="-6.623465061187744">
        <ele>560.0</ele>
        <time>2019-04-23T06:12:42.000Z</time>
      </trkpt>
      <trkpt lat="42.53690719604492" lon="-6.623546600341797">
        <ele>561.0</ele>
        <time>2019-04-23T06:12:51.000Z</time>
      </trkpt>
      <trkpt lat="42.536842346191406" lon="-6.623625755310059">
        <ele>562.0</ele>
        <time>2019-04-23T06:13:00.000Z</time>
      </trkpt>
      <trkpt lat="42.53677749633789" lon="-6.623703479766846">
        <ele>564.0</ele>
        <time>2019-04-23T06:13:09.000Z</time>
      </trkpt>
      <trkpt lat="42.5367546081543" lon="-6.623730182647705">
        <ele>564.0</ele>
        <time>2019-04-23T06:13:10.000Z</time>
      </trkpt>
      <trkpt lat="42.53675079345703" lon="-6.623734474182129">
        <ele>564.0</ele>
        <time>2019-04-23T06:13:10.000Z</time>
      </trkpt>
      <trkpt lat="42.53675842285156" lon="-6.623723030090332">
        <ele>564.0</ele>
        <time>2019-04-23T06:13:10.000Z</time>
      </trkpt>
      <trkpt lat="42.536773681640625" lon="-6.623704433441162">
        <ele>564.0</ele>
        <time>2019-04-23T06:13:10.000Z</time>
      </trkpt>
      <trkpt lat="42.53676223754883" lon="-6.623705863952637">
        <ele>564.0</ele>
        <time>2019-04-23T06:13:17.000Z</time>
      </trkpt>
      <trkpt lat="42.536746978759766" lon="-6.623708248138428">
        <ele>565.0</ele>
        <time>2019-04-23T06:13:24.000Z</time>
      </trkpt>
      <trkpt lat="42.53672790527344" lon="-6.623710632324219">
        <ele>565.0</ele>
        <time>2019-04-23T06:13:31.000Z</time>
      </trkpt>
      <trkpt lat="42.536705017089844" lon="-6.623713493347168">
        <ele>566.0</ele>
        <time>2019-04-23T06:13:37.000Z</time>
      </trkpt>
      <trkpt lat="42.53669357299805" lon="-6.623714923858643">
        <ele>566.0</ele>
        <time>2019-04-23T06:13:38.000Z</time>
      </trkpt>
      <trkpt lat="42.536685943603516" lon="-6.623715877532959">
        <ele>566.0</ele>
        <time>2019-04-23T06:13:38.000Z</time>
      </trkpt>
      <trkpt lat="42.536678314208984" lon="-6.623716831207275">
        <ele>566.0</ele>
        <time>2019-04-23T06:13:38.000Z</time>
      </trkpt>
      <trkpt lat="42.53667068481445" lon="-6.623717784881592">
        <ele>566.0</ele>
        <time>2019-04-23T06:13:38.000Z</time>
      </trkpt>
      <trkpt lat="42.536643981933594" lon="-6.62372350692749">
        <ele>566.0</ele>
        <time>2019-04-23T06:13:40.000Z</time>
      </trkpt>
      <trkpt lat="42.53660583496094" lon="-6.62373161315918">
        <ele>566.0</ele>
        <time>2019-04-23T06:13:41.000Z</time>
      </trkpt>
      <trkpt lat="42.536563873291016" lon="-6.6237406730651855">
        <ele>566.0</ele>
        <time>2019-04-23T06:13:43.000Z</time>
      </trkpt>
      <trkpt lat="42.53651809692383" lon="-6.623750686645508">
        <ele>566.0</ele>
        <time>2019-04-23T06:13:44.000Z</time>
      </trkpt>
      <trkpt lat="42.536434173583984" lon="-6.623819828033447">
        <ele>567.0</ele>
        <time>2019-04-23T06:14:00.000Z</time>
      </trkpt>
      <trkpt lat="42.53635025024414" lon="-6.623912811279297">
        <ele>568.0</ele>
        <time>2019-04-23T06:14:16.000Z</time>
      </trkpt>
      <trkpt lat="42.53632736206055" lon="-6.623929500579834">
        <ele>568.0</ele>
        <time>2019-04-23T06:14:18.000Z</time>
      </trkpt>
      <trkpt lat="42.53631591796875" lon="-6.623936653137207">
        <ele>568.0</ele>
        <time>2019-04-23T06:14:19.000Z</time>
      </trkpt>
      <trkpt lat="42.53630828857422" lon="-6.623936653137207">
        <ele>568.0</ele>
        <time>2019-04-23T06:14:21.000Z</time>
      </trkpt>
      <trkpt lat="42.53630447387695" lon="-6.6239333152771">
        <ele>568.0</ele>
        <time>2019-04-23T06:14:22.000Z</time>
      </trkpt>
      <trkpt lat="42.53628921508789" lon="-6.623936653137207">
        <ele>568.0</ele>
        <time>2019-04-23T06:14:25.000Z</time>
      </trkpt>
      <trkpt lat="42.53627014160156" lon="-6.623939037322998">
        <ele>568.0</ele>
        <time>2019-04-23T06:14:27.000Z</time>
      </trkpt>
      <trkpt lat="42.536251068115234" lon="-6.623940944671631">
        <ele>567.0</ele>
        <time>2019-04-23T06:14:30.000Z</time>
      </trkpt>
      <trkpt lat="42.536231994628906" lon="-6.623942852020264">
        <ele>567.0</ele>
        <time>2019-04-23T06:14:32.000Z</time>
      </trkpt>
      <trkpt lat="42.53622055053711" lon="-6.623944282531738">
        <ele>567.0</ele>
        <time>2019-04-23T06:14:33.000Z</time>
      </trkpt>
      <trkpt lat="42.53621292114258" lon="-6.623945236206055">
        <ele>567.0</ele>
        <time>2019-04-23T06:14:33.000Z</time>
      </trkpt>
      <trkpt lat="42.53620529174805" lon="-6.623946666717529">
        <ele>567.0</ele>
        <time>2019-04-23T06:14:33.000Z</time>
      </trkpt>
      <trkpt lat="42.536197662353516" lon="-6.623947620391846">
        <ele>567.0</ele>
        <time>2019-04-23T06:14:33.000Z</time>
      </trkpt>
      <trkpt lat="42.536163330078125" lon="-6.623952865600586">
        <ele>567.0</ele>
        <time>2019-04-23T06:14:36.000Z</time>
      </trkpt>
      <trkpt lat="42.53611755371094" lon="-6.623959541320801">
        <ele>567.0</ele>
        <time>2019-04-23T06:14:38.000Z</time>
      </trkpt>
      <trkpt lat="42.53606033325195" lon="-6.62396764755249">
        <ele>567.0</ele>
        <time>2019-04-23T06:14:40.000Z</time>
      </trkpt>
      <trkpt lat="42.53600311279297" lon="-6.623976707458496">
        <ele>566.0</ele>
        <time>2019-04-23T06:14:42.000Z</time>
      </trkpt>
      <trkpt lat="42.53596115112305" lon="-6.6239914894104">
        <ele>565.0</ele>
        <time>2019-04-23T06:14:46.000Z</time>
      </trkpt>
      <trkpt lat="42.53591537475586" lon="-6.62401008605957">
        <ele>563.0</ele>
        <time>2019-04-23T06:14:50.000Z</time>
      </trkpt>
      <trkpt lat="42.53587341308594" lon="-6.624030113220215">
        <ele>561.0</ele>
        <time>2019-04-23T06:14:54.000Z</time>
      </trkpt>
      <trkpt lat="42.535831451416016" lon="-6.624052047729492">
        <ele>559.0</ele>
        <time>2019-04-23T06:14:57.000Z</time>
      </trkpt>
      <trkpt lat="42.53565216064453" lon="-6.624131679534912">
        <ele>549.0</ele>
        <time>2019-04-23T06:15:15.000Z</time>
      </trkpt>
      <trkpt lat="42.53555679321289" lon="-6.624154090881348">
        <ele>546.0</ele>
        <time>2019-04-23T06:15:32.000Z</time>
      </trkpt>
      <trkpt lat="42.53553009033203" lon="-6.624166965484619">
        <ele>552.0</ele>
        <time>2019-04-23T06:16:12.000Z</time>
      </trkpt>
      <trkpt lat="42.5355110168457" lon="-6.624176979064941">
        <ele>552.0</ele>
        <time>2019-04-23T06:16:13.000Z</time>
      </trkpt>
      <trkpt lat="42.53518295288086" lon="-6.62434196472168">
        <ele>555.0</ele>
        <time>2019-04-23T06:16:34.000Z</time>
      </trkpt>
      <trkpt lat="42.53486251831055" lon="-6.62453031539917">
        <ele>557.0</ele>
        <time>2019-04-23T06:17:09.000Z</time>
      </trkpt>
      <trkpt lat="42.53451919555664" lon="-6.624614238739014">
        <ele>557.0</ele>
        <time>2019-04-23T06:17:43.000Z</time>
      </trkpt>
      <trkpt lat="42.534175872802734" lon="-6.624670028686523">
        <ele>557.0</ele>
        <time>2019-04-23T06:18:08.000Z</time>
      </trkpt>
      <trkpt lat="42.53394317626953" lon="-6.624667644500732">
        <ele>557.0</ele>
        <time>2019-04-23T06:18:30.000Z</time>
      </trkpt>
      <trkpt lat="42.533843994140625" lon="-6.624643325805664">
        <ele>557.0</ele>
        <time>2019-04-23T06:18:42.000Z</time>
      </trkpt>
      <trkpt lat="42.533809661865234" lon="-6.624634742736816">
        <ele>557.0</ele>
        <time>2019-04-23T06:18:43.000Z</time>
      </trkpt>
      <trkpt lat="42.53349304199219" lon="-6.62467098236084">
        <ele>556.0</ele>
        <time>2019-04-23T06:19:10.000Z</time>
      </trkpt>
      <trkpt lat="42.53346252441406" lon="-6.624680995941162">
        <ele>555.0</ele>
        <time>2019-04-23T06:19:22.000Z</time>
      </trkpt>
      <trkpt lat="42.533443450927734" lon="-6.624688625335693">
        <ele>555.0</ele>
        <time>2019-04-23T06:19:23.000Z</time>
      </trkpt>
      <trkpt lat="42.53321838378906" lon="-6.624809265136719">
        <ele>555.0</ele>
        <time>2019-04-23T06:19:32.000Z</time>
      </trkpt>
      <trkpt lat="42.5331916809082" lon="-6.624847412109375">
        <ele>555.0</ele>
        <time>2019-04-23T06:19:36.000Z</time>
      </trkpt>
      <trkpt lat="42.53317642211914" lon="-6.624889373779297">
        <ele>555.0</ele>
        <time>2019-04-23T06:19:40.000Z</time>
      </trkpt>
      <trkpt lat="42.533172607421875" lon="-6.624932765960693">
        <ele>555.0</ele>
        <time>2019-04-23T06:19:44.000Z</time>
      </trkpt>
      <trkpt lat="42.53316879272461" lon="-6.6249775886535645">
        <ele>555.0</ele>
        <time>2019-04-23T06:19:47.000Z</time>
      </trkpt>
      <trkpt lat="42.533164978027344" lon="-6.624996185302734">
        <ele>555.0</ele>
        <time>2019-04-23T06:19:48.000Z</time>
      </trkpt>
      <trkpt lat="42.533164978027344" lon="-6.625004768371582">
        <ele>555.0</ele>
        <time>2019-04-23T06:19:49.000Z</time>
      </trkpt>
      <trkpt lat="42.53316879272461" lon="-6.625007152557373">
        <ele>554.0</ele>
        <time>2019-04-23T06:19:50.000Z</time>
      </trkpt>
      <trkpt lat="42.53316879272461" lon="-6.625005722045898">
        <ele>554.0</ele>
        <time>2019-04-23T06:19:50.000Z</time>
      </trkpt>
      <trkpt lat="42.53317642211914" lon="-6.625028133392334">
        <ele>554.0</ele>
        <time>2019-04-23T06:19:54.000Z</time>
      </trkpt>
      <trkpt lat="42.533180236816406" lon="-6.625056743621826">
        <ele>554.0</ele>
        <time>2019-04-23T06:19:58.000Z</time>
      </trkpt>
      <trkpt lat="42.53318786621094" lon="-6.625089168548584">
        <ele>554.0</ele>
        <time>2019-04-23T06:20:02.000Z</time>
      </trkpt>
      <trkpt lat="42.53319549560547" lon="-6.625123977661133">
        <ele>554.0</ele>
        <time>2019-04-23T06:20:05.000Z</time>
      </trkpt>
      <trkpt lat="42.533199310302734" lon="-6.625141620635986">
        <ele>553.0</ele>
        <time>2019-04-23T06:20:06.000Z</time>
      </trkpt>
      <trkpt lat="42.533203125" lon="-6.625154495239258">
        <ele>553.0</ele>
        <time>2019-04-23T06:20:06.000Z</time>
      </trkpt>
      <trkpt lat="42.533203125" lon="-6.625163555145264">
        <ele>553.0</ele>
        <time>2019-04-23T06:20:06.000Z</time>
      </trkpt>
      <trkpt lat="42.533206939697266" lon="-6.625171184539795">
        <ele>554.0</ele>
        <time>2019-04-23T06:20:06.000Z</time>
      </trkpt>
      <trkpt lat="42.53323745727539" lon="-6.625241279602051">
        <ele>553.0</ele>
        <time>2019-04-23T06:20:12.000Z</time>
      </trkpt>
      <trkpt lat="42.53327941894531" lon="-6.625335693359375">
        <ele>551.0</ele>
        <time>2019-04-23T06:20:18.000Z</time>
      </trkpt>
      <trkpt lat="42.533329010009766" lon="-6.625446319580078">
        <ele>550.0</ele>
        <time>2019-04-23T06:20:24.000Z</time>
      </trkpt>
      <trkpt lat="42.533382415771484" lon="-6.625565052032471">
        <ele>548.0</ele>
        <time>2019-04-23T06:20:30.000Z</time>
      </trkpt>
      <trkpt lat="42.533409118652344" lon="-6.6257853507995605">
        <ele>544.0</ele>
        <time>2019-04-23T06:20:47.000Z</time>
      </trkpt>
      <trkpt lat="42.53341293334961" lon="-6.626015663146973">
        <ele>540.0</ele>
        <time>2019-04-23T06:21:04.000Z</time>
      </trkpt>
      <trkpt lat="42.53340148925781" lon="-6.626128196716309">
        <ele>538.0</ele>
        <time>2019-04-23T06:21:13.000Z</time>
      </trkpt>
      <trkpt lat="42.53337860107422" lon="-6.626239776611328">
        <ele>536.0</ele>
        <time>2019-04-23T06:21:21.000Z</time>
      </trkpt>
      <trkpt lat="42.533355712890625" lon="-6.626351356506348">
        <ele>534.0</ele>
        <time>2019-04-23T06:21:29.000Z</time>
      </trkpt>
      <trkpt lat="42.5333251953125" lon="-6.626462936401367">
        <ele>533.0</ele>
        <time>2019-04-23T06:21:37.000Z</time>
      </trkpt>
      <trkpt lat="42.53329086303711" lon="-6.626570701599121">
        <ele>532.0</ele>
        <time>2019-04-23T06:21:46.000Z</time>
      </trkpt>
      <trkpt lat="42.53324508666992" lon="-6.626676559448242">
        <ele>532.0</ele>
        <time>2019-04-23T06:21:54.000Z</time>
      </trkpt>
      <trkpt lat="42.53319549560547" lon="-6.626781940460205">
        <ele>533.0</ele>
        <time>2019-04-23T06:22:03.000Z</time>
      </trkpt>
      <trkpt lat="42.533145904541016" lon="-6.626885890960693">
        <ele>534.0</ele>
        <time>2019-04-23T06:22:11.000Z</time>
      </trkpt>
      <trkpt lat="42.53310012817383" lon="-6.626989364624023">
        <ele>534.0</ele>
        <time>2019-04-23T06:22:20.000Z</time>
      </trkpt>
      <trkpt lat="42.53305435180664" lon="-6.627091884613037">
        <ele>535.0</ele>
        <time>2019-04-23T06:22:28.000Z</time>
      </trkpt>
      <trkpt lat="42.53300857543945" lon="-6.627193450927734">
        <ele>536.0</ele>
        <time>2019-04-23T06:22:36.000Z</time>
      </trkpt>
      <trkpt lat="42.532958984375" lon="-6.627295017242432">
        <ele>537.0</ele>
        <time>2019-04-23T06:22:44.000Z</time>
      </trkpt>
      <trkpt lat="42.532928466796875" lon="-6.627366065979004">
        <ele>536.0</ele>
        <time>2019-04-23T06:22:50.000Z</time>
      </trkpt>
      <trkpt lat="42.53289794921875" lon="-6.627424240112305">
        <ele>536.0</ele>
        <time>2019-04-23T06:22:55.000Z</time>
      </trkpt>
      <trkpt lat="42.532875061035156" lon="-6.6274733543396">
        <ele>535.0</ele>
        <time>2019-04-23T06:23:01.000Z</time>
      </trkpt>
      <trkpt lat="42.53285217285156" lon="-6.627518653869629">
        <ele>534.0</ele>
        <time>2019-04-23T06:23:06.000Z</time>
      </trkpt>
      <trkpt lat="42.532840728759766" lon="-6.62753963470459">
        <ele>534.0</ele>
        <time>2019-04-23T06:23:11.000Z</time>
      </trkpt>
      <trkpt lat="42.5328369140625" lon="-6.6275458335876465">
        <ele>534.0</ele>
        <time>2019-04-23T06:23:16.000Z</time>
      </trkpt>
      <trkpt lat="42.532840728759766" lon="-6.627542495727539">
        <ele>533.0</ele>
        <time>2019-04-23T06:23:21.000Z</time>
      </trkpt>
      <trkpt lat="42.53284454345703" lon="-6.62753438949585">
        <ele>533.0</ele>
        <time>2019-04-23T06:23:25.000Z</time>
      </trkpt>
      <trkpt lat="42.5328369140625" lon="-6.6275482177734375">
        <ele>533.0</ele>
        <time>2019-04-23T06:23:26.000Z</time>
      </trkpt>
      <trkpt lat="42.53264236450195" lon="-6.627901554107666">
        <ele>534.0</ele>
        <time>2019-04-23T06:23:43.000Z</time>
      </trkpt>
      <trkpt lat="42.53236389160156" lon="-6.628182411193848">
        <ele>534.0</ele>
        <time>2019-04-23T06:24:13.000Z</time>
      </trkpt>
      <trkpt lat="42.53219223022461" lon="-6.6283416748046875">
        <ele>533.0</ele>
        <time>2019-04-23T06:24:33.000Z</time>
      </trkpt>
      <trkpt lat="42.532169342041016" lon="-6.628359317779541">
        <ele>533.0</ele>
        <time>2019-04-23T06:24:45.000Z</time>
      </trkpt>
      <trkpt lat="42.53215408325195" lon="-6.628373622894287">
        <ele>533.0</ele>
        <time>2019-04-23T06:24:46.000Z</time>
      </trkpt>
      <trkpt lat="42.531856536865234" lon="-6.628581523895264">
        <ele>533.0</ele>
        <time>2019-04-23T06:25:04.000Z</time>
      </trkpt>
      <trkpt lat="42.53168869018555" lon="-6.628609657287598">
        <ele>532.0</ele>
        <time>2019-04-23T06:25:18.000Z</time>
      </trkpt>
      <trkpt lat="42.53151321411133" lon="-6.628603458404541">
        <ele>530.0</ele>
        <time>2019-04-23T06:25:31.000Z</time>
      </trkpt>
      <trkpt lat="42.531429290771484" lon="-6.628600120544434">
        <ele>530.0</ele>
        <time>2019-04-23T06:25:37.000Z</time>
      </trkpt>
      <trkpt lat="42.53134536743164" lon="-6.6285929679870605">
        <ele>529.0</ele>
        <time>2019-04-23T06:25:43.000Z</time>
      </trkpt>
      <trkpt lat="42.5312614440918" lon="-6.628582954406738">
        <ele>529.0</ele>
        <time>2019-04-23T06:25:49.000Z</time>
      </trkpt>
      <trkpt lat="42.53117752075195" lon="-6.6285719871521">
        <ele>528.0</ele>
        <time>2019-04-23T06:25:55.000Z</time>
      </trkpt>
      <trkpt lat="42.531089782714844" lon="-6.628559589385986">
        <ele>529.0</ele>
        <time>2019-04-23T06:26:03.000Z</time>
      </trkpt>
      <trkpt lat="42.531002044677734" lon="-6.62854528427124">
        <ele>531.0</ele>
        <time>2019-04-23T06:26:11.000Z</time>
      </trkpt>
      <trkpt lat="42.530914306640625" lon="-6.628530025482178">
        <ele>533.0</ele>
        <time>2019-04-23T06:26:19.000Z</time>
      </trkpt>
      <trkpt lat="42.530826568603516" lon="-6.628513813018799">
        <ele>536.0</ele>
        <time>2019-04-23T06:26:26.000Z</time>
      </trkpt>
      <trkpt lat="42.53074264526367" lon="-6.62852668762207">
        <ele>536.0</ele>
        <time>2019-04-23T06:26:35.000Z</time>
      </trkpt>
      <trkpt lat="42.53065872192383" lon="-6.628551483154297">
        <ele>536.0</ele>
        <time>2019-04-23T06:26:43.000Z</time>
      </trkpt>
      <trkpt lat="42.530574798583984" lon="-6.6285834312438965">
        <ele>535.0</ele>
        <time>2019-04-23T06:26:51.000Z</time>
      </trkpt>
      <trkpt lat="42.53049087524414" lon="-6.62861967086792">
        <ele>535.0</ele>
        <time>2019-04-23T06:26:59.000Z</time>
      </trkpt>
      <trkpt lat="42.5304069519043" lon="-6.628650665283203">
        <ele>534.0</ele>
        <time>2019-04-23T06:27:07.000Z</time>
      </trkpt>
      <trkpt lat="42.53032684326172" lon="-6.628684043884277">
        <ele>534.0</ele>
        <time>2019-04-23T06:27:14.000Z</time>
      </trkpt>
      <trkpt lat="42.530242919921875" lon="-6.628718852996826">
        <ele>533.0</ele>
        <time>2019-04-23T06:27:21.000Z</time>
      </trkpt>
      <trkpt lat="42.53015899658203" lon="-6.628754138946533">
        <ele>532.0</ele>
        <time>2019-04-23T06:27:28.000Z</time>
      </trkpt>
      <trkpt lat="42.53007888793945" lon="-6.6287970542907715">
        <ele>532.0</ele>
        <time>2019-04-23T06:27:36.000Z</time>
      </trkpt>
      <trkpt lat="42.529998779296875" lon="-6.628843784332275">
        <ele>532.0</ele>
        <time>2019-04-23T06:27:44.000Z</time>
      </trkpt>
      <trkpt lat="42.52992248535156" lon="-6.62889289855957">
        <ele>533.0</ele>
        <time>2019-04-23T06:27:52.000Z</time>
      </trkpt>
      <trkpt lat="42.529842376708984" lon="-6.628942966461182">
        <ele>533.0</ele>
        <time>2019-04-23T06:28:00.000Z</time>
      </trkpt>
      <trkpt lat="42.52980422973633" lon="-6.628981113433838">
        <ele>533.0</ele>
        <time>2019-04-23T06:28:06.000Z</time>
      </trkpt>
      <trkpt lat="42.5297737121582" lon="-6.628994464874268">
        <ele>532.0</ele>
        <time>2019-04-23T06:28:34.000Z</time>
      </trkpt>
      <trkpt lat="42.52975082397461" lon="-6.62900447845459">
        <ele>532.0</ele>
        <time>2019-04-23T06:28:35.000Z</time>
      </trkpt>
      <trkpt lat="42.5296516418457" lon="-6.6290507316589355">
        <ele>532.0</ele>
        <time>2019-04-23T06:28:39.000Z</time>
      </trkpt>
      <trkpt lat="42.529640197753906" lon="-6.629058361053467">
        <ele>531.0</ele>
        <time>2019-04-23T06:28:48.000Z</time>
      </trkpt>
      <trkpt lat="42.529632568359375" lon="-6.629064559936523">
        <ele>531.0</ele>
        <time>2019-04-23T06:28:49.000Z</time>
      </trkpt>
      <trkpt lat="42.52934646606445" lon="-6.6291890144348145">
        <ele>531.0</ele>
        <time>2019-04-23T06:29:03.000Z</time>
      </trkpt>
      <trkpt lat="42.52921676635742" lon="-6.629284858703613">
        <ele>531.0</ele>
        <time>2019-04-23T06:29:13.000Z</time>
      </trkpt>
      <trkpt lat="42.52919387817383" lon="-6.629286289215088">
        <ele>531.0</ele>
        <time>2019-04-23T06:29:15.000Z</time>
      </trkpt>
      <trkpt lat="42.529178619384766" lon="-6.629278182983398">
        <ele>531.0</ele>
        <time>2019-04-23T06:29:17.000Z</time>
      </trkpt>
      <trkpt lat="42.52916717529297" lon="-6.629263877868652">
        <ele>531.0</ele>
        <time>2019-04-23T06:29:19.000Z</time>
      </trkpt>
      <trkpt lat="42.52915573120117" lon="-6.629246711730957">
        <ele>531.0</ele>
        <time>2019-04-23T06:29:21.000Z</time>
      </trkpt>
      <trkpt lat="42.529144287109375" lon="-6.629238605499268">
        <ele>531.0</ele>
        <time>2019-04-23T06:29:21.000Z</time>
      </trkpt>
      <trkpt lat="42.529136657714844" lon="-6.629230976104736">
        <ele>531.0</ele>
        <time>2019-04-23T06:29:22.000Z</time>
      </trkpt>
      <trkpt lat="42.52912902832031" lon="-6.629223823547363">
        <ele>531.0</ele>
        <time>2019-04-23T06:29:23.000Z</time>
      </trkpt>
      <trkpt lat="42.52912521362305" lon="-6.62921667098999">
        <ele>531.0</ele>
        <time>2019-04-23T06:29:24.000Z</time>
      </trkpt>
      <trkpt lat="42.52910232543945" lon="-6.629232883453369">
        <ele>531.0</ele>
        <time>2019-04-23T06:29:28.000Z</time>
      </trkpt>
      <trkpt lat="42.52907943725586" lon="-6.62925910949707">
        <ele>531.0</ele>
        <time>2019-04-23T06:29:33.000Z</time>
      </trkpt>
      <trkpt lat="42.529048919677734" lon="-6.629291534423828">
        <ele>531.0</ele>
        <time>2019-04-23T06:29:38.000Z</time>
      </trkpt>
      <trkpt lat="42.52901840209961" lon="-6.629327774047852">
        <ele>531.0</ele>
        <time>2019-04-23T06:29:43.000Z</time>
      </trkpt>
      <trkpt lat="42.52900695800781" lon="-6.629337787628174">
        <ele>531.0</ele>
        <time>2019-04-23T06:29:48.000Z</time>
      </trkpt>
      <trkpt lat="42.52900314331055" lon="-6.629340171813965">
        <ele>531.0</ele>
        <time>2019-04-23T06:29:54.000Z</time>
      </trkpt>
      <trkpt lat="42.52900695800781" lon="-6.629337787628174">
        <ele>532.0</ele>
        <time>2019-04-23T06:30:00.000Z</time>
      </trkpt>
      <trkpt lat="42.52901077270508" lon="-6.629332542419434">
        <ele>532.0</ele>
        <time>2019-04-23T06:30:06.000Z</time>
      </trkpt>
      <trkpt lat="42.52900695800781" lon="-6.629333972930908">
        <ele>533.0</ele>
        <time>2019-04-23T06:30:06.000Z</time>
      </trkpt>
      <trkpt lat="42.52900695800781" lon="-6.629334926605225">
        <ele>533.0</ele>
        <time>2019-04-23T06:30:06.000Z</time>
      </trkpt>
      <trkpt lat="42.52900314331055" lon="-6.629335880279541">
        <ele>532.0</ele>
        <time>2019-04-23T06:30:06.000Z</time>
      </trkpt>
      <trkpt lat="42.52899932861328" lon="-6.629336833953857">
        <ele>532.0</ele>
        <time>2019-04-23T06:30:07.000Z</time>
      </trkpt>
      <trkpt lat="42.52899932861328" lon="-6.629337787628174">
        <ele>532.0</ele>
        <time>2019-04-23T06:30:07.000Z</time>
      </trkpt>
      <trkpt lat="42.52899932861328" lon="-6.62933874130249">
        <ele>532.0</ele>
        <time>2019-04-23T06:30:07.000Z</time>
      </trkpt>
      <trkpt lat="42.528995513916016" lon="-6.629339694976807">
        <ele>532.0</ele>
        <time>2019-04-23T06:30:07.000Z</time>
      </trkpt>
      <trkpt lat="42.528995513916016" lon="-6.629340648651123">
        <ele>533.0</ele>
        <time>2019-04-23T06:30:08.000Z</time>
      </trkpt>
      <trkpt lat="42.528987884521484" lon="-6.629347324371338">
        <ele>533.0</ele>
        <time>2019-04-23T06:30:10.000Z</time>
      </trkpt>
      <trkpt lat="42.52898025512695" lon="-6.629356384277344">
        <ele>533.0</ele>
        <time>2019-04-23T06:30:12.000Z</time>
      </trkpt>
      <trkpt lat="42.52897262573242" lon="-6.629366874694824">
        <ele>533.0</ele>
        <time>2019-04-23T06:30:14.000Z</time>
      </trkpt>
      <trkpt lat="42.528961181640625" lon="-6.629378318786621">
        <ele>534.0</ele>
        <time>2019-04-23T06:30:16.000Z</time>
      </trkpt>
      <trkpt lat="42.52895736694336" lon="-6.629385471343994">
        <ele>534.0</ele>
        <time>2019-04-23T06:30:16.000Z</time>
      </trkpt>
      <trkpt lat="42.52894973754883" lon="-6.629391670227051">
        <ele>534.0</ele>
        <time>2019-04-23T06:30:16.000Z</time>
      </trkpt>
      <trkpt lat="42.52894592285156" lon="-6.629397392272949">
        <ele>534.0</ele>
        <time>2019-04-23T06:30:16.000Z</time>
      </trkpt>
      <trkpt lat="42.5289421081543" lon="-6.6294026374816895">
        <ele>534.0</ele>
        <time>2019-04-23T06:30:17.000Z</time>
      </trkpt>
      <trkpt lat="42.5289192199707" lon="-6.629427433013916">
        <ele>534.0</ele>
        <time>2019-04-23T06:30:18.000Z</time>
      </trkpt>
      <trkpt lat="42.52891540527344" lon="-6.62948751449585">
        <ele>534.0</ele>
        <time>2019-04-23T06:30:19.000Z</time>
      </trkpt>
      <trkpt lat="42.52891159057617" lon="-6.629570007324219">
        <ele>533.0</ele>
        <time>2019-04-23T06:30:21.000Z</time>
      </trkpt>
      <trkpt lat="42.52892303466797" lon="-6.629634857177734">
        <ele>533.0</ele>
        <time>2019-04-23T06:30:22.000Z</time>
      </trkpt>
      <trkpt lat="42.5289421081543" lon="-6.629697322845459">
        <ele>534.0</ele>
        <time>2019-04-23T06:30:24.000Z</time>
      </trkpt>
      <trkpt lat="42.52895736694336" lon="-6.629726409912109">
        <ele>534.0</ele>
        <time>2019-04-23T06:30:25.000Z</time>
      </trkpt>
      <trkpt lat="42.52897262573242" lon="-6.629738807678223">
        <ele>534.0</ele>
        <time>2019-04-23T06:30:26.000Z</time>
      </trkpt>
      <trkpt lat="42.52895736694336" lon="-6.629764556884766">
        <ele>534.0</ele>
        <time>2019-04-23T06:30:28.000Z</time>
      </trkpt>
      <trkpt lat="42.528926849365234" lon="-6.629797458648682">
        <ele>534.0</ele>
        <time>2019-04-23T06:30:30.000Z</time>
      </trkpt>
      <trkpt lat="42.528892517089844" lon="-6.629834175109863">
        <ele>535.0</ele>
        <time>2019-04-23T06:30:32.000Z</time>
      </trkpt>
      <trkpt lat="42.52885437011719" lon="-6.629873752593994">
        <ele>535.0</ele>
        <time>2019-04-23T06:30:34.000Z</time>
      </trkpt>
      <trkpt lat="42.52885055541992" lon="-6.629849910736084">
        <ele>535.0</ele>
        <time>2019-04-23T06:30:35.000Z</time>
      </trkpt>
      <trkpt lat="42.52885818481445" lon="-6.6298017501831055">
        <ele>536.0</ele>
        <time>2019-04-23T06:30:37.000Z</time>
      </trkpt>
      <trkpt lat="42.52887725830078" lon="-6.629737854003906">
        <ele>536.0</ele>
        <time>2019-04-23T06:30:38.000Z</time>
      </trkpt>
      <trkpt lat="42.52889633178711" lon="-6.629665851593018">
        <ele>536.0</ele>
        <time>2019-04-23T06:30:40.000Z</time>
      </trkpt>
      <trkpt lat="42.52889633178711" lon="-6.62964391708374">
        <ele>536.0</ele>
        <time>2019-04-23T06:30:40.000Z</time>
      </trkpt>
      <trkpt lat="42.528892517089844" lon="-6.629633903503418">
        <ele>536.0</ele>
        <time>2019-04-23T06:30:41.000Z</time>
      </trkpt>
      <trkpt lat="42.52888488769531" lon="-6.629632949829102">
        <ele>536.0</ele>
        <time>2019-04-23T06:30:41.000Z</time>
      </trkpt>
      <trkpt lat="42.528873443603516" lon="-6.629635334014893">
        <ele>536.0</ele>
        <time>2019-04-23T06:30:42.000Z</time>
      </trkpt>
      <trkpt lat="42.52886199951172" lon="-6.629639625549316">
        <ele>536.0</ele>
        <time>2019-04-23T06:30:43.000Z</time>
      </trkpt>
      <trkpt lat="42.52885055541992" lon="-6.629648685455322">
        <ele>536.0</ele>
        <time>2019-04-23T06:30:44.000Z</time>
      </trkpt>
      <trkpt lat="42.528839111328125" lon="-6.629661560058594">
        <ele>537.0</ele>
        <time>2019-04-23T06:30:45.000Z</time>
      </trkpt>
      <trkpt lat="42.52882385253906" lon="-6.62967586517334">
        <ele>537.0</ele>
        <time>2019-04-23T06:30:47.000Z</time>
      </trkpt>
      <trkpt lat="42.52882385253906" lon="-6.629673957824707">
        <ele>537.0</ele>
        <time>2019-04-23T06:30:47.000Z</time>
      </trkpt>
      <trkpt lat="42.52882766723633" lon="-6.629667282104492">
        <ele>537.0</ele>
        <time>2019-04-23T06:30:48.000Z</time>
      </trkpt>
      <trkpt lat="42.52883529663086" lon="-6.62965726852417">
        <ele>537.0</ele>
        <time>2019-04-23T06:30:49.000Z</time>
      </trkpt>
      <trkpt lat="42.528846740722656" lon="-6.629645824432373">
        <ele>537.0</ele>
        <time>2019-04-23T06:30:49.000Z</time>
      </trkpt>
      <trkpt lat="42.52880859375" lon="-6.629700660705566">
        <ele>539.0</ele>
        <time>2019-04-23T06:30:56.000Z</time>
      </trkpt>
      <trkpt lat="42.52875518798828" lon="-6.629781246185303">
        <ele>541.0</ele>
        <time>2019-04-23T06:31:02.000Z</time>
      </trkpt>
      <trkpt lat="42.528690338134766" lon="-6.629879474639893">
        <ele>544.0</ele>
        <time>2019-04-23T06:31:08.000Z</time>
      </trkpt>
      <trkpt lat="42.528621673583984" lon="-6.62998628616333">
        <ele>547.0</ele>
        <time>2019-04-23T06:31:15.000Z</time>
      </trkpt>
      <trkpt lat="42.528602600097656" lon="-6.630013465881348">
        <ele>548.0</ele>
        <time>2019-04-23T06:31:15.000Z</time>
      </trkpt>
      <trkpt lat="42.528594970703125" lon="-6.630016326904297">
        <ele>548.0</ele>
        <time>2019-04-23T06:31:16.000Z</time>
      </trkpt>
      <trkpt lat="42.528602600097656" lon="-6.630002975463867">
        <ele>547.0</ele>
        <time>2019-04-23T06:31:16.000Z</time>
      </trkpt>
      <trkpt lat="42.52861404418945" lon="-6.629981517791748">
        <ele>547.0</ele>
        <time>2019-04-23T06:31:17.000Z</time>
      </trkpt>
      <trkpt lat="42.52861404418945" lon="-6.629985332489014">
        <ele>549.0</ele>
        <time>2019-04-23T06:31:19.000Z</time>
      </trkpt>
      <trkpt lat="42.52861022949219" lon="-6.62999153137207">
        <ele>553.0</ele>
        <time>2019-04-23T06:31:22.000Z</time>
      </trkpt>
      <trkpt lat="42.52861022949219" lon="-6.629999160766602">
        <ele>557.0</ele>
        <time>2019-04-23T06:31:25.000Z</time>
      </trkpt>
      <trkpt lat="42.52860641479492" lon="-6.630007266998291">
        <ele>561.0</ele>
        <time>2019-04-23T06:31:28.000Z</time>
      </trkpt>
      <trkpt lat="42.52860641479492" lon="-6.6300129890441895">
        <ele>563.0</ele>
        <time>2019-04-23T06:31:28.000Z</time>
      </trkpt>
      <trkpt lat="42.52860641479492" lon="-6.63001823425293">
        <ele>563.0</ele>
        <time>2019-04-23T06:31:28.000Z</time>
      </trkpt>
      <trkpt lat="42.52860641479492" lon="-6.63002347946167">
        <ele>562.0</ele>
        <time>2019-04-23T06:31:28.000Z</time>
      </trkpt>
      <trkpt lat="42.528602600097656" lon="-6.630028247833252">
        <ele>561.0</ele>
        <time>2019-04-23T06:31:29.000Z</time>
      </trkpt>
      <trkpt lat="42.52859115600586" lon="-6.630059242248535">
        <ele>562.0</ele>
        <time>2019-04-23T06:31:30.000Z</time>
      </trkpt>
      <trkpt lat="42.5285758972168" lon="-6.630101203918457">
        <ele>562.0</ele>
        <time>2019-04-23T06:31:31.000Z</time>
      </trkpt>
      <trkpt lat="42.52855682373047" lon="-6.630149841308594">
        <ele>563.0</ele>
        <time>2019-04-23T06:31:32.000Z</time>
      </trkpt>
      <trkpt lat="42.528533935546875" lon="-6.630202293395996">
        <ele>563.0</ele>
        <time>2019-04-23T06:31:33.000Z</time>
      </trkpt>
      <trkpt lat="42.52850341796875" lon="-6.630200386047363">
        <ele>559.0</ele>
        <time>2019-04-23T06:31:37.000Z</time>
      </trkpt>
      <trkpt lat="42.528465270996094" lon="-6.630178928375244">
        <ele>554.0</ele>
        <time>2019-04-23T06:31:41.000Z</time>
      </trkpt>
      <trkpt lat="42.52842330932617" lon="-6.6301445960998535">
        <ele>548.0</ele>
        <time>2019-04-23T06:31:45.000Z</time>
      </trkpt>
      <trkpt lat="42.52838134765625" lon="-6.630104064941406">
        <ele>541.0</ele>
        <time>2019-04-23T06:31:50.000Z</time>
      </trkpt>
      <trkpt lat="42.52835464477539" lon="-6.630102157592773">
        <ele>538.0</ele>
        <time>2019-04-23T06:31:52.000Z</time>
      </trkpt>
      <trkpt lat="42.52833557128906" lon="-6.630109786987305">
        <ele>537.0</ele>
        <time>2019-04-23T06:31:54.000Z</time>
      </trkpt>
      <trkpt lat="42.5283203125" lon="-6.630124092102051">
        <ele>537.0</ele>
        <time>2019-04-23T06:31:56.000Z</time>
      </trkpt>
      <trkpt lat="42.52830505371094" lon="-6.630141258239746">
        <ele>537.0</ele>
        <time>2019-04-23T06:31:58.000Z</time>
      </trkpt>
      <trkpt lat="42.52828598022461" lon="-6.630160331726074">
        <ele>538.0</ele>
        <time>2019-04-23T06:32:08.000Z</time>
      </trkpt>
      <trkpt lat="42.52827835083008" lon="-6.630179405212402">
        <ele>540.0</ele>
        <time>2019-04-23T06:32:19.000Z</time>
      </trkpt>
      <trkpt lat="42.52827072143555" lon="-6.630187034606934">
        <ele>541.0</ele>
        <time>2019-04-23T06:32:19.000Z</time>
      </trkpt>
      <trkpt lat="42.52826690673828" lon="-6.630194187164307">
        <ele>541.0</ele>
        <time>2019-04-23T06:32:19.000Z</time>
      </trkpt>
      <trkpt lat="42.52825927734375" lon="-6.630200386047363">
        <ele>541.0</ele>
        <time>2019-04-23T06:32:19.000Z</time>
      </trkpt>
      <trkpt lat="42.528255462646484" lon="-6.630206108093262">
        <ele>540.0</ele>
        <time>2019-04-23T06:32:20.000Z</time>
      </trkpt>
      <trkpt lat="42.5282096862793" lon="-6.63025426864624">
        <ele>539.0</ele>
        <time>2019-04-23T06:32:25.000Z</time>
      </trkpt>
      <trkpt lat="42.52814483642578" lon="-6.630320072174072">
        <ele>537.0</ele>
        <time>2019-04-23T06:32:30.000Z</time>
      </trkpt>
      <trkpt lat="42.52806854248047" lon="-6.630396842956543">
        <ele>535.0</ele>
        <time>2019-04-23T06:32:35.000Z</time>
      </trkpt>
      <trkpt lat="42.52798843383789" lon="-6.63047981262207">
        <ele>533.0</ele>
        <time>2019-04-23T06:32:40.000Z</time>
      </trkpt>
      <trkpt lat="42.527950286865234" lon="-6.6305251121521">
        <ele>532.0</ele>
        <time>2019-04-23T06:32:42.000Z</time>
      </trkpt>
      <trkpt lat="42.527923583984375" lon="-6.630560398101807">
        <ele>532.0</ele>
        <time>2019-04-23T06:32:45.000Z</time>
      </trkpt>
      <trkpt lat="42.52790451049805" lon="-6.630589008331299">
        <ele>532.0</ele>
        <time>2019-04-23T06:32:47.000Z</time>
      </trkpt>
      <trkpt lat="42.52789306640625" lon="-6.630614757537842">
        <ele>533.0</ele>
        <time>2019-04-23T06:32:50.000Z</time>
      </trkpt>
      <trkpt lat="42.52787399291992" lon="-6.630639553070068">
        <ele>532.0</ele>
        <time>2019-04-23T06:32:54.000Z</time>
      </trkpt>
      <trkpt lat="42.52785873413086" lon="-6.6306610107421875">
        <ele>531.0</ele>
        <time>2019-04-23T06:32:59.000Z</time>
      </trkpt>
      <trkpt lat="42.52784729003906" lon="-6.630679607391357">
        <ele>529.0</ele>
        <time>2019-04-23T06:33:04.000Z</time>
      </trkpt>
      <trkpt lat="42.527835845947266" lon="-6.630697250366211">
        <ele>528.0</ele>
        <time>2019-04-23T06:33:09.000Z</time>
      </trkpt>
      <trkpt lat="42.52782440185547" lon="-6.630710124969482">
        <ele>528.0</ele>
        <time>2019-04-23T06:33:09.000Z</time>
      </trkpt>
      <trkpt lat="42.5278205871582" lon="-6.6307196617126465">
        <ele>528.0</ele>
        <time>2019-04-23T06:33:09.000Z</time>
      </trkpt>
      <trkpt lat="42.52781295776367" lon="-6.630727291107178">
        <ele>528.0</ele>
        <time>2019-04-23T06:33:09.000Z</time>
      </trkpt>
      <trkpt lat="42.527809143066406" lon="-6.630733489990234">
        <ele>528.0</ele>
        <time>2019-04-23T06:33:10.000Z</time>
      </trkpt>
      <trkpt lat="42.52756118774414" lon="-6.631073951721191">
        <ele>525.0</ele>
        <time>2019-04-23T06:33:31.000Z</time>
      </trkpt>
      <trkpt lat="42.52730941772461" lon="-6.631428241729736">
        <ele>519.0</ele>
        <time>2019-04-23T06:33:58.000Z</time>
      </trkpt>
      <trkpt lat="42.5271110534668" lon="-6.631837844848633">
        <ele>509.0</ele>
        <time>2019-04-23T06:34:28.000Z</time>
      </trkpt>
      <trkpt lat="42.526893615722656" lon="-6.63222074508667">
        <ele>505.0</ele>
        <time>2019-04-23T06:34:58.000Z</time>
      </trkpt>
      <trkpt lat="42.526649475097656" lon="-6.6325812339782715">
        <ele>502.0</ele>
        <time>2019-04-23T06:35:29.000Z</time>
      </trkpt>
      <trkpt lat="42.52662658691406" lon="-6.632632732391357">
        <ele>503.0</ele>
        <time>2019-04-23T06:35:39.000Z</time>
      </trkpt>
      <trkpt lat="42.5265998840332" lon="-6.632659435272217">
        <ele>504.0</ele>
        <time>2019-04-23T06:35:54.000Z</time>
      </trkpt>
      <trkpt lat="42.526580810546875" lon="-6.632678508758545">
        <ele>504.0</ele>
        <time>2019-04-23T06:35:55.000Z</time>
      </trkpt>
      <trkpt lat="42.52630615234375" lon="-6.63292932510376">
        <ele>504.0</ele>
        <time>2019-04-23T06:36:12.000Z</time>
      </trkpt>
      <trkpt lat="42.5260124206543" lon="-6.633162498474121">
        <ele>506.0</ele>
        <time>2019-04-23T06:36:41.000Z</time>
      </trkpt>
      <trkpt lat="42.525970458984375" lon="-6.633241176605225">
        <ele>506.0</ele>
        <time>2019-04-23T06:36:46.000Z</time>
      </trkpt>
      <trkpt lat="42.52597427368164" lon="-6.633302211761475">
        <ele>507.0</ele>
        <time>2019-04-23T06:36:51.000Z</time>
      </trkpt>
      <trkpt lat="42.52595520019531" lon="-6.633328914642334">
        <ele>506.0</ele>
        <time>2019-04-23T06:37:04.000Z</time>
      </trkpt>
      <trkpt lat="42.52593994140625" lon="-6.633335590362549">
        <ele>506.0</ele>
        <time>2019-04-23T06:37:17.000Z</time>
      </trkpt>
      <trkpt lat="42.525936126708984" lon="-6.633342266082764">
        <ele>506.0</ele>
        <time>2019-04-23T06:37:17.000Z</time>
      </trkpt>
      <trkpt lat="42.52592849731445" lon="-6.633347511291504">
        <ele>506.0</ele>
        <time>2019-04-23T06:37:17.000Z</time>
      </trkpt>
      <trkpt lat="42.52592468261719" lon="-6.633352279663086">
        <ele>506.0</ele>
        <time>2019-04-23T06:37:17.000Z</time>
      </trkpt>
      <trkpt lat="42.52592086791992" lon="-6.633357048034668">
        <ele>506.0</ele>
        <time>2019-04-23T06:37:18.000Z</time>
      </trkpt>
      <trkpt lat="42.525917053222656" lon="-6.633361339569092">
        <ele>506.0</ele>
        <time>2019-04-23T06:37:18.000Z</time>
      </trkpt>
      <trkpt lat="42.52591323852539" lon="-6.633364677429199">
        <ele>506.0</ele>
        <time>2019-04-23T06:37:18.000Z</time>
      </trkpt>
      <trkpt lat="42.525909423828125" lon="-6.633368015289307">
        <ele>506.0</ele>
        <time>2019-04-23T06:37:18.000Z</time>
      </trkpt>
      <trkpt lat="42.52590560913086" lon="-6.633370876312256">
        <ele>506.0</ele>
        <time>2019-04-23T06:37:19.000Z</time>
      </trkpt>
      <trkpt lat="42.52588653564453" lon="-6.633375644683838">
        <ele>507.0</ele>
        <time>2019-04-23T06:37:29.000Z</time>
      </trkpt>
      <trkpt lat="42.52585983276367" lon="-6.633379936218262">
        <ele>508.0</ele>
        <time>2019-04-23T06:37:39.000Z</time>
      </trkpt>
      <trkpt lat="42.52585220336914" lon="-6.633381366729736">
        <ele>508.0</ele>
        <time>2019-04-23T06:37:39.000Z</time>
      </trkpt>
      <trkpt lat="42.52584457397461" lon="-6.633382797241211">
        <ele>508.0</ele>
        <time>2019-04-23T06:37:39.000Z</time>
      </trkpt>
      <trkpt lat="42.52583694458008" lon="-6.6333842277526855">
        <ele>508.0</ele>
        <time>2019-04-23T06:37:39.000Z</time>
      </trkpt>
      <trkpt lat="42.52582931518555" lon="-6.633385181427002">
        <ele>508.0</ele>
        <time>2019-04-23T06:37:40.000Z</time>
      </trkpt>
      <trkpt lat="42.52581024169922" lon="-6.633392810821533">
        <ele>508.0</ele>
        <time>2019-04-23T06:37:40.000Z</time>
      </trkpt>
      <trkpt lat="42.525779724121094" lon="-6.6334028244018555">
        <ele>508.0</ele>
        <time>2019-04-23T06:37:41.000Z</time>
      </trkpt>
      <trkpt lat="42.52574920654297" lon="-6.6334147453308105">
        <ele>509.0</ele>
        <time>2019-04-23T06:37:42.000Z</time>
      </trkpt>
      <trkpt lat="42.52571487426758" lon="-6.633427143096924">
        <ele>509.0</ele>
        <time>2019-04-23T06:37:43.000Z</time>
      </trkpt>
      <trkpt lat="42.52571105957031" lon="-6.6334404945373535">
        <ele>509.0</ele>
        <time>2019-04-23T06:37:44.000Z</time>
      </trkpt>
      <trkpt lat="42.52571487426758" lon="-6.6334547996521">
        <ele>509.0</ele>
        <time>2019-04-23T06:37:46.000Z</time>
      </trkpt>
      <trkpt lat="42.52572250366211" lon="-6.633470058441162">
        <ele>509.0</ele>
        <time>2019-04-23T06:37:48.000Z</time>
      </trkpt>
      <trkpt lat="42.52573776245117" lon="-6.633485794067383">
        <ele>510.0</ele>
        <time>2019-04-23T06:37:50.000Z</time>
      </trkpt>
      <trkpt lat="42.52573776245117" lon="-6.633516311645508">
        <ele>510.0</ele>
        <time>2019-04-23T06:38:04.000Z</time>
      </trkpt>
      <trkpt lat="42.525733947753906" lon="-6.633547306060791">
        <ele>510.0</ele>
        <time>2019-04-23T06:38:19.000Z</time>
      </trkpt>
      <trkpt lat="42.525733947753906" lon="-6.633558750152588">
        <ele>510.0</ele>
        <time>2019-04-23T06:38:19.000Z</time>
      </trkpt>
      <trkpt lat="42.525733947753906" lon="-6.63356876373291">
        <ele>510.0</ele>
        <time>2019-04-23T06:38:19.000Z</time>
      </trkpt>
      <trkpt lat="42.52573013305664" lon="-6.633577346801758">
        <ele>510.0</ele>
        <time>2019-04-23T06:38:19.000Z</time>
      </trkpt>
      <trkpt lat="42.52573013305664" lon="-6.6335859298706055">
        <ele>510.0</ele>
        <time>2019-04-23T06:38:20.000Z</time>
      </trkpt>
      <trkpt lat="42.525718688964844" lon="-6.633626937866211">
        <ele>510.0</ele>
        <time>2019-04-23T06:38:22.000Z</time>
      </trkpt>
      <trkpt lat="42.52570343017578" lon="-6.63368034362793">
        <ele>511.0</ele>
        <time>2019-04-23T06:38:25.000Z</time>
      </trkpt>
      <trkpt lat="42.52568435668945" lon="-6.633742809295654">
        <ele>511.0</ele>
        <time>2019-04-23T06:38:27.000Z</time>
      </trkpt>
      <trkpt lat="42.525665283203125" lon="-6.633810043334961">
        <ele>511.0</ele>
        <time>2019-04-23T06:38:30.000Z</time>
      </trkpt>
      <trkpt lat="42.525657653808594" lon="-6.6338324546813965">
        <ele>512.0</ele>
        <time>2019-04-23T06:38:30.000Z</time>
      </trkpt>
      <trkpt lat="42.525657653808594" lon="-6.633841514587402">
        <ele>512.0</ele>
        <time>2019-04-23T06:38:31.000Z</time>
      </trkpt>
      <trkpt lat="42.525657653808594" lon="-6.633840560913086">
        <ele>512.0</ele>
        <time>2019-04-23T06:38:32.000Z</time>
      </trkpt>
      <trkpt lat="42.525657653808594" lon="-6.633835792541504">
        <ele>512.0</ele>
        <time>2019-04-23T06:38:33.000Z</time>
      </trkpt>
      <trkpt lat="42.5256462097168" lon="-6.633855819702148">
        <ele>512.0</ele>
        <time>2019-04-23T06:38:42.000Z</time>
      </trkpt>
      <trkpt lat="42.525630950927734" lon="-6.633881568908691">
        <ele>512.0</ele>
        <time>2019-04-23T06:38:51.000Z</time>
      </trkpt>
      <trkpt lat="42.52561569213867" lon="-6.6339111328125">
        <ele>512.0</ele>
        <time>2019-04-23T06:39:00.000Z</time>
      </trkpt>
      <trkpt lat="42.525596618652344" lon="-6.633942604064941">
        <ele>513.0</ele>
        <time>2019-04-23T06:39:09.000Z</time>
      </trkpt>
      <trkpt lat="42.52558898925781" lon="-6.633957386016846">
        <ele>513.0</ele>
        <time>2019-04-23T06:39:09.000Z</time>
      </trkpt>
      <trkpt lat="42.52558135986328" lon="-6.633967399597168">
        <ele>513.0</ele>
        <time>2019-04-23T06:39:09.000Z</time>
      </trkpt>
      <trkpt lat="42.525577545166016" lon="-6.633974075317383">
        <ele>513.0</ele>
        <time>2019-04-23T06:39:09.000Z</time>
      </trkpt>
      <trkpt lat="42.52557373046875" lon="-6.633978843688965">
        <ele>513.0</ele>
        <time>2019-04-23T06:39:10.000Z</time>
      </trkpt>
      <trkpt lat="42.52556610107422" lon="-6.633993148803711">
        <ele>513.0</ele>
        <time>2019-04-23T06:39:11.000Z</time>
      </trkpt>
      <trkpt lat="42.52555465698242" lon="-6.6340012550354">
        <ele>514.0</ele>
        <time>2019-04-23T06:39:25.000Z</time>
      </trkpt>
      <trkpt lat="42.52554702758789" lon="-6.634008884429932">
        <ele>514.0</ele>
        <time>2019-04-23T06:39:26.000Z</time>
      </trkpt>
      <trkpt lat="42.5252685546875" lon="-6.634247303009033">
        <ele>517.0</ele>
        <time>2019-04-23T06:39:39.000Z</time>
      </trkpt>
      <trkpt lat="42.52507019042969" lon="-6.634495735168457">
        <ele>521.0</ele>
        <time>2019-04-23T06:39:56.000Z</time>
      </trkpt>
      <trkpt lat="42.52503967285156" lon="-6.634504318237305">
        <ele>522.0</ele>
        <time>2019-04-23T06:39:58.000Z</time>
      </trkpt>
      <trkpt lat="42.525020599365234" lon="-6.634490489959717">
        <ele>522.0</ele>
        <time>2019-04-23T06:40:01.000Z</time>
      </trkpt>
      <trkpt lat="42.52500534057617" lon="-6.634461879730225">
        <ele>523.0</ele>
        <time>2019-04-23T06:40:03.000Z</time>
      </trkpt>
      <trkpt lat="42.52499008178711" lon="-6.634425163269043">
        <ele>523.0</ele>
        <time>2019-04-23T06:40:06.000Z</time>
      </trkpt>
      <trkpt lat="42.524986267089844" lon="-6.634440898895264">
        <ele>524.0</ele>
        <time>2019-04-23T06:40:08.000Z</time>
      </trkpt>
      <trkpt lat="42.52499008178711" lon="-6.634469985961914">
        <ele>524.0</ele>
        <time>2019-04-23T06:40:11.000Z</time>
      </trkpt>
      <trkpt lat="42.52499771118164" lon="-6.6345086097717285">
        <ele>524.0</ele>
        <time>2019-04-23T06:40:13.000Z</time>
      </trkpt>
      <trkpt lat="42.52500534057617" lon="-6.634551525115967">
        <ele>524.0</ele>
        <time>2019-04-23T06:40:16.000Z</time>
      </trkpt>
      <trkpt lat="42.524986267089844" lon="-6.634573936462402">
        <ele>524.0</ele>
        <time>2019-04-23T06:40:25.000Z</time>
      </trkpt>
      <trkpt lat="42.52496337890625" lon="-6.6345930099487305">
        <ele>523.0</ele>
        <time>2019-04-23T06:40:34.000Z</time>
      </trkpt>
      <trkpt lat="42.52492904663086" lon="-6.634609222412109">
        <ele>522.0</ele>
        <time>2019-04-23T06:40:44.000Z</time>
      </trkpt>
      <trkpt lat="42.52489471435547" lon="-6.634624481201172">
        <ele>522.0</ele>
        <time>2019-04-23T06:40:53.000Z</time>
      </trkpt>
      <trkpt lat="42.524879455566406" lon="-6.634633541107178">
        <ele>521.0</ele>
        <time>2019-04-23T06:40:53.000Z</time>
      </trkpt>
      <trkpt lat="42.524871826171875" lon="-6.634639263153076">
        <ele>521.0</ele>
        <time>2019-04-23T06:40:53.000Z</time>
      </trkpt>
      <trkpt lat="42.52486801147461" lon="-6.634642124176025">
        <ele>521.0</ele>
        <time>2019-04-23T06:40:54.000Z</time>
      </trkpt>
      <trkpt lat="42.524864196777344" lon="-6.634644031524658">
        <ele>522.0</ele>
        <time>2019-04-23T06:40:54.000Z</time>
      </trkpt>
      <trkpt lat="42.52484130859375" lon="-6.6346564292907715">
        <ele>521.0</ele>
        <time>2019-04-23T06:40:56.000Z</time>
      </trkpt>
      <trkpt lat="42.52480697631836" lon="-6.634671688079834">
        <ele>521.0</ele>
        <time>2019-04-23T06:40:57.000Z</time>
      </trkpt>
      <trkpt lat="42.5247688293457" lon="-6.634688854217529">
        <ele>521.0</ele>
        <time>2019-04-23T06:40:59.000Z</time>
      </trkpt>
      <trkpt lat="42.52473068237305" lon="-6.634707450866699">
        <ele>521.0</ele>
        <time>2019-04-23T06:41:01.000Z</time>
      </trkpt>
      <trkpt lat="42.52470397949219" lon="-6.634745121002197">
        <ele>521.0</ele>
        <time>2019-04-23T06:41:04.000Z</time>
      </trkpt>
      <trkpt lat="42.524681091308594" lon="-6.634791374206543">
        <ele>520.0</ele>
        <time>2019-04-23T06:41:07.000Z</time>
      </trkpt>
      <trkpt lat="42.524658203125" lon="-6.634843826293945">
        <ele>519.0</ele>
        <time>2019-04-23T06:41:11.000Z</time>
      </trkpt>
      <trkpt lat="42.52463912963867" lon="-6.634899139404297">
        <ele>519.0</ele>
        <time>2019-04-23T06:41:14.000Z</time>
      </trkpt>
      <trkpt lat="42.524574279785156" lon="-6.634958744049072">
        <ele>518.0</ele>
        <time>2019-04-23T06:41:19.000Z</time>
      </trkpt>
      <trkpt lat="42.52450180053711" lon="-6.6350016593933105">
        <ele>518.0</ele>
        <time>2019-04-23T06:41:24.000Z</time>
      </trkpt>
      <trkpt lat="42.52448272705078" lon="-6.634994029998779">
        <ele>518.0</ele>
        <time>2019-04-23T06:41:27.000Z</time>
      </trkpt>
      <trkpt lat="42.52447509765625" lon="-6.634973049163818">
        <ele>518.0</ele>
        <time>2019-04-23T06:41:31.000Z</time>
      </trkpt>
      <trkpt lat="42.52446746826172" lon="-6.634942531585693">
        <ele>518.0</ele>
        <time>2019-04-23T06:41:35.000Z</time>
      </trkpt>
      <trkpt lat="42.52446746826172" lon="-6.6349077224731445">
        <ele>519.0</ele>
        <time>2019-04-23T06:41:38.000Z</time>
      </trkpt>
      <trkpt lat="42.52445983886719" lon="-6.634911060333252">
        <ele>517.0</ele>
        <time>2019-04-23T06:41:43.000Z</time>
      </trkpt>
      <trkpt lat="42.52445602416992" lon="-6.634925365447998">
        <ele>516.0</ele>
        <time>2019-04-23T06:41:48.000Z</time>
      </trkpt>
      <trkpt lat="42.524452209472656" lon="-6.634946823120117">
        <ele>514.0</ele>
        <time>2019-04-23T06:41:52.000Z</time>
      </trkpt>
      <trkpt lat="42.52444839477539" lon="-6.63497257232666">
        <ele>512.0</ele>
        <time>2019-04-23T06:41:57.000Z</time>
      </trkpt>
      <trkpt lat="42.52444839477539" lon="-6.634984493255615">
        <ele>512.0</ele>
        <time>2019-04-23T06:41:57.000Z</time>
      </trkpt>
      <trkpt lat="42.524444580078125" lon="-6.6349945068359375">
        <ele>512.0</ele>
        <time>2019-04-23T06:41:58.000Z</time>
      </trkpt>
      <trkpt lat="42.52444076538086" lon="-6.635003566741943">
        <ele>512.0</ele>
        <time>2019-04-23T06:41:58.000Z</time>
      </trkpt>
      <trkpt lat="42.52444076538086" lon="-6.635011672973633">
        <ele>512.0</ele>
        <time>2019-04-23T06:41:58.000Z</time>
      </trkpt>
      <trkpt lat="42.5244255065918" lon="-6.635051727294922">
        <ele>512.0</ele>
        <time>2019-04-23T06:42:00.000Z</time>
      </trkpt>
      <trkpt lat="42.524410247802734" lon="-6.635104179382324">
        <ele>512.0</ele>
        <time>2019-04-23T06:42:03.000Z</time>
      </trkpt>
      <trkpt lat="42.52438735961914" lon="-6.635164737701416">
        <ele>512.0</ele>
        <time>2019-04-23T06:42:05.000Z</time>
      </trkpt>
      <trkpt lat="42.52436447143555" lon="-6.63523006439209">
        <ele>511.0</ele>
        <time>2019-04-23T06:42:07.000Z</time>
      </trkpt>
      <trkpt lat="42.524356842041016" lon="-6.635270118713379">
        <ele>511.0</ele>
        <time>2019-04-23T06:42:12.000Z</time>
      </trkpt>
      <trkpt lat="42.524349212646484" lon="-6.635303974151611">
        <ele>511.0</ele>
        <time>2019-04-23T06:42:17.000Z</time>
      </trkpt>
      <trkpt lat="42.52434158325195" lon="-6.635334491729736">
        <ele>512.0</ele>
        <time>2019-04-23T06:42:21.000Z</time>
      </trkpt>
      <trkpt lat="42.52433776855469" lon="-6.635362148284912">
        <ele>512.0</ele>
        <time>2019-04-23T06:42:26.000Z</time>
      </trkpt>
      <trkpt lat="42.52433395385742" lon="-6.635381698608398">
        <ele>512.0</ele>
        <time>2019-04-23T06:42:26.000Z</time>
      </trkpt>
      <trkpt lat="42.52433395385742" lon="-6.635395050048828">
        <ele>512.0</ele>
        <time>2019-04-23T06:42:27.000Z</time>
      </trkpt>
      <trkpt lat="42.524330139160156" lon="-6.635404586791992">
        <ele>512.0</ele>
        <time>2019-04-23T06:42:27.000Z</time>
      </trkpt>
      <trkpt lat="42.524330139160156" lon="-6.635412216186523">
        <ele>512.0</ele>
        <time>2019-04-23T06:42:27.000Z</time>
      </trkpt>
      <trkpt lat="42.52432632446289" lon="-6.635447025299072">
        <ele>512.0</ele>
        <time>2019-04-23T06:42:29.000Z</time>
      </trkpt>
      <trkpt lat="42.524322509765625" lon="-6.635490417480469">
        <ele>512.0</ele>
        <time>2019-04-23T06:42:31.000Z</time>
      </trkpt>
      <trkpt lat="42.524322509765625" lon="-6.635540008544922">
        <ele>512.0</ele>
        <time>2019-04-23T06:42:33.000Z</time>
      </trkpt>
      <trkpt lat="42.52431869506836" lon="-6.635592937469482">
        <ele>512.0</ele>
        <time>2019-04-23T06:42:35.000Z</time>
      </trkpt>
      <trkpt lat="42.524314880371094" lon="-6.635614395141602">
        <ele>509.0</ele>
        <time>2019-04-23T06:42:49.000Z</time>
      </trkpt>
      <trkpt lat="42.52431106567383" lon="-6.6356329917907715">
        <ele>509.0</ele>
        <time>2019-04-23T06:42:50.000Z</time>
      </trkpt>
      <trkpt lat="42.52430725097656" lon="-6.635649681091309">
        <ele>508.0</ele>
        <time>2019-04-23T06:42:52.000Z</time>
      </trkpt>
      <trkpt lat="42.524295806884766" lon="-6.635744094848633">
        <ele>508.0</ele>
        <time>2019-04-23T06:42:54.000Z</time>
      </trkpt>
      <trkpt lat="42.524288177490234" lon="-6.63578987121582">
        <ele>508.0</ele>
        <time>2019-04-23T06:42:55.000Z</time>
      </trkpt>
      <trkpt lat="42.52425003051758" lon="-6.635989189147949">
        <ele>508.0</ele>
        <time>2019-04-23T06:43:00.000Z</time>
      </trkpt>
      <trkpt lat="42.5241813659668" lon="-6.636090278625488">
        <ele>507.0</ele>
        <time>2019-04-23T06:43:08.000Z</time>
      </trkpt>
      <trkpt lat="42.52408981323242" lon="-6.636192798614502">
        <ele>507.0</ele>
        <time>2019-04-23T06:43:16.000Z</time>
      </trkpt>
      <trkpt lat="42.524044036865234" lon="-6.636247158050537">
        <ele>506.0</ele>
        <time>2019-04-23T06:43:23.000Z</time>
      </trkpt>
      <trkpt lat="42.52399444580078" lon="-6.636303424835205">
        <ele>506.0</ele>
        <time>2019-04-23T06:43:30.000Z</time>
      </trkpt>
      <trkpt lat="42.52394104003906" lon="-6.636360168457031">
        <ele>506.0</ele>
        <time>2019-04-23T06:43:36.000Z</time>
      </trkpt>
      <trkpt lat="42.52389144897461" lon="-6.636417865753174">
        <ele>506.0</ele>
        <time>2019-04-23T06:43:43.000Z</time>
      </trkpt>
      <trkpt lat="42.52387237548828" lon="-6.636436939239502">
        <ele>506.0</ele>
        <time>2019-04-23T06:43:47.000Z</time>
      </trkpt>
      <trkpt lat="42.523860931396484" lon="-6.636441230773926">
        <ele>505.0</ele>
        <time>2019-04-23T06:43:52.000Z</time>
      </trkpt>
      <trkpt lat="42.523860931396484" lon="-6.636435031890869">
        <ele>504.0</ele>
        <time>2019-04-23T06:43:56.000Z</time>
      </trkpt>
      <trkpt lat="42.52386474609375" lon="-6.636423587799072">
        <ele>504.0</ele>
        <time>2019-04-23T06:44:00.000Z</time>
      </trkpt>
      <trkpt lat="42.523860931396484" lon="-6.636425018310547">
        <ele>504.0</ele>
        <time>2019-04-23T06:44:00.000Z</time>
      </trkpt>
      <trkpt lat="42.52385711669922" lon="-6.636425971984863">
        <ele>504.0</ele>
        <time>2019-04-23T06:44:01.000Z</time>
      </trkpt>
      <trkpt lat="42.52385330200195" lon="-6.63642692565918">
        <ele>504.0</ele>
        <time>2019-04-23T06:44:01.000Z</time>
      </trkpt>
      <trkpt lat="42.52384567260742" lon="-6.636428356170654">
        <ele>504.0</ele>
        <time>2019-04-23T06:44:01.000Z</time>
      </trkpt>
      <trkpt lat="42.52378463745117" lon="-6.636418342590332">
        <ele>504.0</ele>
        <time>2019-04-23T06:44:05.000Z</time>
      </trkpt>
      <trkpt lat="42.52370071411133" lon="-6.636404514312744">
        <ele>504.0</ele>
        <time>2019-04-23T06:44:09.000Z</time>
      </trkpt>
      <trkpt lat="42.52360153198242" lon="-6.636386871337891">
        <ele>504.0</ele>
        <time>2019-04-23T06:44:13.000Z</time>
      </trkpt>
      <trkpt lat="42.523494720458984" lon="-6.636368274688721">
        <ele>504.0</ele>
        <time>2019-04-23T06:44:17.000Z</time>
      </trkpt>
      <trkpt lat="42.52345275878906" lon="-6.636364936828613">
        <ele>504.0</ele>
        <time>2019-04-23T06:44:21.000Z</time>
      </trkpt>
      <trkpt lat="42.523433685302734" lon="-6.636366844177246">
        <ele>504.0</ele>
        <time>2019-04-23T06:44:25.000Z</time>
      </trkpt>
      <trkpt lat="42.52342987060547" lon="-6.636371612548828">
        <ele>504.0</ele>
        <time>2019-04-23T06:44:28.000Z</time>
      </trkpt>
      <trkpt lat="42.52342987060547" lon="-6.636377811431885">
        <ele>504.0</ele>
        <time>2019-04-23T06:44:32.000Z</time>
      </trkpt>
      <trkpt lat="42.523399353027344" lon="-6.636364936828613">
        <ele>504.0</ele>
        <time>2019-04-23T06:44:51.000Z</time>
      </trkpt>
      <trkpt lat="42.523372650146484" lon="-6.636355400085449">
        <ele>504.0</ele>
        <time>2019-04-23T06:44:52.000Z</time>
      </trkpt>
      <trkpt lat="42.52329635620117" lon="-6.636316776275635">
        <ele>503.0</ele>
        <time>2019-04-23T06:44:57.000Z</time>
      </trkpt>
      <trkpt lat="42.52317810058594" lon="-6.636241436004639">
        <ele>504.0</ele>
        <time>2019-04-23T06:45:00.000Z</time>
      </trkpt>
      <trkpt lat="42.52314758300781" lon="-6.636222839355469">
        <ele>504.0</ele>
        <time>2019-04-23T06:45:01.000Z</time>
      </trkpt>
      <trkpt lat="42.522979736328125" lon="-6.6361083984375">
        <ele>502.0</ele>
        <time>2019-04-23T06:45:12.000Z</time>
      </trkpt>
      <trkpt lat="42.5229606628418" lon="-6.636106014251709">
        <ele>502.0</ele>
        <time>2019-04-23T06:45:14.000Z</time>
      </trkpt>
      <trkpt lat="42.52294921875" lon="-6.636114597320557">
        <ele>501.0</ele>
        <time>2019-04-23T06:45:16.000Z</time>
      </trkpt>
      <trkpt lat="42.52294158935547" lon="-6.636130332946777">
        <ele>501.0</ele>
        <time>2019-04-23T06:45:17.000Z</time>
      </trkpt>
      <trkpt lat="42.5229377746582" lon="-6.6361494064331055">
        <ele>500.0</ele>
        <time>2019-04-23T06:45:19.000Z</time>
      </trkpt>
      <trkpt lat="42.522918701171875" lon="-6.636127948760986">
        <ele>500.0</ele>
        <time>2019-04-23T06:45:23.000Z</time>
      </trkpt>
      <trkpt lat="42.522891998291016" lon="-6.6360931396484375">
        <ele>499.0</ele>
        <time>2019-04-23T06:45:26.000Z</time>
      </trkpt>
      <trkpt lat="42.522865295410156" lon="-6.636049270629883">
        <ele>499.0</ele>
        <time>2019-04-23T06:45:30.000Z</time>
      </trkpt>
      <trkpt lat="42.52283477783203" lon="-6.636000633239746">
        <ele>498.0</ele>
        <time>2019-04-23T06:45:33.000Z</time>
      </trkpt>
      <trkpt lat="42.52278137207031" lon="-6.636000633239746">
        <ele>498.0</ele>
        <time>2019-04-23T06:45:37.000Z</time>
      </trkpt>
      <trkpt lat="42.52272033691406" lon="-6.636016368865967">
        <ele>498.0</ele>
        <time>2019-04-23T06:45:42.000Z</time>
      </trkpt>
      <trkpt lat="42.52265167236328" lon="-6.63604211807251">
        <ele>498.0</ele>
        <time>2019-04-23T06:45:46.000Z</time>
      </trkpt>
      <trkpt lat="42.5225830078125" lon="-6.636073112487793">
        <ele>498.0</ele>
        <time>2019-04-23T06:45:50.000Z</time>
      </trkpt>
      <trkpt lat="42.52252197265625" lon="-6.636127471923828">
        <ele>498.0</ele>
        <time>2019-04-23T06:45:53.000Z</time>
      </trkpt>
      <trkpt lat="42.52249526977539" lon="-6.636189937591553">
        <ele>497.0</ele>
        <time>2019-04-23T06:45:56.000Z</time>
      </trkpt>
      <trkpt lat="42.52242660522461" lon="-6.636193752288818">
        <ele>498.0</ele>
        <time>2019-04-23T06:46:03.000Z</time>
      </trkpt>
      <trkpt lat="42.5223388671875" lon="-6.6361870765686035">
        <ele>498.0</ele>
        <time>2019-04-23T06:46:10.000Z</time>
      </trkpt>
      <trkpt lat="42.522239685058594" lon="-6.636173248291016">
        <ele>498.0</ele>
        <time>2019-04-23T06:46:17.000Z</time>
      </trkpt>
      <trkpt lat="42.52213668823242" lon="-6.63615608215332">
        <ele>499.0</ele>
        <time>2019-04-23T06:46:24.000Z</time>
      </trkpt>
      <trkpt lat="42.52205276489258" lon="-6.636142253875732">
        <ele>500.0</ele>
        <time>2019-04-23T06:46:32.000Z</time>
      </trkpt>
      <trkpt lat="42.521968841552734" lon="-6.6361260414123535">
        <ele>501.0</ele>
        <time>2019-04-23T06:46:39.000Z</time>
      </trkpt>
      <trkpt lat="42.521888732910156" lon="-6.636108875274658">
        <ele>502.0</ele>
        <time>2019-04-23T06:46:47.000Z</time>
      </trkpt>
      <trkpt lat="42.52180862426758" lon="-6.636090278625488">
        <ele>504.0</ele>
        <time>2019-04-23T06:46:55.000Z</time>
      </trkpt>
      <trkpt lat="42.52174758911133" lon="-6.636070728302002">
        <ele>505.0</ele>
        <time>2019-04-23T06:47:00.000Z</time>
      </trkpt>
      <trkpt lat="42.52169418334961" lon="-6.636049270629883">
        <ele>506.0</ele>
        <time>2019-04-23T06:47:06.000Z</time>
      </trkpt>
      <trkpt lat="42.52164840698242" lon="-6.6360273361206055">
        <ele>507.0</ele>
        <time>2019-04-23T06:47:11.000Z</time>
      </trkpt>
      <trkpt lat="42.5216064453125" lon="-6.636004447937012">
        <ele>508.0</ele>
        <time>2019-04-23T06:47:17.000Z</time>
      </trkpt>
      <trkpt lat="42.521541595458984" lon="-6.636012077331543">
        <ele>508.0</ele>
        <time>2019-04-23T06:47:21.000Z</time>
      </trkpt>
      <trkpt lat="42.52149200439453" lon="-6.636043071746826">
        <ele>509.0</ele>
        <time>2019-04-23T06:47:25.000Z</time>
      </trkpt>
      <trkpt lat="42.521427154541016" lon="-6.636061191558838">
        <ele>510.0</ele>
        <time>2019-04-23T06:47:32.000Z</time>
      </trkpt>
      <trkpt lat="42.52134323120117" lon="-6.636083126068115">
        <ele>510.0</ele>
        <time>2019-04-23T06:47:38.000Z</time>
      </trkpt>
      <trkpt lat="42.5212516784668" lon="-6.636107444763184">
        <ele>511.0</ele>
        <time>2019-04-23T06:47:45.000Z</time>
      </trkpt>
      <trkpt lat="42.52115249633789" lon="-6.636133193969727">
        <ele>513.0</ele>
        <time>2019-04-23T06:47:52.000Z</time>
      </trkpt>
      <trkpt lat="42.52106857299805" lon="-6.636157989501953">
        <ele>513.0</ele>
        <time>2019-04-23T06:48:00.000Z</time>
      </trkpt>
      <trkpt lat="42.5209846496582" lon="-6.636183261871338">
        <ele>513.0</ele>
        <time>2019-04-23T06:48:07.000Z</time>
      </trkpt>
      <trkpt lat="42.52090072631836" lon="-6.636209487915039">
        <ele>513.0</ele>
        <time>2019-04-23T06:48:15.000Z</time>
      </trkpt>
      <trkpt lat="42.520816802978516" lon="-6.63623571395874">
        <ele>514.0</ele>
        <time>2019-04-23T06:48:23.000Z</time>
      </trkpt>
      <trkpt lat="42.52076721191406" lon="-6.636227607727051">
        <ele>514.0</ele>
        <time>2019-04-23T06:48:27.000Z</time>
      </trkpt>
      <trkpt lat="42.52077102661133" lon="-6.636192321777344">
        <ele>513.0</ele>
        <time>2019-04-23T06:48:32.000Z</time>
      </trkpt>
      <trkpt lat="42.520748138427734" lon="-6.636186122894287">
        <ele>514.0</ele>
        <time>2019-04-23T06:48:38.000Z</time>
      </trkpt>
      <trkpt lat="42.52072525024414" lon="-6.636186599731445">
        <ele>514.0</ele>
        <time>2019-04-23T06:48:45.000Z</time>
      </trkpt>
      <trkpt lat="42.52071762084961" lon="-6.636185646057129">
        <ele>514.0</ele>
        <time>2019-04-23T06:48:45.000Z</time>
      </trkpt>
      <trkpt lat="42.52070999145508" lon="-6.6361846923828125">
        <ele>514.0</ele>
        <time>2019-04-23T06:48:45.000Z</time>
      </trkpt>
      <trkpt lat="42.52070236206055" lon="-6.636184215545654">
        <ele>514.0</ele>
        <time>2019-04-23T06:48:46.000Z</time>
      </trkpt>
      <trkpt lat="42.52069854736328" lon="-6.636183261871338">
        <ele>514.0</ele>
        <time>2019-04-23T06:48:46.000Z</time>
      </trkpt>
      <trkpt lat="42.52063751220703" lon="-6.636181354522705">
        <ele>515.0</ele>
        <time>2019-04-23T06:48:52.000Z</time>
      </trkpt>
      <trkpt lat="42.52055358886719" lon="-6.636179447174072">
        <ele>515.0</ele>
        <time>2019-04-23T06:48:58.000Z</time>
      </trkpt>
      <trkpt lat="42.52045440673828" lon="-6.636177062988281">
        <ele>516.0</ele>
        <time>2019-04-23T06:49:04.000Z</time>
      </trkpt>
      <trkpt lat="42.520347595214844" lon="-6.63617467880249">
        <ele>517.0</ele>
        <time>2019-04-23T06:49:10.000Z</time>
      </trkpt>
      <trkpt lat="42.52029037475586" lon="-6.636239051818848">
        <ele>517.0</ele>
        <time>2019-04-23T06:49:16.000Z</time>
      </trkpt>
      <trkpt lat="42.52024841308594" lon="-6.636330604553223">
        <ele>518.0</ele>
        <time>2019-04-23T06:49:22.000Z</time>
      </trkpt>
      <trkpt lat="42.52021408081055" lon="-6.636440277099609">
        <ele>519.0</ele>
        <time>2019-04-23T06:49:28.000Z</time>
      </trkpt>
      <trkpt lat="42.52018737792969" lon="-6.636559963226318">
        <ele>519.0</ele>
        <time>2019-04-23T06:49:34.000Z</time>
      </trkpt>
      <trkpt lat="42.52015686035156" lon="-6.636666774749756">
        <ele>520.0</ele>
        <time>2019-04-23T06:49:41.000Z</time>
      </trkpt>
      <trkpt lat="42.5201301574707" lon="-6.636778354644775">
        <ele>520.0</ele>
        <time>2019-04-23T06:49:47.000Z</time>
      </trkpt>
      <trkpt lat="42.520111083984375" lon="-6.636892795562744">
        <ele>520.0</ele>
        <time>2019-04-23T06:49:54.000Z</time>
      </trkpt>
      <trkpt lat="42.52008819580078" lon="-6.6370086669921875">
        <ele>520.0</ele>
        <time>2019-04-23T06:50:01.000Z</time>
      </trkpt>
      <trkpt lat="42.519996643066406" lon="-6.637173652648926">
        <ele>520.0</ele>
        <time>2019-04-23T06:50:15.000Z</time>
      </trkpt>
      <trkpt lat="42.51987838745117" lon="-6.63731050491333">
        <ele>520.0</ele>
        <time>2019-04-23T06:50:29.000Z</time>
      </trkpt>
      <trkpt lat="42.51985168457031" lon="-6.637333393096924">
        <ele>520.0</ele>
        <time>2019-04-23T06:50:30.000Z</time>
      </trkpt>
      <trkpt lat="42.519832611083984" lon="-6.637333869934082">
        <ele>520.0</ele>
        <time>2019-04-23T06:50:31.000Z</time>
      </trkpt>
      <trkpt lat="42.51982116699219" lon="-6.637319564819336">
        <ele>520.0</ele>
        <time>2019-04-23T06:50:33.000Z</time>
      </trkpt>
      <trkpt lat="42.51980972290039" lon="-6.637298107147217">
        <ele>520.0</ele>
        <time>2019-04-23T06:50:34.000Z</time>
      </trkpt>
      <trkpt lat="42.51979446411133" lon="-6.637375354766846">
        <ele>520.0</ele>
        <time>2019-04-23T06:50:41.000Z</time>
      </trkpt>
      <trkpt lat="42.519775390625" lon="-6.637485980987549">
        <ele>520.0</ele>
        <time>2019-04-23T06:50:47.000Z</time>
      </trkpt>
      <trkpt lat="42.51976013183594" lon="-6.637618541717529">
        <ele>519.0</ele>
        <time>2019-04-23T06:50:54.000Z</time>
      </trkpt>
      <trkpt lat="42.51974105834961" lon="-6.637763023376465">
        <ele>519.0</ele>
        <time>2019-04-23T06:51:01.000Z</time>
      </trkpt>
      <trkpt lat="42.519775390625" lon="-6.637938976287842">
        <ele>519.0</ele>
        <time>2019-04-23T06:51:10.000Z</time>
      </trkpt>
      <trkpt lat="42.519840240478516" lon="-6.638089179992676">
        <ele>519.0</ele>
        <time>2019-04-23T06:51:20.000Z</time>
      </trkpt>
      <trkpt lat="42.519832611083984" lon="-6.638121604919434">
        <ele>519.0</ele>
        <time>2019-04-23T06:51:21.000Z</time>
      </trkpt>
      <trkpt lat="42.51980972290039" lon="-6.638134002685547">
        <ele>520.0</ele>
        <time>2019-04-23T06:51:23.000Z</time>
      </trkpt>
      <trkpt lat="42.519779205322266" lon="-6.638132572174072">
        <ele>520.0</ele>
        <time>2019-04-23T06:51:24.000Z</time>
      </trkpt>
      <trkpt lat="42.51974105834961" lon="-6.638124465942383">
        <ele>520.0</ele>
        <time>2019-04-23T06:51:26.000Z</time>
      </trkpt>
      <trkpt lat="42.51973342895508" lon="-6.638145923614502">
        <ele>520.0</ele>
        <time>2019-04-23T06:51:28.000Z</time>
      </trkpt>
      <trkpt lat="42.51972961425781" lon="-6.6381731033325195">
        <ele>520.0</ele>
        <time>2019-04-23T06:51:29.000Z</time>
      </trkpt>
      <trkpt lat="42.51973342895508" lon="-6.6382036209106445">
        <ele>520.0</ele>
        <time>2019-04-23T06:51:31.000Z</time>
      </trkpt>
      <trkpt lat="42.51974105834961" lon="-6.638236045837402">
        <ele>520.0</ele>
        <time>2019-04-23T06:51:33.000Z</time>
      </trkpt>
      <trkpt lat="42.5196533203125" lon="-6.638378620147705">
        <ele>518.0</ele>
        <time>2019-04-23T06:51:49.000Z</time>
      </trkpt>
      <trkpt lat="42.51953125" lon="-6.638561248779297">
        <ele>516.0</ele>
        <time>2019-04-23T06:52:05.000Z</time>
      </trkpt>
      <trkpt lat="42.51949691772461" lon="-6.6385955810546875">
        <ele>515.0</ele>
        <time>2019-04-23T06:52:14.000Z</time>
      </trkpt>
      <trkpt lat="42.51948928833008" lon="-6.638570785522461">
        <ele>514.0</ele>
        <time>2019-04-23T06:52:23.000Z</time>
      </trkpt>
      <trkpt lat="42.51948165893555" lon="-6.638572692871094">
        <ele>514.0</ele>
        <time>2019-04-23T06:52:23.000Z</time>
      </trkpt>
      <trkpt lat="42.51947784423828" lon="-6.638574123382568">
        <ele>514.0</ele>
        <time>2019-04-23T06:52:23.000Z</time>
      </trkpt>
      <trkpt lat="42.51947021484375" lon="-6.638576030731201">
        <ele>514.0</ele>
        <time>2019-04-23T06:52:24.000Z</time>
      </trkpt>
      <trkpt lat="42.51946258544922" lon="-6.638577461242676">
        <ele>514.0</ele>
        <time>2019-04-23T06:52:24.000Z</time>
      </trkpt>
      <trkpt lat="42.5194091796875" lon="-6.638604640960693">
        <ele>514.0</ele>
        <time>2019-04-23T06:52:28.000Z</time>
      </trkpt>
      <trkpt lat="42.51932907104492" lon="-6.638642311096191">
        <ele>515.0</ele>
        <time>2019-04-23T06:52:33.000Z</time>
      </trkpt>
      <trkpt lat="42.51924133300781" lon="-6.638687610626221">
        <ele>515.0</ele>
        <time>2019-04-23T06:52:37.000Z</time>
      </trkpt>
      <trkpt lat="42.519142150878906" lon="-6.638736248016357">
        <ele>516.0</ele>
        <time>2019-04-23T06:52:42.000Z</time>
      </trkpt>
      <trkpt lat="42.51905822753906" lon="-6.638771057128906">
        <ele>516.0</ele>
        <time>2019-04-23T06:52:47.000Z</time>
      </trkpt>
      <trkpt lat="42.51897430419922" lon="-6.638803958892822">
        <ele>516.0</ele>
        <time>2019-04-23T06:52:53.000Z</time>
      </trkpt>
      <trkpt lat="42.518890380859375" lon="-6.638835430145264">
        <ele>516.0</ele>
        <time>2019-04-23T06:52:58.000Z</time>
      </trkpt>
      <trkpt lat="42.51880645751953" lon="-6.638866424560547">
        <ele>516.0</ele>
        <time>2019-04-23T06:53:04.000Z</time>
      </trkpt>
      <trkpt lat="42.51872253417969" lon="-6.638906955718994">
        <ele>517.0</ele>
        <time>2019-04-23T06:53:11.000Z</time>
      </trkpt>
      <trkpt lat="42.518638610839844" lon="-6.638950824737549">
        <ele>519.0</ele>
        <time>2019-04-23T06:53:19.000Z</time>
      </trkpt>
      <trkpt lat="42.5185546875" lon="-6.6389970779418945">
        <ele>520.0</ele>
        <time>2019-04-23T06:53:26.000Z</time>
      </trkpt>
      <trkpt lat="42.518470764160156" lon="-6.639044284820557">
        <ele>522.0</ele>
        <time>2019-04-23T06:53:34.000Z</time>
      </trkpt>
      <trkpt lat="42.51844024658203" lon="-6.639064311981201">
        <ele>522.0</ele>
        <time>2019-04-23T06:53:35.000Z</time>
      </trkpt>
      <trkpt lat="42.518428802490234" lon="-6.639074802398682">
        <ele>522.0</ele>
        <time>2019-04-23T06:53:37.000Z</time>
      </trkpt>
      <trkpt lat="42.5184326171875" lon="-6.639078617095947">
        <ele>522.0</ele>
        <time>2019-04-23T06:53:38.000Z</time>
      </trkpt>
      <trkpt lat="42.5184440612793" lon="-6.6390790939331055">
        <ele>522.0</ele>
        <time>2019-04-23T06:53:40.000Z</time>
      </trkpt>
      <trkpt lat="42.5184211730957" lon="-6.639096260070801">
        <ele>521.0</ele>
        <time>2019-04-23T06:54:00.000Z</time>
      </trkpt>
      <trkpt lat="42.518402099609375" lon="-6.639110088348389">
        <ele>521.0</ele>
        <time>2019-04-23T06:54:01.000Z</time>
      </trkpt>
      <trkpt lat="42.51811218261719" lon="-6.63939905166626">
        <ele>522.0</ele>
        <time>2019-04-23T06:54:11.000Z</time>
      </trkpt>
      <trkpt lat="42.517906188964844" lon="-6.639797210693359">
        <ele>523.0</ele>
        <time>2019-04-23T06:54:42.000Z</time>
      </trkpt>
      <trkpt lat="42.517826080322266" lon="-6.6399245262146">
        <ele>523.0</ele>
        <time>2019-04-23T06:54:50.000Z</time>
      </trkpt>
      <trkpt lat="42.51774978637695" lon="-6.6402482986450195">
        <ele>526.0</ele>
        <time>2019-04-23T06:55:13.000Z</time>
      </trkpt>
      <trkpt lat="42.51764678955078" lon="-6.6404266357421875">
        <ele>526.0</ele>
        <time>2019-04-23T06:55:27.000Z</time>
      </trkpt>
      <trkpt lat="42.51750946044922" lon="-6.640612602233887">
        <ele>525.0</ele>
        <time>2019-04-23T06:55:42.000Z</time>
      </trkpt>
      <trkpt lat="42.51744842529297" lon="-6.640703201293945">
        <ele>525.0</ele>
        <time>2019-04-23T06:55:50.000Z</time>
      </trkpt>
      <trkpt lat="42.51738739013672" lon="-6.6407928466796875">
        <ele>526.0</ele>
        <time>2019-04-23T06:55:58.000Z</time>
      </trkpt>
      <trkpt lat="42.51732635498047" lon="-6.64088249206543">
        <ele>526.0</ele>
        <time>2019-04-23T06:56:06.000Z</time>
      </trkpt>
      <trkpt lat="42.51726150512695" lon="-6.640972137451172">
        <ele>526.0</ele>
        <time>2019-04-23T06:56:14.000Z</time>
      </trkpt>
      <trkpt lat="42.5172004699707" lon="-6.641062259674072">
        <ele>527.0</ele>
        <time>2019-04-23T06:56:21.000Z</time>
      </trkpt>
      <trkpt lat="42.51713943481445" lon="-6.641152381896973">
        <ele>527.0</ele>
        <time>2019-04-23T06:56:28.000Z</time>
      </trkpt>
      <trkpt lat="42.5170783996582" lon="-6.641242980957031">
        <ele>527.0</ele>
        <time>2019-04-23T06:56:35.000Z</time>
      </trkpt>
      <trkpt lat="42.51701354980469" lon="-6.64133358001709">
        <ele>527.0</ele>
        <time>2019-04-23T06:56:42.000Z</time>
      </trkpt>
      <trkpt lat="42.51695251464844" lon="-6.641412734985352">
        <ele>527.0</ele>
        <time>2019-04-23T06:56:50.000Z</time>
      </trkpt>
      <trkpt lat="42.51689147949219" lon="-6.641487121582031">
        <ele>527.0</ele>
        <time>2019-04-23T06:56:58.000Z</time>
      </trkpt>
      <trkpt lat="42.51683044433594" lon="-6.641558647155762">
        <ele>527.0</ele>
        <time>2019-04-23T06:57:06.000Z</time>
      </trkpt>
      <trkpt lat="42.51676940917969" lon="-6.641628742218018">
        <ele>527.0</ele>
        <time>2019-04-23T06:57:14.000Z</time>
      </trkpt>
      <trkpt lat="42.516746520996094" lon="-6.641657829284668">
        <ele>528.0</ele>
        <time>2019-04-23T06:57:17.000Z</time>
      </trkpt>
      <trkpt lat="42.51673889160156" lon="-6.641668796539307">
        <ele>528.0</ele>
        <time>2019-04-23T06:57:20.000Z</time>
      </trkpt>
      <trkpt lat="42.51673889160156" lon="-6.641666889190674">
        <ele>529.0</ele>
        <time>2019-04-23T06:57:24.000Z</time>
      </trkpt>
      <trkpt lat="42.516746520996094" lon="-6.641658782958984">
        <ele>530.0</ele>
        <time>2019-04-23T06:57:27.000Z</time>
      </trkpt>
      <trkpt lat="42.51674270629883" lon="-6.641664981842041">
        <ele>530.0</ele>
        <time>2019-04-23T06:57:27.000Z</time>
      </trkpt>
      <trkpt lat="42.51673889160156" lon="-6.6416707038879395">
        <ele>530.0</ele>
        <time>2019-04-23T06:57:27.000Z</time>
      </trkpt>
      <trkpt lat="42.5167350769043" lon="-6.641676425933838">
        <ele>530.0</ele>
        <time>2019-04-23T06:57:28.000Z</time>
      </trkpt>
      <trkpt lat="42.51673126220703" lon="-6.64168119430542">
        <ele>530.0</ele>
        <time>2019-04-23T06:57:28.000Z</time>
      </trkpt>
      <trkpt lat="42.51649475097656" lon="-6.642043113708496">
        <ele>532.0</ele>
        <time>2019-04-23T06:57:49.000Z</time>
      </trkpt>
      <trkpt lat="42.51620864868164" lon="-6.642343521118164">
        <ele>532.0</ele>
        <time>2019-04-23T06:58:19.000Z</time>
      </trkpt>
      <trkpt lat="42.515953063964844" lon="-6.642673492431641">
        <ele>539.0</ele>
        <time>2019-04-23T06:58:52.000Z</time>
      </trkpt>
      <trkpt lat="42.51567459106445" lon="-6.642951011657715">
        <ele>539.0</ele>
        <time>2019-04-23T06:59:20.000Z</time>
      </trkpt>
      <trkpt lat="42.51559066772461" lon="-6.64315938949585">
        <ele>539.0</ele>
        <time>2019-04-23T06:59:35.000Z</time>
      </trkpt>
      <trkpt lat="42.51552963256836" lon="-6.643399238586426">
        <ele>539.0</ele>
        <time>2019-04-23T06:59:51.000Z</time>
      </trkpt>
      <trkpt lat="42.51548385620117" lon="-6.643505573272705">
        <ele>539.0</ele>
        <time>2019-04-23T06:59:58.000Z</time>
      </trkpt>
      <trkpt lat="42.515438079833984" lon="-6.643609523773193">
        <ele>539.0</ele>
        <time>2019-04-23T07:00:06.000Z</time>
      </trkpt>
      <trkpt lat="42.51538848876953" lon="-6.643712043762207">
        <ele>539.0</ele>
        <time>2019-04-23T07:00:13.000Z</time>
      </trkpt>
      <trkpt lat="42.51533889770508" lon="-6.643813133239746">
        <ele>539.0</ele>
        <time>2019-04-23T07:00:21.000Z</time>
      </trkpt>
      <trkpt lat="42.515296936035156" lon="-6.643918991088867">
        <ele>538.0</ele>
        <time>2019-04-23T07:00:30.000Z</time>
      </trkpt>
      <trkpt lat="42.5152587890625" lon="-6.644025802612305">
        <ele>536.0</ele>
        <time>2019-04-23T07:00:38.000Z</time>
      </trkpt>
      <trkpt lat="42.515220642089844" lon="-6.6441330909729">
        <ele>534.0</ele>
        <time>2019-04-23T07:00:47.000Z</time>
      </trkpt>
      <trkpt lat="42.51518630981445" lon="-6.644240856170654">
        <ele>532.0</ele>
        <time>2019-04-23T07:00:56.000Z</time>
      </trkpt>
      <trkpt lat="42.5151481628418" lon="-6.644318103790283">
        <ele>531.0</ele>
        <time>2019-04-23T07:01:06.000Z</time>
      </trkpt>
      <trkpt lat="42.515106201171875" lon="-6.644382953643799">
        <ele>530.0</ele>
        <time>2019-04-23T07:01:16.000Z</time>
      </trkpt>
      <trkpt lat="42.51506805419922" lon="-6.644439697265625">
        <ele>529.0</ele>
        <time>2019-04-23T07:01:27.000Z</time>
      </trkpt>
      <trkpt lat="42.51502990722656" lon="-6.644492149353027">
        <ele>528.0</ele>
        <time>2019-04-23T07:01:37.000Z</time>
      </trkpt>
      <trkpt lat="42.51500701904297" lon="-6.644534587860107">
        <ele>527.0</ele>
        <time>2019-04-23T07:01:47.000Z</time>
      </trkpt>
      <trkpt lat="42.514991760253906" lon="-6.64456844329834">
        <ele>527.0</ele>
        <time>2019-04-23T07:01:58.000Z</time>
      </trkpt>
      <trkpt lat="42.514984130859375" lon="-6.644596576690674">
        <ele>528.0</ele>
        <time>2019-04-23T07:02:08.000Z</time>
      </trkpt>
      <trkpt lat="42.51497268676758" lon="-6.644621849060059">
        <ele>528.0</ele>
        <time>2019-04-23T07:02:19.000Z</time>
      </trkpt>
      <trkpt lat="42.51496505737305" lon="-6.644643783569336">
        <ele>528.0</ele>
        <time>2019-04-23T07:02:19.000Z</time>
      </trkpt>
      <trkpt lat="42.514957427978516" lon="-6.6446614265441895">
        <ele>528.0</ele>
        <time>2019-04-23T07:02:19.000Z</time>
      </trkpt>
      <trkpt lat="42.514949798583984" lon="-6.644676208496094">
        <ele>528.0</ele>
        <time>2019-04-23T07:02:20.000Z</time>
      </trkpt>
      <trkpt lat="42.51494598388672" lon="-6.644689559936523">
        <ele>528.0</ele>
        <time>2019-04-23T07:02:20.000Z</time>
      </trkpt>
      <trkpt lat="42.514793395996094" lon="-6.645017623901367">
        <ele>529.0</ele>
        <time>2019-04-23T07:02:30.000Z</time>
      </trkpt>
      <trkpt lat="42.514774322509766" lon="-6.645049095153809">
        <ele>530.0</ele>
        <time>2019-04-23T07:02:45.000Z</time>
      </trkpt>
      <trkpt lat="42.51476287841797" lon="-6.645072937011719">
        <ele>530.0</ele>
        <time>2019-04-23T07:02:46.000Z</time>
      </trkpt>
      <trkpt lat="42.514591217041016" lon="-6.645475387573242">
        <ele>530.0</ele>
        <time>2019-04-23T07:03:04.000Z</time>
      </trkpt>
      <trkpt lat="42.51438903808594" lon="-6.645873546600342">
        <ele>535.0</ele>
        <time>2019-04-23T07:03:40.000Z</time>
      </trkpt>
      <trkpt lat="42.51438522338867" lon="-6.645878791809082">
        <ele>535.0</ele>
        <time>2019-04-23T07:03:42.000Z</time>
      </trkpt>
      <trkpt lat="42.514381408691406" lon="-6.645901679992676">
        <ele>538.0</ele>
        <time>2019-04-23T07:03:57.000Z</time>
      </trkpt>
      <trkpt lat="42.51437759399414" lon="-6.645921230316162">
        <ele>538.0</ele>
        <time>2019-04-23T07:03:58.000Z</time>
      </trkpt>
      <trkpt lat="42.51433563232422" lon="-6.646374225616455">
        <ele>540.0</ele>
        <time>2019-04-23T07:04:15.000Z</time>
      </trkpt>
      <trkpt lat="42.51425552368164" lon="-6.646845817565918">
        <ele>542.0</ele>
        <time>2019-04-23T07:04:47.000Z</time>
      </trkpt>
      <trkpt lat="42.51420211791992" lon="-6.647322654724121">
        <ele>544.0</ele>
        <time>2019-04-23T07:05:16.000Z</time>
      </trkpt>
      <trkpt lat="42.51413345336914" lon="-6.64778470993042">
        <ele>546.0</ele>
        <time>2019-04-23T07:05:50.000Z</time>
      </trkpt>
      <trkpt lat="42.51405715942383" lon="-6.648252010345459">
        <ele>548.0</ele>
        <time>2019-04-23T07:06:26.000Z</time>
      </trkpt>
      <trkpt lat="42.513938903808594" lon="-6.648708820343018">
        <ele>552.0</ele>
        <time>2019-04-23T07:06:56.000Z</time>
      </trkpt>
      <trkpt lat="42.51381301879883" lon="-6.6491570472717285">
        <ele>557.0</ele>
        <time>2019-04-23T07:07:28.000Z</time>
      </trkpt>
      <trkpt lat="42.51370620727539" lon="-6.649621963500977">
        <ele>560.0</ele>
        <time>2019-04-23T07:08:03.000Z</time>
      </trkpt>
      <trkpt lat="42.5136833190918" lon="-6.650068283081055">
        <ele>562.0</ele>
        <time>2019-04-23T07:08:38.000Z</time>
      </trkpt>
      <trkpt lat="42.5136833190918" lon="-6.650118827819824">
        <ele>564.0</ele>
        <time>2019-04-23T07:08:59.000Z</time>
      </trkpt>
      <trkpt lat="42.5136833190918" lon="-6.650154113769531">
        <ele>564.0</ele>
        <time>2019-04-23T07:09:00.000Z</time>
      </trkpt>
      <trkpt lat="42.513710021972656" lon="-6.650636196136475">
        <ele>569.0</ele>
        <time>2019-04-23T07:09:30.000Z</time>
      </trkpt>
      <trkpt lat="42.51376724243164" lon="-6.650906085968018">
        <ele>570.0</ele>
        <time>2019-04-23T07:09:52.000Z</time>
      </trkpt>
      <trkpt lat="42.513763427734375" lon="-6.650958061218262">
        <ele>571.0</ele>
        <time>2019-04-23T07:10:00.000Z</time>
      </trkpt>
      <trkpt lat="42.51377487182617" lon="-6.650973796844482">
        <ele>570.0</ele>
        <time>2019-04-23T07:10:16.000Z</time>
      </trkpt>
      <trkpt lat="42.51378631591797" lon="-6.650990962982178">
        <ele>570.0</ele>
        <time>2019-04-23T07:10:32.000Z</time>
      </trkpt>
      <trkpt lat="42.51380157470703" lon="-6.6510090827941895">
        <ele>570.0</ele>
        <time>2019-04-23T07:10:48.000Z</time>
      </trkpt>
      <trkpt lat="42.51382064819336" lon="-6.651027679443359">
        <ele>570.0</ele>
        <time>2019-04-23T07:11:04.000Z</time>
      </trkpt>
      <trkpt lat="42.513832092285156" lon="-6.651040077209473">
        <ele>570.0</ele>
        <time>2019-04-23T07:11:04.000Z</time>
      </trkpt>
      <trkpt lat="42.51383972167969" lon="-6.651050567626953">
        <ele>570.0</ele>
        <time>2019-04-23T07:11:05.000Z</time>
      </trkpt>
      <trkpt lat="42.51384735107422" lon="-6.651059627532959">
        <ele>570.0</ele>
        <time>2019-04-23T07:11:05.000Z</time>
      </trkpt>
      <trkpt lat="42.513851165771484" lon="-6.651067733764648">
        <ele>570.0</ele>
        <time>2019-04-23T07:11:05.000Z</time>
      </trkpt>
      <trkpt lat="42.513893127441406" lon="-6.6511335372924805">
        <ele>569.0</ele>
        <time>2019-04-23T07:11:10.000Z</time>
      </trkpt>
      <trkpt lat="42.51394271850586" lon="-6.6512227058410645">
        <ele>569.0</ele>
        <time>2019-04-23T07:11:15.000Z</time>
      </trkpt>
      <trkpt lat="42.51400375366211" lon="-6.651327133178711">
        <ele>568.0</ele>
        <time>2019-04-23T07:11:19.000Z</time>
      </trkpt>
      <trkpt lat="42.514068603515625" lon="-6.651439666748047">
        <ele>567.0</ele>
        <time>2019-04-23T07:11:24.000Z</time>
      </trkpt>
      <trkpt lat="42.51411056518555" lon="-6.65150260925293">
        <ele>566.0</ele>
        <time>2019-04-23T07:11:31.000Z</time>
      </trkpt>
      <trkpt lat="42.5141487121582" lon="-6.651553630828857">
        <ele>565.0</ele>
        <time>2019-04-23T07:11:39.000Z</time>
      </trkpt>
      <trkpt lat="42.51417922973633" lon="-6.651595592498779">
        <ele>565.0</ele>
        <time>2019-04-23T07:11:46.000Z</time>
      </trkpt>
      <trkpt lat="42.51420974731445" lon="-6.6516337394714355">
        <ele>564.0</ele>
        <time>2019-04-23T07:11:53.000Z</time>
      </trkpt>
      <trkpt lat="42.51423263549805" lon="-6.651655673980713">
        <ele>564.0</ele>
        <time>2019-04-23T07:12:00.000Z</time>
      </trkpt>
      <trkpt lat="42.51424789428711" lon="-6.65166711807251">
        <ele>564.0</ele>
        <time>2019-04-23T07:12:07.000Z</time>
      </trkpt>
      <trkpt lat="42.514259338378906" lon="-6.651670932769775">
        <ele>563.0</ele>
        <time>2019-04-23T07:12:14.000Z</time>
      </trkpt>
      <trkpt lat="42.51426696777344" lon="-6.651670932769775">
        <ele>563.0</ele>
        <time>2019-04-23T07:12:21.000Z</time>
      </trkpt>
      <trkpt lat="42.51427459716797" lon="-6.651677131652832">
        <ele>563.0</ele>
        <time>2019-04-23T07:12:21.000Z</time>
      </trkpt>
      <trkpt lat="42.514286041259766" lon="-6.6516828536987305">
        <ele>563.0</ele>
        <time>2019-04-23T07:12:22.000Z</time>
      </trkpt>
      <trkpt lat="42.51428985595703" lon="-6.651687145233154">
        <ele>563.0</ele>
        <time>2019-04-23T07:12:22.000Z</time>
      </trkpt>
      <trkpt lat="42.51429748535156" lon="-6.651691436767578">
        <ele>563.0</ele>
        <time>2019-04-23T07:12:22.000Z</time>
      </trkpt>
      <trkpt lat="42.514591217041016" lon="-6.65195894241333">
        <ele>562.0</ele>
        <time>2019-04-23T07:12:42.000Z</time>
      </trkpt>
      <trkpt lat="42.514869689941406" lon="-6.652224063873291">
        <ele>560.0</ele>
        <time>2019-04-23T07:13:12.000Z</time>
      </trkpt>
      <trkpt lat="42.51490783691406" lon="-6.652299880981445">
        <ele>560.0</ele>
        <time>2019-04-23T07:13:32.000Z</time>
      </trkpt>
      <trkpt lat="42.51494216918945" lon="-6.652304649353027">
        <ele>560.0</ele>
        <time>2019-04-23T07:13:39.000Z</time>
      </trkpt>
      <trkpt lat="42.514984130859375" lon="-6.652303218841553">
        <ele>559.0</ele>
        <time>2019-04-23T07:13:46.000Z</time>
      </trkpt>
      <trkpt lat="42.51503372192383" lon="-6.652298450469971">
        <ele>559.0</ele>
        <time>2019-04-23T07:13:54.000Z</time>
      </trkpt>
      <trkpt lat="42.51508712768555" lon="-6.652291297912598">
        <ele>559.0</ele>
        <time>2019-04-23T07:14:01.000Z</time>
      </trkpt>
      <trkpt lat="42.51511764526367" lon="-6.652288913726807">
        <ele>559.0</ele>
        <time>2019-04-23T07:14:04.000Z</time>
      </trkpt>
      <trkpt lat="42.5151481628418" lon="-6.652286529541016">
        <ele>558.0</ele>
        <time>2019-04-23T07:14:07.000Z</time>
      </trkpt>
      <trkpt lat="42.515174865722656" lon="-6.652283668518066">
        <ele>558.0</ele>
        <time>2019-04-23T07:14:10.000Z</time>
      </trkpt>
      <trkpt lat="42.51519775390625" lon="-6.652280807495117">
        <ele>558.0</ele>
        <time>2019-04-23T07:14:13.000Z</time>
      </trkpt>
      <trkpt lat="42.51521301269531" lon="-6.652279376983643">
        <ele>558.0</ele>
        <time>2019-04-23T07:14:13.000Z</time>
      </trkpt>
      <trkpt lat="42.51522445678711" lon="-6.652278423309326">
        <ele>558.0</ele>
        <time>2019-04-23T07:14:14.000Z</time>
      </trkpt>
      <trkpt lat="42.515228271484375" lon="-6.652277946472168">
        <ele>558.0</ele>
        <time>2019-04-23T07:14:14.000Z</time>
      </trkpt>
      <trkpt lat="42.51523208618164" lon="-6.65227746963501">
        <ele>558.0</ele>
        <time>2019-04-23T07:14:14.000Z</time>
      </trkpt>
      <trkpt lat="42.515254974365234" lon="-6.652273654937744">
        <ele>558.0</ele>
        <time>2019-04-23T07:14:17.000Z</time>
      </trkpt>
      <trkpt lat="42.515281677246094" lon="-6.652268409729004">
        <ele>558.0</ele>
        <time>2019-04-23T07:14:19.000Z</time>
      </trkpt>
      <trkpt lat="42.51531219482422" lon="-6.652262210845947">
        <ele>557.0</ele>
        <time>2019-04-23T07:14:22.000Z</time>
      </trkpt>
      <trkpt lat="42.51534652709961" lon="-6.652255535125732">
        <ele>557.0</ele>
        <time>2019-04-23T07:14:24.000Z</time>
      </trkpt>
      <trkpt lat="42.51536178588867" lon="-6.652261257171631">
        <ele>557.0</ele>
        <time>2019-04-23T07:14:27.000Z</time>
      </trkpt>
      <trkpt lat="42.51536560058594" lon="-6.652271270751953">
        <ele>557.0</ele>
        <time>2019-04-23T07:14:30.000Z</time>
      </trkpt>
      <trkpt lat="42.5153694152832" lon="-6.652284622192383">
        <ele>557.0</ele>
        <time>2019-04-23T07:14:32.000Z</time>
      </trkpt>
      <trkpt lat="42.5153694152832" lon="-6.652299404144287">
        <ele>556.0</ele>
        <time>2019-04-23T07:14:35.000Z</time>
      </trkpt>
      <trkpt lat="42.51537322998047" lon="-6.652307987213135">
        <ele>556.0</ele>
        <time>2019-04-23T07:14:42.000Z</time>
      </trkpt>
      <trkpt lat="42.515377044677734" lon="-6.652315616607666">
        <ele>555.0</ele>
        <time>2019-04-23T07:14:49.000Z</time>
      </trkpt>
      <trkpt lat="42.515377044677734" lon="-6.652322769165039">
        <ele>555.0</ele>
        <time>2019-04-23T07:14:56.000Z</time>
      </trkpt>
      <trkpt lat="42.515380859375" lon="-6.652329921722412">
        <ele>554.0</ele>
        <time>2019-04-23T07:15:03.000Z</time>
      </trkpt>
      <trkpt lat="42.515380859375" lon="-6.652336597442627">
        <ele>554.0</ele>
        <time>2019-04-23T07:15:03.000Z</time>
      </trkpt>
      <trkpt lat="42.515384674072266" lon="-6.652342319488525">
        <ele>554.0</ele>
        <time>2019-04-23T07:15:04.000Z</time>
      </trkpt>
      <trkpt lat="42.515384674072266" lon="-6.652348041534424">
        <ele>554.0</ele>
        <time>2019-04-23T07:15:04.000Z</time>
      </trkpt>
      <trkpt lat="42.51538848876953" lon="-6.652353763580322">
        <ele>554.0</ele>
        <time>2019-04-23T07:15:04.000Z</time>
      </trkpt>
      <trkpt lat="42.51541519165039" lon="-6.6524271965026855">
        <ele>553.0</ele>
        <time>2019-04-23T07:15:12.000Z</time>
      </trkpt>
      <trkpt lat="42.51545333862305" lon="-6.652528285980225">
        <ele>552.0</ele>
        <time>2019-04-23T07:15:21.000Z</time>
      </trkpt>
      <trkpt lat="42.515499114990234" lon="-6.65264892578125">
        <ele>550.0</ele>
        <time>2019-04-23T07:15:29.000Z</time>
      </trkpt>
      <trkpt lat="42.51554870605469" lon="-6.652778148651123">
        <ele>549.0</ele>
        <time>2019-04-23T07:15:37.000Z</time>
      </trkpt>
      <trkpt lat="42.515594482421875" lon="-6.652875900268555">
        <ele>547.0</ele>
        <time>2019-04-23T07:15:50.000Z</time>
      </trkpt>
      <trkpt lat="42.51564407348633" lon="-6.652970314025879">
        <ele>546.0</ele>
        <time>2019-04-23T07:16:02.000Z</time>
      </trkpt>
      <trkpt lat="42.51569366455078" lon="-6.653061866760254">
        <ele>544.0</ele>
        <time>2019-04-23T07:16:15.000Z</time>
      </trkpt>
      <trkpt lat="42.515743255615234" lon="-6.6531524658203125">
        <ele>543.0</ele>
        <time>2019-04-23T07:16:27.000Z</time>
      </trkpt>
      <trkpt lat="42.51577377319336" lon="-6.653201103210449">
        <ele>542.0</ele>
        <time>2019-04-23T07:16:32.000Z</time>
      </trkpt>
      <trkpt lat="42.51578903198242" lon="-6.6532301902771">
        <ele>541.0</ele>
        <time>2019-04-23T07:16:37.000Z</time>
      </trkpt>
      <trkpt lat="42.515804290771484" lon="-6.653246879577637">
        <ele>540.0</ele>
        <time>2019-04-23T07:16:42.000Z</time>
      </trkpt>
      <trkpt lat="42.515811920166016" lon="-6.653257369995117">
        <ele>540.0</ele>
        <time>2019-04-23T07:16:47.000Z</time>
      </trkpt>
      <trkpt lat="42.51584243774414" lon="-6.653305530548096">
        <ele>536.0</ele>
        <time>2019-04-23T07:18:17.000Z</time>
      </trkpt>
      <trkpt lat="42.51586151123047" lon="-6.653335094451904">
        <ele>536.0</ele>
        <time>2019-04-23T07:18:18.000Z</time>
      </trkpt>
      <trkpt lat="42.515869140625" lon="-6.653353214263916">
        <ele>536.0</ele>
        <time>2019-04-23T07:18:19.000Z</time>
      </trkpt>
      <trkpt lat="42.51588821411133" lon="-6.6533942222595215">
        <ele>535.0</ele>
        <time>2019-04-23T07:18:38.000Z</time>
      </trkpt>
      <trkpt lat="42.51590347290039" lon="-6.65342378616333">
        <ele>535.0</ele>
        <time>2019-04-23T07:18:39.000Z</time>
      </trkpt>
      <trkpt lat="42.51592254638672" lon="-6.653465270996094">
        <ele>535.0</ele>
        <time>2019-04-23T07:18:42.000Z</time>
      </trkpt>
      <trkpt lat="42.51593780517578" lon="-6.653498649597168">
        <ele>534.0</ele>
        <time>2019-04-23T07:18:46.000Z</time>
      </trkpt>
      <trkpt lat="42.51594543457031" lon="-6.6535234451293945">
        <ele>534.0</ele>
        <time>2019-04-23T07:18:47.000Z</time>
      </trkpt>
      <trkpt lat="42.51606369018555" lon="-6.653804779052734">
        <ele>533.0</ele>
        <time>2019-04-23T07:18:58.000Z</time>
      </trkpt>
      <trkpt lat="42.516075134277344" lon="-6.65383768081665">
        <ele>532.0</ele>
        <time>2019-04-23T07:19:14.000Z</time>
      </trkpt>
      <trkpt lat="42.516082763671875" lon="-6.653862476348877">
        <ele>532.0</ele>
        <time>2019-04-23T07:19:15.000Z</time>
      </trkpt>
      <trkpt lat="42.51616287231445" lon="-6.654146671295166">
        <ele>530.0</ele>
        <time>2019-04-23T07:19:25.000Z</time>
      </trkpt>
      <trkpt lat="42.51618957519531" lon="-6.654234886169434">
        <ele>525.0</ele>
        <time>2019-04-23T07:19:46.000Z</time>
      </trkpt>
      <trkpt lat="42.51620101928711" lon="-6.6542816162109375">
        <ele>525.0</ele>
        <time>2019-04-23T07:19:47.000Z</time>
      </trkpt>
      <trkpt lat="42.516326904296875" lon="-6.654722213745117">
        <ele>522.0</ele>
        <time>2019-04-23T07:20:07.000Z</time>
      </trkpt>
      <trkpt lat="42.5164909362793" lon="-6.655153274536133">
        <ele>511.0</ele>
        <time>2019-04-23T07:20:39.000Z</time>
      </trkpt>
      <trkpt lat="42.51653289794922" lon="-6.655187606811523">
        <ele>509.0</ele>
        <time>2019-04-23T07:20:47.000Z</time>
      </trkpt>
      <trkpt lat="42.51655578613281" lon="-6.655224323272705">
        <ele>506.0</ele>
        <time>2019-04-23T07:21:05.000Z</time>
      </trkpt>
      <trkpt lat="42.516571044921875" lon="-6.6552510261535645">
        <ele>506.0</ele>
        <time>2019-04-23T07:21:06.000Z</time>
      </trkpt>
      <trkpt lat="42.51668930053711" lon="-6.655468463897705">
        <ele>506.0</ele>
        <time>2019-04-23T07:21:16.000Z</time>
      </trkpt>
      <trkpt lat="42.516700744628906" lon="-6.655503273010254">
        <ele>506.0</ele>
        <time>2019-04-23T07:21:29.000Z</time>
      </trkpt>
      <trkpt lat="42.51670837402344" lon="-6.655529975891113">
        <ele>506.0</ele>
        <time>2019-04-23T07:21:30.000Z</time>
      </trkpt>
      <trkpt lat="42.51691818237305" lon="-6.65590763092041">
        <ele>506.0</ele>
        <time>2019-04-23T07:21:47.000Z</time>
      </trkpt>
      <trkpt lat="42.51707077026367" lon="-6.656023025512695">
        <ele>505.0</ele>
        <time>2019-04-23T07:22:04.000Z</time>
      </trkpt>
      <trkpt lat="42.517242431640625" lon="-6.656104564666748">
        <ele>505.0</ele>
        <time>2019-04-23T07:22:20.000Z</time>
      </trkpt>
      <trkpt lat="42.5173225402832" lon="-6.6561479568481445">
        <ele>504.0</ele>
        <time>2019-04-23T07:22:27.000Z</time>
      </trkpt>
      <trkpt lat="42.51740646362305" lon="-6.65618896484375">
        <ele>503.0</ele>
        <time>2019-04-23T07:22:34.000Z</time>
      </trkpt>
      <trkpt lat="42.517486572265625" lon="-6.656229019165039">
        <ele>502.0</ele>
        <time>2019-04-23T07:22:41.000Z</time>
      </trkpt>
      <trkpt lat="42.5175666809082" lon="-6.6562676429748535">
        <ele>500.0</ele>
        <time>2019-04-23T07:22:48.000Z</time>
      </trkpt>
      <trkpt lat="42.51764678955078" lon="-6.656303882598877">
        <ele>499.0</ele>
        <time>2019-04-23T07:22:58.000Z</time>
      </trkpt>
      <trkpt lat="42.517730712890625" lon="-6.656338691711426">
        <ele>498.0</ele>
        <time>2019-04-23T07:23:07.000Z</time>
      </trkpt>
      <trkpt lat="42.5178108215332" lon="-6.656371593475342">
        <ele>497.0</ele>
        <time>2019-04-23T07:23:17.000Z</time>
      </trkpt>
      <trkpt lat="42.51789093017578" lon="-6.656404495239258">
        <ele>496.0</ele>
        <time>2019-04-23T07:23:26.000Z</time>
      </trkpt>
      <trkpt lat="42.5179328918457" lon="-6.656416416168213">
        <ele>498.0</ele>
        <time>2019-04-23T07:23:59.000Z</time>
      </trkpt>
      <trkpt lat="42.51795196533203" lon="-6.65641975402832">
        <ele>500.0</ele>
        <time>2019-04-23T07:24:31.000Z</time>
      </trkpt>
      <trkpt lat="42.51796340942383" lon="-6.656416893005371">
        <ele>503.0</ele>
        <time>2019-04-23T07:25:04.000Z</time>
      </trkpt>
      <trkpt lat="42.517967224121094" lon="-6.656411170959473">
        <ele>506.0</ele>
        <time>2019-04-23T07:25:36.000Z</time>
      </trkpt>
      <trkpt lat="42.51797866821289" lon="-6.656412124633789">
        <ele>507.0</ele>
        <time>2019-04-23T07:25:36.000Z</time>
      </trkpt>
      <trkpt lat="42.51799011230469" lon="-6.6564130783081055">
        <ele>507.0</ele>
        <time>2019-04-23T07:25:37.000Z</time>
      </trkpt>
      <trkpt lat="42.51799774169922" lon="-6.656414031982422">
        <ele>507.0</ele>
        <time>2019-04-23T07:25:37.000Z</time>
      </trkpt>
      <trkpt lat="42.51800537109375" lon="-6.656414985656738">
        <ele>506.0</ele>
        <time>2019-04-23T07:25:37.000Z</time>
      </trkpt>
      <trkpt lat="42.518043518066406" lon="-6.656425952911377">
        <ele>506.0</ele>
        <time>2019-04-23T07:25:40.000Z</time>
      </trkpt>
      <trkpt lat="42.518089294433594" lon="-6.656441688537598">
        <ele>506.0</ele>
        <time>2019-04-23T07:25:44.000Z</time>
      </trkpt>
      <trkpt lat="42.51814270019531" lon="-6.656459808349609">
        <ele>506.0</ele>
        <time>2019-04-23T07:25:47.000Z</time>
      </trkpt>
      <trkpt lat="42.51820373535156" lon="-6.656479835510254">
        <ele>505.0</ele>
        <time>2019-04-23T07:25:50.000Z</time>
      </trkpt>
      <trkpt lat="42.51823043823242" lon="-6.656489372253418">
        <ele>501.0</ele>
        <time>2019-04-23T07:26:14.000Z</time>
      </trkpt>
      <trkpt lat="42.51824951171875" lon="-6.656497478485107">
        <ele>501.0</ele>
        <time>2019-04-23T07:26:15.000Z</time>
      </trkpt>
      <trkpt lat="42.518550872802734" lon="-6.656624794006348">
        <ele>500.0</ele>
        <time>2019-04-23T07:26:25.000Z</time>
      </trkpt>
      <trkpt lat="42.51878356933594" lon="-6.656765460968018">
        <ele>497.0</ele>
        <time>2019-04-23T07:26:40.000Z</time>
      </trkpt>
      <trkpt lat="42.5188102722168" lon="-6.656804084777832">
        <ele>496.0</ele>
        <time>2019-04-23T07:26:43.000Z</time>
      </trkpt>
      <trkpt lat="42.518821716308594" lon="-6.656844139099121">
        <ele>496.0</ele>
        <time>2019-04-23T07:26:47.000Z</time>
      </trkpt>
      <trkpt lat="42.518821716308594" lon="-6.656884670257568">
        <ele>495.0</ele>
        <time>2019-04-23T07:26:50.000Z</time>
      </trkpt>
      <trkpt lat="42.518821716308594" lon="-6.656926155090332">
        <ele>494.0</ele>
        <time>2019-04-23T07:26:53.000Z</time>
      </trkpt>
      <trkpt lat="42.518795013427734" lon="-6.657136917114258">
        <ele>493.0</ele>
        <time>2019-04-23T07:27:07.000Z</time>
      </trkpt>
      <trkpt lat="42.51875305175781" lon="-6.657407760620117">
        <ele>491.0</ele>
        <time>2019-04-23T07:27:21.000Z</time>
      </trkpt>
      <trkpt lat="42.51874542236328" lon="-6.6574811935424805">
        <ele>490.0</ele>
        <time>2019-04-23T07:27:26.000Z</time>
      </trkpt>
      <trkpt lat="42.518741607666016" lon="-6.657535076141357">
        <ele>489.0</ele>
        <time>2019-04-23T07:27:30.000Z</time>
      </trkpt>
      <trkpt lat="42.518741607666016" lon="-6.657576084136963">
        <ele>488.0</ele>
        <time>2019-04-23T07:27:35.000Z</time>
      </trkpt>
      <trkpt lat="42.51874542236328" lon="-6.657609939575195">
        <ele>488.0</ele>
        <time>2019-04-23T07:27:39.000Z</time>
      </trkpt>
      <trkpt lat="42.518741607666016" lon="-6.657634258270264">
        <ele>487.0</ele>
        <time>2019-04-23T07:27:43.000Z</time>
      </trkpt>
      <trkpt lat="42.518741607666016" lon="-6.657648086547852">
        <ele>486.0</ele>
        <time>2019-04-23T07:27:47.000Z</time>
      </trkpt>
      <trkpt lat="42.51873779296875" lon="-6.657654285430908">
        <ele>485.0</ele>
        <time>2019-04-23T07:27:51.000Z</time>
      </trkpt>
      <trkpt lat="42.518733978271484" lon="-6.657656669616699">
        <ele>484.0</ele>
        <time>2019-04-23T07:27:55.000Z</time>
      </trkpt>
      <trkpt lat="42.51873016357422" lon="-6.657666206359863">
        <ele>483.0</ele>
        <time>2019-04-23T07:27:55.000Z</time>
      </trkpt>
      <trkpt lat="42.51873016357422" lon="-6.657674789428711">
        <ele>483.0</ele>
        <time>2019-04-23T07:27:56.000Z</time>
      </trkpt>
      <trkpt lat="42.51872634887695" lon="-6.657682418823242">
        <ele>484.0</ele>
        <time>2019-04-23T07:27:56.000Z</time>
      </trkpt>
      <trkpt lat="42.51872634887695" lon="-6.657690048217773">
        <ele>484.0</ele>
        <time>2019-04-23T07:27:56.000Z</time>
      </trkpt>
      <trkpt lat="42.51870346069336" lon="-6.657758712768555">
        <ele>483.0</ele>
        <time>2019-04-23T07:28:00.000Z</time>
      </trkpt>
      <trkpt lat="42.5186767578125" lon="-6.657852649688721">
        <ele>483.0</ele>
        <time>2019-04-23T07:28:05.000Z</time>
      </trkpt>
      <trkpt lat="42.518646240234375" lon="-6.657962799072266">
        <ele>482.0</ele>
        <time>2019-04-23T07:28:09.000Z</time>
      </trkpt>
      <trkpt lat="42.51860809326172" lon="-6.658081531524658">
        <ele>481.0</ele>
        <time>2019-04-23T07:28:13.000Z</time>
      </trkpt>
      <trkpt lat="42.518585205078125" lon="-6.658111572265625">
        <ele>481.0</ele>
        <time>2019-04-23T07:28:15.000Z</time>
      </trkpt>
      <trkpt lat="42.518558502197266" lon="-6.658112525939941">
        <ele>481.0</ele>
        <time>2019-04-23T07:28:18.000Z</time>
      </trkpt>
      <trkpt lat="42.51853561401367" lon="-6.65809440612793">
        <ele>480.0</ele>
        <time>2019-04-23T07:28:20.000Z</time>
      </trkpt>
      <trkpt lat="42.518516540527344" lon="-6.658067226409912">
        <ele>480.0</ele>
        <time>2019-04-23T07:28:22.000Z</time>
      </trkpt>
      <trkpt lat="42.51850509643555" lon="-6.658064365386963">
        <ele>480.0</ele>
        <time>2019-04-23T07:28:23.000Z</time>
      </trkpt>
      <trkpt lat="42.51850128173828" lon="-6.658061981201172">
        <ele>480.0</ele>
        <time>2019-04-23T07:28:24.000Z</time>
      </trkpt>
      <trkpt lat="42.51850128173828" lon="-6.658060073852539">
        <ele>480.0</ele>
        <time>2019-04-23T07:28:25.000Z</time>
      </trkpt>
      <trkpt lat="42.51850509643555" lon="-6.658058166503906">
        <ele>480.0</ele>
        <time>2019-04-23T07:28:26.000Z</time>
      </trkpt>
      <trkpt lat="42.518497467041016" lon="-6.658060073852539">
        <ele>479.0</ele>
        <time>2019-04-23T07:28:31.000Z</time>
      </trkpt>
      <trkpt lat="42.518489837646484" lon="-6.6580634117126465">
        <ele>479.0</ele>
        <time>2019-04-23T07:28:35.000Z</time>
      </trkpt>
      <trkpt lat="42.51848220825195" lon="-6.65806770324707">
        <ele>479.0</ele>
        <time>2019-04-23T07:28:40.000Z</time>
      </trkpt>
      <trkpt lat="42.51847457885742" lon="-6.658072471618652">
        <ele>479.0</ele>
        <time>2019-04-23T07:28:44.000Z</time>
      </trkpt>
      <trkpt lat="42.51846694946289" lon="-6.65807580947876">
        <ele>479.0</ele>
        <time>2019-04-23T07:28:44.000Z</time>
      </trkpt>
      <trkpt lat="42.51845932006836" lon="-6.658078193664551">
        <ele>479.0</ele>
        <time>2019-04-23T07:28:45.000Z</time>
      </trkpt>
      <trkpt lat="42.518455505371094" lon="-6.6580810546875">
        <ele>479.0</ele>
        <time>2019-04-23T07:28:45.000Z</time>
      </trkpt>
      <trkpt lat="42.51845169067383" lon="-6.658083438873291">
        <ele>479.0</ele>
        <time>2019-04-23T07:28:45.000Z</time>
      </trkpt>
      <trkpt lat="42.5184211730957" lon="-6.658092975616455">
        <ele>479.0</ele>
        <time>2019-04-23T07:28:47.000Z</time>
      </trkpt>
      <trkpt lat="42.51838302612305" lon="-6.658105850219727">
        <ele>479.0</ele>
        <time>2019-04-23T07:28:48.000Z</time>
      </trkpt>
      <trkpt lat="42.51833724975586" lon="-6.658120632171631">
        <ele>479.0</ele>
        <time>2019-04-23T07:28:50.000Z</time>
      </trkpt>
      <trkpt lat="42.518287658691406" lon="-6.65813684463501">
        <ele>479.0</ele>
        <time>2019-04-23T07:28:51.000Z</time>
      </trkpt>
      <trkpt lat="42.518272399902344" lon="-6.65814208984375">
        <ele>478.0</ele>
        <time>2019-04-23T07:28:56.000Z</time>
      </trkpt>
      <trkpt lat="42.51826477050781" lon="-6.658143997192383">
        <ele>478.0</ele>
        <time>2019-04-23T07:29:01.000Z</time>
      </trkpt>
      <trkpt lat="42.51826477050781" lon="-6.658143520355225">
        <ele>478.0</ele>
        <time>2019-04-23T07:29:05.000Z</time>
      </trkpt>
      <trkpt lat="42.51826858520508" lon="-6.65814208984375">
        <ele>477.0</ele>
        <time>2019-04-23T07:29:10.000Z</time>
      </trkpt>
      <trkpt lat="42.51826477050781" lon="-6.658143043518066">
        <ele>477.0</ele>
        <time>2019-04-23T07:29:10.000Z</time>
      </trkpt>
      <trkpt lat="42.51826095581055" lon="-6.658144474029541">
        <ele>477.0</ele>
        <time>2019-04-23T07:29:11.000Z</time>
      </trkpt>
      <trkpt lat="42.51825714111328" lon="-6.658145427703857">
        <ele>477.0</ele>
        <time>2019-04-23T07:29:11.000Z</time>
      </trkpt>
      <trkpt lat="42.518253326416016" lon="-6.658146381378174">
        <ele>477.0</ele>
        <time>2019-04-23T07:29:11.000Z</time>
      </trkpt>
      <trkpt lat="42.51819610595703" lon="-6.658157825469971">
        <ele>477.0</ele>
        <time>2019-04-23T07:29:15.000Z</time>
      </trkpt>
      <trkpt lat="42.51811981201172" lon="-6.658173561096191">
        <ele>477.0</ele>
        <time>2019-04-23T07:29:18.000Z</time>
      </trkpt>
      <trkpt lat="42.51802444458008" lon="-6.658191680908203">
        <ele>477.0</ele>
        <time>2019-04-23T07:29:22.000Z</time>
      </trkpt>
      <trkpt lat="42.51792526245117" lon="-6.658211708068848">
        <ele>477.0</ele>
        <time>2019-04-23T07:29:25.000Z</time>
      </trkpt>
      <trkpt lat="42.51773452758789" lon="-6.658199310302734">
        <ele>476.0</ele>
        <time>2019-04-23T07:29:41.000Z</time>
      </trkpt>
      <trkpt lat="42.517696380615234" lon="-6.658220291137695">
        <ele>476.0</ele>
        <time>2019-04-23T07:29:45.000Z</time>
      </trkpt>
      <trkpt lat="42.51765823364258" lon="-6.6582512855529785">
        <ele>476.0</ele>
        <time>2019-04-23T07:29:49.000Z</time>
      </trkpt>
      <trkpt lat="42.51762390136719" lon="-6.658288955688477">
        <ele>477.0</ele>
        <time>2019-04-23T07:29:53.000Z</time>
      </trkpt>
      <trkpt lat="42.51759338378906" lon="-6.658329963684082">
        <ele>477.0</ele>
        <time>2019-04-23T07:29:57.000Z</time>
      </trkpt>
      <trkpt lat="42.51755142211914" lon="-6.658361434936523">
        <ele>477.0</ele>
        <time>2019-04-23T07:30:01.000Z</time>
      </trkpt>
      <trkpt lat="42.51750564575195" lon="-6.658392906188965">
        <ele>477.0</ele>
        <time>2019-04-23T07:30:05.000Z</time>
      </trkpt>
      <trkpt lat="42.517459869384766" lon="-6.658423900604248">
        <ele>478.0</ele>
        <time>2019-04-23T07:30:08.000Z</time>
      </trkpt>
      <trkpt lat="42.51741409301758" lon="-6.658454895019531">
        <ele>479.0</ele>
        <time>2019-04-23T07:30:12.000Z</time>
      </trkpt>
      <trkpt lat="42.51739501953125" lon="-6.658503532409668">
        <ele>479.0</ele>
        <time>2019-04-23T07:30:16.000Z</time>
      </trkpt>
      <trkpt lat="42.51738357543945" lon="-6.658559322357178">
        <ele>479.0</ele>
        <time>2019-04-23T07:30:20.000Z</time>
      </trkpt>
      <trkpt lat="42.51737976074219" lon="-6.6586198806762695">
        <ele>480.0</ele>
        <time>2019-04-23T07:30:24.000Z</time>
      </trkpt>
      <trkpt lat="42.51737976074219" lon="-6.658682823181152">
        <ele>481.0</ele>
        <time>2019-04-23T07:30:28.000Z</time>
      </trkpt>
      <trkpt lat="42.51734924316406" lon="-6.658731937408447">
        <ele>481.0</ele>
        <time>2019-04-23T07:30:32.000Z</time>
      </trkpt>
      <trkpt lat="42.517311096191406" lon="-6.658777713775635">
        <ele>481.0</ele>
        <time>2019-04-23T07:30:35.000Z</time>
      </trkpt>
      <trkpt lat="42.51726531982422" lon="-6.6588215827941895">
        <ele>480.0</ele>
        <time>2019-04-23T07:30:39.000Z</time>
      </trkpt>
      <trkpt lat="42.51721954345703" lon="-6.6588640213012695">
        <ele>480.0</ele>
        <time>2019-04-23T07:30:42.000Z</time>
      </trkpt>
      <trkpt lat="42.5172233581543" lon="-6.658900737762451">
        <ele>480.0</ele>
        <time>2019-04-23T07:30:44.000Z</time>
      </trkpt>
      <trkpt lat="42.517242431640625" lon="-6.658934116363525">
        <ele>480.0</ele>
        <time>2019-04-23T07:30:45.000Z</time>
      </trkpt>
      <trkpt lat="42.517276763916016" lon="-6.65896463394165">
        <ele>480.0</ele>
        <time>2019-04-23T07:30:47.000Z</time>
      </trkpt>
      <trkpt lat="42.51731491088867" lon="-6.658994674682617">
        <ele>480.0</ele>
        <time>2019-04-23T07:30:48.000Z</time>
      </trkpt>
      <trkpt lat="42.51730728149414" lon="-6.659022331237793">
        <ele>480.0</ele>
        <time>2019-04-23T07:30:50.000Z</time>
      </trkpt>
      <trkpt lat="42.51728439331055" lon="-6.659047603607178">
        <ele>480.0</ele>
        <time>2019-04-23T07:30:52.000Z</time>
      </trkpt>
      <trkpt lat="42.51725387573242" lon="-6.659071922302246">
        <ele>481.0</ele>
        <time>2019-04-23T07:30:53.000Z</time>
      </trkpt>
      <trkpt lat="42.517215728759766" lon="-6.659095287322998">
        <ele>481.0</ele>
        <time>2019-04-23T07:30:55.000Z</time>
      </trkpt>
      <trkpt lat="42.51719284057617" lon="-6.6591291427612305">
        <ele>482.0</ele>
        <time>2019-04-23T07:31:00.000Z</time>
      </trkpt>
      <trkpt lat="42.51716995239258" lon="-6.6591668128967285">
        <ele>483.0</ele>
        <time>2019-04-23T07:31:05.000Z</time>
      </trkpt>
      <trkpt lat="42.51714324951172" lon="-6.659206867218018">
        <ele>483.0</ele>
        <time>2019-04-23T07:31:10.000Z</time>
      </trkpt>
      <trkpt lat="42.517120361328125" lon="-6.659247875213623">
        <ele>484.0</ele>
        <time>2019-04-23T07:31:15.000Z</time>
      </trkpt>
      <trkpt lat="42.517112731933594" lon="-6.65926456451416">
        <ele>485.0</ele>
        <time>2019-04-23T07:31:20.000Z</time>
      </trkpt>
      <trkpt lat="42.51710510253906" lon="-6.65927267074585">
        <ele>485.0</ele>
        <time>2019-04-23T07:31:24.000Z</time>
      </trkpt>
      <trkpt lat="42.51710510253906" lon="-6.659274578094482">
        <ele>486.0</ele>
        <time>2019-04-23T07:31:29.000Z</time>
      </trkpt>
      <trkpt lat="42.51710891723633" lon="-6.659274101257324">
        <ele>486.0</ele>
        <time>2019-04-23T07:31:33.000Z</time>
      </trkpt>
      <trkpt lat="42.51710510253906" lon="-6.6592793464660645">
        <ele>486.0</ele>
        <time>2019-04-23T07:31:33.000Z</time>
      </trkpt>
      <trkpt lat="42.5171012878418" lon="-6.659284591674805">
        <ele>486.0</ele>
        <time>2019-04-23T07:31:34.000Z</time>
      </trkpt>
      <trkpt lat="42.51709747314453" lon="-6.659289836883545">
        <ele>486.0</ele>
        <time>2019-04-23T07:31:34.000Z</time>
      </trkpt>
      <trkpt lat="42.51709747314453" lon="-6.659294605255127">
        <ele>486.0</ele>
        <time>2019-04-23T07:31:34.000Z</time>
      </trkpt>
      <trkpt lat="42.51708221435547" lon="-6.65933084487915">
        <ele>486.0</ele>
        <time>2019-04-23T07:31:36.000Z</time>
      </trkpt>
      <trkpt lat="42.517066955566406" lon="-6.6593804359436035">
        <ele>486.0</ele>
        <time>2019-04-23T07:31:38.000Z</time>
      </trkpt>
      <trkpt lat="42.51704788208008" lon="-6.659438133239746">
        <ele>486.0</ele>
        <time>2019-04-23T07:31:40.000Z</time>
      </trkpt>
      <trkpt lat="42.517024993896484" lon="-6.659500598907471">
        <ele>486.0</ele>
        <time>2019-04-23T07:31:42.000Z</time>
      </trkpt>
      <trkpt lat="42.51700973510742" lon="-6.659517288208008">
        <ele>486.0</ele>
        <time>2019-04-23T07:31:58.000Z</time>
      </trkpt>
      <trkpt lat="42.51699447631836" lon="-6.659519672393799">
        <ele>487.0</ele>
        <time>2019-04-23T07:32:14.000Z</time>
      </trkpt>
      <trkpt lat="42.5169792175293" lon="-6.659512519836426">
        <ele>488.0</ele>
        <time>2019-04-23T07:32:30.000Z</time>
      </trkpt>
      <trkpt lat="42.516963958740234" lon="-6.659500598907471">
        <ele>488.0</ele>
        <time>2019-04-23T07:32:46.000Z</time>
      </trkpt>
      <trkpt lat="42.5169563293457" lon="-6.659501075744629">
        <ele>488.0</ele>
        <time>2019-04-23T07:32:46.000Z</time>
      </trkpt>
      <trkpt lat="42.516944885253906" lon="-6.659501075744629">
        <ele>488.0</ele>
        <time>2019-04-23T07:32:47.000Z</time>
      </trkpt>
      <trkpt lat="42.51694107055664" lon="-6.659501075744629">
        <ele>488.0</ele>
        <time>2019-04-23T07:32:47.000Z</time>
      </trkpt>
      <trkpt lat="42.51693344116211" lon="-6.659501075744629">
        <ele>488.0</ele>
        <time>2019-04-23T07:32:47.000Z</time>
      </trkpt>
      <trkpt lat="42.51690673828125" lon="-6.659494400024414">
        <ele>488.0</ele>
        <time>2019-04-23T07:32:49.000Z</time>
      </trkpt>
      <trkpt lat="42.516868591308594" lon="-6.659485340118408">
        <ele>488.0</ele>
        <time>2019-04-23T07:32:51.000Z</time>
      </trkpt>
      <trkpt lat="42.51682662963867" lon="-6.659473896026611">
        <ele>488.0</ele>
        <time>2019-04-23T07:32:52.000Z</time>
      </trkpt>
      <trkpt lat="42.51678466796875" lon="-6.659461975097656">
        <ele>489.0</ele>
        <time>2019-04-23T07:32:54.000Z</time>
      </trkpt>
      <trkpt lat="42.51676559448242" lon="-6.659439563751221">
        <ele>488.0</ele>
        <time>2019-04-23T07:32:56.000Z</time>
      </trkpt>
      <trkpt lat="42.516754150390625" lon="-6.659411430358887">
        <ele>488.0</ele>
        <time>2019-04-23T07:32:59.000Z</time>
      </trkpt>
      <trkpt lat="42.516746520996094" lon="-6.659379959106445">
        <ele>488.0</ele>
        <time>2019-04-23T07:33:01.000Z</time>
      </trkpt>
      <trkpt lat="42.51674270629883" lon="-6.659346580505371">
        <ele>487.0</ele>
        <time>2019-04-23T07:33:03.000Z</time>
      </trkpt>
      <trkpt lat="42.5167121887207" lon="-6.659348964691162">
        <ele>487.0</ele>
        <time>2019-04-23T07:33:06.000Z</time>
      </trkpt>
      <trkpt lat="42.51667404174805" lon="-6.659364700317383">
        <ele>487.0</ele>
        <time>2019-04-23T07:33:09.000Z</time>
      </trkpt>
      <trkpt lat="42.516632080078125" lon="-6.659389019012451">
        <ele>487.0</ele>
        <time>2019-04-23T07:33:11.000Z</time>
      </trkpt>
      <trkpt lat="42.51658630371094" lon="-6.659417629241943">
        <ele>487.0</ele>
        <time>2019-04-23T07:33:14.000Z</time>
      </trkpt>
      <trkpt lat="42.516517639160156" lon="-6.659442901611328">
        <ele>487.0</ele>
        <time>2019-04-23T07:33:20.000Z</time>
      </trkpt>
      <trkpt lat="42.516441345214844" lon="-6.6594719886779785">
        <ele>488.0</ele>
        <time>2019-04-23T07:33:25.000Z</time>
      </trkpt>
      <trkpt lat="42.516357421875" lon="-6.659502983093262">
        <ele>489.0</ele>
        <time>2019-04-23T07:33:31.000Z</time>
      </trkpt>
      <trkpt lat="42.516265869140625" lon="-6.659534931182861">
        <ele>490.0</ele>
        <time>2019-04-23T07:33:36.000Z</time>
      </trkpt>
      <trkpt lat="42.516231536865234" lon="-6.6595659255981445">
        <ele>491.0</ele>
        <time>2019-04-23T07:33:40.000Z</time>
      </trkpt>
      <trkpt lat="42.51625061035156" lon="-6.659583568572998">
        <ele>491.0</ele>
        <time>2019-04-23T07:33:44.000Z</time>
      </trkpt>
      <trkpt lat="42.516239166259766" lon="-6.659604072570801">
        <ele>490.0</ele>
        <time>2019-04-23T07:33:57.000Z</time>
      </trkpt>
      <trkpt lat="42.5162239074707" lon="-6.659627914428711">
        <ele>490.0</ele>
        <time>2019-04-23T07:34:11.000Z</time>
      </trkpt>
      <trkpt lat="42.51620864868164" lon="-6.659654140472412">
        <ele>489.0</ele>
        <time>2019-04-23T07:34:24.000Z</time>
      </trkpt>
      <trkpt lat="42.51618957519531" lon="-6.659681797027588">
        <ele>488.0</ele>
        <time>2019-04-23T07:34:37.000Z</time>
      </trkpt>
      <trkpt lat="42.51618194580078" lon="-6.659696578979492">
        <ele>487.0</ele>
        <time>2019-04-23T07:34:37.000Z</time>
      </trkpt>
      <trkpt lat="42.51617431640625" lon="-6.659707069396973">
        <ele>487.0</ele>
        <time>2019-04-23T07:34:38.000Z</time>
      </trkpt>
      <trkpt lat="42.516170501708984" lon="-6.659715175628662">
        <ele>487.0</ele>
        <time>2019-04-23T07:34:38.000Z</time>
      </trkpt>
      <trkpt lat="42.51616668701172" lon="-6.659721851348877">
        <ele>488.0</ele>
        <time>2019-04-23T07:34:38.000Z</time>
      </trkpt>
      <trkpt lat="42.516143798828125" lon="-6.659749984741211">
        <ele>488.0</ele>
        <time>2019-04-23T07:34:40.000Z</time>
      </trkpt>
      <trkpt lat="42.516117095947266" lon="-6.659785270690918">
        <ele>488.0</ele>
        <time>2019-04-23T07:34:42.000Z</time>
      </trkpt>
      <trkpt lat="42.516082763671875" lon="-6.659825325012207">
        <ele>488.0</ele>
        <time>2019-04-23T07:34:44.000Z</time>
      </trkpt>
      <trkpt lat="42.516048431396484" lon="-6.659868240356445">
        <ele>488.0</ele>
        <time>2019-04-23T07:34:46.000Z</time>
      </trkpt>
      <trkpt lat="42.51603317260742" lon="-6.659891128540039">
        <ele>487.0</ele>
        <time>2019-04-23T07:34:52.000Z</time>
      </trkpt>
      <trkpt lat="42.51602554321289" lon="-6.659908771514893">
        <ele>486.0</ele>
        <time>2019-04-23T07:34:59.000Z</time>
      </trkpt>
      <trkpt lat="42.51601791381836" lon="-6.659922122955322">
        <ele>485.0</ele>
        <time>2019-04-23T07:35:05.000Z</time>
      </trkpt>
      <trkpt lat="42.51601791381836" lon="-6.659933567047119">
        <ele>484.0</ele>
        <time>2019-04-23T07:35:11.000Z</time>
      </trkpt>
      <trkpt lat="42.51601028442383" lon="-6.659945487976074">
        <ele>483.0</ele>
        <time>2019-04-23T07:35:11.000Z</time>
      </trkpt>
      <trkpt lat="42.51600646972656" lon="-6.659955978393555">
        <ele>483.0</ele>
        <time>2019-04-23T07:35:12.000Z</time>
      </trkpt>
      <trkpt lat="42.5160026550293" lon="-6.6599650382995605">
        <ele>483.0</ele>
        <time>2019-04-23T07:35:12.000Z</time>
      </trkpt>
      <trkpt lat="42.515995025634766" lon="-6.65997314453125">
        <ele>484.0</ele>
        <time>2019-04-23T07:35:12.000Z</time>
      </trkpt>
      <trkpt lat="42.515804290771484" lon="-6.660351276397705">
        <ele>482.0</ele>
        <time>2019-04-23T07:35:28.000Z</time>
      </trkpt>
      <trkpt lat="42.5156364440918" lon="-6.66049861907959">
        <ele>479.0</ele>
        <time>2019-04-23T07:35:42.000Z</time>
      </trkpt>
      <trkpt lat="42.51563262939453" lon="-6.6605610847473145">
        <ele>477.0</ele>
        <time>2019-04-23T07:35:47.000Z</time>
      </trkpt>
      <trkpt lat="42.51564407348633" lon="-6.660634517669678">
        <ele>476.0</ele>
        <time>2019-04-23T07:35:51.000Z</time>
      </trkpt>
      <trkpt lat="42.515663146972656" lon="-6.660714626312256">
        <ele>475.0</ele>
        <time>2019-04-23T07:35:56.000Z</time>
      </trkpt>
      <trkpt lat="42.515689849853516" lon="-6.6607985496521">
        <ele>473.0</ele>
        <time>2019-04-23T07:36:00.000Z</time>
      </trkpt>
      <trkpt lat="42.51569366455078" lon="-6.66090202331543">
        <ele>473.0</ele>
        <time>2019-04-23T07:36:07.000Z</time>
      </trkpt>
      <trkpt lat="42.515689849853516" lon="-6.661017417907715">
        <ele>473.0</ele>
        <time>2019-04-23T07:36:14.000Z</time>
      </trkpt>
      <trkpt lat="42.51568603515625" lon="-6.6611409187316895">
        <ele>473.0</ele>
        <time>2019-04-23T07:36:20.000Z</time>
      </trkpt>
      <trkpt lat="42.51567840576172" lon="-6.66126823425293">
        <ele>473.0</ele>
        <time>2019-04-23T07:36:27.000Z</time>
      </trkpt>
      <trkpt lat="42.515663146972656" lon="-6.661382675170898">
        <ele>474.0</ele>
        <time>2019-04-23T07:36:35.000Z</time>
      </trkpt>
      <trkpt lat="42.51564025878906" lon="-6.661495208740234">
        <ele>474.0</ele>
        <time>2019-04-23T07:36:42.000Z</time>
      </trkpt>
      <trkpt lat="42.5156135559082" lon="-6.661606788635254">
        <ele>475.0</ele>
        <time>2019-04-23T07:36:50.000Z</time>
      </trkpt>
      <trkpt lat="42.515586853027344" lon="-6.661717891693115">
        <ele>476.0</ele>
        <time>2019-04-23T07:36:57.000Z</time>
      </trkpt>
      <trkpt lat="42.515567779541016" lon="-6.661790370941162">
        <ele>477.0</ele>
        <time>2019-04-23T07:37:02.000Z</time>
      </trkpt>
      <trkpt lat="42.51554870605469" lon="-6.661846160888672">
        <ele>477.0</ele>
        <time>2019-04-23T07:37:06.000Z</time>
      </trkpt>
      <trkpt lat="42.51552963256836" lon="-6.661890506744385">
        <ele>477.0</ele>
        <time>2019-04-23T07:37:11.000Z</time>
      </trkpt>
      <trkpt lat="42.5155143737793" lon="-6.661929607391357">
        <ele>477.0</ele>
        <time>2019-04-23T07:37:15.000Z</time>
      </trkpt>
      <trkpt lat="42.5155029296875" lon="-6.661958694458008">
        <ele>477.0</ele>
        <time>2019-04-23T07:37:19.000Z</time>
      </trkpt>
      <trkpt lat="42.515499114990234" lon="-6.661977291107178">
        <ele>477.0</ele>
        <time>2019-04-23T07:37:23.000Z</time>
      </trkpt>
      <trkpt lat="42.51549530029297" lon="-6.661989212036133">
        <ele>477.0</ele>
        <time>2019-04-23T07:37:26.000Z</time>
      </trkpt>
      <trkpt lat="42.5154914855957" lon="-6.6619977951049805">
        <ele>477.0</ele>
        <time>2019-04-23T07:37:30.000Z</time>
      </trkpt>
      <trkpt lat="42.51548767089844" lon="-6.662010192871094">
        <ele>477.0</ele>
        <time>2019-04-23T07:37:30.000Z</time>
      </trkpt>
      <trkpt lat="42.51548385620117" lon="-6.662020683288574">
        <ele>477.0</ele>
        <time>2019-04-23T07:37:31.000Z</time>
      </trkpt>
      <trkpt lat="42.515480041503906" lon="-6.66202974319458">
        <ele>477.0</ele>
        <time>2019-04-23T07:37:31.000Z</time>
      </trkpt>
      <trkpt lat="42.515480041503906" lon="-6.662038326263428">
        <ele>477.0</ele>
        <time>2019-04-23T07:37:31.000Z</time>
      </trkpt>
      <trkpt lat="42.515296936035156" lon="-6.662452220916748">
        <ele>480.0</ele>
        <time>2019-04-23T07:37:48.000Z</time>
      </trkpt>
      <trkpt lat="42.515254974365234" lon="-6.662525177001953">
        <ele>480.0</ele>
        <time>2019-04-23T07:37:56.000Z</time>
      </trkpt>
      <trkpt lat="42.515228271484375" lon="-6.6625752449035645">
        <ele>482.0</ele>
        <time>2019-04-23T07:38:10.000Z</time>
      </trkpt>
      <trkpt lat="42.51521301269531" lon="-6.662607669830322">
        <ele>482.0</ele>
        <time>2019-04-23T07:38:11.000Z</time>
      </trkpt>
      <trkpt lat="42.515018463134766" lon="-6.663003921508789">
        <ele>483.0</ele>
        <time>2019-04-23T07:38:26.000Z</time>
      </trkpt>
      <trkpt lat="42.514869689941406" lon="-6.663421630859375">
        <ele>488.0</ele>
        <time>2019-04-23T07:38:56.000Z</time>
      </trkpt>
      <trkpt lat="42.51482391357422" lon="-6.6636271476745605">
        <ele>489.0</ele>
        <time>2019-04-23T07:39:17.000Z</time>
      </trkpt>
      <trkpt lat="42.514793395996094" lon="-6.663688659667969">
        <ele>489.0</ele>
        <time>2019-04-23T07:39:53.000Z</time>
      </trkpt>
      <trkpt lat="42.514774322509766" lon="-6.663725852966309">
        <ele>489.0</ele>
        <time>2019-04-23T07:39:54.000Z</time>
      </trkpt>
      <trkpt lat="42.5147705078125" lon="-6.663735389709473">
        <ele>489.0</ele>
        <time>2019-04-23T07:39:55.000Z</time>
      </trkpt>
      <trkpt lat="42.51470947265625" lon="-6.663832664489746">
        <ele>489.0</ele>
        <time>2019-04-23T07:40:03.000Z</time>
      </trkpt>
      <trkpt lat="42.51468276977539" lon="-6.663874626159668">
        <ele>489.0</ele>
        <time>2019-04-23T07:40:04.000Z</time>
      </trkpt>
      <trkpt lat="42.51445770263672" lon="-6.664228916168213">
        <ele>490.0</ele>
        <time>2019-04-23T07:40:20.000Z</time>
      </trkpt>
      <trkpt lat="42.514225006103516" lon="-6.6645660400390625">
        <ele>490.0</ele>
        <time>2019-04-23T07:40:50.000Z</time>
      </trkpt>
      <trkpt lat="42.51396942138672" lon="-6.664898872375488">
        <ele>489.0</ele>
        <time>2019-04-23T07:41:22.000Z</time>
      </trkpt>
      <trkpt lat="42.51374053955078" lon="-6.665198802947998">
        <ele>487.0</ele>
        <time>2019-04-23T07:41:53.000Z</time>
      </trkpt>
      <trkpt lat="42.51369094848633" lon="-6.665257453918457">
        <ele>486.0</ele>
        <time>2019-04-23T07:42:07.000Z</time>
      </trkpt>
      <trkpt lat="42.51366424560547" lon="-6.665287971496582">
        <ele>486.0</ele>
        <time>2019-04-23T07:42:08.000Z</time>
      </trkpt>
      <trkpt lat="42.51344299316406" lon="-6.665641784667969">
        <ele>486.0</ele>
        <time>2019-04-23T07:42:33.000Z</time>
      </trkpt>
      <trkpt lat="42.513214111328125" lon="-6.66600227355957">
        <ele>485.0</ele>
        <time>2019-04-23T07:43:02.000Z</time>
      </trkpt>
      <trkpt lat="42.51296615600586" lon="-6.666314125061035">
        <ele>484.0</ele>
        <time>2019-04-23T07:43:33.000Z</time>
      </trkpt>
      <trkpt lat="42.51285171508789" lon="-6.666573524475098">
        <ele>483.0</ele>
        <time>2019-04-23T07:43:53.000Z</time>
      </trkpt>
      <trkpt lat="42.51279067993164" lon="-6.666625022888184">
        <ele>483.0</ele>
        <time>2019-04-23T07:43:58.000Z</time>
      </trkpt>
      <trkpt lat="42.512733459472656" lon="-6.666639804840088">
        <ele>482.0</ele>
        <time>2019-04-23T07:44:02.000Z</time>
      </trkpt>
      <trkpt lat="42.51268005371094" lon="-6.666688442230225">
        <ele>482.0</ele>
        <time>2019-04-23T07:44:09.000Z</time>
      </trkpt>
      <trkpt lat="42.51261520385742" lon="-6.666749954223633">
        <ele>483.0</ele>
        <time>2019-04-23T07:44:16.000Z</time>
      </trkpt>
      <trkpt lat="42.51254653930664" lon="-6.666821002960205">
        <ele>483.0</ele>
        <time>2019-04-23T07:44:22.000Z</time>
      </trkpt>
      <trkpt lat="42.512474060058594" lon="-6.666895866394043">
        <ele>484.0</ele>
        <time>2019-04-23T07:44:29.000Z</time>
      </trkpt>
      <trkpt lat="42.5124397277832" lon="-6.666925430297852">
        <ele>484.0</ele>
        <time>2019-04-23T07:44:32.000Z</time>
      </trkpt>
      <trkpt lat="42.51242446899414" lon="-6.666940689086914">
        <ele>485.0</ele>
        <time>2019-04-23T07:44:36.000Z</time>
      </trkpt>
      <trkpt lat="42.512413024902344" lon="-6.6669464111328125">
        <ele>486.0</ele>
        <time>2019-04-23T07:44:39.000Z</time>
      </trkpt>
      <trkpt lat="42.51240921020508" lon="-6.666946887969971">
        <ele>487.0</ele>
        <time>2019-04-23T07:44:42.000Z</time>
      </trkpt>
      <trkpt lat="42.51240158081055" lon="-6.66695499420166">
        <ele>488.0</ele>
        <time>2019-04-23T07:44:42.000Z</time>
      </trkpt>
      <trkpt lat="42.512393951416016" lon="-6.666961193084717">
        <ele>488.0</ele>
        <time>2019-04-23T07:44:43.000Z</time>
      </trkpt>
      <trkpt lat="42.512386322021484" lon="-6.666966438293457">
        <ele>487.0</ele>
        <time>2019-04-23T07:44:43.000Z</time>
      </trkpt>
      <trkpt lat="42.51238250732422" lon="-6.666970729827881">
        <ele>487.0</ele>
        <time>2019-04-23T07:44:43.000Z</time>
      </trkpt>
      <trkpt lat="42.51233673095703" lon="-6.667008876800537">
        <ele>488.0</ele>
        <time>2019-04-23T07:44:47.000Z</time>
      </trkpt>
      <trkpt lat="42.51227569580078" lon="-6.667060852050781">
        <ele>488.0</ele>
        <time>2019-04-23T07:44:51.000Z</time>
      </trkpt>
      <trkpt lat="42.512203216552734" lon="-6.667121410369873">
        <ele>488.0</ele>
        <time>2019-04-23T07:44:54.000Z</time>
      </trkpt>
      <trkpt lat="42.51212692260742" lon="-6.667186737060547">
        <ele>489.0</ele>
        <time>2019-04-23T07:44:58.000Z</time>
      </trkpt>
      <trkpt lat="42.51210403442383" lon="-6.6672234535217285">
        <ele>489.0</ele>
        <time>2019-04-23T07:45:01.000Z</time>
      </trkpt>
      <trkpt lat="42.51210021972656" lon="-6.667253494262695">
        <ele>489.0</ele>
        <time>2019-04-23T07:45:04.000Z</time>
      </trkpt>
      <trkpt lat="42.51210403442383" lon="-6.667278289794922">
        <ele>489.0</ele>
        <time>2019-04-23T07:45:06.000Z</time>
      </trkpt>
      <trkpt lat="42.51211929321289" lon="-6.667301177978516">
        <ele>489.0</ele>
        <time>2019-04-23T07:45:09.000Z</time>
      </trkpt>
      <trkpt lat="42.51206588745117" lon="-6.667351245880127">
        <ele>489.0</ele>
        <time>2019-04-23T07:45:17.000Z</time>
      </trkpt>
      <trkpt lat="42.51199722290039" lon="-6.667410850524902">
        <ele>490.0</ele>
        <time>2019-04-23T07:45:26.000Z</time>
      </trkpt>
      <trkpt lat="42.51190948486328" lon="-6.667476177215576">
        <ele>490.0</ele>
        <time>2019-04-23T07:45:34.000Z</time>
      </trkpt>
      <trkpt lat="42.511817932128906" lon="-6.667544841766357">
        <ele>490.0</ele>
        <time>2019-04-23T07:45:42.000Z</time>
      </trkpt>
      <trkpt lat="42.511756896972656" lon="-6.66757869720459">
        <ele>490.0</ele>
        <time>2019-04-23T07:45:46.000Z</time>
      </trkpt>
      <trkpt lat="42.51169967651367" lon="-6.667602062225342">
        <ele>491.0</ele>
        <time>2019-04-23T07:45:49.000Z</time>
      </trkpt>
      <trkpt lat="42.51164627075195" lon="-6.667617321014404">
        <ele>491.0</ele>
        <time>2019-04-23T07:45:53.000Z</time>
      </trkpt>
      <trkpt lat="42.511592864990234" lon="-6.667629241943359">
        <ele>491.0</ele>
        <time>2019-04-23T07:45:56.000Z</time>
      </trkpt>
      <trkpt lat="42.51154327392578" lon="-6.66768741607666">
        <ele>491.0</ele>
        <time>2019-04-23T07:46:03.000Z</time>
      </trkpt>
      <trkpt lat="42.51152420043945" lon="-6.667752742767334">
        <ele>491.0</ele>
        <time>2019-04-23T07:46:09.000Z</time>
      </trkpt>
      <trkpt lat="42.51142501831055" lon="-6.6678314208984375">
        <ele>492.0</ele>
        <time>2019-04-23T07:46:18.000Z</time>
      </trkpt>
      <trkpt lat="42.51129913330078" lon="-6.6679182052612305">
        <ele>494.0</ele>
        <time>2019-04-23T07:46:27.000Z</time>
      </trkpt>
      <trkpt lat="42.511253356933594" lon="-6.667994976043701">
        <ele>494.0</ele>
        <time>2019-04-23T07:46:34.000Z</time>
      </trkpt>
      <trkpt lat="42.5112419128418" lon="-6.668069839477539">
        <ele>494.0</ele>
        <time>2019-04-23T07:46:40.000Z</time>
      </trkpt>
      <trkpt lat="42.51111602783203" lon="-6.668187618255615">
        <ele>495.0</ele>
        <time>2019-04-23T07:46:53.000Z</time>
      </trkpt>
      <trkpt lat="42.510948181152344" lon="-6.668324947357178">
        <ele>495.0</ele>
        <time>2019-04-23T07:47:05.000Z</time>
      </trkpt>
      <trkpt lat="42.51087951660156" lon="-6.668400764465332">
        <ele>495.0</ele>
        <time>2019-04-23T07:47:13.000Z</time>
      </trkpt>
      <trkpt lat="42.51081466674805" lon="-6.668481349945068">
        <ele>496.0</ele>
        <time>2019-04-23T07:47:21.000Z</time>
      </trkpt>
      <trkpt lat="42.51074981689453" lon="-6.668565273284912">
        <ele>496.0</ele>
        <time>2019-04-23T07:47:28.000Z</time>
      </trkpt>
      <trkpt lat="42.51068878173828" lon="-6.6686506271362305">
        <ele>496.0</ele>
        <time>2019-04-23T07:47:36.000Z</time>
      </trkpt>
      <trkpt lat="42.51062774658203" lon="-6.668737888336182">
        <ele>496.0</ele>
        <time>2019-04-23T07:47:45.000Z</time>
      </trkpt>
      <trkpt lat="42.51057434082031" lon="-6.668827056884766">
        <ele>497.0</ele>
        <time>2019-04-23T07:47:54.000Z</time>
      </trkpt>
      <trkpt lat="42.510520935058594" lon="-6.668918132781982">
        <ele>497.0</ele>
        <time>2019-04-23T07:48:03.000Z</time>
      </trkpt>
      <trkpt lat="42.510467529296875" lon="-6.669009685516357">
        <ele>498.0</ele>
        <time>2019-04-23T07:48:12.000Z</time>
      </trkpt>
      <trkpt lat="42.51042175292969" lon="-6.669081687927246">
        <ele>498.0</ele>
        <time>2019-04-23T07:48:18.000Z</time>
      </trkpt>
      <trkpt lat="42.5103759765625" lon="-6.6691460609436035">
        <ele>499.0</ele>
        <time>2019-04-23T07:48:23.000Z</time>
      </trkpt>
      <trkpt lat="42.51033020019531" lon="-6.669206142425537">
        <ele>499.0</ele>
        <time>2019-04-23T07:48:29.000Z</time>
      </trkpt>
      <trkpt lat="42.51028823852539" lon="-6.6692633628845215">
        <ele>500.0</ele>
        <time>2019-04-23T07:48:34.000Z</time>
      </trkpt>
      <trkpt lat="42.510292053222656" lon="-6.669320106506348">
        <ele>500.0</ele>
        <time>2019-04-23T07:48:38.000Z</time>
      </trkpt>
      <trkpt lat="42.510318756103516" lon="-6.669373989105225">
        <ele>502.0</ele>
        <time>2019-04-23T07:48:43.000Z</time>
      </trkpt>
      <trkpt lat="42.51035690307617" lon="-6.669425964355469">
        <ele>503.0</ele>
        <time>2019-04-23T07:48:47.000Z</time>
      </trkpt>
      <trkpt lat="42.51040267944336" lon="-6.6694769859313965">
        <ele>504.0</ele>
        <time>2019-04-23T07:48:51.000Z</time>
      </trkpt>
      <trkpt lat="42.51041030883789" lon="-6.669500827789307">
        <ele>505.0</ele>
        <time>2019-04-23T07:48:53.000Z</time>
      </trkpt>
      <trkpt lat="42.51039505004883" lon="-6.669485569000244">
        <ele>505.0</ele>
        <time>2019-04-23T07:48:54.000Z</time>
      </trkpt>
      <trkpt lat="42.51039505004883" lon="-6.6695051193237305">
        <ele>503.0</ele>
        <time>2019-04-23T07:49:13.000Z</time>
      </trkpt>
      <trkpt lat="42.51039505004883" lon="-6.669531345367432">
        <ele>500.0</ele>
        <time>2019-04-23T07:49:32.000Z</time>
      </trkpt>
      <trkpt lat="42.51039123535156" lon="-6.6695404052734375">
        <ele>500.0</ele>
        <time>2019-04-23T07:49:32.000Z</time>
      </trkpt>
      <trkpt lat="42.51039123535156" lon="-6.669548988342285">
        <ele>500.0</ele>
        <time>2019-04-23T07:49:33.000Z</time>
      </trkpt>
      <trkpt lat="42.51039123535156" lon="-6.669557094573975">
        <ele>500.0</ele>
        <time>2019-04-23T07:49:33.000Z</time>
      </trkpt>
      <trkpt lat="42.51039123535156" lon="-6.669564723968506">
        <ele>500.0</ele>
        <time>2019-04-23T07:49:33.000Z</time>
      </trkpt>
      <trkpt lat="42.51039123535156" lon="-6.669599533081055">
        <ele>500.0</ele>
        <time>2019-04-23T07:49:34.000Z</time>
      </trkpt>
      <trkpt lat="42.5103874206543" lon="-6.669644832611084">
        <ele>500.0</ele>
        <time>2019-04-23T07:49:35.000Z</time>
      </trkpt>
      <trkpt lat="42.51038360595703" lon="-6.6696977615356445">
        <ele>500.0</ele>
        <time>2019-04-23T07:49:36.000Z</time>
      </trkpt>
      <trkpt lat="42.510379791259766" lon="-6.6697540283203125">
        <ele>499.0</ele>
        <time>2019-04-23T07:49:37.000Z</time>
      </trkpt>
      <trkpt lat="42.510353088378906" lon="-6.669800758361816">
        <ele>499.0</ele>
        <time>2019-04-23T07:49:39.000Z</time>
      </trkpt>
      <trkpt lat="42.510318756103516" lon="-6.66984748840332">
        <ele>498.0</ele>
        <time>2019-04-23T07:49:41.000Z</time>
      </trkpt>
      <trkpt lat="42.510276794433594" lon="-6.669893741607666">
        <ele>498.0</ele>
        <time>2019-04-23T07:49:42.000Z</time>
      </trkpt>
      <trkpt lat="42.51022720336914" lon="-6.669939994812012">
        <ele>497.0</ele>
        <time>2019-04-23T07:49:44.000Z</time>
      </trkpt>
      <trkpt lat="42.51020431518555" lon="-6.669978618621826">
        <ele>497.0</ele>
        <time>2019-04-23T07:49:46.000Z</time>
      </trkpt>
      <trkpt lat="42.51018524169922" lon="-6.670013904571533">
        <ele>497.0</ele>
        <time>2019-04-23T07:49:47.000Z</time>
      </trkpt>
      <trkpt lat="42.51017379760742" lon="-6.670047283172607">
        <ele>496.0</ele>
        <time>2019-04-23T07:49:49.000Z</time>
      </trkpt>
      <trkpt lat="42.510162353515625" lon="-6.670079231262207">
        <ele>496.0</ele>
        <time>2019-04-23T07:49:50.000Z</time>
      </trkpt>
      <trkpt lat="42.51017379760742" lon="-6.670094013214111">
        <ele>496.0</ele>
        <time>2019-04-23T07:49:51.000Z</time>
      </trkpt>
      <trkpt lat="42.510196685791016" lon="-6.670101165771484">
        <ele>495.0</ele>
        <time>2019-04-23T07:49:53.000Z</time>
      </trkpt>
      <trkpt lat="42.51022720336914" lon="-6.670103073120117">
        <ele>495.0</ele>
        <time>2019-04-23T07:49:54.000Z</time>
      </trkpt>
      <trkpt lat="42.5102653503418" lon="-6.670101642608643">
        <ele>495.0</ele>
        <time>2019-04-23T07:49:55.000Z</time>
      </trkpt>
      <trkpt lat="42.51023864746094" lon="-6.670149326324463">
        <ele>495.0</ele>
        <time>2019-04-23T07:50:02.000Z</time>
      </trkpt>
      <trkpt lat="42.510196685791016" lon="-6.6702141761779785">
        <ele>496.0</ele>
        <time>2019-04-23T07:50:09.000Z</time>
      </trkpt>
      <trkpt lat="42.510135650634766" lon="-6.670290946960449">
        <ele>496.0</ele>
        <time>2019-04-23T07:50:15.000Z</time>
      </trkpt>
      <trkpt lat="42.51007080078125" lon="-6.670373439788818">
        <ele>496.0</ele>
        <time>2019-04-23T07:50:22.000Z</time>
      </trkpt>
      <trkpt lat="42.510040283203125" lon="-6.670422554016113">
        <ele>497.0</ele>
        <time>2019-04-23T07:50:26.000Z</time>
      </trkpt>
      <trkpt lat="42.51001739501953" lon="-6.670463562011719">
        <ele>498.0</ele>
        <time>2019-04-23T07:50:30.000Z</time>
      </trkpt>
      <trkpt lat="42.5099983215332" lon="-6.670499324798584">
        <ele>499.0</ele>
        <time>2019-04-23T07:50:34.000Z</time>
      </trkpt>
      <trkpt lat="42.509979248046875" lon="-6.670532703399658">
        <ele>500.0</ele>
        <time>2019-04-23T07:50:38.000Z</time>
      </trkpt>
      <trkpt lat="42.509883880615234" lon="-6.670586109161377">
        <ele>501.0</ele>
        <time>2019-04-23T07:50:45.000Z</time>
      </trkpt>
      <trkpt lat="42.509765625" lon="-6.670627117156982">
        <ele>501.0</ele>
        <time>2019-04-23T07:50:52.000Z</time>
      </trkpt>
      <trkpt lat="42.509700775146484" lon="-6.670680522918701">
        <ele>501.0</ele>
        <time>2019-04-23T07:50:57.000Z</time>
      </trkpt>
      <trkpt lat="42.5096321105957" lon="-6.670746803283691">
        <ele>501.0</ele>
        <time>2019-04-23T07:51:03.000Z</time>
      </trkpt>
      <trkpt lat="42.509559631347656" lon="-6.670821189880371">
        <ele>501.0</ele>
        <time>2019-04-23T07:51:08.000Z</time>
      </trkpt>
      <trkpt lat="42.509483337402344" lon="-6.670899868011475">
        <ele>501.0</ele>
        <time>2019-04-23T07:51:13.000Z</time>
      </trkpt>
      <trkpt lat="42.50941848754883" lon="-6.6709818840026855">
        <ele>501.0</ele>
        <time>2019-04-23T07:51:22.000Z</time>
      </trkpt>
      <trkpt lat="42.50935745239258" lon="-6.671069622039795">
        <ele>502.0</ele>
        <time>2019-04-23T07:51:31.000Z</time>
      </trkpt>
      <trkpt lat="42.509300231933594" lon="-6.67116117477417">
        <ele>503.0</ele>
        <time>2019-04-23T07:51:39.000Z</time>
      </trkpt>
      <trkpt lat="42.50924301147461" lon="-6.671254634857178">
        <ele>504.0</ele>
        <time>2019-04-23T07:51:48.000Z</time>
      </trkpt>
      <trkpt lat="42.50921630859375" lon="-6.671306610107422">
        <ele>505.0</ele>
        <time>2019-04-23T07:51:52.000Z</time>
      </trkpt>
      <trkpt lat="42.50920104980469" lon="-6.671342849731445">
        <ele>506.0</ele>
        <time>2019-04-23T07:51:57.000Z</time>
      </trkpt>
      <trkpt lat="42.509193420410156" lon="-6.671368598937988">
        <ele>507.0</ele>
        <time>2019-04-23T07:52:01.000Z</time>
      </trkpt>
      <trkpt lat="42.509193420410156" lon="-6.671389102935791">
        <ele>508.0</ele>
        <time>2019-04-23T07:52:05.000Z</time>
      </trkpt>
      <trkpt lat="42.5091667175293" lon="-6.671418190002441">
        <ele>508.0</ele>
        <time>2019-04-23T07:52:14.000Z</time>
      </trkpt>
      <trkpt lat="42.50913619995117" lon="-6.671429634094238">
        <ele>508.0</ele>
        <time>2019-04-23T07:52:22.000Z</time>
      </trkpt>
      <trkpt lat="42.50912857055664" lon="-6.671436786651611">
        <ele>508.0</ele>
        <time>2019-04-23T07:52:22.000Z</time>
      </trkpt>
      <trkpt lat="42.50912094116211" lon="-6.671442031860352">
        <ele>508.0</ele>
        <time>2019-04-23T07:52:23.000Z</time>
      </trkpt>
      <trkpt lat="42.50911331176758" lon="-6.671446800231934">
        <ele>508.0</ele>
        <time>2019-04-23T07:52:23.000Z</time>
      </trkpt>
      <trkpt lat="42.50910949707031" lon="-6.671451091766357">
        <ele>508.0</ele>
        <time>2019-04-23T07:52:23.000Z</time>
      </trkpt>
      <trkpt lat="42.50908279418945" lon="-6.671470642089844">
        <ele>508.0</ele>
        <time>2019-04-23T07:52:24.000Z</time>
      </trkpt>
      <trkpt lat="42.50905227661133" lon="-6.671496868133545">
        <ele>508.0</ele>
        <time>2019-04-23T07:52:26.000Z</time>
      </trkpt>
      <trkpt lat="42.50901794433594" lon="-6.671526908874512">
        <ele>508.0</ele>
        <time>2019-04-23T07:52:27.000Z</time>
      </trkpt>
      <trkpt lat="42.50897979736328" lon="-6.671558856964111">
        <ele>508.0</ele>
        <time>2019-04-23T07:52:28.000Z</time>
      </trkpt>
      <trkpt lat="42.508975982666016" lon="-6.671595573425293">
        <ele>508.0</ele>
        <time>2019-04-23T07:52:30.000Z</time>
      </trkpt>
      <trkpt lat="42.50898361206055" lon="-6.67163610458374">
        <ele>509.0</ele>
        <time>2019-04-23T07:52:32.000Z</time>
      </trkpt>
      <trkpt lat="42.50899887084961" lon="-6.671679496765137">
        <ele>509.0</ele>
        <time>2019-04-23T07:52:34.000Z</time>
      </trkpt>
      <trkpt lat="42.5090217590332" lon="-6.671724319458008">
        <ele>510.0</ele>
        <time>2019-04-23T07:52:36.000Z</time>
      </trkpt>
      <trkpt lat="42.509033203125" lon="-6.671747207641602">
        <ele>510.0</ele>
        <time>2019-04-23T07:52:38.000Z</time>
      </trkpt>
      <trkpt lat="42.50904846191406" lon="-6.671761989593506">
        <ele>509.0</ele>
        <time>2019-04-23T07:52:39.000Z</time>
      </trkpt>
      <trkpt lat="42.50906753540039" lon="-6.671772003173828">
        <ele>509.0</ele>
        <time>2019-04-23T07:52:41.000Z</time>
      </trkpt>
      <trkpt lat="42.50908279418945" lon="-6.671779632568359">
        <ele>509.0</ele>
        <time>2019-04-23T07:52:42.000Z</time>
      </trkpt>
      <trkpt lat="42.509090423583984" lon="-6.67180871963501">
        <ele>509.0</ele>
        <time>2019-04-23T07:52:45.000Z</time>
      </trkpt>
      <trkpt lat="42.509090423583984" lon="-6.671844005584717">
        <ele>509.0</ele>
        <time>2019-04-23T07:52:48.000Z</time>
      </trkpt>
      <trkpt lat="42.50908660888672" lon="-6.671883583068848">
        <ele>509.0</ele>
        <time>2019-04-23T07:52:50.000Z</time>
      </trkpt>
      <trkpt lat="42.50908279418945" lon="-6.6719255447387695">
        <ele>509.0</ele>
        <time>2019-04-23T07:52:53.000Z</time>
      </trkpt>
      <trkpt lat="42.50906753540039" lon="-6.671994209289551">
        <ele>509.0</ele>
        <time>2019-04-23T07:53:00.000Z</time>
      </trkpt>
      <trkpt lat="42.5090446472168" lon="-6.672076225280762">
        <ele>509.0</ele>
        <time>2019-04-23T07:53:07.000Z</time>
      </trkpt>
      <trkpt lat="42.50901794433594" lon="-6.672167778015137">
        <ele>509.0</ele>
        <time>2019-04-23T07:53:14.000Z</time>
      </trkpt>
      <trkpt lat="42.50899124145508" lon="-6.672263145446777">
        <ele>509.0</ele>
        <time>2019-04-23T07:53:21.000Z</time>
      </trkpt>
      <trkpt lat="42.508968353271484" lon="-6.672301769256592">
        <ele>509.0</ele>
        <time>2019-04-23T07:53:23.000Z</time>
      </trkpt>
      <trkpt lat="42.50894546508789" lon="-6.672321319580078">
        <ele>509.0</ele>
        <time>2019-04-23T07:53:25.000Z</time>
      </trkpt>
      <trkpt lat="42.5089225769043" lon="-6.672327995300293">
        <ele>509.0</ele>
        <time>2019-04-23T07:53:27.000Z</time>
      </trkpt>
      <trkpt lat="42.50890350341797" lon="-6.672328472137451">
        <ele>509.0</ele>
        <time>2019-04-23T07:53:29.000Z</time>
      </trkpt>
      <trkpt lat="42.50889587402344" lon="-6.672334671020508">
        <ele>509.0</ele>
        <time>2019-04-23T07:53:29.000Z</time>
      </trkpt>
      <trkpt lat="42.50889205932617" lon="-6.672336101531982">
        <ele>509.0</ele>
        <time>2019-04-23T07:53:30.000Z</time>
      </trkpt>
      <trkpt lat="42.50889587402344" lon="-6.672335147857666">
        <ele>509.0</ele>
        <time>2019-04-23T07:53:30.000Z</time>
      </trkpt>
      <trkpt lat="42.5088996887207" lon="-6.672332286834717">
        <ele>509.0</ele>
        <time>2019-04-23T07:53:30.000Z</time>
      </trkpt>
      <trkpt lat="42.50889205932617" lon="-6.672343730926514">
        <ele>509.0</ele>
        <time>2019-04-23T07:53:36.000Z</time>
      </trkpt>
      <trkpt lat="42.508880615234375" lon="-6.672358989715576">
        <ele>510.0</ele>
        <time>2019-04-23T07:53:42.000Z</time>
      </trkpt>
      <trkpt lat="42.50886535644531" lon="-6.672377586364746">
        <ele>510.0</ele>
        <time>2019-04-23T07:53:48.000Z</time>
      </trkpt>
      <trkpt lat="42.508853912353516" lon="-6.672397136688232">
        <ele>510.0</ele>
        <time>2019-04-23T07:53:54.000Z</time>
      </trkpt>
      <trkpt lat="42.508846282958984" lon="-6.672408103942871">
        <ele>510.0</ele>
        <time>2019-04-23T07:53:54.000Z</time>
      </trkpt>
      <trkpt lat="42.50883865356445" lon="-6.672416687011719">
        <ele>510.0</ele>
        <time>2019-04-23T07:53:55.000Z</time>
      </trkpt>
      <trkpt lat="42.50883483886719" lon="-6.672423839569092">
        <ele>510.0</ele>
        <time>2019-04-23T07:53:55.000Z</time>
      </trkpt>
      <trkpt lat="42.508827209472656" lon="-6.672430038452148">
        <ele>510.0</ele>
        <time>2019-04-23T07:53:55.000Z</time>
      </trkpt>
      <trkpt lat="42.508819580078125" lon="-6.6724772453308105">
        <ele>509.0</ele>
        <time>2019-04-23T07:53:59.000Z</time>
      </trkpt>
      <trkpt lat="42.50880813598633" lon="-6.672538757324219">
        <ele>509.0</ele>
        <time>2019-04-23T07:54:03.000Z</time>
      </trkpt>
      <trkpt lat="42.50881576538086" lon="-6.672552108764648">
        <ele>509.0</ele>
        <time>2019-04-23T07:54:08.000Z</time>
      </trkpt>
      <trkpt lat="42.508827209472656" lon="-6.672558784484863">
        <ele>509.0</ele>
        <time>2019-04-23T07:54:13.000Z</time>
      </trkpt>
      <trkpt lat="42.50884246826172" lon="-6.6725616455078125">
        <ele>509.0</ele>
        <time>2019-04-23T07:54:18.000Z</time>
      </trkpt>
      <trkpt lat="42.50885772705078" lon="-6.672562599182129">
        <ele>510.0</ele>
        <time>2019-04-23T07:54:23.000Z</time>
      </trkpt>
      <trkpt lat="42.50886917114258" lon="-6.672567367553711">
        <ele>510.0</ele>
        <time>2019-04-23T07:54:23.000Z</time>
      </trkpt>
      <trkpt lat="42.50887680053711" lon="-6.672570705413818">
        <ele>510.0</ele>
        <time>2019-04-23T07:54:24.000Z</time>
      </trkpt>
      <trkpt lat="42.50888442993164" lon="-6.672574043273926">
        <ele>510.0</ele>
        <time>2019-04-23T07:54:24.000Z</time>
      </trkpt>
      <trkpt lat="42.508888244628906" lon="-6.672576904296875">
        <ele>510.0</ele>
        <time>2019-04-23T07:54:24.000Z</time>
      </trkpt>
      <trkpt lat="42.508914947509766" lon="-6.6725850105285645">
        <ele>510.0</ele>
        <time>2019-04-23T07:54:26.000Z</time>
      </trkpt>
      <trkpt lat="42.50895309448242" lon="-6.6725945472717285">
        <ele>510.0</ele>
        <time>2019-04-23T07:54:28.000Z</time>
      </trkpt>
      <trkpt lat="42.508995056152344" lon="-6.672605037689209">
        <ele>510.0</ele>
        <time>2019-04-23T07:54:29.000Z</time>
      </trkpt>
      <trkpt lat="42.509037017822266" lon="-6.672616481781006">
        <ele>511.0</ele>
        <time>2019-04-23T07:54:31.000Z</time>
      </trkpt>
      <trkpt lat="42.50909423828125" lon="-6.672601222991943">
        <ele>511.0</ele>
        <time>2019-04-23T07:55:08.000Z</time>
      </trkpt>
      <trkpt lat="42.5091438293457" lon="-6.672569274902344">
        <ele>512.0</ele>
        <time>2019-04-23T07:55:45.000Z</time>
      </trkpt>
      <trkpt lat="42.509159088134766" lon="-6.672563076019287">
        <ele>512.0</ele>
        <time>2019-04-23T07:55:45.000Z</time>
      </trkpt>
      <trkpt lat="42.5091667175293" lon="-6.6725592613220215">
        <ele>512.0</ele>
        <time>2019-04-23T07:55:46.000Z</time>
      </trkpt>
      <trkpt lat="42.50917434692383" lon="-6.672556400299072">
        <ele>512.0</ele>
        <time>2019-04-23T07:55:46.000Z</time>
      </trkpt>
      <trkpt lat="42.509178161621094" lon="-6.6725544929504395">
        <ele>512.0</ele>
        <time>2019-04-23T07:55:46.000Z</time>
      </trkpt>
      <trkpt lat="42.50920486450195" lon="-6.67254114151001">
        <ele>512.0</ele>
        <time>2019-04-23T07:55:49.000Z</time>
      </trkpt>
      <trkpt lat="42.50924301147461" lon="-6.672523021697998">
        <ele>512.0</ele>
        <time>2019-04-23T07:55:52.000Z</time>
      </trkpt>
      <trkpt lat="42.50928497314453" lon="-6.672502517700195">
        <ele>511.0</ele>
        <time>2019-04-23T07:55:54.000Z</time>
      </trkpt>
      <trkpt lat="42.50933074951172" lon="-6.672480583190918">
        <ele>511.0</ele>
        <time>2019-04-23T07:55:57.000Z</time>
      </trkpt>
      <trkpt lat="42.509422302246094" lon="-6.672495365142822">
        <ele>510.0</ele>
        <time>2019-04-23T07:56:06.000Z</time>
      </trkpt>
      <trkpt lat="42.509521484375" lon="-6.672534465789795">
        <ele>510.0</ele>
        <time>2019-04-23T07:56:15.000Z</time>
      </trkpt>
      <trkpt lat="42.50956726074219" lon="-6.672551155090332">
        <ele>510.0</ele>
        <time>2019-04-23T07:56:22.000Z</time>
      </trkpt>
      <trkpt lat="42.50961685180664" lon="-6.6725687980651855">
        <ele>509.0</ele>
        <time>2019-04-23T07:56:30.000Z</time>
      </trkpt>
      <trkpt lat="42.50966262817383" lon="-6.672586917877197">
        <ele>509.0</ele>
        <time>2019-04-23T07:56:37.000Z</time>
      </trkpt>
      <trkpt lat="42.509708404541016" lon="-6.672605991363525">
        <ele>509.0</ele>
        <time>2019-04-23T07:56:44.000Z</time>
      </trkpt>
      <trkpt lat="42.509727478027344" lon="-6.672601222991943">
        <ele>508.0</ele>
        <time>2019-04-23T07:56:47.000Z</time>
      </trkpt>
      <trkpt lat="42.50973129272461" lon="-6.6725873947143555">
        <ele>507.0</ele>
        <time>2019-04-23T07:56:51.000Z</time>
      </trkpt>
      <trkpt lat="42.509727478027344" lon="-6.672567367553711">
        <ele>507.0</ele>
        <time>2019-04-23T07:56:54.000Z</time>
      </trkpt>
      <trkpt lat="42.50971603393555" lon="-6.672544002532959">
        <ele>506.0</ele>
        <time>2019-04-23T07:56:57.000Z</time>
      </trkpt>
      <trkpt lat="42.50972366333008" lon="-6.672543048858643">
        <ele>505.0</ele>
        <time>2019-04-23T07:57:00.000Z</time>
      </trkpt>
      <trkpt lat="42.509727478027344" lon="-6.672547817230225">
        <ele>505.0</ele>
        <time>2019-04-23T07:57:04.000Z</time>
      </trkpt>
      <trkpt lat="42.509735107421875" lon="-6.6725568771362305">
        <ele>504.0</ele>
        <time>2019-04-23T07:57:07.000Z</time>
      </trkpt>
      <trkpt lat="42.50974655151367" lon="-6.672567367553711">
        <ele>503.0</ele>
        <time>2019-04-23T07:57:10.000Z</time>
      </trkpt>
      <trkpt lat="42.50975036621094" lon="-6.672572612762451">
        <ele>503.0</ele>
        <time>2019-04-23T07:57:10.000Z</time>
      </trkpt>
      <trkpt lat="42.5097541809082" lon="-6.672576904296875">
        <ele>503.0</ele>
        <time>2019-04-23T07:57:11.000Z</time>
      </trkpt>
      <trkpt lat="42.509761810302734" lon="-6.672581195831299">
        <ele>503.0</ele>
        <time>2019-04-23T07:57:11.000Z</time>
      </trkpt>
      <trkpt lat="42.509765625" lon="-6.6725850105285645">
        <ele>503.0</ele>
        <time>2019-04-23T07:57:11.000Z</time>
      </trkpt>
      <trkpt lat="42.509822845458984" lon="-6.672598838806152">
        <ele>503.0</ele>
        <time>2019-04-23T07:57:13.000Z</time>
      </trkpt>
      <trkpt lat="42.5098991394043" lon="-6.672616958618164">
        <ele>503.0</ele>
        <time>2019-04-23T07:57:15.000Z</time>
      </trkpt>
      <trkpt lat="42.50999069213867" lon="-6.672637462615967">
        <ele>503.0</ele>
        <time>2019-04-23T07:57:16.000Z</time>
      </trkpt>
      <trkpt lat="42.51008987426758" lon="-6.672658920288086">
        <ele>503.0</ele>
        <time>2019-04-23T07:57:18.000Z</time>
      </trkpt>
      <trkpt lat="42.51013946533203" lon="-6.672665596008301">
        <ele>503.0</ele>
        <time>2019-04-23T07:57:19.000Z</time>
      </trkpt>
      <trkpt lat="42.510169982910156" lon="-6.672667026519775">
        <ele>503.0</ele>
        <time>2019-04-23T07:57:21.000Z</time>
      </trkpt>
      <trkpt lat="42.510189056396484" lon="-6.672665119171143">
        <ele>503.0</ele>
        <time>2019-04-23T07:57:22.000Z</time>
      </trkpt>
      <trkpt lat="42.51020812988281" lon="-6.672661781311035">
        <ele>503.0</ele>
        <time>2019-04-23T07:57:23.000Z</time>
      </trkpt>
      <trkpt lat="42.51021957397461" lon="-6.672677993774414">
        <ele>503.0</ele>
        <time>2019-04-23T07:57:27.000Z</time>
      </trkpt>
      <trkpt lat="42.51022720336914" lon="-6.672699928283691">
        <ele>503.0</ele>
        <time>2019-04-23T07:57:31.000Z</time>
      </trkpt>
      <trkpt lat="42.51022720336914" lon="-6.672726154327393">
        <ele>502.0</ele>
        <time>2019-04-23T07:57:35.000Z</time>
      </trkpt>
      <trkpt lat="42.51022720336914" lon="-6.672754764556885">
        <ele>502.0</ele>
        <time>2019-04-23T07:57:39.000Z</time>
      </trkpt>
      <trkpt lat="42.51023483276367" lon="-6.672765731811523">
        <ele>502.0</ele>
        <time>2019-04-23T07:57:43.000Z</time>
      </trkpt>
      <trkpt lat="42.51024627685547" lon="-6.67277193069458">
        <ele>502.0</ele>
        <time>2019-04-23T07:57:48.000Z</time>
      </trkpt>
      <trkpt lat="42.510257720947266" lon="-6.672774791717529">
        <ele>501.0</ele>
        <time>2019-04-23T07:57:52.000Z</time>
      </trkpt>
      <trkpt lat="42.5102653503418" lon="-6.6727752685546875">
        <ele>501.0</ele>
        <time>2019-04-23T07:57:56.000Z</time>
      </trkpt>
      <trkpt lat="42.51027297973633" lon="-6.672779560089111">
        <ele>501.0</ele>
        <time>2019-04-23T07:57:56.000Z</time>
      </trkpt>
      <trkpt lat="42.51028060913086" lon="-6.672783374786377">
        <ele>501.0</ele>
        <time>2019-04-23T07:57:57.000Z</time>
      </trkpt>
      <trkpt lat="42.51028823852539" lon="-6.672786235809326">
        <ele>501.0</ele>
        <time>2019-04-23T07:57:57.000Z</time>
      </trkpt>
      <trkpt lat="42.510292053222656" lon="-6.672789573669434">
        <ele>501.0</ele>
        <time>2019-04-23T07:57:57.000Z</time>
      </trkpt>
      <trkpt lat="42.51032638549805" lon="-6.672801971435547">
        <ele>501.0</ele>
        <time>2019-04-23T07:57:59.000Z</time>
      </trkpt>
      <trkpt lat="42.51036834716797" lon="-6.672818183898926">
        <ele>501.0</ele>
        <time>2019-04-23T07:58:01.000Z</time>
      </trkpt>
      <trkpt lat="42.51041793823242" lon="-6.672836780548096">
        <ele>501.0</ele>
        <time>2019-04-23T07:58:03.000Z</time>
      </trkpt>
      <trkpt lat="42.51047134399414" lon="-6.67285680770874">
        <ele>501.0</ele>
        <time>2019-04-23T07:58:05.000Z</time>
      </trkpt>
      <trkpt lat="42.5105094909668" lon="-6.67289400100708">
        <ele>500.0</ele>
        <time>2019-04-23T07:58:12.000Z</time>
      </trkpt>
      <trkpt lat="42.510520935058594" lon="-6.672932147979736">
        <ele>499.0</ele>
        <time>2019-04-23T07:58:18.000Z</time>
      </trkpt>
      <trkpt lat="42.51052474975586" lon="-6.672948360443115">
        <ele>499.0</ele>
        <time>2019-04-23T07:58:23.000Z</time>
      </trkpt>
      <trkpt lat="42.510520935058594" lon="-6.6729631423950195">
        <ele>498.0</ele>
        <time>2019-04-23T07:58:29.000Z</time>
      </trkpt>
      <trkpt lat="42.51051712036133" lon="-6.672976970672607">
        <ele>498.0</ele>
        <time>2019-04-23T07:58:34.000Z</time>
      </trkpt>
      <trkpt lat="42.51051330566406" lon="-6.672990798950195">
        <ele>497.0</ele>
        <time>2019-04-23T07:58:39.000Z</time>
      </trkpt>
      <trkpt lat="42.51051330566406" lon="-6.67300271987915">
        <ele>497.0</ele>
        <time>2019-04-23T07:58:39.000Z</time>
      </trkpt>
      <trkpt lat="42.5105094909668" lon="-6.673012733459473">
        <ele>497.0</ele>
        <time>2019-04-23T07:58:40.000Z</time>
      </trkpt>
      <trkpt lat="42.5105094909668" lon="-6.673022270202637">
        <ele>497.0</ele>
        <time>2019-04-23T07:58:40.000Z</time>
      </trkpt>
      <trkpt lat="42.5105094909668" lon="-6.673031330108643">
        <ele>497.0</ele>
        <time>2019-04-23T07:58:40.000Z</time>
      </trkpt>
      <trkpt lat="42.51051712036133" lon="-6.673110008239746">
        <ele>497.0</ele>
        <time>2019-04-23T07:58:45.000Z</time>
      </trkpt>
      <trkpt lat="42.51053237915039" lon="-6.673216819763184">
        <ele>496.0</ele>
        <time>2019-04-23T07:58:51.000Z</time>
      </trkpt>
      <trkpt lat="42.51054763793945" lon="-6.673343181610107">
        <ele>496.0</ele>
        <time>2019-04-23T07:58:56.000Z</time>
      </trkpt>
      <trkpt lat="42.51056671142578" lon="-6.673479080200195">
        <ele>496.0</ele>
        <time>2019-04-23T07:59:01.000Z</time>
      </trkpt>
      <trkpt lat="42.510581970214844" lon="-6.67353630065918">
        <ele>495.0</ele>
        <time>2019-04-23T07:59:03.000Z</time>
      </trkpt>
      <trkpt lat="42.510597229003906" lon="-6.67357063293457">
        <ele>494.0</ele>
        <time>2019-04-23T07:59:05.000Z</time>
      </trkpt>
      <trkpt lat="42.51061248779297" lon="-6.673589706420898">
        <ele>494.0</ele>
        <time>2019-04-23T07:59:06.000Z</time>
      </trkpt>
      <trkpt lat="42.51062774658203" lon="-6.673601150512695">
        <ele>493.0</ele>
        <time>2019-04-23T07:59:08.000Z</time>
      </trkpt>
      <trkpt lat="42.51060104370117" lon="-6.673650741577148">
        <ele>492.0</ele>
        <time>2019-04-23T07:59:12.000Z</time>
      </trkpt>
      <trkpt lat="42.510555267333984" lon="-6.673708915710449">
        <ele>490.0</ele>
        <time>2019-04-23T07:59:16.000Z</time>
      </trkpt>
      <trkpt lat="42.510498046875" lon="-6.673771858215332">
        <ele>488.0</ele>
        <time>2019-04-23T07:59:19.000Z</time>
      </trkpt>
      <trkpt lat="42.51043701171875" lon="-6.673838138580322">
        <ele>487.0</ele>
        <time>2019-04-23T07:59:23.000Z</time>
      </trkpt>
      <trkpt lat="42.510406494140625" lon="-6.673908233642578">
        <ele>486.0</ele>
        <time>2019-04-23T07:59:28.000Z</time>
      </trkpt>
      <trkpt lat="42.510406494140625" lon="-6.673956871032715">
        <ele>487.0</ele>
        <time>2019-04-23T07:59:33.000Z</time>
      </trkpt>
      <trkpt lat="42.510414123535156" lon="-6.673974514007568">
        <ele>487.0</ele>
        <time>2019-04-23T07:59:37.000Z</time>
      </trkpt>
      <trkpt lat="42.510433197021484" lon="-6.673986911773682">
        <ele>487.0</ele>
        <time>2019-04-23T07:59:40.000Z</time>
      </trkpt>
      <trkpt lat="42.510459899902344" lon="-6.673996448516846">
        <ele>487.0</ele>
        <time>2019-04-23T07:59:44.000Z</time>
      </trkpt>
      <trkpt lat="42.5104866027832" lon="-6.674003601074219">
        <ele>487.0</ele>
        <time>2019-04-23T07:59:48.000Z</time>
      </trkpt>
      <trkpt lat="42.510475158691406" lon="-6.674023628234863">
        <ele>487.0</ele>
        <time>2019-04-23T07:59:50.000Z</time>
      </trkpt>
      <trkpt lat="42.51045608520508" lon="-6.674046516418457">
        <ele>487.0</ele>
        <time>2019-04-23T07:59:52.000Z</time>
      </trkpt>
      <trkpt lat="42.51042556762695" lon="-6.674071788787842">
        <ele>487.0</ele>
        <time>2019-04-23T07:59:55.000Z</time>
      </trkpt>
      <trkpt lat="42.51039505004883" lon="-6.674098014831543">
        <ele>487.0</ele>
        <time>2019-04-23T07:59:57.000Z</time>
      </trkpt>
      <trkpt lat="42.510372161865234" lon="-6.674100399017334">
        <ele>486.0</ele>
        <time>2019-04-23T07:59:59.000Z</time>
      </trkpt>
      <trkpt lat="42.510353088378906" lon="-6.674093723297119">
        <ele>486.0</ele>
        <time>2019-04-23T08:00:01.000Z</time>
      </trkpt>
      <trkpt lat="42.51033401489258" lon="-6.674081325531006">
        <ele>486.0</ele>
        <time>2019-04-23T08:00:03.000Z</time>
      </trkpt>
      <trkpt lat="42.510311126708984" lon="-6.674065589904785">
        <ele>486.0</ele>
        <time>2019-04-23T08:00:05.000Z</time>
      </trkpt>
      <trkpt lat="42.510292053222656" lon="-6.674105167388916">
        <ele>485.0</ele>
        <time>2019-04-23T08:00:11.000Z</time>
      </trkpt>
      <trkpt lat="42.510276794433594" lon="-6.674164772033691">
        <ele>484.0</ele>
        <time>2019-04-23T08:00:17.000Z</time>
      </trkpt>
      <trkpt lat="42.510257720947266" lon="-6.674237251281738">
        <ele>484.0</ele>
        <time>2019-04-23T08:00:23.000Z</time>
      </trkpt>
      <trkpt lat="42.5102424621582" lon="-6.67431640625">
        <ele>483.0</ele>
        <time>2019-04-23T08:00:29.000Z</time>
      </trkpt>
      <trkpt lat="42.51022720336914" lon="-6.674337863922119">
        <ele>482.0</ele>
        <time>2019-04-23T08:00:43.000Z</time>
      </trkpt>
      <trkpt lat="42.510215759277344" lon="-6.674341678619385">
        <ele>481.0</ele>
        <time>2019-04-23T08:00:56.000Z</time>
      </trkpt>
      <trkpt lat="42.51020812988281" lon="-6.674334526062012">
        <ele>479.0</ele>
        <time>2019-04-23T08:01:10.000Z</time>
      </trkpt>
      <trkpt lat="42.510196685791016" lon="-6.674321174621582">
        <ele>478.0</ele>
        <time>2019-04-23T08:01:23.000Z</time>
      </trkpt>
      <trkpt lat="42.510189056396484" lon="-6.674322128295898">
        <ele>477.0</ele>
        <time>2019-04-23T08:01:23.000Z</time>
      </trkpt>
      <trkpt lat="42.51018142700195" lon="-6.674322605133057">
        <ele>477.0</ele>
        <time>2019-04-23T08:01:24.000Z</time>
      </trkpt>
      <trkpt lat="42.51017379760742" lon="-6.674323558807373">
        <ele>478.0</ele>
        <time>2019-04-23T08:01:24.000Z</time>
      </trkpt>
      <trkpt lat="42.51016616821289" lon="-6.674324035644531">
        <ele>478.0</ele>
        <time>2019-04-23T08:01:24.000Z</time>
      </trkpt>
      <trkpt lat="42.51013946533203" lon="-6.6743268966674805">
        <ele>478.0</ele>
        <time>2019-04-23T08:01:26.000Z</time>
      </trkpt>
      <trkpt lat="42.510101318359375" lon="-6.674330234527588">
        <ele>477.0</ele>
        <time>2019-04-23T08:01:27.000Z</time>
      </trkpt>
      <trkpt lat="42.51005935668945" lon="-6.674334526062012">
        <ele>477.0</ele>
        <time>2019-04-23T08:01:29.000Z</time>
      </trkpt>
      <trkpt lat="42.510013580322266" lon="-6.6743388175964355">
        <ele>477.0</ele>
        <time>2019-04-23T08:01:30.000Z</time>
      </trkpt>
      <trkpt lat="42.5099983215332" lon="-6.67434549331665">
        <ele>476.0</ele>
        <time>2019-04-23T08:01:32.000Z</time>
      </trkpt>
      <trkpt lat="42.50999450683594" lon="-6.674354076385498">
        <ele>476.0</ele>
        <time>2019-04-23T08:01:33.000Z</time>
      </trkpt>
      <trkpt lat="42.5099983215332" lon="-6.674363613128662">
        <ele>476.0</ele>
        <time>2019-04-23T08:01:35.000Z</time>
      </trkpt>
      <trkpt lat="42.510005950927734" lon="-6.674373626708984">
        <ele>476.0</ele>
        <time>2019-04-23T08:01:36.000Z</time>
      </trkpt>
      <trkpt lat="42.51000213623047" lon="-6.674376487731934">
        <ele>475.0</ele>
        <time>2019-04-23T08:01:39.000Z</time>
      </trkpt>
      <trkpt lat="42.5099983215332" lon="-6.67437744140625">
        <ele>475.0</ele>
        <time>2019-04-23T08:01:41.000Z</time>
      </trkpt>
      <trkpt lat="42.50999450683594" lon="-6.674376964569092">
        <ele>475.0</ele>
        <time>2019-04-23T08:01:44.000Z</time>
      </trkpt>
      <trkpt lat="42.509986877441406" lon="-6.674375534057617">
        <ele>475.0</ele>
        <time>2019-04-23T08:01:46.000Z</time>
      </trkpt>
      <trkpt lat="42.50998306274414" lon="-6.674376010894775">
        <ele>475.0</ele>
        <time>2019-04-23T08:01:46.000Z</time>
      </trkpt>
      <trkpt lat="42.509979248046875" lon="-6.674376487731934">
        <ele>475.0</ele>
        <time>2019-04-23T08:01:47.000Z</time>
      </trkpt>
      <trkpt lat="42.509979248046875" lon="-6.674376487731934">
        <ele>475.0</ele>
        <time>2019-04-23T08:01:47.000Z</time>
      </trkpt>
      <trkpt lat="42.50997543334961" lon="-6.674376964569092">
        <ele>475.0</ele>
        <time>2019-04-23T08:01:47.000Z</time>
      </trkpt>
      <trkpt lat="42.509910583496094" lon="-6.674373626708984">
        <ele>475.0</ele>
        <time>2019-04-23T08:01:51.000Z</time>
      </trkpt>
      <trkpt lat="42.50981903076172" lon="-6.674368858337402">
        <ele>475.0</ele>
        <time>2019-04-23T08:01:56.000Z</time>
      </trkpt>
      <trkpt lat="42.50971221923828" lon="-6.674362659454346">
        <ele>474.0</ele>
        <time>2019-04-23T08:02:00.000Z</time>
      </trkpt>
      <trkpt lat="42.50959777832031" lon="-6.674355983734131">
        <ele>474.0</ele>
        <time>2019-04-23T08:02:04.000Z</time>
      </trkpt>
      <trkpt lat="42.509544372558594" lon="-6.674346446990967">
        <ele>474.0</ele>
        <time>2019-04-23T08:02:06.000Z</time>
      </trkpt>
      <trkpt lat="42.50950622558594" lon="-6.674335479736328">
        <ele>474.0</ele>
        <time>2019-04-23T08:02:08.000Z</time>
      </trkpt>
      <trkpt lat="42.50947952270508" lon="-6.674323081970215">
        <ele>474.0</ele>
        <time>2019-04-23T08:02:10.000Z</time>
      </trkpt>
      <trkpt lat="42.509456634521484" lon="-6.674309730529785">
        <ele>474.0</ele>
        <time>2019-04-23T08:02:12.000Z</time>
      </trkpt>
      <trkpt lat="42.50942611694336" lon="-6.674365997314453">
        <ele>474.0</ele>
        <time>2019-04-23T08:02:18.000Z</time>
      </trkpt>
      <trkpt lat="42.509395599365234" lon="-6.674450397491455">
        <ele>475.0</ele>
        <time>2019-04-23T08:02:24.000Z</time>
      </trkpt>
      <trkpt lat="42.50936508178711" lon="-6.674553871154785">
        <ele>475.0</ele>
        <time>2019-04-23T08:02:29.000Z</time>
      </trkpt>
      <trkpt lat="42.50933837890625" lon="-6.674666404724121">
        <ele>476.0</ele>
        <time>2019-04-23T08:02:35.000Z</time>
      </trkpt>
      <trkpt lat="42.50934982299805" lon="-6.67476749420166">
        <ele>476.0</ele>
        <time>2019-04-23T08:02:45.000Z</time>
      </trkpt>
      <trkpt lat="42.50937271118164" lon="-6.674873352050781">
        <ele>476.0</ele>
        <time>2019-04-23T08:02:54.000Z</time>
      </trkpt>
      <trkpt lat="42.5094108581543" lon="-6.67498254776001">
        <ele>475.0</ele>
        <time>2019-04-23T08:03:04.000Z</time>
      </trkpt>
      <trkpt lat="42.50945281982422" lon="-6.675093650817871">
        <ele>475.0</ele>
        <time>2019-04-23T08:03:13.000Z</time>
      </trkpt>
      <trkpt lat="42.50947189331055" lon="-6.675144195556641">
        <ele>475.0</ele>
        <time>2019-04-23T08:03:17.000Z</time>
      </trkpt>
      <trkpt lat="42.509483337402344" lon="-6.6751708984375">
        <ele>475.0</ele>
        <time>2019-04-23T08:03:21.000Z</time>
      </trkpt>
      <trkpt lat="42.509490966796875" lon="-6.675182342529297">
        <ele>475.0</ele>
        <time>2019-04-23T08:03:25.000Z</time>
      </trkpt>
      <trkpt lat="42.50949478149414" lon="-6.675185680389404">
        <ele>475.0</ele>
        <time>2019-04-23T08:03:29.000Z</time>
      </trkpt>
      <trkpt lat="42.50950241088867" lon="-6.67519998550415">
        <ele>475.0</ele>
        <time>2019-04-23T08:03:29.000Z</time>
      </trkpt>
      <trkpt lat="42.50950622558594" lon="-6.675210952758789">
        <ele>475.0</ele>
        <time>2019-04-23T08:03:30.000Z</time>
      </trkpt>
      <trkpt lat="42.5095100402832" lon="-6.6752190589904785">
        <ele>475.0</ele>
        <time>2019-04-23T08:03:30.000Z</time>
      </trkpt>
      <trkpt lat="42.50951385498047" lon="-6.675226211547852">
        <ele>475.0</ele>
        <time>2019-04-23T08:03:30.000Z</time>
      </trkpt>
      <trkpt lat="42.509521484375" lon="-6.675308704376221">
        <ele>475.0</ele>
        <time>2019-04-23T08:03:37.000Z</time>
      </trkpt>
      <trkpt lat="42.5095329284668" lon="-6.675421714782715">
        <ele>475.0</ele>
        <time>2019-04-23T08:03:44.000Z</time>
      </trkpt>
      <trkpt lat="42.509544372558594" lon="-6.675555229187012">
        <ele>475.0</ele>
        <time>2019-04-23T08:03:51.000Z</time>
      </trkpt>
      <trkpt lat="42.50955581665039" lon="-6.675698757171631">
        <ele>475.0</ele>
        <time>2019-04-23T08:03:58.000Z</time>
      </trkpt>
      <trkpt lat="42.509559631347656" lon="-6.675819396972656">
        <ele>476.0</ele>
        <time>2019-04-23T08:04:06.000Z</time>
      </trkpt>
      <trkpt lat="42.50955581665039" lon="-6.675940990447998">
        <ele>478.0</ele>
        <time>2019-04-23T08:04:13.000Z</time>
      </trkpt>
      <trkpt lat="42.50954818725586" lon="-6.676063537597656">
        <ele>481.0</ele>
        <time>2019-04-23T08:04:21.000Z</time>
      </trkpt>
      <trkpt lat="42.50954055786133" lon="-6.676186561584473">
        <ele>484.0</ele>
        <time>2019-04-23T08:04:28.000Z</time>
      </trkpt>
      <trkpt lat="42.5095329284668" lon="-6.676304817199707">
        <ele>484.0</ele>
        <time>2019-04-23T08:04:36.000Z</time>
      </trkpt>
      <trkpt lat="42.509525299072266" lon="-6.676422119140625">
        <ele>484.0</ele>
        <time>2019-04-23T08:04:44.000Z</time>
      </trkpt>
      <trkpt lat="42.50951385498047" lon="-6.676537990570068">
        <ele>484.0</ele>
        <time>2019-04-23T08:04:51.000Z</time>
      </trkpt>
      <trkpt lat="42.50950622558594" lon="-6.6766533851623535">
        <ele>484.0</ele>
        <time>2019-04-23T08:04:59.000Z</time>
      </trkpt>
      <trkpt lat="42.50946044921875" lon="-6.676876544952393">
        <ele>485.0</ele>
        <time>2019-04-23T08:05:14.000Z</time>
      </trkpt>
      <trkpt lat="42.509429931640625" lon="-6.67692232131958">
        <ele>484.0</ele>
        <time>2019-04-23T08:05:18.000Z</time>
      </trkpt>
      <trkpt lat="42.50939178466797" lon="-6.6769633293151855">
        <ele>484.0</ele>
        <time>2019-04-23T08:05:22.000Z</time>
      </trkpt>
      <trkpt lat="42.50934600830078" lon="-6.677001476287842">
        <ele>484.0</ele>
        <time>2019-04-23T08:05:26.000Z</time>
      </trkpt>
      <trkpt lat="42.509300231933594" lon="-6.677038192749023">
        <ele>484.0</ele>
        <time>2019-04-23T08:05:30.000Z</time>
      </trkpt>
      <trkpt lat="42.50924301147461" lon="-6.677105903625488">
        <ele>484.0</ele>
        <time>2019-04-23T08:05:36.000Z</time>
      </trkpt>
      <trkpt lat="42.50918197631836" lon="-6.677185535430908">
        <ele>484.0</ele>
        <time>2019-04-23T08:05:43.000Z</time>
      </trkpt>
      <trkpt lat="42.50911331176758" lon="-6.677272319793701">
        <ele>485.0</ele>
        <time>2019-04-23T08:05:49.000Z</time>
      </trkpt>
      <trkpt lat="42.5090446472168" lon="-6.67736291885376">
        <ele>485.0</ele>
        <time>2019-04-23T08:05:55.000Z</time>
      </trkpt>
      <trkpt lat="42.50901794433594" lon="-6.677410125732422">
        <ele>486.0</ele>
        <time>2019-04-23T08:05:59.000Z</time>
      </trkpt>
      <trkpt lat="42.50900650024414" lon="-6.677443027496338">
        <ele>486.0</ele>
        <time>2019-04-23T08:06:02.000Z</time>
      </trkpt>
      <trkpt lat="42.509002685546875" lon="-6.677466869354248">
        <ele>486.0</ele>
        <time>2019-04-23T08:06:06.000Z</time>
      </trkpt>
      <trkpt lat="42.509002685546875" lon="-6.677485466003418">
        <ele>486.0</ele>
        <time>2019-04-23T08:06:09.000Z</time>
      </trkpt>
      <trkpt lat="42.508995056152344" lon="-6.677502155303955">
        <ele>487.0</ele>
        <time>2019-04-23T08:06:14.000Z</time>
      </trkpt>
      <trkpt lat="42.50898742675781" lon="-6.677513122558594">
        <ele>488.0</ele>
        <time>2019-04-23T08:06:19.000Z</time>
      </trkpt>
      <trkpt lat="42.50897979736328" lon="-6.677520275115967">
        <ele>488.0</ele>
        <time>2019-04-23T08:06:23.000Z</time>
      </trkpt>
      <trkpt lat="42.508975982666016" lon="-6.677525520324707">
        <ele>489.0</ele>
        <time>2019-04-23T08:06:28.000Z</time>
      </trkpt>
      <trkpt lat="42.508968353271484" lon="-6.677533149719238">
        <ele>489.0</ele>
        <time>2019-04-23T08:06:28.000Z</time>
      </trkpt>
      <trkpt lat="42.50896453857422" lon="-6.677540302276611">
        <ele>489.0</ele>
        <time>2019-04-23T08:06:29.000Z</time>
      </trkpt>
      <trkpt lat="42.50896072387695" lon="-6.67754602432251">
        <ele>489.0</ele>
        <time>2019-04-23T08:06:29.000Z</time>
      </trkpt>
      <trkpt lat="42.50895690917969" lon="-6.677551746368408">
        <ele>489.0</ele>
        <time>2019-04-23T08:06:29.000Z</time>
      </trkpt>
      <trkpt lat="42.50891876220703" lon="-6.677614688873291">
        <ele>490.0</ele>
        <time>2019-04-23T08:06:34.000Z</time>
      </trkpt>
      <trkpt lat="42.50886535644531" lon="-6.677701473236084">
        <ele>490.0</ele>
        <time>2019-04-23T08:06:39.000Z</time>
      </trkpt>
      <trkpt lat="42.5088005065918" lon="-6.6778035163879395">
        <ele>491.0</ele>
        <time>2019-04-23T08:06:44.000Z</time>
      </trkpt>
      <trkpt lat="42.50873565673828" lon="-6.677913188934326">
        <ele>492.0</ele>
        <time>2019-04-23T08:06:49.000Z</time>
      </trkpt>
      <trkpt lat="42.50861358642578" lon="-6.678350448608398">
        <ele>490.0</ele>
        <time>2019-04-23T08:07:21.000Z</time>
      </trkpt>
      <trkpt lat="42.508609771728516" lon="-6.678492546081543">
        <ele>490.0</ele>
        <time>2019-04-23T08:07:28.000Z</time>
      </trkpt>
      <trkpt lat="42.50863265991211" lon="-6.6785993576049805">
        <ele>491.0</ele>
        <time>2019-04-23T08:07:34.000Z</time>
      </trkpt>
      <trkpt lat="42.50861740112305" lon="-6.678656101226807">
        <ele>491.0</ele>
        <time>2019-04-23T08:07:37.000Z</time>
      </trkpt>
      <trkpt lat="42.50858688354492" lon="-6.6787109375">
        <ele>490.0</ele>
        <time>2019-04-23T08:07:40.000Z</time>
      </trkpt>
      <trkpt lat="42.50855255126953" lon="-6.6787638664245605">
        <ele>490.0</ele>
        <time>2019-04-23T08:07:43.000Z</time>
      </trkpt>
      <trkpt lat="42.508514404296875" lon="-6.678816318511963">
        <ele>489.0</ele>
        <time>2019-04-23T08:07:46.000Z</time>
      </trkpt>
      <trkpt lat="42.50849151611328" lon="-6.678859233856201">
        <ele>489.0</ele>
        <time>2019-04-23T08:07:51.000Z</time>
      </trkpt>
      <trkpt lat="42.50847625732422" lon="-6.678897380828857">
        <ele>490.0</ele>
        <time>2019-04-23T08:07:55.000Z</time>
      </trkpt>
      <trkpt lat="42.50845718383789" lon="-6.678932189941406">
        <ele>490.0</ele>
        <time>2019-04-23T08:08:00.000Z</time>
      </trkpt>
      <trkpt lat="42.508445739746094" lon="-6.6789655685424805">
        <ele>490.0</ele>
        <time>2019-04-23T08:08:04.000Z</time>
      </trkpt>
      <trkpt lat="42.50843048095703" lon="-6.6789870262146">
        <ele>490.0</ele>
        <time>2019-04-23T08:08:09.000Z</time>
      </trkpt>
      <trkpt lat="42.508419036865234" lon="-6.679001808166504">
        <ele>491.0</ele>
        <time>2019-04-23T08:08:14.000Z</time>
      </trkpt>
      <trkpt lat="42.50840377807617" lon="-6.679011821746826">
        <ele>491.0</ele>
        <time>2019-04-23T08:08:19.000Z</time>
      </trkpt>
      <trkpt lat="42.508392333984375" lon="-6.679019927978516">
        <ele>492.0</ele>
        <time>2019-04-23T08:08:24.000Z</time>
      </trkpt>
      <trkpt lat="42.508384704589844" lon="-6.67902946472168">
        <ele>492.0</ele>
        <time>2019-04-23T08:08:24.000Z</time>
      </trkpt>
      <trkpt lat="42.50837707519531" lon="-6.679037094116211">
        <ele>492.0</ele>
        <time>2019-04-23T08:08:25.000Z</time>
      </trkpt>
      <trkpt lat="42.50836944580078" lon="-6.679043292999268">
        <ele>492.0</ele>
        <time>2019-04-23T08:08:25.000Z</time>
      </trkpt>
      <trkpt lat="42.508365631103516" lon="-6.679049491882324">
        <ele>492.0</ele>
        <time>2019-04-23T08:08:25.000Z</time>
      </trkpt>
      <trkpt lat="42.508331298828125" lon="-6.679078578948975">
        <ele>492.0</ele>
        <time>2019-04-23T08:08:29.000Z</time>
      </trkpt>
      <trkpt lat="42.50828552246094" lon="-6.679116249084473">
        <ele>492.0</ele>
        <time>2019-04-23T08:08:32.000Z</time>
      </trkpt>
      <trkpt lat="42.50823211669922" lon="-6.6791605949401855">
        <ele>492.0</ele>
        <time>2019-04-23T08:08:36.000Z</time>
      </trkpt>
      <trkpt lat="42.508174896240234" lon="-6.679207801818848">
        <ele>492.0</ele>
        <time>2019-04-23T08:08:39.000Z</time>
      </trkpt>
      <trkpt lat="42.50814437866211" lon="-6.679204940795898">
        <ele>492.0</ele>
        <time>2019-04-23T08:08:44.000Z</time>
      </trkpt>
      <trkpt lat="42.50812530517578" lon="-6.679184436798096">
        <ele>492.0</ele>
        <time>2019-04-23T08:08:48.000Z</time>
      </trkpt>
      <trkpt lat="42.508113861083984" lon="-6.679152488708496">
        <ele>492.0</ele>
        <time>2019-04-23T08:08:53.000Z</time>
      </trkpt>
      <trkpt lat="42.50810241699219" lon="-6.67911434173584">
        <ele>491.0</ele>
        <time>2019-04-23T08:08:57.000Z</time>
      </trkpt>
      <trkpt lat="42.508079528808594" lon="-6.679105281829834">
        <ele>491.0</ele>
        <time>2019-04-23T08:09:02.000Z</time>
      </trkpt>
      <trkpt lat="42.508056640625" lon="-6.679102420806885">
        <ele>492.0</ele>
        <time>2019-04-23T08:09:07.000Z</time>
      </trkpt>
      <trkpt lat="42.508033752441406" lon="-6.679103851318359">
        <ele>492.0</ele>
        <time>2019-04-23T08:09:12.000Z</time>
      </trkpt>
      <trkpt lat="42.50800704956055" lon="-6.679106712341309">
        <ele>492.0</ele>
        <time>2019-04-23T08:09:17.000Z</time>
      </trkpt>
      <trkpt lat="42.50799560546875" lon="-6.679105758666992">
        <ele>492.0</ele>
        <time>2019-04-23T08:09:17.000Z</time>
      </trkpt>
      <trkpt lat="42.50798416137695" lon="-6.679104804992676">
        <ele>492.0</ele>
        <time>2019-04-23T08:09:18.000Z</time>
      </trkpt>
      <trkpt lat="42.50798034667969" lon="-6.679104328155518">
        <ele>492.0</ele>
        <time>2019-04-23T08:09:18.000Z</time>
      </trkpt>
      <trkpt lat="42.507972717285156" lon="-6.679104328155518">
        <ele>492.0</ele>
        <time>2019-04-23T08:09:18.000Z</time>
      </trkpt>
      <trkpt lat="42.50795364379883" lon="-6.679104804992676">
        <ele>492.0</ele>
        <time>2019-04-23T08:09:20.000Z</time>
      </trkpt>
      <trkpt lat="42.507930755615234" lon="-6.67910623550415">
        <ele>492.0</ele>
        <time>2019-04-23T08:09:22.000Z</time>
      </trkpt>
      <trkpt lat="42.50790023803711" lon="-6.679107666015625">
        <ele>492.0</ele>
        <time>2019-04-23T08:09:23.000Z</time>
      </trkpt>
      <trkpt lat="42.507869720458984" lon="-6.679109573364258">
        <ele>492.0</ele>
        <time>2019-04-23T08:09:25.000Z</time>
      </trkpt>
      <trkpt lat="42.50786209106445" lon="-6.679113388061523">
        <ele>492.0</ele>
        <time>2019-04-23T08:09:31.000Z</time>
      </trkpt>
      <trkpt lat="42.50785827636719" lon="-6.6791181564331055">
        <ele>492.0</ele>
        <time>2019-04-23T08:09:36.000Z</time>
      </trkpt>
      <trkpt lat="42.50785827636719" lon="-6.679123878479004">
        <ele>492.0</ele>
        <time>2019-04-23T08:09:42.000Z</time>
      </trkpt>
      <trkpt lat="42.50786209106445" lon="-6.6791300773620605">
        <ele>492.0</ele>
        <time>2019-04-23T08:09:47.000Z</time>
      </trkpt>
      <trkpt lat="42.50786209106445" lon="-6.679134845733643">
        <ele>492.0</ele>
        <time>2019-04-23T08:09:47.000Z</time>
      </trkpt>
      <trkpt lat="42.50785827636719" lon="-6.679139137268066">
        <ele>492.0</ele>
        <time>2019-04-23T08:09:48.000Z</time>
      </trkpt>
      <trkpt lat="42.50785827636719" lon="-6.679143905639648">
        <ele>492.0</ele>
        <time>2019-04-23T08:09:48.000Z</time>
      </trkpt>
      <trkpt lat="42.50785827636719" lon="-6.679147720336914">
        <ele>492.0</ele>
        <time>2019-04-23T08:09:48.000Z</time>
      </trkpt>
      <trkpt lat="42.507843017578125" lon="-6.679224491119385">
        <ele>492.0</ele>
        <time>2019-04-23T08:09:52.000Z</time>
      </trkpt>
      <trkpt lat="42.5078239440918" lon="-6.679331302642822">
        <ele>492.0</ele>
        <time>2019-04-23T08:09:56.000Z</time>
      </trkpt>
      <trkpt lat="42.50780487060547" lon="-6.6794586181640625">
        <ele>492.0</ele>
        <time>2019-04-23T08:10:00.000Z</time>
      </trkpt>
      <trkpt lat="42.50777816772461" lon="-6.679595947265625">
        <ele>491.0</ele>
        <time>2019-04-23T08:10:04.000Z</time>
      </trkpt>
      <trkpt lat="42.50775146484375" lon="-6.67970609664917">
        <ele>491.0</ele>
        <time>2019-04-23T08:10:14.000Z</time>
      </trkpt>
      <trkpt lat="42.50771713256836" lon="-6.679816246032715">
        <ele>490.0</ele>
        <time>2019-04-23T08:10:24.000Z</time>
      </trkpt>
      <trkpt lat="42.5076789855957" lon="-6.679925441741943">
        <ele>490.0</ele>
        <time>2019-04-23T08:10:34.000Z</time>
      </trkpt>
      <trkpt lat="42.50764083862305" lon="-6.68003511428833">
        <ele>489.0</ele>
        <time>2019-04-23T08:10:44.000Z</time>
      </trkpt>
      <trkpt lat="42.507625579833984" lon="-6.680082321166992">
        <ele>489.0</ele>
        <time>2019-04-23T08:10:46.000Z</time>
      </trkpt>
      <trkpt lat="42.50761413574219" lon="-6.680103778839111">
        <ele>489.0</ele>
        <time>2019-04-23T08:10:48.000Z</time>
      </trkpt>
      <trkpt lat="42.50761032104492" lon="-6.680107593536377">
        <ele>489.0</ele>
        <time>2019-04-23T08:10:50.000Z</time>
      </trkpt>
      <trkpt lat="42.507606506347656" lon="-6.680102348327637">
        <ele>489.0</ele>
        <time>2019-04-23T08:10:52.000Z</time>
      </trkpt>
      <trkpt lat="42.507598876953125" lon="-6.68011474609375">
        <ele>489.0</ele>
        <time>2019-04-23T08:10:58.000Z</time>
      </trkpt>
      <trkpt lat="42.50759506225586" lon="-6.680124759674072">
        <ele>489.0</ele>
        <time>2019-04-23T08:11:05.000Z</time>
      </trkpt>
      <trkpt lat="42.507591247558594" lon="-6.68013334274292">
        <ele>490.0</ele>
        <time>2019-04-23T08:11:11.000Z</time>
      </trkpt>
      <trkpt lat="42.50758743286133" lon="-6.680141448974609">
        <ele>490.0</ele>
        <time>2019-04-23T08:11:17.000Z</time>
      </trkpt>
      <trkpt lat="42.507572174072266" lon="-6.680168151855469">
        <ele>490.0</ele>
        <time>2019-04-23T08:11:18.000Z</time>
      </trkpt>
      <trkpt lat="42.507568359375" lon="-6.680173873901367">
        <ele>490.0</ele>
        <time>2019-04-23T08:11:20.000Z</time>
      </trkpt>
      <trkpt lat="42.507564544677734" lon="-6.680181980133057">
        <ele>492.0</ele>
        <time>2019-04-23T08:11:30.000Z</time>
      </trkpt>
      <trkpt lat="42.50756072998047" lon="-6.680190086364746">
        <ele>492.0</ele>
        <time>2019-04-23T08:11:31.000Z</time>
      </trkpt>
      <trkpt lat="42.50741958618164" lon="-6.680600643157959">
        <ele>498.0</ele>
        <time>2019-04-23T08:11:57.000Z</time>
      </trkpt>
      <trkpt lat="42.507415771484375" lon="-6.680629253387451">
        <ele>499.0</ele>
        <time>2019-04-23T08:12:00.000Z</time>
      </trkpt>
      <trkpt lat="42.50739288330078" lon="-6.680685997009277">
        <ele>507.0</ele>
        <time>2019-04-23T08:12:20.000Z</time>
      </trkpt>
      <trkpt lat="42.507381439208984" lon="-6.680721282958984">
        <ele>507.0</ele>
        <time>2019-04-23T08:12:21.000Z</time>
      </trkpt>
      <trkpt lat="42.507110595703125" lon="-6.681032180786133">
        <ele>513.0</ele>
        <time>2019-04-23T08:12:47.000Z</time>
      </trkpt>
      <trkpt lat="42.50699234008789" lon="-6.681135654449463">
        <ele>516.0</ele>
        <time>2019-04-23T08:13:07.000Z</time>
      </trkpt>
      <trkpt lat="42.50694274902344" lon="-6.681204795837402">
        <ele>516.0</ele>
        <time>2019-04-23T08:13:26.000Z</time>
      </trkpt>
      <trkpt lat="42.50691604614258" lon="-6.681237697601318">
        <ele>516.0</ele>
        <time>2019-04-23T08:13:27.000Z</time>
      </trkpt>
      <trkpt lat="42.50691604614258" lon="-6.681241035461426">
        <ele>516.0</ele>
        <time>2019-04-23T08:13:28.000Z</time>
      </trkpt>
      <trkpt lat="42.50687789916992" lon="-6.6812944412231445">
        <ele>516.0</ele>
        <time>2019-04-23T08:13:36.000Z</time>
      </trkpt>
      <trkpt lat="42.50685501098633" lon="-6.681325435638428">
        <ele>516.0</ele>
        <time>2019-04-23T08:13:37.000Z</time>
      </trkpt>
      <trkpt lat="42.506690979003906" lon="-6.681515693664551">
        <ele>516.0</ele>
        <time>2019-04-23T08:13:50.000Z</time>
      </trkpt>
      <trkpt lat="42.506614685058594" lon="-6.681581020355225">
        <ele>518.0</ele>
        <time>2019-04-23T08:14:16.000Z</time>
      </trkpt>
      <trkpt lat="42.50658416748047" lon="-6.681607246398926">
        <ele>518.0</ele>
        <time>2019-04-23T08:14:17.000Z</time>
      </trkpt>
      <trkpt lat="42.50654220581055" lon="-6.681646823883057">
        <ele>518.0</ele>
        <time>2019-04-23T08:14:20.000Z</time>
      </trkpt>
      <trkpt lat="42.5064697265625" lon="-6.681704044342041">
        <ele>520.0</ele>
        <time>2019-04-23T08:14:38.000Z</time>
      </trkpt>
      <trkpt lat="42.506439208984375" lon="-6.681728839874268">
        <ele>520.0</ele>
        <time>2019-04-23T08:14:39.000Z</time>
      </trkpt>
      <trkpt lat="42.506370544433594" lon="-6.6818108558654785">
        <ele>521.0</ele>
        <time>2019-04-23T08:14:46.000Z</time>
      </trkpt>
      <trkpt lat="42.50636672973633" lon="-6.681829929351807">
        <ele>521.0</ele>
        <time>2019-04-23T08:14:50.000Z</time>
      </trkpt>
      <trkpt lat="42.50636291503906" lon="-6.681848526000977">
        <ele>520.0</ele>
        <time>2019-04-23T08:14:53.000Z</time>
      </trkpt>
      <trkpt lat="42.50636672973633" lon="-6.68186616897583">
        <ele>520.0</ele>
        <time>2019-04-23T08:14:57.000Z</time>
      </trkpt>
      <trkpt lat="42.506370544433594" lon="-6.681883811950684">
        <ele>519.0</ele>
        <time>2019-04-23T08:15:00.000Z</time>
      </trkpt>
      <trkpt lat="42.506370544433594" lon="-6.681897163391113">
        <ele>519.0</ele>
        <time>2019-04-23T08:15:00.000Z</time>
      </trkpt>
      <trkpt lat="42.50636672973633" lon="-6.681907653808594">
        <ele>519.0</ele>
        <time>2019-04-23T08:15:01.000Z</time>
      </trkpt>
      <trkpt lat="42.50636672973633" lon="-6.681917190551758">
        <ele>519.0</ele>
        <time>2019-04-23T08:15:01.000Z</time>
      </trkpt>
      <trkpt lat="42.50636672973633" lon="-6.6819257736206055">
        <ele>519.0</ele>
        <time>2019-04-23T08:15:01.000Z</time>
      </trkpt>
      <trkpt lat="42.506378173828125" lon="-6.682007789611816">
        <ele>518.0</ele>
        <time>2019-04-23T08:15:09.000Z</time>
      </trkpt>
      <trkpt lat="42.50639724731445" lon="-6.682119846343994">
        <ele>517.0</ele>
        <time>2019-04-23T08:15:16.000Z</time>
      </trkpt>
      <trkpt lat="42.50641632080078" lon="-6.682251453399658">
        <ele>515.0</ele>
        <time>2019-04-23T08:15:24.000Z</time>
      </trkpt>
      <trkpt lat="42.506439208984375" lon="-6.682393550872803">
        <ele>514.0</ele>
        <time>2019-04-23T08:15:31.000Z</time>
      </trkpt>
      <trkpt lat="42.50645065307617" lon="-6.682512283325195">
        <ele>514.0</ele>
        <time>2019-04-23T08:15:40.000Z</time>
      </trkpt>
      <trkpt lat="42.5064582824707" lon="-6.6826324462890625">
        <ele>514.0</ele>
        <time>2019-04-23T08:15:49.000Z</time>
      </trkpt>
      <trkpt lat="42.506465911865234" lon="-6.68275260925293">
        <ele>515.0</ele>
        <time>2019-04-23T08:15:57.000Z</time>
      </trkpt>
      <trkpt lat="42.5064697265625" lon="-6.682873725891113">
        <ele>517.0</ele>
        <time>2019-04-23T08:16:06.000Z</time>
      </trkpt>
      <trkpt lat="42.5064582824707" lon="-6.682991027832031">
        <ele>517.0</ele>
        <time>2019-04-23T08:16:14.000Z</time>
      </trkpt>
      <trkpt lat="42.50643539428711" lon="-6.683107376098633">
        <ele>518.0</ele>
        <time>2019-04-23T08:16:22.000Z</time>
      </trkpt>
      <trkpt lat="42.50640869140625" lon="-6.683222770690918">
        <ele>518.0</ele>
        <time>2019-04-23T08:16:29.000Z</time>
      </trkpt>
      <trkpt lat="42.50638198852539" lon="-6.683338165283203">
        <ele>518.0</ele>
        <time>2019-04-23T08:16:37.000Z</time>
      </trkpt>
      <trkpt lat="42.50640106201172" lon="-6.683448314666748">
        <ele>518.0</ele>
        <time>2019-04-23T08:16:45.000Z</time>
      </trkpt>
      <trkpt lat="42.50643539428711" lon="-6.68355655670166">
        <ele>517.0</ele>
        <time>2019-04-23T08:16:54.000Z</time>
      </trkpt>
      <trkpt lat="42.50648498535156" lon="-6.6836628913879395">
        <ele>516.0</ele>
        <time>2019-04-23T08:17:02.000Z</time>
      </trkpt>
      <trkpt lat="42.50653839111328" lon="-6.6837687492370605">
        <ele>514.0</ele>
        <time>2019-04-23T08:17:10.000Z</time>
      </trkpt>
      <trkpt lat="42.50657653808594" lon="-6.683871746063232">
        <ele>514.0</ele>
        <time>2019-04-23T08:17:21.000Z</time>
      </trkpt>
      <trkpt lat="42.50661849975586" lon="-6.683972358703613">
        <ele>514.0</ele>
        <time>2019-04-23T08:17:32.000Z</time>
      </trkpt>
      <trkpt lat="42.506656646728516" lon="-6.684072017669678">
        <ele>515.0</ele>
        <time>2019-04-23T08:17:43.000Z</time>
      </trkpt>
      <trkpt lat="42.50669860839844" lon="-6.684171199798584">
        <ele>515.0</ele>
        <time>2019-04-23T08:17:54.000Z</time>
      </trkpt>
      <trkpt lat="42.50670623779297" lon="-6.684206008911133">
        <ele>517.0</ele>
        <time>2019-04-23T08:18:01.000Z</time>
      </trkpt>
      <trkpt lat="42.5067024230957" lon="-6.684213161468506">
        <ele>519.0</ele>
        <time>2019-04-23T08:18:08.000Z</time>
      </trkpt>
      <trkpt lat="42.506690979003906" lon="-6.684201717376709">
        <ele>521.0</ele>
        <time>2019-04-23T08:18:14.000Z</time>
      </trkpt>
      <trkpt lat="42.506675720214844" lon="-6.6841816902160645">
        <ele>523.0</ele>
        <time>2019-04-23T08:18:21.000Z</time>
      </trkpt>
      <trkpt lat="42.50666809082031" lon="-6.684183597564697">
        <ele>524.0</ele>
        <time>2019-04-23T08:18:21.000Z</time>
      </trkpt>
      <trkpt lat="42.50666427612305" lon="-6.684185981750488">
        <ele>524.0</ele>
        <time>2019-04-23T08:18:22.000Z</time>
      </trkpt>
      <trkpt lat="42.50666046142578" lon="-6.684187889099121">
        <ele>524.0</ele>
        <time>2019-04-23T08:18:22.000Z</time>
      </trkpt>
      <trkpt lat="42.50665283203125" lon="-6.684189796447754">
        <ele>523.0</ele>
        <time>2019-04-23T08:18:22.000Z</time>
      </trkpt>
      <trkpt lat="42.50660705566406" lon="-6.6842041015625">
        <ele>524.0</ele>
        <time>2019-04-23T08:18:25.000Z</time>
      </trkpt>
      <trkpt lat="42.50654220581055" lon="-6.684223175048828">
        <ele>524.0</ele>
        <time>2019-04-23T08:18:27.000Z</time>
      </trkpt>
      <trkpt lat="42.50646209716797" lon="-6.684245586395264">
        <ele>524.0</ele>
        <time>2019-04-23T08:18:30.000Z</time>
      </trkpt>
      <trkpt lat="42.50638198852539" lon="-6.684269905090332">
        <ele>525.0</ele>
        <time>2019-04-23T08:18:32.000Z</time>
      </trkpt>
      <trkpt lat="42.50632858276367" lon="-6.684290409088135">
        <ele>526.0</ele>
        <time>2019-04-23T08:18:44.000Z</time>
      </trkpt>
      <trkpt lat="42.50628662109375" lon="-6.684311389923096">
        <ele>529.0</ele>
        <time>2019-04-23T08:18:55.000Z</time>
      </trkpt>
      <trkpt lat="42.506248474121094" lon="-6.684332370758057">
        <ele>532.0</ele>
        <time>2019-04-23T08:19:07.000Z</time>
      </trkpt>
      <trkpt lat="42.5062141418457" lon="-6.684353351593018">
        <ele>535.0</ele>
        <time>2019-04-23T08:19:18.000Z</time>
      </trkpt>
      <trkpt lat="42.506195068359375" lon="-6.684362888336182">
        <ele>536.0</ele>
        <time>2019-04-23T08:19:18.000Z</time>
      </trkpt>
      <trkpt lat="42.50618362426758" lon="-6.6843671798706055">
        <ele>536.0</ele>
        <time>2019-04-23T08:19:19.000Z</time>
      </trkpt>
      <trkpt lat="42.50618362426758" lon="-6.684369087219238">
        <ele>536.0</ele>
        <time>2019-04-23T08:19:19.000Z</time>
      </trkpt>
      <trkpt lat="42.50618362426758" lon="-6.684369087219238">
        <ele>535.0</ele>
        <time>2019-04-23T08:19:19.000Z</time>
      </trkpt>
      <trkpt lat="42.50617599487305" lon="-6.684372901916504">
        <ele>535.0</ele>
        <time>2019-04-23T08:19:20.000Z</time>
      </trkpt>
      <trkpt lat="42.506168365478516" lon="-6.6843767166137695">
        <ele>535.0</ele>
        <time>2019-04-23T08:19:20.000Z</time>
      </trkpt>
      <trkpt lat="42.506160736083984" lon="-6.684380531311035">
        <ele>535.0</ele>
        <time>2019-04-23T08:19:21.000Z</time>
      </trkpt>
      <trkpt lat="42.50615310668945" lon="-6.684384822845459">
        <ele>536.0</ele>
        <time>2019-04-23T08:19:21.000Z</time>
      </trkpt>
      <trkpt lat="42.5062141418457" lon="-6.684953212738037">
        <ele>550.0</ele>
        <time>2019-04-23T08:32:56.000Z</time>
      </trkpt>
      <trkpt lat="42.506351470947266" lon="-6.685144901275635">
        <ele>547.0</ele>
        <time>2019-04-23T08:33:13.000Z</time>
      </trkpt>
      <trkpt lat="42.506351470947266" lon="-6.685144901275635">
        <ele>547.0</ele>
        <time>2019-04-23T08:33:14.000Z</time>
      </trkpt>
      <trkpt lat="42.506473541259766" lon="-6.685591220855713">
        <ele>539.0</ele>
        <time>2019-04-23T08:33:53.000Z</time>
      </trkpt>
      <trkpt lat="42.50657272338867" lon="-6.686056137084961">
        <ele>536.0</ele>
        <time>2019-04-23T08:34:24.000Z</time>
      </trkpt>
      <trkpt lat="42.50664138793945" lon="-6.686325550079346">
        <ele>542.0</ele>
        <time>2019-04-23T08:34:41.000Z</time>
      </trkpt>
      <trkpt lat="42.506629943847656" lon="-6.686381816864014">
        <ele>542.0</ele>
        <time>2019-04-23T08:34:44.000Z</time>
      </trkpt>
      <trkpt lat="42.50660705566406" lon="-6.686434268951416">
        <ele>543.0</ele>
        <time>2019-04-23T08:34:47.000Z</time>
      </trkpt>
      <trkpt lat="42.50657653808594" lon="-6.686483383178711">
        <ele>543.0</ele>
        <time>2019-04-23T08:34:49.000Z</time>
      </trkpt>
      <trkpt lat="42.50654220581055" lon="-6.686531066894531">
        <ele>543.0</ele>
        <time>2019-04-23T08:34:52.000Z</time>
      </trkpt>
      <trkpt lat="42.50651931762695" lon="-6.686624050140381">
        <ele>544.0</ele>
        <time>2019-04-23T08:35:01.000Z</time>
      </trkpt>
      <trkpt lat="42.506492614746094" lon="-6.686734676361084">
        <ele>545.0</ele>
        <time>2019-04-23T08:35:11.000Z</time>
      </trkpt>
      <trkpt lat="42.506465911865234" lon="-6.686856746673584">
        <ele>546.0</ele>
        <time>2019-04-23T08:35:20.000Z</time>
      </trkpt>
      <trkpt lat="42.50644302368164" lon="-6.686984539031982">
        <ele>547.0</ele>
        <time>2019-04-23T08:35:29.000Z</time>
      </trkpt>
      <trkpt lat="42.50643539428711" lon="-6.687026023864746">
        <ele>547.0</ele>
        <time>2019-04-23T08:35:30.000Z</time>
      </trkpt>
      <trkpt lat="42.506431579589844" lon="-6.687037467956543">
        <ele>547.0</ele>
        <time>2019-04-23T08:35:31.000Z</time>
      </trkpt>
      <trkpt lat="42.50643539428711" lon="-6.687028408050537">
        <ele>547.0</ele>
        <time>2019-04-23T08:35:31.000Z</time>
      </trkpt>
      <trkpt lat="42.506439208984375" lon="-6.687009811401367">
        <ele>547.0</ele>
        <time>2019-04-23T08:35:32.000Z</time>
      </trkpt>
      <trkpt lat="42.50645065307617" lon="-6.687008380889893">
        <ele>547.0</ele>
        <time>2019-04-23T08:35:39.000Z</time>
      </trkpt>
      <trkpt lat="42.506465911865234" lon="-6.687004089355469">
        <ele>548.0</ele>
        <time>2019-04-23T08:35:46.000Z</time>
      </trkpt>
      <trkpt lat="42.5064811706543" lon="-6.686997413635254">
        <ele>548.0</ele>
        <time>2019-04-23T08:35:52.000Z</time>
      </trkpt>
      <trkpt lat="42.50650405883789" lon="-6.686989784240723">
        <ele>549.0</ele>
        <time>2019-04-23T08:35:59.000Z</time>
      </trkpt>
      <trkpt lat="42.50651550292969" lon="-6.686986446380615">
        <ele>549.0</ele>
        <time>2019-04-23T08:35:59.000Z</time>
      </trkpt>
      <trkpt lat="42.50652313232422" lon="-6.686983585357666">
        <ele>549.0</ele>
        <time>2019-04-23T08:36:00.000Z</time>
      </trkpt>
      <trkpt lat="42.506526947021484" lon="-6.686981678009033">
        <ele>549.0</ele>
        <time>2019-04-23T08:36:00.000Z</time>
      </trkpt>
      <trkpt lat="42.506534576416016" lon="-6.6869797706604">
        <ele>549.0</ele>
        <time>2019-04-23T08:36:00.000Z</time>
      </trkpt>
      <trkpt lat="42.50656509399414" lon="-6.686973571777344">
        <ele>549.0</ele>
        <time>2019-04-23T08:36:06.000Z</time>
      </trkpt>
      <trkpt lat="42.50661087036133" lon="-6.6869659423828125">
        <ele>550.0</ele>
        <time>2019-04-23T08:36:11.000Z</time>
      </trkpt>
      <trkpt lat="42.506656646728516" lon="-6.686957359313965">
        <ele>551.0</ele>
        <time>2019-04-23T08:36:17.000Z</time>
      </trkpt>
      <trkpt lat="42.506710052490234" lon="-6.686947822570801">
        <ele>552.0</ele>
        <time>2019-04-23T08:36:22.000Z</time>
      </trkpt>
      <trkpt lat="42.506717681884766" lon="-6.686946868896484">
        <ele>551.0</ele>
        <time>2019-04-23T08:36:41.000Z</time>
      </trkpt>
      <trkpt lat="42.506710052490234" lon="-6.686948776245117">
        <ele>550.0</ele>
        <time>2019-04-23T08:37:01.000Z</time>
      </trkpt>
      <trkpt lat="42.50669479370117" lon="-6.686953067779541">
        <ele>548.0</ele>
        <time>2019-04-23T08:37:20.000Z</time>
      </trkpt>
      <trkpt lat="42.50667190551758" lon="-6.686957836151123">
        <ele>546.0</ele>
        <time>2019-04-23T08:37:39.000Z</time>
      </trkpt>
      <trkpt lat="42.50666427612305" lon="-6.686959743499756">
        <ele>545.0</ele>
        <time>2019-04-23T08:37:39.000Z</time>
      </trkpt>
      <trkpt lat="42.506656646728516" lon="-6.686961650848389">
        <ele>545.0</ele>
        <time>2019-04-23T08:37:40.000Z</time>
      </trkpt>
      <trkpt lat="42.50665283203125" lon="-6.686963081359863">
        <ele>546.0</ele>
        <time>2019-04-23T08:37:40.000Z</time>
      </trkpt>
      <trkpt lat="42.50664520263672" lon="-6.686964511871338">
        <ele>546.0</ele>
        <time>2019-04-23T08:37:40.000Z</time>
      </trkpt>
      <trkpt lat="42.506622314453125" lon="-6.686975002288818">
        <ele>546.0</ele>
        <time>2019-04-23T08:37:41.000Z</time>
      </trkpt>
      <trkpt lat="42.506587982177734" lon="-6.6869893074035645">
        <ele>546.0</ele>
        <time>2019-04-23T08:37:41.000Z</time>
      </trkpt>
      <trkpt lat="42.50654983520508" lon="-6.687005996704102">
        <ele>546.0</ele>
        <time>2019-04-23T08:37:42.000Z</time>
      </trkpt>
      <trkpt lat="42.50651168823242" lon="-6.687024116516113">
        <ele>546.0</ele>
        <time>2019-04-23T08:37:42.000Z</time>
      </trkpt>
      <trkpt lat="42.50642776489258" lon="-6.687114715576172">
        <ele>545.0</ele>
        <time>2019-04-23T08:37:55.000Z</time>
      </trkpt>
      <trkpt lat="42.506343841552734" lon="-6.6872334480285645">
        <ele>543.0</ele>
        <time>2019-04-23T08:38:08.000Z</time>
      </trkpt>
      <trkpt lat="42.50627517700195" lon="-6.687283992767334">
        <ele>542.0</ele>
        <time>2019-04-23T08:38:17.000Z</time>
      </trkpt>
      <trkpt lat="42.506195068359375" lon="-6.687333106994629">
        <ele>542.0</ele>
        <time>2019-04-23T08:38:26.000Z</time>
      </trkpt>
      <trkpt lat="42.506107330322266" lon="-6.687381744384766">
        <ele>541.0</ele>
        <time>2019-04-23T08:38:35.000Z</time>
      </trkpt>
      <trkpt lat="42.50601577758789" lon="-6.687429904937744">
        <ele>540.0</ele>
        <time>2019-04-23T08:38:44.000Z</time>
      </trkpt>
      <trkpt lat="42.50593185424805" lon="-6.687425136566162">
        <ele>539.0</ele>
        <time>2019-04-23T08:38:51.000Z</time>
      </trkpt>
      <trkpt lat="42.5058479309082" lon="-6.6873979568481445">
        <ele>539.0</ele>
        <time>2019-04-23T08:38:58.000Z</time>
      </trkpt>
      <trkpt lat="42.50576400756836" lon="-6.687355995178223">
        <ele>538.0</ele>
        <time>2019-04-23T08:39:05.000Z</time>
      </trkpt>
      <trkpt lat="42.505680084228516" lon="-6.687305927276611">
        <ele>538.0</ele>
        <time>2019-04-23T08:39:12.000Z</time>
      </trkpt>
      <trkpt lat="42.5056037902832" lon="-6.6872758865356445">
        <ele>537.0</ele>
        <time>2019-04-23T08:39:19.000Z</time>
      </trkpt>
      <trkpt lat="42.50553512573242" lon="-6.687246799468994">
        <ele>537.0</ele>
        <time>2019-04-23T08:39:26.000Z</time>
      </trkpt>
      <trkpt lat="42.50546646118164" lon="-6.6872172355651855">
        <ele>536.0</ele>
        <time>2019-04-23T08:39:32.000Z</time>
      </trkpt>
      <trkpt lat="42.505401611328125" lon="-6.687188625335693">
        <ele>535.0</ele>
        <time>2019-04-23T08:39:39.000Z</time>
      </trkpt>
      <trkpt lat="42.505367279052734" lon="-6.687177658081055">
        <ele>534.0</ele>
        <time>2019-04-23T08:39:47.000Z</time>
      </trkpt>
      <trkpt lat="42.505348205566406" lon="-6.687174320220947">
        <ele>533.0</ele>
        <time>2019-04-23T08:39:54.000Z</time>
      </trkpt>
      <trkpt lat="42.50533676147461" lon="-6.68717622756958">
        <ele>532.0</ele>
        <time>2019-04-23T08:40:02.000Z</time>
      </trkpt>
      <trkpt lat="42.505332946777344" lon="-6.687180995941162">
        <ele>531.0</ele>
        <time>2019-04-23T08:40:09.000Z</time>
      </trkpt>
      <trkpt lat="42.50532150268555" lon="-6.6871795654296875">
        <ele>530.0</ele>
        <time>2019-04-23T08:40:09.000Z</time>
      </trkpt>
      <trkpt lat="42.505313873291016" lon="-6.687178611755371">
        <ele>530.0</ele>
        <time>2019-04-23T08:40:10.000Z</time>
      </trkpt>
      <trkpt lat="42.505306243896484" lon="-6.687177658081055">
        <ele>530.0</ele>
        <time>2019-04-23T08:40:10.000Z</time>
      </trkpt>
      <trkpt lat="42.50529479980469" lon="-6.687176704406738">
        <ele>531.0</ele>
        <time>2019-04-23T08:40:10.000Z</time>
      </trkpt>
      <trkpt lat="42.505245208740234" lon="-6.687190532684326">
        <ele>530.0</ele>
        <time>2019-04-23T08:40:13.000Z</time>
      </trkpt>
      <trkpt lat="42.50517272949219" lon="-6.687211036682129">
        <ele>530.0</ele>
        <time>2019-04-23T08:40:16.000Z</time>
      </trkpt>
      <trkpt lat="42.50509262084961" lon="-6.687235355377197">
        <ele>530.0</ele>
        <time>2019-04-23T08:40:18.000Z</time>
      </trkpt>
      <trkpt lat="42.5050048828125" lon="-6.687262058258057">
        <ele>530.0</ele>
        <time>2019-04-23T08:40:21.000Z</time>
      </trkpt>
      <trkpt lat="42.50493240356445" lon="-6.687270164489746">
        <ele>529.0</ele>
        <time>2019-04-23T08:40:25.000Z</time>
      </trkpt>
      <trkpt lat="42.504859924316406" lon="-6.687273025512695">
        <ele>529.0</ele>
        <time>2019-04-23T08:40:29.000Z</time>
      </trkpt>
      <trkpt lat="42.504791259765625" lon="-6.687272071838379">
        <ele>529.0</ele>
        <time>2019-04-23T08:40:32.000Z</time>
      </trkpt>
      <trkpt lat="42.504722595214844" lon="-6.687269687652588">
        <ele>529.0</ele>
        <time>2019-04-23T08:40:36.000Z</time>
      </trkpt>
      <trkpt lat="42.50468826293945" lon="-6.687284469604492">
        <ele>529.0</ele>
        <time>2019-04-23T08:40:38.000Z</time>
      </trkpt>
      <trkpt lat="42.50467300415039" lon="-6.687304496765137">
        <ele>528.0</ele>
        <time>2019-04-23T08:40:40.000Z</time>
      </trkpt>
      <trkpt lat="42.50466537475586" lon="-6.687328338623047">
        <ele>528.0</ele>
        <time>2019-04-23T08:40:42.000Z</time>
      </trkpt>
      <trkpt lat="42.50466537475586" lon="-6.68735408782959">
        <ele>528.0</ele>
        <time>2019-04-23T08:40:44.000Z</time>
      </trkpt>
      <trkpt lat="42.504615783691406" lon="-6.687407493591309">
        <ele>529.0</ele>
        <time>2019-04-23T08:40:53.000Z</time>
      </trkpt>
      <trkpt lat="42.504547119140625" lon="-6.687474727630615">
        <ele>530.0</ele>
        <time>2019-04-23T08:41:02.000Z</time>
      </trkpt>
      <trkpt lat="42.50447082519531" lon="-6.687551498413086">
        <ele>531.0</ele>
        <time>2019-04-23T08:41:10.000Z</time>
      </trkpt>
      <trkpt lat="42.50438690185547" lon="-6.6876325607299805">
        <ele>532.0</ele>
        <time>2019-04-23T08:41:19.000Z</time>
      </trkpt>
      <trkpt lat="42.5043830871582" lon="-6.687727451324463">
        <ele>528.0</ele>
        <time>2019-04-23T08:41:31.000Z</time>
      </trkpt>
      <trkpt lat="42.50440216064453" lon="-6.687833309173584">
        <ele>522.0</ele>
        <time>2019-04-23T08:41:43.000Z</time>
      </trkpt>
      <trkpt lat="42.50444030761719" lon="-6.687946319580078">
        <ele>515.0</ele>
        <time>2019-04-23T08:41:55.000Z</time>
      </trkpt>
      <trkpt lat="42.504486083984375" lon="-6.68806266784668">
        <ele>507.0</ele>
        <time>2019-04-23T08:42:07.000Z</time>
      </trkpt>
      <trkpt lat="42.50447463989258" lon="-6.688283920288086">
        <ele>518.0</ele>
        <time>2019-04-23T08:42:13.000Z</time>
      </trkpt>
      <trkpt lat="42.50443649291992" lon="-6.688508033752441">
        <ele>539.0</ele>
        <time>2019-04-23T08:42:18.000Z</time>
      </trkpt>
      <trkpt lat="42.50444412231445" lon="-6.6885504722595215">
        <ele>541.0</ele>
        <time>2019-04-23T08:42:19.000Z</time>
      </trkpt>
      <trkpt lat="42.504459381103516" lon="-6.688564777374268">
        <ele>540.0</ele>
        <time>2019-04-23T08:42:21.000Z</time>
      </trkpt>
      <trkpt lat="42.504478454589844" lon="-6.688559532165527">
        <ele>538.0</ele>
        <time>2019-04-23T08:42:22.000Z</time>
      </trkpt>
      <trkpt lat="42.5045051574707" lon="-6.688544750213623">
        <ele>535.0</ele>
        <time>2019-04-23T08:42:23.000Z</time>
      </trkpt>
      <trkpt lat="42.50448989868164" lon="-6.688567161560059">
        <ele>535.0</ele>
        <time>2019-04-23T08:42:25.000Z</time>
      </trkpt>
      <trkpt lat="42.504459381103516" lon="-6.688595771789551">
        <ele>535.0</ele>
        <time>2019-04-23T08:42:28.000Z</time>
      </trkpt>
      <trkpt lat="42.504417419433594" lon="-6.68862771987915">
        <ele>536.0</ele>
        <time>2019-04-23T08:42:30.000Z</time>
      </trkpt>
      <trkpt lat="42.50437545776367" lon="-6.688661575317383">
        <ele>537.0</ele>
        <time>2019-04-23T08:42:32.000Z</time>
      </trkpt>
      <trkpt lat="42.50436782836914" lon="-6.688690185546875">
        <ele>537.0</ele>
        <time>2019-04-23T08:42:33.000Z</time>
      </trkpt>
      <trkpt lat="42.50436782836914" lon="-6.688718318939209">
        <ele>537.0</ele>
        <time>2019-04-23T08:42:35.000Z</time>
      </trkpt>
      <trkpt lat="42.50437545776367" lon="-6.688746452331543">
        <ele>537.0</ele>
        <time>2019-04-23T08:42:36.000Z</time>
      </trkpt>
      <trkpt lat="42.50438690185547" lon="-6.688774585723877">
        <ele>537.0</ele>
        <time>2019-04-23T08:42:37.000Z</time>
      </trkpt>
      <trkpt lat="42.504356384277344" lon="-6.688809871673584">
        <ele>536.0</ele>
        <time>2019-04-23T08:42:38.000Z</time>
      </trkpt>
      <trkpt lat="42.504310607910156" lon="-6.688847541809082">
        <ele>535.0</ele>
        <time>2019-04-23T08:42:39.000Z</time>
      </trkpt>
      <trkpt lat="42.50425338745117" lon="-6.688886642456055">
        <ele>534.0</ele>
        <time>2019-04-23T08:42:40.000Z</time>
      </trkpt>
      <trkpt lat="42.50419235229492" lon="-6.688927173614502">
        <ele>532.0</ele>
        <time>2019-04-23T08:42:41.000Z</time>
      </trkpt>
      <trkpt lat="42.50418472290039" lon="-6.688925743103027">
        <ele>531.0</ele>
        <time>2019-04-23T08:42:42.000Z</time>
      </trkpt>
      <trkpt lat="42.50419616699219" lon="-6.688908576965332">
        <ele>529.0</ele>
        <time>2019-04-23T08:42:43.000Z</time>
      </trkpt>
      <trkpt lat="42.504215240478516" lon="-6.68887996673584">
        <ele>527.0</ele>
        <time>2019-04-23T08:42:43.000Z</time>
      </trkpt>
      <trkpt lat="42.504241943359375" lon="-6.688845634460449">
        <ele>525.0</ele>
        <time>2019-04-23T08:42:44.000Z</time>
      </trkpt>
      <trkpt lat="42.50428009033203" lon="-6.6888508796691895">
        <ele>524.0</ele>
        <time>2019-04-23T08:42:46.000Z</time>
      </trkpt>
      <trkpt lat="42.504329681396484" lon="-6.688867092132568">
        <ele>523.0</ele>
        <time>2019-04-23T08:42:49.000Z</time>
      </trkpt>
      <trkpt lat="42.5043830871582" lon="-6.688889980316162">
        <ele>523.0</ele>
        <time>2019-04-23T08:42:51.000Z</time>
      </trkpt>
      <trkpt lat="42.50444030761719" lon="-6.6889166831970215">
        <ele>522.0</ele>
        <time>2019-04-23T08:42:53.000Z</time>
      </trkpt>
      <trkpt lat="42.50446701049805" lon="-6.688962936401367">
        <ele>522.0</ele>
        <time>2019-04-23T08:42:57.000Z</time>
      </trkpt>
      <trkpt lat="42.50448226928711" lon="-6.689021587371826">
        <ele>523.0</ele>
        <time>2019-04-23T08:43:00.000Z</time>
      </trkpt>
      <trkpt lat="42.504493713378906" lon="-6.689088344573975">
        <ele>523.0</ele>
        <time>2019-04-23T08:43:04.000Z</time>
      </trkpt>
      <trkpt lat="42.50450134277344" lon="-6.689159393310547">
        <ele>524.0</ele>
        <time>2019-04-23T08:43:07.000Z</time>
      </trkpt>
      <trkpt lat="42.50452423095703" lon="-6.68925142288208">
        <ele>525.0</ele>
        <time>2019-04-23T08:43:15.000Z</time>
      </trkpt>
      <trkpt lat="42.504554748535156" lon="-6.689356327056885">
        <ele>526.0</ele>
        <time>2019-04-23T08:43:22.000Z</time>
      </trkpt>
      <trkpt lat="42.50458526611328" lon="-6.689469814300537">
        <ele>527.0</ele>
        <time>2019-04-23T08:43:30.000Z</time>
      </trkpt>
      <trkpt lat="42.504615783691406" lon="-6.6895880699157715">
        <ele>528.0</ele>
        <time>2019-04-23T08:43:37.000Z</time>
      </trkpt>
      <trkpt lat="42.5046272277832" lon="-6.6896562576293945">
        <ele>528.0</ele>
        <time>2019-04-23T08:43:40.000Z</time>
      </trkpt>
      <trkpt lat="42.50463104248047" lon="-6.689708232879639">
        <ele>529.0</ele>
        <time>2019-04-23T08:43:42.000Z</time>
      </trkpt>
      <trkpt lat="42.50463104248047" lon="-6.689748764038086">
        <ele>529.0</ele>
        <time>2019-04-23T08:43:45.000Z</time>
      </trkpt>
      <trkpt lat="42.5046272277832" lon="-6.689784526824951">
        <ele>529.0</ele>
        <time>2019-04-23T08:43:47.000Z</time>
      </trkpt>
      <trkpt lat="42.504608154296875" lon="-6.689834117889404">
        <ele>529.0</ele>
        <time>2019-04-23T08:43:52.000Z</time>
      </trkpt>
      <trkpt lat="42.50458526611328" lon="-6.689883708953857">
        <ele>529.0</ele>
        <time>2019-04-23T08:43:56.000Z</time>
      </trkpt>
      <trkpt lat="42.504554748535156" lon="-6.689933776855469">
        <ele>529.0</ele>
        <time>2019-04-23T08:44:00.000Z</time>
      </trkpt>
      <trkpt lat="42.50452423095703" lon="-6.68998384475708">
        <ele>528.0</ele>
        <time>2019-04-23T08:44:05.000Z</time>
      </trkpt>
      <trkpt lat="42.5045166015625" lon="-6.690030574798584">
        <ele>529.0</ele>
        <time>2019-04-23T08:44:11.000Z</time>
      </trkpt>
      <trkpt lat="42.5045166015625" lon="-6.690075874328613">
        <ele>531.0</ele>
        <time>2019-04-23T08:44:17.000Z</time>
      </trkpt>
      <trkpt lat="42.50452423095703" lon="-6.690120220184326">
        <ele>533.0</ele>
        <time>2019-04-23T08:44:23.000Z</time>
      </trkpt>
      <trkpt lat="42.50453186035156" lon="-6.690164566040039">
        <ele>535.0</ele>
        <time>2019-04-23T08:44:30.000Z</time>
      </trkpt>
      <trkpt lat="42.50453567504883" lon="-6.690186023712158">
        <ele>535.0</ele>
        <time>2019-04-23T08:44:30.000Z</time>
      </trkpt>
      <trkpt lat="42.50453567504883" lon="-6.690197467803955">
        <ele>535.0</ele>
        <time>2019-04-23T08:44:30.000Z</time>
      </trkpt>
      <trkpt lat="42.50453567504883" lon="-6.690202713012695">
        <ele>535.0</ele>
        <time>2019-04-23T08:44:30.000Z</time>
      </trkpt>
      <trkpt lat="42.50453567504883" lon="-6.690204620361328">
        <ele>535.0</ele>
        <time>2019-04-23T08:44:31.000Z</time>
      </trkpt>
      <trkpt lat="42.50453567504883" lon="-6.690224647521973">
        <ele>535.0</ele>
        <time>2019-04-23T08:44:32.000Z</time>
      </trkpt>
      <trkpt lat="42.50453567504883" lon="-6.690248012542725">
        <ele>536.0</ele>
        <time>2019-04-23T08:44:34.000Z</time>
      </trkpt>
      <trkpt lat="42.50453186035156" lon="-6.690274715423584">
        <ele>536.0</ele>
        <time>2019-04-23T08:44:36.000Z</time>
      </trkpt>
      <trkpt lat="42.50453186035156" lon="-6.69030237197876">
        <ele>537.0</ele>
        <time>2019-04-23T08:44:38.000Z</time>
      </trkpt>
      <trkpt lat="42.5045280456543" lon="-6.690314769744873">
        <ele>537.0</ele>
        <time>2019-04-23T08:44:44.000Z</time>
      </trkpt>
      <trkpt lat="42.504520416259766" lon="-6.6903228759765625">
        <ele>537.0</ele>
        <time>2019-04-23T08:44:50.000Z</time>
      </trkpt>
      <trkpt lat="42.504512786865234" lon="-6.690327167510986">
        <ele>537.0</ele>
        <time>2019-04-23T08:44:56.000Z</time>
      </trkpt>
      <trkpt lat="42.50450134277344" lon="-6.6903300285339355">
        <ele>537.0</ele>
        <time>2019-04-23T08:45:03.000Z</time>
      </trkpt>
      <trkpt lat="42.50449752807617" lon="-6.690335750579834">
        <ele>537.0</ele>
        <time>2019-04-23T08:45:03.000Z</time>
      </trkpt>
      <trkpt lat="42.50448989868164" lon="-6.690340518951416">
        <ele>537.0</ele>
        <time>2019-04-23T08:45:03.000Z</time>
      </trkpt>
      <trkpt lat="42.504486083984375" lon="-6.69034481048584">
        <ele>537.0</ele>
        <time>2019-04-23T08:45:03.000Z</time>
      </trkpt>
      <trkpt lat="42.50448226928711" lon="-6.690349102020264">
        <ele>537.0</ele>
        <time>2019-04-23T08:45:04.000Z</time>
      </trkpt>
      <trkpt lat="42.50444412231445" lon="-6.690372943878174">
        <ele>537.0</ele>
        <time>2019-04-23T08:45:07.000Z</time>
      </trkpt>
      <trkpt lat="42.504390716552734" lon="-6.690404415130615">
        <ele>538.0</ele>
        <time>2019-04-23T08:45:10.000Z</time>
      </trkpt>
      <trkpt lat="42.504329681396484" lon="-6.690441608428955">
        <ele>538.0</ele>
        <time>2019-04-23T08:45:13.000Z</time>
      </trkpt>
      <trkpt lat="42.50426483154297" lon="-6.690480709075928">
        <ele>538.0</ele>
        <time>2019-04-23T08:45:16.000Z</time>
      </trkpt>
      <trkpt lat="42.50421905517578" lon="-6.690550327301025">
        <ele>538.0</ele>
        <time>2019-04-23T08:45:21.000Z</time>
      </trkpt>
      <trkpt lat="42.50419998168945" lon="-6.690621376037598">
        <ele>538.0</ele>
        <time>2019-04-23T08:45:26.000Z</time>
      </trkpt>
      <trkpt lat="42.504154205322266" lon="-6.690683841705322">
        <ele>538.0</ele>
        <time>2019-04-23T08:45:32.000Z</time>
      </trkpt>
      <trkpt lat="42.504093170166016" lon="-6.6907572746276855">
        <ele>538.0</ele>
        <time>2019-04-23T08:45:39.000Z</time>
      </trkpt>
      <trkpt lat="42.504024505615234" lon="-6.690838813781738">
        <ele>539.0</ele>
        <time>2019-04-23T08:45:46.000Z</time>
      </trkpt>
      <trkpt lat="42.50394821166992" lon="-6.690924167633057">
        <ele>539.0</ele>
        <time>2019-04-23T08:45:53.000Z</time>
      </trkpt>
      <trkpt lat="42.50389099121094" lon="-6.691004753112793">
        <ele>539.0</ele>
        <time>2019-04-23T08:45:59.000Z</time>
      </trkpt>
      <trkpt lat="42.50383377075195" lon="-6.69108772277832">
        <ele>539.0</ele>
        <time>2019-04-23T08:46:06.000Z</time>
      </trkpt>
      <trkpt lat="42.50377655029297" lon="-6.691171646118164">
        <ele>539.0</ele>
        <time>2019-04-23T08:46:12.000Z</time>
      </trkpt>
      <trkpt lat="42.50372314453125" lon="-6.691256523132324">
        <ele>540.0</ele>
        <time>2019-04-23T08:46:19.000Z</time>
      </trkpt>
      <trkpt lat="42.503700256347656" lon="-6.6912922859191895">
        <ele>539.0</ele>
        <time>2019-04-23T08:46:22.000Z</time>
      </trkpt>
      <trkpt lat="42.503692626953125" lon="-6.69130802154541">
        <ele>539.0</ele>
        <time>2019-04-23T08:46:26.000Z</time>
      </trkpt>
      <trkpt lat="42.503692626953125" lon="-6.691310405731201">
        <ele>538.0</ele>
        <time>2019-04-23T08:46:30.000Z</time>
      </trkpt>
      <trkpt lat="42.503700256347656" lon="-6.6913065910339355">
        <ele>538.0</ele>
        <time>2019-04-23T08:46:34.000Z</time>
      </trkpt>
      <trkpt lat="42.50369644165039" lon="-6.6913161277771">
        <ele>537.0</ele>
        <time>2019-04-23T08:46:34.000Z</time>
      </trkpt>
      <trkpt lat="42.503692626953125" lon="-6.691324234008789">
        <ele>537.0</ele>
        <time>2019-04-23T08:46:34.000Z</time>
      </trkpt>
      <trkpt lat="42.50368881225586" lon="-6.69133186340332">
        <ele>537.0</ele>
        <time>2019-04-23T08:46:34.000Z</time>
      </trkpt>
      <trkpt lat="42.503684997558594" lon="-6.691339015960693">
        <ele>538.0</ele>
        <time>2019-04-23T08:46:35.000Z</time>
      </trkpt>
      <trkpt lat="42.50365447998047" lon="-6.691398620605469">
        <ele>537.0</ele>
        <time>2019-04-23T08:46:40.000Z</time>
      </trkpt>
      <trkpt lat="42.50360870361328" lon="-6.69148063659668">
        <ele>537.0</ele>
        <time>2019-04-23T08:46:46.000Z</time>
      </trkpt>
      <trkpt lat="42.50355529785156" lon="-6.6915764808654785">
        <ele>536.0</ele>
        <time>2019-04-23T08:46:52.000Z</time>
      </trkpt>
      <trkpt lat="42.50349807739258" lon="-6.691679954528809">
        <ele>536.0</ele>
        <time>2019-04-23T08:46:58.000Z</time>
      </trkpt>
      <trkpt lat="42.50347137451172" lon="-6.691715717315674">
        <ele>534.0</ele>
        <time>2019-04-23T08:47:08.000Z</time>
      </trkpt>
      <trkpt lat="42.50345230102539" lon="-6.6917405128479">
        <ele>534.0</ele>
        <time>2019-04-23T08:47:09.000Z</time>
      </trkpt>
      <trkpt lat="42.50319290161133" lon="-6.692051410675049">
        <ele>532.0</ele>
        <time>2019-04-23T08:47:32.000Z</time>
      </trkpt>
      <trkpt lat="42.50292205810547" lon="-6.692348957061768">
        <ele>530.0</ele>
        <time>2019-04-23T08:47:58.000Z</time>
      </trkpt>
      <trkpt lat="42.502662658691406" lon="-6.692685604095459">
        <ele>528.0</ele>
        <time>2019-04-23T08:48:27.000Z</time>
      </trkpt>
      <trkpt lat="42.50240707397461" lon="-6.6929402351379395">
        <ele>527.0</ele>
        <time>2019-04-23T08:48:47.000Z</time>
      </trkpt>
      <trkpt lat="42.50238800048828" lon="-6.692976951599121">
        <ele>527.0</ele>
        <time>2019-04-23T08:48:49.000Z</time>
      </trkpt>
      <trkpt lat="42.50238800048828" lon="-6.693002223968506">
        <ele>527.0</ele>
        <time>2019-04-23T08:48:52.000Z</time>
      </trkpt>
      <trkpt lat="42.50239562988281" lon="-6.693020343780518">
        <ele>526.0</ele>
        <time>2019-04-23T08:48:55.000Z</time>
      </trkpt>
      <trkpt lat="42.50241470336914" lon="-6.693034648895264">
        <ele>526.0</ele>
        <time>2019-04-23T08:48:58.000Z</time>
      </trkpt>
      <trkpt lat="42.50239562988281" lon="-6.693074703216553">
        <ele>526.0</ele>
        <time>2019-04-23T08:49:03.000Z</time>
      </trkpt>
      <trkpt lat="42.50236892700195" lon="-6.693121910095215">
        <ele>526.0</ele>
        <time>2019-04-23T08:49:08.000Z</time>
      </trkpt>
      <trkpt lat="42.50233459472656" lon="-6.693173408508301">
        <ele>526.0</ele>
        <time>2019-04-23T08:49:13.000Z</time>
      </trkpt>
      <trkpt lat="42.502296447753906" lon="-6.693227291107178">
        <ele>527.0</ele>
        <time>2019-04-23T08:49:18.000Z</time>
      </trkpt>
      <trkpt lat="42.50228500366211" lon="-6.693248748779297">
        <ele>527.0</ele>
        <time>2019-04-23T08:49:21.000Z</time>
      </trkpt>
      <trkpt lat="42.50227737426758" lon="-6.693259239196777">
        <ele>527.0</ele>
        <time>2019-04-23T08:49:25.000Z</time>
      </trkpt>
      <trkpt lat="42.50227737426758" lon="-6.693262100219727">
        <ele>527.0</ele>
        <time>2019-04-23T08:49:28.000Z</time>
      </trkpt>
      <trkpt lat="42.50227737426758" lon="-6.69326114654541">
        <ele>527.0</ele>
        <time>2019-04-23T08:49:32.000Z</time>
      </trkpt>
      <trkpt lat="42.50227355957031" lon="-6.693267822265625">
        <ele>527.0</ele>
        <time>2019-04-23T08:49:32.000Z</time>
      </trkpt>
      <trkpt lat="42.50226974487305" lon="-6.69327449798584">
        <ele>527.0</ele>
        <time>2019-04-23T08:49:32.000Z</time>
      </trkpt>
      <trkpt lat="42.50226974487305" lon="-6.693280220031738">
        <ele>527.0</ele>
        <time>2019-04-23T08:49:32.000Z</time>
      </trkpt>
      <trkpt lat="42.50226593017578" lon="-6.693285942077637">
        <ele>527.0</ele>
        <time>2019-04-23T08:49:33.000Z</time>
      </trkpt>
      <trkpt lat="42.50223159790039" lon="-6.693353176116943">
        <ele>527.0</ele>
        <time>2019-04-23T08:49:38.000Z</time>
      </trkpt>
      <trkpt lat="42.50218200683594" lon="-6.693446636199951">
        <ele>527.0</ele>
        <time>2019-04-23T08:49:43.000Z</time>
      </trkpt>
      <trkpt lat="42.50212860107422" lon="-6.693556785583496">
        <ele>526.0</ele>
        <time>2019-04-23T08:49:48.000Z</time>
      </trkpt>
      <trkpt lat="42.50206756591797" lon="-6.693675518035889">
        <ele>526.0</ele>
        <time>2019-04-23T08:49:53.000Z</time>
      </trkpt>
      <trkpt lat="42.50201416015625" lon="-6.693770408630371">
        <ele>525.0</ele>
        <time>2019-04-23T08:50:00.000Z</time>
      </trkpt>
      <trkpt lat="42.501956939697266" lon="-6.693864345550537">
        <ele>525.0</ele>
        <time>2019-04-23T08:50:07.000Z</time>
      </trkpt>
      <trkpt lat="42.50189971923828" lon="-6.693957328796387">
        <ele>524.0</ele>
        <time>2019-04-23T08:50:14.000Z</time>
      </trkpt>
      <trkpt lat="42.5018424987793" lon="-6.694050312042236">
        <ele>523.0</ele>
        <time>2019-04-23T08:50:21.000Z</time>
      </trkpt>
      <trkpt lat="42.50177764892578" lon="-6.69413423538208">
        <ele>523.0</ele>
        <time>2019-04-23T08:50:28.000Z</time>
      </trkpt>
      <trkpt lat="42.501712799072266" lon="-6.694213390350342">
        <ele>523.0</ele>
        <time>2019-04-23T08:50:36.000Z</time>
      </trkpt>
      <trkpt lat="42.501644134521484" lon="-6.6942901611328125">
        <ele>523.0</ele>
        <time>2019-04-23T08:50:43.000Z</time>
      </trkpt>
      <trkpt lat="42.50157165527344" lon="-6.694365501403809">
        <ele>523.0</ele>
        <time>2019-04-23T08:50:51.000Z</time>
      </trkpt>
      <trkpt lat="42.501346588134766" lon="-6.694679260253906">
        <ele>525.0</ele>
        <time>2019-04-23T08:51:22.000Z</time>
      </trkpt>
      <trkpt lat="42.50129318237305" lon="-6.694737911224365">
        <ele>529.0</ele>
        <time>2019-04-23T08:51:40.000Z</time>
      </trkpt>
      <trkpt lat="42.50126647949219" lon="-6.694767951965332">
        <ele>529.0</ele>
        <time>2019-04-23T08:51:41.000Z</time>
      </trkpt>
      <trkpt lat="42.501068115234375" lon="-6.694957733154297">
        <ele>532.0</ele>
        <time>2019-04-23T08:51:59.000Z</time>
      </trkpt>
      <trkpt lat="42.501060485839844" lon="-6.694969654083252">
        <ele>530.0</ele>
        <time>2019-04-23T08:52:13.000Z</time>
      </trkpt>
      <trkpt lat="42.50105285644531" lon="-6.694980144500732">
        <ele>530.0</ele>
        <time>2019-04-23T08:52:14.000Z</time>
      </trkpt>
      <trkpt lat="42.50086212158203" lon="-6.695363998413086">
        <ele>530.0</ele>
        <time>2019-04-23T08:52:28.000Z</time>
      </trkpt>
      <trkpt lat="42.50069808959961" lon="-6.69578742980957">
        <ele>533.0</ele>
        <time>2019-04-23T08:52:55.000Z</time>
      </trkpt>
      <trkpt lat="42.50060272216797" lon="-6.6960625648498535">
        <ele>533.0</ele>
        <time>2019-04-23T08:53:16.000Z</time>
      </trkpt>
      <trkpt lat="42.500572204589844" lon="-6.696098804473877">
        <ele>532.0</ele>
        <time>2019-04-23T08:53:19.000Z</time>
      </trkpt>
      <trkpt lat="42.50054168701172" lon="-6.696121692657471">
        <ele>532.0</ele>
        <time>2019-04-23T08:53:23.000Z</time>
      </trkpt>
      <trkpt lat="42.50050735473633" lon="-6.696135520935059">
        <ele>532.0</ele>
        <time>2019-04-23T08:53:26.000Z</time>
      </trkpt>
      <trkpt lat="42.5004768371582" lon="-6.696145057678223">
        <ele>532.0</ele>
        <time>2019-04-23T08:53:30.000Z</time>
      </trkpt>
      <trkpt lat="42.50039291381836" lon="-6.69631814956665">
        <ele>532.0</ele>
        <time>2019-04-23T08:53:44.000Z</time>
      </trkpt>
      <trkpt lat="42.50030517578125" lon="-6.69655179977417">
        <ele>532.0</ele>
        <time>2019-04-23T08:53:58.000Z</time>
      </trkpt>
      <trkpt lat="42.50028610229492" lon="-6.696593761444092">
        <ele>531.0</ele>
        <time>2019-04-23T08:53:59.000Z</time>
      </trkpt>
      <trkpt lat="42.50027847290039" lon="-6.696610450744629">
        <ele>531.0</ele>
        <time>2019-04-23T08:54:01.000Z</time>
      </trkpt>
      <trkpt lat="42.50027847290039" lon="-6.696610927581787">
        <ele>531.0</ele>
        <time>2019-04-23T08:54:02.000Z</time>
      </trkpt>
      <trkpt lat="42.500282287597656" lon="-6.6966023445129395">
        <ele>532.0</ele>
        <time>2019-04-23T08:54:04.000Z</time>
      </trkpt>
      <trkpt lat="42.50026321411133" lon="-6.696622371673584">
        <ele>532.0</ele>
        <time>2019-04-23T08:54:12.000Z</time>
      </trkpt>
      <trkpt lat="42.500240325927734" lon="-6.696639537811279">
        <ele>532.0</ele>
        <time>2019-04-23T08:54:20.000Z</time>
      </trkpt>
      <trkpt lat="42.5002326965332" lon="-6.696646690368652">
        <ele>532.0</ele>
        <time>2019-04-23T08:54:20.000Z</time>
      </trkpt>
      <trkpt lat="42.50022506713867" lon="-6.696652412414551">
        <ele>532.0</ele>
        <time>2019-04-23T08:54:20.000Z</time>
      </trkpt>
      <trkpt lat="42.500221252441406" lon="-6.696657657623291">
        <ele>532.0</ele>
        <time>2019-04-23T08:54:21.000Z</time>
      </trkpt>
      <trkpt lat="42.500213623046875" lon="-6.696662425994873">
        <ele>532.0</ele>
        <time>2019-04-23T08:54:21.000Z</time>
      </trkpt>
      <trkpt lat="42.50016784667969" lon="-6.696714878082275">
        <ele>532.0</ele>
        <time>2019-04-23T08:54:26.000Z</time>
      </trkpt>
      <trkpt lat="42.50010299682617" lon="-6.696786403656006">
        <ele>532.0</ele>
        <time>2019-04-23T08:54:32.000Z</time>
      </trkpt>
      <trkpt lat="42.50002670288086" lon="-6.696871280670166">
        <ele>532.0</ele>
        <time>2019-04-23T08:54:37.000Z</time>
      </trkpt>
      <trkpt lat="42.49994659423828" lon="-6.696962356567383">
        <ele>532.0</ele>
        <time>2019-04-23T08:54:42.000Z</time>
      </trkpt>
      <trkpt lat="42.499900817871094" lon="-6.6970133781433105">
        <ele>532.0</ele>
        <time>2019-04-23T08:54:48.000Z</time>
      </trkpt>
      <trkpt lat="42.49986267089844" lon="-6.697054386138916">
        <ele>531.0</ele>
        <time>2019-04-23T08:54:53.000Z</time>
      </trkpt>
      <trkpt lat="42.49983215332031" lon="-6.697088718414307">
        <ele>531.0</ele>
        <time>2019-04-23T08:54:58.000Z</time>
      </trkpt>
      <trkpt lat="42.49980545043945" lon="-6.69711971282959">
        <ele>531.0</ele>
        <time>2019-04-23T08:55:03.000Z</time>
      </trkpt>
      <trkpt lat="42.499786376953125" lon="-6.69713830947876">
        <ele>531.0</ele>
        <time>2019-04-23T08:55:07.000Z</time>
      </trkpt>
      <trkpt lat="42.49977493286133" lon="-6.697147846221924">
        <ele>531.0</ele>
        <time>2019-04-23T08:55:11.000Z</time>
      </trkpt>
      <trkpt lat="42.49977111816406" lon="-6.6971516609191895">
        <ele>531.0</ele>
        <time>2019-04-23T08:55:15.000Z</time>
      </trkpt>
      <trkpt lat="42.4997673034668" lon="-6.697152614593506">
        <ele>531.0</ele>
        <time>2019-04-23T08:55:19.000Z</time>
      </trkpt>
      <trkpt lat="42.499759674072266" lon="-6.6971588134765625">
        <ele>531.0</ele>
        <time>2019-04-23T08:55:20.000Z</time>
      </trkpt>
      <trkpt lat="42.499752044677734" lon="-6.697164058685303">
        <ele>531.0</ele>
        <time>2019-04-23T08:55:20.000Z</time>
      </trkpt>
      <trkpt lat="42.4997444152832" lon="-6.697168350219727">
        <ele>531.0</ele>
        <time>2019-04-23T08:55:20.000Z</time>
      </trkpt>
      <trkpt lat="42.49974060058594" lon="-6.69717264175415">
        <ele>531.0</ele>
        <time>2019-04-23T08:55:20.000Z</time>
      </trkpt>
      <trkpt lat="42.49943923950195" lon="-6.697278022766113">
        <ele>530.0</ele>
        <time>2019-04-23T08:55:45.000Z</time>
      </trkpt>
      <trkpt lat="42.499393463134766" lon="-6.6972975730896">
        <ele>531.0</ele>
        <time>2019-04-23T08:56:04.000Z</time>
      </trkpt>
      <trkpt lat="42.499366760253906" lon="-6.697309970855713">
        <ele>531.0</ele>
        <time>2019-04-23T08:56:05.000Z</time>
      </trkpt>
      <trkpt lat="42.49906921386719" lon="-6.697493553161621">
        <ele>534.0</ele>
        <time>2019-04-23T08:56:22.000Z</time>
      </trkpt>
      <trkpt lat="42.4989013671875" lon="-6.6976141929626465">
        <ele>536.0</ele>
        <time>2019-04-23T08:56:41.000Z</time>
      </trkpt>
      <trkpt lat="42.49885559082031" lon="-6.697649955749512">
        <ele>533.0</ele>
        <time>2019-04-23T08:57:05.000Z</time>
      </trkpt>
      <trkpt lat="42.49882507324219" lon="-6.697671890258789">
        <ele>533.0</ele>
        <time>2019-04-23T08:57:06.000Z</time>
      </trkpt>
      <trkpt lat="42.498558044433594" lon="-6.697902679443359">
        <ele>538.0</ele>
        <time>2019-04-23T08:57:24.000Z</time>
      </trkpt>
      <trkpt lat="42.498538970947266" lon="-6.697918891906738">
        <ele>542.0</ele>
        <time>2019-04-23T08:57:44.000Z</time>
      </trkpt>
      <trkpt lat="42.4985237121582" lon="-6.69793176651001">
        <ele>542.0</ele>
        <time>2019-04-23T08:57:45.000Z</time>
      </trkpt>
      <trkpt lat="42.49850845336914" lon="-6.697944641113281">
        <ele>542.0</ele>
        <time>2019-04-23T08:57:47.000Z</time>
      </trkpt>
      <trkpt lat="42.498435974121094" lon="-6.6979851722717285">
        <ele>542.0</ele>
        <time>2019-04-23T08:57:52.000Z</time>
      </trkpt>
      <trkpt lat="42.49839782714844" lon="-6.6980061531066895">
        <ele>542.0</ele>
        <time>2019-04-23T08:57:53.000Z</time>
      </trkpt>
      <trkpt lat="42.498287200927734" lon="-6.69805908203125">
        <ele>542.0</ele>
        <time>2019-04-23T08:57:57.000Z</time>
      </trkpt>
      <trkpt lat="42.4981689453125" lon="-6.698197364807129">
        <ele>541.0</ele>
        <time>2019-04-23T08:58:05.000Z</time>
      </trkpt>
      <trkpt lat="42.498146057128906" lon="-6.69820499420166">
        <ele>541.0</ele>
        <time>2019-04-23T08:58:06.000Z</time>
      </trkpt>
      <trkpt lat="42.49812698364258" lon="-6.698201656341553">
        <ele>540.0</ele>
        <time>2019-04-23T08:58:07.000Z</time>
      </trkpt>
      <trkpt lat="42.49810791015625" lon="-6.698190689086914">
        <ele>540.0</ele>
        <time>2019-04-23T08:58:09.000Z</time>
      </trkpt>
      <trkpt lat="42.49808883666992" lon="-6.69817590713501">
        <ele>540.0</ele>
        <time>2019-04-23T08:58:10.000Z</time>
      </trkpt>
      <trkpt lat="42.498050689697266" lon="-6.698174953460693">
        <ele>539.0</ele>
        <time>2019-04-23T08:58:12.000Z</time>
      </trkpt>
      <trkpt lat="42.498008728027344" lon="-6.698176383972168">
        <ele>539.0</ele>
        <time>2019-04-23T08:58:15.000Z</time>
      </trkpt>
      <trkpt lat="42.49795913696289" lon="-6.698178768157959">
        <ele>539.0</ele>
        <time>2019-04-23T08:58:18.000Z</time>
      </trkpt>
      <trkpt lat="42.49790954589844" lon="-6.698182106018066">
        <ele>539.0</ele>
        <time>2019-04-23T08:58:21.000Z</time>
      </trkpt>
      <trkpt lat="42.49787902832031" lon="-6.698199272155762">
        <ele>539.0</ele>
        <time>2019-04-23T08:58:25.000Z</time>
      </trkpt>
      <trkpt lat="42.49785614013672" lon="-6.698223114013672">
        <ele>540.0</ele>
        <time>2019-04-23T08:58:29.000Z</time>
      </trkpt>
      <trkpt lat="42.497840881347656" lon="-6.698251724243164">
        <ele>540.0</ele>
        <time>2019-04-23T08:58:33.000Z</time>
      </trkpt>
      <trkpt lat="42.497825622558594" lon="-6.698282241821289">
        <ele>540.0</ele>
        <time>2019-04-23T08:58:37.000Z</time>
      </trkpt>
      <trkpt lat="42.4978141784668" lon="-6.6982927322387695">
        <ele>540.0</ele>
        <time>2019-04-23T08:58:41.000Z</time>
      </trkpt>
      <trkpt lat="42.497802734375" lon="-6.698296546936035">
        <ele>541.0</ele>
        <time>2019-04-23T08:58:45.000Z</time>
      </trkpt>
      <trkpt lat="42.497798919677734" lon="-6.698297023773193">
        <ele>541.0</ele>
        <time>2019-04-23T08:58:49.000Z</time>
      </trkpt>
      <trkpt lat="42.4977912902832" lon="-6.6982951164245605">
        <ele>542.0</ele>
        <time>2019-04-23T08:58:54.000Z</time>
      </trkpt>
      <trkpt lat="42.49778747558594" lon="-6.698297500610352">
        <ele>542.0</ele>
        <time>2019-04-23T08:58:54.000Z</time>
      </trkpt>
      <trkpt lat="42.497779846191406" lon="-6.698299884796143">
        <ele>542.0</ele>
        <time>2019-04-23T08:58:54.000Z</time>
      </trkpt>
      <trkpt lat="42.49777603149414" lon="-6.698301792144775">
        <ele>542.0</ele>
        <time>2019-04-23T08:58:54.000Z</time>
      </trkpt>
      <trkpt lat="42.497772216796875" lon="-6.698303699493408">
        <ele>542.0</ele>
        <time>2019-04-23T08:58:55.000Z</time>
      </trkpt>
      <trkpt lat="42.497745513916016" lon="-6.698317527770996">
        <ele>542.0</ele>
        <time>2019-04-23T08:58:56.000Z</time>
      </trkpt>
      <trkpt lat="42.497711181640625" lon="-6.698335647583008">
        <ele>542.0</ele>
        <time>2019-04-23T08:58:57.000Z</time>
      </trkpt>
      <trkpt lat="42.49767303466797" lon="-6.698357105255127">
        <ele>542.0</ele>
        <time>2019-04-23T08:58:58.000Z</time>
      </trkpt>
      <trkpt lat="42.49763488769531" lon="-6.698379993438721">
        <ele>542.0</ele>
        <time>2019-04-23T08:59:00.000Z</time>
      </trkpt>
      <trkpt lat="42.49753189086914" lon="-6.69835901260376">
        <ele>542.0</ele>
        <time>2019-04-23T08:59:10.000Z</time>
      </trkpt>
      <trkpt lat="42.49742126464844" lon="-6.698310852050781">
        <ele>541.0</ele>
        <time>2019-04-23T08:59:21.000Z</time>
      </trkpt>
      <trkpt lat="42.49738311767578" lon="-6.6983184814453125">
        <ele>541.0</ele>
        <time>2019-04-23T08:59:22.000Z</time>
      </trkpt>
      <trkpt lat="42.497352600097656" lon="-6.698336124420166">
        <ele>542.0</ele>
        <time>2019-04-23T08:59:24.000Z</time>
      </trkpt>
      <trkpt lat="42.4973258972168" lon="-6.698361396789551">
        <ele>542.0</ele>
        <time>2019-04-23T08:59:26.000Z</time>
      </trkpt>
      <trkpt lat="42.49729919433594" lon="-6.698389530181885">
        <ele>542.0</ele>
        <time>2019-04-23T08:59:28.000Z</time>
      </trkpt>
      <trkpt lat="42.49726104736328" lon="-6.698384761810303">
        <ele>543.0</ele>
        <time>2019-04-23T08:59:34.000Z</time>
      </trkpt>
      <trkpt lat="42.49721908569336" lon="-6.69836950302124">
        <ele>545.0</ele>
        <time>2019-04-23T08:59:41.000Z</time>
      </trkpt>
      <trkpt lat="42.49717712402344" lon="-6.698347091674805">
        <ele>546.0</ele>
        <time>2019-04-23T08:59:48.000Z</time>
      </trkpt>
      <trkpt lat="42.49713134765625" lon="-6.69832181930542">
        <ele>549.0</ele>
        <time>2019-04-23T08:59:55.000Z</time>
      </trkpt>
      <trkpt lat="42.49709701538086" lon="-6.698322772979736">
        <ele>549.0</ele>
        <time>2019-04-23T09:00:06.000Z</time>
      </trkpt>
      <trkpt lat="42.49708557128906" lon="-6.69834041595459">
        <ele>549.0</ele>
        <time>2019-04-23T09:00:17.000Z</time>
      </trkpt>
      <trkpt lat="42.49707794189453" lon="-6.698343753814697">
        <ele>549.0</ele>
        <time>2019-04-23T09:00:17.000Z</time>
      </trkpt>
      <trkpt lat="42.4970703125" lon="-6.698347091674805">
        <ele>549.0</ele>
        <time>2019-04-23T09:00:17.000Z</time>
      </trkpt>
      <trkpt lat="42.49706268310547" lon="-6.698349952697754">
        <ele>549.0</ele>
        <time>2019-04-23T09:00:17.000Z</time>
      </trkpt>
      <trkpt lat="42.49705505371094" lon="-6.698352813720703">
        <ele>549.0</ele>
        <time>2019-04-23T09:00:18.000Z</time>
      </trkpt>
      <trkpt lat="42.49699401855469" lon="-6.698365211486816">
        <ele>549.0</ele>
        <time>2019-04-23T09:00:22.000Z</time>
      </trkpt>
      <trkpt lat="42.496910095214844" lon="-6.698381423950195">
        <ele>549.0</ele>
        <time>2019-04-23T09:00:27.000Z</time>
      </trkpt>
      <trkpt lat="42.49681091308594" lon="-6.698400497436523">
        <ele>550.0</ele>
        <time>2019-04-23T09:00:32.000Z</time>
      </trkpt>
      <trkpt lat="42.4967041015625" lon="-6.698420524597168">
        <ele>551.0</ele>
        <time>2019-04-23T09:00:37.000Z</time>
      </trkpt>
      <trkpt lat="42.49666976928711" lon="-6.698425769805908">
        <ele>551.0</ele>
        <time>2019-04-23T09:00:38.000Z</time>
      </trkpt>
      <trkpt lat="42.49665451049805" lon="-6.698426246643066">
        <ele>551.0</ele>
        <time>2019-04-23T09:00:39.000Z</time>
      </trkpt>
      <trkpt lat="42.49665832519531" lon="-6.698422908782959">
        <ele>551.0</ele>
        <time>2019-04-23T09:00:40.000Z</time>
      </trkpt>
      <trkpt lat="42.49666976928711" lon="-6.698418617248535">
        <ele>551.0</ele>
        <time>2019-04-23T09:00:41.000Z</time>
      </trkpt>
      <trkpt lat="42.49665069580078" lon="-6.698423862457275">
        <ele>551.0</ele>
        <time>2019-04-23T09:00:44.000Z</time>
      </trkpt>
      <trkpt lat="42.49663162231445" lon="-6.698432445526123">
        <ele>552.0</ele>
        <time>2019-04-23T09:00:47.000Z</time>
      </trkpt>
      <trkpt lat="42.496612548828125" lon="-6.698442459106445">
        <ele>552.0</ele>
        <time>2019-04-23T09:00:50.000Z</time>
      </trkpt>
      <trkpt lat="42.49658966064453" lon="-6.698452949523926">
        <ele>553.0</ele>
        <time>2019-04-23T09:00:53.000Z</time>
      </trkpt>
      <trkpt lat="42.49657440185547" lon="-6.698458671569824">
        <ele>553.0</ele>
        <time>2019-04-23T09:00:53.000Z</time>
      </trkpt>
      <trkpt lat="42.49656677246094" lon="-6.698462963104248">
        <ele>553.0</ele>
        <time>2019-04-23T09:00:53.000Z</time>
      </trkpt>
      <trkpt lat="42.496559143066406" lon="-6.6984663009643555">
        <ele>553.0</ele>
        <time>2019-04-23T09:00:53.000Z</time>
      </trkpt>
      <trkpt lat="42.496551513671875" lon="-6.698469161987305">
        <ele>553.0</ele>
        <time>2019-04-23T09:00:54.000Z</time>
      </trkpt>
      <trkpt lat="42.4962158203125" lon="-6.698422908782959">
        <ele>556.0</ele>
        <time>2019-04-23T09:01:20.000Z</time>
      </trkpt>
      <trkpt lat="42.495880126953125" lon="-6.698318958282471">
        <ele>555.0</ele>
        <time>2019-04-23T09:01:52.000Z</time>
      </trkpt>
      <trkpt lat="42.49562454223633" lon="-6.698318958282471">
        <ele>551.0</ele>
        <time>2019-04-23T09:02:18.000Z</time>
      </trkpt>
      <trkpt lat="42.4956169128418" lon="-6.698323726654053">
        <ele>552.0</ele>
        <time>2019-04-23T09:02:33.000Z</time>
      </trkpt>
      <trkpt lat="42.49560546875" lon="-6.698328018188477">
        <ele>552.0</ele>
        <time>2019-04-23T09:02:34.000Z</time>
      </trkpt>
      <trkpt lat="42.495567321777344" lon="-6.6983442306518555">
        <ele>552.0</ele>
        <time>2019-04-23T09:02:36.000Z</time>
      </trkpt>
      <trkpt lat="42.49543762207031" lon="-6.698403358459473">
        <ele>552.0</ele>
        <time>2019-04-23T09:02:38.000Z</time>
      </trkpt>
      <trkpt lat="42.49538040161133" lon="-6.6984148025512695">
        <ele>552.0</ele>
        <time>2019-04-23T09:02:41.000Z</time>
      </trkpt>
      <trkpt lat="42.49536895751953" lon="-6.698401927947998">
        <ele>552.0</ele>
        <time>2019-04-23T09:02:43.000Z</time>
      </trkpt>
      <trkpt lat="42.495361328125" lon="-6.69838285446167">
        <ele>552.0</ele>
        <time>2019-04-23T09:02:44.000Z</time>
      </trkpt>
      <trkpt lat="42.495357513427734" lon="-6.698359489440918">
        <ele>552.0</ele>
        <time>2019-04-23T09:02:46.000Z</time>
      </trkpt>
      <trkpt lat="42.4953498840332" lon="-6.698334217071533">
        <ele>553.0</ele>
        <time>2019-04-23T09:02:47.000Z</time>
      </trkpt>
      <trkpt lat="42.495338439941406" lon="-6.698324680328369">
        <ele>553.0</ele>
        <time>2019-04-23T09:02:48.000Z</time>
      </trkpt>
      <trkpt lat="42.495330810546875" lon="-6.698319911956787">
        <ele>553.0</ele>
        <time>2019-04-23T09:02:49.000Z</time>
      </trkpt>
      <trkpt lat="42.49531936645508" lon="-6.698318004608154">
        <ele>553.0</ele>
        <time>2019-04-23T09:02:50.000Z</time>
      </trkpt>
      <trkpt lat="42.49530792236328" lon="-6.698317527770996">
        <ele>553.0</ele>
        <time>2019-04-23T09:02:51.000Z</time>
      </trkpt>
      <trkpt lat="42.49530792236328" lon="-6.698332786560059">
        <ele>553.0</ele>
        <time>2019-04-23T09:02:54.000Z</time>
      </trkpt>
      <trkpt lat="42.49531555175781" lon="-6.698357105255127">
        <ele>554.0</ele>
        <time>2019-04-23T09:02:57.000Z</time>
      </trkpt>
      <trkpt lat="42.49532699584961" lon="-6.698386192321777">
        <ele>554.0</ele>
        <time>2019-04-23T09:03:00.000Z</time>
      </trkpt>
      <trkpt lat="42.495338439941406" lon="-6.698418617248535">
        <ele>554.0</ele>
        <time>2019-04-23T09:03:02.000Z</time>
      </trkpt>
      <trkpt lat="42.49533462524414" lon="-6.698427200317383">
        <ele>554.0</ele>
        <time>2019-04-23T09:03:06.000Z</time>
      </trkpt>
      <trkpt lat="42.49532699584961" lon="-6.698429107666016">
        <ele>554.0</ele>
        <time>2019-04-23T09:03:09.000Z</time>
      </trkpt>
      <trkpt lat="42.49531555175781" lon="-6.698425769805908">
        <ele>553.0</ele>
        <time>2019-04-23T09:03:13.000Z</time>
      </trkpt>
      <trkpt lat="42.49530029296875" lon="-6.698420524597168">
        <ele>553.0</ele>
        <time>2019-04-23T09:03:16.000Z</time>
      </trkpt>
      <trkpt lat="42.49528884887695" lon="-6.698421478271484">
        <ele>553.0</ele>
        <time>2019-04-23T09:03:20.000Z</time>
      </trkpt>
      <trkpt lat="42.49527359008789" lon="-6.698421955108643">
        <ele>554.0</ele>
        <time>2019-04-23T09:03:23.000Z</time>
      </trkpt>
      <trkpt lat="42.49525833129883" lon="-6.698422908782959">
        <ele>554.0</ele>
        <time>2019-04-23T09:03:27.000Z</time>
      </trkpt>
      <trkpt lat="42.495243072509766" lon="-6.698423862457275">
        <ele>555.0</ele>
        <time>2019-04-23T09:03:30.000Z</time>
      </trkpt>
      <trkpt lat="42.495235443115234" lon="-6.698424339294434">
        <ele>555.0</ele>
        <time>2019-04-23T09:03:31.000Z</time>
      </trkpt>
      <trkpt lat="42.49522399902344" lon="-6.698424816131592">
        <ele>555.0</ele>
        <time>2019-04-23T09:03:31.000Z</time>
      </trkpt>
      <trkpt lat="42.49522018432617" lon="-6.69842529296875">
        <ele>555.0</ele>
        <time>2019-04-23T09:03:31.000Z</time>
      </trkpt>
      <trkpt lat="42.49521255493164" lon="-6.69842529296875">
        <ele>555.0</ele>
        <time>2019-04-23T09:03:31.000Z</time>
      </trkpt>
      <trkpt lat="42.49516677856445" lon="-6.698498249053955">
        <ele>555.0</ele>
        <time>2019-04-23T09:03:39.000Z</time>
      </trkpt>
      <trkpt lat="42.4951057434082" lon="-6.698604106903076">
        <ele>555.0</ele>
        <time>2019-04-23T09:03:47.000Z</time>
      </trkpt>
      <trkpt lat="42.495094299316406" lon="-6.698622226715088">
        <ele>555.0</ele>
        <time>2019-04-23T09:03:53.000Z</time>
      </trkpt>
      <trkpt lat="42.495086669921875" lon="-6.698629379272461">
        <ele>555.0</ele>
        <time>2019-04-23T09:03:59.000Z</time>
      </trkpt>
      <trkpt lat="42.495086669921875" lon="-6.698629379272461">
        <ele>555.0</ele>
        <time>2019-04-23T09:04:05.000Z</time>
      </trkpt>
      <trkpt lat="42.495086669921875" lon="-6.698625087738037">
        <ele>555.0</ele>
        <time>2019-04-23T09:04:10.000Z</time>
      </trkpt>
      <trkpt lat="42.49508285522461" lon="-6.698629856109619">
        <ele>555.0</ele>
        <time>2019-04-23T09:04:11.000Z</time>
      </trkpt>
      <trkpt lat="42.495079040527344" lon="-6.698634147644043">
        <ele>555.0</ele>
        <time>2019-04-23T09:04:11.000Z</time>
      </trkpt>
      <trkpt lat="42.49507522583008" lon="-6.698638439178467">
        <ele>555.0</ele>
        <time>2019-04-23T09:04:11.000Z</time>
      </trkpt>
      <trkpt lat="42.49507141113281" lon="-6.698642253875732">
        <ele>555.0</ele>
        <time>2019-04-23T09:04:11.000Z</time>
      </trkpt>
      <trkpt lat="42.49506759643555" lon="-6.69865083694458">
        <ele>555.0</ele>
        <time>2019-04-23T09:04:12.000Z</time>
      </trkpt>
      <trkpt lat="42.49505615234375" lon="-6.698660373687744">
        <ele>555.0</ele>
        <time>2019-04-23T09:04:12.000Z</time>
      </trkpt>
      <trkpt lat="42.49504852294922" lon="-6.698671817779541">
        <ele>555.0</ele>
        <time>2019-04-23T09:04:13.000Z</time>
      </trkpt>
      <trkpt lat="42.49504089355469" lon="-6.698683261871338">
        <ele>555.0</ele>
        <time>2019-04-23T09:04:13.000Z</time>
      </trkpt>
      <trkpt lat="42.49502182006836" lon="-6.698698997497559">
        <ele>555.0</ele>
        <time>2019-04-23T09:04:28.000Z</time>
      </trkpt>
      <trkpt lat="42.49500274658203" lon="-6.6987175941467285">
        <ele>555.0</ele>
        <time>2019-04-23T09:04:43.000Z</time>
      </trkpt>
      <trkpt lat="42.49497985839844" lon="-6.698737144470215">
        <ele>556.0</ele>
        <time>2019-04-23T09:04:58.000Z</time>
      </trkpt>
      <trkpt lat="42.494956970214844" lon="-6.698758125305176">
        <ele>557.0</ele>
        <time>2019-04-23T09:05:13.000Z</time>
      </trkpt>
      <trkpt lat="42.49494171142578" lon="-6.698772430419922">
        <ele>557.0</ele>
        <time>2019-04-23T09:05:14.000Z</time>
      </trkpt>
      <trkpt lat="42.494930267333984" lon="-6.698784828186035">
        <ele>557.0</ele>
        <time>2019-04-23T09:05:14.000Z</time>
      </trkpt>
      <trkpt lat="42.49491500854492" lon="-6.698796272277832">
        <ele>557.0</ele>
        <time>2019-04-23T09:05:14.000Z</time>
      </trkpt>
      <trkpt lat="42.494903564453125" lon="-6.6988067626953125">
        <ele>557.0</ele>
        <time>2019-04-23T09:05:14.000Z</time>
      </trkpt>
      <trkpt lat="42.494873046875" lon="-6.6988372802734375">
        <ele>557.0</ele>
        <time>2019-04-23T09:05:16.000Z</time>
      </trkpt>
      <trkpt lat="42.49481201171875" lon="-6.698902606964111">
        <ele>558.0</ele>
        <time>2019-04-23T09:05:21.000Z</time>
      </trkpt>
      <trkpt lat="42.49477767944336" lon="-6.698940277099609">
        <ele>558.0</ele>
        <time>2019-04-23T09:05:22.000Z</time>
      </trkpt>
      <trkpt lat="42.494754791259766" lon="-6.698960781097412">
        <ele>558.0</ele>
        <time>2019-04-23T09:05:23.000Z</time>
      </trkpt>
      <trkpt lat="42.4947509765625" lon="-6.698963165283203">
        <ele>558.0</ele>
        <time>2019-04-23T09:05:29.000Z</time>
      </trkpt>
      <trkpt lat="42.494747161865234" lon="-6.698965549468994">
        <ele>558.0</ele>
        <time>2019-04-23T09:05:30.000Z</time>
      </trkpt>
      <trkpt lat="42.49456024169922" lon="-6.699049949645996">
        <ele>559.0</ele>
        <time>2019-04-23T09:05:35.000Z</time>
      </trkpt>
      <trkpt lat="42.49449920654297" lon="-6.6990790367126465">
        <ele>566.0</ele>
        <time>2019-04-23T09:06:51.000Z</time>
      </trkpt>
      <trkpt lat="42.494449615478516" lon="-6.699100494384766">
        <ele>566.0</ele>
        <time>2019-04-23T09:06:52.000Z</time>
      </trkpt>
      <trkpt lat="42.49441146850586" lon="-6.699120044708252">
        <ele>566.0</ele>
        <time>2019-04-23T09:06:54.000Z</time>
      </trkpt>
      <trkpt lat="42.49434280395508" lon="-6.699156284332275">
        <ele>567.0</ele>
        <time>2019-04-23T09:07:00.000Z</time>
      </trkpt>
      <trkpt lat="42.49429702758789" lon="-6.699179649353027">
        <ele>567.0</ele>
        <time>2019-04-23T09:07:01.000Z</time>
      </trkpt>
      <trkpt lat="42.49427032470703" lon="-6.699195384979248">
        <ele>568.0</ele>
        <time>2019-04-23T09:07:03.000Z</time>
      </trkpt>
      <trkpt lat="42.494232177734375" lon="-6.69921875">
        <ele>570.0</ele>
        <time>2019-04-23T09:07:29.000Z</time>
      </trkpt>
      <trkpt lat="42.494205474853516" lon="-6.69923734664917">
        <ele>570.0</ele>
        <time>2019-04-23T09:07:30.000Z</time>
      </trkpt>
      <trkpt lat="42.493961334228516" lon="-6.699373722076416">
        <ele>571.0</ele>
        <time>2019-04-23T09:07:32.000Z</time>
      </trkpt>
      <trkpt lat="42.49392318725586" lon="-6.6993889808654785">
        <ele>571.0</ele>
        <time>2019-04-23T09:07:35.000Z</time>
      </trkpt>
      <trkpt lat="42.493919372558594" lon="-6.699393272399902">
        <ele>571.0</ele>
        <time>2019-04-23T09:07:45.000Z</time>
      </trkpt>
      <trkpt lat="42.49391555786133" lon="-6.699397563934326">
        <ele>571.0</ele>
        <time>2019-04-23T09:07:55.000Z</time>
      </trkpt>
      <trkpt lat="42.49391555786133" lon="-6.699402332305908">
        <ele>571.0</ele>
        <time>2019-04-23T09:08:05.000Z</time>
      </trkpt>
      <trkpt lat="42.49391555786133" lon="-6.69940710067749">
        <ele>571.0</ele>
        <time>2019-04-23T09:08:14.000Z</time>
      </trkpt>
      <trkpt lat="42.49391555786133" lon="-6.699410915374756">
        <ele>571.0</ele>
        <time>2019-04-23T09:08:15.000Z</time>
      </trkpt>
      <trkpt lat="42.49391555786133" lon="-6.69941520690918">
        <ele>571.0</ele>
        <time>2019-04-23T09:08:15.000Z</time>
      </trkpt>
      <trkpt lat="42.49391174316406" lon="-6.699419021606445">
        <ele>571.0</ele>
        <time>2019-04-23T09:08:15.000Z</time>
      </trkpt>
      <trkpt lat="42.49391174316406" lon="-6.699422836303711">
        <ele>571.0</ele>
        <time>2019-04-23T09:08:15.000Z</time>
      </trkpt>
      <trkpt lat="42.49391174316406" lon="-6.69942569732666">
        <ele>571.0</ele>
        <time>2019-04-23T09:08:16.000Z</time>
      </trkpt>
      <trkpt lat="42.49391174316406" lon="-6.699427604675293">
        <ele>571.0</ele>
        <time>2019-04-23T09:08:16.000Z</time>
      </trkpt>
      <trkpt lat="42.49391174316406" lon="-6.699429035186768">
        <ele>571.0</ele>
        <time>2019-04-23T09:08:16.000Z</time>
      </trkpt>
      <trkpt lat="42.49391174316406" lon="-6.699430465698242">
        <ele>571.0</ele>
        <time>2019-04-23T09:08:16.000Z</time>
      </trkpt>
      <trkpt lat="42.4939079284668" lon="-6.699434757232666">
        <ele>571.0</ele>
        <time>2019-04-23T09:08:20.000Z</time>
      </trkpt>
      <trkpt lat="42.4939079284668" lon="-6.699439525604248">
        <ele>571.0</ele>
        <time>2019-04-23T09:08:24.000Z</time>
      </trkpt>
      <trkpt lat="42.49390411376953" lon="-6.6994452476501465">
        <ele>571.0</ele>
        <time>2019-04-23T09:08:28.000Z</time>
      </trkpt>
      <trkpt lat="42.493900299072266" lon="-6.699450969696045">
        <ele>571.0</ele>
        <time>2019-04-23T09:08:32.000Z</time>
      </trkpt>
      <trkpt lat="42.493900299072266" lon="-6.699455738067627">
        <ele>570.0</ele>
        <time>2019-04-23T09:08:32.000Z</time>
      </trkpt>
      <trkpt lat="42.493896484375" lon="-6.699460029602051">
        <ele>570.0</ele>
        <time>2019-04-23T09:08:33.000Z</time>
      </trkpt>
      <trkpt lat="42.493896484375" lon="-6.699464321136475">
        <ele>570.0</ele>
        <time>2019-04-23T09:08:33.000Z</time>
      </trkpt>
      <trkpt lat="42.493892669677734" lon="-6.699469089508057">
        <ele>571.0</ele>
        <time>2019-04-23T09:08:33.000Z</time>
      </trkpt>
      <trkpt lat="42.493892669677734" lon="-6.699472904205322">
        <ele>571.0</ele>
        <time>2019-04-23T09:08:33.000Z</time>
      </trkpt>
      <trkpt lat="42.49388885498047" lon="-6.699477195739746">
        <ele>571.0</ele>
        <time>2019-04-23T09:08:34.000Z</time>
      </trkpt>
      <trkpt lat="42.49388885498047" lon="-6.699481010437012">
        <ele>571.0</ele>
        <time>2019-04-23T09:08:34.000Z</time>
      </trkpt>
      <trkpt lat="42.4938850402832" lon="-6.699484825134277">
        <ele>571.0</ele>
        <time>2019-04-23T09:08:34.000Z</time>
      </trkpt>
      <trkpt lat="42.49383544921875" lon="-6.6995720863342285">
        <ele>578.0</ele>
        <time>2019-04-23T09:09:32.000Z</time>
      </trkpt>
      <trkpt lat="42.493797302246094" lon="-6.6996378898620605">
        <ele>578.0</ele>
        <time>2019-04-23T09:09:33.000Z</time>
      </trkpt>
      <trkpt lat="42.49376678466797" lon="-6.699686050415039">
        <ele>578.0</ele>
        <time>2019-04-23T09:09:35.000Z</time>
      </trkpt>
      <trkpt lat="42.49373245239258" lon="-6.699752330780029">
        <ele>578.0</ele>
        <time>2019-04-23T09:09:37.000Z</time>
      </trkpt>
      <trkpt lat="42.49370574951172" lon="-6.699802398681641">
        <ele>578.0</ele>
        <time>2019-04-23T09:09:38.000Z</time>
      </trkpt>
      <trkpt lat="42.49362564086914" lon="-6.699954509735107">
        <ele>578.0</ele>
        <time>2019-04-23T09:09:41.000Z</time>
      </trkpt>
      <trkpt lat="42.493614196777344" lon="-6.699977874755859">
        <ele>580.0</ele>
        <time>2019-04-23T09:10:15.000Z</time>
      </trkpt>
      <trkpt lat="42.49360275268555" lon="-6.699998378753662">
        <ele>580.0</ele>
        <time>2019-04-23T09:10:16.000Z</time>
      </trkpt>
      <trkpt lat="42.49359130859375" lon="-6.700016021728516">
        <ele>580.0</ele>
        <time>2019-04-23T09:10:17.000Z</time>
      </trkpt>
      <trkpt lat="42.493587493896484" lon="-6.700031280517578">
        <ele>589.0</ele>
        <time>2019-04-23T09:10:48.000Z</time>
      </trkpt>
      <trkpt lat="42.49357986450195" lon="-6.700046062469482">
        <ele>589.0</ele>
        <time>2019-04-23T09:10:49.000Z</time>
      </trkpt>
      <trkpt lat="42.49351501464844" lon="-6.7001872062683105">
        <ele>589.0</ele>
        <time>2019-04-23T09:10:51.000Z</time>
      </trkpt>
      <trkpt lat="42.4934196472168" lon="-6.70040225982666">
        <ele>589.0</ele>
        <time>2019-04-23T09:10:53.000Z</time>
      </trkpt>
      <trkpt lat="42.49334716796875" lon="-6.700625419616699">
        <ele>591.0</ele>
        <time>2019-04-23T09:11:08.000Z</time>
      </trkpt>
      <trkpt lat="42.49334716796875" lon="-6.7006354331970215">
        <ele>592.0</ele>
        <time>2019-04-23T09:11:12.000Z</time>
      </trkpt>
      <trkpt lat="42.49333190917969" lon="-6.700686931610107">
        <ele>598.0</ele>
        <time>2019-04-23T09:11:56.000Z</time>
      </trkpt>
      <trkpt lat="42.49332046508789" lon="-6.700720310211182">
        <ele>598.0</ele>
        <time>2019-04-23T09:11:57.000Z</time>
      </trkpt>
      <trkpt lat="42.493228912353516" lon="-6.701003551483154">
        <ele>601.0</ele>
        <time>2019-04-23T09:12:21.000Z</time>
      </trkpt>
      <trkpt lat="42.49320983886719" lon="-6.701048374176025">
        <ele>606.0</ele>
        <time>2019-04-23T09:12:55.000Z</time>
      </trkpt>
      <trkpt lat="42.49319839477539" lon="-6.701079368591309">
        <ele>606.0</ele>
        <time>2019-04-23T09:12:56.000Z</time>
      </trkpt>
      <trkpt lat="42.49313735961914" lon="-6.70125150680542">
        <ele>606.0</ele>
        <time>2019-04-23T09:13:00.000Z</time>
      </trkpt>
      <trkpt lat="42.49309158325195" lon="-6.7013726234436035">
        <ele>612.0</ele>
        <time>2019-04-23T09:15:07.000Z</time>
      </trkpt>
      <trkpt lat="42.493072509765625" lon="-6.701434135437012">
        <ele>612.0</ele>
        <time>2019-04-23T09:15:08.000Z</time>
      </trkpt>
      <trkpt lat="42.4930305480957" lon="-6.70157527923584">
        <ele>612.0</ele>
        <time>2019-04-23T09:15:11.000Z</time>
      </trkpt>
      <trkpt lat="42.49302673339844" lon="-6.701635360717773">
        <ele>612.0</ele>
        <time>2019-04-23T09:16:50.000Z</time>
      </trkpt>
      <trkpt lat="42.49302291870117" lon="-6.701684951782227">
        <ele>612.0</ele>
        <time>2019-04-23T09:16:51.000Z</time>
      </trkpt>
      <trkpt lat="42.493019104003906" lon="-6.701723575592041">
        <ele>612.0</ele>
        <time>2019-04-23T09:16:52.000Z</time>
      </trkpt>
      <trkpt lat="42.49298095703125" lon="-6.701884746551514">
        <ele>612.0</ele>
        <time>2019-04-23T09:17:09.000Z</time>
      </trkpt>
      <trkpt lat="42.49296188354492" lon="-6.701964378356934">
        <ele>612.0</ele>
        <time>2019-04-23T09:17:10.000Z</time>
      </trkpt>
      <trkpt lat="42.49289321899414" lon="-6.7021636962890625">
        <ele>613.0</ele>
        <time>2019-04-23T09:17:20.000Z</time>
      </trkpt>
      <trkpt lat="42.49288558959961" lon="-6.702179431915283">
        <ele>614.0</ele>
        <time>2019-04-23T09:17:33.000Z</time>
      </trkpt>
      <trkpt lat="42.492881774902344" lon="-6.7021803855896">
        <ele>614.0</ele>
        <time>2019-04-23T09:17:45.000Z</time>
      </trkpt>
      <trkpt lat="42.49288558959961" lon="-6.702171802520752">
        <ele>615.0</ele>
        <time>2019-04-23T09:17:58.000Z</time>
      </trkpt>
      <trkpt lat="42.49288558959961" lon="-6.702158451080322">
        <ele>616.0</ele>
        <time>2019-04-23T09:18:11.000Z</time>
      </trkpt>
      <trkpt lat="42.49288558959961" lon="-6.702157020568848">
        <ele>616.0</ele>
        <time>2019-04-23T09:18:11.000Z</time>
      </trkpt>
      <trkpt lat="42.492881774902344" lon="-6.702155590057373">
        <ele>616.0</ele>
        <time>2019-04-23T09:18:12.000Z</time>
      </trkpt>
      <trkpt lat="42.492881774902344" lon="-6.702154636383057">
        <ele>616.0</ele>
        <time>2019-04-23T09:18:12.000Z</time>
      </trkpt>
      <trkpt lat="42.49287796020508" lon="-6.702153205871582">
        <ele>616.0</ele>
        <time>2019-04-23T09:18:12.000Z</time>
      </trkpt>
      <trkpt lat="42.49285888671875" lon="-6.702144622802734">
        <ele>616.0</ele>
        <time>2019-04-23T09:18:14.000Z</time>
      </trkpt>
      <trkpt lat="42.492835998535156" lon="-6.7021331787109375">
        <ele>616.0</ele>
        <time>2019-04-23T09:18:15.000Z</time>
      </trkpt>
      <trkpt lat="42.49280548095703" lon="-6.702119827270508">
        <ele>617.0</ele>
        <time>2019-04-23T09:18:17.000Z</time>
      </trkpt>
      <trkpt lat="42.49277114868164" lon="-6.7021050453186035">
        <ele>617.0</ele>
        <time>2019-04-23T09:18:18.000Z</time>
      </trkpt>
      <trkpt lat="42.49275588989258" lon="-6.702099800109863">
        <ele>617.0</ele>
        <time>2019-04-23T09:18:22.000Z</time>
      </trkpt>
      <trkpt lat="42.49274444580078" lon="-6.702096939086914">
        <ele>617.0</ele>
        <time>2019-04-23T09:18:27.000Z</time>
      </trkpt>
      <trkpt lat="42.49273681640625" lon="-6.702095985412598">
        <ele>618.0</ele>
        <time>2019-04-23T09:18:31.000Z</time>
      </trkpt>
      <trkpt lat="42.492733001708984" lon="-6.7020955085754395">
        <ele>618.0</ele>
        <time>2019-04-23T09:18:35.000Z</time>
      </trkpt>
      <trkpt lat="42.49272537231445" lon="-6.702094078063965">
        <ele>618.0</ele>
        <time>2019-04-23T09:18:35.000Z</time>
      </trkpt>
      <trkpt lat="42.49271774291992" lon="-6.702092170715332">
        <ele>618.0</ele>
        <time>2019-04-23T09:18:36.000Z</time>
      </trkpt>
      <trkpt lat="42.49271011352539" lon="-6.702090740203857">
        <ele>618.0</ele>
        <time>2019-04-23T09:18:36.000Z</time>
      </trkpt>
      <trkpt lat="42.492706298828125" lon="-6.702089309692383">
        <ele>618.0</ele>
        <time>2019-04-23T09:18:36.000Z</time>
      </trkpt>
      <trkpt lat="42.4926643371582" lon="-6.702085971832275">
        <ele>618.0</ele>
        <time>2019-04-23T09:18:40.000Z</time>
      </trkpt>
      <trkpt lat="42.492610931396484" lon="-6.70208215713501">
        <ele>619.0</ele>
        <time>2019-04-23T09:18:45.000Z</time>
      </trkpt>
      <trkpt lat="42.49254608154297" lon="-6.702077388763428">
        <ele>620.0</ele>
        <time>2019-04-23T09:18:49.000Z</time>
      </trkpt>
      <trkpt lat="42.49247360229492" lon="-6.702072620391846">
        <ele>620.0</ele>
        <time>2019-04-23T09:18:53.000Z</time>
      </trkpt>
      <trkpt lat="42.492435455322266" lon="-6.702056884765625">
        <ele>622.0</ele>
        <time>2019-04-23T09:19:13.000Z</time>
      </trkpt>
      <trkpt lat="42.492408752441406" lon="-6.702046871185303">
        <ele>622.0</ele>
        <time>2019-04-23T09:19:14.000Z</time>
      </trkpt>
      <trkpt lat="42.49214553833008" lon="-6.7018961906433105">
        <ele>623.0</ele>
        <time>2019-04-23T09:19:37.000Z</time>
      </trkpt>
      <trkpt lat="42.492061614990234" lon="-6.701883316040039">
        <ele>624.0</ele>
        <time>2019-04-23T09:19:55.000Z</time>
      </trkpt>
      <trkpt lat="42.49202346801758" lon="-6.701877593994141">
        <ele>624.0</ele>
        <time>2019-04-23T09:19:56.000Z</time>
      </trkpt>
      <trkpt lat="42.49177932739258" lon="-6.701966285705566">
        <ele>627.0</ele>
        <time>2019-04-23T09:20:18.000Z</time>
      </trkpt>
      <trkpt lat="42.491764068603516" lon="-6.7019944190979">
        <ele>628.0</ele>
        <time>2019-04-23T09:20:50.000Z</time>
      </trkpt>
      <trkpt lat="42.49174880981445" lon="-6.7020182609558105">
        <ele>628.0</ele>
        <time>2019-04-23T09:20:51.000Z</time>
      </trkpt>
      <trkpt lat="42.491615295410156" lon="-6.702176570892334">
        <ele>628.0</ele>
        <time>2019-04-23T09:20:54.000Z</time>
      </trkpt>
      <trkpt lat="42.49153518676758" lon="-6.702205657958984">
        <ele>629.0</ele>
        <time>2019-04-23T09:20:59.000Z</time>
      </trkpt>
      <trkpt lat="42.49144744873047" lon="-6.702210903167725">
        <ele>629.0</ele>
        <time>2019-04-23T09:21:04.000Z</time>
      </trkpt>
      <trkpt lat="42.49140548706055" lon="-6.702230453491211">
        <ele>631.0</ele>
        <time>2019-04-23T09:21:12.000Z</time>
      </trkpt>
      <trkpt lat="42.491363525390625" lon="-6.702254772186279">
        <ele>634.0</ele>
        <time>2019-04-23T09:21:21.000Z</time>
      </trkpt>
      <trkpt lat="42.4913215637207" lon="-6.702282428741455">
        <ele>637.0</ele>
        <time>2019-04-23T09:21:29.000Z</time>
      </trkpt>
      <trkpt lat="42.49127960205078" lon="-6.7023115158081055">
        <ele>641.0</ele>
        <time>2019-04-23T09:21:37.000Z</time>
      </trkpt>
      <trkpt lat="42.49126052856445" lon="-6.70233678817749">
        <ele>644.0</ele>
        <time>2019-04-23T09:22:02.000Z</time>
      </trkpt>
      <trkpt lat="42.491268157958984" lon="-6.70235013961792">
        <ele>647.0</ele>
        <time>2019-04-23T09:22:27.000Z</time>
      </trkpt>
      <trkpt lat="42.491268157958984" lon="-6.702358722686768">
        <ele>647.0</ele>
        <time>2019-04-23T09:22:27.000Z</time>
      </trkpt>
      <trkpt lat="42.49126434326172" lon="-6.702365875244141">
        <ele>647.0</ele>
        <time>2019-04-23T09:22:28.000Z</time>
      </trkpt>
      <trkpt lat="42.49126052856445" lon="-6.702373027801514">
        <ele>647.0</ele>
        <time>2019-04-23T09:22:28.000Z</time>
      </trkpt>
      <trkpt lat="42.49126052856445" lon="-6.702380180358887">
        <ele>647.0</ele>
        <time>2019-04-23T09:22:28.000Z</time>
      </trkpt>
      <trkpt lat="42.49124526977539" lon="-6.702459812164307">
        <ele>647.0</ele>
        <time>2019-04-23T09:22:33.000Z</time>
      </trkpt>
      <trkpt lat="42.49122619628906" lon="-6.702569961547852">
        <ele>646.0</ele>
        <time>2019-04-23T09:22:39.000Z</time>
      </trkpt>
      <trkpt lat="42.49120330810547" lon="-6.702700138092041">
        <ele>646.0</ele>
        <time>2019-04-23T09:22:44.000Z</time>
      </trkpt>
      <trkpt lat="42.491180419921875" lon="-6.702840328216553">
        <ele>646.0</ele>
        <time>2019-04-23T09:22:49.000Z</time>
      </trkpt>
      <trkpt lat="42.491180419921875" lon="-6.702956199645996">
        <ele>646.0</ele>
        <time>2019-04-23T09:22:59.000Z</time>
      </trkpt>
      <trkpt lat="42.49119186401367" lon="-6.703072547912598">
        <ele>645.0</ele>
        <time>2019-04-23T09:23:10.000Z</time>
      </trkpt>
      <trkpt lat="42.491207122802734" lon="-6.703188896179199">
        <ele>644.0</ele>
        <time>2019-04-23T09:23:20.000Z</time>
      </trkpt>
      <trkpt lat="42.49122619628906" lon="-6.703305721282959">
        <ele>643.0</ele>
        <time>2019-04-23T09:23:30.000Z</time>
      </trkpt>
      <trkpt lat="42.49124526977539" lon="-6.703422546386719">
        <ele>642.0</ele>
        <time>2019-04-23T09:23:40.000Z</time>
      </trkpt>
      <trkpt lat="42.491268157958984" lon="-6.703539848327637">
        <ele>641.0</ele>
        <time>2019-04-23T09:23:50.000Z</time>
      </trkpt>
      <trkpt lat="42.491294860839844" lon="-6.703657150268555">
        <ele>641.0</ele>
        <time>2019-04-23T09:24:00.000Z</time>
      </trkpt>
      <trkpt lat="42.4913215637207" lon="-6.703774452209473">
        <ele>641.0</ele>
        <time>2019-04-23T09:24:10.000Z</time>
      </trkpt>
      <trkpt lat="42.49134063720703" lon="-6.70385217666626">
        <ele>640.0</ele>
        <time>2019-04-23T09:24:16.000Z</time>
      </trkpt>
      <trkpt lat="42.491355895996094" lon="-6.703913688659668">
        <ele>639.0</ele>
        <time>2019-04-23T09:24:22.000Z</time>
      </trkpt>
      <trkpt lat="42.49136734008789" lon="-6.7039642333984375">
        <ele>639.0</ele>
        <time>2019-04-23T09:24:28.000Z</time>
      </trkpt>
      <trkpt lat="42.49137878417969" lon="-6.704009532928467">
        <ele>638.0</ele>
        <time>2019-04-23T09:24:34.000Z</time>
      </trkpt>
      <trkpt lat="42.49138641357422" lon="-6.704038143157959">
        <ele>635.0</ele>
        <time>2019-04-23T09:24:51.000Z</time>
      </trkpt>
      <trkpt lat="42.491390228271484" lon="-6.704061508178711">
        <ele>635.0</ele>
        <time>2019-04-23T09:24:52.000Z</time>
      </trkpt>
      <trkpt lat="42.4914665222168" lon="-6.70452356338501">
        <ele>634.0</ele>
        <time>2019-04-23T09:25:09.000Z</time>
      </trkpt>
      <trkpt lat="42.49150085449219" lon="-6.704592227935791">
        <ele>634.0</ele>
        <time>2019-04-23T09:25:20.000Z</time>
      </trkpt>
      <trkpt lat="42.49150848388672" lon="-6.7046122550964355">
        <ele>633.0</ele>
        <time>2019-04-23T09:25:34.000Z</time>
      </trkpt>
      <trkpt lat="42.49150466918945" lon="-6.704626083374023">
        <ele>633.0</ele>
        <time>2019-04-23T09:25:48.000Z</time>
      </trkpt>
      <trkpt lat="42.49150848388672" lon="-6.7046332359313965">
        <ele>632.0</ele>
        <time>2019-04-23T09:25:48.000Z</time>
      </trkpt>
      <trkpt lat="42.49150848388672" lon="-6.7046403884887695">
        <ele>632.0</ele>
        <time>2019-04-23T09:25:49.000Z</time>
      </trkpt>
      <trkpt lat="42.49150848388672" lon="-6.704646587371826">
        <ele>632.0</ele>
        <time>2019-04-23T09:25:49.000Z</time>
      </trkpt>
      <trkpt lat="42.49150848388672" lon="-6.704652786254883">
        <ele>633.0</ele>
        <time>2019-04-23T09:25:49.000Z</time>
      </trkpt>
      <trkpt lat="42.491519927978516" lon="-6.70473575592041">
        <ele>632.0</ele>
        <time>2019-04-23T09:25:54.000Z</time>
      </trkpt>
      <trkpt lat="42.49153137207031" lon="-6.704850673675537">
        <ele>632.0</ele>
        <time>2019-04-23T09:25:59.000Z</time>
      </trkpt>
      <trkpt lat="42.491546630859375" lon="-6.704986572265625">
        <ele>632.0</ele>
        <time>2019-04-23T09:26:04.000Z</time>
      </trkpt>
      <trkpt lat="42.49156188964844" lon="-6.705133438110352">
        <ele>632.0</ele>
        <time>2019-04-23T09:26:09.000Z</time>
      </trkpt>
      <trkpt lat="42.49156951904297" lon="-6.705254077911377">
        <ele>631.0</ele>
        <time>2019-04-23T09:26:17.000Z</time>
      </trkpt>
      <trkpt lat="42.491573333740234" lon="-6.7053751945495605">
        <ele>631.0</ele>
        <time>2019-04-23T09:26:25.000Z</time>
      </trkpt>
      <trkpt lat="42.4915771484375" lon="-6.705496311187744">
        <ele>630.0</ele>
        <time>2019-04-23T09:26:33.000Z</time>
      </trkpt>
      <trkpt lat="42.4915771484375" lon="-6.705617904663086">
        <ele>630.0</ele>
        <time>2019-04-23T09:26:41.000Z</time>
      </trkpt>
      <trkpt lat="42.4915771484375" lon="-6.7057366371154785">
        <ele>629.0</ele>
        <time>2019-04-23T09:26:49.000Z</time>
      </trkpt>
      <trkpt lat="42.4915771484375" lon="-6.705854415893555">
        <ele>628.0</ele>
        <time>2019-04-23T09:26:57.000Z</time>
      </trkpt>
      <trkpt lat="42.4915771484375" lon="-6.705971717834473">
        <ele>627.0</ele>
        <time>2019-04-23T09:27:04.000Z</time>
      </trkpt>
      <trkpt lat="42.4915771484375" lon="-6.706088542938232">
        <ele>626.0</ele>
        <time>2019-04-23T09:27:12.000Z</time>
      </trkpt>
      <trkpt lat="42.491573333740234" lon="-6.7062087059021">
        <ele>625.0</ele>
        <time>2019-04-23T09:27:20.000Z</time>
      </trkpt>
      <trkpt lat="42.49156951904297" lon="-6.706329345703125">
        <ele>625.0</ele>
        <time>2019-04-23T09:27:28.000Z</time>
      </trkpt>
      <trkpt lat="42.4915657043457" lon="-6.706450939178467">
        <ele>624.0</ele>
        <time>2019-04-23T09:27:35.000Z</time>
      </trkpt>
      <trkpt lat="42.49155807495117" lon="-6.706572532653809">
        <ele>624.0</ele>
        <time>2019-04-23T09:27:43.000Z</time>
      </trkpt>
      <trkpt lat="42.49152755737305" lon="-6.707053184509277">
        <ele>620.0</ele>
        <time>2019-04-23T09:28:15.000Z</time>
      </trkpt>
      <trkpt lat="42.49150848388672" lon="-6.707526683807373">
        <ele>614.0</ele>
        <time>2019-04-23T09:28:46.000Z</time>
      </trkpt>
      <trkpt lat="42.49152755737305" lon="-6.7080159187316895">
        <ele>612.0</ele>
        <time>2019-04-23T09:29:14.000Z</time>
      </trkpt>
      <trkpt lat="42.491493225097656" lon="-6.708489418029785">
        <ele>607.0</ele>
        <time>2019-04-23T09:29:44.000Z</time>
      </trkpt>
      <trkpt lat="42.49147415161133" lon="-6.708975791931152">
        <ele>606.0</ele>
        <time>2019-04-23T09:30:13.000Z</time>
      </trkpt>
      <trkpt lat="42.4914665222168" lon="-6.709466934204102">
        <ele>603.0</ele>
        <time>2019-04-23T09:30:43.000Z</time>
      </trkpt>
      <trkpt lat="42.4914665222168" lon="-6.7099480628967285">
        <ele>600.0</ele>
        <time>2019-04-23T09:31:12.000Z</time>
      </trkpt>
      <trkpt lat="42.49147415161133" lon="-6.7104315757751465">
        <ele>594.0</ele>
        <time>2019-04-23T09:31:46.000Z</time>
      </trkpt>
      <trkpt lat="42.49150085449219" lon="-6.710910797119141">
        <ele>588.0</ele>
        <time>2019-04-23T09:32:14.000Z</time>
      </trkpt>
      <trkpt lat="42.49153137207031" lon="-6.711402416229248">
        <ele>584.0</ele>
        <time>2019-04-23T09:32:46.000Z</time>
      </trkpt>
      <trkpt lat="42.49150085449219" lon="-6.711889743804932">
        <ele>584.0</ele>
        <time>2019-04-23T09:33:15.000Z</time>
      </trkpt>
      <trkpt lat="42.49148941040039" lon="-6.712384223937988">
        <ele>586.0</ele>
        <time>2019-04-23T09:33:44.000Z</time>
      </trkpt>
      <trkpt lat="42.49150085449219" lon="-6.712870121002197">
        <ele>582.0</ele>
        <time>2019-04-23T09:34:17.000Z</time>
      </trkpt>
      <trkpt lat="42.491519927978516" lon="-6.713351249694824">
        <ele>582.0</ele>
        <time>2019-04-23T09:34:53.000Z</time>
      </trkpt>
      <trkpt lat="42.491580963134766" lon="-6.713829040527344">
        <ele>579.0</ele>
        <time>2019-04-23T09:35:25.000Z</time>
      </trkpt>
      <trkpt lat="42.491661071777344" lon="-6.71430778503418">
        <ele>576.0</ele>
        <time>2019-04-23T09:35:57.000Z</time>
      </trkpt>
      <trkpt lat="42.49171829223633" lon="-6.714783668518066">
        <ele>575.0</ele>
        <time>2019-04-23T09:36:24.000Z</time>
      </trkpt>
      <trkpt lat="42.49177932739258" lon="-6.7152557373046875">
        <ele>574.0</ele>
        <time>2019-04-23T09:36:56.000Z</time>
      </trkpt>
      <trkpt lat="42.49177551269531" lon="-6.7157301902771">
        <ele>566.0</ele>
        <time>2019-04-23T09:37:28.000Z</time>
      </trkpt>
      <trkpt lat="42.49177932739258" lon="-6.716208457946777">
        <ele>562.0</ele>
        <time>2019-04-23T09:37:58.000Z</time>
      </trkpt>
      <trkpt lat="42.49185562133789" lon="-6.716458797454834">
        <ele>562.0</ele>
        <time>2019-04-23T09:38:23.000Z</time>
      </trkpt>
      <trkpt lat="42.491878509521484" lon="-6.716606616973877">
        <ele>567.0</ele>
        <time>2019-04-23T09:40:58.000Z</time>
      </trkpt>
      <trkpt lat="42.49188995361328" lon="-6.716660499572754">
        <ele>567.0</ele>
        <time>2019-04-23T09:40:59.000Z</time>
      </trkpt>
      <trkpt lat="42.49188232421875" lon="-6.717152118682861">
        <ele>568.0</ele>
        <time>2019-04-23T09:41:23.000Z</time>
      </trkpt>
      <trkpt lat="42.4918098449707" lon="-6.717627048492432">
        <ele>572.0</ele>
        <time>2019-04-23T09:41:55.000Z</time>
      </trkpt>
      <trkpt lat="42.49165725708008" lon="-6.718055248260498">
        <ele>569.0</ele>
        <time>2019-04-23T09:42:27.000Z</time>
      </trkpt>
      <trkpt lat="42.49165725708008" lon="-6.718291282653809">
        <ele>568.0</ele>
        <time>2019-04-23T09:42:43.000Z</time>
      </trkpt>
      <trkpt lat="42.491695404052734" lon="-6.7185378074646">
        <ele>567.0</ele>
        <time>2019-04-23T09:42:58.000Z</time>
      </trkpt>
      <trkpt lat="42.49170684814453" lon="-6.718656063079834">
        <ele>567.0</ele>
        <time>2019-04-23T09:43:05.000Z</time>
      </trkpt>
      <trkpt lat="42.491722106933594" lon="-6.718773365020752">
        <ele>567.0</ele>
        <time>2019-04-23T09:43:13.000Z</time>
      </trkpt>
      <trkpt lat="42.49173355102539" lon="-6.718890190124512">
        <ele>566.0</ele>
        <time>2019-04-23T09:43:20.000Z</time>
      </trkpt>
      <trkpt lat="42.49174880981445" lon="-6.7190070152282715">
        <ele>566.0</ele>
        <time>2019-04-23T09:43:27.000Z</time>
      </trkpt>
      <trkpt lat="42.491764068603516" lon="-6.719124794006348">
        <ele>565.0</ele>
        <time>2019-04-23T09:43:35.000Z</time>
      </trkpt>
      <trkpt lat="42.491783142089844" lon="-6.719243049621582">
        <ele>565.0</ele>
        <time>2019-04-23T09:43:43.000Z</time>
      </trkpt>
      <trkpt lat="42.491798400878906" lon="-6.719361305236816">
        <ele>565.0</ele>
        <time>2019-04-23T09:43:50.000Z</time>
      </trkpt>
      <trkpt lat="42.491817474365234" lon="-6.719480037689209">
        <ele>564.0</ele>
        <time>2019-04-23T09:43:58.000Z</time>
      </trkpt>
      <trkpt lat="42.49183654785156" lon="-6.719597339630127">
        <ele>564.0</ele>
        <time>2019-04-23T09:44:06.000Z</time>
      </trkpt>
      <trkpt lat="42.49185562133789" lon="-6.719714641571045">
        <ele>564.0</ele>
        <time>2019-04-23T09:44:13.000Z</time>
      </trkpt>
      <trkpt lat="42.491878509521484" lon="-6.719831466674805">
        <ele>563.0</ele>
        <time>2019-04-23T09:44:21.000Z</time>
      </trkpt>
      <trkpt lat="42.49189758300781" lon="-6.7199482917785645">
        <ele>563.0</ele>
        <time>2019-04-23T09:44:28.000Z</time>
      </trkpt>
      <trkpt lat="42.49190139770508" lon="-6.720028400421143">
        <ele>563.0</ele>
        <time>2019-04-23T09:44:34.000Z</time>
      </trkpt>
      <trkpt lat="42.49189376831055" lon="-6.7200927734375">
        <ele>563.0</ele>
        <time>2019-04-23T09:44:40.000Z</time>
      </trkpt>
      <trkpt lat="42.49188232421875" lon="-6.720146656036377">
        <ele>563.0</ele>
        <time>2019-04-23T09:44:45.000Z</time>
      </trkpt>
      <trkpt lat="42.49186706542969" lon="-6.720195293426514">
        <ele>563.0</ele>
        <time>2019-04-23T09:44:51.000Z</time>
      </trkpt>
      <trkpt lat="42.49186325073242" lon="-6.720229625701904">
        <ele>563.0</ele>
        <time>2019-04-23T09:44:55.000Z</time>
      </trkpt>
      <trkpt lat="42.49185562133789" lon="-6.720252513885498">
        <ele>562.0</ele>
        <time>2019-04-23T09:44:59.000Z</time>
      </trkpt>
      <trkpt lat="42.49184799194336" lon="-6.720267295837402">
        <ele>562.0</ele>
        <time>2019-04-23T09:45:02.000Z</time>
      </trkpt>
      <trkpt lat="42.491844177246094" lon="-6.720278739929199">
        <ele>561.0</ele>
        <time>2019-04-23T09:45:06.000Z</time>
      </trkpt>
      <trkpt lat="42.49182891845703" lon="-6.720322608947754">
        <ele>561.0</ele>
        <time>2019-04-23T09:45:07.000Z</time>
      </trkpt>
      <trkpt lat="42.49175262451172" lon="-6.7205915451049805">
        <ele>562.0</ele>
        <time>2019-04-23T09:45:17.000Z</time>
      </trkpt>
      <trkpt lat="42.49172592163086" lon="-6.720630168914795">
        <ele>562.0</ele>
        <time>2019-04-23T09:45:22.000Z</time>
      </trkpt>
      <trkpt lat="42.49169158935547" lon="-6.7206573486328125">
        <ele>561.0</ele>
        <time>2019-04-23T09:45:26.000Z</time>
      </trkpt>
      <trkpt lat="42.49165725708008" lon="-6.720676422119141">
        <ele>560.0</ele>
        <time>2019-04-23T09:45:31.000Z</time>
      </trkpt>
      <trkpt lat="42.49161911010742" lon="-6.720691680908203">
        <ele>560.0</ele>
        <time>2019-04-23T09:45:35.000Z</time>
      </trkpt>
      <trkpt lat="42.491573333740234" lon="-6.72076416015625">
        <ele>558.0</ele>
        <time>2019-04-23T09:45:44.000Z</time>
      </trkpt>
      <trkpt lat="42.491519927978516" lon="-6.7208571434021">
        <ele>556.0</ele>
        <time>2019-04-23T09:45:53.000Z</time>
      </trkpt>
      <trkpt lat="42.4914665222168" lon="-6.720963001251221">
        <ele>554.0</ele>
        <time>2019-04-23T09:46:01.000Z</time>
      </trkpt>
      <trkpt lat="42.49140930175781" lon="-6.721075534820557">
        <ele>552.0</ele>
        <time>2019-04-23T09:46:10.000Z</time>
      </trkpt>
      <trkpt lat="42.491390228271484" lon="-6.721108436584473">
        <ele>551.0</ele>
        <time>2019-04-23T09:46:11.000Z</time>
      </trkpt>
      <trkpt lat="42.49138641357422" lon="-6.7211151123046875">
        <ele>551.0</ele>
        <time>2019-04-23T09:46:11.000Z</time>
      </trkpt>
      <trkpt lat="42.49139404296875" lon="-6.721103668212891">
        <ele>551.0</ele>
        <time>2019-04-23T09:46:12.000Z</time>
      </trkpt>
      <trkpt lat="42.49140167236328" lon="-6.721083641052246">
        <ele>551.0</ele>
        <time>2019-04-23T09:46:12.000Z</time>
      </trkpt>
      <trkpt lat="42.49140167236328" lon="-6.721087455749512">
        <ele>550.0</ele>
        <time>2019-04-23T09:46:17.000Z</time>
      </trkpt>
      <trkpt lat="42.491397857666016" lon="-6.721091270446777">
        <ele>550.0</ele>
        <time>2019-04-23T09:46:21.000Z</time>
      </trkpt>
      <trkpt lat="42.49139404296875" lon="-6.721096038818359">
        <ele>549.0</ele>
        <time>2019-04-23T09:46:26.000Z</time>
      </trkpt>
      <trkpt lat="42.491390228271484" lon="-6.7211012840271">
        <ele>549.0</ele>
        <time>2019-04-23T09:46:30.000Z</time>
      </trkpt>
      <trkpt lat="42.49138641357422" lon="-6.721105098724365">
        <ele>548.0</ele>
        <time>2019-04-23T09:46:30.000Z</time>
      </trkpt>
      <trkpt lat="42.49138641357422" lon="-6.721108913421631">
        <ele>548.0</ele>
        <time>2019-04-23T09:46:31.000Z</time>
      </trkpt>
      <trkpt lat="42.49138259887695" lon="-6.721112251281738">
        <ele>548.0</ele>
        <time>2019-04-23T09:46:31.000Z</time>
      </trkpt>
      <trkpt lat="42.49137878417969" lon="-6.721115589141846">
        <ele>549.0</ele>
        <time>2019-04-23T09:46:31.000Z</time>
      </trkpt>
      <trkpt lat="42.49134063720703" lon="-6.721179485321045">
        <ele>548.0</ele>
        <time>2019-04-23T09:46:36.000Z</time>
      </trkpt>
      <trkpt lat="42.49128723144531" lon="-6.721268653869629">
        <ele>548.0</ele>
        <time>2019-04-23T09:46:41.000Z</time>
      </trkpt>
      <trkpt lat="42.49121856689453" lon="-6.721374988555908">
        <ele>547.0</ele>
        <time>2019-04-23T09:46:45.000Z</time>
      </trkpt>
      <trkpt lat="42.49114990234375" lon="-6.721488952636719">
        <ele>547.0</ele>
        <time>2019-04-23T09:46:50.000Z</time>
      </trkpt>
      <trkpt lat="42.49114990234375" lon="-6.721497535705566">
        <ele>546.0</ele>
        <time>2019-04-23T09:46:52.000Z</time>
      </trkpt>
      <trkpt lat="42.49111557006836" lon="-6.721568584442139">
        <ele>545.0</ele>
        <time>2019-04-23T09:47:07.000Z</time>
      </trkpt>
      <trkpt lat="42.49109649658203" lon="-6.721607685089111">
        <ele>545.0</ele>
        <time>2019-04-23T09:47:08.000Z</time>
      </trkpt>
      <trkpt lat="42.49092483520508" lon="-6.722017765045166">
        <ele>546.0</ele>
        <time>2019-04-23T09:47:28.000Z</time>
      </trkpt>
      <trkpt lat="42.490753173828125" lon="-6.722438812255859">
        <ele>545.0</ele>
        <time>2019-04-23T09:48:01.000Z</time>
      </trkpt>
      <trkpt lat="42.49068069458008" lon="-6.7229132652282715">
        <ele>547.0</ele>
        <time>2019-04-23T09:48:29.000Z</time>
      </trkpt>
      <trkpt lat="42.49068069458008" lon="-6.723017692565918">
        <ele>549.0</ele>
        <time>2019-04-23T09:48:44.000Z</time>
      </trkpt>
      <trkpt lat="42.49066925048828" lon="-6.723053455352783">
        <ele>556.0</ele>
        <time>2019-04-23T09:50:15.000Z</time>
      </trkpt>
      <trkpt lat="42.49066162109375" lon="-6.723080158233643">
        <ele>556.0</ele>
        <time>2019-04-23T09:50:16.000Z</time>
      </trkpt>
      <trkpt lat="42.490631103515625" lon="-6.723272323608398">
        <ele>558.0</ele>
        <time>2019-04-23T09:50:21.000Z</time>
      </trkpt>
      <trkpt lat="42.49063491821289" lon="-6.723330974578857">
        <ele>558.0</ele>
        <time>2019-04-23T09:50:26.000Z</time>
      </trkpt>
      <trkpt lat="42.49064636230469" lon="-6.723371982574463">
        <ele>559.0</ele>
        <time>2019-04-23T09:50:31.000Z</time>
      </trkpt>
      <trkpt lat="42.49064254760742" lon="-6.723394393920898">
        <ele>559.0</ele>
        <time>2019-04-23T09:50:50.000Z</time>
      </trkpt>
      <trkpt lat="42.490638732910156" lon="-6.723404407501221">
        <ele>558.0</ele>
        <time>2019-04-23T09:51:08.000Z</time>
      </trkpt>
      <trkpt lat="42.49063491821289" lon="-6.7234110832214355">
        <ele>558.0</ele>
        <time>2019-04-23T09:51:09.000Z</time>
      </trkpt>
      <trkpt lat="42.49063491821289" lon="-6.72341775894165">
        <ele>558.0</ele>
        <time>2019-04-23T09:51:09.000Z</time>
      </trkpt>
      <trkpt lat="42.490631103515625" lon="-6.723423957824707">
        <ele>558.0</ele>
        <time>2019-04-23T09:51:09.000Z</time>
      </trkpt>
      <trkpt lat="42.490631103515625" lon="-6.7234296798706055">
        <ele>558.0</ele>
        <time>2019-04-23T09:51:09.000Z</time>
      </trkpt>
      <trkpt lat="42.490623474121094" lon="-6.723510265350342">
        <ele>558.0</ele>
        <time>2019-04-23T09:51:14.000Z</time>
      </trkpt>
      <trkpt lat="42.49061584472656" lon="-6.723621845245361">
        <ele>558.0</ele>
        <time>2019-04-23T09:51:18.000Z</time>
      </trkpt>
      <trkpt lat="42.49060821533203" lon="-6.723753929138184">
        <ele>557.0</ele>
        <time>2019-04-23T09:51:23.000Z</time>
      </trkpt>
      <trkpt lat="42.4906005859375" lon="-6.723896503448486">
        <ele>557.0</ele>
        <time>2019-04-23T09:51:27.000Z</time>
      </trkpt>
      <trkpt lat="42.490665435791016" lon="-6.724113464355469">
        <ele>554.0</ele>
        <time>2019-04-23T09:51:44.000Z</time>
      </trkpt>
      <trkpt lat="42.49076461791992" lon="-6.7243218421936035">
        <ele>551.0</ele>
        <time>2019-04-23T09:52:00.000Z</time>
      </trkpt>
      <trkpt lat="42.490787506103516" lon="-6.72443151473999">
        <ele>549.0</ele>
        <time>2019-04-23T09:52:08.000Z</time>
      </trkpt>
      <trkpt lat="42.49079895019531" lon="-6.724542617797852">
        <ele>549.0</ele>
        <time>2019-04-23T09:52:16.000Z</time>
      </trkpt>
      <trkpt lat="42.49081039428711" lon="-6.724654197692871">
        <ele>548.0</ele>
        <time>2019-04-23T09:52:24.000Z</time>
      </trkpt>
      <trkpt lat="42.490814208984375" lon="-6.724766254425049">
        <ele>547.0</ele>
        <time>2019-04-23T09:52:32.000Z</time>
      </trkpt>
      <trkpt lat="42.49081802368164" lon="-6.724806785583496">
        <ele>546.0</ele>
        <time>2019-04-23T09:52:35.000Z</time>
      </trkpt>
      <trkpt lat="42.49081802368164" lon="-6.724817276000977">
        <ele>546.0</ele>
        <time>2019-04-23T09:52:38.000Z</time>
      </trkpt>
      <trkpt lat="42.49081802368164" lon="-6.724808216094971">
        <ele>546.0</ele>
        <time>2019-04-23T09:52:41.000Z</time>
      </trkpt>
      <trkpt lat="42.490814208984375" lon="-6.724789142608643">
        <ele>545.0</ele>
        <time>2019-04-23T09:52:44.000Z</time>
      </trkpt>
      <trkpt lat="42.490814208984375" lon="-6.724794387817383">
        <ele>545.0</ele>
        <time>2019-04-23T09:52:45.000Z</time>
      </trkpt>
      <trkpt lat="42.490814208984375" lon="-6.724799633026123">
        <ele>545.0</ele>
        <time>2019-04-23T09:52:45.000Z</time>
      </trkpt>
      <trkpt lat="42.49081802368164" lon="-6.724804401397705">
        <ele>545.0</ele>
        <time>2019-04-23T09:52:45.000Z</time>
      </trkpt>
      <trkpt lat="42.49081802368164" lon="-6.724809169769287">
        <ele>545.0</ele>
        <time>2019-04-23T09:52:45.000Z</time>
      </trkpt>
      <trkpt lat="42.49082946777344" lon="-6.724886894226074">
        <ele>546.0</ele>
        <time>2019-04-23T09:52:49.000Z</time>
      </trkpt>
      <trkpt lat="42.490848541259766" lon="-6.7249956130981445">
        <ele>546.0</ele>
        <time>2019-04-23T09:52:53.000Z</time>
      </trkpt>
      <trkpt lat="42.490867614746094" lon="-6.725124835968018">
        <ele>546.0</ele>
        <time>2019-04-23T09:52:57.000Z</time>
      </trkpt>
      <trkpt lat="42.49089050292969" lon="-6.725264072418213">
        <ele>547.0</ele>
        <time>2019-04-23T09:53:01.000Z</time>
      </trkpt>
      <trkpt lat="42.490936279296875" lon="-6.725360870361328">
        <ele>547.0</ele>
        <time>2019-04-23T09:53:07.000Z</time>
      </trkpt>
      <trkpt lat="42.49098205566406" lon="-6.725397109985352">
        <ele>547.0</ele>
        <time>2019-04-23T09:53:13.000Z</time>
      </trkpt>
      <trkpt lat="42.49099349975586" lon="-6.725410461425781">
        <ele>546.0</ele>
        <time>2019-04-23T09:53:16.000Z</time>
      </trkpt>
      <trkpt lat="42.49099349975586" lon="-6.725414752960205">
        <ele>546.0</ele>
        <time>2019-04-23T09:53:19.000Z</time>
      </trkpt>
      <trkpt lat="42.49099349975586" lon="-6.725413799285889">
        <ele>545.0</ele>
        <time>2019-04-23T09:53:22.000Z</time>
      </trkpt>
      <trkpt lat="42.490989685058594" lon="-6.725409507751465">
        <ele>544.0</ele>
        <time>2019-04-23T09:53:25.000Z</time>
      </trkpt>
      <trkpt lat="42.49099349975586" lon="-6.725412845611572">
        <ele>544.0</ele>
        <time>2019-04-23T09:53:26.000Z</time>
      </trkpt>
      <trkpt lat="42.49099349975586" lon="-6.725415229797363">
        <ele>544.0</ele>
        <time>2019-04-23T09:53:26.000Z</time>
      </trkpt>
      <trkpt lat="42.49099349975586" lon="-6.7254180908203125">
        <ele>544.0</ele>
        <time>2019-04-23T09:53:26.000Z</time>
      </trkpt>
      <trkpt lat="42.490997314453125" lon="-6.725420951843262">
        <ele>544.0</ele>
        <time>2019-04-23T09:53:26.000Z</time>
      </trkpt>
      <trkpt lat="42.49102783203125" lon="-6.725468635559082">
        <ele>544.0</ele>
        <time>2019-04-23T09:53:30.000Z</time>
      </trkpt>
      <trkpt lat="42.49107360839844" lon="-6.7255353927612305">
        <ele>544.0</ele>
        <time>2019-04-23T09:53:34.000Z</time>
      </trkpt>
      <trkpt lat="42.49112319946289" lon="-6.725614547729492">
        <ele>544.0</ele>
        <time>2019-04-23T09:53:38.000Z</time>
      </trkpt>
      <trkpt lat="42.491180419921875" lon="-6.725700378417969">
        <ele>544.0</ele>
        <time>2019-04-23T09:53:42.000Z</time>
      </trkpt>
      <trkpt lat="42.49120330810547" lon="-6.725728988647461">
        <ele>544.0</ele>
        <time>2019-04-23T09:53:46.000Z</time>
      </trkpt>
      <trkpt lat="42.491214752197266" lon="-6.725740909576416">
        <ele>544.0</ele>
        <time>2019-04-23T09:53:50.000Z</time>
      </trkpt>
      <trkpt lat="42.49121856689453" lon="-6.725741386413574">
        <ele>544.0</ele>
        <time>2019-04-23T09:53:54.000Z</time>
      </trkpt>
      <trkpt lat="42.49121856689453" lon="-6.725735664367676">
        <ele>544.0</ele>
        <time>2019-04-23T09:53:57.000Z</time>
      </trkpt>
      <trkpt lat="42.49122619628906" lon="-6.725742816925049">
        <ele>544.0</ele>
        <time>2019-04-23T09:53:58.000Z</time>
      </trkpt>
      <trkpt lat="42.491233825683594" lon="-6.725748538970947">
        <ele>544.0</ele>
        <time>2019-04-23T09:53:58.000Z</time>
      </trkpt>
      <trkpt lat="42.49123764038086" lon="-6.725754261016846">
        <ele>544.0</ele>
        <time>2019-04-23T09:53:58.000Z</time>
      </trkpt>
      <trkpt lat="42.49124526977539" lon="-6.725759506225586">
        <ele>544.0</ele>
        <time>2019-04-23T09:53:58.000Z</time>
      </trkpt>
      <trkpt lat="42.491451263427734" lon="-6.726016521453857">
        <ele>543.0</ele>
        <time>2019-04-23T09:54:18.000Z</time>
      </trkpt>
      <trkpt lat="42.49146270751953" lon="-6.7260637283325195">
        <ele>543.0</ele>
        <time>2019-04-23T09:54:21.000Z</time>
      </trkpt>
      <trkpt lat="42.491455078125" lon="-6.726103782653809">
        <ele>543.0</ele>
        <time>2019-04-23T09:54:23.000Z</time>
      </trkpt>
      <trkpt lat="42.49143600463867" lon="-6.726139545440674">
        <ele>544.0</ele>
        <time>2019-04-23T09:54:26.000Z</time>
      </trkpt>
      <trkpt lat="42.49141311645508" lon="-6.72617244720459">
        <ele>544.0</ele>
        <time>2019-04-23T09:54:28.000Z</time>
      </trkpt>
      <trkpt lat="42.49142074584961" lon="-6.726188659667969">
        <ele>544.0</ele>
        <time>2019-04-23T09:54:30.000Z</time>
      </trkpt>
      <trkpt lat="42.49143981933594" lon="-6.726194858551025">
        <ele>544.0</ele>
        <time>2019-04-23T09:54:31.000Z</time>
      </trkpt>
      <trkpt lat="42.49146270751953" lon="-6.726194381713867">
        <ele>544.0</ele>
        <time>2019-04-23T09:54:33.000Z</time>
      </trkpt>
      <trkpt lat="42.491485595703125" lon="-6.72619104385376">
        <ele>544.0</ele>
        <time>2019-04-23T09:54:34.000Z</time>
      </trkpt>
      <trkpt lat="42.49151611328125" lon="-6.7261786460876465">
        <ele>544.0</ele>
        <time>2019-04-23T09:54:42.000Z</time>
      </trkpt>
      <trkpt lat="42.491546630859375" lon="-6.726155757904053">
        <ele>544.0</ele>
        <time>2019-04-23T09:54:49.000Z</time>
      </trkpt>
      <trkpt lat="42.49155807495117" lon="-6.726149559020996">
        <ele>544.0</ele>
        <time>2019-04-23T09:54:50.000Z</time>
      </trkpt>
      <trkpt lat="42.4915657043457" lon="-6.726144790649414">
        <ele>544.0</ele>
        <time>2019-04-23T09:54:50.000Z</time>
      </trkpt>
      <trkpt lat="42.491573333740234" lon="-6.726140975952148">
        <ele>544.0</ele>
        <time>2019-04-23T09:54:50.000Z</time>
      </trkpt>
      <trkpt lat="42.4915771484375" lon="-6.726137638092041">
        <ele>544.0</ele>
        <time>2019-04-23T09:54:50.000Z</time>
      </trkpt>
      <trkpt lat="42.49159240722656" lon="-6.726125240325928">
        <ele>544.0</ele>
        <time>2019-04-23T09:54:51.000Z</time>
      </trkpt>
      <trkpt lat="42.491607666015625" lon="-6.726109027862549">
        <ele>545.0</ele>
        <time>2019-04-23T09:54:51.000Z</time>
      </trkpt>
      <trkpt lat="42.49162292480469" lon="-6.726090908050537">
        <ele>545.0</ele>
        <time>2019-04-23T09:54:52.000Z</time>
      </trkpt>
      <trkpt lat="42.491641998291016" lon="-6.726071834564209">
        <ele>545.0</ele>
        <time>2019-04-23T09:54:52.000Z</time>
      </trkpt>
      <trkpt lat="42.49164962768555" lon="-6.726052761077881">
        <ele>546.0</ele>
        <time>2019-04-23T09:54:55.000Z</time>
      </trkpt>
      <trkpt lat="42.49165344238281" lon="-6.726032733917236">
        <ele>547.0</ele>
        <time>2019-04-23T09:54:57.000Z</time>
      </trkpt>
      <trkpt lat="42.49165344238281" lon="-6.726012229919434">
        <ele>549.0</ele>
        <time>2019-04-23T09:54:59.000Z</time>
      </trkpt>
      <trkpt lat="42.49165344238281" lon="-6.7259907722473145">
        <ele>550.0</ele>
        <time>2019-04-23T09:55:01.000Z</time>
      </trkpt>
      <trkpt lat="42.49165344238281" lon="-6.725989818572998">
        <ele>553.0</ele>
        <time>2019-04-23T09:55:32.000Z</time>
      </trkpt>
      <trkpt lat="42.49165344238281" lon="-6.725996494293213">
        <ele>556.0</ele>
        <time>2019-04-23T09:56:03.000Z</time>
      </trkpt>
      <trkpt lat="42.49164962768555" lon="-6.726008892059326">
        <ele>560.0</ele>
        <time>2019-04-23T09:56:34.000Z</time>
      </trkpt>
      <trkpt lat="42.49164962768555" lon="-6.726024150848389">
        <ele>564.0</ele>
        <time>2019-04-23T09:57:05.000Z</time>
      </trkpt>
      <trkpt lat="42.49164581298828" lon="-6.7260308265686035">
        <ele>566.0</ele>
        <time>2019-04-23T09:57:06.000Z</time>
      </trkpt>
      <trkpt lat="42.49164581298828" lon="-6.726037502288818">
        <ele>566.0</ele>
        <time>2019-04-23T09:57:06.000Z</time>
      </trkpt>
      <trkpt lat="42.49164581298828" lon="-6.726043701171875">
        <ele>565.0</ele>
        <time>2019-04-23T09:57:06.000Z</time>
      </trkpt>
      <trkpt lat="42.49164581298828" lon="-6.726049423217773">
        <ele>564.0</ele>
        <time>2019-04-23T09:57:06.000Z</time>
      </trkpt>
      <trkpt lat="42.491641998291016" lon="-6.726064682006836">
        <ele>564.0</ele>
        <time>2019-04-23T09:57:07.000Z</time>
      </trkpt>
      <trkpt lat="42.49163818359375" lon="-6.726083278656006">
        <ele>564.0</ele>
        <time>2019-04-23T09:57:08.000Z</time>
      </trkpt>
      <trkpt lat="42.491634368896484" lon="-6.726104736328125">
        <ele>564.0</ele>
        <time>2019-04-23T09:57:09.000Z</time>
      </trkpt>
      <trkpt lat="42.49163055419922" lon="-6.7261271476745605">
        <ele>564.0</ele>
        <time>2019-04-23T09:57:09.000Z</time>
      </trkpt>
      <trkpt lat="42.49162673950195" lon="-6.726168632507324">
        <ele>564.0</ele>
        <time>2019-04-23T09:57:13.000Z</time>
      </trkpt>
      <trkpt lat="42.491615295410156" lon="-6.72622013092041">
        <ele>564.0</ele>
        <time>2019-04-23T09:57:16.000Z</time>
      </trkpt>
      <trkpt lat="42.491607666015625" lon="-6.7262773513793945">
        <ele>564.0</ele>
        <time>2019-04-23T09:57:19.000Z</time>
      </trkpt>
      <trkpt lat="42.49159622192383" lon="-6.726337909698486">
        <ele>564.0</ele>
        <time>2019-04-23T09:57:22.000Z</time>
      </trkpt>
      <trkpt lat="42.491573333740234" lon="-6.726382732391357">
        <ele>564.0</ele>
        <time>2019-04-23T09:57:25.000Z</time>
      </trkpt>
      <trkpt lat="42.49154281616211" lon="-6.7263994216918945">
        <ele>564.0</ele>
        <time>2019-04-23T09:57:27.000Z</time>
      </trkpt>
      <trkpt lat="42.4915657043457" lon="-6.726450443267822">
        <ele>564.0</ele>
        <time>2019-04-23T09:57:32.000Z</time>
      </trkpt>
      <trkpt lat="42.49160385131836" lon="-6.726516246795654">
        <ele>564.0</ele>
        <time>2019-04-23T09:57:36.000Z</time>
      </trkpt>
      <trkpt lat="42.49165344238281" lon="-6.726592063903809">
        <ele>564.0</ele>
        <time>2019-04-23T09:57:40.000Z</time>
      </trkpt>
      <trkpt lat="42.49170684814453" lon="-6.726672649383545">
        <ele>564.0</ele>
        <time>2019-04-23T09:57:44.000Z</time>
      </trkpt>
      <trkpt lat="42.49171447753906" lon="-6.72671365737915">
        <ele>564.0</ele>
        <time>2019-04-23T09:57:48.000Z</time>
      </trkpt>
      <trkpt lat="42.4917106628418" lon="-6.726743221282959">
        <ele>563.0</ele>
        <time>2019-04-23T09:57:53.000Z</time>
      </trkpt>
      <trkpt lat="42.491695404052734" lon="-6.726765155792236">
        <ele>562.0</ele>
        <time>2019-04-23T09:57:57.000Z</time>
      </trkpt>
      <trkpt lat="42.491676330566406" lon="-6.726783275604248">
        <ele>561.0</ele>
        <time>2019-04-23T09:58:01.000Z</time>
      </trkpt>
      <trkpt lat="42.49168014526367" lon="-6.726799011230469">
        <ele>559.0</ele>
        <time>2019-04-23T09:58:10.000Z</time>
      </trkpt>
      <trkpt lat="42.49168395996094" lon="-6.726809978485107">
        <ele>557.0</ele>
        <time>2019-04-23T09:58:19.000Z</time>
      </trkpt>
      <trkpt lat="42.49169158935547" lon="-6.726817607879639">
        <ele>555.0</ele>
        <time>2019-04-23T09:58:27.000Z</time>
      </trkpt>
      <trkpt lat="42.491703033447266" lon="-6.726823806762695">
        <ele>552.0</ele>
        <time>2019-04-23T09:58:36.000Z</time>
      </trkpt>
      <trkpt lat="42.49170684814453" lon="-6.726831912994385">
        <ele>551.0</ele>
        <time>2019-04-23T09:58:36.000Z</time>
      </trkpt>
      <trkpt lat="42.4917106628418" lon="-6.726839065551758">
        <ele>551.0</ele>
        <time>2019-04-23T09:58:37.000Z</time>
      </trkpt>
      <trkpt lat="42.49171447753906" lon="-6.726845741271973">
        <ele>552.0</ele>
        <time>2019-04-23T09:58:37.000Z</time>
      </trkpt>
      <trkpt lat="42.49171829223633" lon="-6.726851940155029">
        <ele>552.0</ele>
        <time>2019-04-23T09:58:37.000Z</time>
      </trkpt>
      <trkpt lat="42.49174499511719" lon="-6.726891040802002">
        <ele>552.0</ele>
        <time>2019-04-23T09:58:40.000Z</time>
      </trkpt>
      <trkpt lat="42.49177932739258" lon="-6.726943016052246">
        <ele>551.0</ele>
        <time>2019-04-23T09:58:43.000Z</time>
      </trkpt>
      <trkpt lat="42.491817474365234" lon="-6.727004051208496">
        <ele>551.0</ele>
        <time>2019-04-23T09:58:46.000Z</time>
      </trkpt>
      <trkpt lat="42.491859436035156" lon="-6.72706937789917">
        <ele>550.0</ele>
        <time>2019-04-23T09:58:49.000Z</time>
      </trkpt>
      <trkpt lat="42.49187088012695" lon="-6.727091312408447">
        <ele>550.0</ele>
        <time>2019-04-23T09:58:52.000Z</time>
      </trkpt>
      <trkpt lat="42.49187469482422" lon="-6.727099418640137">
        <ele>549.0</ele>
        <time>2019-04-23T09:58:56.000Z</time>
      </trkpt>
      <trkpt lat="42.49187469482422" lon="-6.72709846496582">
        <ele>548.0</ele>
        <time>2019-04-23T09:58:59.000Z</time>
      </trkpt>
      <trkpt lat="42.49186706542969" lon="-6.72709321975708">
        <ele>548.0</ele>
        <time>2019-04-23T09:59:02.000Z</time>
      </trkpt>
      <trkpt lat="42.49187088012695" lon="-6.72709846496582">
        <ele>548.0</ele>
        <time>2019-04-23T09:59:02.000Z</time>
      </trkpt>
      <trkpt lat="42.49187088012695" lon="-6.727103233337402">
        <ele>548.0</ele>
        <time>2019-04-23T09:59:03.000Z</time>
      </trkpt>
      <trkpt lat="42.49187469482422" lon="-6.727108001708984">
        <ele>548.0</ele>
        <time>2019-04-23T09:59:03.000Z</time>
      </trkpt>
      <trkpt lat="42.49187469482422" lon="-6.727112770080566">
        <ele>548.0</ele>
        <time>2019-04-23T09:59:03.000Z</time>
      </trkpt>
      <trkpt lat="42.49189376831055" lon="-6.727190017700195">
        <ele>547.0</ele>
        <time>2019-04-23T09:59:07.000Z</time>
      </trkpt>
      <trkpt lat="42.491920471191406" lon="-6.727297782897949">
        <ele>547.0</ele>
        <time>2019-04-23T09:59:11.000Z</time>
      </trkpt>
      <trkpt lat="42.4919548034668" lon="-6.727426052093506">
        <ele>546.0</ele>
        <time>2019-04-23T09:59:15.000Z</time>
      </trkpt>
      <trkpt lat="42.49198913574219" lon="-6.727564334869385">
        <ele>546.0</ele>
        <time>2019-04-23T09:59:20.000Z</time>
      </trkpt>
      <trkpt lat="42.49198913574219" lon="-6.72765588760376">
        <ele>545.0</ele>
        <time>2019-04-23T09:59:25.000Z</time>
      </trkpt>
      <trkpt lat="42.491966247558594" lon="-6.727685928344727">
        <ele>545.0</ele>
        <time>2019-04-23T09:59:31.000Z</time>
      </trkpt>
      <trkpt lat="42.49196243286133" lon="-6.7277045249938965">
        <ele>545.0</ele>
        <time>2019-04-23T09:59:34.000Z</time>
      </trkpt>
      <trkpt lat="42.49196243286133" lon="-6.727718353271484">
        <ele>545.0</ele>
        <time>2019-04-23T09:59:37.000Z</time>
      </trkpt>
      <trkpt lat="42.491966247558594" lon="-6.727729320526123">
        <ele>545.0</ele>
        <time>2019-04-23T09:59:40.000Z</time>
      </trkpt>
      <trkpt lat="42.491966247558594" lon="-6.727738380432129">
        <ele>545.0</ele>
        <time>2019-04-23T09:59:43.000Z</time>
      </trkpt>
      <trkpt lat="42.491966247558594" lon="-6.727748870849609">
        <ele>545.0</ele>
        <time>2019-04-23T09:59:44.000Z</time>
      </trkpt>
      <trkpt lat="42.491966247558594" lon="-6.727758407592773">
        <ele>545.0</ele>
        <time>2019-04-23T09:59:44.000Z</time>
      </trkpt>
      <trkpt lat="42.491966247558594" lon="-6.727767467498779">
        <ele>545.0</ele>
        <time>2019-04-23T09:59:44.000Z</time>
      </trkpt>
      <trkpt lat="42.491966247558594" lon="-6.727775573730469">
        <ele>545.0</ele>
        <time>2019-04-23T09:59:44.000Z</time>
      </trkpt>
      <trkpt lat="42.491966247558594" lon="-6.72783899307251">
        <ele>545.0</ele>
        <time>2019-04-23T09:59:48.000Z</time>
      </trkpt>
      <trkpt lat="42.491966247558594" lon="-6.727924823760986">
        <ele>545.0</ele>
        <time>2019-04-23T09:59:52.000Z</time>
      </trkpt>
      <trkpt lat="42.491966247558594" lon="-6.728025913238525">
        <ele>545.0</ele>
        <time>2019-04-23T09:59:56.000Z</time>
      </trkpt>
      <trkpt lat="42.491966247558594" lon="-6.728134632110596">
        <ele>545.0</ele>
        <time>2019-04-23T10:00:00.000Z</time>
      </trkpt>
      <trkpt lat="42.491966247558594" lon="-6.728174209594727">
        <ele>545.0</ele>
        <time>2019-04-23T10:00:04.000Z</time>
      </trkpt>
      <trkpt lat="42.49197006225586" lon="-6.728192329406738">
        <ele>545.0</ele>
        <time>2019-04-23T10:00:08.000Z</time>
      </trkpt>
      <trkpt lat="42.491973876953125" lon="-6.728196620941162">
        <ele>545.0</ele>
        <time>2019-04-23T10:00:12.000Z</time>
      </trkpt>
      <trkpt lat="42.491973876953125" lon="-6.728193759918213">
        <ele>545.0</ele>
        <time>2019-04-23T10:00:16.000Z</time>
      </trkpt>
      <trkpt lat="42.49197769165039" lon="-6.728204727172852">
        <ele>545.0</ele>
        <time>2019-04-23T10:00:17.000Z</time>
      </trkpt>
      <trkpt lat="42.49197769165039" lon="-6.728214740753174">
        <ele>545.0</ele>
        <time>2019-04-23T10:00:17.000Z</time>
      </trkpt>
      <trkpt lat="42.491981506347656" lon="-6.72822380065918">
        <ele>545.0</ele>
        <time>2019-04-23T10:00:17.000Z</time>
      </trkpt>
      <trkpt lat="42.491981506347656" lon="-6.728232383728027">
        <ele>545.0</ele>
        <time>2019-04-23T10:00:17.000Z</time>
      </trkpt>
      <trkpt lat="42.49199676513672" lon="-6.728343486785889">
        <ele>545.0</ele>
        <time>2019-04-23T10:00:20.000Z</time>
      </trkpt>
      <trkpt lat="42.492008209228516" lon="-6.728400230407715">
        <ele>546.0</ele>
        <time>2019-04-23T10:00:30.000Z</time>
      </trkpt>
      <trkpt lat="42.49201583862305" lon="-6.728437423706055">
        <ele>546.0</ele>
        <time>2019-04-23T10:00:31.000Z</time>
      </trkpt>
      <trkpt lat="42.492164611816406" lon="-6.728870391845703">
        <ele>546.0</ele>
        <time>2019-04-23T10:00:49.000Z</time>
      </trkpt>
      <trkpt lat="42.492252349853516" lon="-6.729094982147217">
        <ele>550.0</ele>
        <time>2019-04-23T10:01:02.000Z</time>
      </trkpt>
      <trkpt lat="42.492374420166016" lon="-6.7295355796813965">
        <ele>560.0</ele>
        <time>2019-04-23T10:01:33.000Z</time>
      </trkpt>
      <trkpt lat="42.49237823486328" lon="-6.729539394378662">
        <ele>560.0</ele>
        <time>2019-04-23T10:01:34.000Z</time>
      </trkpt>
      <trkpt lat="42.49238967895508" lon="-6.729569911956787">
        <ele>562.0</ele>
        <time>2019-04-23T10:01:47.000Z</time>
      </trkpt>
      <trkpt lat="42.49239730834961" lon="-6.729593753814697">
        <ele>562.0</ele>
        <time>2019-04-23T10:01:48.000Z</time>
      </trkpt>
      <trkpt lat="42.492576599121094" lon="-6.729992389678955">
        <ele>560.0</ele>
        <time>2019-04-23T10:02:02.000Z</time>
      </trkpt>
      <trkpt lat="42.492679595947266" lon="-6.730301380157471">
        <ele>561.0</ele>
        <time>2019-04-23T10:02:29.000Z</time>
      </trkpt>
      <trkpt lat="42.492706298828125" lon="-6.730338096618652">
        <ele>560.0</ele>
        <time>2019-04-23T10:02:30.000Z</time>
      </trkpt>
      <trkpt lat="42.49273681640625" lon="-6.730357646942139">
        <ele>560.0</ele>
        <time>2019-04-23T10:02:31.000Z</time>
      </trkpt>
      <trkpt lat="42.49277114868164" lon="-6.730366230010986">
        <ele>559.0</ele>
        <time>2019-04-23T10:02:33.000Z</time>
      </trkpt>
      <trkpt lat="42.492801666259766" lon="-6.730368614196777">
        <ele>559.0</ele>
        <time>2019-04-23T10:02:34.000Z</time>
      </trkpt>
      <trkpt lat="42.492889404296875" lon="-6.730544567108154">
        <ele>556.0</ele>
        <time>2019-04-23T10:02:52.000Z</time>
      </trkpt>
      <trkpt lat="42.492984771728516" lon="-6.730786323547363">
        <ele>552.0</ele>
        <time>2019-04-23T10:03:11.000Z</time>
      </trkpt>
      <trkpt lat="42.493019104003906" lon="-6.731019496917725">
        <ele>549.0</ele>
        <time>2019-04-23T10:03:25.000Z</time>
      </trkpt>
      <trkpt lat="42.4930305480957" lon="-6.731264591217041">
        <ele>545.0</ele>
        <time>2019-04-23T10:03:40.000Z</time>
      </trkpt>
      <trkpt lat="42.4930419921875" lon="-6.731385707855225">
        <ele>544.0</ele>
        <time>2019-04-23T10:03:49.000Z</time>
      </trkpt>
      <trkpt lat="42.4930534362793" lon="-6.731507301330566">
        <ele>544.0</ele>
        <time>2019-04-23T10:03:57.000Z</time>
      </trkpt>
      <trkpt lat="42.493064880371094" lon="-6.731629848480225">
        <ele>543.0</ele>
        <time>2019-04-23T10:04:06.000Z</time>
      </trkpt>
      <trkpt lat="42.493080139160156" lon="-6.731751918792725">
        <ele>543.0</ele>
        <time>2019-04-23T10:04:15.000Z</time>
      </trkpt>
      <trkpt lat="42.49309539794922" lon="-6.731871604919434">
        <ele>543.0</ele>
        <time>2019-04-23T10:04:22.000Z</time>
      </trkpt>
      <trkpt lat="42.49311828613281" lon="-6.731990337371826">
        <ele>543.0</ele>
        <time>2019-04-23T10:04:28.000Z</time>
      </trkpt>
      <trkpt lat="42.493141174316406" lon="-6.732108116149902">
        <ele>542.0</ele>
        <time>2019-04-23T10:04:35.000Z</time>
      </trkpt>
      <trkpt lat="42.4931640625" lon="-6.7322258949279785">
        <ele>542.0</ele>
        <time>2019-04-23T10:04:42.000Z</time>
      </trkpt>
      <trkpt lat="42.493186950683594" lon="-6.732342720031738">
        <ele>542.0</ele>
        <time>2019-04-23T10:04:49.000Z</time>
      </trkpt>
      <trkpt lat="42.49320983886719" lon="-6.732459545135498">
        <ele>542.0</ele>
        <time>2019-04-23T10:04:57.000Z</time>
      </trkpt>
      <trkpt lat="42.49323272705078" lon="-6.732575416564941">
        <ele>543.0</ele>
        <time>2019-04-23T10:05:04.000Z</time>
      </trkpt>
      <trkpt lat="42.493255615234375" lon="-6.732691287994385">
        <ele>544.0</ele>
        <time>2019-04-23T10:05:12.000Z</time>
      </trkpt>
      <trkpt lat="42.4932861328125" lon="-6.732804298400879">
        <ele>543.0</ele>
        <time>2019-04-23T10:05:20.000Z</time>
      </trkpt>
      <trkpt lat="42.49332046508789" lon="-6.732915878295898">
        <ele>542.0</ele>
        <time>2019-04-23T10:05:28.000Z</time>
      </trkpt>
      <trkpt lat="42.49335479736328" lon="-6.733026504516602">
        <ele>541.0</ele>
        <time>2019-04-23T10:05:36.000Z</time>
      </trkpt>
      <trkpt lat="42.49339294433594" lon="-6.733137130737305">
        <ele>540.0</ele>
        <time>2019-04-23T10:05:44.000Z</time>
      </trkpt>
      <trkpt lat="42.49342727661133" lon="-6.733246326446533">
        <ele>540.0</ele>
        <time>2019-04-23T10:05:52.000Z</time>
      </trkpt>
      <trkpt lat="42.493465423583984" lon="-6.7333550453186035">
        <ele>541.0</ele>
        <time>2019-04-23T10:06:00.000Z</time>
      </trkpt>
      <trkpt lat="42.49350357055664" lon="-6.733462810516357">
        <ele>542.0</ele>
        <time>2019-04-23T10:06:08.000Z</time>
      </trkpt>
      <trkpt lat="42.49353790283203" lon="-6.733570575714111">
        <ele>543.0</ele>
        <time>2019-04-23T10:06:16.000Z</time>
      </trkpt>
      <trkpt lat="42.49369430541992" lon="-6.734007358551025">
        <ele>540.0</ele>
        <time>2019-04-23T10:06:50.000Z</time>
      </trkpt>
      <trkpt lat="42.49378204345703" lon="-6.7344746589660645">
        <ele>535.0</ele>
        <time>2019-04-23T10:07:22.000Z</time>
      </trkpt>
      <trkpt lat="42.49374771118164" lon="-6.734707355499268">
        <ele>531.0</ele>
        <time>2019-04-23T10:07:38.000Z</time>
      </trkpt>
      <trkpt lat="42.493675231933594" lon="-6.734940052032471">
        <ele>527.0</ele>
        <time>2019-04-23T10:07:55.000Z</time>
      </trkpt>
      <trkpt lat="42.493648529052734" lon="-6.735050201416016">
        <ele>526.0</ele>
        <time>2019-04-23T10:08:03.000Z</time>
      </trkpt>
      <trkpt lat="42.493614196777344" lon="-6.735157489776611">
        <ele>526.0</ele>
        <time>2019-04-23T10:08:11.000Z</time>
      </trkpt>
      <trkpt lat="42.49358367919922" lon="-6.735262870788574">
        <ele>525.0</ele>
        <time>2019-04-23T10:08:19.000Z</time>
      </trkpt>
      <trkpt lat="42.49354934692383" lon="-6.735367774963379">
        <ele>525.0</ele>
        <time>2019-04-23T10:08:27.000Z</time>
      </trkpt>
      <trkpt lat="42.49351501464844" lon="-6.735476493835449">
        <ele>524.0</ele>
        <time>2019-04-23T10:08:35.000Z</time>
      </trkpt>
      <trkpt lat="42.49347686767578" lon="-6.735585689544678">
        <ele>523.0</ele>
        <time>2019-04-23T10:08:43.000Z</time>
      </trkpt>
      <trkpt lat="42.493438720703125" lon="-6.735695838928223">
        <ele>522.0</ele>
        <time>2019-04-23T10:08:51.000Z</time>
      </trkpt>
      <trkpt lat="42.49340057373047" lon="-6.735805988311768">
        <ele>520.0</ele>
        <time>2019-04-23T10:08:59.000Z</time>
      </trkpt>
      <trkpt lat="42.49335479736328" lon="-6.7359089851379395">
        <ele>518.0</ele>
        <time>2019-04-23T10:09:09.000Z</time>
      </trkpt>
      <trkpt lat="42.49330520629883" lon="-6.736009120941162">
        <ele>515.0</ele>
        <time>2019-04-23T10:09:18.000Z</time>
      </trkpt>
      <trkpt lat="42.49325180053711" lon="-6.73610782623291">
        <ele>512.0</ele>
        <time>2019-04-23T10:09:28.000Z</time>
      </trkpt>
      <trkpt lat="42.493194580078125" lon="-6.736205101013184">
        <ele>509.0</ele>
        <time>2019-04-23T10:09:38.000Z</time>
      </trkpt>
      <trkpt lat="42.49314498901367" lon="-6.736305236816406">
        <ele>507.0</ele>
        <time>2019-04-23T10:09:48.000Z</time>
      </trkpt>
      <trkpt lat="42.49309158325195" lon="-6.736404895782471">
        <ele>506.0</ele>
        <time>2019-04-23T10:09:57.000Z</time>
      </trkpt>
      <trkpt lat="42.493038177490234" lon="-6.736504554748535">
        <ele>505.0</ele>
        <time>2019-04-23T10:10:07.000Z</time>
      </trkpt>
      <trkpt lat="42.492984771728516" lon="-6.7366042137146">
        <ele>504.0</ele>
        <time>2019-04-23T10:10:17.000Z</time>
      </trkpt>
      <trkpt lat="42.49293518066406" lon="-6.736705303192139">
        <ele>502.0</ele>
        <time>2019-04-23T10:10:24.000Z</time>
      </trkpt>
      <trkpt lat="42.492881774902344" lon="-6.736806392669678">
        <ele>501.0</ele>
        <time>2019-04-23T10:10:32.000Z</time>
      </trkpt>
      <trkpt lat="42.492828369140625" lon="-6.736907482147217">
        <ele>499.0</ele>
        <time>2019-04-23T10:10:39.000Z</time>
      </trkpt>
      <trkpt lat="42.49277877807617" lon="-6.737009048461914">
        <ele>498.0</ele>
        <time>2019-04-23T10:10:47.000Z</time>
      </trkpt>
      <trkpt lat="42.492576599121094" lon="-6.7374067306518555">
        <ele>496.0</ele>
        <time>2019-04-23T10:11:19.000Z</time>
      </trkpt>
      <trkpt lat="42.492454528808594" lon="-6.737855911254883">
        <ele>493.0</ele>
        <time>2019-04-23T10:11:50.000Z</time>
      </trkpt>
      <trkpt lat="42.492305755615234" lon="-6.738283634185791">
        <ele>493.0</ele>
        <time>2019-04-23T10:12:26.000Z</time>
      </trkpt>
      <trkpt lat="42.4921760559082" lon="-6.738734245300293">
        <ele>493.0</ele>
        <time>2019-04-23T10:12:59.000Z</time>
      </trkpt>
      <trkpt lat="42.49198913574219" lon="-6.739147186279297">
        <ele>496.0</ele>
        <time>2019-04-23T10:13:25.000Z</time>
      </trkpt>
      <trkpt lat="42.49174118041992" lon="-6.739485740661621">
        <ele>497.0</ele>
        <time>2019-04-23T10:13:58.000Z</time>
      </trkpt>
      <trkpt lat="42.4915657043457" lon="-6.739657402038574">
        <ele>500.0</ele>
        <time>2019-04-23T10:14:17.000Z</time>
      </trkpt>
      <trkpt lat="42.491416931152344" lon="-6.739813804626465">
        <ele>502.0</ele>
        <time>2019-04-23T10:14:30.000Z</time>
      </trkpt>
      <trkpt lat="42.491268157958984" lon="-6.739960193634033">
        <ele>506.0</ele>
        <time>2019-04-23T10:14:45.000Z</time>
      </trkpt>
      <trkpt lat="42.49106979370117" lon="-6.740085124969482">
        <ele>508.0</ele>
        <time>2019-04-23T10:15:04.000Z</time>
      </trkpt>
      <trkpt lat="42.49088668823242" lon="-6.7401604652404785">
        <ele>509.0</ele>
        <time>2019-04-23T10:15:23.000Z</time>
      </trkpt>
      <trkpt lat="42.4908561706543" lon="-6.740201473236084">
        <ele>508.0</ele>
        <time>2019-04-23T10:15:28.000Z</time>
      </trkpt>
      <trkpt lat="42.49082946777344" lon="-6.7402520179748535">
        <ele>507.0</ele>
        <time>2019-04-23T10:15:33.000Z</time>
      </trkpt>
      <trkpt lat="42.490806579589844" lon="-6.740309238433838">
        <ele>506.0</ele>
        <time>2019-04-23T10:15:37.000Z</time>
      </trkpt>
      <trkpt lat="42.49078369140625" lon="-6.740368843078613">
        <ele>505.0</ele>
        <time>2019-04-23T10:15:42.000Z</time>
      </trkpt>
      <trkpt lat="42.49074935913086" lon="-6.740394592285156">
        <ele>504.0</ele>
        <time>2019-04-23T10:15:46.000Z</time>
      </trkpt>
      <trkpt lat="42.49070739746094" lon="-6.7404093742370605">
        <ele>504.0</ele>
        <time>2019-04-23T10:15:51.000Z</time>
      </trkpt>
      <trkpt lat="42.49066162109375" lon="-6.740416526794434">
        <ele>503.0</ele>
        <time>2019-04-23T10:15:55.000Z</time>
      </trkpt>
      <trkpt lat="42.49061584472656" lon="-6.740420341491699">
        <ele>503.0</ele>
        <time>2019-04-23T10:15:59.000Z</time>
      </trkpt>
      <trkpt lat="42.49054718017578" lon="-6.740492820739746">
        <ele>502.0</ele>
        <time>2019-04-23T10:16:09.000Z</time>
      </trkpt>
      <trkpt lat="42.49048614501953" lon="-6.74058723449707">
        <ele>501.0</ele>
        <time>2019-04-23T10:16:19.000Z</time>
      </trkpt>
      <trkpt lat="42.49047088623047" lon="-6.740607261657715">
        <ele>502.0</ele>
        <time>2019-04-23T10:16:26.000Z</time>
      </trkpt>
      <trkpt lat="42.49046325683594" lon="-6.740617752075195">
        <ele>502.0</ele>
        <time>2019-04-23T10:16:34.000Z</time>
      </trkpt>
      <trkpt lat="42.490455627441406" lon="-6.740622043609619">
        <ele>503.0</ele>
        <time>2019-04-23T10:16:41.000Z</time>
      </trkpt>
      <trkpt lat="42.490455627441406" lon="-6.7406229972839355">
        <ele>504.0</ele>
        <time>2019-04-23T10:16:48.000Z</time>
      </trkpt>
      <trkpt lat="42.490447998046875" lon="-6.740630149841309">
        <ele>505.0</ele>
        <time>2019-04-23T10:16:48.000Z</time>
      </trkpt>
      <trkpt lat="42.49044418334961" lon="-6.740636348724365">
        <ele>505.0</ele>
        <time>2019-04-23T10:16:49.000Z</time>
      </trkpt>
      <trkpt lat="42.49043655395508" lon="-6.7406415939331055">
        <ele>505.0</ele>
        <time>2019-04-23T10:16:49.000Z</time>
      </trkpt>
      <trkpt lat="42.49043273925781" lon="-6.740646839141846">
        <ele>504.0</ele>
        <time>2019-04-23T10:16:49.000Z</time>
      </trkpt>
      <trkpt lat="42.49040985107422" lon="-6.740676403045654">
        <ele>504.0</ele>
        <time>2019-04-23T10:16:50.000Z</time>
      </trkpt>
      <trkpt lat="42.490379333496094" lon="-6.740716457366943">
        <ele>504.0</ele>
        <time>2019-04-23T10:16:52.000Z</time>
      </trkpt>
      <trkpt lat="42.49034118652344" lon="-6.740763187408447">
        <ele>504.0</ele>
        <time>2019-04-23T10:16:53.000Z</time>
      </trkpt>
      <trkpt lat="42.49030303955078" lon="-6.740813255310059">
        <ele>505.0</ele>
        <time>2019-04-23T10:16:54.000Z</time>
      </trkpt>
      <trkpt lat="42.490264892578125" lon="-6.740898132324219">
        <ele>505.0</ele>
        <time>2019-04-23T10:17:02.000Z</time>
      </trkpt>
      <trkpt lat="42.4902229309082" lon="-6.741000652313232">
        <ele>505.0</ele>
        <time>2019-04-23T10:17:10.000Z</time>
      </trkpt>
      <trkpt lat="42.490177154541016" lon="-6.741115570068359">
        <ele>505.0</ele>
        <time>2019-04-23T10:17:18.000Z</time>
      </trkpt>
      <trkpt lat="42.490135192871094" lon="-6.741236686706543">
        <ele>505.0</ele>
        <time>2019-04-23T10:17:26.000Z</time>
      </trkpt>
      <trkpt lat="42.490089416503906" lon="-6.741339206695557">
        <ele>505.0</ele>
        <time>2019-04-23T10:17:34.000Z</time>
      </trkpt>
      <trkpt lat="42.49003982543945" lon="-6.741441249847412">
        <ele>505.0</ele>
        <time>2019-04-23T10:17:41.000Z</time>
      </trkpt>
      <trkpt lat="42.489990234375" lon="-6.741541862487793">
        <ele>505.0</ele>
        <time>2019-04-23T10:17:49.000Z</time>
      </trkpt>
      <trkpt lat="42.48994064331055" lon="-6.741642475128174">
        <ele>505.0</ele>
        <time>2019-04-23T10:17:56.000Z</time>
      </trkpt>
      <trkpt lat="42.48985290527344" lon="-6.742110252380371">
        <ele>506.0</ele>
        <time>2019-04-23T10:18:27.000Z</time>
      </trkpt>
      <trkpt lat="42.48972702026367" lon="-6.742571830749512">
        <ele>504.0</ele>
        <time>2019-04-23T10:19:01.000Z</time>
      </trkpt>
      <trkpt lat="42.48952865600586" lon="-6.742975234985352">
        <ele>502.0</ele>
        <time>2019-04-23T10:19:35.000Z</time>
      </trkpt>
      <trkpt lat="42.48949432373047" lon="-6.743197441101074">
        <ele>501.0</ele>
        <time>2019-04-23T10:19:50.000Z</time>
      </trkpt>
      <trkpt lat="42.4894905090332" lon="-6.743428707122803">
        <ele>501.0</ele>
        <time>2019-04-23T10:20:04.000Z</time>
      </trkpt>
      <trkpt lat="42.48951721191406" lon="-6.743568420410156">
        <ele>501.0</ele>
        <time>2019-04-23T10:20:10.000Z</time>
      </trkpt>
      <trkpt lat="42.48956298828125" lon="-6.743668079376221">
        <ele>502.0</ele>
        <time>2019-04-23T10:20:15.000Z</time>
      </trkpt>
      <trkpt lat="42.489559173583984" lon="-6.743727207183838">
        <ele>502.0</ele>
        <time>2019-04-23T10:20:19.000Z</time>
      </trkpt>
      <trkpt lat="42.48954772949219" lon="-6.743786811828613">
        <ele>502.0</ele>
        <time>2019-04-23T10:20:22.000Z</time>
      </trkpt>
      <trkpt lat="42.489532470703125" lon="-6.7438459396362305">
        <ele>502.0</ele>
        <time>2019-04-23T10:20:26.000Z</time>
      </trkpt>
      <trkpt lat="42.4895133972168" lon="-6.743905067443848">
        <ele>501.0</ele>
        <time>2019-04-23T10:20:29.000Z</time>
      </trkpt>
      <trkpt lat="42.48948287963867" lon="-6.743995666503906">
        <ele>500.0</ele>
        <time>2019-04-23T10:20:37.000Z</time>
      </trkpt>
      <trkpt lat="42.489444732666016" lon="-6.744100093841553">
        <ele>499.0</ele>
        <time>2019-04-23T10:20:45.000Z</time>
      </trkpt>
      <trkpt lat="42.489402770996094" lon="-6.744213104248047">
        <ele>498.0</ele>
        <time>2019-04-23T10:20:53.000Z</time>
      </trkpt>
      <trkpt lat="42.489356994628906" lon="-6.744330406188965">
        <ele>497.0</ele>
        <time>2019-04-23T10:21:01.000Z</time>
      </trkpt>
      <trkpt lat="42.48931884765625" lon="-6.74444055557251">
        <ele>496.0</ele>
        <time>2019-04-23T10:21:09.000Z</time>
      </trkpt>
      <trkpt lat="42.48927688598633" lon="-6.744552135467529">
        <ele>495.0</ele>
        <time>2019-04-23T10:21:18.000Z</time>
      </trkpt>
      <trkpt lat="42.489234924316406" lon="-6.744665145874023">
        <ele>494.0</ele>
        <time>2019-04-23T10:21:26.000Z</time>
      </trkpt>
      <trkpt lat="42.489192962646484" lon="-6.744778633117676">
        <ele>494.0</ele>
        <time>2019-04-23T10:21:34.000Z</time>
      </trkpt>
      <trkpt lat="42.489166259765625" lon="-6.74489164352417">
        <ele>493.0</ele>
        <time>2019-04-23T10:21:42.000Z</time>
      </trkpt>
      <trkpt lat="42.489139556884766" lon="-6.7450056076049805">
        <ele>493.0</ele>
        <time>2019-04-23T10:21:49.000Z</time>
      </trkpt>
      <trkpt lat="42.48911666870117" lon="-6.745120048522949">
        <ele>492.0</ele>
        <time>2019-04-23T10:21:57.000Z</time>
      </trkpt>
      <trkpt lat="42.48909378051758" lon="-6.74523401260376">
        <ele>492.0</ele>
        <time>2019-04-23T10:22:04.000Z</time>
      </trkpt>
      <trkpt lat="42.48906326293945" lon="-6.7453460693359375">
        <ele>492.0</ele>
        <time>2019-04-23T10:22:13.000Z</time>
      </trkpt>
      <trkpt lat="42.48903274536133" lon="-6.745456695556641">
        <ele>492.0</ele>
        <time>2019-04-23T10:22:22.000Z</time>
      </trkpt>
      <trkpt lat="42.48899841308594" lon="-6.745567321777344">
        <ele>492.0</ele>
        <time>2019-04-23T10:22:31.000Z</time>
      </trkpt>
      <trkpt lat="42.48896026611328" lon="-6.7456769943237305">
        <ele>493.0</ele>
        <time>2019-04-23T10:22:40.000Z</time>
      </trkpt>
      <trkpt lat="42.48891830444336" lon="-6.745778560638428">
        <ele>493.0</ele>
        <time>2019-04-23T10:22:48.000Z</time>
      </trkpt>
      <trkpt lat="42.488868713378906" lon="-6.745875835418701">
        <ele>494.0</ele>
        <time>2019-04-23T10:22:56.000Z</time>
      </trkpt>
      <trkpt lat="42.48881912231445" lon="-6.745970249176025">
        <ele>495.0</ele>
        <time>2019-04-23T10:23:03.000Z</time>
      </trkpt>
      <trkpt lat="42.488765716552734" lon="-6.746063709259033">
        <ele>495.0</ele>
        <time>2019-04-23T10:23:11.000Z</time>
      </trkpt>
      <trkpt lat="42.488712310791016" lon="-6.746124744415283">
        <ele>495.0</ele>
        <time>2019-04-23T10:23:22.000Z</time>
      </trkpt>
      <trkpt lat="42.48868942260742" lon="-6.746133327484131">
        <ele>495.0</ele>
        <time>2019-04-23T10:23:32.000Z</time>
      </trkpt>
      <trkpt lat="42.48867416381836" lon="-6.746131420135498">
        <ele>495.0</ele>
        <time>2019-04-23T10:23:41.000Z</time>
      </trkpt>
      <trkpt lat="42.488670349121094" lon="-6.746132850646973">
        <ele>495.0</ele>
        <time>2019-04-23T10:23:41.000Z</time>
      </trkpt>
      <trkpt lat="42.48866271972656" lon="-6.746134281158447">
        <ele>495.0</ele>
        <time>2019-04-23T10:23:42.000Z</time>
      </trkpt>
      <trkpt lat="42.48865509033203" lon="-6.746135234832764">
        <ele>495.0</ele>
        <time>2019-04-23T10:23:42.000Z</time>
      </trkpt>
      <trkpt lat="42.488651275634766" lon="-6.746136665344238">
        <ele>495.0</ele>
        <time>2019-04-23T10:23:42.000Z</time>
      </trkpt>
      <trkpt lat="42.4886360168457" lon="-6.746139049530029">
        <ele>495.0</ele>
        <time>2019-04-23T10:23:43.000Z</time>
      </trkpt>
      <trkpt lat="42.48862075805664" lon="-6.7461419105529785">
        <ele>495.0</ele>
        <time>2019-04-23T10:23:45.000Z</time>
      </trkpt>
      <trkpt lat="42.48860168457031" lon="-6.746145248413086">
        <ele>495.0</ele>
        <time>2019-04-23T10:23:46.000Z</time>
      </trkpt>
      <trkpt lat="42.488582611083984" lon="-6.746149063110352">
        <ele>495.0</ele>
        <time>2019-04-23T10:23:47.000Z</time>
      </trkpt>
      <trkpt lat="42.48856735229492" lon="-6.746152877807617">
        <ele>495.0</ele>
        <time>2019-04-23T10:23:52.000Z</time>
      </trkpt>
      <trkpt lat="42.48855209350586" lon="-6.746157646179199">
        <ele>496.0</ele>
        <time>2019-04-23T10:23:58.000Z</time>
      </trkpt>
      <trkpt lat="42.4885368347168" lon="-6.746162414550781">
        <ele>496.0</ele>
        <time>2019-04-23T10:24:03.000Z</time>
      </trkpt>
      <trkpt lat="42.488521575927734" lon="-6.746167182922363">
        <ele>496.0</ele>
        <time>2019-04-23T10:24:08.000Z</time>
      </trkpt>
      <trkpt lat="42.48850631713867" lon="-6.746170997619629">
        <ele>496.0</ele>
        <time>2019-04-23T10:24:08.000Z</time>
      </trkpt>
      <trkpt lat="42.48849868774414" lon="-6.746173858642578">
        <ele>496.0</ele>
        <time>2019-04-23T10:24:09.000Z</time>
      </trkpt>
      <trkpt lat="42.488487243652344" lon="-6.746176242828369">
        <ele>496.0</ele>
        <time>2019-04-23T10:24:09.000Z</time>
      </trkpt>
      <trkpt lat="42.48847961425781" lon="-6.746179103851318">
        <ele>496.0</ele>
        <time>2019-04-23T10:24:09.000Z</time>
      </trkpt>
      <trkpt lat="42.48846435546875" lon="-6.74618673324585">
        <ele>496.0</ele>
        <time>2019-04-23T10:24:10.000Z</time>
      </trkpt>
      <trkpt lat="42.488441467285156" lon="-6.746196269989014">
        <ele>496.0</ele>
        <time>2019-04-23T10:24:12.000Z</time>
      </trkpt>
      <trkpt lat="42.48841857910156" lon="-6.746207237243652">
        <ele>496.0</ele>
        <time>2019-04-23T10:24:13.000Z</time>
      </trkpt>
      <trkpt lat="42.48839569091797" lon="-6.746218681335449">
        <ele>496.0</ele>
        <time>2019-04-23T10:24:14.000Z</time>
      </trkpt>
      <trkpt lat="42.4883918762207" lon="-6.746238708496094">
        <ele>496.0</ele>
        <time>2019-04-23T10:24:18.000Z</time>
      </trkpt>
      <trkpt lat="42.4883918762207" lon="-6.74626350402832">
        <ele>496.0</ele>
        <time>2019-04-23T10:24:21.000Z</time>
      </trkpt>
      <trkpt lat="42.488399505615234" lon="-6.746290683746338">
        <ele>496.0</ele>
        <time>2019-04-23T10:24:25.000Z</time>
      </trkpt>
      <trkpt lat="42.488407135009766" lon="-6.746319770812988">
        <ele>497.0</ele>
        <time>2019-04-23T10:24:29.000Z</time>
      </trkpt>
      <trkpt lat="42.488407135009766" lon="-6.746335983276367">
        <ele>497.0</ele>
        <time>2019-04-23T10:24:29.000Z</time>
      </trkpt>
      <trkpt lat="42.488407135009766" lon="-6.746348857879639">
        <ele>497.0</ele>
        <time>2019-04-23T10:24:29.000Z</time>
      </trkpt>
      <trkpt lat="42.48841094970703" lon="-6.746359348297119">
        <ele>497.0</ele>
        <time>2019-04-23T10:24:29.000Z</time>
      </trkpt>
      <trkpt lat="42.48841094970703" lon="-6.746368408203125">
        <ele>497.0</ele>
        <time>2019-04-23T10:24:30.000Z</time>
      </trkpt>
      <trkpt lat="42.488407135009766" lon="-6.7464518547058105">
        <ele>498.0</ele>
        <time>2019-04-23T10:24:35.000Z</time>
      </trkpt>
      <trkpt lat="42.4884033203125" lon="-6.746564865112305">
        <ele>499.0</ele>
        <time>2019-04-23T10:24:41.000Z</time>
      </trkpt>
      <trkpt lat="42.488399505615234" lon="-6.746697425842285">
        <ele>501.0</ele>
        <time>2019-04-23T10:24:47.000Z</time>
      </trkpt>
      <trkpt lat="42.48839569091797" lon="-6.746840000152588">
        <ele>503.0</ele>
        <time>2019-04-23T10:24:53.000Z</time>
      </trkpt>
      <trkpt lat="42.488372802734375" lon="-6.746952533721924">
        <ele>505.0</ele>
        <time>2019-04-23T10:25:01.000Z</time>
      </trkpt>
      <trkpt lat="42.488346099853516" lon="-6.747063159942627">
        <ele>507.0</ele>
        <time>2019-04-23T10:25:09.000Z</time>
      </trkpt>
      <trkpt lat="42.488311767578125" lon="-6.747171878814697">
        <ele>509.0</ele>
        <time>2019-04-23T10:25:17.000Z</time>
      </trkpt>
      <trkpt lat="42.488277435302734" lon="-6.747280120849609">
        <ele>511.0</ele>
        <time>2019-04-23T10:25:26.000Z</time>
      </trkpt>
      <trkpt lat="42.48826599121094" lon="-6.747322082519531">
        <ele>512.0</ele>
        <time>2019-04-23T10:25:27.000Z</time>
      </trkpt>
      <trkpt lat="42.48826217651367" lon="-6.747335433959961">
        <ele>512.0</ele>
        <time>2019-04-23T10:25:28.000Z</time>
      </trkpt>
      <trkpt lat="42.48826217651367" lon="-6.7473297119140625">
        <ele>512.0</ele>
        <time>2019-04-23T10:25:29.000Z</time>
      </trkpt>
      <trkpt lat="42.48826599121094" lon="-6.747314929962158">
        <ele>512.0</ele>
        <time>2019-04-23T10:25:30.000Z</time>
      </trkpt>
      <trkpt lat="42.48826599121094" lon="-6.747328758239746">
        <ele>513.0</ele>
        <time>2019-04-23T10:25:36.000Z</time>
      </trkpt>
      <trkpt lat="42.48826217651367" lon="-6.747344493865967">
        <ele>514.0</ele>
        <time>2019-04-23T10:25:42.000Z</time>
      </trkpt>
      <trkpt lat="42.488258361816406" lon="-6.74736213684082">
        <ele>516.0</ele>
        <time>2019-04-23T10:25:48.000Z</time>
      </trkpt>
      <trkpt lat="42.488258361816406" lon="-6.747379779815674">
        <ele>518.0</ele>
        <time>2019-04-23T10:25:54.000Z</time>
      </trkpt>
      <trkpt lat="42.488250732421875" lon="-6.747419834136963">
        <ele>518.0</ele>
        <time>2019-04-23T10:25:55.000Z</time>
      </trkpt>
      <trkpt lat="42.488243103027344" lon="-6.747474670410156">
        <ele>518.0</ele>
        <time>2019-04-23T10:25:57.000Z</time>
      </trkpt>
      <trkpt lat="42.48822784423828" lon="-6.747629165649414">
        <ele>525.0</ele>
        <time>2019-04-23T10:27:24.000Z</time>
      </trkpt>
      <trkpt lat="42.48821258544922" lon="-6.747730731964111">
        <ele>525.0</ele>
        <time>2019-04-23T10:27:25.000Z</time>
      </trkpt>
      <trkpt lat="42.48817825317383" lon="-6.748080253601074">
        <ele>526.0</ele>
        <time>2019-04-23T10:27:27.000Z</time>
      </trkpt>
      <trkpt lat="42.488162994384766" lon="-6.74820613861084">
        <ele>526.0</ele>
        <time>2019-04-23T10:27:30.000Z</time>
      </trkpt>
      <trkpt lat="42.48814392089844" lon="-6.748255729675293">
        <ele>528.0</ele>
        <time>2019-04-23T10:27:51.000Z</time>
      </trkpt>
      <trkpt lat="42.488121032714844" lon="-6.7482991218566895">
        <ele>531.0</ele>
        <time>2019-04-23T10:28:12.000Z</time>
      </trkpt>
      <trkpt lat="42.48811340332031" lon="-6.748315334320068">
        <ele>531.0</ele>
        <time>2019-04-23T10:28:12.000Z</time>
      </trkpt>
      <trkpt lat="42.48810577392578" lon="-6.748328685760498">
        <ele>531.0</ele>
        <time>2019-04-23T10:28:12.000Z</time>
      </trkpt>
      <trkpt lat="42.488101959228516" lon="-6.748340129852295">
        <ele>531.0</ele>
        <time>2019-04-23T10:28:12.000Z</time>
      </trkpt>
      <trkpt lat="42.488094329833984" lon="-6.748350620269775">
        <ele>531.0</ele>
        <time>2019-04-23T10:28:13.000Z</time>
      </trkpt>
      <trkpt lat="42.48805236816406" lon="-6.748414516448975">
        <ele>531.0</ele>
        <time>2019-04-23T10:28:18.000Z</time>
      </trkpt>
      <trkpt lat="42.48799514770508" lon="-6.748499870300293">
        <ele>532.0</ele>
        <time>2019-04-23T10:28:24.000Z</time>
      </trkpt>
      <trkpt lat="42.4879264831543" lon="-6.748599052429199">
        <ele>532.0</ele>
        <time>2019-04-23T10:28:30.000Z</time>
      </trkpt>
      <trkpt lat="42.487850189208984" lon="-6.7487053871154785">
        <ele>533.0</ele>
        <time>2019-04-23T10:28:36.000Z</time>
      </trkpt>
      <trkpt lat="42.4878044128418" lon="-6.748781681060791">
        <ele>533.0</ele>
        <time>2019-04-23T10:28:45.000Z</time>
      </trkpt>
      <trkpt lat="42.48775863647461" lon="-6.748852729797363">
        <ele>533.0</ele>
        <time>2019-04-23T10:28:55.000Z</time>
      </trkpt>
      <trkpt lat="42.48772048950195" lon="-6.74891996383667">
        <ele>533.0</ele>
        <time>2019-04-23T10:29:04.000Z</time>
      </trkpt>
      <trkpt lat="42.4876823425293" lon="-6.748985767364502">
        <ele>534.0</ele>
        <time>2019-04-23T10:29:14.000Z</time>
      </trkpt>
      <trkpt lat="42.48766326904297" lon="-6.74901819229126">
        <ele>533.0</ele>
        <time>2019-04-23T10:29:23.000Z</time>
      </trkpt>
      <trkpt lat="42.48765563964844" lon="-6.749034404754639">
        <ele>533.0</ele>
        <time>2019-04-23T10:29:32.000Z</time>
      </trkpt>
      <trkpt lat="42.48765182495117" lon="-6.749040126800537">
        <ele>532.0</ele>
        <time>2019-04-23T10:29:42.000Z</time>
      </trkpt>
      <trkpt lat="42.48765563964844" lon="-6.749040603637695">
        <ele>532.0</ele>
        <time>2019-04-23T10:29:51.000Z</time>
      </trkpt>
      <trkpt lat="42.487648010253906" lon="-6.749050617218018">
        <ele>531.0</ele>
        <time>2019-04-23T10:29:51.000Z</time>
      </trkpt>
      <trkpt lat="42.48764419555664" lon="-6.749059677124023">
        <ele>531.0</ele>
        <time>2019-04-23T10:29:51.000Z</time>
      </trkpt>
      <trkpt lat="42.487640380859375" lon="-6.749067306518555">
        <ele>531.0</ele>
        <time>2019-04-23T10:29:52.000Z</time>
      </trkpt>
      <trkpt lat="42.48763656616211" lon="-6.749074459075928">
        <ele>532.0</ele>
        <time>2019-04-23T10:29:52.000Z</time>
      </trkpt>
      <trkpt lat="42.48750305175781" lon="-6.749521732330322">
        <ele>527.0</ele>
        <time>2019-04-23T10:30:14.000Z</time>
      </trkpt>
      <trkpt lat="42.48750686645508" lon="-6.749759197235107">
        <ele>523.0</ele>
        <time>2019-04-23T10:30:33.000Z</time>
      </trkpt>
      <trkpt lat="42.487548828125" lon="-6.750003337860107">
        <ele>519.0</ele>
        <time>2019-04-23T10:30:52.000Z</time>
      </trkpt>
      <trkpt lat="42.48757553100586" lon="-6.750115871429443">
        <ele>517.0</ele>
        <time>2019-04-23T10:31:00.000Z</time>
      </trkpt>
      <trkpt lat="42.487613677978516" lon="-6.75022554397583">
        <ele>516.0</ele>
        <time>2019-04-23T10:31:08.000Z</time>
      </trkpt>
      <trkpt lat="42.48765182495117" lon="-6.750332355499268">
        <ele>515.0</ele>
        <time>2019-04-23T10:31:16.000Z</time>
      </trkpt>
      <trkpt lat="42.48769760131836" lon="-6.750438690185547">
        <ele>514.0</ele>
        <time>2019-04-23T10:31:24.000Z</time>
      </trkpt>
      <trkpt lat="42.487735748291016" lon="-6.750547409057617">
        <ele>513.0</ele>
        <time>2019-04-23T10:31:32.000Z</time>
      </trkpt>
      <trkpt lat="42.48777770996094" lon="-6.7506561279296875">
        <ele>513.0</ele>
        <time>2019-04-23T10:31:40.000Z</time>
      </trkpt>
      <trkpt lat="42.487815856933594" lon="-6.750765323638916">
        <ele>513.0</ele>
        <time>2019-04-23T10:31:48.000Z</time>
      </trkpt>
      <trkpt lat="42.487857818603516" lon="-6.750874042510986">
        <ele>513.0</ele>
        <time>2019-04-23T10:31:56.000Z</time>
      </trkpt>
      <trkpt lat="42.48788070678711" lon="-6.750988960266113">
        <ele>513.0</ele>
        <time>2019-04-23T10:32:04.000Z</time>
      </trkpt>
      <trkpt lat="42.487892150878906" lon="-6.751105785369873">
        <ele>513.0</ele>
        <time>2019-04-23T10:32:11.000Z</time>
      </trkpt>
      <trkpt lat="42.4879035949707" lon="-6.751224994659424">
        <ele>513.0</ele>
        <time>2019-04-23T10:32:19.000Z</time>
      </trkpt>
      <trkpt lat="42.48790740966797" lon="-6.751344680786133">
        <ele>513.0</ele>
        <time>2019-04-23T10:32:27.000Z</time>
      </trkpt>
      <trkpt lat="42.48793411254883" lon="-6.751457691192627">
        <ele>513.0</ele>
        <time>2019-04-23T10:32:34.000Z</time>
      </trkpt>
      <trkpt lat="42.48796463012695" lon="-6.75156831741333">
        <ele>513.0</ele>
        <time>2019-04-23T10:32:42.000Z</time>
      </trkpt>
      <trkpt lat="42.487998962402344" lon="-6.751677989959717">
        <ele>513.0</ele>
        <time>2019-04-23T10:32:49.000Z</time>
      </trkpt>
      <trkpt lat="42.488033294677734" lon="-6.751787185668945">
        <ele>514.0</ele>
        <time>2019-04-23T10:32:57.000Z</time>
      </trkpt>
      <trkpt lat="42.48806381225586" lon="-6.751899242401123">
        <ele>513.0</ele>
        <time>2019-04-23T10:33:06.000Z</time>
      </trkpt>
      <trkpt lat="42.48809814453125" lon="-6.752012252807617">
        <ele>512.0</ele>
        <time>2019-04-23T10:33:15.000Z</time>
      </trkpt>
      <trkpt lat="42.488128662109375" lon="-6.752126216888428">
        <ele>511.0</ele>
        <time>2019-04-23T10:33:24.000Z</time>
      </trkpt>
      <trkpt lat="42.4881591796875" lon="-6.75223970413208">
        <ele>510.0</ele>
        <time>2019-04-23T10:33:33.000Z</time>
      </trkpt>
      <trkpt lat="42.488155364990234" lon="-6.752720832824707">
        <ele>502.0</ele>
        <time>2019-04-23T10:34:09.000Z</time>
      </trkpt>
      <trkpt lat="42.4881591796875" lon="-6.752763271331787">
        <ele>503.0</ele>
        <time>2019-04-23T10:34:17.000Z</time>
      </trkpt>
      <trkpt lat="42.4881591796875" lon="-6.752771854400635">
        <ele>502.0</ele>
        <time>2019-04-23T10:34:41.000Z</time>
      </trkpt>
      <trkpt lat="42.488155364990234" lon="-6.752779006958008">
        <ele>502.0</ele>
        <time>2019-04-23T10:35:04.000Z</time>
      </trkpt>
      <trkpt lat="42.48815155029297" lon="-6.7527852058410645">
        <ele>501.0</ele>
        <time>2019-04-23T10:35:28.000Z</time>
      </trkpt>
      <trkpt lat="42.4881477355957" lon="-6.752791404724121">
        <ele>501.0</ele>
        <time>2019-04-23T10:35:52.000Z</time>
      </trkpt>
      <trkpt lat="42.48814392089844" lon="-6.752797603607178">
        <ele>501.0</ele>
        <time>2019-04-23T10:35:52.000Z</time>
      </trkpt>
      <trkpt lat="42.48814392089844" lon="-6.752802848815918">
        <ele>501.0</ele>
        <time>2019-04-23T10:35:52.000Z</time>
      </trkpt>
      <trkpt lat="42.48814010620117" lon="-6.752808094024658">
        <ele>501.0</ele>
        <time>2019-04-23T10:35:53.000Z</time>
      </trkpt>
      <trkpt lat="42.48814010620117" lon="-6.752813339233398">
        <ele>501.0</ele>
        <time>2019-04-23T10:35:53.000Z</time>
      </trkpt>
      <trkpt lat="42.48811721801758" lon="-6.752865314483643">
        <ele>500.0</ele>
        <time>2019-04-23T10:35:56.000Z</time>
      </trkpt>
      <trkpt lat="42.48809051513672" lon="-6.752936840057373">
        <ele>500.0</ele>
        <time>2019-04-23T10:36:00.000Z</time>
      </trkpt>
      <trkpt lat="42.48805618286133" lon="-6.753021240234375">
        <ele>500.0</ele>
        <time>2019-04-23T10:36:03.000Z</time>
      </trkpt>
      <trkpt lat="42.48802185058594" lon="-6.753112316131592">
        <ele>499.0</ele>
        <time>2019-04-23T10:36:07.000Z</time>
      </trkpt>
      <trkpt lat="42.48798751831055" lon="-6.753143787384033">
        <ele>498.0</ele>
        <time>2019-04-23T10:36:10.000Z</time>
      </trkpt>
      <trkpt lat="42.48795700073242" lon="-6.753157138824463">
        <ele>498.0</ele>
        <time>2019-04-23T10:36:14.000Z</time>
      </trkpt>
      <trkpt lat="42.48792266845703" lon="-6.7531585693359375">
        <ele>497.0</ele>
        <time>2019-04-23T10:36:17.000Z</time>
      </trkpt>
      <trkpt lat="42.48788833618164" lon="-6.7531538009643555">
        <ele>497.0</ele>
        <time>2019-04-23T10:36:21.000Z</time>
      </trkpt>
      <trkpt lat="42.487831115722656" lon="-6.753207206726074">
        <ele>496.0</ele>
        <time>2019-04-23T10:36:29.000Z</time>
      </trkpt>
      <trkpt lat="42.487762451171875" lon="-6.753278732299805">
        <ele>496.0</ele>
        <time>2019-04-23T10:36:37.000Z</time>
      </trkpt>
      <trkpt lat="42.48768615722656" lon="-6.753362655639648">
        <ele>496.0</ele>
        <time>2019-04-23T10:36:46.000Z</time>
      </trkpt>
      <trkpt lat="42.48760986328125" lon="-6.753452301025391">
        <ele>495.0</ele>
        <time>2019-04-23T10:36:54.000Z</time>
      </trkpt>
      <trkpt lat="42.48755645751953" lon="-6.753533363342285">
        <ele>496.0</ele>
        <time>2019-04-23T10:37:02.000Z</time>
      </trkpt>
      <trkpt lat="42.487510681152344" lon="-6.753616809844971">
        <ele>497.0</ele>
        <time>2019-04-23T10:37:11.000Z</time>
      </trkpt>
      <trkpt lat="42.48746871948242" lon="-6.753702163696289">
        <ele>498.0</ele>
        <time>2019-04-23T10:37:19.000Z</time>
      </trkpt>
      <trkpt lat="42.48743438720703" lon="-6.753788948059082">
        <ele>499.0</ele>
        <time>2019-04-23T10:37:28.000Z</time>
      </trkpt>
      <trkpt lat="42.4874153137207" lon="-6.753828048706055">
        <ele>500.0</ele>
        <time>2019-04-23T10:37:33.000Z</time>
      </trkpt>
      <trkpt lat="42.48741149902344" lon="-6.753849029541016">
        <ele>501.0</ele>
        <time>2019-04-23T10:37:38.000Z</time>
      </trkpt>
      <trkpt lat="42.48741149902344" lon="-6.753857135772705">
        <ele>502.0</ele>
        <time>2019-04-23T10:37:43.000Z</time>
      </trkpt>
      <trkpt lat="42.48741912841797" lon="-6.753859043121338">
        <ele>503.0</ele>
        <time>2019-04-23T10:37:48.000Z</time>
      </trkpt>
      <trkpt lat="42.4874153137207" lon="-6.753871917724609">
        <ele>503.0</ele>
        <time>2019-04-23T10:37:48.000Z</time>
      </trkpt>
      <trkpt lat="42.48741149902344" lon="-6.75388240814209">
        <ele>503.0</ele>
        <time>2019-04-23T10:37:48.000Z</time>
      </trkpt>
      <trkpt lat="42.48741149902344" lon="-6.753891468048096">
        <ele>503.0</ele>
        <time>2019-04-23T10:37:49.000Z</time>
      </trkpt>
      <trkpt lat="42.48740768432617" lon="-6.753900051116943">
        <ele>503.0</ele>
        <time>2019-04-23T10:37:49.000Z</time>
      </trkpt>
      <trkpt lat="42.48739242553711" lon="-6.753979682922363">
        <ele>504.0</ele>
        <time>2019-04-23T10:37:56.000Z</time>
      </trkpt>
      <trkpt lat="42.48736572265625" lon="-6.754088401794434">
        <ele>505.0</ele>
        <time>2019-04-23T10:38:02.000Z</time>
      </trkpt>
      <trkpt lat="42.48733901977539" lon="-6.754216194152832">
        <ele>506.0</ele>
        <time>2019-04-23T10:38:09.000Z</time>
      </trkpt>
      <trkpt lat="42.487308502197266" lon="-6.754354000091553">
        <ele>508.0</ele>
        <time>2019-04-23T10:38:16.000Z</time>
      </trkpt>
      <trkpt lat="42.48720169067383" lon="-6.754543781280518">
        <ele>510.0</ele>
        <time>2019-04-23T10:38:32.000Z</time>
      </trkpt>
      <trkpt lat="42.48706817626953" lon="-6.754716396331787">
        <ele>514.0</ele>
        <time>2019-04-23T10:38:49.000Z</time>
      </trkpt>
      <trkpt lat="42.48704147338867" lon="-6.754763126373291">
        <ele>514.0</ele>
        <time>2019-04-23T10:38:52.000Z</time>
      </trkpt>
      <trkpt lat="42.48702621459961" lon="-6.754792213439941">
        <ele>515.0</ele>
        <time>2019-04-23T10:38:54.000Z</time>
      </trkpt>
      <trkpt lat="42.48701858520508" lon="-6.75480842590332">
        <ele>515.0</ele>
        <time>2019-04-23T10:38:57.000Z</time>
      </trkpt>
      <trkpt lat="42.48701858520508" lon="-6.754818916320801">
        <ele>515.0</ele>
        <time>2019-04-23T10:39:00.000Z</time>
      </trkpt>
      <trkpt lat="42.48701095581055" lon="-6.754831314086914">
        <ele>516.0</ele>
        <time>2019-04-23T10:39:06.000Z</time>
      </trkpt>
      <trkpt lat="42.48700714111328" lon="-6.754837989807129">
        <ele>517.0</ele>
        <time>2019-04-23T10:39:13.000Z</time>
      </trkpt>
      <trkpt lat="42.487003326416016" lon="-6.754840850830078">
        <ele>518.0</ele>
        <time>2019-04-23T10:39:19.000Z</time>
      </trkpt>
      <trkpt lat="42.487003326416016" lon="-6.7548418045043945">
        <ele>520.0</ele>
        <time>2019-04-23T10:39:26.000Z</time>
      </trkpt>
      <trkpt lat="42.48699951171875" lon="-6.754847049713135">
        <ele>520.0</ele>
        <time>2019-04-23T10:39:26.000Z</time>
      </trkpt>
      <trkpt lat="42.48699951171875" lon="-6.754851818084717">
        <ele>520.0</ele>
        <time>2019-04-23T10:39:26.000Z</time>
      </trkpt>
      <trkpt lat="42.486995697021484" lon="-6.754856586456299">
        <ele>520.0</ele>
        <time>2019-04-23T10:39:27.000Z</time>
      </trkpt>
      <trkpt lat="42.48699188232422" lon="-6.754860877990723">
        <ele>520.0</ele>
        <time>2019-04-23T10:39:27.000Z</time>
      </trkpt>
      <trkpt lat="42.48695755004883" lon="-6.754924774169922">
        <ele>520.0</ele>
        <time>2019-04-23T10:39:32.000Z</time>
      </trkpt>
      <trkpt lat="42.486907958984375" lon="-6.755013465881348">
        <ele>521.0</ele>
        <time>2019-04-23T10:39:37.000Z</time>
      </trkpt>
      <trkpt lat="42.48685073852539" lon="-6.7551188468933105">
        <ele>522.0</ele>
        <time>2019-04-23T10:39:42.000Z</time>
      </trkpt>
      <trkpt lat="42.48678970336914" lon="-6.755231857299805">
        <ele>523.0</ele>
        <time>2019-04-23T10:39:47.000Z</time>
      </trkpt>
      <trkpt lat="42.486759185791016" lon="-6.755276203155518">
        <ele>523.0</ele>
        <time>2019-04-23T10:39:50.000Z</time>
      </trkpt>
      <trkpt lat="42.486732482910156" lon="-6.755300045013428">
        <ele>523.0</ele>
        <time>2019-04-23T10:39:53.000Z</time>
      </trkpt>
      <trkpt lat="42.48671340942383" lon="-6.75531005859375">
        <ele>524.0</ele>
        <time>2019-04-23T10:39:56.000Z</time>
      </trkpt>
      <trkpt lat="42.4866943359375" lon="-6.755313396453857">
        <ele>524.0</ele>
        <time>2019-04-23T10:39:59.000Z</time>
      </trkpt>
      <trkpt lat="42.486576080322266" lon="-6.755443096160889">
        <ele>527.0</ele>
        <time>2019-04-23T10:40:26.000Z</time>
      </trkpt>
      <trkpt lat="42.48655319213867" lon="-6.755468845367432">
        <ele>527.0</ele>
        <time>2019-04-23T10:40:27.000Z</time>
      </trkpt>
      <trkpt lat="42.48648452758789" lon="-6.755560398101807">
        <ele>528.0</ele>
        <time>2019-04-23T10:40:33.000Z</time>
      </trkpt>
      <trkpt lat="42.48645782470703" lon="-6.755580902099609">
        <ele>530.0</ele>
        <time>2019-04-23T10:40:54.000Z</time>
      </trkpt>
      <trkpt lat="42.4864387512207" lon="-6.755596160888672">
        <ele>530.0</ele>
        <time>2019-04-23T10:40:55.000Z</time>
      </trkpt>
      <trkpt lat="42.486244201660156" lon="-6.755731582641602">
        <ele>531.0</ele>
        <time>2019-04-23T10:41:03.000Z</time>
      </trkpt>
      <trkpt lat="42.485923767089844" lon="-6.755926132202148">
        <ele>534.0</ele>
        <time>2019-04-23T10:41:41.000Z</time>
      </trkpt>
      <trkpt lat="42.4856071472168" lon="-6.756142616271973">
        <ele>534.0</ele>
        <time>2019-04-23T10:42:17.000Z</time>
      </trkpt>
      <trkpt lat="42.48542404174805" lon="-6.756208419799805">
        <ele>533.0</ele>
        <time>2019-04-23T10:42:38.000Z</time>
      </trkpt>
      <trkpt lat="42.485382080078125" lon="-6.756222724914551">
        <ele>535.0</ele>
        <time>2019-04-23T10:42:57.000Z</time>
      </trkpt>
      <trkpt lat="42.4853515625" lon="-6.756231784820557">
        <ele>535.0</ele>
        <time>2019-04-23T10:42:58.000Z</time>
      </trkpt>
      <trkpt lat="42.48501968383789" lon="-6.75637674331665">
        <ele>535.0</ele>
        <time>2019-04-23T10:43:19.000Z</time>
      </trkpt>
      <trkpt lat="42.48468780517578" lon="-6.75657320022583">
        <ele>541.0</ele>
        <time>2019-04-23T10:43:56.000Z</time>
      </trkpt>
      <trkpt lat="42.48436737060547" lon="-6.7567973136901855">
        <ele>545.0</ele>
        <time>2019-04-23T10:44:31.000Z</time>
      </trkpt>
      <trkpt lat="42.484100341796875" lon="-6.757111072540283">
        <ele>550.0</ele>
        <time>2019-04-23T10:45:06.000Z</time>
      </trkpt>
      <trkpt lat="42.48386001586914" lon="-6.75747013092041">
        <ele>553.0</ele>
        <time>2019-04-23T10:45:39.000Z</time>
      </trkpt>
      <trkpt lat="42.48369598388672" lon="-6.757893085479736">
        <ele>552.0</ele>
        <time>2019-04-23T10:46:13.000Z</time>
      </trkpt>
      <trkpt lat="42.4835205078125" lon="-6.7583088874816895">
        <ele>553.0</ele>
        <time>2019-04-23T10:46:41.000Z</time>
      </trkpt>
      <trkpt lat="42.48334503173828" lon="-6.758743762969971">
        <ele>552.0</ele>
        <time>2019-04-23T10:47:12.000Z</time>
      </trkpt>
      <trkpt lat="42.483150482177734" lon="-6.759142875671387">
        <ele>546.0</ele>
        <time>2019-04-23T10:47:53.000Z</time>
      </trkpt>
      <trkpt lat="42.48292922973633" lon="-6.759533405303955">
        <ele>543.0</ele>
        <time>2019-04-23T10:48:27.000Z</time>
      </trkpt>
      <trkpt lat="42.48272705078125" lon="-6.759945869445801">
        <ele>544.0</ele>
        <time>2019-04-23T10:48:59.000Z</time>
      </trkpt>
      <trkpt lat="42.482513427734375" lon="-6.760338306427002">
        <ele>544.0</ele>
        <time>2019-04-23T10:49:36.000Z</time>
      </trkpt>
      <trkpt lat="42.482261657714844" lon="-6.760679721832275">
        <ele>548.0</ele>
        <time>2019-04-23T10:50:07.000Z</time>
      </trkpt>
      <trkpt lat="42.48208999633789" lon="-6.760885715484619">
        <ele>552.0</ele>
        <time>2019-04-23T10:50:33.000Z</time>
      </trkpt>
      <trkpt lat="42.48207092285156" lon="-6.760908126831055">
        <ele>556.0</ele>
        <time>2019-04-23T10:50:52.000Z</time>
      </trkpt>
      <trkpt lat="42.482059478759766" lon="-6.76092529296875">
        <ele>556.0</ele>
        <time>2019-04-23T10:50:53.000Z</time>
      </trkpt>
      <trkpt lat="42.48191833496094" lon="-6.761101722717285">
        <ele>557.0</ele>
        <time>2019-04-23T10:51:00.000Z</time>
      </trkpt>
      <trkpt lat="42.481895446777344" lon="-6.761129379272461">
        <ele>560.0</ele>
        <time>2019-04-23T10:51:20.000Z</time>
      </trkpt>
      <trkpt lat="42.48188018798828" lon="-6.7611494064331055">
        <ele>560.0</ele>
        <time>2019-04-23T10:51:21.000Z</time>
      </trkpt>
      <trkpt lat="42.48166275024414" lon="-6.76145076751709">
        <ele>567.0</ele>
        <time>2019-04-23T10:51:46.000Z</time>
      </trkpt>
      <trkpt lat="42.48162841796875" lon="-6.761476516723633">
        <ele>568.0</ele>
        <time>2019-04-23T10:51:52.000Z</time>
      </trkpt>
      <trkpt lat="42.48160171508789" lon="-6.761481285095215">
        <ele>569.0</ele>
        <time>2019-04-23T10:51:58.000Z</time>
      </trkpt>
      <trkpt lat="42.48157501220703" lon="-6.761471748352051">
        <ele>569.0</ele>
        <time>2019-04-23T10:52:04.000Z</time>
      </trkpt>
      <trkpt lat="42.4815559387207" lon="-6.761455535888672">
        <ele>570.0</ele>
        <time>2019-04-23T10:52:10.000Z</time>
      </trkpt>
      <trkpt lat="42.48154067993164" lon="-6.76145601272583">
        <ele>570.0</ele>
        <time>2019-04-23T10:52:10.000Z</time>
      </trkpt>
      <trkpt lat="42.481529235839844" lon="-6.761456489562988">
        <ele>570.0</ele>
        <time>2019-04-23T10:52:10.000Z</time>
      </trkpt>
      <trkpt lat="42.48152542114258" lon="-6.7614569664001465">
        <ele>570.0</ele>
        <time>2019-04-23T10:52:11.000Z</time>
      </trkpt>
      <trkpt lat="42.48151779174805" lon="-6.7614569664001465">
        <ele>570.0</ele>
        <time>2019-04-23T10:52:11.000Z</time>
      </trkpt>
      <trkpt lat="42.4814567565918" lon="-6.7614665031433105">
        <ele>570.0</ele>
        <time>2019-04-23T10:52:18.000Z</time>
      </trkpt>
      <trkpt lat="42.48137664794922" lon="-6.761479377746582">
        <ele>570.0</ele>
        <time>2019-04-23T10:52:25.000Z</time>
      </trkpt>
      <trkpt lat="42.48128128051758" lon="-6.761495113372803">
        <ele>571.0</ele>
        <time>2019-04-23T10:52:33.000Z</time>
      </trkpt>
      <trkpt lat="42.481178283691406" lon="-6.76151180267334">
        <ele>571.0</ele>
        <time>2019-04-23T10:52:40.000Z</time>
      </trkpt>
      <trkpt lat="42.481117248535156" lon="-6.761538505554199">
        <ele>571.0</ele>
        <time>2019-04-23T10:52:46.000Z</time>
      </trkpt>
      <trkpt lat="42.48106384277344" lon="-6.761570930480957">
        <ele>572.0</ele>
        <time>2019-04-23T10:52:52.000Z</time>
      </trkpt>
      <trkpt lat="42.481021881103516" lon="-6.761606216430664">
        <ele>572.0</ele>
        <time>2019-04-23T10:52:58.000Z</time>
      </trkpt>
      <trkpt lat="42.480979919433594" lon="-6.761643886566162">
        <ele>572.0</ele>
        <time>2019-04-23T10:53:04.000Z</time>
      </trkpt>
      <trkpt lat="42.48096466064453" lon="-6.7616705894470215">
        <ele>572.0</ele>
        <time>2019-04-23T10:53:09.000Z</time>
      </trkpt>
      <trkpt lat="42.48096466064453" lon="-6.76169490814209">
        <ele>573.0</ele>
        <time>2019-04-23T10:53:13.000Z</time>
      </trkpt>
      <trkpt lat="42.48097610473633" lon="-6.761717319488525">
        <ele>574.0</ele>
        <time>2019-04-23T10:53:18.000Z</time>
      </trkpt>
      <trkpt lat="42.480987548828125" lon="-6.761739253997803">
        <ele>575.0</ele>
        <time>2019-04-23T10:53:23.000Z</time>
      </trkpt>
      <trkpt lat="42.480987548828125" lon="-6.761760711669922">
        <ele>575.0</ele>
        <time>2019-04-23T10:53:45.000Z</time>
      </trkpt>
      <trkpt lat="42.48099136352539" lon="-6.761781692504883">
        <ele>575.0</ele>
        <time>2019-04-23T10:54:07.000Z</time>
      </trkpt>
      <trkpt lat="42.48099136352539" lon="-6.7618021965026855">
        <ele>575.0</ele>
        <time>2019-04-23T10:54:30.000Z</time>
      </trkpt>
      <trkpt lat="42.48099136352539" lon="-6.76182222366333">
        <ele>576.0</ele>
        <time>2019-04-23T10:54:52.000Z</time>
      </trkpt>
      <trkpt lat="42.48099136352539" lon="-6.761837005615234">
        <ele>576.0</ele>
        <time>2019-04-23T10:54:52.000Z</time>
      </trkpt>
      <trkpt lat="42.48099136352539" lon="-6.7618489265441895">
        <ele>576.0</ele>
        <time>2019-04-23T10:54:52.000Z</time>
      </trkpt>
      <trkpt lat="42.48099136352539" lon="-6.76185941696167">
        <ele>576.0</ele>
        <time>2019-04-23T10:54:53.000Z</time>
      </trkpt>
      <trkpt lat="42.48099136352539" lon="-6.761868953704834">
        <ele>576.0</ele>
        <time>2019-04-23T10:54:53.000Z</time>
      </trkpt>
      <trkpt lat="42.48099899291992" lon="-6.7619524002075195">
        <ele>575.0</ele>
        <time>2019-04-23T10:54:59.000Z</time>
      </trkpt>
      <trkpt lat="42.48100662231445" lon="-6.762065887451172">
        <ele>574.0</ele>
        <time>2019-04-23T10:55:05.000Z</time>
      </trkpt>
      <trkpt lat="42.48101806640625" lon="-6.762199401855469">
        <ele>573.0</ele>
        <time>2019-04-23T10:55:11.000Z</time>
      </trkpt>
      <trkpt lat="42.48102951049805" lon="-6.762342929840088">
        <ele>572.0</ele>
        <time>2019-04-23T10:55:17.000Z</time>
      </trkpt>
      <trkpt lat="42.48103713989258" lon="-6.762461185455322">
        <ele>571.0</ele>
        <time>2019-04-23T10:55:24.000Z</time>
      </trkpt>
      <trkpt lat="42.481048583984375" lon="-6.762579441070557">
        <ele>570.0</ele>
        <time>2019-04-23T10:55:32.000Z</time>
      </trkpt>
      <trkpt lat="42.48106002807617" lon="-6.762697219848633">
        <ele>569.0</ele>
        <time>2019-04-23T10:55:39.000Z</time>
      </trkpt>
      <trkpt lat="42.48107147216797" lon="-6.762815475463867">
        <ele>568.0</ele>
        <time>2019-04-23T10:55:47.000Z</time>
      </trkpt>
      <trkpt lat="42.4810791015625" lon="-6.762930393218994">
        <ele>567.0</ele>
        <time>2019-04-23T10:55:55.000Z</time>
      </trkpt>
      <trkpt lat="42.48108673095703" lon="-6.7630438804626465">
        <ele>566.0</ele>
        <time>2019-04-23T10:56:02.000Z</time>
      </trkpt>
      <trkpt lat="42.48109436035156" lon="-6.763156414031982">
        <ele>566.0</ele>
        <time>2019-04-23T10:56:10.000Z</time>
      </trkpt>
      <trkpt lat="42.481101989746094" lon="-6.76326847076416">
        <ele>565.0</ele>
        <time>2019-04-23T10:56:18.000Z</time>
      </trkpt>
      <trkpt lat="42.48109436035156" lon="-6.7633233070373535">
        <ele>564.0</ele>
        <time>2019-04-23T10:56:25.000Z</time>
      </trkpt>
      <trkpt lat="42.4810791015625" lon="-6.763298511505127">
        <ele>564.0</ele>
        <time>2019-04-23T10:56:33.000Z</time>
      </trkpt>
      <trkpt lat="42.481075286865234" lon="-6.763304710388184">
        <ele>564.0</ele>
        <time>2019-04-23T10:56:33.000Z</time>
      </trkpt>
      <trkpt lat="42.48107147216797" lon="-6.763310432434082">
        <ele>564.0</ele>
        <time>2019-04-23T10:56:33.000Z</time>
      </trkpt>
      <trkpt lat="42.4810676574707" lon="-6.763315677642822">
        <ele>564.0</ele>
        <time>2019-04-23T10:56:34.000Z</time>
      </trkpt>
      <trkpt lat="42.48106384277344" lon="-6.763320446014404">
        <ele>564.0</ele>
        <time>2019-04-23T10:56:34.000Z</time>
      </trkpt>
      <trkpt lat="42.481014251708984" lon="-6.763365745544434">
        <ele>564.0</ele>
        <time>2019-04-23T10:56:39.000Z</time>
      </trkpt>
      <trkpt lat="42.4809455871582" lon="-6.763427734375">
        <ele>564.0</ele>
        <time>2019-04-23T10:56:44.000Z</time>
      </trkpt>
      <trkpt lat="42.480865478515625" lon="-6.763500690460205">
        <ele>564.0</ele>
        <time>2019-04-23T10:56:49.000Z</time>
      </trkpt>
      <trkpt lat="42.480777740478516" lon="-6.76357889175415">
        <ele>564.0</ele>
        <time>2019-04-23T10:56:54.000Z</time>
      </trkpt>
      <trkpt lat="42.48069763183594" lon="-6.763620376586914">
        <ele>564.0</ele>
        <time>2019-04-23T10:57:03.000Z</time>
      </trkpt>
      <trkpt lat="42.48060989379883" lon="-6.7636518478393555">
        <ele>565.0</ele>
        <time>2019-04-23T10:57:13.000Z</time>
      </trkpt>
      <trkpt lat="42.48052215576172" lon="-6.76367712020874">
        <ele>566.0</ele>
        <time>2019-04-23T10:57:22.000Z</time>
      </trkpt>
      <trkpt lat="42.480430603027344" lon="-6.763698577880859">
        <ele>567.0</ele>
        <time>2019-04-23T10:57:32.000Z</time>
      </trkpt>
      <trkpt lat="42.480350494384766" lon="-6.763742923736572">
        <ele>568.0</ele>
        <time>2019-04-23T10:57:41.000Z</time>
      </trkpt>
      <trkpt lat="42.48026657104492" lon="-6.763792991638184">
        <ele>569.0</ele>
        <time>2019-04-23T10:57:50.000Z</time>
      </trkpt>
      <trkpt lat="42.480186462402344" lon="-6.7638468742370605">
        <ele>571.0</ele>
        <time>2019-04-23T10:58:00.000Z</time>
      </trkpt>
      <trkpt lat="42.48011016845703" lon="-6.7639031410217285">
        <ele>572.0</ele>
        <time>2019-04-23T10:58:09.000Z</time>
      </trkpt>
      <trkpt lat="42.48002243041992" lon="-6.763936996459961">
        <ele>573.0</ele>
        <time>2019-04-23T10:58:17.000Z</time>
      </trkpt>
      <trkpt lat="42.47993850708008" lon="-6.76396369934082">
        <ele>575.0</ele>
        <time>2019-04-23T10:58:25.000Z</time>
      </trkpt>
      <trkpt lat="42.47985076904297" lon="-6.763985633850098">
        <ele>576.0</ele>
        <time>2019-04-23T10:58:33.000Z</time>
      </trkpt>
      <trkpt lat="42.479766845703125" lon="-6.764005184173584">
        <ele>578.0</ele>
        <time>2019-04-23T10:58:41.000Z</time>
      </trkpt>
      <trkpt lat="42.479408264160156" lon="-6.764119625091553">
        <ele>580.0</ele>
        <time>2019-04-23T10:59:13.000Z</time>
      </trkpt>
      <trkpt lat="42.479156494140625" lon="-6.764332294464111">
        <ele>585.0</ele>
        <time>2019-04-23T10:59:46.000Z</time>
      </trkpt>
      <trkpt lat="42.479103088378906" lon="-6.76437520980835">
        <ele>588.0</ele>
        <time>2019-04-23T11:00:07.000Z</time>
      </trkpt>
      <trkpt lat="42.47907638549805" lon="-6.764398097991943">
        <ele>588.0</ele>
        <time>2019-04-23T11:00:08.000Z</time>
      </trkpt>
      <trkpt lat="42.478912353515625" lon="-6.764544486999512">
        <ele>591.0</ele>
        <time>2019-04-23T11:00:21.000Z</time>
      </trkpt>
      <trkpt lat="42.478885650634766" lon="-6.764569282531738">
        <ele>592.0</ele>
        <time>2019-04-23T11:00:44.000Z</time>
      </trkpt>
      <trkpt lat="42.47886276245117" lon="-6.764586448669434">
        <ele>592.0</ele>
        <time>2019-04-23T11:00:45.000Z</time>
      </trkpt>
      <trkpt lat="42.478729248046875" lon="-6.7646870613098145">
        <ele>593.0</ele>
        <time>2019-04-23T11:00:53.000Z</time>
      </trkpt>
      <trkpt lat="42.478668212890625" lon="-6.764725208282471">
        <ele>594.0</ele>
        <time>2019-04-23T11:01:06.000Z</time>
      </trkpt>
      <trkpt lat="42.4786376953125" lon="-6.764744758605957">
        <ele>594.0</ele>
        <time>2019-04-23T11:01:07.000Z</time>
      </trkpt>
      <trkpt lat="42.478553771972656" lon="-6.764803409576416">
        <ele>594.0</ele>
        <time>2019-04-23T11:01:11.000Z</time>
      </trkpt>
      <trkpt lat="42.47846984863281" lon="-6.764873504638672">
        <ele>598.0</ele>
        <time>2019-04-23T11:01:36.000Z</time>
      </trkpt>
      <trkpt lat="42.47843933105469" lon="-6.764899253845215">
        <ele>598.0</ele>
        <time>2019-04-23T11:01:37.000Z</time>
      </trkpt>
      <trkpt lat="42.47833251953125" lon="-6.765008449554443">
        <ele>599.0</ele>
        <time>2019-04-23T11:01:45.000Z</time>
      </trkpt>
      <trkpt lat="42.47829818725586" lon="-6.7650532722473145">
        <ele>604.0</ele>
        <time>2019-04-23T11:02:20.000Z</time>
      </trkpt>
      <trkpt lat="42.478275299072266" lon="-6.7650861740112305">
        <ele>604.0</ele>
        <time>2019-04-23T11:02:21.000Z</time>
      </trkpt>
      <trkpt lat="42.4782600402832" lon="-6.76510763168335">
        <ele>605.0</ele>
        <time>2019-04-23T11:02:25.000Z</time>
      </trkpt>
      <trkpt lat="42.478206634521484" lon="-6.765191078186035">
        <ele>605.0</ele>
        <time>2019-04-23T11:02:27.000Z</time>
      </trkpt>
      <trkpt lat="42.47818374633789" lon="-6.765228271484375">
        <ele>605.0</ele>
        <time>2019-04-23T11:02:28.000Z</time>
      </trkpt>
      <trkpt lat="42.47813415527344" lon="-6.765298366546631">
        <ele>605.0</ele>
        <time>2019-04-23T11:02:30.000Z</time>
      </trkpt>
      <trkpt lat="42.47812271118164" lon="-6.765303134918213">
        <ele>604.0</ele>
        <time>2019-04-23T11:03:15.000Z</time>
      </trkpt>
      <trkpt lat="42.478111267089844" lon="-6.765307426452637">
        <ele>604.0</ele>
        <time>2019-04-23T11:03:16.000Z</time>
      </trkpt>
      <trkpt lat="42.47796630859375" lon="-6.765364170074463">
        <ele>604.0</ele>
        <time>2019-04-23T11:03:18.000Z</time>
      </trkpt>
      <trkpt lat="42.477779388427734" lon="-6.765443325042725">
        <ele>602.0</ele>
        <time>2019-04-23T11:03:33.000Z</time>
      </trkpt>
      <trkpt lat="42.47761917114258" lon="-6.7655415534973145">
        <ele>602.0</ele>
        <time>2019-04-23T11:03:49.000Z</time>
      </trkpt>
      <trkpt lat="42.477455139160156" lon="-6.76563024520874">
        <ele>605.0</ele>
        <time>2019-04-23T11:04:02.000Z</time>
      </trkpt>
      <trkpt lat="42.47711181640625" lon="-6.765763759613037">
        <ele>611.0</ele>
        <time>2019-04-23T11:04:34.000Z</time>
      </trkpt>
      <trkpt lat="42.476776123046875" lon="-6.765930652618408">
        <ele>616.0</ele>
        <time>2019-04-23T11:05:06.000Z</time>
      </trkpt>
      <trkpt lat="42.4764289855957" lon="-6.76606559753418">
        <ele>622.0</ele>
        <time>2019-04-23T11:05:44.000Z</time>
      </trkpt>
      <trkpt lat="42.47609329223633" lon="-6.766227722167969">
        <ele>630.0</ele>
        <time>2019-04-23T11:06:19.000Z</time>
      </trkpt>
      <trkpt lat="42.475738525390625" lon="-6.766284465789795">
        <ele>632.0</ele>
        <time>2019-04-23T11:06:51.000Z</time>
      </trkpt>
      <trkpt lat="42.47538757324219" lon="-6.766364097595215">
        <ele>633.0</ele>
        <time>2019-04-23T11:07:25.000Z</time>
      </trkpt>
      <trkpt lat="42.475032806396484" lon="-6.766445159912109">
        <ele>638.0</ele>
        <time>2019-04-23T11:08:00.000Z</time>
      </trkpt>
      <trkpt lat="42.47467803955078" lon="-6.7664875984191895">
        <ele>639.0</ele>
        <time>2019-04-23T11:08:34.000Z</time>
      </trkpt>
      <trkpt lat="42.47431945800781" lon="-6.766569137573242">
        <ele>643.0</ele>
        <time>2019-04-23T11:09:12.000Z</time>
      </trkpt>
      <trkpt lat="42.473968505859375" lon="-6.76656436920166">
        <ele>645.0</ele>
        <time>2019-04-23T11:09:48.000Z</time>
      </trkpt>
      <trkpt lat="42.47361755371094" lon="-6.766514301300049">
        <ele>649.0</ele>
        <time>2019-04-23T11:10:28.000Z</time>
      </trkpt>
      <trkpt lat="42.47343063354492" lon="-6.766458511352539">
        <ele>653.0</ele>
        <time>2019-04-23T11:10:49.000Z</time>
      </trkpt>
      <trkpt lat="42.47336959838867" lon="-6.766408443450928">
        <ele>654.0</ele>
        <time>2019-04-23T11:11:07.000Z</time>
      </trkpt>
      <trkpt lat="42.47333526611328" lon="-6.766384601593018">
        <ele>654.0</ele>
        <time>2019-04-23T11:12:04.000Z</time>
      </trkpt>
      <trkpt lat="42.47331237792969" lon="-6.766368389129639">
        <ele>654.0</ele>
        <time>2019-04-23T11:12:05.000Z</time>
      </trkpt>
      <trkpt lat="42.473140716552734" lon="-6.766262531280518">
        <ele>653.0</ele>
        <time>2019-04-23T11:12:13.000Z</time>
      </trkpt>
      <trkpt lat="42.47284698486328" lon="-6.76621150970459">
        <ele>645.0</ele>
        <time>2019-04-23T11:12:44.000Z</time>
      </trkpt>
      <trkpt lat="42.47282028198242" lon="-6.766200065612793">
        <ele>640.0</ele>
        <time>2019-04-23T11:13:03.000Z</time>
      </trkpt>
      <trkpt lat="42.47279739379883" lon="-6.766191482543945">
        <ele>640.0</ele>
        <time>2019-04-23T11:13:04.000Z</time>
      </trkpt>
      <trkpt lat="42.4725456237793" lon="-6.766079902648926">
        <ele>638.0</ele>
        <time>2019-04-23T11:13:18.000Z</time>
      </trkpt>
      <trkpt lat="42.47238540649414" lon="-6.765949249267578">
        <ele>640.0</ele>
        <time>2019-04-23T11:13:38.000Z</time>
      </trkpt>
      <trkpt lat="42.4722785949707" lon="-6.765751838684082">
        <ele>640.0</ele>
        <time>2019-04-23T11:13:57.000Z</time>
      </trkpt>
      <trkpt lat="42.472251892089844" lon="-6.7657012939453125">
        <ele>641.0</ele>
        <time>2019-04-23T11:14:03.000Z</time>
      </trkpt>
      <trkpt lat="42.47224426269531" lon="-6.765655994415283">
        <ele>640.0</ele>
        <time>2019-04-23T11:14:14.000Z</time>
      </trkpt>
      <trkpt lat="42.47223663330078" lon="-6.765600681304932">
        <ele>640.0</ele>
        <time>2019-04-23T11:14:25.000Z</time>
      </trkpt>
      <trkpt lat="42.472232818603516" lon="-6.765584945678711">
        <ele>640.0</ele>
        <time>2019-04-23T11:14:25.000Z</time>
      </trkpt>
      <trkpt lat="42.472232818603516" lon="-6.765572547912598">
        <ele>640.0</ele>
        <time>2019-04-23T11:14:26.000Z</time>
      </trkpt>
      <trkpt lat="42.47222900390625" lon="-6.765563011169434">
        <ele>640.0</ele>
        <time>2019-04-23T11:14:26.000Z</time>
      </trkpt>
      <trkpt lat="42.47222900390625" lon="-6.765554428100586">
        <ele>640.0</ele>
        <time>2019-04-23T11:14:26.000Z</time>
      </trkpt>
      <trkpt lat="42.472225189208984" lon="-6.765506744384766">
        <ele>640.0</ele>
        <time>2019-04-23T11:14:28.000Z</time>
      </trkpt>
      <trkpt lat="42.472225189208984" lon="-6.765443801879883">
        <ele>640.0</ele>
        <time>2019-04-23T11:14:31.000Z</time>
      </trkpt>
      <trkpt lat="42.47222137451172" lon="-6.765370845794678">
        <ele>641.0</ele>
        <time>2019-04-23T11:14:33.000Z</time>
      </trkpt>
      <trkpt lat="42.47221755981445" lon="-6.765293121337891">
        <ele>641.0</ele>
        <time>2019-04-23T11:14:35.000Z</time>
      </trkpt>
      <trkpt lat="42.472225189208984" lon="-6.765231609344482">
        <ele>641.0</ele>
        <time>2019-04-23T11:14:39.000Z</time>
      </trkpt>
      <trkpt lat="42.47224044799805" lon="-6.765172004699707">
        <ele>641.0</ele>
        <time>2019-04-23T11:14:42.000Z</time>
      </trkpt>
      <trkpt lat="42.47225570678711" lon="-6.765113830566406">
        <ele>641.0</ele>
        <time>2019-04-23T11:14:46.000Z</time>
      </trkpt>
      <trkpt lat="42.47227478027344" lon="-6.765056133270264">
        <ele>641.0</ele>
        <time>2019-04-23T11:14:49.000Z</time>
      </trkpt>
      <trkpt lat="42.472293853759766" lon="-6.765006065368652">
        <ele>641.0</ele>
        <time>2019-04-23T11:14:52.000Z</time>
      </trkpt>
      <trkpt lat="42.47230911254883" lon="-6.764959812164307">
        <ele>641.0</ele>
        <time>2019-04-23T11:14:55.000Z</time>
      </trkpt>
      <trkpt lat="42.472328186035156" lon="-6.76491641998291">
        <ele>641.0</ele>
        <time>2019-04-23T11:14:58.000Z</time>
      </trkpt>
      <trkpt lat="42.472347259521484" lon="-6.76487398147583">
        <ele>641.0</ele>
        <time>2019-04-23T11:15:01.000Z</time>
      </trkpt>
      <trkpt lat="42.47234344482422" lon="-6.764845848083496">
        <ele>642.0</ele>
        <time>2019-04-23T11:15:03.000Z</time>
      </trkpt>
      <trkpt lat="42.472328186035156" lon="-6.764824390411377">
        <ele>642.0</ele>
        <time>2019-04-23T11:15:04.000Z</time>
      </trkpt>
      <trkpt lat="42.47230911254883" lon="-6.764808177947998">
        <ele>644.0</ele>
        <time>2019-04-23T11:15:06.000Z</time>
      </trkpt>
      <trkpt lat="42.472286224365234" lon="-6.76479434967041">
        <ele>645.0</ele>
        <time>2019-04-23T11:15:07.000Z</time>
      </trkpt>
      <trkpt lat="42.47227096557617" lon="-6.764683723449707">
        <ele>647.0</ele>
        <time>2019-04-23T11:15:16.000Z</time>
      </trkpt>
      <trkpt lat="42.472259521484375" lon="-6.764541149139404">
        <ele>651.0</ele>
        <time>2019-04-23T11:15:24.000Z</time>
      </trkpt>
      <trkpt lat="42.47224426269531" lon="-6.764482021331787">
        <ele>652.0</ele>
        <time>2019-04-23T11:15:29.000Z</time>
      </trkpt>
      <trkpt lat="42.47222137451172" lon="-6.7644243240356445">
        <ele>653.0</ele>
        <time>2019-04-23T11:15:33.000Z</time>
      </trkpt>
      <trkpt lat="42.472198486328125" lon="-6.764368057250977">
        <ele>654.0</ele>
        <time>2019-04-23T11:15:38.000Z</time>
      </trkpt>
      <trkpt lat="42.47217559814453" lon="-6.764312744140625">
        <ele>655.0</ele>
        <time>2019-04-23T11:15:42.000Z</time>
      </trkpt>
      <trkpt lat="42.47216033935547" lon="-6.764252662658691">
        <ele>656.0</ele>
        <time>2019-04-23T11:15:47.000Z</time>
      </trkpt>
      <trkpt lat="42.47214889526367" lon="-6.764191627502441">
        <ele>656.0</ele>
        <time>2019-04-23T11:15:52.000Z</time>
      </trkpt>
      <trkpt lat="42.472137451171875" lon="-6.764129638671875">
        <ele>657.0</ele>
        <time>2019-04-23T11:15:57.000Z</time>
      </trkpt>
      <trkpt lat="42.472129821777344" lon="-6.764067649841309">
        <ele>658.0</ele>
        <time>2019-04-23T11:16:02.000Z</time>
      </trkpt>
      <trkpt lat="42.47207260131836" lon="-6.763973236083984">
        <ele>660.0</ele>
        <time>2019-04-23T11:16:12.000Z</time>
      </trkpt>
      <trkpt lat="42.47200393676758" lon="-6.763891696929932">
        <ele>661.0</ele>
        <time>2019-04-23T11:16:21.000Z</time>
      </trkpt>
      <trkpt lat="42.47197341918945" lon="-6.7638468742370605">
        <ele>662.0</ele>
        <time>2019-04-23T11:16:26.000Z</time>
      </trkpt>
      <trkpt lat="42.47194290161133" lon="-6.7638020515441895">
        <ele>663.0</ele>
        <time>2019-04-23T11:16:31.000Z</time>
      </trkpt>
      <trkpt lat="42.47191619873047" lon="-6.763757228851318">
        <ele>664.0</ele>
        <time>2019-04-23T11:16:36.000Z</time>
      </trkpt>
      <trkpt lat="42.471885681152344" lon="-6.763712406158447">
        <ele>664.0</ele>
        <time>2019-04-23T11:16:41.000Z</time>
      </trkpt>
      <trkpt lat="42.47184753417969" lon="-6.763677597045898">
        <ele>665.0</ele>
        <time>2019-04-23T11:16:46.000Z</time>
      </trkpt>
      <trkpt lat="42.47180938720703" lon="-6.763647079467773">
        <ele>666.0</ele>
        <time>2019-04-23T11:16:52.000Z</time>
      </trkpt>
      <trkpt lat="42.471771240234375" lon="-6.763619422912598">
        <ele>667.0</ele>
        <time>2019-04-23T11:16:57.000Z</time>
      </trkpt>
      <trkpt lat="42.47172927856445" lon="-6.7635931968688965">
        <ele>667.0</ele>
        <time>2019-04-23T11:17:02.000Z</time>
      </trkpt>
      <trkpt lat="42.47169876098633" lon="-6.763569355010986">
        <ele>668.0</ele>
        <time>2019-04-23T11:17:06.000Z</time>
      </trkpt>
      <trkpt lat="42.4716682434082" lon="-6.763548374176025">
        <ele>669.0</ele>
        <time>2019-04-23T11:17:10.000Z</time>
      </trkpt>
      <trkpt lat="42.471641540527344" lon="-6.763528823852539">
        <ele>669.0</ele>
        <time>2019-04-23T11:17:13.000Z</time>
      </trkpt>
      <trkpt lat="42.47161865234375" lon="-6.763510227203369">
        <ele>670.0</ele>
        <time>2019-04-23T11:17:17.000Z</time>
      </trkpt>
      <trkpt lat="42.47160339355469" lon="-6.763496398925781">
        <ele>670.0</ele>
        <time>2019-04-23T11:17:22.000Z</time>
      </trkpt>
      <trkpt lat="42.47159194946289" lon="-6.763485431671143">
        <ele>671.0</ele>
        <time>2019-04-23T11:17:26.000Z</time>
      </trkpt>
      <trkpt lat="42.471588134765625" lon="-6.763476848602295">
        <ele>671.0</ele>
        <time>2019-04-23T11:17:31.000Z</time>
      </trkpt>
      <trkpt lat="42.47158432006836" lon="-6.7634687423706055">
        <ele>672.0</ele>
        <time>2019-04-23T11:17:35.000Z</time>
      </trkpt>
      <trkpt lat="42.47157669067383" lon="-6.763461112976074">
        <ele>672.0</ele>
        <time>2019-04-23T11:17:35.000Z</time>
      </trkpt>
      <trkpt lat="42.47157287597656" lon="-6.763454437255859">
        <ele>672.0</ele>
        <time>2019-04-23T11:17:36.000Z</time>
      </trkpt>
      <trkpt lat="42.47156524658203" lon="-6.763448238372803">
        <ele>672.0</ele>
        <time>2019-04-23T11:17:36.000Z</time>
      </trkpt>
      <trkpt lat="42.471561431884766" lon="-6.763442516326904">
        <ele>672.0</ele>
        <time>2019-04-23T11:17:36.000Z</time>
      </trkpt>
      <trkpt lat="42.47142028808594" lon="-6.763285160064697">
        <ele>672.0</ele>
        <time>2019-04-23T11:17:42.000Z</time>
      </trkpt>
      <trkpt lat="42.471397399902344" lon="-6.763227939605713">
        <ele>673.0</ele>
        <time>2019-04-23T11:17:56.000Z</time>
      </trkpt>
      <trkpt lat="42.47135925292969" lon="-6.763176441192627">
        <ele>672.0</ele>
        <time>2019-04-23T11:18:34.000Z</time>
      </trkpt>
      <trkpt lat="42.471336364746094" lon="-6.76314640045166">
        <ele>672.0</ele>
        <time>2019-04-23T11:18:35.000Z</time>
      </trkpt>
      <trkpt lat="42.47112274169922" lon="-6.7629828453063965">
        <ele>671.0</ele>
        <time>2019-04-23T11:18:49.000Z</time>
      </trkpt>
      <trkpt lat="42.471092224121094" lon="-6.762979507446289">
        <ele>671.0</ele>
        <time>2019-04-23T11:18:51.000Z</time>
      </trkpt>
      <trkpt lat="42.471073150634766" lon="-6.762991905212402">
        <ele>671.0</ele>
        <time>2019-04-23T11:18:54.000Z</time>
      </trkpt>
      <trkpt lat="42.47106170654297" lon="-6.763014793395996">
        <ele>671.0</ele>
        <time>2019-04-23T11:18:56.000Z</time>
      </trkpt>
      <trkpt lat="42.47105407714844" lon="-6.76304292678833">
        <ele>672.0</ele>
        <time>2019-04-23T11:18:58.000Z</time>
      </trkpt>
      <trkpt lat="42.4710578918457" lon="-6.763037204742432">
        <ele>671.0</ele>
        <time>2019-04-23T11:19:03.000Z</time>
      </trkpt>
      <trkpt lat="42.471073150634766" lon="-6.7630228996276855">
        <ele>670.0</ele>
        <time>2019-04-23T11:19:08.000Z</time>
      </trkpt>
      <trkpt lat="42.471092224121094" lon="-6.763002872467041">
        <ele>668.0</ele>
        <time>2019-04-23T11:19:13.000Z</time>
      </trkpt>
      <trkpt lat="42.47111511230469" lon="-6.762979984283447">
        <ele>667.0</ele>
        <time>2019-04-23T11:19:18.000Z</time>
      </trkpt>
      <trkpt lat="42.47111129760742" lon="-6.7629714012146">
        <ele>667.0</ele>
        <time>2019-04-23T11:19:24.000Z</time>
      </trkpt>
      <trkpt lat="42.471107482910156" lon="-6.762965679168701">
        <ele>667.0</ele>
        <time>2019-04-23T11:19:30.000Z</time>
      </trkpt>
      <trkpt lat="42.47109603881836" lon="-6.762962341308594">
        <ele>668.0</ele>
        <time>2019-04-23T11:19:36.000Z</time>
      </trkpt>
      <trkpt lat="42.4710807800293" lon="-6.7629594802856445">
        <ele>668.0</ele>
        <time>2019-04-23T11:19:42.000Z</time>
      </trkpt>
      <trkpt lat="42.471073150634766" lon="-6.762955665588379">
        <ele>668.0</ele>
        <time>2019-04-23T11:19:42.000Z</time>
      </trkpt>
      <trkpt lat="42.4710693359375" lon="-6.762951850891113">
        <ele>668.0</ele>
        <time>2019-04-23T11:19:42.000Z</time>
      </trkpt>
      <trkpt lat="42.471065521240234" lon="-6.762948513031006">
        <ele>668.0</ele>
        <time>2019-04-23T11:19:43.000Z</time>
      </trkpt>
      <trkpt lat="42.4710578918457" lon="-6.762945652008057">
        <ele>668.0</ele>
        <time>2019-04-23T11:19:43.000Z</time>
      </trkpt>
      <trkpt lat="42.47100067138672" lon="-6.762917995452881">
        <ele>669.0</ele>
        <time>2019-04-23T11:19:48.000Z</time>
      </trkpt>
      <trkpt lat="42.470916748046875" lon="-6.762880802154541">
        <ele>670.0</ele>
        <time>2019-04-23T11:19:53.000Z</time>
      </trkpt>
      <trkpt lat="42.470821380615234" lon="-6.762836933135986">
        <ele>671.0</ele>
        <time>2019-04-23T11:19:58.000Z</time>
      </trkpt>
      <trkpt lat="42.47071838378906" lon="-6.762789726257324">
        <ele>672.0</ele>
        <time>2019-04-23T11:20:03.000Z</time>
      </trkpt>
      <trkpt lat="42.47065734863281" lon="-6.762762546539307">
        <ele>673.0</ele>
        <time>2019-04-23T11:20:08.000Z</time>
      </trkpt>
      <trkpt lat="42.47060775756836" lon="-6.762740612030029">
        <ele>673.0</ele>
        <time>2019-04-23T11:20:13.000Z</time>
      </trkpt>
      <trkpt lat="42.47056198120117" lon="-6.762722015380859">
        <ele>674.0</ele>
        <time>2019-04-23T11:20:19.000Z</time>
      </trkpt>
      <trkpt lat="42.47052001953125" lon="-6.762704849243164">
        <ele>675.0</ele>
        <time>2019-04-23T11:20:24.000Z</time>
      </trkpt>
      <trkpt lat="42.47047424316406" lon="-6.762684345245361">
        <ele>676.0</ele>
        <time>2019-04-23T11:20:28.000Z</time>
      </trkpt>
      <trkpt lat="42.470428466796875" lon="-6.762664318084717">
        <ele>676.0</ele>
        <time>2019-04-23T11:20:32.000Z</time>
      </trkpt>
      <trkpt lat="42.47038269042969" lon="-6.762644290924072">
        <ele>677.0</ele>
        <time>2019-04-23T11:20:36.000Z</time>
      </trkpt>
      <trkpt lat="42.470340728759766" lon="-6.762624263763428">
        <ele>677.0</ele>
        <time>2019-04-23T11:20:40.000Z</time>
      </trkpt>
      <trkpt lat="42.47029495239258" lon="-6.762604713439941">
        <ele>677.0</ele>
        <time>2019-04-23T11:20:45.000Z</time>
      </trkpt>
      <trkpt lat="42.47024917602539" lon="-6.762585163116455">
        <ele>677.0</ele>
        <time>2019-04-23T11:20:49.000Z</time>
      </trkpt>
      <trkpt lat="42.47020721435547" lon="-6.762566089630127">
        <ele>677.0</ele>
        <time>2019-04-23T11:20:54.000Z</time>
      </trkpt>
      <trkpt lat="42.47016143798828" lon="-6.762547492980957">
        <ele>676.0</ele>
        <time>2019-04-23T11:20:59.000Z</time>
      </trkpt>
      <trkpt lat="42.46998596191406" lon="-6.762458801269531">
        <ele>674.0</ele>
        <time>2019-04-23T11:21:21.000Z</time>
      </trkpt>
      <trkpt lat="42.46964645385742" lon="-6.762292385101318">
        <ele>669.0</ele>
        <time>2019-04-23T11:21:58.000Z</time>
      </trkpt>
      <trkpt lat="42.46929168701172" lon="-6.762217998504639">
        <ele>681.0</ele>
        <time>2019-04-23T11:22:35.000Z</time>
      </trkpt>
      <trkpt lat="42.46893310546875" lon="-6.762176990509033">
        <ele>694.0</ele>
        <time>2019-04-23T11:23:12.000Z</time>
      </trkpt>
      <trkpt lat="42.46858215332031" lon="-6.762130260467529">
        <ele>692.0</ele>
        <time>2019-04-23T11:23:50.000Z</time>
      </trkpt>
      <trkpt lat="42.46821975708008" lon="-6.7620744705200195">
        <ele>689.0</ele>
        <time>2019-04-23T11:24:24.000Z</time>
      </trkpt>
      <trkpt lat="42.46786117553711" lon="-6.762057781219482">
        <ele>693.0</ele>
        <time>2019-04-23T11:24:58.000Z</time>
      </trkpt>
      <trkpt lat="42.467506408691406" lon="-6.7620062828063965">
        <ele>705.0</ele>
        <time>2019-04-23T11:25:35.000Z</time>
      </trkpt>
      <trkpt lat="42.46714401245117" lon="-6.762028217315674">
        <ele>706.0</ele>
        <time>2019-04-23T11:26:09.000Z</time>
      </trkpt>
      <trkpt lat="42.466793060302734" lon="-6.762118816375732">
        <ele>706.0</ele>
        <time>2019-04-23T11:26:48.000Z</time>
      </trkpt>
      <trkpt lat="42.46643829345703" lon="-6.76218843460083">
        <ele>711.0</ele>
        <time>2019-04-23T11:27:23.000Z</time>
      </trkpt>
      <trkpt lat="42.466087341308594" lon="-6.762267589569092">
        <ele>716.0</ele>
        <time>2019-04-23T11:27:57.000Z</time>
      </trkpt>
      <trkpt lat="42.465728759765625" lon="-6.762343406677246">
        <ele>717.0</ele>
        <time>2019-04-23T11:28:34.000Z</time>
      </trkpt>
      <trkpt lat="42.46537399291992" lon="-6.762442588806152">
        <ele>722.0</ele>
        <time>2019-04-23T11:29:12.000Z</time>
      </trkpt>
      <trkpt lat="42.46502685546875" lon="-6.762547969818115">
        <ele>713.0</ele>
        <time>2019-04-23T11:29:57.000Z</time>
      </trkpt>
      <trkpt lat="42.46467590332031" lon="-6.762637615203857">
        <ele>703.0</ele>
        <time>2019-04-23T11:30:35.000Z</time>
      </trkpt>
      <trkpt lat="42.46463394165039" lon="-6.762641429901123">
        <ele>701.0</ele>
        <time>2019-04-23T11:30:42.000Z</time>
      </trkpt>
      <trkpt lat="42.464595794677734" lon="-6.762649059295654">
        <ele>698.0</ele>
        <time>2019-04-23T11:31:01.000Z</time>
      </trkpt>
      <trkpt lat="42.46457290649414" lon="-6.762654781341553">
        <ele>698.0</ele>
        <time>2019-04-23T11:31:02.000Z</time>
      </trkpt>
      <trkpt lat="42.46445846557617" lon="-6.762681484222412">
        <ele>697.0</ele>
        <time>2019-04-23T11:31:05.000Z</time>
      </trkpt>
      <trkpt lat="42.464412689208984" lon="-6.762703895568848">
        <ele>694.0</ele>
        <time>2019-04-23T11:31:22.000Z</time>
      </trkpt>
      <trkpt lat="42.46438217163086" lon="-6.7627177238464355">
        <ele>694.0</ele>
        <time>2019-04-23T11:31:23.000Z</time>
      </trkpt>
      <trkpt lat="42.464237213134766" lon="-6.762787818908691">
        <ele>694.0</ele>
        <time>2019-04-23T11:31:29.000Z</time>
      </trkpt>
      <trkpt lat="42.464080810546875" lon="-6.762915134429932">
        <ele>692.0</ele>
        <time>2019-04-23T11:31:45.000Z</time>
      </trkpt>
      <trkpt lat="42.463905334472656" lon="-6.763002395629883">
        <ele>691.0</ele>
        <time>2019-04-23T11:32:05.000Z</time>
      </trkpt>
      <trkpt lat="42.463836669921875" lon="-6.763082981109619">
        <ele>691.0</ele>
        <time>2019-04-23T11:32:13.000Z</time>
      </trkpt>
      <trkpt lat="42.463775634765625" lon="-6.763180255889893">
        <ele>691.0</ele>
        <time>2019-04-23T11:32:21.000Z</time>
      </trkpt>
      <trkpt lat="42.46373748779297" lon="-6.763217926025391">
        <ele>691.0</ele>
        <time>2019-04-23T11:32:25.000Z</time>
      </trkpt>
      <trkpt lat="42.46369934082031" lon="-6.7632527351379395">
        <ele>691.0</ele>
        <time>2019-04-23T11:32:30.000Z</time>
      </trkpt>
      <trkpt lat="42.463661193847656" lon="-6.7632856369018555">
        <ele>692.0</ele>
        <time>2019-04-23T11:32:34.000Z</time>
      </trkpt>
      <trkpt lat="42.463619232177734" lon="-6.763317108154297">
        <ele>692.0</ele>
        <time>2019-04-23T11:32:39.000Z</time>
      </trkpt>
      <trkpt lat="42.463584899902344" lon="-6.763351917266846">
        <ele>693.0</ele>
        <time>2019-04-23T11:32:44.000Z</time>
      </trkpt>
      <trkpt lat="42.46354675292969" lon="-6.7633867263793945">
        <ele>693.0</ele>
        <time>2019-04-23T11:32:49.000Z</time>
      </trkpt>
      <trkpt lat="42.46350860595703" lon="-6.763421535491943">
        <ele>693.0</ele>
        <time>2019-04-23T11:32:54.000Z</time>
      </trkpt>
      <trkpt lat="42.46347427368164" lon="-6.76345682144165">
        <ele>694.0</ele>
        <time>2019-04-23T11:32:59.000Z</time>
      </trkpt>
      <trkpt lat="42.46343994140625" lon="-6.763500213623047">
        <ele>694.0</ele>
        <time>2019-04-23T11:33:02.000Z</time>
      </trkpt>
      <trkpt lat="42.46341323852539" lon="-6.763546943664551">
        <ele>695.0</ele>
        <time>2019-04-23T11:33:05.000Z</time>
      </trkpt>
      <trkpt lat="42.463382720947266" lon="-6.763596057891846">
        <ele>696.0</ele>
        <time>2019-04-23T11:33:08.000Z</time>
      </trkpt>
      <trkpt lat="42.463356018066406" lon="-6.763646602630615">
        <ele>697.0</ele>
        <time>2019-04-23T11:33:11.000Z</time>
      </trkpt>
      <trkpt lat="42.46332550048828" lon="-6.7636942863464355">
        <ele>698.0</ele>
        <time>2019-04-23T11:33:15.000Z</time>
      </trkpt>
      <trkpt lat="42.463294982910156" lon="-6.763741970062256">
        <ele>700.0</ele>
        <time>2019-04-23T11:33:19.000Z</time>
      </trkpt>
      <trkpt lat="42.46326446533203" lon="-6.763789653778076">
        <ele>701.0</ele>
        <time>2019-04-23T11:33:23.000Z</time>
      </trkpt>
      <trkpt lat="42.46323013305664" lon="-6.7638373374938965">
        <ele>702.0</ele>
        <time>2019-04-23T11:33:27.000Z</time>
      </trkpt>
      <trkpt lat="42.463199615478516" lon="-6.763885974884033">
        <ele>703.0</ele>
        <time>2019-04-23T11:33:31.000Z</time>
      </trkpt>
      <trkpt lat="42.463172912597656" lon="-6.763935565948486">
        <ele>704.0</ele>
        <time>2019-04-23T11:33:36.000Z</time>
      </trkpt>
      <trkpt lat="42.46314239501953" lon="-6.763984680175781">
        <ele>705.0</ele>
        <time>2019-04-23T11:33:40.000Z</time>
      </trkpt>
      <trkpt lat="42.463111877441406" lon="-6.764034271240234">
        <ele>706.0</ele>
        <time>2019-04-23T11:33:45.000Z</time>
      </trkpt>
      <trkpt lat="42.46300506591797" lon="-6.764236927032471">
        <ele>708.0</ele>
        <time>2019-04-23T11:34:00.000Z</time>
      </trkpt>
      <trkpt lat="42.46293640136719" lon="-6.764466762542725">
        <ele>714.0</ele>
        <time>2019-04-23T11:34:19.000Z</time>
      </trkpt>
      <trkpt lat="42.46286392211914" lon="-6.7649455070495605">
        <ele>728.0</ele>
        <time>2019-04-23T11:34:52.000Z</time>
      </trkpt>
      <trkpt lat="42.46281814575195" lon="-6.765325546264648">
        <ele>733.0</ele>
        <time>2019-04-23T11:35:17.000Z</time>
      </trkpt>
      <trkpt lat="42.46274185180664" lon="-6.765557289123535">
        <ele>735.0</ele>
        <time>2019-04-23T11:35:32.000Z</time>
      </trkpt>
      <trkpt lat="42.462677001953125" lon="-6.7656474113464355">
        <ele>734.0</ele>
        <time>2019-04-23T11:35:41.000Z</time>
      </trkpt>
      <trkpt lat="42.46260452270508" lon="-6.765726089477539">
        <ele>732.0</ele>
        <time>2019-04-23T11:35:51.000Z</time>
      </trkpt>
      <trkpt lat="42.46257019042969" lon="-6.765762805938721">
        <ele>731.0</ele>
        <time>2019-04-23T11:35:55.000Z</time>
      </trkpt>
      <trkpt lat="42.46253204345703" lon="-6.7657976150512695">
        <ele>730.0</ele>
        <time>2019-04-23T11:36:00.000Z</time>
      </trkpt>
      <trkpt lat="42.462493896484375" lon="-6.7658305168151855">
        <ele>730.0</ele>
        <time>2019-04-23T11:36:05.000Z</time>
      </trkpt>
      <trkpt lat="42.46245574951172" lon="-6.765862464904785">
        <ele>729.0</ele>
        <time>2019-04-23T11:36:10.000Z</time>
      </trkpt>
      <trkpt lat="42.4624137878418" lon="-6.765888690948486">
        <ele>729.0</ele>
        <time>2019-04-23T11:36:14.000Z</time>
      </trkpt>
      <trkpt lat="42.46236801147461" lon="-6.765911102294922">
        <ele>729.0</ele>
        <time>2019-04-23T11:36:18.000Z</time>
      </trkpt>
      <trkpt lat="42.46232223510742" lon="-6.765931129455566">
        <ele>728.0</ele>
        <time>2019-04-23T11:36:22.000Z</time>
      </trkpt>
      <trkpt lat="42.462276458740234" lon="-6.7659502029418945">
        <ele>728.0</ele>
        <time>2019-04-23T11:36:26.000Z</time>
      </trkpt>
      <trkpt lat="42.46223449707031" lon="-6.765969753265381">
        <ele>728.0</ele>
        <time>2019-04-23T11:36:29.000Z</time>
      </trkpt>
      <trkpt lat="42.462188720703125" lon="-6.765988349914551">
        <ele>728.0</ele>
        <time>2019-04-23T11:36:33.000Z</time>
      </trkpt>
      <trkpt lat="42.46214294433594" lon="-6.7660064697265625">
        <ele>728.0</ele>
        <time>2019-04-23T11:36:36.000Z</time>
      </trkpt>
      <trkpt lat="42.46209716796875" lon="-6.766024112701416">
        <ele>728.0</ele>
        <time>2019-04-23T11:36:40.000Z</time>
      </trkpt>
      <trkpt lat="42.46205139160156" lon="-6.7660417556762695">
        <ele>728.0</ele>
        <time>2019-04-23T11:36:44.000Z</time>
      </trkpt>
      <trkpt lat="42.462005615234375" lon="-6.766057968139648">
        <ele>728.0</ele>
        <time>2019-04-23T11:36:48.000Z</time>
      </trkpt>
      <trkpt lat="42.46195983886719" lon="-6.766074180603027">
        <ele>728.0</ele>
        <time>2019-04-23T11:36:52.000Z</time>
      </trkpt>
      <trkpt lat="42.4619140625" lon="-6.766090393066406">
        <ele>728.0</ele>
        <time>2019-04-23T11:36:57.000Z</time>
      </trkpt>
      <trkpt lat="42.46186828613281" lon="-6.766116142272949">
        <ele>729.0</ele>
        <time>2019-04-23T11:37:01.000Z</time>
      </trkpt>
      <trkpt lat="42.461822509765625" lon="-6.766146183013916">
        <ele>730.0</ele>
        <time>2019-04-23T11:37:06.000Z</time>
      </trkpt>
      <trkpt lat="42.4617805480957" lon="-6.766178607940674">
        <ele>731.0</ele>
        <time>2019-04-23T11:37:11.000Z</time>
      </trkpt>
      <trkpt lat="42.461734771728516" lon="-6.766211986541748">
        <ele>732.0</ele>
        <time>2019-04-23T11:37:16.000Z</time>
      </trkpt>
      <trkpt lat="42.461578369140625" lon="-6.766360759735107">
        <ele>731.0</ele>
        <time>2019-04-23T11:37:33.000Z</time>
      </trkpt>
      <trkpt lat="42.461456298828125" lon="-6.766551971435547">
        <ele>731.0</ele>
        <time>2019-04-23T11:37:50.000Z</time>
      </trkpt>
      <trkpt lat="42.461360931396484" lon="-6.766790866851807">
        <ele>732.0</ele>
        <time>2019-04-23T11:38:09.000Z</time>
      </trkpt>
      <trkpt lat="42.46129608154297" lon="-6.767023086547852">
        <ele>735.0</ele>
        <time>2019-04-23T11:38:28.000Z</time>
      </trkpt>
      <trkpt lat="42.46125030517578" lon="-6.7672576904296875">
        <ele>733.0</ele>
        <time>2019-04-23T11:38:46.000Z</time>
      </trkpt>
      <trkpt lat="42.461158752441406" lon="-6.767462253570557">
        <ele>731.0</ele>
        <time>2019-04-23T11:39:04.000Z</time>
      </trkpt>
      <trkpt lat="42.46104049682617" lon="-6.7676568031311035">
        <ele>730.0</ele>
        <time>2019-04-23T11:39:23.000Z</time>
      </trkpt>
      <trkpt lat="42.460777282714844" lon="-6.767975330352783">
        <ele>727.0</ele>
        <time>2019-04-23T11:39:56.000Z</time>
      </trkpt>
      <trkpt lat="42.46074676513672" lon="-6.768045902252197">
        <ele>726.0</ele>
        <time>2019-04-23T11:40:03.000Z</time>
      </trkpt>
      <trkpt lat="42.460758209228516" lon="-6.768074989318848">
        <ele>726.0</ele>
        <time>2019-04-23T11:40:10.000Z</time>
      </trkpt>
      <trkpt lat="42.46074295043945" lon="-6.768081188201904">
        <ele>729.0</ele>
        <time>2019-04-23T11:40:43.000Z</time>
      </trkpt>
      <trkpt lat="42.46072006225586" lon="-6.768078804016113">
        <ele>733.0</ele>
        <time>2019-04-23T11:41:15.000Z</time>
      </trkpt>
      <trkpt lat="42.460697174072266" lon="-6.76807165145874">
        <ele>739.0</ele>
        <time>2019-04-23T11:41:48.000Z</time>
      </trkpt>
      <trkpt lat="42.46067428588867" lon="-6.768061637878418">
        <ele>745.0</ele>
        <time>2019-04-23T11:42:20.000Z</time>
      </trkpt>
      <trkpt lat="42.46065902709961" lon="-6.768059730529785">
        <ele>746.0</ele>
        <time>2019-04-23T11:42:21.000Z</time>
      </trkpt>
      <trkpt lat="42.46065139770508" lon="-6.7680583000183105">
        <ele>747.0</ele>
        <time>2019-04-23T11:42:21.000Z</time>
      </trkpt>
      <trkpt lat="42.46064376831055" lon="-6.768056869506836">
        <ele>746.0</ele>
        <time>2019-04-23T11:42:21.000Z</time>
      </trkpt>
      <trkpt lat="42.460636138916016" lon="-6.7680559158325195">
        <ele>745.0</ele>
        <time>2019-04-23T11:42:21.000Z</time>
      </trkpt>
      <trkpt lat="42.460601806640625" lon="-6.768063068389893">
        <ele>745.0</ele>
        <time>2019-04-23T11:42:25.000Z</time>
      </trkpt>
      <trkpt lat="42.46055221557617" lon="-6.768074035644531">
        <ele>745.0</ele>
        <time>2019-04-23T11:42:29.000Z</time>
      </trkpt>
      <trkpt lat="42.46049499511719" lon="-6.768087387084961">
        <ele>745.0</ele>
        <time>2019-04-23T11:42:33.000Z</time>
      </trkpt>
      <trkpt lat="42.4604377746582" lon="-6.768101692199707">
        <ele>746.0</ele>
        <time>2019-04-23T11:42:36.000Z</time>
      </trkpt>
      <trkpt lat="42.46038818359375" lon="-6.768130302429199">
        <ele>746.0</ele>
        <time>2019-04-23T11:42:40.000Z</time>
      </trkpt>
      <trkpt lat="42.46034622192383" lon="-6.768166542053223">
        <ele>746.0</ele>
        <time>2019-04-23T11:42:44.000Z</time>
      </trkpt>
      <trkpt lat="42.46030044555664" lon="-6.768207550048828">
        <ele>746.0</ele>
        <time>2019-04-23T11:42:48.000Z</time>
      </trkpt>
      <trkpt lat="42.46025848388672" lon="-6.768250465393066">
        <ele>746.0</ele>
        <time>2019-04-23T11:42:52.000Z</time>
      </trkpt>
      <trkpt lat="42.46021270751953" lon="-6.768275260925293">
        <ele>746.0</ele>
        <time>2019-04-23T11:42:57.000Z</time>
      </trkpt>
      <trkpt lat="42.460166931152344" lon="-6.768294334411621">
        <ele>746.0</ele>
        <time>2019-04-23T11:43:01.000Z</time>
      </trkpt>
      <trkpt lat="42.460121154785156" lon="-6.768310070037842">
        <ele>746.0</ele>
        <time>2019-04-23T11:43:06.000Z</time>
      </trkpt>
      <trkpt lat="42.460079193115234" lon="-6.76832389831543">
        <ele>745.0</ele>
        <time>2019-04-23T11:43:10.000Z</time>
      </trkpt>
      <trkpt lat="42.460025787353516" lon="-6.768338680267334">
        <ele>745.0</ele>
        <time>2019-04-23T11:43:16.000Z</time>
      </trkpt>
      <trkpt lat="42.45996856689453" lon="-6.768352031707764">
        <ele>744.0</ele>
        <time>2019-04-23T11:43:21.000Z</time>
      </trkpt>
      <trkpt lat="42.45991134643555" lon="-6.768363952636719">
        <ele>743.0</ele>
        <time>2019-04-23T11:43:26.000Z</time>
      </trkpt>
      <trkpt lat="42.45985412597656" lon="-6.768375873565674">
        <ele>742.0</ele>
        <time>2019-04-23T11:43:31.000Z</time>
      </trkpt>
      <trkpt lat="42.45980453491211" lon="-6.768357276916504">
        <ele>741.0</ele>
        <time>2019-04-23T11:43:37.000Z</time>
      </trkpt>
      <trkpt lat="42.45975875854492" lon="-6.768325328826904">
        <ele>740.0</ele>
        <time>2019-04-23T11:43:43.000Z</time>
      </trkpt>
      <trkpt lat="42.45970916748047" lon="-6.768284797668457">
        <ele>738.0</ele>
        <time>2019-04-23T11:43:49.000Z</time>
      </trkpt>
      <trkpt lat="42.45966720581055" lon="-6.768239974975586">
        <ele>737.0</ele>
        <time>2019-04-23T11:43:54.000Z</time>
      </trkpt>
      <trkpt lat="42.459590911865234" lon="-6.768229007720947">
        <ele>736.0</ele>
        <time>2019-04-23T11:44:03.000Z</time>
      </trkpt>
      <trkpt lat="42.45952224731445" lon="-6.768243312835693">
        <ele>735.0</ele>
        <time>2019-04-23T11:44:11.000Z</time>
      </trkpt>
      <trkpt lat="42.459468841552734" lon="-6.768243312835693">
        <ele>735.0</ele>
        <time>2019-04-23T11:44:16.000Z</time>
      </trkpt>
      <trkpt lat="42.45941162109375" lon="-6.768242359161377">
        <ele>734.0</ele>
        <time>2019-04-23T11:44:20.000Z</time>
      </trkpt>
      <trkpt lat="42.4593505859375" lon="-6.7682414054870605">
        <ele>733.0</ele>
        <time>2019-04-23T11:44:25.000Z</time>
      </trkpt>
      <trkpt lat="42.45928192138672" lon="-6.768239974975586">
        <ele>733.0</ele>
        <time>2019-04-23T11:44:29.000Z</time>
      </trkpt>
      <trkpt lat="42.4592399597168" lon="-6.768209934234619">
        <ele>732.0</ele>
        <time>2019-04-23T11:44:33.000Z</time>
      </trkpt>
      <trkpt lat="42.45920181274414" lon="-6.768167972564697">
        <ele>731.0</ele>
        <time>2019-04-23T11:44:37.000Z</time>
      </trkpt>
      <trkpt lat="42.459171295166016" lon="-6.768117427825928">
        <ele>730.0</ele>
        <time>2019-04-23T11:44:41.000Z</time>
      </trkpt>
      <trkpt lat="42.45914077758789" lon="-6.768063068389893">
        <ele>730.0</ele>
        <time>2019-04-23T11:44:44.000Z</time>
      </trkpt>
      <trkpt lat="42.45905303955078" lon="-6.768026828765869">
        <ele>728.0</ele>
        <time>2019-04-23T11:44:51.000Z</time>
      </trkpt>
      <trkpt lat="42.45895767211914" lon="-6.768014430999756">
        <ele>726.0</ele>
        <time>2019-04-23T11:44:58.000Z</time>
      </trkpt>
      <trkpt lat="42.45888900756836" lon="-6.767982482910156">
        <ele>724.0</ele>
        <time>2019-04-23T11:45:07.000Z</time>
      </trkpt>
      <trkpt lat="42.45880889892578" lon="-6.767941474914551">
        <ele>721.0</ele>
        <time>2019-04-23T11:45:15.000Z</time>
      </trkpt>
      <trkpt lat="42.45872497558594" lon="-6.767894744873047">
        <ele>719.0</ele>
        <time>2019-04-23T11:45:24.000Z</time>
      </trkpt>
      <trkpt lat="42.45863342285156" lon="-6.767845630645752">
        <ele>716.0</ele>
        <time>2019-04-23T11:45:32.000Z</time>
      </trkpt>
      <trkpt lat="42.458587646484375" lon="-6.767809867858887">
        <ele>716.0</ele>
        <time>2019-04-23T11:45:36.000Z</time>
      </trkpt>
      <trkpt lat="42.45855712890625" lon="-6.7677764892578125">
        <ele>717.0</ele>
        <time>2019-04-23T11:45:39.000Z</time>
      </trkpt>
      <trkpt lat="42.45853805541992" lon="-6.767745494842529">
        <ele>718.0</ele>
        <time>2019-04-23T11:45:42.000Z</time>
      </trkpt>
      <trkpt lat="42.45852279663086" lon="-6.767714977264404">
        <ele>719.0</ele>
        <time>2019-04-23T11:45:45.000Z</time>
      </trkpt>
      <trkpt lat="42.45848846435547" lon="-6.767701148986816">
        <ele>720.0</ele>
        <time>2019-04-23T11:45:51.000Z</time>
      </trkpt>
      <trkpt lat="42.45844650268555" lon="-6.767695903778076">
        <ele>720.0</ele>
        <time>2019-04-23T11:45:56.000Z</time>
      </trkpt>
      <trkpt lat="42.45840072631836" lon="-6.767695426940918">
        <ele>721.0</ele>
        <time>2019-04-23T11:46:02.000Z</time>
      </trkpt>
      <trkpt lat="42.45835494995117" lon="-6.767697811126709">
        <ele>721.0</ele>
        <time>2019-04-23T11:46:07.000Z</time>
      </trkpt>
      <trkpt lat="42.458213806152344" lon="-6.767789363861084">
        <ele>720.0</ele>
        <time>2019-04-23T11:46:25.000Z</time>
      </trkpt>
      <trkpt lat="42.458045959472656" lon="-6.7679266929626465">
        <ele>719.0</ele>
        <time>2019-04-23T11:46:43.000Z</time>
      </trkpt>
      <trkpt lat="42.45796585083008" lon="-6.767960071563721">
        <ele>720.0</ele>
        <time>2019-04-23T11:46:50.000Z</time>
      </trkpt>
      <trkpt lat="42.4578857421875" lon="-6.7679829597473145">
        <ele>721.0</ele>
        <time>2019-04-23T11:46:56.000Z</time>
      </trkpt>
      <trkpt lat="42.45780563354492" lon="-6.767999649047852">
        <ele>723.0</ele>
        <time>2019-04-23T11:47:03.000Z</time>
      </trkpt>
      <trkpt lat="42.45772171020508" lon="-6.768013000488281">
        <ele>725.0</ele>
        <time>2019-04-23T11:47:09.000Z</time>
      </trkpt>
      <trkpt lat="42.457664489746094" lon="-6.768024444580078">
        <ele>726.0</ele>
        <time>2019-04-23T11:47:14.000Z</time>
      </trkpt>
      <trkpt lat="42.45761489868164" lon="-6.768032550811768">
        <ele>727.0</ele>
        <time>2019-04-23T11:47:18.000Z</time>
      </trkpt>
      <trkpt lat="42.45757293701172" lon="-6.768037796020508">
        <ele>728.0</ele>
        <time>2019-04-23T11:47:23.000Z</time>
      </trkpt>
      <trkpt lat="42.45753479003906" lon="-6.768041610717773">
        <ele>729.0</ele>
        <time>2019-04-23T11:47:27.000Z</time>
      </trkpt>
      <trkpt lat="42.4575080871582" lon="-6.768046855926514">
        <ele>729.0</ele>
        <time>2019-04-23T11:47:30.000Z</time>
      </trkpt>
      <trkpt lat="42.45748519897461" lon="-6.7680511474609375">
        <ele>730.0</ele>
        <time>2019-04-23T11:47:32.000Z</time>
      </trkpt>
      <trkpt lat="42.45746994018555" lon="-6.768054962158203">
        <ele>730.0</ele>
        <time>2019-04-23T11:47:35.000Z</time>
      </trkpt>
      <trkpt lat="42.45745849609375" lon="-6.768058776855469">
        <ele>730.0</ele>
        <time>2019-04-23T11:47:37.000Z</time>
      </trkpt>
      <trkpt lat="42.45744705200195" lon="-6.7680559158325195">
        <ele>730.0</ele>
        <time>2019-04-23T11:47:42.000Z</time>
      </trkpt>
      <trkpt lat="42.45743942260742" lon="-6.768049716949463">
        <ele>729.0</ele>
        <time>2019-04-23T11:47:46.000Z</time>
      </trkpt>
      <trkpt lat="42.45743179321289" lon="-6.768041610717773">
        <ele>729.0</ele>
        <time>2019-04-23T11:47:51.000Z</time>
      </trkpt>
      <trkpt lat="42.457427978515625" lon="-6.768032550811768">
        <ele>729.0</ele>
        <time>2019-04-23T11:47:55.000Z</time>
      </trkpt>
      <trkpt lat="42.45742416381836" lon="-6.768027305603027">
        <ele>729.0</ele>
        <time>2019-04-23T11:47:55.000Z</time>
      </trkpt>
      <trkpt lat="42.457420349121094" lon="-6.768022537231445">
        <ele>728.0</ele>
        <time>2019-04-23T11:47:56.000Z</time>
      </trkpt>
      <trkpt lat="42.45741271972656" lon="-6.7680182456970215">
        <ele>729.0</ele>
        <time>2019-04-23T11:47:56.000Z</time>
      </trkpt>
      <trkpt lat="42.4574089050293" lon="-6.768013954162598">
        <ele>729.0</ele>
        <time>2019-04-23T11:47:56.000Z</time>
      </trkpt>
      <trkpt lat="42.45738220214844" lon="-6.767991065979004">
        <ele>728.0</ele>
        <time>2019-04-23T11:47:57.000Z</time>
      </trkpt>
      <trkpt lat="42.45735168457031" lon="-6.767960548400879">
        <ele>728.0</ele>
        <time>2019-04-23T11:47:58.000Z</time>
      </trkpt>
      <trkpt lat="42.45730972290039" lon="-6.767924785614014">
        <ele>728.0</ele>
        <time>2019-04-23T11:47:59.000Z</time>
      </trkpt>
      <trkpt lat="42.45726776123047" lon="-6.767886161804199">
        <ele>727.0</ele>
        <time>2019-04-23T11:48:00.000Z</time>
      </trkpt>
      <trkpt lat="42.45722579956055" lon="-6.767858982086182">
        <ele>727.0</ele>
        <time>2019-04-23T11:48:05.000Z</time>
      </trkpt>
      <trkpt lat="42.457183837890625" lon="-6.767833232879639">
        <ele>726.0</ele>
        <time>2019-04-23T11:48:10.000Z</time>
      </trkpt>
      <trkpt lat="42.45713806152344" lon="-6.76780891418457">
        <ele>726.0</ele>
        <time>2019-04-23T11:48:14.000Z</time>
      </trkpt>
      <trkpt lat="42.45709228515625" lon="-6.767785549163818">
        <ele>725.0</ele>
        <time>2019-04-23T11:48:19.000Z</time>
      </trkpt>
      <trkpt lat="42.45700454711914" lon="-6.767782211303711">
        <ele>726.0</ele>
        <time>2019-04-23T11:48:30.000Z</time>
      </trkpt>
      <trkpt lat="42.456912994384766" lon="-6.7677998542785645">
        <ele>729.0</ele>
        <time>2019-04-23T11:48:41.000Z</time>
      </trkpt>
      <trkpt lat="42.456851959228516" lon="-6.767847061157227">
        <ele>730.0</ele>
        <time>2019-04-23T11:48:51.000Z</time>
      </trkpt>
      <trkpt lat="42.456809997558594" lon="-6.767912864685059">
        <ele>730.0</ele>
        <time>2019-04-23T11:49:01.000Z</time>
      </trkpt>
      <trkpt lat="42.45680236816406" lon="-6.767916202545166">
        <ele>729.0</ele>
        <time>2019-04-23T11:49:18.000Z</time>
      </trkpt>
      <trkpt lat="42.45680236816406" lon="-6.767909526824951">
        <ele>728.0</ele>
        <time>2019-04-23T11:49:34.000Z</time>
      </trkpt>
      <trkpt lat="42.45680618286133" lon="-6.767895698547363">
        <ele>727.0</ele>
        <time>2019-04-23T11:49:50.000Z</time>
      </trkpt>
      <trkpt lat="42.45681381225586" lon="-6.767878532409668">
        <ele>726.0</ele>
        <time>2019-04-23T11:50:07.000Z</time>
      </trkpt>
      <trkpt lat="42.45681381225586" lon="-6.767870903015137">
        <ele>725.0</ele>
        <time>2019-04-23T11:50:07.000Z</time>
      </trkpt>
      <trkpt lat="42.456817626953125" lon="-6.767864227294922">
        <ele>725.0</ele>
        <time>2019-04-23T11:50:07.000Z</time>
      </trkpt>
      <trkpt lat="42.456817626953125" lon="-6.767857074737549">
        <ele>725.0</ele>
        <time>2019-04-23T11:50:07.000Z</time>
      </trkpt>
      <trkpt lat="42.456817626953125" lon="-6.767850399017334">
        <ele>726.0</ele>
        <time>2019-04-23T11:50:08.000Z</time>
      </trkpt>
      <trkpt lat="42.45682144165039" lon="-6.7678422927856445">
        <ele>726.0</ele>
        <time>2019-04-23T11:50:08.000Z</time>
      </trkpt>
      <trkpt lat="42.45682144165039" lon="-6.767833709716797">
        <ele>726.0</ele>
        <time>2019-04-23T11:50:09.000Z</time>
      </trkpt>
      <trkpt lat="42.45682144165039" lon="-6.767825126647949">
        <ele>726.0</ele>
        <time>2019-04-23T11:50:09.000Z</time>
      </trkpt>
      <trkpt lat="42.456825256347656" lon="-6.767815589904785">
        <ele>726.0</ele>
        <time>2019-04-23T11:50:10.000Z</time>
      </trkpt>
      <trkpt lat="42.456825256347656" lon="-6.767806529998779">
        <ele>726.0</ele>
        <time>2019-04-23T11:50:10.000Z</time>
      </trkpt>
      <trkpt lat="42.456825256347656" lon="-6.767796993255615">
        <ele>726.0</ele>
        <time>2019-04-23T11:50:10.000Z</time>
      </trkpt>
      <trkpt lat="42.45682907104492" lon="-6.767787456512451">
        <ele>726.0</ele>
        <time>2019-04-23T11:50:11.000Z</time>
      </trkpt>
      <trkpt lat="42.45682907104492" lon="-6.767777919769287">
        <ele>726.0</ele>
        <time>2019-04-23T11:50:11.000Z</time>
      </trkpt>
      <trkpt lat="42.45682144165039" lon="-6.767773151397705">
        <ele>726.0</ele>
        <time>2019-04-23T11:50:16.000Z</time>
      </trkpt>
      <trkpt lat="42.456809997558594" lon="-6.767770767211914">
        <ele>726.0</ele>
        <time>2019-04-23T11:50:20.000Z</time>
      </trkpt>
      <trkpt lat="42.45679473876953" lon="-6.7677693367004395">
        <ele>727.0</ele>
        <time>2019-04-23T11:50:24.000Z</time>
      </trkpt>
      <trkpt lat="42.4567756652832" lon="-6.767768859863281">
        <ele>727.0</ele>
        <time>2019-04-23T11:50:28.000Z</time>
      </trkpt>
      <trkpt lat="42.456764221191406" lon="-6.767767429351807">
        <ele>727.0</ele>
        <time>2019-04-23T11:50:29.000Z</time>
      </trkpt>
      <trkpt lat="42.456756591796875" lon="-6.767765522003174">
        <ele>727.0</ele>
        <time>2019-04-23T11:50:29.000Z</time>
      </trkpt>
      <trkpt lat="42.456748962402344" lon="-6.767764091491699">
        <ele>727.0</ele>
        <time>2019-04-23T11:50:29.000Z</time>
      </trkpt>
      <trkpt lat="42.45673751831055" lon="-6.767763137817383">
        <ele>727.0</ele>
        <time>2019-04-23T11:50:29.000Z</time>
      </trkpt>
      <trkpt lat="42.45671463012695" lon="-6.767756462097168">
        <ele>726.0</ele>
        <time>2019-04-23T11:50:30.000Z</time>
      </trkpt>
      <trkpt lat="42.456687927246094" lon="-6.76774787902832">
        <ele>725.0</ele>
        <time>2019-04-23T11:50:31.000Z</time>
      </trkpt>
      <trkpt lat="42.4566535949707" lon="-6.767738342285156">
        <ele>723.0</ele>
        <time>2019-04-23T11:50:32.000Z</time>
      </trkpt>
      <trkpt lat="42.45661926269531" lon="-6.767727851867676">
        <ele>721.0</ele>
        <time>2019-04-23T11:50:32.000Z</time>
      </trkpt>
      <trkpt lat="42.45661163330078" lon="-6.767709732055664">
        <ele>724.0</ele>
        <time>2019-04-23T11:50:34.000Z</time>
      </trkpt>
      <trkpt lat="42.45661163330078" lon="-6.767687797546387">
        <ele>728.0</ele>
        <time>2019-04-23T11:50:36.000Z</time>
      </trkpt>
      <trkpt lat="42.45661926269531" lon="-6.76766300201416">
        <ele>732.0</ele>
        <time>2019-04-23T11:50:38.000Z</time>
      </trkpt>
      <trkpt lat="42.456626892089844" lon="-6.767636775970459">
        <ele>738.0</ele>
        <time>2019-04-23T11:50:40.000Z</time>
      </trkpt>
      <trkpt lat="42.456642150878906" lon="-6.76763391494751">
        <ele>739.0</ele>
        <time>2019-04-23T11:51:09.000Z</time>
      </trkpt>
      <trkpt lat="42.45665740966797" lon="-6.767639636993408">
        <ele>740.0</ele>
        <time>2019-04-23T11:51:37.000Z</time>
      </trkpt>
      <trkpt lat="42.4566764831543" lon="-6.767650604248047">
        <ele>739.0</ele>
        <time>2019-04-23T11:52:05.000Z</time>
      </trkpt>
      <trkpt lat="42.45669937133789" lon="-6.767664432525635">
        <ele>739.0</ele>
        <time>2019-04-23T11:52:33.000Z</time>
      </trkpt>
      <trkpt lat="42.45671081542969" lon="-6.767668724060059">
        <ele>739.0</ele>
        <time>2019-04-23T11:52:33.000Z</time>
      </trkpt>
      <trkpt lat="42.45671844482422" lon="-6.767671585083008">
        <ele>739.0</ele>
        <time>2019-04-23T11:52:34.000Z</time>
      </trkpt>
      <trkpt lat="42.456722259521484" lon="-6.767673969268799">
        <ele>739.0</ele>
        <time>2019-04-23T11:52:34.000Z</time>
      </trkpt>
      <trkpt lat="42.456729888916016" lon="-6.767675876617432">
        <ele>739.0</ele>
        <time>2019-04-23T11:52:34.000Z</time>
      </trkpt>
      <trkpt lat="42.45673751831055" lon="-6.767679691314697">
        <ele>739.0</ele>
        <time>2019-04-23T11:52:35.000Z</time>
      </trkpt>
      <trkpt lat="42.45674514770508" lon="-6.767683982849121">
        <ele>739.0</ele>
        <time>2019-04-23T11:52:36.000Z</time>
      </trkpt>
      <trkpt lat="42.456756591796875" lon="-6.767688274383545">
        <ele>739.0</ele>
        <time>2019-04-23T11:52:36.000Z</time>
      </trkpt>
      <trkpt lat="42.45676803588867" lon="-6.767692565917969">
        <ele>739.0</ele>
        <time>2019-04-23T11:52:37.000Z</time>
      </trkpt>
      <trkpt lat="42.45674133300781" lon="-6.767672061920166">
        <ele>739.0</ele>
        <time>2019-04-23T11:53:49.000Z</time>
      </trkpt>
      <trkpt lat="42.456600189208984" lon="-6.767564296722412">
        <ele>742.0</ele>
        <time>2019-04-23T11:56:50.000Z</time>
      </trkpt>
      <trkpt lat="42.45662307739258" lon="-6.767581462860107">
        <ele>741.0</ele>
        <time>2019-04-23T11:56:14.000Z</time>
      </trkpt>
      <trkpt lat="42.45665740966797" lon="-6.767608642578125">
        <ele>741.0</ele>
        <time>2019-04-23T11:55:38.000Z</time>
      </trkpt>
      <trkpt lat="42.45665740966797" lon="-6.767608642578125">
        <ele>741.0</ele>
        <time>2019-04-23T11:57:29.000Z</time>
      </trkpt>
      <trkpt lat="42.45561981201172" lon="-6.76857852935791">
        <ele>734.0</ele>
        <time>2019-04-24T05:45:20.000Z</time>
      </trkpt>
      <trkpt lat="42.45528793334961" lon="-6.768673896789551">
        <ele>731.0</ele>
        <time>2019-04-24T05:45:50.000Z</time>
      </trkpt>
      <trkpt lat="42.45497512817383" lon="-6.768856048583984">
        <ele>731.0</ele>
        <time>2019-04-24T05:46:23.000Z</time>
      </trkpt>
      <trkpt lat="42.45471954345703" lon="-6.769169807434082">
        <ele>729.0</ele>
        <time>2019-04-24T05:46:46.000Z</time>
      </trkpt>
      <trkpt lat="42.45451354980469" lon="-6.7695698738098145">
        <ele>727.0</ele>
        <time>2019-04-24T05:47:12.000Z</time>
      </trkpt>
      <trkpt lat="42.45431900024414" lon="-6.769962310791016">
        <ele>729.0</ele>
        <time>2019-04-24T05:47:44.000Z</time>
      </trkpt>
      <trkpt lat="42.454246520996094" lon="-6.770007133483887">
        <ele>729.0</ele>
        <time>2019-04-24T05:47:53.000Z</time>
      </trkpt>
      <trkpt lat="42.454166412353516" lon="-6.7700300216674805">
        <ele>729.0</ele>
        <time>2019-04-24T05:48:03.000Z</time>
      </trkpt>
      <trkpt lat="42.454078674316406" lon="-6.77003812789917">
        <ele>728.0</ele>
        <time>2019-04-24T05:48:12.000Z</time>
      </trkpt>
      <trkpt lat="42.45398712158203" lon="-6.770038604736328">
        <ele>727.0</ele>
        <time>2019-04-24T05:48:22.000Z</time>
      </trkpt>
      <trkpt lat="42.45390319824219" lon="-6.770058631896973">
        <ele>727.0</ele>
        <time>2019-04-24T05:48:28.000Z</time>
      </trkpt>
      <trkpt lat="42.453819274902344" lon="-6.770079135894775">
        <ele>727.0</ele>
        <time>2019-04-24T05:48:34.000Z</time>
      </trkpt>
      <trkpt lat="42.4537353515625" lon="-6.770100116729736">
        <ele>726.0</ele>
        <time>2019-04-24T05:48:40.000Z</time>
      </trkpt>
      <trkpt lat="42.453651428222656" lon="-6.7701215744018555">
        <ele>726.0</ele>
        <time>2019-04-24T05:48:47.000Z</time>
      </trkpt>
      <trkpt lat="42.45356369018555" lon="-6.770129680633545">
        <ele>725.0</ele>
        <time>2019-04-24T05:48:52.000Z</time>
      </trkpt>
      <trkpt lat="42.45347595214844" lon="-6.770133018493652">
        <ele>724.0</ele>
        <time>2019-04-24T05:48:58.000Z</time>
      </trkpt>
      <trkpt lat="42.45338821411133" lon="-6.770133018493652">
        <ele>722.0</ele>
        <time>2019-04-24T05:49:04.000Z</time>
      </trkpt>
      <trkpt lat="42.45329666137695" lon="-6.770130634307861">
        <ele>721.0</ele>
        <time>2019-04-24T05:49:10.000Z</time>
      </trkpt>
      <trkpt lat="42.453208923339844" lon="-6.7701311111450195">
        <ele>720.0</ele>
        <time>2019-04-24T05:49:18.000Z</time>
      </trkpt>
      <trkpt lat="42.453121185302734" lon="-6.7701311111450195">
        <ele>719.0</ele>
        <time>2019-04-24T05:49:27.000Z</time>
      </trkpt>
      <trkpt lat="42.45303726196289" lon="-6.770130157470703">
        <ele>718.0</ele>
        <time>2019-04-24T05:49:35.000Z</time>
      </trkpt>
      <trkpt lat="42.45294952392578" lon="-6.7701287269592285">
        <ele>718.0</ele>
        <time>2019-04-24T05:49:44.000Z</time>
      </trkpt>
      <trkpt lat="42.45288848876953" lon="-6.770140647888184">
        <ele>717.0</ele>
        <time>2019-04-24T05:49:47.000Z</time>
      </trkpt>
      <trkpt lat="42.452842712402344" lon="-6.770157814025879">
        <ele>717.0</ele>
        <time>2019-04-24T05:49:51.000Z</time>
      </trkpt>
      <trkpt lat="42.45280075073242" lon="-6.770178318023682">
        <ele>717.0</ele>
        <time>2019-04-24T05:49:54.000Z</time>
      </trkpt>
      <trkpt lat="42.45276641845703" lon="-6.770200729370117">
        <ele>717.0</ele>
        <time>2019-04-24T05:49:58.000Z</time>
      </trkpt>
      <trkpt lat="42.452735900878906" lon="-6.770242691040039">
        <ele>717.0</ele>
        <time>2019-04-24T05:50:02.000Z</time>
      </trkpt>
      <trkpt lat="42.45271682739258" lon="-6.7702956199646">
        <ele>717.0</ele>
        <time>2019-04-24T05:50:07.000Z</time>
      </trkpt>
      <trkpt lat="42.45269775390625" lon="-6.770354747772217">
        <ele>718.0</ele>
        <time>2019-04-24T05:50:12.000Z</time>
      </trkpt>
      <trkpt lat="42.45268249511719" lon="-6.7704176902771">
        <ele>718.0</ele>
        <time>2019-04-24T05:50:17.000Z</time>
      </trkpt>
      <trkpt lat="42.45267868041992" lon="-6.770436763763428">
        <ele>719.0</ele>
        <time>2019-04-24T05:50:22.000Z</time>
      </trkpt>
      <trkpt lat="42.452674865722656" lon="-6.770441055297852">
        <ele>720.0</ele>
        <time>2019-04-24T05:50:27.000Z</time>
      </trkpt>
      <trkpt lat="42.45267868041992" lon="-6.770435810089111">
        <ele>721.0</ele>
        <time>2019-04-24T05:50:32.000Z</time>
      </trkpt>
      <trkpt lat="42.45268249511719" lon="-6.770425319671631">
        <ele>722.0</ele>
        <time>2019-04-24T05:50:37.000Z</time>
      </trkpt>
      <trkpt lat="42.45268249511719" lon="-6.770427227020264">
        <ele>722.0</ele>
        <time>2019-04-24T05:50:37.000Z</time>
      </trkpt>
      <trkpt lat="42.45268249511719" lon="-6.7704291343688965">
        <ele>722.0</ele>
        <time>2019-04-24T05:50:37.000Z</time>
      </trkpt>
      <trkpt lat="42.45268249511719" lon="-6.770431041717529">
        <ele>722.0</ele>
        <time>2019-04-24T05:50:37.000Z</time>
      </trkpt>
      <trkpt lat="42.45267868041992" lon="-6.770432949066162">
        <ele>722.0</ele>
        <time>2019-04-24T05:50:38.000Z</time>
      </trkpt>
      <trkpt lat="42.452659606933594" lon="-6.770487308502197">
        <ele>722.0</ele>
        <time>2019-04-24T05:50:40.000Z</time>
      </trkpt>
      <trkpt lat="42.45262908935547" lon="-6.77056360244751">
        <ele>722.0</ele>
        <time>2019-04-24T05:50:43.000Z</time>
      </trkpt>
      <trkpt lat="42.45259094238281" lon="-6.770655155181885">
        <ele>723.0</ele>
        <time>2019-04-24T05:50:45.000Z</time>
      </trkpt>
      <trkpt lat="42.45254898071289" lon="-6.770753383636475">
        <ele>723.0</ele>
        <time>2019-04-24T05:50:48.000Z</time>
      </trkpt>
      <trkpt lat="42.45249557495117" lon="-6.770830154418945">
        <ele>725.0</ele>
        <time>2019-04-24T05:50:54.000Z</time>
      </trkpt>
      <trkpt lat="42.452430725097656" lon="-6.770905494689941">
        <ele>727.0</ele>
        <time>2019-04-24T05:51:01.000Z</time>
      </trkpt>
      <trkpt lat="42.452362060546875" lon="-6.770979404449463">
        <ele>730.0</ele>
        <time>2019-04-24T05:51:08.000Z</time>
      </trkpt>
      <trkpt lat="42.45228958129883" lon="-6.771053314208984">
        <ele>733.0</ele>
        <time>2019-04-24T05:51:15.000Z</time>
      </trkpt>
      <trkpt lat="42.45224380493164" lon="-6.771162509918213">
        <ele>736.0</ele>
        <time>2019-04-24T05:51:24.000Z</time>
      </trkpt>
      <trkpt lat="42.45223617553711" lon="-6.77125358581543">
        <ele>738.0</ele>
        <time>2019-04-24T05:51:34.000Z</time>
      </trkpt>
      <trkpt lat="42.45222473144531" lon="-6.771282196044922">
        <ele>739.0</ele>
        <time>2019-04-24T05:51:41.000Z</time>
      </trkpt>
      <trkpt lat="42.452213287353516" lon="-6.771302223205566">
        <ele>741.0</ele>
        <time>2019-04-24T05:51:49.000Z</time>
      </trkpt>
      <trkpt lat="42.45220184326172" lon="-6.7713165283203125">
        <ele>743.0</ele>
        <time>2019-04-24T05:51:57.000Z</time>
      </trkpt>
      <trkpt lat="42.45219039916992" lon="-6.771327972412109">
        <ele>745.0</ele>
        <time>2019-04-24T05:52:05.000Z</time>
      </trkpt>
      <trkpt lat="42.452178955078125" lon="-6.7713422775268555">
        <ele>745.0</ele>
        <time>2019-04-24T05:52:05.000Z</time>
      </trkpt>
      <trkpt lat="42.452171325683594" lon="-6.771354675292969">
        <ele>745.0</ele>
        <time>2019-04-24T05:52:05.000Z</time>
      </trkpt>
      <trkpt lat="42.45216369628906" lon="-6.771365642547607">
        <ele>745.0</ele>
        <time>2019-04-24T05:52:05.000Z</time>
      </trkpt>
      <trkpt lat="42.4521598815918" lon="-6.771376132965088">
        <ele>745.0</ele>
        <time>2019-04-24T05:52:06.000Z</time>
      </trkpt>
      <trkpt lat="42.45213317871094" lon="-6.771417140960693">
        <ele>745.0</ele>
        <time>2019-04-24T05:52:06.000Z</time>
      </trkpt>
      <trkpt lat="42.45209884643555" lon="-6.771470069885254">
        <ele>745.0</ele>
        <time>2019-04-24T05:52:07.000Z</time>
      </trkpt>
      <trkpt lat="42.452064514160156" lon="-6.771531105041504">
        <ele>745.0</ele>
        <time>2019-04-24T05:52:08.000Z</time>
      </trkpt>
      <trkpt lat="42.452022552490234" lon="-6.7715959548950195">
        <ele>746.0</ele>
        <time>2019-04-24T05:52:09.000Z</time>
      </trkpt>
      <trkpt lat="42.451995849609375" lon="-6.771641731262207">
        <ele>746.0</ele>
        <time>2019-04-24T05:52:11.000Z</time>
      </trkpt>
      <trkpt lat="42.45197296142578" lon="-6.7716827392578125">
        <ele>747.0</ele>
        <time>2019-04-24T05:52:14.000Z</time>
      </trkpt>
      <trkpt lat="42.45195388793945" lon="-6.771721363067627">
        <ele>748.0</ele>
        <time>2019-04-24T05:52:16.000Z</time>
      </trkpt>
      <trkpt lat="42.451934814453125" lon="-6.771759033203125">
        <ele>749.0</ele>
        <time>2019-04-24T05:52:18.000Z</time>
      </trkpt>
      <trkpt lat="42.451908111572266" lon="-6.771798610687256">
        <ele>749.0</ele>
        <time>2019-04-24T05:52:21.000Z</time>
      </trkpt>
      <trkpt lat="42.45187759399414" lon="-6.7718377113342285">
        <ele>750.0</ele>
        <time>2019-04-24T05:52:23.000Z</time>
      </trkpt>
      <trkpt lat="42.451847076416016" lon="-6.771877288818359">
        <ele>751.0</ele>
        <time>2019-04-24T05:52:26.000Z</time>
      </trkpt>
      <trkpt lat="42.451812744140625" lon="-6.771915912628174">
        <ele>751.0</ele>
        <time>2019-04-24T05:52:28.000Z</time>
      </trkpt>
      <trkpt lat="42.45163345336914" lon="-6.7723307609558105">
        <ele>761.0</ele>
        <time>2019-04-24T05:53:12.000Z</time>
      </trkpt>
      <trkpt lat="42.45161819458008" lon="-6.772515296936035">
        <ele>763.0</ele>
        <time>2019-04-24T05:53:25.000Z</time>
      </trkpt>
      <trkpt lat="42.45158767700195" lon="-6.772565841674805">
        <ele>763.0</ele>
        <time>2019-04-24T05:53:29.000Z</time>
      </trkpt>
      <trkpt lat="42.45154571533203" lon="-6.772617816925049">
        <ele>763.0</ele>
        <time>2019-04-24T05:53:34.000Z</time>
      </trkpt>
      <trkpt lat="42.45149612426758" lon="-6.772671222686768">
        <ele>764.0</ele>
        <time>2019-04-24T05:53:39.000Z</time>
      </trkpt>
      <trkpt lat="42.45144271850586" lon="-6.772725582122803">
        <ele>764.0</ele>
        <time>2019-04-24T05:53:44.000Z</time>
      </trkpt>
      <trkpt lat="42.45140838623047" lon="-6.772772312164307">
        <ele>765.0</ele>
        <time>2019-04-24T05:53:48.000Z</time>
      </trkpt>
      <trkpt lat="42.451377868652344" lon="-6.772816181182861">
        <ele>765.0</ele>
        <time>2019-04-24T05:53:53.000Z</time>
      </trkpt>
      <trkpt lat="42.451351165771484" lon="-6.7728590965271">
        <ele>765.0</ele>
        <time>2019-04-24T05:53:58.000Z</time>
      </trkpt>
      <trkpt lat="42.45132064819336" lon="-6.772900581359863">
        <ele>765.0</ele>
        <time>2019-04-24T05:54:03.000Z</time>
      </trkpt>
      <trkpt lat="42.45130920410156" lon="-6.772921562194824">
        <ele>765.0</ele>
        <time>2019-04-24T05:54:06.000Z</time>
      </trkpt>
      <trkpt lat="42.45130157470703" lon="-6.772932529449463">
        <ele>765.0</ele>
        <time>2019-04-24T05:54:09.000Z</time>
      </trkpt>
      <trkpt lat="42.451297760009766" lon="-6.772937297821045">
        <ele>765.0</ele>
        <time>2019-04-24T05:54:12.000Z</time>
      </trkpt>
      <trkpt lat="42.451297760009766" lon="-6.7729387283325195">
        <ele>765.0</ele>
        <time>2019-04-24T05:54:15.000Z</time>
      </trkpt>
      <trkpt lat="42.4512939453125" lon="-6.772945880889893">
        <ele>765.0</ele>
        <time>2019-04-24T05:54:15.000Z</time>
      </trkpt>
      <trkpt lat="42.451290130615234" lon="-6.772953033447266">
        <ele>765.0</ele>
        <time>2019-04-24T05:54:15.000Z</time>
      </trkpt>
      <trkpt lat="42.45128631591797" lon="-6.772959232330322">
        <ele>765.0</ele>
        <time>2019-04-24T05:54:15.000Z</time>
      </trkpt>
      <trkpt lat="42.4512825012207" lon="-6.772964954376221">
        <ele>765.0</ele>
        <time>2019-04-24T05:54:16.000Z</time>
      </trkpt>
      <trkpt lat="42.45124816894531" lon="-6.773030757904053">
        <ele>765.0</ele>
        <time>2019-04-24T05:54:20.000Z</time>
      </trkpt>
      <trkpt lat="42.45119857788086" lon="-6.7731218338012695">
        <ele>765.0</ele>
        <time>2019-04-24T05:54:24.000Z</time>
      </trkpt>
      <trkpt lat="42.451141357421875" lon="-6.773229122161865">
        <ele>766.0</ele>
        <time>2019-04-24T05:54:28.000Z</time>
      </trkpt>
      <trkpt lat="42.451080322265625" lon="-6.773344993591309">
        <ele>766.0</ele>
        <time>2019-04-24T05:54:33.000Z</time>
      </trkpt>
      <trkpt lat="42.451045989990234" lon="-6.7734527587890625">
        <ele>766.0</ele>
        <time>2019-04-24T05:54:41.000Z</time>
      </trkpt>
      <trkpt lat="42.451019287109375" lon="-6.773565769195557">
        <ele>767.0</ele>
        <time>2019-04-24T05:54:50.000Z</time>
      </trkpt>
      <trkpt lat="42.45099639892578" lon="-6.773683071136475">
        <ele>767.0</ele>
        <time>2019-04-24T05:54:58.000Z</time>
      </trkpt>
      <trkpt lat="42.45097732543945" lon="-6.773801326751709">
        <ele>768.0</ele>
        <time>2019-04-24T05:55:07.000Z</time>
      </trkpt>
      <trkpt lat="42.450931549072266" lon="-6.7742743492126465">
        <ele>769.0</ele>
        <time>2019-04-24T05:55:37.000Z</time>
      </trkpt>
      <trkpt lat="42.45087814331055" lon="-6.774534225463867">
        <ele>770.0</ele>
        <time>2019-04-24T05:55:53.000Z</time>
      </trkpt>
      <trkpt lat="42.450809478759766" lon="-6.7747483253479">
        <ele>770.0</ele>
        <time>2019-04-24T05:56:06.000Z</time>
      </trkpt>
      <trkpt lat="42.45076370239258" lon="-6.77499532699585">
        <ele>771.0</ele>
        <time>2019-04-24T05:56:20.000Z</time>
      </trkpt>
      <trkpt lat="42.450645446777344" lon="-6.77544641494751">
        <ele>766.0</ele>
        <time>2019-04-24T05:56:47.000Z</time>
      </trkpt>
      <trkpt lat="42.45048904418945" lon="-6.775876998901367">
        <ele>763.0</ele>
        <time>2019-04-24T05:57:17.000Z</time>
      </trkpt>
      <trkpt lat="42.45042419433594" lon="-6.776340484619141">
        <ele>766.0</ele>
        <time>2019-04-24T05:57:48.000Z</time>
      </trkpt>
      <trkpt lat="42.45042037963867" lon="-6.776519775390625">
        <ele>775.0</ele>
        <time>2019-04-24T05:58:03.000Z</time>
      </trkpt>
      <trkpt lat="42.450408935546875" lon="-6.776630878448486">
        <ele>786.0</ele>
        <time>2019-04-24T05:58:19.000Z</time>
      </trkpt>
      <trkpt lat="42.45040512084961" lon="-6.776675701141357">
        <ele>786.0</ele>
        <time>2019-04-24T05:58:20.000Z</time>
      </trkpt>
      <trkpt lat="42.45036697387695" lon="-6.77691650390625">
        <ele>793.0</ele>
        <time>2019-04-24T05:58:32.000Z</time>
      </trkpt>
      <trkpt lat="42.45034408569336" lon="-6.777155876159668">
        <ele>797.0</ele>
        <time>2019-04-24T05:58:48.000Z</time>
      </trkpt>
      <trkpt lat="42.45028305053711" lon="-6.777385234832764">
        <ele>796.0</ele>
        <time>2019-04-24T05:59:02.000Z</time>
      </trkpt>
      <trkpt lat="42.450294494628906" lon="-6.7775092124938965">
        <ele>796.0</ele>
        <time>2019-04-24T05:59:10.000Z</time>
      </trkpt>
      <trkpt lat="42.45032501220703" lon="-6.777637481689453">
        <ele>796.0</ele>
        <time>2019-04-24T05:59:18.000Z</time>
      </trkpt>
      <trkpt lat="42.4503288269043" lon="-6.7777018547058105">
        <ele>795.0</ele>
        <time>2019-04-24T05:59:22.000Z</time>
      </trkpt>
      <trkpt lat="42.4503288269043" lon="-6.777767181396484">
        <ele>795.0</ele>
        <time>2019-04-24T05:59:26.000Z</time>
      </trkpt>
      <trkpt lat="42.4503288269043" lon="-6.777832508087158">
        <ele>794.0</ele>
        <time>2019-04-24T05:59:30.000Z</time>
      </trkpt>
      <trkpt lat="42.45032501220703" lon="-6.77789831161499">
        <ele>793.0</ele>
        <time>2019-04-24T05:59:34.000Z</time>
      </trkpt>
      <trkpt lat="42.4503059387207" lon="-6.777995586395264">
        <ele>793.0</ele>
        <time>2019-04-24T05:59:41.000Z</time>
      </trkpt>
      <trkpt lat="42.45028305053711" lon="-6.778106689453125">
        <ele>793.0</ele>
        <time>2019-04-24T05:59:47.000Z</time>
      </trkpt>
      <trkpt lat="42.45025634765625" lon="-6.778226852416992">
        <ele>792.0</ele>
        <time>2019-04-24T05:59:54.000Z</time>
      </trkpt>
      <trkpt lat="42.450225830078125" lon="-6.778351306915283">
        <ele>792.0</ele>
        <time>2019-04-24T06:00:00.000Z</time>
      </trkpt>
      <trkpt lat="42.45018005371094" lon="-6.778451442718506">
        <ele>791.0</ele>
        <time>2019-04-24T06:00:09.000Z</time>
      </trkpt>
      <trkpt lat="42.45012664794922" lon="-6.7785468101501465">
        <ele>790.0</ele>
        <time>2019-04-24T06:00:17.000Z</time>
      </trkpt>
      <trkpt lat="42.45006561279297" lon="-6.7786383628845215">
        <ele>788.0</ele>
        <time>2019-04-24T06:00:26.000Z</time>
      </trkpt>
      <trkpt lat="42.45000457763672" lon="-6.778728008270264">
        <ele>787.0</ele>
        <time>2019-04-24T06:00:34.000Z</time>
      </trkpt>
      <trkpt lat="42.4499397277832" lon="-6.778813362121582">
        <ele>786.0</ele>
        <time>2019-04-24T06:00:41.000Z</time>
      </trkpt>
      <trkpt lat="42.44987869262695" lon="-6.778894901275635">
        <ele>787.0</ele>
        <time>2019-04-24T06:00:47.000Z</time>
      </trkpt>
      <trkpt lat="42.44981002807617" lon="-6.778974533081055">
        <ele>787.0</ele>
        <time>2019-04-24T06:00:54.000Z</time>
      </trkpt>
      <trkpt lat="42.449745178222656" lon="-6.779052257537842">
        <ele>787.0</ele>
        <time>2019-04-24T06:01:00.000Z</time>
      </trkpt>
      <trkpt lat="42.44968032836914" lon="-6.779138088226318">
        <ele>787.0</ele>
        <time>2019-04-24T06:01:07.000Z</time>
      </trkpt>
      <trkpt lat="42.449615478515625" lon="-6.779225826263428">
        <ele>786.0</ele>
        <time>2019-04-24T06:01:13.000Z</time>
      </trkpt>
      <trkpt lat="42.449554443359375" lon="-6.7793145179748535">
        <ele>786.0</ele>
        <time>2019-04-24T06:01:20.000Z</time>
      </trkpt>
      <trkpt lat="42.44948959350586" lon="-6.779404163360596">
        <ele>785.0</ele>
        <time>2019-04-24T06:01:26.000Z</time>
      </trkpt>
      <trkpt lat="42.449432373046875" lon="-6.77951192855835">
        <ele>788.0</ele>
        <time>2019-04-24T06:01:50.000Z</time>
      </trkpt>
      <trkpt lat="42.44940948486328" lon="-6.779550552368164">
        <ele>785.0</ele>
        <time>2019-04-24T06:02:32.000Z</time>
      </trkpt>
      <trkpt lat="42.44939422607422" lon="-6.779579162597656">
        <ele>785.0</ele>
        <time>2019-04-24T06:02:33.000Z</time>
      </trkpt>
      <trkpt lat="42.4492073059082" lon="-6.779936790466309">
        <ele>785.0</ele>
        <time>2019-04-24T06:02:47.000Z</time>
      </trkpt>
      <trkpt lat="42.44898223876953" lon="-6.780313491821289">
        <ele>782.0</ele>
        <time>2019-04-24T06:03:12.000Z</time>
      </trkpt>
      <trkpt lat="42.44890213012695" lon="-6.780362129211426">
        <ele>781.0</ele>
        <time>2019-04-24T06:03:22.000Z</time>
      </trkpt>
      <trkpt lat="42.44881820678711" lon="-6.780391693115234">
        <ele>780.0</ele>
        <time>2019-04-24T06:03:31.000Z</time>
      </trkpt>
      <trkpt lat="42.448726654052734" lon="-6.78040885925293">
        <ele>779.0</ele>
        <time>2019-04-24T06:03:40.000Z</time>
      </trkpt>
      <trkpt lat="42.448631286621094" lon="-6.78041934967041">
        <ele>778.0</ele>
        <time>2019-04-24T06:03:49.000Z</time>
      </trkpt>
      <trkpt lat="42.44858169555664" lon="-6.780433654785156">
        <ele>778.0</ele>
        <time>2019-04-24T06:03:54.000Z</time>
      </trkpt>
      <trkpt lat="42.448543548583984" lon="-6.78044319152832">
        <ele>778.0</ele>
        <time>2019-04-24T06:03:58.000Z</time>
      </trkpt>
      <trkpt lat="42.448516845703125" lon="-6.780449390411377">
        <ele>778.0</ele>
        <time>2019-04-24T06:04:03.000Z</time>
      </trkpt>
      <trkpt lat="42.4484977722168" lon="-6.780454158782959">
        <ele>778.0</ele>
        <time>2019-04-24T06:04:07.000Z</time>
      </trkpt>
      <trkpt lat="42.448455810546875" lon="-6.78048849105835">
        <ele>779.0</ele>
        <time>2019-04-24T06:04:17.000Z</time>
      </trkpt>
      <trkpt lat="42.44843292236328" lon="-6.7805304527282715">
        <ele>782.0</ele>
        <time>2019-04-24T06:04:27.000Z</time>
      </trkpt>
      <trkpt lat="42.448421478271484" lon="-6.780541896820068">
        <ele>782.0</ele>
        <time>2019-04-24T06:04:27.000Z</time>
      </trkpt>
      <trkpt lat="42.44841384887695" lon="-6.780550003051758">
        <ele>782.0</ele>
        <time>2019-04-24T06:04:28.000Z</time>
      </trkpt>
      <trkpt lat="42.44841003417969" lon="-6.780555725097656">
        <ele>782.0</ele>
        <time>2019-04-24T06:04:28.000Z</time>
      </trkpt>
      <trkpt lat="42.44840621948242" lon="-6.7805609703063965">
        <ele>782.0</ele>
        <time>2019-04-24T06:04:28.000Z</time>
      </trkpt>
      <trkpt lat="42.448387145996094" lon="-6.7805914878845215">
        <ele>782.0</ele>
        <time>2019-04-24T06:04:31.000Z</time>
      </trkpt>
      <trkpt lat="42.448368072509766" lon="-6.780632019042969">
        <ele>783.0</ele>
        <time>2019-04-24T06:04:35.000Z</time>
      </trkpt>
      <trkpt lat="42.448341369628906" lon="-6.780678749084473">
        <ele>784.0</ele>
        <time>2019-04-24T06:04:38.000Z</time>
      </trkpt>
      <trkpt lat="42.44831466674805" lon="-6.780728816986084">
        <ele>786.0</ele>
        <time>2019-04-24T06:04:41.000Z</time>
      </trkpt>
      <trkpt lat="42.44830322265625" lon="-6.780862808227539">
        <ele>794.0</ele>
        <time>2019-04-24T06:04:55.000Z</time>
      </trkpt>
      <trkpt lat="42.448307037353516" lon="-6.781020164489746">
        <ele>806.0</ele>
        <time>2019-04-24T06:05:08.000Z</time>
      </trkpt>
      <trkpt lat="42.44826889038086" lon="-6.781126022338867">
        <ele>812.0</ele>
        <time>2019-04-24T06:05:20.000Z</time>
      </trkpt>
      <trkpt lat="42.44821548461914" lon="-6.781214237213135">
        <ele>816.0</ele>
        <time>2019-04-24T06:05:32.000Z</time>
      </trkpt>
      <trkpt lat="42.44816970825195" lon="-6.7812371253967285">
        <ele>818.0</ele>
        <time>2019-04-24T06:05:38.000Z</time>
      </trkpt>
      <trkpt lat="42.448116302490234" lon="-6.78125">
        <ele>819.0</ele>
        <time>2019-04-24T06:05:44.000Z</time>
      </trkpt>
      <trkpt lat="42.448055267333984" lon="-6.78125524520874">
        <ele>821.0</ele>
        <time>2019-04-24T06:05:50.000Z</time>
      </trkpt>
      <trkpt lat="42.447994232177734" lon="-6.781257152557373">
        <ele>823.0</ele>
        <time>2019-04-24T06:05:56.000Z</time>
      </trkpt>
      <trkpt lat="42.447940826416016" lon="-6.781260013580322">
        <ele>824.0</ele>
        <time>2019-04-24T06:06:01.000Z</time>
      </trkpt>
      <trkpt lat="42.44789123535156" lon="-6.781259536743164">
        <ele>825.0</ele>
        <time>2019-04-24T06:06:06.000Z</time>
      </trkpt>
      <trkpt lat="42.447837829589844" lon="-6.781257152557373">
        <ele>826.0</ele>
        <time>2019-04-24T06:06:11.000Z</time>
      </trkpt>
      <trkpt lat="42.44778823852539" lon="-6.781253337860107">
        <ele>827.0</ele>
        <time>2019-04-24T06:06:16.000Z</time>
      </trkpt>
      <trkpt lat="42.44770812988281" lon="-6.7812910079956055">
        <ele>828.0</ele>
        <time>2019-04-24T06:06:24.000Z</time>
      </trkpt>
      <trkpt lat="42.4476318359375" lon="-6.781347274780273">
        <ele>829.0</ele>
        <time>2019-04-24T06:06:31.000Z</time>
      </trkpt>
      <trkpt lat="42.447593688964844" lon="-6.781363487243652">
        <ele>830.0</ele>
        <time>2019-04-24T06:06:37.000Z</time>
      </trkpt>
      <trkpt lat="42.44755172729492" lon="-6.781376361846924">
        <ele>831.0</ele>
        <time>2019-04-24T06:06:43.000Z</time>
      </trkpt>
      <trkpt lat="42.447509765625" lon="-6.7813873291015625">
        <ele>833.0</ele>
        <time>2019-04-24T06:06:48.000Z</time>
      </trkpt>
      <trkpt lat="42.447471618652344" lon="-6.781397342681885">
        <ele>834.0</ele>
        <time>2019-04-24T06:06:54.000Z</time>
      </trkpt>
      <trkpt lat="42.447452545166016" lon="-6.781405925750732">
        <ele>836.0</ele>
        <time>2019-04-24T06:07:04.000Z</time>
      </trkpt>
      <trkpt lat="42.447444915771484" lon="-6.7814130783081055">
        <ele>838.0</ele>
        <time>2019-04-24T06:07:14.000Z</time>
      </trkpt>
      <trkpt lat="42.447444915771484" lon="-6.781418800354004">
        <ele>840.0</ele>
        <time>2019-04-24T06:07:23.000Z</time>
      </trkpt>
      <trkpt lat="42.447444915771484" lon="-6.781424522399902">
        <ele>842.0</ele>
        <time>2019-04-24T06:07:33.000Z</time>
      </trkpt>
      <trkpt lat="42.44744110107422" lon="-6.781429767608643">
        <ele>842.0</ele>
        <time>2019-04-24T06:07:33.000Z</time>
      </trkpt>
      <trkpt lat="42.44743728637695" lon="-6.781435012817383">
        <ele>843.0</ele>
        <time>2019-04-24T06:07:34.000Z</time>
      </trkpt>
      <trkpt lat="42.44743347167969" lon="-6.781439781188965">
        <ele>842.0</ele>
        <time>2019-04-24T06:07:34.000Z</time>
      </trkpt>
      <trkpt lat="42.44742965698242" lon="-6.781444549560547">
        <ele>842.0</ele>
        <time>2019-04-24T06:07:34.000Z</time>
      </trkpt>
      <trkpt lat="42.4473991394043" lon="-6.781485080718994">
        <ele>842.0</ele>
        <time>2019-04-24T06:07:36.000Z</time>
      </trkpt>
      <trkpt lat="42.44736099243164" lon="-6.781540870666504">
        <ele>842.0</ele>
        <time>2019-04-24T06:07:38.000Z</time>
      </trkpt>
      <trkpt lat="42.44731521606445" lon="-6.781606197357178">
        <ele>842.0</ele>
        <time>2019-04-24T06:07:39.000Z</time>
      </trkpt>
      <trkpt lat="42.447265625" lon="-6.781676769256592">
        <ele>843.0</ele>
        <time>2019-04-24T06:07:41.000Z</time>
      </trkpt>
      <trkpt lat="42.447242736816406" lon="-6.781772613525391">
        <ele>843.0</ele>
        <time>2019-04-24T06:07:48.000Z</time>
      </trkpt>
      <trkpt lat="42.44725036621094" lon="-6.781859397888184">
        <ele>842.0</ele>
        <time>2019-04-24T06:07:54.000Z</time>
      </trkpt>
      <trkpt lat="42.447235107421875" lon="-6.781927108764648">
        <ele>842.0</ele>
        <time>2019-04-24T06:08:01.000Z</time>
      </trkpt>
      <trkpt lat="42.44721221923828" lon="-6.782003879547119">
        <ele>842.0</ele>
        <time>2019-04-24T06:08:08.000Z</time>
      </trkpt>
      <trkpt lat="42.44718933105469" lon="-6.7820868492126465">
        <ele>842.0</ele>
        <time>2019-04-24T06:08:15.000Z</time>
      </trkpt>
      <trkpt lat="42.447166442871094" lon="-6.782172679901123">
        <ele>842.0</ele>
        <time>2019-04-24T06:08:22.000Z</time>
      </trkpt>
      <trkpt lat="42.44715881347656" lon="-6.782209873199463">
        <ele>841.0</ele>
        <time>2019-04-24T06:08:29.000Z</time>
      </trkpt>
      <trkpt lat="42.44715881347656" lon="-6.782229900360107">
        <ele>840.0</ele>
        <time>2019-04-24T06:08:35.000Z</time>
      </trkpt>
      <trkpt lat="42.44716262817383" lon="-6.782238483428955">
        <ele>839.0</ele>
        <time>2019-04-24T06:08:42.000Z</time>
      </trkpt>
      <trkpt lat="42.44717025756836" lon="-6.782240867614746">
        <ele>837.0</ele>
        <time>2019-04-24T06:08:48.000Z</time>
      </trkpt>
      <trkpt lat="42.44717025756836" lon="-6.782253265380859">
        <ele>837.0</ele>
        <time>2019-04-24T06:08:48.000Z</time>
      </trkpt>
      <trkpt lat="42.44717025756836" lon="-6.78226375579834">
        <ele>837.0</ele>
        <time>2019-04-24T06:08:49.000Z</time>
      </trkpt>
      <trkpt lat="42.44717025756836" lon="-6.782273292541504">
        <ele>837.0</ele>
        <time>2019-04-24T06:08:49.000Z</time>
      </trkpt>
      <trkpt lat="42.44717025756836" lon="-6.782281875610352">
        <ele>837.0</ele>
        <time>2019-04-24T06:08:49.000Z</time>
      </trkpt>
      <trkpt lat="42.44716262817383" lon="-6.7823662757873535">
        <ele>835.0</ele>
        <time>2019-04-24T06:08:55.000Z</time>
      </trkpt>
      <trkpt lat="42.447147369384766" lon="-6.782482624053955">
        <ele>832.0</ele>
        <time>2019-04-24T06:09:02.000Z</time>
      </trkpt>
      <trkpt lat="42.4471321105957" lon="-6.782619476318359">
        <ele>829.0</ele>
        <time>2019-04-24T06:09:08.000Z</time>
      </trkpt>
      <trkpt lat="42.44711685180664" lon="-6.782766819000244">
        <ele>825.0</ele>
        <time>2019-04-24T06:09:14.000Z</time>
      </trkpt>
      <trkpt lat="42.44709396362305" lon="-6.782882213592529">
        <ele>823.0</ele>
        <time>2019-04-24T06:09:23.000Z</time>
      </trkpt>
      <trkpt lat="42.44706726074219" lon="-6.782995223999023">
        <ele>820.0</ele>
        <time>2019-04-24T06:09:31.000Z</time>
      </trkpt>
      <trkpt lat="42.44704055786133" lon="-6.783106327056885">
        <ele>818.0</ele>
        <time>2019-04-24T06:09:39.000Z</time>
      </trkpt>
      <trkpt lat="42.4470100402832" lon="-6.78321647644043">
        <ele>816.0</ele>
        <time>2019-04-24T06:09:47.000Z</time>
      </trkpt>
      <trkpt lat="42.44694900512695" lon="-6.783404350280762">
        <ele>813.0</ele>
        <time>2019-04-24T06:10:00.000Z</time>
      </trkpt>
      <trkpt lat="42.4469108581543" lon="-6.783440589904785">
        <ele>812.0</ele>
        <time>2019-04-24T06:10:06.000Z</time>
      </trkpt>
      <trkpt lat="42.44686508178711" lon="-6.783472061157227">
        <ele>811.0</ele>
        <time>2019-04-24T06:10:11.000Z</time>
      </trkpt>
      <trkpt lat="42.44681167602539" lon="-6.7835001945495605">
        <ele>809.0</ele>
        <time>2019-04-24T06:10:17.000Z</time>
      </trkpt>
      <trkpt lat="42.44675827026367" lon="-6.783527374267578">
        <ele>808.0</ele>
        <time>2019-04-24T06:10:22.000Z</time>
      </trkpt>
      <trkpt lat="42.44668197631836" lon="-6.783553600311279">
        <ele>806.0</ele>
        <time>2019-04-24T06:10:29.000Z</time>
      </trkpt>
      <trkpt lat="42.446598052978516" lon="-6.783577919006348">
        <ele>805.0</ele>
        <time>2019-04-24T06:10:36.000Z</time>
      </trkpt>
      <trkpt lat="42.446502685546875" lon="-6.783600807189941">
        <ele>803.0</ele>
        <time>2019-04-24T06:10:43.000Z</time>
      </trkpt>
      <trkpt lat="42.446407318115234" lon="-6.783623695373535">
        <ele>801.0</ele>
        <time>2019-04-24T06:10:50.000Z</time>
      </trkpt>
      <trkpt lat="42.44631576538086" lon="-6.783637046813965">
        <ele>800.0</ele>
        <time>2019-04-24T06:10:58.000Z</time>
      </trkpt>
      <trkpt lat="42.44622802734375" lon="-6.783646106719971">
        <ele>798.0</ele>
        <time>2019-04-24T06:11:05.000Z</time>
      </trkpt>
      <trkpt lat="42.44614028930664" lon="-6.783651828765869">
        <ele>797.0</ele>
        <time>2019-04-24T06:11:13.000Z</time>
      </trkpt>
      <trkpt lat="42.44605255126953" lon="-6.783656597137451">
        <ele>796.0</ele>
        <time>2019-04-24T06:11:20.000Z</time>
      </trkpt>
      <trkpt lat="42.44596481323242" lon="-6.7836503982543945">
        <ele>794.0</ele>
        <time>2019-04-24T06:11:28.000Z</time>
      </trkpt>
      <trkpt lat="42.44587707519531" lon="-6.783638000488281">
        <ele>793.0</ele>
        <time>2019-04-24T06:11:36.000Z</time>
      </trkpt>
      <trkpt lat="42.44578552246094" lon="-6.783621788024902">
        <ele>791.0</ele>
        <time>2019-04-24T06:11:43.000Z</time>
      </trkpt>
      <trkpt lat="42.44569778442383" lon="-6.783603668212891">
        <ele>790.0</ele>
        <time>2019-04-24T06:11:51.000Z</time>
      </trkpt>
      <trkpt lat="42.44565200805664" lon="-6.78359317779541">
        <ele>789.0</ele>
        <time>2019-04-24T06:11:54.000Z</time>
      </trkpt>
      <trkpt lat="42.44562530517578" lon="-6.783583641052246">
        <ele>789.0</ele>
        <time>2019-04-24T06:11:56.000Z</time>
      </trkpt>
      <trkpt lat="42.44560623168945" lon="-6.783575057983398">
        <ele>789.0</ele>
        <time>2019-04-24T06:11:59.000Z</time>
      </trkpt>
      <trkpt lat="42.445594787597656" lon="-6.783566474914551">
        <ele>789.0</ele>
        <time>2019-04-24T06:12:01.000Z</time>
      </trkpt>
      <trkpt lat="42.44557189941406" lon="-6.783581256866455">
        <ele>788.0</ele>
        <time>2019-04-24T06:12:04.000Z</time>
      </trkpt>
      <trkpt lat="42.445552825927734" lon="-6.783606052398682">
        <ele>788.0</ele>
        <time>2019-04-24T06:12:07.000Z</time>
      </trkpt>
      <trkpt lat="42.445533752441406" lon="-6.783637046813965">
        <ele>787.0</ele>
        <time>2019-04-24T06:12:10.000Z</time>
      </trkpt>
      <trkpt lat="42.44551467895508" lon="-6.783671855926514">
        <ele>787.0</ele>
        <time>2019-04-24T06:12:13.000Z</time>
      </trkpt>
      <trkpt lat="42.44554138183594" lon="-6.783749580383301">
        <ele>786.0</ele>
        <time>2019-04-24T06:12:21.000Z</time>
      </trkpt>
      <trkpt lat="42.445587158203125" lon="-6.783848285675049">
        <ele>785.0</ele>
        <time>2019-04-24T06:12:30.000Z</time>
      </trkpt>
      <trkpt lat="42.44564437866211" lon="-6.783961296081543">
        <ele>783.0</ele>
        <time>2019-04-24T06:12:38.000Z</time>
      </trkpt>
      <trkpt lat="42.445709228515625" lon="-6.784081935882568">
        <ele>782.0</ele>
        <time>2019-04-24T06:12:46.000Z</time>
      </trkpt>
      <trkpt lat="42.44576644897461" lon="-6.784172058105469">
        <ele>781.0</ele>
        <time>2019-04-24T06:12:54.000Z</time>
      </trkpt>
      <trkpt lat="42.44582748413086" lon="-6.784257411956787">
        <ele>780.0</ele>
        <time>2019-04-24T06:13:02.000Z</time>
      </trkpt>
      <trkpt lat="42.445892333984375" lon="-6.78433895111084">
        <ele>779.0</ele>
        <time>2019-04-24T06:13:10.000Z</time>
      </trkpt>
      <trkpt lat="42.44595718383789" lon="-6.784419059753418">
        <ele>778.0</ele>
        <time>2019-04-24T06:13:19.000Z</time>
      </trkpt>
      <trkpt lat="42.446014404296875" lon="-6.784507751464844">
        <ele>777.0</ele>
        <time>2019-04-24T06:13:26.000Z</time>
      </trkpt>
      <trkpt lat="42.44607162475586" lon="-6.784597873687744">
        <ele>776.0</ele>
        <time>2019-04-24T06:13:34.000Z</time>
      </trkpt>
      <trkpt lat="42.44612503051758" lon="-6.784689426422119">
        <ele>776.0</ele>
        <time>2019-04-24T06:13:41.000Z</time>
      </trkpt>
      <trkpt lat="42.44618225097656" lon="-6.784780979156494">
        <ele>775.0</ele>
        <time>2019-04-24T06:13:49.000Z</time>
      </trkpt>
      <trkpt lat="42.44623947143555" lon="-6.784868240356445">
        <ele>774.0</ele>
        <time>2019-04-24T06:13:57.000Z</time>
      </trkpt>
      <trkpt lat="42.4463005065918" lon="-6.78495454788208">
        <ele>772.0</ele>
        <time>2019-04-24T06:14:05.000Z</time>
      </trkpt>
      <trkpt lat="42.44636154174805" lon="-6.78503942489624">
        <ele>771.0</ele>
        <time>2019-04-24T06:14:13.000Z</time>
      </trkpt>
      <trkpt lat="42.4464225769043" lon="-6.7851243019104">
        <ele>769.0</ele>
        <time>2019-04-24T06:14:21.000Z</time>
      </trkpt>
      <trkpt lat="42.44645690917969" lon="-6.785175800323486">
        <ele>769.0</ele>
        <time>2019-04-24T06:14:24.000Z</time>
      </trkpt>
      <trkpt lat="42.44648742675781" lon="-6.785212993621826">
        <ele>768.0</ele>
        <time>2019-04-24T06:14:27.000Z</time>
      </trkpt>
      <trkpt lat="42.44650650024414" lon="-6.785240650177002">
        <ele>767.0</ele>
        <time>2019-04-24T06:14:30.000Z</time>
      </trkpt>
      <trkpt lat="42.44652557373047" lon="-6.785263538360596">
        <ele>767.0</ele>
        <time>2019-04-24T06:14:33.000Z</time>
      </trkpt>
      <trkpt lat="42.44652557373047" lon="-6.785332202911377">
        <ele>766.0</ele>
        <time>2019-04-24T06:14:39.000Z</time>
      </trkpt>
      <trkpt lat="42.446510314941406" lon="-6.785414695739746">
        <ele>766.0</ele>
        <time>2019-04-24T06:14:45.000Z</time>
      </trkpt>
      <trkpt lat="42.44649124145508" lon="-6.7855072021484375">
        <ele>765.0</ele>
        <time>2019-04-24T06:14:51.000Z</time>
      </trkpt>
      <trkpt lat="42.446468353271484" lon="-6.785604000091553">
        <ele>764.0</ele>
        <time>2019-04-24T06:14:58.000Z</time>
      </trkpt>
      <trkpt lat="42.446372985839844" lon="-6.785791397094727">
        <ele>762.0</ele>
        <time>2019-04-24T06:15:16.000Z</time>
      </trkpt>
      <trkpt lat="42.44624328613281" lon="-6.785987377166748">
        <ele>761.0</ele>
        <time>2019-04-24T06:15:34.000Z</time>
      </trkpt>
      <trkpt lat="42.446224212646484" lon="-6.786021709442139">
        <ele>760.0</ele>
        <time>2019-04-24T06:15:35.000Z</time>
      </trkpt>
      <trkpt lat="42.44622039794922" lon="-6.7860307693481445">
        <ele>760.0</ele>
        <time>2019-04-24T06:15:36.000Z</time>
      </trkpt>
      <trkpt lat="42.446224212646484" lon="-6.786022663116455">
        <ele>760.0</ele>
        <time>2019-04-24T06:15:37.000Z</time>
      </trkpt>
      <trkpt lat="42.44623565673828" lon="-6.786005973815918">
        <ele>760.0</ele>
        <time>2019-04-24T06:15:38.000Z</time>
      </trkpt>
      <trkpt lat="42.44622802734375" lon="-6.786013603210449">
        <ele>760.0</ele>
        <time>2019-04-24T06:15:42.000Z</time>
      </trkpt>
      <trkpt lat="42.44622039794922" lon="-6.786022186279297">
        <ele>759.0</ele>
        <time>2019-04-24T06:15:46.000Z</time>
      </trkpt>
      <trkpt lat="42.44621276855469" lon="-6.786031723022461">
        <ele>759.0</ele>
        <time>2019-04-24T06:15:50.000Z</time>
      </trkpt>
      <trkpt lat="42.446205139160156" lon="-6.786041736602783">
        <ele>758.0</ele>
        <time>2019-04-24T06:15:55.000Z</time>
      </trkpt>
      <trkpt lat="42.446197509765625" lon="-6.786048889160156">
        <ele>758.0</ele>
        <time>2019-04-24T06:15:55.000Z</time>
      </trkpt>
      <trkpt lat="42.44619369506836" lon="-6.786055088043213">
        <ele>758.0</ele>
        <time>2019-04-24T06:15:55.000Z</time>
      </trkpt>
      <trkpt lat="42.446189880371094" lon="-6.786060810089111">
        <ele>758.0</ele>
        <time>2019-04-24T06:15:55.000Z</time>
      </trkpt>
      <trkpt lat="42.44618225097656" lon="-6.78606653213501">
        <ele>758.0</ele>
        <time>2019-04-24T06:15:56.000Z</time>
      </trkpt>
      <trkpt lat="42.446170806884766" lon="-6.786078929901123">
        <ele>758.0</ele>
        <time>2019-04-24T06:15:56.000Z</time>
      </trkpt>
      <trkpt lat="42.44615936279297" lon="-6.786093711853027">
        <ele>758.0</ele>
        <time>2019-04-24T06:15:57.000Z</time>
      </trkpt>
      <trkpt lat="42.446144104003906" lon="-6.7861104011535645">
        <ele>758.0</ele>
        <time>2019-04-24T06:15:58.000Z</time>
      </trkpt>
      <trkpt lat="42.446128845214844" lon="-6.78612756729126">
        <ele>758.0</ele>
        <time>2019-04-24T06:15:59.000Z</time>
      </trkpt>
      <trkpt lat="42.44612503051758" lon="-6.786134243011475">
        <ele>757.0</ele>
        <time>2019-04-24T06:16:00.000Z</time>
      </trkpt>
      <trkpt lat="42.44612121582031" lon="-6.786137580871582">
        <ele>757.0</ele>
        <time>2019-04-24T06:16:02.000Z</time>
      </trkpt>
      <trkpt lat="42.44612121582031" lon="-6.78613805770874">
        <ele>757.0</ele>
        <time>2019-04-24T06:16:04.000Z</time>
      </trkpt>
      <trkpt lat="42.44612121582031" lon="-6.786137580871582">
        <ele>756.0</ele>
        <time>2019-04-24T06:16:06.000Z</time>
      </trkpt>
      <trkpt lat="42.44611358642578" lon="-6.786146640777588">
        <ele>756.0</ele>
        <time>2019-04-24T06:16:07.000Z</time>
      </trkpt>
      <trkpt lat="42.445858001708984" lon="-6.7864556312561035">
        <ele>755.0</ele>
        <time>2019-04-24T06:16:21.000Z</time>
      </trkpt>
      <trkpt lat="42.4458122253418" lon="-6.786586284637451">
        <ele>754.0</ele>
        <time>2019-04-24T06:16:28.000Z</time>
      </trkpt>
      <trkpt lat="42.44580078125" lon="-6.78670597076416">
        <ele>753.0</ele>
        <time>2019-04-24T06:16:35.000Z</time>
      </trkpt>
      <trkpt lat="42.445770263671875" lon="-6.78674840927124">
        <ele>752.0</ele>
        <time>2019-04-24T06:16:38.000Z</time>
      </trkpt>
      <trkpt lat="42.445735931396484" lon="-6.786782741546631">
        <ele>751.0</ele>
        <time>2019-04-24T06:16:42.000Z</time>
      </trkpt>
      <trkpt lat="42.44569396972656" lon="-6.786811351776123">
        <ele>751.0</ele>
        <time>2019-04-24T06:16:46.000Z</time>
      </trkpt>
      <trkpt lat="42.44565200805664" lon="-6.786837100982666">
        <ele>750.0</ele>
        <time>2019-04-24T06:16:50.000Z</time>
      </trkpt>
      <trkpt lat="42.44562530517578" lon="-6.786858558654785">
        <ele>750.0</ele>
        <time>2019-04-24T06:16:55.000Z</time>
      </trkpt>
      <trkpt lat="42.44560623168945" lon="-6.786874771118164">
        <ele>749.0</ele>
        <time>2019-04-24T06:17:00.000Z</time>
      </trkpt>
      <trkpt lat="42.44559097290039" lon="-6.786888122558594">
        <ele>750.0</ele>
        <time>2019-04-24T06:17:05.000Z</time>
      </trkpt>
      <trkpt lat="42.44557571411133" lon="-6.786900043487549">
        <ele>750.0</ele>
        <time>2019-04-24T06:17:11.000Z</time>
      </trkpt>
      <trkpt lat="42.44556427001953" lon="-6.786909103393555">
        <ele>750.0</ele>
        <time>2019-04-24T06:17:11.000Z</time>
      </trkpt>
      <trkpt lat="42.445556640625" lon="-6.7869157791137695">
        <ele>750.0</ele>
        <time>2019-04-24T06:17:11.000Z</time>
      </trkpt>
      <trkpt lat="42.44554901123047" lon="-6.78692102432251">
        <ele>750.0</ele>
        <time>2019-04-24T06:17:11.000Z</time>
      </trkpt>
      <trkpt lat="42.4455451965332" lon="-6.786924839019775">
        <ele>750.0</ele>
        <time>2019-04-24T06:17:12.000Z</time>
      </trkpt>
      <trkpt lat="42.445491790771484" lon="-6.786971092224121">
        <ele>750.0</ele>
        <time>2019-04-24T06:17:18.000Z</time>
      </trkpt>
      <trkpt lat="42.4454231262207" lon="-6.787033557891846">
        <ele>750.0</ele>
        <time>2019-04-24T06:17:24.000Z</time>
      </trkpt>
      <trkpt lat="42.445343017578125" lon="-6.787107467651367">
        <ele>750.0</ele>
        <time>2019-04-24T06:17:30.000Z</time>
      </trkpt>
      <trkpt lat="42.445255279541016" lon="-6.787186622619629">
        <ele>750.0</ele>
        <time>2019-04-24T06:17:37.000Z</time>
      </trkpt>
      <trkpt lat="42.445133209228516" lon="-6.787227153778076">
        <ele>751.0</ele>
        <time>2019-04-24T06:17:52.000Z</time>
      </trkpt>
      <trkpt lat="42.44502258300781" lon="-6.787225246429443">
        <ele>752.0</ele>
        <time>2019-04-24T06:18:07.000Z</time>
      </trkpt>
      <trkpt lat="42.44496536254883" lon="-6.78726863861084">
        <ele>752.0</ele>
        <time>2019-04-24T06:18:12.000Z</time>
      </trkpt>
      <trkpt lat="42.4449348449707" lon="-6.787323474884033">
        <ele>752.0</ele>
        <time>2019-04-24T06:18:18.000Z</time>
      </trkpt>
      <trkpt lat="42.44489288330078" lon="-6.7873969078063965">
        <ele>752.0</ele>
        <time>2019-04-24T06:18:26.000Z</time>
      </trkpt>
      <trkpt lat="42.44484329223633" lon="-6.787491321563721">
        <ele>752.0</ele>
        <time>2019-04-24T06:18:34.000Z</time>
      </trkpt>
      <trkpt lat="42.444786071777344" lon="-6.787599563598633">
        <ele>752.0</ele>
        <time>2019-04-24T06:18:42.000Z</time>
      </trkpt>
      <trkpt lat="42.44472885131836" lon="-6.78771448135376">
        <ele>752.0</ele>
        <time>2019-04-24T06:18:50.000Z</time>
      </trkpt>
      <trkpt lat="42.444671630859375" lon="-6.787808418273926">
        <ele>751.0</ele>
        <time>2019-04-24T06:18:58.000Z</time>
      </trkpt>
      <trkpt lat="42.444618225097656" lon="-6.787900924682617">
        <ele>751.0</ele>
        <time>2019-04-24T06:19:06.000Z</time>
      </trkpt>
      <trkpt lat="42.44456100463867" lon="-6.787992477416992">
        <ele>750.0</ele>
        <time>2019-04-24T06:19:14.000Z</time>
      </trkpt>
      <trkpt lat="42.44450378417969" lon="-6.788083553314209">
        <ele>749.0</ele>
        <time>2019-04-24T06:19:22.000Z</time>
      </trkpt>
      <trkpt lat="42.44446563720703" lon="-6.788189888000488">
        <ele>748.0</ele>
        <time>2019-04-24T06:19:28.000Z</time>
      </trkpt>
      <trkpt lat="42.444435119628906" lon="-6.788301944732666">
        <ele>747.0</ele>
        <time>2019-04-24T06:19:34.000Z</time>
      </trkpt>
      <trkpt lat="42.44440841674805" lon="-6.788418292999268">
        <ele>746.0</ele>
        <time>2019-04-24T06:19:40.000Z</time>
      </trkpt>
      <trkpt lat="42.44438552856445" lon="-6.788536071777344">
        <ele>744.0</ele>
        <time>2019-04-24T06:19:47.000Z</time>
      </trkpt>
      <trkpt lat="42.44437789916992" lon="-6.788654327392578">
        <ele>743.0</ele>
        <time>2019-04-24T06:19:55.000Z</time>
      </trkpt>
      <trkpt lat="42.44438171386719" lon="-6.788774013519287">
        <ele>741.0</ele>
        <time>2019-04-24T06:20:03.000Z</time>
      </trkpt>
      <trkpt lat="42.44438934326172" lon="-6.788895606994629">
        <ele>739.0</ele>
        <time>2019-04-24T06:20:11.000Z</time>
      </trkpt>
      <trkpt lat="42.444400787353516" lon="-6.789017677307129">
        <ele>738.0</ele>
        <time>2019-04-24T06:20:19.000Z</time>
      </trkpt>
      <trkpt lat="42.444400787353516" lon="-6.789127349853516">
        <ele>736.0</ele>
        <time>2019-04-24T06:20:26.000Z</time>
      </trkpt>
      <trkpt lat="42.444400787353516" lon="-6.7892327308654785">
        <ele>735.0</ele>
        <time>2019-04-24T06:20:33.000Z</time>
      </trkpt>
      <trkpt lat="42.44439697265625" lon="-6.789335250854492">
        <ele>734.0</ele>
        <time>2019-04-24T06:20:41.000Z</time>
      </trkpt>
      <trkpt lat="42.444393157958984" lon="-6.789435863494873">
        <ele>733.0</ele>
        <time>2019-04-24T06:20:48.000Z</time>
      </trkpt>
      <trkpt lat="42.44440460205078" lon="-6.789686679840088">
        <ele>731.0</ele>
        <time>2019-04-24T06:21:05.000Z</time>
      </trkpt>
      <trkpt lat="42.44438552856445" lon="-6.78973913192749">
        <ele>730.0</ele>
        <time>2019-04-24T06:21:09.000Z</time>
      </trkpt>
      <trkpt lat="42.444358825683594" lon="-6.789787292480469">
        <ele>729.0</ele>
        <time>2019-04-24T06:21:13.000Z</time>
      </trkpt>
      <trkpt lat="42.4443244934082" lon="-6.789832592010498">
        <ele>727.0</ele>
        <time>2019-04-24T06:21:17.000Z</time>
      </trkpt>
      <trkpt lat="42.44429016113281" lon="-6.789876937866211">
        <ele>726.0</ele>
        <time>2019-04-24T06:21:21.000Z</time>
      </trkpt>
      <trkpt lat="42.444217681884766" lon="-6.7899394035339355">
        <ele>724.0</ele>
        <time>2019-04-24T06:21:29.000Z</time>
      </trkpt>
      <trkpt lat="42.44413375854492" lon="-6.789987087249756">
        <ele>721.0</ele>
        <time>2019-04-24T06:21:38.000Z</time>
      </trkpt>
      <trkpt lat="42.444095611572266" lon="-6.790010929107666">
        <ele>720.0</ele>
        <time>2019-04-24T06:21:42.000Z</time>
      </trkpt>
      <trkpt lat="42.44405746459961" lon="-6.790032863616943">
        <ele>719.0</ele>
        <time>2019-04-24T06:21:46.000Z</time>
      </trkpt>
      <trkpt lat="42.44401931762695" lon="-6.790053844451904">
        <ele>718.0</ele>
        <time>2019-04-24T06:21:51.000Z</time>
      </trkpt>
      <trkpt lat="42.4439811706543" lon="-6.790074348449707">
        <ele>717.0</ele>
        <time>2019-04-24T06:21:55.000Z</time>
      </trkpt>
      <trkpt lat="42.443939208984375" lon="-6.79010009765625">
        <ele>716.0</ele>
        <time>2019-04-24T06:21:59.000Z</time>
      </trkpt>
      <trkpt lat="42.44390106201172" lon="-6.790127754211426">
        <ele>715.0</ele>
        <time>2019-04-24T06:22:04.000Z</time>
      </trkpt>
      <trkpt lat="42.44386291503906" lon="-6.790156364440918">
        <ele>713.0</ele>
        <time>2019-04-24T06:22:08.000Z</time>
      </trkpt>
      <trkpt lat="42.443824768066406" lon="-6.790185451507568">
        <ele>712.0</ele>
        <time>2019-04-24T06:22:13.000Z</time>
      </trkpt>
      <trkpt lat="42.443756103515625" lon="-6.790215015411377">
        <ele>710.0</ele>
        <time>2019-04-24T06:22:21.000Z</time>
      </trkpt>
      <trkpt lat="42.44367218017578" lon="-6.790245056152344">
        <ele>708.0</ele>
        <time>2019-04-24T06:22:29.000Z</time>
      </trkpt>
      <trkpt lat="42.44358444213867" lon="-6.790275573730469">
        <ele>706.0</ele>
        <time>2019-04-24T06:22:37.000Z</time>
      </trkpt>
      <trkpt lat="42.44348907470703" lon="-6.790306091308594">
        <ele>704.0</ele>
        <time>2019-04-24T06:22:45.000Z</time>
      </trkpt>
      <trkpt lat="42.44343185424805" lon="-6.790295600891113">
        <ele>702.0</ele>
        <time>2019-04-24T06:22:48.000Z</time>
      </trkpt>
      <trkpt lat="42.44338607788086" lon="-6.7902679443359375">
        <ele>701.0</ele>
        <time>2019-04-24T06:22:52.000Z</time>
      </trkpt>
      <trkpt lat="42.4433479309082" lon="-6.790228843688965">
        <ele>700.0</ele>
        <time>2019-04-24T06:22:55.000Z</time>
      </trkpt>
      <trkpt lat="42.44331359863281" lon="-6.790184020996094">
        <ele>700.0</ele>
        <time>2019-04-24T06:22:59.000Z</time>
      </trkpt>
      <trkpt lat="42.44327163696289" lon="-6.790218353271484">
        <ele>699.0</ele>
        <time>2019-04-24T06:23:03.000Z</time>
      </trkpt>
      <trkpt lat="42.44322967529297" lon="-6.790279388427734">
        <ele>698.0</ele>
        <time>2019-04-24T06:23:07.000Z</time>
      </trkpt>
      <trkpt lat="42.44319152832031" lon="-6.790359020233154">
        <ele>697.0</ele>
        <time>2019-04-24T06:23:12.000Z</time>
      </trkpt>
      <trkpt lat="42.44314956665039" lon="-6.790447235107422">
        <ele>696.0</ele>
        <time>2019-04-24T06:23:16.000Z</time>
      </trkpt>
      <trkpt lat="42.44313430786133" lon="-6.790471076965332">
        <ele>695.0</ele>
        <time>2019-04-24T06:23:17.000Z</time>
      </trkpt>
      <trkpt lat="42.44313049316406" lon="-6.790477275848389">
        <ele>695.0</ele>
        <time>2019-04-24T06:23:18.000Z</time>
      </trkpt>
      <trkpt lat="42.44313430786133" lon="-6.79047155380249">
        <ele>695.0</ele>
        <time>2019-04-24T06:23:19.000Z</time>
      </trkpt>
      <trkpt lat="42.443138122558594" lon="-6.790459632873535">
        <ele>695.0</ele>
        <time>2019-04-24T06:23:20.000Z</time>
      </trkpt>
      <trkpt lat="42.44313049316406" lon="-6.790468215942383">
        <ele>694.0</ele>
        <time>2019-04-24T06:23:26.000Z</time>
      </trkpt>
      <trkpt lat="42.44312286376953" lon="-6.790478706359863">
        <ele>692.0</ele>
        <time>2019-04-24T06:23:31.000Z</time>
      </trkpt>
      <trkpt lat="42.443115234375" lon="-6.790490627288818">
        <ele>690.0</ele>
        <time>2019-04-24T06:23:37.000Z</time>
      </trkpt>
      <trkpt lat="42.4431037902832" lon="-6.790503025054932">
        <ele>689.0</ele>
        <time>2019-04-24T06:23:42.000Z</time>
      </trkpt>
      <trkpt lat="42.44309997558594" lon="-6.790511131286621">
        <ele>688.0</ele>
        <time>2019-04-24T06:23:43.000Z</time>
      </trkpt>
      <trkpt lat="42.443092346191406" lon="-6.790518283843994">
        <ele>688.0</ele>
        <time>2019-04-24T06:23:43.000Z</time>
      </trkpt>
      <trkpt lat="42.44308853149414" lon="-6.790524005889893">
        <ele>688.0</ele>
        <time>2019-04-24T06:23:43.000Z</time>
      </trkpt>
      <trkpt lat="42.443084716796875" lon="-6.790529727935791">
        <ele>689.0</ele>
        <time>2019-04-24T06:23:43.000Z</time>
      </trkpt>
      <trkpt lat="42.44306182861328" lon="-6.790546894073486">
        <ele>688.0</ele>
        <time>2019-04-24T06:23:46.000Z</time>
      </trkpt>
      <trkpt lat="42.44302749633789" lon="-6.7905683517456055">
        <ele>688.0</ele>
        <time>2019-04-24T06:23:48.000Z</time>
      </trkpt>
      <trkpt lat="42.4429931640625" lon="-6.790592670440674">
        <ele>688.0</ele>
        <time>2019-04-24T06:23:50.000Z</time>
      </trkpt>
      <trkpt lat="42.44295120239258" lon="-6.790618419647217">
        <ele>687.0</ele>
        <time>2019-04-24T06:23:52.000Z</time>
      </trkpt>
      <trkpt lat="42.44293975830078" lon="-6.790622711181641">
        <ele>687.0</ele>
        <time>2019-04-24T06:23:57.000Z</time>
      </trkpt>
      <trkpt lat="42.442935943603516" lon="-6.790619850158691">
        <ele>688.0</ele>
        <time>2019-04-24T06:24:01.000Z</time>
      </trkpt>
      <trkpt lat="42.44293975830078" lon="-6.79061222076416">
        <ele>688.0</ele>
        <time>2019-04-24T06:24:05.000Z</time>
      </trkpt>
      <trkpt lat="42.44294357299805" lon="-6.79060173034668">
        <ele>689.0</ele>
        <time>2019-04-24T06:24:09.000Z</time>
      </trkpt>
      <trkpt lat="42.44293975830078" lon="-6.790597915649414">
        <ele>689.0</ele>
        <time>2019-04-24T06:24:10.000Z</time>
      </trkpt>
      <trkpt lat="42.44293975830078" lon="-6.790594577789307">
        <ele>689.0</ele>
        <time>2019-04-24T06:24:10.000Z</time>
      </trkpt>
      <trkpt lat="42.442935943603516" lon="-6.790591239929199">
        <ele>689.0</ele>
        <time>2019-04-24T06:24:10.000Z</time>
      </trkpt>
      <trkpt lat="42.442935943603516" lon="-6.790587902069092">
        <ele>689.0</ele>
        <time>2019-04-24T06:24:10.000Z</time>
      </trkpt>
      <trkpt lat="42.44291687011719" lon="-6.790572643280029">
        <ele>689.0</ele>
        <time>2019-04-24T06:24:12.000Z</time>
      </trkpt>
      <trkpt lat="42.44289016723633" lon="-6.790553092956543">
        <ele>689.0</ele>
        <time>2019-04-24T06:24:13.000Z</time>
      </trkpt>
      <trkpt lat="42.4428596496582" lon="-6.790530204772949">
        <ele>690.0</ele>
        <time>2019-04-24T06:24:15.000Z</time>
      </trkpt>
      <trkpt lat="42.44282531738281" lon="-6.790505886077881">
        <ele>690.0</ele>
        <time>2019-04-24T06:24:16.000Z</time>
      </trkpt>
      <trkpt lat="42.44279861450195" lon="-6.790516376495361">
        <ele>691.0</ele>
        <time>2019-04-24T06:24:21.000Z</time>
      </trkpt>
      <trkpt lat="42.44276809692383" lon="-6.7905402183532715">
        <ele>691.0</ele>
        <time>2019-04-24T06:24:25.000Z</time>
      </trkpt>
      <trkpt lat="42.4427375793457" lon="-6.7905731201171875">
        <ele>692.0</ele>
        <time>2019-04-24T06:24:29.000Z</time>
      </trkpt>
      <trkpt lat="42.44270706176758" lon="-6.790609836578369">
        <ele>693.0</ele>
        <time>2019-04-24T06:24:33.000Z</time>
      </trkpt>
      <trkpt lat="42.442691802978516" lon="-6.790624618530273">
        <ele>693.0</ele>
        <time>2019-04-24T06:24:38.000Z</time>
      </trkpt>
      <trkpt lat="42.44268035888672" lon="-6.7906341552734375">
        <ele>694.0</ele>
        <time>2019-04-24T06:24:42.000Z</time>
      </trkpt>
      <trkpt lat="42.44267272949219" lon="-6.790640830993652">
        <ele>695.0</ele>
        <time>2019-04-24T06:24:47.000Z</time>
      </trkpt>
      <trkpt lat="42.442665100097656" lon="-6.790645599365234">
        <ele>695.0</ele>
        <time>2019-04-24T06:24:51.000Z</time>
      </trkpt>
      <trkpt lat="42.442657470703125" lon="-6.790652275085449">
        <ele>696.0</ele>
        <time>2019-04-24T06:24:52.000Z</time>
      </trkpt>
      <trkpt lat="42.44265365600586" lon="-6.790657997131348">
        <ele>696.0</ele>
        <time>2019-04-24T06:24:52.000Z</time>
      </trkpt>
      <trkpt lat="42.44264602661133" lon="-6.79066276550293">
        <ele>696.0</ele>
        <time>2019-04-24T06:24:52.000Z</time>
      </trkpt>
      <trkpt lat="42.44264221191406" lon="-6.790667533874512">
        <ele>695.0</ele>
        <time>2019-04-24T06:24:52.000Z</time>
      </trkpt>
      <trkpt lat="42.442596435546875" lon="-6.7907209396362305">
        <ele>696.0</ele>
        <time>2019-04-24T06:24:58.000Z</time>
      </trkpt>
      <trkpt lat="42.442535400390625" lon="-6.7907938957214355">
        <ele>696.0</ele>
        <time>2019-04-24T06:25:04.000Z</time>
      </trkpt>
      <trkpt lat="42.44246292114258" lon="-6.7908806800842285">
        <ele>697.0</ele>
        <time>2019-04-24T06:25:10.000Z</time>
      </trkpt>
      <trkpt lat="42.442386627197266" lon="-6.790974140167236">
        <ele>698.0</ele>
        <time>2019-04-24T06:25:15.000Z</time>
      </trkpt>
      <trkpt lat="42.442325592041016" lon="-6.791059970855713">
        <ele>698.0</ele>
        <time>2019-04-24T06:25:23.000Z</time>
      </trkpt>
      <trkpt lat="42.44226837158203" lon="-6.791149616241455">
        <ele>699.0</ele>
        <time>2019-04-24T06:25:30.000Z</time>
      </trkpt>
      <trkpt lat="42.44221115112305" lon="-6.791241645812988">
        <ele>700.0</ele>
        <time>2019-04-24T06:25:38.000Z</time>
      </trkpt>
      <trkpt lat="42.4421501159668" lon="-6.791335105895996">
        <ele>700.0</ele>
        <time>2019-04-24T06:25:45.000Z</time>
      </trkpt>
      <trkpt lat="42.442108154296875" lon="-6.791407108306885">
        <ele>700.0</ele>
        <time>2019-04-24T06:25:51.000Z</time>
      </trkpt>
      <trkpt lat="42.44206619262695" lon="-6.791471481323242">
        <ele>701.0</ele>
        <time>2019-04-24T06:25:56.000Z</time>
      </trkpt>
      <trkpt lat="42.44203186035156" lon="-6.791530609130859">
        <ele>701.0</ele>
        <time>2019-04-24T06:26:01.000Z</time>
      </trkpt>
      <trkpt lat="42.44199752807617" lon="-6.7915873527526855">
        <ele>701.0</ele>
        <time>2019-04-24T06:26:06.000Z</time>
      </trkpt>
      <trkpt lat="42.441978454589844" lon="-6.791609287261963">
        <ele>702.0</ele>
        <time>2019-04-24T06:26:20.000Z</time>
      </trkpt>
      <trkpt lat="42.44196319580078" lon="-6.791626930236816">
        <ele>702.0</ele>
        <time>2019-04-24T06:26:21.000Z</time>
      </trkpt>
      <trkpt lat="42.44173049926758" lon="-6.791978359222412">
        <ele>703.0</ele>
        <time>2019-04-24T06:26:37.000Z</time>
      </trkpt>
      <trkpt lat="42.44142150878906" lon="-6.79221773147583">
        <ele>701.0</ele>
        <time>2019-04-24T06:27:07.000Z</time>
      </trkpt>
      <trkpt lat="42.44126892089844" lon="-6.792289733886719">
        <ele>698.0</ele>
        <time>2019-04-24T06:27:21.000Z</time>
      </trkpt>
      <trkpt lat="42.44120788574219" lon="-6.792392253875732">
        <ele>696.0</ele>
        <time>2019-04-24T06:27:29.000Z</time>
      </trkpt>
      <trkpt lat="42.4411506652832" lon="-6.792525291442871">
        <ele>694.0</ele>
        <time>2019-04-24T06:27:36.000Z</time>
      </trkpt>
      <trkpt lat="42.441131591796875" lon="-6.792738914489746">
        <ele>690.0</ele>
        <time>2019-04-24T06:27:53.000Z</time>
      </trkpt>
      <trkpt lat="42.441131591796875" lon="-6.792996406555176">
        <ele>685.0</ele>
        <time>2019-04-24T06:28:09.000Z</time>
      </trkpt>
      <trkpt lat="42.44118118286133" lon="-6.793222904205322">
        <ele>681.0</ele>
        <time>2019-04-24T06:28:26.000Z</time>
      </trkpt>
      <trkpt lat="42.44125747680664" lon="-6.793445587158203">
        <ele>677.0</ele>
        <time>2019-04-24T06:28:43.000Z</time>
      </trkpt>
      <trkpt lat="42.441287994384766" lon="-6.7935590744018555">
        <ele>676.0</ele>
        <time>2019-04-24T06:28:51.000Z</time>
      </trkpt>
      <trkpt lat="42.44131851196289" lon="-6.793673515319824">
        <ele>674.0</ele>
        <time>2019-04-24T06:28:59.000Z</time>
      </trkpt>
      <trkpt lat="42.441349029541016" lon="-6.793787956237793">
        <ele>672.0</ele>
        <time>2019-04-24T06:29:08.000Z</time>
      </trkpt>
      <trkpt lat="42.441375732421875" lon="-6.79390287399292">
        <ele>671.0</ele>
        <time>2019-04-24T06:29:16.000Z</time>
      </trkpt>
      <trkpt lat="42.441375732421875" lon="-6.793969631195068">
        <ele>670.0</ele>
        <time>2019-04-24T06:29:19.000Z</time>
      </trkpt>
      <trkpt lat="42.44136428833008" lon="-6.794016361236572">
        <ele>669.0</ele>
        <time>2019-04-24T06:29:22.000Z</time>
      </trkpt>
      <trkpt lat="42.441341400146484" lon="-6.794050216674805">
        <ele>669.0</ele>
        <time>2019-04-24T06:29:25.000Z</time>
      </trkpt>
      <trkpt lat="42.441314697265625" lon="-6.794077396392822">
        <ele>669.0</ele>
        <time>2019-04-24T06:29:28.000Z</time>
      </trkpt>
      <trkpt lat="42.44127655029297" lon="-6.794113636016846">
        <ele>668.0</ele>
        <time>2019-04-24T06:29:32.000Z</time>
      </trkpt>
      <trkpt lat="42.44122314453125" lon="-6.794147491455078">
        <ele>667.0</ele>
        <time>2019-04-24T06:29:37.000Z</time>
      </trkpt>
      <trkpt lat="42.441165924072266" lon="-6.794179439544678">
        <ele>666.0</ele>
        <time>2019-04-24T06:29:42.000Z</time>
      </trkpt>
      <trkpt lat="42.441104888916016" lon="-6.794210433959961">
        <ele>665.0</ele>
        <time>2019-04-24T06:29:47.000Z</time>
      </trkpt>
      <trkpt lat="42.4410514831543" lon="-6.794214725494385">
        <ele>664.0</ele>
        <time>2019-04-24T06:29:52.000Z</time>
      </trkpt>
      <trkpt lat="42.441017150878906" lon="-6.794190406799316">
        <ele>663.0</ele>
        <time>2019-04-24T06:29:57.000Z</time>
      </trkpt>
      <trkpt lat="42.44100570678711" lon="-6.794193267822266">
        <ele>661.0</ele>
        <time>2019-04-24T06:30:05.000Z</time>
      </trkpt>
      <trkpt lat="42.44100570678711" lon="-6.794201850891113">
        <ele>660.0</ele>
        <time>2019-04-24T06:30:14.000Z</time>
      </trkpt>
      <trkpt lat="42.441001892089844" lon="-6.7942047119140625">
        <ele>659.0</ele>
        <time>2019-04-24T06:30:14.000Z</time>
      </trkpt>
      <trkpt lat="42.44099807739258" lon="-6.7942070960998535">
        <ele>659.0</ele>
        <time>2019-04-24T06:30:14.000Z</time>
      </trkpt>
      <trkpt lat="42.44099426269531" lon="-6.7942094802856445">
        <ele>659.0</ele>
        <time>2019-04-24T06:30:14.000Z</time>
      </trkpt>
      <trkpt lat="42.44099426269531" lon="-6.7942118644714355">
        <ele>660.0</ele>
        <time>2019-04-24T06:30:15.000Z</time>
      </trkpt>
      <trkpt lat="42.440940856933594" lon="-6.794247627258301">
        <ele>659.0</ele>
        <time>2019-04-24T06:30:19.000Z</time>
      </trkpt>
      <trkpt lat="42.44086837768555" lon="-6.794297695159912">
        <ele>658.0</ele>
        <time>2019-04-24T06:30:23.000Z</time>
      </trkpt>
      <trkpt lat="42.4407844543457" lon="-6.794356822967529">
        <ele>657.0</ele>
        <time>2019-04-24T06:30:27.000Z</time>
      </trkpt>
      <trkpt lat="42.44069290161133" lon="-6.7944207191467285">
        <ele>656.0</ele>
        <time>2019-04-24T06:30:32.000Z</time>
      </trkpt>
      <trkpt lat="42.440616607666016" lon="-6.794471740722656">
        <ele>655.0</ele>
        <time>2019-04-24T06:30:39.000Z</time>
      </trkpt>
      <trkpt lat="42.4405403137207" lon="-6.794522762298584">
        <ele>653.0</ele>
        <time>2019-04-24T06:30:46.000Z</time>
      </trkpt>
      <trkpt lat="42.440467834472656" lon="-6.7945733070373535">
        <ele>652.0</ele>
        <time>2019-04-24T06:30:53.000Z</time>
      </trkpt>
      <trkpt lat="42.440391540527344" lon="-6.794623374938965">
        <ele>650.0</ele>
        <time>2019-04-24T06:31:00.000Z</time>
      </trkpt>
      <trkpt lat="42.440223693847656" lon="-6.794651031494141">
        <ele>647.0</ele>
        <time>2019-04-24T06:31:12.000Z</time>
      </trkpt>
      <trkpt lat="42.44004440307617" lon="-6.794643878936768">
        <ele>645.0</ele>
        <time>2019-04-24T06:31:25.000Z</time>
      </trkpt>
      <trkpt lat="42.43996047973633" lon="-6.794642925262451">
        <ele>643.0</ele>
        <time>2019-04-24T06:31:32.000Z</time>
      </trkpt>
      <trkpt lat="42.43987274169922" lon="-6.794639587402344">
        <ele>642.0</ele>
        <time>2019-04-24T06:31:39.000Z</time>
      </trkpt>
      <trkpt lat="42.439788818359375" lon="-6.7946343421936035">
        <ele>641.0</ele>
        <time>2019-04-24T06:31:46.000Z</time>
      </trkpt>
      <trkpt lat="42.43970489501953" lon="-6.794628143310547">
        <ele>639.0</ele>
        <time>2019-04-24T06:31:53.000Z</time>
      </trkpt>
      <trkpt lat="42.439552307128906" lon="-6.794529914855957">
        <ele>636.0</ele>
        <time>2019-04-24T06:32:06.000Z</time>
      </trkpt>
      <trkpt lat="42.43940734863281" lon="-6.794389724731445">
        <ele>633.0</ele>
        <time>2019-04-24T06:32:19.000Z</time>
      </trkpt>
      <trkpt lat="42.439369201660156" lon="-6.794363021850586">
        <ele>632.0</ele>
        <time>2019-04-24T06:32:23.000Z</time>
      </trkpt>
      <trkpt lat="42.43935012817383" lon="-6.7943501472473145">
        <ele>632.0</ele>
        <time>2019-04-24T06:32:28.000Z</time>
      </trkpt>
      <trkpt lat="42.43933868408203" lon="-6.794346332550049">
        <ele>633.0</ele>
        <time>2019-04-24T06:32:32.000Z</time>
      </trkpt>
      <trkpt lat="42.439334869384766" lon="-6.794346809387207">
        <ele>634.0</ele>
        <time>2019-04-24T06:32:37.000Z</time>
      </trkpt>
      <trkpt lat="42.43932342529297" lon="-6.79434061050415">
        <ele>634.0</ele>
        <time>2019-04-24T06:32:46.000Z</time>
      </trkpt>
      <trkpt lat="42.43931579589844" lon="-6.794336318969727">
        <ele>633.0</ele>
        <time>2019-04-24T06:32:55.000Z</time>
      </trkpt>
      <trkpt lat="42.43931198120117" lon="-6.794332981109619">
        <ele>633.0</ele>
        <time>2019-04-24T06:33:04.000Z</time>
      </trkpt>
      <trkpt lat="42.43931198120117" lon="-6.794330596923828">
        <ele>633.0</ele>
        <time>2019-04-24T06:33:13.000Z</time>
      </trkpt>
      <trkpt lat="42.43930435180664" lon="-6.794327259063721">
        <ele>633.0</ele>
        <time>2019-04-24T06:33:13.000Z</time>
      </trkpt>
      <trkpt lat="42.439300537109375" lon="-6.794323921203613">
        <ele>633.0</ele>
        <time>2019-04-24T06:33:13.000Z</time>
      </trkpt>
      <trkpt lat="42.43929672241211" lon="-6.794321060180664">
        <ele>633.0</ele>
        <time>2019-04-24T06:33:13.000Z</time>
      </trkpt>
      <trkpt lat="42.439292907714844" lon="-6.794318199157715">
        <ele>633.0</ele>
        <time>2019-04-24T06:33:14.000Z</time>
      </trkpt>
      <trkpt lat="42.43928527832031" lon="-6.794312477111816">
        <ele>633.0</ele>
        <time>2019-04-24T06:33:15.000Z</time>
      </trkpt>
      <trkpt lat="42.439273834228516" lon="-6.794305324554443">
        <ele>633.0</ele>
        <time>2019-04-24T06:33:16.000Z</time>
      </trkpt>
      <trkpt lat="42.43926239013672" lon="-6.794297695159912">
        <ele>633.0</ele>
        <time>2019-04-24T06:33:16.000Z</time>
      </trkpt>
      <trkpt lat="42.43925094604492" lon="-6.794290065765381">
        <ele>633.0</ele>
        <time>2019-04-24T06:33:17.000Z</time>
      </trkpt>
      <trkpt lat="42.43924331665039" lon="-6.794285297393799">
        <ele>633.0</ele>
        <time>2019-04-24T06:33:19.000Z</time>
      </trkpt>
      <trkpt lat="42.439239501953125" lon="-6.794281959533691">
        <ele>633.0</ele>
        <time>2019-04-24T06:33:20.000Z</time>
      </trkpt>
      <trkpt lat="42.43923568725586" lon="-6.794279098510742">
        <ele>632.0</ele>
        <time>2019-04-24T06:33:21.000Z</time>
      </trkpt>
      <trkpt lat="42.439231872558594" lon="-6.794276714324951">
        <ele>632.0</ele>
        <time>2019-04-24T06:33:23.000Z</time>
      </trkpt>
      <trkpt lat="42.43921661376953" lon="-6.794266223907471">
        <ele>632.0</ele>
        <time>2019-04-24T06:33:24.000Z</time>
      </trkpt>
      <trkpt lat="42.43903350830078" lon="-6.794152736663818">
        <ele>631.0</ele>
        <time>2019-04-24T06:33:32.000Z</time>
      </trkpt>
      <trkpt lat="42.4389533996582" lon="-6.794146537780762">
        <ele>631.0</ele>
        <time>2019-04-24T06:33:38.000Z</time>
      </trkpt>
      <trkpt lat="42.438880920410156" lon="-6.794164180755615">
        <ele>630.0</ele>
        <time>2019-04-24T06:33:44.000Z</time>
      </trkpt>
      <trkpt lat="42.438812255859375" lon="-6.794186115264893">
        <ele>630.0</ele>
        <time>2019-04-24T06:33:52.000Z</time>
      </trkpt>
      <trkpt lat="42.43872833251953" lon="-6.794215679168701">
        <ele>629.0</ele>
        <time>2019-04-24T06:34:00.000Z</time>
      </trkpt>
      <trkpt lat="42.438636779785156" lon="-6.794250011444092">
        <ele>628.0</ele>
        <time>2019-04-24T06:34:08.000Z</time>
      </trkpt>
      <trkpt lat="42.438541412353516" lon="-6.794287204742432">
        <ele>627.0</ele>
        <time>2019-04-24T06:34:16.000Z</time>
      </trkpt>
      <trkpt lat="42.43846130371094" lon="-6.7943339347839355">
        <ele>627.0</ele>
        <time>2019-04-24T06:34:23.000Z</time>
      </trkpt>
      <trkpt lat="42.438385009765625" lon="-6.794386863708496">
        <ele>626.0</ele>
        <time>2019-04-24T06:34:30.000Z</time>
      </trkpt>
      <trkpt lat="42.43831253051758" lon="-6.794444561004639">
        <ele>625.0</ele>
        <time>2019-04-24T06:34:37.000Z</time>
      </trkpt>
      <trkpt lat="42.438236236572266" lon="-6.794504165649414">
        <ele>625.0</ele>
        <time>2019-04-24T06:34:45.000Z</time>
      </trkpt>
      <trkpt lat="42.43816375732422" lon="-6.794561386108398">
        <ele>624.0</ele>
        <time>2019-04-24T06:34:52.000Z</time>
      </trkpt>
      <trkpt lat="42.43809127807617" lon="-6.794620037078857">
        <ele>624.0</ele>
        <time>2019-04-24T06:35:00.000Z</time>
      </trkpt>
      <trkpt lat="42.43802261352539" lon="-6.794679164886475">
        <ele>623.0</ele>
        <time>2019-04-24T06:35:07.000Z</time>
      </trkpt>
      <trkpt lat="42.437950134277344" lon="-6.79473876953125">
        <ele>622.0</ele>
        <time>2019-04-24T06:35:15.000Z</time>
      </trkpt>
      <trkpt lat="42.43791961669922" lon="-6.794763088226318">
        <ele>622.0</ele>
        <time>2019-04-24T06:35:20.000Z</time>
      </trkpt>
      <trkpt lat="42.437904357910156" lon="-6.794773578643799">
        <ele>622.0</ele>
        <time>2019-04-24T06:35:25.000Z</time>
      </trkpt>
      <trkpt lat="42.437896728515625" lon="-6.794774055480957">
        <ele>621.0</ele>
        <time>2019-04-24T06:35:30.000Z</time>
      </trkpt>
      <trkpt lat="42.43790054321289" lon="-6.794769763946533">
        <ele>621.0</ele>
        <time>2019-04-24T06:35:36.000Z</time>
      </trkpt>
      <trkpt lat="42.437889099121094" lon="-6.794775485992432">
        <ele>621.0</ele>
        <time>2019-04-24T06:35:36.000Z</time>
      </trkpt>
      <trkpt lat="42.43788146972656" lon="-6.794780254364014">
        <ele>621.0</ele>
        <time>2019-04-24T06:35:36.000Z</time>
      </trkpt>
      <trkpt lat="42.43787384033203" lon="-6.7947845458984375">
        <ele>621.0</ele>
        <time>2019-04-24T06:35:36.000Z</time>
      </trkpt>
      <trkpt lat="42.4378662109375" lon="-6.794788360595703">
        <ele>621.0</ele>
        <time>2019-04-24T06:35:37.000Z</time>
      </trkpt>
      <trkpt lat="42.437583923339844" lon="-6.794959545135498">
        <ele>621.0</ele>
        <time>2019-04-24T06:35:58.000Z</time>
      </trkpt>
      <trkpt lat="42.437496185302734" lon="-6.795055389404297">
        <ele>620.0</ele>
        <time>2019-04-24T06:37:16.000Z</time>
      </trkpt>
      <trkpt lat="42.43746566772461" lon="-6.7950897216796875">
        <ele>620.0</ele>
        <time>2019-04-24T06:37:17.000Z</time>
      </trkpt>
      <trkpt lat="42.43735122680664" lon="-6.795185089111328">
        <ele>621.0</ele>
        <time>2019-04-24T06:37:27.000Z</time>
      </trkpt>
      <trkpt lat="42.43732452392578" lon="-6.795209884643555">
        <ele>621.0</ele>
        <time>2019-04-24T06:37:47.000Z</time>
      </trkpt>
      <trkpt lat="42.43730926513672" lon="-6.795228481292725">
        <ele>621.0</ele>
        <time>2019-04-24T06:37:48.000Z</time>
      </trkpt>
      <trkpt lat="42.43720245361328" lon="-6.795338153839111">
        <ele>621.0</ele>
        <time>2019-04-24T06:37:53.000Z</time>
      </trkpt>
      <trkpt lat="42.43719482421875" lon="-6.795346736907959">
        <ele>622.0</ele>
        <time>2019-04-24T06:37:54.000Z</time>
      </trkpt>
      <trkpt lat="42.43715286254883" lon="-6.7953996658325195">
        <ele>623.0</ele>
        <time>2019-04-24T06:38:31.000Z</time>
      </trkpt>
      <trkpt lat="42.43712615966797" lon="-6.795429229736328">
        <ele>623.0</ele>
        <time>2019-04-24T06:38:32.000Z</time>
      </trkpt>
      <trkpt lat="42.43708419799805" lon="-6.7954816818237305">
        <ele>623.0</ele>
        <time>2019-04-24T06:38:37.000Z</time>
      </trkpt>
      <trkpt lat="42.437034606933594" lon="-6.7955546379089355">
        <ele>623.0</ele>
        <time>2019-04-24T06:38:53.000Z</time>
      </trkpt>
      <trkpt lat="42.43701171875" lon="-6.795591354370117">
        <ele>623.0</ele>
        <time>2019-04-24T06:38:54.000Z</time>
      </trkpt>
      <trkpt lat="42.436893463134766" lon="-6.7957377433776855">
        <ele>623.0</ele>
        <time>2019-04-24T06:39:03.000Z</time>
      </trkpt>
      <trkpt lat="42.436798095703125" lon="-6.795764923095703">
        <ele>622.0</ele>
        <time>2019-04-24T06:39:10.000Z</time>
      </trkpt>
      <trkpt lat="42.436683654785156" lon="-6.795770645141602">
        <ele>622.0</ele>
        <time>2019-04-24T06:39:17.000Z</time>
      </trkpt>
      <trkpt lat="42.43661117553711" lon="-6.7957868576049805">
        <ele>622.0</ele>
        <time>2019-04-24T06:39:24.000Z</time>
      </trkpt>
      <trkpt lat="42.4365234375" lon="-6.795806407928467">
        <ele>621.0</ele>
        <time>2019-04-24T06:39:31.000Z</time>
      </trkpt>
      <trkpt lat="42.436431884765625" lon="-6.795828342437744">
        <ele>621.0</ele>
        <time>2019-04-24T06:39:38.000Z</time>
      </trkpt>
      <trkpt lat="42.436336517333984" lon="-6.795851230621338">
        <ele>620.0</ele>
        <time>2019-04-24T06:39:46.000Z</time>
      </trkpt>
      <trkpt lat="42.436248779296875" lon="-6.795867919921875">
        <ele>620.0</ele>
        <time>2019-04-24T06:39:53.000Z</time>
      </trkpt>
      <trkpt lat="42.436161041259766" lon="-6.7958831787109375">
        <ele>619.0</ele>
        <time>2019-04-24T06:40:01.000Z</time>
      </trkpt>
      <trkpt lat="42.436073303222656" lon="-6.795897483825684">
        <ele>618.0</ele>
        <time>2019-04-24T06:40:09.000Z</time>
      </trkpt>
      <trkpt lat="42.43598556518555" lon="-6.79591178894043">
        <ele>617.0</ele>
        <time>2019-04-24T06:40:17.000Z</time>
      </trkpt>
      <trkpt lat="42.435909271240234" lon="-6.7959394454956055">
        <ele>616.0</ele>
        <time>2019-04-24T06:40:24.000Z</time>
      </trkpt>
      <trkpt lat="42.43583679199219" lon="-6.79597282409668">
        <ele>615.0</ele>
        <time>2019-04-24T06:40:32.000Z</time>
      </trkpt>
      <trkpt lat="42.435768127441406" lon="-6.7960100173950195">
        <ele>614.0</ele>
        <time>2019-04-24T06:40:39.000Z</time>
      </trkpt>
      <trkpt lat="42.435699462890625" lon="-6.796049118041992">
        <ele>613.0</ele>
        <time>2019-04-24T06:40:47.000Z</time>
      </trkpt>
      <trkpt lat="42.435672760009766" lon="-6.796063423156738">
        <ele>612.0</ele>
        <time>2019-04-24T06:40:52.000Z</time>
      </trkpt>
      <trkpt lat="42.435665130615234" lon="-6.796070098876953">
        <ele>611.0</ele>
        <time>2019-04-24T06:40:58.000Z</time>
      </trkpt>
      <trkpt lat="42.4356689453125" lon="-6.7960710525512695">
        <ele>609.0</ele>
        <time>2019-04-24T06:41:03.000Z</time>
      </trkpt>
      <trkpt lat="42.4356803894043" lon="-6.796069622039795">
        <ele>608.0</ele>
        <time>2019-04-24T06:41:09.000Z</time>
      </trkpt>
      <trkpt lat="42.43567657470703" lon="-6.796073913574219">
        <ele>607.0</ele>
        <time>2019-04-24T06:41:09.000Z</time>
      </trkpt>
      <trkpt lat="42.435672760009766" lon="-6.796078205108643">
        <ele>607.0</ele>
        <time>2019-04-24T06:41:09.000Z</time>
      </trkpt>
      <trkpt lat="42.4356689453125" lon="-6.796082019805908">
        <ele>608.0</ele>
        <time>2019-04-24T06:41:09.000Z</time>
      </trkpt>
      <trkpt lat="42.435665130615234" lon="-6.796085834503174">
        <ele>608.0</ele>
        <time>2019-04-24T06:41:10.000Z</time>
      </trkpt>
      <trkpt lat="42.435401916503906" lon="-6.796392440795898">
        <ele>603.0</ele>
        <time>2019-04-24T06:41:28.000Z</time>
      </trkpt>
      <trkpt lat="42.43520736694336" lon="-6.7967915534973145">
        <ele>596.0</ele>
        <time>2019-04-24T06:42:03.000Z</time>
      </trkpt>
      <trkpt lat="42.435028076171875" lon="-6.797191619873047">
        <ele>589.0</ele>
        <time>2019-04-24T06:42:41.000Z</time>
      </trkpt>
      <trkpt lat="42.43501663208008" lon="-6.797250270843506">
        <ele>588.0</ele>
        <time>2019-04-24T06:42:48.000Z</time>
      </trkpt>
      <trkpt lat="42.43499755859375" lon="-6.797280788421631">
        <ele>587.0</ele>
        <time>2019-04-24T06:42:56.000Z</time>
      </trkpt>
      <trkpt lat="42.434974670410156" lon="-6.797311305999756">
        <ele>585.0</ele>
        <time>2019-04-24T06:43:05.000Z</time>
      </trkpt>
      <trkpt lat="42.43497085571289" lon="-6.797321796417236">
        <ele>584.0</ele>
        <time>2019-04-24T06:43:05.000Z</time>
      </trkpt>
      <trkpt lat="42.43496322631836" lon="-6.797330856323242">
        <ele>584.0</ele>
        <time>2019-04-24T06:43:05.000Z</time>
      </trkpt>
      <trkpt lat="42.434959411621094" lon="-6.797338008880615">
        <ele>584.0</ele>
        <time>2019-04-24T06:43:05.000Z</time>
      </trkpt>
      <trkpt lat="42.43495559692383" lon="-6.797345161437988">
        <ele>585.0</ele>
        <time>2019-04-24T06:43:06.000Z</time>
      </trkpt>
      <trkpt lat="42.4349250793457" lon="-6.79739236831665">
        <ele>584.0</ele>
        <time>2019-04-24T06:43:10.000Z</time>
      </trkpt>
      <trkpt lat="42.43488311767578" lon="-6.79745626449585">
        <ele>583.0</ele>
        <time>2019-04-24T06:43:14.000Z</time>
      </trkpt>
      <trkpt lat="42.43483352661133" lon="-6.797530651092529">
        <ele>582.0</ele>
        <time>2019-04-24T06:43:18.000Z</time>
      </trkpt>
      <trkpt lat="42.43478012084961" lon="-6.797610282897949">
        <ele>582.0</ele>
        <time>2019-04-24T06:43:22.000Z</time>
      </trkpt>
      <trkpt lat="42.434757232666016" lon="-6.79764461517334">
        <ele>581.0</ele>
        <time>2019-04-24T06:43:26.000Z</time>
      </trkpt>
      <trkpt lat="42.43474578857422" lon="-6.797665596008301">
        <ele>580.0</ele>
        <time>2019-04-24T06:43:30.000Z</time>
      </trkpt>
      <trkpt lat="42.43473815917969" lon="-6.797677040100098">
        <ele>579.0</ele>
        <time>2019-04-24T06:43:34.000Z</time>
      </trkpt>
      <trkpt lat="42.43473434448242" lon="-6.797684669494629">
        <ele>578.0</ele>
        <time>2019-04-24T06:43:39.000Z</time>
      </trkpt>
      <trkpt lat="42.43472671508789" lon="-6.797696590423584">
        <ele>577.0</ele>
        <time>2019-04-24T06:43:39.000Z</time>
      </trkpt>
      <trkpt lat="42.43471908569336" lon="-6.79770565032959">
        <ele>577.0</ele>
        <time>2019-04-24T06:43:39.000Z</time>
      </trkpt>
      <trkpt lat="42.434715270996094" lon="-6.797713279724121">
        <ele>577.0</ele>
        <time>2019-04-24T06:43:39.000Z</time>
      </trkpt>
      <trkpt lat="42.43471145629883" lon="-6.797719478607178">
        <ele>578.0</ele>
        <time>2019-04-24T06:43:40.000Z</time>
      </trkpt>
      <trkpt lat="42.4347038269043" lon="-6.797728538513184">
        <ele>578.0</ele>
        <time>2019-04-24T06:43:40.000Z</time>
      </trkpt>
      <trkpt lat="42.434696197509766" lon="-6.797737121582031">
        <ele>577.0</ele>
        <time>2019-04-24T06:43:41.000Z</time>
      </trkpt>
      <trkpt lat="42.434688568115234" lon="-6.797745704650879">
        <ele>577.0</ele>
        <time>2019-04-24T06:43:42.000Z</time>
      </trkpt>
      <trkpt lat="42.4346809387207" lon="-6.797754764556885">
        <ele>577.0</ele>
        <time>2019-04-24T06:43:43.000Z</time>
      </trkpt>
      <trkpt lat="42.434600830078125" lon="-6.797798156738281">
        <ele>576.0</ele>
        <time>2019-04-24T06:43:52.000Z</time>
      </trkpt>
      <trkpt lat="42.434566497802734" lon="-6.797815799713135">
        <ele>576.0</ele>
        <time>2019-04-24T06:43:53.000Z</time>
      </trkpt>
      <trkpt lat="42.434288024902344" lon="-6.798003196716309">
        <ele>572.0</ele>
        <time>2019-04-24T06:44:17.000Z</time>
      </trkpt>
      <trkpt lat="42.434268951416016" lon="-6.798018455505371">
        <ele>570.0</ele>
        <time>2019-04-24T06:44:31.000Z</time>
      </trkpt>
      <trkpt lat="42.43425750732422" lon="-6.798030376434326">
        <ele>570.0</ele>
        <time>2019-04-24T06:44:32.000Z</time>
      </trkpt>
      <trkpt lat="42.433982849121094" lon="-6.798304557800293">
        <ele>568.0</ele>
        <time>2019-04-24T06:44:47.000Z</time>
      </trkpt>
      <trkpt lat="42.433685302734375" lon="-6.798584938049316">
        <ele>568.0</ele>
        <time>2019-04-24T06:45:11.000Z</time>
      </trkpt>
      <trkpt lat="42.43336868286133" lon="-6.798788547515869">
        <ele>568.0</ele>
        <time>2019-04-24T06:45:46.000Z</time>
      </trkpt>
      <trkpt lat="42.433082580566406" lon="-6.7990593910217285">
        <ele>567.0</ele>
        <time>2019-04-24T06:46:14.000Z</time>
      </trkpt>
      <trkpt lat="42.43292999267578" lon="-6.799216270446777">
        <ele>565.0</ele>
        <time>2019-04-24T06:46:31.000Z</time>
      </trkpt>
      <trkpt lat="42.43289566040039" lon="-6.799224853515625">
        <ele>564.0</ele>
        <time>2019-04-24T06:46:34.000Z</time>
      </trkpt>
      <trkpt lat="42.432857513427734" lon="-6.799221038818359">
        <ele>564.0</ele>
        <time>2019-04-24T06:46:37.000Z</time>
      </trkpt>
      <trkpt lat="42.432823181152344" lon="-6.799208641052246">
        <ele>564.0</ele>
        <time>2019-04-24T06:46:40.000Z</time>
      </trkpt>
      <trkpt lat="42.43278884887695" lon="-6.799191474914551">
        <ele>564.0</ele>
        <time>2019-04-24T06:46:44.000Z</time>
      </trkpt>
      <trkpt lat="42.43276596069336" lon="-6.799187660217285">
        <ele>564.0</ele>
        <time>2019-04-24T06:46:48.000Z</time>
      </trkpt>
      <trkpt lat="42.4327507019043" lon="-6.799184799194336">
        <ele>564.0</ele>
        <time>2019-04-24T06:46:53.000Z</time>
      </trkpt>
      <trkpt lat="42.4327392578125" lon="-6.799182415008545">
        <ele>564.0</ele>
        <time>2019-04-24T06:46:57.000Z</time>
      </trkpt>
      <trkpt lat="42.43273162841797" lon="-6.799180507659912">
        <ele>564.0</ele>
        <time>2019-04-24T06:47:02.000Z</time>
      </trkpt>
      <trkpt lat="42.43272018432617" lon="-6.799178123474121">
        <ele>564.0</ele>
        <time>2019-04-24T06:47:02.000Z</time>
      </trkpt>
      <trkpt lat="42.43271255493164" lon="-6.7991766929626465">
        <ele>564.0</ele>
        <time>2019-04-24T06:47:02.000Z</time>
      </trkpt>
      <trkpt lat="42.43270492553711" lon="-6.799175262451172">
        <ele>564.0</ele>
        <time>2019-04-24T06:47:02.000Z</time>
      </trkpt>
      <trkpt lat="42.43269729614258" lon="-6.799173831939697">
        <ele>564.0</ele>
        <time>2019-04-24T06:47:03.000Z</time>
      </trkpt>
      <trkpt lat="42.432674407958984" lon="-6.799168109893799">
        <ele>564.0</ele>
        <time>2019-04-24T06:47:04.000Z</time>
      </trkpt>
      <trkpt lat="42.43264389038086" lon="-6.799161434173584">
        <ele>564.0</ele>
        <time>2019-04-24T06:47:05.000Z</time>
      </trkpt>
      <trkpt lat="42.4326057434082" lon="-6.7991533279418945">
        <ele>564.0</ele>
        <time>2019-04-24T06:47:06.000Z</time>
      </trkpt>
      <trkpt lat="42.43257141113281" lon="-6.799144744873047">
        <ele>564.0</ele>
        <time>2019-04-24T06:47:07.000Z</time>
      </trkpt>
      <trkpt lat="42.43254852294922" lon="-6.799141883850098">
        <ele>564.0</ele>
        <time>2019-04-24T06:47:09.000Z</time>
      </trkpt>
      <trkpt lat="42.43252944946289" lon="-6.799140930175781">
        <ele>564.0</ele>
        <time>2019-04-24T06:47:12.000Z</time>
      </trkpt>
      <trkpt lat="42.43251037597656" lon="-6.799141883850098">
        <ele>564.0</ele>
        <time>2019-04-24T06:47:15.000Z</time>
      </trkpt>
      <trkpt lat="42.4324951171875" lon="-6.799142837524414">
        <ele>564.0</ele>
        <time>2019-04-24T06:47:18.000Z</time>
      </trkpt>
      <trkpt lat="42.4324836730957" lon="-6.799142837524414">
        <ele>564.0</ele>
        <time>2019-04-24T06:47:18.000Z</time>
      </trkpt>
      <trkpt lat="42.43247604370117" lon="-6.799142360687256">
        <ele>564.0</ele>
        <time>2019-04-24T06:47:18.000Z</time>
      </trkpt>
      <trkpt lat="42.43246841430664" lon="-6.799142360687256">
        <ele>564.0</ele>
        <time>2019-04-24T06:47:18.000Z</time>
      </trkpt>
      <trkpt lat="42.43246078491211" lon="-6.799142360687256">
        <ele>564.0</ele>
        <time>2019-04-24T06:47:19.000Z</time>
      </trkpt>
      <trkpt lat="42.432132720947266" lon="-6.799190521240234">
        <ele>563.0</ele>
        <time>2019-04-24T06:47:41.000Z</time>
      </trkpt>
      <trkpt lat="42.431819915771484" lon="-6.799343109130859">
        <ele>562.0</ele>
        <time>2019-04-24T06:48:09.000Z</time>
      </trkpt>
      <trkpt lat="42.43149185180664" lon="-6.7995100021362305">
        <ele>560.0</ele>
        <time>2019-04-24T06:48:35.000Z</time>
      </trkpt>
      <trkpt lat="42.43147277832031" lon="-6.799524307250977">
        <ele>560.0</ele>
        <time>2019-04-24T06:48:38.000Z</time>
      </trkpt>
      <trkpt lat="42.43145751953125" lon="-6.799530982971191">
        <ele>558.0</ele>
        <time>2019-04-24T06:48:51.000Z</time>
      </trkpt>
      <trkpt lat="42.43144607543945" lon="-6.799537181854248">
        <ele>558.0</ele>
        <time>2019-04-24T06:48:52.000Z</time>
      </trkpt>
      <trkpt lat="42.43112564086914" lon="-6.7996931076049805">
        <ele>555.0</ele>
        <time>2019-04-24T06:49:09.000Z</time>
      </trkpt>
      <trkpt lat="42.43103790283203" lon="-6.7997331619262695">
        <ele>553.0</ele>
        <time>2019-04-24T06:49:17.000Z</time>
      </trkpt>
      <trkpt lat="42.43101501464844" lon="-6.799736499786377">
        <ele>551.0</ele>
        <time>2019-04-24T06:49:30.000Z</time>
      </trkpt>
      <trkpt lat="42.43099594116211" lon="-6.799739360809326">
        <ele>551.0</ele>
        <time>2019-04-24T06:49:31.000Z</time>
      </trkpt>
      <trkpt lat="42.430660247802734" lon="-6.799769878387451">
        <ele>549.0</ele>
        <time>2019-04-24T06:49:45.000Z</time>
      </trkpt>
      <trkpt lat="42.43031311035156" lon="-6.7996931076049805">
        <ele>546.0</ele>
        <time>2019-04-24T06:50:12.000Z</time>
      </trkpt>
      <trkpt lat="42.42996597290039" lon="-6.799657344818115">
        <ele>543.0</ele>
        <time>2019-04-24T06:50:42.000Z</time>
      </trkpt>
      <trkpt lat="42.42979431152344" lon="-6.799655914306641">
        <ele>542.0</ele>
        <time>2019-04-24T06:50:58.000Z</time>
      </trkpt>
      <trkpt lat="42.42977523803711" lon="-6.7996625900268555">
        <ele>542.0</ele>
        <time>2019-04-24T06:51:00.000Z</time>
      </trkpt>
      <trkpt lat="42.42976760864258" lon="-6.7996721267700195">
        <ele>542.0</ele>
        <time>2019-04-24T06:51:03.000Z</time>
      </trkpt>
      <trkpt lat="42.42976760864258" lon="-6.799683570861816">
        <ele>542.0</ele>
        <time>2019-04-24T06:51:06.000Z</time>
      </trkpt>
      <trkpt lat="42.42976760864258" lon="-6.79969596862793">
        <ele>542.0</ele>
        <time>2019-04-24T06:51:09.000Z</time>
      </trkpt>
      <trkpt lat="42.42975616455078" lon="-6.799712657928467">
        <ele>542.0</ele>
        <time>2019-04-24T06:51:13.000Z</time>
      </trkpt>
      <trkpt lat="42.42973709106445" lon="-6.799731731414795">
        <ele>543.0</ele>
        <time>2019-04-24T06:51:18.000Z</time>
      </trkpt>
      <trkpt lat="42.42971420288086" lon="-6.799752712249756">
        <ele>544.0</ele>
        <time>2019-04-24T06:51:23.000Z</time>
      </trkpt>
      <trkpt lat="42.429691314697266" lon="-6.799774646759033">
        <ele>545.0</ele>
        <time>2019-04-24T06:51:28.000Z</time>
      </trkpt>
      <trkpt lat="42.42967987060547" lon="-6.799785614013672">
        <ele>546.0</ele>
        <time>2019-04-24T06:51:28.000Z</time>
      </trkpt>
      <trkpt lat="42.42967224121094" lon="-6.799793243408203">
        <ele>546.0</ele>
        <time>2019-04-24T06:51:28.000Z</time>
      </trkpt>
      <trkpt lat="42.42966842651367" lon="-6.799798488616943">
        <ele>545.0</ele>
        <time>2019-04-24T06:51:28.000Z</time>
      </trkpt>
      <trkpt lat="42.429664611816406" lon="-6.799802780151367">
        <ele>545.0</ele>
        <time>2019-04-24T06:51:29.000Z</time>
      </trkpt>
      <trkpt lat="42.42963790893555" lon="-6.799825191497803">
        <ele>546.0</ele>
        <time>2019-04-24T06:51:33.000Z</time>
      </trkpt>
      <trkpt lat="42.42959976196289" lon="-6.799854278564453">
        <ele>546.0</ele>
        <time>2019-04-24T06:51:37.000Z</time>
      </trkpt>
      <trkpt lat="42.4295539855957" lon="-6.799887657165527">
        <ele>547.0</ele>
        <time>2019-04-24T06:51:41.000Z</time>
      </trkpt>
      <trkpt lat="42.429508209228516" lon="-6.799923419952393">
        <ele>547.0</ele>
        <time>2019-04-24T06:51:45.000Z</time>
      </trkpt>
      <trkpt lat="42.42946243286133" lon="-6.79991340637207">
        <ele>548.0</ele>
        <time>2019-04-24T06:51:49.000Z</time>
      </trkpt>
      <trkpt lat="42.42941665649414" lon="-6.7998857498168945">
        <ele>548.0</ele>
        <time>2019-04-24T06:51:54.000Z</time>
      </trkpt>
      <trkpt lat="42.42937088012695" lon="-6.79984712600708">
        <ele>548.0</ele>
        <time>2019-04-24T06:51:58.000Z</time>
      </trkpt>
      <trkpt lat="42.429325103759766" lon="-6.799802780151367">
        <ele>549.0</ele>
        <time>2019-04-24T06:52:03.000Z</time>
      </trkpt>
      <trkpt lat="42.42928695678711" lon="-6.799772262573242">
        <ele>549.0</ele>
        <time>2019-04-24T06:52:06.000Z</time>
      </trkpt>
      <trkpt lat="42.42925262451172" lon="-6.799741744995117">
        <ele>549.0</ele>
        <time>2019-04-24T06:52:09.000Z</time>
      </trkpt>
      <trkpt lat="42.42921829223633" lon="-6.799711227416992">
        <ele>549.0</ele>
        <time>2019-04-24T06:52:12.000Z</time>
      </trkpt>
      <trkpt lat="42.42918395996094" lon="-6.799680233001709">
        <ele>549.0</ele>
        <time>2019-04-24T06:52:16.000Z</time>
      </trkpt>
      <trkpt lat="42.42915725708008" lon="-6.799668312072754">
        <ele>549.0</ele>
        <time>2019-04-24T06:52:24.000Z</time>
      </trkpt>
      <trkpt lat="42.42914581298828" lon="-6.799679279327393">
        <ele>549.0</ele>
        <time>2019-04-24T06:52:32.000Z</time>
      </trkpt>
      <trkpt lat="42.42913818359375" lon="-6.799679279327393">
        <ele>549.0</ele>
        <time>2019-04-24T06:52:32.000Z</time>
      </trkpt>
      <trkpt lat="42.42913055419922" lon="-6.799678802490234">
        <ele>549.0</ele>
        <time>2019-04-24T06:52:32.000Z</time>
      </trkpt>
      <trkpt lat="42.42912292480469" lon="-6.799678802490234">
        <ele>549.0</ele>
        <time>2019-04-24T06:52:32.000Z</time>
      </trkpt>
      <trkpt lat="42.42911911010742" lon="-6.799678802490234">
        <ele>549.0</ele>
        <time>2019-04-24T06:52:33.000Z</time>
      </trkpt>
      <trkpt lat="42.42905807495117" lon="-6.799682140350342">
        <ele>549.0</ele>
        <time>2019-04-24T06:52:38.000Z</time>
      </trkpt>
      <trkpt lat="42.42897415161133" lon="-6.79968786239624">
        <ele>549.0</ele>
        <time>2019-04-24T06:52:43.000Z</time>
      </trkpt>
      <trkpt lat="42.42887878417969" lon="-6.799694538116455">
        <ele>549.0</ele>
        <time>2019-04-24T06:52:48.000Z</time>
      </trkpt>
      <trkpt lat="42.42877197265625" lon="-6.799701690673828">
        <ele>549.0</ele>
        <time>2019-04-24T06:52:53.000Z</time>
      </trkpt>
      <trkpt lat="42.42872619628906" lon="-6.799700736999512">
        <ele>549.0</ele>
        <time>2019-04-24T06:52:57.000Z</time>
      </trkpt>
      <trkpt lat="42.42869186401367" lon="-6.799696922302246">
        <ele>549.0</ele>
        <time>2019-04-24T06:53:02.000Z</time>
      </trkpt>
      <trkpt lat="42.428672790527344" lon="-6.799691677093506">
        <ele>549.0</ele>
        <time>2019-04-24T06:53:06.000Z</time>
      </trkpt>
      <trkpt lat="42.42865753173828" lon="-6.799685478210449">
        <ele>549.0</ele>
        <time>2019-04-24T06:53:11.000Z</time>
      </trkpt>
      <trkpt lat="42.42864227294922" lon="-6.799683094024658">
        <ele>549.0</ele>
        <time>2019-04-24T06:53:15.000Z</time>
      </trkpt>
      <trkpt lat="42.42863082885742" lon="-6.799680709838867">
        <ele>548.0</ele>
        <time>2019-04-24T06:53:19.000Z</time>
      </trkpt>
      <trkpt lat="42.428627014160156" lon="-6.799679279327393">
        <ele>548.0</ele>
        <time>2019-04-24T06:53:23.000Z</time>
      </trkpt>
      <trkpt lat="42.42862319946289" lon="-6.799677848815918">
        <ele>548.0</ele>
        <time>2019-04-24T06:53:27.000Z</time>
      </trkpt>
      <trkpt lat="42.428619384765625" lon="-6.799675941467285">
        <ele>548.0</ele>
        <time>2019-04-24T06:53:27.000Z</time>
      </trkpt>
      <trkpt lat="42.428611755371094" lon="-6.7996745109558105">
        <ele>548.0</ele>
        <time>2019-04-24T06:53:27.000Z</time>
      </trkpt>
      <trkpt lat="42.42860794067383" lon="-6.799673557281494">
        <ele>548.0</ele>
        <time>2019-04-24T06:53:27.000Z</time>
      </trkpt>
      <trkpt lat="42.4286003112793" lon="-6.7996721267700195">
        <ele>548.0</ele>
        <time>2019-04-24T06:53:28.000Z</time>
      </trkpt>
      <trkpt lat="42.428260803222656" lon="-6.799551010131836">
        <ele>547.0</ele>
        <time>2019-04-24T06:53:49.000Z</time>
      </trkpt>
      <trkpt lat="42.428123474121094" lon="-6.799543857574463">
        <ele>546.0</ele>
        <time>2019-04-24T06:53:59.000Z</time>
      </trkpt>
      <trkpt lat="42.42802810668945" lon="-6.799605846405029">
        <ele>546.0</ele>
        <time>2019-04-24T06:54:09.000Z</time>
      </trkpt>
      <trkpt lat="42.42791748046875" lon="-6.799697399139404">
        <ele>545.0</ele>
        <time>2019-04-24T06:54:20.000Z</time>
      </trkpt>
      <trkpt lat="42.427852630615234" lon="-6.799754619598389">
        <ele>544.0</ele>
        <time>2019-04-24T06:54:27.000Z</time>
      </trkpt>
      <trkpt lat="42.42777633666992" lon="-6.799818992614746">
        <ele>543.0</ele>
        <time>2019-04-24T06:54:35.000Z</time>
      </trkpt>
      <trkpt lat="42.42770004272461" lon="-6.799889087677002">
        <ele>542.0</ele>
        <time>2019-04-24T06:54:42.000Z</time>
      </trkpt>
      <trkpt lat="42.42761993408203" lon="-6.799961566925049">
        <ele>541.0</ele>
        <time>2019-04-24T06:54:50.000Z</time>
      </trkpt>
      <trkpt lat="42.42755889892578" lon="-6.800042152404785">
        <ele>540.0</ele>
        <time>2019-04-24T06:54:57.000Z</time>
      </trkpt>
      <trkpt lat="42.4275016784668" lon="-6.800128936767578">
        <ele>539.0</ele>
        <time>2019-04-24T06:55:05.000Z</time>
      </trkpt>
      <trkpt lat="42.42744827270508" lon="-6.800219535827637">
        <ele>538.0</ele>
        <time>2019-04-24T06:55:13.000Z</time>
      </trkpt>
      <trkpt lat="42.427398681640625" lon="-6.800312519073486">
        <ele>537.0</ele>
        <time>2019-04-24T06:55:21.000Z</time>
      </trkpt>
      <trkpt lat="42.4273567199707" lon="-6.800370216369629">
        <ele>537.0</ele>
        <time>2019-04-24T06:55:24.000Z</time>
      </trkpt>
      <trkpt lat="42.42732620239258" lon="-6.800415515899658">
        <ele>536.0</ele>
        <time>2019-04-24T06:55:28.000Z</time>
      </trkpt>
      <trkpt lat="42.42729949951172" lon="-6.80045223236084">
        <ele>536.0</ele>
        <time>2019-04-24T06:55:32.000Z</time>
      </trkpt>
      <trkpt lat="42.42727279663086" lon="-6.800485134124756">
        <ele>536.0</ele>
        <time>2019-04-24T06:55:36.000Z</time>
      </trkpt>
      <trkpt lat="42.42718505859375" lon="-6.8005266189575195">
        <ele>535.0</ele>
        <time>2019-04-24T06:55:43.000Z</time>
      </trkpt>
      <trkpt lat="42.42708969116211" lon="-6.8005475997924805">
        <ele>534.0</ele>
        <time>2019-04-24T06:55:51.000Z</time>
      </trkpt>
      <trkpt lat="42.427040100097656" lon="-6.800573348999023">
        <ele>534.0</ele>
        <time>2019-04-24T06:55:57.000Z</time>
      </trkpt>
      <trkpt lat="42.42699432373047" lon="-6.800603866577148">
        <ele>533.0</ele>
        <time>2019-04-24T06:56:03.000Z</time>
      </trkpt>
      <trkpt lat="42.426944732666016" lon="-6.800637245178223">
        <ele>533.0</ele>
        <time>2019-04-24T06:56:09.000Z</time>
      </trkpt>
      <trkpt lat="42.42689895629883" lon="-6.800671577453613">
        <ele>532.0</ele>
        <time>2019-04-24T06:56:15.000Z</time>
      </trkpt>
      <trkpt lat="42.426876068115234" lon="-6.800685405731201">
        <ele>532.0</ele>
        <time>2019-04-24T06:56:18.000Z</time>
      </trkpt>
      <trkpt lat="42.42686462402344" lon="-6.800692081451416">
        <ele>531.0</ele>
        <time>2019-04-24T06:56:21.000Z</time>
      </trkpt>
      <trkpt lat="42.42686080932617" lon="-6.800693988800049">
        <ele>531.0</ele>
        <time>2019-04-24T06:56:24.000Z</time>
      </trkpt>
      <trkpt lat="42.42686080932617" lon="-6.800693511962891">
        <ele>531.0</ele>
        <time>2019-04-24T06:56:28.000Z</time>
      </trkpt>
      <trkpt lat="42.42685317993164" lon="-6.8006978034973145">
        <ele>531.0</ele>
        <time>2019-04-24T06:56:28.000Z</time>
      </trkpt>
      <trkpt lat="42.42684555053711" lon="-6.80070161819458">
        <ele>531.0</ele>
        <time>2019-04-24T06:56:28.000Z</time>
      </trkpt>
      <trkpt lat="42.426841735839844" lon="-6.8007049560546875">
        <ele>531.0</ele>
        <time>2019-04-24T06:56:28.000Z</time>
      </trkpt>
      <trkpt lat="42.42683410644531" lon="-6.800708293914795">
        <ele>531.0</ele>
        <time>2019-04-24T06:56:29.000Z</time>
      </trkpt>
      <trkpt lat="42.426815032958984" lon="-6.800718784332275">
        <ele>531.0</ele>
        <time>2019-04-24T06:56:29.000Z</time>
      </trkpt>
      <trkpt lat="42.426788330078125" lon="-6.800731658935547">
        <ele>531.0</ele>
        <time>2019-04-24T06:56:30.000Z</time>
      </trkpt>
      <trkpt lat="42.426761627197266" lon="-6.800746440887451">
        <ele>531.0</ele>
        <time>2019-04-24T06:56:31.000Z</time>
      </trkpt>
      <trkpt lat="42.426727294921875" lon="-6.800762176513672">
        <ele>531.0</ele>
        <time>2019-04-24T06:56:32.000Z</time>
      </trkpt>
      <trkpt lat="42.42670822143555" lon="-6.800771713256836">
        <ele>530.0</ele>
        <time>2019-04-24T06:56:33.000Z</time>
      </trkpt>
      <trkpt lat="42.426692962646484" lon="-6.800779819488525">
        <ele>530.0</ele>
        <time>2019-04-24T06:56:34.000Z</time>
      </trkpt>
      <trkpt lat="42.42667770385742" lon="-6.800786972045898">
        <ele>530.0</ele>
        <time>2019-04-24T06:56:35.000Z</time>
      </trkpt>
      <trkpt lat="42.42666244506836" lon="-6.800793170928955">
        <ele>530.0</ele>
        <time>2019-04-24T06:56:36.000Z</time>
      </trkpt>
      <trkpt lat="42.426605224609375" lon="-6.800787448883057">
        <ele>529.0</ele>
        <time>2019-04-24T06:56:52.000Z</time>
      </trkpt>
      <trkpt lat="42.42657470703125" lon="-6.800784111022949">
        <ele>529.0</ele>
        <time>2019-04-24T06:56:53.000Z</time>
      </trkpt>
      <trkpt lat="42.426246643066406" lon="-6.800601482391357">
        <ele>527.0</ele>
        <time>2019-04-24T06:57:14.000Z</time>
      </trkpt>
      <trkpt lat="42.42605972290039" lon="-6.800527572631836">
        <ele>525.0</ele>
        <time>2019-04-24T06:57:28.000Z</time>
      </trkpt>
      <trkpt lat="42.426021575927734" lon="-6.800538063049316">
        <ele>525.0</ele>
        <time>2019-04-24T06:57:31.000Z</time>
      </trkpt>
      <trkpt lat="42.425987243652344" lon="-6.800559997558594">
        <ele>525.0</ele>
        <time>2019-04-24T06:57:35.000Z</time>
      </trkpt>
      <trkpt lat="42.42595291137695" lon="-6.800590515136719">
        <ele>524.0</ele>
        <time>2019-04-24T06:57:38.000Z</time>
      </trkpt>
      <trkpt lat="42.42592239379883" lon="-6.800624847412109">
        <ele>524.0</ele>
        <time>2019-04-24T06:57:42.000Z</time>
      </trkpt>
      <trkpt lat="42.42584991455078" lon="-6.8006591796875">
        <ele>524.0</ele>
        <time>2019-04-24T06:57:50.000Z</time>
      </trkpt>
      <trkpt lat="42.4257698059082" lon="-6.800697326660156">
        <ele>524.0</ele>
        <time>2019-04-24T06:57:58.000Z</time>
      </trkpt>
      <trkpt lat="42.42567443847656" lon="-6.8007378578186035">
        <ele>524.0</ele>
        <time>2019-04-24T06:58:06.000Z</time>
      </trkpt>
      <trkpt lat="42.42557907104492" lon="-6.800780296325684">
        <ele>524.0</ele>
        <time>2019-04-24T06:58:14.000Z</time>
      </trkpt>
      <trkpt lat="42.42549514770508" lon="-6.8008222579956055">
        <ele>523.0</ele>
        <time>2019-04-24T06:58:21.000Z</time>
      </trkpt>
      <trkpt lat="42.4254150390625" lon="-6.800865173339844">
        <ele>523.0</ele>
        <time>2019-04-24T06:58:28.000Z</time>
      </trkpt>
      <trkpt lat="42.42533493041992" lon="-6.800909042358398">
        <ele>522.0</ele>
        <time>2019-04-24T06:58:35.000Z</time>
      </trkpt>
      <trkpt lat="42.42525863647461" lon="-6.800952911376953">
        <ele>522.0</ele>
        <time>2019-04-24T06:58:43.000Z</time>
      </trkpt>
      <trkpt lat="42.425174713134766" lon="-6.800991535186768">
        <ele>521.0</ele>
        <time>2019-04-24T06:58:50.000Z</time>
      </trkpt>
      <trkpt lat="42.42509078979492" lon="-6.801027774810791">
        <ele>521.0</ele>
        <time>2019-04-24T06:58:58.000Z</time>
      </trkpt>
      <trkpt lat="42.42500686645508" lon="-6.80106258392334">
        <ele>520.0</ele>
        <time>2019-04-24T06:59:05.000Z</time>
      </trkpt>
      <trkpt lat="42.424922943115234" lon="-6.8010969161987305">
        <ele>520.0</ele>
        <time>2019-04-24T06:59:13.000Z</time>
      </trkpt>
      <trkpt lat="42.42485809326172" lon="-6.801177978515625">
        <ele>519.0</ele>
        <time>2019-04-24T06:59:20.000Z</time>
      </trkpt>
      <trkpt lat="42.424835205078125" lon="-6.801263332366943">
        <ele>518.0</ele>
        <time>2019-04-24T06:59:28.000Z</time>
      </trkpt>
      <trkpt lat="42.424827575683594" lon="-6.801286697387695">
        <ele>518.0</ele>
        <time>2019-04-24T06:59:31.000Z</time>
      </trkpt>
      <trkpt lat="42.42481994628906" lon="-6.801302909851074">
        <ele>518.0</ele>
        <time>2019-04-24T06:59:34.000Z</time>
      </trkpt>
      <trkpt lat="42.4248161315918" lon="-6.801314353942871">
        <ele>518.0</ele>
        <time>2019-04-24T06:59:37.000Z</time>
      </trkpt>
      <trkpt lat="42.4248161315918" lon="-6.801323413848877">
        <ele>517.0</ele>
        <time>2019-04-24T06:59:41.000Z</time>
      </trkpt>
      <trkpt lat="42.424808502197266" lon="-6.801334381103516">
        <ele>517.0</ele>
        <time>2019-04-24T06:59:41.000Z</time>
      </trkpt>
      <trkpt lat="42.424808502197266" lon="-6.8013434410095215">
        <ele>517.0</ele>
        <time>2019-04-24T06:59:41.000Z</time>
      </trkpt>
      <trkpt lat="42.4248046875" lon="-6.801352024078369">
        <ele>517.0</ele>
        <time>2019-04-24T06:59:41.000Z</time>
      </trkpt>
      <trkpt lat="42.424800872802734" lon="-6.8013596534729">
        <ele>517.0</ele>
        <time>2019-04-24T06:59:42.000Z</time>
      </trkpt>
      <trkpt lat="42.424774169921875" lon="-6.801436901092529">
        <ele>517.0</ele>
        <time>2019-04-24T06:59:46.000Z</time>
      </trkpt>
      <trkpt lat="42.424739837646484" lon="-6.801542282104492">
        <ele>517.0</ele>
        <time>2019-04-24T06:59:50.000Z</time>
      </trkpt>
      <trkpt lat="42.42469787597656" lon="-6.801666736602783">
        <ele>517.0</ele>
        <time>2019-04-24T06:59:54.000Z</time>
      </trkpt>
      <trkpt lat="42.424652099609375" lon="-6.801800727844238">
        <ele>517.0</ele>
        <time>2019-04-24T06:59:59.000Z</time>
      </trkpt>
      <trkpt lat="42.424617767333984" lon="-6.801912784576416">
        <ele>517.0</ele>
        <time>2019-04-24T07:00:06.000Z</time>
      </trkpt>
      <trkpt lat="42.42458724975586" lon="-6.80202579498291">
        <ele>518.0</ele>
        <time>2019-04-24T07:00:14.000Z</time>
      </trkpt>
      <trkpt lat="42.424556732177734" lon="-6.8021392822265625">
        <ele>518.0</ele>
        <time>2019-04-24T07:00:22.000Z</time>
      </trkpt>
      <trkpt lat="42.424522399902344" lon="-6.802253246307373">
        <ele>518.0</ele>
        <time>2019-04-24T07:00:30.000Z</time>
      </trkpt>
      <trkpt lat="42.42451095581055" lon="-6.802304744720459">
        <ele>518.0</ele>
        <time>2019-04-24T07:00:31.000Z</time>
      </trkpt>
      <trkpt lat="42.424503326416016" lon="-6.802330017089844">
        <ele>518.0</ele>
        <time>2019-04-24T07:00:33.000Z</time>
      </trkpt>
      <trkpt lat="42.424503326416016" lon="-6.802337646484375">
        <ele>518.0</ele>
        <time>2019-04-24T07:00:35.000Z</time>
      </trkpt>
      <trkpt lat="42.424503326416016" lon="-6.802337169647217">
        <ele>518.0</ele>
        <time>2019-04-24T07:00:37.000Z</time>
      </trkpt>
      <trkpt lat="42.424461364746094" lon="-6.802417278289795">
        <ele>517.0</ele>
        <time>2019-04-24T07:00:53.000Z</time>
      </trkpt>
      <trkpt lat="42.424442291259766" lon="-6.802456378936768">
        <ele>517.0</ele>
        <time>2019-04-24T07:00:54.000Z</time>
      </trkpt>
      <trkpt lat="42.4242057800293" lon="-6.802647113800049">
        <ele>518.0</ele>
        <time>2019-04-24T07:01:17.000Z</time>
      </trkpt>
      <trkpt lat="42.42417907714844" lon="-6.8026556968688965">
        <ele>518.0</ele>
        <time>2019-04-24T07:01:24.000Z</time>
      </trkpt>
      <trkpt lat="42.42416763305664" lon="-6.802647590637207">
        <ele>518.0</ele>
        <time>2019-04-24T07:01:31.000Z</time>
      </trkpt>
      <trkpt lat="42.424163818359375" lon="-6.802628040313721">
        <ele>518.0</ele>
        <time>2019-04-24T07:01:38.000Z</time>
      </trkpt>
      <trkpt lat="42.42416763305664" lon="-6.802603721618652">
        <ele>518.0</ele>
        <time>2019-04-24T07:01:45.000Z</time>
      </trkpt>
      <trkpt lat="42.42416000366211" lon="-6.802595615386963">
        <ele>518.0</ele>
        <time>2019-04-24T07:01:46.000Z</time>
      </trkpt>
      <trkpt lat="42.42415237426758" lon="-6.80258846282959">
        <ele>518.0</ele>
        <time>2019-04-24T07:01:46.000Z</time>
      </trkpt>
      <trkpt lat="42.42414855957031" lon="-6.802582740783691">
        <ele>518.0</ele>
        <time>2019-04-24T07:01:46.000Z</time>
      </trkpt>
      <trkpt lat="42.42414474487305" lon="-6.802577018737793">
        <ele>518.0</ele>
        <time>2019-04-24T07:01:46.000Z</time>
      </trkpt>
      <trkpt lat="42.424102783203125" lon="-6.802520751953125">
        <ele>517.0</ele>
        <time>2019-04-24T07:01:52.000Z</time>
      </trkpt>
      <trkpt lat="42.424049377441406" lon="-6.802443504333496">
        <ele>517.0</ele>
        <time>2019-04-24T07:01:57.000Z</time>
      </trkpt>
      <trkpt lat="42.423988342285156" lon="-6.802352428436279">
        <ele>517.0</ele>
        <time>2019-04-24T07:02:03.000Z</time>
      </trkpt>
      <trkpt lat="42.423919677734375" lon="-6.8022541999816895">
        <ele>517.0</ele>
        <time>2019-04-24T07:02:08.000Z</time>
      </trkpt>
      <trkpt lat="42.42387008666992" lon="-6.8021650314331055">
        <ele>516.0</ele>
        <time>2019-04-24T07:02:14.000Z</time>
      </trkpt>
      <trkpt lat="42.42382049560547" lon="-6.802072048187256">
        <ele>516.0</ele>
        <time>2019-04-24T07:02:20.000Z</time>
      </trkpt>
      <trkpt lat="42.423770904541016" lon="-6.801976680755615">
        <ele>516.0</ele>
        <time>2019-04-24T07:02:27.000Z</time>
      </trkpt>
      <trkpt lat="42.42372512817383" lon="-6.8018798828125">
        <ele>516.0</ele>
        <time>2019-04-24T07:02:33.000Z</time>
      </trkpt>
      <trkpt lat="42.42367935180664" lon="-6.801785945892334">
        <ele>515.0</ele>
        <time>2019-04-24T07:02:40.000Z</time>
      </trkpt>
      <trkpt lat="42.42363357543945" lon="-6.801692008972168">
        <ele>515.0</ele>
        <time>2019-04-24T07:02:48.000Z</time>
      </trkpt>
      <trkpt lat="42.42359161376953" lon="-6.801598072052002">
        <ele>515.0</ele>
        <time>2019-04-24T07:02:55.000Z</time>
      </trkpt>
      <trkpt lat="42.42354965209961" lon="-6.801504135131836">
        <ele>514.0</ele>
        <time>2019-04-24T07:03:03.000Z</time>
      </trkpt>
      <trkpt lat="42.42351531982422" lon="-6.801454067230225">
        <ele>514.0</ele>
        <time>2019-04-24T07:03:06.000Z</time>
      </trkpt>
      <trkpt lat="42.42348861694336" lon="-6.801422595977783">
        <ele>514.0</ele>
        <time>2019-04-24T07:03:08.000Z</time>
      </trkpt>
      <trkpt lat="42.4234619140625" lon="-6.801403522491455">
        <ele>513.0</ele>
        <time>2019-04-24T07:03:11.000Z</time>
      </trkpt>
      <trkpt lat="42.42343521118164" lon="-6.801390171051025">
        <ele>513.0</ele>
        <time>2019-04-24T07:03:13.000Z</time>
      </trkpt>
      <trkpt lat="42.423404693603516" lon="-6.801383972167969">
        <ele>513.0</ele>
        <time>2019-04-24T07:03:18.000Z</time>
      </trkpt>
      <trkpt lat="42.42337417602539" lon="-6.80138635635376">
        <ele>512.0</ele>
        <time>2019-04-24T07:03:22.000Z</time>
      </trkpt>
      <trkpt lat="42.42333984375" lon="-6.801394939422607">
        <ele>512.0</ele>
        <time>2019-04-24T07:03:27.000Z</time>
      </trkpt>
      <trkpt lat="42.423309326171875" lon="-6.8014068603515625">
        <ele>511.0</ele>
        <time>2019-04-24T07:03:31.000Z</time>
      </trkpt>
      <trkpt lat="42.42328643798828" lon="-6.8014140129089355">
        <ele>511.0</ele>
        <time>2019-04-24T07:03:35.000Z</time>
      </trkpt>
      <trkpt lat="42.42326736450195" lon="-6.801422119140625">
        <ele>510.0</ele>
        <time>2019-04-24T07:03:39.000Z</time>
      </trkpt>
      <trkpt lat="42.423248291015625" lon="-6.801431655883789">
        <ele>510.0</ele>
        <time>2019-04-24T07:03:43.000Z</time>
      </trkpt>
      <trkpt lat="42.42323303222656" lon="-6.801441192626953">
        <ele>509.0</ele>
        <time>2019-04-24T07:03:47.000Z</time>
      </trkpt>
      <trkpt lat="42.423221588134766" lon="-6.801446437835693">
        <ele>509.0</ele>
        <time>2019-04-24T07:03:47.000Z</time>
      </trkpt>
      <trkpt lat="42.423213958740234" lon="-6.801450729370117">
        <ele>509.0</ele>
        <time>2019-04-24T07:03:48.000Z</time>
      </trkpt>
      <trkpt lat="42.4232063293457" lon="-6.801454067230225">
        <ele>509.0</ele>
        <time>2019-04-24T07:03:48.000Z</time>
      </trkpt>
      <trkpt lat="42.42320251464844" lon="-6.801456451416016">
        <ele>509.0</ele>
        <time>2019-04-24T07:03:48.000Z</time>
      </trkpt>
      <trkpt lat="42.423160552978516" lon="-6.801486015319824">
        <ele>509.0</ele>
        <time>2019-04-24T07:03:52.000Z</time>
      </trkpt>
      <trkpt lat="42.42310333251953" lon="-6.801526069641113">
        <ele>509.0</ele>
        <time>2019-04-24T07:03:55.000Z</time>
      </trkpt>
      <trkpt lat="42.42303466796875" lon="-6.801572799682617">
        <ele>508.0</ele>
        <time>2019-04-24T07:03:59.000Z</time>
      </trkpt>
      <trkpt lat="42.42296600341797" lon="-6.801623821258545">
        <ele>508.0</ele>
        <time>2019-04-24T07:04:02.000Z</time>
      </trkpt>
      <trkpt lat="42.42292404174805" lon="-6.801693916320801">
        <ele>507.0</ele>
        <time>2019-04-24T07:04:07.000Z</time>
      </trkpt>
      <trkpt lat="42.42292022705078" lon="-6.8017578125">
        <ele>506.0</ele>
        <time>2019-04-24T07:04:11.000Z</time>
      </trkpt>
      <trkpt lat="42.422889709472656" lon="-6.8018412590026855">
        <ele>505.0</ele>
        <time>2019-04-24T07:04:18.000Z</time>
      </trkpt>
      <trkpt lat="42.422847747802734" lon="-6.801945686340332">
        <ele>504.0</ele>
        <time>2019-04-24T07:04:25.000Z</time>
      </trkpt>
      <trkpt lat="42.42279815673828" lon="-6.802063941955566">
        <ele>503.0</ele>
        <time>2019-04-24T07:04:32.000Z</time>
      </trkpt>
      <trkpt lat="42.42274856567383" lon="-6.802188873291016">
        <ele>502.0</ele>
        <time>2019-04-24T07:04:39.000Z</time>
      </trkpt>
      <trkpt lat="42.4227180480957" lon="-6.80230188369751">
        <ele>501.0</ele>
        <time>2019-04-24T07:04:47.000Z</time>
      </trkpt>
      <trkpt lat="42.42269515991211" lon="-6.802417278289795">
        <ele>501.0</ele>
        <time>2019-04-24T07:04:55.000Z</time>
      </trkpt>
      <trkpt lat="42.42267608642578" lon="-6.802534103393555">
        <ele>501.0</ele>
        <time>2019-04-24T07:05:03.000Z</time>
      </trkpt>
      <trkpt lat="42.42265701293945" lon="-6.802651882171631">
        <ele>501.0</ele>
        <time>2019-04-24T07:05:11.000Z</time>
      </trkpt>
      <trkpt lat="42.42264938354492" lon="-6.802769660949707">
        <ele>500.0</ele>
        <time>2019-04-24T07:05:18.000Z</time>
      </trkpt>
      <trkpt lat="42.422645568847656" lon="-6.8028883934021">
        <ele>499.0</ele>
        <time>2019-04-24T07:05:26.000Z</time>
      </trkpt>
      <trkpt lat="42.42264175415039" lon="-6.80300760269165">
        <ele>497.0</ele>
        <time>2019-04-24T07:05:33.000Z</time>
      </trkpt>
      <trkpt lat="42.422645568847656" lon="-6.803127288818359">
        <ele>496.0</ele>
        <time>2019-04-24T07:05:41.000Z</time>
      </trkpt>
      <trkpt lat="42.42265319824219" lon="-6.8032073974609375">
        <ele>495.0</ele>
        <time>2019-04-24T07:05:46.000Z</time>
      </trkpt>
      <trkpt lat="42.422664642333984" lon="-6.8032708168029785">
        <ele>495.0</ele>
        <time>2019-04-24T07:05:51.000Z</time>
      </trkpt>
      <trkpt lat="42.42267990112305" lon="-6.803323745727539">
        <ele>495.0</ele>
        <time>2019-04-24T07:05:56.000Z</time>
      </trkpt>
      <trkpt lat="42.422698974609375" lon="-6.803370952606201">
        <ele>494.0</ele>
        <time>2019-04-24T07:06:02.000Z</time>
      </trkpt>
      <trkpt lat="42.42269515991211" lon="-6.803414821624756">
        <ele>493.0</ele>
        <time>2019-04-24T07:06:11.000Z</time>
      </trkpt>
      <trkpt lat="42.42267990112305" lon="-6.803422927856445">
        <ele>493.0</ele>
        <time>2019-04-24T07:06:20.000Z</time>
      </trkpt>
      <trkpt lat="42.42267608642578" lon="-6.803432941436768">
        <ele>493.0</ele>
        <time>2019-04-24T07:06:20.000Z</time>
      </trkpt>
      <trkpt lat="42.422672271728516" lon="-6.803442001342773">
        <ele>493.0</ele>
        <time>2019-04-24T07:06:20.000Z</time>
      </trkpt>
      <trkpt lat="42.42266845703125" lon="-6.803450107574463">
        <ele>493.0</ele>
        <time>2019-04-24T07:06:21.000Z</time>
      </trkpt>
      <trkpt lat="42.422664642333984" lon="-6.803457260131836">
        <ele>493.0</ele>
        <time>2019-04-24T07:06:21.000Z</time>
      </trkpt>
      <trkpt lat="42.42264175415039" lon="-6.803534984588623">
        <ele>493.0</ele>
        <time>2019-04-24T07:06:26.000Z</time>
      </trkpt>
      <trkpt lat="42.422607421875" lon="-6.803641319274902">
        <ele>492.0</ele>
        <time>2019-04-24T07:06:30.000Z</time>
      </trkpt>
      <trkpt lat="42.422569274902344" lon="-6.80376672744751">
        <ele>492.0</ele>
        <time>2019-04-24T07:06:35.000Z</time>
      </trkpt>
      <trkpt lat="42.42252731323242" lon="-6.803901672363281">
        <ele>492.0</ele>
        <time>2019-04-24T07:06:40.000Z</time>
      </trkpt>
      <trkpt lat="42.4224853515625" lon="-6.804009437561035">
        <ele>491.0</ele>
        <time>2019-04-24T07:06:47.000Z</time>
      </trkpt>
      <trkpt lat="42.42244338989258" lon="-6.804115295410156">
        <ele>491.0</ele>
        <time>2019-04-24T07:06:55.000Z</time>
      </trkpt>
      <trkpt lat="42.42239761352539" lon="-6.804220199584961">
        <ele>490.0</ele>
        <time>2019-04-24T07:07:03.000Z</time>
      </trkpt>
      <trkpt lat="42.4223518371582" lon="-6.804324626922607">
        <ele>490.0</ele>
        <time>2019-04-24T07:07:11.000Z</time>
      </trkpt>
      <trkpt lat="42.42232894897461" lon="-6.804436206817627">
        <ele>489.0</ele>
        <time>2019-04-24T07:07:17.000Z</time>
      </trkpt>
      <trkpt lat="42.42231750488281" lon="-6.8045501708984375">
        <ele>488.0</ele>
        <time>2019-04-24T07:07:24.000Z</time>
      </trkpt>
      <trkpt lat="42.42230987548828" lon="-6.804665565490723">
        <ele>487.0</ele>
        <time>2019-04-24T07:07:31.000Z</time>
      </trkpt>
      <trkpt lat="42.422306060791016" lon="-6.804781913757324">
        <ele>485.0</ele>
        <time>2019-04-24T07:07:38.000Z</time>
      </trkpt>
      <trkpt lat="42.422298431396484" lon="-6.804900169372559">
        <ele>484.0</ele>
        <time>2019-04-24T07:07:45.000Z</time>
      </trkpt>
      <trkpt lat="42.42229461669922" lon="-6.805019855499268">
        <ele>483.0</ele>
        <time>2019-04-24T07:07:52.000Z</time>
      </trkpt>
      <trkpt lat="42.42229080200195" lon="-6.805140972137451">
        <ele>481.0</ele>
        <time>2019-04-24T07:07:59.000Z</time>
      </trkpt>
      <trkpt lat="42.42228698730469" lon="-6.805262088775635">
        <ele>480.0</ele>
        <time>2019-04-24T07:08:06.000Z</time>
      </trkpt>
      <trkpt lat="42.422393798828125" lon="-6.805728435516357">
        <ele>476.0</ele>
        <time>2019-04-24T07:08:36.000Z</time>
      </trkpt>
      <trkpt lat="42.422401428222656" lon="-6.806133270263672">
        <ele>474.0</ele>
        <time>2019-04-24T07:09:04.000Z</time>
      </trkpt>
      <trkpt lat="42.4223747253418" lon="-6.806171894073486">
        <ele>473.0</ele>
        <time>2019-04-24T07:09:08.000Z</time>
      </trkpt>
      <trkpt lat="42.42233657836914" lon="-6.8061842918396">
        <ele>473.0</ele>
        <time>2019-04-24T07:09:12.000Z</time>
      </trkpt>
      <trkpt lat="42.42229080200195" lon="-6.806179523468018">
        <ele>472.0</ele>
        <time>2019-04-24T07:09:17.000Z</time>
      </trkpt>
      <trkpt lat="42.4222412109375" lon="-6.80616569519043">
        <ele>472.0</ele>
        <time>2019-04-24T07:09:21.000Z</time>
      </trkpt>
      <trkpt lat="42.42222595214844" lon="-6.806168079376221">
        <ele>472.0</ele>
        <time>2019-04-24T07:09:22.000Z</time>
      </trkpt>
      <trkpt lat="42.422218322753906" lon="-6.806167125701904">
        <ele>472.0</ele>
        <time>2019-04-24T07:09:23.000Z</time>
      </trkpt>
      <trkpt lat="42.422218322753906" lon="-6.806164741516113">
        <ele>472.0</ele>
        <time>2019-04-24T07:09:23.000Z</time>
      </trkpt>
      <trkpt lat="42.42222213745117" lon="-6.806161403656006">
        <ele>472.0</ele>
        <time>2019-04-24T07:09:24.000Z</time>
      </trkpt>
      <trkpt lat="42.422210693359375" lon="-6.8061652183532715">
        <ele>473.0</ele>
        <time>2019-04-24T07:09:34.000Z</time>
      </trkpt>
      <trkpt lat="42.42219543457031" lon="-6.8061723709106445">
        <ele>473.0</ele>
        <time>2019-04-24T07:09:44.000Z</time>
      </trkpt>
      <trkpt lat="42.42219161987305" lon="-6.8061747550964355">
        <ele>473.0</ele>
        <time>2019-04-24T07:09:44.000Z</time>
      </trkpt>
      <trkpt lat="42.42218780517578" lon="-6.806176662445068">
        <ele>473.0</ele>
        <time>2019-04-24T07:09:45.000Z</time>
      </trkpt>
      <trkpt lat="42.422183990478516" lon="-6.806178569793701">
        <ele>473.0</ele>
        <time>2019-04-24T07:09:45.000Z</time>
      </trkpt>
      <trkpt lat="42.422176361083984" lon="-6.806180477142334">
        <ele>473.0</ele>
        <time>2019-04-24T07:09:45.000Z</time>
      </trkpt>
      <trkpt lat="42.42216873168945" lon="-6.806185245513916">
        <ele>473.0</ele>
        <time>2019-04-24T07:09:46.000Z</time>
      </trkpt>
      <trkpt lat="42.422157287597656" lon="-6.806190490722656">
        <ele>473.0</ele>
        <time>2019-04-24T07:09:46.000Z</time>
      </trkpt>
      <trkpt lat="42.42214584350586" lon="-6.806196689605713">
        <ele>473.0</ele>
        <time>2019-04-24T07:09:47.000Z</time>
      </trkpt>
      <trkpt lat="42.4221305847168" lon="-6.8062028884887695">
        <ele>473.0</ele>
        <time>2019-04-24T07:09:47.000Z</time>
      </trkpt>
      <trkpt lat="42.422122955322266" lon="-6.806210517883301">
        <ele>473.0</ele>
        <time>2019-04-24T07:09:49.000Z</time>
      </trkpt>
      <trkpt lat="42.422115325927734" lon="-6.806219577789307">
        <ele>473.0</ele>
        <time>2019-04-24T07:09:51.000Z</time>
      </trkpt>
      <trkpt lat="42.42210388183594" lon="-6.8062286376953125">
        <ele>473.0</ele>
        <time>2019-04-24T07:09:53.000Z</time>
      </trkpt>
      <trkpt lat="42.422096252441406" lon="-6.806238174438477">
        <ele>473.0</ele>
        <time>2019-04-24T07:09:55.000Z</time>
      </trkpt>
      <trkpt lat="42.422088623046875" lon="-6.80624532699585">
        <ele>473.0</ele>
        <time>2019-04-24T07:09:55.000Z</time>
      </trkpt>
      <trkpt lat="42.42208480834961" lon="-6.806251049041748">
        <ele>473.0</ele>
        <time>2019-04-24T07:09:56.000Z</time>
      </trkpt>
      <trkpt lat="42.42207717895508" lon="-6.8062567710876465">
        <ele>473.0</ele>
        <time>2019-04-24T07:09:56.000Z</time>
      </trkpt>
      <trkpt lat="42.42207336425781" lon="-6.8062615394592285">
        <ele>473.0</ele>
        <time>2019-04-24T07:09:56.000Z</time>
      </trkpt>
      <trkpt lat="42.422035217285156" lon="-6.8063273429870605">
        <ele>473.0</ele>
        <time>2019-04-24T07:10:01.000Z</time>
      </trkpt>
      <trkpt lat="42.4219856262207" lon="-6.806418418884277">
        <ele>473.0</ele>
        <time>2019-04-24T07:10:07.000Z</time>
      </trkpt>
      <trkpt lat="42.42192459106445" lon="-6.806526184082031">
        <ele>472.0</ele>
        <time>2019-04-24T07:10:12.000Z</time>
      </trkpt>
      <trkpt lat="42.42185974121094" lon="-6.806642532348633">
        <ele>472.0</ele>
        <time>2019-04-24T07:10:17.000Z</time>
      </trkpt>
      <trkpt lat="42.421714782714844" lon="-6.807069778442383">
        <ele>471.0</ele>
        <time>2019-04-24T07:10:52.000Z</time>
      </trkpt>
      <trkpt lat="42.42164611816406" lon="-6.8075151443481445">
        <ele>470.0</ele>
        <time>2019-04-24T07:11:23.000Z</time>
      </trkpt>
      <trkpt lat="42.421531677246094" lon="-6.80795955657959">
        <ele>468.0</ele>
        <time>2019-04-24T07:11:54.000Z</time>
      </trkpt>
      <trkpt lat="42.42145919799805" lon="-6.808187484741211">
        <ele>468.0</ele>
        <time>2019-04-24T07:12:13.000Z</time>
      </trkpt>
      <trkpt lat="42.421443939208984" lon="-6.8082075119018555">
        <ele>468.0</ele>
        <time>2019-04-24T07:12:17.000Z</time>
      </trkpt>
      <trkpt lat="42.42143249511719" lon="-6.808211803436279">
        <ele>469.0</ele>
        <time>2019-04-24T07:12:21.000Z</time>
      </trkpt>
      <trkpt lat="42.42142105102539" lon="-6.808205604553223">
        <ele>469.0</ele>
        <time>2019-04-24T07:12:25.000Z</time>
      </trkpt>
      <trkpt lat="42.421409606933594" lon="-6.808194637298584">
        <ele>469.0</ele>
        <time>2019-04-24T07:12:29.000Z</time>
      </trkpt>
      <trkpt lat="42.42140197753906" lon="-6.808196067810059">
        <ele>469.0</ele>
        <time>2019-04-24T07:12:29.000Z</time>
      </trkpt>
      <trkpt lat="42.42139434814453" lon="-6.808197021484375">
        <ele>469.0</ele>
        <time>2019-04-24T07:12:30.000Z</time>
      </trkpt>
      <trkpt lat="42.42138671875" lon="-6.808197975158691">
        <ele>469.0</ele>
        <time>2019-04-24T07:12:30.000Z</time>
      </trkpt>
      <trkpt lat="42.421382904052734" lon="-6.808198928833008">
        <ele>469.0</ele>
        <time>2019-04-24T07:12:30.000Z</time>
      </trkpt>
      <trkpt lat="42.421321868896484" lon="-6.808182239532471">
        <ele>469.0</ele>
        <time>2019-04-24T07:12:35.000Z</time>
      </trkpt>
      <trkpt lat="42.42123794555664" lon="-6.808157444000244">
        <ele>469.0</ele>
        <time>2019-04-24T07:12:40.000Z</time>
      </trkpt>
      <trkpt lat="42.421142578125" lon="-6.8081278800964355">
        <ele>468.0</ele>
        <time>2019-04-24T07:12:45.000Z</time>
      </trkpt>
      <trkpt lat="42.42103958129883" lon="-6.808095932006836">
        <ele>468.0</ele>
        <time>2019-04-24T07:12:50.000Z</time>
      </trkpt>
      <trkpt lat="42.42098617553711" lon="-6.8080830574035645">
        <ele>467.0</ele>
        <time>2019-04-24T07:12:55.000Z</time>
      </trkpt>
      <trkpt lat="42.42095184326172" lon="-6.808075428009033">
        <ele>467.0</ele>
        <time>2019-04-24T07:12:59.000Z</time>
      </trkpt>
      <trkpt lat="42.42092514038086" lon="-6.808071136474609">
        <ele>467.0</ele>
        <time>2019-04-24T07:13:04.000Z</time>
      </trkpt>
      <trkpt lat="42.420902252197266" lon="-6.808069229125977">
        <ele>466.0</ele>
        <time>2019-04-24T07:13:08.000Z</time>
      </trkpt>
      <trkpt lat="42.4208869934082" lon="-6.808075428009033">
        <ele>466.0</ele>
        <time>2019-04-24T07:13:12.000Z</time>
      </trkpt>
      <trkpt lat="42.42088317871094" lon="-6.808087348937988">
        <ele>465.0</ele>
        <time>2019-04-24T07:13:16.000Z</time>
      </trkpt>
      <trkpt lat="42.42088317871094" lon="-6.808102607727051">
        <ele>464.0</ele>
        <time>2019-04-24T07:13:20.000Z</time>
      </trkpt>
      <trkpt lat="42.4208869934082" lon="-6.808119773864746">
        <ele>463.0</ele>
        <time>2019-04-24T07:13:24.000Z</time>
      </trkpt>
      <trkpt lat="42.4208869934082" lon="-6.808129787445068">
        <ele>463.0</ele>
        <time>2019-04-24T07:13:24.000Z</time>
      </trkpt>
      <trkpt lat="42.42088317871094" lon="-6.808138370513916">
        <ele>463.0</ele>
        <time>2019-04-24T07:13:24.000Z</time>
      </trkpt>
      <trkpt lat="42.42088317871094" lon="-6.8081464767456055">
        <ele>463.0</ele>
        <time>2019-04-24T07:13:24.000Z</time>
      </trkpt>
      <trkpt lat="42.42087936401367" lon="-6.8081536293029785">
        <ele>463.0</ele>
        <time>2019-04-24T07:13:25.000Z</time>
      </trkpt>
      <trkpt lat="42.42086410522461" lon="-6.808232307434082">
        <ele>462.0</ele>
        <time>2019-04-24T07:13:29.000Z</time>
      </trkpt>
      <trkpt lat="42.420841217041016" lon="-6.808340072631836">
        <ele>460.0</ele>
        <time>2019-04-24T07:13:34.000Z</time>
      </trkpt>
      <trkpt lat="42.420814514160156" lon="-6.808467388153076">
        <ele>458.0</ele>
        <time>2019-04-24T07:13:39.000Z</time>
      </trkpt>
      <trkpt lat="42.42078399658203" lon="-6.808604717254639">
        <ele>456.0</ele>
        <time>2019-04-24T07:13:44.000Z</time>
      </trkpt>
      <trkpt lat="42.420745849609375" lon="-6.8087077140808105">
        <ele>455.0</ele>
        <time>2019-04-24T07:13:51.000Z</time>
      </trkpt>
      <trkpt lat="42.42070007324219" lon="-6.808806896209717">
        <ele>453.0</ele>
        <time>2019-04-24T07:13:58.000Z</time>
      </trkpt>
      <trkpt lat="42.420650482177734" lon="-6.808903217315674">
        <ele>452.0</ele>
        <time>2019-04-24T07:14:05.000Z</time>
      </trkpt>
      <trkpt lat="42.420597076416016" lon="-6.808998107910156">
        <ele>452.0</ele>
        <time>2019-04-24T07:14:12.000Z</time>
      </trkpt>
      <trkpt lat="42.420555114746094" lon="-6.809102535247803">
        <ele>450.0</ele>
        <time>2019-04-24T07:14:18.000Z</time>
      </trkpt>
      <trkpt lat="42.4205207824707" lon="-6.809208869934082">
        <ele>449.0</ele>
        <time>2019-04-24T07:14:25.000Z</time>
      </trkpt>
      <trkpt lat="42.42048263549805" lon="-6.809317111968994">
        <ele>447.0</ele>
        <time>2019-04-24T07:14:32.000Z</time>
      </trkpt>
      <trkpt lat="42.420448303222656" lon="-6.8094258308410645">
        <ele>446.0</ele>
        <time>2019-04-24T07:14:39.000Z</time>
      </trkpt>
      <trkpt lat="42.42040252685547" lon="-6.8095269203186035">
        <ele>445.0</ele>
        <time>2019-04-24T07:14:45.000Z</time>
      </trkpt>
      <trkpt lat="42.42034912109375" lon="-6.80962610244751">
        <ele>444.0</ele>
        <time>2019-04-24T07:14:52.000Z</time>
      </trkpt>
      <trkpt lat="42.4202995300293" lon="-6.809723377227783">
        <ele>443.0</ele>
        <time>2019-04-24T07:14:59.000Z</time>
      </trkpt>
      <trkpt lat="42.42024612426758" lon="-6.809820175170898">
        <ele>443.0</ele>
        <time>2019-04-24T07:15:06.000Z</time>
      </trkpt>
      <trkpt lat="42.42009735107422" lon="-6.810254096984863">
        <ele>440.0</ele>
        <time>2019-04-24T07:15:35.000Z</time>
      </trkpt>
      <trkpt lat="42.41999053955078" lon="-6.810699462890625">
        <ele>440.0</ele>
        <time>2019-04-24T07:16:04.000Z</time>
      </trkpt>
      <trkpt lat="42.41984176635742" lon="-6.811124801635742">
        <ele>438.0</ele>
        <time>2019-04-24T07:16:36.000Z</time>
      </trkpt>
      <trkpt lat="42.419708251953125" lon="-6.8115763664245605">
        <ele>437.0</ele>
        <time>2019-04-24T07:17:06.000Z</time>
      </trkpt>
      <trkpt lat="42.41954040527344" lon="-6.811985969543457">
        <ele>436.0</ele>
        <time>2019-04-24T07:17:36.000Z</time>
      </trkpt>
      <trkpt lat="42.41935729980469" lon="-6.812385082244873">
        <ele>435.0</ele>
        <time>2019-04-24T07:18:03.000Z</time>
      </trkpt>
      <trkpt lat="42.41910934448242" lon="-6.812714099884033">
        <ele>435.0</ele>
        <time>2019-04-24T07:18:41.000Z</time>
      </trkpt>
      <trkpt lat="42.418914794921875" lon="-6.813100814819336">
        <ele>436.0</ele>
        <time>2019-04-24T07:19:16.000Z</time>
      </trkpt>
      <trkpt lat="42.41873550415039" lon="-6.813490867614746">
        <ele>437.0</ele>
        <time>2019-04-24T07:19:47.000Z</time>
      </trkpt>
      <trkpt lat="42.41862106323242" lon="-6.813941955566406">
        <ele>440.0</ele>
        <time>2019-04-24T07:20:13.000Z</time>
      </trkpt>
      <trkpt lat="42.4184684753418" lon="-6.81439208984375">
        <ele>447.0</ele>
        <time>2019-04-24T07:20:41.000Z</time>
      </trkpt>
      <trkpt lat="42.41828155517578" lon="-6.814802646636963">
        <ele>449.0</ele>
        <time>2019-04-24T07:21:08.000Z</time>
      </trkpt>
      <trkpt lat="42.418209075927734" lon="-6.815282344818115">
        <ele>452.0</ele>
        <time>2019-04-24T07:21:40.000Z</time>
      </trkpt>
      <trkpt lat="42.4180793762207" lon="-6.815737724304199">
        <ele>449.0</ele>
        <time>2019-04-24T07:22:10.000Z</time>
      </trkpt>
      <trkpt lat="42.41796112060547" lon="-6.816196441650391">
        <ele>450.0</ele>
        <time>2019-04-24T07:22:38.000Z</time>
      </trkpt>
      <trkpt lat="42.41780471801758" lon="-6.816614627838135">
        <ele>455.0</ele>
        <time>2019-04-24T07:23:12.000Z</time>
      </trkpt>
      <trkpt lat="42.417625427246094" lon="-6.817023277282715">
        <ele>458.0</ele>
        <time>2019-04-24T07:23:43.000Z</time>
      </trkpt>
      <trkpt lat="42.4176025390625" lon="-6.817257881164551">
        <ele>459.0</ele>
        <time>2019-04-24T07:23:59.000Z</time>
      </trkpt>
      <trkpt lat="42.41761016845703" lon="-6.817506790161133">
        <ele>460.0</ele>
        <time>2019-04-24T07:24:16.000Z</time>
      </trkpt>
      <trkpt lat="42.41761779785156" lon="-6.817624568939209">
        <ele>460.0</ele>
        <time>2019-04-24T07:24:23.000Z</time>
      </trkpt>
      <trkpt lat="42.417625427246094" lon="-6.8177409172058105">
        <ele>460.0</ele>
        <time>2019-04-24T07:24:30.000Z</time>
      </trkpt>
      <trkpt lat="42.41763687133789" lon="-6.817856311798096">
        <ele>460.0</ele>
        <time>2019-04-24T07:24:37.000Z</time>
      </trkpt>
      <trkpt lat="42.41764831542969" lon="-6.817971229553223">
        <ele>460.0</ele>
        <time>2019-04-24T07:24:44.000Z</time>
      </trkpt>
      <trkpt lat="42.417667388916016" lon="-6.81808614730835">
        <ele>460.0</ele>
        <time>2019-04-24T07:24:51.000Z</time>
      </trkpt>
      <trkpt lat="42.417694091796875" lon="-6.81820011138916">
        <ele>460.0</ele>
        <time>2019-04-24T07:24:58.000Z</time>
      </trkpt>
      <trkpt lat="42.417720794677734" lon="-6.8183135986328125">
        <ele>460.0</ele>
        <time>2019-04-24T07:25:05.000Z</time>
      </trkpt>
      <trkpt lat="42.41775131225586" lon="-6.818427562713623">
        <ele>460.0</ele>
        <time>2019-04-24T07:25:12.000Z</time>
      </trkpt>
      <trkpt lat="42.41776657104492" lon="-6.818543434143066">
        <ele>460.0</ele>
        <time>2019-04-24T07:25:18.000Z</time>
      </trkpt>
      <trkpt lat="42.417781829833984" lon="-6.818659782409668">
        <ele>460.0</ele>
        <time>2019-04-24T07:25:25.000Z</time>
      </trkpt>
      <trkpt lat="42.417789459228516" lon="-6.818777084350586">
        <ele>459.0</ele>
        <time>2019-04-24T07:25:31.000Z</time>
      </trkpt>
      <trkpt lat="42.41780090332031" lon="-6.818894863128662">
        <ele>459.0</ele>
        <time>2019-04-24T07:25:38.000Z</time>
      </trkpt>
      <trkpt lat="42.41779327392578" lon="-6.8190107345581055">
        <ele>458.0</ele>
        <time>2019-04-24T07:25:47.000Z</time>
      </trkpt>
      <trkpt lat="42.41777801513672" lon="-6.819126605987549">
        <ele>457.0</ele>
        <time>2019-04-24T07:25:56.000Z</time>
      </trkpt>
      <trkpt lat="42.41775894165039" lon="-6.819242000579834">
        <ele>456.0</ele>
        <time>2019-04-24T07:26:05.000Z</time>
      </trkpt>
      <trkpt lat="42.4177360534668" lon="-6.819357395172119">
        <ele>455.0</ele>
        <time>2019-04-24T07:26:15.000Z</time>
      </trkpt>
      <trkpt lat="42.41769027709961" lon="-6.8194403648376465">
        <ele>454.0</ele>
        <time>2019-04-24T07:26:21.000Z</time>
      </trkpt>
      <trkpt lat="42.417633056640625" lon="-6.819509506225586">
        <ele>453.0</ele>
        <time>2019-04-24T07:26:27.000Z</time>
      </trkpt>
      <trkpt lat="42.417572021484375" lon="-6.819570064544678">
        <ele>453.0</ele>
        <time>2019-04-24T07:26:33.000Z</time>
      </trkpt>
      <trkpt lat="42.417503356933594" lon="-6.819625377655029">
        <ele>452.0</ele>
        <time>2019-04-24T07:26:39.000Z</time>
      </trkpt>
      <trkpt lat="42.41745376586914" lon="-6.819664001464844">
        <ele>451.0</ele>
        <time>2019-04-24T07:26:43.000Z</time>
      </trkpt>
      <trkpt lat="42.41741180419922" lon="-6.819690227508545">
        <ele>451.0</ele>
        <time>2019-04-24T07:26:47.000Z</time>
      </trkpt>
      <trkpt lat="42.4173698425293" lon="-6.819708824157715">
        <ele>451.0</ele>
        <time>2019-04-24T07:26:51.000Z</time>
      </trkpt>
      <trkpt lat="42.417327880859375" lon="-6.819723606109619">
        <ele>451.0</ele>
        <time>2019-04-24T07:26:56.000Z</time>
      </trkpt>
      <trkpt lat="42.41731262207031" lon="-6.819746017456055">
        <ele>450.0</ele>
        <time>2019-04-24T07:27:00.000Z</time>
      </trkpt>
      <trkpt lat="42.41730880737305" lon="-6.819767951965332">
        <ele>450.0</ele>
        <time>2019-04-24T07:27:04.000Z</time>
      </trkpt>
      <trkpt lat="42.41730880737305" lon="-6.819788932800293">
        <ele>450.0</ele>
        <time>2019-04-24T07:27:08.000Z</time>
      </trkpt>
      <trkpt lat="42.41731643676758" lon="-6.819809913635254">
        <ele>450.0</ele>
        <time>2019-04-24T07:27:12.000Z</time>
      </trkpt>
      <trkpt lat="42.41729736328125" lon="-6.819820404052734">
        <ele>450.0</ele>
        <time>2019-04-24T07:27:21.000Z</time>
      </trkpt>
      <trkpt lat="42.417274475097656" lon="-6.819826602935791">
        <ele>450.0</ele>
        <time>2019-04-24T07:27:30.000Z</time>
      </trkpt>
      <trkpt lat="42.41724395751953" lon="-6.819828987121582">
        <ele>450.0</ele>
        <time>2019-04-24T07:27:39.000Z</time>
      </trkpt>
      <trkpt lat="42.417213439941406" lon="-6.819829940795898">
        <ele>450.0</ele>
        <time>2019-04-24T07:27:48.000Z</time>
      </trkpt>
      <trkpt lat="42.41720199584961" lon="-6.819832801818848">
        <ele>450.0</ele>
        <time>2019-04-24T07:27:48.000Z</time>
      </trkpt>
      <trkpt lat="42.41719436645508" lon="-6.819834232330322">
        <ele>450.0</ele>
        <time>2019-04-24T07:27:48.000Z</time>
      </trkpt>
      <trkpt lat="42.41718673706055" lon="-6.819835186004639">
        <ele>450.0</ele>
        <time>2019-04-24T07:27:48.000Z</time>
      </trkpt>
      <trkpt lat="42.41718673706055" lon="-6.819836139678955">
        <ele>450.0</ele>
        <time>2019-04-24T07:27:49.000Z</time>
      </trkpt>
      <trkpt lat="42.417179107666016" lon="-6.81983757019043">
        <ele>450.0</ele>
        <time>2019-04-24T07:27:49.000Z</time>
      </trkpt>
      <trkpt lat="42.417171478271484" lon="-6.819839000701904">
        <ele>450.0</ele>
        <time>2019-04-24T07:27:50.000Z</time>
      </trkpt>
      <trkpt lat="42.41716766357422" lon="-6.819840908050537">
        <ele>449.0</ele>
        <time>2019-04-24T07:27:50.000Z</time>
      </trkpt>
      <trkpt lat="42.41716003417969" lon="-6.819842338562012">
        <ele>449.0</ele>
        <time>2019-04-24T07:27:51.000Z</time>
      </trkpt>
      <trkpt lat="42.417152404785156" lon="-6.819845676422119">
        <ele>449.0</ele>
        <time>2019-04-24T07:28:17.000Z</time>
      </trkpt>
      <trkpt lat="42.41714096069336" lon="-6.819849491119385">
        <ele>449.0</ele>
        <time>2019-04-24T07:28:43.000Z</time>
      </trkpt>
      <trkpt lat="42.41713333129883" lon="-6.819853782653809">
        <ele>449.0</ele>
        <time>2019-04-24T07:29:09.000Z</time>
      </trkpt>
      <trkpt lat="42.41712188720703" lon="-6.819858551025391">
        <ele>449.0</ele>
        <time>2019-04-24T07:29:36.000Z</time>
      </trkpt>
      <trkpt lat="42.4171142578125" lon="-6.81986141204834">
        <ele>449.0</ele>
        <time>2019-04-24T07:29:36.000Z</time>
      </trkpt>
      <trkpt lat="42.417110443115234" lon="-6.819864273071289">
        <ele>449.0</ele>
        <time>2019-04-24T07:29:36.000Z</time>
      </trkpt>
      <trkpt lat="42.4171028137207" lon="-6.81986665725708">
        <ele>449.0</ele>
        <time>2019-04-24T07:29:36.000Z</time>
      </trkpt>
      <trkpt lat="42.41709899902344" lon="-6.819869041442871">
        <ele>449.0</ele>
        <time>2019-04-24T07:29:37.000Z</time>
      </trkpt>
      <trkpt lat="42.41704177856445" lon="-6.819902420043945">
        <ele>449.0</ele>
        <time>2019-04-24T07:29:42.000Z</time>
      </trkpt>
      <trkpt lat="42.416961669921875" lon="-6.819948673248291">
        <ele>450.0</ele>
        <time>2019-04-24T07:29:47.000Z</time>
      </trkpt>
      <trkpt lat="42.416866302490234" lon="-6.820003509521484">
        <ele>451.0</ele>
        <time>2019-04-24T07:29:52.000Z</time>
      </trkpt>
      <trkpt lat="42.41676712036133" lon="-6.820062637329102">
        <ele>452.0</ele>
        <time>2019-04-24T07:29:58.000Z</time>
      </trkpt>
      <trkpt lat="42.41643142700195" lon="-6.82020378112793">
        <ele>451.0</ele>
        <time>2019-04-24T07:30:30.000Z</time>
      </trkpt>
      <trkpt lat="42.41620635986328" lon="-6.820249557495117">
        <ele>451.0</ele>
        <time>2019-04-24T07:30:48.000Z</time>
      </trkpt>
      <trkpt lat="42.4160270690918" lon="-6.820235252380371">
        <ele>450.0</ele>
        <time>2019-04-24T07:31:05.000Z</time>
      </trkpt>
      <trkpt lat="42.41568374633789" lon="-6.820268630981445">
        <ele>448.0</ele>
        <time>2019-04-24T07:31:38.000Z</time>
      </trkpt>
      <trkpt lat="42.41534423828125" lon="-6.820403575897217">
        <ele>445.0</ele>
        <time>2019-04-24T07:32:07.000Z</time>
      </trkpt>
      <trkpt lat="42.415000915527344" lon="-6.8205084800720215">
        <ele>442.0</ele>
        <time>2019-04-24T07:32:41.000Z</time>
      </trkpt>
      <trkpt lat="42.41465759277344" lon="-6.82052755355835">
        <ele>438.0</ele>
        <time>2019-04-24T07:33:15.000Z</time>
      </trkpt>
      <trkpt lat="42.414310455322266" lon="-6.820533752441406">
        <ele>433.0</ele>
        <time>2019-04-24T07:33:46.000Z</time>
      </trkpt>
      <trkpt lat="42.413963317871094" lon="-6.820460796356201">
        <ele>428.0</ele>
        <time>2019-04-24T07:34:17.000Z</time>
      </trkpt>
      <trkpt lat="42.413604736328125" lon="-6.820468902587891">
        <ele>420.0</ele>
        <time>2019-04-24T07:34:49.000Z</time>
      </trkpt>
      <trkpt lat="42.413307189941406" lon="-6.820351600646973">
        <ele>410.0</ele>
        <time>2019-04-24T07:35:32.000Z</time>
      </trkpt>
      <trkpt lat="42.41325378417969" lon="-6.820316314697266">
        <ele>405.0</ele>
        <time>2019-04-24T07:35:54.000Z</time>
      </trkpt>
      <trkpt lat="42.41322326660156" lon="-6.820296287536621">
        <ele>405.0</ele>
        <time>2019-04-24T07:35:55.000Z</time>
      </trkpt>
      <trkpt lat="42.412906646728516" lon="-6.8201117515563965">
        <ele>400.0</ele>
        <time>2019-04-24T07:36:20.000Z</time>
      </trkpt>
      <trkpt lat="42.412723541259766" lon="-6.819982051849365">
        <ele>396.0</ele>
        <time>2019-04-24T07:36:42.000Z</time>
      </trkpt>
      <trkpt lat="42.412681579589844" lon="-6.819947242736816">
        <ele>395.0</ele>
        <time>2019-04-24T07:37:00.000Z</time>
      </trkpt>
      <trkpt lat="42.41265869140625" lon="-6.819925785064697">
        <ele>395.0</ele>
        <time>2019-04-24T07:37:01.000Z</time>
      </trkpt>
      <trkpt lat="42.412628173828125" lon="-6.819900035858154">
        <ele>394.0</ele>
        <time>2019-04-24T07:37:03.000Z</time>
      </trkpt>
      <trkpt lat="42.41259002685547" lon="-6.819860935211182">
        <ele>392.0</ele>
        <time>2019-04-24T07:37:18.000Z</time>
      </trkpt>
      <trkpt lat="42.412567138671875" lon="-6.819835186004639">
        <ele>392.0</ele>
        <time>2019-04-24T07:37:19.000Z</time>
      </trkpt>
      <trkpt lat="42.41236114501953" lon="-6.819596290588379">
        <ele>391.0</ele>
        <time>2019-04-24T07:37:34.000Z</time>
      </trkpt>
      <trkpt lat="42.41230010986328" lon="-6.819516658782959">
        <ele>389.0</ele>
        <time>2019-04-24T07:37:55.000Z</time>
      </trkpt>
      <trkpt lat="42.41227340698242" lon="-6.819482803344727">
        <ele>389.0</ele>
        <time>2019-04-24T07:37:56.000Z</time>
      </trkpt>
      <trkpt lat="42.41215133666992" lon="-6.819366455078125">
        <ele>389.0</ele>
        <time>2019-04-24T07:38:09.000Z</time>
      </trkpt>
      <trkpt lat="42.412132263183594" lon="-6.8193488121032715">
        <ele>389.0</ele>
        <time>2019-04-24T07:38:26.000Z</time>
      </trkpt>
      <trkpt lat="42.41211700439453" lon="-6.819334030151367">
        <ele>389.0</ele>
        <time>2019-04-24T07:38:27.000Z</time>
      </trkpt>
      <trkpt lat="42.41203689575195" lon="-6.819259166717529">
        <ele>388.0</ele>
        <time>2019-04-24T07:38:31.000Z</time>
      </trkpt>
      <trkpt lat="42.4119987487793" lon="-6.819211006164551">
        <ele>386.0</ele>
        <time>2019-04-24T07:38:52.000Z</time>
      </trkpt>
      <trkpt lat="42.41197204589844" lon="-6.819179534912109">
        <ele>386.0</ele>
        <time>2019-04-24T07:38:53.000Z</time>
      </trkpt>
      <trkpt lat="42.411888122558594" lon="-6.818999290466309">
        <ele>385.0</ele>
        <time>2019-04-24T07:38:59.000Z</time>
      </trkpt>
      <trkpt lat="42.41187286376953" lon="-6.818970680236816">
        <ele>382.0</ele>
        <time>2019-04-24T07:39:17.000Z</time>
      </trkpt>
      <trkpt lat="42.411861419677734" lon="-6.818947792053223">
        <ele>382.0</ele>
        <time>2019-04-24T07:39:18.000Z</time>
      </trkpt>
      <trkpt lat="42.41163635253906" lon="-6.818584442138672">
        <ele>381.0</ele>
        <time>2019-04-24T07:39:31.000Z</time>
      </trkpt>
      <trkpt lat="42.41156005859375" lon="-6.818464756011963">
        <ele>380.0</ele>
        <time>2019-04-24T07:39:41.000Z</time>
      </trkpt>
      <trkpt lat="42.41154479980469" lon="-6.818456172943115">
        <ele>380.0</ele>
        <time>2019-04-24T07:39:52.000Z</time>
      </trkpt>
      <trkpt lat="42.411529541015625" lon="-6.818455696105957">
        <ele>379.0</ele>
        <time>2019-04-24T07:40:03.000Z</time>
      </trkpt>
      <trkpt lat="42.41151428222656" lon="-6.8184614181518555">
        <ele>378.0</ele>
        <time>2019-04-24T07:40:14.000Z</time>
      </trkpt>
      <trkpt lat="42.4114990234375" lon="-6.818469524383545">
        <ele>378.0</ele>
        <time>2019-04-24T07:40:26.000Z</time>
      </trkpt>
      <trkpt lat="42.41149139404297" lon="-6.818470478057861">
        <ele>377.0</ele>
        <time>2019-04-24T07:40:26.000Z</time>
      </trkpt>
      <trkpt lat="42.41148376464844" lon="-6.8184709548950195">
        <ele>377.0</ele>
        <time>2019-04-24T07:40:26.000Z</time>
      </trkpt>
      <trkpt lat="42.411476135253906" lon="-6.818471431732178">
        <ele>377.0</ele>
        <time>2019-04-24T07:40:26.000Z</time>
      </trkpt>
      <trkpt lat="42.411468505859375" lon="-6.818472385406494">
        <ele>378.0</ele>
        <time>2019-04-24T07:40:27.000Z</time>
      </trkpt>
      <trkpt lat="42.41144943237305" lon="-6.818478107452393">
        <ele>378.0</ele>
        <time>2019-04-24T07:40:29.000Z</time>
      </trkpt>
      <trkpt lat="42.41142272949219" lon="-6.81848669052124">
        <ele>378.0</ele>
        <time>2019-04-24T07:40:31.000Z</time>
      </trkpt>
      <trkpt lat="42.41139221191406" lon="-6.8184967041015625">
        <ele>378.0</ele>
        <time>2019-04-24T07:40:33.000Z</time>
      </trkpt>
      <trkpt lat="42.41136169433594" lon="-6.818507194519043">
        <ele>379.0</ele>
        <time>2019-04-24T07:40:35.000Z</time>
      </trkpt>
      <trkpt lat="42.41130065917969" lon="-6.81851863861084">
        <ele>379.0</ele>
        <time>2019-04-24T07:40:42.000Z</time>
      </trkpt>
      <trkpt lat="42.41122817993164" lon="-6.818530559539795">
        <ele>379.0</ele>
        <time>2019-04-24T07:40:49.000Z</time>
      </trkpt>
      <trkpt lat="42.4111442565918" lon="-6.818543910980225">
        <ele>379.0</ele>
        <time>2019-04-24T07:40:56.000Z</time>
      </trkpt>
      <trkpt lat="42.41105651855469" lon="-6.818557262420654">
        <ele>379.0</ele>
        <time>2019-04-24T07:41:03.000Z</time>
      </trkpt>
      <trkpt lat="42.41101837158203" lon="-6.818562984466553">
        <ele>379.0</ele>
        <time>2019-04-24T07:41:03.000Z</time>
      </trkpt>
      <trkpt lat="42.41100311279297" lon="-6.81856632232666">
        <ele>379.0</ele>
        <time>2019-04-24T07:41:03.000Z</time>
      </trkpt>
      <trkpt lat="42.41099548339844" lon="-6.818567276000977">
        <ele>379.0</ele>
        <time>2019-04-24T07:41:03.000Z</time>
      </trkpt>
      <trkpt lat="42.41099166870117" lon="-6.818567752838135">
        <ele>379.0</ele>
        <time>2019-04-24T07:41:04.000Z</time>
      </trkpt>
      <trkpt lat="42.41093063354492" lon="-6.818576335906982">
        <ele>379.0</ele>
        <time>2019-04-24T07:41:07.000Z</time>
      </trkpt>
      <trkpt lat="42.41084671020508" lon="-6.818587779998779">
        <ele>379.0</ele>
        <time>2019-04-24T07:41:10.000Z</time>
      </trkpt>
      <trkpt lat="42.41074752807617" lon="-6.818600654602051">
        <ele>379.0</ele>
        <time>2019-04-24T07:41:13.000Z</time>
      </trkpt>
      <trkpt lat="42.41064453125" lon="-6.818614482879639">
        <ele>379.0</ele>
        <time>2019-04-24T07:41:17.000Z</time>
      </trkpt>
      <trkpt lat="42.41059875488281" lon="-6.818662643432617">
        <ele>379.0</ele>
        <time>2019-04-24T07:41:29.000Z</time>
      </trkpt>
      <trkpt lat="42.41060256958008" lon="-6.818672180175781">
        <ele>379.0</ele>
        <time>2019-04-24T07:41:34.000Z</time>
      </trkpt>
      <trkpt lat="42.410614013671875" lon="-6.818680763244629">
        <ele>379.0</ele>
        <time>2019-04-24T07:41:39.000Z</time>
      </trkpt>
      <trkpt lat="42.4106330871582" lon="-6.818688869476318">
        <ele>380.0</ele>
        <time>2019-04-24T07:41:44.000Z</time>
      </trkpt>
      <trkpt lat="42.41065216064453" lon="-6.818696975708008">
        <ele>380.0</ele>
        <time>2019-04-24T07:41:50.000Z</time>
      </trkpt>
      <trkpt lat="42.41066360473633" lon="-6.818703651428223">
        <ele>380.0</ele>
        <time>2019-04-24T07:41:50.000Z</time>
      </trkpt>
      <trkpt lat="42.410675048828125" lon="-6.818709373474121">
        <ele>380.0</ele>
        <time>2019-04-24T07:41:50.000Z</time>
      </trkpt>
      <trkpt lat="42.410682678222656" lon="-6.8187150955200195">
        <ele>380.0</ele>
        <time>2019-04-24T07:41:50.000Z</time>
      </trkpt>
      <trkpt lat="42.41069030761719" lon="-6.81872034072876">
        <ele>380.0</ele>
        <time>2019-04-24T07:41:51.000Z</time>
      </trkpt>
      <trkpt lat="42.41072082519531" lon="-6.818734169006348">
        <ele>380.0</ele>
        <time>2019-04-24T07:41:52.000Z</time>
      </trkpt>
      <trkpt lat="42.410762786865234" lon="-6.818752288818359">
        <ele>380.0</ele>
        <time>2019-04-24T07:41:54.000Z</time>
      </trkpt>
      <trkpt lat="42.41081237792969" lon="-6.818772315979004">
        <ele>380.0</ele>
        <time>2019-04-24T07:41:56.000Z</time>
      </trkpt>
      <trkpt lat="42.41086196899414" lon="-6.818793296813965">
        <ele>380.0</ele>
        <time>2019-04-24T07:41:58.000Z</time>
      </trkpt>
      <trkpt lat="42.41088104248047" lon="-6.8187994956970215">
        <ele>381.0</ele>
        <time>2019-04-24T07:42:04.000Z</time>
      </trkpt>
      <trkpt lat="42.410888671875" lon="-6.818800449371338">
        <ele>382.0</ele>
        <time>2019-04-24T07:42:10.000Z</time>
      </trkpt>
      <trkpt lat="42.410892486572266" lon="-6.818798542022705">
        <ele>383.0</ele>
        <time>2019-04-24T07:42:16.000Z</time>
      </trkpt>
      <trkpt lat="42.410888671875" lon="-6.818794250488281">
        <ele>384.0</ele>
        <time>2019-04-24T07:42:22.000Z</time>
      </trkpt>
      <trkpt lat="42.41089630126953" lon="-6.8187947273254395">
        <ele>384.0</ele>
        <time>2019-04-24T07:42:22.000Z</time>
      </trkpt>
      <trkpt lat="42.4109001159668" lon="-6.8187947273254395">
        <ele>384.0</ele>
        <time>2019-04-24T07:42:22.000Z</time>
      </trkpt>
      <trkpt lat="42.41090393066406" lon="-6.818795204162598">
        <ele>384.0</ele>
        <time>2019-04-24T07:42:22.000Z</time>
      </trkpt>
      <trkpt lat="42.410911560058594" lon="-6.818795204162598">
        <ele>384.0</ele>
        <time>2019-04-24T07:42:23.000Z</time>
      </trkpt>
      <trkpt lat="42.41096496582031" lon="-6.818808078765869">
        <ele>384.0</ele>
        <time>2019-04-24T07:42:26.000Z</time>
      </trkpt>
      <trkpt lat="42.411041259765625" lon="-6.818825721740723">
        <ele>384.0</ele>
        <time>2019-04-24T07:42:30.000Z</time>
      </trkpt>
      <trkpt lat="42.411128997802734" lon="-6.818847179412842">
        <ele>384.0</ele>
        <time>2019-04-24T07:42:33.000Z</time>
      </trkpt>
      <trkpt lat="42.411224365234375" lon="-6.8188700675964355">
        <ele>385.0</ele>
        <time>2019-04-24T07:42:37.000Z</time>
      </trkpt>
      <trkpt lat="42.41130447387695" lon="-6.818929672241211">
        <ele>385.0</ele>
        <time>2019-04-24T07:42:41.000Z</time>
      </trkpt>
      <trkpt lat="42.41135025024414" lon="-6.81899881362915">
        <ele>385.0</ele>
        <time>2019-04-24T07:42:45.000Z</time>
      </trkpt>
      <trkpt lat="42.41134262084961" lon="-6.819062232971191">
        <ele>385.0</ele>
        <time>2019-04-24T07:42:50.000Z</time>
      </trkpt>
      <trkpt lat="42.41132354736328" lon="-6.819138526916504">
        <ele>384.0</ele>
        <time>2019-04-24T07:42:56.000Z</time>
      </trkpt>
      <trkpt lat="42.411293029785156" lon="-6.819223403930664">
        <ele>384.0</ele>
        <time>2019-04-24T07:43:01.000Z</time>
      </trkpt>
      <trkpt lat="42.411258697509766" lon="-6.819312572479248">
        <ele>384.0</ele>
        <time>2019-04-24T07:43:07.000Z</time>
      </trkpt>
      <trkpt lat="42.41136169433594" lon="-6.819936752319336">
        <ele>357.0</ele>
        <time>2019-04-24T07:57:01.000Z</time>
      </trkpt>
      <trkpt lat="42.4115104675293" lon="-6.82017183303833">
        <ele>356.0</ele>
        <time>2019-04-24T07:57:20.000Z</time>
      </trkpt>
      <trkpt lat="42.4115104675293" lon="-6.82017183303833">
        <ele>356.0</ele>
        <time>2019-04-24T07:57:21.000Z</time>
      </trkpt>
      <trkpt lat="42.41152572631836" lon="-6.820245742797852">
        <ele>356.0</ele>
        <time>2019-04-24T07:57:26.000Z</time>
      </trkpt>
      <trkpt lat="42.41154098510742" lon="-6.820258140563965">
        <ele>356.0</ele>
        <time>2019-04-24T07:57:31.000Z</time>
      </trkpt>
      <trkpt lat="42.411556243896484" lon="-6.820268154144287">
        <ele>356.0</ele>
        <time>2019-04-24T07:57:35.000Z</time>
      </trkpt>
      <trkpt lat="42.41157531738281" lon="-6.820275783538818">
        <ele>356.0</ele>
        <time>2019-04-24T07:57:39.000Z</time>
      </trkpt>
      <trkpt lat="42.41159439086914" lon="-6.820282936096191">
        <ele>356.0</ele>
        <time>2019-04-24T07:57:43.000Z</time>
      </trkpt>
      <trkpt lat="42.41160202026367" lon="-6.820289134979248">
        <ele>356.0</ele>
        <time>2019-04-24T07:57:44.000Z</time>
      </trkpt>
      <trkpt lat="42.41161346435547" lon="-6.820294380187988">
        <ele>356.0</ele>
        <time>2019-04-24T07:57:44.000Z</time>
      </trkpt>
      <trkpt lat="42.41162109375" lon="-6.820298194885254">
        <ele>356.0</ele>
        <time>2019-04-24T07:57:44.000Z</time>
      </trkpt>
      <trkpt lat="42.411624908447266" lon="-6.820301532745361">
        <ele>356.0</ele>
        <time>2019-04-24T07:57:44.000Z</time>
      </trkpt>
      <trkpt lat="42.411678314208984" lon="-6.820301055908203">
        <ele>356.0</ele>
        <time>2019-04-24T07:57:47.000Z</time>
      </trkpt>
      <trkpt lat="42.411746978759766" lon="-6.820297718048096">
        <ele>356.0</ele>
        <time>2019-04-24T07:57:50.000Z</time>
      </trkpt>
      <trkpt lat="42.41183090209961" lon="-6.820292949676514">
        <ele>356.0</ele>
        <time>2019-04-24T07:57:53.000Z</time>
      </trkpt>
      <trkpt lat="42.41191864013672" lon="-6.820287227630615">
        <ele>356.0</ele>
        <time>2019-04-24T07:57:56.000Z</time>
      </trkpt>
      <trkpt lat="42.411949157714844" lon="-6.820300579071045">
        <ele>356.0</ele>
        <time>2019-04-24T07:57:58.000Z</time>
      </trkpt>
      <trkpt lat="42.411964416503906" lon="-6.8203206062316895">
        <ele>356.0</ele>
        <time>2019-04-24T07:57:59.000Z</time>
      </trkpt>
      <trkpt lat="42.41196823120117" lon="-6.820345878601074">
        <ele>356.0</ele>
        <time>2019-04-24T07:58:01.000Z</time>
      </trkpt>
      <trkpt lat="42.411964416503906" lon="-6.820373058319092">
        <ele>356.0</ele>
        <time>2019-04-24T07:58:02.000Z</time>
      </trkpt>
      <trkpt lat="42.41197204589844" lon="-6.82039213180542">
        <ele>356.0</ele>
        <time>2019-04-24T07:58:04.000Z</time>
      </trkpt>
      <trkpt lat="42.41197967529297" lon="-6.820409774780273">
        <ele>356.0</ele>
        <time>2019-04-24T07:58:06.000Z</time>
      </trkpt>
      <trkpt lat="42.4119873046875" lon="-6.820427417755127">
        <ele>356.0</ele>
        <time>2019-04-24T07:58:08.000Z</time>
      </trkpt>
      <trkpt lat="42.41199493408203" lon="-6.820444107055664">
        <ele>356.0</ele>
        <time>2019-04-24T07:58:09.000Z</time>
      </trkpt>
      <trkpt lat="42.41200637817383" lon="-6.820470333099365">
        <ele>356.0</ele>
        <time>2019-04-24T07:58:15.000Z</time>
      </trkpt>
      <trkpt lat="42.41202163696289" lon="-6.820499897003174">
        <ele>356.0</ele>
        <time>2019-04-24T07:58:21.000Z</time>
      </trkpt>
      <trkpt lat="42.41203308105469" lon="-6.820531845092773">
        <ele>356.0</ele>
        <time>2019-04-24T07:58:26.000Z</time>
      </trkpt>
      <trkpt lat="42.41204833984375" lon="-6.8205647468566895">
        <ele>356.0</ele>
        <time>2019-04-24T07:58:32.000Z</time>
      </trkpt>
      <trkpt lat="42.41205596923828" lon="-6.820582866668701">
        <ele>356.0</ele>
        <time>2019-04-24T07:58:32.000Z</time>
      </trkpt>
      <trkpt lat="42.41205978393555" lon="-6.820595741271973">
        <ele>356.0</ele>
        <time>2019-04-24T07:58:33.000Z</time>
      </trkpt>
      <trkpt lat="42.41206359863281" lon="-6.820605754852295">
        <ele>356.0</ele>
        <time>2019-04-24T07:58:33.000Z</time>
      </trkpt>
      <trkpt lat="42.41206741333008" lon="-6.820613861083984">
        <ele>356.0</ele>
        <time>2019-04-24T07:58:33.000Z</time>
      </trkpt>
      <trkpt lat="42.412105560302734" lon="-6.820682048797607">
        <ele>357.0</ele>
        <time>2019-04-24T07:58:38.000Z</time>
      </trkpt>
      <trkpt lat="42.41215896606445" lon="-6.820773601531982">
        <ele>357.0</ele>
        <time>2019-04-24T07:58:43.000Z</time>
      </trkpt>
      <trkpt lat="42.4122200012207" lon="-6.82088041305542">
        <ele>357.0</ele>
        <time>2019-04-24T07:58:47.000Z</time>
      </trkpt>
      <trkpt lat="42.41228485107422" lon="-6.820995330810547">
        <ele>358.0</ele>
        <time>2019-04-24T07:58:52.000Z</time>
      </trkpt>
      <trkpt lat="42.412437438964844" lon="-6.821108818054199">
        <ele>358.0</ele>
        <time>2019-04-24T07:59:07.000Z</time>
      </trkpt>
      <trkpt lat="42.41260528564453" lon="-6.8211870193481445">
        <ele>360.0</ele>
        <time>2019-04-24T07:59:21.000Z</time>
      </trkpt>
      <trkpt lat="42.41263198852539" lon="-6.821204662322998">
        <ele>360.0</ele>
        <time>2019-04-24T07:59:22.000Z</time>
      </trkpt>
      <trkpt lat="42.41263961791992" lon="-6.82120943069458">
        <ele>360.0</ele>
        <time>2019-04-24T07:59:23.000Z</time>
      </trkpt>
      <trkpt lat="42.41263198852539" lon="-6.8212056159973145">
        <ele>360.0</ele>
        <time>2019-04-24T07:59:23.000Z</time>
      </trkpt>
      <trkpt lat="42.41261672973633" lon="-6.821197509765625">
        <ele>360.0</ele>
        <time>2019-04-24T07:59:24.000Z</time>
      </trkpt>
      <trkpt lat="42.412620544433594" lon="-6.821203231811523">
        <ele>360.0</ele>
        <time>2019-04-24T07:59:29.000Z</time>
      </trkpt>
      <trkpt lat="42.41263198852539" lon="-6.8212103843688965">
        <ele>360.0</ele>
        <time>2019-04-24T07:59:34.000Z</time>
      </trkpt>
      <trkpt lat="42.41264343261719" lon="-6.821218967437744">
        <ele>360.0</ele>
        <time>2019-04-24T07:59:39.000Z</time>
      </trkpt>
      <trkpt lat="42.412654876708984" lon="-6.821227550506592">
        <ele>360.0</ele>
        <time>2019-04-24T07:59:44.000Z</time>
      </trkpt>
      <trkpt lat="42.412662506103516" lon="-6.82123327255249">
        <ele>360.0</ele>
        <time>2019-04-24T07:59:44.000Z</time>
      </trkpt>
      <trkpt lat="42.41266632080078" lon="-6.8212385177612305">
        <ele>360.0</ele>
        <time>2019-04-24T07:59:45.000Z</time>
      </trkpt>
      <trkpt lat="42.41267395019531" lon="-6.821242809295654">
        <ele>360.0</ele>
        <time>2019-04-24T07:59:45.000Z</time>
      </trkpt>
      <trkpt lat="42.41267776489258" lon="-6.821247100830078">
        <ele>360.0</ele>
        <time>2019-04-24T07:59:45.000Z</time>
      </trkpt>
      <trkpt lat="42.41269302368164" lon="-6.821258068084717">
        <ele>360.0</ele>
        <time>2019-04-24T07:59:46.000Z</time>
      </trkpt>
      <trkpt lat="42.4127082824707" lon="-6.8212714195251465">
        <ele>360.0</ele>
        <time>2019-04-24T07:59:47.000Z</time>
      </trkpt>
      <trkpt lat="42.41272735595703" lon="-6.821286678314209">
        <ele>360.0</ele>
        <time>2019-04-24T07:59:48.000Z</time>
      </trkpt>
      <trkpt lat="42.412750244140625" lon="-6.82130241394043">
        <ele>361.0</ele>
        <time>2019-04-24T07:59:49.000Z</time>
      </trkpt>
      <trkpt lat="42.41277313232422" lon="-6.82131814956665">
        <ele>361.0</ele>
        <time>2019-04-24T07:59:50.000Z</time>
      </trkpt>
      <trkpt lat="42.41279983520508" lon="-6.821335315704346">
        <ele>361.0</ele>
        <time>2019-04-24T07:59:52.000Z</time>
      </trkpt>
      <trkpt lat="42.4128303527832" lon="-6.821352481842041">
        <ele>362.0</ele>
        <time>2019-04-24T07:59:53.000Z</time>
      </trkpt>
      <trkpt lat="42.41286087036133" lon="-6.8213701248168945">
        <ele>362.0</ele>
        <time>2019-04-24T07:59:54.000Z</time>
      </trkpt>
      <trkpt lat="42.413116455078125" lon="-6.821531772613525">
        <ele>362.0</ele>
        <time>2019-04-24T08:00:12.000Z</time>
      </trkpt>
      <trkpt lat="42.413272857666016" lon="-6.821655750274658">
        <ele>361.0</ele>
        <time>2019-04-24T08:00:29.000Z</time>
      </trkpt>
      <trkpt lat="42.4133186340332" lon="-6.821763038635254">
        <ele>363.0</ele>
        <time>2019-04-24T08:00:38.000Z</time>
      </trkpt>
      <trkpt lat="42.413352966308594" lon="-6.8218913078308105">
        <ele>366.0</ele>
        <time>2019-04-24T08:00:46.000Z</time>
      </trkpt>
      <trkpt lat="42.41341781616211" lon="-6.821978569030762">
        <ele>368.0</ele>
        <time>2019-04-24T08:00:55.000Z</time>
      </trkpt>
      <trkpt lat="42.41349792480469" lon="-6.822052001953125">
        <ele>370.0</ele>
        <time>2019-04-24T08:01:04.000Z</time>
      </trkpt>
      <trkpt lat="42.413551330566406" lon="-6.822122573852539">
        <ele>370.0</ele>
        <time>2019-04-24T08:01:13.000Z</time>
      </trkpt>
      <trkpt lat="42.413612365722656" lon="-6.822205543518066">
        <ele>370.0</ele>
        <time>2019-04-24T08:01:22.000Z</time>
      </trkpt>
      <trkpt lat="42.413673400878906" lon="-6.822297096252441">
        <ele>370.0</ele>
        <time>2019-04-24T08:01:30.000Z</time>
      </trkpt>
      <trkpt lat="42.41374206542969" lon="-6.82239294052124">
        <ele>369.0</ele>
        <time>2019-04-24T08:01:39.000Z</time>
      </trkpt>
      <trkpt lat="42.413795471191406" lon="-6.822480201721191">
        <ele>369.0</ele>
        <time>2019-04-24T08:01:44.000Z</time>
      </trkpt>
      <trkpt lat="42.413848876953125" lon="-6.822568893432617">
        <ele>369.0</ele>
        <time>2019-04-24T08:01:50.000Z</time>
      </trkpt>
      <trkpt lat="42.41389846801758" lon="-6.822658061981201">
        <ele>369.0</ele>
        <time>2019-04-24T08:01:55.000Z</time>
      </trkpt>
      <trkpt lat="42.41394805908203" lon="-6.822747707366943">
        <ele>369.0</ele>
        <time>2019-04-24T08:02:00.000Z</time>
      </trkpt>
      <trkpt lat="42.413978576660156" lon="-6.822800159454346">
        <ele>369.0</ele>
        <time>2019-04-24T08:02:03.000Z</time>
      </trkpt>
      <trkpt lat="42.41400146484375" lon="-6.8228373527526855">
        <ele>370.0</ele>
        <time>2019-04-24T08:02:05.000Z</time>
      </trkpt>
      <trkpt lat="42.41402053833008" lon="-6.822864055633545">
        <ele>371.0</ele>
        <time>2019-04-24T08:02:08.000Z</time>
      </trkpt>
      <trkpt lat="42.41403579711914" lon="-6.822885513305664">
        <ele>372.0</ele>
        <time>2019-04-24T08:02:10.000Z</time>
      </trkpt>
      <trkpt lat="42.414039611816406" lon="-6.822951793670654">
        <ele>373.0</ele>
        <time>2019-04-24T08:02:15.000Z</time>
      </trkpt>
      <trkpt lat="42.41404342651367" lon="-6.823031902313232">
        <ele>374.0</ele>
        <time>2019-04-24T08:02:21.000Z</time>
      </trkpt>
      <trkpt lat="42.414039611816406" lon="-6.823120594024658">
        <ele>375.0</ele>
        <time>2019-04-24T08:02:26.000Z</time>
      </trkpt>
      <trkpt lat="42.414031982421875" lon="-6.823214054107666">
        <ele>376.0</ele>
        <time>2019-04-24T08:02:31.000Z</time>
      </trkpt>
      <trkpt lat="42.4140510559082" lon="-6.823318004608154">
        <ele>377.0</ele>
        <time>2019-04-24T08:02:38.000Z</time>
      </trkpt>
      <trkpt lat="42.4140739440918" lon="-6.823431015014648">
        <ele>377.0</ele>
        <time>2019-04-24T08:02:45.000Z</time>
      </trkpt>
      <trkpt lat="42.41410446166992" lon="-6.823550224304199">
        <ele>377.0</ele>
        <time>2019-04-24T08:02:51.000Z</time>
      </trkpt>
      <trkpt lat="42.41413879394531" lon="-6.823672294616699">
        <ele>378.0</ele>
        <time>2019-04-24T08:02:58.000Z</time>
      </trkpt>
      <trkpt lat="42.41417694091797" lon="-6.823777675628662">
        <ele>378.0</ele>
        <time>2019-04-24T08:03:05.000Z</time>
      </trkpt>
      <trkpt lat="42.414222717285156" lon="-6.823879241943359">
        <ele>378.0</ele>
        <time>2019-04-24T08:03:13.000Z</time>
      </trkpt>
      <trkpt lat="42.414268493652344" lon="-6.823978424072266">
        <ele>379.0</ele>
        <time>2019-04-24T08:03:20.000Z</time>
      </trkpt>
      <trkpt lat="42.4143180847168" lon="-6.8240766525268555">
        <ele>379.0</ele>
        <time>2019-04-24T08:03:27.000Z</time>
      </trkpt>
      <trkpt lat="42.41435623168945" lon="-6.824183940887451">
        <ele>379.0</ele>
        <time>2019-04-24T08:03:34.000Z</time>
      </trkpt>
      <trkpt lat="42.414390563964844" lon="-6.824294567108154">
        <ele>379.0</ele>
        <time>2019-04-24T08:03:42.000Z</time>
      </trkpt>
      <trkpt lat="42.41442108154297" lon="-6.824406623840332">
        <ele>378.0</ele>
        <time>2019-04-24T08:03:49.000Z</time>
      </trkpt>
      <trkpt lat="42.414451599121094" lon="-6.824519634246826">
        <ele>378.0</ele>
        <time>2019-04-24T08:03:56.000Z</time>
      </trkpt>
      <trkpt lat="42.41448974609375" lon="-6.8246283531188965">
        <ele>378.0</ele>
        <time>2019-04-24T08:04:04.000Z</time>
      </trkpt>
      <trkpt lat="42.414527893066406" lon="-6.82473611831665">
        <ele>378.0</ele>
        <time>2019-04-24T08:04:12.000Z</time>
      </trkpt>
      <trkpt lat="42.41456604003906" lon="-6.824843406677246">
        <ele>378.0</ele>
        <time>2019-04-24T08:04:20.000Z</time>
      </trkpt>
      <trkpt lat="42.414608001708984" lon="-6.824950218200684">
        <ele>378.0</ele>
        <time>2019-04-24T08:04:28.000Z</time>
      </trkpt>
      <trkpt lat="42.41473388671875" lon="-6.825114727020264">
        <ele>380.0</ele>
        <time>2019-04-24T08:04:45.000Z</time>
      </trkpt>
      <trkpt lat="42.41488265991211" lon="-6.825255870819092">
        <ele>381.0</ele>
        <time>2019-04-24T08:05:02.000Z</time>
      </trkpt>
      <trkpt lat="42.41496276855469" lon="-6.825310707092285">
        <ele>382.0</ele>
        <time>2019-04-24T08:05:09.000Z</time>
      </trkpt>
      <trkpt lat="42.415042877197266" lon="-6.825356483459473">
        <ele>381.0</ele>
        <time>2019-04-24T08:05:16.000Z</time>
      </trkpt>
      <trkpt lat="42.41512680053711" lon="-6.8253960609436035">
        <ele>381.0</ele>
        <time>2019-04-24T08:05:22.000Z</time>
      </trkpt>
      <trkpt lat="42.41521453857422" lon="-6.825432777404785">
        <ele>381.0</ele>
        <time>2019-04-24T08:05:29.000Z</time>
      </trkpt>
      <trkpt lat="42.41530227661133" lon="-6.825474739074707">
        <ele>381.0</ele>
        <time>2019-04-24T08:05:38.000Z</time>
      </trkpt>
      <trkpt lat="42.4153938293457" lon="-6.825515270233154">
        <ele>382.0</ele>
        <time>2019-04-24T08:05:46.000Z</time>
      </trkpt>
      <trkpt lat="42.41548538208008" lon="-6.825555801391602">
        <ele>383.0</ele>
        <time>2019-04-24T08:05:55.000Z</time>
      </trkpt>
      <trkpt lat="42.41557693481445" lon="-6.825595855712891">
        <ele>384.0</ele>
        <time>2019-04-24T08:06:03.000Z</time>
      </trkpt>
      <trkpt lat="42.41565704345703" lon="-6.825647830963135">
        <ele>384.0</ele>
        <time>2019-04-24T08:06:10.000Z</time>
      </trkpt>
      <trkpt lat="42.41573715209961" lon="-6.825704574584961">
        <ele>383.0</ele>
        <time>2019-04-24T08:06:17.000Z</time>
      </trkpt>
      <trkpt lat="42.41581344604492" lon="-6.8257646560668945">
        <ele>383.0</ele>
        <time>2019-04-24T08:06:23.000Z</time>
      </trkpt>
      <trkpt lat="42.415889739990234" lon="-6.8258256912231445">
        <ele>382.0</ele>
        <time>2019-04-24T08:06:30.000Z</time>
      </trkpt>
      <trkpt lat="42.41596603393555" lon="-6.825881004333496">
        <ele>382.0</ele>
        <time>2019-04-24T08:06:38.000Z</time>
      </trkpt>
      <trkpt lat="42.416046142578125" lon="-6.825934886932373">
        <ele>382.0</ele>
        <time>2019-04-24T08:06:45.000Z</time>
      </trkpt>
      <trkpt lat="42.41612243652344" lon="-6.825987815856934">
        <ele>382.0</ele>
        <time>2019-04-24T08:06:53.000Z</time>
      </trkpt>
      <trkpt lat="42.416202545166016" lon="-6.826040744781494">
        <ele>382.0</ele>
        <time>2019-04-24T08:07:00.000Z</time>
      </trkpt>
      <trkpt lat="42.416259765625" lon="-6.826080799102783">
        <ele>382.0</ele>
        <time>2019-04-24T08:07:06.000Z</time>
      </trkpt>
      <trkpt lat="42.41631317138672" lon="-6.826115131378174">
        <ele>382.0</ele>
        <time>2019-04-24T08:07:12.000Z</time>
      </trkpt>
      <trkpt lat="42.416358947753906" lon="-6.826145648956299">
        <ele>382.0</ele>
        <time>2019-04-24T08:07:17.000Z</time>
      </trkpt>
      <trkpt lat="42.41640090942383" lon="-6.826174259185791">
        <ele>382.0</ele>
        <time>2019-04-24T08:07:23.000Z</time>
      </trkpt>
      <trkpt lat="42.416473388671875" lon="-6.826183795928955">
        <ele>382.0</ele>
        <time>2019-04-24T08:07:29.000Z</time>
      </trkpt>
      <trkpt lat="42.416534423828125" lon="-6.826166152954102">
        <ele>383.0</ele>
        <time>2019-04-24T08:07:34.000Z</time>
      </trkpt>
      <trkpt lat="42.41660690307617" lon="-6.826170921325684">
        <ele>383.0</ele>
        <time>2019-04-24T08:07:41.000Z</time>
      </trkpt>
      <trkpt lat="42.41669464111328" lon="-6.826178550720215">
        <ele>383.0</ele>
        <time>2019-04-24T08:07:48.000Z</time>
      </trkpt>
      <trkpt lat="42.41679000854492" lon="-6.826188087463379">
        <ele>383.0</ele>
        <time>2019-04-24T08:07:54.000Z</time>
      </trkpt>
      <trkpt lat="42.416893005371094" lon="-6.826198577880859">
        <ele>384.0</ele>
        <time>2019-04-24T08:08:01.000Z</time>
      </trkpt>
      <trkpt lat="42.41695785522461" lon="-6.826237201690674">
        <ele>383.0</ele>
        <time>2019-04-24T08:08:08.000Z</time>
      </trkpt>
      <trkpt lat="42.41697311401367" lon="-6.826286315917969">
        <ele>382.0</ele>
        <time>2019-04-24T08:08:15.000Z</time>
      </trkpt>
      <trkpt lat="42.41694641113281" lon="-6.826354026794434">
        <ele>382.0</ele>
        <time>2019-04-24T08:08:23.000Z</time>
      </trkpt>
      <trkpt lat="42.416900634765625" lon="-6.826440811157227">
        <ele>382.0</ele>
        <time>2019-04-24T08:08:30.000Z</time>
      </trkpt>
      <trkpt lat="42.41684341430664" lon="-6.826540470123291">
        <ele>382.0</ele>
        <time>2019-04-24T08:08:38.000Z</time>
      </trkpt>
      <trkpt lat="42.416778564453125" lon="-6.826646327972412">
        <ele>382.0</ele>
        <time>2019-04-24T08:08:45.000Z</time>
      </trkpt>
      <trkpt lat="42.4167366027832" lon="-6.8267412185668945">
        <ele>381.0</ele>
        <time>2019-04-24T08:08:53.000Z</time>
      </trkpt>
      <trkpt lat="42.41669464111328" lon="-6.82683801651001">
        <ele>380.0</ele>
        <time>2019-04-24T08:09:01.000Z</time>
      </trkpt>
      <trkpt lat="42.416656494140625" lon="-6.826936721801758">
        <ele>379.0</ele>
        <time>2019-04-24T08:09:09.000Z</time>
      </trkpt>
      <trkpt lat="42.41661834716797" lon="-6.827035427093506">
        <ele>378.0</ele>
        <time>2019-04-24T08:09:17.000Z</time>
      </trkpt>
      <trkpt lat="42.41657638549805" lon="-6.827139854431152">
        <ele>376.0</ele>
        <time>2019-04-24T08:09:24.000Z</time>
      </trkpt>
      <trkpt lat="42.416542053222656" lon="-6.827247142791748">
        <ele>374.0</ele>
        <time>2019-04-24T08:09:32.000Z</time>
      </trkpt>
      <trkpt lat="42.41650390625" lon="-6.827356815338135">
        <ele>372.0</ele>
        <time>2019-04-24T08:09:39.000Z</time>
      </trkpt>
      <trkpt lat="42.416465759277344" lon="-6.82746696472168">
        <ele>370.0</ele>
        <time>2019-04-24T08:09:46.000Z</time>
      </trkpt>
      <trkpt lat="42.416446685791016" lon="-6.827517509460449">
        <ele>369.0</ele>
        <time>2019-04-24T08:09:48.000Z</time>
      </trkpt>
      <trkpt lat="42.41643524169922" lon="-6.82754373550415">
        <ele>369.0</ele>
        <time>2019-04-24T08:09:50.000Z</time>
      </trkpt>
      <trkpt lat="42.41642761230469" lon="-6.827553749084473">
        <ele>369.0</ele>
        <time>2019-04-24T08:09:52.000Z</time>
      </trkpt>
      <trkpt lat="42.41642379760742" lon="-6.827556133270264">
        <ele>370.0</ele>
        <time>2019-04-24T08:09:54.000Z</time>
      </trkpt>
      <trkpt lat="42.416419982910156" lon="-6.827589511871338">
        <ele>370.0</ele>
        <time>2019-04-24T08:10:02.000Z</time>
      </trkpt>
      <trkpt lat="42.41642379760742" lon="-6.82761812210083">
        <ele>370.0</ele>
        <time>2019-04-24T08:10:10.000Z</time>
      </trkpt>
      <trkpt lat="42.416419982910156" lon="-6.827629566192627">
        <ele>370.0</ele>
        <time>2019-04-24T08:10:10.000Z</time>
      </trkpt>
      <trkpt lat="42.416419982910156" lon="-6.827639102935791">
        <ele>370.0</ele>
        <time>2019-04-24T08:10:11.000Z</time>
      </trkpt>
      <trkpt lat="42.416419982910156" lon="-6.827648162841797">
        <ele>370.0</ele>
        <time>2019-04-24T08:10:11.000Z</time>
      </trkpt>
      <trkpt lat="42.416419982910156" lon="-6.827656269073486">
        <ele>370.0</ele>
        <time>2019-04-24T08:10:11.000Z</time>
      </trkpt>
      <trkpt lat="42.416419982910156" lon="-6.827695369720459">
        <ele>370.0</ele>
        <time>2019-04-24T08:10:14.000Z</time>
      </trkpt>
      <trkpt lat="42.416419982910156" lon="-6.827746868133545">
        <ele>369.0</ele>
        <time>2019-04-24T08:10:16.000Z</time>
      </trkpt>
      <trkpt lat="42.416419982910156" lon="-6.827805995941162">
        <ele>369.0</ele>
        <time>2019-04-24T08:10:19.000Z</time>
      </trkpt>
      <trkpt lat="42.416419982910156" lon="-6.827869892120361">
        <ele>369.0</ele>
        <time>2019-04-24T08:10:21.000Z</time>
      </trkpt>
      <trkpt lat="42.416419982910156" lon="-6.827893257141113">
        <ele>369.0</ele>
        <time>2019-04-24T08:10:25.000Z</time>
      </trkpt>
      <trkpt lat="42.416419982910156" lon="-6.827903747558594">
        <ele>369.0</ele>
        <time>2019-04-24T08:10:28.000Z</time>
      </trkpt>
      <trkpt lat="42.41642379760742" lon="-6.827906131744385">
        <ele>369.0</ele>
        <time>2019-04-24T08:10:32.000Z</time>
      </trkpt>
      <trkpt lat="42.41642379760742" lon="-6.827904224395752">
        <ele>369.0</ele>
        <time>2019-04-24T08:10:35.000Z</time>
      </trkpt>
      <trkpt lat="42.41642379760742" lon="-6.827911853790283">
        <ele>369.0</ele>
        <time>2019-04-24T08:10:35.000Z</time>
      </trkpt>
      <trkpt lat="42.41642379760742" lon="-6.827918529510498">
        <ele>369.0</ele>
        <time>2019-04-24T08:10:36.000Z</time>
      </trkpt>
      <trkpt lat="42.41642379760742" lon="-6.827925205230713">
        <ele>369.0</ele>
        <time>2019-04-24T08:10:36.000Z</time>
      </trkpt>
      <trkpt lat="42.41642379760742" lon="-6.8279314041137695">
        <ele>369.0</ele>
        <time>2019-04-24T08:10:36.000Z</time>
      </trkpt>
      <trkpt lat="42.41643524169922" lon="-6.828011512756348">
        <ele>369.0</ele>
        <time>2019-04-24T08:10:40.000Z</time>
      </trkpt>
      <trkpt lat="42.41645050048828" lon="-6.828122615814209">
        <ele>369.0</ele>
        <time>2019-04-24T08:10:45.000Z</time>
      </trkpt>
      <trkpt lat="42.41646957397461" lon="-6.828254222869873">
        <ele>369.0</ele>
        <time>2019-04-24T08:10:49.000Z</time>
      </trkpt>
      <trkpt lat="42.41648864746094" lon="-6.828396320343018">
        <ele>370.0</ele>
        <time>2019-04-24T08:10:53.000Z</time>
      </trkpt>
      <trkpt lat="42.41661834716797" lon="-6.828811168670654">
        <ele>363.0</ele>
        <time>2019-04-24T08:11:20.000Z</time>
      </trkpt>
      <trkpt lat="42.41664123535156" lon="-6.82886266708374">
        <ele>361.0</ele>
        <time>2019-04-24T08:11:34.000Z</time>
      </trkpt>
      <trkpt lat="42.41667556762695" lon="-6.828945159912109">
        <ele>368.0</ele>
        <time>2019-04-24T08:12:07.000Z</time>
      </trkpt>
      <trkpt lat="42.416690826416016" lon="-6.828987121582031">
        <ele>368.0</ele>
        <time>2019-04-24T08:12:08.000Z</time>
      </trkpt>
      <trkpt lat="42.41688537597656" lon="-6.829405307769775">
        <ele>365.0</ele>
        <time>2019-04-24T08:12:31.000Z</time>
      </trkpt>
      <trkpt lat="42.41695022583008" lon="-6.8296308517456055">
        <ele>363.0</ele>
        <time>2019-04-24T08:12:48.000Z</time>
      </trkpt>
      <trkpt lat="42.416961669921875" lon="-6.829644203186035">
        <ele>362.0</ele>
        <time>2019-04-24T08:12:50.000Z</time>
      </trkpt>
      <trkpt lat="42.41697311401367" lon="-6.829639911651611">
        <ele>362.0</ele>
        <time>2019-04-24T08:12:52.000Z</time>
      </trkpt>
      <trkpt lat="42.416988372802734" lon="-6.829623222351074">
        <ele>362.0</ele>
        <time>2019-04-24T08:12:54.000Z</time>
      </trkpt>
      <trkpt lat="42.41699981689453" lon="-6.829600811004639">
        <ele>363.0</ele>
        <time>2019-04-24T08:12:56.000Z</time>
      </trkpt>
      <trkpt lat="42.41700744628906" lon="-6.829608917236328">
        <ele>363.0</ele>
        <time>2019-04-24T08:13:02.000Z</time>
      </trkpt>
      <trkpt lat="42.417015075683594" lon="-6.829623699188232">
        <ele>364.0</ele>
        <time>2019-04-24T08:13:07.000Z</time>
      </trkpt>
      <trkpt lat="42.417022705078125" lon="-6.8296427726745605">
        <ele>366.0</ele>
        <time>2019-04-24T08:13:13.000Z</time>
      </trkpt>
      <trkpt lat="42.41702651977539" lon="-6.82966423034668">
        <ele>367.0</ele>
        <time>2019-04-24T08:13:18.000Z</time>
      </trkpt>
      <trkpt lat="42.41703414916992" lon="-6.829675197601318">
        <ele>367.0</ele>
        <time>2019-04-24T08:13:18.000Z</time>
      </trkpt>
      <trkpt lat="42.41703796386719" lon="-6.829684734344482">
        <ele>368.0</ele>
        <time>2019-04-24T08:13:19.000Z</time>
      </trkpt>
      <trkpt lat="42.41704177856445" lon="-6.82969331741333">
        <ele>367.0</ele>
        <time>2019-04-24T08:13:19.000Z</time>
      </trkpt>
      <trkpt lat="42.41704559326172" lon="-6.829700946807861">
        <ele>367.0</ele>
        <time>2019-04-24T08:13:19.000Z</time>
      </trkpt>
      <trkpt lat="42.41708755493164" lon="-6.829764366149902">
        <ele>367.0</ele>
        <time>2019-04-24T08:13:24.000Z</time>
      </trkpt>
      <trkpt lat="42.417144775390625" lon="-6.829850673675537">
        <ele>367.0</ele>
        <time>2019-04-24T08:13:29.000Z</time>
      </trkpt>
      <trkpt lat="42.417213439941406" lon="-6.829951763153076">
        <ele>367.0</ele>
        <time>2019-04-24T08:13:34.000Z</time>
      </trkpt>
      <trkpt lat="42.41728591918945" lon="-6.830060958862305">
        <ele>367.0</ele>
        <time>2019-04-24T08:13:39.000Z</time>
      </trkpt>
      <trkpt lat="42.417354583740234" lon="-6.830142498016357">
        <ele>366.0</ele>
        <time>2019-04-24T08:13:47.000Z</time>
      </trkpt>
      <trkpt lat="42.417423248291016" lon="-6.8302202224731445">
        <ele>365.0</ele>
        <time>2019-04-24T08:13:54.000Z</time>
      </trkpt>
      <trkpt lat="42.4174919128418" lon="-6.830295085906982">
        <ele>365.0</ele>
        <time>2019-04-24T08:14:02.000Z</time>
      </trkpt>
      <trkpt lat="42.417564392089844" lon="-6.830369472503662">
        <ele>364.0</ele>
        <time>2019-04-24T08:14:09.000Z</time>
      </trkpt>
      <trkpt lat="42.41763687133789" lon="-6.830435276031494">
        <ele>363.0</ele>
        <time>2019-04-24T08:14:17.000Z</time>
      </trkpt>
      <trkpt lat="42.41770935058594" lon="-6.830496788024902">
        <ele>363.0</ele>
        <time>2019-04-24T08:14:24.000Z</time>
      </trkpt>
      <trkpt lat="42.41778564453125" lon="-6.830554962158203">
        <ele>363.0</ele>
        <time>2019-04-24T08:14:32.000Z</time>
      </trkpt>
      <trkpt lat="42.41786193847656" lon="-6.830611705780029">
        <ele>363.0</ele>
        <time>2019-04-24T08:14:39.000Z</time>
      </trkpt>
      <trkpt lat="42.41790771484375" lon="-6.830637454986572">
        <ele>363.0</ele>
        <time>2019-04-24T08:14:44.000Z</time>
      </trkpt>
      <trkpt lat="42.41794204711914" lon="-6.830648422241211">
        <ele>362.0</ele>
        <time>2019-04-24T08:14:49.000Z</time>
      </trkpt>
      <trkpt lat="42.41796875" lon="-6.8306498527526855">
        <ele>363.0</ele>
        <time>2019-04-24T08:14:54.000Z</time>
      </trkpt>
      <trkpt lat="42.417991638183594" lon="-6.830646514892578">
        <ele>363.0</ele>
        <time>2019-04-24T08:14:59.000Z</time>
      </trkpt>
      <trkpt lat="42.418113708496094" lon="-6.830720901489258">
        <ele>367.0</ele>
        <time>2019-04-24T08:15:26.000Z</time>
      </trkpt>
      <trkpt lat="42.41814041137695" lon="-6.83073616027832">
        <ele>367.0</ele>
        <time>2019-04-24T08:15:27.000Z</time>
      </trkpt>
      <trkpt lat="42.41847229003906" lon="-6.830924987792969">
        <ele>370.0</ele>
        <time>2019-04-24T08:16:04.000Z</time>
      </trkpt>
      <trkpt lat="42.41872787475586" lon="-6.831084728240967">
        <ele>369.0</ele>
        <time>2019-04-24T08:16:50.000Z</time>
      </trkpt>
      <trkpt lat="42.41874313354492" lon="-6.8311028480529785">
        <ele>372.0</ele>
        <time>2019-04-24T08:17:17.000Z</time>
      </trkpt>
      <trkpt lat="42.418758392333984" lon="-6.831117630004883">
        <ele>372.0</ele>
        <time>2019-04-24T08:17:18.000Z</time>
      </trkpt>
      <trkpt lat="42.4190673828125" lon="-6.831339359283447">
        <ele>374.0</ele>
        <time>2019-04-24T08:17:43.000Z</time>
      </trkpt>
      <trkpt lat="42.419097900390625" lon="-6.831345081329346">
        <ele>373.0</ele>
        <time>2019-04-24T08:17:48.000Z</time>
      </trkpt>
      <trkpt lat="42.4191780090332" lon="-6.831367015838623">
        <ele>368.0</ele>
        <time>2019-04-24T08:18:09.000Z</time>
      </trkpt>
      <trkpt lat="42.41920852661133" lon="-6.831376075744629">
        <ele>368.0</ele>
        <time>2019-04-24T08:18:10.000Z</time>
      </trkpt>
      <trkpt lat="42.41943359375" lon="-6.831481456756592">
        <ele>364.0</ele>
        <time>2019-04-24T08:18:27.000Z</time>
      </trkpt>
      <trkpt lat="42.4195556640625" lon="-6.831472873687744">
        <ele>360.0</ele>
        <time>2019-04-24T08:18:39.000Z</time>
      </trkpt>
      <trkpt lat="42.41956329345703" lon="-6.83147668838501">
        <ele>360.0</ele>
        <time>2019-04-24T08:18:41.000Z</time>
      </trkpt>
      <trkpt lat="42.419593811035156" lon="-6.831519603729248">
        <ele>356.0</ele>
        <time>2019-04-24T08:18:55.000Z</time>
      </trkpt>
      <trkpt lat="42.41961669921875" lon="-6.831547737121582">
        <ele>356.0</ele>
        <time>2019-04-24T08:18:56.000Z</time>
      </trkpt>
      <trkpt lat="42.41984558105469" lon="-6.831862449645996">
        <ele>354.0</ele>
        <time>2019-04-24T08:19:12.000Z</time>
      </trkpt>
      <trkpt lat="42.419952392578125" lon="-6.832020282745361">
        <ele>352.0</ele>
        <time>2019-04-24T08:19:25.000Z</time>
      </trkpt>
      <trkpt lat="42.419952392578125" lon="-6.832078456878662">
        <ele>352.0</ele>
        <time>2019-04-24T08:19:30.000Z</time>
      </trkpt>
      <trkpt lat="42.419944763183594" lon="-6.8321452140808105">
        <ele>351.0</ele>
        <time>2019-04-24T08:19:34.000Z</time>
      </trkpt>
      <trkpt lat="42.41992950439453" lon="-6.832217216491699">
        <ele>351.0</ele>
        <time>2019-04-24T08:19:39.000Z</time>
      </trkpt>
      <trkpt lat="42.4199104309082" lon="-6.832292079925537">
        <ele>350.0</ele>
        <time>2019-04-24T08:19:43.000Z</time>
      </trkpt>
      <trkpt lat="42.41990661621094" lon="-6.832337379455566">
        <ele>350.0</ele>
        <time>2019-04-24T08:19:45.000Z</time>
      </trkpt>
      <trkpt lat="42.41990280151367" lon="-6.832373142242432">
        <ele>350.0</ele>
        <time>2019-04-24T08:19:47.000Z</time>
      </trkpt>
      <trkpt lat="42.41990280151367" lon="-6.83240270614624">
        <ele>351.0</ele>
        <time>2019-04-24T08:19:49.000Z</time>
      </trkpt>
      <trkpt lat="42.41990280151367" lon="-6.8324294090271">
        <ele>351.0</ele>
        <time>2019-04-24T08:19:51.000Z</time>
      </trkpt>
      <trkpt lat="42.419891357421875" lon="-6.832465648651123">
        <ele>351.0</ele>
        <time>2019-04-24T08:19:57.000Z</time>
      </trkpt>
      <trkpt lat="42.419883728027344" lon="-6.832502841949463">
        <ele>352.0</ele>
        <time>2019-04-24T08:20:03.000Z</time>
      </trkpt>
      <trkpt lat="42.41987228393555" lon="-6.832540988922119">
        <ele>352.0</ele>
        <time>2019-04-24T08:20:09.000Z</time>
      </trkpt>
      <trkpt lat="42.41986083984375" lon="-6.832579135894775">
        <ele>352.0</ele>
        <time>2019-04-24T08:20:15.000Z</time>
      </trkpt>
      <trkpt lat="42.41985321044922" lon="-6.8325982093811035">
        <ele>353.0</ele>
        <time>2019-04-24T08:20:15.000Z</time>
      </trkpt>
      <trkpt lat="42.41985321044922" lon="-6.832609176635742">
        <ele>353.0</ele>
        <time>2019-04-24T08:20:16.000Z</time>
      </trkpt>
      <trkpt lat="42.41984939575195" lon="-6.832614898681641">
        <ele>352.0</ele>
        <time>2019-04-24T08:20:16.000Z</time>
      </trkpt>
      <trkpt lat="42.41984939575195" lon="-6.83261775970459">
        <ele>352.0</ele>
        <time>2019-04-24T08:20:16.000Z</time>
      </trkpt>
      <trkpt lat="42.41981887817383" lon="-6.832694053649902">
        <ele>353.0</ele>
        <time>2019-04-24T08:20:21.000Z</time>
      </trkpt>
      <trkpt lat="42.41978073120117" lon="-6.832798004150391">
        <ele>353.0</ele>
        <time>2019-04-24T08:20:26.000Z</time>
      </trkpt>
      <trkpt lat="42.419734954833984" lon="-6.832920074462891">
        <ele>354.0</ele>
        <time>2019-04-24T08:20:30.000Z</time>
      </trkpt>
      <trkpt lat="42.419681549072266" lon="-6.833051681518555">
        <ele>355.0</ele>
        <time>2019-04-24T08:20:35.000Z</time>
      </trkpt>
      <trkpt lat="42.419612884521484" lon="-6.8331122398376465">
        <ele>356.0</ele>
        <time>2019-04-24T08:20:42.000Z</time>
      </trkpt>
      <trkpt lat="42.419532775878906" lon="-6.833152770996094">
        <ele>358.0</ele>
        <time>2019-04-24T08:20:48.000Z</time>
      </trkpt>
      <trkpt lat="42.41944122314453" lon="-6.833179473876953">
        <ele>360.0</ele>
        <time>2019-04-24T08:20:55.000Z</time>
      </trkpt>
      <trkpt lat="42.419349670410156" lon="-6.833199977874756">
        <ele>362.0</ele>
        <time>2019-04-24T08:21:01.000Z</time>
      </trkpt>
      <trkpt lat="42.41926193237305" lon="-6.833219528198242">
        <ele>364.0</ele>
        <time>2019-04-24T08:21:09.000Z</time>
      </trkpt>
      <trkpt lat="42.41917037963867" lon="-6.833232402801514">
        <ele>366.0</ele>
        <time>2019-04-24T08:21:17.000Z</time>
      </trkpt>
      <trkpt lat="42.41908264160156" lon="-6.833240509033203">
        <ele>368.0</ele>
        <time>2019-04-24T08:21:24.000Z</time>
      </trkpt>
      <trkpt lat="42.41899108886719" lon="-6.833246231079102">
        <ele>371.0</ele>
        <time>2019-04-24T08:21:32.000Z</time>
      </trkpt>
      <trkpt lat="42.418922424316406" lon="-6.833234786987305">
        <ele>372.0</ele>
        <time>2019-04-24T08:21:38.000Z</time>
      </trkpt>
      <trkpt lat="42.41885757446289" lon="-6.8332133293151855">
        <ele>373.0</ele>
        <time>2019-04-24T08:21:44.000Z</time>
      </trkpt>
      <trkpt lat="42.418800354003906" lon="-6.833185195922852">
        <ele>374.0</ele>
        <time>2019-04-24T08:21:50.000Z</time>
      </trkpt>
      <trkpt lat="42.41874694824219" lon="-6.833154201507568">
        <ele>375.0</ele>
        <time>2019-04-24T08:21:56.000Z</time>
      </trkpt>
      <trkpt lat="42.41871643066406" lon="-6.833122253417969">
        <ele>376.0</ele>
        <time>2019-04-24T08:21:59.000Z</time>
      </trkpt>
      <trkpt lat="42.418697357177734" lon="-6.8330864906311035">
        <ele>377.0</ele>
        <time>2019-04-24T08:22:02.000Z</time>
      </trkpt>
      <trkpt lat="42.41868591308594" lon="-6.833048343658447">
        <ele>378.0</ele>
        <time>2019-04-24T08:22:04.000Z</time>
      </trkpt>
      <trkpt lat="42.418678283691406" lon="-6.833008766174316">
        <ele>380.0</ele>
        <time>2019-04-24T08:22:07.000Z</time>
      </trkpt>
      <trkpt lat="42.41864776611328" lon="-6.832973480224609">
        <ele>381.0</ele>
        <time>2019-04-24T08:22:11.000Z</time>
      </trkpt>
      <trkpt lat="42.418617248535156" lon="-6.832938194274902">
        <ele>381.0</ele>
        <time>2019-04-24T08:22:14.000Z</time>
      </trkpt>
      <trkpt lat="42.418582916259766" lon="-6.8329033851623535">
        <ele>382.0</ele>
        <time>2019-04-24T08:22:18.000Z</time>
      </trkpt>
      <trkpt lat="42.418548583984375" lon="-6.832868576049805">
        <ele>383.0</ele>
        <time>2019-04-24T08:22:21.000Z</time>
      </trkpt>
      <trkpt lat="42.41849899291992" lon="-6.8328657150268555">
        <ele>383.0</ele>
        <time>2019-04-24T08:22:27.000Z</time>
      </trkpt>
      <trkpt lat="42.4184455871582" lon="-6.832875728607178">
        <ele>383.0</ele>
        <time>2019-04-24T08:22:33.000Z</time>
      </trkpt>
      <trkpt lat="42.41838455200195" lon="-6.832894802093506">
        <ele>384.0</ele>
        <time>2019-04-24T08:22:38.000Z</time>
      </trkpt>
      <trkpt lat="42.4183235168457" lon="-6.832918643951416">
        <ele>384.0</ele>
        <time>2019-04-24T08:22:44.000Z</time>
      </trkpt>
      <trkpt lat="42.41826629638672" lon="-6.832861423492432">
        <ele>384.0</ele>
        <time>2019-04-24T08:22:52.000Z</time>
      </trkpt>
      <trkpt lat="42.41820526123047" lon="-6.832775115966797">
        <ele>383.0</ele>
        <time>2019-04-24T08:22:59.000Z</time>
      </trkpt>
      <trkpt lat="42.418148040771484" lon="-6.832669734954834">
        <ele>383.0</ele>
        <time>2019-04-24T08:23:07.000Z</time>
      </trkpt>
      <trkpt lat="42.4180908203125" lon="-6.832554340362549">
        <ele>382.0</ele>
        <time>2019-04-24T08:23:14.000Z</time>
      </trkpt>
      <trkpt lat="42.41801834106445" lon="-6.832483768463135">
        <ele>381.0</ele>
        <time>2019-04-24T08:23:23.000Z</time>
      </trkpt>
      <trkpt lat="42.41794204711914" lon="-6.832421779632568">
        <ele>381.0</ele>
        <time>2019-04-24T08:23:32.000Z</time>
      </trkpt>
      <trkpt lat="42.41786193847656" lon="-6.832365036010742">
        <ele>380.0</ele>
        <time>2019-04-24T08:23:41.000Z</time>
      </trkpt>
      <trkpt lat="42.41777801513672" lon="-6.832311630249023">
        <ele>380.0</ele>
        <time>2019-04-24T08:23:50.000Z</time>
      </trkpt>
      <trkpt lat="42.4177131652832" lon="-6.832281112670898">
        <ele>379.0</ele>
        <time>2019-04-24T08:23:58.000Z</time>
      </trkpt>
      <trkpt lat="42.417659759521484" lon="-6.832262992858887">
        <ele>379.0</ele>
        <time>2019-04-24T08:24:05.000Z</time>
      </trkpt>
      <trkpt lat="42.417606353759766" lon="-6.8322529792785645">
        <ele>378.0</ele>
        <time>2019-04-24T08:24:13.000Z</time>
      </trkpt>
      <trkpt lat="42.41755676269531" lon="-6.832247734069824">
        <ele>377.0</ele>
        <time>2019-04-24T08:24:20.000Z</time>
      </trkpt>
      <trkpt lat="42.417518615722656" lon="-6.832256317138672">
        <ele>377.0</ele>
        <time>2019-04-24T08:24:24.000Z</time>
      </trkpt>
      <trkpt lat="42.41748809814453" lon="-6.832275390625">
        <ele>376.0</ele>
        <time>2019-04-24T08:24:28.000Z</time>
      </trkpt>
      <trkpt lat="42.41746139526367" lon="-6.832301139831543">
        <ele>376.0</ele>
        <time>2019-04-24T08:24:31.000Z</time>
      </trkpt>
      <trkpt lat="42.41743850708008" lon="-6.832330226898193">
        <ele>375.0</ele>
        <time>2019-04-24T08:24:35.000Z</time>
      </trkpt>
      <trkpt lat="42.41738510131836" lon="-6.832395076751709">
        <ele>374.0</ele>
        <time>2019-04-24T08:24:42.000Z</time>
      </trkpt>
      <trkpt lat="42.41732406616211" lon="-6.8324785232543945">
        <ele>371.0</ele>
        <time>2019-04-24T08:24:49.000Z</time>
      </trkpt>
      <trkpt lat="42.41725158691406" lon="-6.832573890686035">
        <ele>369.0</ele>
        <time>2019-04-24T08:24:56.000Z</time>
      </trkpt>
      <trkpt lat="42.417179107666016" lon="-6.832675933837891">
        <ele>366.0</ele>
        <time>2019-04-24T08:25:03.000Z</time>
      </trkpt>
      <trkpt lat="42.41712188720703" lon="-6.832768440246582">
        <ele>365.0</ele>
        <time>2019-04-24T08:25:11.000Z</time>
      </trkpt>
      <trkpt lat="42.41706848144531" lon="-6.832863807678223">
        <ele>366.0</ele>
        <time>2019-04-24T08:25:20.000Z</time>
      </trkpt>
      <trkpt lat="42.41701889038086" lon="-6.832961082458496">
        <ele>367.0</ele>
        <time>2019-04-24T08:25:28.000Z</time>
      </trkpt>
      <trkpt lat="42.416969299316406" lon="-6.833058834075928">
        <ele>368.0</ele>
        <time>2019-04-24T08:25:36.000Z</time>
      </trkpt>
      <trkpt lat="42.41694641113281" lon="-6.833196640014648">
        <ele>371.0</ele>
        <time>2019-04-24T08:25:45.000Z</time>
      </trkpt>
      <trkpt lat="42.416961669921875" lon="-6.833310127258301">
        <ele>375.0</ele>
        <time>2019-04-24T08:25:54.000Z</time>
      </trkpt>
      <trkpt lat="42.4170036315918" lon="-6.833339691162109">
        <ele>376.0</ele>
        <time>2019-04-24T08:26:02.000Z</time>
      </trkpt>
      <trkpt lat="42.41706848144531" lon="-6.83335542678833">
        <ele>378.0</ele>
        <time>2019-04-24T08:26:10.000Z</time>
      </trkpt>
      <trkpt lat="42.417144775390625" lon="-6.833362102508545">
        <ele>380.0</ele>
        <time>2019-04-24T08:26:17.000Z</time>
      </trkpt>
      <trkpt lat="42.41722869873047" lon="-6.833364009857178">
        <ele>382.0</ele>
        <time>2019-04-24T08:26:25.000Z</time>
      </trkpt>
      <trkpt lat="42.41730880737305" lon="-6.83339262008667">
        <ele>383.0</ele>
        <time>2019-04-24T08:26:33.000Z</time>
      </trkpt>
      <trkpt lat="42.41739273071289" lon="-6.833427906036377">
        <ele>384.0</ele>
        <time>2019-04-24T08:26:41.000Z</time>
      </trkpt>
      <trkpt lat="42.417476654052734" lon="-6.833467483520508">
        <ele>385.0</ele>
        <time>2019-04-24T08:26:48.000Z</time>
      </trkpt>
      <trkpt lat="42.41756820678711" lon="-6.8335089683532715">
        <ele>385.0</ele>
        <time>2019-04-24T08:26:56.000Z</time>
      </trkpt>
      <trkpt lat="42.41761016845703" lon="-6.833556175231934">
        <ele>386.0</ele>
        <time>2019-04-24T08:27:01.000Z</time>
      </trkpt>
      <trkpt lat="42.41763687133789" lon="-6.833608627319336">
        <ele>386.0</ele>
        <time>2019-04-24T08:27:07.000Z</time>
      </trkpt>
      <trkpt lat="42.41765213012695" lon="-6.833664417266846">
        <ele>386.0</ele>
        <time>2019-04-24T08:27:12.000Z</time>
      </trkpt>
      <trkpt lat="42.41766357421875" lon="-6.83372163772583">
        <ele>385.0</ele>
        <time>2019-04-24T08:27:17.000Z</time>
      </trkpt>
      <trkpt lat="42.41763687133789" lon="-6.833780765533447">
        <ele>386.0</ele>
        <time>2019-04-24T08:27:26.000Z</time>
      </trkpt>
      <trkpt lat="42.41758728027344" lon="-6.833842754364014">
        <ele>387.0</ele>
        <time>2019-04-24T08:27:35.000Z</time>
      </trkpt>
      <trkpt lat="42.41752624511719" lon="-6.833906650543213">
        <ele>388.0</ele>
        <time>2019-04-24T08:27:44.000Z</time>
      </trkpt>
      <trkpt lat="42.41745376586914" lon="-6.83397102355957">
        <ele>389.0</ele>
        <time>2019-04-24T08:27:53.000Z</time>
      </trkpt>
      <trkpt lat="42.417381286621094" lon="-6.834024906158447">
        <ele>389.0</ele>
        <time>2019-04-24T08:28:04.000Z</time>
      </trkpt>
      <trkpt lat="42.417301177978516" lon="-6.834075450897217">
        <ele>388.0</ele>
        <time>2019-04-24T08:28:14.000Z</time>
      </trkpt>
      <trkpt lat="42.41721725463867" lon="-6.834123611450195">
        <ele>388.0</ele>
        <time>2019-04-24T08:28:25.000Z</time>
      </trkpt>
      <trkpt lat="42.41712951660156" lon="-6.834170818328857">
        <ele>387.0</ele>
        <time>2019-04-24T08:28:35.000Z</time>
      </trkpt>
      <trkpt lat="42.417057037353516" lon="-6.834238529205322">
        <ele>388.0</ele>
        <time>2019-04-24T08:28:45.000Z</time>
      </trkpt>
      <trkpt lat="42.4169921875" lon="-6.834313869476318">
        <ele>390.0</ele>
        <time>2019-04-24T08:28:54.000Z</time>
      </trkpt>
      <trkpt lat="42.416927337646484" lon="-6.834394454956055">
        <ele>392.0</ele>
        <time>2019-04-24T08:29:04.000Z</time>
      </trkpt>
      <trkpt lat="42.416866302490234" lon="-6.83447790145874">
        <ele>394.0</ele>
        <time>2019-04-24T08:29:13.000Z</time>
      </trkpt>
      <trkpt lat="42.41679000854492" lon="-6.834537982940674">
        <ele>396.0</ele>
        <time>2019-04-24T08:29:24.000Z</time>
      </trkpt>
      <trkpt lat="42.41671371459961" lon="-6.834590911865234">
        <ele>398.0</ele>
        <time>2019-04-24T08:29:35.000Z</time>
      </trkpt>
      <trkpt lat="42.416629791259766" lon="-6.834639072418213">
        <ele>400.0</ele>
        <time>2019-04-24T08:29:46.000Z</time>
      </trkpt>
      <trkpt lat="42.41654586791992" lon="-6.8346848487854">
        <ele>402.0</ele>
        <time>2019-04-24T08:29:57.000Z</time>
      </trkpt>
      <trkpt lat="42.41637420654297" lon="-6.834692001342773">
        <ele>407.0</ele>
        <time>2019-04-24T08:30:24.000Z</time>
      </trkpt>
      <trkpt lat="42.41619110107422" lon="-6.834654808044434">
        <ele>411.0</ele>
        <time>2019-04-24T08:30:50.000Z</time>
      </trkpt>
      <trkpt lat="42.41610336303711" lon="-6.834650039672852">
        <ele>413.0</ele>
        <time>2019-04-24T08:31:03.000Z</time>
      </trkpt>
      <trkpt lat="42.416011810302734" lon="-6.834646701812744">
        <ele>416.0</ele>
        <time>2019-04-24T08:31:16.000Z</time>
      </trkpt>
      <trkpt lat="42.415924072265625" lon="-6.834644317626953">
        <ele>418.0</ele>
        <time>2019-04-24T08:31:29.000Z</time>
      </trkpt>
      <trkpt lat="42.41583251953125" lon="-6.83464241027832">
        <ele>421.0</ele>
        <time>2019-04-24T08:31:42.000Z</time>
      </trkpt>
      <trkpt lat="42.415748596191406" lon="-6.834619045257568">
        <ele>422.0</ele>
        <time>2019-04-24T08:31:57.000Z</time>
      </trkpt>
      <trkpt lat="42.4156608581543" lon="-6.834587097167969">
        <ele>423.0</ele>
        <time>2019-04-24T08:32:13.000Z</time>
      </trkpt>
      <trkpt lat="42.41557693481445" lon="-6.8345489501953125">
        <ele>424.0</ele>
        <time>2019-04-24T08:32:28.000Z</time>
      </trkpt>
      <trkpt lat="42.41549301147461" lon="-6.834508419036865">
        <ele>425.0</ele>
        <time>2019-04-24T08:32:43.000Z</time>
      </trkpt>
      <trkpt lat="42.41533660888672" lon="-6.834518909454346">
        <ele>427.0</ele>
        <time>2019-04-24T08:33:05.000Z</time>
      </trkpt>
      <trkpt lat="42.415184020996094" lon="-6.83456563949585">
        <ele>429.0</ele>
        <time>2019-04-24T08:33:27.000Z</time>
      </trkpt>
      <trkpt lat="42.41509246826172" lon="-6.834628582000732">
        <ele>432.0</ele>
        <time>2019-04-24T08:33:38.000Z</time>
      </trkpt>
      <trkpt lat="42.41503143310547" lon="-6.834707736968994">
        <ele>436.0</ele>
        <time>2019-04-24T08:33:49.000Z</time>
      </trkpt>
      <trkpt lat="42.41499710083008" lon="-6.834749698638916">
        <ele>437.0</ele>
        <time>2019-04-24T08:33:55.000Z</time>
      </trkpt>
      <trkpt lat="42.41496658325195" lon="-6.834794521331787">
        <ele>437.0</ele>
        <time>2019-04-24T08:34:01.000Z</time>
      </trkpt>
      <trkpt lat="42.41493606567383" lon="-6.834840774536133">
        <ele>438.0</ele>
        <time>2019-04-24T08:34:06.000Z</time>
      </trkpt>
      <trkpt lat="42.4149055480957" lon="-6.834887981414795">
        <ele>439.0</ele>
        <time>2019-04-24T08:34:12.000Z</time>
      </trkpt>
      <trkpt lat="42.414894104003906" lon="-6.834909439086914">
        <ele>439.0</ele>
        <time>2019-04-24T08:34:16.000Z</time>
      </trkpt>
      <trkpt lat="42.41489028930664" lon="-6.834921360015869">
        <ele>439.0</ele>
        <time>2019-04-24T08:34:20.000Z</time>
      </trkpt>
      <trkpt lat="42.414886474609375" lon="-6.834926128387451">
        <ele>438.0</ele>
        <time>2019-04-24T08:34:23.000Z</time>
      </trkpt>
      <trkpt lat="42.41489028930664" lon="-6.834928035736084">
        <ele>438.0</ele>
        <time>2019-04-24T08:34:27.000Z</time>
      </trkpt>
      <trkpt lat="42.414859771728516" lon="-6.834953784942627">
        <ele>437.0</ele>
        <time>2019-04-24T08:35:30.000Z</time>
      </trkpt>
      <trkpt lat="42.414825439453125" lon="-6.834982872009277">
        <ele>436.0</ele>
        <time>2019-04-24T08:36:33.000Z</time>
      </trkpt>
      <trkpt lat="42.41481399536133" lon="-6.834991455078125">
        <ele>436.0</ele>
        <time>2019-04-24T08:36:33.000Z</time>
      </trkpt>
      <trkpt lat="42.4148063659668" lon="-6.834997653961182">
        <ele>436.0</ele>
        <time>2019-04-24T08:36:34.000Z</time>
      </trkpt>
      <trkpt lat="42.414798736572266" lon="-6.835002899169922">
        <ele>436.0</ele>
        <time>2019-04-24T08:36:34.000Z</time>
      </trkpt>
      <trkpt lat="42.414794921875" lon="-6.835007190704346">
        <ele>436.0</ele>
        <time>2019-04-24T08:36:34.000Z</time>
      </trkpt>
      <trkpt lat="42.41474151611328" lon="-6.835035800933838">
        <ele>435.0</ele>
        <time>2019-04-24T08:36:40.000Z</time>
      </trkpt>
      <trkpt lat="42.414669036865234" lon="-6.835073947906494">
        <ele>435.0</ele>
        <time>2019-04-24T08:36:46.000Z</time>
      </trkpt>
      <trkpt lat="42.41458511352539" lon="-6.835118770599365">
        <ele>434.0</ele>
        <time>2019-04-24T08:36:52.000Z</time>
      </trkpt>
      <trkpt lat="42.41448974609375" lon="-6.8351664543151855">
        <ele>433.0</ele>
        <time>2019-04-24T08:36:58.000Z</time>
      </trkpt>
      <trkpt lat="42.41442108154297" lon="-6.835196018218994">
        <ele>432.0</ele>
        <time>2019-04-24T08:37:10.000Z</time>
      </trkpt>
      <trkpt lat="42.41435623168945" lon="-6.835220813751221">
        <ele>431.0</ele>
        <time>2019-04-24T08:37:21.000Z</time>
      </trkpt>
      <trkpt lat="42.41429138183594" lon="-6.835243225097656">
        <ele>429.0</ele>
        <time>2019-04-24T08:37:33.000Z</time>
      </trkpt>
      <trkpt lat="42.41422653198242" lon="-6.835264205932617">
        <ele>428.0</ele>
        <time>2019-04-24T08:37:44.000Z</time>
      </trkpt>
      <trkpt lat="42.414241790771484" lon="-6.835155010223389">
        <ele>425.0</ele>
        <time>2019-04-24T08:47:07.000Z</time>
      </trkpt>
      <trkpt lat="42.41411209106445" lon="-6.834951877593994">
        <ele>427.0</ele>
        <time>2019-04-24T08:47:30.000Z</time>
      </trkpt>
      <trkpt lat="42.41411209106445" lon="-6.834951877593994">
        <ele>427.0</ele>
        <time>2019-04-24T08:47:31.000Z</time>
      </trkpt>
      <trkpt lat="42.41410827636719" lon="-6.834938049316406">
        <ele>427.0</ele>
        <time>2019-04-24T08:47:35.000Z</time>
      </trkpt>
      <trkpt lat="42.41407775878906" lon="-6.834873199462891">
        <ele>427.0</ele>
        <time>2019-04-24T08:47:56.000Z</time>
      </trkpt>
      <trkpt lat="42.414058685302734" lon="-6.834835529327393">
        <ele>427.0</ele>
        <time>2019-04-24T08:47:57.000Z</time>
      </trkpt>
      <trkpt lat="42.413841247558594" lon="-6.8344645500183105">
        <ele>425.0</ele>
        <time>2019-04-24T08:48:22.000Z</time>
      </trkpt>
      <trkpt lat="42.41371154785156" lon="-6.834198474884033">
        <ele>423.0</ele>
        <time>2019-04-24T08:48:51.000Z</time>
      </trkpt>
      <trkpt lat="42.413692474365234" lon="-6.8341803550720215">
        <ele>423.0</ele>
        <time>2019-04-24T08:48:54.000Z</time>
      </trkpt>
      <trkpt lat="42.41367721557617" lon="-6.8341827392578125">
        <ele>423.0</ele>
        <time>2019-04-24T08:48:58.000Z</time>
      </trkpt>
      <trkpt lat="42.413665771484375" lon="-6.834198951721191">
        <ele>423.0</ele>
        <time>2019-04-24T08:49:01.000Z</time>
      </trkpt>
      <trkpt lat="42.41365432739258" lon="-6.834221839904785">
        <ele>423.0</ele>
        <time>2019-04-24T08:49:04.000Z</time>
      </trkpt>
      <trkpt lat="42.41360092163086" lon="-6.834416389465332">
        <ele>419.0</ele>
        <time>2019-04-24T08:49:32.000Z</time>
      </trkpt>
      <trkpt lat="42.41353225708008" lon="-6.834694862365723">
        <ele>413.0</ele>
        <time>2019-04-24T08:49:59.000Z</time>
      </trkpt>
      <trkpt lat="42.41351318359375" lon="-6.834813117980957">
        <ele>409.0</ele>
        <time>2019-04-24T08:50:10.000Z</time>
      </trkpt>
      <trkpt lat="42.41349792480469" lon="-6.834932327270508">
        <ele>406.0</ele>
        <time>2019-04-24T08:50:20.000Z</time>
      </trkpt>
      <trkpt lat="42.413490295410156" lon="-6.8350510597229">
        <ele>403.0</ele>
        <time>2019-04-24T08:50:31.000Z</time>
      </trkpt>
      <trkpt lat="42.413482666015625" lon="-6.835170269012451">
        <ele>399.0</ele>
        <time>2019-04-24T08:50:41.000Z</time>
      </trkpt>
      <trkpt lat="42.41346740722656" lon="-6.835287570953369">
        <ele>397.0</ele>
        <time>2019-04-24T08:50:52.000Z</time>
      </trkpt>
      <trkpt lat="42.413455963134766" lon="-6.835403919219971">
        <ele>396.0</ele>
        <time>2019-04-24T08:51:02.000Z</time>
      </trkpt>
      <trkpt lat="42.4134407043457" lon="-6.835519790649414">
        <ele>395.0</ele>
        <time>2019-04-24T08:51:13.000Z</time>
      </trkpt>
      <trkpt lat="42.413429260253906" lon="-6.835635662078857">
        <ele>394.0</ele>
        <time>2019-04-24T08:51:23.000Z</time>
      </trkpt>
      <trkpt lat="42.41340637207031" lon="-6.835750102996826">
        <ele>393.0</ele>
        <time>2019-04-24T08:51:34.000Z</time>
      </trkpt>
      <trkpt lat="42.41337966918945" lon="-6.835864067077637">
        <ele>393.0</ele>
        <time>2019-04-24T08:51:45.000Z</time>
      </trkpt>
      <trkpt lat="42.41334915161133" lon="-6.835977077484131">
        <ele>392.0</ele>
        <time>2019-04-24T08:51:55.000Z</time>
      </trkpt>
      <trkpt lat="42.4133186340332" lon="-6.836090087890625">
        <ele>392.0</ele>
        <time>2019-04-24T08:52:06.000Z</time>
      </trkpt>
      <trkpt lat="42.413307189941406" lon="-6.836204528808594">
        <ele>391.0</ele>
        <time>2019-04-24T08:52:18.000Z</time>
      </trkpt>
      <trkpt lat="42.41330337524414" lon="-6.8363189697265625">
        <ele>390.0</ele>
        <time>2019-04-24T08:52:30.000Z</time>
      </trkpt>
      <trkpt lat="42.41330337524414" lon="-6.8364338874816895">
        <ele>388.0</ele>
        <time>2019-04-24T08:52:41.000Z</time>
      </trkpt>
      <trkpt lat="42.413307189941406" lon="-6.836548805236816">
        <ele>387.0</ele>
        <time>2019-04-24T08:52:53.000Z</time>
      </trkpt>
      <trkpt lat="42.413326263427734" lon="-6.8366618156433105">
        <ele>385.0</ele>
        <time>2019-04-24T08:53:03.000Z</time>
      </trkpt>
      <trkpt lat="42.413352966308594" lon="-6.8367743492126465">
        <ele>384.0</ele>
        <time>2019-04-24T08:53:12.000Z</time>
      </trkpt>
      <trkpt lat="42.413387298583984" lon="-6.836886405944824">
        <ele>382.0</ele>
        <time>2019-04-24T08:53:22.000Z</time>
      </trkpt>
      <trkpt lat="42.41342544555664" lon="-6.836997985839844">
        <ele>381.0</ele>
        <time>2019-04-24T08:53:31.000Z</time>
      </trkpt>
      <trkpt lat="42.413429260253906" lon="-6.837005138397217">
        <ele>381.0</ele>
        <time>2019-04-24T08:53:32.000Z</time>
      </trkpt>
      <trkpt lat="42.413448333740234" lon="-6.837055206298828">
        <ele>378.0</ele>
        <time>2019-04-24T08:53:54.000Z</time>
      </trkpt>
      <trkpt lat="42.41345977783203" lon="-6.837088584899902">
        <ele>378.0</ele>
        <time>2019-04-24T08:53:55.000Z</time>
      </trkpt>
      <trkpt lat="42.41360092163086" lon="-6.837522506713867">
        <ele>377.0</ele>
        <time>2019-04-24T08:54:20.000Z</time>
      </trkpt>
      <trkpt lat="42.41373825073242" lon="-6.837738037109375">
        <ele>374.0</ele>
        <time>2019-04-24T08:54:41.000Z</time>
      </trkpt>
      <trkpt lat="42.413753509521484" lon="-6.837766170501709">
        <ele>371.0</ele>
        <time>2019-04-24T08:54:59.000Z</time>
      </trkpt>
      <trkpt lat="42.41376495361328" lon="-6.8377885818481445">
        <ele>371.0</ele>
        <time>2019-04-24T08:55:00.000Z</time>
      </trkpt>
      <trkpt lat="42.413856506347656" lon="-6.838030815124512">
        <ele>370.0</ele>
        <time>2019-04-24T08:55:06.000Z</time>
      </trkpt>
      <trkpt lat="42.413848876953125" lon="-6.838090419769287">
        <ele>370.0</ele>
        <time>2019-04-24T08:55:10.000Z</time>
      </trkpt>
      <trkpt lat="42.4138298034668" lon="-6.838149070739746">
        <ele>370.0</ele>
        <time>2019-04-24T08:55:15.000Z</time>
      </trkpt>
      <trkpt lat="42.41379928588867" lon="-6.838207244873047">
        <ele>370.0</ele>
        <time>2019-04-24T08:55:19.000Z</time>
      </trkpt>
      <trkpt lat="42.41376495361328" lon="-6.838265895843506">
        <ele>371.0</ele>
        <time>2019-04-24T08:55:23.000Z</time>
      </trkpt>
      <trkpt lat="42.413726806640625" lon="-6.838353633880615">
        <ele>370.0</ele>
        <time>2019-04-24T08:55:31.000Z</time>
      </trkpt>
      <trkpt lat="42.41367721557617" lon="-6.838453769683838">
        <ele>369.0</ele>
        <time>2019-04-24T08:55:40.000Z</time>
      </trkpt>
      <trkpt lat="42.41362380981445" lon="-6.83856201171875">
        <ele>368.0</ele>
        <time>2019-04-24T08:55:48.000Z</time>
      </trkpt>
      <trkpt lat="42.41356658935547" lon="-6.838674545288086">
        <ele>366.0</ele>
        <time>2019-04-24T08:55:56.000Z</time>
      </trkpt>
      <trkpt lat="42.413509368896484" lon="-6.838766574859619">
        <ele>365.0</ele>
        <time>2019-04-24T08:56:05.000Z</time>
      </trkpt>
      <trkpt lat="42.4134521484375" lon="-6.8388543128967285">
        <ele>363.0</ele>
        <time>2019-04-24T08:56:13.000Z</time>
      </trkpt>
      <trkpt lat="42.41339111328125" lon="-6.8389387130737305">
        <ele>361.0</ele>
        <time>2019-04-24T08:56:22.000Z</time>
      </trkpt>
      <trkpt lat="42.413326263427734" lon="-6.839022159576416">
        <ele>359.0</ele>
        <time>2019-04-24T08:56:30.000Z</time>
      </trkpt>
      <trkpt lat="42.41328811645508" lon="-6.8391265869140625">
        <ele>359.0</ele>
        <time>2019-04-24T08:56:40.000Z</time>
      </trkpt>
      <trkpt lat="42.41325378417969" lon="-6.83923864364624">
        <ele>359.0</ele>
        <time>2019-04-24T08:56:50.000Z</time>
      </trkpt>
      <trkpt lat="42.41322708129883" lon="-6.839354991912842">
        <ele>360.0</ele>
        <time>2019-04-24T08:57:00.000Z</time>
      </trkpt>
      <trkpt lat="42.413204193115234" lon="-6.839474201202393">
        <ele>361.0</ele>
        <time>2019-04-24T08:57:10.000Z</time>
      </trkpt>
      <trkpt lat="42.41316604614258" lon="-6.839580535888672">
        <ele>362.0</ele>
        <time>2019-04-24T08:57:17.000Z</time>
      </trkpt>
      <trkpt lat="42.41312026977539" lon="-6.83968448638916">
        <ele>362.0</ele>
        <time>2019-04-24T08:57:25.000Z</time>
      </trkpt>
      <trkpt lat="42.4130744934082" lon="-6.839786529541016">
        <ele>362.0</ele>
        <time>2019-04-24T08:57:32.000Z</time>
      </trkpt>
      <trkpt lat="42.41302490234375" lon="-6.839888095855713">
        <ele>363.0</ele>
        <time>2019-04-24T08:57:39.000Z</time>
      </trkpt>
      <trkpt lat="42.412986755371094" lon="-6.839967727661133">
        <ele>363.0</ele>
        <time>2019-04-24T08:57:45.000Z</time>
      </trkpt>
      <trkpt lat="42.41295623779297" lon="-6.8400373458862305">
        <ele>364.0</ele>
        <time>2019-04-24T08:57:52.000Z</time>
      </trkpt>
      <trkpt lat="42.41292953491211" lon="-6.8401007652282715">
        <ele>364.0</ele>
        <time>2019-04-24T08:57:58.000Z</time>
      </trkpt>
      <trkpt lat="42.412899017333984" lon="-6.840160369873047">
        <ele>365.0</ele>
        <time>2019-04-24T08:58:04.000Z</time>
      </trkpt>
      <trkpt lat="42.412879943847656" lon="-6.840238094329834">
        <ele>371.0</ele>
        <time>2019-04-24T08:58:31.000Z</time>
      </trkpt>
      <trkpt lat="42.41286849975586" lon="-6.840280532836914">
        <ele>371.0</ele>
        <time>2019-04-24T08:58:32.000Z</time>
      </trkpt>
      <trkpt lat="42.41272735595703" lon="-6.840727806091309">
        <ele>375.0</ele>
        <time>2019-04-24T08:58:53.000Z</time>
      </trkpt>
      <trkpt lat="42.41249465942383" lon="-6.841087818145752">
        <ele>375.0</ele>
        <time>2019-04-24T08:59:26.000Z</time>
      </trkpt>
      <trkpt lat="42.41227340698242" lon="-6.841471195220947">
        <ele>369.0</ele>
        <time>2019-04-24T09:00:01.000Z</time>
      </trkpt>
      <trkpt lat="42.412109375" lon="-6.841598033905029">
        <ele>363.0</ele>
        <time>2019-04-24T09:00:23.000Z</time>
      </trkpt>
      <trkpt lat="42.41209411621094" lon="-6.841616153717041">
        <ele>362.0</ele>
        <time>2019-04-24T09:00:28.000Z</time>
      </trkpt>
      <trkpt lat="42.412109375" lon="-6.841613292694092">
        <ele>362.0</ele>
        <time>2019-04-24T09:00:33.000Z</time>
      </trkpt>
      <trkpt lat="42.4120979309082" lon="-6.841620922088623">
        <ele>363.0</ele>
        <time>2019-04-24T09:00:41.000Z</time>
      </trkpt>
      <trkpt lat="42.412086486816406" lon="-6.841629981994629">
        <ele>364.0</ele>
        <time>2019-04-24T09:00:50.000Z</time>
      </trkpt>
      <trkpt lat="42.41206741333008" lon="-6.841639995574951">
        <ele>366.0</ele>
        <time>2019-04-24T09:00:58.000Z</time>
      </trkpt>
      <trkpt lat="42.412052154541016" lon="-6.84165096282959">
        <ele>369.0</ele>
        <time>2019-04-24T09:01:06.000Z</time>
      </trkpt>
      <trkpt lat="42.41204071044922" lon="-6.8416571617126465">
        <ele>369.0</ele>
        <time>2019-04-24T09:01:06.000Z</time>
      </trkpt>
      <trkpt lat="42.41203308105469" lon="-6.8416619300842285">
        <ele>369.0</ele>
        <time>2019-04-24T09:01:07.000Z</time>
      </trkpt>
      <trkpt lat="42.412025451660156" lon="-6.841666221618652">
        <ele>369.0</ele>
        <time>2019-04-24T09:01:07.000Z</time>
      </trkpt>
      <trkpt lat="42.41202163696289" lon="-6.84166955947876">
        <ele>369.0</ele>
        <time>2019-04-24T09:01:07.000Z</time>
      </trkpt>
      <trkpt lat="42.41197204589844" lon="-6.841711521148682">
        <ele>369.0</ele>
        <time>2019-04-24T09:01:12.000Z</time>
      </trkpt>
      <trkpt lat="42.41191101074219" lon="-6.841768264770508">
        <ele>370.0</ele>
        <time>2019-04-24T09:01:17.000Z</time>
      </trkpt>
      <trkpt lat="42.411834716796875" lon="-6.8418354988098145">
        <ele>371.0</ele>
        <time>2019-04-24T09:01:22.000Z</time>
      </trkpt>
      <trkpt lat="42.41175842285156" lon="-6.841907978057861">
        <ele>373.0</ele>
        <time>2019-04-24T09:01:27.000Z</time>
      </trkpt>
      <trkpt lat="42.41173553466797" lon="-6.841944217681885">
        <ele>373.0</ele>
        <time>2019-04-24T09:01:30.000Z</time>
      </trkpt>
      <trkpt lat="42.41173553466797" lon="-6.841970443725586">
        <ele>374.0</ele>
        <time>2019-04-24T09:01:32.000Z</time>
      </trkpt>
      <trkpt lat="42.4117431640625" lon="-6.8419904708862305">
        <ele>374.0</ele>
        <time>2019-04-24T09:01:35.000Z</time>
      </trkpt>
      <trkpt lat="42.41176223754883" lon="-6.842006683349609">
        <ele>374.0</ele>
        <time>2019-04-24T09:01:37.000Z</time>
      </trkpt>
      <trkpt lat="42.411766052246094" lon="-6.84201717376709">
        <ele>375.0</ele>
        <time>2019-04-24T09:01:39.000Z</time>
      </trkpt>
      <trkpt lat="42.411773681640625" lon="-6.842021465301514">
        <ele>375.0</ele>
        <time>2019-04-24T09:01:42.000Z</time>
      </trkpt>
      <trkpt lat="42.41177749633789" lon="-6.842021942138672">
        <ele>375.0</ele>
        <time>2019-04-24T09:01:44.000Z</time>
      </trkpt>
      <trkpt lat="42.41178512573242" lon="-6.842020511627197">
        <ele>375.0</ele>
        <time>2019-04-24T09:01:46.000Z</time>
      </trkpt>
      <trkpt lat="42.41178894042969" lon="-6.842024326324463">
        <ele>375.0</ele>
        <time>2019-04-24T09:01:53.000Z</time>
      </trkpt>
      <trkpt lat="42.41179656982422" lon="-6.84202766418457">
        <ele>375.0</ele>
        <time>2019-04-24T09:01:59.000Z</time>
      </trkpt>
      <trkpt lat="42.411800384521484" lon="-6.842031478881836">
        <ele>375.0</ele>
        <time>2019-04-24T09:02:06.000Z</time>
      </trkpt>
      <trkpt lat="42.411808013916016" lon="-6.842034816741943">
        <ele>374.0</ele>
        <time>2019-04-24T09:02:12.000Z</time>
      </trkpt>
      <trkpt lat="42.41181182861328" lon="-6.842038154602051">
        <ele>374.0</ele>
        <time>2019-04-24T09:02:12.000Z</time>
      </trkpt>
      <trkpt lat="42.41181564331055" lon="-6.842041015625">
        <ele>374.0</ele>
        <time>2019-04-24T09:02:13.000Z</time>
      </trkpt>
      <trkpt lat="42.41181945800781" lon="-6.842043399810791">
        <ele>374.0</ele>
        <time>2019-04-24T09:02:13.000Z</time>
      </trkpt>
      <trkpt lat="42.41182327270508" lon="-6.84204626083374">
        <ele>374.0</ele>
        <time>2019-04-24T09:02:13.000Z</time>
      </trkpt>
      <trkpt lat="42.41184616088867" lon="-6.842055797576904">
        <ele>374.0</ele>
        <time>2019-04-24T09:02:14.000Z</time>
      </trkpt>
      <trkpt lat="42.4118766784668" lon="-6.842068195343018">
        <ele>374.0</ele>
        <time>2019-04-24T09:02:16.000Z</time>
      </trkpt>
      <trkpt lat="42.41191482543945" lon="-6.842082500457764">
        <ele>374.0</ele>
        <time>2019-04-24T09:02:17.000Z</time>
      </trkpt>
      <trkpt lat="42.41195297241211" lon="-6.842097759246826">
        <ele>374.0</ele>
        <time>2019-04-24T09:02:18.000Z</time>
      </trkpt>
      <trkpt lat="42.41197967529297" lon="-6.8420915603637695">
        <ele>374.0</ele>
        <time>2019-04-24T09:02:21.000Z</time>
      </trkpt>
      <trkpt lat="42.41200637817383" lon="-6.842077732086182">
        <ele>374.0</ele>
        <time>2019-04-24T09:02:25.000Z</time>
      </trkpt>
      <trkpt lat="42.41203308105469" lon="-6.842058181762695">
        <ele>374.0</ele>
        <time>2019-04-24T09:02:28.000Z</time>
      </trkpt>
      <trkpt lat="42.41205596923828" lon="-6.84203577041626">
        <ele>374.0</ele>
        <time>2019-04-24T09:02:31.000Z</time>
      </trkpt>
      <trkpt lat="42.41206741333008" lon="-6.842048168182373">
        <ele>374.0</ele>
        <time>2019-04-24T09:02:42.000Z</time>
      </trkpt>
      <trkpt lat="42.412071228027344" lon="-6.842072010040283">
        <ele>374.0</ele>
        <time>2019-04-24T09:02:53.000Z</time>
      </trkpt>
      <trkpt lat="42.41206741333008" lon="-6.842103481292725">
        <ele>374.0</ele>
        <time>2019-04-24T09:03:04.000Z</time>
      </trkpt>
      <trkpt lat="42.41206359863281" lon="-6.84213924407959">
        <ele>374.0</ele>
        <time>2019-04-24T09:03:15.000Z</time>
      </trkpt>
      <trkpt lat="42.41206359863281" lon="-6.842155456542969">
        <ele>374.0</ele>
        <time>2019-04-24T09:03:15.000Z</time>
      </trkpt>
      <trkpt lat="42.41206741333008" lon="-6.842167377471924">
        <ele>374.0</ele>
        <time>2019-04-24T09:03:16.000Z</time>
      </trkpt>
      <trkpt lat="42.41206741333008" lon="-6.842176914215088">
        <ele>374.0</ele>
        <time>2019-04-24T09:03:16.000Z</time>
      </trkpt>
      <trkpt lat="42.41206741333008" lon="-6.8421854972839355">
        <ele>374.0</ele>
        <time>2019-04-24T09:03:16.000Z</time>
      </trkpt>
      <trkpt lat="42.41206741333008" lon="-6.842226505279541">
        <ele>374.0</ele>
        <time>2019-04-24T09:03:18.000Z</time>
      </trkpt>
      <trkpt lat="42.412071228027344" lon="-6.84227991104126">
        <ele>374.0</ele>
        <time>2019-04-24T09:03:21.000Z</time>
      </trkpt>
      <trkpt lat="42.412071228027344" lon="-6.842341899871826">
        <ele>374.0</ele>
        <time>2019-04-24T09:03:23.000Z</time>
      </trkpt>
      <trkpt lat="42.41207504272461" lon="-6.842408180236816">
        <ele>374.0</ele>
        <time>2019-04-24T09:03:25.000Z</time>
      </trkpt>
      <trkpt lat="42.41203689575195" lon="-6.842451572418213">
        <ele>374.0</ele>
        <time>2019-04-24T09:03:30.000Z</time>
      </trkpt>
      <trkpt lat="42.411983489990234" lon="-6.842490196228027">
        <ele>375.0</ele>
        <time>2019-04-24T09:03:34.000Z</time>
      </trkpt>
      <trkpt lat="42.41191864013672" lon="-6.842525005340576">
        <ele>375.0</ele>
        <time>2019-04-24T09:03:39.000Z</time>
      </trkpt>
      <trkpt lat="42.41184616088867" lon="-6.84255838394165">
        <ele>375.0</ele>
        <time>2019-04-24T09:03:43.000Z</time>
      </trkpt>
      <trkpt lat="42.41181945800781" lon="-6.842579364776611">
        <ele>375.0</ele>
        <time>2019-04-24T09:03:45.000Z</time>
      </trkpt>
      <trkpt lat="42.41180419921875" lon="-6.842593193054199">
        <ele>375.0</ele>
        <time>2019-04-24T09:03:47.000Z</time>
      </trkpt>
      <trkpt lat="42.41179656982422" lon="-6.842602729797363">
        <ele>375.0</ele>
        <time>2019-04-24T09:03:49.000Z</time>
      </trkpt>
      <trkpt lat="42.41179656982422" lon="-6.842609405517578">
        <ele>375.0</ele>
        <time>2019-04-24T09:03:51.000Z</time>
      </trkpt>
      <trkpt lat="42.41175842285156" lon="-6.842596530914307">
        <ele>376.0</ele>
        <time>2019-04-24T09:03:57.000Z</time>
      </trkpt>
      <trkpt lat="42.41170883178711" lon="-6.842573165893555">
        <ele>376.0</ele>
        <time>2019-04-24T09:04:03.000Z</time>
      </trkpt>
      <trkpt lat="42.411651611328125" lon="-6.84254264831543">
        <ele>377.0</ele>
        <time>2019-04-24T09:04:09.000Z</time>
      </trkpt>
      <trkpt lat="42.411590576171875" lon="-6.842508316040039">
        <ele>377.0</ele>
        <time>2019-04-24T09:04:15.000Z</time>
      </trkpt>
      <trkpt lat="42.41156005859375" lon="-6.842504501342773">
        <ele>377.0</ele>
        <time>2019-04-24T09:04:31.000Z</time>
      </trkpt>
      <trkpt lat="42.411556243896484" lon="-6.842521667480469">
        <ele>377.0</ele>
        <time>2019-04-24T09:04:46.000Z</time>
      </trkpt>
      <trkpt lat="42.41155242919922" lon="-6.842524528503418">
        <ele>377.0</ele>
        <time>2019-04-24T09:04:46.000Z</time>
      </trkpt>
      <trkpt lat="42.41154479980469" lon="-6.842526912689209">
        <ele>377.0</ele>
        <time>2019-04-24T09:04:47.000Z</time>
      </trkpt>
      <trkpt lat="42.41154098510742" lon="-6.842529296875">
        <ele>377.0</ele>
        <time>2019-04-24T09:04:47.000Z</time>
      </trkpt>
      <trkpt lat="42.41153335571289" lon="-6.842531204223633">
        <ele>377.0</ele>
        <time>2019-04-24T09:04:47.000Z</time>
      </trkpt>
      <trkpt lat="42.41147994995117" lon="-6.8425679206848145">
        <ele>377.0</ele>
        <time>2019-04-24T09:04:56.000Z</time>
      </trkpt>
      <trkpt lat="42.411407470703125" lon="-6.842618942260742">
        <ele>377.0</ele>
        <time>2019-04-24T09:05:05.000Z</time>
      </trkpt>
      <trkpt lat="42.411319732666016" lon="-6.842679500579834">
        <ele>378.0</ele>
        <time>2019-04-24T09:05:13.000Z</time>
      </trkpt>
      <trkpt lat="42.411224365234375" lon="-6.842745304107666">
        <ele>378.0</ele>
        <time>2019-04-24T09:05:22.000Z</time>
      </trkpt>
      <trkpt lat="42.41114044189453" lon="-6.842775821685791">
        <ele>380.0</ele>
        <time>2019-04-24T09:05:32.000Z</time>
      </trkpt>
      <trkpt lat="42.41105270385742" lon="-6.842796802520752">
        <ele>383.0</ele>
        <time>2019-04-24T09:05:43.000Z</time>
      </trkpt>
      <trkpt lat="42.41096496582031" lon="-6.842811584472656">
        <ele>385.0</ele>
        <time>2019-04-24T09:05:53.000Z</time>
      </trkpt>
      <trkpt lat="42.41087341308594" lon="-6.842822551727295">
        <ele>388.0</ele>
        <time>2019-04-24T09:06:03.000Z</time>
      </trkpt>
      <trkpt lat="42.41078567504883" lon="-6.842840671539307">
        <ele>390.0</ele>
        <time>2019-04-24T09:06:12.000Z</time>
      </trkpt>
      <trkpt lat="42.41069793701172" lon="-6.84285831451416">
        <ele>391.0</ele>
        <time>2019-04-24T09:06:21.000Z</time>
      </trkpt>
      <trkpt lat="42.41061019897461" lon="-6.8428754806518555">
        <ele>392.0</ele>
        <time>2019-04-24T09:06:30.000Z</time>
      </trkpt>
      <trkpt lat="42.410518646240234" lon="-6.842892646789551">
        <ele>393.0</ele>
        <time>2019-04-24T09:06:39.000Z</time>
      </trkpt>
      <trkpt lat="42.410430908203125" lon="-6.842907428741455">
        <ele>394.0</ele>
        <time>2019-04-24T09:06:47.000Z</time>
      </trkpt>
      <trkpt lat="42.41034698486328" lon="-6.842920780181885">
        <ele>394.0</ele>
        <time>2019-04-24T09:06:55.000Z</time>
      </trkpt>
      <trkpt lat="42.41025924682617" lon="-6.842933654785156">
        <ele>395.0</ele>
        <time>2019-04-24T09:07:03.000Z</time>
      </trkpt>
      <trkpt lat="42.41017150878906" lon="-6.8429460525512695">
        <ele>395.0</ele>
        <time>2019-04-24T09:07:11.000Z</time>
      </trkpt>
      <trkpt lat="42.41010665893555" lon="-6.843011856079102">
        <ele>394.0</ele>
        <time>2019-04-24T09:07:20.000Z</time>
      </trkpt>
      <trkpt lat="42.4100456237793" lon="-6.843100070953369">
        <ele>392.0</ele>
        <time>2019-04-24T09:07:29.000Z</time>
      </trkpt>
      <trkpt lat="42.40999221801758" lon="-6.843202590942383">
        <ele>389.0</ele>
        <time>2019-04-24T09:07:37.000Z</time>
      </trkpt>
      <trkpt lat="42.409942626953125" lon="-6.843313217163086">
        <ele>387.0</ele>
        <time>2019-04-24T09:07:46.000Z</time>
      </trkpt>
      <trkpt lat="42.4097785949707" lon="-6.843397617340088">
        <ele>384.0</ele>
        <time>2019-04-24T09:08:00.000Z</time>
      </trkpt>
      <trkpt lat="42.40959548950195" lon="-6.843436241149902">
        <ele>383.0</ele>
        <time>2019-04-24T09:08:13.000Z</time>
      </trkpt>
      <trkpt lat="42.409542083740234" lon="-6.843448162078857">
        <ele>382.0</ele>
        <time>2019-04-24T09:08:17.000Z</time>
      </trkpt>
      <trkpt lat="42.40950012207031" lon="-6.843451976776123">
        <ele>382.0</ele>
        <time>2019-04-24T09:08:22.000Z</time>
      </trkpt>
      <trkpt lat="42.40946960449219" lon="-6.843450546264648">
        <ele>382.0</ele>
        <time>2019-04-24T09:08:26.000Z</time>
      </trkpt>
      <trkpt lat="42.40944290161133" lon="-6.843446731567383">
        <ele>382.0</ele>
        <time>2019-04-24T09:08:30.000Z</time>
      </trkpt>
      <trkpt lat="42.409358978271484" lon="-6.843527317047119">
        <ele>382.0</ele>
        <time>2019-04-24T09:08:39.000Z</time>
      </trkpt>
      <trkpt lat="42.409271240234375" lon="-6.843642234802246">
        <ele>382.0</ele>
        <time>2019-04-24T09:08:47.000Z</time>
      </trkpt>
      <trkpt lat="42.40921401977539" lon="-6.843717098236084">
        <ele>382.0</ele>
        <time>2019-04-24T09:08:55.000Z</time>
      </trkpt>
      <trkpt lat="42.40915298461914" lon="-6.8438029289245605">
        <ele>382.0</ele>
        <time>2019-04-24T09:09:04.000Z</time>
      </trkpt>
      <trkpt lat="42.409088134765625" lon="-6.843896389007568">
        <ele>382.0</ele>
        <time>2019-04-24T09:09:12.000Z</time>
      </trkpt>
      <trkpt lat="42.40902328491211" lon="-6.843993663787842">
        <ele>383.0</ele>
        <time>2019-04-24T09:09:20.000Z</time>
      </trkpt>
      <trkpt lat="42.408966064453125" lon="-6.844089031219482">
        <ele>383.0</ele>
        <time>2019-04-24T09:09:27.000Z</time>
      </trkpt>
      <trkpt lat="42.408912658691406" lon="-6.844188213348389">
        <ele>383.0</ele>
        <time>2019-04-24T09:09:35.000Z</time>
      </trkpt>
      <trkpt lat="42.40886306762695" lon="-6.844289302825928">
        <ele>383.0</ele>
        <time>2019-04-24T09:09:42.000Z</time>
      </trkpt>
      <trkpt lat="42.4088134765625" lon="-6.844391345977783">
        <ele>383.0</ele>
        <time>2019-04-24T09:09:49.000Z</time>
      </trkpt>
      <trkpt lat="42.40876388549805" lon="-6.844491958618164">
        <ele>383.0</ele>
        <time>2019-04-24T09:09:56.000Z</time>
      </trkpt>
      <trkpt lat="42.408714294433594" lon="-6.844593524932861">
        <ele>382.0</ele>
        <time>2019-04-24T09:10:04.000Z</time>
      </trkpt>
      <trkpt lat="42.40866470336914" lon="-6.844695568084717">
        <ele>382.0</ele>
        <time>2019-04-24T09:10:11.000Z</time>
      </trkpt>
      <trkpt lat="42.40861892700195" lon="-6.844797611236572">
        <ele>381.0</ele>
        <time>2019-04-24T09:10:18.000Z</time>
      </trkpt>
      <trkpt lat="42.408573150634766" lon="-6.844902038574219">
        <ele>381.0</ele>
        <time>2019-04-24T09:10:27.000Z</time>
      </trkpt>
      <trkpt lat="42.40853500366211" lon="-6.845008373260498">
        <ele>380.0</ele>
        <time>2019-04-24T09:10:35.000Z</time>
      </trkpt>
      <trkpt lat="42.40849685668945" lon="-6.8451151847839355">
        <ele>380.0</ele>
        <time>2019-04-24T09:10:44.000Z</time>
      </trkpt>
      <trkpt lat="42.4084587097168" lon="-6.845222473144531">
        <ele>380.0</ele>
        <time>2019-04-24T09:10:52.000Z</time>
      </trkpt>
      <trkpt lat="42.40842819213867" lon="-6.845333099365234">
        <ele>380.0</ele>
        <time>2019-04-24T09:11:00.000Z</time>
      </trkpt>
      <trkpt lat="42.40840530395508" lon="-6.8454461097717285">
        <ele>381.0</ele>
        <time>2019-04-24T09:11:09.000Z</time>
      </trkpt>
      <trkpt lat="42.40838623046875" lon="-6.845560550689697">
        <ele>381.0</ele>
        <time>2019-04-24T09:11:17.000Z</time>
      </trkpt>
      <trkpt lat="42.40836715698242" lon="-6.845675468444824">
        <ele>382.0</ele>
        <time>2019-04-24T09:11:25.000Z</time>
      </trkpt>
      <trkpt lat="42.4083137512207" lon="-6.846144199371338">
        <ele>384.0</ele>
        <time>2019-04-24T09:12:00.000Z</time>
      </trkpt>
      <trkpt lat="42.40824890136719" lon="-6.846374034881592">
        <ele>386.0</ele>
        <time>2019-04-24T09:12:22.000Z</time>
      </trkpt>
      <trkpt lat="42.40824508666992" lon="-6.846432685852051">
        <ele>389.0</ele>
        <time>2019-04-24T09:12:48.000Z</time>
      </trkpt>
      <trkpt lat="42.40824508666992" lon="-6.84647274017334">
        <ele>389.0</ele>
        <time>2019-04-24T09:12:49.000Z</time>
      </trkpt>
      <trkpt lat="42.40821075439453" lon="-6.84680700302124">
        <ele>390.0</ele>
        <time>2019-04-24T09:13:03.000Z</time>
      </trkpt>
      <trkpt lat="42.40818786621094" lon="-6.8468780517578125">
        <ele>392.0</ele>
        <time>2019-04-24T09:13:27.000Z</time>
      </trkpt>
      <trkpt lat="42.40817642211914" lon="-6.84691858291626">
        <ele>392.0</ele>
        <time>2019-04-24T09:13:28.000Z</time>
      </trkpt>
      <trkpt lat="42.40813064575195" lon="-6.847059726715088">
        <ele>392.0</ele>
        <time>2019-04-24T09:13:33.000Z</time>
      </trkpt>
      <trkpt lat="42.408119201660156" lon="-6.847113609313965">
        <ele>394.0</ele>
        <time>2019-04-24T09:13:46.000Z</time>
      </trkpt>
      <trkpt lat="42.408111572265625" lon="-6.8471503257751465">
        <ele>394.0</ele>
        <time>2019-04-24T09:13:47.000Z</time>
      </trkpt>
      <trkpt lat="42.40799331665039" lon="-6.847616672515869">
        <ele>398.0</ele>
        <time>2019-04-24T09:14:06.000Z</time>
      </trkpt>
      <trkpt lat="42.40788269042969" lon="-6.848067760467529">
        <ele>403.0</ele>
        <time>2019-04-24T09:14:41.000Z</time>
      </trkpt>
      <trkpt lat="42.40778350830078" lon="-6.848529815673828">
        <ele>405.0</ele>
        <time>2019-04-24T09:15:14.000Z</time>
      </trkpt>
      <trkpt lat="42.40768814086914" lon="-6.848987102508545">
        <ele>408.0</ele>
        <time>2019-04-24T09:15:50.000Z</time>
      </trkpt>
      <trkpt lat="42.40757751464844" lon="-6.849445819854736">
        <ele>411.0</ele>
        <time>2019-04-24T09:16:19.000Z</time>
      </trkpt>
      <trkpt lat="42.40760040283203" lon="-6.849926471710205">
        <ele>410.0</ele>
        <time>2019-04-24T09:16:52.000Z</time>
      </trkpt>
      <trkpt lat="42.40751647949219" lon="-6.850409507751465">
        <ele>407.0</ele>
        <time>2019-04-24T09:17:23.000Z</time>
      </trkpt>
      <trkpt lat="42.407508850097656" lon="-6.850882053375244">
        <ele>401.0</ele>
        <time>2019-04-24T09:17:55.000Z</time>
      </trkpt>
      <trkpt lat="42.407470703125" lon="-6.85136604309082">
        <ele>399.0</ele>
        <time>2019-04-24T09:18:26.000Z</time>
      </trkpt>
      <trkpt lat="42.4074821472168" lon="-6.8518524169921875">
        <ele>400.0</ele>
        <time>2019-04-24T09:18:58.000Z</time>
      </trkpt>
      <trkpt lat="42.40757751464844" lon="-6.852321624755859">
        <ele>401.0</ele>
        <time>2019-04-24T09:19:30.000Z</time>
      </trkpt>
      <trkpt lat="42.40771484375" lon="-6.852768421173096">
        <ele>392.0</ele>
        <time>2019-04-24T09:20:02.000Z</time>
      </trkpt>
      <trkpt lat="42.40789031982422" lon="-6.853047847747803">
        <ele>388.0</ele>
        <time>2019-04-24T09:20:26.000Z</time>
      </trkpt>
      <trkpt lat="42.40789794921875" lon="-6.853099822998047">
        <ele>388.0</ele>
        <time>2019-04-24T09:20:28.000Z</time>
      </trkpt>
      <trkpt lat="42.40789031982422" lon="-6.853144645690918">
        <ele>388.0</ele>
        <time>2019-04-24T09:20:31.000Z</time>
      </trkpt>
      <trkpt lat="42.407875061035156" lon="-6.853184700012207">
        <ele>388.0</ele>
        <time>2019-04-24T09:20:33.000Z</time>
      </trkpt>
      <trkpt lat="42.40785217285156" lon="-6.853221893310547">
        <ele>389.0</ele>
        <time>2019-04-24T09:20:35.000Z</time>
      </trkpt>
      <trkpt lat="42.40781021118164" lon="-6.853249549865723">
        <ele>389.0</ele>
        <time>2019-04-24T09:20:40.000Z</time>
      </trkpt>
      <trkpt lat="42.40775680541992" lon="-6.853270053863525">
        <ele>390.0</ele>
        <time>2019-04-24T09:20:44.000Z</time>
      </trkpt>
      <trkpt lat="42.407691955566406" lon="-6.853285789489746">
        <ele>391.0</ele>
        <time>2019-04-24T09:20:49.000Z</time>
      </trkpt>
      <trkpt lat="42.407623291015625" lon="-6.853299617767334">
        <ele>393.0</ele>
        <time>2019-04-24T09:20:53.000Z</time>
      </trkpt>
      <trkpt lat="42.40756607055664" lon="-6.853359222412109">
        <ele>395.0</ele>
        <time>2019-04-24T09:20:59.000Z</time>
      </trkpt>
      <trkpt lat="42.40753173828125" lon="-6.853428840637207">
        <ele>397.0</ele>
        <time>2019-04-24T09:21:05.000Z</time>
      </trkpt>
      <trkpt lat="42.4074821472168" lon="-6.853498935699463">
        <ele>398.0</ele>
        <time>2019-04-24T09:21:13.000Z</time>
      </trkpt>
      <trkpt lat="42.40741729736328" lon="-6.853584289550781">
        <ele>398.0</ele>
        <time>2019-04-24T09:21:20.000Z</time>
      </trkpt>
      <trkpt lat="42.4073486328125" lon="-6.853680610656738">
        <ele>397.0</ele>
        <time>2019-04-24T09:21:28.000Z</time>
      </trkpt>
      <trkpt lat="42.40727233886719" lon="-6.8537821769714355">
        <ele>397.0</ele>
        <time>2019-04-24T09:21:35.000Z</time>
      </trkpt>
      <trkpt lat="42.407203674316406" lon="-6.8538618087768555">
        <ele>396.0</ele>
        <time>2019-04-24T09:21:44.000Z</time>
      </trkpt>
      <trkpt lat="42.407135009765625" lon="-6.853938102722168">
        <ele>395.0</ele>
        <time>2019-04-24T09:21:53.000Z</time>
      </trkpt>
      <trkpt lat="42.40706253051758" lon="-6.8540120124816895">
        <ele>394.0</ele>
        <time>2019-04-24T09:22:02.000Z</time>
      </trkpt>
      <trkpt lat="42.40699005126953" lon="-6.8540849685668945">
        <ele>392.0</ele>
        <time>2019-04-24T09:22:11.000Z</time>
      </trkpt>
      <trkpt lat="42.40693664550781" lon="-6.854176998138428">
        <ele>390.0</ele>
        <time>2019-04-24T09:22:19.000Z</time>
      </trkpt>
      <trkpt lat="42.406883239746094" lon="-6.854276657104492">
        <ele>388.0</ele>
        <time>2019-04-24T09:22:26.000Z</time>
      </trkpt>
      <trkpt lat="42.406837463378906" lon="-6.854380130767822">
        <ele>387.0</ele>
        <time>2019-04-24T09:22:34.000Z</time>
      </trkpt>
      <trkpt lat="42.40679168701172" lon="-6.854486465454102">
        <ele>385.0</ele>
        <time>2019-04-24T09:22:41.000Z</time>
      </trkpt>
      <trkpt lat="42.40673828125" lon="-6.8545823097229">
        <ele>384.0</ele>
        <time>2019-04-24T09:22:49.000Z</time>
      </trkpt>
      <trkpt lat="42.40667724609375" lon="-6.854676246643066">
        <ele>385.0</ele>
        <time>2019-04-24T09:22:57.000Z</time>
      </trkpt>
      <trkpt lat="42.406620025634766" lon="-6.854769229888916">
        <ele>386.0</ele>
        <time>2019-04-24T09:23:05.000Z</time>
      </trkpt>
      <trkpt lat="42.406558990478516" lon="-6.854861259460449">
        <ele>387.0</ele>
        <time>2019-04-24T09:23:13.000Z</time>
      </trkpt>
      <trkpt lat="42.40651321411133" lon="-6.8549652099609375">
        <ele>387.0</ele>
        <time>2019-04-24T09:23:20.000Z</time>
      </trkpt>
      <trkpt lat="42.406471252441406" lon="-6.855073928833008">
        <ele>387.0</ele>
        <time>2019-04-24T09:23:28.000Z</time>
      </trkpt>
      <trkpt lat="42.40643310546875" lon="-6.855185508728027">
        <ele>387.0</ele>
        <time>2019-04-24T09:23:35.000Z</time>
      </trkpt>
      <trkpt lat="42.40639877319336" lon="-6.8552985191345215">
        <ele>387.0</ele>
        <time>2019-04-24T09:23:42.000Z</time>
      </trkpt>
      <trkpt lat="42.4062385559082" lon="-6.855741024017334">
        <ele>384.0</ele>
        <time>2019-04-24T09:24:10.000Z</time>
      </trkpt>
      <trkpt lat="42.4061279296875" lon="-6.856197357177734">
        <ele>377.0</ele>
        <time>2019-04-24T09:24:42.000Z</time>
      </trkpt>
      <trkpt lat="42.40595626831055" lon="-6.856602668762207">
        <ele>375.0</ele>
        <time>2019-04-24T09:25:09.000Z</time>
      </trkpt>
      <trkpt lat="42.40584182739258" lon="-6.857051849365234">
        <ele>378.0</ele>
        <time>2019-04-24T09:25:36.000Z</time>
      </trkpt>
      <trkpt lat="42.40568923950195" lon="-6.857476711273193">
        <ele>378.0</ele>
        <time>2019-04-24T09:26:04.000Z</time>
      </trkpt>
      <trkpt lat="42.40546417236328" lon="-6.857855319976807">
        <ele>380.0</ele>
        <time>2019-04-24T09:26:36.000Z</time>
      </trkpt>
      <trkpt lat="42.40532302856445" lon="-6.858290672302246">
        <ele>380.0</ele>
        <time>2019-04-24T09:27:04.000Z</time>
      </trkpt>
      <trkpt lat="42.405277252197266" lon="-6.858774662017822">
        <ele>377.0</ele>
        <time>2019-04-24T09:27:36.000Z</time>
      </trkpt>
      <trkpt lat="42.40522766113281" lon="-6.859245777130127">
        <ele>374.0</ele>
        <time>2019-04-24T09:28:08.000Z</time>
      </trkpt>
      <trkpt lat="42.40522003173828" lon="-6.859366416931152">
        <ele>373.0</ele>
        <time>2019-04-24T09:28:16.000Z</time>
      </trkpt>
      <trkpt lat="42.40519332885742" lon="-6.859428882598877">
        <ele>367.0</ele>
        <time>2019-04-24T09:28:34.000Z</time>
      </trkpt>
      <trkpt lat="42.40517807006836" lon="-6.859467029571533">
        <ele>367.0</ele>
        <time>2019-04-24T09:28:35.000Z</time>
      </trkpt>
      <trkpt lat="42.405067443847656" lon="-6.859920978546143">
        <ele>364.0</ele>
        <time>2019-04-24T09:28:58.000Z</time>
      </trkpt>
      <trkpt lat="42.40501022338867" lon="-6.860058784484863">
        <ele>361.0</ele>
        <time>2019-04-24T09:29:14.000Z</time>
      </trkpt>
      <trkpt lat="42.40501022338867" lon="-6.860074996948242">
        <ele>360.0</ele>
        <time>2019-04-24T09:29:18.000Z</time>
      </trkpt>
      <trkpt lat="42.4050178527832" lon="-6.860083103179932">
        <ele>360.0</ele>
        <time>2019-04-24T09:29:21.000Z</time>
      </trkpt>
      <trkpt lat="42.405025482177734" lon="-6.860086441040039">
        <ele>359.0</ele>
        <time>2019-04-24T09:29:25.000Z</time>
      </trkpt>
      <trkpt lat="42.4050407409668" lon="-6.860086917877197">
        <ele>359.0</ele>
        <time>2019-04-24T09:29:28.000Z</time>
      </trkpt>
      <trkpt lat="42.40504455566406" lon="-6.860092639923096">
        <ele>358.0</ele>
        <time>2019-04-24T09:29:29.000Z</time>
      </trkpt>
      <trkpt lat="42.405052185058594" lon="-6.860097408294678">
        <ele>358.0</ele>
        <time>2019-04-24T09:29:29.000Z</time>
      </trkpt>
      <trkpt lat="42.40505599975586" lon="-6.86010217666626">
        <ele>358.0</ele>
        <time>2019-04-24T09:29:29.000Z</time>
      </trkpt>
      <trkpt lat="42.40506362915039" lon="-6.860106468200684">
        <ele>359.0</ele>
        <time>2019-04-24T09:29:29.000Z</time>
      </trkpt>
      <trkpt lat="42.40509033203125" lon="-6.860134601593018">
        <ele>358.0</ele>
        <time>2019-04-24T09:29:31.000Z</time>
      </trkpt>
      <trkpt lat="42.40512466430664" lon="-6.860172748565674">
        <ele>358.0</ele>
        <time>2019-04-24T09:29:33.000Z</time>
      </trkpt>
      <trkpt lat="42.40516662597656" lon="-6.860217571258545">
        <ele>358.0</ele>
        <time>2019-04-24T09:29:35.000Z</time>
      </trkpt>
      <trkpt lat="42.40521240234375" lon="-6.860265731811523">
        <ele>357.0</ele>
        <time>2019-04-24T09:29:36.000Z</time>
      </trkpt>
      <trkpt lat="42.405216217041016" lon="-6.860299587249756">
        <ele>357.0</ele>
        <time>2019-04-24T09:29:40.000Z</time>
      </trkpt>
      <trkpt lat="42.40520477294922" lon="-6.860331058502197">
        <ele>357.0</ele>
        <time>2019-04-24T09:29:43.000Z</time>
      </trkpt>
      <trkpt lat="42.40518569946289" lon="-6.860361099243164">
        <ele>356.0</ele>
        <time>2019-04-24T09:29:47.000Z</time>
      </trkpt>
      <trkpt lat="42.40515899658203" lon="-6.8603901863098145">
        <ele>356.0</ele>
        <time>2019-04-24T09:29:50.000Z</time>
      </trkpt>
      <trkpt lat="42.40516662597656" lon="-6.860418319702148">
        <ele>357.0</ele>
        <time>2019-04-24T09:30:06.000Z</time>
      </trkpt>
      <trkpt lat="42.405181884765625" lon="-6.860445022583008">
        <ele>360.0</ele>
        <time>2019-04-24T09:30:21.000Z</time>
      </trkpt>
      <trkpt lat="42.40520095825195" lon="-6.860470771789551">
        <ele>362.0</ele>
        <time>2019-04-24T09:30:37.000Z</time>
      </trkpt>
      <trkpt lat="42.40522384643555" lon="-6.860496520996094">
        <ele>365.0</ele>
        <time>2019-04-24T09:30:52.000Z</time>
      </trkpt>
      <trkpt lat="42.405235290527344" lon="-6.860511302947998">
        <ele>366.0</ele>
        <time>2019-04-24T09:30:52.000Z</time>
      </trkpt>
      <trkpt lat="42.40523910522461" lon="-6.86052131652832">
        <ele>366.0</ele>
        <time>2019-04-24T09:30:52.000Z</time>
      </trkpt>
      <trkpt lat="42.405242919921875" lon="-6.860527992248535">
        <ele>366.0</ele>
        <time>2019-04-24T09:30:53.000Z</time>
      </trkpt>
      <trkpt lat="42.40524673461914" lon="-6.860532760620117">
        <ele>365.0</ele>
        <time>2019-04-24T09:30:53.000Z</time>
      </trkpt>
      <trkpt lat="42.405277252197266" lon="-6.860581874847412">
        <ele>367.0</ele>
        <time>2019-04-24T09:30:59.000Z</time>
      </trkpt>
      <trkpt lat="42.40531921386719" lon="-6.860647678375244">
        <ele>369.0</ele>
        <time>2019-04-24T09:31:06.000Z</time>
      </trkpt>
      <trkpt lat="42.40536880493164" lon="-6.860724449157715">
        <ele>371.0</ele>
        <time>2019-04-24T09:31:12.000Z</time>
      </trkpt>
      <trkpt lat="42.40542221069336" lon="-6.860806465148926">
        <ele>374.0</ele>
        <time>2019-04-24T09:31:19.000Z</time>
      </trkpt>
      <trkpt lat="42.40544509887695" lon="-6.860888481140137">
        <ele>376.0</ele>
        <time>2019-04-24T09:31:28.000Z</time>
      </trkpt>
      <trkpt lat="42.40543746948242" lon="-6.860945224761963">
        <ele>378.0</ele>
        <time>2019-04-24T09:31:37.000Z</time>
      </trkpt>
      <trkpt lat="42.40543746948242" lon="-6.860964298248291">
        <ele>378.0</ele>
        <time>2019-04-24T09:31:37.000Z</time>
      </trkpt>
      <trkpt lat="42.40544128417969" lon="-6.8609771728515625">
        <ele>378.0</ele>
        <time>2019-04-24T09:31:37.000Z</time>
      </trkpt>
      <trkpt lat="42.40544128417969" lon="-6.860986232757568">
        <ele>378.0</ele>
        <time>2019-04-24T09:31:38.000Z</time>
      </trkpt>
      <trkpt lat="42.40544128417969" lon="-6.860992431640625">
        <ele>378.0</ele>
        <time>2019-04-24T09:31:38.000Z</time>
      </trkpt>
      <trkpt lat="42.40544509887695" lon="-6.861076354980469">
        <ele>378.0</ele>
        <time>2019-04-24T09:31:45.000Z</time>
      </trkpt>
      <trkpt lat="42.40544891357422" lon="-6.861190319061279">
        <ele>379.0</ele>
        <time>2019-04-24T09:31:52.000Z</time>
      </trkpt>
      <trkpt lat="42.405452728271484" lon="-6.861323833465576">
        <ele>379.0</ele>
        <time>2019-04-24T09:31:59.000Z</time>
      </trkpt>
      <trkpt lat="42.40545654296875" lon="-6.8614678382873535">
        <ele>380.0</ele>
        <time>2019-04-24T09:32:06.000Z</time>
      </trkpt>
      <trkpt lat="42.40546417236328" lon="-6.861588001251221">
        <ele>380.0</ele>
        <time>2019-04-24T09:32:14.000Z</time>
      </trkpt>
      <trkpt lat="42.40547180175781" lon="-6.861709117889404">
        <ele>380.0</ele>
        <time>2019-04-24T09:32:21.000Z</time>
      </trkpt>
      <trkpt lat="42.405479431152344" lon="-6.861830711364746">
        <ele>380.0</ele>
        <time>2019-04-24T09:32:29.000Z</time>
      </trkpt>
      <trkpt lat="42.405487060546875" lon="-6.861952781677246">
        <ele>380.0</ele>
        <time>2019-04-24T09:32:37.000Z</time>
      </trkpt>
      <trkpt lat="42.405487060546875" lon="-6.86207389831543">
        <ele>380.0</ele>
        <time>2019-04-24T09:32:44.000Z</time>
      </trkpt>
      <trkpt lat="42.40548324584961" lon="-6.862195014953613">
        <ele>379.0</ele>
        <time>2019-04-24T09:32:51.000Z</time>
      </trkpt>
      <trkpt lat="42.405479431152344" lon="-6.862316131591797">
        <ele>378.0</ele>
        <time>2019-04-24T09:32:58.000Z</time>
      </trkpt>
      <trkpt lat="42.40547180175781" lon="-6.8624372482299805">
        <ele>377.0</ele>
        <time>2019-04-24T09:33:05.000Z</time>
      </trkpt>
      <trkpt lat="42.40548324584961" lon="-6.862558364868164">
        <ele>376.0</ele>
        <time>2019-04-24T09:33:13.000Z</time>
      </trkpt>
      <trkpt lat="42.40549850463867" lon="-6.862679481506348">
        <ele>375.0</ele>
        <time>2019-04-24T09:33:21.000Z</time>
      </trkpt>
      <trkpt lat="42.405517578125" lon="-6.862800598144531">
        <ele>374.0</ele>
        <time>2019-04-24T09:33:29.000Z</time>
      </trkpt>
      <trkpt lat="42.40553665161133" lon="-6.862921714782715">
        <ele>372.0</ele>
        <time>2019-04-24T09:33:37.000Z</time>
      </trkpt>
      <trkpt lat="42.40563201904297" lon="-6.863386631011963">
        <ele>372.0</ele>
        <time>2019-04-24T09:34:10.000Z</time>
      </trkpt>
      <trkpt lat="42.40563201904297" lon="-6.863687992095947">
        <ele>374.0</ele>
        <time>2019-04-24T09:34:27.000Z</time>
      </trkpt>
      <trkpt lat="42.4056510925293" lon="-6.863739013671875">
        <ele>374.0</ele>
        <time>2019-04-24T09:34:31.000Z</time>
      </trkpt>
      <trkpt lat="42.40567398071289" lon="-6.863779067993164">
        <ele>374.0</ele>
        <time>2019-04-24T09:34:34.000Z</time>
      </trkpt>
      <trkpt lat="42.40570068359375" lon="-6.8638129234313965">
        <ele>373.0</ele>
        <time>2019-04-24T09:34:38.000Z</time>
      </trkpt>
      <trkpt lat="42.40572738647461" lon="-6.863842964172363">
        <ele>373.0</ele>
        <time>2019-04-24T09:34:42.000Z</time>
      </trkpt>
      <trkpt lat="42.4057502746582" lon="-6.864056587219238">
        <ele>374.0</ele>
        <time>2019-04-24T09:34:57.000Z</time>
      </trkpt>
      <trkpt lat="42.405757904052734" lon="-6.864333152770996">
        <ele>376.0</ele>
        <time>2019-04-24T09:35:13.000Z</time>
      </trkpt>
      <trkpt lat="42.4057731628418" lon="-6.86445426940918">
        <ele>376.0</ele>
        <time>2019-04-24T09:35:20.000Z</time>
      </trkpt>
      <trkpt lat="42.405792236328125" lon="-6.864574909210205">
        <ele>376.0</ele>
        <time>2019-04-24T09:35:27.000Z</time>
      </trkpt>
      <trkpt lat="42.40581130981445" lon="-6.864695072174072">
        <ele>376.0</ele>
        <time>2019-04-24T09:35:35.000Z</time>
      </trkpt>
      <trkpt lat="42.40583419799805" lon="-6.864814758300781">
        <ele>376.0</ele>
        <time>2019-04-24T09:35:42.000Z</time>
      </trkpt>
      <trkpt lat="42.40585708618164" lon="-6.864931583404541">
        <ele>376.0</ele>
        <time>2019-04-24T09:35:50.000Z</time>
      </trkpt>
      <trkpt lat="42.40587615966797" lon="-6.865046977996826">
        <ele>376.0</ele>
        <time>2019-04-24T09:35:58.000Z</time>
      </trkpt>
      <trkpt lat="42.40589904785156" lon="-6.865161418914795">
        <ele>377.0</ele>
        <time>2019-04-24T09:36:06.000Z</time>
      </trkpt>
      <trkpt lat="42.405921936035156" lon="-6.8652753829956055">
        <ele>377.0</ele>
        <time>2019-04-24T09:36:14.000Z</time>
      </trkpt>
      <trkpt lat="42.40596389770508" lon="-6.865376949310303">
        <ele>376.0</ele>
        <time>2019-04-24T09:36:22.000Z</time>
      </trkpt>
      <trkpt lat="42.4060173034668" lon="-6.865473747253418">
        <ele>376.0</ele>
        <time>2019-04-24T09:36:30.000Z</time>
      </trkpt>
      <trkpt lat="42.40607452392578" lon="-6.865566253662109">
        <ele>375.0</ele>
        <time>2019-04-24T09:36:39.000Z</time>
      </trkpt>
      <trkpt lat="42.40613555908203" lon="-6.865657329559326">
        <ele>374.0</ele>
        <time>2019-04-24T09:36:47.000Z</time>
      </trkpt>
      <trkpt lat="42.406158447265625" lon="-6.865694046020508">
        <ele>373.0</ele>
        <time>2019-04-24T09:36:50.000Z</time>
      </trkpt>
      <trkpt lat="42.40617370605469" lon="-6.865705490112305">
        <ele>373.0</ele>
        <time>2019-04-24T09:36:53.000Z</time>
      </trkpt>
      <trkpt lat="42.40617752075195" lon="-6.865700721740723">
        <ele>373.0</ele>
        <time>2019-04-24T09:36:56.000Z</time>
      </trkpt>
      <trkpt lat="42.40617752075195" lon="-6.865687847137451">
        <ele>373.0</ele>
        <time>2019-04-24T09:36:59.000Z</time>
      </trkpt>
      <trkpt lat="42.406185150146484" lon="-6.865701675415039">
        <ele>373.0</ele>
        <time>2019-04-24T09:37:12.000Z</time>
      </trkpt>
      <trkpt lat="42.406192779541016" lon="-6.865718364715576">
        <ele>372.0</ele>
        <time>2019-04-24T09:37:26.000Z</time>
      </trkpt>
      <trkpt lat="42.40619659423828" lon="-6.865736484527588">
        <ele>372.0</ele>
        <time>2019-04-24T09:37:39.000Z</time>
      </trkpt>
      <trkpt lat="42.40620040893555" lon="-6.865755558013916">
        <ele>372.0</ele>
        <time>2019-04-24T09:37:53.000Z</time>
      </trkpt>
      <trkpt lat="42.40620422363281" lon="-6.865767478942871">
        <ele>372.0</ele>
        <time>2019-04-24T09:37:53.000Z</time>
      </trkpt>
      <trkpt lat="42.40620803833008" lon="-6.865777969360352">
        <ele>372.0</ele>
        <time>2019-04-24T09:37:53.000Z</time>
      </trkpt>
      <trkpt lat="42.406211853027344" lon="-6.865787029266357">
        <ele>372.0</ele>
        <time>2019-04-24T09:37:54.000Z</time>
      </trkpt>
      <trkpt lat="42.40621566772461" lon="-6.865795135498047">
        <ele>372.0</ele>
        <time>2019-04-24T09:37:54.000Z</time>
      </trkpt>
      <trkpt lat="42.40622329711914" lon="-6.865828514099121">
        <ele>372.0</ele>
        <time>2019-04-24T09:37:55.000Z</time>
      </trkpt>
      <trkpt lat="42.40623092651367" lon="-6.865870952606201">
        <ele>372.0</ele>
        <time>2019-04-24T09:37:56.000Z</time>
      </trkpt>
      <trkpt lat="42.4062385559082" lon="-6.865920066833496">
        <ele>372.0</ele>
        <time>2019-04-24T09:37:58.000Z</time>
      </trkpt>
      <trkpt lat="42.406246185302734" lon="-6.865972518920898">
        <ele>372.0</ele>
        <time>2019-04-24T09:37:59.000Z</time>
      </trkpt>
      <trkpt lat="42.40623092651367" lon="-6.865993976593018">
        <ele>372.0</ele>
        <time>2019-04-24T09:38:02.000Z</time>
      </trkpt>
      <trkpt lat="42.40620803833008" lon="-6.8660054206848145">
        <ele>372.0</ele>
        <time>2019-04-24T09:38:05.000Z</time>
      </trkpt>
      <trkpt lat="42.40617370605469" lon="-6.866011142730713">
        <ele>372.0</ele>
        <time>2019-04-24T09:38:08.000Z</time>
      </trkpt>
      <trkpt lat="42.4061393737793" lon="-6.866013050079346">
        <ele>373.0</ele>
        <time>2019-04-24T09:38:11.000Z</time>
      </trkpt>
      <trkpt lat="42.406105041503906" lon="-6.866035461425781">
        <ele>373.0</ele>
        <time>2019-04-24T09:38:17.000Z</time>
      </trkpt>
      <trkpt lat="42.406063079833984" lon="-6.866062641143799">
        <ele>373.0</ele>
        <time>2019-04-24T09:38:22.000Z</time>
      </trkpt>
      <trkpt lat="42.4060173034668" lon="-6.866093158721924">
        <ele>373.0</ele>
        <time>2019-04-24T09:38:28.000Z</time>
      </trkpt>
      <trkpt lat="42.405975341796875" lon="-6.866125106811523">
        <ele>373.0</ele>
        <time>2019-04-24T09:38:34.000Z</time>
      </trkpt>
      <trkpt lat="42.40593719482422" lon="-6.86616325378418">
        <ele>373.0</ele>
        <time>2019-04-24T09:38:39.000Z</time>
      </trkpt>
      <trkpt lat="42.40590286254883" lon="-6.866205215454102">
        <ele>373.0</ele>
        <time>2019-04-24T09:38:44.000Z</time>
      </trkpt>
      <trkpt lat="42.40586853027344" lon="-6.866250514984131">
        <ele>373.0</ele>
        <time>2019-04-24T09:38:50.000Z</time>
      </trkpt>
      <trkpt lat="42.40583419799805" lon="-6.866296768188477">
        <ele>373.0</ele>
        <time>2019-04-24T09:38:55.000Z</time>
      </trkpt>
      <trkpt lat="42.405799865722656" lon="-6.866408348083496">
        <ele>372.0</ele>
        <time>2019-04-24T09:39:05.000Z</time>
      </trkpt>
      <trkpt lat="42.40577697753906" lon="-6.8665313720703125">
        <ele>372.0</ele>
        <time>2019-04-24T09:39:15.000Z</time>
      </trkpt>
      <trkpt lat="42.405765533447266" lon="-6.866592884063721">
        <ele>373.0</ele>
        <time>2019-04-24T09:39:20.000Z</time>
      </trkpt>
      <trkpt lat="42.405757904052734" lon="-6.866655349731445">
        <ele>374.0</ele>
        <time>2019-04-24T09:39:26.000Z</time>
      </trkpt>
      <trkpt lat="42.4057502746582" lon="-6.8667192459106445">
        <ele>375.0</ele>
        <time>2019-04-24T09:39:31.000Z</time>
      </trkpt>
      <trkpt lat="42.40574645996094" lon="-6.866783142089844">
        <ele>377.0</ele>
        <time>2019-04-24T09:39:37.000Z</time>
      </trkpt>
      <trkpt lat="42.40574645996094" lon="-6.866827964782715">
        <ele>377.0</ele>
        <time>2019-04-24T09:39:41.000Z</time>
      </trkpt>
      <trkpt lat="42.4057502746582" lon="-6.866865634918213">
        <ele>377.0</ele>
        <time>2019-04-24T09:39:46.000Z</time>
      </trkpt>
      <trkpt lat="42.40575408935547" lon="-6.866898536682129">
        <ele>376.0</ele>
        <time>2019-04-24T09:39:50.000Z</time>
      </trkpt>
      <trkpt lat="42.40576171875" lon="-6.866929054260254">
        <ele>376.0</ele>
        <time>2019-04-24T09:39:55.000Z</time>
      </trkpt>
      <trkpt lat="42.40576171875" lon="-6.866960525512695">
        <ele>376.0</ele>
        <time>2019-04-24T09:40:16.000Z</time>
      </trkpt>
      <trkpt lat="42.405765533447266" lon="-6.866990566253662">
        <ele>375.0</ele>
        <time>2019-04-24T09:40:37.000Z</time>
      </trkpt>
      <trkpt lat="42.405765533447266" lon="-6.867019176483154">
        <ele>375.0</ele>
        <time>2019-04-24T09:40:59.000Z</time>
      </trkpt>
      <trkpt lat="42.405765533447266" lon="-6.86704683303833">
        <ele>375.0</ele>
        <time>2019-04-24T09:41:20.000Z</time>
      </trkpt>
      <trkpt lat="42.40576934814453" lon="-6.867064952850342">
        <ele>375.0</ele>
        <time>2019-04-24T09:41:20.000Z</time>
      </trkpt>
      <trkpt lat="42.40576934814453" lon="-6.867077827453613">
        <ele>375.0</ele>
        <time>2019-04-24T09:41:20.000Z</time>
      </trkpt>
      <trkpt lat="42.40576934814453" lon="-6.867087364196777">
        <ele>375.0</ele>
        <time>2019-04-24T09:41:21.000Z</time>
      </trkpt>
      <trkpt lat="42.40576934814453" lon="-6.867095470428467">
        <ele>375.0</ele>
        <time>2019-04-24T09:41:21.000Z</time>
      </trkpt>
      <trkpt lat="42.4057731628418" lon="-6.86713981628418">
        <ele>375.0</ele>
        <time>2019-04-24T09:41:23.000Z</time>
      </trkpt>
      <trkpt lat="42.40578079223633" lon="-6.8671979904174805">
        <ele>376.0</ele>
        <time>2019-04-24T09:41:25.000Z</time>
      </trkpt>
      <trkpt lat="42.40578842163086" lon="-6.867265224456787">
        <ele>376.0</ele>
        <time>2019-04-24T09:41:28.000Z</time>
      </trkpt>
      <trkpt lat="42.40579605102539" lon="-6.867336750030518">
        <ele>376.0</ele>
        <time>2019-04-24T09:41:30.000Z</time>
      </trkpt>
      <trkpt lat="42.40581512451172" lon="-6.867602348327637">
        <ele>378.0</ele>
        <time>2019-04-24T09:41:47.000Z</time>
      </trkpt>
      <trkpt lat="42.40583801269531" lon="-6.867867469787598">
        <ele>379.0</ele>
        <time>2019-04-24T09:42:04.000Z</time>
      </trkpt>
      <trkpt lat="42.40583801269531" lon="-6.86812686920166">
        <ele>379.0</ele>
        <time>2019-04-24T09:42:20.000Z</time>
      </trkpt>
      <trkpt lat="42.405853271484375" lon="-6.868393421173096">
        <ele>380.0</ele>
        <time>2019-04-24T09:42:38.000Z</time>
      </trkpt>
      <trkpt lat="42.40582275390625" lon="-6.868645668029785">
        <ele>380.0</ele>
        <time>2019-04-24T09:42:56.000Z</time>
      </trkpt>
      <trkpt lat="42.405818939208984" lon="-6.868899345397949">
        <ele>381.0</ele>
        <time>2019-04-24T09:43:13.000Z</time>
      </trkpt>
      <trkpt lat="42.40583038330078" lon="-6.869162082672119">
        <ele>382.0</ele>
        <time>2019-04-24T09:43:30.000Z</time>
      </trkpt>
      <trkpt lat="42.405853271484375" lon="-6.8696370124816895">
        <ele>383.0</ele>
        <time>2019-04-24T09:44:01.000Z</time>
      </trkpt>
      <trkpt lat="42.405879974365234" lon="-6.870113372802734">
        <ele>380.0</ele>
        <time>2019-04-24T09:44:32.000Z</time>
      </trkpt>
      <trkpt lat="42.405887603759766" lon="-6.8705949783325195">
        <ele>380.0</ele>
        <time>2019-04-24T09:45:05.000Z</time>
      </trkpt>
      <trkpt lat="42.4058952331543" lon="-6.871088027954102">
        <ele>381.0</ele>
        <time>2019-04-24T09:45:40.000Z</time>
      </trkpt>
      <trkpt lat="42.40595245361328" lon="-6.871571063995361">
        <ele>384.0</ele>
        <time>2019-04-24T09:46:12.000Z</time>
      </trkpt>
      <trkpt lat="42.406028747558594" lon="-6.872036457061768">
        <ele>383.0</ele>
        <time>2019-04-24T09:46:45.000Z</time>
      </trkpt>
      <trkpt lat="42.40601348876953" lon="-6.872516632080078">
        <ele>377.0</ele>
        <time>2019-04-24T09:47:24.000Z</time>
      </trkpt>
      <trkpt lat="42.40602111816406" lon="-6.872994422912598">
        <ele>372.0</ele>
        <time>2019-04-24T09:47:55.000Z</time>
      </trkpt>
      <trkpt lat="42.4059944152832" lon="-6.8734636306762695">
        <ele>368.0</ele>
        <time>2019-04-24T09:48:25.000Z</time>
      </trkpt>
      <trkpt lat="42.405982971191406" lon="-6.873945713043213">
        <ele>367.0</ele>
        <time>2019-04-24T09:48:53.000Z</time>
      </trkpt>
      <trkpt lat="42.406044006347656" lon="-6.874430179595947">
        <ele>368.0</ele>
        <time>2019-04-24T09:49:26.000Z</time>
      </trkpt>
      <trkpt lat="42.40607452392578" lon="-6.874910831451416">
        <ele>374.0</ele>
        <time>2019-04-24T09:50:02.000Z</time>
      </trkpt>
      <trkpt lat="42.40608215332031" lon="-6.875393867492676">
        <ele>377.0</ele>
        <time>2019-04-24T09:50:33.000Z</time>
      </trkpt>
      <trkpt lat="42.406150817871094" lon="-6.875864028930664">
        <ele>377.0</ele>
        <time>2019-04-24T09:51:04.000Z</time>
      </trkpt>
      <trkpt lat="42.4062385559082" lon="-6.876314640045166">
        <ele>380.0</ele>
        <time>2019-04-24T09:51:35.000Z</time>
      </trkpt>
      <trkpt lat="42.40631866455078" lon="-6.876781940460205">
        <ele>382.0</ele>
        <time>2019-04-24T09:52:03.000Z</time>
      </trkpt>
      <trkpt lat="42.406429290771484" lon="-6.877251148223877">
        <ele>379.0</ele>
        <time>2019-04-24T09:52:36.000Z</time>
      </trkpt>
      <trkpt lat="42.406497955322266" lon="-6.877732753753662">
        <ele>377.0</ele>
        <time>2019-04-24T09:53:11.000Z</time>
      </trkpt>
      <trkpt lat="42.406558990478516" lon="-6.878202438354492">
        <ele>371.0</ele>
        <time>2019-04-24T09:53:54.000Z</time>
      </trkpt>
      <trkpt lat="42.40656280517578" lon="-6.8786797523498535">
        <ele>362.0</ele>
        <time>2019-04-24T09:54:46.000Z</time>
      </trkpt>
      <trkpt lat="42.406646728515625" lon="-6.8791399002075195">
        <ele>361.0</ele>
        <time>2019-04-24T09:55:32.000Z</time>
      </trkpt>
      <trkpt lat="42.40673065185547" lon="-6.879607200622559">
        <ele>362.0</ele>
        <time>2019-04-24T09:56:08.000Z</time>
      </trkpt>
      <trkpt lat="42.40687561035156" lon="-6.880058288574219">
        <ele>362.0</ele>
        <time>2019-04-24T09:56:38.000Z</time>
      </trkpt>
      <trkpt lat="42.40696334838867" lon="-6.8805251121521">
        <ele>364.0</ele>
        <time>2019-04-24T09:57:10.000Z</time>
      </trkpt>
      <trkpt lat="42.407073974609375" lon="-6.880990028381348">
        <ele>362.0</ele>
        <time>2019-04-24T09:57:40.000Z</time>
      </trkpt>
      <trkpt lat="42.40720748901367" lon="-6.881445407867432">
        <ele>361.0</ele>
        <time>2019-04-24T09:58:09.000Z</time>
      </trkpt>
      <trkpt lat="42.407352447509766" lon="-6.88189172744751">
        <ele>362.0</ele>
        <time>2019-04-24T09:58:39.000Z</time>
      </trkpt>
      <trkpt lat="42.4074592590332" lon="-6.882361888885498">
        <ele>356.0</ele>
        <time>2019-04-24T09:59:10.000Z</time>
      </trkpt>
      <trkpt lat="42.40760803222656" lon="-6.88279390335083">
        <ele>351.0</ele>
        <time>2019-04-24T09:59:39.000Z</time>
      </trkpt>
      <trkpt lat="42.40773391723633" lon="-6.883237838745117">
        <ele>353.0</ele>
        <time>2019-04-24T10:00:09.000Z</time>
      </trkpt>
      <trkpt lat="42.40780258178711" lon="-6.8836989402771">
        <ele>354.0</ele>
        <time>2019-04-24T10:00:34.000Z</time>
      </trkpt>
      <trkpt lat="42.4078483581543" lon="-6.884183883666992">
        <ele>362.0</ele>
        <time>2019-04-24T10:01:01.000Z</time>
      </trkpt>
      <trkpt lat="42.407901763916016" lon="-6.884653091430664">
        <ele>366.0</ele>
        <time>2019-04-24T10:01:36.000Z</time>
      </trkpt>
      <trkpt lat="42.407997131347656" lon="-6.885115623474121">
        <ele>365.0</ele>
        <time>2019-04-24T10:02:08.000Z</time>
      </trkpt>
      <trkpt lat="42.408050537109375" lon="-6.885596752166748">
        <ele>366.0</ele>
        <time>2019-04-24T10:02:38.000Z</time>
      </trkpt>
      <trkpt lat="42.40810012817383" lon="-6.886071681976318">
        <ele>370.0</ele>
        <time>2019-04-24T10:03:12.000Z</time>
      </trkpt>
      <trkpt lat="42.408164978027344" lon="-6.8865437507629395">
        <ele>370.0</ele>
        <time>2019-04-24T10:03:41.000Z</time>
      </trkpt>
      <trkpt lat="42.408260345458984" lon="-6.886737823486328">
        <ele>368.0</ele>
        <time>2019-04-24T10:03:56.000Z</time>
      </trkpt>
      <trkpt lat="42.40838623046875" lon="-6.8869123458862305">
        <ele>365.0</ele>
        <time>2019-04-24T10:04:11.000Z</time>
      </trkpt>
      <trkpt lat="42.40842056274414" lon="-6.887015342712402">
        <ele>365.0</ele>
        <time>2019-04-24T10:04:18.000Z</time>
      </trkpt>
      <trkpt lat="42.408451080322266" lon="-6.887123107910156">
        <ele>364.0</ele>
        <time>2019-04-24T10:04:26.000Z</time>
      </trkpt>
      <trkpt lat="42.408477783203125" lon="-6.887234210968018">
        <ele>364.0</ele>
        <time>2019-04-24T10:04:34.000Z</time>
      </trkpt>
      <trkpt lat="42.40850067138672" lon="-6.8873467445373535">
        <ele>364.0</ele>
        <time>2019-04-24T10:04:41.000Z</time>
      </trkpt>
      <trkpt lat="42.408504486083984" lon="-6.887574195861816">
        <ele>363.0</ele>
        <time>2019-04-24T10:04:55.000Z</time>
      </trkpt>
      <trkpt lat="42.40848159790039" lon="-6.8878068923950195">
        <ele>363.0</ele>
        <time>2019-04-24T10:05:09.000Z</time>
      </trkpt>
      <trkpt lat="42.408531188964844" lon="-6.888033390045166">
        <ele>363.0</ele>
        <time>2019-04-24T10:05:23.000Z</time>
      </trkpt>
      <trkpt lat="42.408607482910156" lon="-6.8882575035095215">
        <ele>363.0</ele>
        <time>2019-04-24T10:05:36.000Z</time>
      </trkpt>
      <trkpt lat="42.408607482910156" lon="-6.888493537902832">
        <ele>364.0</ele>
        <time>2019-04-24T10:05:53.000Z</time>
      </trkpt>
      <trkpt lat="42.40857696533203" lon="-6.888734817504883">
        <ele>365.0</ele>
        <time>2019-04-24T10:06:09.000Z</time>
      </trkpt>
      <trkpt lat="42.40856170654297" lon="-6.888853549957275">
        <ele>366.0</ele>
        <time>2019-04-24T10:06:17.000Z</time>
      </trkpt>
      <trkpt lat="42.408538818359375" lon="-6.88897180557251">
        <ele>366.0</ele>
        <time>2019-04-24T10:06:25.000Z</time>
      </trkpt>
      <trkpt lat="42.40851974487305" lon="-6.889089584350586">
        <ele>367.0</ele>
        <time>2019-04-24T10:06:33.000Z</time>
      </trkpt>
      <trkpt lat="42.40849304199219" lon="-6.889207363128662">
        <ele>368.0</ele>
        <time>2019-04-24T10:06:41.000Z</time>
      </trkpt>
      <trkpt lat="42.40851974487305" lon="-6.889367580413818">
        <ele>368.0</ele>
        <time>2019-04-24T10:06:52.000Z</time>
      </trkpt>
      <trkpt lat="42.40857696533203" lon="-6.889492988586426">
        <ele>369.0</ele>
        <time>2019-04-24T10:07:03.000Z</time>
      </trkpt>
      <trkpt lat="42.40856170654297" lon="-6.8895487785339355">
        <ele>369.0</ele>
        <time>2019-04-24T10:07:08.000Z</time>
      </trkpt>
      <trkpt lat="42.40853500366211" lon="-6.889598369598389">
        <ele>368.0</ele>
        <time>2019-04-24T10:07:13.000Z</time>
      </trkpt>
      <trkpt lat="42.40849685668945" lon="-6.889643669128418">
        <ele>368.0</ele>
        <time>2019-04-24T10:07:17.000Z</time>
      </trkpt>
      <trkpt lat="42.408451080322266" lon="-6.889686584472656">
        <ele>367.0</ele>
        <time>2019-04-24T10:07:22.000Z</time>
      </trkpt>
      <trkpt lat="42.408409118652344" lon="-6.889894485473633">
        <ele>365.0</ele>
        <time>2019-04-24T10:07:41.000Z</time>
      </trkpt>
      <trkpt lat="42.40837860107422" lon="-6.890153408050537">
        <ele>362.0</ele>
        <time>2019-04-24T10:07:59.000Z</time>
      </trkpt>
      <trkpt lat="42.40838623046875" lon="-6.890289783477783">
        <ele>361.0</ele>
        <time>2019-04-24T10:08:08.000Z</time>
      </trkpt>
      <trkpt lat="42.408416748046875" lon="-6.890380859375">
        <ele>360.0</ele>
        <time>2019-04-24T10:08:17.000Z</time>
      </trkpt>
      <trkpt lat="42.40842819213867" lon="-6.890432834625244">
        <ele>360.0</ele>
        <time>2019-04-24T10:08:22.000Z</time>
      </trkpt>
      <trkpt lat="42.40843963623047" lon="-6.890483379364014">
        <ele>360.0</ele>
        <time>2019-04-24T10:08:26.000Z</time>
      </trkpt>
      <trkpt lat="42.40845489501953" lon="-6.890532493591309">
        <ele>359.0</ele>
        <time>2019-04-24T10:08:31.000Z</time>
      </trkpt>
      <trkpt lat="42.40846633911133" lon="-6.890581130981445">
        <ele>359.0</ele>
        <time>2019-04-24T10:08:35.000Z</time>
      </trkpt>
      <trkpt lat="42.408470153808594" lon="-6.890608787536621">
        <ele>358.0</ele>
        <time>2019-04-24T10:08:43.000Z</time>
      </trkpt>
      <trkpt lat="42.40847396850586" lon="-6.890626907348633">
        <ele>357.0</ele>
        <time>2019-04-24T10:08:50.000Z</time>
      </trkpt>
      <trkpt lat="42.40847396850586" lon="-6.890639305114746">
        <ele>356.0</ele>
        <time>2019-04-24T10:08:57.000Z</time>
      </trkpt>
      <trkpt lat="42.408470153808594" lon="-6.890647888183594">
        <ele>355.0</ele>
        <time>2019-04-24T10:09:04.000Z</time>
      </trkpt>
      <trkpt lat="42.40847396850586" lon="-6.890660762786865">
        <ele>355.0</ele>
        <time>2019-04-24T10:09:05.000Z</time>
      </trkpt>
      <trkpt lat="42.40847396850586" lon="-6.890671253204346">
        <ele>355.0</ele>
        <time>2019-04-24T10:09:05.000Z</time>
      </trkpt>
      <trkpt lat="42.40847396850586" lon="-6.89068078994751">
        <ele>355.0</ele>
        <time>2019-04-24T10:09:05.000Z</time>
      </trkpt>
      <trkpt lat="42.40847396850586" lon="-6.890689849853516">
        <ele>355.0</ele>
        <time>2019-04-24T10:09:05.000Z</time>
      </trkpt>
      <trkpt lat="42.408477783203125" lon="-6.890772819519043">
        <ele>356.0</ele>
        <time>2019-04-24T10:09:11.000Z</time>
      </trkpt>
      <trkpt lat="42.408485412597656" lon="-6.890885353088379">
        <ele>357.0</ele>
        <time>2019-04-24T10:09:17.000Z</time>
      </trkpt>
      <trkpt lat="42.40848922729492" lon="-6.891018390655518">
        <ele>358.0</ele>
        <time>2019-04-24T10:09:23.000Z</time>
      </trkpt>
      <trkpt lat="42.40849685668945" lon="-6.89116096496582">
        <ele>360.0</ele>
        <time>2019-04-24T10:09:28.000Z</time>
      </trkpt>
      <trkpt lat="42.40849685668945" lon="-6.891203880310059">
        <ele>360.0</ele>
        <time>2019-04-24T10:09:29.000Z</time>
      </trkpt>
      <trkpt lat="42.40849685668945" lon="-6.891214847564697">
        <ele>361.0</ele>
        <time>2019-04-24T10:09:30.000Z</time>
      </trkpt>
      <trkpt lat="42.40849685668945" lon="-6.891204833984375">
        <ele>361.0</ele>
        <time>2019-04-24T10:09:31.000Z</time>
      </trkpt>
      <trkpt lat="42.40849304199219" lon="-6.891184329986572">
        <ele>361.0</ele>
        <time>2019-04-24T10:09:32.000Z</time>
      </trkpt>
      <trkpt lat="42.40849685668945" lon="-6.891223907470703">
        <ele>367.0</ele>
        <time>2019-04-24T10:09:56.000Z</time>
      </trkpt>
      <trkpt lat="42.40850067138672" lon="-6.8912529945373535">
        <ele>367.0</ele>
        <time>2019-04-24T10:09:57.000Z</time>
      </trkpt>
      <trkpt lat="42.408477783203125" lon="-6.891730308532715">
        <ele>379.0</ele>
        <time>2019-04-24T10:10:19.000Z</time>
      </trkpt>
      <trkpt lat="42.40854263305664" lon="-6.892200469970703">
        <ele>385.0</ele>
        <time>2019-04-24T10:10:55.000Z</time>
      </trkpt>
      <trkpt lat="42.408687591552734" lon="-6.892651557922363">
        <ele>391.0</ele>
        <time>2019-04-24T10:11:23.000Z</time>
      </trkpt>
      <trkpt lat="42.4089469909668" lon="-6.892998218536377">
        <ele>395.0</ele>
        <time>2019-04-24T10:11:54.000Z</time>
      </trkpt>
      <trkpt lat="42.409156799316406" lon="-6.893385887145996">
        <ele>394.0</ele>
        <time>2019-04-24T10:12:26.000Z</time>
      </trkpt>
      <trkpt lat="42.40943145751953" lon="-6.89369535446167">
        <ele>399.0</ele>
        <time>2019-04-24T10:12:55.000Z</time>
      </trkpt>
      <trkpt lat="42.409706115722656" lon="-6.894018173217773">
        <ele>401.0</ele>
        <time>2019-04-24T10:13:27.000Z</time>
      </trkpt>
      <trkpt lat="42.410003662109375" lon="-6.894270896911621">
        <ele>404.0</ele>
        <time>2019-04-24T10:13:59.000Z</time>
      </trkpt>
      <trkpt lat="42.410282135009766" lon="-6.894586086273193">
        <ele>397.0</ele>
        <time>2019-04-24T10:14:31.000Z</time>
      </trkpt>
      <trkpt lat="42.41060256958008" lon="-6.8947954177856445">
        <ele>398.0</ele>
        <time>2019-04-24T10:15:07.000Z</time>
      </trkpt>
      <trkpt lat="42.410926818847656" lon="-6.895001411437988">
        <ele>402.0</ele>
        <time>2019-04-24T10:15:40.000Z</time>
      </trkpt>
      <trkpt lat="42.4112548828125" lon="-6.895182132720947">
        <ele>408.0</ele>
        <time>2019-04-24T10:16:11.000Z</time>
      </trkpt>
      <trkpt lat="42.411598205566406" lon="-6.895241737365723">
        <ele>404.0</ele>
        <time>2019-04-24T10:16:49.000Z</time>
      </trkpt>
      <trkpt lat="42.41166687011719" lon="-6.895307540893555">
        <ele>404.0</ele>
        <time>2019-04-24T10:16:57.000Z</time>
      </trkpt>
      <trkpt lat="42.41172790527344" lon="-6.895394802093506">
        <ele>404.0</ele>
        <time>2019-04-24T10:17:05.000Z</time>
      </trkpt>
      <trkpt lat="42.411781311035156" lon="-6.895496368408203">
        <ele>405.0</ele>
        <time>2019-04-24T10:17:13.000Z</time>
      </trkpt>
      <trkpt lat="42.411834716796875" lon="-6.895605087280273">
        <ele>406.0</ele>
        <time>2019-04-24T10:17:22.000Z</time>
      </trkpt>
      <trkpt lat="42.41189956665039" lon="-6.895690441131592">
        <ele>407.0</ele>
        <time>2019-04-24T10:17:30.000Z</time>
      </trkpt>
      <trkpt lat="42.411964416503906" lon="-6.895773410797119">
        <ele>407.0</ele>
        <time>2019-04-24T10:17:38.000Z</time>
      </trkpt>
      <trkpt lat="42.41203689575195" lon="-6.895854473114014">
        <ele>408.0</ele>
        <time>2019-04-24T10:17:46.000Z</time>
      </trkpt>
      <trkpt lat="42.412105560302734" lon="-6.89593505859375">
        <ele>409.0</ele>
        <time>2019-04-24T10:17:54.000Z</time>
      </trkpt>
      <trkpt lat="42.412174224853516" lon="-6.896011829376221">
        <ele>408.0</ele>
        <time>2019-04-24T10:18:02.000Z</time>
      </trkpt>
      <trkpt lat="42.41224670410156" lon="-6.896086692810059">
        <ele>407.0</ele>
        <time>2019-04-24T10:18:11.000Z</time>
      </trkpt>
      <trkpt lat="42.41231918334961" lon="-6.896159648895264">
        <ele>405.0</ele>
        <time>2019-04-24T10:18:19.000Z</time>
      </trkpt>
      <trkpt lat="42.412391662597656" lon="-6.8962321281433105">
        <ele>403.0</ele>
        <time>2019-04-24T10:18:27.000Z</time>
      </trkpt>
      <trkpt lat="42.41246795654297" lon="-6.896295070648193">
        <ele>403.0</ele>
        <time>2019-04-24T10:18:35.000Z</time>
      </trkpt>
      <trkpt lat="42.41254806518555" lon="-6.896353721618652">
        <ele>403.0</ele>
        <time>2019-04-24T10:18:44.000Z</time>
      </trkpt>
      <trkpt lat="42.412628173828125" lon="-6.896409511566162">
        <ele>405.0</ele>
        <time>2019-04-24T10:18:52.000Z</time>
      </trkpt>
      <trkpt lat="42.41271209716797" lon="-6.896463394165039">
        <ele>406.0</ele>
        <time>2019-04-24T10:19:00.000Z</time>
      </trkpt>
      <trkpt lat="42.41279983520508" lon="-6.896498203277588">
        <ele>407.0</ele>
        <time>2019-04-24T10:19:08.000Z</time>
      </trkpt>
      <trkpt lat="42.41288757324219" lon="-6.896523475646973">
        <ele>408.0</ele>
        <time>2019-04-24T10:19:15.000Z</time>
      </trkpt>
      <trkpt lat="42.4129753112793" lon="-6.896542072296143">
        <ele>409.0</ele>
        <time>2019-04-24T10:19:22.000Z</time>
      </trkpt>
      <trkpt lat="42.41306686401367" lon="-6.896557331085205">
        <ele>410.0</ele>
        <time>2019-04-24T10:19:30.000Z</time>
      </trkpt>
      <trkpt lat="42.41314697265625" lon="-6.896583557128906">
        <ele>411.0</ele>
        <time>2019-04-24T10:19:38.000Z</time>
      </trkpt>
      <trkpt lat="42.41322326660156" lon="-6.896611213684082">
        <ele>412.0</ele>
        <time>2019-04-24T10:19:47.000Z</time>
      </trkpt>
      <trkpt lat="42.413299560546875" lon="-6.896638870239258">
        <ele>413.0</ele>
        <time>2019-04-24T10:19:55.000Z</time>
      </trkpt>
      <trkpt lat="42.41337203979492" lon="-6.89666748046875">
        <ele>415.0</ele>
        <time>2019-04-24T10:20:04.000Z</time>
      </trkpt>
      <trkpt lat="42.41345977783203" lon="-6.896669864654541">
        <ele>415.0</ele>
        <time>2019-04-24T10:20:19.000Z</time>
      </trkpt>
      <trkpt lat="42.41349792480469" lon="-6.896670818328857">
        <ele>415.0</ele>
        <time>2019-04-24T10:20:20.000Z</time>
      </trkpt>
      <trkpt lat="42.413761138916016" lon="-6.8967204093933105">
        <ele>411.0</ele>
        <time>2019-04-24T10:20:41.000Z</time>
      </trkpt>
      <trkpt lat="42.413818359375" lon="-6.896765232086182">
        <ele>410.0</ele>
        <time>2019-04-24T10:20:46.000Z</time>
      </trkpt>
      <trkpt lat="42.413841247558594" lon="-6.896819114685059">
        <ele>410.0</ele>
        <time>2019-04-24T10:20:51.000Z</time>
      </trkpt>
      <trkpt lat="42.41389846801758" lon="-6.8968706130981445">
        <ele>408.0</ele>
        <time>2019-04-24T10:21:01.000Z</time>
      </trkpt>
      <trkpt lat="42.413970947265625" lon="-6.896933555603027">
        <ele>406.0</ele>
        <time>2019-04-24T10:21:11.000Z</time>
      </trkpt>
      <trkpt lat="42.4140510559082" lon="-6.897004127502441">
        <ele>404.0</ele>
        <time>2019-04-24T10:21:21.000Z</time>
      </trkpt>
      <trkpt lat="42.41413879394531" lon="-6.897078514099121">
        <ele>402.0</ele>
        <time>2019-04-24T10:21:31.000Z</time>
      </trkpt>
      <trkpt lat="42.414215087890625" lon="-6.8971405029296875">
        <ele>400.0</ele>
        <time>2019-04-24T10:21:42.000Z</time>
      </trkpt>
      <trkpt lat="42.41429138183594" lon="-6.8972015380859375">
        <ele>398.0</ele>
        <time>2019-04-24T10:21:52.000Z</time>
      </trkpt>
      <trkpt lat="42.41436767578125" lon="-6.897262096405029">
        <ele>397.0</ele>
        <time>2019-04-24T10:22:03.000Z</time>
      </trkpt>
      <trkpt lat="42.4144401550293" lon="-6.897321701049805">
        <ele>395.0</ele>
        <time>2019-04-24T10:22:13.000Z</time>
      </trkpt>
      <trkpt lat="42.41447830200195" lon="-6.897348403930664">
        <ele>394.0</ele>
        <time>2019-04-24T10:22:15.000Z</time>
      </trkpt>
      <trkpt lat="42.41449737548828" lon="-6.897360324859619">
        <ele>394.0</ele>
        <time>2019-04-24T10:22:18.000Z</time>
      </trkpt>
      <trkpt lat="42.41450881958008" lon="-6.897362232208252">
        <ele>394.0</ele>
        <time>2019-04-24T10:22:20.000Z</time>
      </trkpt>
      <trkpt lat="42.414512634277344" lon="-6.897359848022461">
        <ele>394.0</ele>
        <time>2019-04-24T10:22:23.000Z</time>
      </trkpt>
      <trkpt lat="42.41453170776367" lon="-6.897372722625732">
        <ele>393.0</ele>
        <time>2019-04-24T10:22:47.000Z</time>
      </trkpt>
      <trkpt lat="42.41455841064453" lon="-6.897387504577637">
        <ele>393.0</ele>
        <time>2019-04-24T10:23:11.000Z</time>
      </trkpt>
      <trkpt lat="42.414581298828125" lon="-6.897402763366699">
        <ele>392.0</ele>
        <time>2019-04-24T10:23:35.000Z</time>
      </trkpt>
      <trkpt lat="42.414608001708984" lon="-6.897418975830078">
        <ele>391.0</ele>
        <time>2019-04-24T10:23:59.000Z</time>
      </trkpt>
      <trkpt lat="42.41461944580078" lon="-6.897426605224609">
        <ele>390.0</ele>
        <time>2019-04-24T10:23:59.000Z</time>
      </trkpt>
      <trkpt lat="42.41462707519531" lon="-6.897431373596191">
        <ele>390.0</ele>
        <time>2019-04-24T10:23:59.000Z</time>
      </trkpt>
      <trkpt lat="42.414634704589844" lon="-6.897434234619141">
        <ele>390.0</ele>
        <time>2019-04-24T10:24:00.000Z</time>
      </trkpt>
      <trkpt lat="42.414634704589844" lon="-6.897435665130615">
        <ele>391.0</ele>
        <time>2019-04-24T10:24:00.000Z</time>
      </trkpt>
      <trkpt lat="42.414703369140625" lon="-6.8974809646606445">
        <ele>388.0</ele>
        <time>2019-04-24T10:24:10.000Z</time>
      </trkpt>
      <trkpt lat="42.41471862792969" lon="-6.897490501403809">
        <ele>388.0</ele>
        <time>2019-04-24T10:24:55.000Z</time>
      </trkpt>
      <trkpt lat="42.41473388671875" lon="-6.89749813079834">
        <ele>388.0</ele>
        <time>2019-04-24T10:24:56.000Z</time>
      </trkpt>
      <trkpt lat="42.41497802734375" lon="-6.897613525390625">
        <ele>387.0</ele>
        <time>2019-04-24T10:25:09.000Z</time>
      </trkpt>
      <trkpt lat="42.415016174316406" lon="-6.897598743438721">
        <ele>387.0</ele>
        <time>2019-04-24T10:25:14.000Z</time>
      </trkpt>
      <trkpt lat="42.415042877197266" lon="-6.897565841674805">
        <ele>387.0</ele>
        <time>2019-04-24T10:25:18.000Z</time>
      </trkpt>
      <trkpt lat="42.415061950683594" lon="-6.897520542144775">
        <ele>387.0</ele>
        <time>2019-04-24T10:25:22.000Z</time>
      </trkpt>
      <trkpt lat="42.415077209472656" lon="-6.8974690437316895">
        <ele>388.0</ele>
        <time>2019-04-24T10:25:26.000Z</time>
      </trkpt>
      <trkpt lat="42.41511154174805" lon="-6.897453784942627">
        <ele>387.0</ele>
        <time>2019-04-24T10:25:29.000Z</time>
      </trkpt>
      <trkpt lat="42.41514587402344" lon="-6.897447109222412">
        <ele>387.0</ele>
        <time>2019-04-24T10:25:32.000Z</time>
      </trkpt>
      <trkpt lat="42.415184020996094" lon="-6.897446155548096">
        <ele>387.0</ele>
        <time>2019-04-24T10:25:35.000Z</time>
      </trkpt>
      <trkpt lat="42.415225982666016" lon="-6.8974480628967285">
        <ele>387.0</ele>
        <time>2019-04-24T10:25:38.000Z</time>
      </trkpt>
      <trkpt lat="42.41526794433594" lon="-6.8974833488464355">
        <ele>386.0</ele>
        <time>2019-04-24T10:25:45.000Z</time>
      </trkpt>
      <trkpt lat="42.41530990600586" lon="-6.89753532409668">
        <ele>385.0</ele>
        <time>2019-04-24T10:25:51.000Z</time>
      </trkpt>
      <trkpt lat="42.41535568237305" lon="-6.8975982666015625">
        <ele>383.0</ele>
        <time>2019-04-24T10:25:57.000Z</time>
      </trkpt>
      <trkpt lat="42.415401458740234" lon="-6.897666931152344">
        <ele>382.0</ele>
        <time>2019-04-24T10:26:03.000Z</time>
      </trkpt>
      <trkpt lat="42.41543960571289" lon="-6.897676467895508">
        <ele>381.0</ele>
        <time>2019-04-24T10:26:08.000Z</time>
      </trkpt>
      <trkpt lat="42.41547393798828" lon="-6.897666931152344">
        <ele>379.0</ele>
        <time>2019-04-24T10:26:12.000Z</time>
      </trkpt>
      <trkpt lat="42.415504455566406" lon="-6.897645473480225">
        <ele>378.0</ele>
        <time>2019-04-24T10:26:17.000Z</time>
      </trkpt>
      <trkpt lat="42.41553497314453" lon="-6.897617340087891">
        <ele>376.0</ele>
        <time>2019-04-24T10:26:21.000Z</time>
      </trkpt>
      <trkpt lat="42.41554641723633" lon="-6.897611141204834">
        <ele>375.0</ele>
        <time>2019-04-24T10:26:26.000Z</time>
      </trkpt>
      <trkpt lat="42.41555404663086" lon="-6.897607326507568">
        <ele>374.0</ele>
        <time>2019-04-24T10:26:31.000Z</time>
      </trkpt>
      <trkpt lat="42.41555404663086" lon="-6.8976054191589355">
        <ele>372.0</ele>
        <time>2019-04-24T10:26:36.000Z</time>
      </trkpt>
      <trkpt lat="42.415550231933594" lon="-6.897604465484619">
        <ele>371.0</ele>
        <time>2019-04-24T10:26:41.000Z</time>
      </trkpt>
      <trkpt lat="42.41555404663086" lon="-6.89760160446167">
        <ele>370.0</ele>
        <time>2019-04-24T10:26:42.000Z</time>
      </trkpt>
      <trkpt lat="42.415557861328125" lon="-6.897599220275879">
        <ele>370.0</ele>
        <time>2019-04-24T10:26:42.000Z</time>
      </trkpt>
      <trkpt lat="42.41556167602539" lon="-6.89759635925293">
        <ele>370.0</ele>
        <time>2019-04-24T10:26:42.000Z</time>
      </trkpt>
      <trkpt lat="42.41556167602539" lon="-6.897593975067139">
        <ele>371.0</ele>
        <time>2019-04-24T10:26:42.000Z</time>
      </trkpt>
      <trkpt lat="42.41559982299805" lon="-6.897582054138184">
        <ele>370.0</ele>
        <time>2019-04-24T10:26:45.000Z</time>
      </trkpt>
      <trkpt lat="42.4156494140625" lon="-6.897566795349121">
        <ele>370.0</ele>
        <time>2019-04-24T10:26:47.000Z</time>
      </trkpt>
      <trkpt lat="42.415706634521484" lon="-6.897549152374268">
        <ele>369.0</ele>
        <time>2019-04-24T10:26:50.000Z</time>
      </trkpt>
      <trkpt lat="42.415767669677734" lon="-6.8975300788879395">
        <ele>368.0</ele>
        <time>2019-04-24T10:26:52.000Z</time>
      </trkpt>
      <trkpt lat="42.41579055786133" lon="-6.897593021392822">
        <ele>367.0</ele>
        <time>2019-04-24T10:27:00.000Z</time>
      </trkpt>
      <trkpt lat="42.41579818725586" lon="-6.897688865661621">
        <ele>365.0</ele>
        <time>2019-04-24T10:27:08.000Z</time>
      </trkpt>
      <trkpt lat="42.415794372558594" lon="-6.897806644439697">
        <ele>363.0</ele>
        <time>2019-04-24T10:27:16.000Z</time>
      </trkpt>
      <trkpt lat="42.41579055786133" lon="-6.89793586730957">
        <ele>361.0</ele>
        <time>2019-04-24T10:27:24.000Z</time>
      </trkpt>
      <trkpt lat="42.41581344604492" lon="-6.898040294647217">
        <ele>360.0</ele>
        <time>2019-04-24T10:27:32.000Z</time>
      </trkpt>
      <trkpt lat="42.41584777832031" lon="-6.89814567565918">
        <ele>359.0</ele>
        <time>2019-04-24T10:27:39.000Z</time>
      </trkpt>
      <trkpt lat="42.415889739990234" lon="-6.898252010345459">
        <ele>357.0</ele>
        <time>2019-04-24T10:27:47.000Z</time>
      </trkpt>
      <trkpt lat="42.415931701660156" lon="-6.8983588218688965">
        <ele>356.0</ele>
        <time>2019-04-24T10:27:54.000Z</time>
      </trkpt>
      <trkpt lat="42.41598129272461" lon="-6.8984527587890625">
        <ele>355.0</ele>
        <time>2019-04-24T10:28:02.000Z</time>
      </trkpt>
      <trkpt lat="42.41604232788086" lon="-6.8985419273376465">
        <ele>355.0</ele>
        <time>2019-04-24T10:28:10.000Z</time>
      </trkpt>
      <trkpt lat="42.41610336303711" lon="-6.898627281188965">
        <ele>354.0</ele>
        <time>2019-04-24T10:28:18.000Z</time>
      </trkpt>
      <trkpt lat="42.416168212890625" lon="-6.898711204528809">
        <ele>354.0</ele>
        <time>2019-04-24T10:28:26.000Z</time>
      </trkpt>
      <trkpt lat="42.41622543334961" lon="-6.898782730102539">
        <ele>353.0</ele>
        <time>2019-04-24T10:28:34.000Z</time>
      </trkpt>
      <trkpt lat="42.41627883911133" lon="-6.898846626281738">
        <ele>353.0</ele>
        <time>2019-04-24T10:28:41.000Z</time>
      </trkpt>
      <trkpt lat="42.41633605957031" lon="-6.898906230926514">
        <ele>353.0</ele>
        <time>2019-04-24T10:28:48.000Z</time>
      </trkpt>
      <trkpt lat="42.41638946533203" lon="-6.898963451385498">
        <ele>354.0</ele>
        <time>2019-04-24T10:28:56.000Z</time>
      </trkpt>
      <trkpt lat="42.416404724121094" lon="-6.898985385894775">
        <ele>354.0</ele>
        <time>2019-04-24T10:28:57.000Z</time>
      </trkpt>
      <trkpt lat="42.41640853881836" lon="-6.898990154266357">
        <ele>353.0</ele>
        <time>2019-04-24T10:28:58.000Z</time>
      </trkpt>
      <trkpt lat="42.41640090942383" lon="-6.898983478546143">
        <ele>353.0</ele>
        <time>2019-04-24T10:28:59.000Z</time>
      </trkpt>
      <trkpt lat="42.41638946533203" lon="-6.898971080780029">
        <ele>353.0</ele>
        <time>2019-04-24T10:29:00.000Z</time>
      </trkpt>
      <trkpt lat="42.41641616821289" lon="-6.898987770080566">
        <ele>359.0</ele>
        <time>2019-04-24T10:29:23.000Z</time>
      </trkpt>
      <trkpt lat="42.41645431518555" lon="-6.89901065826416">
        <ele>369.0</ele>
        <time>2019-04-24T10:29:45.000Z</time>
      </trkpt>
      <trkpt lat="42.416465759277344" lon="-6.899017810821533">
        <ele>370.0</ele>
        <time>2019-04-24T10:29:46.000Z</time>
      </trkpt>
      <trkpt lat="42.41647720336914" lon="-6.899023532867432">
        <ele>370.0</ele>
        <time>2019-04-24T10:29:46.000Z</time>
      </trkpt>
      <trkpt lat="42.41648483276367" lon="-6.899028301239014">
        <ele>369.0</ele>
        <time>2019-04-24T10:29:46.000Z</time>
      </trkpt>
      <trkpt lat="42.4164924621582" lon="-6.899033069610596">
        <ele>369.0</ele>
        <time>2019-04-24T10:29:46.000Z</time>
      </trkpt>
      <trkpt lat="42.416534423828125" lon="-6.89909553527832">
        <ele>370.0</ele>
        <time>2019-04-24T10:29:51.000Z</time>
      </trkpt>
      <trkpt lat="42.416587829589844" lon="-6.899181842803955">
        <ele>373.0</ele>
        <time>2019-04-24T10:29:56.000Z</time>
      </trkpt>
      <trkpt lat="42.41665267944336" lon="-6.8992838859558105">
        <ele>376.0</ele>
        <time>2019-04-24T10:30:01.000Z</time>
      </trkpt>
      <trkpt lat="42.41672134399414" lon="-6.8993940353393555">
        <ele>379.0</ele>
        <time>2019-04-24T10:30:06.000Z</time>
      </trkpt>
      <trkpt lat="42.416770935058594" lon="-6.899568557739258">
        <ele>384.0</ele>
        <time>2019-04-24T10:30:18.000Z</time>
      </trkpt>
      <trkpt lat="42.41679382324219" lon="-6.899740695953369">
        <ele>388.0</ele>
        <time>2019-04-24T10:30:30.000Z</time>
      </trkpt>
      <trkpt lat="42.41682434082031" lon="-6.899773597717285">
        <ele>389.0</ele>
        <time>2019-04-24T10:30:34.000Z</time>
      </trkpt>
      <trkpt lat="42.416866302490234" lon="-6.899784088134766">
        <ele>389.0</ele>
        <time>2019-04-24T10:30:38.000Z</time>
      </trkpt>
      <trkpt lat="42.416908264160156" lon="-6.899779319763184">
        <ele>390.0</ele>
        <time>2019-04-24T10:30:42.000Z</time>
      </trkpt>
      <trkpt lat="42.416954040527344" lon="-6.89976692199707">
        <ele>390.0</ele>
        <time>2019-04-24T10:30:46.000Z</time>
      </trkpt>
      <trkpt lat="42.417015075683594" lon="-6.899815082550049">
        <ele>391.0</ele>
        <time>2019-04-24T10:30:53.000Z</time>
      </trkpt>
      <trkpt lat="42.41706466674805" lon="-6.89987850189209">
        <ele>393.0</ele>
        <time>2019-04-24T10:31:00.000Z</time>
      </trkpt>
      <trkpt lat="42.41707992553711" lon="-6.899940490722656">
        <ele>392.0</ele>
        <time>2019-04-24T10:31:08.000Z</time>
      </trkpt>
      <trkpt lat="42.417091369628906" lon="-6.9000163078308105">
        <ele>391.0</ele>
        <time>2019-04-24T10:31:16.000Z</time>
      </trkpt>
      <trkpt lat="42.4171028137207" lon="-6.900101184844971">
        <ele>389.0</ele>
        <time>2019-04-24T10:31:24.000Z</time>
      </trkpt>
      <trkpt lat="42.417110443115234" lon="-6.900191307067871">
        <ele>388.0</ele>
        <time>2019-04-24T10:31:32.000Z</time>
      </trkpt>
      <trkpt lat="42.4171257019043" lon="-6.9002580642700195">
        <ele>386.0</ele>
        <time>2019-04-24T10:31:38.000Z</time>
      </trkpt>
      <trkpt lat="42.417137145996094" lon="-6.900320053100586">
        <ele>384.0</ele>
        <time>2019-04-24T10:31:43.000Z</time>
      </trkpt>
      <trkpt lat="42.417152404785156" lon="-6.900378704071045">
        <ele>383.0</ele>
        <time>2019-04-24T10:31:48.000Z</time>
      </trkpt>
      <trkpt lat="42.41716766357422" lon="-6.900435924530029">
        <ele>381.0</ele>
        <time>2019-04-24T10:31:53.000Z</time>
      </trkpt>
      <trkpt lat="42.417171478271484" lon="-6.900456428527832">
        <ele>380.0</ele>
        <time>2019-04-24T10:31:54.000Z</time>
      </trkpt>
      <trkpt lat="42.41717529296875" lon="-6.9004597663879395">
        <ele>380.0</ele>
        <time>2019-04-24T10:31:54.000Z</time>
      </trkpt>
      <trkpt lat="42.417171478271484" lon="-6.900452136993408">
        <ele>380.0</ele>
        <time>2019-04-24T10:31:55.000Z</time>
      </trkpt>
      <trkpt lat="42.417171478271484" lon="-6.90043830871582">
        <ele>380.0</ele>
        <time>2019-04-24T10:31:55.000Z</time>
      </trkpt>
      <trkpt lat="42.41718292236328" lon="-6.900484085083008">
        <ele>380.0</ele>
        <time>2019-04-24T10:32:23.000Z</time>
      </trkpt>
      <trkpt lat="42.41719436645508" lon="-6.90054988861084">
        <ele>379.0</ele>
        <time>2019-04-24T10:32:50.000Z</time>
      </trkpt>
      <trkpt lat="42.417198181152344" lon="-6.900566577911377">
        <ele>379.0</ele>
        <time>2019-04-24T10:32:51.000Z</time>
      </trkpt>
      <trkpt lat="42.41720199584961" lon="-6.900578498840332">
        <ele>379.0</ele>
        <time>2019-04-24T10:32:51.000Z</time>
      </trkpt>
      <trkpt lat="42.417205810546875" lon="-6.90058708190918">
        <ele>379.0</ele>
        <time>2019-04-24T10:32:51.000Z</time>
      </trkpt>
      <trkpt lat="42.417205810546875" lon="-6.900594234466553">
        <ele>379.0</ele>
        <time>2019-04-24T10:32:51.000Z</time>
      </trkpt>
      <trkpt lat="42.41720962524414" lon="-6.900620937347412">
        <ele>379.0</ele>
        <time>2019-04-24T10:32:53.000Z</time>
      </trkpt>
      <trkpt lat="42.41721725463867" lon="-6.900654315948486">
        <ele>378.0</ele>
        <time>2019-04-24T10:32:54.000Z</time>
      </trkpt>
      <trkpt lat="42.4172248840332" lon="-6.900691986083984">
        <ele>378.0</ele>
        <time>2019-04-24T10:32:55.000Z</time>
      </trkpt>
      <trkpt lat="42.417232513427734" lon="-6.900732040405273">
        <ele>378.0</ele>
        <time>2019-04-24T10:32:56.000Z</time>
      </trkpt>
      <trkpt lat="42.41725540161133" lon="-6.900750160217285">
        <ele>377.0</ele>
        <time>2019-04-24T10:32:59.000Z</time>
      </trkpt>
      <trkpt lat="42.41727828979492" lon="-6.900761604309082">
        <ele>377.0</ele>
        <time>2019-04-24T10:33:01.000Z</time>
      </trkpt>
      <trkpt lat="42.41730880737305" lon="-6.900768280029297">
        <ele>377.0</ele>
        <time>2019-04-24T10:33:04.000Z</time>
      </trkpt>
      <trkpt lat="42.417335510253906" lon="-6.900772571563721">
        <ele>378.0</ele>
        <time>2019-04-24T10:33:06.000Z</time>
      </trkpt>
      <trkpt lat="42.41737365722656" lon="-6.900789260864258">
        <ele>377.0</ele>
        <time>2019-04-24T10:33:12.000Z</time>
      </trkpt>
      <trkpt lat="42.41741943359375" lon="-6.900808811187744">
        <ele>376.0</ele>
        <time>2019-04-24T10:33:17.000Z</time>
      </trkpt>
      <trkpt lat="42.41746520996094" lon="-6.900830268859863">
        <ele>376.0</ele>
        <time>2019-04-24T10:33:22.000Z</time>
      </trkpt>
      <trkpt lat="42.417510986328125" lon="-6.900852680206299">
        <ele>375.0</ele>
        <time>2019-04-24T10:33:27.000Z</time>
      </trkpt>
      <trkpt lat="42.41753005981445" lon="-6.900886535644531">
        <ele>373.0</ele>
        <time>2019-04-24T10:33:32.000Z</time>
      </trkpt>
      <trkpt lat="42.41754150390625" lon="-6.900925636291504">
        <ele>372.0</ele>
        <time>2019-04-24T10:33:37.000Z</time>
      </trkpt>
      <trkpt lat="42.41754150390625" lon="-6.900968551635742">
        <ele>370.0</ele>
        <time>2019-04-24T10:33:42.000Z</time>
      </trkpt>
      <trkpt lat="42.417537689208984" lon="-6.901013374328613">
        <ele>368.0</ele>
        <time>2019-04-24T10:33:47.000Z</time>
      </trkpt>
      <trkpt lat="42.41754150390625" lon="-6.901038646697998">
        <ele>367.0</ele>
        <time>2019-04-24T10:33:53.000Z</time>
      </trkpt>
      <trkpt lat="42.417545318603516" lon="-6.901057243347168">
        <ele>366.0</ele>
        <time>2019-04-24T10:33:58.000Z</time>
      </trkpt>
      <trkpt lat="42.417545318603516" lon="-6.901072025299072">
        <ele>364.0</ele>
        <time>2019-04-24T10:34:03.000Z</time>
      </trkpt>
      <trkpt lat="42.417545318603516" lon="-6.9010844230651855">
        <ele>363.0</ele>
        <time>2019-04-24T10:34:08.000Z</time>
      </trkpt>
      <trkpt lat="42.417545318603516" lon="-6.901097297668457">
        <ele>363.0</ele>
        <time>2019-04-24T10:34:09.000Z</time>
      </trkpt>
      <trkpt lat="42.417545318603516" lon="-6.9011077880859375">
        <ele>363.0</ele>
        <time>2019-04-24T10:34:09.000Z</time>
      </trkpt>
      <trkpt lat="42.417545318603516" lon="-6.901116847991943">
        <ele>363.0</ele>
        <time>2019-04-24T10:34:09.000Z</time>
      </trkpt>
      <trkpt lat="42.41754913330078" lon="-6.901125431060791">
        <ele>363.0</ele>
        <time>2019-04-24T10:34:09.000Z</time>
      </trkpt>
      <trkpt lat="42.41756057739258" lon="-6.90118408203125">
        <ele>363.0</ele>
        <time>2019-04-24T10:34:13.000Z</time>
      </trkpt>
      <trkpt lat="42.417579650878906" lon="-6.901263236999512">
        <ele>363.0</ele>
        <time>2019-04-24T10:34:16.000Z</time>
      </trkpt>
      <trkpt lat="42.4176025390625" lon="-6.901355266571045">
        <ele>363.0</ele>
        <time>2019-04-24T10:34:20.000Z</time>
      </trkpt>
      <trkpt lat="42.417625427246094" lon="-6.901454448699951">
        <ele>364.0</ele>
        <time>2019-04-24T10:34:23.000Z</time>
      </trkpt>
      <trkpt lat="42.41764831542969" lon="-6.901490688323975">
        <ele>364.0</ele>
        <time>2019-04-24T10:34:27.000Z</time>
      </trkpt>
      <trkpt lat="42.41767120361328" lon="-6.9015069007873535">
        <ele>364.0</ele>
        <time>2019-04-24T10:34:30.000Z</time>
      </trkpt>
      <trkpt lat="42.417694091796875" lon="-6.901510238647461">
        <ele>364.0</ele>
        <time>2019-04-24T10:34:33.000Z</time>
      </trkpt>
      <trkpt lat="42.41771697998047" lon="-6.901507377624512">
        <ele>364.0</ele>
        <time>2019-04-24T10:34:36.000Z</time>
      </trkpt>
      <trkpt lat="42.417724609375" lon="-6.901514053344727">
        <ele>364.0</ele>
        <time>2019-04-24T10:34:40.000Z</time>
      </trkpt>
      <trkpt lat="42.41773223876953" lon="-6.90151834487915">
        <ele>364.0</ele>
        <time>2019-04-24T10:34:44.000Z</time>
      </trkpt>
      <trkpt lat="42.41773223876953" lon="-6.901520729064941">
        <ele>363.0</ele>
        <time>2019-04-24T10:34:48.000Z</time>
      </trkpt>
      <trkpt lat="42.417728424072266" lon="-6.901522159576416">
        <ele>363.0</ele>
        <time>2019-04-24T10:34:52.000Z</time>
      </trkpt>
      <trkpt lat="42.41773223876953" lon="-6.901525020599365">
        <ele>363.0</ele>
        <time>2019-04-24T10:34:53.000Z</time>
      </trkpt>
      <trkpt lat="42.4177360534668" lon="-6.901528358459473">
        <ele>363.0</ele>
        <time>2019-04-24T10:34:53.000Z</time>
      </trkpt>
      <trkpt lat="42.4177360534668" lon="-6.90153169631958">
        <ele>363.0</ele>
        <time>2019-04-24T10:34:53.000Z</time>
      </trkpt>
      <trkpt lat="42.41773986816406" lon="-6.901534557342529">
        <ele>363.0</ele>
        <time>2019-04-24T10:34:53.000Z</time>
      </trkpt>
      <trkpt lat="42.41778564453125" lon="-6.901575088500977">
        <ele>363.0</ele>
        <time>2019-04-24T10:34:57.000Z</time>
      </trkpt>
      <trkpt lat="42.4178466796875" lon="-6.901631832122803">
        <ele>363.0</ele>
        <time>2019-04-24T10:35:00.000Z</time>
      </trkpt>
      <trkpt lat="42.41791915893555" lon="-6.901698589324951">
        <ele>362.0</ele>
        <time>2019-04-24T10:35:03.000Z</time>
      </trkpt>
      <trkpt lat="42.41799545288086" lon="-6.901771068572998">
        <ele>362.0</ele>
        <time>2019-04-24T10:35:06.000Z</time>
      </trkpt>
      <trkpt lat="42.41804885864258" lon="-6.901782989501953">
        <ele>362.0</ele>
        <time>2019-04-24T10:35:10.000Z</time>
      </trkpt>
      <trkpt lat="42.418094635009766" lon="-6.90177583694458">
        <ele>361.0</ele>
        <time>2019-04-24T10:35:13.000Z</time>
      </trkpt>
      <trkpt lat="42.41814041137695" lon="-6.901755332946777">
        <ele>361.0</ele>
        <time>2019-04-24T10:35:16.000Z</time>
      </trkpt>
      <trkpt lat="42.418182373046875" lon="-6.90172815322876">
        <ele>361.0</ele>
        <time>2019-04-24T10:35:19.000Z</time>
      </trkpt>
      <trkpt lat="42.4182243347168" lon="-6.901742458343506">
        <ele>360.0</ele>
        <time>2019-04-24T10:35:24.000Z</time>
      </trkpt>
      <trkpt lat="42.41826248168945" lon="-6.901767253875732">
        <ele>360.0</ele>
        <time>2019-04-24T10:35:29.000Z</time>
      </trkpt>
      <trkpt lat="42.41830062866211" lon="-6.901798725128174">
        <ele>359.0</ele>
        <time>2019-04-24T10:35:34.000Z</time>
      </trkpt>
      <trkpt lat="42.418338775634766" lon="-6.901834011077881">
        <ele>358.0</ele>
        <time>2019-04-24T10:35:39.000Z</time>
      </trkpt>
      <trkpt lat="42.41835021972656" lon="-6.901845455169678">
        <ele>358.0</ele>
        <time>2019-04-24T10:35:39.000Z</time>
      </trkpt>
      <trkpt lat="42.418357849121094" lon="-6.90185022354126">
        <ele>358.0</ele>
        <time>2019-04-24T10:35:39.000Z</time>
      </trkpt>
      <trkpt lat="42.41835403442383" lon="-6.901850700378418">
        <ele>358.0</ele>
        <time>2019-04-24T10:35:40.000Z</time>
      </trkpt>
      <trkpt lat="42.4183464050293" lon="-6.901849269866943">
        <ele>358.0</ele>
        <time>2019-04-24T10:35:40.000Z</time>
      </trkpt>
      <trkpt lat="42.41834259033203" lon="-6.9018659591674805">
        <ele>358.0</ele>
        <time>2019-04-24T10:35:44.000Z</time>
      </trkpt>
      <trkpt lat="42.4183349609375" lon="-6.901887893676758">
        <ele>358.0</ele>
        <time>2019-04-24T10:35:48.000Z</time>
      </trkpt>
      <trkpt lat="42.4183235168457" lon="-6.901913166046143">
        <ele>358.0</ele>
        <time>2019-04-24T10:35:52.000Z</time>
      </trkpt>
      <trkpt lat="42.418312072753906" lon="-6.90194034576416">
        <ele>358.0</ele>
        <time>2019-04-24T10:35:55.000Z</time>
      </trkpt>
      <trkpt lat="42.41830825805664" lon="-6.901955604553223">
        <ele>358.0</ele>
        <time>2019-04-24T10:35:56.000Z</time>
      </trkpt>
      <trkpt lat="42.418304443359375" lon="-6.9019670486450195">
        <ele>358.0</ele>
        <time>2019-04-24T10:35:56.000Z</time>
      </trkpt>
      <trkpt lat="42.41830062866211" lon="-6.901976108551025">
        <ele>358.0</ele>
        <time>2019-04-24T10:35:56.000Z</time>
      </trkpt>
      <trkpt lat="42.418296813964844" lon="-6.901984691619873">
        <ele>358.0</ele>
        <time>2019-04-24T10:35:56.000Z</time>
      </trkpt>
      <trkpt lat="42.41828536987305" lon="-6.902008533477783">
        <ele>358.0</ele>
        <time>2019-04-24T10:35:58.000Z</time>
      </trkpt>
      <trkpt lat="42.41826629638672" lon="-6.902038097381592">
        <ele>359.0</ele>
        <time>2019-04-24T10:36:00.000Z</time>
      </trkpt>
      <trkpt lat="42.41824722290039" lon="-6.902070999145508">
        <ele>359.0</ele>
        <time>2019-04-24T10:36:02.000Z</time>
      </trkpt>
      <trkpt lat="42.4182243347168" lon="-6.902105808258057">
        <ele>359.0</ele>
        <time>2019-04-24T10:36:03.000Z</time>
      </trkpt>
      <trkpt lat="42.4182014465332" lon="-6.902126312255859">
        <ele>360.0</ele>
        <time>2019-04-24T10:36:13.000Z</time>
      </trkpt>
      <trkpt lat="42.41818618774414" lon="-6.90212869644165">
        <ele>362.0</ele>
        <time>2019-04-24T10:36:23.000Z</time>
      </trkpt>
      <trkpt lat="42.41817855834961" lon="-6.902133464813232">
        <ele>362.0</ele>
        <time>2019-04-24T10:36:24.000Z</time>
      </trkpt>
      <trkpt lat="42.41817092895508" lon="-6.902137279510498">
        <ele>362.0</ele>
        <time>2019-04-24T10:36:24.000Z</time>
      </trkpt>
      <trkpt lat="42.41816711425781" lon="-6.902141094207764">
        <ele>362.0</ele>
        <time>2019-04-24T10:36:24.000Z</time>
      </trkpt>
      <trkpt lat="42.41815948486328" lon="-6.902144908905029">
        <ele>362.0</ele>
        <time>2019-04-24T10:36:24.000Z</time>
      </trkpt>
      <trkpt lat="42.418121337890625" lon="-6.902192115783691">
        <ele>363.0</ele>
        <time>2019-04-24T10:36:28.000Z</time>
      </trkpt>
      <trkpt lat="42.41806411743164" lon="-6.902257919311523">
        <ele>365.0</ele>
        <time>2019-04-24T10:36:31.000Z</time>
      </trkpt>
      <trkpt lat="42.41800308227539" lon="-6.902336120605469">
        <ele>366.0</ele>
        <time>2019-04-24T10:36:35.000Z</time>
      </trkpt>
      <trkpt lat="42.41793441772461" lon="-6.9024200439453125">
        <ele>369.0</ele>
        <time>2019-04-24T10:36:38.000Z</time>
      </trkpt>
      <trkpt lat="42.41793441772461" lon="-6.902474403381348">
        <ele>371.0</ele>
        <time>2019-04-24T10:36:44.000Z</time>
      </trkpt>
      <trkpt lat="42.417964935302734" lon="-6.902522563934326">
        <ele>373.0</ele>
        <time>2019-04-24T10:36:49.000Z</time>
      </trkpt>
      <trkpt lat="42.41801071166992" lon="-6.902567386627197">
        <ele>375.0</ele>
        <time>2019-04-24T10:36:55.000Z</time>
      </trkpt>
      <trkpt lat="42.41806411743164" lon="-6.902609825134277">
        <ele>377.0</ele>
        <time>2019-04-24T10:37:00.000Z</time>
      </trkpt>
      <trkpt lat="42.41810607910156" lon="-6.90269136428833">
        <ele>378.0</ele>
        <time>2019-04-24T10:37:08.000Z</time>
      </trkpt>
      <trkpt lat="42.41815185546875" lon="-6.902787208557129">
        <ele>378.0</ele>
        <time>2019-04-24T10:37:15.000Z</time>
      </trkpt>
      <trkpt lat="42.41820526123047" lon="-6.902892589569092">
        <ele>378.0</ele>
        <time>2019-04-24T10:37:23.000Z</time>
      </trkpt>
      <trkpt lat="42.41825866699219" lon="-6.903002738952637">
        <ele>378.0</ele>
        <time>2019-04-24T10:37:30.000Z</time>
      </trkpt>
      <trkpt lat="42.41828918457031" lon="-6.903099060058594">
        <ele>378.0</ele>
        <time>2019-04-24T10:37:37.000Z</time>
      </trkpt>
      <trkpt lat="42.418312072753906" lon="-6.903194427490234">
        <ele>379.0</ele>
        <time>2019-04-24T10:37:43.000Z</time>
      </trkpt>
      <trkpt lat="42.41832733154297" lon="-6.903289318084717">
        <ele>380.0</ele>
        <time>2019-04-24T10:37:49.000Z</time>
      </trkpt>
      <trkpt lat="42.4183464050293" lon="-6.903384208679199">
        <ele>381.0</ele>
        <time>2019-04-24T10:37:55.000Z</time>
      </trkpt>
      <trkpt lat="42.418365478515625" lon="-6.903424263000488">
        <ele>381.0</ele>
        <time>2019-04-24T10:37:57.000Z</time>
      </trkpt>
      <trkpt lat="42.41838455200195" lon="-6.903441905975342">
        <ele>381.0</ele>
        <time>2019-04-24T10:37:59.000Z</time>
      </trkpt>
      <trkpt lat="42.41840744018555" lon="-6.903443813323975">
        <ele>381.0</ele>
        <time>2019-04-24T10:38:01.000Z</time>
      </trkpt>
      <trkpt lat="42.418426513671875" lon="-6.903438091278076">
        <ele>382.0</ele>
        <time>2019-04-24T10:38:02.000Z</time>
      </trkpt>
      <trkpt lat="42.418453216552734" lon="-6.903461933135986">
        <ele>382.0</ele>
        <time>2019-04-24T10:38:06.000Z</time>
      </trkpt>
      <trkpt lat="42.41848373413086" lon="-6.903489589691162">
        <ele>382.0</ele>
        <time>2019-04-24T10:38:09.000Z</time>
      </trkpt>
      <trkpt lat="42.418514251708984" lon="-6.903520107269287">
        <ele>383.0</ele>
        <time>2019-04-24T10:38:13.000Z</time>
      </trkpt>
      <trkpt lat="42.41854476928711" lon="-6.903552532196045">
        <ele>383.0</ele>
        <time>2019-04-24T10:38:16.000Z</time>
      </trkpt>
      <trkpt lat="42.4185905456543" lon="-6.903657913208008">
        <ele>383.0</ele>
        <time>2019-04-24T10:38:27.000Z</time>
      </trkpt>
      <trkpt lat="42.41862869262695" lon="-6.903785705566406">
        <ele>384.0</ele>
        <time>2019-04-24T10:38:38.000Z</time>
      </trkpt>
      <trkpt lat="42.41863250732422" lon="-6.903811454772949">
        <ele>383.0</ele>
        <time>2019-04-24T10:38:47.000Z</time>
      </trkpt>
      <trkpt lat="42.418636322021484" lon="-6.9038238525390625">
        <ele>382.0</ele>
        <time>2019-04-24T10:38:56.000Z</time>
      </trkpt>
      <trkpt lat="42.41863250732422" lon="-6.903827667236328">
        <ele>381.0</ele>
        <time>2019-04-24T10:39:05.000Z</time>
      </trkpt>
      <trkpt lat="42.41862487792969" lon="-6.9038262367248535">
        <ele>380.0</ele>
        <time>2019-04-24T10:39:14.000Z</time>
      </trkpt>
      <trkpt lat="42.41862487792969" lon="-6.903834819793701">
        <ele>380.0</ele>
        <time>2019-04-24T10:39:15.000Z</time>
      </trkpt>
      <trkpt lat="42.41862487792969" lon="-6.903842449188232">
        <ele>380.0</ele>
        <time>2019-04-24T10:39:15.000Z</time>
      </trkpt>
      <trkpt lat="42.41862487792969" lon="-6.9038496017456055">
        <ele>380.0</ele>
        <time>2019-04-24T10:39:15.000Z</time>
      </trkpt>
      <trkpt lat="42.41862487792969" lon="-6.90385627746582">
        <ele>380.0</ele>
        <time>2019-04-24T10:39:15.000Z</time>
      </trkpt>
      <trkpt lat="42.41861343383789" lon="-6.903909683227539">
        <ele>380.0</ele>
        <time>2019-04-24T10:39:18.000Z</time>
      </trkpt>
      <trkpt lat="42.41859436035156" lon="-6.903981685638428">
        <ele>379.0</ele>
        <time>2019-04-24T10:39:20.000Z</time>
      </trkpt>
      <trkpt lat="42.41857147216797" lon="-6.904066562652588">
        <ele>379.0</ele>
        <time>2019-04-24T10:39:23.000Z</time>
      </trkpt>
      <trkpt lat="42.41854476928711" lon="-6.904157638549805">
        <ele>378.0</ele>
        <time>2019-04-24T10:39:25.000Z</time>
      </trkpt>
      <trkpt lat="42.41853332519531" lon="-6.904189586639404">
        <ele>377.0</ele>
        <time>2019-04-24T10:39:39.000Z</time>
      </trkpt>
      <trkpt lat="42.41852569580078" lon="-6.904202938079834">
        <ele>375.0</ele>
        <time>2019-04-24T10:39:52.000Z</time>
      </trkpt>
      <trkpt lat="42.418521881103516" lon="-6.904204845428467">
        <ele>373.0</ele>
        <time>2019-04-24T10:40:05.000Z</time>
      </trkpt>
      <trkpt lat="42.41851806640625" lon="-6.904200077056885">
        <ele>371.0</ele>
        <time>2019-04-24T10:40:18.000Z</time>
      </trkpt>
      <trkpt lat="42.41851043701172" lon="-6.904209613800049">
        <ele>371.0</ele>
        <time>2019-04-24T10:40:19.000Z</time>
      </trkpt>
      <trkpt lat="42.41850662231445" lon="-6.904217720031738">
        <ele>371.0</ele>
        <time>2019-04-24T10:40:19.000Z</time>
      </trkpt>
      <trkpt lat="42.41849899291992" lon="-6.904225826263428">
        <ele>371.0</ele>
        <time>2019-04-24T10:40:19.000Z</time>
      </trkpt>
      <trkpt lat="42.418495178222656" lon="-6.904233455657959">
        <ele>371.0</ele>
        <time>2019-04-24T10:40:19.000Z</time>
      </trkpt>
      <trkpt lat="42.41828536987305" lon="-6.9045586585998535">
        <ele>371.0</ele>
        <time>2019-04-24T10:40:29.000Z</time>
      </trkpt>
      <trkpt lat="42.418270111083984" lon="-6.90461540222168">
        <ele>371.0</ele>
        <time>2019-04-24T10:40:33.000Z</time>
      </trkpt>
      <trkpt lat="42.418270111083984" lon="-6.904661655426025">
        <ele>371.0</ele>
        <time>2019-04-24T10:40:37.000Z</time>
      </trkpt>
      <trkpt lat="42.418277740478516" lon="-6.904701232910156">
        <ele>371.0</ele>
        <time>2019-04-24T10:40:41.000Z</time>
      </trkpt>
      <trkpt lat="42.41829299926758" lon="-6.90473747253418">
        <ele>371.0</ele>
        <time>2019-04-24T10:40:44.000Z</time>
      </trkpt>
      <trkpt lat="42.41830062866211" lon="-6.904755592346191">
        <ele>371.0</ele>
        <time>2019-04-24T10:41:00.000Z</time>
      </trkpt>
      <trkpt lat="42.41830825805664" lon="-6.9047627449035645">
        <ele>371.0</ele>
        <time>2019-04-24T10:41:16.000Z</time>
      </trkpt>
      <trkpt lat="42.41831588745117" lon="-6.904762268066406">
        <ele>372.0</ele>
        <time>2019-04-24T10:41:32.000Z</time>
      </trkpt>
      <trkpt lat="42.4183235168457" lon="-6.904757976531982">
        <ele>372.0</ele>
        <time>2019-04-24T10:41:47.000Z</time>
      </trkpt>
      <trkpt lat="42.418331146240234" lon="-6.904762268066406">
        <ele>372.0</ele>
        <time>2019-04-24T10:41:48.000Z</time>
      </trkpt>
      <trkpt lat="42.418338775634766" lon="-6.90476655960083">
        <ele>372.0</ele>
        <time>2019-04-24T10:41:48.000Z</time>
      </trkpt>
      <trkpt lat="42.41834259033203" lon="-6.904770374298096">
        <ele>372.0</ele>
        <time>2019-04-24T10:41:48.000Z</time>
      </trkpt>
      <trkpt lat="42.41835021972656" lon="-6.9047746658325195">
        <ele>372.0</ele>
        <time>2019-04-24T10:41:48.000Z</time>
      </trkpt>
      <trkpt lat="42.41836929321289" lon="-6.904792785644531">
        <ele>372.0</ele>
        <time>2019-04-24T10:41:50.000Z</time>
      </trkpt>
      <trkpt lat="42.41839599609375" lon="-6.9048171043396">
        <ele>372.0</ele>
        <time>2019-04-24T10:41:51.000Z</time>
      </trkpt>
      <trkpt lat="42.418426513671875" lon="-6.904845714569092">
        <ele>372.0</ele>
        <time>2019-04-24T10:41:53.000Z</time>
      </trkpt>
      <trkpt lat="42.418460845947266" lon="-6.904875755310059">
        <ele>372.0</ele>
        <time>2019-04-24T10:41:54.000Z</time>
      </trkpt>
      <trkpt lat="42.418487548828125" lon="-6.904907703399658">
        <ele>372.0</ele>
        <time>2019-04-24T10:41:56.000Z</time>
      </trkpt>
      <trkpt lat="42.418514251708984" lon="-6.904942035675049">
        <ele>371.0</ele>
        <time>2019-04-24T10:41:58.000Z</time>
      </trkpt>
      <trkpt lat="42.418540954589844" lon="-6.904978275299072">
        <ele>371.0</ele>
        <time>2019-04-24T10:41:59.000Z</time>
      </trkpt>
      <trkpt lat="42.4185676574707" lon="-6.905015468597412">
        <ele>371.0</ele>
        <time>2019-04-24T10:42:01.000Z</time>
      </trkpt>
      <trkpt lat="42.4185791015625" lon="-6.905030250549316">
        <ele>371.0</ele>
        <time>2019-04-24T10:42:02.000Z</time>
      </trkpt>
      <trkpt lat="42.41858673095703" lon="-6.905035972595215">
        <ele>371.0</ele>
        <time>2019-04-24T10:42:03.000Z</time>
      </trkpt>
      <trkpt lat="42.41858673095703" lon="-6.905036449432373">
        <ele>371.0</ele>
        <time>2019-04-24T10:42:04.000Z</time>
      </trkpt>
      <trkpt lat="42.418582916259766" lon="-6.905034065246582">
        <ele>371.0</ele>
        <time>2019-04-24T10:42:05.000Z</time>
      </trkpt>
      <trkpt lat="42.418582916259766" lon="-6.905043125152588">
        <ele>371.0</ele>
        <time>2019-04-24T10:42:17.000Z</time>
      </trkpt>
      <trkpt lat="42.4185791015625" lon="-6.905054092407227">
        <ele>371.0</ele>
        <time>2019-04-24T10:42:29.000Z</time>
      </trkpt>
      <trkpt lat="42.418575286865234" lon="-6.90506649017334">
        <ele>370.0</ele>
        <time>2019-04-24T10:42:40.000Z</time>
      </trkpt>
      <trkpt lat="42.41857147216797" lon="-6.905079364776611">
        <ele>370.0</ele>
        <time>2019-04-24T10:42:52.000Z</time>
      </trkpt>
      <trkpt lat="42.4185676574707" lon="-6.905088424682617">
        <ele>370.0</ele>
        <time>2019-04-24T10:42:52.000Z</time>
      </trkpt>
      <trkpt lat="42.41856384277344" lon="-6.905096054077148">
        <ele>370.0</ele>
        <time>2019-04-24T10:42:53.000Z</time>
      </trkpt>
      <trkpt lat="42.41856384277344" lon="-6.90510368347168">
        <ele>370.0</ele>
        <time>2019-04-24T10:42:53.000Z</time>
      </trkpt>
      <trkpt lat="42.41856002807617" lon="-6.905110836029053">
        <ele>370.0</ele>
        <time>2019-04-24T10:42:53.000Z</time>
      </trkpt>
      <trkpt lat="42.418548583984375" lon="-6.905139446258545">
        <ele>370.0</ele>
        <time>2019-04-24T10:42:54.000Z</time>
      </trkpt>
      <trkpt lat="42.41852951049805" lon="-6.905176639556885">
        <ele>370.0</ele>
        <time>2019-04-24T10:42:56.000Z</time>
      </trkpt>
      <trkpt lat="42.41850662231445" lon="-6.905219554901123">
        <ele>370.0</ele>
        <time>2019-04-24T10:42:57.000Z</time>
      </trkpt>
      <trkpt lat="42.418487548828125" lon="-6.9052653312683105">
        <ele>370.0</ele>
        <time>2019-04-24T10:42:58.000Z</time>
      </trkpt>
      <trkpt lat="42.41845703125" lon="-6.905303955078125">
        <ele>370.0</ele>
        <time>2019-04-24T10:43:01.000Z</time>
      </trkpt>
      <trkpt lat="42.41842269897461" lon="-6.905342102050781">
        <ele>371.0</ele>
        <time>2019-04-24T10:43:05.000Z</time>
      </trkpt>
      <trkpt lat="42.41838455200195" lon="-6.9053802490234375">
        <ele>372.0</ele>
        <time>2019-04-24T10:43:08.000Z</time>
      </trkpt>
      <trkpt lat="42.41834259033203" lon="-6.905418395996094">
        <ele>372.0</ele>
        <time>2019-04-24T10:43:11.000Z</time>
      </trkpt>
      <trkpt lat="42.41829299926758" lon="-6.905491828918457">
        <ele>374.0</ele>
        <time>2019-04-24T10:43:20.000Z</time>
      </trkpt>
      <trkpt lat="42.41823959350586" lon="-6.905580043792725">
        <ele>375.0</ele>
        <time>2019-04-24T10:43:29.000Z</time>
      </trkpt>
      <trkpt lat="42.41817855834961" lon="-6.9056782722473145">
        <ele>377.0</ele>
        <time>2019-04-24T10:43:37.000Z</time>
      </trkpt>
      <trkpt lat="42.41811752319336" lon="-6.9057817459106445">
        <ele>380.0</ele>
        <time>2019-04-24T10:43:46.000Z</time>
      </trkpt>
      <trkpt lat="42.418087005615234" lon="-6.905858993530273">
        <ele>381.0</ele>
        <time>2019-04-24T10:43:52.000Z</time>
      </trkpt>
      <trkpt lat="42.418067932128906" lon="-6.905930519104004">
        <ele>383.0</ele>
        <time>2019-04-24T10:43:57.000Z</time>
      </trkpt>
      <trkpt lat="42.41805648803711" lon="-6.9059977531433105">
        <ele>384.0</ele>
        <time>2019-04-24T10:44:03.000Z</time>
      </trkpt>
      <trkpt lat="42.41804504394531" lon="-6.906063556671143">
        <ele>386.0</ele>
        <time>2019-04-24T10:44:08.000Z</time>
      </trkpt>
      <trkpt lat="42.41801452636719" lon="-6.90632963180542">
        <ele>388.0</ele>
        <time>2019-04-24T10:44:27.000Z</time>
      </trkpt>
      <trkpt lat="42.41796112060547" lon="-6.906554222106934">
        <ele>383.0</ele>
        <time>2019-04-24T10:44:49.000Z</time>
      </trkpt>
      <trkpt lat="42.417877197265625" lon="-6.906771183013916">
        <ele>378.0</ele>
        <time>2019-04-24T10:45:04.000Z</time>
      </trkpt>
      <trkpt lat="42.417789459228516" lon="-6.906949520111084">
        <ele>372.0</ele>
        <time>2019-04-24T10:45:23.000Z</time>
      </trkpt>
      <trkpt lat="42.41775894165039" lon="-6.906976699829102">
        <ele>370.0</ele>
        <time>2019-04-24T10:45:31.000Z</time>
      </trkpt>
      <trkpt lat="42.41773223876953" lon="-6.906974792480469">
        <ele>368.0</ele>
        <time>2019-04-24T10:45:39.000Z</time>
      </trkpt>
      <trkpt lat="42.417720794677734" lon="-6.906979084014893">
        <ele>368.0</ele>
        <time>2019-04-24T10:45:39.000Z</time>
      </trkpt>
      <trkpt lat="42.4177131652832" lon="-6.906982421875">
        <ele>368.0</ele>
        <time>2019-04-24T10:45:40.000Z</time>
      </trkpt>
      <trkpt lat="42.41770553588867" lon="-6.906985282897949">
        <ele>368.0</ele>
        <time>2019-04-24T10:45:40.000Z</time>
      </trkpt>
      <trkpt lat="42.417701721191406" lon="-6.906988143920898">
        <ele>368.0</ele>
        <time>2019-04-24T10:45:40.000Z</time>
      </trkpt>
      <trkpt lat="42.417667388916016" lon="-6.906997203826904">
        <ele>368.0</ele>
        <time>2019-04-24T10:45:42.000Z</time>
      </trkpt>
      <trkpt lat="42.417625427246094" lon="-6.907008647918701">
        <ele>368.0</ele>
        <time>2019-04-24T10:45:44.000Z</time>
      </trkpt>
      <trkpt lat="42.417572021484375" lon="-6.907021999359131">
        <ele>367.0</ele>
        <time>2019-04-24T10:45:46.000Z</time>
      </trkpt>
      <trkpt lat="42.417518615722656" lon="-6.907035827636719">
        <ele>367.0</ele>
        <time>2019-04-24T10:45:48.000Z</time>
      </trkpt>
      <trkpt lat="42.41747283935547" lon="-6.907046318054199">
        <ele>367.0</ele>
        <time>2019-04-24T10:45:52.000Z</time>
      </trkpt>
      <trkpt lat="42.41742706298828" lon="-6.9070563316345215">
        <ele>367.0</ele>
        <time>2019-04-24T10:45:56.000Z</time>
      </trkpt>
      <trkpt lat="42.417381286621094" lon="-6.907066345214844">
        <ele>367.0</ele>
        <time>2019-04-24T10:45:59.000Z</time>
      </trkpt>
      <trkpt lat="42.417335510253906" lon="-6.907075881958008">
        <ele>367.0</ele>
        <time>2019-04-24T10:46:03.000Z</time>
      </trkpt>
      <trkpt lat="42.417293548583984" lon="-6.907098770141602">
        <ele>366.0</ele>
        <time>2019-04-24T10:46:08.000Z</time>
      </trkpt>
      <trkpt lat="42.41725158691406" lon="-6.907127380371094">
        <ele>366.0</ele>
        <time>2019-04-24T10:46:12.000Z</time>
      </trkpt>
      <trkpt lat="42.417213439941406" lon="-6.907159805297852">
        <ele>366.0</ele>
        <time>2019-04-24T10:46:17.000Z</time>
      </trkpt>
      <trkpt lat="42.41717529296875" lon="-6.907193660736084">
        <ele>366.0</ele>
        <time>2019-04-24T10:46:21.000Z</time>
      </trkpt>
      <trkpt lat="42.417110443115234" lon="-6.9072489738464355">
        <ele>366.0</ele>
        <time>2019-04-24T10:46:31.000Z</time>
      </trkpt>
      <trkpt lat="42.41703796386719" lon="-6.907314777374268">
        <ele>367.0</ele>
        <time>2019-04-24T10:46:41.000Z</time>
      </trkpt>
      <trkpt lat="42.41695785522461" lon="-6.907388210296631">
        <ele>369.0</ele>
        <time>2019-04-24T10:46:50.000Z</time>
      </trkpt>
      <trkpt lat="42.416873931884766" lon="-6.907464981079102">
        <ele>370.0</ele>
        <time>2019-04-24T10:47:00.000Z</time>
      </trkpt>
      <trkpt lat="42.416622161865234" lon="-6.907822132110596">
        <ele>378.0</ele>
        <time>2019-04-24T10:47:27.000Z</time>
      </trkpt>
      <trkpt lat="42.41652297973633" lon="-6.908003807067871">
        <ele>378.0</ele>
        <time>2019-04-24T10:47:49.000Z</time>
      </trkpt>
      <trkpt lat="42.41649627685547" lon="-6.908066749572754">
        <ele>375.0</ele>
        <time>2019-04-24T10:48:07.000Z</time>
      </trkpt>
      <trkpt lat="42.416481018066406" lon="-6.908104419708252">
        <ele>375.0</ele>
        <time>2019-04-24T10:48:08.000Z</time>
      </trkpt>
      <trkpt lat="42.41629409790039" lon="-6.908516883850098">
        <ele>371.0</ele>
        <time>2019-04-24T10:48:32.000Z</time>
      </trkpt>
      <trkpt lat="42.416263580322266" lon="-6.908752918243408">
        <ele>368.0</ele>
        <time>2019-04-24T10:48:52.000Z</time>
      </trkpt>
      <trkpt lat="42.416259765625" lon="-6.909002780914307">
        <ele>365.0</ele>
        <time>2019-04-24T10:49:11.000Z</time>
      </trkpt>
      <trkpt lat="42.416263580322266" lon="-6.909122467041016">
        <ele>364.0</ele>
        <time>2019-04-24T10:49:20.000Z</time>
      </trkpt>
      <trkpt lat="42.41627883911133" lon="-6.909241676330566">
        <ele>363.0</ele>
        <time>2019-04-24T10:49:29.000Z</time>
      </trkpt>
      <trkpt lat="42.41629409790039" lon="-6.909359931945801">
        <ele>362.0</ele>
        <time>2019-04-24T10:49:38.000Z</time>
      </trkpt>
      <trkpt lat="42.41631317138672" lon="-6.909478664398193">
        <ele>361.0</ele>
        <time>2019-04-24T10:49:46.000Z</time>
      </trkpt>
      <trkpt lat="42.41626739501953" lon="-6.90955924987793">
        <ele>360.0</ele>
        <time>2019-04-24T10:49:55.000Z</time>
      </trkpt>
      <trkpt lat="42.41619873046875" lon="-6.909623622894287">
        <ele>360.0</ele>
        <time>2019-04-24T10:50:03.000Z</time>
      </trkpt>
      <trkpt lat="42.41611099243164" lon="-6.909677505493164">
        <ele>360.0</ele>
        <time>2019-04-24T10:50:11.000Z</time>
      </trkpt>
      <trkpt lat="42.416011810302734" lon="-6.909725666046143">
        <ele>361.0</ele>
        <time>2019-04-24T10:50:19.000Z</time>
      </trkpt>
      <trkpt lat="42.41596984863281" lon="-6.909819602966309">
        <ele>361.0</ele>
        <time>2019-04-24T10:50:27.000Z</time>
      </trkpt>
      <trkpt lat="42.41593551635742" lon="-6.909926414489746">
        <ele>360.0</ele>
        <time>2019-04-24T10:50:35.000Z</time>
      </trkpt>
      <trkpt lat="42.41591262817383" lon="-6.910042762756348">
        <ele>360.0</ele>
        <time>2019-04-24T10:50:43.000Z</time>
      </trkpt>
      <trkpt lat="42.4158935546875" lon="-6.910162925720215">
        <ele>360.0</ele>
        <time>2019-04-24T10:50:50.000Z</time>
      </trkpt>
      <trkpt lat="42.41586685180664" lon="-6.910275936126709">
        <ele>359.0</ele>
        <time>2019-04-24T10:50:59.000Z</time>
      </trkpt>
      <trkpt lat="42.41584396362305" lon="-6.9103899002075195">
        <ele>359.0</ele>
        <time>2019-04-24T10:51:07.000Z</time>
      </trkpt>
      <trkpt lat="42.41582489013672" lon="-6.9105048179626465">
        <ele>360.0</ele>
        <time>2019-04-24T10:51:16.000Z</time>
      </trkpt>
      <trkpt lat="42.415802001953125" lon="-6.910620212554932">
        <ele>360.0</ele>
        <time>2019-04-24T10:51:24.000Z</time>
      </trkpt>
      <trkpt lat="42.41579055786133" lon="-6.910696983337402">
        <ele>360.0</ele>
        <time>2019-04-24T10:51:28.000Z</time>
      </trkpt>
      <trkpt lat="42.41577911376953" lon="-6.910758018493652">
        <ele>360.0</ele>
        <time>2019-04-24T10:51:31.000Z</time>
      </trkpt>
      <trkpt lat="42.415771484375" lon="-6.91080904006958">
        <ele>360.0</ele>
        <time>2019-04-24T10:51:34.000Z</time>
      </trkpt>
      <trkpt lat="42.415767669677734" lon="-6.910854339599609">
        <ele>360.0</ele>
        <time>2019-04-24T10:51:37.000Z</time>
      </trkpt>
      <trkpt lat="42.41581344604492" lon="-6.912268161773682">
        <ele>367.0</ele>
        <time>2019-04-24T11:11:54.000Z</time>
      </trkpt>
      <trkpt lat="42.415809631347656" lon="-6.9122724533081055">
        <ele>367.0</ele>
        <time>2019-04-24T11:11:55.000Z</time>
      </trkpt>
      <trkpt lat="42.415809631347656" lon="-6.912285327911377">
        <ele>366.0</ele>
        <time>2019-04-24T11:12:05.000Z</time>
      </trkpt>
      <trkpt lat="42.41581344604492" lon="-6.9123029708862305">
        <ele>365.0</ele>
        <time>2019-04-24T11:12:15.000Z</time>
      </trkpt>
      <trkpt lat="42.41581344604492" lon="-6.912309169769287">
        <ele>364.0</ele>
        <time>2019-04-24T11:12:15.000Z</time>
      </trkpt>
      <trkpt lat="42.41581344604492" lon="-6.912315368652344">
        <ele>364.0</ele>
        <time>2019-04-24T11:12:15.000Z</time>
      </trkpt>
      <trkpt lat="42.41581344604492" lon="-6.9123215675354">
        <ele>364.0</ele>
        <time>2019-04-24T11:12:15.000Z</time>
      </trkpt>
      <trkpt lat="42.41581344604492" lon="-6.912327289581299">
        <ele>365.0</ele>
        <time>2019-04-24T11:12:16.000Z</time>
      </trkpt>
      <trkpt lat="42.41581344604492" lon="-6.912410259246826">
        <ele>364.0</ele>
        <time>2019-04-24T11:12:20.000Z</time>
      </trkpt>
      <trkpt lat="42.41581726074219" lon="-6.912525177001953">
        <ele>363.0</ele>
        <time>2019-04-24T11:12:24.000Z</time>
      </trkpt>
      <trkpt lat="42.41581726074219" lon="-6.912661552429199">
        <ele>362.0</ele>
        <time>2019-04-24T11:12:28.000Z</time>
      </trkpt>
      <trkpt lat="42.41581726074219" lon="-6.912808418273926">
        <ele>361.0</ele>
        <time>2019-04-24T11:12:32.000Z</time>
      </trkpt>
      <trkpt lat="42.41579818725586" lon="-6.91292142868042">
        <ele>360.0</ele>
        <time>2019-04-24T11:12:40.000Z</time>
      </trkpt>
      <trkpt lat="42.415771484375" lon="-6.913031578063965">
        <ele>358.0</ele>
        <time>2019-04-24T11:12:48.000Z</time>
      </trkpt>
      <trkpt lat="42.41573715209961" lon="-6.913139820098877">
        <ele>357.0</ele>
        <time>2019-04-24T11:12:56.000Z</time>
      </trkpt>
      <trkpt lat="42.41570281982422" lon="-6.913247108459473">
        <ele>355.0</ele>
        <time>2019-04-24T11:13:04.000Z</time>
      </trkpt>
      <trkpt lat="42.41567611694336" lon="-6.913309574127197">
        <ele>354.0</ele>
        <time>2019-04-24T11:13:06.000Z</time>
      </trkpt>
      <trkpt lat="42.415653228759766" lon="-6.9133524894714355">
        <ele>354.0</ele>
        <time>2019-04-24T11:13:09.000Z</time>
      </trkpt>
      <trkpt lat="42.41563034057617" lon="-6.913382530212402">
        <ele>353.0</ele>
        <time>2019-04-24T11:13:11.000Z</time>
      </trkpt>
      <trkpt lat="42.41560745239258" lon="-6.913405418395996">
        <ele>354.0</ele>
        <time>2019-04-24T11:13:14.000Z</time>
      </trkpt>
      <trkpt lat="42.41559600830078" lon="-6.913540363311768">
        <ele>352.0</ele>
        <time>2019-04-24T11:13:24.000Z</time>
      </trkpt>
      <trkpt lat="42.41559600830078" lon="-6.913701057434082">
        <ele>350.0</ele>
        <time>2019-04-24T11:13:34.000Z</time>
      </trkpt>
      <trkpt lat="42.41557693481445" lon="-6.913800239562988">
        <ele>349.0</ele>
        <time>2019-04-24T11:13:41.000Z</time>
      </trkpt>
      <trkpt lat="42.41554641723633" lon="-6.913909435272217">
        <ele>348.0</ele>
        <time>2019-04-24T11:13:49.000Z</time>
      </trkpt>
      <trkpt lat="42.4155158996582" lon="-6.914026260375977">
        <ele>347.0</ele>
        <time>2019-04-24T11:13:57.000Z</time>
      </trkpt>
      <trkpt lat="42.41547775268555" lon="-6.914146423339844">
        <ele>346.0</ele>
        <time>2019-04-24T11:14:05.000Z</time>
      </trkpt>
      <trkpt lat="42.41543960571289" lon="-6.914252281188965">
        <ele>346.0</ele>
        <time>2019-04-24T11:14:12.000Z</time>
      </trkpt>
      <trkpt lat="42.4153938293457" lon="-6.914355754852295">
        <ele>345.0</ele>
        <time>2019-04-24T11:14:20.000Z</time>
      </trkpt>
      <trkpt lat="42.415348052978516" lon="-6.914457321166992">
        <ele>345.0</ele>
        <time>2019-04-24T11:14:28.000Z</time>
      </trkpt>
      <trkpt lat="42.41530227661133" lon="-6.914558410644531">
        <ele>345.0</ele>
        <time>2019-04-24T11:14:36.000Z</time>
      </trkpt>
      <trkpt lat="42.41527557373047" lon="-6.914649963378906">
        <ele>347.0</ele>
        <time>2019-04-24T11:14:41.000Z</time>
      </trkpt>
      <trkpt lat="42.41525650024414" lon="-6.914736270904541">
        <ele>350.0</ele>
        <time>2019-04-24T11:14:47.000Z</time>
      </trkpt>
      <trkpt lat="42.415245056152344" lon="-6.914819240570068">
        <ele>354.0</ele>
        <time>2019-04-24T11:14:52.000Z</time>
      </trkpt>
      <trkpt lat="42.41523742675781" lon="-6.914900779724121">
        <ele>358.0</ele>
        <time>2019-04-24T11:14:58.000Z</time>
      </trkpt>
      <trkpt lat="42.41525650024414" lon="-6.914950370788574">
        <ele>362.0</ele>
        <time>2019-04-24T11:15:03.000Z</time>
      </trkpt>
      <trkpt lat="42.415287017822266" lon="-6.914985179901123">
        <ele>365.0</ele>
        <time>2019-04-24T11:15:08.000Z</time>
      </trkpt>
      <trkpt lat="42.41533279418945" lon="-6.915009498596191">
        <ele>369.0</ele>
        <time>2019-04-24T11:15:13.000Z</time>
      </trkpt>
      <trkpt lat="42.41537857055664" lon="-6.915029048919678">
        <ele>372.0</ele>
        <time>2019-04-24T11:15:18.000Z</time>
      </trkpt>
      <trkpt lat="42.415462493896484" lon="-6.915213108062744">
        <ele>377.0</ele>
        <time>2019-04-24T11:15:34.000Z</time>
      </trkpt>
      <trkpt lat="42.41555404663086" lon="-6.915451526641846">
        <ele>381.0</ele>
        <time>2019-04-24T11:15:50.000Z</time>
      </trkpt>
      <trkpt lat="42.41556167602539" lon="-6.915563106536865">
        <ele>383.0</ele>
        <time>2019-04-24T11:15:55.000Z</time>
      </trkpt>
      <trkpt lat="42.41553497314453" lon="-6.915627956390381">
        <ele>383.0</ele>
        <time>2019-04-24T11:16:01.000Z</time>
      </trkpt>
      <trkpt lat="42.415565490722656" lon="-6.915685653686523">
        <ele>383.0</ele>
        <time>2019-04-24T11:16:07.000Z</time>
      </trkpt>
      <trkpt lat="42.41560745239258" lon="-6.915748596191406">
        <ele>384.0</ele>
        <time>2019-04-24T11:16:13.000Z</time>
      </trkpt>
      <trkpt lat="42.4156608581543" lon="-6.915815353393555">
        <ele>384.0</ele>
        <time>2019-04-24T11:16:19.000Z</time>
      </trkpt>
      <trkpt lat="42.41572189331055" lon="-6.915884017944336">
        <ele>385.0</ele>
        <time>2019-04-24T11:16:26.000Z</time>
      </trkpt>
      <trkpt lat="42.415771484375" lon="-6.9159698486328125">
        <ele>384.0</ele>
        <time>2019-04-24T11:16:34.000Z</time>
      </trkpt>
      <trkpt lat="42.41582489013672" lon="-6.916064739227295">
        <ele>384.0</ele>
        <time>2019-04-24T11:16:42.000Z</time>
      </trkpt>
      <trkpt lat="42.41587829589844" lon="-6.916165351867676">
        <ele>383.0</ele>
        <time>2019-04-24T11:16:50.000Z</time>
      </trkpt>
      <trkpt lat="42.415931701660156" lon="-6.916269302368164">
        <ele>382.0</ele>
        <time>2019-04-24T11:16:59.000Z</time>
      </trkpt>
      <trkpt lat="42.41598129272461" lon="-6.9163665771484375">
        <ele>381.0</ele>
        <time>2019-04-24T11:17:06.000Z</time>
      </trkpt>
      <trkpt lat="42.41603469848633" lon="-6.916464805603027">
        <ele>381.0</ele>
        <time>2019-04-24T11:17:14.000Z</time>
      </trkpt>
      <trkpt lat="42.41608428955078" lon="-6.916563510894775">
        <ele>381.0</ele>
        <time>2019-04-24T11:17:22.000Z</time>
      </trkpt>
      <trkpt lat="42.4161376953125" lon="-6.916662693023682">
        <ele>381.0</ele>
        <time>2019-04-24T11:17:30.000Z</time>
      </trkpt>
      <trkpt lat="42.41619873046875" lon="-6.916747570037842">
        <ele>381.0</ele>
        <time>2019-04-24T11:17:38.000Z</time>
      </trkpt>
      <trkpt lat="42.41626739501953" lon="-6.91682767868042">
        <ele>380.0</ele>
        <time>2019-04-24T11:17:47.000Z</time>
      </trkpt>
      <trkpt lat="42.41633605957031" lon="-6.916903495788574">
        <ele>380.0</ele>
        <time>2019-04-24T11:17:55.000Z</time>
      </trkpt>
      <trkpt lat="42.41640853881836" lon="-6.916977882385254">
        <ele>380.0</ele>
        <time>2019-04-24T11:18:04.000Z</time>
      </trkpt>
      <trkpt lat="42.41645050048828" lon="-6.917072772979736">
        <ele>380.0</ele>
        <time>2019-04-24T11:18:07.000Z</time>
      </trkpt>
      <trkpt lat="42.416446685791016" lon="-6.917139053344727">
        <ele>381.0</ele>
        <time>2019-04-24T11:18:11.000Z</time>
      </trkpt>
      <trkpt lat="42.41648864746094" lon="-6.917179584503174">
        <ele>382.0</ele>
        <time>2019-04-24T11:18:15.000Z</time>
      </trkpt>
      <trkpt lat="42.416542053222656" lon="-6.917220592498779">
        <ele>383.0</ele>
        <time>2019-04-24T11:18:20.000Z</time>
      </trkpt>
      <trkpt lat="42.416603088378906" lon="-6.917262077331543">
        <ele>384.0</ele>
        <time>2019-04-24T11:18:24.000Z</time>
      </trkpt>
      <trkpt lat="42.41666793823242" lon="-6.917303562164307">
        <ele>385.0</ele>
        <time>2019-04-24T11:18:29.000Z</time>
      </trkpt>
      <trkpt lat="42.41673278808594" lon="-6.917369842529297">
        <ele>386.0</ele>
        <time>2019-04-24T11:18:37.000Z</time>
      </trkpt>
      <trkpt lat="42.41679763793945" lon="-6.917446613311768">
        <ele>386.0</ele>
        <time>2019-04-24T11:18:44.000Z</time>
      </trkpt>
      <trkpt lat="42.416866302490234" lon="-6.917530536651611">
        <ele>387.0</ele>
        <time>2019-04-24T11:18:52.000Z</time>
      </trkpt>
      <trkpt lat="42.41693878173828" lon="-6.917618274688721">
        <ele>387.0</ele>
        <time>2019-04-24T11:19:00.000Z</time>
      </trkpt>
      <trkpt lat="42.41699981689453" lon="-6.917698383331299">
        <ele>387.0</ele>
        <time>2019-04-24T11:19:07.000Z</time>
      </trkpt>
      <trkpt lat="42.41706085205078" lon="-6.917779445648193">
        <ele>387.0</ele>
        <time>2019-04-24T11:19:15.000Z</time>
      </trkpt>
      <trkpt lat="42.417118072509766" lon="-6.917860984802246">
        <ele>387.0</ele>
        <time>2019-04-24T11:19:22.000Z</time>
      </trkpt>
      <trkpt lat="42.417179107666016" lon="-6.917942523956299">
        <ele>387.0</ele>
        <time>2019-04-24T11:19:29.000Z</time>
      </trkpt>
      <trkpt lat="42.4172477722168" lon="-6.918008327484131">
        <ele>386.0</ele>
        <time>2019-04-24T11:19:36.000Z</time>
      </trkpt>
      <trkpt lat="42.417320251464844" lon="-6.918067455291748">
        <ele>386.0</ele>
        <time>2019-04-24T11:19:42.000Z</time>
      </trkpt>
      <trkpt lat="42.41739273071289" lon="-6.9181227684021">
        <ele>385.0</ele>
        <time>2019-04-24T11:19:48.000Z</time>
      </trkpt>
      <trkpt lat="42.4174690246582" lon="-6.91817569732666">
        <ele>385.0</ele>
        <time>2019-04-24T11:19:54.000Z</time>
      </trkpt>
      <trkpt lat="42.41753387451172" lon="-6.918252944946289">
        <ele>384.0</ele>
        <time>2019-04-24T11:20:02.000Z</time>
      </trkpt>
      <trkpt lat="42.41759490966797" lon="-6.918338298797607">
        <ele>383.0</ele>
        <time>2019-04-24T11:20:09.000Z</time>
      </trkpt>
      <trkpt lat="42.41765594482422" lon="-6.918428421020508">
        <ele>383.0</ele>
        <time>2019-04-24T11:20:17.000Z</time>
      </trkpt>
      <trkpt lat="42.4177131652832" lon="-6.918521404266357">
        <ele>382.0</ele>
        <time>2019-04-24T11:20:24.000Z</time>
      </trkpt>
      <trkpt lat="42.41777801513672" lon="-6.918595790863037">
        <ele>382.0</ele>
        <time>2019-04-24T11:20:31.000Z</time>
      </trkpt>
      <trkpt lat="42.4178466796875" lon="-6.918665409088135">
        <ele>381.0</ele>
        <time>2019-04-24T11:20:37.000Z</time>
      </trkpt>
      <trkpt lat="42.41791534423828" lon="-6.918731689453125">
        <ele>381.0</ele>
        <time>2019-04-24T11:20:44.000Z</time>
      </trkpt>
      <trkpt lat="42.41798782348633" lon="-6.918796539306641">
        <ele>381.0</ele>
        <time>2019-04-24T11:20:50.000Z</time>
      </trkpt>
      <trkpt lat="42.4182014465332" lon="-6.919172286987305">
        <ele>384.0</ele>
        <time>2019-04-24T11:21:19.000Z</time>
      </trkpt>
      <trkpt lat="42.41843795776367" lon="-6.919532299041748">
        <ele>384.0</ele>
        <time>2019-04-24T11:21:45.000Z</time>
      </trkpt>
      <trkpt lat="42.41863250732422" lon="-6.9199347496032715">
        <ele>384.0</ele>
        <time>2019-04-24T11:22:14.000Z</time>
      </trkpt>
      <trkpt lat="42.41884231567383" lon="-6.920313358306885">
        <ele>382.0</ele>
        <time>2019-04-24T11:22:47.000Z</time>
      </trkpt>
      <trkpt lat="42.41904067993164" lon="-6.920698642730713">
        <ele>381.0</ele>
        <time>2019-04-24T11:23:14.000Z</time>
      </trkpt>
      <trkpt lat="42.41923522949219" lon="-6.921080589294434">
        <ele>384.0</ele>
        <time>2019-04-24T11:23:42.000Z</time>
      </trkpt>
      <trkpt lat="42.41947555541992" lon="-6.9214043617248535">
        <ele>385.0</ele>
        <time>2019-04-24T11:24:13.000Z</time>
      </trkpt>
      <trkpt lat="42.41962432861328" lon="-6.921831130981445">
        <ele>384.0</ele>
        <time>2019-04-24T11:24:44.000Z</time>
      </trkpt>
      <trkpt lat="42.41961669921875" lon="-6.922055244445801">
        <ele>385.0</ele>
        <time>2019-04-24T11:24:59.000Z</time>
      </trkpt>
      <trkpt lat="42.41957092285156" lon="-6.922284126281738">
        <ele>385.0</ele>
        <time>2019-04-24T11:25:13.000Z</time>
      </trkpt>
      <trkpt lat="42.419551849365234" lon="-6.92240047454834">
        <ele>385.0</ele>
        <time>2019-04-24T11:25:19.000Z</time>
      </trkpt>
      <trkpt lat="42.41953659057617" lon="-6.922518253326416">
        <ele>386.0</ele>
        <time>2019-04-24T11:25:25.000Z</time>
      </trkpt>
      <trkpt lat="42.419517517089844" lon="-6.922636985778809">
        <ele>386.0</ele>
        <time>2019-04-24T11:25:31.000Z</time>
      </trkpt>
      <trkpt lat="42.419498443603516" lon="-6.922756195068359">
        <ele>387.0</ele>
        <time>2019-04-24T11:25:36.000Z</time>
      </trkpt>
      <trkpt lat="42.41950607299805" lon="-6.92287540435791">
        <ele>387.0</ele>
        <time>2019-04-24T11:25:44.000Z</time>
      </trkpt>
      <trkpt lat="42.419517517089844" lon="-6.922995090484619">
        <ele>387.0</ele>
        <time>2019-04-24T11:25:52.000Z</time>
      </trkpt>
      <trkpt lat="42.41954040527344" lon="-6.9231157302856445">
        <ele>387.0</ele>
        <time>2019-04-24T11:26:00.000Z</time>
      </trkpt>
      <trkpt lat="42.41956329345703" lon="-6.923235893249512">
        <ele>387.0</ele>
        <time>2019-04-24T11:26:07.000Z</time>
      </trkpt>
      <trkpt lat="42.41958236694336" lon="-6.92335319519043">
        <ele>387.0</ele>
        <time>2019-04-24T11:26:16.000Z</time>
      </trkpt>
      <trkpt lat="42.41960144042969" lon="-6.923469066619873">
        <ele>388.0</ele>
        <time>2019-04-24T11:26:24.000Z</time>
      </trkpt>
      <trkpt lat="42.419620513916016" lon="-6.923584461212158">
        <ele>389.0</ele>
        <time>2019-04-24T11:26:32.000Z</time>
      </trkpt>
      <trkpt lat="42.41964340209961" lon="-6.923699378967285">
        <ele>390.0</ele>
        <time>2019-04-24T11:26:40.000Z</time>
      </trkpt>
      <trkpt lat="42.41966247558594" lon="-6.923816204071045">
        <ele>390.0</ele>
        <time>2019-04-24T11:26:47.000Z</time>
      </trkpt>
      <trkpt lat="42.419681549072266" lon="-6.923933029174805">
        <ele>391.0</ele>
        <time>2019-04-24T11:26:54.000Z</time>
      </trkpt>
      <trkpt lat="42.419700622558594" lon="-6.9240498542785645">
        <ele>391.0</ele>
        <time>2019-04-24T11:27:01.000Z</time>
      </trkpt>
      <trkpt lat="42.41971969604492" lon="-6.924167156219482">
        <ele>391.0</ele>
        <time>2019-04-24T11:27:08.000Z</time>
      </trkpt>
      <trkpt lat="42.41974639892578" lon="-6.924282550811768">
        <ele>392.0</ele>
        <time>2019-04-24T11:27:15.000Z</time>
      </trkpt>
      <trkpt lat="42.41977310180664" lon="-6.9243974685668945">
        <ele>393.0</ele>
        <time>2019-04-24T11:27:21.000Z</time>
      </trkpt>
      <trkpt lat="42.4197998046875" lon="-6.924511432647705">
        <ele>395.0</ele>
        <time>2019-04-24T11:27:28.000Z</time>
      </trkpt>
      <trkpt lat="42.419830322265625" lon="-6.924625873565674">
        <ele>396.0</ele>
        <time>2019-04-24T11:27:34.000Z</time>
      </trkpt>
      <trkpt lat="42.41986083984375" lon="-6.925111293792725">
        <ele>399.0</ele>
        <time>2019-04-24T11:28:05.000Z</time>
      </trkpt>
      <trkpt lat="42.42000198364258" lon="-6.925561428070068">
        <ele>399.0</ele>
        <time>2019-04-24T11:28:33.000Z</time>
      </trkpt>
      <trkpt lat="42.42020797729492" lon="-6.925946235656738">
        <ele>397.0</ele>
        <time>2019-04-24T11:28:59.000Z</time>
      </trkpt>
      <trkpt lat="42.42042541503906" lon="-6.926333427429199">
        <ele>391.0</ele>
        <time>2019-04-24T11:29:29.000Z</time>
      </trkpt>
      <trkpt lat="42.4206428527832" lon="-6.926690101623535">
        <ele>392.0</ele>
        <time>2019-04-24T11:29:57.000Z</time>
      </trkpt>
      <trkpt lat="42.42082595825195" lon="-6.92711067199707">
        <ele>396.0</ele>
        <time>2019-04-24T11:30:24.000Z</time>
      </trkpt>
      <trkpt lat="42.421085357666016" lon="-6.9274468421936035">
        <ele>399.0</ele>
        <time>2019-04-24T11:30:50.000Z</time>
      </trkpt>
      <trkpt lat="42.4212532043457" lon="-6.927863121032715">
        <ele>401.0</ele>
        <time>2019-04-24T11:31:18.000Z</time>
      </trkpt>
      <trkpt lat="42.42140579223633" lon="-6.928280830383301">
        <ele>397.0</ele>
        <time>2019-04-24T11:31:47.000Z</time>
      </trkpt>
      <trkpt lat="42.421417236328125" lon="-6.928516864776611">
        <ele>397.0</ele>
        <time>2019-04-24T11:32:00.000Z</time>
      </trkpt>
      <trkpt lat="42.4213981628418" lon="-6.928765296936035">
        <ele>397.0</ele>
        <time>2019-04-24T11:32:12.000Z</time>
      </trkpt>
      <trkpt lat="42.42143630981445" lon="-6.9289021492004395">
        <ele>399.0</ele>
        <time>2019-04-24T11:32:20.000Z</time>
      </trkpt>
      <trkpt lat="42.42148971557617" lon="-6.928989887237549">
        <ele>401.0</ele>
        <time>2019-04-24T11:32:27.000Z</time>
      </trkpt>
      <trkpt lat="42.42152786254883" lon="-6.929078578948975">
        <ele>400.0</ele>
        <time>2019-04-24T11:32:35.000Z</time>
      </trkpt>
      <trkpt lat="42.42156982421875" lon="-6.92918062210083">
        <ele>399.0</ele>
        <time>2019-04-24T11:32:43.000Z</time>
      </trkpt>
      <trkpt lat="42.42161560058594" lon="-6.929291248321533">
        <ele>397.0</ele>
        <time>2019-04-24T11:32:51.000Z</time>
      </trkpt>
      <trkpt lat="42.42166519165039" lon="-6.929406642913818">
        <ele>396.0</ele>
        <time>2019-04-24T11:32:59.000Z</time>
      </trkpt>
      <trkpt lat="42.421714782714844" lon="-6.929505348205566">
        <ele>395.0</ele>
        <time>2019-04-24T11:33:07.000Z</time>
      </trkpt>
      <trkpt lat="42.4217643737793" lon="-6.929601192474365">
        <ele>394.0</ele>
        <time>2019-04-24T11:33:14.000Z</time>
      </trkpt>
      <trkpt lat="42.421817779541016" lon="-6.9296956062316895">
        <ele>394.0</ele>
        <time>2019-04-24T11:33:22.000Z</time>
      </trkpt>
      <trkpt lat="42.421871185302734" lon="-6.929789066314697">
        <ele>394.0</ele>
        <time>2019-04-24T11:33:29.000Z</time>
      </trkpt>
      <trkpt lat="42.42192840576172" lon="-6.929879188537598">
        <ele>393.0</ele>
        <time>2019-04-24T11:33:37.000Z</time>
      </trkpt>
      <trkpt lat="42.42198944091797" lon="-6.929966926574707">
        <ele>392.0</ele>
        <time>2019-04-24T11:33:45.000Z</time>
      </trkpt>
      <trkpt lat="42.42205047607422" lon="-6.930053234100342">
        <ele>391.0</ele>
        <time>2019-04-24T11:33:53.000Z</time>
      </trkpt>
      <trkpt lat="42.42211151123047" lon="-6.93013858795166">
        <ele>389.0</ele>
        <time>2019-04-24T11:34:01.000Z</time>
      </trkpt>
      <trkpt lat="42.422176361083984" lon="-6.930355072021484">
        <ele>387.0</ele>
        <time>2019-04-24T11:34:18.000Z</time>
      </trkpt>
      <trkpt lat="42.422218322753906" lon="-6.930591106414795">
        <ele>384.0</ele>
        <time>2019-04-24T11:34:34.000Z</time>
      </trkpt>
      <trkpt lat="42.42221450805664" lon="-6.9308247566223145">
        <ele>382.0</ele>
        <time>2019-04-24T11:34:50.000Z</time>
      </trkpt>
      <trkpt lat="42.42218017578125" lon="-6.9310622215271">
        <ele>380.0</ele>
        <time>2019-04-24T11:35:05.000Z</time>
      </trkpt>
      <trkpt lat="42.42210388183594" lon="-6.931270122528076">
        <ele>377.0</ele>
        <time>2019-04-24T11:35:21.000Z</time>
      </trkpt>
      <trkpt lat="42.4219970703125" lon="-6.9314656257629395">
        <ele>374.0</ele>
        <time>2019-04-24T11:35:36.000Z</time>
      </trkpt>
      <trkpt lat="42.421966552734375" lon="-6.93154239654541">
        <ele>374.0</ele>
        <time>2019-04-24T11:35:42.000Z</time>
      </trkpt>
      <trkpt lat="42.42194747924805" lon="-6.931609153747559">
        <ele>375.0</ele>
        <time>2019-04-24T11:35:48.000Z</time>
      </trkpt>
      <trkpt lat="42.421932220458984" lon="-6.93166971206665">
        <ele>376.0</ele>
        <time>2019-04-24T11:35:54.000Z</time>
      </trkpt>
      <trkpt lat="42.42191696166992" lon="-6.931726455688477">
        <ele>377.0</ele>
        <time>2019-04-24T11:36:00.000Z</time>
      </trkpt>
      <trkpt lat="42.42190933227539" lon="-6.931761264801025">
        <ele>377.0</ele>
        <time>2019-04-24T11:36:20.000Z</time>
      </trkpt>
      <trkpt lat="42.421905517578125" lon="-6.9317827224731445">
        <ele>376.0</ele>
        <time>2019-04-24T11:36:40.000Z</time>
      </trkpt>
      <trkpt lat="42.42190933227539" lon="-6.931796073913574">
        <ele>375.0</ele>
        <time>2019-04-24T11:37:00.000Z</time>
      </trkpt>
      <trkpt lat="42.421913146972656" lon="-6.93180513381958">
        <ele>374.0</ele>
        <time>2019-04-24T11:37:20.000Z</time>
      </trkpt>
      <trkpt lat="42.42190933227539" lon="-6.93181848526001">
        <ele>374.0</ele>
        <time>2019-04-24T11:37:21.000Z</time>
      </trkpt>
      <trkpt lat="42.42190933227539" lon="-6.931829452514648">
        <ele>374.0</ele>
        <time>2019-04-24T11:37:21.000Z</time>
      </trkpt>
      <trkpt lat="42.42190933227539" lon="-6.9318389892578125">
        <ele>374.0</ele>
        <time>2019-04-24T11:37:21.000Z</time>
      </trkpt>
      <trkpt lat="42.42190933227539" lon="-6.931847095489502">
        <ele>374.0</ele>
        <time>2019-04-24T11:37:21.000Z</time>
      </trkpt>
      <trkpt lat="42.42190933227539" lon="-6.931899547576904">
        <ele>373.0</ele>
        <time>2019-04-24T11:37:26.000Z</time>
      </trkpt>
      <trkpt lat="42.421913146972656" lon="-6.931969165802002">
        <ele>372.0</ele>
        <time>2019-04-24T11:37:30.000Z</time>
      </trkpt>
      <trkpt lat="42.421913146972656" lon="-6.932050704956055">
        <ele>371.0</ele>
        <time>2019-04-24T11:37:34.000Z</time>
      </trkpt>
      <trkpt lat="42.42191696166992" lon="-6.932137489318848">
        <ele>369.0</ele>
        <time>2019-04-24T11:37:38.000Z</time>
      </trkpt>
      <trkpt lat="42.421913146972656" lon="-6.93218994140625">
        <ele>368.0</ele>
        <time>2019-04-24T11:37:46.000Z</time>
      </trkpt>
      <trkpt lat="42.42190933227539" lon="-6.932233810424805">
        <ele>367.0</ele>
        <time>2019-04-24T11:37:54.000Z</time>
      </trkpt>
      <trkpt lat="42.42190170288086" lon="-6.932272434234619">
        <ele>366.0</ele>
        <time>2019-04-24T11:38:02.000Z</time>
      </trkpt>
      <trkpt lat="42.42189407348633" lon="-6.932307720184326">
        <ele>365.0</ele>
        <time>2019-04-24T11:38:10.000Z</time>
      </trkpt>
      <trkpt lat="42.4218864440918" lon="-6.932374477386475">
        <ele>365.0</ele>
        <time>2019-04-24T11:38:11.000Z</time>
      </trkpt>
      <trkpt lat="42.42188262939453" lon="-6.932405471801758">
        <ele>365.0</ele>
        <time>2019-04-24T11:38:12.000Z</time>
      </trkpt>
      <trkpt lat="42.42188262939453" lon="-6.932412147521973">
        <ele>364.0</ele>
        <time>2019-04-24T11:38:32.000Z</time>
      </trkpt>
      <trkpt lat="42.42188262939453" lon="-6.9324188232421875">
        <ele>364.0</ele>
        <time>2019-04-24T11:38:33.000Z</time>
      </trkpt>
      <trkpt lat="42.421878814697266" lon="-6.9324951171875">
        <ele>364.0</ele>
        <time>2019-04-24T11:38:36.000Z</time>
      </trkpt>
      <trkpt lat="42.42185974121094" lon="-6.932939052581787">
        <ele>363.0</ele>
        <time>2019-04-24T11:38:41.000Z</time>
      </trkpt>
      <trkpt lat="42.42192459106445" lon="-6.9333882331848145">
        <ele>350.0</ele>
        <time>2019-04-24T11:39:24.000Z</time>
      </trkpt>
      <trkpt lat="42.421875" lon="-6.933843612670898">
        <ele>346.0</ele>
        <time>2019-04-24T11:39:57.000Z</time>
      </trkpt>
      <trkpt lat="42.42192840576172" lon="-6.934306621551514">
        <ele>340.0</ele>
        <time>2019-04-24T11:40:36.000Z</time>
      </trkpt>
      <trkpt lat="42.4219856262207" lon="-6.934749126434326">
        <ele>337.0</ele>
        <time>2019-04-24T11:41:06.000Z</time>
      </trkpt>
      <trkpt lat="42.421939849853516" lon="-6.9349565505981445">
        <ele>335.0</ele>
        <time>2019-04-24T11:41:25.000Z</time>
      </trkpt>
      <trkpt lat="42.42185592651367" lon="-6.9351582527160645">
        <ele>334.0</ele>
        <time>2019-04-24T11:41:43.000Z</time>
      </trkpt>
      <trkpt lat="42.421836853027344" lon="-6.935254096984863">
        <ele>333.0</ele>
        <time>2019-04-24T11:41:49.000Z</time>
      </trkpt>
      <trkpt lat="42.42182159423828" lon="-6.935347557067871">
        <ele>333.0</ele>
        <time>2019-04-24T11:41:55.000Z</time>
      </trkpt>
      <trkpt lat="42.42180633544922" lon="-6.935439109802246">
        <ele>332.0</ele>
        <time>2019-04-24T11:42:01.000Z</time>
      </trkpt>
      <trkpt lat="42.42179489135742" lon="-6.935529708862305">
        <ele>331.0</ele>
        <time>2019-04-24T11:42:07.000Z</time>
      </trkpt>
      <trkpt lat="42.42180252075195" lon="-6.935607433319092">
        <ele>331.0</ele>
        <time>2019-04-24T11:42:14.000Z</time>
      </trkpt>
      <trkpt lat="42.42182922363281" lon="-6.935635089874268">
        <ele>333.0</ele>
        <time>2019-04-24T11:42:21.000Z</time>
      </trkpt>
      <trkpt lat="42.421836853027344" lon="-6.9356560707092285">
        <ele>334.0</ele>
        <time>2019-04-24T11:42:42.000Z</time>
      </trkpt>
      <trkpt lat="42.421844482421875" lon="-6.935675621032715">
        <ele>337.0</ele>
        <time>2019-04-24T11:43:03.000Z</time>
      </trkpt>
      <trkpt lat="42.421852111816406" lon="-6.935693264007568">
        <ele>340.0</ele>
        <time>2019-04-24T11:43:24.000Z</time>
      </trkpt>
      <trkpt lat="42.42185974121094" lon="-6.935710430145264">
        <ele>343.0</ele>
        <time>2019-04-24T11:43:45.000Z</time>
      </trkpt>
      <trkpt lat="42.4218635559082" lon="-6.935722827911377">
        <ele>343.0</ele>
        <time>2019-04-24T11:43:45.000Z</time>
      </trkpt>
      <trkpt lat="42.42186737060547" lon="-6.935732841491699">
        <ele>343.0</ele>
        <time>2019-04-24T11:43:45.000Z</time>
      </trkpt>
      <trkpt lat="42.421871185302734" lon="-6.935740947723389">
        <ele>343.0</ele>
        <time>2019-04-24T11:43:46.000Z</time>
      </trkpt>
      <trkpt lat="42.421875" lon="-6.93574857711792">
        <ele>343.0</ele>
        <time>2019-04-24T11:43:46.000Z</time>
      </trkpt>
      <trkpt lat="42.42189407348633" lon="-6.935809135437012">
        <ele>342.0</ele>
        <time>2019-04-24T11:43:51.000Z</time>
      </trkpt>
      <trkpt lat="42.42192077636719" lon="-6.935891151428223">
        <ele>342.0</ele>
        <time>2019-04-24T11:43:57.000Z</time>
      </trkpt>
      <trkpt lat="42.42194747924805" lon="-6.93598747253418">
        <ele>341.0</ele>
        <time>2019-04-24T11:44:02.000Z</time>
      </trkpt>
      <trkpt lat="42.42198181152344" lon="-6.93609094619751">
        <ele>340.0</ele>
        <time>2019-04-24T11:44:08.000Z</time>
      </trkpt>
      <trkpt lat="42.42198181152344" lon="-6.9361395835876465">
        <ele>340.0</ele>
        <time>2019-04-24T11:44:11.000Z</time>
      </trkpt>
      <trkpt lat="42.42197036743164" lon="-6.936172962188721">
        <ele>340.0</ele>
        <time>2019-04-24T11:44:14.000Z</time>
      </trkpt>
      <trkpt lat="42.42195129394531" lon="-6.9361958503723145">
        <ele>341.0</ele>
        <time>2019-04-24T11:44:18.000Z</time>
      </trkpt>
      <trkpt lat="42.42192840576172" lon="-6.936213970184326">
        <ele>341.0</ele>
        <time>2019-04-24T11:44:21.000Z</time>
      </trkpt>
      <trkpt lat="42.42192840576172" lon="-6.9362473487854">
        <ele>343.0</ele>
        <time>2019-04-24T11:44:38.000Z</time>
      </trkpt>
      <trkpt lat="42.42193603515625" lon="-6.936281681060791">
        <ele>346.0</ele>
        <time>2019-04-24T11:44:55.000Z</time>
      </trkpt>
      <trkpt lat="42.42194366455078" lon="-6.936316967010498">
        <ele>350.0</ele>
        <time>2019-04-24T11:45:12.000Z</time>
      </trkpt>
      <trkpt lat="42.421958923339844" lon="-6.936352252960205">
        <ele>354.0</ele>
        <time>2019-04-24T11:45:29.000Z</time>
      </trkpt>
      <trkpt lat="42.42196273803711" lon="-6.936374187469482">
        <ele>355.0</ele>
        <time>2019-04-24T11:45:29.000Z</time>
      </trkpt>
      <trkpt lat="42.421966552734375" lon="-6.936389923095703">
        <ele>355.0</ele>
        <time>2019-04-24T11:45:29.000Z</time>
      </trkpt>
      <trkpt lat="42.42197036743164" lon="-6.936402320861816">
        <ele>354.0</ele>
        <time>2019-04-24T11:45:30.000Z</time>
      </trkpt>
      <trkpt lat="42.42197036743164" lon="-6.936413288116455">
        <ele>354.0</ele>
        <time>2019-04-24T11:45:30.000Z</time>
      </trkpt>
      <trkpt lat="42.42197036743164" lon="-6.936460018157959">
        <ele>354.0</ele>
        <time>2019-04-24T11:45:32.000Z</time>
      </trkpt>
      <trkpt lat="42.42197036743164" lon="-6.936520099639893">
        <ele>354.0</ele>
        <time>2019-04-24T11:45:35.000Z</time>
      </trkpt>
      <trkpt lat="42.421966552734375" lon="-6.936589241027832">
        <ele>354.0</ele>
        <time>2019-04-24T11:45:37.000Z</time>
      </trkpt>
      <trkpt lat="42.42196273803711" lon="-6.936662673950195">
        <ele>354.0</ele>
        <time>2019-04-24T11:45:40.000Z</time>
      </trkpt>
      <trkpt lat="42.42195510864258" lon="-6.9366984367370605">
        <ele>354.0</ele>
        <time>2019-04-24T11:45:42.000Z</time>
      </trkpt>
      <trkpt lat="42.42194747924805" lon="-6.936723232269287">
        <ele>354.0</ele>
        <time>2019-04-24T11:45:43.000Z</time>
      </trkpt>
      <trkpt lat="42.421939849853516" lon="-6.936739921569824">
        <ele>354.0</ele>
        <time>2019-04-24T11:45:45.000Z</time>
      </trkpt>
      <trkpt lat="42.42192840576172" lon="-6.936753749847412">
        <ele>354.0</ele>
        <time>2019-04-24T11:45:47.000Z</time>
      </trkpt>
      <trkpt lat="42.42192459106445" lon="-6.936769008636475">
        <ele>354.0</ele>
        <time>2019-04-24T11:45:51.000Z</time>
      </trkpt>
      <trkpt lat="42.42191696166992" lon="-6.936781883239746">
        <ele>354.0</ele>
        <time>2019-04-24T11:45:55.000Z</time>
      </trkpt>
      <trkpt lat="42.421913146972656" lon="-6.936792373657227">
        <ele>353.0</ele>
        <time>2019-04-24T11:45:59.000Z</time>
      </trkpt>
      <trkpt lat="42.42190933227539" lon="-6.936802387237549">
        <ele>353.0</ele>
        <time>2019-04-24T11:46:03.000Z</time>
      </trkpt>
      <trkpt lat="42.421905517578125" lon="-6.936811923980713">
        <ele>353.0</ele>
        <time>2019-04-24T11:46:03.000Z</time>
      </trkpt>
      <trkpt lat="42.421905517578125" lon="-6.936820030212402">
        <ele>353.0</ele>
        <time>2019-04-24T11:46:03.000Z</time>
      </trkpt>
      <trkpt lat="42.42190170288086" lon="-6.936827659606934">
        <ele>353.0</ele>
        <time>2019-04-24T11:46:04.000Z</time>
      </trkpt>
      <trkpt lat="42.421897888183594" lon="-6.936835289001465">
        <ele>353.0</ele>
        <time>2019-04-24T11:46:04.000Z</time>
      </trkpt>
      <trkpt lat="42.421871185302734" lon="-6.936926364898682">
        <ele>353.0</ele>
        <time>2019-04-24T11:46:07.000Z</time>
      </trkpt>
      <trkpt lat="42.42186737060547" lon="-6.936971664428711">
        <ele>353.0</ele>
        <time>2019-04-24T11:46:24.000Z</time>
      </trkpt>
      <trkpt lat="42.42186737060547" lon="-6.937005519866943">
        <ele>353.0</ele>
        <time>2019-04-24T11:46:25.000Z</time>
      </trkpt>
      <trkpt lat="42.4218635559082" lon="-6.937019348144531">
        <ele>353.0</ele>
        <time>2019-04-24T11:46:27.000Z</time>
      </trkpt>
      <trkpt lat="42.42184066772461" lon="-6.937190532684326">
        <ele>352.0</ele>
        <time>2019-04-24T11:46:32.000Z</time>
      </trkpt>
      <trkpt lat="42.42183303833008" lon="-6.937252521514893">
        <ele>352.0</ele>
        <time>2019-04-24T11:46:33.000Z</time>
      </trkpt>
      <trkpt lat="42.42173767089844" lon="-6.937615871429443">
        <ele>349.0</ele>
        <time>2019-04-24T11:46:54.000Z</time>
      </trkpt>
      <trkpt lat="42.42169189453125" lon="-6.937747478485107">
        <ele>344.0</ele>
        <time>2019-04-24T11:47:09.000Z</time>
      </trkpt>
      <trkpt lat="42.42167663574219" lon="-6.937792778015137">
        <ele>344.0</ele>
        <time>2019-04-24T11:47:10.000Z</time>
      </trkpt>
      <trkpt lat="42.4215087890625" lon="-6.938210487365723">
        <ele>336.0</ele>
        <time>2019-04-24T11:47:38.000Z</time>
      </trkpt>
      <trkpt lat="42.42134475708008" lon="-6.9386305809021">
        <ele>335.0</ele>
        <time>2019-04-24T11:47:58.000Z</time>
      </trkpt>
      <trkpt lat="42.42134475708008" lon="-6.938742637634277">
        <ele>335.0</ele>
        <time>2019-04-24T11:48:06.000Z</time>
      </trkpt>
      <trkpt lat="42.421363830566406" lon="-6.9388580322265625">
        <ele>335.0</ele>
        <time>2019-04-24T11:48:14.000Z</time>
      </trkpt>
      <trkpt lat="42.42139434814453" lon="-6.9389753341674805">
        <ele>334.0</ele>
        <time>2019-04-24T11:48:23.000Z</time>
      </trkpt>
      <trkpt lat="42.42143249511719" lon="-6.939094066619873">
        <ele>334.0</ele>
        <time>2019-04-24T11:48:31.000Z</time>
      </trkpt>
      <trkpt lat="42.42139434814453" lon="-6.9393229484558105">
        <ele>334.0</ele>
        <time>2019-04-24T11:48:44.000Z</time>
      </trkpt>
      <trkpt lat="42.421321868896484" lon="-6.939550876617432">
        <ele>334.0</ele>
        <time>2019-04-24T11:48:57.000Z</time>
      </trkpt>
      <trkpt lat="42.421302795410156" lon="-6.939664840698242">
        <ele>333.0</ele>
        <time>2019-04-24T11:49:04.000Z</time>
      </trkpt>
      <trkpt lat="42.42128372192383" lon="-6.939779281616211">
        <ele>333.0</ele>
        <time>2019-04-24T11:49:11.000Z</time>
      </trkpt>
      <trkpt lat="42.42127227783203" lon="-6.93989372253418">
        <ele>332.0</ele>
        <time>2019-04-24T11:49:18.000Z</time>
      </trkpt>
      <trkpt lat="42.42125701904297" lon="-6.940008163452148">
        <ele>332.0</ele>
        <time>2019-04-24T11:49:25.000Z</time>
      </trkpt>
      <trkpt lat="42.42129898071289" lon="-6.9402360916137695">
        <ele>331.0</ele>
        <time>2019-04-24T11:49:40.000Z</time>
      </trkpt>
      <trkpt lat="42.42137145996094" lon="-6.940463542938232">
        <ele>332.0</ele>
        <time>2019-04-24T11:49:56.000Z</time>
      </trkpt>
      <trkpt lat="42.4213981628418" lon="-6.940529823303223">
        <ele>332.0</ele>
        <time>2019-04-24T11:49:59.000Z</time>
      </trkpt>
      <trkpt lat="42.42142105102539" lon="-6.94057559967041">
        <ele>332.0</ele>
        <time>2019-04-24T11:50:02.000Z</time>
      </trkpt>
      <trkpt lat="42.42144775390625" lon="-6.940608501434326">
        <ele>331.0</ele>
        <time>2019-04-24T11:50:05.000Z</time>
      </trkpt>
      <trkpt lat="42.421470642089844" lon="-6.940634250640869">
        <ele>331.0</ele>
        <time>2019-04-24T11:50:08.000Z</time>
      </trkpt>
      <trkpt lat="42.421485900878906" lon="-6.940764904022217">
        <ele>332.0</ele>
        <time>2019-04-24T11:50:16.000Z</time>
      </trkpt>
      <trkpt lat="42.42148208618164" lon="-6.940916061401367">
        <ele>332.0</ele>
        <time>2019-04-24T11:50:25.000Z</time>
      </trkpt>
      <trkpt lat="42.42148208618164" lon="-6.940952301025391">
        <ele>333.0</ele>
        <time>2019-04-24T11:50:27.000Z</time>
      </trkpt>
      <trkpt lat="42.42147445678711" lon="-6.940974235534668">
        <ele>333.0</ele>
        <time>2019-04-24T11:50:28.000Z</time>
      </trkpt>
      <trkpt lat="42.421470642089844" lon="-6.9409871101379395">
        <ele>333.0</ele>
        <time>2019-04-24T11:50:30.000Z</time>
      </trkpt>
      <trkpt lat="42.42146301269531" lon="-6.940995216369629">
        <ele>333.0</ele>
        <time>2019-04-24T11:50:32.000Z</time>
      </trkpt>
      <trkpt lat="42.42145538330078" lon="-6.941008567810059">
        <ele>333.0</ele>
        <time>2019-04-24T11:50:42.000Z</time>
      </trkpt>
      <trkpt lat="42.421443939208984" lon="-6.941019058227539">
        <ele>334.0</ele>
        <time>2019-04-24T11:50:52.000Z</time>
      </trkpt>
      <trkpt lat="42.42143249511719" lon="-6.941028118133545">
        <ele>335.0</ele>
        <time>2019-04-24T11:51:03.000Z</time>
      </trkpt>
      <trkpt lat="42.42142105102539" lon="-6.941035747528076">
        <ele>336.0</ele>
        <time>2019-04-24T11:51:13.000Z</time>
      </trkpt>
      <trkpt lat="42.42141342163086" lon="-6.941043376922607">
        <ele>337.0</ele>
        <time>2019-04-24T11:51:13.000Z</time>
      </trkpt>
      <trkpt lat="42.42140579223633" lon="-6.941049098968506">
        <ele>337.0</ele>
        <time>2019-04-24T11:51:13.000Z</time>
      </trkpt>
      <trkpt lat="42.42140197753906" lon="-6.941054344177246">
        <ele>337.0</ele>
        <time>2019-04-24T11:51:14.000Z</time>
      </trkpt>
      <trkpt lat="42.42139434814453" lon="-6.941059589385986">
        <ele>336.0</ele>
        <time>2019-04-24T11:51:14.000Z</time>
      </trkpt>
      <trkpt lat="42.42136764526367" lon="-6.941136837005615">
        <ele>337.0</ele>
        <time>2019-04-24T11:51:21.000Z</time>
      </trkpt>
      <trkpt lat="42.42133712768555" lon="-6.941244125366211">
        <ele>337.0</ele>
        <time>2019-04-24T11:51:29.000Z</time>
      </trkpt>
      <trkpt lat="42.421329498291016" lon="-6.941279888153076">
        <ele>338.0</ele>
        <time>2019-04-24T11:51:41.000Z</time>
      </trkpt>
      <trkpt lat="42.421329498291016" lon="-6.941310882568359">
        <ele>338.0</ele>
        <time>2019-04-24T11:51:53.000Z</time>
      </trkpt>
      <trkpt lat="42.42132568359375" lon="-6.941339492797852">
        <ele>338.0</ele>
        <time>2019-04-24T11:52:05.000Z</time>
      </trkpt>
      <trkpt lat="42.421329498291016" lon="-6.941366195678711">
        <ele>339.0</ele>
        <time>2019-04-24T11:52:17.000Z</time>
      </trkpt>
      <trkpt lat="42.42132568359375" lon="-6.941384315490723">
        <ele>339.0</ele>
        <time>2019-04-24T11:52:17.000Z</time>
      </trkpt>
      <trkpt lat="42.42132568359375" lon="-6.941397190093994">
        <ele>339.0</ele>
        <time>2019-04-24T11:52:17.000Z</time>
      </trkpt>
      <trkpt lat="42.42132568359375" lon="-6.941406726837158">
        <ele>339.0</ele>
        <time>2019-04-24T11:52:18.000Z</time>
      </trkpt>
      <trkpt lat="42.42132568359375" lon="-6.9414143562316895">
        <ele>339.0</ele>
        <time>2019-04-24T11:52:18.000Z</time>
      </trkpt>
      <trkpt lat="42.421321868896484" lon="-6.941460132598877">
        <ele>339.0</ele>
        <time>2019-04-24T11:52:21.000Z</time>
      </trkpt>
      <trkpt lat="42.42131805419922" lon="-6.941519737243652">
        <ele>339.0</ele>
        <time>2019-04-24T11:52:24.000Z</time>
      </trkpt>
      <trkpt lat="42.42131423950195" lon="-6.941588878631592">
        <ele>339.0</ele>
        <time>2019-04-24T11:52:28.000Z</time>
      </trkpt>
      <trkpt lat="42.42130661010742" lon="-6.941662311553955">
        <ele>339.0</ele>
        <time>2019-04-24T11:52:31.000Z</time>
      </trkpt>
      <trkpt lat="42.42131042480469" lon="-6.941723823547363">
        <ele>339.0</ele>
        <time>2019-04-24T11:52:36.000Z</time>
      </trkpt>
      <trkpt lat="42.42131423950195" lon="-6.9417853355407715">
        <ele>339.0</ele>
        <time>2019-04-24T11:52:41.000Z</time>
      </trkpt>
      <trkpt lat="42.421321868896484" lon="-6.9418463706970215">
        <ele>339.0</ele>
        <time>2019-04-24T11:52:47.000Z</time>
      </trkpt>
      <trkpt lat="42.42133331298828" lon="-6.941906929016113">
        <ele>340.0</ele>
        <time>2019-04-24T11:52:52.000Z</time>
      </trkpt>
      <trkpt lat="42.42134094238281" lon="-6.94196891784668">
        <ele>340.0</ele>
        <time>2019-04-24T11:52:56.000Z</time>
      </trkpt>
      <trkpt lat="42.42135238647461" lon="-6.942030906677246">
        <ele>340.0</ele>
        <time>2019-04-24T11:53:00.000Z</time>
      </trkpt>
      <trkpt lat="42.421363830566406" lon="-6.9420928955078125">
        <ele>340.0</ele>
        <time>2019-04-24T11:53:04.000Z</time>
      </trkpt>
      <trkpt lat="42.42137908935547" lon="-6.942155361175537">
        <ele>340.0</ele>
        <time>2019-04-24T11:53:08.000Z</time>
      </trkpt>
      <trkpt lat="42.421417236328125" lon="-6.942406177520752">
        <ele>342.0</ele>
        <time>2019-04-24T11:53:25.000Z</time>
      </trkpt>
      <trkpt lat="42.421504974365234" lon="-6.942879676818848">
        <ele>347.0</ele>
        <time>2019-04-24T11:53:55.000Z</time>
      </trkpt>
      <trkpt lat="42.42152404785156" lon="-6.943131446838379">
        <ele>350.0</ele>
        <time>2019-04-24T11:54:15.000Z</time>
      </trkpt>
      <trkpt lat="42.42153549194336" lon="-6.943212509155273">
        <ele>348.0</ele>
        <time>2019-04-24T11:54:31.000Z</time>
      </trkpt>
      <trkpt lat="42.42153549194336" lon="-6.943285942077637">
        <ele>350.0</ele>
        <time>2019-04-24T11:54:54.000Z</time>
      </trkpt>
      <trkpt lat="42.421539306640625" lon="-6.943328380584717">
        <ele>350.0</ele>
        <time>2019-04-24T11:54:55.000Z</time>
      </trkpt>
      <trkpt lat="42.421539306640625" lon="-6.9435882568359375">
        <ele>351.0</ele>
        <time>2019-04-24T11:55:02.000Z</time>
      </trkpt>
      <trkpt lat="42.42155075073242" lon="-6.943853855133057">
        <ele>352.0</ele>
        <time>2019-04-24T11:55:18.000Z</time>
      </trkpt>
      <trkpt lat="42.421504974365234" lon="-6.944101333618164">
        <ele>353.0</ele>
        <time>2019-04-24T11:55:34.000Z</time>
      </trkpt>
      <trkpt lat="42.421363830566406" lon="-6.94453239440918">
        <ele>354.0</ele>
        <time>2019-04-24T11:56:05.000Z</time>
      </trkpt>
      <trkpt lat="42.42123031616211" lon="-6.944962024688721">
        <ele>350.0</ele>
        <time>2019-04-24T11:56:34.000Z</time>
      </trkpt>
      <trkpt lat="42.42107391357422" lon="-6.945391654968262">
        <ele>346.0</ele>
        <time>2019-04-24T11:56:59.000Z</time>
      </trkpt>
      <trkpt lat="42.420860290527344" lon="-6.945778846740723">
        <ele>346.0</ele>
        <time>2019-04-24T11:57:24.000Z</time>
      </trkpt>
      <trkpt lat="42.42070388793945" lon="-6.946212291717529">
        <ele>351.0</ele>
        <time>2019-04-24T11:57:57.000Z</time>
      </trkpt>
      <trkpt lat="42.42063903808594" lon="-6.946681499481201">
        <ele>357.0</ele>
        <time>2019-04-24T11:58:24.000Z</time>
      </trkpt>
      <trkpt lat="42.42052459716797" lon="-6.947144508361816">
        <ele>358.0</ele>
        <time>2019-04-24T11:58:56.000Z</time>
      </trkpt>
      <trkpt lat="42.42037582397461" lon="-6.947573184967041">
        <ele>359.0</ele>
        <time>2019-04-24T11:59:26.000Z</time>
      </trkpt>
      <trkpt lat="42.4202766418457" lon="-6.948028564453125">
        <ele>358.0</ele>
        <time>2019-04-24T11:59:50.000Z</time>
      </trkpt>
      <trkpt lat="42.42024612426758" lon="-6.948509693145752">
        <ele>359.0</ele>
        <time>2019-04-24T12:00:19.000Z</time>
      </trkpt>
      <trkpt lat="42.42020034790039" lon="-6.948989391326904">
        <ele>354.0</ele>
        <time>2019-04-24T12:00:51.000Z</time>
      </trkpt>
      <trkpt lat="42.420108795166016" lon="-6.949450969696045">
        <ele>356.0</ele>
        <time>2019-04-24T12:01:16.000Z</time>
      </trkpt>
      <trkpt lat="42.42002487182617" lon="-6.949923515319824">
        <ele>353.0</ele>
        <time>2019-04-24T12:01:48.000Z</time>
      </trkpt>
      <trkpt lat="42.41984176635742" lon="-6.950344085693359">
        <ele>357.0</ele>
        <time>2019-04-24T12:02:17.000Z</time>
      </trkpt>
      <trkpt lat="42.41966247558594" lon="-6.950760841369629">
        <ele>356.0</ele>
        <time>2019-04-24T12:02:46.000Z</time>
      </trkpt>
      <trkpt lat="42.419559478759766" lon="-6.951229095458984">
        <ele>353.0</ele>
        <time>2019-04-24T12:03:15.000Z</time>
      </trkpt>
      <trkpt lat="42.41942596435547" lon="-6.9516682624816895">
        <ele>351.0</ele>
        <time>2019-04-24T12:03:50.000Z</time>
      </trkpt>
      <trkpt lat="42.419376373291016" lon="-6.951977729797363">
        <ele>349.0</ele>
        <time>2019-04-24T12:04:13.000Z</time>
      </trkpt>
      <trkpt lat="42.419376373291016" lon="-6.952037811279297">
        <ele>350.0</ele>
        <time>2019-04-24T12:04:58.000Z</time>
      </trkpt>
      <trkpt lat="42.419376373291016" lon="-6.952075958251953">
        <ele>350.0</ele>
        <time>2019-04-24T12:04:59.000Z</time>
      </trkpt>
      <trkpt lat="42.41936111450195" lon="-6.952557563781738">
        <ele>350.0</ele>
        <time>2019-04-24T12:05:21.000Z</time>
      </trkpt>
      <trkpt lat="42.41926574707031" lon="-6.953010082244873">
        <ele>349.0</ele>
        <time>2019-04-24T12:05:54.000Z</time>
      </trkpt>
      <trkpt lat="42.41905975341797" lon="-6.953400135040283">
        <ele>349.0</ele>
        <time>2019-04-24T12:06:20.000Z</time>
      </trkpt>
      <trkpt lat="42.41885757446289" lon="-6.9537835121154785">
        <ele>348.0</ele>
        <time>2019-04-24T12:06:46.000Z</time>
      </trkpt>
      <trkpt lat="42.41872787475586" lon="-6.954229354858398">
        <ele>346.0</ele>
        <time>2019-04-24T12:07:18.000Z</time>
      </trkpt>
      <trkpt lat="42.418724060058594" lon="-6.954463481903076">
        <ele>347.0</ele>
        <time>2019-04-24T12:07:32.000Z</time>
      </trkpt>
      <trkpt lat="42.41874694824219" lon="-6.954703330993652">
        <ele>348.0</ele>
        <time>2019-04-24T12:07:46.000Z</time>
      </trkpt>
      <trkpt lat="42.418766021728516" lon="-6.954820156097412">
        <ele>349.0</ele>
        <time>2019-04-24T12:07:54.000Z</time>
      </trkpt>
      <trkpt lat="42.418785095214844" lon="-6.954935550689697">
        <ele>349.0</ele>
        <time>2019-04-24T12:08:01.000Z</time>
      </trkpt>
      <trkpt lat="42.41880416870117" lon="-6.955050468444824">
        <ele>349.0</ele>
        <time>2019-04-24T12:08:09.000Z</time>
      </trkpt>
      <trkpt lat="42.41883087158203" lon="-6.955165386199951">
        <ele>349.0</ele>
        <time>2019-04-24T12:08:17.000Z</time>
      </trkpt>
      <trkpt lat="42.418846130371094" lon="-6.9552836418151855">
        <ele>348.0</ele>
        <time>2019-04-24T12:08:23.000Z</time>
      </trkpt>
      <trkpt lat="42.41886520385742" lon="-6.955402851104736">
        <ele>348.0</ele>
        <time>2019-04-24T12:08:29.000Z</time>
      </trkpt>
      <trkpt lat="42.418880462646484" lon="-6.9555230140686035">
        <ele>347.0</ele>
        <time>2019-04-24T12:08:36.000Z</time>
      </trkpt>
      <trkpt lat="42.41889572143555" lon="-6.955643177032471">
        <ele>346.0</ele>
        <time>2019-04-24T12:08:42.000Z</time>
      </trkpt>
      <trkpt lat="42.418922424316406" lon="-6.955757141113281">
        <ele>345.0</ele>
        <time>2019-04-24T12:08:50.000Z</time>
      </trkpt>
      <trkpt lat="42.4189567565918" lon="-6.955869197845459">
        <ele>344.0</ele>
        <time>2019-04-24T12:08:59.000Z</time>
      </trkpt>
      <trkpt lat="42.41899108886719" lon="-6.955979824066162">
        <ele>343.0</ele>
        <time>2019-04-24T12:09:07.000Z</time>
      </trkpt>
      <trkpt lat="42.419029235839844" lon="-6.956089496612549">
        <ele>342.0</ele>
        <time>2019-04-24T12:09:16.000Z</time>
      </trkpt>
      <trkpt lat="42.419044494628906" lon="-6.95620584487915">
        <ele>342.0</ele>
        <time>2019-04-24T12:09:23.000Z</time>
      </trkpt>
      <trkpt lat="42.4190559387207" lon="-6.956324577331543">
        <ele>341.0</ele>
        <time>2019-04-24T12:09:29.000Z</time>
      </trkpt>
      <trkpt lat="42.4190673828125" lon="-6.95644474029541">
        <ele>341.0</ele>
        <time>2019-04-24T12:09:36.000Z</time>
      </trkpt>
      <trkpt lat="42.419071197509766" lon="-6.9565653800964355">
        <ele>341.0</ele>
        <time>2019-04-24T12:09:43.000Z</time>
      </trkpt>
      <trkpt lat="42.419063568115234" lon="-6.956665992736816">
        <ele>341.0</ele>
        <time>2019-04-24T12:09:48.000Z</time>
      </trkpt>
      <trkpt lat="42.41904830932617" lon="-6.956758975982666">
        <ele>341.0</ele>
        <time>2019-04-24T12:09:54.000Z</time>
      </trkpt>
      <trkpt lat="42.41902542114258" lon="-6.956846714019775">
        <ele>341.0</ele>
        <time>2019-04-24T12:09:59.000Z</time>
      </trkpt>
      <trkpt lat="42.41899871826172" lon="-6.9569315910339355">
        <ele>342.0</ele>
        <time>2019-04-24T12:10:04.000Z</time>
      </trkpt>
      <trkpt lat="42.41898727416992" lon="-6.957188129425049">
        <ele>350.0</ele>
        <time>2019-04-24T12:10:20.000Z</time>
      </trkpt>
      <trkpt lat="42.418846130371094" lon="-6.957638740539551">
        <ele>351.0</ele>
        <time>2019-04-24T12:10:53.000Z</time>
      </trkpt>
      <trkpt lat="42.41885757446289" lon="-6.957878112792969">
        <ele>352.0</ele>
        <time>2019-04-24T12:11:07.000Z</time>
      </trkpt>
      <trkpt lat="42.41890335083008" lon="-6.958124160766602">
        <ele>353.0</ele>
        <time>2019-04-24T12:11:21.000Z</time>
      </trkpt>
      <trkpt lat="42.418914794921875" lon="-6.958244800567627">
        <ele>353.0</ele>
        <time>2019-04-24T12:11:28.000Z</time>
      </trkpt>
      <trkpt lat="42.41892623901367" lon="-6.958364963531494">
        <ele>352.0</ele>
        <time>2019-04-24T12:11:35.000Z</time>
      </trkpt>
      <trkpt lat="42.4189338684082" lon="-6.958485126495361">
        <ele>352.0</ele>
        <time>2019-04-24T12:11:43.000Z</time>
      </trkpt>
      <trkpt lat="42.4189453125" lon="-6.95860481262207">
        <ele>351.0</ele>
        <time>2019-04-24T12:11:50.000Z</time>
      </trkpt>
      <trkpt lat="42.418941497802734" lon="-6.958724021911621">
        <ele>352.0</ele>
        <time>2019-04-24T12:11:58.000Z</time>
      </trkpt>
      <trkpt lat="42.41893005371094" lon="-6.958841800689697">
        <ele>352.0</ele>
        <time>2019-04-24T12:12:06.000Z</time>
      </trkpt>
      <trkpt lat="42.418914794921875" lon="-6.958960056304932">
        <ele>353.0</ele>
        <time>2019-04-24T12:12:14.000Z</time>
      </trkpt>
      <trkpt lat="42.41889953613281" lon="-6.95907735824585">
        <ele>353.0</ele>
        <time>2019-04-24T12:12:22.000Z</time>
      </trkpt>
      <trkpt lat="42.418888092041016" lon="-6.959196090698242">
        <ele>353.0</ele>
        <time>2019-04-24T12:12:30.000Z</time>
      </trkpt>
      <trkpt lat="42.41887664794922" lon="-6.959314346313477">
        <ele>352.0</ele>
        <time>2019-04-24T12:12:38.000Z</time>
      </trkpt>
      <trkpt lat="42.41886901855469" lon="-6.959433078765869">
        <ele>352.0</ele>
        <time>2019-04-24T12:12:46.000Z</time>
      </trkpt>
      <trkpt lat="42.41885757446289" lon="-6.959551811218262">
        <ele>351.0</ele>
        <time>2019-04-24T12:12:54.000Z</time>
      </trkpt>
      <trkpt lat="42.41884231567383" lon="-6.959670543670654">
        <ele>349.0</ele>
        <time>2019-04-24T12:13:02.000Z</time>
      </trkpt>
      <trkpt lat="42.4188232421875" lon="-6.959789752960205">
        <ele>347.0</ele>
        <time>2019-04-24T12:13:10.000Z</time>
      </trkpt>
      <trkpt lat="42.41880798339844" lon="-6.959908485412598">
        <ele>345.0</ele>
        <time>2019-04-24T12:13:19.000Z</time>
      </trkpt>
      <trkpt lat="42.41878890991211" lon="-6.960027694702148">
        <ele>343.0</ele>
        <time>2019-04-24T12:13:27.000Z</time>
      </trkpt>
      <trkpt lat="42.418766021728516" lon="-6.960143089294434">
        <ele>341.0</ele>
        <time>2019-04-24T12:13:34.000Z</time>
      </trkpt>
      <trkpt lat="42.41874313354492" lon="-6.960256576538086">
        <ele>340.0</ele>
        <time>2019-04-24T12:13:42.000Z</time>
      </trkpt>
      <trkpt lat="42.41871643066406" lon="-6.960368633270264">
        <ele>339.0</ele>
        <time>2019-04-24T12:13:49.000Z</time>
      </trkpt>
      <trkpt lat="42.4186897277832" lon="-6.960480690002441">
        <ele>338.0</ele>
        <time>2019-04-24T12:13:57.000Z</time>
      </trkpt>
      <trkpt lat="42.418521881103516" lon="-6.960908889770508">
        <ele>333.0</ele>
        <time>2019-04-24T12:14:30.000Z</time>
      </trkpt>
      <trkpt lat="42.41831588745117" lon="-6.96129035949707">
        <ele>326.0</ele>
        <time>2019-04-24T12:15:02.000Z</time>
      </trkpt>
      <trkpt lat="42.41810989379883" lon="-6.961672782897949">
        <ele>325.0</ele>
        <time>2019-04-24T12:15:36.000Z</time>
      </trkpt>
      <trkpt lat="42.41807556152344" lon="-6.961808204650879">
        <ele>324.0</ele>
        <time>2019-04-24T12:15:44.000Z</time>
      </trkpt>
      <trkpt lat="42.41807174682617" lon="-6.961918354034424">
        <ele>324.0</ele>
        <time>2019-04-24T12:15:52.000Z</time>
      </trkpt>
      <trkpt lat="42.41805648803711" lon="-6.962015151977539">
        <ele>323.0</ele>
        <time>2019-04-24T12:15:59.000Z</time>
      </trkpt>
      <trkpt lat="42.418033599853516" lon="-6.962126731872559">
        <ele>322.0</ele>
        <time>2019-04-24T12:16:06.000Z</time>
      </trkpt>
      <trkpt lat="42.418006896972656" lon="-6.962248802185059">
        <ele>321.0</ele>
        <time>2019-04-24T12:16:14.000Z</time>
      </trkpt>
      <trkpt lat="42.4179801940918" lon="-6.962375164031982">
        <ele>321.0</ele>
        <time>2019-04-24T12:16:21.000Z</time>
      </trkpt>
      <trkpt lat="42.41796112060547" lon="-6.962493419647217">
        <ele>320.0</ele>
        <time>2019-04-24T12:16:28.000Z</time>
      </trkpt>
      <trkpt lat="42.41794204711914" lon="-6.962613105773926">
        <ele>319.0</ele>
        <time>2019-04-24T12:16:34.000Z</time>
      </trkpt>
      <trkpt lat="42.41792678833008" lon="-6.962734222412109">
        <ele>318.0</ele>
        <time>2019-04-24T12:16:41.000Z</time>
      </trkpt>
      <trkpt lat="42.417911529541016" lon="-6.962855339050293">
        <ele>317.0</ele>
        <time>2019-04-24T12:16:48.000Z</time>
      </trkpt>
      <trkpt lat="42.41789245605469" lon="-6.9629740715026855">
        <ele>317.0</ele>
        <time>2019-04-24T12:16:55.000Z</time>
      </trkpt>
      <trkpt lat="42.41787338256836" lon="-6.9630913734436035">
        <ele>318.0</ele>
        <time>2019-04-24T12:17:02.000Z</time>
      </trkpt>
      <trkpt lat="42.4178581237793" lon="-6.9632086753845215">
        <ele>318.0</ele>
        <time>2019-04-24T12:17:09.000Z</time>
      </trkpt>
      <trkpt lat="42.41783905029297" lon="-6.963325500488281">
        <ele>319.0</ele>
        <time>2019-04-24T12:17:16.000Z</time>
      </trkpt>
      <trkpt lat="42.41781997680664" lon="-6.963444709777832">
        <ele>320.0</ele>
        <time>2019-04-24T12:17:22.000Z</time>
      </trkpt>
      <trkpt lat="42.41779708862305" lon="-6.963564395904541">
        <ele>320.0</ele>
        <time>2019-04-24T12:17:29.000Z</time>
      </trkpt>
      <trkpt lat="42.41777420043945" lon="-6.963684558868408">
        <ele>321.0</ele>
        <time>2019-04-24T12:17:35.000Z</time>
      </trkpt>
      <trkpt lat="42.417755126953125" lon="-6.963804721832275">
        <ele>322.0</ele>
        <time>2019-04-24T12:17:42.000Z</time>
      </trkpt>
      <trkpt lat="42.41774368286133" lon="-6.963922500610352">
        <ele>322.0</ele>
        <time>2019-04-24T12:17:50.000Z</time>
      </trkpt>
      <trkpt lat="42.4177360534668" lon="-6.964038372039795">
        <ele>323.0</ele>
        <time>2019-04-24T12:17:58.000Z</time>
      </trkpt>
      <trkpt lat="42.4177360534668" lon="-6.964154243469238">
        <ele>323.0</ele>
        <time>2019-04-24T12:18:07.000Z</time>
      </trkpt>
      <trkpt lat="42.41773223876953" lon="-6.964269161224365">
        <ele>323.0</ele>
        <time>2019-04-24T12:18:15.000Z</time>
      </trkpt>
      <trkpt lat="42.41768264770508" lon="-6.964742660522461">
        <ele>320.0</ele>
        <time>2019-04-24T12:18:35.000Z</time>
      </trkpt>
      <trkpt lat="42.41757583618164" lon="-6.9652018547058105">
        <ele>318.0</ele>
        <time>2019-04-24T12:19:05.000Z</time>
      </trkpt>
      <trkpt lat="42.417503356933594" lon="-6.96567440032959">
        <ele>314.0</ele>
        <time>2019-04-24T12:19:36.000Z</time>
      </trkpt>
      <trkpt lat="42.41743850708008" lon="-6.966169834136963">
        <ele>314.0</ele>
        <time>2019-04-24T12:20:02.000Z</time>
      </trkpt>
      <trkpt lat="42.417354583740234" lon="-6.966642379760742">
        <ele>314.0</ele>
        <time>2019-04-24T12:20:33.000Z</time>
      </trkpt>
      <trkpt lat="42.41729736328125" lon="-6.967115879058838">
        <ele>314.0</ele>
        <time>2019-04-24T12:21:01.000Z</time>
      </trkpt>
      <trkpt lat="42.417179107666016" lon="-6.967562198638916">
        <ele>315.0</ele>
        <time>2019-04-24T12:21:29.000Z</time>
      </trkpt>
      <trkpt lat="42.417030334472656" lon="-6.968002796173096">
        <ele>316.0</ele>
        <time>2019-04-24T12:21:58.000Z</time>
      </trkpt>
      <trkpt lat="42.416954040527344" lon="-6.968108654022217">
        <ele>319.0</ele>
        <time>2019-04-24T12:22:12.000Z</time>
      </trkpt>
      <trkpt lat="42.41693878173828" lon="-6.968112468719482">
        <ele>320.0</ele>
        <time>2019-04-24T12:22:17.000Z</time>
      </trkpt>
      <trkpt lat="42.416927337646484" lon="-6.968105792999268">
        <ele>321.0</ele>
        <time>2019-04-24T12:22:21.000Z</time>
      </trkpt>
      <trkpt lat="42.41691589355469" lon="-6.968093395233154">
        <ele>321.0</ele>
        <time>2019-04-24T12:22:26.000Z</time>
      </trkpt>
      <trkpt lat="42.416900634765625" lon="-6.968077182769775">
        <ele>322.0</ele>
        <time>2019-04-24T12:22:31.000Z</time>
      </trkpt>
      <trkpt lat="42.416893005371094" lon="-6.968071937561035">
        <ele>322.0</ele>
        <time>2019-04-24T12:22:31.000Z</time>
      </trkpt>
      <trkpt lat="42.41688537597656" lon="-6.968067169189453">
        <ele>322.0</ele>
        <time>2019-04-24T12:22:31.000Z</time>
      </trkpt>
      <trkpt lat="42.41687774658203" lon="-6.9680633544921875">
        <ele>322.0</ele>
        <time>2019-04-24T12:22:32.000Z</time>
      </trkpt>
      <trkpt lat="42.416873931884766" lon="-6.96806001663208">
        <ele>322.0</ele>
        <time>2019-04-24T12:22:32.000Z</time>
      </trkpt>
      <trkpt lat="42.41681671142578" lon="-6.968023300170898">
        <ele>322.0</ele>
        <time>2019-04-24T12:22:37.000Z</time>
      </trkpt>
      <trkpt lat="42.41674041748047" lon="-6.967973232269287">
        <ele>322.0</ele>
        <time>2019-04-24T12:22:43.000Z</time>
      </trkpt>
      <trkpt lat="42.41665267944336" lon="-6.967913627624512">
        <ele>322.0</ele>
        <time>2019-04-24T12:22:48.000Z</time>
      </trkpt>
      <trkpt lat="42.41655731201172" lon="-6.9678497314453125">
        <ele>323.0</ele>
        <time>2019-04-24T12:22:54.000Z</time>
      </trkpt>
      <trkpt lat="42.41651916503906" lon="-6.967831134796143">
        <ele>323.0</ele>
        <time>2019-04-24T12:22:59.000Z</time>
      </trkpt>
      <trkpt lat="42.416500091552734" lon="-6.967827320098877">
        <ele>322.0</ele>
        <time>2019-04-24T12:23:04.000Z</time>
      </trkpt>
      <trkpt lat="42.4164924621582" lon="-6.967832565307617">
        <ele>322.0</ele>
        <time>2019-04-24T12:23:10.000Z</time>
      </trkpt>
      <trkpt lat="42.4164924621582" lon="-6.967843055725098">
        <ele>322.0</ele>
        <time>2019-04-24T12:23:15.000Z</time>
      </trkpt>
      <trkpt lat="42.416473388671875" lon="-6.967855453491211">
        <ele>323.0</ele>
        <time>2019-04-24T12:23:50.000Z</time>
      </trkpt>
      <trkpt lat="42.41645431518555" lon="-6.967875003814697">
        <ele>324.0</ele>
        <time>2019-04-24T12:24:26.000Z</time>
      </trkpt>
      <trkpt lat="42.416446685791016" lon="-6.967881202697754">
        <ele>324.0</ele>
        <time>2019-04-24T12:24:26.000Z</time>
      </trkpt>
      <trkpt lat="42.416439056396484" lon="-6.967886447906494">
        <ele>324.0</ele>
        <time>2019-04-24T12:24:26.000Z</time>
      </trkpt>
      <trkpt lat="42.41643524169922" lon="-6.967891216278076">
        <ele>324.0</ele>
        <time>2019-04-24T12:24:27.000Z</time>
      </trkpt>
      <trkpt lat="42.41643142700195" lon="-6.9678955078125">
        <ele>324.0</ele>
        <time>2019-04-24T12:24:27.000Z</time>
      </trkpt>
      <trkpt lat="42.4163818359375" lon="-6.9679484367370605">
        <ele>324.0</ele>
        <time>2019-04-24T12:24:31.000Z</time>
      </trkpt>
      <trkpt lat="42.416316986083984" lon="-6.968020439147949">
        <ele>324.0</ele>
        <time>2019-04-24T12:24:35.000Z</time>
      </trkpt>
      <trkpt lat="42.41624069213867" lon="-6.968106269836426">
        <ele>325.0</ele>
        <time>2019-04-24T12:24:40.000Z</time>
      </trkpt>
      <trkpt lat="42.416160583496094" lon="-6.968198299407959">
        <ele>325.0</ele>
        <time>2019-04-24T12:24:44.000Z</time>
      </trkpt>
      <trkpt lat="42.41609573364258" lon="-6.968277931213379">
        <ele>326.0</ele>
        <time>2019-04-24T12:24:50.000Z</time>
      </trkpt>
      <trkpt lat="42.41603088378906" lon="-6.96835994720459">
        <ele>326.0</ele>
        <time>2019-04-24T12:24:56.000Z</time>
      </trkpt>
      <trkpt lat="42.41596603393555" lon="-6.968442916870117">
        <ele>326.0</ele>
        <time>2019-04-24T12:25:03.000Z</time>
      </trkpt>
      <trkpt lat="42.4159049987793" lon="-6.968526363372803">
        <ele>326.0</ele>
        <time>2019-04-24T12:25:09.000Z</time>
      </trkpt>
      <trkpt lat="42.415828704833984" lon="-6.968589782714844">
        <ele>326.0</ele>
        <time>2019-04-24T12:25:16.000Z</time>
      </trkpt>
      <trkpt lat="42.415748596191406" lon="-6.968645095825195">
        <ele>326.0</ele>
        <time>2019-04-24T12:25:22.000Z</time>
      </trkpt>
      <trkpt lat="42.41566848754883" lon="-6.968695163726807">
        <ele>326.0</ele>
        <time>2019-04-24T12:25:29.000Z</time>
      </trkpt>
      <trkpt lat="42.415584564208984" lon="-6.968742847442627">
        <ele>326.0</ele>
        <time>2019-04-24T12:25:36.000Z</time>
      </trkpt>
      <trkpt lat="42.4155158996582" lon="-6.968814849853516">
        <ele>326.0</ele>
        <time>2019-04-24T12:25:43.000Z</time>
      </trkpt>
      <trkpt lat="42.41544723510742" lon="-6.9688944816589355">
        <ele>325.0</ele>
        <time>2019-04-24T12:25:50.000Z</time>
      </trkpt>
      <trkpt lat="42.41538619995117" lon="-6.968979358673096">
        <ele>325.0</ele>
        <time>2019-04-24T12:25:58.000Z</time>
      </trkpt>
      <trkpt lat="42.415321350097656" lon="-6.969066143035889">
        <ele>325.0</ele>
        <time>2019-04-24T12:26:05.000Z</time>
      </trkpt>
      <trkpt lat="42.4150276184082" lon="-6.969333171844482">
        <ele>319.0</ele>
        <time>2019-04-24T12:26:36.000Z</time>
      </trkpt>
      <trkpt lat="42.41472244262695" lon="-6.9695634841918945">
        <ele>315.0</ele>
        <time>2019-04-24T12:27:10.000Z</time>
      </trkpt>
      <trkpt lat="42.4146614074707" lon="-6.9696044921875">
        <ele>313.0</ele>
        <time>2019-04-24T12:27:19.000Z</time>
      </trkpt>
      <trkpt lat="42.414615631103516" lon="-6.969636917114258">
        <ele>312.0</ele>
        <time>2019-04-24T12:27:41.000Z</time>
      </trkpt>
      <trkpt lat="42.414588928222656" lon="-6.969659328460693">
        <ele>312.0</ele>
        <time>2019-04-24T12:27:42.000Z</time>
      </trkpt>
      <trkpt lat="42.41450881958008" lon="-6.9697489738464355">
        <ele>311.0</ele>
        <time>2019-04-24T12:27:46.000Z</time>
      </trkpt>
      <trkpt lat="42.41447067260742" lon="-6.969769477844238">
        <ele>311.0</ele>
        <time>2019-04-24T12:28:04.000Z</time>
      </trkpt>
      <trkpt lat="42.41444778442383" lon="-6.969782829284668">
        <ele>311.0</ele>
        <time>2019-04-24T12:28:05.000Z</time>
      </trkpt>
      <trkpt lat="42.4143180847168" lon="-6.969882011413574">
        <ele>311.0</ele>
        <time>2019-04-24T12:28:14.000Z</time>
      </trkpt>
      <trkpt lat="42.41424560546875" lon="-6.969926357269287">
        <ele>321.0</ele>
        <time>2019-04-24T12:29:12.000Z</time>
      </trkpt>
      <trkpt lat="42.41419982910156" lon="-6.969952583312988">
        <ele>321.0</ele>
        <time>2019-04-24T12:29:13.000Z</time>
      </trkpt>
      <trkpt lat="42.414005279541016" lon="-6.969982624053955">
        <ele>322.0</ele>
        <time>2019-04-24T12:29:20.000Z</time>
      </trkpt>
      <trkpt lat="42.413970947265625" lon="-6.969940662384033">
        <ele>322.0</ele>
        <time>2019-04-24T12:29:25.000Z</time>
      </trkpt>
      <trkpt lat="42.4139404296875" lon="-6.96987771987915">
        <ele>323.0</ele>
        <time>2019-04-24T12:29:31.000Z</time>
      </trkpt>
      <trkpt lat="42.413917541503906" lon="-6.969801425933838">
        <ele>323.0</ele>
        <time>2019-04-24T12:29:36.000Z</time>
      </trkpt>
      <trkpt lat="42.41389083862305" lon="-6.969717979431152">
        <ele>323.0</ele>
        <time>2019-04-24T12:29:42.000Z</time>
      </trkpt>
      <trkpt lat="42.41387176513672" lon="-6.969667911529541">
        <ele>323.0</ele>
        <time>2019-04-24T12:29:48.000Z</time>
      </trkpt>
      <trkpt lat="42.41386032104492" lon="-6.969624996185303">
        <ele>323.0</ele>
        <time>2019-04-24T12:29:53.000Z</time>
      </trkpt>
      <trkpt lat="42.413848876953125" lon="-6.969586372375488">
        <ele>323.0</ele>
        <time>2019-04-24T12:29:59.000Z</time>
      </trkpt>
      <trkpt lat="42.413841247558594" lon="-6.969550132751465">
        <ele>323.0</ele>
        <time>2019-04-24T12:30:05.000Z</time>
      </trkpt>
      <trkpt lat="42.4138298034668" lon="-6.96953821182251">
        <ele>323.0</ele>
        <time>2019-04-24T12:30:19.000Z</time>
      </trkpt>
      <trkpt lat="42.413818359375" lon="-6.969538688659668">
        <ele>323.0</ele>
        <time>2019-04-24T12:30:33.000Z</time>
      </trkpt>
      <trkpt lat="42.41381072998047" lon="-6.969547748565674">
        <ele>323.0</ele>
        <time>2019-04-24T12:30:47.000Z</time>
      </trkpt>
      <trkpt lat="42.41380310058594" lon="-6.9695611000061035">
        <ele>323.0</ele>
        <time>2019-04-24T12:31:01.000Z</time>
      </trkpt>
      <trkpt lat="42.413795471191406" lon="-6.9695634841918945">
        <ele>323.0</ele>
        <time>2019-04-24T12:31:01.000Z</time>
      </trkpt>
      <trkpt lat="42.413787841796875" lon="-6.969565391540527">
        <ele>323.0</ele>
        <time>2019-04-24T12:31:01.000Z</time>
      </trkpt>
      <trkpt lat="42.413780212402344" lon="-6.96956729888916">
        <ele>323.0</ele>
        <time>2019-04-24T12:31:02.000Z</time>
      </trkpt>
      <trkpt lat="42.41377639770508" lon="-6.969569206237793">
        <ele>323.0</ele>
        <time>2019-04-24T12:31:02.000Z</time>
      </trkpt>
      <trkpt lat="42.41373062133789" lon="-6.969587802886963">
        <ele>323.0</ele>
        <time>2019-04-24T12:31:06.000Z</time>
      </trkpt>
      <trkpt lat="42.413673400878906" lon="-6.969613075256348">
        <ele>323.0</ele>
        <time>2019-04-24T12:31:09.000Z</time>
      </trkpt>
      <trkpt lat="42.413604736328125" lon="-6.969643592834473">
        <ele>323.0</ele>
        <time>2019-04-24T12:31:13.000Z</time>
      </trkpt>
      <trkpt lat="42.41353225708008" lon="-6.9696760177612305">
        <ele>324.0</ele>
        <time>2019-04-24T12:31:17.000Z</time>
      </trkpt>
      <trkpt lat="42.41349792480469" lon="-6.969698905944824">
        <ele>324.0</ele>
        <time>2019-04-24T12:31:21.000Z</time>
      </trkpt>
      <trkpt lat="42.41347885131836" lon="-6.969720363616943">
        <ele>325.0</ele>
        <time>2019-04-24T12:31:24.000Z</time>
      </trkpt>
      <trkpt lat="42.41346740722656" lon="-6.969740390777588">
        <ele>325.0</ele>
        <time>2019-04-24T12:31:28.000Z</time>
      </trkpt>
      <trkpt lat="42.41345977783203" lon="-6.969760417938232">
        <ele>326.0</ele>
        <time>2019-04-24T12:31:32.000Z</time>
      </trkpt>
      <trkpt lat="42.4134521484375" lon="-6.9697723388671875">
        <ele>326.0</ele>
        <time>2019-04-24T12:31:32.000Z</time>
      </trkpt>
      <trkpt lat="42.41344451904297" lon="-6.969781398773193">
        <ele>326.0</ele>
        <time>2019-04-24T12:31:32.000Z</time>
      </trkpt>
      <trkpt lat="42.4134407043457" lon="-6.96978759765625">
        <ele>326.0</ele>
        <time>2019-04-24T12:31:33.000Z</time>
      </trkpt>
      <trkpt lat="42.41343307495117" lon="-6.969792366027832">
        <ele>326.0</ele>
        <time>2019-04-24T12:31:33.000Z</time>
      </trkpt>
      <trkpt lat="42.41340255737305" lon="-6.9698662757873535">
        <ele>326.0</ele>
        <time>2019-04-24T12:31:40.000Z</time>
      </trkpt>
      <trkpt lat="42.413360595703125" lon="-6.969967842102051">
        <ele>327.0</ele>
        <time>2019-04-24T12:31:47.000Z</time>
      </trkpt>
      <trkpt lat="42.41331100463867" lon="-6.970088005065918">
        <ele>328.0</ele>
        <time>2019-04-24T12:31:55.000Z</time>
      </trkpt>
      <trkpt lat="42.41325759887695" lon="-6.970216751098633">
        <ele>329.0</ele>
        <time>2019-04-24T12:32:02.000Z</time>
      </trkpt>
      <trkpt lat="42.41326141357422" lon="-6.970306873321533">
        <ele>329.0</ele>
        <time>2019-04-24T12:32:16.000Z</time>
      </trkpt>
      <trkpt lat="42.41325378417969" lon="-6.970317840576172">
        <ele>329.0</ele>
        <time>2019-04-24T12:32:49.000Z</time>
      </trkpt>
      <trkpt lat="42.413238525390625" lon="-6.970324516296387">
        <ele>328.0</ele>
        <time>2019-04-24T12:33:22.000Z</time>
      </trkpt>
      <trkpt lat="42.4132194519043" lon="-6.970327854156494">
        <ele>326.0</ele>
        <time>2019-04-24T12:33:56.000Z</time>
      </trkpt>
      <trkpt lat="42.413204193115234" lon="-6.970329284667969">
        <ele>325.0</ele>
        <time>2019-04-24T12:34:29.000Z</time>
      </trkpt>
      <trkpt lat="42.41319274902344" lon="-6.970333576202393">
        <ele>325.0</ele>
        <time>2019-04-24T12:34:29.000Z</time>
      </trkpt>
      <trkpt lat="42.41318130493164" lon="-6.970337390899658">
        <ele>325.0</ele>
        <time>2019-04-24T12:34:29.000Z</time>
      </trkpt>
      <trkpt lat="42.41317367553711" lon="-6.970341205596924">
        <ele>325.0</ele>
        <time>2019-04-24T12:34:30.000Z</time>
      </trkpt>
      <trkpt lat="42.41316223144531" lon="-6.970344066619873">
        <ele>325.0</ele>
        <time>2019-04-24T12:34:30.000Z</time>
      </trkpt>
      <trkpt lat="42.41310501098633" lon="-6.9703497886657715">
        <ele>325.0</ele>
        <time>2019-04-24T12:34:33.000Z</time>
      </trkpt>
      <trkpt lat="42.413021087646484" lon="-6.97035551071167">
        <ele>325.0</ele>
        <time>2019-04-24T12:34:36.000Z</time>
      </trkpt>
      <trkpt lat="42.412925720214844" lon="-6.970362186431885">
        <ele>325.0</ele>
        <time>2019-04-24T12:34:39.000Z</time>
      </trkpt>
      <trkpt lat="42.41282653808594" lon="-6.9703688621521">
        <ele>325.0</ele>
        <time>2019-04-24T12:34:42.000Z</time>
      </trkpt>
      <trkpt lat="42.41276168823242" lon="-6.9703569412231445">
        <ele>326.0</ele>
        <time>2019-04-24T12:34:45.000Z</time>
      </trkpt>
      <trkpt lat="42.41271209716797" lon="-6.970337390899658">
        <ele>327.0</ele>
        <time>2019-04-24T12:34:49.000Z</time>
      </trkpt>
      <trkpt lat="42.41266632080078" lon="-6.97031307220459">
        <ele>328.0</ele>
        <time>2019-04-24T12:34:52.000Z</time>
      </trkpt>
      <trkpt lat="42.41262435913086" lon="-6.970285892486572">
        <ele>329.0</ele>
        <time>2019-04-24T12:34:56.000Z</time>
      </trkpt>
      <trkpt lat="42.41254425048828" lon="-6.970295429229736">
        <ele>330.0</ele>
        <time>2019-04-24T12:35:00.000Z</time>
      </trkpt>
      <trkpt lat="42.4124755859375" lon="-6.970327854156494">
        <ele>331.0</ele>
        <time>2019-04-24T12:35:04.000Z</time>
      </trkpt>
      <trkpt lat="42.41242599487305" lon="-6.97035026550293">
        <ele>331.0</ele>
        <time>2019-04-24T12:35:10.000Z</time>
      </trkpt>
      <trkpt lat="42.41236877441406" lon="-6.970378398895264">
        <ele>332.0</ele>
        <time>2019-04-24T12:35:16.000Z</time>
      </trkpt>
      <trkpt lat="42.41231155395508" lon="-6.970409870147705">
        <ele>333.0</ele>
        <time>2019-04-24T12:35:22.000Z</time>
      </trkpt>
      <trkpt lat="42.41225051879883" lon="-6.970442771911621">
        <ele>334.0</ele>
        <time>2019-04-24T12:35:28.000Z</time>
      </trkpt>
      <trkpt lat="42.4122314453125" lon="-6.970454692840576">
        <ele>334.0</ele>
        <time>2019-04-24T12:35:33.000Z</time>
      </trkpt>
      <trkpt lat="42.412227630615234" lon="-6.970459938049316">
        <ele>335.0</ele>
        <time>2019-04-24T12:35:37.000Z</time>
      </trkpt>
      <trkpt lat="42.4122314453125" lon="-6.970459938049316">
        <ele>335.0</ele>
        <time>2019-04-24T12:35:42.000Z</time>
      </trkpt>
      <trkpt lat="42.4122428894043" lon="-6.970458030700684">
        <ele>335.0</ele>
        <time>2019-04-24T12:35:47.000Z</time>
      </trkpt>
      <trkpt lat="42.4122428894043" lon="-6.970461845397949">
        <ele>335.0</ele>
        <time>2019-04-24T12:35:47.000Z</time>
      </trkpt>
      <trkpt lat="42.41223907470703" lon="-6.970465183258057">
        <ele>335.0</ele>
        <time>2019-04-24T12:35:47.000Z</time>
      </trkpt>
      <trkpt lat="42.41223907470703" lon="-6.970468521118164">
        <ele>335.0</ele>
        <time>2019-04-24T12:35:48.000Z</time>
      </trkpt>
      <trkpt lat="42.412235260009766" lon="-6.9704718589782715">
        <ele>335.0</ele>
        <time>2019-04-24T12:35:48.000Z</time>
      </trkpt>
      <trkpt lat="42.41221618652344" lon="-6.970508575439453">
        <ele>335.0</ele>
        <time>2019-04-24T12:35:49.000Z</time>
      </trkpt>
      <trkpt lat="42.41218948364258" lon="-6.970559597015381">
        <ele>335.0</ele>
        <time>2019-04-24T12:35:50.000Z</time>
      </trkpt>
      <trkpt lat="42.41215515136719" lon="-6.970620155334473">
        <ele>335.0</ele>
        <time>2019-04-24T12:35:52.000Z</time>
      </trkpt>
      <trkpt lat="42.41211700439453" lon="-6.9706854820251465">
        <ele>335.0</ele>
        <time>2019-04-24T12:35:53.000Z</time>
      </trkpt>
      <trkpt lat="42.41207504272461" lon="-6.970683574676514">
        <ele>335.0</ele>
        <time>2019-04-24T12:35:55.000Z</time>
      </trkpt>
      <trkpt lat="42.41202926635742" lon="-6.970658302307129">
        <ele>336.0</ele>
        <time>2019-04-24T12:35:56.000Z</time>
      </trkpt>
      <trkpt lat="42.4119758605957" lon="-6.970617771148682">
        <ele>336.0</ele>
        <time>2019-04-24T12:35:58.000Z</time>
      </trkpt>
      <trkpt lat="42.411922454833984" lon="-6.970569610595703">
        <ele>336.0</ele>
        <time>2019-04-24T12:36:00.000Z</time>
      </trkpt>
      <trkpt lat="42.411888122558594" lon="-6.970541000366211">
        <ele>336.0</ele>
        <time>2019-04-24T12:36:01.000Z</time>
      </trkpt>
      <trkpt lat="42.41185760498047" lon="-6.970512866973877">
        <ele>337.0</ele>
        <time>2019-04-24T12:36:01.000Z</time>
      </trkpt>
      <trkpt lat="42.411827087402344" lon="-6.970484733581543">
        <ele>337.0</ele>
        <time>2019-04-24T12:36:02.000Z</time>
      </trkpt>
      <trkpt lat="42.411800384521484" lon="-6.970456600189209">
        <ele>337.0</ele>
        <time>2019-04-24T12:36:03.000Z</time>
      </trkpt>
      <trkpt lat="42.41180419921875" lon="-6.970463752746582">
        <ele>337.0</ele>
        <time>2019-04-24T12:36:06.000Z</time>
      </trkpt>
      <trkpt lat="42.41181564331055" lon="-6.970485687255859">
        <ele>338.0</ele>
        <time>2019-04-24T12:36:08.000Z</time>
      </trkpt>
      <trkpt lat="42.41183853149414" lon="-6.970517158508301">
        <ele>338.0</ele>
        <time>2019-04-24T12:36:11.000Z</time>
      </trkpt>
      <trkpt lat="42.411865234375" lon="-6.970553874969482">
        <ele>338.0</ele>
        <time>2019-04-24T12:36:14.000Z</time>
      </trkpt>
      <trkpt lat="42.41187286376953" lon="-6.97056770324707">
        <ele>338.0</ele>
        <time>2019-04-24T12:36:19.000Z</time>
      </trkpt>
      <trkpt lat="42.41187286376953" lon="-6.970577239990234">
        <ele>339.0</ele>
        <time>2019-04-24T12:36:24.000Z</time>
      </trkpt>
      <trkpt lat="42.411869049072266" lon="-6.970584392547607">
        <ele>340.0</ele>
        <time>2019-04-24T12:36:30.000Z</time>
      </trkpt>
      <trkpt lat="42.411861419677734" lon="-6.970589637756348">
        <ele>341.0</ele>
        <time>2019-04-24T12:36:35.000Z</time>
      </trkpt>
      <trkpt lat="42.411861419677734" lon="-6.970597267150879">
        <ele>341.0</ele>
        <time>2019-04-24T12:36:35.000Z</time>
      </trkpt>
      <trkpt lat="42.411861419677734" lon="-6.970604419708252">
        <ele>341.0</ele>
        <time>2019-04-24T12:36:35.000Z</time>
      </trkpt>
      <trkpt lat="42.411861419677734" lon="-6.970611572265625">
        <ele>341.0</ele>
        <time>2019-04-24T12:36:36.000Z</time>
      </trkpt>
      <trkpt lat="42.411861419677734" lon="-6.97061824798584">
        <ele>341.0</ele>
        <time>2019-04-24T12:36:36.000Z</time>
      </trkpt>
      <trkpt lat="42.411865234375" lon="-6.970698833465576">
        <ele>341.0</ele>
        <time>2019-04-24T12:36:40.000Z</time>
      </trkpt>
      <trkpt lat="42.411869049072266" lon="-6.9708099365234375">
        <ele>341.0</ele>
        <time>2019-04-24T12:36:43.000Z</time>
      </trkpt>
      <trkpt lat="42.4118766784668" lon="-6.970941543579102">
        <ele>342.0</ele>
        <time>2019-04-24T12:36:47.000Z</time>
      </trkpt>
      <trkpt lat="42.41188430786133" lon="-6.971083164215088">
        <ele>342.0</ele>
        <time>2019-04-24T12:36:51.000Z</time>
      </trkpt>
      <trkpt lat="42.41190719604492" lon="-6.971189975738525">
        <ele>343.0</ele>
        <time>2019-04-24T12:37:00.000Z</time>
      </trkpt>
      <trkpt lat="42.41194152832031" lon="-6.971292972564697">
        <ele>344.0</ele>
        <time>2019-04-24T12:37:10.000Z</time>
      </trkpt>
      <trkpt lat="42.41197967529297" lon="-6.97139310836792">
        <ele>345.0</ele>
        <time>2019-04-24T12:37:19.000Z</time>
      </trkpt>
      <trkpt lat="42.41202163696289" lon="-6.971492290496826">
        <ele>346.0</ele>
        <time>2019-04-24T12:37:29.000Z</time>
      </trkpt>
      <trkpt lat="42.41207504272461" lon="-6.971584320068359">
        <ele>346.0</ele>
        <time>2019-04-24T12:37:35.000Z</time>
      </trkpt>
      <trkpt lat="42.41213607788086" lon="-6.971672534942627">
        <ele>346.0</ele>
        <time>2019-04-24T12:37:42.000Z</time>
      </trkpt>
      <trkpt lat="42.412200927734375" lon="-6.971757411956787">
        <ele>346.0</ele>
        <time>2019-04-24T12:37:48.000Z</time>
      </trkpt>
      <trkpt lat="42.412269592285156" lon="-6.971840858459473">
        <ele>346.0</ele>
        <time>2019-04-24T12:37:55.000Z</time>
      </trkpt>
      <trkpt lat="42.412315368652344" lon="-6.971940994262695">
        <ele>344.0</ele>
        <time>2019-04-24T12:38:03.000Z</time>
      </trkpt>
      <trkpt lat="42.412357330322266" lon="-6.9720458984375">
        <ele>342.0</ele>
        <time>2019-04-24T12:38:11.000Z</time>
      </trkpt>
      <trkpt lat="42.41239547729492" lon="-6.97215461730957">
        <ele>339.0</ele>
        <time>2019-04-24T12:38:20.000Z</time>
      </trkpt>
      <trkpt lat="42.41243362426758" lon="-6.972265243530273">
        <ele>337.0</ele>
        <time>2019-04-24T12:38:28.000Z</time>
      </trkpt>
      <trkpt lat="42.412498474121094" lon="-6.9727301597595215">
        <ele>328.0</ele>
        <time>2019-04-24T12:39:01.000Z</time>
      </trkpt>
      <trkpt lat="42.4124755859375" lon="-6.973159313201904">
        <ele>318.0</ele>
        <time>2019-04-24T12:39:32.000Z</time>
      </trkpt>
      <trkpt lat="42.41252136230469" lon="-6.973392963409424">
        <ele>302.0</ele>
        <time>2019-04-24T12:40:09.000Z</time>
      </trkpt>
      <trkpt lat="42.41258239746094" lon="-6.973638534545898">
        <ele>300.0</ele>
        <time>2019-04-24T12:40:22.000Z</time>
      </trkpt>
      <trkpt lat="42.412574768066406" lon="-6.973717212677002">
        <ele>299.0</ele>
        <time>2019-04-24T12:40:27.000Z</time>
      </trkpt>
      <trkpt lat="42.41255187988281" lon="-6.9737749099731445">
        <ele>298.0</ele>
        <time>2019-04-24T12:40:32.000Z</time>
      </trkpt>
      <trkpt lat="42.41257095336914" lon="-6.973802089691162">
        <ele>298.0</ele>
        <time>2019-04-24T12:40:35.000Z</time>
      </trkpt>
      <trkpt lat="42.41259765625" lon="-6.973826885223389">
        <ele>298.0</ele>
        <time>2019-04-24T12:40:38.000Z</time>
      </trkpt>
      <trkpt lat="42.412628173828125" lon="-6.973850250244141">
        <ele>297.0</ele>
        <time>2019-04-24T12:40:41.000Z</time>
      </trkpt>
      <trkpt lat="42.41266632080078" lon="-6.973872184753418">
        <ele>297.0</ele>
        <time>2019-04-24T12:40:44.000Z</time>
      </trkpt>
      <trkpt lat="42.41270446777344" lon="-6.973966121673584">
        <ele>296.0</ele>
        <time>2019-04-24T12:40:51.000Z</time>
      </trkpt>
      <trkpt lat="42.41273498535156" lon="-6.974081516265869">
        <ele>295.0</ele>
        <time>2019-04-24T12:40:58.000Z</time>
      </trkpt>
      <trkpt lat="42.41275405883789" lon="-6.9741668701171875">
        <ele>295.0</ele>
        <time>2019-04-24T12:41:04.000Z</time>
      </trkpt>
      <trkpt lat="42.412776947021484" lon="-6.974266529083252">
        <ele>294.0</ele>
        <time>2019-04-24T12:41:10.000Z</time>
      </trkpt>
      <trkpt lat="42.41279983520508" lon="-6.974375247955322">
        <ele>294.0</ele>
        <time>2019-04-24T12:41:17.000Z</time>
      </trkpt>
      <trkpt lat="42.41282653808594" lon="-6.974488735198975">
        <ele>294.0</ele>
        <time>2019-04-24T12:41:23.000Z</time>
      </trkpt>
      <trkpt lat="42.4128532409668" lon="-6.974545001983643">
        <ele>294.0</ele>
        <time>2019-04-24T12:41:24.000Z</time>
      </trkpt>
      <trkpt lat="42.41286849975586" lon="-6.974533557891846">
        <ele>294.0</ele>
        <time>2019-04-24T12:41:26.000Z</time>
      </trkpt>
      <trkpt lat="42.41288757324219" lon="-6.974672317504883">
        <ele>295.0</ele>
        <time>2019-04-24T12:41:37.000Z</time>
      </trkpt>
      <trkpt lat="42.412906646728516" lon="-6.974864482879639">
        <ele>297.0</ele>
        <time>2019-04-24T12:41:49.000Z</time>
      </trkpt>
      <trkpt lat="42.41292953491211" lon="-6.974907398223877">
        <ele>297.0</ele>
        <time>2019-04-24T12:41:51.000Z</time>
      </trkpt>
      <trkpt lat="42.412960052490234" lon="-6.974934101104736">
        <ele>297.0</ele>
        <time>2019-04-24T12:41:54.000Z</time>
      </trkpt>
      <trkpt lat="42.412994384765625" lon="-6.974949359893799">
        <ele>297.0</ele>
        <time>2019-04-24T12:41:56.000Z</time>
      </trkpt>
      <trkpt lat="42.41303253173828" lon="-6.974958896636963">
        <ele>297.0</ele>
        <time>2019-04-24T12:41:59.000Z</time>
      </trkpt>
      <trkpt lat="42.41306686401367" lon="-6.97498893737793">
        <ele>297.0</ele>
        <time>2019-04-24T12:42:03.000Z</time>
      </trkpt>
      <trkpt lat="42.41310501098633" lon="-6.9750213623046875">
        <ele>299.0</ele>
        <time>2019-04-24T12:42:07.000Z</time>
      </trkpt>
      <trkpt lat="42.413143157958984" lon="-6.975055694580078">
        <ele>300.0</ele>
        <time>2019-04-24T12:42:12.000Z</time>
      </trkpt>
      <trkpt lat="42.413185119628906" lon="-6.975090980529785">
        <ele>302.0</ele>
        <time>2019-04-24T12:42:16.000Z</time>
      </trkpt>
      <trkpt lat="42.41324234008789" lon="-6.975146770477295">
        <ele>306.0</ele>
        <time>2019-04-24T12:42:23.000Z</time>
      </trkpt>
      <trkpt lat="42.413307189941406" lon="-6.975212097167969">
        <ele>311.0</ele>
        <time>2019-04-24T12:42:30.000Z</time>
      </trkpt>
      <trkpt lat="42.41337966918945" lon="-6.975284099578857">
        <ele>316.0</ele>
        <time>2019-04-24T12:42:38.000Z</time>
      </trkpt>
      <trkpt lat="42.413455963134766" lon="-6.975358963012695">
        <ele>323.0</ele>
        <time>2019-04-24T12:42:45.000Z</time>
      </trkpt>
      <trkpt lat="42.41352462768555" lon="-6.975427150726318">
        <ele>324.0</ele>
        <time>2019-04-24T12:42:50.000Z</time>
      </trkpt>
      <trkpt lat="42.413597106933594" lon="-6.9754958152771">
        <ele>325.0</ele>
        <time>2019-04-24T12:42:56.000Z</time>
      </trkpt>
      <trkpt lat="42.41366958618164" lon="-6.975564479827881">
        <ele>325.0</ele>
        <time>2019-04-24T12:43:01.000Z</time>
      </trkpt>
      <trkpt lat="42.41374206542969" lon="-6.97563362121582">
        <ele>324.0</ele>
        <time>2019-04-24T12:43:06.000Z</time>
      </trkpt>
      <trkpt lat="42.41379928588867" lon="-6.975754737854004">
        <ele>320.0</ele>
        <time>2019-04-24T12:43:18.000Z</time>
      </trkpt>
      <trkpt lat="42.413822174072266" lon="-6.975868225097656">
        <ele>314.0</ele>
        <time>2019-04-24T12:43:30.000Z</time>
      </trkpt>
      <trkpt lat="42.41384506225586" lon="-6.9759202003479">
        <ele>313.0</ele>
        <time>2019-04-24T12:43:34.000Z</time>
      </trkpt>
      <trkpt lat="42.41386795043945" lon="-6.975968837738037">
        <ele>313.0</ele>
        <time>2019-04-24T12:43:37.000Z</time>
      </trkpt>
      <trkpt lat="42.41389465332031" lon="-6.976015567779541">
        <ele>314.0</ele>
        <time>2019-04-24T12:43:41.000Z</time>
      </trkpt>
      <trkpt lat="42.41392135620117" lon="-6.9760613441467285">
        <ele>315.0</ele>
        <time>2019-04-24T12:43:44.000Z</time>
      </trkpt>
      <trkpt lat="42.41394805908203" lon="-6.976109504699707">
        <ele>314.0</ele>
        <time>2019-04-24T12:43:49.000Z</time>
      </trkpt>
      <trkpt lat="42.41397476196289" lon="-6.9761576652526855">
        <ele>314.0</ele>
        <time>2019-04-24T12:43:54.000Z</time>
      </trkpt>
      <trkpt lat="42.414005279541016" lon="-6.976205825805664">
        <ele>314.0</ele>
        <time>2019-04-24T12:44:00.000Z</time>
      </trkpt>
      <trkpt lat="42.414031982421875" lon="-6.976253986358643">
        <ele>313.0</ele>
        <time>2019-04-24T12:44:05.000Z</time>
      </trkpt>
      <trkpt lat="42.414066314697266" lon="-6.976293563842773">
        <ele>313.0</ele>
        <time>2019-04-24T12:44:09.000Z</time>
      </trkpt>
      <trkpt lat="42.414100646972656" lon="-6.976329803466797">
        <ele>312.0</ele>
        <time>2019-04-24T12:44:12.000Z</time>
      </trkpt>
      <trkpt lat="42.41413879394531" lon="-6.976363658905029">
        <ele>312.0</ele>
        <time>2019-04-24T12:44:16.000Z</time>
      </trkpt>
      <trkpt lat="42.41417694091797" lon="-6.976396083831787">
        <ele>311.0</ele>
        <time>2019-04-24T12:44:20.000Z</time>
      </trkpt>
      <trkpt lat="42.414207458496094" lon="-6.976441383361816">
        <ele>311.0</ele>
        <time>2019-04-24T12:44:25.000Z</time>
      </trkpt>
      <trkpt lat="42.41423797607422" lon="-6.976491451263428">
        <ele>311.0</ele>
        <time>2019-04-24T12:44:31.000Z</time>
      </trkpt>
      <trkpt lat="42.414268493652344" lon="-6.97654390335083">
        <ele>311.0</ele>
        <time>2019-04-24T12:44:36.000Z</time>
      </trkpt>
      <trkpt lat="42.41429901123047" lon="-6.976598262786865">
        <ele>312.0</ele>
        <time>2019-04-24T12:44:42.000Z</time>
      </trkpt>
      <trkpt lat="42.4143180847168" lon="-6.976646423339844">
        <ele>312.0</ele>
        <time>2019-04-24T12:44:45.000Z</time>
      </trkpt>
      <trkpt lat="42.414329528808594" lon="-6.976694107055664">
        <ele>312.0</ele>
        <time>2019-04-24T12:44:48.000Z</time>
      </trkpt>
      <trkpt lat="42.41434097290039" lon="-6.976741313934326">
        <ele>312.0</ele>
        <time>2019-04-24T12:44:51.000Z</time>
      </trkpt>
      <trkpt lat="42.41435241699219" lon="-6.976787567138672">
        <ele>312.0</ele>
        <time>2019-04-24T12:44:54.000Z</time>
      </trkpt>
      <trkpt lat="42.41434860229492" lon="-6.976813316345215">
        <ele>312.0</ele>
        <time>2019-04-24T12:44:56.000Z</time>
      </trkpt>
      <trkpt lat="42.414337158203125" lon="-6.976830005645752">
        <ele>312.0</ele>
        <time>2019-04-24T12:44:59.000Z</time>
      </trkpt>
      <trkpt lat="42.41432571411133" lon="-6.976840972900391">
        <ele>312.0</ele>
        <time>2019-04-24T12:45:01.000Z</time>
      </trkpt>
      <trkpt lat="42.414306640625" lon="-6.976848602294922">
        <ele>312.0</ele>
        <time>2019-04-24T12:45:04.000Z</time>
      </trkpt>
      <trkpt lat="42.41433334350586" lon="-6.9769110679626465">
        <ele>313.0</ele>
        <time>2019-04-24T12:45:12.000Z</time>
      </trkpt>
      <trkpt lat="42.41437530517578" lon="-6.976994037628174">
        <ele>313.0</ele>
        <time>2019-04-24T12:45:20.000Z</time>
      </trkpt>
      <trkpt lat="42.414424896240234" lon="-6.977089881896973">
        <ele>313.0</ele>
        <time>2019-04-24T12:45:28.000Z</time>
      </trkpt>
      <trkpt lat="42.41448211669922" lon="-6.9771928787231445">
        <ele>314.0</ele>
        <time>2019-04-24T12:45:36.000Z</time>
      </trkpt>
      <trkpt lat="42.4145393371582" lon="-6.9772562980651855">
        <ele>314.0</ele>
        <time>2019-04-24T12:45:42.000Z</time>
      </trkpt>
      <trkpt lat="42.41458511352539" lon="-6.977270126342773">
        <ele>314.0</ele>
        <time>2019-04-24T12:45:48.000Z</time>
      </trkpt>
      <trkpt lat="42.41460037231445" lon="-6.977281093597412">
        <ele>313.0</ele>
        <time>2019-04-24T12:45:48.000Z</time>
      </trkpt>
      <trkpt lat="42.41461181640625" lon="-6.977289199829102">
        <ele>313.0</ele>
        <time>2019-04-24T12:45:48.000Z</time>
      </trkpt>
      <trkpt lat="42.41461944580078" lon="-6.977294921875">
        <ele>313.0</ele>
        <time>2019-04-24T12:45:49.000Z</time>
      </trkpt>
      <trkpt lat="42.41462707519531" lon="-6.977299213409424">
        <ele>314.0</ele>
        <time>2019-04-24T12:45:49.000Z</time>
      </trkpt>
      <trkpt lat="42.41464614868164" lon="-6.977317810058594">
        <ele>314.0</ele>
        <time>2019-04-24T12:45:50.000Z</time>
      </trkpt>
      <trkpt lat="42.414669036865234" lon="-6.977341175079346">
        <ele>314.0</ele>
        <time>2019-04-24T12:45:51.000Z</time>
      </trkpt>
      <trkpt lat="42.414695739746094" lon="-6.977367877960205">
        <ele>314.0</ele>
        <time>2019-04-24T12:45:52.000Z</time>
      </trkpt>
      <trkpt lat="42.41472244262695" lon="-6.977395534515381">
        <ele>314.0</ele>
        <time>2019-04-24T12:45:53.000Z</time>
      </trkpt>
      <trkpt lat="42.41473388671875" lon="-6.977423191070557">
        <ele>314.0</ele>
        <time>2019-04-24T12:45:55.000Z</time>
      </trkpt>
      <trkpt lat="42.41474151611328" lon="-6.977451801300049">
        <ele>314.0</ele>
        <time>2019-04-24T12:45:56.000Z</time>
      </trkpt>
      <trkpt lat="42.41474151611328" lon="-6.977481842041016">
        <ele>314.0</ele>
        <time>2019-04-24T12:45:58.000Z</time>
      </trkpt>
      <trkpt lat="42.41474151611328" lon="-6.977511882781982">
        <ele>314.0</ele>
        <time>2019-04-24T12:46:00.000Z</time>
      </trkpt>
      <trkpt lat="42.414737701416016" lon="-6.9775238037109375">
        <ele>315.0</ele>
        <time>2019-04-24T12:46:01.000Z</time>
      </trkpt>
      <trkpt lat="42.414730072021484" lon="-6.977528095245361">
        <ele>315.0</ele>
        <time>2019-04-24T12:46:02.000Z</time>
      </trkpt>
      <trkpt lat="42.41471862792969" lon="-6.977527618408203">
        <ele>315.0</ele>
        <time>2019-04-24T12:46:03.000Z</time>
      </trkpt>
      <trkpt lat="42.414710998535156" lon="-6.977524757385254">
        <ele>315.0</ele>
        <time>2019-04-24T12:46:04.000Z</time>
      </trkpt>
      <trkpt lat="42.41472244262695" lon="-6.977538585662842">
        <ele>316.0</ele>
        <time>2019-04-24T12:46:06.000Z</time>
      </trkpt>
      <trkpt lat="42.41474151611328" lon="-6.977556228637695">
        <ele>316.0</ele>
        <time>2019-04-24T12:46:07.000Z</time>
      </trkpt>
      <trkpt lat="42.41476821899414" lon="-6.977576732635498">
        <ele>316.0</ele>
        <time>2019-04-24T12:46:09.000Z</time>
      </trkpt>
      <trkpt lat="42.414794921875" lon="-6.977598190307617">
        <ele>316.0</ele>
        <time>2019-04-24T12:46:11.000Z</time>
      </trkpt>
      <trkpt lat="42.41485595703125" lon="-6.977645397186279">
        <ele>315.0</ele>
        <time>2019-04-24T12:46:15.000Z</time>
      </trkpt>
      <trkpt lat="42.41493225097656" lon="-6.9777045249938965">
        <ele>315.0</ele>
        <time>2019-04-24T12:46:19.000Z</time>
      </trkpt>
      <trkpt lat="42.41501998901367" lon="-6.977772235870361">
        <ele>314.0</ele>
        <time>2019-04-24T12:46:24.000Z</time>
      </trkpt>
      <trkpt lat="42.41511535644531" lon="-6.977843284606934">
        <ele>314.0</ele>
        <time>2019-04-24T12:46:28.000Z</time>
      </trkpt>
      <trkpt lat="42.415164947509766" lon="-6.9778900146484375">
        <ele>314.0</ele>
        <time>2019-04-24T12:46:30.000Z</time>
      </trkpt>
      <trkpt lat="42.415199279785156" lon="-6.977930545806885">
        <ele>314.0</ele>
        <time>2019-04-24T12:46:32.000Z</time>
      </trkpt>
      <trkpt lat="42.415225982666016" lon="-6.977966785430908">
        <ele>314.0</ele>
        <time>2019-04-24T12:46:35.000Z</time>
      </trkpt>
      <trkpt lat="42.41524887084961" lon="-6.978001117706299">
        <ele>314.0</ele>
        <time>2019-04-24T12:46:37.000Z</time>
      </trkpt>
      <trkpt lat="42.41526412963867" lon="-6.978046894073486">
        <ele>314.0</ele>
        <time>2019-04-24T12:46:40.000Z</time>
      </trkpt>
      <trkpt lat="42.41526794433594" lon="-6.978094577789307">
        <ele>314.0</ele>
        <time>2019-04-24T12:46:43.000Z</time>
      </trkpt>
      <trkpt lat="42.41526794433594" lon="-6.97814416885376">
        <ele>314.0</ele>
        <time>2019-04-24T12:46:47.000Z</time>
      </trkpt>
      <trkpt lat="42.41526412963867" lon="-6.978194236755371">
        <ele>313.0</ele>
        <time>2019-04-24T12:46:50.000Z</time>
      </trkpt>
      <trkpt lat="42.415340423583984" lon="-6.978368759155273">
        <ele>318.0</ele>
        <time>2019-04-24T12:47:05.000Z</time>
      </trkpt>
      <trkpt lat="42.41544723510742" lon="-6.978578567504883">
        <ele>324.0</ele>
        <time>2019-04-24T12:47:21.000Z</time>
      </trkpt>
      <trkpt lat="42.41551208496094" lon="-6.97865629196167">
        <ele>325.0</ele>
        <time>2019-04-24T12:47:27.000Z</time>
      </trkpt>
      <trkpt lat="42.41558074951172" lon="-6.978726387023926">
        <ele>326.0</ele>
        <time>2019-04-24T12:47:33.000Z</time>
      </trkpt>
      <trkpt lat="42.41565704345703" lon="-6.978791236877441">
        <ele>327.0</ele>
        <time>2019-04-24T12:47:40.000Z</time>
      </trkpt>
      <trkpt lat="42.415733337402344" lon="-6.978853225708008">
        <ele>327.0</ele>
        <time>2019-04-24T12:47:46.000Z</time>
      </trkpt>
      <trkpt lat="42.41582489013672" lon="-6.979050636291504">
        <ele>327.0</ele>
        <time>2019-04-24T12:48:02.000Z</time>
      </trkpt>
      <trkpt lat="42.415897369384766" lon="-6.979275226593018">
        <ele>327.0</ele>
        <time>2019-04-24T12:48:19.000Z</time>
      </trkpt>
      <trkpt lat="42.41593551635742" lon="-6.979372501373291">
        <ele>327.0</ele>
        <time>2019-04-24T12:48:25.000Z</time>
      </trkpt>
      <trkpt lat="42.41597366333008" lon="-6.979466915130615">
        <ele>328.0</ele>
        <time>2019-04-24T12:48:32.000Z</time>
      </trkpt>
      <trkpt lat="42.416011810302734" lon="-6.979558944702148">
        <ele>328.0</ele>
        <time>2019-04-24T12:48:38.000Z</time>
      </trkpt>
      <trkpt lat="42.41604995727539" lon="-6.979650020599365">
        <ele>328.0</ele>
        <time>2019-04-24T12:48:45.000Z</time>
      </trkpt>
      <trkpt lat="42.41604995727539" lon="-6.979717254638672">
        <ele>329.0</ele>
        <time>2019-04-24T12:48:49.000Z</time>
      </trkpt>
      <trkpt lat="42.41603469848633" lon="-6.979773998260498">
        <ele>330.0</ele>
        <time>2019-04-24T12:48:52.000Z</time>
      </trkpt>
      <trkpt lat="42.41600799560547" lon="-6.979823112487793">
        <ele>332.0</ele>
        <time>2019-04-24T12:48:56.000Z</time>
      </trkpt>
      <trkpt lat="42.415977478027344" lon="-6.9798688888549805">
        <ele>334.0</ele>
        <time>2019-04-24T12:49:00.000Z</time>
      </trkpt>
      <trkpt lat="42.41598129272461" lon="-6.9799323081970215">
        <ele>333.0</ele>
        <time>2019-04-24T12:49:04.000Z</time>
      </trkpt>
      <trkpt lat="42.41599655151367" lon="-6.97999906539917">
        <ele>333.0</ele>
        <time>2019-04-24T12:49:08.000Z</time>
      </trkpt>
      <trkpt lat="42.416011810302734" lon="-6.980068206787109">
        <ele>332.0</ele>
        <time>2019-04-24T12:49:13.000Z</time>
      </trkpt>
      <trkpt lat="42.41603469848633" lon="-6.980138778686523">
        <ele>331.0</ele>
        <time>2019-04-24T12:49:17.000Z</time>
      </trkpt>
      <trkpt lat="42.41604232788086" lon="-6.980166435241699">
        <ele>328.0</ele>
        <time>2019-04-24T12:49:20.000Z</time>
      </trkpt>
      <trkpt lat="42.41604232788086" lon="-6.980177879333496">
        <ele>325.0</ele>
        <time>2019-04-24T12:49:24.000Z</time>
      </trkpt>
      <trkpt lat="42.41604232788086" lon="-6.980178356170654">
        <ele>321.0</ele>
        <time>2019-04-24T12:49:27.000Z</time>
      </trkpt>
      <trkpt lat="42.41604232788086" lon="-6.980172634124756">
        <ele>317.0</ele>
        <time>2019-04-24T12:49:31.000Z</time>
      </trkpt>
      <trkpt lat="42.41604232788086" lon="-6.980180263519287">
        <ele>316.0</ele>
        <time>2019-04-24T12:49:31.000Z</time>
      </trkpt>
      <trkpt lat="42.416046142578125" lon="-6.980186462402344">
        <ele>316.0</ele>
        <time>2019-04-24T12:49:31.000Z</time>
      </trkpt>
      <trkpt lat="42.416046142578125" lon="-6.9801926612854">
        <ele>316.0</ele>
        <time>2019-04-24T12:49:32.000Z</time>
      </trkpt>
      <trkpt lat="42.416046142578125" lon="-6.980198860168457">
        <ele>317.0</ele>
        <time>2019-04-24T12:49:32.000Z</time>
      </trkpt>
      <trkpt lat="42.41604995727539" lon="-6.9802069664001465">
        <ele>317.0</ele>
        <time>2019-04-24T12:49:33.000Z</time>
      </trkpt>
      <trkpt lat="42.41604995727539" lon="-6.980216026306152">
        <ele>317.0</ele>
        <time>2019-04-24T12:49:33.000Z</time>
      </trkpt>
      <trkpt lat="42.416053771972656" lon="-6.980225563049316">
        <ele>316.0</ele>
        <time>2019-04-24T12:49:34.000Z</time>
      </trkpt>
      <trkpt lat="42.416053771972656" lon="-6.9802350997924805">
        <ele>316.0</ele>
        <time>2019-04-24T12:49:35.000Z</time>
      </trkpt>
      <trkpt lat="42.41605758666992" lon="-6.98024320602417">
        <ele>316.0</ele>
        <time>2019-04-24T12:49:36.000Z</time>
      </trkpt>
      <trkpt lat="42.41605758666992" lon="-6.980250358581543">
        <ele>316.0</ele>
        <time>2019-04-24T12:49:37.000Z</time>
      </trkpt>
      <trkpt lat="42.41606140136719" lon="-6.980257511138916">
        <ele>316.0</ele>
        <time>2019-04-24T12:49:39.000Z</time>
      </trkpt>
      <trkpt lat="42.41606140136719" lon="-6.980264663696289">
        <ele>316.0</ele>
        <time>2019-04-24T12:49:40.000Z</time>
      </trkpt>
      <trkpt lat="42.41606521606445" lon="-6.980271339416504">
        <ele>316.0</ele>
        <time>2019-04-24T12:49:40.000Z</time>
      </trkpt>
      <trkpt lat="42.41606521606445" lon="-6.980277061462402">
        <ele>316.0</ele>
        <time>2019-04-24T12:49:40.000Z</time>
      </trkpt>
      <trkpt lat="42.41606521606445" lon="-6.980283260345459">
        <ele>316.0</ele>
        <time>2019-04-24T12:49:41.000Z</time>
      </trkpt>
      <trkpt lat="42.41606903076172" lon="-6.980288982391357">
        <ele>316.0</ele>
        <time>2019-04-24T12:49:41.000Z</time>
      </trkpt>
      <trkpt lat="42.41615676879883" lon="-6.98073673248291">
        <ele>316.0</ele>
        <time>2019-04-24T12:49:54.000Z</time>
      </trkpt>
      <trkpt lat="42.4161491394043" lon="-6.980802059173584">
        <ele>315.0</ele>
        <time>2019-04-24T12:50:01.000Z</time>
      </trkpt>
      <trkpt lat="42.416160583496094" lon="-6.980863571166992">
        <ele>313.0</ele>
        <time>2019-04-24T12:50:16.000Z</time>
      </trkpt>
      <trkpt lat="42.416168212890625" lon="-6.980903625488281">
        <ele>313.0</ele>
        <time>2019-04-24T12:50:17.000Z</time>
      </trkpt>
      <trkpt lat="42.41615676879883" lon="-6.981107234954834">
        <ele>313.0</ele>
        <time>2019-04-24T12:50:20.000Z</time>
      </trkpt>
      <trkpt lat="42.41612243652344" lon="-6.9811530113220215">
        <ele>313.0</ele>
        <time>2019-04-24T12:50:24.000Z</time>
      </trkpt>
      <trkpt lat="42.41607666015625" lon="-6.981196403503418">
        <ele>314.0</ele>
        <time>2019-04-24T12:50:28.000Z</time>
      </trkpt>
      <trkpt lat="42.416019439697266" lon="-6.981237888336182">
        <ele>314.0</ele>
        <time>2019-04-24T12:50:33.000Z</time>
      </trkpt>
      <trkpt lat="42.41596221923828" lon="-6.981279373168945">
        <ele>314.0</ele>
        <time>2019-04-24T12:50:37.000Z</time>
      </trkpt>
      <trkpt lat="42.415985107421875" lon="-6.9813313484191895">
        <ele>314.0</ele>
        <time>2019-04-24T12:50:39.000Z</time>
      </trkpt>
      <trkpt lat="42.41604232788086" lon="-6.981387615203857">
        <ele>314.0</ele>
        <time>2019-04-24T12:50:42.000Z</time>
      </trkpt>
      <trkpt lat="42.41612243652344" lon="-6.981446266174316">
        <ele>314.0</ele>
        <time>2019-04-24T12:50:44.000Z</time>
      </trkpt>
      <trkpt lat="42.41621017456055" lon="-6.98150634765625">
        <ele>313.0</ele>
        <time>2019-04-24T12:50:47.000Z</time>
      </trkpt>
      <trkpt lat="42.41621780395508" lon="-6.98155403137207">
        <ele>313.0</ele>
        <time>2019-04-24T12:50:50.000Z</time>
      </trkpt>
      <trkpt lat="42.41620635986328" lon="-6.981597900390625">
        <ele>313.0</ele>
        <time>2019-04-24T12:50:53.000Z</time>
      </trkpt>
      <trkpt lat="42.41618347167969" lon="-6.981639385223389">
        <ele>313.0</ele>
        <time>2019-04-24T12:50:57.000Z</time>
      </trkpt>
      <trkpt lat="42.4161491394043" lon="-6.981679439544678">
        <ele>313.0</ele>
        <time>2019-04-24T12:51:00.000Z</time>
      </trkpt>
      <trkpt lat="42.41615676879883" lon="-6.981893539428711">
        <ele>312.0</ele>
        <time>2019-04-24T12:51:13.000Z</time>
      </trkpt>
      <trkpt lat="42.41617965698242" lon="-6.982166767120361">
        <ele>311.0</ele>
        <time>2019-04-24T12:51:26.000Z</time>
      </trkpt>
      <trkpt lat="42.41623306274414" lon="-6.982325077056885">
        <ele>310.0</ele>
        <time>2019-04-24T12:51:34.000Z</time>
      </trkpt>
      <trkpt lat="42.41630554199219" lon="-6.982444763183594">
        <ele>309.0</ele>
        <time>2019-04-24T12:51:42.000Z</time>
      </trkpt>
      <trkpt lat="42.41629409790039" lon="-6.982502460479736">
        <ele>308.0</ele>
        <time>2019-04-24T12:51:44.000Z</time>
      </trkpt>
      <trkpt lat="42.41626739501953" lon="-6.982554912567139">
        <ele>307.0</ele>
        <time>2019-04-24T12:51:47.000Z</time>
      </trkpt>
      <trkpt lat="42.416229248046875" lon="-6.982604503631592">
        <ele>306.0</ele>
        <time>2019-04-24T12:51:49.000Z</time>
      </trkpt>
      <trkpt lat="42.41618347167969" lon="-6.982652187347412">
        <ele>304.0</ele>
        <time>2019-04-24T12:51:52.000Z</time>
      </trkpt>
      <trkpt lat="42.416168212890625" lon="-6.982770919799805">
        <ele>305.0</ele>
        <time>2019-04-24T12:52:01.000Z</time>
      </trkpt>
      <trkpt lat="42.41617202758789" lon="-6.9828972816467285">
        <ele>307.0</ele>
        <time>2019-04-24T12:52:10.000Z</time>
      </trkpt>
      <trkpt lat="42.41624450683594" lon="-6.983077526092529">
        <ele>309.0</ele>
        <time>2019-04-24T12:52:25.000Z</time>
      </trkpt>
      <trkpt lat="42.41635513305664" lon="-6.9832844734191895">
        <ele>311.0</ele>
        <time>2019-04-24T12:52:41.000Z</time>
      </trkpt>
      <trkpt lat="42.41637420654297" lon="-6.983325958251953">
        <ele>312.0</ele>
        <time>2019-04-24T12:52:43.000Z</time>
      </trkpt>
      <trkpt lat="42.416378021240234" lon="-6.983344554901123">
        <ele>313.0</ele>
        <time>2019-04-24T12:52:45.000Z</time>
      </trkpt>
      <trkpt lat="42.416378021240234" lon="-6.983347415924072">
        <ele>313.0</ele>
        <time>2019-04-24T12:52:47.000Z</time>
      </trkpt>
      <trkpt lat="42.4163703918457" lon="-6.98334264755249">
        <ele>314.0</ele>
        <time>2019-04-24T12:52:49.000Z</time>
      </trkpt>
      <trkpt lat="42.41637420654297" lon="-6.983357906341553">
        <ele>315.0</ele>
        <time>2019-04-24T12:52:53.000Z</time>
      </trkpt>
      <trkpt lat="42.41637420654297" lon="-6.983372688293457">
        <ele>316.0</ele>
        <time>2019-04-24T12:52:57.000Z</time>
      </trkpt>
      <trkpt lat="42.41637420654297" lon="-6.9833879470825195">
        <ele>317.0</ele>
        <time>2019-04-24T12:53:02.000Z</time>
      </trkpt>
      <trkpt lat="42.41637420654297" lon="-6.983403205871582">
        <ele>319.0</ele>
        <time>2019-04-24T12:53:06.000Z</time>
      </trkpt>
      <trkpt lat="42.41637420654297" lon="-6.983415126800537">
        <ele>319.0</ele>
        <time>2019-04-24T12:53:06.000Z</time>
      </trkpt>
      <trkpt lat="42.41637420654297" lon="-6.983425617218018">
        <ele>319.0</ele>
        <time>2019-04-24T12:53:06.000Z</time>
      </trkpt>
      <trkpt lat="42.41637420654297" lon="-6.98343563079834">
        <ele>319.0</ele>
        <time>2019-04-24T12:53:07.000Z</time>
      </trkpt>
      <trkpt lat="42.416378021240234" lon="-6.983444690704346">
        <ele>319.0</ele>
        <time>2019-04-24T12:53:07.000Z</time>
      </trkpt>
      <trkpt lat="42.416378021240234" lon="-6.983519554138184">
        <ele>319.0</ele>
        <time>2019-04-24T12:53:10.000Z</time>
      </trkpt>
      <trkpt lat="42.4163818359375" lon="-6.983621597290039">
        <ele>320.0</ele>
        <time>2019-04-24T12:53:13.000Z</time>
      </trkpt>
      <trkpt lat="42.416385650634766" lon="-6.983741760253906">
        <ele>321.0</ele>
        <time>2019-04-24T12:53:16.000Z</time>
      </trkpt>
      <trkpt lat="42.4163932800293" lon="-6.983870983123779">
        <ele>323.0</ele>
        <time>2019-04-24T12:53:19.000Z</time>
      </trkpt>
      <trkpt lat="42.41644287109375" lon="-6.984045505523682">
        <ele>324.0</ele>
        <time>2019-04-24T12:53:27.000Z</time>
      </trkpt>
      <trkpt lat="42.41651153564453" lon="-6.9842023849487305">
        <ele>325.0</ele>
        <time>2019-04-24T12:53:36.000Z</time>
      </trkpt>
      <trkpt lat="42.4165153503418" lon="-6.9842529296875">
        <ele>325.0</ele>
        <time>2019-04-24T12:53:38.000Z</time>
      </trkpt>
      <trkpt lat="42.41651153564453" lon="-6.98429012298584">
        <ele>326.0</ele>
        <time>2019-04-24T12:53:41.000Z</time>
      </trkpt>
      <trkpt lat="42.41649627685547" lon="-6.984318256378174">
        <ele>327.0</ele>
        <time>2019-04-24T12:53:43.000Z</time>
      </trkpt>
      <trkpt lat="42.416481018066406" lon="-6.984342098236084">
        <ele>327.0</ele>
        <time>2019-04-24T12:53:46.000Z</time>
      </trkpt>
      <trkpt lat="42.41650390625" lon="-6.98438835144043">
        <ele>328.0</ele>
        <time>2019-04-24T12:53:48.000Z</time>
      </trkpt>
      <trkpt lat="42.41653823852539" lon="-6.984439373016357">
        <ele>329.0</ele>
        <time>2019-04-24T12:53:50.000Z</time>
      </trkpt>
      <trkpt lat="42.41658020019531" lon="-6.984493732452393">
        <ele>330.0</ele>
        <time>2019-04-24T12:53:52.000Z</time>
      </trkpt>
      <trkpt lat="42.4166259765625" lon="-6.984549045562744">
        <ele>331.0</ele>
        <time>2019-04-24T12:53:54.000Z</time>
      </trkpt>
      <trkpt lat="42.4166374206543" lon="-6.984582901000977">
        <ele>332.0</ele>
        <time>2019-04-24T12:53:55.000Z</time>
      </trkpt>
      <trkpt lat="42.41663360595703" lon="-6.984609127044678">
        <ele>331.0</ele>
        <time>2019-04-24T12:53:57.000Z</time>
      </trkpt>
      <trkpt lat="42.416622161865234" lon="-6.984630107879639">
        <ele>331.0</ele>
        <time>2019-04-24T12:53:58.000Z</time>
      </trkpt>
      <trkpt lat="42.41660690307617" lon="-6.984649181365967">
        <ele>331.0</ele>
        <time>2019-04-24T12:54:00.000Z</time>
      </trkpt>
      <trkpt lat="42.416568756103516" lon="-6.984683513641357">
        <ele>329.0</ele>
        <time>2019-04-24T12:54:05.000Z</time>
      </trkpt>
      <trkpt lat="42.41651153564453" lon="-6.984721660614014">
        <ele>327.0</ele>
        <time>2019-04-24T12:54:10.000Z</time>
      </trkpt>
      <trkpt lat="42.416446685791016" lon="-6.984762668609619">
        <ele>324.0</ele>
        <time>2019-04-24T12:54:16.000Z</time>
      </trkpt>
      <trkpt lat="42.41637420654297" lon="-6.984805107116699">
        <ele>322.0</ele>
        <time>2019-04-24T12:54:21.000Z</time>
      </trkpt>
      <trkpt lat="42.41633987426758" lon="-6.984832286834717">
        <ele>321.0</ele>
        <time>2019-04-24T12:54:23.000Z</time>
      </trkpt>
      <trkpt lat="42.416316986083984" lon="-6.9848551750183105">
        <ele>320.0</ele>
        <time>2019-04-24T12:54:24.000Z</time>
      </trkpt>
      <trkpt lat="42.41630172729492" lon="-6.984874248504639">
        <ele>320.0</ele>
        <time>2019-04-24T12:54:26.000Z</time>
      </trkpt>
      <trkpt lat="42.41628646850586" lon="-6.98489236831665">
        <ele>320.0</ele>
        <time>2019-04-24T12:54:28.000Z</time>
      </trkpt>
      <trkpt lat="42.416290283203125" lon="-6.984944820404053">
        <ele>319.0</ele>
        <time>2019-04-24T12:54:31.000Z</time>
      </trkpt>
      <trkpt lat="42.41630554199219" lon="-6.985010147094727">
        <ele>319.0</ele>
        <time>2019-04-24T12:54:34.000Z</time>
      </trkpt>
      <trkpt lat="42.416324615478516" lon="-6.985084056854248">
        <ele>319.0</ele>
        <time>2019-04-24T12:54:37.000Z</time>
      </trkpt>
      <trkpt lat="42.416351318359375" lon="-6.985162258148193">
        <ele>319.0</ele>
        <time>2019-04-24T12:54:40.000Z</time>
      </trkpt>
      <trkpt lat="42.416351318359375" lon="-6.985218048095703">
        <ele>319.0</ele>
        <time>2019-04-24T12:54:42.000Z</time>
      </trkpt>
      <trkpt lat="42.41633605957031" lon="-6.985237121582031">
        <ele>320.0</ele>
        <time>2019-04-24T12:54:44.000Z</time>
      </trkpt>
      <trkpt lat="42.41640853881836" lon="-6.985385417938232">
        <ele>320.0</ele>
        <time>2019-04-24T12:54:57.000Z</time>
      </trkpt>
      <trkpt lat="42.41651916503906" lon="-6.9855852127075195">
        <ele>320.0</ele>
        <time>2019-04-24T12:55:11.000Z</time>
      </trkpt>
      <trkpt lat="42.41653060913086" lon="-6.985660076141357">
        <ele>320.0</ele>
        <time>2019-04-24T12:55:15.000Z</time>
      </trkpt>
      <trkpt lat="42.41653060913086" lon="-6.985730171203613">
        <ele>320.0</ele>
        <time>2019-04-24T12:55:19.000Z</time>
      </trkpt>
      <trkpt lat="42.41651916503906" lon="-6.9857964515686035">
        <ele>321.0</ele>
        <time>2019-04-24T12:55:24.000Z</time>
      </trkpt>
      <trkpt lat="42.41650390625" lon="-6.985861301422119">
        <ele>321.0</ele>
        <time>2019-04-24T12:55:28.000Z</time>
      </trkpt>
      <trkpt lat="42.41648864746094" lon="-6.985928535461426">
        <ele>321.0</ele>
        <time>2019-04-24T12:55:32.000Z</time>
      </trkpt>
      <trkpt lat="42.41646957397461" lon="-6.985994815826416">
        <ele>320.0</ele>
        <time>2019-04-24T12:55:36.000Z</time>
      </trkpt>
      <trkpt lat="42.416446685791016" lon="-6.986061096191406">
        <ele>320.0</ele>
        <time>2019-04-24T12:55:40.000Z</time>
      </trkpt>
      <trkpt lat="42.41642379760742" lon="-6.986126899719238">
        <ele>319.0</ele>
        <time>2019-04-24T12:55:44.000Z</time>
      </trkpt>
      <trkpt lat="42.41643524169922" lon="-6.986179351806641">
        <ele>318.0</ele>
        <time>2019-04-24T12:55:47.000Z</time>
      </trkpt>
      <trkpt lat="42.41645812988281" lon="-6.986226558685303">
        <ele>316.0</ele>
        <time>2019-04-24T12:55:50.000Z</time>
      </trkpt>
      <trkpt lat="42.41648864746094" lon="-6.986270427703857">
        <ele>314.0</ele>
        <time>2019-04-24T12:55:54.000Z</time>
      </trkpt>
      <trkpt lat="42.41652297973633" lon="-6.986311912536621">
        <ele>312.0</ele>
        <time>2019-04-24T12:55:57.000Z</time>
      </trkpt>
      <trkpt lat="42.416542053222656" lon="-6.986395359039307">
        <ele>308.0</ele>
        <time>2019-04-24T12:56:04.000Z</time>
      </trkpt>
      <trkpt lat="42.41656494140625" lon="-6.986494541168213">
        <ele>305.0</ele>
        <time>2019-04-24T12:56:11.000Z</time>
      </trkpt>
      <trkpt lat="42.416587829589844" lon="-6.9866042137146">
        <ele>301.0</ele>
        <time>2019-04-24T12:56:18.000Z</time>
      </trkpt>
      <trkpt lat="42.41661071777344" lon="-6.986719131469727">
        <ele>297.0</ele>
        <time>2019-04-24T12:56:25.000Z</time>
      </trkpt>
      <trkpt lat="42.416622161865234" lon="-6.986756801605225">
        <ele>294.0</ele>
        <time>2019-04-24T12:56:30.000Z</time>
      </trkpt>
      <trkpt lat="42.416629791259766" lon="-6.986767768859863">
        <ele>292.0</ele>
        <time>2019-04-24T12:56:35.000Z</time>
      </trkpt>
      <trkpt lat="42.41663360595703" lon="-6.986761093139648">
        <ele>291.0</ele>
        <time>2019-04-24T12:56:41.000Z</time>
      </trkpt>
      <trkpt lat="42.4166374206543" lon="-6.986745357513428">
        <ele>290.0</ele>
        <time>2019-04-24T12:56:46.000Z</time>
      </trkpt>
      <trkpt lat="42.41664123535156" lon="-6.986750602722168">
        <ele>289.0</ele>
        <time>2019-04-24T12:56:46.000Z</time>
      </trkpt>
      <trkpt lat="42.41664505004883" lon="-6.986755847930908">
        <ele>289.0</ele>
        <time>2019-04-24T12:56:46.000Z</time>
      </trkpt>
      <trkpt lat="42.41665267944336" lon="-6.986760139465332">
        <ele>289.0</ele>
        <time>2019-04-24T12:56:47.000Z</time>
      </trkpt>
      <trkpt lat="42.416656494140625" lon="-6.986764907836914">
        <ele>290.0</ele>
        <time>2019-04-24T12:56:47.000Z</time>
      </trkpt>
      <trkpt lat="42.41667556762695" lon="-6.98679780960083">
        <ele>289.0</ele>
        <time>2019-04-24T12:56:48.000Z</time>
      </trkpt>
      <trkpt lat="42.41669845581055" lon="-6.986842155456543">
        <ele>289.0</ele>
        <time>2019-04-24T12:56:49.000Z</time>
      </trkpt>
      <trkpt lat="42.41672897338867" lon="-6.986894607543945">
        <ele>289.0</ele>
        <time>2019-04-24T12:56:50.000Z</time>
      </trkpt>
      <trkpt lat="42.41675567626953" lon="-6.986950874328613">
        <ele>288.0</ele>
        <time>2019-04-24T12:56:51.000Z</time>
      </trkpt>
      <trkpt lat="42.41675567626953" lon="-6.986968994140625">
        <ele>288.0</ele>
        <time>2019-04-24T12:56:52.000Z</time>
      </trkpt>
      <trkpt lat="42.416744232177734" lon="-6.986974716186523">
        <ele>287.0</ele>
        <time>2019-04-24T12:56:53.000Z</time>
      </trkpt>
      <trkpt lat="42.416725158691406" lon="-6.986973285675049">
        <ele>287.0</ele>
        <time>2019-04-24T12:56:54.000Z</time>
      </trkpt>
      <trkpt lat="42.41670608520508" lon="-6.986967086791992">
        <ele>286.0</ele>
        <time>2019-04-24T12:56:55.000Z</time>
      </trkpt>
      <trkpt lat="42.41671371459961" lon="-6.986973762512207">
        <ele>286.0</ele>
        <time>2019-04-24T12:56:56.000Z</time>
      </trkpt>
      <trkpt lat="42.41673278808594" lon="-6.98698091506958">
        <ele>286.0</ele>
        <time>2019-04-24T12:56:57.000Z</time>
      </trkpt>
      <trkpt lat="42.41675567626953" lon="-6.986988544464111">
        <ele>285.0</ele>
        <time>2019-04-24T12:56:59.000Z</time>
      </trkpt>
      <trkpt lat="42.41678237915039" lon="-6.986996650695801">
        <ele>285.0</ele>
        <time>2019-04-24T12:57:00.000Z</time>
      </trkpt>
      <trkpt lat="42.416751861572266" lon="-6.98699426651001">
        <ele>285.0</ele>
        <time>2019-04-24T12:57:01.000Z</time>
      </trkpt>
      <trkpt lat="42.41670227050781" lon="-6.986987590789795">
        <ele>285.0</ele>
        <time>2019-04-24T12:57:03.000Z</time>
      </trkpt>
      <trkpt lat="42.41663360595703" lon="-6.986978530883789">
        <ele>285.0</ele>
        <time>2019-04-24T12:57:04.000Z</time>
      </trkpt>
      <trkpt lat="42.416561126708984" lon="-6.986968040466309">
        <ele>286.0</ele>
        <time>2019-04-24T12:57:06.000Z</time>
      </trkpt>
      <trkpt lat="42.41651153564453" lon="-6.986964702606201">
        <ele>286.0</ele>
        <time>2019-04-24T12:57:08.000Z</time>
      </trkpt>
      <trkpt lat="42.41646957397461" lon="-6.986963272094727">
        <ele>286.0</ele>
        <time>2019-04-24T12:57:10.000Z</time>
      </trkpt>
      <trkpt lat="42.41642761230469" lon="-6.986963272094727">
        <ele>287.0</ele>
        <time>2019-04-24T12:57:13.000Z</time>
      </trkpt>
      <trkpt lat="42.416385650634766" lon="-6.986963748931885">
        <ele>287.0</ele>
        <time>2019-04-24T12:57:15.000Z</time>
      </trkpt>
      <trkpt lat="42.41633987426758" lon="-6.986967086791992">
        <ele>288.0</ele>
        <time>2019-04-24T12:57:17.000Z</time>
      </trkpt>
      <trkpt lat="42.416297912597656" lon="-6.986972808837891">
        <ele>289.0</ele>
        <time>2019-04-24T12:57:18.000Z</time>
      </trkpt>
      <trkpt lat="42.416259765625" lon="-6.986979961395264">
        <ele>289.0</ele>
        <time>2019-04-24T12:57:20.000Z</time>
      </trkpt>
      <trkpt lat="42.41621780395508" lon="-6.986987590789795">
        <ele>290.0</ele>
        <time>2019-04-24T12:57:22.000Z</time>
      </trkpt>
      <trkpt lat="42.41617202758789" lon="-6.986994743347168">
        <ele>292.0</ele>
        <time>2019-04-24T12:57:25.000Z</time>
      </trkpt>
      <trkpt lat="42.4161262512207" lon="-6.987003326416016">
        <ele>294.0</ele>
        <time>2019-04-24T12:57:27.000Z</time>
      </trkpt>
      <trkpt lat="42.41607666015625" lon="-6.987011909484863">
        <ele>296.0</ele>
        <time>2019-04-24T12:57:30.000Z</time>
      </trkpt>
      <trkpt lat="42.41603088378906" lon="-6.987020492553711">
        <ele>298.0</ele>
        <time>2019-04-24T12:57:33.000Z</time>
      </trkpt>
      <trkpt lat="42.4160041809082" lon="-6.9870195388793945">
        <ele>299.0</ele>
        <time>2019-04-24T12:57:34.000Z</time>
      </trkpt>
      <trkpt lat="42.415985107421875" lon="-6.9870147705078125">
        <ele>300.0</ele>
        <time>2019-04-24T12:57:36.000Z</time>
      </trkpt>
      <trkpt lat="42.41597366333008" lon="-6.987007141113281">
        <ele>301.0</ele>
        <time>2019-04-24T12:57:37.000Z</time>
      </trkpt>
      <trkpt lat="42.41596603393555" lon="-6.986998558044434">
        <ele>301.0</ele>
        <time>2019-04-24T12:57:38.000Z</time>
      </trkpt>
      <trkpt lat="42.41596984863281" lon="-6.987009525299072">
        <ele>302.0</ele>
        <time>2019-04-24T12:57:41.000Z</time>
      </trkpt>
      <trkpt lat="42.41598129272461" lon="-6.987027645111084">
        <ele>303.0</ele>
        <time>2019-04-24T12:57:44.000Z</time>
      </trkpt>
      <trkpt lat="42.41599655151367" lon="-6.9870500564575195">
        <ele>304.0</ele>
        <time>2019-04-24T12:57:47.000Z</time>
      </trkpt>
      <trkpt lat="42.416015625" lon="-6.987074851989746">
        <ele>305.0</ele>
        <time>2019-04-24T12:57:50.000Z</time>
      </trkpt>
      <trkpt lat="42.41603469848633" lon="-6.987105846405029">
        <ele>306.0</ele>
        <time>2019-04-24T12:57:57.000Z</time>
      </trkpt>
      <trkpt lat="42.41608810424805" lon="-6.987218856811523">
        <ele>308.0</ele>
        <time>2019-04-24T12:58:14.000Z</time>
      </trkpt>
      <trkpt lat="42.416080474853516" lon="-6.987201690673828">
        <ele>308.0</ele>
        <time>2019-04-24T12:58:10.000Z</time>
      </trkpt>
      <trkpt lat="42.41606521606445" lon="-6.987174034118652">
        <ele>307.0</ele>
        <time>2019-04-24T12:58:07.000Z</time>
      </trkpt>
      <trkpt lat="42.41606521606445" lon="-6.987174034118652">
        <ele>307.0</ele>
        <time>2019-04-24T12:58:18.000Z</time>
      </trkpt>
      <trkpt lat="42.41694259643555" lon="-6.986321449279785">
        <ele>214.0</ele>
        <time>2019-04-25T07:08:11.000Z</time>
      </trkpt>
      <trkpt lat="42.41657257080078" lon="-6.98681116104126">
        <ele>350.0</ele>
        <time>2019-04-25T07:08:24.000Z</time>
      </trkpt>
      <trkpt lat="42.41648864746094" lon="-6.987028121948242">
        <ele>373.0</ele>
        <time>2019-04-25T07:08:39.000Z</time>
      </trkpt>
      <trkpt lat="42.41644287109375" lon="-6.987053394317627">
        <ele>375.0</ele>
        <time>2019-04-25T07:08:41.000Z</time>
      </trkpt>
      <trkpt lat="42.41638946533203" lon="-6.98706579208374">
        <ele>376.0</ele>
        <time>2019-04-25T07:08:43.000Z</time>
      </trkpt>
      <trkpt lat="42.416324615478516" lon="-6.987070560455322">
        <ele>375.0</ele>
        <time>2019-04-25T07:08:45.000Z</time>
      </trkpt>
      <trkpt lat="42.416259765625" lon="-6.9870710372924805">
        <ele>375.0</ele>
        <time>2019-04-25T07:08:47.000Z</time>
      </trkpt>
      <trkpt lat="42.41618347167969" lon="-6.987081050872803">
        <ele>374.0</ele>
        <time>2019-04-25T07:08:55.000Z</time>
      </trkpt>
      <trkpt lat="42.41609573364258" lon="-6.987091064453125">
        <ele>374.0</ele>
        <time>2019-04-25T07:09:03.000Z</time>
      </trkpt>
      <trkpt lat="42.4160041809082" lon="-6.987101078033447">
        <ele>373.0</ele>
        <time>2019-04-25T07:09:11.000Z</time>
      </trkpt>
      <trkpt lat="42.41591262817383" lon="-6.987110614776611">
        <ele>373.0</ele>
        <time>2019-04-25T07:09:20.000Z</time>
      </trkpt>
      <trkpt lat="42.41587829589844" lon="-6.987113952636719">
        <ele>372.0</ele>
        <time>2019-04-25T07:09:20.000Z</time>
      </trkpt>
      <trkpt lat="42.415870666503906" lon="-6.987114906311035">
        <ele>372.0</ele>
        <time>2019-04-25T07:09:21.000Z</time>
      </trkpt>
      <trkpt lat="42.41587829589844" lon="-6.987113952636719">
        <ele>372.0</ele>
        <time>2019-04-25T07:09:22.000Z</time>
      </trkpt>
      <trkpt lat="42.4158935546875" lon="-6.987112045288086">
        <ele>372.0</ele>
        <time>2019-04-25T07:09:23.000Z</time>
      </trkpt>
      <trkpt lat="42.415889739990234" lon="-6.987112998962402">
        <ele>372.0</ele>
        <time>2019-04-25T07:09:27.000Z</time>
      </trkpt>
      <trkpt lat="42.4158821105957" lon="-6.987114429473877">
        <ele>371.0</ele>
        <time>2019-04-25T07:09:31.000Z</time>
      </trkpt>
      <trkpt lat="42.41587448120117" lon="-6.987115859985352">
        <ele>371.0</ele>
        <time>2019-04-25T07:09:35.000Z</time>
      </trkpt>
      <trkpt lat="42.415870666503906" lon="-6.987117767333984">
        <ele>370.0</ele>
        <time>2019-04-25T07:09:39.000Z</time>
      </trkpt>
      <trkpt lat="42.415863037109375" lon="-6.987118721008301">
        <ele>370.0</ele>
        <time>2019-04-25T07:09:39.000Z</time>
      </trkpt>
      <trkpt lat="42.41585922241211" lon="-6.987120151519775">
        <ele>370.0</ele>
        <time>2019-04-25T07:09:39.000Z</time>
      </trkpt>
      <trkpt lat="42.415855407714844" lon="-6.987121105194092">
        <ele>370.0</ele>
        <time>2019-04-25T07:09:39.000Z</time>
      </trkpt>
      <trkpt lat="42.41585159301758" lon="-6.987122058868408">
        <ele>370.0</ele>
        <time>2019-04-25T07:09:40.000Z</time>
      </trkpt>
      <trkpt lat="42.41579055786133" lon="-6.98712682723999">
        <ele>371.0</ele>
        <time>2019-04-25T07:09:44.000Z</time>
      </trkpt>
      <trkpt lat="42.415706634521484" lon="-6.987133502960205">
        <ele>372.0</ele>
        <time>2019-04-25T07:09:49.000Z</time>
      </trkpt>
      <trkpt lat="42.41560745239258" lon="-6.987141132354736">
        <ele>373.0</ele>
        <time>2019-04-25T07:09:53.000Z</time>
      </trkpt>
      <trkpt lat="42.415496826171875" lon="-6.987149715423584">
        <ele>374.0</ele>
        <time>2019-04-25T07:09:58.000Z</time>
      </trkpt>
      <trkpt lat="42.41542434692383" lon="-6.987192630767822">
        <ele>375.0</ele>
        <time>2019-04-25T07:10:01.000Z</time>
      </trkpt>
      <trkpt lat="42.41539764404297" lon="-6.98724889755249">
        <ele>375.0</ele>
        <time>2019-04-25T07:10:05.000Z</time>
      </trkpt>
      <trkpt lat="42.41529846191406" lon="-6.987272262573242">
        <ele>373.0</ele>
        <time>2019-04-25T07:10:17.000Z</time>
      </trkpt>
      <trkpt lat="42.4151725769043" lon="-6.987282752990723">
        <ele>369.0</ele>
        <time>2019-04-25T07:10:29.000Z</time>
      </trkpt>
      <trkpt lat="42.4151611328125" lon="-6.987315654754639">
        <ele>367.0</ele>
        <time>2019-04-25T07:10:31.000Z</time>
      </trkpt>
      <trkpt lat="42.41516876220703" lon="-6.987358570098877">
        <ele>364.0</ele>
        <time>2019-04-25T07:10:33.000Z</time>
      </trkpt>
      <trkpt lat="42.41518783569336" lon="-6.98740816116333">
        <ele>362.0</ele>
        <time>2019-04-25T07:10:35.000Z</time>
      </trkpt>
      <trkpt lat="42.41521453857422" lon="-6.987461566925049">
        <ele>359.0</ele>
        <time>2019-04-25T07:10:38.000Z</time>
      </trkpt>
      <trkpt lat="42.41520309448242" lon="-6.987464904785156">
        <ele>358.0</ele>
        <time>2019-04-25T07:10:41.000Z</time>
      </trkpt>
      <trkpt lat="42.415184020996094" lon="-6.987451553344727">
        <ele>357.0</ele>
        <time>2019-04-25T07:10:44.000Z</time>
      </trkpt>
      <trkpt lat="42.4151611328125" lon="-6.987426280975342">
        <ele>356.0</ele>
        <time>2019-04-25T07:10:47.000Z</time>
      </trkpt>
      <trkpt lat="42.415130615234375" lon="-6.987395286560059">
        <ele>356.0</ele>
        <time>2019-04-25T07:10:50.000Z</time>
      </trkpt>
      <trkpt lat="42.41510009765625" lon="-6.987438201904297">
        <ele>356.0</ele>
        <time>2019-04-25T07:10:55.000Z</time>
      </trkpt>
      <trkpt lat="42.41505813598633" lon="-6.98750638961792">
        <ele>356.0</ele>
        <time>2019-04-25T07:11:01.000Z</time>
      </trkpt>
      <trkpt lat="42.415016174316406" lon="-6.987590789794922">
        <ele>356.0</ele>
        <time>2019-04-25T07:11:06.000Z</time>
      </trkpt>
      <trkpt lat="42.414974212646484" lon="-6.9876837730407715">
        <ele>356.0</ele>
        <time>2019-04-25T07:11:12.000Z</time>
      </trkpt>
      <trkpt lat="42.414947509765625" lon="-6.987764358520508">
        <ele>356.0</ele>
        <time>2019-04-25T07:11:18.000Z</time>
      </trkpt>
      <trkpt lat="42.41493225097656" lon="-6.98784875869751">
        <ele>356.0</ele>
        <time>2019-04-25T07:11:25.000Z</time>
      </trkpt>
      <trkpt lat="42.4149169921875" lon="-6.987935543060303">
        <ele>356.0</ele>
        <time>2019-04-25T07:11:32.000Z</time>
      </trkpt>
      <trkpt lat="42.4149055480957" lon="-6.988023281097412">
        <ele>355.0</ele>
        <time>2019-04-25T07:11:39.000Z</time>
      </trkpt>
      <trkpt lat="42.41490936279297" lon="-6.988062381744385">
        <ele>355.0</ele>
        <time>2019-04-25T07:11:41.000Z</time>
      </trkpt>
      <trkpt lat="42.4149169921875" lon="-6.988081932067871">
        <ele>354.0</ele>
        <time>2019-04-25T07:11:44.000Z</time>
      </trkpt>
      <trkpt lat="42.41493225097656" lon="-6.988089084625244">
        <ele>353.0</ele>
        <time>2019-04-25T07:11:46.000Z</time>
      </trkpt>
      <trkpt lat="42.414947509765625" lon="-6.988089561462402">
        <ele>352.0</ele>
        <time>2019-04-25T07:11:49.000Z</time>
      </trkpt>
      <trkpt lat="42.414955139160156" lon="-6.988101005554199">
        <ele>352.0</ele>
        <time>2019-04-25T07:11:49.000Z</time>
      </trkpt>
      <trkpt lat="42.41495895385742" lon="-6.988110065460205">
        <ele>352.0</ele>
        <time>2019-04-25T07:11:49.000Z</time>
      </trkpt>
      <trkpt lat="42.41496658325195" lon="-6.988117218017578">
        <ele>352.0</ele>
        <time>2019-04-25T07:11:49.000Z</time>
      </trkpt>
      <trkpt lat="42.41497039794922" lon="-6.988123893737793">
        <ele>352.0</ele>
        <time>2019-04-25T07:11:50.000Z</time>
      </trkpt>
      <trkpt lat="42.41499328613281" lon="-6.988168716430664">
        <ele>351.0</ele>
        <time>2019-04-25T07:11:53.000Z</time>
      </trkpt>
      <trkpt lat="42.4150276184082" lon="-6.988228797912598">
        <ele>348.0</ele>
        <time>2019-04-25T07:11:56.000Z</time>
      </trkpt>
      <trkpt lat="42.41506576538086" lon="-6.988298416137695">
        <ele>346.0</ele>
        <time>2019-04-25T07:11:59.000Z</time>
      </trkpt>
      <trkpt lat="42.41510772705078" lon="-6.988373756408691">
        <ele>343.0</ele>
        <time>2019-04-25T07:12:01.000Z</time>
      </trkpt>
      <trkpt lat="42.41511535644531" lon="-6.988409519195557">
        <ele>339.0</ele>
        <time>2019-04-25T07:12:09.000Z</time>
      </trkpt>
      <trkpt lat="42.41510009765625" lon="-6.988403797149658">
        <ele>336.0</ele>
        <time>2019-04-25T07:12:16.000Z</time>
      </trkpt>
      <trkpt lat="42.41510009765625" lon="-6.988410472869873">
        <ele>335.0</ele>
        <time>2019-04-25T07:12:16.000Z</time>
      </trkpt>
      <trkpt lat="42.415096282958984" lon="-6.98841667175293">
        <ele>335.0</ele>
        <time>2019-04-25T07:12:16.000Z</time>
      </trkpt>
      <trkpt lat="42.415096282958984" lon="-6.988422393798828">
        <ele>335.0</ele>
        <time>2019-04-25T07:12:16.000Z</time>
      </trkpt>
      <trkpt lat="42.415096282958984" lon="-6.988427639007568">
        <ele>336.0</ele>
        <time>2019-04-25T07:12:17.000Z</time>
      </trkpt>
      <trkpt lat="42.41508102416992" lon="-6.9884843826293945">
        <ele>335.0</ele>
        <time>2019-04-25T07:12:20.000Z</time>
      </trkpt>
      <trkpt lat="42.41506576538086" lon="-6.988562107086182">
        <ele>335.0</ele>
        <time>2019-04-25T07:12:23.000Z</time>
      </trkpt>
      <trkpt lat="42.415042877197266" lon="-6.988653659820557">
        <ele>334.0</ele>
        <time>2019-04-25T07:12:26.000Z</time>
      </trkpt>
      <trkpt lat="42.41501998901367" lon="-6.988752365112305">
        <ele>333.0</ele>
        <time>2019-04-25T07:12:29.000Z</time>
      </trkpt>
      <trkpt lat="42.41498947143555" lon="-6.988783836364746">
        <ele>333.0</ele>
        <time>2019-04-25T07:12:31.000Z</time>
      </trkpt>
      <trkpt lat="42.414955139160156" lon="-6.988793849945068">
        <ele>333.0</ele>
        <time>2019-04-25T07:12:34.000Z</time>
      </trkpt>
      <trkpt lat="42.4149169921875" lon="-6.988790512084961">
        <ele>333.0</ele>
        <time>2019-04-25T07:12:37.000Z</time>
      </trkpt>
      <trkpt lat="42.414878845214844" lon="-6.988779544830322">
        <ele>333.0</ele>
        <time>2019-04-25T07:12:40.000Z</time>
      </trkpt>
      <trkpt lat="42.41486740112305" lon="-6.988861083984375">
        <ele>332.0</ele>
        <time>2019-04-25T07:12:46.000Z</time>
      </trkpt>
      <trkpt lat="42.41486358642578" lon="-6.988973617553711">
        <ele>330.0</ele>
        <time>2019-04-25T07:12:53.000Z</time>
      </trkpt>
      <trkpt lat="42.41486740112305" lon="-6.98910665512085">
        <ele>328.0</ele>
        <time>2019-04-25T07:12:59.000Z</time>
      </trkpt>
      <trkpt lat="42.41487503051758" lon="-6.989250183105469">
        <ele>326.0</ele>
        <time>2019-04-25T07:13:06.000Z</time>
      </trkpt>
      <trkpt lat="42.41487121582031" lon="-6.989367961883545">
        <ele>325.0</ele>
        <time>2019-04-25T07:13:12.000Z</time>
      </trkpt>
      <trkpt lat="42.41487121582031" lon="-6.989485740661621">
        <ele>324.0</ele>
        <time>2019-04-25T07:13:19.000Z</time>
      </trkpt>
      <trkpt lat="42.41486740112305" lon="-6.9896039962768555">
        <ele>324.0</ele>
        <time>2019-04-25T07:13:25.000Z</time>
      </trkpt>
      <trkpt lat="42.41486358642578" lon="-6.989721775054932">
        <ele>323.0</ele>
        <time>2019-04-25T07:13:32.000Z</time>
      </trkpt>
      <trkpt lat="42.4148063659668" lon="-6.989873886108398">
        <ele>323.0</ele>
        <time>2019-04-25T07:13:44.000Z</time>
      </trkpt>
      <trkpt lat="42.41472625732422" lon="-6.989987373352051">
        <ele>322.0</ele>
        <time>2019-04-25T07:13:57.000Z</time>
      </trkpt>
      <trkpt lat="42.414710998535156" lon="-6.990033149719238">
        <ele>322.0</ele>
        <time>2019-04-25T07:14:01.000Z</time>
      </trkpt>
      <trkpt lat="42.414703369140625" lon="-6.990070343017578">
        <ele>322.0</ele>
        <time>2019-04-25T07:14:06.000Z</time>
      </trkpt>
      <trkpt lat="42.414703369140625" lon="-6.9901018142700195">
        <ele>322.0</ele>
        <time>2019-04-25T07:14:10.000Z</time>
      </trkpt>
      <trkpt lat="42.41469955444336" lon="-6.990130424499512">
        <ele>322.0</ele>
        <time>2019-04-25T07:14:15.000Z</time>
      </trkpt>
      <trkpt lat="42.414695739746094" lon="-6.990151405334473">
        <ele>321.0</ele>
        <time>2019-04-25T07:14:15.000Z</time>
      </trkpt>
      <trkpt lat="42.414695739746094" lon="-6.990166187286377">
        <ele>321.0</ele>
        <time>2019-04-25T07:14:15.000Z</time>
      </trkpt>
      <trkpt lat="42.41469192504883" lon="-6.990177154541016">
        <ele>321.0</ele>
        <time>2019-04-25T07:14:15.000Z</time>
      </trkpt>
      <trkpt lat="42.41469192504883" lon="-6.990185737609863">
        <ele>322.0</ele>
        <time>2019-04-25T07:14:16.000Z</time>
      </trkpt>
      <trkpt lat="42.41468048095703" lon="-6.990219593048096">
        <ele>321.0</ele>
        <time>2019-04-25T07:14:17.000Z</time>
      </trkpt>
      <trkpt lat="42.414669036865234" lon="-6.990262031555176">
        <ele>321.0</ele>
        <time>2019-04-25T07:14:19.000Z</time>
      </trkpt>
      <trkpt lat="42.41465377807617" lon="-6.990310192108154">
        <ele>321.0</ele>
        <time>2019-04-25T07:14:20.000Z</time>
      </trkpt>
      <trkpt lat="42.414634704589844" lon="-6.990360736846924">
        <ele>321.0</ele>
        <time>2019-04-25T07:14:22.000Z</time>
      </trkpt>
      <trkpt lat="42.41463851928711" lon="-6.9904069900512695">
        <ele>321.0</ele>
        <time>2019-04-25T07:14:24.000Z</time>
      </trkpt>
      <trkpt lat="42.41464614868164" lon="-6.990453720092773">
        <ele>321.0</ele>
        <time>2019-04-25T07:14:27.000Z</time>
      </trkpt>
      <trkpt lat="42.41465759277344" lon="-6.990501403808594">
        <ele>321.0</ele>
        <time>2019-04-25T07:14:30.000Z</time>
      </trkpt>
      <trkpt lat="42.4146728515625" lon="-6.990549564361572">
        <ele>321.0</ele>
        <time>2019-04-25T07:14:33.000Z</time>
      </trkpt>
      <trkpt lat="42.41466522216797" lon="-6.990603446960449">
        <ele>320.0</ele>
        <time>2019-04-25T07:14:35.000Z</time>
      </trkpt>
      <trkpt lat="42.41464614868164" lon="-6.990638732910156">
        <ele>320.0</ele>
        <time>2019-04-25T07:14:37.000Z</time>
      </trkpt>
      <trkpt lat="42.41463088989258" lon="-6.990647315979004">
        <ele>320.0</ele>
        <time>2019-04-25T07:14:37.000Z</time>
      </trkpt>
      <trkpt lat="42.41461181640625" lon="-6.990650653839111">
        <ele>320.0</ele>
        <time>2019-04-25T07:14:38.000Z</time>
      </trkpt>
      <trkpt lat="42.414588928222656" lon="-6.990650177001953">
        <ele>320.0</ele>
        <time>2019-04-25T07:14:39.000Z</time>
      </trkpt>
      <trkpt lat="42.41456604003906" lon="-6.990647792816162">
        <ele>320.0</ele>
        <time>2019-04-25T07:14:40.000Z</time>
      </trkpt>
      <trkpt lat="42.414546966552734" lon="-6.990655899047852">
        <ele>320.0</ele>
        <time>2019-04-25T07:14:41.000Z</time>
      </trkpt>
      <trkpt lat="42.414527893066406" lon="-6.990665912628174">
        <ele>320.0</ele>
        <time>2019-04-25T07:14:42.000Z</time>
      </trkpt>
      <trkpt lat="42.41450881958008" lon="-6.990677833557129">
        <ele>320.0</ele>
        <time>2019-04-25T07:14:43.000Z</time>
      </trkpt>
      <trkpt lat="42.41448974609375" lon="-6.990690231323242">
        <ele>320.0</ele>
        <time>2019-04-25T07:14:44.000Z</time>
      </trkpt>
      <trkpt lat="42.41448211669922" lon="-6.990722179412842">
        <ele>319.0</ele>
        <time>2019-04-25T07:14:46.000Z</time>
      </trkpt>
      <trkpt lat="42.41447830200195" lon="-6.990763187408447">
        <ele>319.0</ele>
        <time>2019-04-25T07:14:48.000Z</time>
      </trkpt>
      <trkpt lat="42.41447830200195" lon="-6.990809917449951">
        <ele>319.0</ele>
        <time>2019-04-25T07:14:50.000Z</time>
      </trkpt>
      <trkpt lat="42.41447830200195" lon="-6.9908599853515625">
        <ele>319.0</ele>
        <time>2019-04-25T07:14:53.000Z</time>
      </trkpt>
      <trkpt lat="42.41448974609375" lon="-6.990925312042236">
        <ele>318.0</ele>
        <time>2019-04-25T07:14:58.000Z</time>
      </trkpt>
      <trkpt lat="42.41450881958008" lon="-6.991001129150391">
        <ele>317.0</ele>
        <time>2019-04-25T07:15:03.000Z</time>
      </trkpt>
      <trkpt lat="42.41453170776367" lon="-6.991082668304443">
        <ele>316.0</ele>
        <time>2019-04-25T07:15:08.000Z</time>
      </trkpt>
      <trkpt lat="42.41455841064453" lon="-6.991168022155762">
        <ele>316.0</ele>
        <time>2019-04-25T07:15:14.000Z</time>
      </trkpt>
      <trkpt lat="42.41454315185547" lon="-6.991241931915283">
        <ele>315.0</ele>
        <time>2019-04-25T07:15:18.000Z</time>
      </trkpt>
      <trkpt lat="42.414512634277344" lon="-6.99131441116333">
        <ele>315.0</ele>
        <time>2019-04-25T07:15:22.000Z</time>
      </trkpt>
      <trkpt lat="42.41447067260742" lon="-6.991386413574219">
        <ele>315.0</ele>
        <time>2019-04-25T07:15:26.000Z</time>
      </trkpt>
      <trkpt lat="42.4144287109375" lon="-6.991457462310791">
        <ele>315.0</ele>
        <time>2019-04-25T07:15:31.000Z</time>
      </trkpt>
      <trkpt lat="42.414432525634766" lon="-6.991511344909668">
        <ele>315.0</ele>
        <time>2019-04-25T07:15:33.000Z</time>
      </trkpt>
      <trkpt lat="42.414451599121094" lon="-6.9915571212768555">
        <ele>315.0</ele>
        <time>2019-04-25T07:15:36.000Z</time>
      </trkpt>
      <trkpt lat="42.414485931396484" lon="-6.991598129272461">
        <ele>315.0</ele>
        <time>2019-04-25T07:15:39.000Z</time>
      </trkpt>
      <trkpt lat="42.414520263671875" lon="-6.991636276245117">
        <ele>315.0</ele>
        <time>2019-04-25T07:15:42.000Z</time>
      </trkpt>
      <trkpt lat="42.41449737548828" lon="-6.991671562194824">
        <ele>315.0</ele>
        <time>2019-04-25T07:15:47.000Z</time>
      </trkpt>
      <trkpt lat="42.414451599121094" lon="-6.991703033447266">
        <ele>315.0</ele>
        <time>2019-04-25T07:15:52.000Z</time>
      </trkpt>
      <trkpt lat="42.41439437866211" lon="-6.991731643676758">
        <ele>315.0</ele>
        <time>2019-04-25T07:15:57.000Z</time>
      </trkpt>
      <trkpt lat="42.414329528808594" lon="-6.991758823394775">
        <ele>315.0</ele>
        <time>2019-04-25T07:16:03.000Z</time>
      </trkpt>
      <trkpt lat="42.414310455322266" lon="-6.991812229156494">
        <ele>314.0</ele>
        <time>2019-04-25T07:16:07.000Z</time>
      </trkpt>
      <trkpt lat="42.414302825927734" lon="-6.991875171661377">
        <ele>314.0</ele>
        <time>2019-04-25T07:16:11.000Z</time>
      </trkpt>
      <trkpt lat="42.41429901123047" lon="-6.991944313049316">
        <ele>314.0</ele>
        <time>2019-04-25T07:16:15.000Z</time>
      </trkpt>
      <trkpt lat="42.414302825927734" lon="-6.992016315460205">
        <ele>314.0</ele>
        <time>2019-04-25T07:16:19.000Z</time>
      </trkpt>
      <trkpt lat="42.41427993774414" lon="-6.99209451675415">
        <ele>314.0</ele>
        <time>2019-04-25T07:16:23.000Z</time>
      </trkpt>
      <trkpt lat="42.414249420166016" lon="-6.992177486419678">
        <ele>315.0</ele>
        <time>2019-04-25T07:16:28.000Z</time>
      </trkpt>
      <trkpt lat="42.41421127319336" lon="-6.992264747619629">
        <ele>315.0</ele>
        <time>2019-04-25T07:16:32.000Z</time>
      </trkpt>
      <trkpt lat="42.4141731262207" lon="-6.992353916168213">
        <ele>316.0</ele>
        <time>2019-04-25T07:16:37.000Z</time>
      </trkpt>
      <trkpt lat="42.4141731262207" lon="-6.992403984069824">
        <ele>316.0</ele>
        <time>2019-04-25T07:16:39.000Z</time>
      </trkpt>
      <trkpt lat="42.414180755615234" lon="-6.9924397468566895">
        <ele>316.0</ele>
        <time>2019-04-25T07:16:41.000Z</time>
      </trkpt>
      <trkpt lat="42.41419982910156" lon="-6.992465972900391">
        <ele>315.0</ele>
        <time>2019-04-25T07:16:43.000Z</time>
      </trkpt>
      <trkpt lat="42.414222717285156" lon="-6.99248743057251">
        <ele>315.0</ele>
        <time>2019-04-25T07:16:46.000Z</time>
      </trkpt>
      <trkpt lat="42.414207458496094" lon="-6.992573261260986">
        <ele>315.0</ele>
        <time>2019-04-25T07:16:52.000Z</time>
      </trkpt>
      <trkpt lat="42.414180755615234" lon="-6.992681503295898">
        <ele>315.0</ele>
        <time>2019-04-25T07:16:59.000Z</time>
      </trkpt>
      <trkpt lat="42.41414260864258" lon="-6.992804050445557">
        <ele>315.0</ele>
        <time>2019-04-25T07:17:06.000Z</time>
      </trkpt>
      <trkpt lat="42.41410446166992" lon="-6.992934226989746">
        <ele>316.0</ele>
        <time>2019-04-25T07:17:13.000Z</time>
      </trkpt>
      <trkpt lat="42.41407012939453" lon="-6.993037700653076">
        <ele>316.0</ele>
        <time>2019-04-25T07:17:20.000Z</time>
      </trkpt>
      <trkpt lat="42.41403579711914" lon="-6.993137359619141">
        <ele>316.0</ele>
        <time>2019-04-25T07:17:28.000Z</time>
      </trkpt>
      <trkpt lat="42.413997650146484" lon="-6.993234634399414">
        <ele>316.0</ele>
        <time>2019-04-25T07:17:35.000Z</time>
      </trkpt>
      <trkpt lat="42.41395950317383" lon="-6.993330955505371">
        <ele>316.0</ele>
        <time>2019-04-25T07:17:43.000Z</time>
      </trkpt>
      <trkpt lat="42.41392135620117" lon="-6.993399620056152">
        <ele>317.0</ele>
        <time>2019-04-25T07:17:48.000Z</time>
      </trkpt>
      <trkpt lat="42.41388702392578" lon="-6.993454933166504">
        <ele>318.0</ele>
        <time>2019-04-25T07:17:53.000Z</time>
      </trkpt>
      <trkpt lat="42.413848876953125" lon="-6.993502140045166">
        <ele>319.0</ele>
        <time>2019-04-25T07:17:58.000Z</time>
      </trkpt>
      <trkpt lat="42.41381072998047" lon="-6.993545055389404">
        <ele>320.0</ele>
        <time>2019-04-25T07:18:04.000Z</time>
      </trkpt>
      <trkpt lat="42.413787841796875" lon="-6.9936089515686035">
        <ele>321.0</ele>
        <time>2019-04-25T07:18:11.000Z</time>
      </trkpt>
      <trkpt lat="42.413787841796875" lon="-6.993653297424316">
        <ele>321.0</ele>
        <time>2019-04-25T07:18:19.000Z</time>
      </trkpt>
      <trkpt lat="42.41378402709961" lon="-6.993670463562012">
        <ele>321.0</ele>
        <time>2019-04-25T07:18:19.000Z</time>
      </trkpt>
      <trkpt lat="42.413780212402344" lon="-6.993683338165283">
        <ele>321.0</ele>
        <time>2019-04-25T07:18:19.000Z</time>
      </trkpt>
      <trkpt lat="42.41377639770508" lon="-6.9936933517456055">
        <ele>321.0</ele>
        <time>2019-04-25T07:18:19.000Z</time>
      </trkpt>
      <trkpt lat="42.41377639770508" lon="-6.993701934814453">
        <ele>321.0</ele>
        <time>2019-04-25T07:18:20.000Z</time>
      </trkpt>
      <trkpt lat="42.41376876831055" lon="-6.993744850158691">
        <ele>321.0</ele>
        <time>2019-04-25T07:18:22.000Z</time>
      </trkpt>
      <trkpt lat="42.413761138916016" lon="-6.993800163269043">
        <ele>321.0</ele>
        <time>2019-04-25T07:18:24.000Z</time>
      </trkpt>
      <trkpt lat="42.413753509521484" lon="-6.993864059448242">
        <ele>321.0</ele>
        <time>2019-04-25T07:18:26.000Z</time>
      </trkpt>
      <trkpt lat="42.41374588012695" lon="-6.993932723999023">
        <ele>321.0</ele>
        <time>2019-04-25T07:18:27.000Z</time>
      </trkpt>
      <trkpt lat="42.41373825073242" lon="-6.993996620178223">
        <ele>322.0</ele>
        <time>2019-04-25T07:18:31.000Z</time>
      </trkpt>
      <trkpt lat="42.41373062133789" lon="-6.994063377380371">
        <ele>323.0</ele>
        <time>2019-04-25T07:18:35.000Z</time>
      </trkpt>
      <trkpt lat="42.413726806640625" lon="-6.994132041931152">
        <ele>324.0</ele>
        <time>2019-04-25T07:18:39.000Z</time>
      </trkpt>
      <trkpt lat="42.413719177246094" lon="-6.994201183319092">
        <ele>325.0</ele>
        <time>2019-04-25T07:18:43.000Z</time>
      </trkpt>
      <trkpt lat="42.41371536254883" lon="-6.994253635406494">
        <ele>325.0</ele>
        <time>2019-04-25T07:18:46.000Z</time>
      </trkpt>
      <trkpt lat="42.41371154785156" lon="-6.994299411773682">
        <ele>325.0</ele>
        <time>2019-04-25T07:18:50.000Z</time>
      </trkpt>
      <trkpt lat="42.4137077331543" lon="-6.9943413734436035">
        <ele>325.0</ele>
        <time>2019-04-25T07:18:53.000Z</time>
      </trkpt>
      <trkpt lat="42.4137077331543" lon="-6.994380950927734">
        <ele>324.0</ele>
        <time>2019-04-25T07:18:57.000Z</time>
      </trkpt>
      <trkpt lat="42.41370391845703" lon="-6.9944024085998535">
        <ele>324.0</ele>
        <time>2019-04-25T07:19:03.000Z</time>
      </trkpt>
      <trkpt lat="42.41370391845703" lon="-6.99441385269165">
        <ele>324.0</ele>
        <time>2019-04-25T07:19:08.000Z</time>
      </trkpt>
      <trkpt lat="42.413700103759766" lon="-6.994418621063232">
        <ele>323.0</ele>
        <time>2019-04-25T07:19:14.000Z</time>
      </trkpt>
      <trkpt lat="42.4136962890625" lon="-6.994420528411865">
        <ele>323.0</ele>
        <time>2019-04-25T07:19:20.000Z</time>
      </trkpt>
      <trkpt lat="42.41368865966797" lon="-6.994449615478516">
        <ele>323.0</ele>
        <time>2019-04-25T07:19:21.000Z</time>
      </trkpt>
      <trkpt lat="42.41359329223633" lon="-6.994908332824707">
        <ele>320.0</ele>
        <time>2019-04-25T07:19:42.000Z</time>
      </trkpt>
      <trkpt lat="42.41350555419922" lon="-6.99507474899292">
        <ele>322.0</ele>
        <time>2019-04-25T07:19:56.000Z</time>
      </trkpt>
      <trkpt lat="42.413509368896484" lon="-6.995091438293457">
        <ele>322.0</ele>
        <time>2019-04-25T07:19:59.000Z</time>
      </trkpt>
      <trkpt lat="42.41352462768555" lon="-6.99509859085083">
        <ele>322.0</ele>
        <time>2019-04-25T07:20:02.000Z</time>
      </trkpt>
      <trkpt lat="42.41354751586914" lon="-6.995098114013672">
        <ele>322.0</ele>
        <time>2019-04-25T07:20:05.000Z</time>
      </trkpt>
      <trkpt lat="42.41357421875" lon="-6.9950947761535645">
        <ele>322.0</ele>
        <time>2019-04-25T07:20:08.000Z</time>
      </trkpt>
      <trkpt lat="42.41360092163086" lon="-6.995068550109863">
        <ele>323.0</ele>
        <time>2019-04-25T07:20:12.000Z</time>
      </trkpt>
      <trkpt lat="42.41363525390625" lon="-6.995029449462891">
        <ele>323.0</ele>
        <time>2019-04-25T07:20:15.000Z</time>
      </trkpt>
      <trkpt lat="42.41366958618164" lon="-6.99498176574707">
        <ele>323.0</ele>
        <time>2019-04-25T07:20:19.000Z</time>
      </trkpt>
      <trkpt lat="42.4137077331543" lon="-6.994929313659668">
        <ele>323.0</ele>
        <time>2019-04-25T07:20:22.000Z</time>
      </trkpt>
      <trkpt lat="42.4137077331543" lon="-6.994919300079346">
        <ele>323.0</ele>
        <time>2019-04-25T07:20:26.000Z</time>
      </trkpt>
      <trkpt lat="42.413692474365234" lon="-6.994922161102295">
        <ele>323.0</ele>
        <time>2019-04-25T07:20:29.000Z</time>
      </trkpt>
      <trkpt lat="42.413665771484375" lon="-6.99493408203125">
        <ele>323.0</ele>
        <time>2019-04-25T07:20:32.000Z</time>
      </trkpt>
      <trkpt lat="42.41363525390625" lon="-6.994950294494629">
        <ele>323.0</ele>
        <time>2019-04-25T07:20:35.000Z</time>
      </trkpt>
      <trkpt lat="42.41360855102539" lon="-6.994989395141602">
        <ele>322.0</ele>
        <time>2019-04-25T07:20:40.000Z</time>
      </trkpt>
      <trkpt lat="42.41358184814453" lon="-6.995042324066162">
        <ele>322.0</ele>
        <time>2019-04-25T07:20:44.000Z</time>
      </trkpt>
      <trkpt lat="42.413551330566406" lon="-6.995105266571045">
        <ele>321.0</ele>
        <time>2019-04-25T07:20:49.000Z</time>
      </trkpt>
      <trkpt lat="42.41352081298828" lon="-6.995172500610352">
        <ele>321.0</ele>
        <time>2019-04-25T07:20:54.000Z</time>
      </trkpt>
      <trkpt lat="42.413509368896484" lon="-6.995195388793945">
        <ele>320.0</ele>
        <time>2019-04-25T07:20:54.000Z</time>
      </trkpt>
      <trkpt lat="42.41350555419922" lon="-6.995204448699951">
        <ele>320.0</ele>
        <time>2019-04-25T07:20:54.000Z</time>
      </trkpt>
      <trkpt lat="42.41350555419922" lon="-6.995203971862793">
        <ele>320.0</ele>
        <time>2019-04-25T07:20:54.000Z</time>
      </trkpt>
      <trkpt lat="42.413509368896484" lon="-6.995199203491211">
        <ele>321.0</ele>
        <time>2019-04-25T07:20:55.000Z</time>
      </trkpt>
      <trkpt lat="42.41350555419922" lon="-6.995279788970947">
        <ele>320.0</ele>
        <time>2019-04-25T07:21:02.000Z</time>
      </trkpt>
      <trkpt lat="42.41350173950195" lon="-6.995390892028809">
        <ele>319.0</ele>
        <time>2019-04-25T07:21:09.000Z</time>
      </trkpt>
      <trkpt lat="42.41349411010742" lon="-6.995522975921631">
        <ele>318.0</ele>
        <time>2019-04-25T07:21:16.000Z</time>
      </trkpt>
      <trkpt lat="42.413490295410156" lon="-6.995665073394775">
        <ele>317.0</ele>
        <time>2019-04-25T07:21:23.000Z</time>
      </trkpt>
      <trkpt lat="42.41348648071289" lon="-6.995782852172852">
        <ele>316.0</ele>
        <time>2019-04-25T07:21:31.000Z</time>
      </trkpt>
      <trkpt lat="42.41348648071289" lon="-6.995900630950928">
        <ele>316.0</ele>
        <time>2019-04-25T07:21:39.000Z</time>
      </trkpt>
      <trkpt lat="42.41348648071289" lon="-6.99601936340332">
        <ele>315.0</ele>
        <time>2019-04-25T07:21:47.000Z</time>
      </trkpt>
      <trkpt lat="42.41348648071289" lon="-6.996137619018555">
        <ele>314.0</ele>
        <time>2019-04-25T07:21:55.000Z</time>
      </trkpt>
      <trkpt lat="42.41347885131836" lon="-6.996255397796631">
        <ele>314.0</ele>
        <time>2019-04-25T07:22:01.000Z</time>
      </trkpt>
      <trkpt lat="42.41346740722656" lon="-6.996372222900391">
        <ele>314.0</ele>
        <time>2019-04-25T07:22:08.000Z</time>
      </trkpt>
      <trkpt lat="42.413455963134766" lon="-6.996489524841309">
        <ele>313.0</ele>
        <time>2019-04-25T07:22:14.000Z</time>
      </trkpt>
      <trkpt lat="42.4134407043457" lon="-6.996606349945068">
        <ele>313.0</ele>
        <time>2019-04-25T07:22:21.000Z</time>
      </trkpt>
      <trkpt lat="42.41344451904297" lon="-6.996726036071777">
        <ele>313.0</ele>
        <time>2019-04-25T07:22:28.000Z</time>
      </trkpt>
      <trkpt lat="42.4134521484375" lon="-6.996846675872803">
        <ele>314.0</ele>
        <time>2019-04-25T07:22:36.000Z</time>
      </trkpt>
      <trkpt lat="42.4134635925293" lon="-6.996967792510986">
        <ele>314.0</ele>
        <time>2019-04-25T07:22:44.000Z</time>
      </trkpt>
      <trkpt lat="42.41347885131836" lon="-6.997089862823486">
        <ele>314.0</ele>
        <time>2019-04-25T07:22:52.000Z</time>
      </trkpt>
      <trkpt lat="42.413516998291016" lon="-6.9972028732299805">
        <ele>314.0</ele>
        <time>2019-04-25T07:23:07.000Z</time>
      </trkpt>
      <trkpt lat="42.413516998291016" lon="-6.997227191925049">
        <ele>313.0</ele>
        <time>2019-04-25T07:23:21.000Z</time>
      </trkpt>
      <trkpt lat="42.413509368896484" lon="-6.997236728668213">
        <ele>313.0</ele>
        <time>2019-04-25T07:23:35.000Z</time>
      </trkpt>
      <trkpt lat="42.413509368896484" lon="-6.997243881225586">
        <ele>313.0</ele>
        <time>2019-04-25T07:23:35.000Z</time>
      </trkpt>
      <trkpt lat="42.41350555419922" lon="-6.997250080108643">
        <ele>313.0</ele>
        <time>2019-04-25T07:23:35.000Z</time>
      </trkpt>
      <trkpt lat="42.41350555419922" lon="-6.997256755828857">
        <ele>313.0</ele>
        <time>2019-04-25T07:23:35.000Z</time>
      </trkpt>
      <trkpt lat="42.41350555419922" lon="-6.997262954711914">
        <ele>313.0</ele>
        <time>2019-04-25T07:23:36.000Z</time>
      </trkpt>
      <trkpt lat="42.413490295410156" lon="-6.99732780456543">
        <ele>313.0</ele>
        <time>2019-04-25T07:23:39.000Z</time>
      </trkpt>
      <trkpt lat="42.41346740722656" lon="-6.997417449951172">
        <ele>313.0</ele>
        <time>2019-04-25T07:23:43.000Z</time>
      </trkpt>
      <trkpt lat="42.4134407043457" lon="-6.997523307800293">
        <ele>313.0</ele>
        <time>2019-04-25T07:23:47.000Z</time>
      </trkpt>
      <trkpt lat="42.413414001464844" lon="-6.9976372718811035">
        <ele>313.0</ele>
        <time>2019-04-25T07:23:51.000Z</time>
      </trkpt>
      <trkpt lat="42.41340637207031" lon="-6.99767541885376">
        <ele>312.0</ele>
        <time>2019-04-25T07:23:55.000Z</time>
      </trkpt>
      <trkpt lat="42.41340637207031" lon="-6.997690200805664">
        <ele>312.0</ele>
        <time>2019-04-25T07:23:59.000Z</time>
      </trkpt>
      <trkpt lat="42.41341018676758" lon="-6.997689723968506">
        <ele>312.0</ele>
        <time>2019-04-25T07:24:03.000Z</time>
      </trkpt>
      <trkpt lat="42.413414001464844" lon="-6.997681140899658">
        <ele>312.0</ele>
        <time>2019-04-25T07:24:07.000Z</time>
      </trkpt>
      <trkpt lat="42.413414001464844" lon="-6.997690200805664">
        <ele>312.0</ele>
        <time>2019-04-25T07:24:07.000Z</time>
      </trkpt>
      <trkpt lat="42.413414001464844" lon="-6.9976983070373535">
        <ele>312.0</ele>
        <time>2019-04-25T07:24:07.000Z</time>
      </trkpt>
      <trkpt lat="42.413414001464844" lon="-6.997705459594727">
        <ele>312.0</ele>
        <time>2019-04-25T07:24:07.000Z</time>
      </trkpt>
      <trkpt lat="42.413414001464844" lon="-6.9977126121521">
        <ele>312.0</ele>
        <time>2019-04-25T07:24:08.000Z</time>
      </trkpt>
      <trkpt lat="42.413414001464844" lon="-6.997722625732422">
        <ele>312.0</ele>
        <time>2019-04-25T07:24:08.000Z</time>
      </trkpt>
      <trkpt lat="42.413414001464844" lon="-6.9977335929870605">
        <ele>312.0</ele>
        <time>2019-04-25T07:24:09.000Z</time>
      </trkpt>
      <trkpt lat="42.413414001464844" lon="-6.997745513916016">
        <ele>312.0</ele>
        <time>2019-04-25T07:24:09.000Z</time>
      </trkpt>
      <trkpt lat="42.413414001464844" lon="-6.997757434844971">
        <ele>312.0</ele>
        <time>2019-04-25T07:24:10.000Z</time>
      </trkpt>
      <trkpt lat="42.41341781616211" lon="-6.9978108406066895">
        <ele>311.0</ele>
        <time>2019-04-25T07:24:22.000Z</time>
      </trkpt>
      <trkpt lat="42.413421630859375" lon="-6.997849464416504">
        <ele>311.0</ele>
        <time>2019-04-25T07:24:23.000Z</time>
      </trkpt>
      <trkpt lat="42.41354751586914" lon="-6.998308181762695">
        <ele>310.0</ele>
        <time>2019-04-25T07:24:41.000Z</time>
      </trkpt>
      <trkpt lat="42.41354751586914" lon="-6.998776912689209">
        <ele>310.0</ele>
        <time>2019-04-25T07:25:05.000Z</time>
      </trkpt>
      <trkpt lat="42.41356658935547" lon="-6.9992804527282715">
        <ele>317.0</ele>
        <time>2019-04-25T07:25:38.000Z</time>
      </trkpt>
      <trkpt lat="42.413543701171875" lon="-6.999760627746582">
        <ele>316.0</ele>
        <time>2019-04-25T07:26:08.000Z</time>
      </trkpt>
      <trkpt lat="42.41361999511719" lon="-7.000216484069824">
        <ele>316.0</ele>
        <time>2019-04-25T07:26:39.000Z</time>
      </trkpt>
      <trkpt lat="42.41368103027344" lon="-7.000685214996338">
        <ele>315.0</ele>
        <time>2019-04-25T07:27:03.000Z</time>
      </trkpt>
      <trkpt lat="42.41364669799805" lon="-7.001007556915283">
        <ele>317.0</ele>
        <time>2019-04-25T07:27:23.000Z</time>
      </trkpt>
      <trkpt lat="42.41365432739258" lon="-7.001059532165527">
        <ele>316.0</ele>
        <time>2019-04-25T07:27:26.000Z</time>
      </trkpt>
      <trkpt lat="42.413673400878906" lon="-7.001099586486816">
        <ele>316.0</ele>
        <time>2019-04-25T07:27:30.000Z</time>
      </trkpt>
      <trkpt lat="42.4136962890625" lon="-7.001132011413574">
        <ele>315.0</ele>
        <time>2019-04-25T07:27:34.000Z</time>
      </trkpt>
      <trkpt lat="42.413719177246094" lon="-7.001160621643066">
        <ele>314.0</ele>
        <time>2019-04-25T07:27:38.000Z</time>
      </trkpt>
      <trkpt lat="42.41373825073242" lon="-7.001193523406982">
        <ele>313.0</ele>
        <time>2019-04-25T07:27:41.000Z</time>
      </trkpt>
      <trkpt lat="42.41375732421875" lon="-7.001224517822266">
        <ele>312.0</ele>
        <time>2019-04-25T07:27:44.000Z</time>
      </trkpt>
      <trkpt lat="42.413780212402344" lon="-7.001254081726074">
        <ele>312.0</ele>
        <time>2019-04-25T07:27:47.000Z</time>
      </trkpt>
      <trkpt lat="42.41379928588867" lon="-7.001283168792725">
        <ele>312.0</ele>
        <time>2019-04-25T07:27:50.000Z</time>
      </trkpt>
      <trkpt lat="42.41379928588867" lon="-7.001351833343506">
        <ele>311.0</ele>
        <time>2019-04-25T07:27:54.000Z</time>
      </trkpt>
      <trkpt lat="42.413795471191406" lon="-7.00143575668335">
        <ele>311.0</ele>
        <time>2019-04-25T07:27:58.000Z</time>
      </trkpt>
      <trkpt lat="42.41378402709961" lon="-7.001530647277832">
        <ele>310.0</ele>
        <time>2019-04-25T07:28:02.000Z</time>
      </trkpt>
      <trkpt lat="42.41377258300781" lon="-7.001630783081055">
        <ele>310.0</ele>
        <time>2019-04-25T07:28:06.000Z</time>
      </trkpt>
      <trkpt lat="42.41377639770508" lon="-7.001737594604492">
        <ele>310.0</ele>
        <time>2019-04-25T07:28:12.000Z</time>
      </trkpt>
      <trkpt lat="42.413787841796875" lon="-7.001852512359619">
        <ele>309.0</ele>
        <time>2019-04-25T07:28:19.000Z</time>
      </trkpt>
      <trkpt lat="42.41379928588867" lon="-7.0019731521606445">
        <ele>309.0</ele>
        <time>2019-04-25T07:28:25.000Z</time>
      </trkpt>
      <trkpt lat="42.413814544677734" lon="-7.002096176147461">
        <ele>308.0</ele>
        <time>2019-04-25T07:28:32.000Z</time>
      </trkpt>
      <trkpt lat="42.413822174072266" lon="-7.002182960510254">
        <ele>308.0</ele>
        <time>2019-04-25T07:28:35.000Z</time>
      </trkpt>
      <trkpt lat="42.41382598876953" lon="-7.002257347106934">
        <ele>308.0</ele>
        <time>2019-04-25T07:28:38.000Z</time>
      </trkpt>
      <trkpt lat="42.4138298034668" lon="-7.002323627471924">
        <ele>308.0</ele>
        <time>2019-04-25T07:28:41.000Z</time>
      </trkpt>
      <trkpt lat="42.41383361816406" lon="-7.00238561630249">
        <ele>308.0</ele>
        <time>2019-04-25T07:28:44.000Z</time>
      </trkpt>
      <trkpt lat="42.41383743286133" lon="-7.002452373504639">
        <ele>309.0</ele>
        <time>2019-04-25T07:28:48.000Z</time>
      </trkpt>
      <trkpt lat="42.413841247558594" lon="-7.002516746520996">
        <ele>310.0</ele>
        <time>2019-04-25T07:28:52.000Z</time>
      </trkpt>
      <trkpt lat="42.41384506225586" lon="-7.002579689025879">
        <ele>312.0</ele>
        <time>2019-04-25T07:28:56.000Z</time>
      </trkpt>
      <trkpt lat="42.41384506225586" lon="-7.002641677856445">
        <ele>313.0</ele>
        <time>2019-04-25T07:29:00.000Z</time>
      </trkpt>
      <trkpt lat="42.413875579833984" lon="-7.002736568450928">
        <ele>311.0</ele>
        <time>2019-04-25T07:29:08.000Z</time>
      </trkpt>
      <trkpt lat="42.413909912109375" lon="-7.002844333648682">
        <ele>308.0</ele>
        <time>2019-04-25T07:29:15.000Z</time>
      </trkpt>
      <trkpt lat="42.41395568847656" lon="-7.002961158752441">
        <ele>304.0</ele>
        <time>2019-04-25T07:29:23.000Z</time>
      </trkpt>
      <trkpt lat="42.41400146484375" lon="-7.003082275390625">
        <ele>300.0</ele>
        <time>2019-04-25T07:29:31.000Z</time>
      </trkpt>
      <trkpt lat="42.41404724121094" lon="-7.003185749053955">
        <ele>298.0</ele>
        <time>2019-04-25T07:29:38.000Z</time>
      </trkpt>
      <trkpt lat="42.41409683227539" lon="-7.003286361694336">
        <ele>297.0</ele>
        <time>2019-04-25T07:29:46.000Z</time>
      </trkpt>
      <trkpt lat="42.414146423339844" lon="-7.003385543823242">
        <ele>297.0</ele>
        <time>2019-04-25T07:29:53.000Z</time>
      </trkpt>
      <trkpt lat="42.4141960144043" lon="-7.003483772277832">
        <ele>298.0</ele>
        <time>2019-04-25T07:30:01.000Z</time>
      </trkpt>
      <trkpt lat="42.41447830200195" lon="-7.003781318664551">
        <ele>296.0</ele>
        <time>2019-04-25T07:30:25.000Z</time>
      </trkpt>
      <trkpt lat="42.414581298828125" lon="-7.003894329071045">
        <ele>297.0</ele>
        <time>2019-04-25T07:30:33.000Z</time>
      </trkpt>
      <trkpt lat="42.414581298828125" lon="-7.003961563110352">
        <ele>297.0</ele>
        <time>2019-04-25T07:30:37.000Z</time>
      </trkpt>
      <trkpt lat="42.414573669433594" lon="-7.004045486450195">
        <ele>297.0</ele>
        <time>2019-04-25T07:30:42.000Z</time>
      </trkpt>
      <trkpt lat="42.414554595947266" lon="-7.0041399002075195">
        <ele>297.0</ele>
        <time>2019-04-25T07:30:46.000Z</time>
      </trkpt>
      <trkpt lat="42.41453552246094" lon="-7.004240036010742">
        <ele>297.0</ele>
        <time>2019-04-25T07:30:51.000Z</time>
      </trkpt>
      <trkpt lat="42.41453170776367" lon="-7.004288196563721">
        <ele>297.0</ele>
        <time>2019-04-25T07:30:52.000Z</time>
      </trkpt>
      <trkpt lat="42.414527893066406" lon="-7.0043206214904785">
        <ele>297.0</ele>
        <time>2019-04-25T07:30:54.000Z</time>
      </trkpt>
      <trkpt lat="42.414527893066406" lon="-7.004342079162598">
        <ele>297.0</ele>
        <time>2019-04-25T07:30:55.000Z</time>
      </trkpt>
      <trkpt lat="42.41453170776367" lon="-7.004358291625977">
        <ele>297.0</ele>
        <time>2019-04-25T07:30:57.000Z</time>
      </trkpt>
      <trkpt lat="42.4145622253418" lon="-7.004382133483887">
        <ele>297.0</ele>
        <time>2019-04-25T07:31:00.000Z</time>
      </trkpt>
      <trkpt lat="42.41460418701172" lon="-7.004403591156006">
        <ele>298.0</ele>
        <time>2019-04-25T07:31:04.000Z</time>
      </trkpt>
      <trkpt lat="42.41465759277344" lon="-7.004423141479492">
        <ele>299.0</ele>
        <time>2019-04-25T07:31:08.000Z</time>
      </trkpt>
      <trkpt lat="42.41471481323242" lon="-7.004441738128662">
        <ele>299.0</ele>
        <time>2019-04-25T07:31:12.000Z</time>
      </trkpt>
      <trkpt lat="42.414730072021484" lon="-7.004486083984375">
        <ele>300.0</ele>
        <time>2019-04-25T07:31:14.000Z</time>
      </trkpt>
      <trkpt lat="42.414730072021484" lon="-7.004539966583252">
        <ele>300.0</ele>
        <time>2019-04-25T07:31:16.000Z</time>
      </trkpt>
      <trkpt lat="42.41472244262695" lon="-7.004601001739502">
        <ele>300.0</ele>
        <time>2019-04-25T07:31:18.000Z</time>
      </trkpt>
      <trkpt lat="42.414710998535156" lon="-7.004664897918701">
        <ele>300.0</ele>
        <time>2019-04-25T07:31:21.000Z</time>
      </trkpt>
      <trkpt lat="42.414710998535156" lon="-7.004725933074951">
        <ele>300.0</ele>
        <time>2019-04-25T07:31:24.000Z</time>
      </trkpt>
      <trkpt lat="42.414710998535156" lon="-7.004788875579834">
        <ele>300.0</ele>
        <time>2019-04-25T07:31:28.000Z</time>
      </trkpt>
      <trkpt lat="42.41470718383789" lon="-7.00485372543335">
        <ele>300.0</ele>
        <time>2019-04-25T07:31:32.000Z</time>
      </trkpt>
      <trkpt lat="42.41470718383789" lon="-7.004919052124023">
        <ele>301.0</ele>
        <time>2019-04-25T07:31:36.000Z</time>
      </trkpt>
      <trkpt lat="42.41471862792969" lon="-7.004955291748047">
        <ele>301.0</ele>
        <time>2019-04-25T07:31:38.000Z</time>
      </trkpt>
      <trkpt lat="42.414737701416016" lon="-7.004980087280273">
        <ele>303.0</ele>
        <time>2019-04-25T07:31:40.000Z</time>
      </trkpt>
      <trkpt lat="42.414756774902344" lon="-7.004997253417969">
        <ele>304.0</ele>
        <time>2019-04-25T07:31:42.000Z</time>
      </trkpt>
      <trkpt lat="42.41477966308594" lon="-7.005010604858398">
        <ele>305.0</ele>
        <time>2019-04-25T07:31:45.000Z</time>
      </trkpt>
      <trkpt lat="42.41477966308594" lon="-7.005039691925049">
        <ele>306.0</ele>
        <time>2019-04-25T07:31:46.000Z</time>
      </trkpt>
      <trkpt lat="42.414772033691406" lon="-7.005071640014648">
        <ele>306.0</ele>
        <time>2019-04-25T07:31:48.000Z</time>
      </trkpt>
      <trkpt lat="42.41476058959961" lon="-7.005105018615723">
        <ele>306.0</ele>
        <time>2019-04-25T07:31:50.000Z</time>
      </trkpt>
      <trkpt lat="42.41474914550781" lon="-7.005138874053955">
        <ele>306.0</ele>
        <time>2019-04-25T07:31:52.000Z</time>
      </trkpt>
      <trkpt lat="42.41477584838867" lon="-7.005218029022217">
        <ele>306.0</ele>
        <time>2019-04-25T07:31:59.000Z</time>
      </trkpt>
      <trkpt lat="42.414817810058594" lon="-7.005316734313965">
        <ele>307.0</ele>
        <time>2019-04-25T07:32:06.000Z</time>
      </trkpt>
      <trkpt lat="42.41487121582031" lon="-7.005428314208984">
        <ele>308.0</ele>
        <time>2019-04-25T07:32:13.000Z</time>
      </trkpt>
      <trkpt lat="42.4149284362793" lon="-7.005546569824219">
        <ele>310.0</ele>
        <time>2019-04-25T07:32:20.000Z</time>
      </trkpt>
      <trkpt lat="42.41497039794922" lon="-7.005653381347656">
        <ele>311.0</ele>
        <time>2019-04-25T07:32:27.000Z</time>
      </trkpt>
      <trkpt lat="42.41501235961914" lon="-7.005763053894043">
        <ele>312.0</ele>
        <time>2019-04-25T07:32:34.000Z</time>
      </trkpt>
      <trkpt lat="42.4150505065918" lon="-7.005873680114746">
        <ele>314.0</ele>
        <time>2019-04-25T07:32:41.000Z</time>
      </trkpt>
      <trkpt lat="42.41508865356445" lon="-7.005985260009766">
        <ele>315.0</ele>
        <time>2019-04-25T07:32:49.000Z</time>
      </trkpt>
      <trkpt lat="42.41510772705078" lon="-7.006049156188965">
        <ele>316.0</ele>
        <time>2019-04-25T07:32:51.000Z</time>
      </trkpt>
      <trkpt lat="42.415122985839844" lon="-7.006093978881836">
        <ele>316.0</ele>
        <time>2019-04-25T07:32:54.000Z</time>
      </trkpt>
      <trkpt lat="42.41512680053711" lon="-7.0061259269714355">
        <ele>316.0</ele>
        <time>2019-04-25T07:32:56.000Z</time>
      </trkpt>
      <trkpt lat="42.415130615234375" lon="-7.0061516761779785">
        <ele>316.0</ele>
        <time>2019-04-25T07:32:58.000Z</time>
      </trkpt>
      <trkpt lat="42.41516876220703" lon="-7.006192684173584">
        <ele>316.0</ele>
        <time>2019-04-25T07:33:05.000Z</time>
      </trkpt>
      <trkpt lat="42.41522216796875" lon="-7.0062336921691895">
        <ele>316.0</ele>
        <time>2019-04-25T07:33:11.000Z</time>
      </trkpt>
      <trkpt lat="42.415287017822266" lon="-7.006274700164795">
        <ele>316.0</ele>
        <time>2019-04-25T07:33:17.000Z</time>
      </trkpt>
      <trkpt lat="42.41535186767578" lon="-7.006315231323242">
        <ele>316.0</ele>
        <time>2019-04-25T07:33:23.000Z</time>
      </trkpt>
      <trkpt lat="42.4154167175293" lon="-7.00637149810791">
        <ele>316.0</ele>
        <time>2019-04-25T07:33:29.000Z</time>
      </trkpt>
      <trkpt lat="42.415489196777344" lon="-7.006433963775635">
        <ele>316.0</ele>
        <time>2019-04-25T07:33:36.000Z</time>
      </trkpt>
      <trkpt lat="42.41556167602539" lon="-7.006500244140625">
        <ele>316.0</ele>
        <time>2019-04-25T07:33:43.000Z</time>
      </trkpt>
      <trkpt lat="42.4156379699707" lon="-7.006568908691406">
        <ele>316.0</ele>
        <time>2019-04-25T07:33:50.000Z</time>
      </trkpt>
      <trkpt lat="42.41569900512695" lon="-7.006680965423584">
        <ele>317.0</ele>
        <time>2019-04-25T07:33:56.000Z</time>
      </trkpt>
      <trkpt lat="42.41572570800781" lon="-7.006785869598389">
        <ele>317.0</ele>
        <time>2019-04-25T07:34:01.000Z</time>
      </trkpt>
      <trkpt lat="42.41573715209961" lon="-7.006823539733887">
        <ele>317.0</ele>
        <time>2019-04-25T07:34:04.000Z</time>
      </trkpt>
      <trkpt lat="42.41574478149414" lon="-7.00685453414917">
        <ele>317.0</ele>
        <time>2019-04-25T07:34:06.000Z</time>
      </trkpt>
      <trkpt lat="42.415748596191406" lon="-7.006880760192871">
        <ele>317.0</ele>
        <time>2019-04-25T07:34:09.000Z</time>
      </trkpt>
      <trkpt lat="42.41575241088867" lon="-7.006904602050781">
        <ele>317.0</ele>
        <time>2019-04-25T07:34:11.000Z</time>
      </trkpt>
      <trkpt lat="42.41572570800781" lon="-7.006913185119629">
        <ele>316.0</ele>
        <time>2019-04-25T07:34:14.000Z</time>
      </trkpt>
      <trkpt lat="42.41568374633789" lon="-7.006913185119629">
        <ele>316.0</ele>
        <time>2019-04-25T07:34:17.000Z</time>
      </trkpt>
      <trkpt lat="42.41563415527344" lon="-7.006906986236572">
        <ele>316.0</ele>
        <time>2019-04-25T07:34:20.000Z</time>
      </trkpt>
      <trkpt lat="42.41557693481445" lon="-7.006898403167725">
        <ele>315.0</ele>
        <time>2019-04-25T07:34:23.000Z</time>
      </trkpt>
      <trkpt lat="42.41556930541992" lon="-7.006909370422363">
        <ele>315.0</ele>
        <time>2019-04-25T07:34:27.000Z</time>
      </trkpt>
      <trkpt lat="42.41557312011719" lon="-7.0069260597229">
        <ele>314.0</ele>
        <time>2019-04-25T07:34:31.000Z</time>
      </trkpt>
      <trkpt lat="42.415592193603516" lon="-7.006945610046387">
        <ele>313.0</ele>
        <time>2019-04-25T07:34:35.000Z</time>
      </trkpt>
      <trkpt lat="42.415611267089844" lon="-7.006967544555664">
        <ele>313.0</ele>
        <time>2019-04-25T07:34:38.000Z</time>
      </trkpt>
      <trkpt lat="42.41567611694336" lon="-7.006999969482422">
        <ele>313.0</ele>
        <time>2019-04-25T07:35:04.000Z</time>
      </trkpt>
      <trkpt lat="42.41576385498047" lon="-7.0070319175720215">
        <ele>313.0</ele>
        <time>2019-04-25T07:35:30.000Z</time>
      </trkpt>
      <trkpt lat="42.415775299072266" lon="-7.007038116455078">
        <ele>313.0</ele>
        <time>2019-04-25T07:35:30.000Z</time>
      </trkpt>
      <trkpt lat="42.4157829284668" lon="-7.007040023803711">
        <ele>313.0</ele>
        <time>2019-04-25T07:35:30.000Z</time>
      </trkpt>
      <trkpt lat="42.41577911376953" lon="-7.007039546966553">
        <ele>313.0</ele>
        <time>2019-04-25T07:35:30.000Z</time>
      </trkpt>
      <trkpt lat="42.415775299072266" lon="-7.00703763961792">
        <ele>313.0</ele>
        <time>2019-04-25T07:35:31.000Z</time>
      </trkpt>
      <trkpt lat="42.41577911376953" lon="-7.007038593292236">
        <ele>313.0</ele>
        <time>2019-04-25T07:35:31.000Z</time>
      </trkpt>
      <trkpt lat="42.41577911376953" lon="-7.0070390701293945">
        <ele>313.0</ele>
        <time>2019-04-25T07:35:31.000Z</time>
      </trkpt>
      <trkpt lat="42.41577911376953" lon="-7.0070390701293945">
        <ele>313.0</ele>
        <time>2019-04-25T07:35:31.000Z</time>
      </trkpt>
      <trkpt lat="42.41577911376953" lon="-7.0070390701293945">
        <ele>314.0</ele>
        <time>2019-04-25T07:35:32.000Z</time>
      </trkpt>
      <trkpt lat="42.41577911376953" lon="-7.007040500640869">
        <ele>314.0</ele>
        <time>2019-04-25T07:35:42.000Z</time>
      </trkpt>
      <trkpt lat="42.4157829284668" lon="-7.007041931152344">
        <ele>315.0</ele>
        <time>2019-04-25T07:35:52.000Z</time>
      </trkpt>
      <trkpt lat="42.4157829284668" lon="-7.007043361663818">
        <ele>316.0</ele>
        <time>2019-04-25T07:36:02.000Z</time>
      </trkpt>
      <trkpt lat="42.4157829284668" lon="-7.007045269012451">
        <ele>316.0</ele>
        <time>2019-04-25T07:36:12.000Z</time>
      </trkpt>
      <trkpt lat="42.4157829284668" lon="-7.007046699523926">
        <ele>317.0</ele>
        <time>2019-04-25T07:36:12.000Z</time>
      </trkpt>
      <trkpt lat="42.4157829284668" lon="-7.0070481300354">
        <ele>317.0</ele>
        <time>2019-04-25T07:36:12.000Z</time>
      </trkpt>
      <trkpt lat="42.4157829284668" lon="-7.007049560546875">
        <ele>317.0</ele>
        <time>2019-04-25T07:36:12.000Z</time>
      </trkpt>
      <trkpt lat="42.41578674316406" lon="-7.00705099105835">
        <ele>316.0</ele>
        <time>2019-04-25T07:36:13.000Z</time>
      </trkpt>
      <trkpt lat="42.415809631347656" lon="-7.007124900817871">
        <ele>316.0</ele>
        <time>2019-04-25T07:36:17.000Z</time>
      </trkpt>
      <trkpt lat="42.41584396362305" lon="-7.007229804992676">
        <ele>317.0</ele>
        <time>2019-04-25T07:36:21.000Z</time>
      </trkpt>
      <trkpt lat="42.41588592529297" lon="-7.007354736328125">
        <ele>317.0</ele>
        <time>2019-04-25T07:36:25.000Z</time>
      </trkpt>
      <trkpt lat="42.415931701660156" lon="-7.0074896812438965">
        <ele>317.0</ele>
        <time>2019-04-25T07:36:29.000Z</time>
      </trkpt>
      <trkpt lat="42.41596603393555" lon="-7.007599830627441">
        <ele>317.0</ele>
        <time>2019-04-25T07:36:38.000Z</time>
      </trkpt>
      <trkpt lat="42.41600036621094" lon="-7.007709503173828">
        <ele>317.0</ele>
        <time>2019-04-25T07:36:48.000Z</time>
      </trkpt>
      <trkpt lat="42.41603469848633" lon="-7.007819175720215">
        <ele>317.0</ele>
        <time>2019-04-25T07:36:58.000Z</time>
      </trkpt>
      <trkpt lat="42.41606903076172" lon="-7.007928848266602">
        <ele>316.0</ele>
        <time>2019-04-25T07:37:08.000Z</time>
      </trkpt>
      <trkpt lat="42.4161376953125" lon="-7.007957935333252">
        <ele>316.0</ele>
        <time>2019-04-25T07:37:14.000Z</time>
      </trkpt>
      <trkpt lat="42.416221618652344" lon="-7.007953643798828">
        <ele>315.0</ele>
        <time>2019-04-25T07:37:20.000Z</time>
      </trkpt>
      <trkpt lat="42.416316986083984" lon="-7.007926940917969">
        <ele>315.0</ele>
        <time>2019-04-25T07:37:26.000Z</time>
      </trkpt>
      <trkpt lat="42.416419982910156" lon="-7.0078887939453125">
        <ele>314.0</ele>
        <time>2019-04-25T07:37:32.000Z</time>
      </trkpt>
      <trkpt lat="42.41650390625" lon="-7.007875442504883">
        <ele>313.0</ele>
        <time>2019-04-25T07:37:39.000Z</time>
      </trkpt>
      <trkpt lat="42.416587829589844" lon="-7.0078606605529785">
        <ele>311.0</ele>
        <time>2019-04-25T07:37:46.000Z</time>
      </trkpt>
      <trkpt lat="42.41667175292969" lon="-7.007845401763916">
        <ele>309.0</ele>
        <time>2019-04-25T07:37:53.000Z</time>
      </trkpt>
      <trkpt lat="42.416751861572266" lon="-7.007829189300537">
        <ele>307.0</ele>
        <time>2019-04-25T07:38:01.000Z</time>
      </trkpt>
      <trkpt lat="42.41680908203125" lon="-7.007819175720215">
        <ele>307.0</ele>
        <time>2019-04-25T07:38:03.000Z</time>
      </trkpt>
      <trkpt lat="42.41685104370117" lon="-7.007810592651367">
        <ele>306.0</ele>
        <time>2019-04-25T07:38:06.000Z</time>
      </trkpt>
      <trkpt lat="42.4168815612793" lon="-7.007803440093994">
        <ele>306.0</ele>
        <time>2019-04-25T07:38:09.000Z</time>
      </trkpt>
      <trkpt lat="42.41691207885742" lon="-7.0077972412109375">
        <ele>307.0</ele>
        <time>2019-04-25T07:38:12.000Z</time>
      </trkpt>
      <trkpt lat="42.4169921875" lon="-7.007711887359619">
        <ele>307.0</ele>
        <time>2019-04-25T07:38:21.000Z</time>
      </trkpt>
      <trkpt lat="42.41706848144531" lon="-7.007595062255859">
        <ele>309.0</ele>
        <time>2019-04-25T07:38:30.000Z</time>
      </trkpt>
      <trkpt lat="42.417137145996094" lon="-7.007546424865723">
        <ele>308.0</ele>
        <time>2019-04-25T07:38:38.000Z</time>
      </trkpt>
      <trkpt lat="42.41721725463867" lon="-7.007498264312744">
        <ele>308.0</ele>
        <time>2019-04-25T07:38:46.000Z</time>
      </trkpt>
      <trkpt lat="42.41730499267578" lon="-7.007451057434082">
        <ele>307.0</ele>
        <time>2019-04-25T07:38:54.000Z</time>
      </trkpt>
      <trkpt lat="42.417396545410156" lon="-7.00740385055542">
        <ele>307.0</ele>
        <time>2019-04-25T07:39:02.000Z</time>
      </trkpt>
      <trkpt lat="42.41756820678711" lon="-7.0074238777160645">
        <ele>307.0</ele>
        <time>2019-04-25T07:39:16.000Z</time>
      </trkpt>
      <trkpt lat="42.41774368286133" lon="-7.007497310638428">
        <ele>307.0</ele>
        <time>2019-04-25T07:39:30.000Z</time>
      </trkpt>
      <trkpt lat="42.417823791503906" lon="-7.007514476776123">
        <ele>307.0</ele>
        <time>2019-04-25T07:39:36.000Z</time>
      </trkpt>
      <trkpt lat="42.41790008544922" lon="-7.007529258728027">
        <ele>307.0</ele>
        <time>2019-04-25T07:39:43.000Z</time>
      </trkpt>
      <trkpt lat="42.417972564697266" lon="-7.007542133331299">
        <ele>308.0</ele>
        <time>2019-04-25T07:39:49.000Z</time>
      </trkpt>
      <trkpt lat="42.41804504394531" lon="-7.007554054260254">
        <ele>308.0</ele>
        <time>2019-04-25T07:39:56.000Z</time>
      </trkpt>
      <trkpt lat="42.41807556152344" lon="-7.007580280303955">
        <ele>308.0</ele>
        <time>2019-04-25T07:39:58.000Z</time>
      </trkpt>
      <trkpt lat="42.418087005615234" lon="-7.007612228393555">
        <ele>308.0</ele>
        <time>2019-04-25T07:40:00.000Z</time>
      </trkpt>
      <trkpt lat="42.41808319091797" lon="-7.007647514343262">
        <ele>308.0</ele>
        <time>2019-04-25T07:40:02.000Z</time>
      </trkpt>
      <trkpt lat="42.41807556152344" lon="-7.007684230804443">
        <ele>308.0</ele>
        <time>2019-04-25T07:40:05.000Z</time>
      </trkpt>
      <trkpt lat="42.41808319091797" lon="-7.00777530670166">
        <ele>309.0</ele>
        <time>2019-04-25T07:40:12.000Z</time>
      </trkpt>
      <trkpt lat="42.418087005615234" lon="-7.0078911781311035">
        <ele>311.0</ele>
        <time>2019-04-25T07:40:20.000Z</time>
      </trkpt>
      <trkpt lat="42.418094635009766" lon="-7.008022785186768">
        <ele>313.0</ele>
        <time>2019-04-25T07:40:28.000Z</time>
      </trkpt>
      <trkpt lat="42.4181022644043" lon="-7.008162975311279">
        <ele>315.0</ele>
        <time>2019-04-25T07:40:36.000Z</time>
      </trkpt>
      <trkpt lat="42.418121337890625" lon="-7.0082807540893555">
        <ele>315.0</ele>
        <time>2019-04-25T07:40:44.000Z</time>
      </trkpt>
      <trkpt lat="42.418148040771484" lon="-7.008398056030273">
        <ele>314.0</ele>
        <time>2019-04-25T07:40:52.000Z</time>
      </trkpt>
      <trkpt lat="42.41817855834961" lon="-7.008514404296875">
        <ele>313.0</ele>
        <time>2019-04-25T07:41:00.000Z</time>
      </trkpt>
      <trkpt lat="42.418212890625" lon="-7.008630752563477">
        <ele>312.0</ele>
        <time>2019-04-25T07:41:08.000Z</time>
      </trkpt>
      <trkpt lat="42.418251037597656" lon="-7.008738040924072">
        <ele>310.0</ele>
        <time>2019-04-25T07:41:15.000Z</time>
      </trkpt>
      <trkpt lat="42.41828918457031" lon="-7.008841037750244">
        <ele>309.0</ele>
        <time>2019-04-25T07:41:22.000Z</time>
      </trkpt>
      <trkpt lat="42.418331146240234" lon="-7.008941650390625">
        <ele>308.0</ele>
        <time>2019-04-25T07:41:29.000Z</time>
      </trkpt>
      <trkpt lat="42.41837692260742" lon="-7.009040832519531">
        <ele>306.0</ele>
        <time>2019-04-25T07:41:37.000Z</time>
      </trkpt>
      <trkpt lat="42.41841125488281" lon="-7.00915002822876">
        <ele>306.0</ele>
        <time>2019-04-25T07:41:44.000Z</time>
      </trkpt>
      <trkpt lat="42.41844177246094" lon="-7.0092620849609375">
        <ele>305.0</ele>
        <time>2019-04-25T07:41:52.000Z</time>
      </trkpt>
      <trkpt lat="42.4184684753418" lon="-7.00937557220459">
        <ele>304.0</ele>
        <time>2019-04-25T07:41:59.000Z</time>
      </trkpt>
      <trkpt lat="42.418495178222656" lon="-7.009490489959717">
        <ele>304.0</ele>
        <time>2019-04-25T07:42:07.000Z</time>
      </trkpt>
      <trkpt lat="42.41849136352539" lon="-7.009727954864502">
        <ele>303.0</ele>
        <time>2019-04-25T07:42:22.000Z</time>
      </trkpt>
      <trkpt lat="42.418460845947266" lon="-7.0099711418151855">
        <ele>302.0</ele>
        <time>2019-04-25T07:42:38.000Z</time>
      </trkpt>
      <trkpt lat="42.41844940185547" lon="-7.010090351104736">
        <ele>302.0</ele>
        <time>2019-04-25T07:42:46.000Z</time>
      </trkpt>
      <trkpt lat="42.41843795776367" lon="-7.010209560394287">
        <ele>303.0</ele>
        <time>2019-04-25T07:42:54.000Z</time>
      </trkpt>
      <trkpt lat="42.41842269897461" lon="-7.01032829284668">
        <ele>304.0</ele>
        <time>2019-04-25T07:43:02.000Z</time>
      </trkpt>
      <trkpt lat="42.41841125488281" lon="-7.0104475021362305">
        <ele>306.0</ele>
        <time>2019-04-25T07:43:11.000Z</time>
      </trkpt>
      <trkpt lat="42.418392181396484" lon="-7.010564804077148">
        <ele>309.0</ele>
        <time>2019-04-25T07:43:19.000Z</time>
      </trkpt>
      <trkpt lat="42.418365478515625" lon="-7.010682106018066">
        <ele>314.0</ele>
        <time>2019-04-25T07:43:28.000Z</time>
      </trkpt>
      <trkpt lat="42.4183349609375" lon="-7.010798931121826">
        <ele>319.0</ele>
        <time>2019-04-25T07:43:36.000Z</time>
      </trkpt>
      <trkpt lat="42.41830825805664" lon="-7.010915279388428">
        <ele>325.0</ele>
        <time>2019-04-25T07:43:45.000Z</time>
      </trkpt>
      <trkpt lat="42.418331146240234" lon="-7.011148929595947">
        <ele>330.0</ele>
        <time>2019-04-25T07:44:00.000Z</time>
      </trkpt>
      <trkpt lat="42.41839599609375" lon="-7.011382579803467">
        <ele>332.0</ele>
        <time>2019-04-25T07:44:15.000Z</time>
      </trkpt>
      <trkpt lat="42.41840362548828" lon="-7.011503219604492">
        <ele>334.0</ele>
        <time>2019-04-25T07:44:23.000Z</time>
      </trkpt>
      <trkpt lat="42.41840744018555" lon="-7.011625289916992">
        <ele>335.0</ele>
        <time>2019-04-25T07:44:32.000Z</time>
      </trkpt>
      <trkpt lat="42.41840744018555" lon="-7.011748790740967">
        <ele>337.0</ele>
        <time>2019-04-25T07:44:41.000Z</time>
      </trkpt>
      <trkpt lat="42.41840362548828" lon="-7.0118727684021">
        <ele>338.0</ele>
        <time>2019-04-25T07:44:50.000Z</time>
      </trkpt>
      <trkpt lat="42.41840362548828" lon="-7.011992931365967">
        <ele>338.0</ele>
        <time>2019-04-25T07:44:57.000Z</time>
      </trkpt>
      <trkpt lat="42.41840362548828" lon="-7.012112140655518">
        <ele>338.0</ele>
        <time>2019-04-25T07:45:05.000Z</time>
      </trkpt>
      <trkpt lat="42.41840362548828" lon="-7.01223087310791">
        <ele>337.0</ele>
        <time>2019-04-25T07:45:13.000Z</time>
      </trkpt>
      <trkpt lat="42.418399810791016" lon="-7.012348651885986">
        <ele>335.0</ele>
        <time>2019-04-25T07:45:21.000Z</time>
      </trkpt>
      <trkpt lat="42.41840744018555" lon="-7.0124688148498535">
        <ele>334.0</ele>
        <time>2019-04-25T07:45:28.000Z</time>
      </trkpt>
      <trkpt lat="42.418418884277344" lon="-7.012589454650879">
        <ele>332.0</ele>
        <time>2019-04-25T07:45:35.000Z</time>
      </trkpt>
      <trkpt lat="42.41843032836914" lon="-7.012710094451904">
        <ele>330.0</ele>
        <time>2019-04-25T07:45:42.000Z</time>
      </trkpt>
      <trkpt lat="42.4184455871582" lon="-7.01283073425293">
        <ele>328.0</ele>
        <time>2019-04-25T07:45:49.000Z</time>
      </trkpt>
      <trkpt lat="42.418453216552734" lon="-7.012888431549072">
        <ele>327.0</ele>
        <time>2019-04-25T07:45:51.000Z</time>
      </trkpt>
      <trkpt lat="42.418460845947266" lon="-7.012919902801514">
        <ele>327.0</ele>
        <time>2019-04-25T07:45:53.000Z</time>
      </trkpt>
      <trkpt lat="42.4184684753418" lon="-7.012933731079102">
        <ele>328.0</ele>
        <time>2019-04-25T07:45:55.000Z</time>
      </trkpt>
      <trkpt lat="42.41847229003906" lon="-7.012938976287842">
        <ele>328.0</ele>
        <time>2019-04-25T07:45:57.000Z</time>
      </trkpt>
      <trkpt lat="42.41844940185547" lon="-7.013004779815674">
        <ele>329.0</ele>
        <time>2019-04-25T07:46:03.000Z</time>
      </trkpt>
      <trkpt lat="42.41841125488281" lon="-7.013087272644043">
        <ele>329.0</ele>
        <time>2019-04-25T07:46:09.000Z</time>
      </trkpt>
      <trkpt lat="42.41836166381836" lon="-7.013180255889893">
        <ele>330.0</ele>
        <time>2019-04-25T07:46:15.000Z</time>
      </trkpt>
      <trkpt lat="42.418312072753906" lon="-7.013278484344482">
        <ele>331.0</ele>
        <time>2019-04-25T07:46:22.000Z</time>
      </trkpt>
      <trkpt lat="42.418270111083984" lon="-7.013340950012207">
        <ele>332.0</ele>
        <time>2019-04-25T07:46:27.000Z</time>
      </trkpt>
      <trkpt lat="42.41823196411133" lon="-7.013393878936768">
        <ele>333.0</ele>
        <time>2019-04-25T07:46:32.000Z</time>
      </trkpt>
      <trkpt lat="42.41819381713867" lon="-7.013440132141113">
        <ele>334.0</ele>
        <time>2019-04-25T07:46:37.000Z</time>
      </trkpt>
      <trkpt lat="42.41815185546875" lon="-7.01348352432251">
        <ele>335.0</ele>
        <time>2019-04-25T07:46:42.000Z</time>
      </trkpt>
      <trkpt lat="42.41814041137695" lon="-7.013540744781494">
        <ele>335.0</ele>
        <time>2019-04-25T07:46:46.000Z</time>
      </trkpt>
      <trkpt lat="42.41814041137695" lon="-7.013600826263428">
        <ele>335.0</ele>
        <time>2019-04-25T07:46:50.000Z</time>
      </trkpt>
      <trkpt lat="42.418148040771484" lon="-7.013662338256836">
        <ele>335.0</ele>
        <time>2019-04-25T07:46:54.000Z</time>
      </trkpt>
      <trkpt lat="42.41815948486328" lon="-7.013725280761719">
        <ele>335.0</ele>
        <time>2019-04-25T07:46:58.000Z</time>
      </trkpt>
      <trkpt lat="42.41816711425781" lon="-7.013782501220703">
        <ele>335.0</ele>
        <time>2019-04-25T07:47:01.000Z</time>
      </trkpt>
      <trkpt lat="42.418174743652344" lon="-7.013838768005371">
        <ele>335.0</ele>
        <time>2019-04-25T07:47:04.000Z</time>
      </trkpt>
      <trkpt lat="42.418182373046875" lon="-7.013894081115723">
        <ele>335.0</ele>
        <time>2019-04-25T07:47:07.000Z</time>
      </trkpt>
      <trkpt lat="42.418190002441406" lon="-7.013949394226074">
        <ele>335.0</ele>
        <time>2019-04-25T07:47:11.000Z</time>
      </trkpt>
      <trkpt lat="42.41816711425781" lon="-7.014007091522217">
        <ele>336.0</ele>
        <time>2019-04-25T07:47:17.000Z</time>
      </trkpt>
      <trkpt lat="42.41813278198242" lon="-7.014065742492676">
        <ele>336.0</ele>
        <time>2019-04-25T07:47:24.000Z</time>
      </trkpt>
      <trkpt lat="42.4180908203125" lon="-7.014125347137451">
        <ele>336.0</ele>
        <time>2019-04-25T07:47:30.000Z</time>
      </trkpt>
      <trkpt lat="42.41804504394531" lon="-7.014184474945068">
        <ele>337.0</ele>
        <time>2019-04-25T07:47:37.000Z</time>
      </trkpt>
      <trkpt lat="42.417999267578125" lon="-7.014270305633545">
        <ele>336.0</ele>
        <time>2019-04-25T07:47:44.000Z</time>
      </trkpt>
      <trkpt lat="42.41794967651367" lon="-7.014367580413818">
        <ele>336.0</ele>
        <time>2019-04-25T07:47:52.000Z</time>
      </trkpt>
      <trkpt lat="42.41790008544922" lon="-7.014472484588623">
        <ele>335.0</ele>
        <time>2019-04-25T07:47:59.000Z</time>
      </trkpt>
      <trkpt lat="42.417850494384766" lon="-7.014580726623535">
        <ele>334.0</ele>
        <time>2019-04-25T07:48:07.000Z</time>
      </trkpt>
      <trkpt lat="42.41780090332031" lon="-7.0146803855896">
        <ele>333.0</ele>
        <time>2019-04-25T07:48:13.000Z</time>
      </trkpt>
      <trkpt lat="42.41775131225586" lon="-7.0147809982299805">
        <ele>333.0</ele>
        <time>2019-04-25T07:48:20.000Z</time>
      </trkpt>
      <trkpt lat="42.417701721191406" lon="-7.014881610870361">
        <ele>333.0</ele>
        <time>2019-04-25T07:48:27.000Z</time>
      </trkpt>
      <trkpt lat="42.41765213012695" lon="-7.014982223510742">
        <ele>333.0</ele>
        <time>2019-04-25T07:48:34.000Z</time>
      </trkpt>
      <trkpt lat="42.41758728027344" lon="-7.0150628089904785">
        <ele>334.0</ele>
        <time>2019-04-25T07:48:42.000Z</time>
      </trkpt>
      <trkpt lat="42.417518615722656" lon="-7.015135765075684">
        <ele>335.0</ele>
        <time>2019-04-25T07:48:51.000Z</time>
      </trkpt>
      <trkpt lat="42.41744613647461" lon="-7.01520299911499">
        <ele>336.0</ele>
        <time>2019-04-25T07:48:59.000Z</time>
      </trkpt>
      <trkpt lat="42.41737365722656" lon="-7.015267848968506">
        <ele>337.0</ele>
        <time>2019-04-25T07:49:08.000Z</time>
      </trkpt>
      <trkpt lat="42.41730880737305" lon="-7.01535177230835">
        <ele>337.0</ele>
        <time>2019-04-25T07:49:13.000Z</time>
      </trkpt>
      <trkpt lat="42.4172477722168" lon="-7.015440940856934">
        <ele>336.0</ele>
        <time>2019-04-25T07:49:19.000Z</time>
      </trkpt>
      <trkpt lat="42.41718673706055" lon="-7.015533924102783">
        <ele>335.0</ele>
        <time>2019-04-25T07:49:25.000Z</time>
      </trkpt>
      <trkpt lat="42.41712951660156" lon="-7.015628337860107">
        <ele>334.0</ele>
        <time>2019-04-25T07:49:31.000Z</time>
      </trkpt>
      <trkpt lat="42.41706466674805" lon="-7.015709400177002">
        <ele>332.0</ele>
        <time>2019-04-25T07:49:37.000Z</time>
      </trkpt>
      <trkpt lat="42.416996002197266" lon="-7.015786170959473">
        <ele>330.0</ele>
        <time>2019-04-25T07:49:44.000Z</time>
      </trkpt>
      <trkpt lat="42.41692352294922" lon="-7.0158610343933105">
        <ele>328.0</ele>
        <time>2019-04-25T07:49:51.000Z</time>
      </trkpt>
      <trkpt lat="42.41685485839844" lon="-7.015934467315674">
        <ele>326.0</ele>
        <time>2019-04-25T07:49:58.000Z</time>
      </trkpt>
      <trkpt lat="42.416595458984375" lon="-7.016269207000732">
        <ele>328.0</ele>
        <time>2019-04-25T07:50:31.000Z</time>
      </trkpt>
      <trkpt lat="42.416351318359375" lon="-7.016613960266113">
        <ele>330.0</ele>
        <time>2019-04-25T07:51:01.000Z</time>
      </trkpt>
      <trkpt lat="42.41614532470703" lon="-7.017023086547852">
        <ele>330.0</ele>
        <time>2019-04-25T07:51:29.000Z</time>
      </trkpt>
      <trkpt lat="42.41598129272461" lon="-7.0174560546875">
        <ele>330.0</ele>
        <time>2019-04-25T07:51:59.000Z</time>
      </trkpt>
      <trkpt lat="42.41585159301758" lon="-7.017920970916748">
        <ele>330.0</ele>
        <time>2019-04-25T07:52:27.000Z</time>
      </trkpt>
      <trkpt lat="42.4157600402832" lon="-7.0183916091918945">
        <ele>329.0</ele>
        <time>2019-04-25T07:52:55.000Z</time>
      </trkpt>
      <trkpt lat="42.41572952270508" lon="-7.018878936767578">
        <ele>327.0</ele>
        <time>2019-04-25T07:53:25.000Z</time>
      </trkpt>
      <trkpt lat="42.415706634521484" lon="-7.019360542297363">
        <ele>325.0</ele>
        <time>2019-04-25T07:53:53.000Z</time>
      </trkpt>
      <trkpt lat="42.41564178466797" lon="-7.019837379455566">
        <ele>331.0</ele>
        <time>2019-04-25T07:54:22.000Z</time>
      </trkpt>
      <trkpt lat="42.41563034057617" lon="-7.0203328132629395">
        <ele>328.0</ele>
        <time>2019-04-25T07:54:51.000Z</time>
      </trkpt>
      <trkpt lat="42.41558074951172" lon="-7.020807266235352">
        <ele>330.0</ele>
        <time>2019-04-25T07:55:21.000Z</time>
      </trkpt>
      <trkpt lat="42.41545486450195" lon="-7.021266460418701">
        <ele>330.0</ele>
        <time>2019-04-25T07:55:48.000Z</time>
      </trkpt>
      <trkpt lat="42.41530227661133" lon="-7.021718978881836">
        <ele>328.0</ele>
        <time>2019-04-25T07:56:17.000Z</time>
      </trkpt>
      <trkpt lat="42.415138244628906" lon="-7.022154808044434">
        <ele>328.0</ele>
        <time>2019-04-25T07:56:49.000Z</time>
      </trkpt>
      <trkpt lat="42.41495132446289" lon="-7.022578716278076">
        <ele>326.0</ele>
        <time>2019-04-25T07:57:17.000Z</time>
      </trkpt>
      <trkpt lat="42.414772033691406" lon="-7.023000240325928">
        <ele>322.0</ele>
        <time>2019-04-25T07:57:46.000Z</time>
      </trkpt>
      <trkpt lat="42.414573669433594" lon="-7.023403644561768">
        <ele>328.0</ele>
        <time>2019-04-25T07:58:17.000Z</time>
      </trkpt>
      <trkpt lat="42.414398193359375" lon="-7.023828506469727">
        <ele>329.0</ele>
        <time>2019-04-25T07:58:49.000Z</time>
      </trkpt>
      <trkpt lat="42.41426467895508" lon="-7.0241169929504395">
        <ele>331.0</ele>
        <time>2019-04-25T07:59:08.000Z</time>
      </trkpt>
      <trkpt lat="42.41404724121094" lon="-7.024505138397217">
        <ele>334.0</ele>
        <time>2019-04-25T07:59:38.000Z</time>
      </trkpt>
      <trkpt lat="42.413818359375" lon="-7.024866104125977">
        <ele>327.0</ele>
        <time>2019-04-25T08:00:10.000Z</time>
      </trkpt>
      <trkpt lat="42.413612365722656" lon="-7.025266170501709">
        <ele>327.0</ele>
        <time>2019-04-25T08:00:38.000Z</time>
      </trkpt>
      <trkpt lat="42.41337203979492" lon="-7.025615215301514">
        <ele>330.0</ele>
        <time>2019-04-25T08:01:06.000Z</time>
      </trkpt>
      <trkpt lat="42.41313934326172" lon="-7.025980472564697">
        <ele>330.0</ele>
        <time>2019-04-25T08:01:36.000Z</time>
      </trkpt>
      <trkpt lat="42.41295623779297" lon="-7.026401042938232">
        <ele>321.0</ele>
        <time>2019-04-25T08:02:09.000Z</time>
      </trkpt>
      <trkpt lat="42.412776947021484" lon="-7.026823043823242">
        <ele>316.0</ele>
        <time>2019-04-25T08:02:37.000Z</time>
      </trkpt>
      <trkpt lat="42.41260528564453" lon="-7.027246952056885">
        <ele>318.0</ele>
        <time>2019-04-25T08:03:06.000Z</time>
      </trkpt>
      <trkpt lat="42.41242980957031" lon="-7.027650833129883">
        <ele>323.0</ele>
        <time>2019-04-25T08:03:33.000Z</time>
      </trkpt>
      <trkpt lat="42.41230773925781" lon="-7.028103351593018">
        <ele>328.0</ele>
        <time>2019-04-25T08:04:03.000Z</time>
      </trkpt>
      <trkpt lat="42.412235260009766" lon="-7.028390407562256">
        <ele>329.0</ele>
        <time>2019-04-25T08:04:27.000Z</time>
      </trkpt>
      <trkpt lat="42.41221237182617" lon="-7.028497219085693">
        <ele>328.0</ele>
        <time>2019-04-25T08:04:55.000Z</time>
      </trkpt>
      <trkpt lat="42.412200927734375" lon="-7.028542995452881">
        <ele>328.0</ele>
        <time>2019-04-25T08:04:56.000Z</time>
      </trkpt>
      <trkpt lat="42.412132263183594" lon="-7.02901029586792">
        <ele>328.0</ele>
        <time>2019-04-25T08:05:17.000Z</time>
      </trkpt>
      <trkpt lat="42.412071228027344" lon="-7.029490947723389">
        <ele>326.0</ele>
        <time>2019-04-25T08:05:47.000Z</time>
      </trkpt>
      <trkpt lat="42.41200637817383" lon="-7.029956817626953">
        <ele>323.0</ele>
        <time>2019-04-25T08:06:16.000Z</time>
      </trkpt>
      <trkpt lat="42.411964416503906" lon="-7.030088424682617">
        <ele>322.0</ele>
        <time>2019-04-25T08:06:31.000Z</time>
      </trkpt>
      <trkpt lat="42.41196060180664" lon="-7.030139923095703">
        <ele>324.0</ele>
        <time>2019-04-25T08:07:58.000Z</time>
      </trkpt>
      <trkpt lat="42.41196060180664" lon="-7.030174732208252">
        <ele>324.0</ele>
        <time>2019-04-25T08:07:59.000Z</time>
      </trkpt>
      <trkpt lat="42.411903381347656" lon="-7.030663013458252">
        <ele>317.0</ele>
        <time>2019-04-25T08:08:22.000Z</time>
      </trkpt>
      <trkpt lat="42.411861419677734" lon="-7.031140327453613">
        <ele>313.0</ele>
        <time>2019-04-25T08:08:50.000Z</time>
      </trkpt>
      <trkpt lat="42.411808013916016" lon="-7.031345844268799">
        <ele>312.0</ele>
        <time>2019-04-25T08:09:02.000Z</time>
      </trkpt>
      <trkpt lat="42.41173553466797" lon="-7.031435489654541">
        <ele>313.0</ele>
        <time>2019-04-25T08:09:10.000Z</time>
      </trkpt>
      <trkpt lat="42.41164016723633" lon="-7.031519412994385">
        <ele>314.0</ele>
        <time>2019-04-25T08:09:18.000Z</time>
      </trkpt>
      <trkpt lat="42.411617279052734" lon="-7.031611919403076">
        <ele>314.0</ele>
        <time>2019-04-25T08:09:25.000Z</time>
      </trkpt>
      <trkpt lat="42.411598205566406" lon="-7.03172492980957">
        <ele>315.0</ele>
        <time>2019-04-25T08:09:33.000Z</time>
      </trkpt>
      <trkpt lat="42.411582946777344" lon="-7.031851768493652">
        <ele>315.0</ele>
        <time>2019-04-25T08:09:40.000Z</time>
      </trkpt>
      <trkpt lat="42.41156768798828" lon="-7.031985282897949">
        <ele>316.0</ele>
        <time>2019-04-25T08:09:48.000Z</time>
      </trkpt>
      <trkpt lat="42.411556243896484" lon="-7.032079696655273">
        <ele>316.0</ele>
        <time>2019-04-25T08:09:54.000Z</time>
      </trkpt>
      <trkpt lat="42.41154861450195" lon="-7.032165050506592">
        <ele>316.0</ele>
        <time>2019-04-25T08:10:00.000Z</time>
      </trkpt>
      <trkpt lat="42.41154479980469" lon="-7.0322442054748535">
        <ele>315.0</ele>
        <time>2019-04-25T08:10:06.000Z</time>
      </trkpt>
      <trkpt lat="42.41154098510742" lon="-7.032320022583008">
        <ele>315.0</ele>
        <time>2019-04-25T08:10:13.000Z</time>
      </trkpt>
      <trkpt lat="42.411537170410156" lon="-7.032358169555664">
        <ele>314.0</ele>
        <time>2019-04-25T08:10:17.000Z</time>
      </trkpt>
      <trkpt lat="42.41153335571289" lon="-7.032376766204834">
        <ele>314.0</ele>
        <time>2019-04-25T08:10:21.000Z</time>
      </trkpt>
      <trkpt lat="42.41153335571289" lon="-7.032382965087891">
        <ele>313.0</ele>
        <time>2019-04-25T08:10:25.000Z</time>
      </trkpt>
      <trkpt lat="42.41153335571289" lon="-7.032382488250732">
        <ele>313.0</ele>
        <time>2019-04-25T08:10:30.000Z</time>
      </trkpt>
      <trkpt lat="42.411529541015625" lon="-7.0323944091796875">
        <ele>313.0</ele>
        <time>2019-04-25T08:10:30.000Z</time>
      </trkpt>
      <trkpt lat="42.411529541015625" lon="-7.032404899597168">
        <ele>313.0</ele>
        <time>2019-04-25T08:10:30.000Z</time>
      </trkpt>
      <trkpt lat="42.411529541015625" lon="-7.032413959503174">
        <ele>313.0</ele>
        <time>2019-04-25T08:10:30.000Z</time>
      </trkpt>
      <trkpt lat="42.411529541015625" lon="-7.0324225425720215">
        <ele>313.0</ele>
        <time>2019-04-25T08:10:31.000Z</time>
      </trkpt>
      <trkpt lat="42.411529541015625" lon="-7.03250789642334">
        <ele>313.0</ele>
        <time>2019-04-25T08:10:35.000Z</time>
      </trkpt>
      <trkpt lat="42.41153335571289" lon="-7.032624244689941">
        <ele>312.0</ele>
        <time>2019-04-25T08:10:40.000Z</time>
      </trkpt>
      <trkpt lat="42.41153335571289" lon="-7.032761096954346">
        <ele>312.0</ele>
        <time>2019-04-25T08:10:45.000Z</time>
      </trkpt>
      <trkpt lat="42.411537170410156" lon="-7.032908916473389">
        <ele>312.0</ele>
        <time>2019-04-25T08:10:50.000Z</time>
      </trkpt>
      <trkpt lat="42.41154479980469" lon="-7.033029556274414">
        <ele>311.0</ele>
        <time>2019-04-25T08:10:57.000Z</time>
      </trkpt>
      <trkpt lat="42.41155242919922" lon="-7.0331501960754395">
        <ele>311.0</ele>
        <time>2019-04-25T08:11:05.000Z</time>
      </trkpt>
      <trkpt lat="42.41156005859375" lon="-7.033270359039307">
        <ele>310.0</ele>
        <time>2019-04-25T08:11:13.000Z</time>
      </trkpt>
      <trkpt lat="42.41156768798828" lon="-7.033390522003174">
        <ele>309.0</ele>
        <time>2019-04-25T08:11:21.000Z</time>
      </trkpt>
      <trkpt lat="42.41151428222656" lon="-7.03386926651001">
        <ele>311.0</ele>
        <time>2019-04-25T08:11:47.000Z</time>
      </trkpt>
      <trkpt lat="42.41142272949219" lon="-7.034337043762207">
        <ele>312.0</ele>
        <time>2019-04-25T08:12:15.000Z</time>
      </trkpt>
      <trkpt lat="42.41138458251953" lon="-7.034818649291992">
        <ele>311.0</ele>
        <time>2019-04-25T08:12:46.000Z</time>
      </trkpt>
      <trkpt lat="42.41130065917969" lon="-7.035292625427246">
        <ele>309.0</ele>
        <time>2019-04-25T08:13:14.000Z</time>
      </trkpt>
      <trkpt lat="42.41118240356445" lon="-7.0357465744018555">
        <ele>311.0</ele>
        <time>2019-04-25T08:13:42.000Z</time>
      </trkpt>
      <trkpt lat="42.41102981567383" lon="-7.036190032958984">
        <ele>315.0</ele>
        <time>2019-04-25T08:14:08.000Z</time>
      </trkpt>
      <trkpt lat="42.410831451416016" lon="-7.03659200668335">
        <ele>316.0</ele>
        <time>2019-04-25T08:14:37.000Z</time>
      </trkpt>
      <trkpt lat="42.41073226928711" lon="-7.036768436431885">
        <ele>313.0</ele>
        <time>2019-04-25T08:14:57.000Z</time>
      </trkpt>
      <trkpt lat="42.41072082519531" lon="-7.036789894104004">
        <ele>313.0</ele>
        <time>2019-04-25T08:15:16.000Z</time>
      </trkpt>
      <trkpt lat="42.410709381103516" lon="-7.036808013916016">
        <ele>313.0</ele>
        <time>2019-04-25T08:15:17.000Z</time>
      </trkpt>
      <trkpt lat="42.410465240478516" lon="-7.037130832672119">
        <ele>311.0</ele>
        <time>2019-04-25T08:15:31.000Z</time>
      </trkpt>
      <trkpt lat="42.41018295288086" lon="-7.0374250411987305">
        <ele>312.0</ele>
        <time>2019-04-25T08:15:56.000Z</time>
      </trkpt>
      <trkpt lat="42.41014862060547" lon="-7.037519931793213">
        <ele>313.0</ele>
        <time>2019-04-25T08:16:05.000Z</time>
      </trkpt>
      <trkpt lat="42.41011428833008" lon="-7.0375542640686035">
        <ele>313.0</ele>
        <time>2019-04-25T08:16:11.000Z</time>
      </trkpt>
      <trkpt lat="42.410072326660156" lon="-7.037582874298096">
        <ele>313.0</ele>
        <time>2019-04-25T08:16:18.000Z</time>
      </trkpt>
      <trkpt lat="42.41006088256836" lon="-7.037592887878418">
        <ele>313.0</ele>
        <time>2019-04-25T08:16:18.000Z</time>
      </trkpt>
      <trkpt lat="42.41004943847656" lon="-7.037600517272949">
        <ele>313.0</ele>
        <time>2019-04-25T08:16:18.000Z</time>
      </trkpt>
      <trkpt lat="42.41004180908203" lon="-7.037606716156006">
        <ele>313.0</ele>
        <time>2019-04-25T08:16:18.000Z</time>
      </trkpt>
      <trkpt lat="42.410037994384766" lon="-7.037611961364746">
        <ele>313.0</ele>
        <time>2019-04-25T08:16:19.000Z</time>
      </trkpt>
      <trkpt lat="42.40998458862305" lon="-7.037655353546143">
        <ele>313.0</ele>
        <time>2019-04-25T08:16:24.000Z</time>
      </trkpt>
      <trkpt lat="42.409912109375" lon="-7.037713527679443">
        <ele>313.0</ele>
        <time>2019-04-25T08:16:30.000Z</time>
      </trkpt>
      <trkpt lat="42.409828186035156" lon="-7.037782192230225">
        <ele>313.0</ele>
        <time>2019-04-25T08:16:36.000Z</time>
      </trkpt>
      <trkpt lat="42.40973663330078" lon="-7.037855625152588">
        <ele>313.0</ele>
        <time>2019-04-25T08:16:42.000Z</time>
      </trkpt>
      <trkpt lat="42.40971374511719" lon="-7.037876129150391">
        <ele>313.0</ele>
        <time>2019-04-25T08:16:42.000Z</time>
      </trkpt>
      <trkpt lat="42.40970993041992" lon="-7.037879467010498">
        <ele>313.0</ele>
        <time>2019-04-25T08:16:42.000Z</time>
      </trkpt>
      <trkpt lat="42.40971755981445" lon="-7.037871837615967">
        <ele>313.0</ele>
        <time>2019-04-25T08:16:42.000Z</time>
      </trkpt>
      <trkpt lat="42.40973663330078" lon="-7.037858963012695">
        <ele>313.0</ele>
        <time>2019-04-25T08:16:43.000Z</time>
      </trkpt>
      <trkpt lat="42.40972900390625" lon="-7.037862777709961">
        <ele>313.0</ele>
        <time>2019-04-25T08:16:46.000Z</time>
      </trkpt>
      <trkpt lat="42.40972137451172" lon="-7.037868499755859">
        <ele>313.0</ele>
        <time>2019-04-25T08:16:50.000Z</time>
      </trkpt>
      <trkpt lat="42.40971374511719" lon="-7.037875175476074">
        <ele>313.0</ele>
        <time>2019-04-25T08:16:54.000Z</time>
      </trkpt>
      <trkpt lat="42.40970230102539" lon="-7.037881851196289">
        <ele>313.0</ele>
        <time>2019-04-25T08:16:58.000Z</time>
      </trkpt>
      <trkpt lat="42.40969467163086" lon="-7.037886619567871">
        <ele>313.0</ele>
        <time>2019-04-25T08:16:58.000Z</time>
      </trkpt>
      <trkpt lat="42.409690856933594" lon="-7.037890911102295">
        <ele>313.0</ele>
        <time>2019-04-25T08:16:58.000Z</time>
      </trkpt>
      <trkpt lat="42.40968322753906" lon="-7.0378947257995605">
        <ele>313.0</ele>
        <time>2019-04-25T08:16:58.000Z</time>
      </trkpt>
      <trkpt lat="42.4096794128418" lon="-7.037898540496826">
        <ele>313.0</ele>
        <time>2019-04-25T08:16:59.000Z</time>
      </trkpt>
      <trkpt lat="42.409385681152344" lon="-7.038161754608154">
        <ele>313.0</ele>
        <time>2019-04-25T08:17:15.000Z</time>
      </trkpt>
      <trkpt lat="42.40909957885742" lon="-7.03842830657959">
        <ele>314.0</ele>
        <time>2019-04-25T08:17:45.000Z</time>
      </trkpt>
      <trkpt lat="42.40882110595703" lon="-7.0387139320373535">
        <ele>315.0</ele>
        <time>2019-04-25T08:18:13.000Z</time>
      </trkpt>
      <trkpt lat="42.40849304199219" lon="-7.038975238800049">
        <ele>317.0</ele>
        <time>2019-04-25T08:18:44.000Z</time>
      </trkpt>
      <trkpt lat="42.408199310302734" lon="-7.039258003234863">
        <ele>321.0</ele>
        <time>2019-04-25T08:19:14.000Z</time>
      </trkpt>
      <trkpt lat="42.40788650512695" lon="-7.0394673347473145">
        <ele>323.0</ele>
        <time>2019-04-25T08:19:40.000Z</time>
      </trkpt>
      <trkpt lat="42.4075927734375" lon="-7.03975772857666">
        <ele>323.0</ele>
        <time>2019-04-25T08:20:13.000Z</time>
      </trkpt>
      <trkpt lat="42.40732955932617" lon="-7.040078639984131">
        <ele>318.0</ele>
        <time>2019-04-25T08:20:43.000Z</time>
      </trkpt>
      <trkpt lat="42.407005310058594" lon="-7.040277481079102">
        <ele>316.0</ele>
        <time>2019-04-25T08:21:10.000Z</time>
      </trkpt>
      <trkpt lat="42.40681838989258" lon="-7.040391445159912">
        <ele>319.0</ele>
        <time>2019-04-25T08:21:33.000Z</time>
      </trkpt>
      <trkpt lat="42.4067497253418" lon="-7.040421485900879">
        <ele>323.0</ele>
        <time>2019-04-25T08:21:49.000Z</time>
      </trkpt>
      <trkpt lat="42.406715393066406" lon="-7.040436744689941">
        <ele>323.0</ele>
        <time>2019-04-25T08:21:50.000Z</time>
      </trkpt>
      <trkpt lat="42.406394958496094" lon="-7.040642738342285">
        <ele>324.0</ele>
        <time>2019-04-25T08:22:12.000Z</time>
      </trkpt>
      <trkpt lat="42.40611267089844" lon="-7.040920257568359">
        <ele>321.0</ele>
        <time>2019-04-25T08:22:40.000Z</time>
      </trkpt>
      <trkpt lat="42.4058837890625" lon="-7.041284084320068">
        <ele>319.0</ele>
        <time>2019-04-25T08:23:09.000Z</time>
      </trkpt>
      <trkpt lat="42.40574645996094" lon="-7.0417351722717285">
        <ele>323.0</ele>
        <time>2019-04-25T08:23:37.000Z</time>
      </trkpt>
      <trkpt lat="42.40572738647461" lon="-7.0418243408203125">
        <ele>323.0</ele>
        <time>2019-04-25T08:23:47.000Z</time>
      </trkpt>
      <trkpt lat="42.405723571777344" lon="-7.04186487197876">
        <ele>323.0</ele>
        <time>2019-04-25T08:24:00.000Z</time>
      </trkpt>
      <trkpt lat="42.405723571777344" lon="-7.041895389556885">
        <ele>323.0</ele>
        <time>2019-04-25T08:24:01.000Z</time>
      </trkpt>
      <trkpt lat="42.40565490722656" lon="-7.042370319366455">
        <ele>324.0</ele>
        <time>2019-04-25T08:24:17.000Z</time>
      </trkpt>
      <trkpt lat="42.405662536621094" lon="-7.0428290367126465">
        <ele>322.0</ele>
        <time>2019-04-25T08:24:48.000Z</time>
      </trkpt>
      <trkpt lat="42.405677795410156" lon="-7.043308258056641">
        <ele>323.0</ele>
        <time>2019-04-25T08:25:14.000Z</time>
      </trkpt>
      <trkpt lat="42.405677795410156" lon="-7.043787956237793">
        <ele>324.0</ele>
        <time>2019-04-25T08:25:41.000Z</time>
      </trkpt>
      <trkpt lat="42.40574645996094" lon="-7.0442681312561035">
        <ele>322.0</ele>
        <time>2019-04-25T08:26:15.000Z</time>
      </trkpt>
      <trkpt lat="42.40578842163086" lon="-7.044745445251465">
        <ele>325.0</ele>
        <time>2019-04-25T08:26:46.000Z</time>
      </trkpt>
      <trkpt lat="42.405853271484375" lon="-7.045222759246826">
        <ele>325.0</ele>
        <time>2019-04-25T08:27:21.000Z</time>
      </trkpt>
      <trkpt lat="42.40594482421875" lon="-7.045693874359131">
        <ele>322.0</ele>
        <time>2019-04-25T08:27:49.000Z</time>
      </trkpt>
      <trkpt lat="42.40602493286133" lon="-7.046171188354492">
        <ele>322.0</ele>
        <time>2019-04-25T08:28:16.000Z</time>
      </trkpt>
      <trkpt lat="42.40616226196289" lon="-7.046611785888672">
        <ele>322.0</ele>
        <time>2019-04-25T08:28:45.000Z</time>
      </trkpt>
      <trkpt lat="42.40632247924805" lon="-7.047033309936523">
        <ele>321.0</ele>
        <time>2019-04-25T08:29:11.000Z</time>
      </trkpt>
      <trkpt lat="42.406551361083984" lon="-7.047408580780029">
        <ele>324.0</ele>
        <time>2019-04-25T08:29:38.000Z</time>
      </trkpt>
      <trkpt lat="42.406654357910156" lon="-7.047574520111084">
        <ele>323.0</ele>
        <time>2019-04-25T08:29:54.000Z</time>
      </trkpt>
      <trkpt lat="42.406639099121094" lon="-7.047634601593018">
        <ele>324.0</ele>
        <time>2019-04-25T08:30:00.000Z</time>
      </trkpt>
      <trkpt lat="42.4066047668457" lon="-7.047702312469482">
        <ele>325.0</ele>
        <time>2019-04-25T08:30:07.000Z</time>
      </trkpt>
      <trkpt lat="42.406558990478516" lon="-7.0477752685546875">
        <ele>326.0</ele>
        <time>2019-04-25T08:30:13.000Z</time>
      </trkpt>
      <trkpt lat="42.4065055847168" lon="-7.047850608825684">
        <ele>327.0</ele>
        <time>2019-04-25T08:30:20.000Z</time>
      </trkpt>
      <trkpt lat="42.4064826965332" lon="-7.047883987426758">
        <ele>327.0</ele>
        <time>2019-04-25T08:30:27.000Z</time>
      </trkpt>
      <trkpt lat="42.406463623046875" lon="-7.047903060913086">
        <ele>326.0</ele>
        <time>2019-04-25T08:30:34.000Z</time>
      </trkpt>
      <trkpt lat="42.40644836425781" lon="-7.047912120819092">
        <ele>324.0</ele>
        <time>2019-04-25T08:30:41.000Z</time>
      </trkpt>
      <trkpt lat="42.406436920166016" lon="-7.047916412353516">
        <ele>322.0</ele>
        <time>2019-04-25T08:30:48.000Z</time>
      </trkpt>
      <trkpt lat="42.40642547607422" lon="-7.047926425933838">
        <ele>322.0</ele>
        <time>2019-04-25T08:30:48.000Z</time>
      </trkpt>
      <trkpt lat="42.40641784667969" lon="-7.047933578491211">
        <ele>322.0</ele>
        <time>2019-04-25T08:30:48.000Z</time>
      </trkpt>
      <trkpt lat="42.40641403198242" lon="-7.047939300537109">
        <ele>322.0</ele>
        <time>2019-04-25T08:30:48.000Z</time>
      </trkpt>
      <trkpt lat="42.406410217285156" lon="-7.047943592071533">
        <ele>322.0</ele>
        <time>2019-04-25T08:30:49.000Z</time>
      </trkpt>
      <trkpt lat="42.4063606262207" lon="-7.047999382019043">
        <ele>322.0</ele>
        <time>2019-04-25T08:30:55.000Z</time>
      </trkpt>
      <trkpt lat="42.40629577636719" lon="-7.0480756759643555">
        <ele>321.0</ele>
        <time>2019-04-25T08:31:02.000Z</time>
      </trkpt>
      <trkpt lat="42.40621566772461" lon="-7.048165321350098">
        <ele>320.0</ele>
        <time>2019-04-25T08:31:09.000Z</time>
      </trkpt>
      <trkpt lat="42.406131744384766" lon="-7.048262119293213">
        <ele>318.0</ele>
        <time>2019-04-25T08:31:16.000Z</time>
      </trkpt>
      <trkpt lat="42.406070709228516" lon="-7.048443794250488">
        <ele>317.0</ele>
        <time>2019-04-25T08:31:34.000Z</time>
      </trkpt>
      <trkpt lat="42.406044006347656" lon="-7.048635005950928">
        <ele>316.0</ele>
        <time>2019-04-25T08:31:53.000Z</time>
      </trkpt>
      <trkpt lat="42.40603256225586" lon="-7.048679351806641">
        <ele>315.0</ele>
        <time>2019-04-25T08:32:02.000Z</time>
      </trkpt>
      <trkpt lat="42.40602493286133" lon="-7.048702716827393">
        <ele>313.0</ele>
        <time>2019-04-25T08:32:12.000Z</time>
      </trkpt>
      <trkpt lat="42.40602493286133" lon="-7.048712730407715">
        <ele>312.0</ele>
        <time>2019-04-25T08:32:21.000Z</time>
      </trkpt>
      <trkpt lat="42.40602493286133" lon="-7.048715591430664">
        <ele>310.0</ele>
        <time>2019-04-25T08:32:31.000Z</time>
      </trkpt>
      <trkpt lat="42.40602111816406" lon="-7.04872989654541">
        <ele>309.0</ele>
        <time>2019-04-25T08:32:31.000Z</time>
      </trkpt>
      <trkpt lat="42.40602111816406" lon="-7.048741340637207">
        <ele>309.0</ele>
        <time>2019-04-25T08:32:31.000Z</time>
      </trkpt>
      <trkpt lat="42.4060173034668" lon="-7.048751354217529">
        <ele>309.0</ele>
        <time>2019-04-25T08:32:31.000Z</time>
      </trkpt>
      <trkpt lat="42.40601348876953" lon="-7.048760414123535">
        <ele>310.0</ele>
        <time>2019-04-25T08:32:32.000Z</time>
      </trkpt>
      <trkpt lat="42.406009674072266" lon="-7.048843860626221">
        <ele>309.0</ele>
        <time>2019-04-25T08:32:37.000Z</time>
      </trkpt>
      <trkpt lat="42.406002044677734" lon="-7.048957824707031">
        <ele>308.0</ele>
        <time>2019-04-25T08:32:43.000Z</time>
      </trkpt>
      <trkpt lat="42.40599822998047" lon="-7.0490922927856445">
        <ele>307.0</ele>
        <time>2019-04-25T08:32:48.000Z</time>
      </trkpt>
      <trkpt lat="42.40599060058594" lon="-7.049236297607422">
        <ele>306.0</ele>
        <time>2019-04-25T08:32:54.000Z</time>
      </trkpt>
      <trkpt lat="42.40599060058594" lon="-7.049354553222656">
        <ele>306.0</ele>
        <time>2019-04-25T08:33:01.000Z</time>
      </trkpt>
      <trkpt lat="42.4059944152832" lon="-7.049472332000732">
        <ele>306.0</ele>
        <time>2019-04-25T08:33:09.000Z</time>
      </trkpt>
      <trkpt lat="42.406002044677734" lon="-7.049590110778809">
        <ele>305.0</ele>
        <time>2019-04-25T08:33:16.000Z</time>
      </trkpt>
      <trkpt lat="42.406009674072266" lon="-7.049707412719727">
        <ele>305.0</ele>
        <time>2019-04-25T08:33:24.000Z</time>
      </trkpt>
      <trkpt lat="42.40602111816406" lon="-7.049826145172119">
        <ele>305.0</ele>
        <time>2019-04-25T08:33:30.000Z</time>
      </trkpt>
      <trkpt lat="42.40604019165039" lon="-7.049944877624512">
        <ele>305.0</ele>
        <time>2019-04-25T08:33:37.000Z</time>
      </trkpt>
      <trkpt lat="42.40605926513672" lon="-7.050063610076904">
        <ele>305.0</ele>
        <time>2019-04-25T08:33:44.000Z</time>
      </trkpt>
      <trkpt lat="42.40607833862305" lon="-7.050182342529297">
        <ele>305.0</ele>
        <time>2019-04-25T08:33:51.000Z</time>
      </trkpt>
      <trkpt lat="42.40625762939453" lon="-7.05057430267334">
        <ele>308.0</ele>
        <time>2019-04-25T08:34:17.000Z</time>
      </trkpt>
      <trkpt lat="42.40645217895508" lon="-7.050985336303711">
        <ele>307.0</ele>
        <time>2019-04-25T08:34:46.000Z</time>
      </trkpt>
      <trkpt lat="42.40673065185547" lon="-7.051281929016113">
        <ele>304.0</ele>
        <time>2019-04-25T08:35:15.000Z</time>
      </trkpt>
      <trkpt lat="42.40693664550781" lon="-7.051667213439941">
        <ele>306.0</ele>
        <time>2019-04-25T08:35:48.000Z</time>
      </trkpt>
      <trkpt lat="42.40699005126953" lon="-7.051732063293457">
        <ele>306.0</ele>
        <time>2019-04-25T08:36:03.000Z</time>
      </trkpt>
      <trkpt lat="42.407012939453125" lon="-7.051764488220215">
        <ele>306.0</ele>
        <time>2019-04-25T08:36:04.000Z</time>
      </trkpt>
      <trkpt lat="42.407257080078125" lon="-7.052114486694336">
        <ele>306.0</ele>
        <time>2019-04-25T08:36:27.000Z</time>
      </trkpt>
      <trkpt lat="42.407344818115234" lon="-7.052200794219971">
        <ele>306.0</ele>
        <time>2019-04-25T08:36:46.000Z</time>
      </trkpt>
      <trkpt lat="42.407386779785156" lon="-7.0522236824035645">
        <ele>306.0</ele>
        <time>2019-04-25T08:37:47.000Z</time>
      </trkpt>
      <trkpt lat="42.407413482666016" lon="-7.052238464355469">
        <ele>306.0</ele>
        <time>2019-04-25T08:37:48.000Z</time>
      </trkpt>
      <trkpt lat="42.4077033996582" lon="-7.052524089813232">
        <ele>306.0</ele>
        <time>2019-04-25T08:38:08.000Z</time>
      </trkpt>
      <trkpt lat="42.40797805786133" lon="-7.0528411865234375">
        <ele>306.0</ele>
        <time>2019-04-25T08:38:36.000Z</time>
      </trkpt>
      <trkpt lat="42.40829849243164" lon="-7.053008556365967">
        <ele>307.0</ele>
        <time>2019-04-25T08:39:06.000Z</time>
      </trkpt>
      <trkpt lat="42.40863800048828" lon="-7.0531325340271">
        <ele>309.0</ele>
        <time>2019-04-25T08:39:35.000Z</time>
      </trkpt>
      <trkpt lat="42.408992767333984" lon="-7.053128242492676">
        <ele>308.0</ele>
        <time>2019-04-25T08:40:06.000Z</time>
      </trkpt>
      <trkpt lat="42.409156799316406" lon="-7.053219318389893">
        <ele>308.0</ele>
        <time>2019-04-25T08:40:21.000Z</time>
      </trkpt>
      <trkpt lat="42.4093132019043" lon="-7.0533528327941895">
        <ele>308.0</ele>
        <time>2019-04-25T08:40:37.000Z</time>
      </trkpt>
      <trkpt lat="42.409366607666016" lon="-7.053399085998535">
        <ele>307.0</ele>
        <time>2019-04-25T08:40:41.000Z</time>
      </trkpt>
      <trkpt lat="42.40940475463867" lon="-7.053441524505615">
        <ele>307.0</ele>
        <time>2019-04-25T08:40:45.000Z</time>
      </trkpt>
      <trkpt lat="42.4094352722168" lon="-7.053480625152588">
        <ele>307.0</ele>
        <time>2019-04-25T08:40:49.000Z</time>
      </trkpt>
      <trkpt lat="42.409461975097656" lon="-7.053518772125244">
        <ele>307.0</ele>
        <time>2019-04-25T08:40:54.000Z</time>
      </trkpt>
      <trkpt lat="42.4095458984375" lon="-7.0535502433776855">
        <ele>307.0</ele>
        <time>2019-04-25T08:40:59.000Z</time>
      </trkpt>
      <trkpt lat="42.40963363647461" lon="-7.053558349609375">
        <ele>307.0</ele>
        <time>2019-04-25T08:41:04.000Z</time>
      </trkpt>
      <trkpt lat="42.40966796875" lon="-7.053569793701172">
        <ele>307.0</ele>
        <time>2019-04-25T08:41:07.000Z</time>
      </trkpt>
      <trkpt lat="42.40970230102539" lon="-7.053582191467285">
        <ele>307.0</ele>
        <time>2019-04-25T08:41:10.000Z</time>
      </trkpt>
      <trkpt lat="42.40973663330078" lon="-7.053595066070557">
        <ele>307.0</ele>
        <time>2019-04-25T08:41:13.000Z</time>
      </trkpt>
      <trkpt lat="42.40977096557617" lon="-7.053607940673828">
        <ele>307.0</ele>
        <time>2019-04-25T08:41:17.000Z</time>
      </trkpt>
      <trkpt lat="42.40984344482422" lon="-7.05371618270874">
        <ele>307.0</ele>
        <time>2019-04-25T08:41:27.000Z</time>
      </trkpt>
      <trkpt lat="42.409915924072266" lon="-7.053863048553467">
        <ele>307.0</ele>
        <time>2019-04-25T08:41:37.000Z</time>
      </trkpt>
      <trkpt lat="42.409969329833984" lon="-7.053943634033203">
        <ele>306.0</ele>
        <time>2019-04-25T08:41:44.000Z</time>
      </trkpt>
      <trkpt lat="42.410030364990234" lon="-7.0540313720703125">
        <ele>306.0</ele>
        <time>2019-04-25T08:41:52.000Z</time>
      </trkpt>
      <trkpt lat="42.410099029541016" lon="-7.054123878479004">
        <ele>305.0</ele>
        <time>2019-04-25T08:42:00.000Z</time>
      </trkpt>
      <trkpt lat="42.41016387939453" lon="-7.054218769073486">
        <ele>305.0</ele>
        <time>2019-04-25T08:42:08.000Z</time>
      </trkpt>
      <trkpt lat="42.41022872924805" lon="-7.05430793762207">
        <ele>304.0</ele>
        <time>2019-04-25T08:42:15.000Z</time>
      </trkpt>
      <trkpt lat="42.4102897644043" lon="-7.054396629333496">
        <ele>304.0</ele>
        <time>2019-04-25T08:42:22.000Z</time>
      </trkpt>
      <trkpt lat="42.41035079956055" lon="-7.054485321044922">
        <ele>304.0</ele>
        <time>2019-04-25T08:42:29.000Z</time>
      </trkpt>
      <trkpt lat="42.4104118347168" lon="-7.054574012756348">
        <ele>304.0</ele>
        <time>2019-04-25T08:42:36.000Z</time>
      </trkpt>
      <trkpt lat="42.41046142578125" lon="-7.054673194885254">
        <ele>303.0</ele>
        <time>2019-04-25T08:42:43.000Z</time>
      </trkpt>
      <trkpt lat="42.41050720214844" lon="-7.054776191711426">
        <ele>303.0</ele>
        <time>2019-04-25T08:42:50.000Z</time>
      </trkpt>
      <trkpt lat="42.410545349121094" lon="-7.054882526397705">
        <ele>302.0</ele>
        <time>2019-04-25T08:42:57.000Z</time>
      </trkpt>
      <trkpt lat="42.410587310791016" lon="-7.054989814758301">
        <ele>301.0</ele>
        <time>2019-04-25T08:43:05.000Z</time>
      </trkpt>
      <trkpt lat="42.41064453125" lon="-7.05507755279541">
        <ele>301.0</ele>
        <time>2019-04-25T08:43:13.000Z</time>
      </trkpt>
      <trkpt lat="42.41070556640625" lon="-7.0551581382751465">
        <ele>301.0</ele>
        <time>2019-04-25T08:43:21.000Z</time>
      </trkpt>
      <trkpt lat="42.410770416259766" lon="-7.055233955383301">
        <ele>301.0</ele>
        <time>2019-04-25T08:43:29.000Z</time>
      </trkpt>
      <trkpt lat="42.41083526611328" lon="-7.055307865142822">
        <ele>302.0</ele>
        <time>2019-04-25T08:43:37.000Z</time>
      </trkpt>
      <trkpt lat="42.410858154296875" lon="-7.055409908294678">
        <ele>302.0</ele>
        <time>2019-04-25T08:43:44.000Z</time>
      </trkpt>
      <trkpt lat="42.410865783691406" lon="-7.0555219650268555">
        <ele>301.0</ele>
        <time>2019-04-25T08:43:51.000Z</time>
      </trkpt>
      <trkpt lat="42.41086196899414" lon="-7.055639743804932">
        <ele>301.0</ele>
        <time>2019-04-25T08:43:58.000Z</time>
      </trkpt>
      <trkpt lat="42.410850524902344" lon="-7.055761337280273">
        <ele>300.0</ele>
        <time>2019-04-25T08:44:06.000Z</time>
      </trkpt>
      <trkpt lat="42.410850524902344" lon="-7.055878639221191">
        <ele>300.0</ele>
        <time>2019-04-25T08:44:13.000Z</time>
      </trkpt>
      <trkpt lat="42.41084671020508" lon="-7.055997371673584">
        <ele>300.0</ele>
        <time>2019-04-25T08:44:20.000Z</time>
      </trkpt>
      <trkpt lat="42.41084289550781" lon="-7.056117057800293">
        <ele>300.0</ele>
        <time>2019-04-25T08:44:27.000Z</time>
      </trkpt>
      <trkpt lat="42.41083526611328" lon="-7.056237697601318">
        <ele>300.0</ele>
        <time>2019-04-25T08:44:34.000Z</time>
      </trkpt>
      <trkpt lat="42.41084671020508" lon="-7.056354522705078">
        <ele>300.0</ele>
        <time>2019-04-25T08:44:41.000Z</time>
      </trkpt>
      <trkpt lat="42.410865783691406" lon="-7.0564703941345215">
        <ele>301.0</ele>
        <time>2019-04-25T08:44:49.000Z</time>
      </trkpt>
      <trkpt lat="42.410888671875" lon="-7.056585311889648">
        <ele>301.0</ele>
        <time>2019-04-25T08:44:57.000Z</time>
      </trkpt>
      <trkpt lat="42.41091537475586" lon="-7.056700229644775">
        <ele>302.0</ele>
        <time>2019-04-25T08:45:05.000Z</time>
      </trkpt>
      <trkpt lat="42.410919189453125" lon="-7.056820869445801">
        <ele>302.0</ele>
        <time>2019-04-25T08:45:12.000Z</time>
      </trkpt>
      <trkpt lat="42.410919189453125" lon="-7.056943893432617">
        <ele>303.0</ele>
        <time>2019-04-25T08:45:19.000Z</time>
      </trkpt>
      <trkpt lat="42.41091537475586" lon="-7.057068347930908">
        <ele>303.0</ele>
        <time>2019-04-25T08:45:26.000Z</time>
      </trkpt>
      <trkpt lat="42.410911560058594" lon="-7.057193279266357">
        <ele>303.0</ele>
        <time>2019-04-25T08:45:34.000Z</time>
      </trkpt>
      <trkpt lat="42.41091537475586" lon="-7.057312965393066">
        <ele>304.0</ele>
        <time>2019-04-25T08:45:41.000Z</time>
      </trkpt>
      <trkpt lat="42.41092300415039" lon="-7.057431697845459">
        <ele>304.0</ele>
        <time>2019-04-25T08:45:48.000Z</time>
      </trkpt>
      <trkpt lat="42.41093063354492" lon="-7.057549476623535">
        <ele>305.0</ele>
        <time>2019-04-25T08:45:55.000Z</time>
      </trkpt>
      <trkpt lat="42.41093826293945" lon="-7.057667255401611">
        <ele>306.0</ele>
        <time>2019-04-25T08:46:02.000Z</time>
      </trkpt>
      <trkpt lat="42.410926818847656" lon="-7.057784080505371">
        <ele>306.0</ele>
        <time>2019-04-25T08:46:08.000Z</time>
      </trkpt>
      <trkpt lat="42.410911560058594" lon="-7.057900428771973">
        <ele>307.0</ele>
        <time>2019-04-25T08:46:15.000Z</time>
      </trkpt>
      <trkpt lat="42.410888671875" lon="-7.058016300201416">
        <ele>307.0</ele>
        <time>2019-04-25T08:46:22.000Z</time>
      </trkpt>
      <trkpt lat="42.410865783691406" lon="-7.058132171630859">
        <ele>307.0</ele>
        <time>2019-04-25T08:46:29.000Z</time>
      </trkpt>
      <trkpt lat="42.41072082519531" lon="-7.0585761070251465">
        <ele>301.0</ele>
        <time>2019-04-25T08:47:03.000Z</time>
      </trkpt>
      <trkpt lat="42.41054916381836" lon="-7.058998107910156">
        <ele>297.0</ele>
        <time>2019-04-25T08:47:35.000Z</time>
      </trkpt>
      <trkpt lat="42.41035842895508" lon="-7.059409141540527">
        <ele>294.0</ele>
        <time>2019-04-25T08:48:02.000Z</time>
      </trkpt>
      <trkpt lat="42.410316467285156" lon="-7.059472560882568">
        <ele>294.0</ele>
        <time>2019-04-25T08:48:12.000Z</time>
      </trkpt>
      <trkpt lat="42.41029357910156" lon="-7.059516906738281">
        <ele>296.0</ele>
        <time>2019-04-25T08:48:57.000Z</time>
      </trkpt>
      <trkpt lat="42.410282135009766" lon="-7.059546947479248">
        <ele>296.0</ele>
        <time>2019-04-25T08:48:58.000Z</time>
      </trkpt>
      <trkpt lat="42.41006851196289" lon="-7.059938430786133">
        <ele>298.0</ele>
        <time>2019-04-25T08:49:19.000Z</time>
      </trkpt>
      <trkpt lat="42.40995788574219" lon="-7.060401439666748">
        <ele>301.0</ele>
        <time>2019-04-25T08:49:47.000Z</time>
      </trkpt>
      <trkpt lat="42.40980911254883" lon="-7.060834884643555">
        <ele>302.0</ele>
        <time>2019-04-25T08:50:22.000Z</time>
      </trkpt>
      <trkpt lat="42.409793853759766" lon="-7.060953140258789">
        <ele>304.0</ele>
        <time>2019-04-25T08:50:33.000Z</time>
      </trkpt>
      <trkpt lat="42.40980911254883" lon="-7.061025142669678">
        <ele>305.0</ele>
        <time>2019-04-25T08:50:45.000Z</time>
      </trkpt>
      <trkpt lat="42.40980529785156" lon="-7.061049461364746">
        <ele>305.0</ele>
        <time>2019-04-25T08:50:52.000Z</time>
      </trkpt>
      <trkpt lat="42.4098014831543" lon="-7.06106424331665">
        <ele>305.0</ele>
        <time>2019-04-25T08:51:00.000Z</time>
      </trkpt>
      <trkpt lat="42.40979766845703" lon="-7.061072826385498">
        <ele>304.0</ele>
        <time>2019-04-25T08:51:08.000Z</time>
      </trkpt>
      <trkpt lat="42.409793853759766" lon="-7.06107759475708">
        <ele>304.0</ele>
        <time>2019-04-25T08:51:16.000Z</time>
      </trkpt>
      <trkpt lat="42.4097900390625" lon="-7.061087608337402">
        <ele>303.0</ele>
        <time>2019-04-25T08:51:16.000Z</time>
      </trkpt>
      <trkpt lat="42.4097900390625" lon="-7.061096668243408">
        <ele>303.0</ele>
        <time>2019-04-25T08:51:16.000Z</time>
      </trkpt>
      <trkpt lat="42.409786224365234" lon="-7.061104774475098">
        <ele>303.0</ele>
        <time>2019-04-25T08:51:16.000Z</time>
      </trkpt>
      <trkpt lat="42.40978240966797" lon="-7.061112403869629">
        <ele>304.0</ele>
        <time>2019-04-25T08:51:17.000Z</time>
      </trkpt>
      <trkpt lat="42.40977096557617" lon="-7.061193466186523">
        <ele>303.0</ele>
        <time>2019-04-25T08:51:23.000Z</time>
      </trkpt>
      <trkpt lat="42.40974807739258" lon="-7.061305046081543">
        <ele>302.0</ele>
        <time>2019-04-25T08:51:29.000Z</time>
      </trkpt>
      <trkpt lat="42.409725189208984" lon="-7.061436653137207">
        <ele>301.0</ele>
        <time>2019-04-25T08:51:35.000Z</time>
      </trkpt>
      <trkpt lat="42.40970230102539" lon="-7.061578750610352">
        <ele>300.0</ele>
        <time>2019-04-25T08:51:42.000Z</time>
      </trkpt>
      <trkpt lat="42.40968322753906" lon="-7.061656475067139">
        <ele>299.0</ele>
        <time>2019-04-25T08:51:46.000Z</time>
      </trkpt>
      <trkpt lat="42.40966796875" lon="-7.061717987060547">
        <ele>298.0</ele>
        <time>2019-04-25T08:51:50.000Z</time>
      </trkpt>
      <trkpt lat="42.40965270996094" lon="-7.061768531799316">
        <ele>297.0</ele>
        <time>2019-04-25T08:51:54.000Z</time>
      </trkpt>
      <trkpt lat="42.40963363647461" lon="-7.061813831329346">
        <ele>296.0</ele>
        <time>2019-04-25T08:51:59.000Z</time>
      </trkpt>
      <trkpt lat="42.409637451171875" lon="-7.061873912811279">
        <ele>296.0</ele>
        <time>2019-04-25T08:52:04.000Z</time>
      </trkpt>
      <trkpt lat="42.40964889526367" lon="-7.061934471130371">
        <ele>295.0</ele>
        <time>2019-04-25T08:52:10.000Z</time>
      </trkpt>
      <trkpt lat="42.40966796875" lon="-7.061995983123779">
        <ele>295.0</ele>
        <time>2019-04-25T08:52:16.000Z</time>
      </trkpt>
      <trkpt lat="42.40968704223633" lon="-7.062057018280029">
        <ele>295.0</ele>
        <time>2019-04-25T08:52:22.000Z</time>
      </trkpt>
      <trkpt lat="42.40969467163086" lon="-7.062117099761963">
        <ele>295.0</ele>
        <time>2019-04-25T08:52:28.000Z</time>
      </trkpt>
      <trkpt lat="42.40970230102539" lon="-7.0621771812438965">
        <ele>295.0</ele>
        <time>2019-04-25T08:52:34.000Z</time>
      </trkpt>
      <trkpt lat="42.409706115722656" lon="-7.062236309051514">
        <ele>295.0</ele>
        <time>2019-04-25T08:52:40.000Z</time>
      </trkpt>
      <trkpt lat="42.40970993041992" lon="-7.062295913696289">
        <ele>295.0</ele>
        <time>2019-04-25T08:52:46.000Z</time>
      </trkpt>
      <trkpt lat="42.409751892089844" lon="-7.062436580657959">
        <ele>305.0</ele>
        <time>2019-04-25T09:01:04.000Z</time>
      </trkpt>
      <trkpt lat="42.40978240966797" lon="-7.062706470489502">
        <ele>306.0</ele>
        <time>2019-04-25T09:01:23.000Z</time>
      </trkpt>
      <trkpt lat="42.40978240966797" lon="-7.062706470489502">
        <ele>306.0</ele>
        <time>2019-04-25T09:01:24.000Z</time>
      </trkpt>
      <trkpt lat="42.4097900390625" lon="-7.063187599182129">
        <ele>304.0</ele>
        <time>2019-04-25T09:01:56.000Z</time>
      </trkpt>
      <trkpt lat="42.40983200073242" lon="-7.063672065734863">
        <ele>305.0</ele>
        <time>2019-04-25T09:02:23.000Z</time>
      </trkpt>
      <trkpt lat="42.409881591796875" lon="-7.064143180847168">
        <ele>309.0</ele>
        <time>2019-04-25T09:02:58.000Z</time>
      </trkpt>
      <trkpt lat="42.40991973876953" lon="-7.06463098526001">
        <ele>309.0</ele>
        <time>2019-04-25T09:03:27.000Z</time>
      </trkpt>
      <trkpt lat="42.40996170043945" lon="-7.065123558044434">
        <ele>313.0</ele>
        <time>2019-04-25T09:03:55.000Z</time>
      </trkpt>
      <trkpt lat="42.409912109375" lon="-7.065351963043213">
        <ele>312.0</ele>
        <time>2019-04-25T09:04:10.000Z</time>
      </trkpt>
      <trkpt lat="42.409828186035156" lon="-7.065572261810303">
        <ele>309.0</ele>
        <time>2019-04-25T09:04:26.000Z</time>
      </trkpt>
      <trkpt lat="42.4097900390625" lon="-7.065680980682373">
        <ele>309.0</ele>
        <time>2019-04-25T09:04:33.000Z</time>
      </trkpt>
      <trkpt lat="42.409751892089844" lon="-7.065788269042969">
        <ele>309.0</ele>
        <time>2019-04-25T09:04:40.000Z</time>
      </trkpt>
      <trkpt lat="42.40970993041992" lon="-7.065894603729248">
        <ele>309.0</ele>
        <time>2019-04-25T09:04:47.000Z</time>
      </trkpt>
      <trkpt lat="42.40966796875" lon="-7.066000461578369">
        <ele>309.0</ele>
        <time>2019-04-25T09:04:55.000Z</time>
      </trkpt>
      <trkpt lat="42.40964126586914" lon="-7.066099643707275">
        <ele>310.0</ele>
        <time>2019-04-25T09:05:02.000Z</time>
      </trkpt>
      <trkpt lat="42.40961456298828" lon="-7.066195964813232">
        <ele>311.0</ele>
        <time>2019-04-25T09:05:10.000Z</time>
      </trkpt>
      <trkpt lat="42.40959548950195" lon="-7.066289901733398">
        <ele>312.0</ele>
        <time>2019-04-25T09:05:17.000Z</time>
      </trkpt>
      <trkpt lat="42.409576416015625" lon="-7.066383361816406">
        <ele>313.0</ele>
        <time>2019-04-25T09:05:25.000Z</time>
      </trkpt>
      <trkpt lat="42.40956115722656" lon="-7.066414833068848">
        <ele>314.0</ele>
        <time>2019-04-25T09:05:28.000Z</time>
      </trkpt>
      <trkpt lat="42.409549713134766" lon="-7.06641960144043">
        <ele>315.0</ele>
        <time>2019-04-25T09:05:30.000Z</time>
      </trkpt>
      <trkpt lat="42.409542083740234" lon="-7.066406726837158">
        <ele>315.0</ele>
        <time>2019-04-25T09:05:33.000Z</time>
      </trkpt>
      <trkpt lat="42.40953063964844" lon="-7.066384792327881">
        <ele>316.0</ele>
        <time>2019-04-25T09:05:36.000Z</time>
      </trkpt>
      <trkpt lat="42.40952682495117" lon="-7.066390514373779">
        <ele>317.0</ele>
        <time>2019-04-25T09:05:42.000Z</time>
      </trkpt>
      <trkpt lat="42.40952682495117" lon="-7.066398620605469">
        <ele>317.0</ele>
        <time>2019-04-25T09:05:48.000Z</time>
      </trkpt>
      <trkpt lat="42.40952682495117" lon="-7.066408157348633">
        <ele>317.0</ele>
        <time>2019-04-25T09:05:53.000Z</time>
      </trkpt>
      <trkpt lat="42.40952682495117" lon="-7.066418647766113">
        <ele>317.0</ele>
        <time>2019-04-25T09:05:59.000Z</time>
      </trkpt>
      <trkpt lat="42.409523010253906" lon="-7.066425800323486">
        <ele>317.0</ele>
        <time>2019-04-25T09:05:59.000Z</time>
      </trkpt>
      <trkpt lat="42.409523010253906" lon="-7.066432476043701">
        <ele>317.0</ele>
        <time>2019-04-25T09:05:59.000Z</time>
      </trkpt>
      <trkpt lat="42.409523010253906" lon="-7.066438674926758">
        <ele>317.0</ele>
        <time>2019-04-25T09:05:59.000Z</time>
      </trkpt>
      <trkpt lat="42.40951919555664" lon="-7.0664448738098145">
        <ele>317.0</ele>
        <time>2019-04-25T09:06:00.000Z</time>
      </trkpt>
      <trkpt lat="42.40949630737305" lon="-7.0665202140808105">
        <ele>316.0</ele>
        <time>2019-04-25T09:06:04.000Z</time>
      </trkpt>
      <trkpt lat="42.40945816040039" lon="-7.066624164581299">
        <ele>316.0</ele>
        <time>2019-04-25T09:06:08.000Z</time>
      </trkpt>
      <trkpt lat="42.4094123840332" lon="-7.066747665405273">
        <ele>315.0</ele>
        <time>2019-04-25T09:06:12.000Z</time>
      </trkpt>
      <trkpt lat="42.409366607666016" lon="-7.066880226135254">
        <ele>314.0</ele>
        <time>2019-04-25T09:06:16.000Z</time>
      </trkpt>
      <trkpt lat="42.40932846069336" lon="-7.066991806030273">
        <ele>314.0</ele>
        <time>2019-04-25T09:06:23.000Z</time>
      </trkpt>
      <trkpt lat="42.40929412841797" lon="-7.067104339599609">
        <ele>313.0</ele>
        <time>2019-04-25T09:06:30.000Z</time>
      </trkpt>
      <trkpt lat="42.40925598144531" lon="-7.0672173500061035">
        <ele>313.0</ele>
        <time>2019-04-25T09:06:37.000Z</time>
      </trkpt>
      <trkpt lat="42.40922164916992" lon="-7.067330837249756">
        <ele>313.0</ele>
        <time>2019-04-25T09:06:45.000Z</time>
      </trkpt>
      <trkpt lat="42.409183502197266" lon="-7.067441940307617">
        <ele>312.0</ele>
        <time>2019-04-25T09:06:52.000Z</time>
      </trkpt>
      <trkpt lat="42.409141540527344" lon="-7.067551612854004">
        <ele>312.0</ele>
        <time>2019-04-25T09:07:00.000Z</time>
      </trkpt>
      <trkpt lat="42.40909957885742" lon="-7.067661285400391">
        <ele>311.0</ele>
        <time>2019-04-25T09:07:08.000Z</time>
      </trkpt>
      <trkpt lat="42.4090576171875" lon="-7.067770957946777">
        <ele>311.0</ele>
        <time>2019-04-25T09:07:16.000Z</time>
      </trkpt>
      <trkpt lat="42.409019470214844" lon="-7.067879676818848">
        <ele>312.0</ele>
        <time>2019-04-25T09:07:23.000Z</time>
      </trkpt>
      <trkpt lat="42.40898132324219" lon="-7.067987442016602">
        <ele>312.0</ele>
        <time>2019-04-25T09:07:30.000Z</time>
      </trkpt>
      <trkpt lat="42.40894317626953" lon="-7.068095684051514">
        <ele>313.0</ele>
        <time>2019-04-25T09:07:37.000Z</time>
      </trkpt>
      <trkpt lat="42.40890884399414" lon="-7.068202972412109">
        <ele>314.0</ele>
        <time>2019-04-25T09:07:45.000Z</time>
      </trkpt>
      <trkpt lat="42.408748626708984" lon="-7.068637847900391">
        <ele>316.0</ele>
        <time>2019-04-25T09:08:12.000Z</time>
      </trkpt>
      <trkpt lat="42.4085693359375" lon="-7.069070339202881">
        <ele>317.0</ele>
        <time>2019-04-25T09:08:42.000Z</time>
      </trkpt>
      <trkpt lat="42.408409118652344" lon="-7.069549560546875">
        <ele>315.0</ele>
        <time>2019-04-25T09:09:13.000Z</time>
      </trkpt>
      <trkpt lat="42.40825271606445" lon="-7.069987773895264">
        <ele>311.0</ele>
        <time>2019-04-25T09:09:43.000Z</time>
      </trkpt>
      <trkpt lat="42.4080696105957" lon="-7.070412635803223">
        <ele>309.0</ele>
        <time>2019-04-25T09:10:10.000Z</time>
      </trkpt>
      <trkpt lat="42.407928466796875" lon="-7.070852756500244">
        <ele>311.0</ele>
        <time>2019-04-25T09:10:39.000Z</time>
      </trkpt>
      <trkpt lat="42.40776443481445" lon="-7.071272850036621">
        <ele>309.0</ele>
        <time>2019-04-25T09:11:11.000Z</time>
      </trkpt>
      <trkpt lat="42.407623291015625" lon="-7.071715354919434">
        <ele>306.0</ele>
        <time>2019-04-25T09:11:39.000Z</time>
      </trkpt>
      <trkpt lat="42.407466888427734" lon="-7.072155952453613">
        <ele>306.0</ele>
        <time>2019-04-25T09:12:09.000Z</time>
      </trkpt>
      <trkpt lat="42.40731430053711" lon="-7.072592735290527">
        <ele>311.0</ele>
        <time>2019-04-25T09:12:44.000Z</time>
      </trkpt>
      <trkpt lat="42.407169342041016" lon="-7.073024272918701">
        <ele>309.0</ele>
        <time>2019-04-25T09:13:22.000Z</time>
      </trkpt>
      <trkpt lat="42.40699005126953" lon="-7.0734429359436035">
        <ele>313.0</ele>
        <time>2019-04-25T09:13:55.000Z</time>
      </trkpt>
      <trkpt lat="42.40681457519531" lon="-7.073868751525879">
        <ele>315.0</ele>
        <time>2019-04-25T09:14:25.000Z</time>
      </trkpt>
      <trkpt lat="42.406646728515625" lon="-7.0742974281311035">
        <ele>313.0</ele>
        <time>2019-04-25T09:14:56.000Z</time>
      </trkpt>
      <trkpt lat="42.40646743774414" lon="-7.0747199058532715">
        <ele>312.0</ele>
        <time>2019-04-25T09:15:26.000Z</time>
      </trkpt>
      <trkpt lat="42.40627670288086" lon="-7.075131893157959">
        <ele>313.0</ele>
        <time>2019-04-25T09:15:56.000Z</time>
      </trkpt>
      <trkpt lat="42.40606689453125" lon="-7.075534820556641">
        <ele>314.0</ele>
        <time>2019-04-25T09:16:26.000Z</time>
      </trkpt>
      <trkpt lat="42.40585708618164" lon="-7.075923442840576">
        <ele>317.0</ele>
        <time>2019-04-25T09:16:54.000Z</time>
      </trkpt>
      <trkpt lat="42.40568161010742" lon="-7.076350688934326">
        <ele>314.0</ele>
        <time>2019-04-25T09:17:27.000Z</time>
      </trkpt>
      <trkpt lat="42.40548324584961" lon="-7.076752185821533">
        <ele>312.0</ele>
        <time>2019-04-25T09:17:58.000Z</time>
      </trkpt>
      <trkpt lat="42.40532302856445" lon="-7.077183723449707">
        <ele>312.0</ele>
        <time>2019-04-25T09:18:29.000Z</time>
      </trkpt>
      <trkpt lat="42.405113220214844" lon="-7.0775651931762695">
        <ele>316.0</ele>
        <time>2019-04-25T09:18:58.000Z</time>
      </trkpt>
      <trkpt lat="42.40492248535156" lon="-7.077969551086426">
        <ele>317.0</ele>
        <time>2019-04-25T09:19:37.000Z</time>
      </trkpt>
      <trkpt lat="42.404701232910156" lon="-7.078347682952881">
        <ele>314.0</ele>
        <time>2019-04-25T09:20:08.000Z</time>
      </trkpt>
      <trkpt lat="42.40443420410156" lon="-7.0786590576171875">
        <ele>311.0</ele>
        <time>2019-04-25T09:20:39.000Z</time>
      </trkpt>
      <trkpt lat="42.404273986816406" lon="-7.078800678253174">
        <ele>312.0</ele>
        <time>2019-04-25T09:20:56.000Z</time>
      </trkpt>
      <trkpt lat="42.40425109863281" lon="-7.07882833480835">
        <ele>313.0</ele>
        <time>2019-04-25T09:21:04.000Z</time>
      </trkpt>
      <trkpt lat="42.40424728393555" lon="-7.078840255737305">
        <ele>313.0</ele>
        <time>2019-04-25T09:21:16.000Z</time>
      </trkpt>
      <trkpt lat="42.40424728393555" lon="-7.078854560852051">
        <ele>313.0</ele>
        <time>2019-04-25T09:21:27.000Z</time>
      </trkpt>
      <trkpt lat="42.40425109863281" lon="-7.0788702964782715">
        <ele>313.0</ele>
        <time>2019-04-25T09:21:39.000Z</time>
      </trkpt>
      <trkpt lat="42.40425109863281" lon="-7.07888650894165">
        <ele>312.0</ele>
        <time>2019-04-25T09:21:50.000Z</time>
      </trkpt>
      <trkpt lat="42.40425109863281" lon="-7.078897476196289">
        <ele>312.0</ele>
        <time>2019-04-25T09:21:51.000Z</time>
      </trkpt>
      <trkpt lat="42.40425109863281" lon="-7.078907012939453">
        <ele>312.0</ele>
        <time>2019-04-25T09:21:51.000Z</time>
      </trkpt>
      <trkpt lat="42.40425109863281" lon="-7.078915596008301">
        <ele>312.0</ele>
        <time>2019-04-25T09:21:51.000Z</time>
      </trkpt>
      <trkpt lat="42.40425109863281" lon="-7.07892370223999">
        <ele>312.0</ele>
        <time>2019-04-25T09:21:51.000Z</time>
      </trkpt>
      <trkpt lat="42.40424728393555" lon="-7.078968048095703">
        <ele>312.0</ele>
        <time>2019-04-25T09:21:54.000Z</time>
      </trkpt>
      <trkpt lat="42.40424346923828" lon="-7.079026699066162">
        <ele>312.0</ele>
        <time>2019-04-25T09:21:56.000Z</time>
      </trkpt>
      <trkpt lat="42.404239654541016" lon="-7.079095363616943">
        <ele>312.0</ele>
        <time>2019-04-25T09:21:58.000Z</time>
      </trkpt>
      <trkpt lat="42.40423583984375" lon="-7.079168319702148">
        <ele>312.0</ele>
        <time>2019-04-25T09:22:00.000Z</time>
      </trkpt>
      <trkpt lat="42.404212951660156" lon="-7.07926607131958">
        <ele>312.0</ele>
        <time>2019-04-25T09:22:09.000Z</time>
      </trkpt>
      <trkpt lat="42.4041862487793" lon="-7.079379081726074">
        <ele>311.0</ele>
        <time>2019-04-25T09:22:18.000Z</time>
      </trkpt>
      <trkpt lat="42.40415573120117" lon="-7.079502105712891">
        <ele>311.0</ele>
        <time>2019-04-25T09:22:27.000Z</time>
      </trkpt>
      <trkpt lat="42.40412521362305" lon="-7.079630374908447">
        <ele>310.0</ele>
        <time>2019-04-25T09:22:36.000Z</time>
      </trkpt>
      <trkpt lat="42.40409851074219" lon="-7.079746723175049">
        <ele>310.0</ele>
        <time>2019-04-25T09:22:44.000Z</time>
      </trkpt>
      <trkpt lat="42.404075622558594" lon="-7.07986307144165">
        <ele>310.0</ele>
        <time>2019-04-25T09:22:52.000Z</time>
      </trkpt>
      <trkpt lat="42.404052734375" lon="-7.079979419708252">
        <ele>311.0</ele>
        <time>2019-04-25T09:23:00.000Z</time>
      </trkpt>
      <trkpt lat="42.404029846191406" lon="-7.080096244812012">
        <ele>311.0</ele>
        <time>2019-04-25T09:23:08.000Z</time>
      </trkpt>
      <trkpt lat="42.404048919677734" lon="-7.080333709716797">
        <ele>313.0</ele>
        <time>2019-04-25T09:23:24.000Z</time>
      </trkpt>
      <trkpt lat="42.40410232543945" lon="-7.080573081970215">
        <ele>317.0</ele>
        <time>2019-04-25T09:23:40.000Z</time>
      </trkpt>
      <trkpt lat="42.40412902832031" lon="-7.0806884765625">
        <ele>318.0</ele>
        <time>2019-04-25T09:23:48.000Z</time>
      </trkpt>
      <trkpt lat="42.40415573120117" lon="-7.0808024406433105">
        <ele>319.0</ele>
        <time>2019-04-25T09:23:57.000Z</time>
      </trkpt>
      <trkpt lat="42.40419006347656" lon="-7.080915451049805">
        <ele>320.0</ele>
        <time>2019-04-25T09:24:06.000Z</time>
      </trkpt>
      <trkpt lat="42.40422058105469" lon="-7.081027507781982">
        <ele>321.0</ele>
        <time>2019-04-25T09:24:15.000Z</time>
      </trkpt>
      <trkpt lat="42.40420913696289" lon="-7.081167697906494">
        <ele>322.0</ele>
        <time>2019-04-25T09:24:28.000Z</time>
      </trkpt>
      <trkpt lat="42.40416717529297" lon="-7.081267356872559">
        <ele>324.0</ele>
        <time>2019-04-25T09:24:42.000Z</time>
      </trkpt>
      <trkpt lat="42.40414047241211" lon="-7.081319332122803">
        <ele>325.0</ele>
        <time>2019-04-25T09:26:55.000Z</time>
      </trkpt>
      <trkpt lat="42.404109954833984" lon="-7.081340312957764">
        <ele>325.0</ele>
        <time>2019-04-25T09:29:09.000Z</time>
      </trkpt>
      <trkpt lat="42.40409851074219" lon="-7.081352233886719">
        <ele>325.0</ele>
        <time>2019-04-25T09:29:09.000Z</time>
      </trkpt>
      <trkpt lat="42.40409469604492" lon="-7.081360816955566">
        <ele>325.0</ele>
        <time>2019-04-25T09:29:09.000Z</time>
      </trkpt>
      <trkpt lat="42.40408706665039" lon="-7.081367492675781">
        <ele>325.0</ele>
        <time>2019-04-25T09:29:09.000Z</time>
      </trkpt>
      <trkpt lat="42.404083251953125" lon="-7.081373691558838">
        <ele>325.0</ele>
        <time>2019-04-25T09:29:10.000Z</time>
      </trkpt>
      <trkpt lat="42.4040641784668" lon="-7.08140230178833">
        <ele>325.0</ele>
        <time>2019-04-25T09:29:11.000Z</time>
      </trkpt>
      <trkpt lat="42.40403747558594" lon="-7.081439971923828">
        <ele>325.0</ele>
        <time>2019-04-25T09:29:12.000Z</time>
      </trkpt>
      <trkpt lat="42.40400695800781" lon="-7.081483364105225">
        <ele>325.0</ele>
        <time>2019-04-25T09:29:13.000Z</time>
      </trkpt>
      <trkpt lat="42.40397644042969" lon="-7.081529140472412">
        <ele>325.0</ele>
        <time>2019-04-25T09:29:15.000Z</time>
      </trkpt>
      <trkpt lat="42.40394592285156" lon="-7.081655025482178">
        <ele>324.0</ele>
        <time>2019-04-25T09:29:23.000Z</time>
      </trkpt>
      <trkpt lat="42.40392303466797" lon="-7.081802845001221">
        <ele>324.0</ele>
        <time>2019-04-25T09:29:31.000Z</time>
      </trkpt>
      <trkpt lat="42.40388870239258" lon="-7.081891059875488">
        <ele>324.0</ele>
        <time>2019-04-25T09:29:38.000Z</time>
      </trkpt>
      <trkpt lat="42.403839111328125" lon="-7.0819878578186035">
        <ele>324.0</ele>
        <time>2019-04-25T09:29:46.000Z</time>
      </trkpt>
      <trkpt lat="42.40378952026367" lon="-7.082090377807617">
        <ele>324.0</ele>
        <time>2019-04-25T09:29:54.000Z</time>
      </trkpt>
      <trkpt lat="42.40373229980469" lon="-7.08219575881958">
        <ele>325.0</ele>
        <time>2019-04-25T09:30:02.000Z</time>
      </trkpt>
      <trkpt lat="42.403690338134766" lon="-7.082298755645752">
        <ele>324.0</ele>
        <time>2019-04-25T09:30:09.000Z</time>
      </trkpt>
      <trkpt lat="42.403648376464844" lon="-7.082404136657715">
        <ele>323.0</ele>
        <time>2019-04-25T09:30:16.000Z</time>
      </trkpt>
      <trkpt lat="42.40360641479492" lon="-7.082510471343994">
        <ele>322.0</ele>
        <time>2019-04-25T09:30:23.000Z</time>
      </trkpt>
      <trkpt lat="42.403564453125" lon="-7.082618236541748">
        <ele>321.0</ele>
        <time>2019-04-25T09:30:30.000Z</time>
      </trkpt>
      <trkpt lat="42.40351486206055" lon="-7.082714080810547">
        <ele>321.0</ele>
        <time>2019-04-25T09:30:37.000Z</time>
      </trkpt>
      <trkpt lat="42.40346145629883" lon="-7.08280611038208">
        <ele>321.0</ele>
        <time>2019-04-25T09:30:45.000Z</time>
      </trkpt>
      <trkpt lat="42.403404235839844" lon="-7.082895278930664">
        <ele>322.0</ele>
        <time>2019-04-25T09:30:53.000Z</time>
      </trkpt>
      <trkpt lat="42.403343200683594" lon="-7.082983016967773">
        <ele>323.0</ele>
        <time>2019-04-25T09:31:01.000Z</time>
      </trkpt>
      <trkpt lat="42.40329360961914" lon="-7.083077430725098">
        <ele>322.0</ele>
        <time>2019-04-25T09:31:08.000Z</time>
      </trkpt>
      <trkpt lat="42.40324401855469" lon="-7.0831732749938965">
        <ele>322.0</ele>
        <time>2019-04-25T09:31:15.000Z</time>
      </trkpt>
      <trkpt lat="42.403194427490234" lon="-7.0832695960998535">
        <ele>322.0</ele>
        <time>2019-04-25T09:31:22.000Z</time>
      </trkpt>
      <trkpt lat="42.40314483642578" lon="-7.083366870880127">
        <ele>321.0</ele>
        <time>2019-04-25T09:31:30.000Z</time>
      </trkpt>
      <trkpt lat="42.403099060058594" lon="-7.083468437194824">
        <ele>321.0</ele>
        <time>2019-04-25T09:31:37.000Z</time>
      </trkpt>
      <trkpt lat="42.40305709838867" lon="-7.0835723876953125">
        <ele>320.0</ele>
        <time>2019-04-25T09:31:45.000Z</time>
      </trkpt>
      <trkpt lat="42.40301513671875" lon="-7.083678245544434">
        <ele>320.0</ele>
        <time>2019-04-25T09:31:52.000Z</time>
      </trkpt>
      <trkpt lat="42.402976989746094" lon="-7.083784580230713">
        <ele>320.0</ele>
        <time>2019-04-25T09:32:00.000Z</time>
      </trkpt>
      <trkpt lat="42.40275192260742" lon="-7.084158420562744">
        <ele>318.0</ele>
        <time>2019-04-25T09:32:32.000Z</time>
      </trkpt>
      <trkpt lat="42.40251159667969" lon="-7.084522724151611">
        <ele>313.0</ele>
        <time>2019-04-25T09:33:03.000Z</time>
      </trkpt>
      <trkpt lat="42.402278900146484" lon="-7.084891319274902">
        <ele>316.0</ele>
        <time>2019-04-25T09:33:32.000Z</time>
      </trkpt>
      <trkpt lat="42.40196228027344" lon="-7.08511209487915">
        <ele>314.0</ele>
        <time>2019-04-25T09:34:01.000Z</time>
      </trkpt>
      <trkpt lat="42.40165328979492" lon="-7.0853352546691895">
        <ele>309.0</ele>
        <time>2019-04-25T09:34:34.000Z</time>
      </trkpt>
      <trkpt lat="42.40131759643555" lon="-7.0854878425598145">
        <ele>314.0</ele>
        <time>2019-04-25T09:35:06.000Z</time>
      </trkpt>
      <trkpt lat="42.40118408203125" lon="-7.085638999938965">
        <ele>321.0</ele>
        <time>2019-04-25T09:35:23.000Z</time>
      </trkpt>
      <trkpt lat="42.40106201171875" lon="-7.085824966430664">
        <ele>328.0</ele>
        <time>2019-04-25T09:35:40.000Z</time>
      </trkpt>
      <trkpt lat="42.40099334716797" lon="-7.08590030670166">
        <ele>331.0</ele>
        <time>2019-04-25T09:35:47.000Z</time>
      </trkpt>
      <trkpt lat="42.40092086791992" lon="-7.085971832275391">
        <ele>334.0</ele>
        <time>2019-04-25T09:35:54.000Z</time>
      </trkpt>
      <trkpt lat="42.40084457397461" lon="-7.086040496826172">
        <ele>337.0</ele>
        <time>2019-04-25T09:36:01.000Z</time>
      </trkpt>
      <trkpt lat="42.4007682800293" lon="-7.086108207702637">
        <ele>340.0</ele>
        <time>2019-04-25T09:36:08.000Z</time>
      </trkpt>
      <trkpt lat="42.40071487426758" lon="-7.086200714111328">
        <ele>341.0</ele>
        <time>2019-04-25T09:36:16.000Z</time>
      </trkpt>
      <trkpt lat="42.400665283203125" lon="-7.086301803588867">
        <ele>342.0</ele>
        <time>2019-04-25T09:36:24.000Z</time>
      </trkpt>
      <trkpt lat="42.4006233215332" lon="-7.086409091949463">
        <ele>342.0</ele>
        <time>2019-04-25T09:36:32.000Z</time>
      </trkpt>
      <trkpt lat="42.40058135986328" lon="-7.086519718170166">
        <ele>342.0</ele>
        <time>2019-04-25T09:36:41.000Z</time>
      </trkpt>
      <trkpt lat="42.40053176879883" lon="-7.0866193771362305">
        <ele>342.0</ele>
        <time>2019-04-25T09:36:49.000Z</time>
      </trkpt>
      <trkpt lat="42.400482177734375" lon="-7.08671760559082">
        <ele>342.0</ele>
        <time>2019-04-25T09:36:57.000Z</time>
      </trkpt>
      <trkpt lat="42.40043258666992" lon="-7.086814880371094">
        <ele>341.0</ele>
        <time>2019-04-25T09:37:05.000Z</time>
      </trkpt>
      <trkpt lat="42.40038299560547" lon="-7.086912155151367">
        <ele>341.0</ele>
        <time>2019-04-25T09:37:13.000Z</time>
      </trkpt>
      <trkpt lat="42.400230407714844" lon="-7.087025165557861">
        <ele>339.0</ele>
        <time>2019-04-25T09:37:29.000Z</time>
      </trkpt>
      <trkpt lat="42.400054931640625" lon="-7.087100028991699">
        <ele>336.0</ele>
        <time>2019-04-25T09:37:46.000Z</time>
      </trkpt>
      <trkpt lat="42.39997482299805" lon="-7.087152004241943">
        <ele>335.0</ele>
        <time>2019-04-25T09:37:52.000Z</time>
      </trkpt>
      <trkpt lat="42.39989471435547" lon="-7.08720588684082">
        <ele>335.0</ele>
        <time>2019-04-25T09:37:59.000Z</time>
      </trkpt>
      <trkpt lat="42.399818420410156" lon="-7.087260723114014">
        <ele>334.0</ele>
        <time>2019-04-25T09:38:06.000Z</time>
      </trkpt>
      <trkpt lat="42.39973831176758" lon="-7.087316513061523">
        <ele>334.0</ele>
        <time>2019-04-25T09:38:13.000Z</time>
      </trkpt>
      <trkpt lat="42.39966583251953" lon="-7.087384223937988">
        <ele>334.0</ele>
        <time>2019-04-25T09:38:22.000Z</time>
      </trkpt>
      <trkpt lat="42.399593353271484" lon="-7.08745813369751">
        <ele>335.0</ele>
        <time>2019-04-25T09:38:31.000Z</time>
      </trkpt>
      <trkpt lat="42.3995246887207" lon="-7.087535858154297">
        <ele>337.0</ele>
        <time>2019-04-25T09:38:40.000Z</time>
      </trkpt>
      <trkpt lat="42.39945983886719" lon="-7.087615489959717">
        <ele>338.0</ele>
        <time>2019-04-25T09:38:49.000Z</time>
      </trkpt>
      <trkpt lat="42.39938735961914" lon="-7.087687969207764">
        <ele>339.0</ele>
        <time>2019-04-25T09:38:56.000Z</time>
      </trkpt>
      <trkpt lat="42.399314880371094" lon="-7.0877604484558105">
        <ele>340.0</ele>
        <time>2019-04-25T09:39:03.000Z</time>
      </trkpt>
      <trkpt lat="42.39924240112305" lon="-7.087831974029541">
        <ele>341.0</ele>
        <time>2019-04-25T09:39:10.000Z</time>
      </trkpt>
      <trkpt lat="42.399169921875" lon="-7.0879034996032715">
        <ele>342.0</ele>
        <time>2019-04-25T09:39:18.000Z</time>
      </trkpt>
      <trkpt lat="42.399105072021484" lon="-7.087982654571533">
        <ele>342.0</ele>
        <time>2019-04-25T09:39:25.000Z</time>
      </trkpt>
      <trkpt lat="42.39904022216797" lon="-7.088064670562744">
        <ele>341.0</ele>
        <time>2019-04-25T09:39:33.000Z</time>
      </trkpt>
      <trkpt lat="42.39897537231445" lon="-7.088149070739746">
        <ele>341.0</ele>
        <time>2019-04-25T09:39:41.000Z</time>
      </trkpt>
      <trkpt lat="42.39891052246094" lon="-7.088233947753906">
        <ele>340.0</ele>
        <time>2019-04-25T09:39:49.000Z</time>
      </trkpt>
      <trkpt lat="42.39884567260742" lon="-7.088316440582275">
        <ele>339.0</ele>
        <time>2019-04-25T09:39:56.000Z</time>
      </trkpt>
      <trkpt lat="42.398780822753906" lon="-7.088398456573486">
        <ele>339.0</ele>
        <time>2019-04-25T09:40:03.000Z</time>
      </trkpt>
      <trkpt lat="42.39871597290039" lon="-7.088480472564697">
        <ele>339.0</ele>
        <time>2019-04-25T09:40:10.000Z</time>
      </trkpt>
      <trkpt lat="42.398651123046875" lon="-7.088562965393066">
        <ele>338.0</ele>
        <time>2019-04-25T09:40:18.000Z</time>
      </trkpt>
      <trkpt lat="42.3984375" lon="-7.088943958282471">
        <ele>338.0</ele>
        <time>2019-04-25T09:40:47.000Z</time>
      </trkpt>
      <trkpt lat="42.398189544677734" lon="-7.08928918838501">
        <ele>332.0</ele>
        <time>2019-04-25T09:41:18.000Z</time>
      </trkpt>
      <trkpt lat="42.39789962768555" lon="-7.089576244354248">
        <ele>334.0</ele>
        <time>2019-04-25T09:41:46.000Z</time>
      </trkpt>
      <trkpt lat="42.39778137207031" lon="-7.0896897315979">
        <ele>335.0</ele>
        <time>2019-04-25T09:42:05.000Z</time>
      </trkpt>
      <trkpt lat="42.39775466918945" lon="-7.089725494384766">
        <ele>336.0</ele>
        <time>2019-04-25T09:42:28.000Z</time>
      </trkpt>
      <trkpt lat="42.397735595703125" lon="-7.089750289916992">
        <ele>336.0</ele>
        <time>2019-04-25T09:42:29.000Z</time>
      </trkpt>
      <trkpt lat="42.3975944519043" lon="-7.089916229248047">
        <ele>335.0</ele>
        <time>2019-04-25T09:42:34.000Z</time>
      </trkpt>
      <trkpt lat="42.39745330810547" lon="-7.090106010437012">
        <ele>336.0</ele>
        <time>2019-04-25T09:42:52.000Z</time>
      </trkpt>
      <trkpt lat="42.39723205566406" lon="-7.090482711791992">
        <ele>331.0</ele>
        <time>2019-04-25T09:43:25.000Z</time>
      </trkpt>
      <trkpt lat="42.3969612121582" lon="-7.090810775756836">
        <ele>326.0</ele>
        <time>2019-04-25T09:43:54.000Z</time>
      </trkpt>
      <trkpt lat="42.39679718017578" lon="-7.091236114501953">
        <ele>325.0</ele>
        <time>2019-04-25T09:44:23.000Z</time>
      </trkpt>
      <trkpt lat="42.39674377441406" lon="-7.09171724319458">
        <ele>322.0</ele>
        <time>2019-04-25T09:44:55.000Z</time>
      </trkpt>
      <trkpt lat="42.396724700927734" lon="-7.09220027923584">
        <ele>323.0</ele>
        <time>2019-04-25T09:45:29.000Z</time>
      </trkpt>
      <trkpt lat="42.39667510986328" lon="-7.0926313400268555">
        <ele>320.0</ele>
        <time>2019-04-25T09:45:56.000Z</time>
      </trkpt>
      <trkpt lat="42.39663314819336" lon="-7.092886447906494">
        <ele>319.0</ele>
        <time>2019-04-25T09:46:12.000Z</time>
      </trkpt>
      <trkpt lat="42.396610260009766" lon="-7.093149185180664">
        <ele>320.0</ele>
        <time>2019-04-25T09:46:29.000Z</time>
      </trkpt>
      <trkpt lat="42.39659881591797" lon="-7.093408584594727">
        <ele>320.0</ele>
        <time>2019-04-25T09:46:46.000Z</time>
      </trkpt>
      <trkpt lat="42.39659118652344" lon="-7.0936689376831055">
        <ele>320.0</ele>
        <time>2019-04-25T09:47:06.000Z</time>
      </trkpt>
      <trkpt lat="42.396583557128906" lon="-7.093930721282959">
        <ele>320.0</ele>
        <time>2019-04-25T09:47:23.000Z</time>
      </trkpt>
      <trkpt lat="42.39653396606445" lon="-7.094174861907959">
        <ele>323.0</ele>
        <time>2019-04-25T09:47:39.000Z</time>
      </trkpt>
      <trkpt lat="42.39653778076172" lon="-7.094427108764648">
        <ele>322.0</ele>
        <time>2019-04-25T09:47:58.000Z</time>
      </trkpt>
      <trkpt lat="42.39651870727539" lon="-7.094693660736084">
        <ele>319.0</ele>
        <time>2019-04-25T09:48:17.000Z</time>
      </trkpt>
      <trkpt lat="42.3964958190918" lon="-7.094951629638672">
        <ele>316.0</ele>
        <time>2019-04-25T09:48:35.000Z</time>
      </trkpt>
      <trkpt lat="42.39643859863281" lon="-7.095193386077881">
        <ele>313.0</ele>
        <time>2019-04-25T09:48:52.000Z</time>
      </trkpt>
      <trkpt lat="42.396427154541016" lon="-7.095455646514893">
        <ele>315.0</ele>
        <time>2019-04-25T09:49:07.000Z</time>
      </trkpt>
      <trkpt lat="42.396461486816406" lon="-7.095709323883057">
        <ele>318.0</ele>
        <time>2019-04-25T09:49:20.000Z</time>
      </trkpt>
      <trkpt lat="42.396446228027344" lon="-7.095961093902588">
        <ele>320.0</ele>
        <time>2019-04-25T09:49:36.000Z</time>
      </trkpt>
      <trkpt lat="42.39642333984375" lon="-7.096221923828125">
        <ele>323.0</ele>
        <time>2019-04-25T09:49:51.000Z</time>
      </trkpt>
      <trkpt lat="42.39637756347656" lon="-7.096479415893555">
        <ele>321.0</ele>
        <time>2019-04-25T09:50:07.000Z</time>
      </trkpt>
      <trkpt lat="42.39640426635742" lon="-7.09674072265625">
        <ele>318.0</ele>
        <time>2019-04-25T09:50:23.000Z</time>
      </trkpt>
      <trkpt lat="42.39645767211914" lon="-7.096982955932617">
        <ele>319.0</ele>
        <time>2019-04-25T09:50:37.000Z</time>
      </trkpt>
      <trkpt lat="42.39655685424805" lon="-7.097208499908447">
        <ele>319.0</ele>
        <time>2019-04-25T09:51:01.000Z</time>
      </trkpt>
      <trkpt lat="42.39662551879883" lon="-7.097239971160889">
        <ele>319.0</ele>
        <time>2019-04-25T09:51:07.000Z</time>
      </trkpt>
      <trkpt lat="42.39670944213867" lon="-7.09726095199585">
        <ele>320.0</ele>
        <time>2019-04-25T09:51:14.000Z</time>
      </trkpt>
      <trkpt lat="42.39680862426758" lon="-7.097275257110596">
        <ele>321.0</ele>
        <time>2019-04-25T09:51:20.000Z</time>
      </trkpt>
      <trkpt lat="42.396915435791016" lon="-7.097285747528076">
        <ele>322.0</ele>
        <time>2019-04-25T09:51:27.000Z</time>
      </trkpt>
      <trkpt lat="42.397003173828125" lon="-7.097311496734619">
        <ele>322.0</ele>
        <time>2019-04-25T09:51:35.000Z</time>
      </trkpt>
      <trkpt lat="42.397090911865234" lon="-7.097339630126953">
        <ele>321.0</ele>
        <time>2019-04-25T09:51:43.000Z</time>
      </trkpt>
      <trkpt lat="42.397178649902344" lon="-7.09736967086792">
        <ele>321.0</ele>
        <time>2019-04-25T09:51:51.000Z</time>
      </trkpt>
      <trkpt lat="42.39726638793945" lon="-7.097400188446045">
        <ele>320.0</ele>
        <time>2019-04-25T09:52:00.000Z</time>
      </trkpt>
      <trkpt lat="42.3973388671875" lon="-7.097410202026367">
        <ele>319.0</ele>
        <time>2019-04-25T09:52:05.000Z</time>
      </trkpt>
      <trkpt lat="42.39740753173828" lon="-7.097412586212158">
        <ele>318.0</ele>
        <time>2019-04-25T09:52:10.000Z</time>
      </trkpt>
      <trkpt lat="42.39746856689453" lon="-7.097409248352051">
        <ele>317.0</ele>
        <time>2019-04-25T09:52:15.000Z</time>
      </trkpt>
      <trkpt lat="42.39752960205078" lon="-7.097403526306152">
        <ele>316.0</ele>
        <time>2019-04-25T09:52:20.000Z</time>
      </trkpt>
      <trkpt lat="42.397552490234375" lon="-7.097446918487549">
        <ele>315.0</ele>
        <time>2019-04-25T09:52:24.000Z</time>
      </trkpt>
      <trkpt lat="42.39755630493164" lon="-7.097507476806641">
        <ele>315.0</ele>
        <time>2019-04-25T09:52:27.000Z</time>
      </trkpt>
      <trkpt lat="42.39754867553711" lon="-7.0975799560546875">
        <ele>315.0</ele>
        <time>2019-04-25T09:52:31.000Z</time>
      </trkpt>
      <trkpt lat="42.39753723144531" lon="-7.097658157348633">
        <ele>315.0</ele>
        <time>2019-04-25T09:52:35.000Z</time>
      </trkpt>
      <trkpt lat="42.397544860839844" lon="-7.097720146179199">
        <ele>315.0</ele>
        <time>2019-04-25T09:52:39.000Z</time>
      </trkpt>
      <trkpt lat="42.39755630493164" lon="-7.097781658172607">
        <ele>316.0</ele>
        <time>2019-04-25T09:52:43.000Z</time>
      </trkpt>
      <trkpt lat="42.3975715637207" lon="-7.097842693328857">
        <ele>316.0</ele>
        <time>2019-04-25T09:52:47.000Z</time>
      </trkpt>
      <trkpt lat="42.397586822509766" lon="-7.097903251647949">
        <ele>317.0</ele>
        <time>2019-04-25T09:52:51.000Z</time>
      </trkpt>
      <trkpt lat="42.397605895996094" lon="-7.097956657409668">
        <ele>319.0</ele>
        <time>2019-04-25T09:52:55.000Z</time>
      </trkpt>
      <trkpt lat="42.39762878417969" lon="-7.098006725311279">
        <ele>321.0</ele>
        <time>2019-04-25T09:52:59.000Z</time>
      </trkpt>
      <trkpt lat="42.39765548706055" lon="-7.098054885864258">
        <ele>322.0</ele>
        <time>2019-04-25T09:53:03.000Z</time>
      </trkpt>
      <trkpt lat="42.397682189941406" lon="-7.098101615905762">
        <ele>325.0</ele>
        <time>2019-04-25T09:53:07.000Z</time>
      </trkpt>
      <trkpt lat="42.3976936340332" lon="-7.098124027252197">
        <ele>325.0</ele>
        <time>2019-04-25T09:53:08.000Z</time>
      </trkpt>
      <trkpt lat="42.39769744873047" lon="-7.098134994506836">
        <ele>326.0</ele>
        <time>2019-04-25T09:53:09.000Z</time>
      </trkpt>
      <trkpt lat="42.39769744873047" lon="-7.098138809204102">
        <ele>326.0</ele>
        <time>2019-04-25T09:53:10.000Z</time>
      </trkpt>
      <trkpt lat="42.39769744873047" lon="-7.098138332366943">
        <ele>325.0</ele>
        <time>2019-04-25T09:53:11.000Z</time>
      </trkpt>
      <trkpt lat="42.397701263427734" lon="-7.098148822784424">
        <ele>326.0</ele>
        <time>2019-04-25T09:53:15.000Z</time>
      </trkpt>
      <trkpt lat="42.397705078125" lon="-7.0981597900390625">
        <ele>326.0</ele>
        <time>2019-04-25T09:53:19.000Z</time>
      </trkpt>
      <trkpt lat="42.397708892822266" lon="-7.098170757293701">
        <ele>327.0</ele>
        <time>2019-04-25T09:53:23.000Z</time>
      </trkpt>
      <trkpt lat="42.3977165222168" lon="-7.098182201385498">
        <ele>327.0</ele>
        <time>2019-04-25T09:53:27.000Z</time>
      </trkpt>
      <trkpt lat="42.39772033691406" lon="-7.098191261291504">
        <ele>328.0</ele>
        <time>2019-04-25T09:53:27.000Z</time>
      </trkpt>
      <trkpt lat="42.39772415161133" lon="-7.098199367523193">
        <ele>328.0</ele>
        <time>2019-04-25T09:53:27.000Z</time>
      </trkpt>
      <trkpt lat="42.397727966308594" lon="-7.098206996917725">
        <ele>328.0</ele>
        <time>2019-04-25T09:53:27.000Z</time>
      </trkpt>
      <trkpt lat="42.39773178100586" lon="-7.098214626312256">
        <ele>327.0</ele>
        <time>2019-04-25T09:53:28.000Z</time>
      </trkpt>
      <trkpt lat="42.397804260253906" lon="-7.0984015464782715">
        <ele>328.0</ele>
        <time>2019-04-25T09:53:30.000Z</time>
      </trkpt>
      <trkpt lat="42.397987365722656" lon="-7.098820686340332">
        <ele>324.0</ele>
        <time>2019-04-25T09:54:00.000Z</time>
      </trkpt>
      <trkpt lat="42.39807891845703" lon="-7.0991339683532715">
        <ele>319.0</ele>
        <time>2019-04-25T09:54:23.000Z</time>
      </trkpt>
      <trkpt lat="42.398189544677734" lon="-7.099332809448242">
        <ele>318.0</ele>
        <time>2019-04-25T09:54:37.000Z</time>
      </trkpt>
      <trkpt lat="42.3983154296875" lon="-7.099540710449219">
        <ele>320.0</ele>
        <time>2019-04-25T09:54:53.000Z</time>
      </trkpt>
      <trkpt lat="42.3984489440918" lon="-7.099729061126709">
        <ele>321.0</ele>
        <time>2019-04-25T09:55:08.000Z</time>
      </trkpt>
      <trkpt lat="42.398563385009766" lon="-7.099946022033691">
        <ele>316.0</ele>
        <time>2019-04-25T09:55:25.000Z</time>
      </trkpt>
      <trkpt lat="42.398616790771484" lon="-7.100186824798584">
        <ele>317.0</ele>
        <time>2019-04-25T09:55:39.000Z</time>
      </trkpt>
      <trkpt lat="42.39860153198242" lon="-7.100238800048828">
        <ele>317.0</ele>
        <time>2019-04-25T09:55:42.000Z</time>
      </trkpt>
      <trkpt lat="42.39857482910156" lon="-7.100286483764648">
        <ele>316.0</ele>
        <time>2019-04-25T09:55:46.000Z</time>
      </trkpt>
      <trkpt lat="42.39854049682617" lon="-7.100332260131836">
        <ele>316.0</ele>
        <time>2019-04-25T09:55:50.000Z</time>
      </trkpt>
      <trkpt lat="42.398502349853516" lon="-7.100376605987549">
        <ele>315.0</ele>
        <time>2019-04-25T09:55:54.000Z</time>
      </trkpt>
      <trkpt lat="42.39847946166992" lon="-7.100429534912109">
        <ele>315.0</ele>
        <time>2019-04-25T09:55:57.000Z</time>
      </trkpt>
      <trkpt lat="42.398460388183594" lon="-7.100484848022461">
        <ele>315.0</ele>
        <time>2019-04-25T09:56:01.000Z</time>
      </trkpt>
      <trkpt lat="42.398441314697266" lon="-7.100541591644287">
        <ele>314.0</ele>
        <time>2019-04-25T09:56:05.000Z</time>
      </trkpt>
      <trkpt lat="42.3984260559082" lon="-7.10059928894043">
        <ele>314.0</ele>
        <time>2019-04-25T09:56:09.000Z</time>
      </trkpt>
      <trkpt lat="42.3984375" lon="-7.100646495819092">
        <ele>314.0</ele>
        <time>2019-04-25T09:56:14.000Z</time>
      </trkpt>
      <trkpt lat="42.398460388183594" lon="-7.1006903648376465">
        <ele>315.0</ele>
        <time>2019-04-25T09:56:19.000Z</time>
      </trkpt>
      <trkpt lat="42.39849090576172" lon="-7.100732326507568">
        <ele>315.0</ele>
        <time>2019-04-25T09:56:24.000Z</time>
      </trkpt>
      <trkpt lat="42.398529052734375" lon="-7.100772857666016">
        <ele>316.0</ele>
        <time>2019-04-25T09:56:29.000Z</time>
      </trkpt>
      <trkpt lat="42.39856719970703" lon="-7.100790977478027">
        <ele>317.0</ele>
        <time>2019-04-25T09:56:32.000Z</time>
      </trkpt>
      <trkpt lat="42.39861297607422" lon="-7.100798606872559">
        <ele>318.0</ele>
        <time>2019-04-25T09:56:36.000Z</time>
      </trkpt>
      <trkpt lat="42.39866256713867" lon="-7.100799560546875">
        <ele>319.0</ele>
        <time>2019-04-25T09:56:39.000Z</time>
      </trkpt>
      <trkpt lat="42.39871597290039" lon="-7.100796699523926">
        <ele>320.0</ele>
        <time>2019-04-25T09:56:43.000Z</time>
      </trkpt>
      <trkpt lat="42.39879608154297" lon="-7.100856304168701">
        <ele>322.0</ele>
        <time>2019-04-25T09:56:52.000Z</time>
      </trkpt>
      <trkpt lat="42.398868560791016" lon="-7.100938320159912">
        <ele>325.0</ele>
        <time>2019-04-25T09:57:01.000Z</time>
      </trkpt>
      <trkpt lat="42.39890670776367" lon="-7.100979804992676">
        <ele>325.0</ele>
        <time>2019-04-25T09:57:05.000Z</time>
      </trkpt>
      <trkpt lat="42.39894104003906" lon="-7.1010236740112305">
        <ele>326.0</ele>
        <time>2019-04-25T09:57:10.000Z</time>
      </trkpt>
      <trkpt lat="42.39897155761719" lon="-7.101069450378418">
        <ele>327.0</ele>
        <time>2019-04-25T09:57:15.000Z</time>
      </trkpt>
      <trkpt lat="42.39900588989258" lon="-7.101115703582764">
        <ele>328.0</ele>
        <time>2019-04-25T09:57:20.000Z</time>
      </trkpt>
      <trkpt lat="42.399044036865234" lon="-7.101113796234131">
        <ele>329.0</ele>
        <time>2019-04-25T09:57:26.000Z</time>
      </trkpt>
      <trkpt lat="42.399085998535156" lon="-7.101092338562012">
        <ele>330.0</ele>
        <time>2019-04-25T09:57:33.000Z</time>
      </trkpt>
      <trkpt lat="42.399131774902344" lon="-7.101058006286621">
        <ele>331.0</ele>
        <time>2019-04-25T09:57:40.000Z</time>
      </trkpt>
      <trkpt lat="42.399173736572266" lon="-7.101017475128174">
        <ele>332.0</ele>
        <time>2019-04-25T09:57:47.000Z</time>
      </trkpt>
      <trkpt lat="42.39921951293945" lon="-7.101007461547852">
        <ele>332.0</ele>
        <time>2019-04-25T09:57:51.000Z</time>
      </trkpt>
      <trkpt lat="42.399269104003906" lon="-7.101003646850586">
        <ele>333.0</ele>
        <time>2019-04-25T09:57:55.000Z</time>
      </trkpt>
      <trkpt lat="42.39931869506836" lon="-7.101003646850586">
        <ele>333.0</ele>
        <time>2019-04-25T09:57:59.000Z</time>
      </trkpt>
      <trkpt lat="42.39936828613281" lon="-7.101005554199219">
        <ele>333.0</ele>
        <time>2019-04-25T09:58:03.000Z</time>
      </trkpt>
      <trkpt lat="42.39945602416992" lon="-7.100955963134766">
        <ele>335.0</ele>
        <time>2019-04-25T09:58:12.000Z</time>
      </trkpt>
      <trkpt lat="42.3995361328125" lon="-7.10088586807251">
        <ele>338.0</ele>
        <time>2019-04-25T09:58:22.000Z</time>
      </trkpt>
      <trkpt lat="42.39958190917969" lon="-7.100865364074707">
        <ele>338.0</ele>
        <time>2019-04-25T09:58:26.000Z</time>
      </trkpt>
      <trkpt lat="42.399627685546875" lon="-7.100849151611328">
        <ele>338.0</ele>
        <time>2019-04-25T09:58:30.000Z</time>
      </trkpt>
      <trkpt lat="42.39967346191406" lon="-7.10083532333374">
        <ele>338.0</ele>
        <time>2019-04-25T09:58:34.000Z</time>
      </trkpt>
      <trkpt lat="42.39971923828125" lon="-7.100823402404785">
        <ele>337.0</ele>
        <time>2019-04-25T09:58:39.000Z</time>
      </trkpt>
      <trkpt lat="42.39976501464844" lon="-7.100808620452881">
        <ele>337.0</ele>
        <time>2019-04-25T09:58:43.000Z</time>
      </trkpt>
      <trkpt lat="42.399810791015625" lon="-7.100793838500977">
        <ele>336.0</ele>
        <time>2019-04-25T09:58:47.000Z</time>
      </trkpt>
      <trkpt lat="42.39985275268555" lon="-7.1007795333862305">
        <ele>336.0</ele>
        <time>2019-04-25T09:58:51.000Z</time>
      </trkpt>
      <trkpt lat="42.399898529052734" lon="-7.100765705108643">
        <ele>336.0</ele>
        <time>2019-04-25T09:58:56.000Z</time>
      </trkpt>
      <trkpt lat="42.39991760253906" lon="-7.10075569152832">
        <ele>335.0</ele>
        <time>2019-04-25T09:58:58.000Z</time>
      </trkpt>
      <trkpt lat="42.399925231933594" lon="-7.100748062133789">
        <ele>335.0</ele>
        <time>2019-04-25T09:59:00.000Z</time>
      </trkpt>
      <trkpt lat="42.39992904663086" lon="-7.100741386413574">
        <ele>335.0</ele>
        <time>2019-04-25T09:59:02.000Z</time>
      </trkpt>
      <trkpt lat="42.399925231933594" lon="-7.100735664367676">
        <ele>335.0</ele>
        <time>2019-04-25T09:59:04.000Z</time>
      </trkpt>
      <trkpt lat="42.39993667602539" lon="-7.1007304191589355">
        <ele>335.0</ele>
        <time>2019-04-25T09:59:10.000Z</time>
      </trkpt>
      <trkpt lat="42.39994430541992" lon="-7.1007256507873535">
        <ele>336.0</ele>
        <time>2019-04-25T09:59:17.000Z</time>
      </trkpt>
      <trkpt lat="42.39995574951172" lon="-7.10072135925293">
        <ele>338.0</ele>
        <time>2019-04-25T09:59:24.000Z</time>
      </trkpt>
      <trkpt lat="42.39997100830078" lon="-7.100717067718506">
        <ele>339.0</ele>
        <time>2019-04-25T09:59:31.000Z</time>
      </trkpt>
      <trkpt lat="42.39997863769531" lon="-7.100713729858398">
        <ele>340.0</ele>
        <time>2019-04-25T09:59:31.000Z</time>
      </trkpt>
      <trkpt lat="42.399986267089844" lon="-7.100710868835449">
        <ele>340.0</ele>
        <time>2019-04-25T09:59:31.000Z</time>
      </trkpt>
      <trkpt lat="42.39999008178711" lon="-7.1007080078125">
        <ele>340.0</ele>
        <time>2019-04-25T09:59:31.000Z</time>
      </trkpt>
      <trkpt lat="42.39999771118164" lon="-7.100705623626709">
        <ele>339.0</ele>
        <time>2019-04-25T09:59:32.000Z</time>
      </trkpt>
      <trkpt lat="42.40011978149414" lon="-7.100659370422363">
        <ele>340.0</ele>
        <time>2019-04-25T09:59:34.000Z</time>
      </trkpt>
      <trkpt lat="42.40013885498047" lon="-7.100663185119629">
        <ele>340.0</ele>
        <time>2019-04-25T09:59:35.000Z</time>
      </trkpt>
      <trkpt lat="42.40015411376953" lon="-7.100673675537109">
        <ele>340.0</ele>
        <time>2019-04-25T09:59:37.000Z</time>
      </trkpt>
      <trkpt lat="42.400169372558594" lon="-7.100688457489014">
        <ele>340.0</ele>
        <time>2019-04-25T09:59:38.000Z</time>
      </trkpt>
      <trkpt lat="42.40018081665039" lon="-7.100705623626709">
        <ele>340.0</ele>
        <time>2019-04-25T09:59:40.000Z</time>
      </trkpt>
      <trkpt lat="42.40020751953125" lon="-7.100741863250732">
        <ele>340.0</ele>
        <time>2019-04-25T09:59:44.000Z</time>
      </trkpt>
      <trkpt lat="42.400238037109375" lon="-7.100788593292236">
        <ele>340.0</ele>
        <time>2019-04-25T09:59:49.000Z</time>
      </trkpt>
      <trkpt lat="42.400272369384766" lon="-7.100842475891113">
        <ele>340.0</ele>
        <time>2019-04-25T09:59:54.000Z</time>
      </trkpt>
      <trkpt lat="42.400306701660156" lon="-7.1008992195129395">
        <ele>339.0</ele>
        <time>2019-04-25T09:59:59.000Z</time>
      </trkpt>
      <trkpt lat="42.40032196044922" lon="-7.10092306137085">
        <ele>340.0</ele>
        <time>2019-04-25T10:00:02.000Z</time>
      </trkpt>
      <trkpt lat="42.40033721923828" lon="-7.1009368896484375">
        <ele>340.0</ele>
        <time>2019-04-25T10:00:05.000Z</time>
      </trkpt>
      <trkpt lat="42.40034484863281" lon="-7.1009440422058105">
        <ele>341.0</ele>
        <time>2019-04-25T10:00:08.000Z</time>
      </trkpt>
      <trkpt lat="42.400352478027344" lon="-7.100947856903076">
        <ele>342.0</ele>
        <time>2019-04-25T10:00:11.000Z</time>
      </trkpt>
      <trkpt lat="42.400352478027344" lon="-7.100958347320557">
        <ele>343.0</ele>
        <time>2019-04-25T10:00:19.000Z</time>
      </trkpt>
      <trkpt lat="42.400352478027344" lon="-7.100968360900879">
        <ele>343.0</ele>
        <time>2019-04-25T10:00:27.000Z</time>
      </trkpt>
      <trkpt lat="42.40034866333008" lon="-7.100977897644043">
        <ele>343.0</ele>
        <time>2019-04-25T10:00:35.000Z</time>
      </trkpt>
      <trkpt lat="42.40034484863281" lon="-7.100987434387207">
        <ele>344.0</ele>
        <time>2019-04-25T10:00:43.000Z</time>
      </trkpt>
      <trkpt lat="42.40034103393555" lon="-7.100996017456055">
        <ele>344.0</ele>
        <time>2019-04-25T10:00:43.000Z</time>
      </trkpt>
      <trkpt lat="42.40034103393555" lon="-7.101003646850586">
        <ele>344.0</ele>
        <time>2019-04-25T10:00:43.000Z</time>
      </trkpt>
      <trkpt lat="42.40033721923828" lon="-7.101010799407959">
        <ele>344.0</ele>
        <time>2019-04-25T10:00:43.000Z</time>
      </trkpt>
      <trkpt lat="42.40033721923828" lon="-7.101017475128174">
        <ele>344.0</ele>
        <time>2019-04-25T10:00:44.000Z</time>
      </trkpt>
      <trkpt lat="42.400325775146484" lon="-7.101052284240723">
        <ele>344.0</ele>
        <time>2019-04-25T10:00:44.000Z</time>
      </trkpt>
      <trkpt lat="42.40031433105469" lon="-7.101099014282227">
        <ele>344.0</ele>
        <time>2019-04-25T10:00:45.000Z</time>
      </trkpt>
      <trkpt lat="42.400299072265625" lon="-7.1011528968811035">
        <ele>344.0</ele>
        <time>2019-04-25T10:00:46.000Z</time>
      </trkpt>
      <trkpt lat="42.4002799987793" lon="-7.101210594177246">
        <ele>344.0</ele>
        <time>2019-04-25T10:00:47.000Z</time>
      </trkpt>
      <trkpt lat="42.400264739990234" lon="-7.101266860961914">
        <ele>344.0</ele>
        <time>2019-04-25T10:00:50.000Z</time>
      </trkpt>
      <trkpt lat="42.40025329589844" lon="-7.101325988769531">
        <ele>345.0</ele>
        <time>2019-04-25T10:00:53.000Z</time>
      </trkpt>
      <trkpt lat="42.400238037109375" lon="-7.1013875007629395">
        <ele>345.0</ele>
        <time>2019-04-25T10:00:56.000Z</time>
      </trkpt>
      <trkpt lat="42.40022659301758" lon="-7.101449966430664">
        <ele>346.0</ele>
        <time>2019-04-25T10:01:00.000Z</time>
      </trkpt>
      <trkpt lat="42.400230407714844" lon="-7.10142707824707">
        <ele>345.0</ele>
        <time>2019-04-25T10:01:06.000Z</time>
      </trkpt>
      <trkpt lat="42.40024185180664" lon="-7.101369380950928">
        <ele>345.0</ele>
        <time>2019-04-25T10:01:13.000Z</time>
      </trkpt>
      <trkpt lat="42.40026092529297" lon="-7.101288795471191">
        <ele>344.0</ele>
        <time>2019-04-25T10:01:20.000Z</time>
      </trkpt>
      <trkpt lat="42.4002799987793" lon="-7.1011962890625">
        <ele>343.0</ele>
        <time>2019-04-25T10:01:27.000Z</time>
      </trkpt>
      <trkpt lat="42.40030288696289" lon="-7.10114049911499">
        <ele>342.0</ele>
        <time>2019-04-25T10:01:31.000Z</time>
      </trkpt>
      <trkpt lat="42.400333404541016" lon="-7.10108757019043">
        <ele>341.0</ele>
        <time>2019-04-25T10:01:35.000Z</time>
      </trkpt>
      <trkpt lat="42.40036392211914" lon="-7.10103702545166">
        <ele>341.0</ele>
        <time>2019-04-25T10:01:39.000Z</time>
      </trkpt>
      <trkpt lat="42.400394439697266" lon="-7.100987434387207">
        <ele>341.0</ele>
        <time>2019-04-25T10:01:43.000Z</time>
      </trkpt>
      <trkpt lat="42.40041732788086" lon="-7.100933074951172">
        <ele>340.0</ele>
        <time>2019-04-25T10:01:46.000Z</time>
      </trkpt>
      <trkpt lat="42.40043258666992" lon="-7.10087776184082">
        <ele>340.0</ele>
        <time>2019-04-25T10:01:50.000Z</time>
      </trkpt>
      <trkpt lat="42.40045166015625" lon="-7.1008219718933105">
        <ele>340.0</ele>
        <time>2019-04-25T10:01:54.000Z</time>
      </trkpt>
      <trkpt lat="42.40046691894531" lon="-7.100766181945801">
        <ele>340.0</ele>
        <time>2019-04-25T10:01:58.000Z</time>
      </trkpt>
      <trkpt lat="42.40052795410156" lon="-7.10067892074585">
        <ele>341.0</ele>
        <time>2019-04-25T10:02:06.000Z</time>
      </trkpt>
      <trkpt lat="42.400604248046875" lon="-7.100603103637695">
        <ele>343.0</ele>
        <time>2019-04-25T10:02:14.000Z</time>
      </trkpt>
      <trkpt lat="42.40061569213867" lon="-7.100588798522949">
        <ele>343.0</ele>
        <time>2019-04-25T10:02:16.000Z</time>
      </trkpt>
      <trkpt lat="42.40061950683594" lon="-7.100585460662842">
        <ele>343.0</ele>
        <time>2019-04-25T10:02:18.000Z</time>
      </trkpt>
      <trkpt lat="42.40061569213867" lon="-7.100589275360107">
        <ele>343.0</ele>
        <time>2019-04-25T10:02:20.000Z</time>
      </trkpt>
      <trkpt lat="42.400611877441406" lon="-7.1005964279174805">
        <ele>343.0</ele>
        <time>2019-04-25T10:02:22.000Z</time>
      </trkpt>
      <trkpt lat="42.400611877441406" lon="-7.100599765777588">
        <ele>343.0</ele>
        <time>2019-04-25T10:02:27.000Z</time>
      </trkpt>
      <trkpt lat="42.40060806274414" lon="-7.100605487823486">
        <ele>342.0</ele>
        <time>2019-04-25T10:02:32.000Z</time>
      </trkpt>
      <trkpt lat="42.400604248046875" lon="-7.100612163543701">
        <ele>341.0</ele>
        <time>2019-04-25T10:02:37.000Z</time>
      </trkpt>
      <trkpt lat="42.400604248046875" lon="-7.100619792938232">
        <ele>341.0</ele>
        <time>2019-04-25T10:02:43.000Z</time>
      </trkpt>
      <trkpt lat="42.40060043334961" lon="-7.100625038146973">
        <ele>340.0</ele>
        <time>2019-04-25T10:02:43.000Z</time>
      </trkpt>
      <trkpt lat="42.40060043334961" lon="-7.100630283355713">
        <ele>340.0</ele>
        <time>2019-04-25T10:02:43.000Z</time>
      </trkpt>
      <trkpt lat="42.400596618652344" lon="-7.100635051727295">
        <ele>340.0</ele>
        <time>2019-04-25T10:02:43.000Z</time>
      </trkpt>
      <trkpt lat="42.400596618652344" lon="-7.100639343261719">
        <ele>341.0</ele>
        <time>2019-04-25T10:02:44.000Z</time>
      </trkpt>
      <trkpt lat="42.40056610107422" lon="-7.100697040557861">
        <ele>340.0</ele>
        <time>2019-04-25T10:02:48.000Z</time>
      </trkpt>
      <trkpt lat="42.40052795410156" lon="-7.100776195526123">
        <ele>340.0</ele>
        <time>2019-04-25T10:02:52.000Z</time>
      </trkpt>
      <trkpt lat="42.400482177734375" lon="-7.100869655609131">
        <ele>339.0</ele>
        <time>2019-04-25T10:02:56.000Z</time>
      </trkpt>
      <trkpt lat="42.400428771972656" lon="-7.100971221923828">
        <ele>338.0</ele>
        <time>2019-04-25T10:03:00.000Z</time>
      </trkpt>
      <trkpt lat="42.400428771972656" lon="-7.100971221923828">
        <ele>338.0</ele>
        <time>2019-04-25T10:28:39.000Z</time>
      </trkpt>
      <trkpt lat="42.39972686767578" lon="-7.100846767425537">
        <ele>326.0</ele>
        <time>2019-04-26T05:41:53.000Z</time>
      </trkpt>
      <trkpt lat="42.39939880371094" lon="-7.101030349731445">
        <ele>322.0</ele>
        <time>2019-04-26T05:42:29.000Z</time>
      </trkpt>
      <trkpt lat="42.39921951293945" lon="-7.101073265075684">
        <ele>320.0</ele>
        <time>2019-04-26T05:42:47.000Z</time>
      </trkpt>
      <trkpt lat="42.39914321899414" lon="-7.101101875305176">
        <ele>316.0</ele>
        <time>2019-04-26T05:43:13.000Z</time>
      </trkpt>
      <trkpt lat="42.399112701416016" lon="-7.101113796234131">
        <ele>316.0</ele>
        <time>2019-04-26T05:43:14.000Z</time>
      </trkpt>
      <trkpt lat="42.39878845214844" lon="-7.100944995880127">
        <ele>312.0</ele>
        <time>2019-04-26T05:43:47.000Z</time>
      </trkpt>
      <trkpt lat="42.3986930847168" lon="-7.100958824157715">
        <ele>310.0</ele>
        <time>2019-04-26T05:44:00.000Z</time>
      </trkpt>
      <trkpt lat="42.398681640625" lon="-7.1009907722473145">
        <ele>310.0</ele>
        <time>2019-04-26T05:44:05.000Z</time>
      </trkpt>
      <trkpt lat="42.3986701965332" lon="-7.101035118103027">
        <ele>310.0</ele>
        <time>2019-04-26T05:44:11.000Z</time>
      </trkpt>
      <trkpt lat="42.39866638183594" lon="-7.101086616516113">
        <ele>310.0</ele>
        <time>2019-04-26T05:44:16.000Z</time>
      </trkpt>
      <trkpt lat="42.398658752441406" lon="-7.101142406463623">
        <ele>310.0</ele>
        <time>2019-04-26T05:44:22.000Z</time>
      </trkpt>
      <trkpt lat="42.39865493774414" lon="-7.101166725158691">
        <ele>310.0</ele>
        <time>2019-04-26T05:44:22.000Z</time>
      </trkpt>
      <trkpt lat="42.39865493774414" lon="-7.1011810302734375">
        <ele>310.0</ele>
        <time>2019-04-26T05:44:22.000Z</time>
      </trkpt>
      <trkpt lat="42.398651123046875" lon="-7.101189613342285">
        <ele>310.0</ele>
        <time>2019-04-26T05:44:22.000Z</time>
      </trkpt>
      <trkpt lat="42.398651123046875" lon="-7.101195335388184">
        <ele>310.0</ele>
        <time>2019-04-26T05:44:23.000Z</time>
      </trkpt>
      <trkpt lat="42.398643493652344" lon="-7.101221084594727">
        <ele>310.0</ele>
        <time>2019-04-26T05:44:25.000Z</time>
      </trkpt>
      <trkpt lat="42.39863586425781" lon="-7.101251602172852">
        <ele>310.0</ele>
        <time>2019-04-26T05:44:27.000Z</time>
      </trkpt>
      <trkpt lat="42.39862823486328" lon="-7.101285934448242">
        <ele>310.0</ele>
        <time>2019-04-26T05:44:29.000Z</time>
      </trkpt>
      <trkpt lat="42.398616790771484" lon="-7.101322174072266">
        <ele>310.0</ele>
        <time>2019-04-26T05:44:31.000Z</time>
      </trkpt>
      <trkpt lat="42.39861297607422" lon="-7.1013503074646">
        <ele>310.0</ele>
        <time>2019-04-26T05:44:36.000Z</time>
      </trkpt>
      <trkpt lat="42.39861297607422" lon="-7.101376056671143">
        <ele>309.0</ele>
        <time>2019-04-26T05:44:41.000Z</time>
      </trkpt>
      <trkpt lat="42.39861297607422" lon="-7.101401329040527">
        <ele>309.0</ele>
        <time>2019-04-26T05:44:46.000Z</time>
      </trkpt>
      <trkpt lat="42.39861297607422" lon="-7.101426124572754">
        <ele>309.0</ele>
        <time>2019-04-26T05:44:52.000Z</time>
      </trkpt>
      <trkpt lat="42.39861297607422" lon="-7.101442813873291">
        <ele>308.0</ele>
        <time>2019-04-26T05:44:52.000Z</time>
      </trkpt>
      <trkpt lat="42.39861297607422" lon="-7.101455211639404">
        <ele>308.0</ele>
        <time>2019-04-26T05:44:52.000Z</time>
      </trkpt>
      <trkpt lat="42.39861297607422" lon="-7.101465702056885">
        <ele>308.0</ele>
        <time>2019-04-26T05:44:52.000Z</time>
      </trkpt>
      <trkpt lat="42.39861297607422" lon="-7.101474285125732">
        <ele>309.0</ele>
        <time>2019-04-26T05:44:53.000Z</time>
      </trkpt>
      <trkpt lat="42.39861297607422" lon="-7.101557731628418">
        <ele>308.0</ele>
        <time>2019-04-26T05:44:59.000Z</time>
      </trkpt>
      <trkpt lat="42.39861297607422" lon="-7.101670265197754">
        <ele>308.0</ele>
        <time>2019-04-26T05:45:05.000Z</time>
      </trkpt>
      <trkpt lat="42.398616790771484" lon="-7.101802825927734">
        <ele>308.0</ele>
        <time>2019-04-26T05:45:11.000Z</time>
      </trkpt>
      <trkpt lat="42.39862060546875" lon="-7.101945400238037">
        <ele>307.0</ele>
        <time>2019-04-26T05:45:18.000Z</time>
      </trkpt>
      <trkpt lat="42.398746490478516" lon="-7.102354049682617">
        <ele>306.0</ele>
        <time>2019-04-26T05:45:51.000Z</time>
      </trkpt>
      <trkpt lat="42.398765563964844" lon="-7.102827072143555">
        <ele>307.0</ele>
        <time>2019-04-26T05:46:14.000Z</time>
      </trkpt>
      <trkpt lat="42.398807525634766" lon="-7.102950096130371">
        <ele>306.0</ele>
        <time>2019-04-26T05:46:26.000Z</time>
      </trkpt>
      <trkpt lat="42.398860931396484" lon="-7.103020668029785">
        <ele>305.0</ele>
        <time>2019-04-26T05:46:38.000Z</time>
      </trkpt>
      <trkpt lat="42.39887619018555" lon="-7.103034019470215">
        <ele>305.0</ele>
        <time>2019-04-26T05:46:41.000Z</time>
      </trkpt>
      <trkpt lat="42.39888381958008" lon="-7.103032112121582">
        <ele>305.0</ele>
        <time>2019-04-26T05:46:44.000Z</time>
      </trkpt>
      <trkpt lat="42.398887634277344" lon="-7.103020668029785">
        <ele>305.0</ele>
        <time>2019-04-26T05:46:47.000Z</time>
      </trkpt>
      <trkpt lat="42.39889144897461" lon="-7.103004455566406">
        <ele>305.0</ele>
        <time>2019-04-26T05:46:51.000Z</time>
      </trkpt>
      <trkpt lat="42.39889907836914" lon="-7.103001117706299">
        <ele>305.0</ele>
        <time>2019-04-26T05:46:51.000Z</time>
      </trkpt>
      <trkpt lat="42.398902893066406" lon="-7.10299825668335">
        <ele>305.0</ele>
        <time>2019-04-26T05:46:51.000Z</time>
      </trkpt>
      <trkpt lat="42.39890670776367" lon="-7.1029953956604">
        <ele>305.0</ele>
        <time>2019-04-26T05:46:51.000Z</time>
      </trkpt>
      <trkpt lat="42.3989143371582" lon="-7.102992534637451">
        <ele>305.0</ele>
        <time>2019-04-26T05:46:52.000Z</time>
      </trkpt>
      <trkpt lat="42.39897155761719" lon="-7.102972984313965">
        <ele>305.0</ele>
        <time>2019-04-26T05:46:57.000Z</time>
      </trkpt>
      <trkpt lat="42.3990478515625" lon="-7.1029462814331055">
        <ele>306.0</ele>
        <time>2019-04-26T05:47:03.000Z</time>
      </trkpt>
      <trkpt lat="42.399139404296875" lon="-7.102915287017822">
        <ele>306.0</ele>
        <time>2019-04-26T05:47:09.000Z</time>
      </trkpt>
      <trkpt lat="42.39924240112305" lon="-7.10288143157959">
        <ele>307.0</ele>
        <time>2019-04-26T05:47:15.000Z</time>
      </trkpt>
      <trkpt lat="42.399391174316406" lon="-7.102915287017822">
        <ele>309.0</ele>
        <time>2019-04-26T05:47:25.000Z</time>
      </trkpt>
      <trkpt lat="42.399532318115234" lon="-7.102990627288818">
        <ele>312.0</ele>
        <time>2019-04-26T05:47:35.000Z</time>
      </trkpt>
      <trkpt lat="42.39955139160156" lon="-7.103029251098633">
        <ele>313.0</ele>
        <time>2019-04-26T05:47:39.000Z</time>
      </trkpt>
      <trkpt lat="42.39955139160156" lon="-7.103072166442871">
        <ele>313.0</ele>
        <time>2019-04-26T05:47:44.000Z</time>
      </trkpt>
      <trkpt lat="42.3995361328125" lon="-7.103118896484375">
        <ele>313.0</ele>
        <time>2019-04-26T05:47:48.000Z</time>
      </trkpt>
      <trkpt lat="42.39951705932617" lon="-7.1031670570373535">
        <ele>313.0</ele>
        <time>2019-04-26T05:47:53.000Z</time>
      </trkpt>
      <trkpt lat="42.39952087402344" lon="-7.103224754333496">
        <ele>312.0</ele>
        <time>2019-04-26T05:47:58.000Z</time>
      </trkpt>
      <trkpt lat="42.39952850341797" lon="-7.103288650512695">
        <ele>312.0</ele>
        <time>2019-04-26T05:48:03.000Z</time>
      </trkpt>
      <trkpt lat="42.399539947509766" lon="-7.10335636138916">
        <ele>312.0</ele>
        <time>2019-04-26T05:48:08.000Z</time>
      </trkpt>
      <trkpt lat="42.39955139160156" lon="-7.103425979614258">
        <ele>312.0</ele>
        <time>2019-04-26T05:48:13.000Z</time>
      </trkpt>
      <trkpt lat="42.39955520629883" lon="-7.103455066680908">
        <ele>312.0</ele>
        <time>2019-04-26T05:48:17.000Z</time>
      </trkpt>
      <trkpt lat="42.399559020996094" lon="-7.103469371795654">
        <ele>312.0</ele>
        <time>2019-04-26T05:48:21.000Z</time>
      </trkpt>
      <trkpt lat="42.39956283569336" lon="-7.103473663330078">
        <ele>313.0</ele>
        <time>2019-04-26T05:48:25.000Z</time>
      </trkpt>
      <trkpt lat="42.399566650390625" lon="-7.10347318649292">
        <ele>314.0</ele>
        <time>2019-04-26T05:48:30.000Z</time>
      </trkpt>
      <trkpt lat="42.399566650390625" lon="-7.103482723236084">
        <ele>314.0</ele>
        <time>2019-04-26T05:48:30.000Z</time>
      </trkpt>
      <trkpt lat="42.39957046508789" lon="-7.103490829467773">
        <ele>314.0</ele>
        <time>2019-04-26T05:48:30.000Z</time>
      </trkpt>
      <trkpt lat="42.399574279785156" lon="-7.103498458862305">
        <ele>314.0</ele>
        <time>2019-04-26T05:48:30.000Z</time>
      </trkpt>
      <trkpt lat="42.399574279785156" lon="-7.103506088256836">
        <ele>314.0</ele>
        <time>2019-04-26T05:48:31.000Z</time>
      </trkpt>
      <trkpt lat="42.399600982666016" lon="-7.103580951690674">
        <ele>314.0</ele>
        <time>2019-04-26T05:48:36.000Z</time>
      </trkpt>
      <trkpt lat="42.399635314941406" lon="-7.103683948516846">
        <ele>314.0</ele>
        <time>2019-04-26T05:48:41.000Z</time>
      </trkpt>
      <trkpt lat="42.39967346191406" lon="-7.103805065155029">
        <ele>315.0</ele>
        <time>2019-04-26T05:48:46.000Z</time>
      </trkpt>
      <trkpt lat="42.399715423583984" lon="-7.103935718536377">
        <ele>315.0</ele>
        <time>2019-04-26T05:48:51.000Z</time>
      </trkpt>
      <trkpt lat="42.39975357055664" lon="-7.10404634475708">
        <ele>316.0</ele>
        <time>2019-04-26T05:48:58.000Z</time>
      </trkpt>
      <trkpt lat="42.399784088134766" lon="-7.104158401489258">
        <ele>316.0</ele>
        <time>2019-04-26T05:49:06.000Z</time>
      </trkpt>
      <trkpt lat="42.399818420410156" lon="-7.104270935058594">
        <ele>317.0</ele>
        <time>2019-04-26T05:49:13.000Z</time>
      </trkpt>
      <trkpt lat="42.39985275268555" lon="-7.104384422302246">
        <ele>317.0</ele>
        <time>2019-04-26T05:49:21.000Z</time>
      </trkpt>
      <trkpt lat="42.39997100830078" lon="-7.104831218719482">
        <ele>317.0</ele>
        <time>2019-04-26T05:49:56.000Z</time>
      </trkpt>
      <trkpt lat="42.40005874633789" lon="-7.10503625869751">
        <ele>318.0</ele>
        <time>2019-04-26T05:50:15.000Z</time>
      </trkpt>
      <trkpt lat="42.40008544921875" lon="-7.105138301849365">
        <ele>318.0</ele>
        <time>2019-04-26T05:50:30.000Z</time>
      </trkpt>
      <trkpt lat="42.40010070800781" lon="-7.105186462402344">
        <ele>318.0</ele>
        <time>2019-04-26T05:50:31.000Z</time>
      </trkpt>
      <trkpt lat="42.40024185180664" lon="-7.105613708496094">
        <ele>317.0</ele>
        <time>2019-04-26T05:50:53.000Z</time>
      </trkpt>
      <trkpt lat="42.40036392211914" lon="-7.106045246124268">
        <ele>318.0</ele>
        <time>2019-04-26T05:51:23.000Z</time>
      </trkpt>
      <trkpt lat="42.40050506591797" lon="-7.106484889984131">
        <ele>319.0</ele>
        <time>2019-04-26T05:51:52.000Z</time>
      </trkpt>
      <trkpt lat="42.40061950683594" lon="-7.106938362121582">
        <ele>321.0</ele>
        <time>2019-04-26T05:52:25.000Z</time>
      </trkpt>
      <trkpt lat="42.40069580078125" lon="-7.107239246368408">
        <ele>322.0</ele>
        <time>2019-04-26T05:52:48.000Z</time>
      </trkpt>
      <trkpt lat="42.400699615478516" lon="-7.107300281524658">
        <ele>323.0</ele>
        <time>2019-04-26T05:53:06.000Z</time>
      </trkpt>
      <trkpt lat="42.400699615478516" lon="-7.107338905334473">
        <ele>323.0</ele>
        <time>2019-04-26T05:53:07.000Z</time>
      </trkpt>
      <trkpt lat="42.400794982910156" lon="-7.107578754425049">
        <ele>322.0</ele>
        <time>2019-04-26T05:53:17.000Z</time>
      </trkpt>
      <trkpt lat="42.400814056396484" lon="-7.1076555252075195">
        <ele>323.0</ele>
        <time>2019-04-26T05:53:35.000Z</time>
      </trkpt>
      <trkpt lat="42.40082550048828" lon="-7.107698440551758">
        <ele>323.0</ele>
        <time>2019-04-26T05:53:36.000Z</time>
      </trkpt>
      <trkpt lat="42.4008903503418" lon="-7.108129024505615">
        <ele>325.0</ele>
        <time>2019-04-26T05:53:59.000Z</time>
      </trkpt>
      <trkpt lat="42.40082550048828" lon="-7.108592510223389">
        <ele>328.0</ele>
        <time>2019-04-26T05:54:31.000Z</time>
      </trkpt>
      <trkpt lat="42.40068817138672" lon="-7.109046459197998">
        <ele>330.0</ele>
        <time>2019-04-26T05:55:00.000Z</time>
      </trkpt>
      <trkpt lat="42.40047073364258" lon="-7.109416961669922">
        <ele>331.0</ele>
        <time>2019-04-26T05:55:28.000Z</time>
      </trkpt>
      <trkpt lat="42.4002685546875" lon="-7.1098151206970215">
        <ele>330.0</ele>
        <time>2019-04-26T05:55:59.000Z</time>
      </trkpt>
      <trkpt lat="42.400115966796875" lon="-7.1102614402771">
        <ele>328.0</ele>
        <time>2019-04-26T05:56:27.000Z</time>
      </trkpt>
      <trkpt lat="42.399959564208984" lon="-7.110694885253906">
        <ele>327.0</ele>
        <time>2019-04-26T05:56:54.000Z</time>
      </trkpt>
      <trkpt lat="42.399818420410156" lon="-7.111137866973877">
        <ele>327.0</ele>
        <time>2019-04-26T05:57:23.000Z</time>
      </trkpt>
      <trkpt lat="42.39966583251953" lon="-7.111564636230469">
        <ele>327.0</ele>
        <time>2019-04-26T05:57:50.000Z</time>
      </trkpt>
      <trkpt lat="42.39950180053711" lon="-7.111985206604004">
        <ele>326.0</ele>
        <time>2019-04-26T05:58:20.000Z</time>
      </trkpt>
      <trkpt lat="42.399330139160156" lon="-7.112398624420166">
        <ele>327.0</ele>
        <time>2019-04-26T05:58:49.000Z</time>
      </trkpt>
      <trkpt lat="42.39917755126953" lon="-7.112831115722656">
        <ele>327.0</ele>
        <time>2019-04-26T05:59:16.000Z</time>
      </trkpt>
      <trkpt lat="42.39898681640625" lon="-7.113231182098389">
        <ele>327.0</ele>
        <time>2019-04-26T05:59:46.000Z</time>
      </trkpt>
      <trkpt lat="42.398807525634766" lon="-7.113652229309082">
        <ele>327.0</ele>
        <time>2019-04-26T06:00:16.000Z</time>
      </trkpt>
      <trkpt lat="42.39863204956055" lon="-7.114076614379883">
        <ele>328.0</ele>
        <time>2019-04-26T06:00:43.000Z</time>
      </trkpt>
      <trkpt lat="42.39844512939453" lon="-7.1144938468933105">
        <ele>328.0</ele>
        <time>2019-04-26T06:01:12.000Z</time>
      </trkpt>
      <trkpt lat="42.398231506347656" lon="-7.114870071411133">
        <ele>329.0</ele>
        <time>2019-04-26T06:01:41.000Z</time>
      </trkpt>
      <trkpt lat="42.39812469482422" lon="-7.115166664123535">
        <ele>330.0</ele>
        <time>2019-04-26T06:02:07.000Z</time>
      </trkpt>
      <trkpt lat="42.39811706542969" lon="-7.115232944488525">
        <ele>330.0</ele>
        <time>2019-04-26T06:02:19.000Z</time>
      </trkpt>
      <trkpt lat="42.39813232421875" lon="-7.115262031555176">
        <ele>330.0</ele>
        <time>2019-04-26T06:02:32.000Z</time>
      </trkpt>
      <trkpt lat="42.398136138916016" lon="-7.115278720855713">
        <ele>330.0</ele>
        <time>2019-04-26T06:02:32.000Z</time>
      </trkpt>
      <trkpt lat="42.398136138916016" lon="-7.115292549133301">
        <ele>330.0</ele>
        <time>2019-04-26T06:02:32.000Z</time>
      </trkpt>
      <trkpt lat="42.398136138916016" lon="-7.115304470062256">
        <ele>330.0</ele>
        <time>2019-04-26T06:02:32.000Z</time>
      </trkpt>
      <trkpt lat="42.39813995361328" lon="-7.1153154373168945">
        <ele>330.0</ele>
        <time>2019-04-26T06:02:33.000Z</time>
      </trkpt>
      <trkpt lat="42.398136138916016" lon="-7.115400791168213">
        <ele>330.0</ele>
        <time>2019-04-26T06:02:36.000Z</time>
      </trkpt>
      <trkpt lat="42.398128509521484" lon="-7.115516185760498">
        <ele>330.0</ele>
        <time>2019-04-26T06:02:40.000Z</time>
      </trkpt>
      <trkpt lat="42.39812088012695" lon="-7.115651607513428">
        <ele>330.0</ele>
        <time>2019-04-26T06:02:44.000Z</time>
      </trkpt>
      <trkpt lat="42.398109436035156" lon="-7.115797519683838">
        <ele>330.0</ele>
        <time>2019-04-26T06:02:48.000Z</time>
      </trkpt>
      <trkpt lat="42.39808654785156" lon="-7.1158599853515625">
        <ele>330.0</ele>
        <time>2019-04-26T06:02:52.000Z</time>
      </trkpt>
      <trkpt lat="42.3980598449707" lon="-7.115899085998535">
        <ele>330.0</ele>
        <time>2019-04-26T06:02:56.000Z</time>
      </trkpt>
      <trkpt lat="42.39802551269531" lon="-7.115921497344971">
        <ele>330.0</ele>
        <time>2019-04-26T06:03:00.000Z</time>
      </trkpt>
      <trkpt lat="42.397987365722656" lon="-7.115936279296875">
        <ele>330.0</ele>
        <time>2019-04-26T06:03:04.000Z</time>
      </trkpt>
      <trkpt lat="42.39794921875" lon="-7.115949630737305">
        <ele>330.0</ele>
        <time>2019-04-26T06:03:06.000Z</time>
      </trkpt>
      <trkpt lat="42.39790725708008" lon="-7.1159539222717285">
        <ele>330.0</ele>
        <time>2019-04-26T06:03:09.000Z</time>
      </trkpt>
      <trkpt lat="42.39786148071289" lon="-7.115952491760254">
        <ele>330.0</ele>
        <time>2019-04-26T06:03:11.000Z</time>
      </trkpt>
      <trkpt lat="42.3978157043457" lon="-7.11594820022583">
        <ele>330.0</ele>
        <time>2019-04-26T06:03:14.000Z</time>
      </trkpt>
      <trkpt lat="42.39776611328125" lon="-7.115941047668457">
        <ele>330.0</ele>
        <time>2019-04-26T06:03:18.000Z</time>
      </trkpt>
      <trkpt lat="42.397708892822266" lon="-7.11592960357666">
        <ele>330.0</ele>
        <time>2019-04-26T06:03:23.000Z</time>
      </trkpt>
      <trkpt lat="42.397647857666016" lon="-7.115915298461914">
        <ele>330.0</ele>
        <time>2019-04-26T06:03:27.000Z</time>
      </trkpt>
      <trkpt lat="42.39759063720703" lon="-7.115899085998535">
        <ele>330.0</ele>
        <time>2019-04-26T06:03:32.000Z</time>
      </trkpt>
      <trkpt lat="42.39755630493164" lon="-7.115908145904541">
        <ele>330.0</ele>
        <time>2019-04-26T06:03:35.000Z</time>
      </trkpt>
      <trkpt lat="42.39753723144531" lon="-7.115926265716553">
        <ele>330.0</ele>
        <time>2019-04-26T06:03:38.000Z</time>
      </trkpt>
      <trkpt lat="42.39752197265625" lon="-7.115949630737305">
        <ele>329.0</ele>
        <time>2019-04-26T06:03:41.000Z</time>
      </trkpt>
      <trkpt lat="42.39751052856445" lon="-7.115976333618164">
        <ele>329.0</ele>
        <time>2019-04-26T06:03:44.000Z</time>
      </trkpt>
      <trkpt lat="42.397499084472656" lon="-7.115987777709961">
        <ele>329.0</ele>
        <time>2019-04-26T06:03:44.000Z</time>
      </trkpt>
      <trkpt lat="42.397491455078125" lon="-7.115994930267334">
        <ele>329.0</ele>
        <time>2019-04-26T06:03:44.000Z</time>
      </trkpt>
      <trkpt lat="42.39748764038086" lon="-7.116000175476074">
        <ele>329.0</ele>
        <time>2019-04-26T06:03:44.000Z</time>
      </trkpt>
      <trkpt lat="42.397483825683594" lon="-7.116004467010498">
        <ele>329.0</ele>
        <time>2019-04-26T06:03:45.000Z</time>
      </trkpt>
      <trkpt lat="42.3974494934082" lon="-7.116056442260742">
        <ele>329.0</ele>
        <time>2019-04-26T06:03:49.000Z</time>
      </trkpt>
      <trkpt lat="42.397403717041016" lon="-7.1161274909973145">
        <ele>329.0</ele>
        <time>2019-04-26T06:03:53.000Z</time>
      </trkpt>
      <trkpt lat="42.39735412597656" lon="-7.1162109375">
        <ele>329.0</ele>
        <time>2019-04-26T06:03:57.000Z</time>
      </trkpt>
      <trkpt lat="42.397300720214844" lon="-7.116300582885742">
        <ele>328.0</ele>
        <time>2019-04-26T06:04:01.000Z</time>
      </trkpt>
      <trkpt lat="42.397281646728516" lon="-7.116332054138184">
        <ele>328.0</ele>
        <time>2019-04-26T06:04:03.000Z</time>
      </trkpt>
      <trkpt lat="42.39727020263672" lon="-7.116345405578613">
        <ele>329.0</ele>
        <time>2019-04-26T06:04:05.000Z</time>
      </trkpt>
      <trkpt lat="42.39727020263672" lon="-7.11634635925293">
        <ele>329.0</ele>
        <time>2019-04-26T06:04:07.000Z</time>
      </trkpt>
      <trkpt lat="42.39727020263672" lon="-7.116341590881348">
        <ele>329.0</ele>
        <time>2019-04-26T06:04:10.000Z</time>
      </trkpt>
      <trkpt lat="42.39726638793945" lon="-7.1163649559021">
        <ele>331.0</ele>
        <time>2019-04-26T06:04:32.000Z</time>
      </trkpt>
      <trkpt lat="42.39726257324219" lon="-7.116389274597168">
        <ele>335.0</ele>
        <time>2019-04-26T06:04:54.000Z</time>
      </trkpt>
      <trkpt lat="42.39726257324219" lon="-7.116398811340332">
        <ele>335.0</ele>
        <time>2019-04-26T06:04:54.000Z</time>
      </trkpt>
      <trkpt lat="42.39726257324219" lon="-7.1164069175720215">
        <ele>335.0</ele>
        <time>2019-04-26T06:04:54.000Z</time>
      </trkpt>
      <trkpt lat="42.39725875854492" lon="-7.116414546966553">
        <ele>335.0</ele>
        <time>2019-04-26T06:04:54.000Z</time>
      </trkpt>
      <trkpt lat="42.39725875854492" lon="-7.116421699523926">
        <ele>335.0</ele>
        <time>2019-04-26T06:04:55.000Z</time>
      </trkpt>
      <trkpt lat="42.39725875854492" lon="-7.116505146026611">
        <ele>334.0</ele>
        <time>2019-04-26T06:05:01.000Z</time>
      </trkpt>
      <trkpt lat="42.39725875854492" lon="-7.116620063781738">
        <ele>334.0</ele>
        <time>2019-04-26T06:05:07.000Z</time>
      </trkpt>
      <trkpt lat="42.39725875854492" lon="-7.116755962371826">
        <ele>334.0</ele>
        <time>2019-04-26T06:05:13.000Z</time>
      </trkpt>
      <trkpt lat="42.39725875854492" lon="-7.1169023513793945">
        <ele>333.0</ele>
        <time>2019-04-26T06:05:20.000Z</time>
      </trkpt>
      <trkpt lat="42.39726638793945" lon="-7.1170172691345215">
        <ele>333.0</ele>
        <time>2019-04-26T06:05:26.000Z</time>
      </trkpt>
      <trkpt lat="42.397281646728516" lon="-7.117129802703857">
        <ele>333.0</ele>
        <time>2019-04-26T06:05:33.000Z</time>
      </trkpt>
      <trkpt lat="42.39729690551758" lon="-7.1172404289245605">
        <ele>333.0</ele>
        <time>2019-04-26T06:05:40.000Z</time>
      </trkpt>
      <trkpt lat="42.39731216430664" lon="-7.1173505783081055">
        <ele>333.0</ele>
        <time>2019-04-26T06:05:47.000Z</time>
      </trkpt>
      <trkpt lat="42.3973274230957" lon="-7.117440700531006">
        <ele>332.0</ele>
        <time>2019-04-26T06:05:51.000Z</time>
      </trkpt>
      <trkpt lat="42.3973388671875" lon="-7.1175217628479">
        <ele>332.0</ele>
        <time>2019-04-26T06:05:56.000Z</time>
      </trkpt>
      <trkpt lat="42.3973503112793" lon="-7.117596626281738">
        <ele>332.0</ele>
        <time>2019-04-26T06:06:01.000Z</time>
      </trkpt>
      <trkpt lat="42.39736557006836" lon="-7.117668628692627">
        <ele>332.0</ele>
        <time>2019-04-26T06:06:06.000Z</time>
      </trkpt>
      <trkpt lat="42.3973503112793" lon="-7.117716312408447">
        <ele>332.0</ele>
        <time>2019-04-26T06:06:08.000Z</time>
      </trkpt>
      <trkpt lat="42.39732360839844" lon="-7.117751121520996">
        <ele>332.0</ele>
        <time>2019-04-26T06:06:11.000Z</time>
      </trkpt>
      <trkpt lat="42.39729309082031" lon="-7.117776870727539">
        <ele>332.0</ele>
        <time>2019-04-26T06:06:14.000Z</time>
      </trkpt>
      <trkpt lat="42.397254943847656" lon="-7.117798805236816">
        <ele>332.0</ele>
        <time>2019-04-26T06:06:17.000Z</time>
      </trkpt>
      <trkpt lat="42.397186279296875" lon="-7.117834091186523">
        <ele>332.0</ele>
        <time>2019-04-26T06:06:22.000Z</time>
      </trkpt>
      <trkpt lat="42.3971061706543" lon="-7.117871284484863">
        <ele>332.0</ele>
        <time>2019-04-26T06:06:28.000Z</time>
      </trkpt>
      <trkpt lat="42.397010803222656" lon="-7.1179094314575195">
        <ele>332.0</ele>
        <time>2019-04-26T06:06:34.000Z</time>
      </trkpt>
      <trkpt lat="42.39691162109375" lon="-7.117947578430176">
        <ele>332.0</ele>
        <time>2019-04-26T06:06:40.000Z</time>
      </trkpt>
      <trkpt lat="42.396827697753906" lon="-7.117969036102295">
        <ele>331.0</ele>
        <time>2019-04-26T06:06:46.000Z</time>
      </trkpt>
      <trkpt lat="42.39674377441406" lon="-7.117983818054199">
        <ele>331.0</ele>
        <time>2019-04-26T06:06:53.000Z</time>
      </trkpt>
      <trkpt lat="42.396663665771484" lon="-7.11799430847168">
        <ele>331.0</ele>
        <time>2019-04-26T06:07:00.000Z</time>
      </trkpt>
      <trkpt lat="42.39657974243164" lon="-7.118002414703369">
        <ele>331.0</ele>
        <time>2019-04-26T06:07:07.000Z</time>
      </trkpt>
      <trkpt lat="42.3964958190918" lon="-7.11802864074707">
        <ele>331.0</ele>
        <time>2019-04-26T06:07:15.000Z</time>
      </trkpt>
      <trkpt lat="42.39641571044922" lon="-7.1180596351623535">
        <ele>331.0</ele>
        <time>2019-04-26T06:07:24.000Z</time>
      </trkpt>
      <trkpt lat="42.39633560180664" lon="-7.118093967437744">
        <ele>332.0</ele>
        <time>2019-04-26T06:07:33.000Z</time>
      </trkpt>
      <trkpt lat="42.3962516784668" lon="-7.118129730224609">
        <ele>332.0</ele>
        <time>2019-04-26T06:07:42.000Z</time>
      </trkpt>
      <trkpt lat="42.39616775512695" lon="-7.118164539337158">
        <ele>332.0</ele>
        <time>2019-04-26T06:07:49.000Z</time>
      </trkpt>
      <trkpt lat="42.39608383178711" lon="-7.118200778961182">
        <ele>333.0</ele>
        <time>2019-04-26T06:07:56.000Z</time>
      </trkpt>
      <trkpt lat="42.395999908447266" lon="-7.1182379722595215">
        <ele>333.0</ele>
        <time>2019-04-26T06:08:03.000Z</time>
      </trkpt>
      <trkpt lat="42.395912170410156" lon="-7.1182756423950195">
        <ele>334.0</ele>
        <time>2019-04-26T06:08:10.000Z</time>
      </trkpt>
      <trkpt lat="42.39585876464844" lon="-7.118359088897705">
        <ele>334.0</ele>
        <time>2019-04-26T06:08:18.000Z</time>
      </trkpt>
      <trkpt lat="42.39582061767578" lon="-7.118462085723877">
        <ele>335.0</ele>
        <time>2019-04-26T06:08:27.000Z</time>
      </trkpt>
      <trkpt lat="42.39578628540039" lon="-7.1185784339904785">
        <ele>336.0</ele>
        <time>2019-04-26T06:08:36.000Z</time>
      </trkpt>
      <trkpt lat="42.39575958251953" lon="-7.118700981140137">
        <ele>336.0</ele>
        <time>2019-04-26T06:08:45.000Z</time>
      </trkpt>
      <trkpt lat="42.3957405090332" lon="-7.1189351081848145">
        <ele>336.0</ele>
        <time>2019-04-26T06:09:04.000Z</time>
      </trkpt>
      <trkpt lat="42.395748138427734" lon="-7.119178771972656">
        <ele>334.0</ele>
        <time>2019-04-26T06:09:23.000Z</time>
      </trkpt>
      <trkpt lat="42.395748138427734" lon="-7.119297504425049">
        <ele>334.0</ele>
        <time>2019-04-26T06:09:31.000Z</time>
      </trkpt>
      <trkpt lat="42.39574432373047" lon="-7.119416236877441">
        <ele>334.0</ele>
        <time>2019-04-26T06:09:40.000Z</time>
      </trkpt>
      <trkpt lat="42.39574432373047" lon="-7.119534492492676">
        <ele>335.0</ele>
        <time>2019-04-26T06:09:48.000Z</time>
      </trkpt>
      <trkpt lat="42.39574432373047" lon="-7.11965274810791">
        <ele>335.0</ele>
        <time>2019-04-26T06:09:57.000Z</time>
      </trkpt>
      <trkpt lat="42.39574432373047" lon="-7.119770050048828">
        <ele>336.0</ele>
        <time>2019-04-26T06:10:05.000Z</time>
      </trkpt>
      <trkpt lat="42.395748138427734" lon="-7.119886875152588">
        <ele>337.0</ele>
        <time>2019-04-26T06:10:14.000Z</time>
      </trkpt>
      <trkpt lat="42.395751953125" lon="-7.1200032234191895">
        <ele>338.0</ele>
        <time>2019-04-26T06:10:22.000Z</time>
      </trkpt>
      <trkpt lat="42.395755767822266" lon="-7.120120048522949">
        <ele>338.0</ele>
        <time>2019-04-26T06:10:31.000Z</time>
      </trkpt>
      <trkpt lat="42.39577102661133" lon="-7.12021541595459">
        <ele>339.0</ele>
        <time>2019-04-26T06:10:39.000Z</time>
      </trkpt>
      <trkpt lat="42.39579772949219" lon="-7.120301723480225">
        <ele>339.0</ele>
        <time>2019-04-26T06:10:48.000Z</time>
      </trkpt>
      <trkpt lat="42.39582443237305" lon="-7.120382308959961">
        <ele>340.0</ele>
        <time>2019-04-26T06:10:56.000Z</time>
      </trkpt>
      <trkpt lat="42.39585494995117" lon="-7.12045955657959">
        <ele>340.0</ele>
        <time>2019-04-26T06:11:05.000Z</time>
      </trkpt>
      <trkpt lat="42.39586639404297" lon="-7.120499134063721">
        <ele>341.0</ele>
        <time>2019-04-26T06:11:12.000Z</time>
      </trkpt>
      <trkpt lat="42.3958740234375" lon="-7.120519161224365">
        <ele>342.0</ele>
        <time>2019-04-26T06:11:19.000Z</time>
      </trkpt>
      <trkpt lat="42.395877838134766" lon="-7.1205267906188965">
        <ele>343.0</ele>
        <time>2019-04-26T06:11:26.000Z</time>
      </trkpt>
      <trkpt lat="42.395877838134766" lon="-7.120527744293213">
        <ele>345.0</ele>
        <time>2019-04-26T06:11:34.000Z</time>
      </trkpt>
      <trkpt lat="42.39588165283203" lon="-7.120539665222168">
        <ele>345.0</ele>
        <time>2019-04-26T06:11:34.000Z</time>
      </trkpt>
      <trkpt lat="42.3958854675293" lon="-7.120550155639648">
        <ele>345.0</ele>
        <time>2019-04-26T06:11:34.000Z</time>
      </trkpt>
      <trkpt lat="42.39588928222656" lon="-7.120558738708496">
        <ele>345.0</ele>
        <time>2019-04-26T06:11:34.000Z</time>
      </trkpt>
      <trkpt lat="42.39589309692383" lon="-7.1205668449401855">
        <ele>345.0</ele>
        <time>2019-04-26T06:11:35.000Z</time>
      </trkpt>
      <trkpt lat="42.395999908447266" lon="-7.121031284332275">
        <ele>351.0</ele>
        <time>2019-04-26T06:12:01.000Z</time>
      </trkpt>
      <trkpt lat="42.3959846496582" lon="-7.121267795562744">
        <ele>353.0</ele>
        <time>2019-04-26T06:12:14.000Z</time>
      </trkpt>
      <trkpt lat="42.39594268798828" lon="-7.121506214141846">
        <ele>355.0</ele>
        <time>2019-04-26T06:12:27.000Z</time>
      </trkpt>
      <trkpt lat="42.39592361450195" lon="-7.12162446975708">
        <ele>356.0</ele>
        <time>2019-04-26T06:12:34.000Z</time>
      </trkpt>
      <trkpt lat="42.395896911621094" lon="-7.121741771697998">
        <ele>356.0</ele>
        <time>2019-04-26T06:12:41.000Z</time>
      </trkpt>
      <trkpt lat="42.3958740234375" lon="-7.121859073638916">
        <ele>357.0</ele>
        <time>2019-04-26T06:12:48.000Z</time>
      </trkpt>
      <trkpt lat="42.39584732055664" lon="-7.121976375579834">
        <ele>357.0</ele>
        <time>2019-04-26T06:12:56.000Z</time>
      </trkpt>
      <trkpt lat="42.39582443237305" lon="-7.122094631195068">
        <ele>357.0</ele>
        <time>2019-04-26T06:13:03.000Z</time>
      </trkpt>
      <trkpt lat="42.39580535888672" lon="-7.122212886810303">
        <ele>357.0</ele>
        <time>2019-04-26T06:13:10.000Z</time>
      </trkpt>
      <trkpt lat="42.39578628540039" lon="-7.122331142425537">
        <ele>357.0</ele>
        <time>2019-04-26T06:13:17.000Z</time>
      </trkpt>
      <trkpt lat="42.39577102661133" lon="-7.1224493980407715">
        <ele>357.0</ele>
        <time>2019-04-26T06:13:25.000Z</time>
      </trkpt>
      <trkpt lat="42.395751953125" lon="-7.122567176818848">
        <ele>356.0</ele>
        <time>2019-04-26T06:13:32.000Z</time>
      </trkpt>
      <trkpt lat="42.39573669433594" lon="-7.122684955596924">
        <ele>356.0</ele>
        <time>2019-04-26T06:13:39.000Z</time>
      </trkpt>
      <trkpt lat="42.395721435546875" lon="-7.122802257537842">
        <ele>356.0</ele>
        <time>2019-04-26T06:13:46.000Z</time>
      </trkpt>
      <trkpt lat="42.39570236206055" lon="-7.122920036315918">
        <ele>356.0</ele>
        <time>2019-04-26T06:13:54.000Z</time>
      </trkpt>
      <trkpt lat="42.395687103271484" lon="-7.1230387687683105">
        <ele>356.0</ele>
        <time>2019-04-26T06:14:01.000Z</time>
      </trkpt>
      <trkpt lat="42.39567565917969" lon="-7.1231584548950195">
        <ele>356.0</ele>
        <time>2019-04-26T06:14:08.000Z</time>
      </trkpt>
      <trkpt lat="42.395660400390625" lon="-7.1232781410217285">
        <ele>356.0</ele>
        <time>2019-04-26T06:14:15.000Z</time>
      </trkpt>
      <trkpt lat="42.39564514160156" lon="-7.1233978271484375">
        <ele>356.0</ele>
        <time>2019-04-26T06:14:23.000Z</time>
      </trkpt>
      <trkpt lat="42.39565658569336" lon="-7.123476028442383">
        <ele>356.0</ele>
        <time>2019-04-26T06:14:28.000Z</time>
      </trkpt>
      <trkpt lat="42.39567947387695" lon="-7.123537063598633">
        <ele>356.0</ele>
        <time>2019-04-26T06:14:34.000Z</time>
      </trkpt>
      <trkpt lat="42.39570999145508" lon="-7.123586177825928">
        <ele>356.0</ele>
        <time>2019-04-26T06:14:40.000Z</time>
      </trkpt>
      <trkpt lat="42.39574432373047" lon="-7.123630046844482">
        <ele>357.0</ele>
        <time>2019-04-26T06:14:46.000Z</time>
      </trkpt>
      <trkpt lat="42.3957633972168" lon="-7.123657703399658">
        <ele>357.0</ele>
        <time>2019-04-26T06:14:52.000Z</time>
      </trkpt>
      <trkpt lat="42.39577865600586" lon="-7.123672962188721">
        <ele>358.0</ele>
        <time>2019-04-26T06:14:58.000Z</time>
      </trkpt>
      <trkpt lat="42.395790100097656" lon="-7.1236796379089355">
        <ele>358.0</ele>
        <time>2019-04-26T06:15:04.000Z</time>
      </trkpt>
      <trkpt lat="42.39579772949219" lon="-7.123682022094727">
        <ele>359.0</ele>
        <time>2019-04-26T06:15:11.000Z</time>
      </trkpt>
      <trkpt lat="42.395809173583984" lon="-7.123691082000732">
        <ele>359.0</ele>
        <time>2019-04-26T06:15:11.000Z</time>
      </trkpt>
      <trkpt lat="42.395816802978516" lon="-7.123697757720947">
        <ele>359.0</ele>
        <time>2019-04-26T06:15:11.000Z</time>
      </trkpt>
      <trkpt lat="42.39582061767578" lon="-7.123703479766846">
        <ele>359.0</ele>
        <time>2019-04-26T06:15:11.000Z</time>
      </trkpt>
      <trkpt lat="42.39582824707031" lon="-7.123708724975586">
        <ele>359.0</ele>
        <time>2019-04-26T06:15:12.000Z</time>
      </trkpt>
      <trkpt lat="42.395843505859375" lon="-7.123734951019287">
        <ele>359.0</ele>
        <time>2019-04-26T06:15:13.000Z</time>
      </trkpt>
      <trkpt lat="42.39586639404297" lon="-7.123769760131836">
        <ele>359.0</ele>
        <time>2019-04-26T06:15:15.000Z</time>
      </trkpt>
      <trkpt lat="42.39589309692383" lon="-7.123809814453125">
        <ele>360.0</ele>
        <time>2019-04-26T06:15:17.000Z</time>
      </trkpt>
      <trkpt lat="42.39591979980469" lon="-7.123852729797363">
        <ele>360.0</ele>
        <time>2019-04-26T06:15:19.000Z</time>
      </trkpt>
      <trkpt lat="42.39593505859375" lon="-7.123860836029053">
        <ele>360.0</ele>
        <time>2019-04-26T06:15:20.000Z</time>
      </trkpt>
      <trkpt lat="42.39594268798828" lon="-7.123857021331787">
        <ele>360.0</ele>
        <time>2019-04-26T06:15:22.000Z</time>
      </trkpt>
      <trkpt lat="42.39595031738281" lon="-7.12384557723999">
        <ele>360.0</ele>
        <time>2019-04-26T06:15:24.000Z</time>
      </trkpt>
      <trkpt lat="42.39595413208008" lon="-7.123830318450928">
        <ele>359.0</ele>
        <time>2019-04-26T06:15:26.000Z</time>
      </trkpt>
      <trkpt lat="42.39595413208008" lon="-7.123822212219238">
        <ele>359.0</ele>
        <time>2019-04-26T06:15:27.000Z</time>
      </trkpt>
      <trkpt lat="42.39595031738281" lon="-7.123814105987549">
        <ele>359.0</ele>
        <time>2019-04-26T06:15:28.000Z</time>
      </trkpt>
      <trkpt lat="42.39594268798828" lon="-7.123804569244385">
        <ele>359.0</ele>
        <time>2019-04-26T06:15:29.000Z</time>
      </trkpt>
      <trkpt lat="42.39593505859375" lon="-7.123795509338379">
        <ele>358.0</ele>
        <time>2019-04-26T06:15:31.000Z</time>
      </trkpt>
      <trkpt lat="42.39592742919922" lon="-7.123795986175537">
        <ele>358.0</ele>
        <time>2019-04-26T06:15:33.000Z</time>
      </trkpt>
      <trkpt lat="42.39591598510742" lon="-7.123801231384277">
        <ele>358.0</ele>
        <time>2019-04-26T06:15:35.000Z</time>
      </trkpt>
      <trkpt lat="42.395904541015625" lon="-7.12380838394165">
        <ele>358.0</ele>
        <time>2019-04-26T06:15:37.000Z</time>
      </trkpt>
      <trkpt lat="42.39589309692383" lon="-7.123817443847656">
        <ele>358.0</ele>
        <time>2019-04-26T06:15:39.000Z</time>
      </trkpt>
      <trkpt lat="42.39588928222656" lon="-7.123851776123047">
        <ele>357.0</ele>
        <time>2019-04-26T06:15:42.000Z</time>
      </trkpt>
      <trkpt lat="42.39588928222656" lon="-7.123898506164551">
        <ele>356.0</ele>
        <time>2019-04-26T06:15:46.000Z</time>
      </trkpt>
      <trkpt lat="42.39589309692383" lon="-7.123952865600586">
        <ele>356.0</ele>
        <time>2019-04-26T06:15:50.000Z</time>
      </trkpt>
      <trkpt lat="42.39589309692383" lon="-7.124011993408203">
        <ele>355.0</ele>
        <time>2019-04-26T06:15:54.000Z</time>
      </trkpt>
      <trkpt lat="42.395870208740234" lon="-7.124107360839844">
        <ele>354.0</ele>
        <time>2019-04-26T06:16:02.000Z</time>
      </trkpt>
      <trkpt lat="42.395835876464844" lon="-7.124201774597168">
        <ele>354.0</ele>
        <time>2019-04-26T06:16:10.000Z</time>
      </trkpt>
      <trkpt lat="42.39580535888672" lon="-7.1242899894714355">
        <ele>353.0</ele>
        <time>2019-04-26T06:16:18.000Z</time>
      </trkpt>
      <trkpt lat="42.39577102661133" lon="-7.124395370483398">
        <ele>353.0</ele>
        <time>2019-04-26T06:16:26.000Z</time>
      </trkpt>
      <trkpt lat="42.39573287963867" lon="-7.124512195587158">
        <ele>353.0</ele>
        <time>2019-04-26T06:16:34.000Z</time>
      </trkpt>
      <trkpt lat="42.39569091796875" lon="-7.124634742736816">
        <ele>352.0</ele>
        <time>2019-04-26T06:16:43.000Z</time>
      </trkpt>
      <trkpt lat="42.39566421508789" lon="-7.124747276306152">
        <ele>352.0</ele>
        <time>2019-04-26T06:16:52.000Z</time>
      </trkpt>
      <trkpt lat="42.39563751220703" lon="-7.124861717224121">
        <ele>352.0</ele>
        <time>2019-04-26T06:17:01.000Z</time>
      </trkpt>
      <trkpt lat="42.39561462402344" lon="-7.124977111816406">
        <ele>351.0</ele>
        <time>2019-04-26T06:17:10.000Z</time>
      </trkpt>
      <trkpt lat="42.395591735839844" lon="-7.12509298324585">
        <ele>351.0</ele>
        <time>2019-04-26T06:17:19.000Z</time>
      </trkpt>
      <trkpt lat="42.395565032958984" lon="-7.125203609466553">
        <ele>351.0</ele>
        <time>2019-04-26T06:17:28.000Z</time>
      </trkpt>
      <trkpt lat="42.39553451538086" lon="-7.125312328338623">
        <ele>351.0</ele>
        <time>2019-04-26T06:17:38.000Z</time>
      </trkpt>
      <trkpt lat="42.39550018310547" lon="-7.125420093536377">
        <ele>351.0</ele>
        <time>2019-04-26T06:17:47.000Z</time>
      </trkpt>
      <trkpt lat="42.39546585083008" lon="-7.1255269050598145">
        <ele>351.0</ele>
        <time>2019-04-26T06:17:57.000Z</time>
      </trkpt>
      <trkpt lat="42.39542770385742" lon="-7.125630855560303">
        <ele>351.0</ele>
        <time>2019-04-26T06:18:04.000Z</time>
      </trkpt>
      <trkpt lat="42.39537811279297" lon="-7.125732898712158">
        <ele>351.0</ele>
        <time>2019-04-26T06:18:12.000Z</time>
      </trkpt>
      <trkpt lat="42.39533233642578" lon="-7.125833511352539">
        <ele>352.0</ele>
        <time>2019-04-26T06:18:20.000Z</time>
      </trkpt>
      <trkpt lat="42.39527893066406" lon="-7.1259331703186035">
        <ele>352.0</ele>
        <time>2019-04-26T06:18:28.000Z</time>
      </trkpt>
      <trkpt lat="42.395240783691406" lon="-7.126039028167725">
        <ele>352.0</ele>
        <time>2019-04-26T06:18:37.000Z</time>
      </trkpt>
      <trkpt lat="42.39520263671875" lon="-7.1261467933654785">
        <ele>353.0</ele>
        <time>2019-04-26T06:18:46.000Z</time>
      </trkpt>
      <trkpt lat="42.395164489746094" lon="-7.126255512237549">
        <ele>353.0</ele>
        <time>2019-04-26T06:18:55.000Z</time>
      </trkpt>
      <trkpt lat="42.3951301574707" lon="-7.126364707946777">
        <ele>353.0</ele>
        <time>2019-04-26T06:19:05.000Z</time>
      </trkpt>
      <trkpt lat="42.394935607910156" lon="-7.126748561859131">
        <ele>354.0</ele>
        <time>2019-04-26T06:19:35.000Z</time>
      </trkpt>
      <trkpt lat="42.394718170166016" lon="-7.127130508422852">
        <ele>356.0</ele>
        <time>2019-04-26T06:20:09.000Z</time>
      </trkpt>
      <trkpt lat="42.394508361816406" lon="-7.12749719619751">
        <ele>356.0</ele>
        <time>2019-04-26T06:20:42.000Z</time>
      </trkpt>
      <trkpt lat="42.3942985534668" lon="-7.127879619598389">
        <ele>357.0</ele>
        <time>2019-04-26T06:21:09.000Z</time>
      </trkpt>
      <trkpt lat="42.39412307739258" lon="-7.128279209136963">
        <ele>359.0</ele>
        <time>2019-04-26T06:21:35.000Z</time>
      </trkpt>
      <trkpt lat="42.39397430419922" lon="-7.128654479980469">
        <ele>361.0</ele>
        <time>2019-04-26T06:22:05.000Z</time>
      </trkpt>
      <trkpt lat="42.3939323425293" lon="-7.128779411315918">
        <ele>361.0</ele>
        <time>2019-04-26T06:22:19.000Z</time>
      </trkpt>
      <trkpt lat="42.393917083740234" lon="-7.1288228034973145">
        <ele>361.0</ele>
        <time>2019-04-26T06:22:20.000Z</time>
      </trkpt>
      <trkpt lat="42.393821716308594" lon="-7.129106044769287">
        <ele>362.0</ele>
        <time>2019-04-26T06:22:40.000Z</time>
      </trkpt>
      <trkpt lat="42.39381408691406" lon="-7.129171848297119">
        <ele>364.0</ele>
        <time>2019-04-26T06:23:00.000Z</time>
      </trkpt>
      <trkpt lat="42.39380645751953" lon="-7.12921142578125">
        <ele>364.0</ele>
        <time>2019-04-26T06:23:01.000Z</time>
      </trkpt>
      <trkpt lat="42.39373779296875" lon="-7.1294846534729">
        <ele>365.0</ele>
        <time>2019-04-26T06:23:15.000Z</time>
      </trkpt>
      <trkpt lat="42.393707275390625" lon="-7.1295881271362305">
        <ele>366.0</ele>
        <time>2019-04-26T06:23:36.000Z</time>
      </trkpt>
      <trkpt lat="42.39369583129883" lon="-7.12963342666626">
        <ele>366.0</ele>
        <time>2019-04-26T06:23:37.000Z</time>
      </trkpt>
      <trkpt lat="42.393638610839844" lon="-7.129790306091309">
        <ele>367.0</ele>
        <time>2019-04-26T06:23:43.000Z</time>
      </trkpt>
      <trkpt lat="42.39363098144531" lon="-7.129828453063965">
        <ele>369.0</ele>
        <time>2019-04-26T06:24:02.000Z</time>
      </trkpt>
      <trkpt lat="42.393619537353516" lon="-7.129857063293457">
        <ele>369.0</ele>
        <time>2019-04-26T06:24:03.000Z</time>
      </trkpt>
      <trkpt lat="42.39360427856445" lon="-7.129910469055176">
        <ele>369.0</ele>
        <time>2019-04-26T06:24:05.000Z</time>
      </trkpt>
      <trkpt lat="42.39360427856445" lon="-7.129918098449707">
        <ele>370.0</ele>
        <time>2019-04-26T06:24:10.000Z</time>
      </trkpt>
      <trkpt lat="42.39360046386719" lon="-7.129925727844238">
        <ele>370.0</ele>
        <time>2019-04-26T06:24:11.000Z</time>
      </trkpt>
      <trkpt lat="42.393524169921875" lon="-7.13037633895874">
        <ele>370.0</ele>
        <time>2019-04-26T06:24:29.000Z</time>
      </trkpt>
      <trkpt lat="42.393455505371094" lon="-7.130549907684326">
        <ele>371.0</ele>
        <time>2019-04-26T06:24:46.000Z</time>
      </trkpt>
      <trkpt lat="42.39344024658203" lon="-7.130598545074463">
        <ele>372.0</ele>
        <time>2019-04-26T06:25:06.000Z</time>
      </trkpt>
      <trkpt lat="42.3934326171875" lon="-7.130631446838379">
        <ele>372.0</ele>
        <time>2019-04-26T06:25:07.000Z</time>
      </trkpt>
      <trkpt lat="42.39340591430664" lon="-7.1307268142700195">
        <ele>372.0</ele>
        <time>2019-04-26T06:25:10.000Z</time>
      </trkpt>
      <trkpt lat="42.39339828491211" lon="-7.130743026733398">
        <ele>372.0</ele>
        <time>2019-04-26T06:25:25.000Z</time>
      </trkpt>
      <trkpt lat="42.39339065551758" lon="-7.1307573318481445">
        <ele>372.0</ele>
        <time>2019-04-26T06:25:26.000Z</time>
      </trkpt>
      <trkpt lat="42.39321517944336" lon="-7.131164073944092">
        <ele>373.0</ele>
        <time>2019-04-26T06:25:44.000Z</time>
      </trkpt>
      <trkpt lat="42.3930778503418" lon="-7.131588935852051">
        <ele>371.0</ele>
        <time>2019-04-26T06:26:16.000Z</time>
      </trkpt>
      <trkpt lat="42.39289855957031" lon="-7.132001876831055">
        <ele>369.0</ele>
        <time>2019-04-26T06:26:47.000Z</time>
      </trkpt>
      <trkpt lat="42.39271545410156" lon="-7.1324005126953125">
        <ele>367.0</ele>
        <time>2019-04-26T06:27:21.000Z</time>
      </trkpt>
      <trkpt lat="42.39247131347656" lon="-7.132725238800049">
        <ele>364.0</ele>
        <time>2019-04-26T06:27:51.000Z</time>
      </trkpt>
      <trkpt lat="42.3922233581543" lon="-7.133050441741943">
        <ele>362.0</ele>
        <time>2019-04-26T06:28:25.000Z</time>
      </trkpt>
      <trkpt lat="42.39219665527344" lon="-7.13307523727417">
        <ele>362.0</ele>
        <time>2019-04-26T06:28:29.000Z</time>
      </trkpt>
      <trkpt lat="42.39215850830078" lon="-7.133171081542969">
        <ele>363.0</ele>
        <time>2019-04-26T06:28:43.000Z</time>
      </trkpt>
      <trkpt lat="42.39213943481445" lon="-7.133212566375732">
        <ele>363.0</ele>
        <time>2019-04-26T06:28:44.000Z</time>
      </trkpt>
      <trkpt lat="42.391937255859375" lon="-7.133607864379883">
        <ele>365.0</ele>
        <time>2019-04-26T06:29:10.000Z</time>
      </trkpt>
      <trkpt lat="42.391719818115234" lon="-7.133973598480225">
        <ele>363.0</ele>
        <time>2019-04-26T06:29:42.000Z</time>
      </trkpt>
      <trkpt lat="42.3914909362793" lon="-7.134332180023193">
        <ele>360.0</ele>
        <time>2019-04-26T06:30:12.000Z</time>
      </trkpt>
      <trkpt lat="42.391334533691406" lon="-7.134432792663574">
        <ele>358.0</ele>
        <time>2019-04-26T06:30:27.000Z</time>
      </trkpt>
      <trkpt lat="42.39115905761719" lon="-7.134496688842773">
        <ele>356.0</ele>
        <time>2019-04-26T06:30:43.000Z</time>
      </trkpt>
      <trkpt lat="42.39107894897461" lon="-7.134542465209961">
        <ele>356.0</ele>
        <time>2019-04-26T06:30:50.000Z</time>
      </trkpt>
      <trkpt lat="42.390995025634766" lon="-7.134590148925781">
        <ele>355.0</ele>
        <time>2019-04-26T06:30:57.000Z</time>
      </trkpt>
      <trkpt lat="42.39091491699219" lon="-7.134639263153076">
        <ele>355.0</ele>
        <time>2019-04-26T06:31:04.000Z</time>
      </trkpt>
      <trkpt lat="42.390830993652344" lon="-7.1346893310546875">
        <ele>354.0</ele>
        <time>2019-04-26T06:31:11.000Z</time>
      </trkpt>
      <trkpt lat="42.3907470703125" lon="-7.134738922119141">
        <ele>354.0</ele>
        <time>2019-04-26T06:31:18.000Z</time>
      </trkpt>
      <trkpt lat="42.39066696166992" lon="-7.13478946685791">
        <ele>353.0</ele>
        <time>2019-04-26T06:31:26.000Z</time>
      </trkpt>
      <trkpt lat="42.390586853027344" lon="-7.134840488433838">
        <ele>353.0</ele>
        <time>2019-04-26T06:31:34.000Z</time>
      </trkpt>
      <trkpt lat="42.3905029296875" lon="-7.134891986846924">
        <ele>353.0</ele>
        <time>2019-04-26T06:31:42.000Z</time>
      </trkpt>
      <trkpt lat="42.39044952392578" lon="-7.134925365447998">
        <ele>353.0</ele>
        <time>2019-04-26T06:31:45.000Z</time>
      </trkpt>
      <trkpt lat="42.390403747558594" lon="-7.134952068328857">
        <ele>352.0</ele>
        <time>2019-04-26T06:31:49.000Z</time>
      </trkpt>
      <trkpt lat="42.3903694152832" lon="-7.134973526000977">
        <ele>352.0</ele>
        <time>2019-04-26T06:31:52.000Z</time>
      </trkpt>
      <trkpt lat="42.39033508300781" lon="-7.134993076324463">
        <ele>352.0</ele>
        <time>2019-04-26T06:31:56.000Z</time>
      </trkpt>
      <trkpt lat="42.39024353027344" lon="-7.134982109069824">
        <ele>352.0</ele>
        <time>2019-04-26T06:32:03.000Z</time>
      </trkpt>
      <trkpt lat="42.3901481628418" lon="-7.13494348526001">
        <ele>352.0</ele>
        <time>2019-04-26T06:32:10.000Z</time>
      </trkpt>
      <trkpt lat="42.39008331298828" lon="-7.134983062744141">
        <ele>351.0</ele>
        <time>2019-04-26T06:32:18.000Z</time>
      </trkpt>
      <trkpt lat="42.390010833740234" lon="-7.135044097900391">
        <ele>351.0</ele>
        <time>2019-04-26T06:32:27.000Z</time>
      </trkpt>
      <trkpt lat="42.389930725097656" lon="-7.135119438171387">
        <ele>351.0</ele>
        <time>2019-04-26T06:32:36.000Z</time>
      </trkpt>
      <trkpt lat="42.38984680175781" lon="-7.135202407836914">
        <ele>351.0</ele>
        <time>2019-04-26T06:32:45.000Z</time>
      </trkpt>
      <trkpt lat="42.389739990234375" lon="-7.135390758514404">
        <ele>352.0</ele>
        <time>2019-04-26T06:33:00.000Z</time>
      </trkpt>
      <trkpt lat="42.389652252197266" lon="-7.135606288909912">
        <ele>354.0</ele>
        <time>2019-04-26T06:33:16.000Z</time>
      </trkpt>
      <trkpt lat="42.389625549316406" lon="-7.135687828063965">
        <ele>355.0</ele>
        <time>2019-04-26T06:33:20.000Z</time>
      </trkpt>
      <trkpt lat="42.389610290527344" lon="-7.135761737823486">
        <ele>355.0</ele>
        <time>2019-04-26T06:33:25.000Z</time>
      </trkpt>
      <trkpt lat="42.38959884643555" lon="-7.135829925537109">
        <ele>356.0</ele>
        <time>2019-04-26T06:33:30.000Z</time>
      </trkpt>
      <trkpt lat="42.389591217041016" lon="-7.135895729064941">
        <ele>356.0</ele>
        <time>2019-04-26T06:33:35.000Z</time>
      </trkpt>
      <trkpt lat="42.38957214355469" lon="-7.135962963104248">
        <ele>356.0</ele>
        <time>2019-04-26T06:33:39.000Z</time>
      </trkpt>
      <trkpt lat="42.389556884765625" lon="-7.136028289794922">
        <ele>357.0</ele>
        <time>2019-04-26T06:33:43.000Z</time>
      </trkpt>
      <trkpt lat="42.3895378112793" lon="-7.136092185974121">
        <ele>357.0</ele>
        <time>2019-04-26T06:33:47.000Z</time>
      </trkpt>
      <trkpt lat="42.38951873779297" lon="-7.136155128479004">
        <ele>357.0</ele>
        <time>2019-04-26T06:33:51.000Z</time>
      </trkpt>
      <trkpt lat="42.38951110839844" lon="-7.136218547821045">
        <ele>357.0</ele>
        <time>2019-04-26T06:33:55.000Z</time>
      </trkpt>
      <trkpt lat="42.389503479003906" lon="-7.136280536651611">
        <ele>358.0</ele>
        <time>2019-04-26T06:33:59.000Z</time>
      </trkpt>
      <trkpt lat="42.38949966430664" lon="-7.136342525482178">
        <ele>358.0</ele>
        <time>2019-04-26T06:34:03.000Z</time>
      </trkpt>
      <trkpt lat="42.389495849609375" lon="-7.136404037475586">
        <ele>359.0</ele>
        <time>2019-04-26T06:34:07.000Z</time>
      </trkpt>
      <trkpt lat="42.389488220214844" lon="-7.136468887329102">
        <ele>359.0</ele>
        <time>2019-04-26T06:34:11.000Z</time>
      </trkpt>
      <trkpt lat="42.38948059082031" lon="-7.136535167694092">
        <ele>359.0</ele>
        <time>2019-04-26T06:34:15.000Z</time>
      </trkpt>
      <trkpt lat="42.38947677612305" lon="-7.13660192489624">
        <ele>359.0</ele>
        <time>2019-04-26T06:34:19.000Z</time>
      </trkpt>
      <trkpt lat="42.389469146728516" lon="-7.136669158935547">
        <ele>360.0</ele>
        <time>2019-04-26T06:34:24.000Z</time>
      </trkpt>
      <trkpt lat="42.389469146728516" lon="-7.136730194091797">
        <ele>360.0</ele>
        <time>2019-04-26T06:34:30.000Z</time>
      </trkpt>
      <trkpt lat="42.389469146728516" lon="-7.136789321899414">
        <ele>361.0</ele>
        <time>2019-04-26T06:34:36.000Z</time>
      </trkpt>
      <trkpt lat="42.389469146728516" lon="-7.136846542358398">
        <ele>363.0</ele>
        <time>2019-04-26T06:34:42.000Z</time>
      </trkpt>
      <trkpt lat="42.38947296142578" lon="-7.136903285980225">
        <ele>364.0</ele>
        <time>2019-04-26T06:34:48.000Z</time>
      </trkpt>
      <trkpt lat="42.389503479003906" lon="-7.137022495269775">
        <ele>364.0</ele>
        <time>2019-04-26T06:34:55.000Z</time>
      </trkpt>
      <trkpt lat="42.389549255371094" lon="-7.137143135070801">
        <ele>364.0</ele>
        <time>2019-04-26T06:35:03.000Z</time>
      </trkpt>
      <trkpt lat="42.38957214355469" lon="-7.137199401855469">
        <ele>365.0</ele>
        <time>2019-04-26T06:35:07.000Z</time>
      </trkpt>
      <trkpt lat="42.38959884643555" lon="-7.13725471496582">
        <ele>365.0</ele>
        <time>2019-04-26T06:35:12.000Z</time>
      </trkpt>
      <trkpt lat="42.38962173461914" lon="-7.137309551239014">
        <ele>366.0</ele>
        <time>2019-04-26T06:35:16.000Z</time>
      </trkpt>
      <trkpt lat="42.3896484375" lon="-7.137363433837891">
        <ele>367.0</ele>
        <time>2019-04-26T06:35:21.000Z</time>
      </trkpt>
      <trkpt lat="42.38967514038086" lon="-7.137417793273926">
        <ele>368.0</ele>
        <time>2019-04-26T06:35:25.000Z</time>
      </trkpt>
      <trkpt lat="42.38969802856445" lon="-7.137472152709961">
        <ele>369.0</ele>
        <time>2019-04-26T06:35:30.000Z</time>
      </trkpt>
      <trkpt lat="42.38972473144531" lon="-7.137526512145996">
        <ele>370.0</ele>
        <time>2019-04-26T06:35:34.000Z</time>
      </trkpt>
      <trkpt lat="42.38975143432617" lon="-7.137580871582031">
        <ele>371.0</ele>
        <time>2019-04-26T06:35:39.000Z</time>
      </trkpt>
      <trkpt lat="42.3897819519043" lon="-7.1376261711120605">
        <ele>370.0</ele>
        <time>2019-04-26T06:35:44.000Z</time>
      </trkpt>
      <trkpt lat="42.38981628417969" lon="-7.137668132781982">
        <ele>370.0</ele>
        <time>2019-04-26T06:35:50.000Z</time>
      </trkpt>
      <trkpt lat="42.38985061645508" lon="-7.137707710266113">
        <ele>369.0</ele>
        <time>2019-04-26T06:35:55.000Z</time>
      </trkpt>
      <trkpt lat="42.38988494873047" lon="-7.1377458572387695">
        <ele>368.0</ele>
        <time>2019-04-26T06:36:01.000Z</time>
      </trkpt>
      <trkpt lat="42.38990020751953" lon="-7.13776159286499">
        <ele>368.0</ele>
        <time>2019-04-26T06:36:15.000Z</time>
      </trkpt>
      <trkpt lat="42.3899040222168" lon="-7.1377668380737305">
        <ele>368.0</ele>
        <time>2019-04-26T06:36:30.000Z</time>
      </trkpt>
      <trkpt lat="42.3899040222168" lon="-7.137764930725098">
        <ele>368.0</ele>
        <time>2019-04-26T06:36:44.000Z</time>
      </trkpt>
      <trkpt lat="42.389896392822266" lon="-7.137759685516357">
        <ele>369.0</ele>
        <time>2019-04-26T06:36:59.000Z</time>
      </trkpt>
      <trkpt lat="42.38990020751953" lon="-7.137762546539307">
        <ele>369.0</ele>
        <time>2019-04-26T06:36:59.000Z</time>
      </trkpt>
      <trkpt lat="42.3899040222168" lon="-7.137765884399414">
        <ele>369.0</ele>
        <time>2019-04-26T06:36:59.000Z</time>
      </trkpt>
      <trkpt lat="42.3899040222168" lon="-7.137768745422363">
        <ele>369.0</ele>
        <time>2019-04-26T06:36:59.000Z</time>
      </trkpt>
      <trkpt lat="42.38990783691406" lon="-7.1377716064453125">
        <ele>369.0</ele>
        <time>2019-04-26T06:37:00.000Z</time>
      </trkpt>
      <trkpt lat="42.39017868041992" lon="-7.138041019439697">
        <ele>369.0</ele>
        <time>2019-04-26T06:37:14.000Z</time>
      </trkpt>
      <trkpt lat="42.390281677246094" lon="-7.138181209564209">
        <ele>369.0</ele>
        <time>2019-04-26T06:37:25.000Z</time>
      </trkpt>
      <trkpt lat="42.390289306640625" lon="-7.138243675231934">
        <ele>369.0</ele>
        <time>2019-04-26T06:37:29.000Z</time>
      </trkpt>
      <trkpt lat="42.39028549194336" lon="-7.138317584991455">
        <ele>369.0</ele>
        <time>2019-04-26T06:37:34.000Z</time>
      </trkpt>
      <trkpt lat="42.39027786254883" lon="-7.138399124145508">
        <ele>369.0</ele>
        <time>2019-04-26T06:37:38.000Z</time>
      </trkpt>
      <trkpt lat="42.3902702331543" lon="-7.138484477996826">
        <ele>369.0</ele>
        <time>2019-04-26T06:37:43.000Z</time>
      </trkpt>
      <trkpt lat="42.390323638916016" lon="-7.1386895179748535">
        <ele>369.0</ele>
        <time>2019-04-26T06:37:58.000Z</time>
      </trkpt>
      <trkpt lat="42.390411376953125" lon="-7.138918876647949">
        <ele>369.0</ele>
        <time>2019-04-26T06:38:14.000Z</time>
      </trkpt>
      <trkpt lat="42.390472412109375" lon="-7.138993263244629">
        <ele>369.0</ele>
        <time>2019-04-26T06:38:21.000Z</time>
      </trkpt>
      <trkpt lat="42.39054870605469" lon="-7.1390533447265625">
        <ele>369.0</ele>
        <time>2019-04-26T06:38:29.000Z</time>
      </trkpt>
      <trkpt lat="42.390628814697266" lon="-7.139103889465332">
        <ele>369.0</ele>
        <time>2019-04-26T06:38:37.000Z</time>
      </trkpt>
      <trkpt lat="42.390716552734375" lon="-7.139150142669678">
        <ele>369.0</ele>
        <time>2019-04-26T06:38:45.000Z</time>
      </trkpt>
      <trkpt lat="42.39076232910156" lon="-7.139180660247803">
        <ele>369.0</ele>
        <time>2019-04-26T06:38:47.000Z</time>
      </trkpt>
      <trkpt lat="42.39079284667969" lon="-7.139199733734131">
        <ele>369.0</ele>
        <time>2019-04-26T06:38:49.000Z</time>
      </trkpt>
      <trkpt lat="42.39081573486328" lon="-7.139211654663086">
        <ele>369.0</ele>
        <time>2019-04-26T06:38:51.000Z</time>
      </trkpt>
      <trkpt lat="42.39083480834961" lon="-7.139219284057617">
        <ele>369.0</ele>
        <time>2019-04-26T06:38:54.000Z</time>
      </trkpt>
      <trkpt lat="42.39085006713867" lon="-7.139227390289307">
        <ele>369.0</ele>
        <time>2019-04-26T06:38:58.000Z</time>
      </trkpt>
      <trkpt lat="42.3908576965332" lon="-7.139231204986572">
        <ele>369.0</ele>
        <time>2019-04-26T06:39:02.000Z</time>
      </trkpt>
      <trkpt lat="42.3908576965332" lon="-7.139232635498047">
        <ele>369.0</ele>
        <time>2019-04-26T06:39:06.000Z</time>
      </trkpt>
      <trkpt lat="42.3908576965332" lon="-7.139232635498047">
        <ele>369.0</ele>
        <time>2019-04-26T06:39:11.000Z</time>
      </trkpt>
      <trkpt lat="42.390865325927734" lon="-7.139235496520996">
        <ele>369.0</ele>
        <time>2019-04-26T06:39:11.000Z</time>
      </trkpt>
      <trkpt lat="42.390869140625" lon="-7.139238357543945">
        <ele>369.0</ele>
        <time>2019-04-26T06:39:11.000Z</time>
      </trkpt>
      <trkpt lat="42.390872955322266" lon="-7.139240741729736">
        <ele>369.0</ele>
        <time>2019-04-26T06:39:11.000Z</time>
      </trkpt>
      <trkpt lat="42.39087677001953" lon="-7.139243125915527">
        <ele>369.0</ele>
        <time>2019-04-26T06:39:12.000Z</time>
      </trkpt>
      <trkpt lat="42.39091110229492" lon="-7.139260292053223">
        <ele>369.0</ele>
        <time>2019-04-26T06:39:14.000Z</time>
      </trkpt>
      <trkpt lat="42.390953063964844" lon="-7.139283180236816">
        <ele>369.0</ele>
        <time>2019-04-26T06:39:16.000Z</time>
      </trkpt>
      <trkpt lat="42.39100646972656" lon="-7.139310359954834">
        <ele>369.0</ele>
        <time>2019-04-26T06:39:18.000Z</time>
      </trkpt>
      <trkpt lat="42.39106369018555" lon="-7.139339447021484">
        <ele>369.0</ele>
        <time>2019-04-26T06:39:21.000Z</time>
      </trkpt>
      <trkpt lat="42.39108657836914" lon="-7.139349460601807">
        <ele>370.0</ele>
        <time>2019-04-26T06:39:29.000Z</time>
      </trkpt>
      <trkpt lat="42.39110565185547" lon="-7.139353275299072">
        <ele>370.0</ele>
        <time>2019-04-26T06:39:37.000Z</time>
      </trkpt>
      <trkpt lat="42.391117095947266" lon="-7.139353275299072">
        <ele>370.0</ele>
        <time>2019-04-26T06:39:45.000Z</time>
      </trkpt>
      <trkpt lat="42.3911247253418" lon="-7.139350891113281">
        <ele>370.0</ele>
        <time>2019-04-26T06:39:53.000Z</time>
      </trkpt>
      <trkpt lat="42.39115905761719" lon="-7.139357089996338">
        <ele>370.0</ele>
        <time>2019-04-26T06:39:54.000Z</time>
      </trkpt>
      <trkpt lat="42.391361236572266" lon="-7.139474391937256">
        <ele>370.0</ele>
        <time>2019-04-26T06:40:06.000Z</time>
      </trkpt>
      <trkpt lat="42.39138412475586" lon="-7.139514923095703">
        <ele>370.0</ele>
        <time>2019-04-26T06:40:08.000Z</time>
      </trkpt>
      <trkpt lat="42.391395568847656" lon="-7.139560222625732">
        <ele>370.0</ele>
        <time>2019-04-26T06:40:11.000Z</time>
      </trkpt>
      <trkpt lat="42.39139938354492" lon="-7.139608860015869">
        <ele>370.0</ele>
        <time>2019-04-26T06:40:14.000Z</time>
      </trkpt>
      <trkpt lat="42.39140319824219" lon="-7.1396589279174805">
        <ele>370.0</ele>
        <time>2019-04-26T06:40:17.000Z</time>
      </trkpt>
      <trkpt lat="42.39136505126953" lon="-7.13985538482666">
        <ele>371.0</ele>
        <time>2019-04-26T06:40:29.000Z</time>
      </trkpt>
      <trkpt lat="42.391300201416016" lon="-7.140100002288818">
        <ele>373.0</ele>
        <time>2019-04-26T06:40:41.000Z</time>
      </trkpt>
      <trkpt lat="42.391239166259766" lon="-7.140163421630859">
        <ele>373.0</ele>
        <time>2019-04-26T06:40:49.000Z</time>
      </trkpt>
      <trkpt lat="42.39116287231445" lon="-7.140207767486572">
        <ele>374.0</ele>
        <time>2019-04-26T06:40:57.000Z</time>
      </trkpt>
      <trkpt lat="42.391075134277344" lon="-7.1402387619018555">
        <ele>374.0</ele>
        <time>2019-04-26T06:41:05.000Z</time>
      </trkpt>
      <trkpt lat="42.3909797668457" lon="-7.140263557434082">
        <ele>374.0</ele>
        <time>2019-04-26T06:41:13.000Z</time>
      </trkpt>
      <trkpt lat="42.39092254638672" lon="-7.14030647277832">
        <ele>374.0</ele>
        <time>2019-04-26T06:41:18.000Z</time>
      </trkpt>
      <trkpt lat="42.390869140625" lon="-7.140349864959717">
        <ele>375.0</ele>
        <time>2019-04-26T06:41:23.000Z</time>
      </trkpt>
      <trkpt lat="42.39082717895508" lon="-7.14039421081543">
        <ele>375.0</ele>
        <time>2019-04-26T06:41:28.000Z</time>
      </trkpt>
      <trkpt lat="42.390785217285156" lon="-7.140438556671143">
        <ele>375.0</ele>
        <time>2019-04-26T06:41:33.000Z</time>
      </trkpt>
      <trkpt lat="42.39076232910156" lon="-7.14045524597168">
        <ele>375.0</ele>
        <time>2019-04-26T06:41:37.000Z</time>
      </trkpt>
      <trkpt lat="42.39075469970703" lon="-7.14046049118042">
        <ele>375.0</ele>
        <time>2019-04-26T06:41:41.000Z</time>
      </trkpt>
      <trkpt lat="42.39075469970703" lon="-7.140458106994629">
        <ele>375.0</ele>
        <time>2019-04-26T06:41:45.000Z</time>
      </trkpt>
      <trkpt lat="42.3907585144043" lon="-7.140451908111572">
        <ele>375.0</ele>
        <time>2019-04-26T06:41:49.000Z</time>
      </trkpt>
      <trkpt lat="42.39075469970703" lon="-7.1404547691345215">
        <ele>375.0</ele>
        <time>2019-04-26T06:41:49.000Z</time>
      </trkpt>
      <trkpt lat="42.390750885009766" lon="-7.140457630157471">
        <ele>375.0</ele>
        <time>2019-04-26T06:41:49.000Z</time>
      </trkpt>
      <trkpt lat="42.3907470703125" lon="-7.140460014343262">
        <ele>375.0</ele>
        <time>2019-04-26T06:41:49.000Z</time>
      </trkpt>
      <trkpt lat="42.39073944091797" lon="-7.140462398529053">
        <ele>375.0</ele>
        <time>2019-04-26T06:41:50.000Z</time>
      </trkpt>
      <trkpt lat="42.390708923339844" lon="-7.14047908782959">
        <ele>375.0</ele>
        <time>2019-04-26T06:41:52.000Z</time>
      </trkpt>
      <trkpt lat="42.39066696166992" lon="-7.140501976013184">
        <ele>375.0</ele>
        <time>2019-04-26T06:41:54.000Z</time>
      </trkpt>
      <trkpt lat="42.39061737060547" lon="-7.140528202056885">
        <ele>376.0</ele>
        <time>2019-04-26T06:41:56.000Z</time>
      </trkpt>
      <trkpt lat="42.390560150146484" lon="-7.140556812286377">
        <ele>376.0</ele>
        <time>2019-04-26T06:41:58.000Z</time>
      </trkpt>
      <trkpt lat="42.39052200317383" lon="-7.140583515167236">
        <ele>377.0</ele>
        <time>2019-04-26T06:42:01.000Z</time>
      </trkpt>
      <trkpt lat="42.39048767089844" lon="-7.14061164855957">
        <ele>377.0</ele>
        <time>2019-04-26T06:42:03.000Z</time>
      </trkpt>
      <trkpt lat="42.39045715332031" lon="-7.1406402587890625">
        <ele>377.0</ele>
        <time>2019-04-26T06:42:06.000Z</time>
      </trkpt>
      <trkpt lat="42.39042282104492" lon="-7.140669822692871">
        <ele>378.0</ele>
        <time>2019-04-26T06:42:09.000Z</time>
      </trkpt>
      <trkpt lat="42.390403747558594" lon="-7.140675067901611">
        <ele>379.0</ele>
        <time>2019-04-26T06:42:27.000Z</time>
      </trkpt>
      <trkpt lat="42.390384674072266" lon="-7.140679359436035">
        <ele>379.0</ele>
        <time>2019-04-26T06:42:28.000Z</time>
      </trkpt>
      <trkpt lat="42.390380859375" lon="-7.14068078994751">
        <ele>380.0</ele>
        <time>2019-04-26T06:42:32.000Z</time>
      </trkpt>
      <trkpt lat="42.39030838012695" lon="-7.140671253204346">
        <ele>380.0</ele>
        <time>2019-04-26T06:42:37.000Z</time>
      </trkpt>
      <trkpt lat="42.3902702331543" lon="-7.140666484832764">
        <ele>380.0</ele>
        <time>2019-04-26T06:42:38.000Z</time>
      </trkpt>
      <trkpt lat="42.390220642089844" lon="-7.140655517578125">
        <ele>380.0</ele>
        <time>2019-04-26T06:42:39.000Z</time>
      </trkpt>
      <trkpt lat="42.39018630981445" lon="-7.140646934509277">
        <ele>380.0</ele>
        <time>2019-04-26T06:42:40.000Z</time>
      </trkpt>
      <trkpt lat="42.390167236328125" lon="-7.140641212463379">
        <ele>380.0</ele>
        <time>2019-04-26T06:42:41.000Z</time>
      </trkpt>
      <trkpt lat="42.390159606933594" lon="-7.140634059906006">
        <ele>380.0</ele>
        <time>2019-04-26T06:42:55.000Z</time>
      </trkpt>
      <trkpt lat="42.39015579223633" lon="-7.140627861022949">
        <ele>380.0</ele>
        <time>2019-04-26T06:42:56.000Z</time>
      </trkpt>
      <trkpt lat="42.3898811340332" lon="-7.140403747558594">
        <ele>379.0</ele>
        <time>2019-04-26T06:43:10.000Z</time>
      </trkpt>
      <trkpt lat="42.38983154296875" lon="-7.140359401702881">
        <ele>379.0</ele>
        <time>2019-04-26T06:43:15.000Z</time>
      </trkpt>
      <trkpt lat="42.389766693115234" lon="-7.140340805053711">
        <ele>379.0</ele>
        <time>2019-04-26T06:43:28.000Z</time>
      </trkpt>
      <trkpt lat="42.38973617553711" lon="-7.140330791473389">
        <ele>379.0</ele>
        <time>2019-04-26T06:43:29.000Z</time>
      </trkpt>
      <trkpt lat="42.38956832885742" lon="-7.14029598236084">
        <ele>379.0</ele>
        <time>2019-04-26T06:43:37.000Z</time>
      </trkpt>
      <trkpt lat="42.3895149230957" lon="-7.140301704406738">
        <ele>379.0</ele>
        <time>2019-04-26T06:43:58.000Z</time>
      </trkpt>
      <trkpt lat="42.38948059082031" lon="-7.140305519104004">
        <ele>379.0</ele>
        <time>2019-04-26T06:43:59.000Z</time>
      </trkpt>
      <trkpt lat="42.389366149902344" lon="-7.140325546264648">
        <ele>379.0</ele>
        <time>2019-04-26T06:44:03.000Z</time>
      </trkpt>
      <trkpt lat="42.38935089111328" lon="-7.140337944030762">
        <ele>381.0</ele>
        <time>2019-04-26T06:44:12.000Z</time>
      </trkpt>
      <trkpt lat="42.389339447021484" lon="-7.140347957611084">
        <ele>381.0</ele>
        <time>2019-04-26T06:44:13.000Z</time>
      </trkpt>
      <trkpt lat="42.389278411865234" lon="-7.140402317047119">
        <ele>382.0</ele>
        <time>2019-04-26T06:44:15.000Z</time>
      </trkpt>
      <trkpt lat="42.3891487121582" lon="-7.140538692474365">
        <ele>383.0</ele>
        <time>2019-04-26T06:44:20.000Z</time>
      </trkpt>
      <trkpt lat="42.38901138305664" lon="-7.140703201293945">
        <ele>388.0</ele>
        <time>2019-04-26T06:44:35.000Z</time>
      </trkpt>
      <trkpt lat="42.388885498046875" lon="-7.140873908996582">
        <ele>393.0</ele>
        <time>2019-04-26T06:44:52.000Z</time>
      </trkpt>
      <trkpt lat="42.38877868652344" lon="-7.141049861907959">
        <ele>397.0</ele>
        <time>2019-04-26T06:45:07.000Z</time>
      </trkpt>
      <trkpt lat="42.388580322265625" lon="-7.141429901123047">
        <ele>405.0</ele>
        <time>2019-04-26T06:45:43.000Z</time>
      </trkpt>
      <trkpt lat="42.38856887817383" lon="-7.141467094421387">
        <ele>406.0</ele>
        <time>2019-04-26T06:45:47.000Z</time>
      </trkpt>
      <trkpt lat="42.38856506347656" lon="-7.141491889953613">
        <ele>409.0</ele>
        <time>2019-04-26T06:46:05.000Z</time>
      </trkpt>
      <trkpt lat="42.38855743408203" lon="-7.141512393951416">
        <ele>409.0</ele>
        <time>2019-04-26T06:46:06.000Z</time>
      </trkpt>
      <trkpt lat="42.3885612487793" lon="-7.141977310180664">
        <ele>412.0</ele>
        <time>2019-04-26T06:46:25.000Z</time>
      </trkpt>
      <trkpt lat="42.388587951660156" lon="-7.142110824584961">
        <ele>414.0</ele>
        <time>2019-04-26T06:46:40.000Z</time>
      </trkpt>
      <trkpt lat="42.38859558105469" lon="-7.1421589851379395">
        <ele>414.0</ele>
        <time>2019-04-26T06:46:41.000Z</time>
      </trkpt>
      <trkpt lat="42.388736724853516" lon="-7.14258337020874">
        <ele>421.0</ele>
        <time>2019-04-26T06:47:12.000Z</time>
      </trkpt>
      <trkpt lat="42.38885498046875" lon="-7.142786026000977">
        <ele>424.0</ele>
        <time>2019-04-26T06:47:32.000Z</time>
      </trkpt>
      <trkpt lat="42.3889045715332" lon="-7.142893314361572">
        <ele>425.0</ele>
        <time>2019-04-26T06:47:43.000Z</time>
      </trkpt>
      <trkpt lat="42.38892364501953" lon="-7.142932891845703">
        <ele>425.0</ele>
        <time>2019-04-26T06:47:44.000Z</time>
      </trkpt>
      <trkpt lat="42.38898468017578" lon="-7.1431145668029785">
        <ele>425.0</ele>
        <time>2019-04-26T06:47:52.000Z</time>
      </trkpt>
      <trkpt lat="42.38897705078125" lon="-7.143179416656494">
        <ele>426.0</ele>
        <time>2019-04-26T06:47:57.000Z</time>
      </trkpt>
      <trkpt lat="42.38895797729492" lon="-7.143251895904541">
        <ele>426.0</ele>
        <time>2019-04-26T06:48:02.000Z</time>
      </trkpt>
      <trkpt lat="42.38893508911133" lon="-7.143329620361328">
        <ele>426.0</ele>
        <time>2019-04-26T06:48:08.000Z</time>
      </trkpt>
      <trkpt lat="42.38890838623047" lon="-7.143410682678223">
        <ele>427.0</ele>
        <time>2019-04-26T06:48:13.000Z</time>
      </trkpt>
      <trkpt lat="42.38886260986328" lon="-7.143495082855225">
        <ele>427.0</ele>
        <time>2019-04-26T06:48:22.000Z</time>
      </trkpt>
      <trkpt lat="42.38880920410156" lon="-7.14358377456665">
        <ele>427.0</ele>
        <time>2019-04-26T06:48:30.000Z</time>
      </trkpt>
      <trkpt lat="42.38874435424805" lon="-7.143675327301025">
        <ele>428.0</ele>
        <time>2019-04-26T06:48:39.000Z</time>
      </trkpt>
      <trkpt lat="42.38867950439453" lon="-7.143768787384033">
        <ele>428.0</ele>
        <time>2019-04-26T06:48:48.000Z</time>
      </trkpt>
      <trkpt lat="42.38865661621094" lon="-7.143800735473633">
        <ele>428.0</ele>
        <time>2019-04-26T06:48:49.000Z</time>
      </trkpt>
      <trkpt lat="42.388648986816406" lon="-7.1438093185424805">
        <ele>428.0</ele>
        <time>2019-04-26T06:48:50.000Z</time>
      </trkpt>
      <trkpt lat="42.38865280151367" lon="-7.143801689147949">
        <ele>428.0</ele>
        <time>2019-04-26T06:48:51.000Z</time>
      </trkpt>
      <trkpt lat="42.3886604309082" lon="-7.1437859535217285">
        <ele>428.0</ele>
        <time>2019-04-26T06:48:52.000Z</time>
      </trkpt>
      <trkpt lat="42.38865661621094" lon="-7.1437883377075195">
        <ele>428.0</ele>
        <time>2019-04-26T06:48:55.000Z</time>
      </trkpt>
      <trkpt lat="42.38865280151367" lon="-7.143790245056152">
        <ele>428.0</ele>
        <time>2019-04-26T06:48:58.000Z</time>
      </trkpt>
      <trkpt lat="42.38865280151367" lon="-7.143791198730469">
        <ele>428.0</ele>
        <time>2019-04-26T06:49:02.000Z</time>
      </trkpt>
      <trkpt lat="42.388648986816406" lon="-7.143792152404785">
        <ele>428.0</ele>
        <time>2019-04-26T06:49:05.000Z</time>
      </trkpt>
      <trkpt lat="42.388648986816406" lon="-7.14379358291626">
        <ele>428.0</ele>
        <time>2019-04-26T06:49:05.000Z</time>
      </trkpt>
      <trkpt lat="42.38864517211914" lon="-7.143795013427734">
        <ele>428.0</ele>
        <time>2019-04-26T06:49:05.000Z</time>
      </trkpt>
      <trkpt lat="42.38864517211914" lon="-7.143796443939209">
        <ele>428.0</ele>
        <time>2019-04-26T06:49:06.000Z</time>
      </trkpt>
      <trkpt lat="42.388641357421875" lon="-7.143797874450684">
        <ele>428.0</ele>
        <time>2019-04-26T06:49:06.000Z</time>
      </trkpt>
      <trkpt lat="42.38859558105469" lon="-7.143833637237549">
        <ele>428.0</ele>
        <time>2019-04-26T06:49:10.000Z</time>
      </trkpt>
      <trkpt lat="42.38853073120117" lon="-7.14388370513916">
        <ele>429.0</ele>
        <time>2019-04-26T06:49:13.000Z</time>
      </trkpt>
      <trkpt lat="42.388450622558594" lon="-7.143943786621094">
        <ele>429.0</ele>
        <time>2019-04-26T06:49:17.000Z</time>
      </trkpt>
      <trkpt lat="42.38836669921875" lon="-7.144008159637451">
        <ele>429.0</ele>
        <time>2019-04-26T06:49:21.000Z</time>
      </trkpt>
      <trkpt lat="42.38802719116211" lon="-7.144153594970703">
        <ele>431.0</ele>
        <time>2019-04-26T06:49:47.000Z</time>
      </trkpt>
      <trkpt lat="42.387733459472656" lon="-7.144344806671143">
        <ele>432.0</ele>
        <time>2019-04-26T06:50:18.000Z</time>
      </trkpt>
      <trkpt lat="42.38768005371094" lon="-7.144420146942139">
        <ele>432.0</ele>
        <time>2019-04-26T06:50:36.000Z</time>
      </trkpt>
      <trkpt lat="42.38765335083008" lon="-7.144454479217529">
        <ele>432.0</ele>
        <time>2019-04-26T06:50:37.000Z</time>
      </trkpt>
      <trkpt lat="42.387638092041016" lon="-7.144478797912598">
        <ele>432.0</ele>
        <time>2019-04-26T06:50:38.000Z</time>
      </trkpt>
      <trkpt lat="42.38762664794922" lon="-7.144506931304932">
        <ele>433.0</ele>
        <time>2019-04-26T06:50:49.000Z</time>
      </trkpt>
      <trkpt lat="42.38761901855469" lon="-7.144528865814209">
        <ele>433.0</ele>
        <time>2019-04-26T06:50:50.000Z</time>
      </trkpt>
      <trkpt lat="42.38747787475586" lon="-7.1448845863342285">
        <ele>433.0</ele>
        <time>2019-04-26T06:51:06.000Z</time>
      </trkpt>
      <trkpt lat="42.38740921020508" lon="-7.145024299621582">
        <ele>433.0</ele>
        <time>2019-04-26T06:51:24.000Z</time>
      </trkpt>
      <trkpt lat="42.387393951416016" lon="-7.145054817199707">
        <ele>433.0</ele>
        <time>2019-04-26T06:51:25.000Z</time>
      </trkpt>
      <trkpt lat="42.387386322021484" lon="-7.145066738128662">
        <ele>433.0</ele>
        <time>2019-04-26T06:51:26.000Z</time>
      </trkpt>
      <trkpt lat="42.38737869262695" lon="-7.14507532119751">
        <ele>434.0</ele>
        <time>2019-04-26T06:51:40.000Z</time>
      </trkpt>
      <trkpt lat="42.38737487792969" lon="-7.145083427429199">
        <ele>434.0</ele>
        <time>2019-04-26T06:51:41.000Z</time>
      </trkpt>
      <trkpt lat="42.3870964050293" lon="-7.1453704833984375">
        <ele>435.0</ele>
        <time>2019-04-26T06:51:59.000Z</time>
      </trkpt>
      <trkpt lat="42.38689041137695" lon="-7.145507335662842">
        <ele>435.0</ele>
        <time>2019-04-26T06:52:25.000Z</time>
      </trkpt>
      <trkpt lat="42.386878967285156" lon="-7.145528316497803">
        <ele>436.0</ele>
        <time>2019-04-26T06:52:41.000Z</time>
      </trkpt>
      <trkpt lat="42.386871337890625" lon="-7.1455464363098145">
        <ele>436.0</ele>
        <time>2019-04-26T06:52:42.000Z</time>
      </trkpt>
      <trkpt lat="42.3867301940918" lon="-7.145975112915039">
        <ele>436.0</ele>
        <time>2019-04-26T06:52:59.000Z</time>
      </trkpt>
      <trkpt lat="42.38661193847656" lon="-7.146422386169434">
        <ele>436.0</ele>
        <time>2019-04-26T06:53:32.000Z</time>
      </trkpt>
      <trkpt lat="42.386451721191406" lon="-7.146848201751709">
        <ele>437.0</ele>
        <time>2019-04-26T06:54:01.000Z</time>
      </trkpt>
      <trkpt lat="42.38642120361328" lon="-7.146990776062012">
        <ele>437.0</ele>
        <time>2019-04-26T06:54:18.000Z</time>
      </trkpt>
      <trkpt lat="42.386417388916016" lon="-7.147019863128662">
        <ele>437.0</ele>
        <time>2019-04-26T06:54:56.000Z</time>
      </trkpt>
      <trkpt lat="42.38641357421875" lon="-7.147043704986572">
        <ele>437.0</ele>
        <time>2019-04-26T06:54:57.000Z</time>
      </trkpt>
      <trkpt lat="42.3863525390625" lon="-7.14750862121582">
        <ele>437.0</ele>
        <time>2019-04-26T06:55:14.000Z</time>
      </trkpt>
      <trkpt lat="42.38636016845703" lon="-7.147761821746826">
        <ele>437.0</ele>
        <time>2019-04-26T06:55:35.000Z</time>
      </trkpt>
      <trkpt lat="42.386356353759766" lon="-7.147762775421143">
        <ele>437.0</ele>
        <time>2019-04-26T06:55:36.000Z</time>
      </trkpt>
      <trkpt lat="42.386356353759766" lon="-7.147830486297607">
        <ele>438.0</ele>
        <time>2019-04-26T06:58:27.000Z</time>
      </trkpt>
      <trkpt lat="42.386356353759766" lon="-7.147871971130371">
        <ele>438.0</ele>
        <time>2019-04-26T06:58:28.000Z</time>
      </trkpt>
      <trkpt lat="42.38628005981445" lon="-7.148339748382568">
        <ele>439.0</ele>
        <time>2019-04-26T06:58:48.000Z</time>
      </trkpt>
      <trkpt lat="42.38617706298828" lon="-7.148526668548584">
        <ele>439.0</ele>
        <time>2019-04-26T06:59:02.000Z</time>
      </trkpt>
      <trkpt lat="42.38603973388672" lon="-7.148691654205322">
        <ele>440.0</ele>
        <time>2019-04-26T06:59:17.000Z</time>
      </trkpt>
      <trkpt lat="42.38602828979492" lon="-7.148799896240234">
        <ele>439.0</ele>
        <time>2019-04-26T06:59:24.000Z</time>
      </trkpt>
      <trkpt lat="42.38603591918945" lon="-7.148916721343994">
        <ele>438.0</ele>
        <time>2019-04-26T06:59:30.000Z</time>
      </trkpt>
      <trkpt lat="42.38605499267578" lon="-7.149039268493652">
        <ele>437.0</ele>
        <time>2019-04-26T06:59:37.000Z</time>
      </trkpt>
      <trkpt lat="42.38608169555664" lon="-7.14916467666626">
        <ele>436.0</ele>
        <time>2019-04-26T06:59:44.000Z</time>
      </trkpt>
      <trkpt lat="42.3860969543457" lon="-7.149281024932861">
        <ele>436.0</ele>
        <time>2019-04-26T06:59:50.000Z</time>
      </trkpt>
      <trkpt lat="42.386112213134766" lon="-7.149396896362305">
        <ele>435.0</ele>
        <time>2019-04-26T06:59:57.000Z</time>
      </trkpt>
      <trkpt lat="42.386131286621094" lon="-7.14951229095459">
        <ele>434.0</ele>
        <time>2019-04-26T07:00:03.000Z</time>
      </trkpt>
      <trkpt lat="42.38615036010742" lon="-7.149627208709717">
        <ele>434.0</ele>
        <time>2019-04-26T07:00:10.000Z</time>
      </trkpt>
      <trkpt lat="42.38617706298828" lon="-7.149737358093262">
        <ele>433.0</ele>
        <time>2019-04-26T07:00:18.000Z</time>
      </trkpt>
      <trkpt lat="42.386207580566406" lon="-7.149845600128174">
        <ele>432.0</ele>
        <time>2019-04-26T07:00:25.000Z</time>
      </trkpt>
      <trkpt lat="42.38624572753906" lon="-7.149952411651611">
        <ele>431.0</ele>
        <time>2019-04-26T07:00:33.000Z</time>
      </trkpt>
      <trkpt lat="42.38628005981445" lon="-7.150058269500732">
        <ele>431.0</ele>
        <time>2019-04-26T07:00:41.000Z</time>
      </trkpt>
      <trkpt lat="42.38631820678711" lon="-7.15015983581543">
        <ele>430.0</ele>
        <time>2019-04-26T07:00:49.000Z</time>
      </trkpt>
      <trkpt lat="42.38636016845703" lon="-7.150259494781494">
        <ele>430.0</ele>
        <time>2019-04-26T07:00:56.000Z</time>
      </trkpt>
      <trkpt lat="42.38640213012695" lon="-7.150357246398926">
        <ele>429.0</ele>
        <time>2019-04-26T07:01:04.000Z</time>
      </trkpt>
      <trkpt lat="42.386444091796875" lon="-7.150454521179199">
        <ele>429.0</ele>
        <time>2019-04-26T07:01:12.000Z</time>
      </trkpt>
      <trkpt lat="42.3864631652832" lon="-7.150686740875244">
        <ele>429.0</ele>
        <time>2019-04-26T07:01:25.000Z</time>
      </trkpt>
      <trkpt lat="42.38645553588867" lon="-7.150934219360352">
        <ele>429.0</ele>
        <time>2019-04-26T07:01:38.000Z</time>
      </trkpt>
      <trkpt lat="42.3864631652832" lon="-7.151020526885986">
        <ele>428.0</ele>
        <time>2019-04-26T07:01:43.000Z</time>
      </trkpt>
      <trkpt lat="42.386470794677734" lon="-7.151092529296875">
        <ele>428.0</ele>
        <time>2019-04-26T07:01:49.000Z</time>
      </trkpt>
      <trkpt lat="42.386478424072266" lon="-7.151155471801758">
        <ele>428.0</ele>
        <time>2019-04-26T07:01:54.000Z</time>
      </trkpt>
      <trkpt lat="42.3864860534668" lon="-7.151213645935059">
        <ele>428.0</ele>
        <time>2019-04-26T07:02:00.000Z</time>
      </trkpt>
      <trkpt lat="42.38648986816406" lon="-7.151243686676025">
        <ele>428.0</ele>
        <time>2019-04-26T07:02:04.000Z</time>
      </trkpt>
      <trkpt lat="42.38649368286133" lon="-7.151256561279297">
        <ele>428.0</ele>
        <time>2019-04-26T07:02:08.000Z</time>
      </trkpt>
      <trkpt lat="42.386497497558594" lon="-7.15125846862793">
        <ele>428.0</ele>
        <time>2019-04-26T07:02:13.000Z</time>
      </trkpt>
      <trkpt lat="42.38650131225586" lon="-7.151255130767822">
        <ele>428.0</ele>
        <time>2019-04-26T07:02:17.000Z</time>
      </trkpt>
      <trkpt lat="42.38650131225586" lon="-7.151263236999512">
        <ele>427.0</ele>
        <time>2019-04-26T07:02:17.000Z</time>
      </trkpt>
      <trkpt lat="42.386505126953125" lon="-7.151271343231201">
        <ele>427.0</ele>
        <time>2019-04-26T07:02:17.000Z</time>
      </trkpt>
      <trkpt lat="42.38650894165039" lon="-7.151278495788574">
        <ele>427.0</ele>
        <time>2019-04-26T07:02:18.000Z</time>
      </trkpt>
      <trkpt lat="42.38650894165039" lon="-7.151285171508789">
        <ele>428.0</ele>
        <time>2019-04-26T07:02:18.000Z</time>
      </trkpt>
      <trkpt lat="42.38654327392578" lon="-7.151345252990723">
        <ele>428.0</ele>
        <time>2019-04-26T07:02:23.000Z</time>
      </trkpt>
      <trkpt lat="42.38658905029297" lon="-7.151427268981934">
        <ele>428.0</ele>
        <time>2019-04-26T07:02:27.000Z</time>
      </trkpt>
      <trkpt lat="42.38664627075195" lon="-7.151523590087891">
        <ele>428.0</ele>
        <time>2019-04-26T07:02:32.000Z</time>
      </trkpt>
      <trkpt lat="42.38670349121094" lon="-7.151627540588379">
        <ele>428.0</ele>
        <time>2019-04-26T07:02:37.000Z</time>
      </trkpt>
      <trkpt lat="42.38673782348633" lon="-7.151728630065918">
        <ele>428.0</ele>
        <time>2019-04-26T07:02:43.000Z</time>
      </trkpt>
      <trkpt lat="42.38676452636719" lon="-7.1518354415893555">
        <ele>428.0</ele>
        <time>2019-04-26T07:02:50.000Z</time>
      </trkpt>
      <trkpt lat="42.38678741455078" lon="-7.151946544647217">
        <ele>429.0</ele>
        <time>2019-04-26T07:02:56.000Z</time>
      </trkpt>
      <trkpt lat="42.38680648803711" lon="-7.152060031890869">
        <ele>429.0</ele>
        <time>2019-04-26T07:03:03.000Z</time>
      </trkpt>
      <trkpt lat="42.386783599853516" lon="-7.152534484863281">
        <ele>430.0</ele>
        <time>2019-04-26T07:03:31.000Z</time>
      </trkpt>
      <trkpt lat="42.386783599853516" lon="-7.152562618255615">
        <ele>430.0</ele>
        <time>2019-04-26T07:03:35.000Z</time>
      </trkpt>
      <trkpt lat="42.386783599853516" lon="-7.152619361877441">
        <ele>432.0</ele>
        <time>2019-04-26T07:03:53.000Z</time>
      </trkpt>
      <trkpt lat="42.386783599853516" lon="-7.152657508850098">
        <ele>432.0</ele>
        <time>2019-04-26T07:03:54.000Z</time>
      </trkpt>
      <trkpt lat="42.3868522644043" lon="-7.153115749359131">
        <ele>435.0</ele>
        <time>2019-04-26T07:04:12.000Z</time>
      </trkpt>
      <trkpt lat="42.386985778808594" lon="-7.153382301330566">
        <ele>435.0</ele>
        <time>2019-04-26T07:04:37.000Z</time>
      </trkpt>
      <trkpt lat="42.38703918457031" lon="-7.1534318923950195">
        <ele>435.0</ele>
        <time>2019-04-26T07:04:43.000Z</time>
      </trkpt>
      <trkpt lat="42.38709259033203" lon="-7.153443336486816">
        <ele>435.0</ele>
        <time>2019-04-26T07:04:50.000Z</time>
      </trkpt>
      <trkpt lat="42.38710403442383" lon="-7.153450965881348">
        <ele>435.0</ele>
        <time>2019-04-26T07:04:50.000Z</time>
      </trkpt>
      <trkpt lat="42.387115478515625" lon="-7.153456211090088">
        <ele>435.0</ele>
        <time>2019-04-26T07:04:50.000Z</time>
      </trkpt>
      <trkpt lat="42.38711929321289" lon="-7.153459072113037">
        <ele>435.0</ele>
        <time>2019-04-26T07:04:51.000Z</time>
      </trkpt>
      <trkpt lat="42.387123107910156" lon="-7.153461456298828">
        <ele>435.0</ele>
        <time>2019-04-26T07:04:51.000Z</time>
      </trkpt>
      <trkpt lat="42.387176513671875" lon="-7.153498649597168">
        <ele>435.0</ele>
        <time>2019-04-26T07:04:57.000Z</time>
      </trkpt>
      <trkpt lat="42.38724899291992" lon="-7.153549671173096">
        <ele>436.0</ele>
        <time>2019-04-26T07:05:03.000Z</time>
      </trkpt>
      <trkpt lat="42.387332916259766" lon="-7.153609752655029">
        <ele>436.0</ele>
        <time>2019-04-26T07:05:09.000Z</time>
      </trkpt>
      <trkpt lat="42.38742446899414" lon="-7.153674602508545">
        <ele>437.0</ele>
        <time>2019-04-26T07:05:15.000Z</time>
      </trkpt>
      <trkpt lat="42.387454986572266" lon="-7.15377140045166">
        <ele>438.0</ele>
        <time>2019-04-26T07:05:22.000Z</time>
      </trkpt>
      <trkpt lat="42.38746643066406" lon="-7.153886795043945">
        <ele>438.0</ele>
        <time>2019-04-26T07:05:29.000Z</time>
      </trkpt>
      <trkpt lat="42.3874626159668" lon="-7.1540141105651855">
        <ele>439.0</ele>
        <time>2019-04-26T07:05:37.000Z</time>
      </trkpt>
      <trkpt lat="42.387454986572266" lon="-7.154147148132324">
        <ele>440.0</ele>
        <time>2019-04-26T07:05:44.000Z</time>
      </trkpt>
      <trkpt lat="42.38744354248047" lon="-7.154263496398926">
        <ele>441.0</ele>
        <time>2019-04-26T07:05:51.000Z</time>
      </trkpt>
      <trkpt lat="42.387420654296875" lon="-7.154378414154053">
        <ele>442.0</ele>
        <time>2019-04-26T07:05:59.000Z</time>
      </trkpt>
      <trkpt lat="42.38739776611328" lon="-7.15449333190918">
        <ele>444.0</ele>
        <time>2019-04-26T07:06:06.000Z</time>
      </trkpt>
      <trkpt lat="42.38737106323242" lon="-7.15460729598999">
        <ele>446.0</ele>
        <time>2019-04-26T07:06:14.000Z</time>
      </trkpt>
      <trkpt lat="42.38734436035156" lon="-7.154721736907959">
        <ele>446.0</ele>
        <time>2019-04-26T07:06:21.000Z</time>
      </trkpt>
      <trkpt lat="42.38732147216797" lon="-7.154835224151611">
        <ele>447.0</ele>
        <time>2019-04-26T07:06:28.000Z</time>
      </trkpt>
      <trkpt lat="42.38729476928711" lon="-7.154948711395264">
        <ele>447.0</ele>
        <time>2019-04-26T07:06:36.000Z</time>
      </trkpt>
      <trkpt lat="42.38726806640625" lon="-7.155061721801758">
        <ele>447.0</ele>
        <time>2019-04-26T07:06:43.000Z</time>
      </trkpt>
      <trkpt lat="42.387264251708984" lon="-7.155180931091309">
        <ele>447.0</ele>
        <time>2019-04-26T07:06:51.000Z</time>
      </trkpt>
      <trkpt lat="42.387271881103516" lon="-7.155302047729492">
        <ele>448.0</ele>
        <time>2019-04-26T07:06:58.000Z</time>
      </trkpt>
      <trkpt lat="42.38728332519531" lon="-7.15542459487915">
        <ele>448.0</ele>
        <time>2019-04-26T07:07:06.000Z</time>
      </trkpt>
      <trkpt lat="42.38730239868164" lon="-7.155548572540283">
        <ele>449.0</ele>
        <time>2019-04-26T07:07:14.000Z</time>
      </trkpt>
      <trkpt lat="42.3873176574707" lon="-7.155668258666992">
        <ele>450.0</ele>
        <time>2019-04-26T07:07:22.000Z</time>
      </trkpt>
      <trkpt lat="42.387332916259766" lon="-7.155786991119385">
        <ele>451.0</ele>
        <time>2019-04-26T07:07:29.000Z</time>
      </trkpt>
      <trkpt lat="42.387351989746094" lon="-7.155905723571777">
        <ele>451.0</ele>
        <time>2019-04-26T07:07:37.000Z</time>
      </trkpt>
      <trkpt lat="42.38737487792969" lon="-7.156023979187012">
        <ele>452.0</ele>
        <time>2019-04-26T07:07:45.000Z</time>
      </trkpt>
      <trkpt lat="42.38739013671875" lon="-7.156110763549805">
        <ele>453.0</ele>
        <time>2019-04-26T07:07:49.000Z</time>
      </trkpt>
      <trkpt lat="42.38740158081055" lon="-7.156184673309326">
        <ele>453.0</ele>
        <time>2019-04-26T07:07:54.000Z</time>
      </trkpt>
      <trkpt lat="42.38741683959961" lon="-7.156249523162842">
        <ele>453.0</ele>
        <time>2019-04-26T07:07:58.000Z</time>
      </trkpt>
      <trkpt lat="42.387428283691406" lon="-7.156310081481934">
        <ele>453.0</ele>
        <time>2019-04-26T07:08:03.000Z</time>
      </trkpt>
      <trkpt lat="42.38742446899414" lon="-7.156356334686279">
        <ele>453.0</ele>
        <time>2019-04-26T07:08:05.000Z</time>
      </trkpt>
      <trkpt lat="42.387413024902344" lon="-7.156391620635986">
        <ele>454.0</ele>
        <time>2019-04-26T07:08:07.000Z</time>
      </trkpt>
      <trkpt lat="42.38739776611328" lon="-7.15641975402832">
        <ele>454.0</ele>
        <time>2019-04-26T07:08:10.000Z</time>
      </trkpt>
      <trkpt lat="42.38737869262695" lon="-7.156444549560547">
        <ele>455.0</ele>
        <time>2019-04-26T07:08:12.000Z</time>
      </trkpt>
      <trkpt lat="42.38740158081055" lon="-7.156481742858887">
        <ele>455.0</ele>
        <time>2019-04-26T07:08:16.000Z</time>
      </trkpt>
      <trkpt lat="42.38744354248047" lon="-7.156520366668701">
        <ele>456.0</ele>
        <time>2019-04-26T07:08:21.000Z</time>
      </trkpt>
      <trkpt lat="42.387489318847656" lon="-7.156559944152832">
        <ele>456.0</ele>
        <time>2019-04-26T07:08:25.000Z</time>
      </trkpt>
      <trkpt lat="42.387542724609375" lon="-7.156599998474121">
        <ele>457.0</ele>
        <time>2019-04-26T07:08:30.000Z</time>
      </trkpt>
      <trkpt lat="42.38756561279297" lon="-7.156641960144043">
        <ele>457.0</ele>
        <time>2019-04-26T07:08:32.000Z</time>
      </trkpt>
      <trkpt lat="42.3875617980957" lon="-7.156667709350586">
        <ele>457.0</ele>
        <time>2019-04-26T07:08:35.000Z</time>
      </trkpt>
      <trkpt lat="42.387542724609375" lon="-7.156683921813965">
        <ele>457.0</ele>
        <time>2019-04-26T07:08:37.000Z</time>
      </trkpt>
      <trkpt lat="42.38751220703125" lon="-7.156700134277344">
        <ele>458.0</ele>
        <time>2019-04-26T07:08:39.000Z</time>
      </trkpt>
      <trkpt lat="42.38747024536133" lon="-7.156715393066406">
        <ele>458.0</ele>
        <time>2019-04-26T07:08:42.000Z</time>
      </trkpt>
      <trkpt lat="42.387428283691406" lon="-7.156731128692627">
        <ele>458.0</ele>
        <time>2019-04-26T07:08:44.000Z</time>
      </trkpt>
      <trkpt lat="42.3874626159668" lon="-7.156765937805176">
        <ele>458.0</ele>
        <time>2019-04-26T07:08:47.000Z</time>
      </trkpt>
      <trkpt lat="42.38752746582031" lon="-7.156808853149414">
        <ele>459.0</ele>
        <time>2019-04-26T07:08:49.000Z</time>
      </trkpt>
      <trkpt lat="42.38760757446289" lon="-7.156857490539551">
        <ele>459.0</ele>
        <time>2019-04-26T07:08:52.000Z</time>
      </trkpt>
      <trkpt lat="42.387699127197266" lon="-7.1569085121154785">
        <ele>459.0</ele>
        <time>2019-04-26T07:08:55.000Z</time>
      </trkpt>
      <trkpt lat="42.387725830078125" lon="-7.156965255737305">
        <ele>459.0</ele>
        <time>2019-04-26T07:08:59.000Z</time>
      </trkpt>
      <trkpt lat="42.38773727416992" lon="-7.157027721405029">
        <ele>459.0</ele>
        <time>2019-04-26T07:09:04.000Z</time>
      </trkpt>
      <trkpt lat="42.387733459472656" lon="-7.157093524932861">
        <ele>459.0</ele>
        <time>2019-04-26T07:09:08.000Z</time>
      </trkpt>
      <trkpt lat="42.387725830078125" lon="-7.157161712646484">
        <ele>460.0</ele>
        <time>2019-04-26T07:09:13.000Z</time>
      </trkpt>
      <trkpt lat="42.38770294189453" lon="-7.157214641571045">
        <ele>459.0</ele>
        <time>2019-04-26T07:09:17.000Z</time>
      </trkpt>
      <trkpt lat="42.387664794921875" lon="-7.15726375579834">
        <ele>459.0</ele>
        <time>2019-04-26T07:09:22.000Z</time>
      </trkpt>
      <trkpt lat="42.38762283325195" lon="-7.157310485839844">
        <ele>459.0</ele>
        <time>2019-04-26T07:09:26.000Z</time>
      </trkpt>
      <trkpt lat="42.3875732421875" lon="-7.157355308532715">
        <ele>459.0</ele>
        <time>2019-04-26T07:09:31.000Z</time>
      </trkpt>
      <trkpt lat="42.38751220703125" lon="-7.1574177742004395">
        <ele>458.0</ele>
        <time>2019-04-26T07:09:38.000Z</time>
      </trkpt>
      <trkpt lat="42.387447357177734" lon="-7.157486438751221">
        <ele>458.0</ele>
        <time>2019-04-26T07:09:45.000Z</time>
      </trkpt>
      <trkpt lat="42.38737106323242" lon="-7.157558917999268">
        <ele>457.0</ele>
        <time>2019-04-26T07:09:53.000Z</time>
      </trkpt>
      <trkpt lat="42.38729476928711" lon="-7.157633304595947">
        <ele>457.0</ele>
        <time>2019-04-26T07:10:00.000Z</time>
      </trkpt>
      <trkpt lat="42.387229919433594" lon="-7.157713413238525">
        <ele>457.0</ele>
        <time>2019-04-26T07:10:06.000Z</time>
      </trkpt>
      <trkpt lat="42.38716506958008" lon="-7.157798767089844">
        <ele>456.0</ele>
        <time>2019-04-26T07:10:13.000Z</time>
      </trkpt>
      <trkpt lat="42.38710403442383" lon="-7.157886505126953">
        <ele>456.0</ele>
        <time>2019-04-26T07:10:19.000Z</time>
      </trkpt>
      <trkpt lat="42.38704299926758" lon="-7.157976150512695">
        <ele>455.0</ele>
        <time>2019-04-26T07:10:26.000Z</time>
      </trkpt>
      <trkpt lat="42.38698196411133" lon="-7.158195972442627">
        <ele>452.0</ele>
        <time>2019-04-26T07:10:40.000Z</time>
      </trkpt>
      <trkpt lat="42.38695526123047" lon="-7.158438205718994">
        <ele>447.0</ele>
        <time>2019-04-26T07:10:55.000Z</time>
      </trkpt>
      <trkpt lat="42.386962890625" lon="-7.15851354598999">
        <ele>446.0</ele>
        <time>2019-04-26T07:10:59.000Z</time>
      </trkpt>
      <trkpt lat="42.38698959350586" lon="-7.158571243286133">
        <ele>446.0</ele>
        <time>2019-04-26T07:11:04.000Z</time>
      </trkpt>
      <trkpt lat="42.38702392578125" lon="-7.158617973327637">
        <ele>446.0</ele>
        <time>2019-04-26T07:11:08.000Z</time>
      </trkpt>
      <trkpt lat="42.387062072753906" lon="-7.158658504486084">
        <ele>446.0</ele>
        <time>2019-04-26T07:11:13.000Z</time>
      </trkpt>
      <trkpt lat="42.38710021972656" lon="-7.158686637878418">
        <ele>446.0</ele>
        <time>2019-04-26T07:11:17.000Z</time>
      </trkpt>
      <trkpt lat="42.38714599609375" lon="-7.158703327178955">
        <ele>445.0</ele>
        <time>2019-04-26T07:11:22.000Z</time>
      </trkpt>
      <trkpt lat="42.3871955871582" lon="-7.158712387084961">
        <ele>444.0</ele>
        <time>2019-04-26T07:11:26.000Z</time>
      </trkpt>
      <trkpt lat="42.387245178222656" lon="-7.158718109130859">
        <ele>444.0</ele>
        <time>2019-04-26T07:11:31.000Z</time>
      </trkpt>
      <trkpt lat="42.387393951416016" lon="-7.158668518066406">
        <ele>442.0</ele>
        <time>2019-04-26T07:11:47.000Z</time>
      </trkpt>
      <trkpt lat="42.3875732421875" lon="-7.158581733703613">
        <ele>440.0</ele>
        <time>2019-04-26T07:12:03.000Z</time>
      </trkpt>
      <trkpt lat="42.38763427734375" lon="-7.158561706542969">
        <ele>439.0</ele>
        <time>2019-04-26T07:12:07.000Z</time>
      </trkpt>
      <trkpt lat="42.3876838684082" lon="-7.158547878265381">
        <ele>438.0</ele>
        <time>2019-04-26T07:12:10.000Z</time>
      </trkpt>
      <trkpt lat="42.38772964477539" lon="-7.1585373878479">
        <ele>437.0</ele>
        <time>2019-04-26T07:12:14.000Z</time>
      </trkpt>
      <trkpt lat="42.38777160644531" lon="-7.158529281616211">
        <ele>436.0</ele>
        <time>2019-04-26T07:12:18.000Z</time>
      </trkpt>
      <trkpt lat="42.387813568115234" lon="-7.158542156219482">
        <ele>435.0</ele>
        <time>2019-04-26T07:12:21.000Z</time>
      </trkpt>
      <trkpt lat="42.38785171508789" lon="-7.158566474914551">
        <ele>434.0</ele>
        <time>2019-04-26T07:12:24.000Z</time>
      </trkpt>
      <trkpt lat="42.38788986206055" lon="-7.158597946166992">
        <ele>433.0</ele>
        <time>2019-04-26T07:12:27.000Z</time>
      </trkpt>
      <trkpt lat="42.3879280090332" lon="-7.158633232116699">
        <ele>433.0</ele>
        <time>2019-04-26T07:12:30.000Z</time>
      </trkpt>
      <trkpt lat="42.38798904418945" lon="-7.15868616104126">
        <ele>433.0</ele>
        <time>2019-04-26T07:12:36.000Z</time>
      </trkpt>
      <trkpt lat="42.3880615234375" lon="-7.158750057220459">
        <ele>433.0</ele>
        <time>2019-04-26T07:12:43.000Z</time>
      </trkpt>
      <trkpt lat="42.38814163208008" lon="-7.1588215827941895">
        <ele>434.0</ele>
        <time>2019-04-26T07:12:49.000Z</time>
      </trkpt>
      <trkpt lat="42.388221740722656" lon="-7.158896446228027">
        <ele>434.0</ele>
        <time>2019-04-26T07:12:56.000Z</time>
      </trkpt>
      <trkpt lat="42.38829040527344" lon="-7.158974647521973">
        <ele>434.0</ele>
        <time>2019-04-26T07:13:04.000Z</time>
      </trkpt>
      <trkpt lat="42.38835906982422" lon="-7.159057140350342">
        <ele>434.0</ele>
        <time>2019-04-26T07:13:12.000Z</time>
      </trkpt>
      <trkpt lat="42.38842010498047" lon="-7.159143447875977">
        <ele>434.0</ele>
        <time>2019-04-26T07:13:20.000Z</time>
      </trkpt>
      <trkpt lat="42.388484954833984" lon="-7.159231185913086">
        <ele>434.0</ele>
        <time>2019-04-26T07:13:28.000Z</time>
      </trkpt>
      <trkpt lat="42.3885612487793" lon="-7.159294128417969">
        <ele>433.0</ele>
        <time>2019-04-26T07:13:35.000Z</time>
      </trkpt>
      <trkpt lat="42.388641357421875" lon="-7.159348011016846">
        <ele>432.0</ele>
        <time>2019-04-26T07:13:42.000Z</time>
      </trkpt>
      <trkpt lat="42.38872146606445" lon="-7.159396171569824">
        <ele>431.0</ele>
        <time>2019-04-26T07:13:50.000Z</time>
      </trkpt>
      <trkpt lat="42.3888053894043" lon="-7.159440994262695">
        <ele>431.0</ele>
        <time>2019-04-26T07:13:57.000Z</time>
      </trkpt>
      <trkpt lat="42.388885498046875" lon="-7.159492492675781">
        <ele>430.0</ele>
        <time>2019-04-26T07:14:04.000Z</time>
      </trkpt>
      <trkpt lat="42.38896560668945" lon="-7.159543037414551">
        <ele>429.0</ele>
        <time>2019-04-26T07:14:11.000Z</time>
      </trkpt>
      <trkpt lat="42.389041900634766" lon="-7.15959358215332">
        <ele>429.0</ele>
        <time>2019-04-26T07:14:18.000Z</time>
      </trkpt>
      <trkpt lat="42.389122009277344" lon="-7.15964412689209">
        <ele>428.0</ele>
        <time>2019-04-26T07:14:25.000Z</time>
      </trkpt>
      <trkpt lat="42.38923645019531" lon="-7.159818172454834">
        <ele>429.0</ele>
        <time>2019-04-26T07:14:39.000Z</time>
      </trkpt>
      <trkpt lat="42.38932800292969" lon="-7.1600260734558105">
        <ele>430.0</ele>
        <time>2019-04-26T07:14:54.000Z</time>
      </trkpt>
      <trkpt lat="42.38938903808594" lon="-7.1601104736328125">
        <ele>431.0</ele>
        <time>2019-04-26T07:15:02.000Z</time>
      </trkpt>
      <trkpt lat="42.38945388793945" lon="-7.160190582275391">
        <ele>432.0</ele>
        <time>2019-04-26T07:15:09.000Z</time>
      </trkpt>
      <trkpt lat="42.3895263671875" lon="-7.160267353057861">
        <ele>433.0</ele>
        <time>2019-04-26T07:15:17.000Z</time>
      </trkpt>
      <trkpt lat="42.38959503173828" lon="-7.160342693328857">
        <ele>434.0</ele>
        <time>2019-04-26T07:15:25.000Z</time>
      </trkpt>
      <trkpt lat="42.38976287841797" lon="-7.160424709320068">
        <ele>434.0</ele>
        <time>2019-04-26T07:15:39.000Z</time>
      </trkpt>
      <trkpt lat="42.38994216918945" lon="-7.1604719161987305">
        <ele>435.0</ele>
        <time>2019-04-26T07:15:53.000Z</time>
      </trkpt>
      <trkpt lat="42.39002990722656" lon="-7.160478591918945">
        <ele>435.0</ele>
        <time>2019-04-26T07:16:01.000Z</time>
      </trkpt>
      <trkpt lat="42.39011764526367" lon="-7.160475254058838">
        <ele>435.0</ele>
        <time>2019-04-26T07:16:08.000Z</time>
      </trkpt>
      <trkpt lat="42.39020919799805" lon="-7.160464763641357">
        <ele>436.0</ele>
        <time>2019-04-26T07:16:16.000Z</time>
      </trkpt>
      <trkpt lat="42.390296936035156" lon="-7.1604509353637695">
        <ele>437.0</ele>
        <time>2019-04-26T07:16:24.000Z</time>
      </trkpt>
      <trkpt lat="42.390384674072266" lon="-7.160465240478516">
        <ele>437.0</ele>
        <time>2019-04-26T07:16:31.000Z</time>
      </trkpt>
      <trkpt lat="42.390472412109375" lon="-7.160488128662109">
        <ele>437.0</ele>
        <time>2019-04-26T07:16:38.000Z</time>
      </trkpt>
      <trkpt lat="42.39055633544922" lon="-7.160516738891602">
        <ele>437.0</ele>
        <time>2019-04-26T07:16:45.000Z</time>
      </trkpt>
      <trkpt lat="42.39064407348633" lon="-7.160547733306885">
        <ele>437.0</ele>
        <time>2019-04-26T07:16:52.000Z</time>
      </trkpt>
      <trkpt lat="42.39072799682617" lon="-7.160574913024902">
        <ele>437.0</ele>
        <time>2019-04-26T07:17:00.000Z</time>
      </trkpt>
      <trkpt lat="42.390811920166016" lon="-7.160602569580078">
        <ele>437.0</ele>
        <time>2019-04-26T07:17:07.000Z</time>
      </trkpt>
      <trkpt lat="42.390899658203125" lon="-7.16063117980957">
        <ele>437.0</ele>
        <time>2019-04-26T07:17:15.000Z</time>
      </trkpt>
      <trkpt lat="42.39098358154297" lon="-7.160660266876221">
        <ele>437.0</ele>
        <time>2019-04-26T07:17:23.000Z</time>
      </trkpt>
      <trkpt lat="42.391117095947266" lon="-7.160808563232422">
        <ele>438.0</ele>
        <time>2019-04-26T07:17:39.000Z</time>
      </trkpt>
      <trkpt lat="42.391231536865234" lon="-7.160999774932861">
        <ele>440.0</ele>
        <time>2019-04-26T07:17:56.000Z</time>
      </trkpt>
      <trkpt lat="42.39129638671875" lon="-7.161077976226807">
        <ele>440.0</ele>
        <time>2019-04-26T07:18:04.000Z</time>
      </trkpt>
      <trkpt lat="42.3913688659668" lon="-7.161153316497803">
        <ele>441.0</ele>
        <time>2019-04-26T07:18:12.000Z</time>
      </trkpt>
      <trkpt lat="42.39143753051758" lon="-7.161226749420166">
        <ele>441.0</ele>
        <time>2019-04-26T07:18:20.000Z</time>
      </trkpt>
      <trkpt lat="42.391510009765625" lon="-7.161299228668213">
        <ele>441.0</ele>
        <time>2019-04-26T07:18:28.000Z</time>
      </trkpt>
      <trkpt lat="42.39154052734375" lon="-7.161340713500977">
        <ele>442.0</ele>
        <time>2019-04-26T07:18:31.000Z</time>
      </trkpt>
      <trkpt lat="42.39155960083008" lon="-7.161368370056152">
        <ele>442.0</ele>
        <time>2019-04-26T07:18:34.000Z</time>
      </trkpt>
      <trkpt lat="42.391563415527344" lon="-7.161386489868164">
        <ele>442.0</ele>
        <time>2019-04-26T07:18:37.000Z</time>
      </trkpt>
      <trkpt lat="42.391563415527344" lon="-7.161399841308594">
        <ele>443.0</ele>
        <time>2019-04-26T07:18:40.000Z</time>
      </trkpt>
      <trkpt lat="42.39158248901367" lon="-7.161421298980713">
        <ele>443.0</ele>
        <time>2019-04-26T07:18:48.000Z</time>
      </trkpt>
      <trkpt lat="42.3916015625" lon="-7.161429405212402">
        <ele>444.0</ele>
        <time>2019-04-26T07:18:56.000Z</time>
      </trkpt>
      <trkpt lat="42.39160919189453" lon="-7.161434650421143">
        <ele>444.0</ele>
        <time>2019-04-26T07:18:56.000Z</time>
      </trkpt>
      <trkpt lat="42.39161682128906" lon="-7.161439895629883">
        <ele>444.0</ele>
        <time>2019-04-26T07:18:56.000Z</time>
      </trkpt>
      <trkpt lat="42.39162063598633" lon="-7.161444187164307">
        <ele>444.0</ele>
        <time>2019-04-26T07:18:57.000Z</time>
      </trkpt>
      <trkpt lat="42.39162826538086" lon="-7.161448001861572">
        <ele>444.0</ele>
        <time>2019-04-26T07:18:57.000Z</time>
      </trkpt>
      <trkpt lat="42.391666412353516" lon="-7.161477565765381">
        <ele>444.0</ele>
        <time>2019-04-26T07:18:59.000Z</time>
      </trkpt>
      <trkpt lat="42.391719818115234" lon="-7.16151762008667">
        <ele>444.0</ele>
        <time>2019-04-26T07:19:02.000Z</time>
      </trkpt>
      <trkpt lat="42.39178466796875" lon="-7.161564350128174">
        <ele>445.0</ele>
        <time>2019-04-26T07:19:04.000Z</time>
      </trkpt>
      <trkpt lat="42.39185333251953" lon="-7.161614894866943">
        <ele>445.0</ele>
        <time>2019-04-26T07:19:07.000Z</time>
      </trkpt>
      <trkpt lat="42.39189147949219" lon="-7.161657810211182">
        <ele>446.0</ele>
        <time>2019-04-26T07:19:13.000Z</time>
      </trkpt>
      <trkpt lat="42.39192199707031" lon="-7.16170072555542">
        <ele>448.0</ele>
        <time>2019-04-26T07:19:19.000Z</time>
      </trkpt>
      <trkpt lat="42.39195251464844" lon="-7.161744594573975">
        <ele>449.0</ele>
        <time>2019-04-26T07:19:25.000Z</time>
      </trkpt>
      <trkpt lat="42.39197540283203" lon="-7.161788463592529">
        <ele>451.0</ele>
        <time>2019-04-26T07:19:31.000Z</time>
      </trkpt>
      <trkpt lat="42.39198684692383" lon="-7.161804676055908">
        <ele>452.0</ele>
        <time>2019-04-26T07:19:31.000Z</time>
      </trkpt>
      <trkpt lat="42.391990661621094" lon="-7.16180944442749">
        <ele>452.0</ele>
        <time>2019-04-26T07:19:32.000Z</time>
      </trkpt>
      <trkpt lat="42.39198684692383" lon="-7.161807060241699">
        <ele>452.0</ele>
        <time>2019-04-26T07:19:32.000Z</time>
      </trkpt>
      <trkpt lat="42.39198303222656" lon="-7.161800861358643">
        <ele>452.0</ele>
        <time>2019-04-26T07:19:33.000Z</time>
      </trkpt>
      <trkpt lat="42.39201354980469" lon="-7.161801338195801">
        <ele>454.0</ele>
        <time>2019-04-26T07:19:56.000Z</time>
      </trkpt>
      <trkpt lat="42.39205551147461" lon="-7.161799430847168">
        <ele>458.0</ele>
        <time>2019-04-26T07:20:20.000Z</time>
      </trkpt>
      <trkpt lat="42.39207077026367" lon="-7.16179895401001">
        <ele>459.0</ele>
        <time>2019-04-26T07:20:20.000Z</time>
      </trkpt>
      <trkpt lat="42.3920783996582" lon="-7.16179895401001">
        <ele>459.0</ele>
        <time>2019-04-26T07:20:20.000Z</time>
      </trkpt>
      <trkpt lat="42.392086029052734" lon="-7.16179895401001">
        <ele>458.0</ele>
        <time>2019-04-26T07:20:21.000Z</time>
      </trkpt>
      <trkpt lat="42.392093658447266" lon="-7.16179895401001">
        <ele>458.0</ele>
        <time>2019-04-26T07:20:21.000Z</time>
      </trkpt>
      <trkpt lat="42.392127990722656" lon="-7.161802291870117">
        <ele>458.0</ele>
        <time>2019-04-26T07:20:23.000Z</time>
      </trkpt>
      <trkpt lat="42.39216995239258" lon="-7.161807060241699">
        <ele>458.0</ele>
        <time>2019-04-26T07:20:26.000Z</time>
      </trkpt>
      <trkpt lat="42.3922233581543" lon="-7.161812782287598">
        <ele>458.0</ele>
        <time>2019-04-26T07:20:28.000Z</time>
      </trkpt>
      <trkpt lat="42.392276763916016" lon="-7.161818981170654">
        <ele>459.0</ele>
        <time>2019-04-26T07:20:31.000Z</time>
      </trkpt>
      <trkpt lat="42.39234924316406" lon="-7.16181755065918">
        <ele>459.0</ele>
        <time>2019-04-26T07:20:39.000Z</time>
      </trkpt>
      <trkpt lat="42.39243698120117" lon="-7.161813735961914">
        <ele>459.0</ele>
        <time>2019-04-26T07:20:47.000Z</time>
      </trkpt>
      <trkpt lat="42.39252853393555" lon="-7.161808490753174">
        <ele>459.0</ele>
        <time>2019-04-26T07:20:55.000Z</time>
      </trkpt>
      <trkpt lat="42.39262771606445" lon="-7.161801815032959">
        <ele>459.0</ele>
        <time>2019-04-26T07:21:03.000Z</time>
      </trkpt>
      <trkpt lat="42.392723083496094" lon="-7.161747932434082">
        <ele>458.0</ele>
        <time>2019-04-26T07:21:11.000Z</time>
      </trkpt>
      <trkpt lat="42.39278030395508" lon="-7.161673545837402">
        <ele>458.0</ele>
        <time>2019-04-26T07:21:19.000Z</time>
      </trkpt>
      <trkpt lat="42.39293670654297" lon="-7.161635875701904">
        <ele>456.0</ele>
        <time>2019-04-26T07:21:32.000Z</time>
      </trkpt>
      <trkpt lat="42.39313507080078" lon="-7.1616106033325195">
        <ele>454.0</ele>
        <time>2019-04-26T07:21:46.000Z</time>
      </trkpt>
      <trkpt lat="42.39322280883789" lon="-7.161612510681152">
        <ele>453.0</ele>
        <time>2019-04-26T07:21:53.000Z</time>
      </trkpt>
      <trkpt lat="42.393310546875" lon="-7.161622047424316">
        <ele>452.0</ele>
        <time>2019-04-26T07:22:00.000Z</time>
      </trkpt>
      <trkpt lat="42.393394470214844" lon="-7.161636829376221">
        <ele>451.0</ele>
        <time>2019-04-26T07:22:08.000Z</time>
      </trkpt>
      <trkpt lat="42.39348220825195" lon="-7.161653518676758">
        <ele>450.0</ele>
        <time>2019-04-26T07:22:15.000Z</time>
      </trkpt>
      <trkpt lat="42.393550872802734" lon="-7.161679267883301">
        <ele>450.0</ele>
        <time>2019-04-26T07:22:22.000Z</time>
      </trkpt>
      <trkpt lat="42.39361572265625" lon="-7.161710739135742">
        <ele>450.0</ele>
        <time>2019-04-26T07:22:29.000Z</time>
      </trkpt>
      <trkpt lat="42.3936767578125" lon="-7.161746501922607">
        <ele>450.0</ele>
        <time>2019-04-26T07:22:36.000Z</time>
      </trkpt>
      <trkpt lat="42.39373779296875" lon="-7.161784648895264">
        <ele>451.0</ele>
        <time>2019-04-26T07:22:43.000Z</time>
      </trkpt>
      <trkpt lat="42.393775939941406" lon="-7.161798477172852">
        <ele>451.0</ele>
        <time>2019-04-26T07:22:45.000Z</time>
      </trkpt>
      <trkpt lat="42.3938102722168" lon="-7.16180419921875">
        <ele>452.0</ele>
        <time>2019-04-26T07:22:47.000Z</time>
      </trkpt>
      <trkpt lat="42.39383316040039" lon="-7.161804676055908">
        <ele>453.0</ele>
        <time>2019-04-26T07:22:50.000Z</time>
      </trkpt>
      <trkpt lat="42.393856048583984" lon="-7.161802768707275">
        <ele>454.0</ele>
        <time>2019-04-26T07:22:52.000Z</time>
      </trkpt>
      <trkpt lat="42.39387130737305" lon="-7.161827564239502">
        <ele>454.0</ele>
        <time>2019-04-26T07:22:54.000Z</time>
      </trkpt>
      <trkpt lat="42.393882751464844" lon="-7.161860942840576">
        <ele>454.0</ele>
        <time>2019-04-26T07:22:57.000Z</time>
      </trkpt>
      <trkpt lat="42.393890380859375" lon="-7.161900043487549">
        <ele>455.0</ele>
        <time>2019-04-26T07:22:59.000Z</time>
      </trkpt>
      <trkpt lat="42.39389419555664" lon="-7.161942005157471">
        <ele>455.0</ele>
        <time>2019-04-26T07:23:02.000Z</time>
      </trkpt>
      <trkpt lat="42.39389419555664" lon="-7.161982536315918">
        <ele>455.0</ele>
        <time>2019-04-26T07:23:06.000Z</time>
      </trkpt>
      <trkpt lat="42.393882751464844" lon="-7.1620097160339355">
        <ele>454.0</ele>
        <time>2019-04-26T07:23:10.000Z</time>
      </trkpt>
      <trkpt lat="42.39388656616211" lon="-7.162008762359619">
        <ele>454.0</ele>
        <time>2019-04-26T07:23:13.000Z</time>
      </trkpt>
      <trkpt lat="42.39389419555664" lon="-7.16200065612793">
        <ele>454.0</ele>
        <time>2019-04-26T07:23:16.000Z</time>
      </trkpt>
      <trkpt lat="42.393898010253906" lon="-7.161987781524658">
        <ele>454.0</ele>
        <time>2019-04-26T07:23:20.000Z</time>
      </trkpt>
      <trkpt lat="42.39390563964844" lon="-7.1619720458984375">
        <ele>454.0</ele>
        <time>2019-04-26T07:23:23.000Z</time>
      </trkpt>
      <trkpt lat="42.3939094543457" lon="-7.1619648933410645">
        <ele>454.0</ele>
        <time>2019-04-26T07:23:23.000Z</time>
      </trkpt>
      <trkpt lat="42.39391326904297" lon="-7.16195821762085">
        <ele>454.0</ele>
        <time>2019-04-26T07:23:23.000Z</time>
      </trkpt>
      <trkpt lat="42.393917083740234" lon="-7.161952018737793">
        <ele>454.0</ele>
        <time>2019-04-26T07:23:24.000Z</time>
      </trkpt>
      <trkpt lat="42.3939208984375" lon="-7.161945819854736">
        <ele>454.0</ele>
        <time>2019-04-26T07:23:24.000Z</time>
      </trkpt>
      <trkpt lat="42.393943786621094" lon="-7.1619157791137695">
        <ele>455.0</ele>
        <time>2019-04-26T07:23:26.000Z</time>
      </trkpt>
      <trkpt lat="42.393978118896484" lon="-7.1618757247924805">
        <ele>456.0</ele>
        <time>2019-04-26T07:23:27.000Z</time>
      </trkpt>
      <trkpt lat="42.39401626586914" lon="-7.161828994750977">
        <ele>456.0</ele>
        <time>2019-04-26T07:23:29.000Z</time>
      </trkpt>
      <trkpt lat="42.3940544128418" lon="-7.161778926849365">
        <ele>458.0</ele>
        <time>2019-04-26T07:23:31.000Z</time>
      </trkpt>
      <trkpt lat="42.3941535949707" lon="-7.1617231369018555">
        <ele>460.0</ele>
        <time>2019-04-26T07:23:45.000Z</time>
      </trkpt>
      <trkpt lat="42.394264221191406" lon="-7.161679744720459">
        <ele>463.0</ele>
        <time>2019-04-26T07:23:59.000Z</time>
      </trkpt>
      <trkpt lat="42.39431381225586" lon="-7.161688327789307">
        <ele>464.0</ele>
        <time>2019-04-26T07:24:01.000Z</time>
      </trkpt>
      <trkpt lat="42.39435958862305" lon="-7.1617112159729">
        <ele>464.0</ele>
        <time>2019-04-26T07:24:04.000Z</time>
      </trkpt>
      <trkpt lat="42.39440155029297" lon="-7.1617431640625">
        <ele>465.0</ele>
        <time>2019-04-26T07:24:06.000Z</time>
      </trkpt>
      <trkpt lat="42.394447326660156" lon="-7.161779403686523">
        <ele>465.0</ele>
        <time>2019-04-26T07:24:09.000Z</time>
      </trkpt>
      <trkpt lat="42.39448165893555" lon="-7.16180944442749">
        <ele>465.0</ele>
        <time>2019-04-26T07:24:11.000Z</time>
      </trkpt>
      <trkpt lat="42.394508361816406" lon="-7.16184139251709">
        <ele>466.0</ele>
        <time>2019-04-26T07:24:14.000Z</time>
      </trkpt>
      <trkpt lat="42.39453125" lon="-7.161874771118164">
        <ele>466.0</ele>
        <time>2019-04-26T07:24:16.000Z</time>
      </trkpt>
      <trkpt lat="42.394554138183594" lon="-7.161909103393555">
        <ele>467.0</ele>
        <time>2019-04-26T07:24:19.000Z</time>
      </trkpt>
      <trkpt lat="42.3946533203125" lon="-7.1619391441345215">
        <ele>466.0</ele>
        <time>2019-04-26T07:24:29.000Z</time>
      </trkpt>
      <trkpt lat="42.394775390625" lon="-7.161953449249268">
        <ele>465.0</ele>
        <time>2019-04-26T07:24:39.000Z</time>
      </trkpt>
      <trkpt lat="42.3949089050293" lon="-7.162071704864502">
        <ele>464.0</ele>
        <time>2019-04-26T07:24:54.000Z</time>
      </trkpt>
      <trkpt lat="42.39505386352539" lon="-7.162234783172607">
        <ele>463.0</ele>
        <time>2019-04-26T07:25:09.000Z</time>
      </trkpt>
      <trkpt lat="42.39513397216797" lon="-7.162433624267578">
        <ele>461.0</ele>
        <time>2019-04-26T07:25:23.000Z</time>
      </trkpt>
      <trkpt lat="42.39518356323242" lon="-7.16265869140625">
        <ele>459.0</ele>
        <time>2019-04-26T07:25:38.000Z</time>
      </trkpt>
      <trkpt lat="42.39522933959961" lon="-7.162761211395264">
        <ele>458.0</ele>
        <time>2019-04-26T07:25:45.000Z</time>
      </trkpt>
      <trkpt lat="42.39527893066406" lon="-7.162862777709961">
        <ele>458.0</ele>
        <time>2019-04-26T07:25:52.000Z</time>
      </trkpt>
      <trkpt lat="42.39533233642578" lon="-7.162962913513184">
        <ele>457.0</ele>
        <time>2019-04-26T07:26:00.000Z</time>
      </trkpt>
      <trkpt lat="42.395389556884766" lon="-7.163062572479248">
        <ele>456.0</ele>
        <time>2019-04-26T07:26:07.000Z</time>
      </trkpt>
      <trkpt lat="42.39552688598633" lon="-7.163191318511963">
        <ele>455.0</ele>
        <time>2019-04-26T07:26:22.000Z</time>
      </trkpt>
      <trkpt lat="42.39568328857422" lon="-7.163286209106445">
        <ele>453.0</ele>
        <time>2019-04-26T07:26:38.000Z</time>
      </trkpt>
      <trkpt lat="42.395755767822266" lon="-7.1633501052856445">
        <ele>453.0</ele>
        <time>2019-04-26T07:26:45.000Z</time>
      </trkpt>
      <trkpt lat="42.39582824707031" lon="-7.163417339324951">
        <ele>453.0</ele>
        <time>2019-04-26T07:26:51.000Z</time>
      </trkpt>
      <trkpt lat="42.395896911621094" lon="-7.163486957550049">
        <ele>454.0</ele>
        <time>2019-04-26T07:26:58.000Z</time>
      </trkpt>
      <trkpt lat="42.39596939086914" lon="-7.163557052612305">
        <ele>454.0</ele>
        <time>2019-04-26T07:27:05.000Z</time>
      </trkpt>
      <trkpt lat="42.39604949951172" lon="-7.163600921630859">
        <ele>454.0</ele>
        <time>2019-04-26T07:27:12.000Z</time>
      </trkpt>
      <trkpt lat="42.39613342285156" lon="-7.163634777069092">
        <ele>455.0</ele>
        <time>2019-04-26T07:27:20.000Z</time>
      </trkpt>
      <trkpt lat="42.39622116088867" lon="-7.163661479949951">
        <ele>455.0</ele>
        <time>2019-04-26T07:27:27.000Z</time>
      </trkpt>
      <trkpt lat="42.396305084228516" lon="-7.163684844970703">
        <ele>456.0</ele>
        <time>2019-04-26T07:27:35.000Z</time>
      </trkpt>
      <trkpt lat="42.39636993408203" lon="-7.163706302642822">
        <ele>456.0</ele>
        <time>2019-04-26T07:27:40.000Z</time>
      </trkpt>
      <trkpt lat="42.39643096923828" lon="-7.163723468780518">
        <ele>456.0</ele>
        <time>2019-04-26T07:27:44.000Z</time>
      </trkpt>
      <trkpt lat="42.396484375" lon="-7.1637372970581055">
        <ele>456.0</ele>
        <time>2019-04-26T07:27:49.000Z</time>
      </trkpt>
      <trkpt lat="42.39653396606445" lon="-7.163749694824219">
        <ele>456.0</ele>
        <time>2019-04-26T07:27:54.000Z</time>
      </trkpt>
      <trkpt lat="42.39656448364258" lon="-7.163769245147705">
        <ele>456.0</ele>
        <time>2019-04-26T07:27:58.000Z</time>
      </trkpt>
      <trkpt lat="42.39655303955078" lon="-7.163783073425293">
        <ele>456.0</ele>
        <time>2019-04-26T07:28:02.000Z</time>
      </trkpt>
      <trkpt lat="42.39657974243164" lon="-7.163796424865723">
        <ele>458.0</ele>
        <time>2019-04-26T07:28:13.000Z</time>
      </trkpt>
      <trkpt lat="42.39661407470703" lon="-7.1638078689575195">
        <ele>460.0</ele>
        <time>2019-04-26T07:28:25.000Z</time>
      </trkpt>
      <trkpt lat="42.39662551879883" lon="-7.163812160491943">
        <ele>461.0</ele>
        <time>2019-04-26T07:28:25.000Z</time>
      </trkpt>
      <trkpt lat="42.39663314819336" lon="-7.163815498352051">
        <ele>461.0</ele>
        <time>2019-04-26T07:28:25.000Z</time>
      </trkpt>
      <trkpt lat="42.39664077758789" lon="-7.163818359375">
        <ele>460.0</ele>
        <time>2019-04-26T07:28:26.000Z</time>
      </trkpt>
      <trkpt lat="42.39664840698242" lon="-7.163821220397949">
        <ele>460.0</ele>
        <time>2019-04-26T07:28:26.000Z</time>
      </trkpt>
      <trkpt lat="42.39667510986328" lon="-7.1638288497924805">
        <ele>460.0</ele>
        <time>2019-04-26T07:28:27.000Z</time>
      </trkpt>
      <trkpt lat="42.39670944213867" lon="-7.1638383865356445">
        <ele>460.0</ele>
        <time>2019-04-26T07:28:28.000Z</time>
      </trkpt>
      <trkpt lat="42.39674758911133" lon="-7.163848876953125">
        <ele>461.0</ele>
        <time>2019-04-26T07:28:30.000Z</time>
      </trkpt>
      <trkpt lat="42.39678955078125" lon="-7.163860321044922">
        <ele>461.0</ele>
        <time>2019-04-26T07:28:31.000Z</time>
      </trkpt>
      <trkpt lat="42.39686584472656" lon="-7.163949489593506">
        <ele>462.0</ele>
        <time>2019-04-26T07:28:39.000Z</time>
      </trkpt>
      <trkpt lat="42.39694595336914" lon="-7.164071559906006">
        <ele>463.0</ele>
        <time>2019-04-26T07:28:47.000Z</time>
      </trkpt>
      <trkpt lat="42.39701461791992" lon="-7.164129734039307">
        <ele>463.0</ele>
        <time>2019-04-26T07:28:55.000Z</time>
      </trkpt>
      <trkpt lat="42.39708709716797" lon="-7.164190769195557">
        <ele>463.0</ele>
        <time>2019-04-26T07:29:02.000Z</time>
      </trkpt>
      <trkpt lat="42.39717102050781" lon="-7.164253234863281">
        <ele>463.0</ele>
        <time>2019-04-26T07:29:10.000Z</time>
      </trkpt>
      <trkpt lat="42.39725875854492" lon="-7.164316177368164">
        <ele>463.0</ele>
        <time>2019-04-26T07:29:18.000Z</time>
      </trkpt>
      <trkpt lat="42.39733123779297" lon="-7.1643195152282715">
        <ele>463.0</ele>
        <time>2019-04-26T07:29:25.000Z</time>
      </trkpt>
      <trkpt lat="42.397403717041016" lon="-7.1642985343933105">
        <ele>463.0</ele>
        <time>2019-04-26T07:29:32.000Z</time>
      </trkpt>
      <trkpt lat="42.39747619628906" lon="-7.164261341094971">
        <ele>464.0</ele>
        <time>2019-04-26T07:29:39.000Z</time>
      </trkpt>
      <trkpt lat="42.397544860839844" lon="-7.164216041564941">
        <ele>465.0</ele>
        <time>2019-04-26T07:29:46.000Z</time>
      </trkpt>
      <trkpt lat="42.39757537841797" lon="-7.164215564727783">
        <ele>465.0</ele>
        <time>2019-04-26T07:29:49.000Z</time>
      </trkpt>
      <trkpt lat="42.397586822509766" lon="-7.164225101470947">
        <ele>465.0</ele>
        <time>2019-04-26T07:29:52.000Z</time>
      </trkpt>
      <trkpt lat="42.397586822509766" lon="-7.164241313934326">
        <ele>464.0</ele>
        <time>2019-04-26T07:29:56.000Z</time>
      </trkpt>
      <trkpt lat="42.397579193115234" lon="-7.164261341094971">
        <ele>464.0</ele>
        <time>2019-04-26T07:29:59.000Z</time>
      </trkpt>
      <trkpt lat="42.397586822509766" lon="-7.164269924163818">
        <ele>464.0</ele>
        <time>2019-04-26T07:29:59.000Z</time>
      </trkpt>
      <trkpt lat="42.3975944519043" lon="-7.16427755355835">
        <ele>464.0</ele>
        <time>2019-04-26T07:29:59.000Z</time>
      </trkpt>
      <trkpt lat="42.39759826660156" lon="-7.1642842292785645">
        <ele>464.0</ele>
        <time>2019-04-26T07:30:00.000Z</time>
      </trkpt>
      <trkpt lat="42.39760208129883" lon="-7.164290904998779">
        <ele>464.0</ele>
        <time>2019-04-26T07:30:00.000Z</time>
      </trkpt>
      <trkpt lat="42.39762878417969" lon="-7.164333820343018">
        <ele>464.0</ele>
        <time>2019-04-26T07:30:01.000Z</time>
      </trkpt>
      <trkpt lat="42.39765930175781" lon="-7.164392471313477">
        <ele>464.0</ele>
        <time>2019-04-26T07:30:02.000Z</time>
      </trkpt>
      <trkpt lat="42.3976936340332" lon="-7.1644606590271">
        <ele>464.0</ele>
        <time>2019-04-26T07:30:03.000Z</time>
      </trkpt>
      <trkpt lat="42.397735595703125" lon="-7.164534091949463">
        <ele>464.0</ele>
        <time>2019-04-26T07:30:04.000Z</time>
      </trkpt>
      <trkpt lat="42.397743225097656" lon="-7.164588451385498">
        <ele>464.0</ele>
        <time>2019-04-26T07:30:07.000Z</time>
      </trkpt>
      <trkpt lat="42.397743225097656" lon="-7.164639949798584">
        <ele>464.0</ele>
        <time>2019-04-26T07:30:09.000Z</time>
      </trkpt>
      <trkpt lat="42.39773178100586" lon="-7.164689540863037">
        <ele>464.0</ele>
        <time>2019-04-26T07:30:12.000Z</time>
      </trkpt>
      <trkpt lat="42.39772033691406" lon="-7.164738178253174">
        <ele>464.0</ele>
        <time>2019-04-26T07:30:15.000Z</time>
      </trkpt>
      <trkpt lat="42.39772415161133" lon="-7.164834976196289">
        <ele>464.0</ele>
        <time>2019-04-26T07:30:22.000Z</time>
      </trkpt>
      <trkpt lat="42.39773178100586" lon="-7.164950370788574">
        <ele>464.0</ele>
        <time>2019-04-26T07:30:29.000Z</time>
      </trkpt>
      <trkpt lat="42.39773941040039" lon="-7.165078163146973">
        <ele>464.0</ele>
        <time>2019-04-26T07:30:37.000Z</time>
      </trkpt>
      <trkpt lat="42.39774703979492" lon="-7.165212631225586">
        <ele>464.0</ele>
        <time>2019-04-26T07:30:44.000Z</time>
      </trkpt>
      <trkpt lat="42.39777374267578" lon="-7.165318489074707">
        <ele>464.0</ele>
        <time>2019-04-26T07:30:50.000Z</time>
      </trkpt>
      <trkpt lat="42.39780807495117" lon="-7.16541862487793">
        <ele>464.0</ele>
        <time>2019-04-26T07:30:55.000Z</time>
      </trkpt>
      <trkpt lat="42.39784622192383" lon="-7.165515899658203">
        <ele>464.0</ele>
        <time>2019-04-26T07:31:01.000Z</time>
      </trkpt>
      <trkpt lat="42.39788818359375" lon="-7.1656107902526855">
        <ele>464.0</ele>
        <time>2019-04-26T07:31:07.000Z</time>
      </trkpt>
      <trkpt lat="42.398406982421875" lon="-7.166088104248047">
        <ele>457.0</ele>
        <time>2019-04-26T07:32:37.000Z</time>
      </trkpt>
      <trkpt lat="42.398155212402344" lon="-7.16641902923584">
        <ele>459.0</ele>
        <time>2019-04-26T07:33:07.000Z</time>
      </trkpt>
      <trkpt lat="42.39802169799805" lon="-7.166582107543945">
        <ele>460.0</ele>
        <time>2019-04-26T07:33:18.000Z</time>
      </trkpt>
      <trkpt lat="42.39796447753906" lon="-7.166598796844482">
        <ele>460.0</ele>
        <time>2019-04-26T07:33:24.000Z</time>
      </trkpt>
      <trkpt lat="42.39789962768555" lon="-7.166605472564697">
        <ele>461.0</ele>
        <time>2019-04-26T07:33:29.000Z</time>
      </trkpt>
      <trkpt lat="42.397830963134766" lon="-7.166605472564697">
        <ele>461.0</ele>
        <time>2019-04-26T07:33:35.000Z</time>
      </trkpt>
      <trkpt lat="42.39775848388672" lon="-7.16660213470459">
        <ele>461.0</ele>
        <time>2019-04-26T07:33:41.000Z</time>
      </trkpt>
      <trkpt lat="42.397705078125" lon="-7.166637897491455">
        <ele>461.0</ele>
        <time>2019-04-26T07:33:45.000Z</time>
      </trkpt>
      <trkpt lat="42.39768600463867" lon="-7.166685104370117">
        <ele>461.0</ele>
        <time>2019-04-26T07:33:50.000Z</time>
      </trkpt>
      <trkpt lat="42.39763259887695" lon="-7.166733741760254">
        <ele>462.0</ele>
        <time>2019-04-26T07:33:57.000Z</time>
      </trkpt>
      <trkpt lat="42.39756393432617" lon="-7.166794300079346">
        <ele>462.0</ele>
        <time>2019-04-26T07:34:04.000Z</time>
      </trkpt>
      <trkpt lat="42.397483825683594" lon="-7.166862964630127">
        <ele>463.0</ele>
        <time>2019-04-26T07:34:11.000Z</time>
      </trkpt>
      <trkpt lat="42.397396087646484" lon="-7.166935443878174">
        <ele>464.0</ele>
        <time>2019-04-26T07:34:18.000Z</time>
      </trkpt>
      <trkpt lat="42.397361755371094" lon="-7.167015552520752">
        <ele>464.0</ele>
        <time>2019-04-26T07:34:24.000Z</time>
      </trkpt>
      <trkpt lat="42.3973388671875" lon="-7.167102813720703">
        <ele>465.0</ele>
        <time>2019-04-26T07:34:31.000Z</time>
      </trkpt>
      <trkpt lat="42.3973274230957" lon="-7.1671953201293945">
        <ele>465.0</ele>
        <time>2019-04-26T07:34:37.000Z</time>
      </trkpt>
      <trkpt lat="42.39732360839844" lon="-7.167290210723877">
        <ele>465.0</ele>
        <time>2019-04-26T07:34:44.000Z</time>
      </trkpt>
      <trkpt lat="42.397315979003906" lon="-7.1673359870910645">
        <ele>465.0</ele>
        <time>2019-04-26T07:34:48.000Z</time>
      </trkpt>
      <trkpt lat="42.39731216430664" lon="-7.167364120483398">
        <ele>464.0</ele>
        <time>2019-04-26T07:34:51.000Z</time>
      </trkpt>
      <trkpt lat="42.39731216430664" lon="-7.167379856109619">
        <ele>463.0</ele>
        <time>2019-04-26T07:34:55.000Z</time>
      </trkpt>
      <trkpt lat="42.397315979003906" lon="-7.1673903465271">
        <ele>463.0</ele>
        <time>2019-04-26T07:34:59.000Z</time>
      </trkpt>
      <trkpt lat="42.397315979003906" lon="-7.1674065589904785">
        <ele>462.0</ele>
        <time>2019-04-26T07:34:59.000Z</time>
      </trkpt>
      <trkpt lat="42.397315979003906" lon="-7.167418956756592">
        <ele>462.0</ele>
        <time>2019-04-26T07:34:59.000Z</time>
      </trkpt>
      <trkpt lat="42.397315979003906" lon="-7.167428970336914">
        <ele>462.0</ele>
        <time>2019-04-26T07:35:00.000Z</time>
      </trkpt>
      <trkpt lat="42.39731216430664" lon="-7.167437553405762">
        <ele>463.0</ele>
        <time>2019-04-26T07:35:00.000Z</time>
      </trkpt>
      <trkpt lat="42.39729309082031" lon="-7.167513847351074">
        <ele>463.0</ele>
        <time>2019-04-26T07:35:05.000Z</time>
      </trkpt>
      <trkpt lat="42.39726257324219" lon="-7.167617321014404">
        <ele>463.0</ele>
        <time>2019-04-26T07:35:09.000Z</time>
      </trkpt>
      <trkpt lat="42.3972282409668" lon="-7.167738914489746">
        <ele>463.0</ele>
        <time>2019-04-26T07:35:14.000Z</time>
      </trkpt>
      <trkpt lat="42.397186279296875" lon="-7.1678690910339355">
        <ele>463.0</ele>
        <time>2019-04-26T07:35:19.000Z</time>
      </trkpt>
      <trkpt lat="42.397151947021484" lon="-7.167978286743164">
        <ele>463.0</ele>
        <time>2019-04-26T07:35:26.000Z</time>
      </trkpt>
      <trkpt lat="42.397117614746094" lon="-7.168087959289551">
        <ele>463.0</ele>
        <time>2019-04-26T07:35:34.000Z</time>
      </trkpt>
      <trkpt lat="42.3970832824707" lon="-7.168198108673096">
        <ele>463.0</ele>
        <time>2019-04-26T07:35:41.000Z</time>
      </trkpt>
      <trkpt lat="42.39704513549805" lon="-7.168308734893799">
        <ele>462.0</ele>
        <time>2019-04-26T07:35:49.000Z</time>
      </trkpt>
      <trkpt lat="42.39699935913086" lon="-7.168409824371338">
        <ele>462.0</ele>
        <time>2019-04-26T07:35:56.000Z</time>
      </trkpt>
      <trkpt lat="42.39695358276367" lon="-7.168507099151611">
        <ele>461.0</ele>
        <time>2019-04-26T07:36:04.000Z</time>
      </trkpt>
      <trkpt lat="42.39690017700195" lon="-7.168601989746094">
        <ele>461.0</ele>
        <time>2019-04-26T07:36:11.000Z</time>
      </trkpt>
      <trkpt lat="42.396846771240234" lon="-7.16869592666626">
        <ele>461.0</ele>
        <time>2019-04-26T07:36:19.000Z</time>
      </trkpt>
      <trkpt lat="42.39677047729492" lon="-7.169162273406982">
        <ele>460.0</ele>
        <time>2019-04-26T07:36:49.000Z</time>
      </trkpt>
      <trkpt lat="42.396793365478516" lon="-7.169394016265869">
        <ele>460.0</ele>
        <time>2019-04-26T07:37:05.000Z</time>
      </trkpt>
      <trkpt lat="42.39684295654297" lon="-7.1696248054504395">
        <ele>460.0</ele>
        <time>2019-04-26T07:37:22.000Z</time>
      </trkpt>
      <trkpt lat="42.39687728881836" lon="-7.169730186462402">
        <ele>460.0</ele>
        <time>2019-04-26T07:37:29.000Z</time>
      </trkpt>
      <trkpt lat="42.39692306518555" lon="-7.169831275939941">
        <ele>459.0</ele>
        <time>2019-04-26T07:37:35.000Z</time>
      </trkpt>
      <trkpt lat="42.396968841552734" lon="-7.169929504394531">
        <ele>459.0</ele>
        <time>2019-04-26T07:37:42.000Z</time>
      </trkpt>
      <trkpt lat="42.39701843261719" lon="-7.170026779174805">
        <ele>458.0</ele>
        <time>2019-04-26T07:37:49.000Z</time>
      </trkpt>
      <trkpt lat="42.397056579589844" lon="-7.170135021209717">
        <ele>458.0</ele>
        <time>2019-04-26T07:37:56.000Z</time>
      </trkpt>
      <trkpt lat="42.39708709716797" lon="-7.170246601104736">
        <ele>458.0</ele>
        <time>2019-04-26T07:38:04.000Z</time>
      </trkpt>
      <trkpt lat="42.397117614746094" lon="-7.170360565185547">
        <ele>457.0</ele>
        <time>2019-04-26T07:38:11.000Z</time>
      </trkpt>
      <trkpt lat="42.39714431762695" lon="-7.170475482940674">
        <ele>457.0</ele>
        <time>2019-04-26T07:38:19.000Z</time>
      </trkpt>
      <trkpt lat="42.39716339111328" lon="-7.170588970184326">
        <ele>457.0</ele>
        <time>2019-04-26T07:38:26.000Z</time>
      </trkpt>
      <trkpt lat="42.397178649902344" lon="-7.170703411102295">
        <ele>457.0</ele>
        <time>2019-04-26T07:38:33.000Z</time>
      </trkpt>
      <trkpt lat="42.397186279296875" lon="-7.170817852020264">
        <ele>457.0</ele>
        <time>2019-04-26T07:38:40.000Z</time>
      </trkpt>
      <trkpt lat="42.397193908691406" lon="-7.170932292938232">
        <ele>457.0</ele>
        <time>2019-04-26T07:38:47.000Z</time>
      </trkpt>
      <trkpt lat="42.397193908691406" lon="-7.171024322509766">
        <ele>457.0</ele>
        <time>2019-04-26T07:38:52.000Z</time>
      </trkpt>
      <trkpt lat="42.39718246459961" lon="-7.171107292175293">
        <ele>458.0</ele>
        <time>2019-04-26T07:38:57.000Z</time>
      </trkpt>
      <trkpt lat="42.39716720581055" lon="-7.1711835861206055">
        <ele>458.0</ele>
        <time>2019-04-26T07:39:02.000Z</time>
      </trkpt>
      <trkpt lat="42.397151947021484" lon="-7.171257019042969">
        <ele>459.0</ele>
        <time>2019-04-26T07:39:07.000Z</time>
      </trkpt>
      <trkpt lat="42.39714431762695" lon="-7.171290397644043">
        <ele>459.0</ele>
        <time>2019-04-26T07:39:11.000Z</time>
      </trkpt>
      <trkpt lat="42.39714431762695" lon="-7.171303749084473">
        <ele>459.0</ele>
        <time>2019-04-26T07:39:15.000Z</time>
      </trkpt>
      <trkpt lat="42.39714050292969" lon="-7.171304225921631">
        <ele>459.0</ele>
        <time>2019-04-26T07:39:19.000Z</time>
      </trkpt>
      <trkpt lat="42.39714050292969" lon="-7.171298027038574">
        <ele>459.0</ele>
        <time>2019-04-26T07:39:23.000Z</time>
      </trkpt>
      <trkpt lat="42.397132873535156" lon="-7.171328067779541">
        <ele>459.0</ele>
        <time>2019-04-26T07:39:24.000Z</time>
      </trkpt>
      <trkpt lat="42.397037506103516" lon="-7.171772003173828">
        <ele>459.0</ele>
        <time>2019-04-26T07:39:41.000Z</time>
      </trkpt>
      <trkpt lat="42.396949768066406" lon="-7.172231197357178">
        <ele>457.0</ele>
        <time>2019-04-26T07:40:09.000Z</time>
      </trkpt>
      <trkpt lat="42.39680480957031" lon="-7.172666072845459">
        <ele>459.0</ele>
        <time>2019-04-26T07:40:35.000Z</time>
      </trkpt>
      <trkpt lat="42.39678955078125" lon="-7.172691345214844">
        <ele>460.0</ele>
        <time>2019-04-26T07:40:45.000Z</time>
      </trkpt>
      <trkpt lat="42.39677429199219" lon="-7.1727614402771">
        <ele>465.0</ele>
        <time>2019-04-26T07:41:17.000Z</time>
      </trkpt>
      <trkpt lat="42.39676284790039" lon="-7.172801971435547">
        <ele>465.0</ele>
        <time>2019-04-26T07:41:18.000Z</time>
      </trkpt>
      <trkpt lat="42.396728515625" lon="-7.173151969909668">
        <ele>468.0</ele>
        <time>2019-04-26T07:41:33.000Z</time>
      </trkpt>
      <trkpt lat="42.396751403808594" lon="-7.173407554626465">
        <ele>475.0</ele>
        <time>2019-04-26T07:41:47.000Z</time>
      </trkpt>
      <trkpt lat="42.396751403808594" lon="-7.173661708831787">
        <ele>478.0</ele>
        <time>2019-04-26T07:42:06.000Z</time>
      </trkpt>
      <trkpt lat="42.396785736083984" lon="-7.1737775802612305">
        <ele>476.0</ele>
        <time>2019-04-26T07:42:14.000Z</time>
      </trkpt>
      <trkpt lat="42.39683532714844" lon="-7.173888683319092">
        <ele>472.0</ele>
        <time>2019-04-26T07:42:23.000Z</time>
      </trkpt>
      <trkpt lat="42.3968620300293" lon="-7.173943519592285">
        <ele>471.0</ele>
        <time>2019-04-26T07:42:27.000Z</time>
      </trkpt>
      <trkpt lat="42.396888732910156" lon="-7.1739983558654785">
        <ele>470.0</ele>
        <time>2019-04-26T07:42:31.000Z</time>
      </trkpt>
      <trkpt lat="42.396915435791016" lon="-7.1740522384643555">
        <ele>469.0</ele>
        <time>2019-04-26T07:42:36.000Z</time>
      </trkpt>
      <trkpt lat="42.396942138671875" lon="-7.174106121063232">
        <ele>469.0</ele>
        <time>2019-04-26T07:42:40.000Z</time>
      </trkpt>
      <trkpt lat="42.396968841552734" lon="-7.174157619476318">
        <ele>468.0</ele>
        <time>2019-04-26T07:42:44.000Z</time>
      </trkpt>
      <trkpt lat="42.396995544433594" lon="-7.174208164215088">
        <ele>467.0</ele>
        <time>2019-04-26T07:42:48.000Z</time>
      </trkpt>
      <trkpt lat="42.39702606201172" lon="-7.174257755279541">
        <ele>466.0</ele>
        <time>2019-04-26T07:42:53.000Z</time>
      </trkpt>
      <trkpt lat="42.39705276489258" lon="-7.174307346343994">
        <ele>465.0</ele>
        <time>2019-04-26T07:42:57.000Z</time>
      </trkpt>
      <trkpt lat="42.39707946777344" lon="-7.1744279861450195">
        <ele>464.0</ele>
        <time>2019-04-26T07:43:04.000Z</time>
      </trkpt>
      <trkpt lat="42.3970947265625" lon="-7.174558162689209">
        <ele>464.0</ele>
        <time>2019-04-26T07:43:12.000Z</time>
      </trkpt>
      <trkpt lat="42.39706802368164" lon="-7.174680709838867">
        <ele>464.0</ele>
        <time>2019-04-26T07:43:19.000Z</time>
      </trkpt>
      <trkpt lat="42.39702224731445" lon="-7.174801349639893">
        <ele>466.0</ele>
        <time>2019-04-26T07:43:26.000Z</time>
      </trkpt>
      <trkpt lat="42.396949768066406" lon="-7.17488956451416">
        <ele>467.0</ele>
        <time>2019-04-26T07:43:33.000Z</time>
      </trkpt>
      <trkpt lat="42.3968620300293" lon="-7.174962997436523">
        <ele>469.0</ele>
        <time>2019-04-26T07:43:40.000Z</time>
      </trkpt>
      <trkpt lat="42.39680099487305" lon="-7.175015449523926">
        <ele>469.0</ele>
        <time>2019-04-26T07:43:48.000Z</time>
      </trkpt>
      <trkpt lat="42.396724700927734" lon="-7.175073623657227">
        <ele>468.0</ele>
        <time>2019-04-26T07:43:56.000Z</time>
      </trkpt>
      <trkpt lat="42.396644592285156" lon="-7.175134658813477">
        <ele>467.0</ele>
        <time>2019-04-26T07:44:04.000Z</time>
      </trkpt>
      <trkpt lat="42.39655685424805" lon="-7.175198078155518">
        <ele>466.0</ele>
        <time>2019-04-26T07:44:11.000Z</time>
      </trkpt>
      <trkpt lat="42.396385192871094" lon="-7.175210952758789">
        <ele>465.0</ele>
        <time>2019-04-26T07:44:25.000Z</time>
      </trkpt>
      <trkpt lat="42.39620590209961" lon="-7.175175666809082">
        <ele>463.0</ele>
        <time>2019-04-26T07:44:39.000Z</time>
      </trkpt>
      <trkpt lat="42.396114349365234" lon="-7.175164222717285">
        <ele>462.0</ele>
        <time>2019-04-26T07:44:47.000Z</time>
      </trkpt>
      <trkpt lat="42.396026611328125" lon="-7.1751508712768555">
        <ele>462.0</ele>
        <time>2019-04-26T07:44:54.000Z</time>
      </trkpt>
      <trkpt lat="42.395938873291016" lon="-7.175136089324951">
        <ele>462.0</ele>
        <time>2019-04-26T07:45:01.000Z</time>
      </trkpt>
      <trkpt lat="42.39584732055664" lon="-7.1751203536987305">
        <ele>462.0</ele>
        <time>2019-04-26T07:45:08.000Z</time>
      </trkpt>
      <trkpt lat="42.3957633972168" lon="-7.175111293792725">
        <ele>462.0</ele>
        <time>2019-04-26T07:45:16.000Z</time>
      </trkpt>
      <trkpt lat="42.39567947387695" lon="-7.175104141235352">
        <ele>461.0</ele>
        <time>2019-04-26T07:45:23.000Z</time>
      </trkpt>
      <trkpt lat="42.395599365234375" lon="-7.175098419189453">
        <ele>461.0</ele>
        <time>2019-04-26T07:45:30.000Z</time>
      </trkpt>
      <trkpt lat="42.39551544189453" lon="-7.175093650817871">
        <ele>460.0</ele>
        <time>2019-04-26T07:45:38.000Z</time>
      </trkpt>
      <trkpt lat="42.39543151855469" lon="-7.17510461807251">
        <ele>460.0</ele>
        <time>2019-04-26T07:45:44.000Z</time>
      </trkpt>
      <trkpt lat="42.395347595214844" lon="-7.17512321472168">
        <ele>460.0</ele>
        <time>2019-04-26T07:45:50.000Z</time>
      </trkpt>
      <trkpt lat="42.395263671875" lon="-7.17514705657959">
        <ele>460.0</ele>
        <time>2019-04-26T07:45:56.000Z</time>
      </trkpt>
      <trkpt lat="42.39517593383789" lon="-7.175173282623291">
        <ele>460.0</ele>
        <time>2019-04-26T07:46:02.000Z</time>
      </trkpt>
      <trkpt lat="42.39503479003906" lon="-7.175307750701904">
        <ele>462.0</ele>
        <time>2019-04-26T07:46:17.000Z</time>
      </trkpt>
      <trkpt lat="42.39490509033203" lon="-7.175485610961914">
        <ele>465.0</ele>
        <time>2019-04-26T07:46:32.000Z</time>
      </trkpt>
      <trkpt lat="42.39484405517578" lon="-7.175707817077637">
        <ele>465.0</ele>
        <time>2019-04-26T07:46:47.000Z</time>
      </trkpt>
      <trkpt lat="42.39482116699219" lon="-7.175960540771484">
        <ele>465.0</ele>
        <time>2019-04-26T07:47:02.000Z</time>
      </trkpt>
      <trkpt lat="42.394805908203125" lon="-7.176079750061035">
        <ele>464.0</ele>
        <time>2019-04-26T07:47:09.000Z</time>
      </trkpt>
      <trkpt lat="42.39479446411133" lon="-7.176198959350586">
        <ele>463.0</ele>
        <time>2019-04-26T07:47:17.000Z</time>
      </trkpt>
      <trkpt lat="42.39478302001953" lon="-7.176318168640137">
        <ele>463.0</ele>
        <time>2019-04-26T07:47:24.000Z</time>
      </trkpt>
      <trkpt lat="42.394775390625" lon="-7.176437854766846">
        <ele>462.0</ele>
        <time>2019-04-26T07:47:32.000Z</time>
      </trkpt>
      <trkpt lat="42.39476013183594" lon="-7.176522254943848">
        <ele>461.0</ele>
        <time>2019-04-26T07:47:36.000Z</time>
      </trkpt>
      <trkpt lat="42.39474868774414" lon="-7.176591873168945">
        <ele>461.0</ele>
        <time>2019-04-26T07:47:40.000Z</time>
      </trkpt>
      <trkpt lat="42.39473342895508" lon="-7.176651954650879">
        <ele>461.0</ele>
        <time>2019-04-26T07:47:44.000Z</time>
      </trkpt>
      <trkpt lat="42.39472198486328" lon="-7.1767072677612305">
        <ele>460.0</ele>
        <time>2019-04-26T07:47:48.000Z</time>
      </trkpt>
      <trkpt lat="42.394710540771484" lon="-7.176774024963379">
        <ele>461.0</ele>
        <time>2019-04-26T07:47:51.000Z</time>
      </trkpt>
      <trkpt lat="42.39469909667969" lon="-7.176840305328369">
        <ele>462.0</ele>
        <time>2019-04-26T07:47:55.000Z</time>
      </trkpt>
      <trkpt lat="42.394691467285156" lon="-7.176907062530518">
        <ele>463.0</ele>
        <time>2019-04-26T07:47:58.000Z</time>
      </trkpt>
      <trkpt lat="42.39468002319336" lon="-7.176973342895508">
        <ele>464.0</ele>
        <time>2019-04-26T07:48:02.000Z</time>
      </trkpt>
      <trkpt lat="42.39466857910156" lon="-7.177037239074707">
        <ele>464.0</ele>
        <time>2019-04-26T07:48:06.000Z</time>
      </trkpt>
      <trkpt lat="42.394657135009766" lon="-7.177099704742432">
        <ele>463.0</ele>
        <time>2019-04-26T07:48:11.000Z</time>
      </trkpt>
      <trkpt lat="42.39464569091797" lon="-7.177161693572998">
        <ele>462.0</ele>
        <time>2019-04-26T07:48:15.000Z</time>
      </trkpt>
      <trkpt lat="42.394630432128906" lon="-7.177222728729248">
        <ele>461.0</ele>
        <time>2019-04-26T07:48:20.000Z</time>
      </trkpt>
      <trkpt lat="42.39461898803711" lon="-7.1772871017456055">
        <ele>460.0</ele>
        <time>2019-04-26T07:48:24.000Z</time>
      </trkpt>
      <trkpt lat="42.39461135864258" lon="-7.177351951599121">
        <ele>459.0</ele>
        <time>2019-04-26T07:48:29.000Z</time>
      </trkpt>
      <trkpt lat="42.39460372924805" lon="-7.177417278289795">
        <ele>458.0</ele>
        <time>2019-04-26T07:48:33.000Z</time>
      </trkpt>
      <trkpt lat="42.394596099853516" lon="-7.177483081817627">
        <ele>457.0</ele>
        <time>2019-04-26T07:48:38.000Z</time>
      </trkpt>
      <trkpt lat="42.39459228515625" lon="-7.177731513977051">
        <ele>454.0</ele>
        <time>2019-04-26T07:48:55.000Z</time>
      </trkpt>
      <trkpt lat="42.394649505615234" lon="-7.177979469299316">
        <ele>457.0</ele>
        <time>2019-04-26T07:49:09.000Z</time>
      </trkpt>
      <trkpt lat="42.3947639465332" lon="-7.178134918212891">
        <ele>457.0</ele>
        <time>2019-04-26T07:49:26.000Z</time>
      </trkpt>
      <trkpt lat="42.39491653442383" lon="-7.178305149078369">
        <ele>455.0</ele>
        <time>2019-04-26T07:49:44.000Z</time>
      </trkpt>
      <trkpt lat="42.39500045776367" lon="-7.178325653076172">
        <ele>455.0</ele>
        <time>2019-04-26T07:49:50.000Z</time>
      </trkpt>
      <trkpt lat="42.39508819580078" lon="-7.178319931030273">
        <ele>455.0</ele>
        <time>2019-04-26T07:49:56.000Z</time>
      </trkpt>
      <trkpt lat="42.395179748535156" lon="-7.178297519683838">
        <ele>454.0</ele>
        <time>2019-04-26T07:50:02.000Z</time>
      </trkpt>
      <trkpt lat="42.3952751159668" lon="-7.178266525268555">
        <ele>454.0</ele>
        <time>2019-04-26T07:50:08.000Z</time>
      </trkpt>
      <trkpt lat="42.39532470703125" lon="-7.178255558013916">
        <ele>453.0</ele>
        <time>2019-04-26T07:50:14.000Z</time>
      </trkpt>
      <trkpt lat="42.395355224609375" lon="-7.178244113922119">
        <ele>452.0</ele>
        <time>2019-04-26T07:50:20.000Z</time>
      </trkpt>
      <trkpt lat="42.39537811279297" lon="-7.178232192993164">
        <ele>451.0</ele>
        <time>2019-04-26T07:50:27.000Z</time>
      </trkpt>
      <trkpt lat="42.39539337158203" lon="-7.178219795227051">
        <ele>450.0</ele>
        <time>2019-04-26T07:50:33.000Z</time>
      </trkpt>
      <trkpt lat="42.39539337158203" lon="-7.17822265625">
        <ele>450.0</ele>
        <time>2019-04-26T07:50:43.000Z</time>
      </trkpt>
      <trkpt lat="42.395381927490234" lon="-7.178231239318848">
        <ele>450.0</ele>
        <time>2019-04-26T07:50:53.000Z</time>
      </trkpt>
      <trkpt lat="42.395362854003906" lon="-7.178244113922119">
        <ele>450.0</ele>
        <time>2019-04-26T07:51:03.000Z</time>
      </trkpt>
      <trkpt lat="42.39533996582031" lon="-7.178258895874023">
        <ele>450.0</ele>
        <time>2019-04-26T07:51:13.000Z</time>
      </trkpt>
      <trkpt lat="42.39533233642578" lon="-7.178265571594238">
        <ele>450.0</ele>
        <time>2019-04-26T07:51:13.000Z</time>
      </trkpt>
      <trkpt lat="42.39532470703125" lon="-7.1782708168029785">
        <ele>450.0</ele>
        <time>2019-04-26T07:51:13.000Z</time>
      </trkpt>
      <trkpt lat="42.39531707763672" lon="-7.178275108337402">
        <ele>450.0</ele>
        <time>2019-04-26T07:51:14.000Z</time>
      </trkpt>
      <trkpt lat="42.39531326293945" lon="-7.178278923034668">
        <ele>450.0</ele>
        <time>2019-04-26T07:51:14.000Z</time>
      </trkpt>
      <trkpt lat="42.395294189453125" lon="-7.178286075592041">
        <ele>450.0</ele>
        <time>2019-04-26T07:51:16.000Z</time>
      </trkpt>
      <trkpt lat="42.395267486572266" lon="-7.1782941818237305">
        <ele>450.0</ele>
        <time>2019-04-26T07:51:18.000Z</time>
      </trkpt>
      <trkpt lat="42.395240783691406" lon="-7.178303241729736">
        <ele>450.0</ele>
        <time>2019-04-26T07:51:21.000Z</time>
      </trkpt>
      <trkpt lat="42.39521408081055" lon="-7.178311824798584">
        <ele>450.0</ele>
        <time>2019-04-26T07:51:23.000Z</time>
      </trkpt>
      <trkpt lat="42.395198822021484" lon="-7.178315162658691">
        <ele>451.0</ele>
        <time>2019-04-26T07:51:30.000Z</time>
      </trkpt>
      <trkpt lat="42.39518737792969" lon="-7.178316116333008">
        <ele>452.0</ele>
        <time>2019-04-26T07:51:36.000Z</time>
      </trkpt>
      <trkpt lat="42.39518356323242" lon="-7.178315162658691">
        <ele>454.0</ele>
        <time>2019-04-26T07:51:43.000Z</time>
      </trkpt>
      <trkpt lat="42.39517593383789" lon="-7.178314208984375">
        <ele>456.0</ele>
        <time>2019-04-26T07:51:50.000Z</time>
      </trkpt>
      <trkpt lat="42.39516830444336" lon="-7.178314208984375">
        <ele>456.0</ele>
        <time>2019-04-26T07:51:50.000Z</time>
      </trkpt>
      <trkpt lat="42.395164489746094" lon="-7.178314685821533">
        <ele>456.0</ele>
        <time>2019-04-26T07:51:50.000Z</time>
      </trkpt>
      <trkpt lat="42.39515686035156" lon="-7.178315162658691">
        <ele>456.0</ele>
        <time>2019-04-26T07:51:51.000Z</time>
      </trkpt>
      <trkpt lat="42.3951530456543" lon="-7.17831563949585">
        <ele>456.0</ele>
        <time>2019-04-26T07:51:51.000Z</time>
      </trkpt>
      <trkpt lat="42.39509963989258" lon="-7.178307056427002">
        <ele>456.0</ele>
        <time>2019-04-26T07:51:56.000Z</time>
      </trkpt>
      <trkpt lat="42.39502716064453" lon="-7.178295135498047">
        <ele>457.0</ele>
        <time>2019-04-26T07:52:00.000Z</time>
      </trkpt>
      <trkpt lat="42.39493942260742" lon="-7.178280353546143">
        <ele>458.0</ele>
        <time>2019-04-26T07:52:05.000Z</time>
      </trkpt>
      <trkpt lat="42.39484786987305" lon="-7.178264617919922">
        <ele>460.0</ele>
        <time>2019-04-26T07:52:10.000Z</time>
      </trkpt>
      <trkpt lat="42.39480209350586" lon="-7.178239345550537">
        <ele>461.0</ele>
        <time>2019-04-26T07:52:17.000Z</time>
      </trkpt>
      <trkpt lat="42.39480972290039" lon="-7.178213596343994">
        <ele>462.0</ele>
        <time>2019-04-26T07:52:25.000Z</time>
      </trkpt>
      <trkpt lat="42.39480209350586" lon="-7.178204536437988">
        <ele>462.0</ele>
        <time>2019-04-26T07:52:25.000Z</time>
      </trkpt>
      <trkpt lat="42.39479446411133" lon="-7.178197383880615">
        <ele>462.0</ele>
        <time>2019-04-26T07:52:25.000Z</time>
      </trkpt>
      <trkpt lat="42.39479064941406" lon="-7.1781907081604">
        <ele>462.0</ele>
        <time>2019-04-26T07:52:26.000Z</time>
      </trkpt>
      <trkpt lat="42.39478302001953" lon="-7.178184509277344">
        <ele>462.0</ele>
        <time>2019-04-26T07:52:26.000Z</time>
      </trkpt>
      <trkpt lat="42.394752502441406" lon="-7.178120136260986">
        <ele>462.0</ele>
        <time>2019-04-26T07:52:34.000Z</time>
      </trkpt>
      <trkpt lat="42.39470672607422" lon="-7.178031921386719">
        <ele>462.0</ele>
        <time>2019-04-26T07:52:43.000Z</time>
      </trkpt>
      <trkpt lat="42.394657135009766" lon="-7.1779279708862305">
        <ele>463.0</ele>
        <time>2019-04-26T07:52:51.000Z</time>
      </trkpt>
      <trkpt lat="42.39460372924805" lon="-7.1778154373168945">
        <ele>463.0</ele>
        <time>2019-04-26T07:53:00.000Z</time>
      </trkpt>
      <trkpt lat="42.39459228515625" lon="-7.177800178527832">
        <ele>462.0</ele>
        <time>2019-04-26T07:53:07.000Z</time>
      </trkpt>
      <trkpt lat="42.394596099853516" lon="-7.177816867828369">
        <ele>461.0</ele>
        <time>2019-04-26T07:53:14.000Z</time>
      </trkpt>
      <trkpt lat="42.39461135864258" lon="-7.177855491638184">
        <ele>460.0</ele>
        <time>2019-04-26T07:53:22.000Z</time>
      </trkpt>
      <trkpt lat="42.39463424682617" lon="-7.17790412902832">
        <ele>458.0</ele>
        <time>2019-04-26T07:53:29.000Z</time>
      </trkpt>
      <trkpt lat="42.39463806152344" lon="-7.177918910980225">
        <ele>458.0</ele>
        <time>2019-04-26T07:53:29.000Z</time>
      </trkpt>
      <trkpt lat="42.3946418762207" lon="-7.17793083190918">
        <ele>458.0</ele>
        <time>2019-04-26T07:53:29.000Z</time>
      </trkpt>
      <trkpt lat="42.39464569091797" lon="-7.177940368652344">
        <ele>458.0</ele>
        <time>2019-04-26T07:53:30.000Z</time>
      </trkpt>
      <trkpt lat="42.394649505615234" lon="-7.177948951721191">
        <ele>458.0</ele>
        <time>2019-04-26T07:53:30.000Z</time>
      </trkpt>
      <trkpt lat="42.3946647644043" lon="-7.177988529205322">
        <ele>458.0</ele>
        <time>2019-04-26T07:53:32.000Z</time>
      </trkpt>
      <trkpt lat="42.39468765258789" lon="-7.178040027618408">
        <ele>458.0</ele>
        <time>2019-04-26T07:53:33.000Z</time>
      </trkpt>
      <trkpt lat="42.39471435546875" lon="-7.178100109100342">
        <ele>458.0</ele>
        <time>2019-04-26T07:53:35.000Z</time>
      </trkpt>
      <trkpt lat="42.39474105834961" lon="-7.178163528442383">
        <ele>457.0</ele>
        <time>2019-04-26T07:53:37.000Z</time>
      </trkpt>
      <trkpt lat="42.39476776123047" lon="-7.178203582763672">
        <ele>457.0</ele>
        <time>2019-04-26T07:53:42.000Z</time>
      </trkpt>
      <trkpt lat="42.394798278808594" lon="-7.178237438201904">
        <ele>456.0</ele>
        <time>2019-04-26T07:53:47.000Z</time>
      </trkpt>
      <trkpt lat="42.39482879638672" lon="-7.178267002105713">
        <ele>456.0</ele>
        <time>2019-04-26T07:53:53.000Z</time>
      </trkpt>
      <trkpt lat="42.394859313964844" lon="-7.178295135498047">
        <ele>455.0</ele>
        <time>2019-04-26T07:53:58.000Z</time>
      </trkpt>
      <trkpt lat="42.394874572753906" lon="-7.178308963775635">
        <ele>456.0</ele>
        <time>2019-04-26T07:54:12.000Z</time>
      </trkpt>
      <trkpt lat="42.39488983154297" lon="-7.178315162658691">
        <ele>458.0</ele>
        <time>2019-04-26T07:54:25.000Z</time>
      </trkpt>
      <trkpt lat="42.394901275634766" lon="-7.178316116333008">
        <ele>459.0</ele>
        <time>2019-04-26T07:54:39.000Z</time>
      </trkpt>
      <trkpt lat="42.3949089050293" lon="-7.178314208984375">
        <ele>461.0</ele>
        <time>2019-04-26T07:54:53.000Z</time>
      </trkpt>
      <trkpt lat="42.39491653442383" lon="-7.178318023681641">
        <ele>462.0</ele>
        <time>2019-04-26T07:54:53.000Z</time>
      </trkpt>
      <trkpt lat="42.39492416381836" lon="-7.17832088470459">
        <ele>462.0</ele>
        <time>2019-04-26T07:54:53.000Z</time>
      </trkpt>
      <trkpt lat="42.39493179321289" lon="-7.178323745727539">
        <ele>462.0</ele>
        <time>2019-04-26T07:54:54.000Z</time>
      </trkpt>
      <trkpt lat="42.39493942260742" lon="-7.17832612991333">
        <ele>461.0</ele>
        <time>2019-04-26T07:54:54.000Z</time>
      </trkpt>
      <trkpt lat="42.39506149291992" lon="-7.178352355957031">
        <ele>462.0</ele>
        <time>2019-04-26T07:54:58.000Z</time>
      </trkpt>
      <trkpt lat="42.3952522277832" lon="-7.178347587585449">
        <ele>462.0</ele>
        <time>2019-04-26T07:55:06.000Z</time>
      </trkpt>
      <trkpt lat="42.3953971862793" lon="-7.178251266479492">
        <ele>460.0</ele>
        <time>2019-04-26T07:55:23.000Z</time>
      </trkpt>
      <trkpt lat="42.395565032958984" lon="-7.178110599517822">
        <ele>457.0</ele>
        <time>2019-04-26T07:55:41.000Z</time>
      </trkpt>
      <trkpt lat="42.39559555053711" lon="-7.178084850311279">
        <ele>456.0</ele>
        <time>2019-04-26T07:55:42.000Z</time>
      </trkpt>
      <trkpt lat="42.395606994628906" lon="-7.178072929382324">
        <ele>456.0</ele>
        <time>2019-04-26T07:55:43.000Z</time>
      </trkpt>
      <trkpt lat="42.395606994628906" lon="-7.178070545196533">
        <ele>456.0</ele>
        <time>2019-04-26T07:55:45.000Z</time>
      </trkpt>
      <trkpt lat="42.39559555053711" lon="-7.178072452545166">
        <ele>456.0</ele>
        <time>2019-04-26T07:55:46.000Z</time>
      </trkpt>
      <trkpt lat="42.39560317993164" lon="-7.178068161010742">
        <ele>455.0</ele>
        <time>2019-04-26T07:55:49.000Z</time>
      </trkpt>
      <trkpt lat="42.39560317993164" lon="-7.178065776824951">
        <ele>455.0</ele>
        <time>2019-04-26T07:55:52.000Z</time>
      </trkpt>
      <trkpt lat="42.395606994628906" lon="-7.178064823150635">
        <ele>454.0</ele>
        <time>2019-04-26T07:55:55.000Z</time>
      </trkpt>
      <trkpt lat="42.395606994628906" lon="-7.178064823150635">
        <ele>453.0</ele>
        <time>2019-04-26T07:55:58.000Z</time>
      </trkpt>
      <trkpt lat="42.39561080932617" lon="-7.178062915802002">
        <ele>453.0</ele>
        <time>2019-04-26T07:55:58.000Z</time>
      </trkpt>
      <trkpt lat="42.39561080932617" lon="-7.178061008453369">
        <ele>453.0</ele>
        <time>2019-04-26T07:55:58.000Z</time>
      </trkpt>
      <trkpt lat="42.39561462402344" lon="-7.1780595779418945">
        <ele>453.0</ele>
        <time>2019-04-26T07:55:59.000Z</time>
      </trkpt>
      <trkpt lat="42.3956184387207" lon="-7.178057670593262">
        <ele>453.0</ele>
        <time>2019-04-26T07:55:59.000Z</time>
      </trkpt>
      <trkpt lat="42.39566421508789" lon="-7.178016185760498">
        <ele>452.0</ele>
        <time>2019-04-26T07:56:04.000Z</time>
      </trkpt>
      <trkpt lat="42.39573287963867" lon="-7.177958011627197">
        <ele>451.0</ele>
        <time>2019-04-26T07:56:09.000Z</time>
      </trkpt>
      <trkpt lat="42.39581298828125" lon="-7.177888870239258">
        <ele>450.0</ele>
        <time>2019-04-26T07:56:15.000Z</time>
      </trkpt>
      <trkpt lat="42.39590072631836" lon="-7.17781400680542">
        <ele>449.0</ele>
        <time>2019-04-26T07:56:20.000Z</time>
      </trkpt>
      <trkpt lat="42.39598083496094" lon="-7.177765846252441">
        <ele>449.0</ele>
        <time>2019-04-26T07:56:26.000Z</time>
      </trkpt>
      <trkpt lat="42.39606475830078" lon="-7.177722454071045">
        <ele>448.0</ele>
        <time>2019-04-26T07:56:32.000Z</time>
      </trkpt>
      <trkpt lat="42.396148681640625" lon="-7.177682876586914">
        <ele>447.0</ele>
        <time>2019-04-26T07:56:39.000Z</time>
      </trkpt>
      <trkpt lat="42.39623260498047" lon="-7.177644729614258">
        <ele>447.0</ele>
        <time>2019-04-26T07:56:45.000Z</time>
      </trkpt>
      <trkpt lat="42.396575927734375" lon="-7.177530765533447">
        <ele>444.0</ele>
        <time>2019-04-26T07:57:15.000Z</time>
      </trkpt>
      <trkpt lat="42.396934509277344" lon="-7.1775126457214355">
        <ele>441.0</ele>
        <time>2019-04-26T07:57:44.000Z</time>
      </trkpt>
      <trkpt lat="42.39707946777344" lon="-7.177578449249268">
        <ele>440.0</ele>
        <time>2019-04-26T07:57:58.000Z</time>
      </trkpt>
      <trkpt lat="42.39714431762695" lon="-7.177676200866699">
        <ele>439.0</ele>
        <time>2019-04-26T07:58:06.000Z</time>
      </trkpt>
      <trkpt lat="42.39720916748047" lon="-7.1778035163879395">
        <ele>437.0</ele>
        <time>2019-04-26T07:58:15.000Z</time>
      </trkpt>
      <trkpt lat="42.397239685058594" lon="-7.177896022796631">
        <ele>437.0</ele>
        <time>2019-04-26T07:58:21.000Z</time>
      </trkpt>
      <trkpt lat="42.39727020263672" lon="-7.178003311157227">
        <ele>437.0</ele>
        <time>2019-04-26T07:58:26.000Z</time>
      </trkpt>
      <trkpt lat="42.397300720214844" lon="-7.178121089935303">
        <ele>438.0</ele>
        <time>2019-04-26T07:58:32.000Z</time>
      </trkpt>
      <trkpt lat="42.39733123779297" lon="-7.178243637084961">
        <ele>438.0</ele>
        <time>2019-04-26T07:58:38.000Z</time>
      </trkpt>
      <trkpt lat="42.397369384765625" lon="-7.178352355957031">
        <ele>439.0</ele>
        <time>2019-04-26T07:58:45.000Z</time>
      </trkpt>
      <trkpt lat="42.39740753173828" lon="-7.178460121154785">
        <ele>440.0</ele>
        <time>2019-04-26T07:58:52.000Z</time>
      </trkpt>
      <trkpt lat="42.3974494934082" lon="-7.178567886352539">
        <ele>441.0</ele>
        <time>2019-04-26T07:58:59.000Z</time>
      </trkpt>
      <trkpt lat="42.39748764038086" lon="-7.178675651550293">
        <ele>443.0</ele>
        <time>2019-04-26T07:59:06.000Z</time>
      </trkpt>
      <trkpt lat="42.39750671386719" lon="-7.178736686706543">
        <ele>443.0</ele>
        <time>2019-04-26T07:59:08.000Z</time>
      </trkpt>
      <trkpt lat="42.39751052856445" lon="-7.178778171539307">
        <ele>443.0</ele>
        <time>2019-04-26T07:59:10.000Z</time>
      </trkpt>
      <trkpt lat="42.39751434326172" lon="-7.178806304931641">
        <ele>442.0</ele>
        <time>2019-04-26T07:59:12.000Z</time>
      </trkpt>
      <trkpt lat="42.39751052856445" lon="-7.17882776260376">
        <ele>442.0</ele>
        <time>2019-04-26T07:59:14.000Z</time>
      </trkpt>
      <trkpt lat="42.39755630493164" lon="-7.178868293762207">
        <ele>441.0</ele>
        <time>2019-04-26T07:59:20.000Z</time>
      </trkpt>
      <trkpt lat="42.39761734008789" lon="-7.1789093017578125">
        <ele>440.0</ele>
        <time>2019-04-26T07:59:26.000Z</time>
      </trkpt>
      <trkpt lat="42.39768600463867" lon="-7.178951263427734">
        <ele>439.0</ele>
        <time>2019-04-26T07:59:32.000Z</time>
      </trkpt>
      <trkpt lat="42.397762298583984" lon="-7.178993225097656">
        <ele>438.0</ele>
        <time>2019-04-26T07:59:38.000Z</time>
      </trkpt>
      <trkpt lat="42.39786911010742" lon="-7.179162979125977">
        <ele>433.0</ele>
        <time>2019-04-26T07:59:53.000Z</time>
      </trkpt>
      <trkpt lat="42.39796829223633" lon="-7.179373264312744">
        <ele>427.0</ele>
        <time>2019-04-26T08:00:09.000Z</time>
      </trkpt>
      <trkpt lat="42.397979736328125" lon="-7.179483890533447">
        <ele>425.0</ele>
        <time>2019-04-26T08:00:15.000Z</time>
      </trkpt>
      <trkpt lat="42.397972106933594" lon="-7.179600715637207">
        <ele>424.0</ele>
        <time>2019-04-26T08:00:21.000Z</time>
      </trkpt>
      <trkpt lat="42.397953033447266" lon="-7.179722309112549">
        <ele>423.0</ele>
        <time>2019-04-26T08:00:28.000Z</time>
      </trkpt>
      <trkpt lat="42.39793014526367" lon="-7.179845333099365">
        <ele>422.0</ele>
        <time>2019-04-26T08:00:34.000Z</time>
      </trkpt>
      <trkpt lat="42.39789962768555" lon="-7.179956436157227">
        <ele>421.0</ele>
        <time>2019-04-26T08:00:41.000Z</time>
      </trkpt>
      <trkpt lat="42.39786148071289" lon="-7.180064678192139">
        <ele>421.0</ele>
        <time>2019-04-26T08:00:47.000Z</time>
      </trkpt>
      <trkpt lat="42.3978157043457" lon="-7.180171012878418">
        <ele>421.0</ele>
        <time>2019-04-26T08:00:54.000Z</time>
      </trkpt>
      <trkpt lat="42.39776611328125" lon="-7.180276393890381">
        <ele>421.0</ele>
        <time>2019-04-26T08:01:01.000Z</time>
      </trkpt>
      <trkpt lat="42.3977165222168" lon="-7.18037748336792">
        <ele>421.0</ele>
        <time>2019-04-26T08:01:08.000Z</time>
      </trkpt>
      <trkpt lat="42.39765930175781" lon="-7.18047571182251">
        <ele>421.0</ele>
        <time>2019-04-26T08:01:15.000Z</time>
      </trkpt>
      <trkpt lat="42.39760208129883" lon="-7.180572509765625">
        <ele>422.0</ele>
        <time>2019-04-26T08:01:23.000Z</time>
      </trkpt>
      <trkpt lat="42.397544860839844" lon="-7.180667877197266">
        <ele>422.0</ele>
        <time>2019-04-26T08:01:30.000Z</time>
      </trkpt>
      <trkpt lat="42.397483825683594" lon="-7.180758476257324">
        <ele>422.0</ele>
        <time>2019-04-26T08:01:37.000Z</time>
      </trkpt>
      <trkpt lat="42.39741897583008" lon="-7.180845260620117">
        <ele>422.0</ele>
        <time>2019-04-26T08:01:45.000Z</time>
      </trkpt>
      <trkpt lat="42.39735412597656" lon="-7.180930137634277">
        <ele>423.0</ele>
        <time>2019-04-26T08:01:52.000Z</time>
      </trkpt>
      <trkpt lat="42.39728546142578" lon="-7.181014060974121">
        <ele>423.0</ele>
        <time>2019-04-26T08:02:00.000Z</time>
      </trkpt>
      <trkpt lat="42.397220611572266" lon="-7.1812262535095215">
        <ele>424.0</ele>
        <time>2019-04-26T08:02:14.000Z</time>
      </trkpt>
      <trkpt lat="42.39719009399414" lon="-7.181456565856934">
        <ele>426.0</ele>
        <time>2019-04-26T08:02:28.000Z</time>
      </trkpt>
      <trkpt lat="42.39718246459961" lon="-7.1815385818481445">
        <ele>426.0</ele>
        <time>2019-04-26T08:02:32.000Z</time>
      </trkpt>
      <trkpt lat="42.39718246459961" lon="-7.181609153747559">
        <ele>427.0</ele>
        <time>2019-04-26T08:02:36.000Z</time>
      </trkpt>
      <trkpt lat="42.397186279296875" lon="-7.181671142578125">
        <ele>427.0</ele>
        <time>2019-04-26T08:02:40.000Z</time>
      </trkpt>
      <trkpt lat="42.397193908691406" lon="-7.181729793548584">
        <ele>427.0</ele>
        <time>2019-04-26T08:02:44.000Z</time>
      </trkpt>
      <trkpt lat="42.397212982177734" lon="-7.181826591491699">
        <ele>426.0</ele>
        <time>2019-04-26T08:02:52.000Z</time>
      </trkpt>
      <trkpt lat="42.39724349975586" lon="-7.1819353103637695">
        <ele>424.0</ele>
        <time>2019-04-26T08:03:00.000Z</time>
      </trkpt>
      <trkpt lat="42.39727783203125" lon="-7.182052135467529">
        <ele>422.0</ele>
        <time>2019-04-26T08:03:08.000Z</time>
      </trkpt>
      <trkpt lat="42.39731216430664" lon="-7.182172775268555">
        <ele>420.0</ele>
        <time>2019-04-26T08:03:16.000Z</time>
      </trkpt>
      <trkpt lat="42.3973388671875" lon="-7.182249069213867">
        <ele>418.0</ele>
        <time>2019-04-26T08:03:21.000Z</time>
      </trkpt>
      <trkpt lat="42.39736557006836" lon="-7.182311534881592">
        <ele>417.0</ele>
        <time>2019-04-26T08:03:26.000Z</time>
      </trkpt>
      <trkpt lat="42.39738845825195" lon="-7.182364463806152">
        <ele>415.0</ele>
        <time>2019-04-26T08:03:32.000Z</time>
      </trkpt>
      <trkpt lat="42.39741516113281" lon="-7.182412624359131">
        <ele>414.0</ele>
        <time>2019-04-26T08:03:37.000Z</time>
      </trkpt>
      <trkpt lat="42.397483825683594" lon="-7.182475566864014">
        <ele>413.0</ele>
        <time>2019-04-26T08:03:43.000Z</time>
      </trkpt>
      <trkpt lat="42.397560119628906" lon="-7.182512283325195">
        <ele>413.0</ele>
        <time>2019-04-26T08:03:49.000Z</time>
      </trkpt>
      <trkpt lat="42.397586822509766" lon="-7.1825995445251465">
        <ele>412.0</ele>
        <time>2019-04-26T08:03:55.000Z</time>
      </trkpt>
      <trkpt lat="42.397613525390625" lon="-7.182712554931641">
        <ele>411.0</ele>
        <time>2019-04-26T08:04:01.000Z</time>
      </trkpt>
      <trkpt lat="42.39763641357422" lon="-7.18284273147583">
        <ele>410.0</ele>
        <time>2019-04-26T08:04:08.000Z</time>
      </trkpt>
      <trkpt lat="42.39765930175781" lon="-7.182981967926025">
        <ele>409.0</ele>
        <time>2019-04-26T08:04:14.000Z</time>
      </trkpt>
      <trkpt lat="42.397682189941406" lon="-7.183098316192627">
        <ele>409.0</ele>
        <time>2019-04-26T08:04:22.000Z</time>
      </trkpt>
      <trkpt lat="42.397705078125" lon="-7.183213710784912">
        <ele>409.0</ele>
        <time>2019-04-26T08:04:29.000Z</time>
      </trkpt>
      <trkpt lat="42.39772415161133" lon="-7.183329105377197">
        <ele>409.0</ele>
        <time>2019-04-26T08:04:37.000Z</time>
      </trkpt>
      <trkpt lat="42.39774703979492" lon="-7.183444023132324">
        <ele>409.0</ele>
        <time>2019-04-26T08:04:45.000Z</time>
      </trkpt>
      <trkpt lat="42.39771270751953" lon="-7.183670520782471">
        <ele>408.0</ele>
        <time>2019-04-26T08:05:00.000Z</time>
      </trkpt>
      <trkpt lat="42.39764404296875" lon="-7.183895111083984">
        <ele>406.0</ele>
        <time>2019-04-26T08:05:15.000Z</time>
      </trkpt>
      <trkpt lat="42.397560119628906" lon="-7.18402624130249">
        <ele>406.0</ele>
        <time>2019-04-26T08:05:30.000Z</time>
      </trkpt>
      <trkpt lat="42.39745330810547" lon="-7.184113502502441">
        <ele>407.0</ele>
        <time>2019-04-26T08:05:45.000Z</time>
      </trkpt>
      <trkpt lat="42.3974609375" lon="-7.184172630310059">
        <ele>406.0</ele>
        <time>2019-04-26T08:05:51.000Z</time>
      </trkpt>
      <trkpt lat="42.39748764038086" lon="-7.184233665466309">
        <ele>406.0</ele>
        <time>2019-04-26T08:05:57.000Z</time>
      </trkpt>
      <trkpt lat="42.39753341674805" lon="-7.184296131134033">
        <ele>405.0</ele>
        <time>2019-04-26T08:06:03.000Z</time>
      </trkpt>
      <trkpt lat="42.397586822509766" lon="-7.184359073638916">
        <ele>404.0</ele>
        <time>2019-04-26T08:06:09.000Z</time>
      </trkpt>
      <trkpt lat="42.39761734008789" lon="-7.184406280517578">
        <ele>403.0</ele>
        <time>2019-04-26T08:06:13.000Z</time>
      </trkpt>
      <trkpt lat="42.397647857666016" lon="-7.1844482421875">
        <ele>403.0</ele>
        <time>2019-04-26T08:06:18.000Z</time>
      </trkpt>
      <trkpt lat="42.39767837524414" lon="-7.184486389160156">
        <ele>403.0</ele>
        <time>2019-04-26T08:06:22.000Z</time>
      </trkpt>
      <trkpt lat="42.39771270751953" lon="-7.1845221519470215">
        <ele>403.0</ele>
        <time>2019-04-26T08:06:27.000Z</time>
      </trkpt>
      <trkpt lat="42.397796630859375" lon="-7.184560775756836">
        <ele>402.0</ele>
        <time>2019-04-26T08:06:37.000Z</time>
      </trkpt>
      <trkpt lat="42.39789581298828" lon="-7.184580326080322">
        <ele>401.0</ele>
        <time>2019-04-26T08:06:48.000Z</time>
      </trkpt>
      <trkpt lat="42.39793395996094" lon="-7.184597015380859">
        <ele>400.0</ele>
        <time>2019-04-26T08:06:52.000Z</time>
      </trkpt>
      <trkpt lat="42.39796447753906" lon="-7.184614658355713">
        <ele>400.0</ele>
        <time>2019-04-26T08:06:56.000Z</time>
      </trkpt>
      <trkpt lat="42.39799499511719" lon="-7.184633255004883">
        <ele>399.0</ele>
        <time>2019-04-26T08:07:01.000Z</time>
      </trkpt>
      <trkpt lat="42.39802169799805" lon="-7.184652328491211">
        <ele>399.0</ele>
        <time>2019-04-26T08:07:05.000Z</time>
      </trkpt>
      <trkpt lat="42.39804458618164" lon="-7.184661388397217">
        <ele>399.0</ele>
        <time>2019-04-26T08:07:17.000Z</time>
      </trkpt>
      <trkpt lat="42.398067474365234" lon="-7.184666633605957">
        <ele>398.0</ele>
        <time>2019-04-26T08:07:28.000Z</time>
      </trkpt>
      <trkpt lat="42.3980827331543" lon="-7.184669494628906">
        <ele>398.0</ele>
        <time>2019-04-26T08:07:40.000Z</time>
      </trkpt>
      <trkpt lat="42.398101806640625" lon="-7.184671401977539">
        <ele>398.0</ele>
        <time>2019-04-26T08:07:52.000Z</time>
      </trkpt>
      <trkpt lat="42.39811325073242" lon="-7.1846747398376465">
        <ele>397.0</ele>
        <time>2019-04-26T08:07:52.000Z</time>
      </trkpt>
      <trkpt lat="42.39812469482422" lon="-7.1846771240234375">
        <ele>397.0</ele>
        <time>2019-04-26T08:07:52.000Z</time>
      </trkpt>
      <trkpt lat="42.39813232421875" lon="-7.1846795082092285">
        <ele>397.0</ele>
        <time>2019-04-26T08:07:53.000Z</time>
      </trkpt>
      <trkpt lat="42.39813995361328" lon="-7.184681415557861">
        <ele>398.0</ele>
        <time>2019-04-26T08:07:53.000Z</time>
      </trkpt>
      <trkpt lat="42.39816665649414" lon="-7.184685707092285">
        <ele>397.0</ele>
        <time>2019-04-26T08:07:54.000Z</time>
      </trkpt>
      <trkpt lat="42.398193359375" lon="-7.184690475463867">
        <ele>397.0</ele>
        <time>2019-04-26T08:07:55.000Z</time>
      </trkpt>
      <trkpt lat="42.39822769165039" lon="-7.184695720672607">
        <ele>397.0</ele>
        <time>2019-04-26T08:07:56.000Z</time>
      </trkpt>
      <trkpt lat="42.39826202392578" lon="-7.184701442718506">
        <ele>397.0</ele>
        <time>2019-04-26T08:07:57.000Z</time>
      </trkpt>
      <trkpt lat="42.39827346801758" lon="-7.184714317321777">
        <ele>397.0</ele>
        <time>2019-04-26T08:08:06.000Z</time>
      </trkpt>
      <trkpt lat="42.398277282714844" lon="-7.184730052947998">
        <ele>397.0</ele>
        <time>2019-04-26T08:08:16.000Z</time>
      </trkpt>
      <trkpt lat="42.39827346801758" lon="-7.18474817276001">
        <ele>396.0</ele>
        <time>2019-04-26T08:08:25.000Z</time>
      </trkpt>
      <trkpt lat="42.39826965332031" lon="-7.184767246246338">
        <ele>396.0</ele>
        <time>2019-04-26T08:08:35.000Z</time>
      </trkpt>
      <trkpt lat="42.39826965332031" lon="-7.184779167175293">
        <ele>396.0</ele>
        <time>2019-04-26T08:08:35.000Z</time>
      </trkpt>
      <trkpt lat="42.39827346801758" lon="-7.184789180755615">
        <ele>396.0</ele>
        <time>2019-04-26T08:08:35.000Z</time>
      </trkpt>
      <trkpt lat="42.39827346801758" lon="-7.184797763824463">
        <ele>396.0</ele>
        <time>2019-04-26T08:08:36.000Z</time>
      </trkpt>
      <trkpt lat="42.39827346801758" lon="-7.184805870056152">
        <ele>396.0</ele>
        <time>2019-04-26T08:08:36.000Z</time>
      </trkpt>
      <trkpt lat="42.398258209228516" lon="-7.184860706329346">
        <ele>396.0</ele>
        <time>2019-04-26T08:08:43.000Z</time>
      </trkpt>
      <trkpt lat="42.39823532104492" lon="-7.184934139251709">
        <ele>395.0</ele>
        <time>2019-04-26T08:08:50.000Z</time>
      </trkpt>
      <trkpt lat="42.3982048034668" lon="-7.185020446777344">
        <ele>394.0</ele>
        <time>2019-04-26T08:08:58.000Z</time>
      </trkpt>
      <trkpt lat="42.39817428588867" lon="-7.185112953186035">
        <ele>393.0</ele>
        <time>2019-04-26T08:09:05.000Z</time>
      </trkpt>
      <trkpt lat="42.39816665649414" lon="-7.185140132904053">
        <ele>392.0</ele>
        <time>2019-04-26T08:09:13.000Z</time>
      </trkpt>
      <trkpt lat="42.39815902709961" lon="-7.185146331787109">
        <ele>390.0</ele>
        <time>2019-04-26T08:09:22.000Z</time>
      </trkpt>
      <trkpt lat="42.39815902709961" lon="-7.185139179229736">
        <ele>388.0</ele>
        <time>2019-04-26T08:09:30.000Z</time>
      </trkpt>
      <trkpt lat="42.398162841796875" lon="-7.185124397277832">
        <ele>386.0</ele>
        <time>2019-04-26T08:09:39.000Z</time>
      </trkpt>
      <trkpt lat="42.39815902709961" lon="-7.185127258300781">
        <ele>386.0</ele>
        <time>2019-04-26T08:09:39.000Z</time>
      </trkpt>
      <trkpt lat="42.398155212402344" lon="-7.185129642486572">
        <ele>386.0</ele>
        <time>2019-04-26T08:09:39.000Z</time>
      </trkpt>
      <trkpt lat="42.398155212402344" lon="-7.1851325035095215">
        <ele>386.0</ele>
        <time>2019-04-26T08:09:40.000Z</time>
      </trkpt>
      <trkpt lat="42.39815139770508" lon="-7.1851348876953125">
        <ele>386.0</ele>
        <time>2019-04-26T08:09:40.000Z</time>
      </trkpt>
      <trkpt lat="42.398101806640625" lon="-7.185177326202393">
        <ele>385.0</ele>
        <time>2019-04-26T08:09:46.000Z</time>
      </trkpt>
      <trkpt lat="42.398033142089844" lon="-7.185237407684326">
        <ele>383.0</ele>
        <time>2019-04-26T08:09:51.000Z</time>
      </trkpt>
      <trkpt lat="42.397953033447266" lon="-7.18530797958374">
        <ele>381.0</ele>
        <time>2019-04-26T08:09:57.000Z</time>
      </trkpt>
      <trkpt lat="42.397865295410156" lon="-7.185384750366211">
        <ele>379.0</ele>
        <time>2019-04-26T08:10:03.000Z</time>
      </trkpt>
      <trkpt lat="42.39763641357422" lon="-7.1857147216796875">
        <ele>371.0</ele>
        <time>2019-04-26T08:10:43.000Z</time>
      </trkpt>
      <trkpt lat="42.397621154785156" lon="-7.185738563537598">
        <ele>366.0</ele>
        <time>2019-04-26T08:11:03.000Z</time>
      </trkpt>
      <trkpt lat="42.39760971069336" lon="-7.185757637023926">
        <ele>366.0</ele>
        <time>2019-04-26T08:11:04.000Z</time>
      </trkpt>
      <trkpt lat="42.39738464355469" lon="-7.186108112335205">
        <ele>362.0</ele>
        <time>2019-04-26T08:11:24.000Z</time>
      </trkpt>
      <trkpt lat="42.397117614746094" lon="-7.186417579650879">
        <ele>355.0</ele>
        <time>2019-04-26T08:12:03.000Z</time>
      </trkpt>
      <trkpt lat="42.39699172973633" lon="-7.186530113220215">
        <ele>353.0</ele>
        <time>2019-04-26T08:12:21.000Z</time>
      </trkpt>
      <trkpt lat="42.396888732910156" lon="-7.186568737030029">
        <ele>349.0</ele>
        <time>2019-04-26T08:12:43.000Z</time>
      </trkpt>
      <trkpt lat="42.396854400634766" lon="-7.186580657958984">
        <ele>349.0</ele>
        <time>2019-04-26T08:12:44.000Z</time>
      </trkpt>
      <trkpt lat="42.3965950012207" lon="-7.1866278648376465">
        <ele>348.0</ele>
        <time>2019-04-26T08:13:07.000Z</time>
      </trkpt>
      <trkpt lat="42.39653396606445" lon="-7.186614990234375">
        <ele>346.0</ele>
        <time>2019-04-26T08:14:05.000Z</time>
      </trkpt>
      <trkpt lat="42.39649963378906" lon="-7.18660831451416">
        <ele>346.0</ele>
        <time>2019-04-26T08:14:06.000Z</time>
      </trkpt>
      <trkpt lat="42.39621353149414" lon="-7.186518669128418">
        <ele>345.0</ele>
        <time>2019-04-26T08:14:37.000Z</time>
      </trkpt>
      <trkpt lat="42.39619064331055" lon="-7.186557292938232">
        <ele>344.0</ele>
        <time>2019-04-26T08:14:44.000Z</time>
      </trkpt>
      <trkpt lat="42.39619064331055" lon="-7.18662166595459">
        <ele>343.0</ele>
        <time>2019-04-26T08:14:50.000Z</time>
      </trkpt>
      <trkpt lat="42.396202087402344" lon="-7.186703205108643">
        <ele>342.0</ele>
        <time>2019-04-26T08:14:57.000Z</time>
      </trkpt>
      <trkpt lat="42.39622116088867" lon="-7.186793327331543">
        <ele>341.0</ele>
        <time>2019-04-26T08:15:04.000Z</time>
      </trkpt>
      <trkpt lat="42.3962287902832" lon="-7.186834812164307">
        <ele>338.0</ele>
        <time>2019-04-26T08:15:13.000Z</time>
      </trkpt>
      <trkpt lat="42.396240234375" lon="-7.186832427978516">
        <ele>336.0</ele>
        <time>2019-04-26T08:15:23.000Z</time>
      </trkpt>
      <trkpt lat="42.39624786376953" lon="-7.186840057373047">
        <ele>335.0</ele>
        <time>2019-04-26T08:15:23.000Z</time>
      </trkpt>
      <trkpt lat="42.3962516784668" lon="-7.18684720993042">
        <ele>335.0</ele>
        <time>2019-04-26T08:15:23.000Z</time>
      </trkpt>
      <trkpt lat="42.39625549316406" lon="-7.186853408813477">
        <ele>335.0</ele>
        <time>2019-04-26T08:15:24.000Z</time>
      </trkpt>
      <trkpt lat="42.39625549316406" lon="-7.186859607696533">
        <ele>336.0</ele>
        <time>2019-04-26T08:15:24.000Z</time>
      </trkpt>
      <trkpt lat="42.396278381347656" lon="-7.186899662017822">
        <ele>335.0</ele>
        <time>2019-04-26T08:15:27.000Z</time>
      </trkpt>
      <trkpt lat="42.39630889892578" lon="-7.186953067779541">
        <ele>334.0</ele>
        <time>2019-04-26T08:15:30.000Z</time>
      </trkpt>
      <trkpt lat="42.39634704589844" lon="-7.187015533447266">
        <ele>333.0</ele>
        <time>2019-04-26T08:15:34.000Z</time>
      </trkpt>
      <trkpt lat="42.396385192871094" lon="-7.1870832443237305">
        <ele>332.0</ele>
        <time>2019-04-26T08:15:37.000Z</time>
      </trkpt>
      <trkpt lat="42.39640426635742" lon="-7.187112331390381">
        <ele>330.0</ele>
        <time>2019-04-26T08:15:54.000Z</time>
      </trkpt>
      <trkpt lat="42.39641571044922" lon="-7.187130451202393">
        <ele>329.0</ele>
        <time>2019-04-26T08:16:11.000Z</time>
      </trkpt>
      <trkpt lat="42.39642333984375" lon="-7.187141418457031">
        <ele>328.0</ele>
        <time>2019-04-26T08:16:28.000Z</time>
      </trkpt>
      <trkpt lat="42.39643096923828" lon="-7.187148571014404">
        <ele>327.0</ele>
        <time>2019-04-26T08:16:45.000Z</time>
      </trkpt>
      <trkpt lat="42.39643859863281" lon="-7.187159538269043">
        <ele>326.0</ele>
        <time>2019-04-26T08:16:45.000Z</time>
      </trkpt>
      <trkpt lat="42.39644241333008" lon="-7.187168121337891">
        <ele>326.0</ele>
        <time>2019-04-26T08:16:45.000Z</time>
      </trkpt>
      <trkpt lat="42.396446228027344" lon="-7.1871747970581055">
        <ele>327.0</ele>
        <time>2019-04-26T08:16:46.000Z</time>
      </trkpt>
      <trkpt lat="42.396453857421875" lon="-7.18718147277832">
        <ele>327.0</ele>
        <time>2019-04-26T08:16:46.000Z</time>
      </trkpt>
      <trkpt lat="42.39647674560547" lon="-7.187216281890869">
        <ele>327.0</ele>
        <time>2019-04-26T08:16:50.000Z</time>
      </trkpt>
      <trkpt lat="42.39651107788086" lon="-7.187262535095215">
        <ele>327.0</ele>
        <time>2019-04-26T08:16:53.000Z</time>
      </trkpt>
      <trkpt lat="42.396549224853516" lon="-7.187315940856934">
        <ele>327.0</ele>
        <time>2019-04-26T08:16:57.000Z</time>
      </trkpt>
      <trkpt lat="42.39659118652344" lon="-7.187373638153076">
        <ele>327.0</ele>
        <time>2019-04-26T08:17:01.000Z</time>
      </trkpt>
      <trkpt lat="42.3966178894043" lon="-7.187409400939941">
        <ele>326.0</ele>
        <time>2019-04-26T08:17:25.000Z</time>
      </trkpt>
      <trkpt lat="42.39664077758789" lon="-7.18743371963501">
        <ele>326.0</ele>
        <time>2019-04-26T08:17:26.000Z</time>
      </trkpt>
      <trkpt lat="42.39688491821289" lon="-7.187778472900391">
        <ele>323.0</ele>
        <time>2019-04-26T08:17:59.000Z</time>
      </trkpt>
      <trkpt lat="42.396949768066406" lon="-7.187868595123291">
        <ele>321.0</ele>
        <time>2019-04-26T08:18:11.000Z</time>
      </trkpt>
      <trkpt lat="42.39699172973633" lon="-7.18789005279541">
        <ele>319.0</ele>
        <time>2019-04-26T08:18:19.000Z</time>
      </trkpt>
      <trkpt lat="42.39704132080078" lon="-7.187901020050049">
        <ele>317.0</ele>
        <time>2019-04-26T08:18:28.000Z</time>
      </trkpt>
      <trkpt lat="42.397056579589844" lon="-7.187905311584473">
        <ele>317.0</ele>
        <time>2019-04-26T08:18:28.000Z</time>
      </trkpt>
      <trkpt lat="42.397064208984375" lon="-7.187908172607422">
        <ele>317.0</ele>
        <time>2019-04-26T08:18:28.000Z</time>
      </trkpt>
      <trkpt lat="42.39706802368164" lon="-7.187910079956055">
        <ele>317.0</ele>
        <time>2019-04-26T08:18:29.000Z</time>
      </trkpt>
      <trkpt lat="42.39707565307617" lon="-7.187911510467529">
        <ele>317.0</ele>
        <time>2019-04-26T08:18:29.000Z</time>
      </trkpt>
      <trkpt lat="42.3970832824707" lon="-7.1879143714904785">
        <ele>317.0</ele>
        <time>2019-04-26T08:18:29.000Z</time>
      </trkpt>
      <trkpt lat="42.39708709716797" lon="-7.1879167556762695">
        <ele>317.0</ele>
        <time>2019-04-26T08:18:30.000Z</time>
      </trkpt>
      <trkpt lat="42.3970947265625" lon="-7.1879191398620605">
        <ele>317.0</ele>
        <time>2019-04-26T08:18:30.000Z</time>
      </trkpt>
      <trkpt lat="42.39710235595703" lon="-7.187921524047852">
        <ele>317.0</ele>
        <time>2019-04-26T08:18:31.000Z</time>
      </trkpt>
      <trkpt lat="42.3971061706543" lon="-7.187923431396484">
        <ele>317.0</ele>
        <time>2019-04-26T08:18:35.000Z</time>
      </trkpt>
      <trkpt lat="42.39710998535156" lon="-7.187925338745117">
        <ele>316.0</ele>
        <time>2019-04-26T08:18:38.000Z</time>
      </trkpt>
      <trkpt lat="42.39710998535156" lon="-7.187926769256592">
        <ele>315.0</ele>
        <time>2019-04-26T08:18:42.000Z</time>
      </trkpt>
      <trkpt lat="42.39711380004883" lon="-7.187928199768066">
        <ele>315.0</ele>
        <time>2019-04-26T08:18:46.000Z</time>
      </trkpt>
      <trkpt lat="42.39711380004883" lon="-7.187929630279541">
        <ele>314.0</ele>
        <time>2019-04-26T08:18:46.000Z</time>
      </trkpt>
      <trkpt lat="42.397117614746094" lon="-7.187931537628174">
        <ele>314.0</ele>
        <time>2019-04-26T08:18:46.000Z</time>
      </trkpt>
      <trkpt lat="42.397117614746094" lon="-7.187932968139648">
        <ele>314.0</ele>
        <time>2019-04-26T08:18:47.000Z</time>
      </trkpt>
      <trkpt lat="42.39712142944336" lon="-7.187934398651123">
        <ele>315.0</ele>
        <time>2019-04-26T08:18:47.000Z</time>
      </trkpt>
      <trkpt lat="42.397125244140625" lon="-7.187935829162598">
        <ele>315.0</ele>
        <time>2019-04-26T08:18:47.000Z</time>
      </trkpt>
      <trkpt lat="42.397125244140625" lon="-7.187936782836914">
        <ele>315.0</ele>
        <time>2019-04-26T08:18:47.000Z</time>
      </trkpt>
      <trkpt lat="42.39712905883789" lon="-7.187938213348389">
        <ele>314.0</ele>
        <time>2019-04-26T08:18:48.000Z</time>
      </trkpt>
      <trkpt lat="42.39712905883789" lon="-7.187939643859863">
        <ele>314.0</ele>
        <time>2019-04-26T08:18:48.000Z</time>
      </trkpt>
      <trkpt lat="42.39716720581055" lon="-7.187965393066406">
        <ele>314.0</ele>
        <time>2019-04-26T08:18:50.000Z</time>
      </trkpt>
      <trkpt lat="42.39719009399414" lon="-7.187982082366943">
        <ele>314.0</ele>
        <time>2019-04-26T08:18:51.000Z</time>
      </trkpt>
      <trkpt lat="42.39738845825195" lon="-7.188079357147217">
        <ele>312.0</ele>
        <time>2019-04-26T08:19:02.000Z</time>
      </trkpt>
      <trkpt lat="42.39746856689453" lon="-7.188080310821533">
        <ele>311.0</ele>
        <time>2019-04-26T08:19:12.000Z</time>
      </trkpt>
      <trkpt lat="42.39754104614258" lon="-7.188058853149414">
        <ele>309.0</ele>
        <time>2019-04-26T08:19:22.000Z</time>
      </trkpt>
      <trkpt lat="42.3975944519043" lon="-7.188032150268555">
        <ele>308.0</ele>
        <time>2019-04-26T08:19:31.000Z</time>
      </trkpt>
      <trkpt lat="42.39765930175781" lon="-7.187996864318848">
        <ele>307.0</ele>
        <time>2019-04-26T08:19:40.000Z</time>
      </trkpt>
      <trkpt lat="42.397727966308594" lon="-7.187955856323242">
        <ele>305.0</ele>
        <time>2019-04-26T08:19:49.000Z</time>
      </trkpt>
      <trkpt lat="42.397796630859375" lon="-7.187911510467529">
        <ele>303.0</ele>
        <time>2019-04-26T08:19:58.000Z</time>
      </trkpt>
      <trkpt lat="42.39781188964844" lon="-7.187909126281738">
        <ele>302.0</ele>
        <time>2019-04-26T08:20:19.000Z</time>
      </trkpt>
      <trkpt lat="42.39780807495117" lon="-7.187921047210693">
        <ele>301.0</ele>
        <time>2019-04-26T08:20:39.000Z</time>
      </trkpt>
      <trkpt lat="42.39779281616211" lon="-7.1879425048828125">
        <ele>300.0</ele>
        <time>2019-04-26T08:20:59.000Z</time>
      </trkpt>
      <trkpt lat="42.397769927978516" lon="-7.187968730926514">
        <ele>300.0</ele>
        <time>2019-04-26T08:21:19.000Z</time>
      </trkpt>
      <trkpt lat="42.397762298583984" lon="-7.187979698181152">
        <ele>299.0</ele>
        <time>2019-04-26T08:21:20.000Z</time>
      </trkpt>
      <trkpt lat="42.39775848388672" lon="-7.18798828125">
        <ele>299.0</ele>
        <time>2019-04-26T08:21:20.000Z</time>
      </trkpt>
      <trkpt lat="42.39775466918945" lon="-7.1879963874816895">
        <ele>299.0</ele>
        <time>2019-04-26T08:21:20.000Z</time>
      </trkpt>
      <trkpt lat="42.39775085449219" lon="-7.1880035400390625">
        <ele>300.0</ele>
        <time>2019-04-26T08:21:20.000Z</time>
      </trkpt>
      <trkpt lat="42.3977165222168" lon="-7.188069820404053">
        <ele>299.0</ele>
        <time>2019-04-26T08:21:25.000Z</time>
      </trkpt>
      <trkpt lat="42.39767074584961" lon="-7.1881608963012695">
        <ele>297.0</ele>
        <time>2019-04-26T08:21:29.000Z</time>
      </trkpt>
      <trkpt lat="42.39761734008789" lon="-7.188267707824707">
        <ele>296.0</ele>
        <time>2019-04-26T08:21:34.000Z</time>
      </trkpt>
      <trkpt lat="42.397560119628906" lon="-7.188382625579834">
        <ele>294.0</ele>
        <time>2019-04-26T08:21:38.000Z</time>
      </trkpt>
      <trkpt lat="42.39753341674805" lon="-7.188432693481445">
        <ele>294.0</ele>
        <time>2019-04-26T08:21:40.000Z</time>
      </trkpt>
      <trkpt lat="42.39751434326172" lon="-7.1884636878967285">
        <ele>293.0</ele>
        <time>2019-04-26T08:21:42.000Z</time>
      </trkpt>
      <trkpt lat="42.397499084472656" lon="-7.18848180770874">
        <ele>293.0</ele>
        <time>2019-04-26T08:21:44.000Z</time>
      </trkpt>
      <trkpt lat="42.397491455078125" lon="-7.1884942054748535">
        <ele>293.0</ele>
        <time>2019-04-26T08:21:46.000Z</time>
      </trkpt>
      <trkpt lat="42.397457122802734" lon="-7.188507080078125">
        <ele>292.0</ele>
        <time>2019-04-26T08:21:50.000Z</time>
      </trkpt>
      <trkpt lat="42.397422790527344" lon="-7.188514232635498">
        <ele>292.0</ele>
        <time>2019-04-26T08:21:54.000Z</time>
      </trkpt>
      <trkpt lat="42.39738082885742" lon="-7.188517093658447">
        <ele>291.0</ele>
        <time>2019-04-26T08:21:58.000Z</time>
      </trkpt>
      <trkpt lat="42.3973388671875" lon="-7.188518047332764">
        <ele>290.0</ele>
        <time>2019-04-26T08:22:01.000Z</time>
      </trkpt>
      <trkpt lat="42.39732360839844" lon="-7.188521862030029">
        <ele>289.0</ele>
        <time>2019-04-26T08:22:06.000Z</time>
      </trkpt>
      <trkpt lat="42.397315979003906" lon="-7.188525199890137">
        <ele>288.0</ele>
        <time>2019-04-26T08:22:11.000Z</time>
      </trkpt>
      <trkpt lat="42.39731979370117" lon="-7.188527584075928">
        <ele>287.0</ele>
        <time>2019-04-26T08:22:16.000Z</time>
      </trkpt>
      <trkpt lat="42.39732360839844" lon="-7.188529968261719">
        <ele>286.0</ele>
        <time>2019-04-26T08:22:21.000Z</time>
      </trkpt>
      <trkpt lat="42.39731979370117" lon="-7.188532829284668">
        <ele>286.0</ele>
        <time>2019-04-26T08:22:21.000Z</time>
      </trkpt>
      <trkpt lat="42.397315979003906" lon="-7.188535213470459">
        <ele>286.0</ele>
        <time>2019-04-26T08:22:21.000Z</time>
      </trkpt>
      <trkpt lat="42.39731216430664" lon="-7.188538074493408">
        <ele>286.0</ele>
        <time>2019-04-26T08:22:21.000Z</time>
      </trkpt>
      <trkpt lat="42.39731216430664" lon="-7.188540458679199">
        <ele>286.0</ele>
        <time>2019-04-26T08:22:22.000Z</time>
      </trkpt>
      <trkpt lat="42.39725875854492" lon="-7.188584327697754">
        <ele>286.0</ele>
        <time>2019-04-26T08:22:25.000Z</time>
      </trkpt>
      <trkpt lat="42.39719009399414" lon="-7.188645839691162">
        <ele>286.0</ele>
        <time>2019-04-26T08:22:28.000Z</time>
      </trkpt>
      <trkpt lat="42.3971061706543" lon="-7.188718318939209">
        <ele>286.0</ele>
        <time>2019-04-26T08:22:31.000Z</time>
      </trkpt>
      <trkpt lat="42.39701843261719" lon="-7.1887969970703125">
        <ele>285.0</ele>
        <time>2019-04-26T08:22:34.000Z</time>
      </trkpt>
      <trkpt lat="42.3968505859375" lon="-7.188838958740234">
        <ele>285.0</ele>
        <time>2019-04-26T08:22:49.000Z</time>
      </trkpt>
      <trkpt lat="42.39667510986328" lon="-7.188840866088867">
        <ele>284.0</ele>
        <time>2019-04-26T08:23:04.000Z</time>
      </trkpt>
      <trkpt lat="42.396610260009766" lon="-7.188848972320557">
        <ele>284.0</ele>
        <time>2019-04-26T08:23:09.000Z</time>
      </trkpt>
      <trkpt lat="42.396549224853516" lon="-7.188856601715088">
        <ele>284.0</ele>
        <time>2019-04-26T08:23:15.000Z</time>
      </trkpt>
      <trkpt lat="42.3964958190918" lon="-7.1888628005981445">
        <ele>284.0</ele>
        <time>2019-04-26T08:23:21.000Z</time>
      </trkpt>
      <trkpt lat="42.396446228027344" lon="-7.188868999481201">
        <ele>285.0</ele>
        <time>2019-04-26T08:23:27.000Z</time>
      </trkpt>
      <trkpt lat="42.39640808105469" lon="-7.188852310180664">
        <ele>285.0</ele>
        <time>2019-04-26T08:23:30.000Z</time>
      </trkpt>
      <trkpt lat="42.39638137817383" lon="-7.188826084136963">
        <ele>285.0</ele>
        <time>2019-04-26T08:23:33.000Z</time>
      </trkpt>
      <trkpt lat="42.396358489990234" lon="-7.188792705535889">
        <ele>285.0</ele>
        <time>2019-04-26T08:23:36.000Z</time>
      </trkpt>
      <trkpt lat="42.396339416503906" lon="-7.188756465911865">
        <ele>285.0</ele>
        <time>2019-04-26T08:23:40.000Z</time>
      </trkpt>
      <trkpt lat="42.396297454833984" lon="-7.188719272613525">
        <ele>285.0</ele>
        <time>2019-04-26T08:23:46.000Z</time>
      </trkpt>
      <trkpt lat="42.39624786376953" lon="-7.188678741455078">
        <ele>285.0</ele>
        <time>2019-04-26T08:23:53.000Z</time>
      </trkpt>
      <trkpt lat="42.39619445800781" lon="-7.18863582611084">
        <ele>285.0</ele>
        <time>2019-04-26T08:23:59.000Z</time>
      </trkpt>
      <trkpt lat="42.39613723754883" lon="-7.188591480255127">
        <ele>284.0</ele>
        <time>2019-04-26T08:24:06.000Z</time>
      </trkpt>
      <trkpt lat="42.39610290527344" lon="-7.188579559326172">
        <ele>283.0</ele>
        <time>2019-04-26T08:24:25.000Z</time>
      </trkpt>
      <trkpt lat="42.39610290527344" lon="-7.188600540161133">
        <ele>282.0</ele>
        <time>2019-04-26T08:24:45.000Z</time>
      </trkpt>
      <trkpt lat="42.396095275878906" lon="-7.188602447509766">
        <ele>282.0</ele>
        <time>2019-04-26T08:24:45.000Z</time>
      </trkpt>
      <trkpt lat="42.396087646484375" lon="-7.188604354858398">
        <ele>282.0</ele>
        <time>2019-04-26T08:24:45.000Z</time>
      </trkpt>
      <trkpt lat="42.39608383178711" lon="-7.188605785369873">
        <ele>282.0</ele>
        <time>2019-04-26T08:24:45.000Z</time>
      </trkpt>
      <trkpt lat="42.39607620239258" lon="-7.188607215881348">
        <ele>282.0</ele>
        <time>2019-04-26T08:24:46.000Z</time>
      </trkpt>
      <trkpt lat="42.396034240722656" lon="-7.1886186599731445">
        <ele>282.0</ele>
        <time>2019-04-26T08:24:49.000Z</time>
      </trkpt>
      <trkpt lat="42.39598083496094" lon="-7.188634395599365">
        <ele>281.0</ele>
        <time>2019-04-26T08:24:52.000Z</time>
      </trkpt>
      <trkpt lat="42.395912170410156" lon="-7.188652992248535">
        <ele>280.0</ele>
        <time>2019-04-26T08:24:55.000Z</time>
      </trkpt>
      <trkpt lat="42.395843505859375" lon="-7.18867301940918">
        <ele>279.0</ele>
        <time>2019-04-26T08:24:59.000Z</time>
      </trkpt>
      <trkpt lat="42.39580535888672" lon="-7.188663005828857">
        <ele>278.0</ele>
        <time>2019-04-26T08:25:01.000Z</time>
      </trkpt>
      <trkpt lat="42.395774841308594" lon="-7.1886420249938965">
        <ele>277.0</ele>
        <time>2019-04-26T08:25:04.000Z</time>
      </trkpt>
      <trkpt lat="42.395751953125" lon="-7.188613414764404">
        <ele>276.0</ele>
        <time>2019-04-26T08:25:07.000Z</time>
      </trkpt>
      <trkpt lat="42.395729064941406" lon="-7.1885809898376465">
        <ele>275.0</ele>
        <time>2019-04-26T08:25:10.000Z</time>
      </trkpt>
      <trkpt lat="42.395668029785156" lon="-7.188534736633301">
        <ele>275.0</ele>
        <time>2019-04-26T08:25:17.000Z</time>
      </trkpt>
      <trkpt lat="42.395591735839844" lon="-7.188479423522949">
        <ele>275.0</ele>
        <time>2019-04-26T08:25:24.000Z</time>
      </trkpt>
      <trkpt lat="42.3955078125" lon="-7.188416957855225">
        <ele>275.0</ele>
        <time>2019-04-26T08:25:31.000Z</time>
      </trkpt>
      <trkpt lat="42.395416259765625" lon="-7.188352108001709">
        <ele>275.0</ele>
        <time>2019-04-26T08:25:39.000Z</time>
      </trkpt>
      <trkpt lat="42.39536666870117" lon="-7.188351631164551">
        <ele>274.0</ele>
        <time>2019-04-26T08:25:44.000Z</time>
      </trkpt>
      <trkpt lat="42.39532470703125" lon="-7.188374996185303">
        <ele>273.0</ele>
        <time>2019-04-26T08:25:49.000Z</time>
      </trkpt>
      <trkpt lat="42.395294189453125" lon="-7.188414096832275">
        <ele>273.0</ele>
        <time>2019-04-26T08:25:54.000Z</time>
      </trkpt>
      <trkpt lat="42.395267486572266" lon="-7.1884613037109375">
        <ele>272.0</ele>
        <time>2019-04-26T08:25:59.000Z</time>
      </trkpt>
      <trkpt lat="42.395240783691406" lon="-7.188513278961182">
        <ele>272.0</ele>
        <time>2019-04-26T08:26:02.000Z</time>
      </trkpt>
      <trkpt lat="42.39521789550781" lon="-7.188575267791748">
        <ele>272.0</ele>
        <time>2019-04-26T08:26:05.000Z</time>
      </trkpt>
      <trkpt lat="42.39520263671875" lon="-7.1886444091796875">
        <ele>271.0</ele>
        <time>2019-04-26T08:26:08.000Z</time>
      </trkpt>
      <trkpt lat="42.39518737792969" lon="-7.188716411590576">
        <ele>271.0</ele>
        <time>2019-04-26T08:26:12.000Z</time>
      </trkpt>
      <trkpt lat="42.39515686035156" lon="-7.1888108253479">
        <ele>271.0</ele>
        <time>2019-04-26T08:26:20.000Z</time>
      </trkpt>
      <trkpt lat="42.39512252807617" lon="-7.188917636871338">
        <ele>270.0</ele>
        <time>2019-04-26T08:26:28.000Z</time>
      </trkpt>
      <trkpt lat="42.39508819580078" lon="-7.189033508300781">
        <ele>269.0</ele>
        <time>2019-04-26T08:26:36.000Z</time>
      </trkpt>
      <trkpt lat="42.39505386352539" lon="-7.18915319442749">
        <ele>268.0</ele>
        <time>2019-04-26T08:26:44.000Z</time>
      </trkpt>
      <trkpt lat="42.39501953125" lon="-7.189263343811035">
        <ele>268.0</ele>
        <time>2019-04-26T08:26:51.000Z</time>
      </trkpt>
      <trkpt lat="42.39498519897461" lon="-7.1893744468688965">
        <ele>270.0</ele>
        <time>2019-04-26T08:26:59.000Z</time>
      </trkpt>
      <trkpt lat="42.39495086669922" lon="-7.189485549926758">
        <ele>272.0</ele>
        <time>2019-04-26T08:27:07.000Z</time>
      </trkpt>
      <trkpt lat="42.39491653442383" lon="-7.189597129821777">
        <ele>274.0</ele>
        <time>2019-04-26T08:27:15.000Z</time>
      </trkpt>
      <trkpt lat="42.39488220214844" lon="-7.1897077560424805">
        <ele>275.0</ele>
        <time>2019-04-26T08:27:22.000Z</time>
      </trkpt>
      <trkpt lat="42.39484786987305" lon="-7.189818382263184">
        <ele>276.0</ele>
        <time>2019-04-26T08:27:30.000Z</time>
      </trkpt>
      <trkpt lat="42.394813537597656" lon="-7.189929008483887">
        <ele>277.0</ele>
        <time>2019-04-26T08:27:38.000Z</time>
      </trkpt>
      <trkpt lat="42.394779205322266" lon="-7.19003963470459">
        <ele>278.0</ele>
        <time>2019-04-26T08:27:46.000Z</time>
      </trkpt>
      <trkpt lat="42.39474105834961" lon="-7.19014835357666">
        <ele>278.0</ele>
        <time>2019-04-26T08:27:54.000Z</time>
      </trkpt>
      <trkpt lat="42.39469909667969" lon="-7.190256118774414">
        <ele>279.0</ele>
        <time>2019-04-26T08:28:02.000Z</time>
      </trkpt>
      <trkpt lat="42.39466094970703" lon="-7.19036340713501">
        <ele>280.0</ele>
        <time>2019-04-26T08:28:10.000Z</time>
      </trkpt>
      <trkpt lat="42.39461898803711" lon="-7.1904706954956055">
        <ele>281.0</ele>
        <time>2019-04-26T08:28:18.000Z</time>
      </trkpt>
      <trkpt lat="42.39459228515625" lon="-7.1905646324157715">
        <ele>281.0</ele>
        <time>2019-04-26T08:28:25.000Z</time>
      </trkpt>
      <trkpt lat="42.39456558227539" lon="-7.190653324127197">
        <ele>281.0</ele>
        <time>2019-04-26T08:28:32.000Z</time>
      </trkpt>
      <trkpt lat="42.39454650878906" lon="-7.190738201141357">
        <ele>281.0</ele>
        <time>2019-04-26T08:28:39.000Z</time>
      </trkpt>
      <trkpt lat="42.394527435302734" lon="-7.190821647644043">
        <ele>281.0</ele>
        <time>2019-04-26T08:28:47.000Z</time>
      </trkpt>
      <trkpt lat="42.394508361816406" lon="-7.19088077545166">
        <ele>281.0</ele>
        <time>2019-04-26T08:29:01.000Z</time>
      </trkpt>
      <trkpt lat="42.39449691772461" lon="-7.190918922424316">
        <ele>281.0</ele>
        <time>2019-04-26T08:29:02.000Z</time>
      </trkpt>
      <trkpt lat="42.39442825317383" lon="-7.191166400909424">
        <ele>281.0</ele>
        <time>2019-04-26T08:29:15.000Z</time>
      </trkpt>
      <trkpt lat="42.394412994384766" lon="-7.191237449645996">
        <ele>281.0</ele>
        <time>2019-04-26T08:29:35.000Z</time>
      </trkpt>
      <trkpt lat="42.39440155029297" lon="-7.191279411315918">
        <ele>281.0</ele>
        <time>2019-04-26T08:29:36.000Z</time>
      </trkpt>
      <trkpt lat="42.394256591796875" lon="-7.191720008850098">
        <ele>281.0</ele>
        <time>2019-04-26T08:29:56.000Z</time>
      </trkpt>
      <trkpt lat="42.394134521484375" lon="-7.192154884338379">
        <ele>281.0</ele>
        <time>2019-04-26T08:30:21.000Z</time>
      </trkpt>
      <trkpt lat="42.39406967163086" lon="-7.192632675170898">
        <ele>278.0</ele>
        <time>2019-04-26T08:30:48.000Z</time>
      </trkpt>
      <trkpt lat="42.393978118896484" lon="-7.1930999755859375">
        <ele>278.0</ele>
        <time>2019-04-26T08:31:16.000Z</time>
      </trkpt>
      <trkpt lat="42.39390563964844" lon="-7.1935529708862305">
        <ele>283.0</ele>
        <time>2019-04-26T08:31:46.000Z</time>
      </trkpt>
      <trkpt lat="42.39385986328125" lon="-7.194016456604004">
        <ele>283.0</ele>
        <time>2019-04-26T08:32:15.000Z</time>
      </trkpt>
      <trkpt lat="42.393714904785156" lon="-7.19446325302124">
        <ele>285.0</ele>
        <time>2019-04-26T08:32:50.000Z</time>
      </trkpt>
      <trkpt lat="42.393699645996094" lon="-7.194504261016846">
        <ele>285.0</ele>
        <time>2019-04-26T08:32:58.000Z</time>
      </trkpt>
      <trkpt lat="42.39371871948242" lon="-7.194461822509766">
        <ele>292.0</ele>
        <time>2019-04-26T08:46:43.000Z</time>
      </trkpt>
      <trkpt lat="42.393836975097656" lon="-7.194251537322998">
        <ele>282.0</ele>
        <time>2019-04-26T08:47:26.000Z</time>
      </trkpt>
      <trkpt lat="42.393836975097656" lon="-7.194251537322998">
        <ele>282.0</ele>
        <time>2019-04-26T08:47:27.000Z</time>
      </trkpt>
      <trkpt lat="42.393890380859375" lon="-7.194588661193848">
        <ele>280.0</ele>
        <time>2019-04-26T08:48:07.000Z</time>
      </trkpt>
      <trkpt lat="42.39389419555664" lon="-7.194614410400391">
        <ele>282.0</ele>
        <time>2019-04-26T08:48:34.000Z</time>
      </trkpt>
      <trkpt lat="42.393898010253906" lon="-7.19463586807251">
        <ele>282.0</ele>
        <time>2019-04-26T08:48:35.000Z</time>
      </trkpt>
      <trkpt lat="42.39398956298828" lon="-7.195104122161865">
        <ele>287.0</ele>
        <time>2019-04-26T08:49:01.000Z</time>
      </trkpt>
      <trkpt lat="42.39397048950195" lon="-7.195586204528809">
        <ele>285.0</ele>
        <time>2019-04-26T08:49:40.000Z</time>
      </trkpt>
      <trkpt lat="42.394046783447266" lon="-7.196066856384277">
        <ele>299.0</ele>
        <time>2019-04-26T08:50:15.000Z</time>
      </trkpt>
      <trkpt lat="42.39415740966797" lon="-7.196528434753418">
        <ele>303.0</ele>
        <time>2019-04-26T08:50:46.000Z</time>
      </trkpt>
      <trkpt lat="42.394248962402344" lon="-7.196704864501953">
        <ele>305.0</ele>
        <time>2019-04-26T08:50:59.000Z</time>
      </trkpt>
      <trkpt lat="42.39434051513672" lon="-7.1967597007751465">
        <ele>304.0</ele>
        <time>2019-04-26T08:51:08.000Z</time>
      </trkpt>
      <trkpt lat="42.39445114135742" lon="-7.196799278259277">
        <ele>302.0</ele>
        <time>2019-04-26T08:51:18.000Z</time>
      </trkpt>
      <trkpt lat="42.39448547363281" lon="-7.196824550628662">
        <ele>301.0</ele>
        <time>2019-04-26T08:51:20.000Z</time>
      </trkpt>
      <trkpt lat="42.394508361816406" lon="-7.196850776672363">
        <ele>301.0</ele>
        <time>2019-04-26T08:51:23.000Z</time>
      </trkpt>
      <trkpt lat="42.39453125" lon="-7.1968770027160645">
        <ele>301.0</ele>
        <time>2019-04-26T08:51:26.000Z</time>
      </trkpt>
      <trkpt lat="42.39455032348633" lon="-7.196903705596924">
        <ele>301.0</ele>
        <time>2019-04-26T08:51:29.000Z</time>
      </trkpt>
      <trkpt lat="42.394569396972656" lon="-7.196967601776123">
        <ele>301.0</ele>
        <time>2019-04-26T08:51:34.000Z</time>
      </trkpt>
      <trkpt lat="42.39458084106445" lon="-7.197046756744385">
        <ele>300.0</ele>
        <time>2019-04-26T08:51:39.000Z</time>
      </trkpt>
      <trkpt lat="42.394596099853516" lon="-7.197136878967285">
        <ele>299.0</ele>
        <time>2019-04-26T08:51:44.000Z</time>
      </trkpt>
      <trkpt lat="42.39460754394531" lon="-7.197232246398926">
        <ele>299.0</ele>
        <time>2019-04-26T08:51:50.000Z</time>
      </trkpt>
      <trkpt lat="42.39463806152344" lon="-7.197329998016357">
        <ele>299.0</ele>
        <time>2019-04-26T08:52:02.000Z</time>
      </trkpt>
      <trkpt lat="42.39468002319336" lon="-7.197433948516846">
        <ele>299.0</ele>
        <time>2019-04-26T08:52:14.000Z</time>
      </trkpt>
      <trkpt lat="42.39472961425781" lon="-7.197542190551758">
        <ele>300.0</ele>
        <time>2019-04-26T08:52:26.000Z</time>
      </trkpt>
      <trkpt lat="42.394779205322266" lon="-7.197652339935303">
        <ele>301.0</ele>
        <time>2019-04-26T08:52:39.000Z</time>
      </trkpt>
      <trkpt lat="42.39480972290039" lon="-7.197677135467529">
        <ele>302.0</ele>
        <time>2019-04-26T08:52:43.000Z</time>
      </trkpt>
      <trkpt lat="42.394832611083984" lon="-7.197668075561523">
        <ele>303.0</ele>
        <time>2019-04-26T08:52:48.000Z</time>
      </trkpt>
      <trkpt lat="42.39485549926758" lon="-7.197636127471924">
        <ele>304.0</ele>
        <time>2019-04-26T08:52:52.000Z</time>
      </trkpt>
      <trkpt lat="42.394874572753906" lon="-7.1975932121276855">
        <ele>305.0</ele>
        <time>2019-04-26T08:52:57.000Z</time>
      </trkpt>
      <trkpt lat="42.3948860168457" lon="-7.197585105895996">
        <ele>305.0</ele>
        <time>2019-04-26T08:52:57.000Z</time>
      </trkpt>
      <trkpt lat="42.3948974609375" lon="-7.197579860687256">
        <ele>305.0</ele>
        <time>2019-04-26T08:52:57.000Z</time>
      </trkpt>
      <trkpt lat="42.394901275634766" lon="-7.197576522827148">
        <ele>305.0</ele>
        <time>2019-04-26T08:52:57.000Z</time>
      </trkpt>
      <trkpt lat="42.39490509033203" lon="-7.197573661804199">
        <ele>305.0</ele>
        <time>2019-04-26T08:52:58.000Z</time>
      </trkpt>
      <trkpt lat="42.39493179321289" lon="-7.1975555419921875">
        <ele>305.0</ele>
        <time>2019-04-26T08:53:00.000Z</time>
      </trkpt>
      <trkpt lat="42.39496612548828" lon="-7.197531223297119">
        <ele>305.0</ele>
        <time>2019-04-26T08:53:03.000Z</time>
      </trkpt>
      <trkpt lat="42.39500045776367" lon="-7.197503566741943">
        <ele>305.0</ele>
        <time>2019-04-26T08:53:05.000Z</time>
      </trkpt>
      <trkpt lat="42.395042419433594" lon="-7.197474002838135">
        <ele>305.0</ele>
        <time>2019-04-26T08:53:08.000Z</time>
      </trkpt>
      <trkpt lat="42.39509201049805" lon="-7.197488784790039">
        <ele>306.0</ele>
        <time>2019-04-26T08:53:14.000Z</time>
      </trkpt>
      <trkpt lat="42.395145416259766" lon="-7.197519779205322">
        <ele>307.0</ele>
        <time>2019-04-26T08:53:21.000Z</time>
      </trkpt>
      <trkpt lat="42.39520263671875" lon="-7.197562217712402">
        <ele>308.0</ele>
        <time>2019-04-26T08:53:28.000Z</time>
      </trkpt>
      <trkpt lat="42.395259857177734" lon="-7.197609901428223">
        <ele>309.0</ele>
        <time>2019-04-26T08:53:35.000Z</time>
      </trkpt>
      <trkpt lat="42.39533233642578" lon="-7.197654724121094">
        <ele>310.0</ele>
        <time>2019-04-26T08:53:45.000Z</time>
      </trkpt>
      <trkpt lat="42.395408630371094" lon="-7.197704315185547">
        <ele>311.0</ele>
        <time>2019-04-26T08:53:55.000Z</time>
      </trkpt>
      <trkpt lat="42.39549255371094" lon="-7.197756767272949">
        <ele>313.0</ele>
        <time>2019-04-26T08:54:05.000Z</time>
      </trkpt>
      <trkpt lat="42.39558029174805" lon="-7.197811126708984">
        <ele>314.0</ele>
        <time>2019-04-26T08:54:15.000Z</time>
      </trkpt>
      <trkpt lat="42.3956413269043" lon="-7.197854042053223">
        <ele>316.0</ele>
        <time>2019-04-26T08:54:23.000Z</time>
      </trkpt>
      <trkpt lat="42.39570236206055" lon="-7.1978936195373535">
        <ele>318.0</ele>
        <time>2019-04-26T08:54:31.000Z</time>
      </trkpt>
      <trkpt lat="42.395755767822266" lon="-7.197931289672852">
        <ele>320.0</ele>
        <time>2019-04-26T08:54:39.000Z</time>
      </trkpt>
      <trkpt lat="42.39580535888672" lon="-7.197968006134033">
        <ele>322.0</ele>
        <time>2019-04-26T08:54:47.000Z</time>
      </trkpt>
      <trkpt lat="42.3958740234375" lon="-7.197976589202881">
        <ele>323.0</ele>
        <time>2019-04-26T08:54:56.000Z</time>
      </trkpt>
      <trkpt lat="42.39591979980469" lon="-7.197952747344971">
        <ele>323.0</ele>
        <time>2019-04-26T08:55:05.000Z</time>
      </trkpt>
      <trkpt lat="42.39598846435547" lon="-7.197906494140625">
        <ele>324.0</ele>
        <time>2019-04-26T08:55:23.000Z</time>
      </trkpt>
      <trkpt lat="42.39606475830078" lon="-7.197842597961426">
        <ele>326.0</ele>
        <time>2019-04-26T08:55:42.000Z</time>
      </trkpt>
      <trkpt lat="42.39608383178711" lon="-7.1978278160095215">
        <ele>326.0</ele>
        <time>2019-04-26T08:56:08.000Z</time>
      </trkpt>
      <trkpt lat="42.396095275878906" lon="-7.197818279266357">
        <ele>326.0</ele>
        <time>2019-04-26T08:56:35.000Z</time>
      </trkpt>
      <trkpt lat="42.39610290527344" lon="-7.197812557220459">
        <ele>325.0</ele>
        <time>2019-04-26T08:57:01.000Z</time>
      </trkpt>
      <trkpt lat="42.3961067199707" lon="-7.197808742523193">
        <ele>325.0</ele>
        <time>2019-04-26T08:57:28.000Z</time>
      </trkpt>
      <trkpt lat="42.396114349365234" lon="-7.19780158996582">
        <ele>325.0</ele>
        <time>2019-04-26T08:57:28.000Z</time>
      </trkpt>
      <trkpt lat="42.396121978759766" lon="-7.197795391082764">
        <ele>325.0</ele>
        <time>2019-04-26T08:57:28.000Z</time>
      </trkpt>
      <trkpt lat="42.3961296081543" lon="-7.197789669036865">
        <ele>325.0</ele>
        <time>2019-04-26T08:57:28.000Z</time>
      </trkpt>
      <trkpt lat="42.39613723754883" lon="-7.197783946990967">
        <ele>325.0</ele>
        <time>2019-04-26T08:57:29.000Z</time>
      </trkpt>
      <trkpt lat="42.39617919921875" lon="-7.197757720947266">
        <ele>325.0</ele>
        <time>2019-04-26T08:57:30.000Z</time>
      </trkpt>
      <trkpt lat="42.396236419677734" lon="-7.197723865509033">
        <ele>325.0</ele>
        <time>2019-04-26T08:57:31.000Z</time>
      </trkpt>
      <trkpt lat="42.396305084228516" lon="-7.197683811187744">
        <ele>325.0</ele>
        <time>2019-04-26T08:57:32.000Z</time>
      </trkpt>
      <trkpt lat="42.39637756347656" lon="-7.197641372680664">
        <ele>325.0</ele>
        <time>2019-04-26T08:57:33.000Z</time>
      </trkpt>
      <trkpt lat="42.39641571044922" lon="-7.197638511657715">
        <ele>325.0</ele>
        <time>2019-04-26T08:57:35.000Z</time>
      </trkpt>
      <trkpt lat="42.39644241333008" lon="-7.197648525238037">
        <ele>325.0</ele>
        <time>2019-04-26T08:57:37.000Z</time>
      </trkpt>
      <trkpt lat="42.39646530151367" lon="-7.197668075561523">
        <ele>324.0</ele>
        <time>2019-04-26T08:57:39.000Z</time>
      </trkpt>
      <trkpt lat="42.396484375" lon="-7.197691917419434">
        <ele>324.0</ele>
        <time>2019-04-26T08:57:41.000Z</time>
      </trkpt>
      <trkpt lat="42.39649200439453" lon="-7.197741508483887">
        <ele>324.0</ele>
        <time>2019-04-26T08:57:47.000Z</time>
      </trkpt>
      <trkpt lat="42.39649200439453" lon="-7.1978068351745605">
        <ele>324.0</ele>
        <time>2019-04-26T08:57:53.000Z</time>
      </trkpt>
      <trkpt lat="42.396484375" lon="-7.197882175445557">
        <ele>323.0</ele>
        <time>2019-04-26T08:57:59.000Z</time>
      </trkpt>
      <trkpt lat="42.3964729309082" lon="-7.197962284088135">
        <ele>323.0</ele>
        <time>2019-04-26T08:58:05.000Z</time>
      </trkpt>
      <trkpt lat="42.39646911621094" lon="-7.197997570037842">
        <ele>322.0</ele>
        <time>2019-04-26T08:58:08.000Z</time>
      </trkpt>
      <trkpt lat="42.396461486816406" lon="-7.198019504547119">
        <ele>322.0</ele>
        <time>2019-04-26T08:58:12.000Z</time>
      </trkpt>
      <trkpt lat="42.39645767211914" lon="-7.198032379150391">
        <ele>321.0</ele>
        <time>2019-04-26T08:58:15.000Z</time>
      </trkpt>
      <trkpt lat="42.39645004272461" lon="-7.19804048538208">
        <ele>321.0</ele>
        <time>2019-04-26T08:58:19.000Z</time>
      </trkpt>
      <trkpt lat="42.396446228027344" lon="-7.19805383682251">
        <ele>320.0</ele>
        <time>2019-04-26T08:58:19.000Z</time>
      </trkpt>
      <trkpt lat="42.39644241333008" lon="-7.198064804077148">
        <ele>320.0</ele>
        <time>2019-04-26T08:58:19.000Z</time>
      </trkpt>
      <trkpt lat="42.39643859863281" lon="-7.1980743408203125">
        <ele>320.0</ele>
        <time>2019-04-26T08:58:20.000Z</time>
      </trkpt>
      <trkpt lat="42.39643859863281" lon="-7.198082447052002">
        <ele>321.0</ele>
        <time>2019-04-26T08:58:20.000Z</time>
      </trkpt>
      <trkpt lat="42.39643478393555" lon="-7.198166847229004">
        <ele>320.0</ele>
        <time>2019-04-26T08:58:25.000Z</time>
      </trkpt>
      <trkpt lat="42.39643096923828" lon="-7.198282241821289">
        <ele>319.0</ele>
        <time>2019-04-26T08:58:31.000Z</time>
      </trkpt>
      <trkpt lat="42.396427154541016" lon="-7.198418140411377">
        <ele>318.0</ele>
        <time>2019-04-26T08:58:36.000Z</time>
      </trkpt>
      <trkpt lat="42.39642333984375" lon="-7.198564052581787">
        <ele>317.0</ele>
        <time>2019-04-26T08:58:42.000Z</time>
      </trkpt>
      <trkpt lat="42.396419525146484" lon="-7.198632717132568">
        <ele>317.0</ele>
        <time>2019-04-26T08:58:46.000Z</time>
      </trkpt>
      <trkpt lat="42.39641189575195" lon="-7.198679447174072">
        <ele>317.0</ele>
        <time>2019-04-26T08:58:51.000Z</time>
      </trkpt>
      <trkpt lat="42.39640426635742" lon="-7.19871187210083">
        <ele>317.0</ele>
        <time>2019-04-26T08:58:55.000Z</time>
      </trkpt>
      <trkpt lat="42.396400451660156" lon="-7.198737144470215">
        <ele>317.0</ele>
        <time>2019-04-26T08:59:00.000Z</time>
      </trkpt>
      <trkpt lat="42.39640808105469" lon="-7.198766708374023">
        <ele>317.0</ele>
        <time>2019-04-26T08:59:05.000Z</time>
      </trkpt>
      <trkpt lat="42.39642333984375" lon="-7.198791027069092">
        <ele>317.0</ele>
        <time>2019-04-26T08:59:10.000Z</time>
      </trkpt>
      <trkpt lat="42.396446228027344" lon="-7.198812007904053">
        <ele>317.0</ele>
        <time>2019-04-26T08:59:15.000Z</time>
      </trkpt>
      <trkpt lat="42.39646530151367" lon="-7.198830604553223">
        <ele>317.0</ele>
        <time>2019-04-26T08:59:20.000Z</time>
      </trkpt>
      <trkpt lat="42.39647674560547" lon="-7.198843955993652">
        <ele>317.0</ele>
        <time>2019-04-26T08:59:20.000Z</time>
      </trkpt>
      <trkpt lat="42.396484375" lon="-7.198853015899658">
        <ele>317.0</ele>
        <time>2019-04-26T08:59:20.000Z</time>
      </trkpt>
      <trkpt lat="42.396488189697266" lon="-7.198859214782715">
        <ele>317.0</ele>
        <time>2019-04-26T08:59:20.000Z</time>
      </trkpt>
      <trkpt lat="42.39649200439453" lon="-7.198864459991455">
        <ele>317.0</ele>
        <time>2019-04-26T08:59:21.000Z</time>
      </trkpt>
      <trkpt lat="42.39651107788086" lon="-7.198888778686523">
        <ele>317.0</ele>
        <time>2019-04-26T08:59:22.000Z</time>
      </trkpt>
      <trkpt lat="42.39653396606445" lon="-7.198920249938965">
        <ele>317.0</ele>
        <time>2019-04-26T08:59:24.000Z</time>
      </trkpt>
      <trkpt lat="42.39656448364258" lon="-7.19895601272583">
        <ele>317.0</ele>
        <time>2019-04-26T08:59:26.000Z</time>
      </trkpt>
      <trkpt lat="42.3965950012207" lon="-7.198994159698486">
        <ele>317.0</ele>
        <time>2019-04-26T08:59:28.000Z</time>
      </trkpt>
      <trkpt lat="42.39662551879883" lon="-7.199127197265625">
        <ele>317.0</ele>
        <time>2019-04-26T08:59:43.000Z</time>
      </trkpt>
      <trkpt lat="42.396644592285156" lon="-7.199291706085205">
        <ele>317.0</ele>
        <time>2019-04-26T08:59:58.000Z</time>
      </trkpt>
      <trkpt lat="42.3966178894043" lon="-7.199509620666504">
        <ele>318.0</ele>
        <time>2019-04-26T09:00:16.000Z</time>
      </trkpt>
      <trkpt lat="42.396568298339844" lon="-7.199759006500244">
        <ele>319.0</ele>
        <time>2019-04-26T09:00:34.000Z</time>
      </trkpt>
      <trkpt lat="42.39656448364258" lon="-7.19984769821167">
        <ele>320.0</ele>
        <time>2019-04-26T09:00:41.000Z</time>
      </trkpt>
      <trkpt lat="42.39656066894531" lon="-7.199924945831299">
        <ele>321.0</ele>
        <time>2019-04-26T09:00:49.000Z</time>
      </trkpt>
      <trkpt lat="42.39656448364258" lon="-7.19999361038208">
        <ele>322.0</ele>
        <time>2019-04-26T09:00:56.000Z</time>
      </trkpt>
      <trkpt lat="42.396568298339844" lon="-7.200058937072754">
        <ele>323.0</ele>
        <time>2019-04-26T09:01:04.000Z</time>
      </trkpt>
      <trkpt lat="42.396541595458984" lon="-7.200106620788574">
        <ele>325.0</ele>
        <time>2019-04-26T09:01:10.000Z</time>
      </trkpt>
      <trkpt lat="42.39650344848633" lon="-7.200142860412598">
        <ele>326.0</ele>
        <time>2019-04-26T09:01:16.000Z</time>
      </trkpt>
      <trkpt lat="42.39645767211914" lon="-7.20017147064209">
        <ele>328.0</ele>
        <time>2019-04-26T09:01:22.000Z</time>
      </trkpt>
      <trkpt lat="42.39641189575195" lon="-7.200196266174316">
        <ele>330.0</ele>
        <time>2019-04-26T09:01:28.000Z</time>
      </trkpt>
      <trkpt lat="42.39639663696289" lon="-7.200248718261719">
        <ele>331.0</ele>
        <time>2019-04-26T09:01:34.000Z</time>
      </trkpt>
      <trkpt lat="42.39638900756836" lon="-7.200308799743652">
        <ele>332.0</ele>
        <time>2019-04-26T09:01:41.000Z</time>
      </trkpt>
      <trkpt lat="42.39638900756836" lon="-7.200374603271484">
        <ele>333.0</ele>
        <time>2019-04-26T09:01:48.000Z</time>
      </trkpt>
      <trkpt lat="42.39639663696289" lon="-7.200442314147949">
        <ele>335.0</ele>
        <time>2019-04-26T09:01:55.000Z</time>
      </trkpt>
      <trkpt lat="42.39639663696289" lon="-7.200480937957764">
        <ele>336.0</ele>
        <time>2019-04-26T09:02:21.000Z</time>
      </trkpt>
      <trkpt lat="42.396400451660156" lon="-7.200509548187256">
        <ele>336.0</ele>
        <time>2019-04-26T09:02:47.000Z</time>
      </trkpt>
      <trkpt lat="42.39640426635742" lon="-7.200531482696533">
        <ele>337.0</ele>
        <time>2019-04-26T09:03:13.000Z</time>
      </trkpt>
      <trkpt lat="42.39640808105469" lon="-7.200550556182861">
        <ele>338.0</ele>
        <time>2019-04-26T09:03:39.000Z</time>
      </trkpt>
      <trkpt lat="42.39641189575195" lon="-7.200567245483398">
        <ele>338.0</ele>
        <time>2019-04-26T09:03:39.000Z</time>
      </trkpt>
      <trkpt lat="42.39641571044922" lon="-7.200579643249512">
        <ele>338.0</ele>
        <time>2019-04-26T09:03:39.000Z</time>
      </trkpt>
      <trkpt lat="42.39641571044922" lon="-7.200588703155518">
        <ele>338.0</ele>
        <time>2019-04-26T09:03:39.000Z</time>
      </trkpt>
      <trkpt lat="42.39641571044922" lon="-7.200596332550049">
        <ele>338.0</ele>
        <time>2019-04-26T09:03:40.000Z</time>
      </trkpt>
      <trkpt lat="42.396419525146484" lon="-7.200665473937988">
        <ele>338.0</ele>
        <time>2019-04-26T09:03:46.000Z</time>
      </trkpt>
      <trkpt lat="42.396419525146484" lon="-7.200758934020996">
        <ele>339.0</ele>
        <time>2019-04-26T09:03:53.000Z</time>
      </trkpt>
      <trkpt lat="42.39642333984375" lon="-7.200868129730225">
        <ele>340.0</ele>
        <time>2019-04-26T09:04:00.000Z</time>
      </trkpt>
      <trkpt lat="42.39642333984375" lon="-7.200985431671143">
        <ele>340.0</ele>
        <time>2019-04-26T09:04:07.000Z</time>
      </trkpt>
      <trkpt lat="42.39642333984375" lon="-7.201018333435059">
        <ele>341.0</ele>
        <time>2019-04-26T09:04:08.000Z</time>
      </trkpt>
      <trkpt lat="42.39642333984375" lon="-7.201023578643799">
        <ele>341.0</ele>
        <time>2019-04-26T09:04:09.000Z</time>
      </trkpt>
      <trkpt lat="42.396419525146484" lon="-7.2010111808776855">
        <ele>341.0</ele>
        <time>2019-04-26T09:04:10.000Z</time>
      </trkpt>
      <trkpt lat="42.396419525146484" lon="-7.200989723205566">
        <ele>341.0</ele>
        <time>2019-04-26T09:04:11.000Z</time>
      </trkpt>
      <trkpt lat="42.39644241333008" lon="-7.201041221618652">
        <ele>341.0</ele>
        <time>2019-04-26T09:04:49.000Z</time>
      </trkpt>
      <trkpt lat="42.3964729309082" lon="-7.201115131378174">
        <ele>341.0</ele>
        <time>2019-04-26T09:05:27.000Z</time>
      </trkpt>
      <trkpt lat="42.396480560302734" lon="-7.201131343841553">
        <ele>341.0</ele>
        <time>2019-04-26T09:05:27.000Z</time>
      </trkpt>
      <trkpt lat="42.396488189697266" lon="-7.201141834259033">
        <ele>341.0</ele>
        <time>2019-04-26T09:05:27.000Z</time>
      </trkpt>
      <trkpt lat="42.396488189697266" lon="-7.20114803314209">
        <ele>341.0</ele>
        <time>2019-04-26T09:05:27.000Z</time>
      </trkpt>
      <trkpt lat="42.39649200439453" lon="-7.2011518478393555">
        <ele>341.0</ele>
        <time>2019-04-26T09:05:28.000Z</time>
      </trkpt>
      <trkpt lat="42.39651107788086" lon="-7.201232433319092">
        <ele>340.0</ele>
        <time>2019-04-26T09:05:36.000Z</time>
      </trkpt>
      <trkpt lat="42.39653778076172" lon="-7.2013421058654785">
        <ele>340.0</ele>
        <time>2019-04-26T09:05:44.000Z</time>
      </trkpt>
      <trkpt lat="42.39657211303711" lon="-7.20147180557251">
        <ele>339.0</ele>
        <time>2019-04-26T09:05:52.000Z</time>
      </trkpt>
      <trkpt lat="42.3966064453125" lon="-7.201611518859863">
        <ele>338.0</ele>
        <time>2019-04-26T09:06:00.000Z</time>
      </trkpt>
      <trkpt lat="42.39663314819336" lon="-7.201725959777832">
        <ele>337.0</ele>
        <time>2019-04-26T09:06:13.000Z</time>
      </trkpt>
      <trkpt lat="42.39665603637695" lon="-7.201840400695801">
        <ele>336.0</ele>
        <time>2019-04-26T09:06:26.000Z</time>
      </trkpt>
      <trkpt lat="42.39667892456055" lon="-7.2019548416137695">
        <ele>335.0</ele>
        <time>2019-04-26T09:06:39.000Z</time>
      </trkpt>
      <trkpt lat="42.39670181274414" lon="-7.202069282531738">
        <ele>334.0</ele>
        <time>2019-04-26T09:06:52.000Z</time>
      </trkpt>
      <trkpt lat="42.39671325683594" lon="-7.202110290527344">
        <ele>335.0</ele>
        <time>2019-04-26T09:07:01.000Z</time>
      </trkpt>
      <trkpt lat="42.39671325683594" lon="-7.202120304107666">
        <ele>338.0</ele>
        <time>2019-04-26T09:07:11.000Z</time>
      </trkpt>
      <trkpt lat="42.39670944213867" lon="-7.2021098136901855">
        <ele>342.0</ele>
        <time>2019-04-26T09:07:20.000Z</time>
      </trkpt>
      <trkpt lat="42.396705627441406" lon="-7.202089309692383">
        <ele>346.0</ele>
        <time>2019-04-26T09:07:30.000Z</time>
      </trkpt>
      <trkpt lat="42.396705627441406" lon="-7.202093601226807">
        <ele>347.0</ele>
        <time>2019-04-26T09:07:30.000Z</time>
      </trkpt>
      <trkpt lat="42.396705627441406" lon="-7.2020978927612305">
        <ele>347.0</ele>
        <time>2019-04-26T09:07:30.000Z</time>
      </trkpt>
      <trkpt lat="42.39670944213867" lon="-7.202102184295654">
        <ele>347.0</ele>
        <time>2019-04-26T09:07:30.000Z</time>
      </trkpt>
      <trkpt lat="42.39670944213867" lon="-7.202106475830078">
        <ele>346.0</ele>
        <time>2019-04-26T09:07:31.000Z</time>
      </trkpt>
      <trkpt lat="42.396827697753906" lon="-7.202550888061523">
        <ele>359.0</ele>
        <time>2019-04-26T09:08:07.000Z</time>
      </trkpt>
      <trkpt lat="42.39696502685547" lon="-7.202995300292969">
        <ele>365.0</ele>
        <time>2019-04-26T09:09:16.000Z</time>
      </trkpt>
      <trkpt lat="42.39714050292969" lon="-7.2034101486206055">
        <ele>363.0</ele>
        <time>2019-04-26T09:10:17.000Z</time>
      </trkpt>
      <trkpt lat="42.397315979003906" lon="-7.203733921051025">
        <ele>368.0</ele>
        <time>2019-04-26T09:11:06.000Z</time>
      </trkpt>
      <trkpt lat="42.397342681884766" lon="-7.203797340393066">
        <ele>367.0</ele>
        <time>2019-04-26T09:11:43.000Z</time>
      </trkpt>
      <trkpt lat="42.39735412597656" lon="-7.203831672668457">
        <ele>367.0</ele>
        <time>2019-04-26T09:11:44.000Z</time>
      </trkpt>
      <trkpt lat="42.39753723144531" lon="-7.204247951507568">
        <ele>366.0</ele>
        <time>2019-04-26T09:12:20.000Z</time>
      </trkpt>
      <trkpt lat="42.39767837524414" lon="-7.204680919647217">
        <ele>371.0</ele>
        <time>2019-04-26T09:13:12.000Z</time>
      </trkpt>
      <trkpt lat="42.39783477783203" lon="-7.204962730407715">
        <ele>379.0</ele>
        <time>2019-04-26T09:14:07.000Z</time>
      </trkpt>
      <trkpt lat="42.3978385925293" lon="-7.205012321472168">
        <ele>382.0</ele>
        <time>2019-04-26T09:14:59.000Z</time>
      </trkpt>
      <trkpt lat="42.3978385925293" lon="-7.205045223236084">
        <ele>382.0</ele>
        <time>2019-04-26T09:15:00.000Z</time>
      </trkpt>
      <trkpt lat="42.397666931152344" lon="-7.205465793609619">
        <ele>387.0</ele>
        <time>2019-04-26T09:15:42.000Z</time>
      </trkpt>
      <trkpt lat="42.39750289916992" lon="-7.205901145935059">
        <ele>394.0</ele>
        <time>2019-04-26T09:16:28.000Z</time>
      </trkpt>
      <trkpt lat="42.39750289916992" lon="-7.206057548522949">
        <ele>397.0</ele>
        <time>2019-04-26T09:16:49.000Z</time>
      </trkpt>
      <trkpt lat="42.39754104614258" lon="-7.206186294555664">
        <ele>399.0</ele>
        <time>2019-04-26T09:17:10.000Z</time>
      </trkpt>
      <trkpt lat="42.39753723144531" lon="-7.206218719482422">
        <ele>400.0</ele>
        <time>2019-04-26T09:17:17.000Z</time>
      </trkpt>
      <trkpt lat="42.397525787353516" lon="-7.206234931945801">
        <ele>400.0</ele>
        <time>2019-04-26T09:17:24.000Z</time>
      </trkpt>
      <trkpt lat="42.39751052856445" lon="-7.206240177154541">
        <ele>399.0</ele>
        <time>2019-04-26T09:17:31.000Z</time>
      </trkpt>
      <trkpt lat="42.39749526977539" lon="-7.206239700317383">
        <ele>399.0</ele>
        <time>2019-04-26T09:17:38.000Z</time>
      </trkpt>
      <trkpt lat="42.39748764038086" lon="-7.206249237060547">
        <ele>398.0</ele>
        <time>2019-04-26T09:17:38.000Z</time>
      </trkpt>
      <trkpt lat="42.397483825683594" lon="-7.206256866455078">
        <ele>398.0</ele>
        <time>2019-04-26T09:17:38.000Z</time>
      </trkpt>
      <trkpt lat="42.39747619628906" lon="-7.206263542175293">
        <ele>398.0</ele>
        <time>2019-04-26T09:17:38.000Z</time>
      </trkpt>
      <trkpt lat="42.3974723815918" lon="-7.20626974105835">
        <ele>399.0</ele>
        <time>2019-04-26T09:17:39.000Z</time>
      </trkpt>
      <trkpt lat="42.39742660522461" lon="-7.206315517425537">
        <ele>398.0</ele>
        <time>2019-04-26T09:17:46.000Z</time>
      </trkpt>
      <trkpt lat="42.397361755371094" lon="-7.2063775062561035">
        <ele>398.0</ele>
        <time>2019-04-26T09:17:54.000Z</time>
      </trkpt>
      <trkpt lat="42.39728927612305" lon="-7.20644998550415">
        <ele>398.0</ele>
        <time>2019-04-26T09:18:02.000Z</time>
      </trkpt>
      <trkpt lat="42.39720916748047" lon="-7.206528186798096">
        <ele>398.0</ele>
        <time>2019-04-26T09:18:10.000Z</time>
      </trkpt>
      <trkpt lat="42.39717483520508" lon="-7.206560134887695">
        <ele>398.0</ele>
        <time>2019-04-26T09:18:21.000Z</time>
      </trkpt>
      <trkpt lat="42.39715576171875" lon="-7.206578731536865">
        <ele>397.0</ele>
        <time>2019-04-26T09:18:32.000Z</time>
      </trkpt>
      <trkpt lat="42.39714813232422" lon="-7.206588268280029">
        <ele>397.0</ele>
        <time>2019-04-26T09:18:43.000Z</time>
      </trkpt>
      <trkpt lat="42.39714431762695" lon="-7.2065935134887695">
        <ele>396.0</ele>
        <time>2019-04-26T09:18:55.000Z</time>
      </trkpt>
      <trkpt lat="42.397132873535156" lon="-7.206603527069092">
        <ele>396.0</ele>
        <time>2019-04-26T09:18:55.000Z</time>
      </trkpt>
      <trkpt lat="42.397125244140625" lon="-7.206611156463623">
        <ele>396.0</ele>
        <time>2019-04-26T09:18:55.000Z</time>
      </trkpt>
      <trkpt lat="42.39712142944336" lon="-7.20661735534668">
        <ele>396.0</ele>
        <time>2019-04-26T09:18:55.000Z</time>
      </trkpt>
      <trkpt lat="42.397117614746094" lon="-7.206622123718262">
        <ele>396.0</ele>
        <time>2019-04-26T09:18:56.000Z</time>
      </trkpt>
      <trkpt lat="42.397064208984375" lon="-7.206672668457031">
        <ele>397.0</ele>
        <time>2019-04-26T09:19:02.000Z</time>
      </trkpt>
      <trkpt lat="42.39699172973633" lon="-7.2067413330078125">
        <ele>398.0</ele>
        <time>2019-04-26T09:19:08.000Z</time>
      </trkpt>
      <trkpt lat="42.39691162109375" lon="-7.206821918487549">
        <ele>398.0</ele>
        <time>2019-04-26T09:19:14.000Z</time>
      </trkpt>
      <trkpt lat="42.396820068359375" lon="-7.206908702850342">
        <ele>400.0</ele>
        <time>2019-04-26T09:19:21.000Z</time>
      </trkpt>
      <trkpt lat="42.39653015136719" lon="-7.207183837890625">
        <ele>404.0</ele>
        <time>2019-04-26T09:20:01.000Z</time>
      </trkpt>
      <trkpt lat="42.39644241333008" lon="-7.20739221572876">
        <ele>405.0</ele>
        <time>2019-04-26T09:20:17.000Z</time>
      </trkpt>
      <trkpt lat="42.396385192871094" lon="-7.2076334953308105">
        <ele>406.0</ele>
        <time>2019-04-26T09:20:34.000Z</time>
      </trkpt>
      <trkpt lat="42.39640808105469" lon="-7.207736492156982">
        <ele>407.0</ele>
        <time>2019-04-26T09:20:42.000Z</time>
      </trkpt>
      <trkpt lat="42.39645767211914" lon="-7.2078351974487305">
        <ele>409.0</ele>
        <time>2019-04-26T09:20:51.000Z</time>
      </trkpt>
      <trkpt lat="42.39652633666992" lon="-7.2079315185546875">
        <ele>411.0</ele>
        <time>2019-04-26T09:21:00.000Z</time>
      </trkpt>
      <trkpt lat="42.39659881591797" lon="-7.20802640914917">
        <ele>413.0</ele>
        <time>2019-04-26T09:21:09.000Z</time>
      </trkpt>
      <trkpt lat="42.39667892456055" lon="-7.208065032958984">
        <ele>414.0</ele>
        <time>2019-04-26T09:21:17.000Z</time>
      </trkpt>
      <trkpt lat="42.396766662597656" lon="-7.208078384399414">
        <ele>414.0</ele>
        <time>2019-04-26T09:21:25.000Z</time>
      </trkpt>
      <trkpt lat="42.3968620300293" lon="-7.208075046539307">
        <ele>414.0</ele>
        <time>2019-04-26T09:21:33.000Z</time>
      </trkpt>
      <trkpt lat="42.39695739746094" lon="-7.208063125610352">
        <ele>413.0</ele>
        <time>2019-04-26T09:21:42.000Z</time>
      </trkpt>
      <trkpt lat="42.39704895019531" lon="-7.2080769538879395">
        <ele>414.0</ele>
        <time>2019-04-26T09:21:51.000Z</time>
      </trkpt>
      <trkpt lat="42.39713668823242" lon="-7.20809268951416">
        <ele>415.0</ele>
        <time>2019-04-26T09:22:01.000Z</time>
      </trkpt>
      <trkpt lat="42.3972282409668" lon="-7.2081098556518555">
        <ele>417.0</ele>
        <time>2019-04-26T09:22:11.000Z</time>
      </trkpt>
      <trkpt lat="42.397315979003906" lon="-7.208127975463867">
        <ele>418.0</ele>
        <time>2019-04-26T09:22:21.000Z</time>
      </trkpt>
      <trkpt lat="42.39738845825195" lon="-7.208184242248535">
        <ele>419.0</ele>
        <time>2019-04-26T09:22:28.000Z</time>
      </trkpt>
      <trkpt lat="42.39741134643555" lon="-7.208252429962158">
        <ele>420.0</ele>
        <time>2019-04-26T09:22:36.000Z</time>
      </trkpt>
      <trkpt lat="42.397438049316406" lon="-7.208399295806885">
        <ele>419.0</ele>
        <time>2019-04-26T09:22:48.000Z</time>
      </trkpt>
      <trkpt lat="42.3974494934082" lon="-7.208585739135742">
        <ele>418.0</ele>
        <time>2019-04-26T09:23:00.000Z</time>
      </trkpt>
      <trkpt lat="42.3974494934082" lon="-7.208694934844971">
        <ele>418.0</ele>
        <time>2019-04-26T09:23:09.000Z</time>
      </trkpt>
      <trkpt lat="42.39744186401367" lon="-7.208815097808838">
        <ele>419.0</ele>
        <time>2019-04-26T09:23:18.000Z</time>
      </trkpt>
      <trkpt lat="42.39743423461914" lon="-7.208942413330078">
        <ele>420.0</ele>
        <time>2019-04-26T09:23:27.000Z</time>
      </trkpt>
      <trkpt lat="42.39742660522461" lon="-7.209073543548584">
        <ele>421.0</ele>
        <time>2019-04-26T09:23:36.000Z</time>
      </trkpt>
      <trkpt lat="42.39741516113281" lon="-7.209195137023926">
        <ele>422.0</ele>
        <time>2019-04-26T09:23:45.000Z</time>
      </trkpt>
      <trkpt lat="42.397403717041016" lon="-7.209316253662109">
        <ele>423.0</ele>
        <time>2019-04-26T09:23:54.000Z</time>
      </trkpt>
      <trkpt lat="42.39739227294922" lon="-7.209437370300293">
        <ele>424.0</ele>
        <time>2019-04-26T09:24:03.000Z</time>
      </trkpt>
      <trkpt lat="42.39738082885742" lon="-7.209558486938477">
        <ele>425.0</ele>
        <time>2019-04-26T09:24:13.000Z</time>
      </trkpt>
      <trkpt lat="42.39738845825195" lon="-7.209677696228027">
        <ele>425.0</ele>
        <time>2019-04-26T09:24:22.000Z</time>
      </trkpt>
      <trkpt lat="42.39739990234375" lon="-7.2097954750061035">
        <ele>426.0</ele>
        <time>2019-04-26T09:24:31.000Z</time>
      </trkpt>
      <trkpt lat="42.39741897583008" lon="-7.209912300109863">
        <ele>426.0</ele>
        <time>2019-04-26T09:24:40.000Z</time>
      </trkpt>
      <trkpt lat="42.39744186401367" lon="-7.210029125213623">
        <ele>427.0</ele>
        <time>2019-04-26T09:24:49.000Z</time>
      </trkpt>
      <trkpt lat="42.3974609375" lon="-7.210146427154541">
        <ele>428.0</ele>
        <time>2019-04-26T09:24:58.000Z</time>
      </trkpt>
      <trkpt lat="42.397483825683594" lon="-7.210263729095459">
        <ele>429.0</ele>
        <time>2019-04-26T09:25:08.000Z</time>
      </trkpt>
      <trkpt lat="42.39750671386719" lon="-7.210380554199219">
        <ele>430.0</ele>
        <time>2019-04-26T09:25:17.000Z</time>
      </trkpt>
      <trkpt lat="42.39752960205078" lon="-7.2104973793029785">
        <ele>431.0</ele>
        <time>2019-04-26T09:25:27.000Z</time>
      </trkpt>
      <trkpt lat="42.39763641357422" lon="-7.210687637329102">
        <ele>432.0</ele>
        <time>2019-04-26T09:25:45.000Z</time>
      </trkpt>
      <trkpt lat="42.397769927978516" lon="-7.21085786819458">
        <ele>433.0</ele>
        <time>2019-04-26T09:26:03.000Z</time>
      </trkpt>
      <trkpt lat="42.397830963134766" lon="-7.210947036743164">
        <ele>434.0</ele>
        <time>2019-04-26T09:26:11.000Z</time>
      </trkpt>
      <trkpt lat="42.397891998291016" lon="-7.211036205291748">
        <ele>434.0</ele>
        <time>2019-04-26T09:26:20.000Z</time>
      </trkpt>
      <trkpt lat="42.397953033447266" lon="-7.211125373840332">
        <ele>435.0</ele>
        <time>2019-04-26T09:26:29.000Z</time>
      </trkpt>
      <trkpt lat="42.398014068603516" lon="-7.211214542388916">
        <ele>435.0</ele>
        <time>2019-04-26T09:26:38.000Z</time>
      </trkpt>
      <trkpt lat="42.39807891845703" lon="-7.2112932205200195">
        <ele>435.0</ele>
        <time>2019-04-26T09:26:46.000Z</time>
      </trkpt>
      <trkpt lat="42.39815139770508" lon="-7.211368083953857">
        <ele>436.0</ele>
        <time>2019-04-26T09:26:55.000Z</time>
      </trkpt>
      <trkpt lat="42.398223876953125" lon="-7.211439609527588">
        <ele>436.0</ele>
        <time>2019-04-26T09:27:04.000Z</time>
      </trkpt>
      <trkpt lat="42.39829635620117" lon="-7.211509704589844">
        <ele>436.0</ele>
        <time>2019-04-26T09:27:13.000Z</time>
      </trkpt>
      <trkpt lat="42.39837646484375" lon="-7.211564540863037">
        <ele>437.0</ele>
        <time>2019-04-26T09:27:21.000Z</time>
      </trkpt>
      <trkpt lat="42.39845657348633" lon="-7.211610794067383">
        <ele>438.0</ele>
        <time>2019-04-26T09:27:30.000Z</time>
      </trkpt>
      <trkpt lat="42.39854431152344" lon="-7.211651802062988">
        <ele>439.0</ele>
        <time>2019-04-26T09:27:38.000Z</time>
      </trkpt>
      <trkpt lat="42.39862823486328" lon="-7.2116899490356445">
        <ele>440.0</ele>
        <time>2019-04-26T09:27:47.000Z</time>
      </trkpt>
      <trkpt lat="42.398712158203125" lon="-7.211724758148193">
        <ele>441.0</ele>
        <time>2019-04-26T09:27:55.000Z</time>
      </trkpt>
      <trkpt lat="42.398799896240234" lon="-7.211755275726318">
        <ele>441.0</ele>
        <time>2019-04-26T09:28:04.000Z</time>
      </trkpt>
      <trkpt lat="42.39888381958008" lon="-7.211783409118652">
        <ele>441.0</ele>
        <time>2019-04-26T09:28:13.000Z</time>
      </trkpt>
      <trkpt lat="42.39897155761719" lon="-7.211810111999512">
        <ele>441.0</ele>
        <time>2019-04-26T09:28:22.000Z</time>
      </trkpt>
      <trkpt lat="42.3990592956543" lon="-7.211843013763428">
        <ele>441.0</ele>
        <time>2019-04-26T09:28:31.000Z</time>
      </trkpt>
      <trkpt lat="42.39914321899414" lon="-7.21187686920166">
        <ele>441.0</ele>
        <time>2019-04-26T09:28:40.000Z</time>
      </trkpt>
      <trkpt lat="42.39923095703125" lon="-7.211912155151367">
        <ele>441.0</ele>
        <time>2019-04-26T09:28:49.000Z</time>
      </trkpt>
      <trkpt lat="42.399314880371094" lon="-7.211947441101074">
        <ele>441.0</ele>
        <time>2019-04-26T09:28:58.000Z</time>
      </trkpt>
      <trkpt lat="42.39967346191406" lon="-7.212017059326172">
        <ele>436.0</ele>
        <time>2019-04-26T09:29:33.000Z</time>
      </trkpt>
      <trkpt lat="42.40003204345703" lon="-7.211977958679199">
        <ele>440.0</ele>
        <time>2019-04-26T09:30:06.000Z</time>
      </trkpt>
      <trkpt lat="42.400390625" lon="-7.211859226226807">
        <ele>441.0</ele>
        <time>2019-04-26T09:30:37.000Z</time>
      </trkpt>
      <trkpt lat="42.40060806274414" lon="-7.2117109298706055">
        <ele>441.0</ele>
        <time>2019-04-26T09:31:05.000Z</time>
      </trkpt>
      <trkpt lat="42.4006233215332" lon="-7.211697578430176">
        <ele>441.0</ele>
        <time>2019-04-26T09:31:06.000Z</time>
      </trkpt>
      <trkpt lat="42.40062713623047" lon="-7.211694240570068">
        <ele>440.0</ele>
        <time>2019-04-26T09:31:07.000Z</time>
      </trkpt>
      <trkpt lat="42.40061569213867" lon="-7.211697578430176">
        <ele>440.0</ele>
        <time>2019-04-26T09:31:08.000Z</time>
      </trkpt>
      <trkpt lat="42.40060043334961" lon="-7.211703777313232">
        <ele>440.0</ele>
        <time>2019-04-26T09:31:10.000Z</time>
      </trkpt>
      <trkpt lat="42.40060043334961" lon="-7.211699485778809">
        <ele>440.0</ele>
        <time>2019-04-26T09:31:16.000Z</time>
      </trkpt>
      <trkpt lat="42.400604248046875" lon="-7.211694240570068">
        <ele>440.0</ele>
        <time>2019-04-26T09:31:21.000Z</time>
      </trkpt>
      <trkpt lat="42.40060806274414" lon="-7.21168851852417">
        <ele>440.0</ele>
        <time>2019-04-26T09:31:27.000Z</time>
      </trkpt>
      <trkpt lat="42.400611877441406" lon="-7.211681842803955">
        <ele>440.0</ele>
        <time>2019-04-26T09:31:33.000Z</time>
      </trkpt>
      <trkpt lat="42.40061569213867" lon="-7.211677074432373">
        <ele>439.0</ele>
        <time>2019-04-26T09:31:33.000Z</time>
      </trkpt>
      <trkpt lat="42.40061950683594" lon="-7.211672782897949">
        <ele>439.0</ele>
        <time>2019-04-26T09:31:33.000Z</time>
      </trkpt>
      <trkpt lat="42.4006233215332" lon="-7.211668491363525">
        <ele>439.0</ele>
        <time>2019-04-26T09:31:34.000Z</time>
      </trkpt>
      <trkpt lat="42.4006233215332" lon="-7.211664199829102">
        <ele>440.0</ele>
        <time>2019-04-26T09:31:34.000Z</time>
      </trkpt>
      <trkpt lat="42.40066909790039" lon="-7.211615562438965">
        <ele>439.0</ele>
        <time>2019-04-26T09:31:37.000Z</time>
      </trkpt>
      <trkpt lat="42.40073013305664" lon="-7.211548805236816">
        <ele>439.0</ele>
        <time>2019-04-26T09:31:41.000Z</time>
      </trkpt>
      <trkpt lat="42.40080261230469" lon="-7.2114691734313965">
        <ele>439.0</ele>
        <time>2019-04-26T09:31:44.000Z</time>
      </trkpt>
      <trkpt lat="42.400882720947266" lon="-7.211383819580078">
        <ele>439.0</ele>
        <time>2019-04-26T09:31:48.000Z</time>
      </trkpt>
      <trkpt lat="42.40092086791992" lon="-7.211323261260986">
        <ele>439.0</ele>
        <time>2019-04-26T09:31:52.000Z</time>
      </trkpt>
      <trkpt lat="42.40094757080078" lon="-7.211266994476318">
        <ele>439.0</ele>
        <time>2019-04-26T09:31:56.000Z</time>
      </trkpt>
      <trkpt lat="42.40096664428711" lon="-7.211213111877441">
        <ele>439.0</ele>
        <time>2019-04-26T09:32:00.000Z</time>
      </trkpt>
      <trkpt lat="42.40098190307617" lon="-7.211160659790039">
        <ele>439.0</ele>
        <time>2019-04-26T09:32:04.000Z</time>
      </trkpt>
      <trkpt lat="42.401031494140625" lon="-7.211085796356201">
        <ele>437.0</ele>
        <time>2019-04-26T09:32:12.000Z</time>
      </trkpt>
      <trkpt lat="42.40109634399414" lon="-7.211002349853516">
        <ele>436.0</ele>
        <time>2019-04-26T09:32:20.000Z</time>
      </trkpt>
      <trkpt lat="42.40116882324219" lon="-7.21091365814209">
        <ele>434.0</ele>
        <time>2019-04-26T09:32:29.000Z</time>
      </trkpt>
      <trkpt lat="42.401241302490234" lon="-7.210822105407715">
        <ele>432.0</ele>
        <time>2019-04-26T09:32:37.000Z</time>
      </trkpt>
      <trkpt lat="42.40128707885742" lon="-7.210762977600098">
        <ele>432.0</ele>
        <time>2019-04-26T09:32:41.000Z</time>
      </trkpt>
      <trkpt lat="42.40131759643555" lon="-7.210714340209961">
        <ele>433.0</ele>
        <time>2019-04-26T09:32:45.000Z</time>
      </trkpt>
      <trkpt lat="42.401344299316406" lon="-7.2106733322143555">
        <ele>434.0</ele>
        <time>2019-04-26T09:32:49.000Z</time>
      </trkpt>
      <trkpt lat="42.4013671875" lon="-7.210635185241699">
        <ele>435.0</ele>
        <time>2019-04-26T09:32:53.000Z</time>
      </trkpt>
      <trkpt lat="42.40150833129883" lon="-7.210451602935791">
        <ele>437.0</ele>
        <time>2019-04-26T09:33:11.000Z</time>
      </trkpt>
      <trkpt lat="42.401649475097656" lon="-7.210277557373047">
        <ele>435.0</ele>
        <time>2019-04-26T09:33:29.000Z</time>
      </trkpt>
      <trkpt lat="42.40174865722656" lon="-7.2100443840026855">
        <ele>436.0</ele>
        <time>2019-04-26T09:33:44.000Z</time>
      </trkpt>
      <trkpt lat="42.40196990966797" lon="-7.2098164558410645">
        <ele>437.0</ele>
        <time>2019-04-26T09:34:08.000Z</time>
      </trkpt>
      <trkpt lat="42.40215301513672" lon="-7.209733009338379">
        <ele>437.0</ele>
        <time>2019-04-26T09:34:23.000Z</time>
      </trkpt>
      <trkpt lat="42.40232467651367" lon="-7.209618091583252">
        <ele>434.0</ele>
        <time>2019-04-26T09:34:39.000Z</time>
      </trkpt>
      <trkpt lat="42.40265655517578" lon="-7.209441184997559">
        <ele>435.0</ele>
        <time>2019-04-26T09:35:11.000Z</time>
      </trkpt>
      <trkpt lat="42.40290451049805" lon="-7.209351062774658">
        <ele>434.0</ele>
        <time>2019-04-26T09:35:30.000Z</time>
      </trkpt>
      <trkpt lat="42.4029426574707" lon="-7.209360599517822">
        <ele>434.0</ele>
        <time>2019-04-26T09:35:33.000Z</time>
      </trkpt>
      <trkpt lat="42.40297317504883" lon="-7.209383487701416">
        <ele>435.0</ele>
        <time>2019-04-26T09:35:36.000Z</time>
      </trkpt>
      <trkpt lat="42.40299606323242" lon="-7.209415435791016">
        <ele>435.0</ele>
        <time>2019-04-26T09:35:40.000Z</time>
      </trkpt>
      <trkpt lat="42.40301513671875" lon="-7.209451675415039">
        <ele>435.0</ele>
        <time>2019-04-26T09:35:43.000Z</time>
      </trkpt>
      <trkpt lat="42.403053283691406" lon="-7.2094855308532715">
        <ele>435.0</ele>
        <time>2019-04-26T09:35:47.000Z</time>
      </trkpt>
      <trkpt lat="42.40309524536133" lon="-7.2095232009887695">
        <ele>435.0</ele>
        <time>2019-04-26T09:35:50.000Z</time>
      </trkpt>
      <trkpt lat="42.403141021728516" lon="-7.209563255310059">
        <ele>434.0</ele>
        <time>2019-04-26T09:35:54.000Z</time>
      </trkpt>
      <trkpt lat="42.4031867980957" lon="-7.209604263305664">
        <ele>434.0</ele>
        <time>2019-04-26T09:35:58.000Z</time>
      </trkpt>
      <trkpt lat="42.40320587158203" lon="-7.209656715393066">
        <ele>434.0</ele>
        <time>2019-04-26T09:36:01.000Z</time>
      </trkpt>
      <trkpt lat="42.40321731567383" lon="-7.209714889526367">
        <ele>434.0</ele>
        <time>2019-04-26T09:36:04.000Z</time>
      </trkpt>
      <trkpt lat="42.403221130371094" lon="-7.209777355194092">
        <ele>434.0</ele>
        <time>2019-04-26T09:36:08.000Z</time>
      </trkpt>
      <trkpt lat="42.403221130371094" lon="-7.209841251373291">
        <ele>434.0</ele>
        <time>2019-04-26T09:36:11.000Z</time>
      </trkpt>
      <trkpt lat="42.40324401855469" lon="-7.209938049316406">
        <ele>434.0</ele>
        <time>2019-04-26T09:36:18.000Z</time>
      </trkpt>
      <trkpt lat="42.40327072143555" lon="-7.210050582885742">
        <ele>436.0</ele>
        <time>2019-04-26T09:36:26.000Z</time>
      </trkpt>
      <trkpt lat="42.40330123901367" lon="-7.210173606872559">
        <ele>437.0</ele>
        <time>2019-04-26T09:36:33.000Z</time>
      </trkpt>
      <trkpt lat="42.4033317565918" lon="-7.210301876068115">
        <ele>439.0</ele>
        <time>2019-04-26T09:36:41.000Z</time>
      </trkpt>
      <trkpt lat="42.40336608886719" lon="-7.21041202545166">
        <ele>439.0</ele>
        <time>2019-04-26T09:36:49.000Z</time>
      </trkpt>
      <trkpt lat="42.403404235839844" lon="-7.2105207443237305">
        <ele>439.0</ele>
        <time>2019-04-26T09:36:57.000Z</time>
      </trkpt>
      <trkpt lat="42.403446197509766" lon="-7.210627555847168">
        <ele>439.0</ele>
        <time>2019-04-26T09:37:05.000Z</time>
      </trkpt>
      <trkpt lat="42.40348815917969" lon="-7.210733890533447">
        <ele>438.0</ele>
        <time>2019-04-26T09:37:13.000Z</time>
      </trkpt>
      <trkpt lat="42.40355682373047" lon="-7.210790634155273">
        <ele>437.0</ele>
        <time>2019-04-26T09:37:20.000Z</time>
      </trkpt>
      <trkpt lat="42.40364456176758" lon="-7.210826396942139">
        <ele>436.0</ele>
        <time>2019-04-26T09:37:27.000Z</time>
      </trkpt>
      <trkpt lat="42.40373611450195" lon="-7.2108473777771">
        <ele>434.0</ele>
        <time>2019-04-26T09:37:35.000Z</time>
      </trkpt>
      <trkpt lat="42.40383529663086" lon="-7.2108612060546875">
        <ele>432.0</ele>
        <time>2019-04-26T09:37:42.000Z</time>
      </trkpt>
      <trkpt lat="42.40391540527344" lon="-7.21090841293335">
        <ele>431.0</ele>
        <time>2019-04-26T09:37:49.000Z</time>
      </trkpt>
      <trkpt lat="42.40399169921875" lon="-7.21096134185791">
        <ele>431.0</ele>
        <time>2019-04-26T09:37:56.000Z</time>
      </trkpt>
      <trkpt lat="42.40406799316406" lon="-7.211019039154053">
        <ele>431.0</ele>
        <time>2019-04-26T09:38:03.000Z</time>
      </trkpt>
      <trkpt lat="42.40414047241211" lon="-7.211078643798828">
        <ele>431.0</ele>
        <time>2019-04-26T09:38:10.000Z</time>
      </trkpt>
      <trkpt lat="42.40421676635742" lon="-7.211136817932129">
        <ele>430.0</ele>
        <time>2019-04-26T09:38:17.000Z</time>
      </trkpt>
      <trkpt lat="42.404293060302734" lon="-7.211196422576904">
        <ele>430.0</ele>
        <time>2019-04-26T09:38:25.000Z</time>
      </trkpt>
      <trkpt lat="42.40436935424805" lon="-7.211257457733154">
        <ele>430.0</ele>
        <time>2019-04-26T09:38:32.000Z</time>
      </trkpt>
      <trkpt lat="42.404449462890625" lon="-7.211318492889404">
        <ele>430.0</ele>
        <time>2019-04-26T09:38:40.000Z</time>
      </trkpt>
      <trkpt lat="42.40452575683594" lon="-7.211378574371338">
        <ele>430.0</ele>
        <time>2019-04-26T09:38:46.000Z</time>
      </trkpt>
      <trkpt lat="42.404598236083984" lon="-7.2114386558532715">
        <ele>431.0</ele>
        <time>2019-04-26T09:38:52.000Z</time>
      </trkpt>
      <trkpt lat="42.4046745300293" lon="-7.211498260498047">
        <ele>432.0</ele>
        <time>2019-04-26T09:38:59.000Z</time>
      </trkpt>
      <trkpt lat="42.404747009277344" lon="-7.2115583419799805">
        <ele>434.0</ele>
        <time>2019-04-26T09:39:05.000Z</time>
      </trkpt>
      <trkpt lat="42.404815673828125" lon="-7.211632251739502">
        <ele>435.0</ele>
        <time>2019-04-26T09:39:12.000Z</time>
      </trkpt>
      <trkpt lat="42.40488052368164" lon="-7.211712837219238">
        <ele>436.0</ele>
        <time>2019-04-26T09:39:19.000Z</time>
      </trkpt>
      <trkpt lat="42.404945373535156" lon="-7.21179723739624">
        <ele>437.0</ele>
        <time>2019-04-26T09:39:26.000Z</time>
      </trkpt>
      <trkpt lat="42.40501022338867" lon="-7.211883544921875">
        <ele>438.0</ele>
        <time>2019-04-26T09:39:33.000Z</time>
      </trkpt>
      <trkpt lat="42.405052185058594" lon="-7.211918830871582">
        <ele>438.0</ele>
        <time>2019-04-26T09:39:35.000Z</time>
      </trkpt>
      <trkpt lat="42.405086517333984" lon="-7.211935043334961">
        <ele>438.0</ele>
        <time>2019-04-26T09:39:38.000Z</time>
      </trkpt>
      <trkpt lat="42.40510940551758" lon="-7.21193790435791">
        <ele>438.0</ele>
        <time>2019-04-26T09:39:40.000Z</time>
      </trkpt>
      <trkpt lat="42.40513610839844" lon="-7.211935043334961">
        <ele>437.0</ele>
        <time>2019-04-26T09:39:43.000Z</time>
      </trkpt>
      <trkpt lat="42.40523910522461" lon="-7.211904048919678">
        <ele>436.0</ele>
        <time>2019-04-26T09:39:54.000Z</time>
      </trkpt>
      <trkpt lat="42.40536880493164" lon="-7.211847305297852">
        <ele>434.0</ele>
        <time>2019-04-26T09:40:06.000Z</time>
      </trkpt>
      <trkpt lat="42.405391693115234" lon="-7.211836814880371">
        <ele>434.0</ele>
        <time>2019-04-26T09:40:07.000Z</time>
      </trkpt>
      <trkpt lat="42.405399322509766" lon="-7.211831092834473">
        <ele>434.0</ele>
        <time>2019-04-26T09:40:08.000Z</time>
      </trkpt>
      <trkpt lat="42.405399322509766" lon="-7.211828708648682">
        <ele>434.0</ele>
        <time>2019-04-26T09:40:09.000Z</time>
      </trkpt>
      <trkpt lat="42.405391693115234" lon="-7.211828231811523">
        <ele>434.0</ele>
        <time>2019-04-26T09:40:10.000Z</time>
      </trkpt>
      <trkpt lat="42.4054069519043" lon="-7.211799621582031">
        <ele>431.0</ele>
        <time>2019-04-26T09:40:25.000Z</time>
      </trkpt>
      <trkpt lat="42.40542221069336" lon="-7.211762428283691">
        <ele>428.0</ele>
        <time>2019-04-26T09:40:41.000Z</time>
      </trkpt>
      <trkpt lat="42.40542984008789" lon="-7.21174955368042">
        <ele>428.0</ele>
        <time>2019-04-26T09:40:41.000Z</time>
      </trkpt>
      <trkpt lat="42.405433654785156" lon="-7.211738586425781">
        <ele>427.0</ele>
        <time>2019-04-26T09:40:41.000Z</time>
      </trkpt>
      <trkpt lat="42.40543746948242" lon="-7.211728572845459">
        <ele>428.0</ele>
        <time>2019-04-26T09:40:42.000Z</time>
      </trkpt>
      <trkpt lat="42.40544128417969" lon="-7.211719036102295">
        <ele>428.0</ele>
        <time>2019-04-26T09:40:42.000Z</time>
      </trkpt>
      <trkpt lat="42.405460357666016" lon="-7.211673736572266">
        <ele>428.0</ele>
        <time>2019-04-26T09:40:43.000Z</time>
      </trkpt>
      <trkpt lat="42.40548324584961" lon="-7.211613655090332">
        <ele>428.0</ele>
        <time>2019-04-26T09:40:44.000Z</time>
      </trkpt>
      <trkpt lat="42.4055061340332" lon="-7.211543560028076">
        <ele>428.0</ele>
        <time>2019-04-26T09:40:45.000Z</time>
      </trkpt>
      <trkpt lat="42.40553283691406" lon="-7.2114691734313965">
        <ele>428.0</ele>
        <time>2019-04-26T09:40:46.000Z</time>
      </trkpt>
      <trkpt lat="42.40556716918945" lon="-7.211435317993164">
        <ele>428.0</ele>
        <time>2019-04-26T09:40:49.000Z</time>
      </trkpt>
      <trkpt lat="42.40560531616211" lon="-7.211414337158203">
        <ele>428.0</ele>
        <time>2019-04-26T09:40:52.000Z</time>
      </trkpt>
      <trkpt lat="42.40564727783203" lon="-7.211400985717773">
        <ele>428.0</ele>
        <time>2019-04-26T09:40:55.000Z</time>
      </trkpt>
      <trkpt lat="42.40569305419922" lon="-7.211391925811768">
        <ele>427.0</ele>
        <time>2019-04-26T09:40:58.000Z</time>
      </trkpt>
      <trkpt lat="42.40576171875" lon="-7.211358070373535">
        <ele>428.0</ele>
        <time>2019-04-26T09:41:04.000Z</time>
      </trkpt>
      <trkpt lat="42.40584182739258" lon="-7.211317539215088">
        <ele>428.0</ele>
        <time>2019-04-26T09:41:11.000Z</time>
      </trkpt>
      <trkpt lat="42.40593338012695" lon="-7.211273193359375">
        <ele>429.0</ele>
        <time>2019-04-26T09:41:17.000Z</time>
      </trkpt>
      <trkpt lat="42.40602493286133" lon="-7.211226940155029">
        <ele>430.0</ele>
        <time>2019-04-26T09:41:24.000Z</time>
      </trkpt>
      <trkpt lat="42.40609359741211" lon="-7.211270332336426">
        <ele>431.0</ele>
        <time>2019-04-26T09:41:32.000Z</time>
      </trkpt>
      <trkpt lat="42.406158447265625" lon="-7.211348533630371">
        <ele>432.0</ele>
        <time>2019-04-26T09:41:40.000Z</time>
      </trkpt>
      <trkpt lat="42.406219482421875" lon="-7.211450099945068">
        <ele>433.0</ele>
        <time>2019-04-26T09:41:48.000Z</time>
      </trkpt>
      <trkpt lat="42.406280517578125" lon="-7.211564064025879">
        <ele>433.0</ele>
        <time>2019-04-26T09:41:56.000Z</time>
      </trkpt>
      <trkpt lat="42.406349182128906" lon="-7.211642742156982">
        <ele>434.0</ele>
        <time>2019-04-26T09:42:03.000Z</time>
      </trkpt>
      <trkpt lat="42.40641784667969" lon="-7.211719989776611">
        <ele>435.0</ele>
        <time>2019-04-26T09:42:10.000Z</time>
      </trkpt>
      <trkpt lat="42.406490325927734" lon="-7.211795330047607">
        <ele>436.0</ele>
        <time>2019-04-26T09:42:17.000Z</time>
      </trkpt>
      <trkpt lat="42.40656280517578" lon="-7.211870193481445">
        <ele>436.0</ele>
        <time>2019-04-26T09:42:24.000Z</time>
      </trkpt>
      <trkpt lat="42.40663528442383" lon="-7.211937427520752">
        <ele>436.0</ele>
        <time>2019-04-26T09:42:31.000Z</time>
      </trkpt>
      <trkpt lat="42.406707763671875" lon="-7.212000370025635">
        <ele>436.0</ele>
        <time>2019-04-26T09:42:38.000Z</time>
      </trkpt>
      <trkpt lat="42.40678024291992" lon="-7.212061405181885">
        <ele>435.0</ele>
        <time>2019-04-26T09:42:46.000Z</time>
      </trkpt>
      <trkpt lat="42.406856536865234" lon="-7.212120532989502">
        <ele>435.0</ele>
        <time>2019-04-26T09:42:53.000Z</time>
      </trkpt>
      <trkpt lat="42.406925201416016" lon="-7.2121901512146">
        <ele>435.0</ele>
        <time>2019-04-26T09:43:00.000Z</time>
      </trkpt>
      <trkpt lat="42.4069938659668" lon="-7.212262153625488">
        <ele>434.0</ele>
        <time>2019-04-26T09:43:07.000Z</time>
      </trkpt>
      <trkpt lat="42.40706253051758" lon="-7.212336540222168">
        <ele>434.0</ele>
        <time>2019-04-26T09:43:15.000Z</time>
      </trkpt>
      <trkpt lat="42.40713119506836" lon="-7.212411403656006">
        <ele>434.0</ele>
        <time>2019-04-26T09:43:22.000Z</time>
      </trkpt>
      <trkpt lat="42.40717315673828" lon="-7.212471961975098">
        <ele>434.0</ele>
        <time>2019-04-26T09:43:25.000Z</time>
      </trkpt>
      <trkpt lat="42.407196044921875" lon="-7.212527751922607">
        <ele>434.0</ele>
        <time>2019-04-26T09:43:29.000Z</time>
      </trkpt>
      <trkpt lat="42.4072151184082" lon="-7.21258020401001">
        <ele>434.0</ele>
        <time>2019-04-26T09:43:32.000Z</time>
      </trkpt>
      <trkpt lat="42.4072265625" lon="-7.212630748748779">
        <ele>434.0</ele>
        <time>2019-04-26T09:43:36.000Z</time>
      </trkpt>
      <trkpt lat="42.4072380065918" lon="-7.212690353393555">
        <ele>433.0</ele>
        <time>2019-04-26T09:43:40.000Z</time>
      </trkpt>
      <trkpt lat="42.40724563598633" lon="-7.212752819061279">
        <ele>433.0</ele>
        <time>2019-04-26T09:43:44.000Z</time>
      </trkpt>
      <trkpt lat="42.40725326538086" lon="-7.2128167152404785">
        <ele>433.0</ele>
        <time>2019-04-26T09:43:48.000Z</time>
      </trkpt>
      <trkpt lat="42.407257080078125" lon="-7.212881088256836">
        <ele>432.0</ele>
        <time>2019-04-26T09:43:52.000Z</time>
      </trkpt>
      <trkpt lat="42.4073486328125" lon="-7.2133355140686035">
        <ele>429.0</ele>
        <time>2019-04-26T09:44:24.000Z</time>
      </trkpt>
      <trkpt lat="42.40752029418945" lon="-7.213755130767822">
        <ele>426.0</ele>
        <time>2019-04-26T09:44:55.000Z</time>
      </trkpt>
      <trkpt lat="42.407718658447266" lon="-7.214134693145752">
        <ele>427.0</ele>
        <time>2019-04-26T09:45:23.000Z</time>
      </trkpt>
      <trkpt lat="42.40780258178711" lon="-7.214319705963135">
        <ele>427.0</ele>
        <time>2019-04-26T09:45:32.000Z</time>
      </trkpt>
      <trkpt lat="42.4078483581543" lon="-7.214339256286621">
        <ele>426.0</ele>
        <time>2019-04-26T09:45:37.000Z</time>
      </trkpt>
      <trkpt lat="42.40790557861328" lon="-7.214347839355469">
        <ele>426.0</ele>
        <time>2019-04-26T09:45:42.000Z</time>
      </trkpt>
      <trkpt lat="42.4079704284668" lon="-7.214348793029785">
        <ele>426.0</ele>
        <time>2019-04-26T09:45:48.000Z</time>
      </trkpt>
      <trkpt lat="42.40803527832031" lon="-7.214345932006836">
        <ele>426.0</ele>
        <time>2019-04-26T09:45:53.000Z</time>
      </trkpt>
      <trkpt lat="42.408111572265625" lon="-7.214372634887695">
        <ele>426.0</ele>
        <time>2019-04-26T09:46:00.000Z</time>
      </trkpt>
      <trkpt lat="42.40819549560547" lon="-7.214407444000244">
        <ele>426.0</ele>
        <time>2019-04-26T09:46:06.000Z</time>
      </trkpt>
      <trkpt lat="42.40828323364258" lon="-7.214447975158691">
        <ele>426.0</ele>
        <time>2019-04-26T09:46:13.000Z</time>
      </trkpt>
      <trkpt lat="42.40837478637695" lon="-7.214491367340088">
        <ele>425.0</ele>
        <time>2019-04-26T09:46:20.000Z</time>
      </trkpt>
      <trkpt lat="42.40842819213867" lon="-7.214528560638428">
        <ele>426.0</ele>
        <time>2019-04-26T09:46:24.000Z</time>
      </trkpt>
      <trkpt lat="42.408470153808594" lon="-7.214566230773926">
        <ele>426.0</ele>
        <time>2019-04-26T09:46:28.000Z</time>
      </trkpt>
      <trkpt lat="42.40850830078125" lon="-7.214603900909424">
        <ele>427.0</ele>
        <time>2019-04-26T09:46:32.000Z</time>
      </trkpt>
      <trkpt lat="42.408538818359375" lon="-7.21464204788208">
        <ele>427.0</ele>
        <time>2019-04-26T09:46:36.000Z</time>
      </trkpt>
      <trkpt lat="42.40857696533203" lon="-7.2146830558776855">
        <ele>426.0</ele>
        <time>2019-04-26T09:46:41.000Z</time>
      </trkpt>
      <trkpt lat="42.40861129760742" lon="-7.214725494384766">
        <ele>424.0</ele>
        <time>2019-04-26T09:46:46.000Z</time>
      </trkpt>
      <trkpt lat="42.40864562988281" lon="-7.214768886566162">
        <ele>422.0</ele>
        <time>2019-04-26T09:46:52.000Z</time>
      </trkpt>
      <trkpt lat="42.40868377685547" lon="-7.214813232421875">
        <ele>419.0</ele>
        <time>2019-04-26T09:46:57.000Z</time>
      </trkpt>
      <trkpt lat="42.408721923828125" lon="-7.214846611022949">
        <ele>418.0</ele>
        <time>2019-04-26T09:47:01.000Z</time>
      </trkpt>
      <trkpt lat="42.40876007080078" lon="-7.214876651763916">
        <ele>417.0</ele>
        <time>2019-04-26T09:47:05.000Z</time>
      </trkpt>
      <trkpt lat="42.4088020324707" lon="-7.214903831481934">
        <ele>417.0</ele>
        <time>2019-04-26T09:47:09.000Z</time>
      </trkpt>
      <trkpt lat="42.40884017944336" lon="-7.214930057525635">
        <ele>417.0</ele>
        <time>2019-04-26T09:47:13.000Z</time>
      </trkpt>
      <trkpt lat="42.40888214111328" lon="-7.214959621429443">
        <ele>416.0</ele>
        <time>2019-04-26T09:47:16.000Z</time>
      </trkpt>
      <trkpt lat="42.4089241027832" lon="-7.214989185333252">
        <ele>416.0</ele>
        <time>2019-04-26T09:47:18.000Z</time>
      </trkpt>
      <trkpt lat="42.408966064453125" lon="-7.215018272399902">
        <ele>416.0</ele>
        <time>2019-04-26T09:47:21.000Z</time>
      </trkpt>
      <trkpt lat="42.40900802612305" lon="-7.215047836303711">
        <ele>415.0</ele>
        <time>2019-04-26T09:47:24.000Z</time>
      </trkpt>
      <trkpt lat="42.40929412841797" lon="-7.215333938598633">
        <ele>414.0</ele>
        <time>2019-04-26T09:47:56.000Z</time>
      </trkpt>
      <trkpt lat="42.40960693359375" lon="-7.215545177459717">
        <ele>415.0</ele>
        <time>2019-04-26T09:48:26.000Z</time>
      </trkpt>
      <trkpt lat="42.40968322753906" lon="-7.215522766113281">
        <ele>415.0</ele>
        <time>2019-04-26T09:48:33.000Z</time>
      </trkpt>
      <trkpt lat="42.409759521484375" lon="-7.215468406677246">
        <ele>415.0</ele>
        <time>2019-04-26T09:48:40.000Z</time>
      </trkpt>
      <trkpt lat="42.40983581542969" lon="-7.215393543243408">
        <ele>414.0</ele>
        <time>2019-04-26T09:48:48.000Z</time>
      </trkpt>
      <trkpt lat="42.409912109375" lon="-7.215307712554932">
        <ele>413.0</ele>
        <time>2019-04-26T09:48:55.000Z</time>
      </trkpt>
      <trkpt lat="42.40997314453125" lon="-7.215225696563721">
        <ele>413.0</ele>
        <time>2019-04-26T09:49:02.000Z</time>
      </trkpt>
      <trkpt lat="42.410030364990234" lon="-7.215134620666504">
        <ele>413.0</ele>
        <time>2019-04-26T09:49:09.000Z</time>
      </trkpt>
      <trkpt lat="42.41007995605469" lon="-7.2150373458862305">
        <ele>413.0</ele>
        <time>2019-04-26T09:49:16.000Z</time>
      </trkpt>
      <trkpt lat="42.41012954711914" lon="-7.21493673324585">
        <ele>414.0</ele>
        <time>2019-04-26T09:49:23.000Z</time>
      </trkpt>
      <trkpt lat="42.410179138183594" lon="-7.214901924133301">
        <ele>414.0</ele>
        <time>2019-04-26T09:49:27.000Z</time>
      </trkpt>
      <trkpt lat="42.41022872924805" lon="-7.214890956878662">
        <ele>414.0</ele>
        <time>2019-04-26T09:49:31.000Z</time>
      </trkpt>
      <trkpt lat="42.410274505615234" lon="-7.214895725250244">
        <ele>414.0</ele>
        <time>2019-04-26T09:49:36.000Z</time>
      </trkpt>
      <trkpt lat="42.410316467285156" lon="-7.214909076690674">
        <ele>414.0</ele>
        <time>2019-04-26T09:49:40.000Z</time>
      </trkpt>
      <trkpt lat="42.41035842895508" lon="-7.214931964874268">
        <ele>413.0</ele>
        <time>2019-04-26T09:49:44.000Z</time>
      </trkpt>
      <trkpt lat="42.410396575927734" lon="-7.214967727661133">
        <ele>413.0</ele>
        <time>2019-04-26T09:49:48.000Z</time>
      </trkpt>
      <trkpt lat="42.41043472290039" lon="-7.2150115966796875">
        <ele>413.0</ele>
        <time>2019-04-26T09:49:53.000Z</time>
      </trkpt>
      <trkpt lat="42.41046905517578" lon="-7.215059757232666">
        <ele>412.0</ele>
        <time>2019-04-26T09:49:57.000Z</time>
      </trkpt>
      <trkpt lat="42.410526275634766" lon="-7.21512508392334">
        <ele>412.0</ele>
        <time>2019-04-26T09:50:04.000Z</time>
      </trkpt>
      <trkpt lat="42.410587310791016" lon="-7.215202331542969">
        <ele>411.0</ele>
        <time>2019-04-26T09:50:11.000Z</time>
      </trkpt>
      <trkpt lat="42.41065216064453" lon="-7.215287685394287">
        <ele>411.0</ele>
        <time>2019-04-26T09:50:18.000Z</time>
      </trkpt>
      <trkpt lat="42.41072082519531" lon="-7.215376377105713">
        <ele>411.0</ele>
        <time>2019-04-26T09:50:25.000Z</time>
      </trkpt>
      <trkpt lat="42.4107780456543" lon="-7.21546745300293">
        <ele>411.0</ele>
        <time>2019-04-26T09:50:31.000Z</time>
      </trkpt>
      <trkpt lat="42.410831451416016" lon="-7.215563774108887">
        <ele>411.0</ele>
        <time>2019-04-26T09:50:37.000Z</time>
      </trkpt>
      <trkpt lat="42.41088104248047" lon="-7.215662956237793">
        <ele>412.0</ele>
        <time>2019-04-26T09:50:44.000Z</time>
      </trkpt>
      <trkpt lat="42.41093444824219" lon="-7.215764045715332">
        <ele>412.0</ele>
        <time>2019-04-26T09:50:50.000Z</time>
      </trkpt>
      <trkpt lat="42.41098403930664" lon="-7.215864181518555">
        <ele>413.0</ele>
        <time>2019-04-26T09:50:57.000Z</time>
      </trkpt>
      <trkpt lat="42.41102981567383" lon="-7.215965747833252">
        <ele>414.0</ele>
        <time>2019-04-26T09:51:04.000Z</time>
      </trkpt>
      <trkpt lat="42.41107940673828" lon="-7.216068267822266">
        <ele>414.0</ele>
        <time>2019-04-26T09:51:11.000Z</time>
      </trkpt>
      <trkpt lat="42.41112518310547" lon="-7.2161712646484375">
        <ele>415.0</ele>
        <time>2019-04-26T09:51:18.000Z</time>
      </trkpt>
      <trkpt lat="42.41116714477539" lon="-7.216276168823242">
        <ele>416.0</ele>
        <time>2019-04-26T09:51:25.000Z</time>
      </trkpt>
      <trkpt lat="42.41120910644531" lon="-7.2163825035095215">
        <ele>417.0</ele>
        <time>2019-04-26T09:51:32.000Z</time>
      </trkpt>
      <trkpt lat="42.41124725341797" lon="-7.216489791870117">
        <ele>417.0</ele>
        <time>2019-04-26T09:51:40.000Z</time>
      </trkpt>
      <trkpt lat="42.411285400390625" lon="-7.216597557067871">
        <ele>418.0</ele>
        <time>2019-04-26T09:51:47.000Z</time>
      </trkpt>
      <trkpt lat="42.41133117675781" lon="-7.216701030731201">
        <ele>418.0</ele>
        <time>2019-04-26T09:51:55.000Z</time>
      </trkpt>
      <trkpt lat="42.411376953125" lon="-7.216802597045898">
        <ele>418.0</ele>
        <time>2019-04-26T09:52:03.000Z</time>
      </trkpt>
      <trkpt lat="42.41142654418945" lon="-7.216903209686279">
        <ele>417.0</ele>
        <time>2019-04-26T09:52:11.000Z</time>
      </trkpt>
      <trkpt lat="42.41147232055664" lon="-7.217003345489502">
        <ele>416.0</ele>
        <time>2019-04-26T09:52:19.000Z</time>
      </trkpt>
      <trkpt lat="42.41160583496094" lon="-7.2174458503723145">
        <ele>418.0</ele>
        <time>2019-04-26T09:52:47.000Z</time>
      </trkpt>
      <trkpt lat="42.411720275878906" lon="-7.217625141143799">
        <ele>418.0</ele>
        <time>2019-04-26T09:53:00.000Z</time>
      </trkpt>
      <trkpt lat="42.41185760498047" lon="-7.217784404754639">
        <ele>418.0</ele>
        <time>2019-04-26T09:53:14.000Z</time>
      </trkpt>
      <trkpt lat="42.411922454833984" lon="-7.217864036560059">
        <ele>418.0</ele>
        <time>2019-04-26T09:53:21.000Z</time>
      </trkpt>
      <trkpt lat="42.4119873046875" lon="-7.217942237854004">
        <ele>418.0</ele>
        <time>2019-04-26T09:53:27.000Z</time>
      </trkpt>
      <trkpt lat="42.41205596923828" lon="-7.218019008636475">
        <ele>418.0</ele>
        <time>2019-04-26T09:53:34.000Z</time>
      </trkpt>
      <trkpt lat="42.41212463378906" lon="-7.218095302581787">
        <ele>418.0</ele>
        <time>2019-04-26T09:53:41.000Z</time>
      </trkpt>
      <trkpt lat="42.41218566894531" lon="-7.218178749084473">
        <ele>418.0</ele>
        <time>2019-04-26T09:53:48.000Z</time>
      </trkpt>
      <trkpt lat="42.41225051879883" lon="-7.218264579772949">
        <ele>417.0</ele>
        <time>2019-04-26T09:53:54.000Z</time>
      </trkpt>
      <trkpt lat="42.41231155395508" lon="-7.218351364135742">
        <ele>417.0</ele>
        <time>2019-04-26T09:54:01.000Z</time>
      </trkpt>
      <trkpt lat="42.41237258911133" lon="-7.21843957901001">
        <ele>416.0</ele>
        <time>2019-04-26T09:54:08.000Z</time>
      </trkpt>
      <trkpt lat="42.41244125366211" lon="-7.218512535095215">
        <ele>415.0</ele>
        <time>2019-04-26T09:54:15.000Z</time>
      </trkpt>
      <trkpt lat="42.412513732910156" lon="-7.218580722808838">
        <ele>415.0</ele>
        <time>2019-04-26T09:54:23.000Z</time>
      </trkpt>
      <trkpt lat="42.4125862121582" lon="-7.218644618988037">
        <ele>415.0</ele>
        <time>2019-04-26T09:54:30.000Z</time>
      </trkpt>
      <trkpt lat="42.412662506103516" lon="-7.218707084655762">
        <ele>415.0</ele>
        <time>2019-04-26T09:54:38.000Z</time>
      </trkpt>
      <trkpt lat="42.41273498535156" lon="-7.2187700271606445">
        <ele>414.0</ele>
        <time>2019-04-26T09:54:45.000Z</time>
      </trkpt>
      <trkpt lat="42.41280746459961" lon="-7.2188310623168945">
        <ele>414.0</ele>
        <time>2019-04-26T09:54:53.000Z</time>
      </trkpt>
      <trkpt lat="42.41288375854492" lon="-7.21889066696167">
        <ele>413.0</ele>
        <time>2019-04-26T09:55:00.000Z</time>
      </trkpt>
      <trkpt lat="42.41295623779297" lon="-7.218950271606445">
        <ele>413.0</ele>
        <time>2019-04-26T09:55:08.000Z</time>
      </trkpt>
      <trkpt lat="42.41299819946289" lon="-7.218974590301514">
        <ele>412.0</ele>
        <time>2019-04-26T09:55:10.000Z</time>
      </trkpt>
      <trkpt lat="42.41302490234375" lon="-7.218984127044678">
        <ele>412.0</ele>
        <time>2019-04-26T09:55:13.000Z</time>
      </trkpt>
      <trkpt lat="42.41304397583008" lon="-7.2189836502075195">
        <ele>413.0</ele>
        <time>2019-04-26T09:55:15.000Z</time>
      </trkpt>
      <trkpt lat="42.413055419921875" lon="-7.218977928161621">
        <ele>413.0</ele>
        <time>2019-04-26T09:55:18.000Z</time>
      </trkpt>
      <trkpt lat="42.41305923461914" lon="-7.218990802764893">
        <ele>413.0</ele>
        <time>2019-04-26T09:55:20.000Z</time>
      </trkpt>
      <trkpt lat="42.413055419921875" lon="-7.219006538391113">
        <ele>413.0</ele>
        <time>2019-04-26T09:55:22.000Z</time>
      </trkpt>
      <trkpt lat="42.41304397583008" lon="-7.219023704528809">
        <ele>413.0</ele>
        <time>2019-04-26T09:55:24.000Z</time>
      </trkpt>
      <trkpt lat="42.41303253173828" lon="-7.21904182434082">
        <ele>413.0</ele>
        <time>2019-04-26T09:55:26.000Z</time>
      </trkpt>
      <trkpt lat="42.41304397583008" lon="-7.219054698944092">
        <ele>413.0</ele>
        <time>2019-04-26T09:55:42.000Z</time>
      </trkpt>
      <trkpt lat="42.413063049316406" lon="-7.219066619873047">
        <ele>414.0</ele>
        <time>2019-04-26T09:55:59.000Z</time>
      </trkpt>
      <trkpt lat="42.4130859375" lon="-7.219077110290527">
        <ele>414.0</ele>
        <time>2019-04-26T09:56:15.000Z</time>
      </trkpt>
      <trkpt lat="42.41311264038086" lon="-7.219087600708008">
        <ele>415.0</ele>
        <time>2019-04-26T09:56:32.000Z</time>
      </trkpt>
      <trkpt lat="42.413124084472656" lon="-7.219094276428223">
        <ele>415.0</ele>
        <time>2019-04-26T09:56:32.000Z</time>
      </trkpt>
      <trkpt lat="42.41313171386719" lon="-7.219099044799805">
        <ele>415.0</ele>
        <time>2019-04-26T09:56:32.000Z</time>
      </trkpt>
      <trkpt lat="42.41313934326172" lon="-7.21910285949707">
        <ele>415.0</ele>
        <time>2019-04-26T09:56:33.000Z</time>
      </trkpt>
      <trkpt lat="42.413143157958984" lon="-7.2191057205200195">
        <ele>415.0</ele>
        <time>2019-04-26T09:56:33.000Z</time>
      </trkpt>
      <trkpt lat="42.41319274902344" lon="-7.219154357910156">
        <ele>414.0</ele>
        <time>2019-04-26T09:56:40.000Z</time>
      </trkpt>
      <trkpt lat="42.41326141357422" lon="-7.219222068786621">
        <ele>413.0</ele>
        <time>2019-04-26T09:56:46.000Z</time>
      </trkpt>
      <trkpt lat="42.41334533691406" lon="-7.219301700592041">
        <ele>412.0</ele>
        <time>2019-04-26T09:56:53.000Z</time>
      </trkpt>
      <trkpt lat="42.413429260253906" lon="-7.219387531280518">
        <ele>411.0</ele>
        <time>2019-04-26T09:57:00.000Z</time>
      </trkpt>
      <trkpt lat="42.41349792480469" lon="-7.2194647789001465">
        <ele>410.0</ele>
        <time>2019-04-26T09:57:07.000Z</time>
      </trkpt>
      <trkpt lat="42.41356658935547" lon="-7.219544410705566">
        <ele>410.0</ele>
        <time>2019-04-26T09:57:15.000Z</time>
      </trkpt>
      <trkpt lat="42.413631439208984" lon="-7.219625949859619">
        <ele>409.0</ele>
        <time>2019-04-26T09:57:22.000Z</time>
      </trkpt>
      <trkpt lat="42.413692474365234" lon="-7.21970796585083">
        <ele>408.0</ele>
        <time>2019-04-26T09:57:30.000Z</time>
      </trkpt>
      <trkpt lat="42.41373825073242" lon="-7.219793319702148">
        <ele>407.0</ele>
        <time>2019-04-26T09:57:37.000Z</time>
      </trkpt>
      <trkpt lat="42.41377639770508" lon="-7.2198805809021">
        <ele>406.0</ele>
        <time>2019-04-26T09:57:44.000Z</time>
      </trkpt>
      <trkpt lat="42.4138069152832" lon="-7.219969272613525">
        <ele>405.0</ele>
        <time>2019-04-26T09:57:51.000Z</time>
      </trkpt>
      <trkpt lat="42.41383361816406" lon="-7.220058917999268">
        <ele>404.0</ele>
        <time>2019-04-26T09:57:58.000Z</time>
      </trkpt>
      <trkpt lat="42.413856506347656" lon="-7.2200927734375">
        <ele>403.0</ele>
        <time>2019-04-26T09:57:59.000Z</time>
      </trkpt>
      <trkpt lat="42.41387939453125" lon="-7.220104217529297">
        <ele>403.0</ele>
        <time>2019-04-26T09:58:01.000Z</time>
      </trkpt>
      <trkpt lat="42.41389846801758" lon="-7.2201008796691895">
        <ele>403.0</ele>
        <time>2019-04-26T09:58:02.000Z</time>
      </trkpt>
      <trkpt lat="42.41391372680664" lon="-7.220089912414551">
        <ele>403.0</ele>
        <time>2019-04-26T09:58:04.000Z</time>
      </trkpt>
      <trkpt lat="42.41397476196289" lon="-7.220125675201416">
        <ele>402.0</ele>
        <time>2019-04-26T09:58:12.000Z</time>
      </trkpt>
      <trkpt lat="42.41405487060547" lon="-7.220173358917236">
        <ele>401.0</ele>
        <time>2019-04-26T09:58:19.000Z</time>
      </trkpt>
      <trkpt lat="42.41414260864258" lon="-7.220229148864746">
        <ele>400.0</ele>
        <time>2019-04-26T09:58:27.000Z</time>
      </trkpt>
      <trkpt lat="42.414241790771484" lon="-7.2202887535095215">
        <ele>399.0</ele>
        <time>2019-04-26T09:58:35.000Z</time>
      </trkpt>
      <trkpt lat="42.414329528808594" lon="-7.220310211181641">
        <ele>398.0</ele>
        <time>2019-04-26T09:58:43.000Z</time>
      </trkpt>
      <trkpt lat="42.4144172668457" lon="-7.220319747924805">
        <ele>398.0</ele>
        <time>2019-04-26T09:58:50.000Z</time>
      </trkpt>
      <trkpt lat="42.41450881958008" lon="-7.220321178436279">
        <ele>398.0</ele>
        <time>2019-04-26T09:58:58.000Z</time>
      </trkpt>
      <trkpt lat="42.41460037231445" lon="-7.220318794250488">
        <ele>399.0</ele>
        <time>2019-04-26T09:59:06.000Z</time>
      </trkpt>
      <trkpt lat="42.41468811035156" lon="-7.22031307220459">
        <ele>398.0</ele>
        <time>2019-04-26T09:59:14.000Z</time>
      </trkpt>
      <trkpt lat="42.41477966308594" lon="-7.220302104949951">
        <ele>396.0</ele>
        <time>2019-04-26T09:59:21.000Z</time>
      </trkpt>
      <trkpt lat="42.41486740112305" lon="-7.220287799835205">
        <ele>395.0</ele>
        <time>2019-04-26T09:59:29.000Z</time>
      </trkpt>
      <trkpt lat="42.414955139160156" lon="-7.220271110534668">
        <ele>393.0</ele>
        <time>2019-04-26T09:59:37.000Z</time>
      </trkpt>
      <trkpt lat="42.415042877197266" lon="-7.220244884490967">
        <ele>392.0</ele>
        <time>2019-04-26T09:59:46.000Z</time>
      </trkpt>
      <trkpt lat="42.41512680053711" lon="-7.220211982727051">
        <ele>391.0</ele>
        <time>2019-04-26T09:59:56.000Z</time>
      </trkpt>
      <trkpt lat="42.41521072387695" lon="-7.220175266265869">
        <ele>390.0</ele>
        <time>2019-04-26T10:00:05.000Z</time>
      </trkpt>
      <trkpt lat="42.4152946472168" lon="-7.220136642456055">
        <ele>389.0</ele>
        <time>2019-04-26T10:00:15.000Z</time>
      </trkpt>
      <trkpt lat="42.41537857055664" lon="-7.220094203948975">
        <ele>389.0</ele>
        <time>2019-04-26T10:00:22.000Z</time>
      </trkpt>
      <trkpt lat="42.415462493896484" lon="-7.220048427581787">
        <ele>388.0</ele>
        <time>2019-04-26T10:00:30.000Z</time>
      </trkpt>
      <trkpt lat="42.41554260253906" lon="-7.21999979019165">
        <ele>388.0</ele>
        <time>2019-04-26T10:00:37.000Z</time>
      </trkpt>
      <trkpt lat="42.41562271118164" lon="-7.219950199127197">
        <ele>388.0</ele>
        <time>2019-04-26T10:00:45.000Z</time>
      </trkpt>
      <trkpt lat="42.4159049987793" lon="-7.219664573669434">
        <ele>380.0</ele>
        <time>2019-04-26T10:01:18.000Z</time>
      </trkpt>
      <trkpt lat="42.41618728637695" lon="-7.219366073608398">
        <ele>379.0</ele>
        <time>2019-04-26T10:01:46.000Z</time>
      </trkpt>
      <trkpt lat="42.416473388671875" lon="-7.219067096710205">
        <ele>383.0</ele>
        <time>2019-04-26T10:02:14.000Z</time>
      </trkpt>
      <trkpt lat="42.41676330566406" lon="-7.218784332275391">
        <ele>381.0</ele>
        <time>2019-04-26T10:02:43.000Z</time>
      </trkpt>
      <trkpt lat="42.416961669921875" lon="-7.218687057495117">
        <ele>384.0</ele>
        <time>2019-04-26T10:02:58.000Z</time>
      </trkpt>
      <trkpt lat="42.41704177856445" lon="-7.218631267547607">
        <ele>387.0</ele>
        <time>2019-04-26T10:03:09.000Z</time>
      </trkpt>
      <trkpt lat="42.417076110839844" lon="-7.218587875366211">
        <ele>385.0</ele>
        <time>2019-04-26T10:03:34.000Z</time>
      </trkpt>
      <trkpt lat="42.41709899902344" lon="-7.218559265136719">
        <ele>385.0</ele>
        <time>2019-04-26T10:03:35.000Z</time>
      </trkpt>
      <trkpt lat="42.417354583740234" lon="-7.21823787689209">
        <ele>384.0</ele>
        <time>2019-04-26T10:03:53.000Z</time>
      </trkpt>
      <trkpt lat="42.41767120361328" lon="-7.218003273010254">
        <ele>380.0</ele>
        <time>2019-04-26T10:04:27.000Z</time>
      </trkpt>
      <trkpt lat="42.41767120361328" lon="-7.217993259429932">
        <ele>380.0</ele>
        <time>2019-04-26T10:04:29.000Z</time>
      </trkpt>
      <trkpt lat="42.41767883300781" lon="-7.217950344085693">
        <ele>381.0</ele>
        <time>2019-04-26T10:04:48.000Z</time>
      </trkpt>
      <trkpt lat="42.417686462402344" lon="-7.217918872833252">
        <ele>381.0</ele>
        <time>2019-04-26T10:04:49.000Z</time>
      </trkpt>
      <trkpt lat="42.41781234741211" lon="-7.217469215393066">
        <ele>387.0</ele>
        <time>2019-04-26T10:05:14.000Z</time>
      </trkpt>
      <trkpt lat="42.417808532714844" lon="-7.217393398284912">
        <ele>388.0</ele>
        <time>2019-04-26T10:05:18.000Z</time>
      </trkpt>
      <trkpt lat="42.41779708862305" lon="-7.217332363128662">
        <ele>389.0</ele>
        <time>2019-04-26T10:05:22.000Z</time>
      </trkpt>
      <trkpt lat="42.41777038574219" lon="-7.217281818389893">
        <ele>391.0</ele>
        <time>2019-04-26T10:05:26.000Z</time>
      </trkpt>
      <trkpt lat="42.41774368286133" lon="-7.217236042022705">
        <ele>392.0</ele>
        <time>2019-04-26T10:05:30.000Z</time>
      </trkpt>
      <trkpt lat="42.41774368286133" lon="-7.2171783447265625">
        <ele>393.0</ele>
        <time>2019-04-26T10:05:34.000Z</time>
      </trkpt>
      <trkpt lat="42.417755126953125" lon="-7.217121124267578">
        <ele>393.0</ele>
        <time>2019-04-26T10:05:38.000Z</time>
      </trkpt>
      <trkpt lat="42.41777038574219" lon="-7.2170634269714355">
        <ele>394.0</ele>
        <time>2019-04-26T10:05:42.000Z</time>
      </trkpt>
      <trkpt lat="42.417789459228516" lon="-7.217006206512451">
        <ele>394.0</ele>
        <time>2019-04-26T10:05:46.000Z</time>
      </trkpt>
      <trkpt lat="42.41780471801758" lon="-7.216962814331055">
        <ele>394.0</ele>
        <time>2019-04-26T10:05:49.000Z</time>
      </trkpt>
      <trkpt lat="42.417823791503906" lon="-7.216924667358398">
        <ele>395.0</ele>
        <time>2019-04-26T10:05:51.000Z</time>
      </trkpt>
      <trkpt lat="42.4178466796875" lon="-7.216890335083008">
        <ele>395.0</ele>
        <time>2019-04-26T10:05:54.000Z</time>
      </trkpt>
      <trkpt lat="42.41786575317383" lon="-7.216858386993408">
        <ele>395.0</ele>
        <time>2019-04-26T10:05:57.000Z</time>
      </trkpt>
      <trkpt lat="42.417911529541016" lon="-7.216845512390137">
        <ele>395.0</ele>
        <time>2019-04-26T10:06:01.000Z</time>
      </trkpt>
      <trkpt lat="42.417972564697266" lon="-7.216843605041504">
        <ele>395.0</ele>
        <time>2019-04-26T10:06:05.000Z</time>
      </trkpt>
      <trkpt lat="42.41804122924805" lon="-7.216847896575928">
        <ele>395.0</ele>
        <time>2019-04-26T10:06:09.000Z</time>
      </trkpt>
      <trkpt lat="42.41810989379883" lon="-7.216856002807617">
        <ele>395.0</ele>
        <time>2019-04-26T10:06:13.000Z</time>
      </trkpt>
      <trkpt lat="42.41818618774414" lon="-7.216857433319092">
        <ele>395.0</ele>
        <time>2019-04-26T10:06:18.000Z</time>
      </trkpt>
      <trkpt lat="42.418270111083984" lon="-7.216859340667725">
        <ele>394.0</ele>
        <time>2019-04-26T10:06:24.000Z</time>
      </trkpt>
      <trkpt lat="42.418357849121094" lon="-7.216862201690674">
        <ele>393.0</ele>
        <time>2019-04-26T10:06:29.000Z</time>
      </trkpt>
      <trkpt lat="42.41844940185547" lon="-7.216865062713623">
        <ele>393.0</ele>
        <time>2019-04-26T10:06:35.000Z</time>
      </trkpt>
      <trkpt lat="42.418487548828125" lon="-7.216846942901611">
        <ele>391.0</ele>
        <time>2019-04-26T10:06:39.000Z</time>
      </trkpt>
      <trkpt lat="42.41851043701172" lon="-7.21682071685791">
        <ele>389.0</ele>
        <time>2019-04-26T10:06:43.000Z</time>
      </trkpt>
      <trkpt lat="42.418521881103516" lon="-7.2167887687683105">
        <ele>386.0</ele>
        <time>2019-04-26T10:06:47.000Z</time>
      </trkpt>
      <trkpt lat="42.41852569580078" lon="-7.21675443649292">
        <ele>384.0</ele>
        <time>2019-04-26T10:06:51.000Z</time>
      </trkpt>
      <trkpt lat="42.41854476928711" lon="-7.216734409332275">
        <ele>382.0</ele>
        <time>2019-04-26T10:06:55.000Z</time>
      </trkpt>
      <trkpt lat="42.41856002807617" lon="-7.2167181968688965">
        <ele>380.0</ele>
        <time>2019-04-26T10:06:59.000Z</time>
      </trkpt>
      <trkpt lat="42.418575286865234" lon="-7.216704368591309">
        <ele>379.0</ele>
        <time>2019-04-26T10:07:04.000Z</time>
      </trkpt>
      <trkpt lat="42.4185905456543" lon="-7.216691493988037">
        <ele>377.0</ele>
        <time>2019-04-26T10:07:08.000Z</time>
      </trkpt>
      <trkpt lat="42.418601989746094" lon="-7.216681480407715">
        <ele>377.0</ele>
        <time>2019-04-26T10:07:08.000Z</time>
      </trkpt>
      <trkpt lat="42.418609619140625" lon="-7.216673851013184">
        <ele>377.0</ele>
        <time>2019-04-26T10:07:08.000Z</time>
      </trkpt>
      <trkpt lat="42.418617248535156" lon="-7.216668128967285">
        <ele>377.0</ele>
        <time>2019-04-26T10:07:09.000Z</time>
      </trkpt>
      <trkpt lat="42.41862106323242" lon="-7.216662883758545">
        <ele>377.0</ele>
        <time>2019-04-26T10:07:09.000Z</time>
      </trkpt>
      <trkpt lat="42.418670654296875" lon="-7.216642379760742">
        <ele>376.0</ele>
        <time>2019-04-26T10:07:14.000Z</time>
      </trkpt>
      <trkpt lat="42.418731689453125" lon="-7.216616153717041">
        <ele>374.0</ele>
        <time>2019-04-26T10:07:18.000Z</time>
      </trkpt>
      <trkpt lat="42.41880798339844" lon="-7.216586112976074">
        <ele>372.0</ele>
        <time>2019-04-26T10:07:23.000Z</time>
      </trkpt>
      <trkpt lat="42.41889190673828" lon="-7.216554164886475">
        <ele>370.0</ele>
        <time>2019-04-26T10:07:28.000Z</time>
      </trkpt>
      <trkpt lat="42.41893005371094" lon="-7.2165446281433105">
        <ele>369.0</ele>
        <time>2019-04-26T10:07:31.000Z</time>
      </trkpt>
      <trkpt lat="42.41896057128906" lon="-7.216542720794678">
        <ele>368.0</ele>
        <time>2019-04-26T10:07:35.000Z</time>
      </trkpt>
      <trkpt lat="42.418983459472656" lon="-7.216545581817627">
        <ele>367.0</ele>
        <time>2019-04-26T10:07:38.000Z</time>
      </trkpt>
      <trkpt lat="42.41899871826172" lon="-7.216550827026367">
        <ele>367.0</ele>
        <time>2019-04-26T10:07:42.000Z</time>
      </trkpt>
      <trkpt lat="42.41901397705078" lon="-7.216550827026367">
        <ele>366.0</ele>
        <time>2019-04-26T10:07:42.000Z</time>
      </trkpt>
      <trkpt lat="42.41902160644531" lon="-7.216550350189209">
        <ele>366.0</ele>
        <time>2019-04-26T10:07:42.000Z</time>
      </trkpt>
      <trkpt lat="42.419029235839844" lon="-7.216550350189209">
        <ele>366.0</ele>
        <time>2019-04-26T10:07:43.000Z</time>
      </trkpt>
      <trkpt lat="42.41903305053711" lon="-7.216550350189209">
        <ele>367.0</ele>
        <time>2019-04-26T10:07:43.000Z</time>
      </trkpt>
      <trkpt lat="42.41926956176758" lon="-7.216518878936768">
        <ele>368.0</ele>
        <time>2019-04-26T10:08:01.000Z</time>
      </trkpt>
      <trkpt lat="42.41929244995117" lon="-7.216502666473389">
        <ele>369.0</ele>
        <time>2019-04-26T10:08:26.000Z</time>
      </trkpt>
      <trkpt lat="42.4193115234375" lon="-7.216490268707275">
        <ele>369.0</ele>
        <time>2019-04-26T10:08:27.000Z</time>
      </trkpt>
      <trkpt lat="42.41933059692383" lon="-7.2164764404296875">
        <ele>369.0</ele>
        <time>2019-04-26T10:08:29.000Z</time>
      </trkpt>
      <trkpt lat="42.419342041015625" lon="-7.2164716720581055">
        <ele>367.0</ele>
        <time>2019-04-26T10:08:38.000Z</time>
      </trkpt>
      <trkpt lat="42.419349670410156" lon="-7.216467380523682">
        <ele>367.0</ele>
        <time>2019-04-26T10:08:39.000Z</time>
      </trkpt>
      <trkpt lat="42.41938781738281" lon="-7.2164506912231445">
        <ele>367.0</ele>
        <time>2019-04-26T10:08:42.000Z</time>
      </trkpt>
      <trkpt lat="42.41941452026367" lon="-7.216436386108398">
        <ele>367.0</ele>
        <time>2019-04-26T10:08:45.000Z</time>
      </trkpt>
      <trkpt lat="42.419437408447266" lon="-7.21642541885376">
        <ele>367.0</ele>
        <time>2019-04-26T10:08:46.000Z</time>
      </trkpt>
      <trkpt lat="42.41945266723633" lon="-7.216418266296387">
        <ele>367.0</ele>
        <time>2019-04-26T10:08:47.000Z</time>
      </trkpt>
      <trkpt lat="42.41946029663086" lon="-7.21641731262207">
        <ele>366.0</ele>
        <time>2019-04-26T10:08:52.000Z</time>
      </trkpt>
      <trkpt lat="42.419464111328125" lon="-7.216416358947754">
        <ele>366.0</ele>
        <time>2019-04-26T10:08:53.000Z</time>
      </trkpt>
      <trkpt lat="42.41947937011719" lon="-7.2164130210876465">
        <ele>366.0</ele>
        <time>2019-04-26T10:08:55.000Z</time>
      </trkpt>
      <trkpt lat="42.419498443603516" lon="-7.21641206741333">
        <ele>366.0</ele>
        <time>2019-04-26T10:09:09.000Z</time>
      </trkpt>
      <trkpt lat="42.41951370239258" lon="-7.2164106369018555">
        <ele>366.0</ele>
        <time>2019-04-26T10:09:10.000Z</time>
      </trkpt>
      <trkpt lat="42.419612884521484" lon="-7.216404914855957">
        <ele>366.0</ele>
        <time>2019-04-26T10:09:13.000Z</time>
      </trkpt>
      <trkpt lat="42.41969680786133" lon="-7.216394901275635">
        <ele>367.0</ele>
        <time>2019-04-26T10:09:17.000Z</time>
      </trkpt>
      <trkpt lat="42.41973876953125" lon="-7.216390132904053">
        <ele>367.0</ele>
        <time>2019-04-26T10:09:18.000Z</time>
      </trkpt>
      <trkpt lat="42.419761657714844" lon="-7.216387748718262">
        <ele>367.0</ele>
        <time>2019-04-26T10:09:19.000Z</time>
      </trkpt>
      <trkpt lat="42.419769287109375" lon="-7.21638822555542">
        <ele>368.0</ele>
        <time>2019-04-26T10:09:26.000Z</time>
      </trkpt>
      <trkpt lat="42.419776916503906" lon="-7.21638822555542">
        <ele>368.0</ele>
        <time>2019-04-26T10:09:27.000Z</time>
      </trkpt>
      <trkpt lat="42.42011260986328" lon="-7.216515064239502">
        <ele>371.0</ele>
        <time>2019-04-26T10:09:46.000Z</time>
      </trkpt>
      <trkpt lat="42.42044448852539" lon="-7.216676235198975">
        <ele>373.0</ele>
        <time>2019-04-26T10:10:17.000Z</time>
      </trkpt>
      <trkpt lat="42.42061233520508" lon="-7.216644763946533">
        <ele>373.0</ele>
        <time>2019-04-26T10:10:31.000Z</time>
      </trkpt>
      <trkpt lat="42.42078399658203" lon="-7.216562271118164">
        <ele>372.0</ele>
        <time>2019-04-26T10:10:45.000Z</time>
      </trkpt>
      <trkpt lat="42.420955657958984" lon="-7.21658182144165">
        <ele>374.0</ele>
        <time>2019-04-26T10:11:01.000Z</time>
      </trkpt>
      <trkpt lat="42.42112731933594" lon="-7.2166361808776855">
        <ele>376.0</ele>
        <time>2019-04-26T10:11:17.000Z</time>
      </trkpt>
      <trkpt lat="42.42121124267578" lon="-7.216681480407715">
        <ele>376.0</ele>
        <time>2019-04-26T10:11:25.000Z</time>
      </trkpt>
      <trkpt lat="42.42129135131836" lon="-7.216737747192383">
        <ele>377.0</ele>
        <time>2019-04-26T10:11:32.000Z</time>
      </trkpt>
      <trkpt lat="42.42136764526367" lon="-7.216801166534424">
        <ele>378.0</ele>
        <time>2019-04-26T10:11:40.000Z</time>
      </trkpt>
      <trkpt lat="42.421443939208984" lon="-7.2168684005737305">
        <ele>378.0</ele>
        <time>2019-04-26T10:11:48.000Z</time>
      </trkpt>
      <trkpt lat="42.42148971557617" lon="-7.216912746429443">
        <ele>379.0</ele>
        <time>2019-04-26T10:11:54.000Z</time>
      </trkpt>
      <trkpt lat="42.42152404785156" lon="-7.216951370239258">
        <ele>379.0</ele>
        <time>2019-04-26T10:11:59.000Z</time>
      </trkpt>
      <trkpt lat="42.421546936035156" lon="-7.216986179351807">
        <ele>378.0</ele>
        <time>2019-04-26T10:12:05.000Z</time>
      </trkpt>
      <trkpt lat="42.421566009521484" lon="-7.2170186042785645">
        <ele>378.0</ele>
        <time>2019-04-26T10:12:11.000Z</time>
      </trkpt>
      <trkpt lat="42.421607971191406" lon="-7.217037200927734">
        <ele>377.0</ele>
        <time>2019-04-26T10:13:37.000Z</time>
      </trkpt>
      <trkpt lat="42.42163848876953" lon="-7.217029094696045">
        <ele>376.0</ele>
        <time>2019-04-26T10:15:04.000Z</time>
      </trkpt>
      <trkpt lat="42.42164993286133" lon="-7.2170305252075195">
        <ele>376.0</ele>
        <time>2019-04-26T10:15:04.000Z</time>
      </trkpt>
      <trkpt lat="42.421661376953125" lon="-7.217031955718994">
        <ele>376.0</ele>
        <time>2019-04-26T10:15:04.000Z</time>
      </trkpt>
      <trkpt lat="42.421669006347656" lon="-7.2170329093933105">
        <ele>376.0</ele>
        <time>2019-04-26T10:15:05.000Z</time>
      </trkpt>
      <trkpt lat="42.42167282104492" lon="-7.217033863067627">
        <ele>376.0</ele>
        <time>2019-04-26T10:15:05.000Z</time>
      </trkpt>
      <trkpt lat="42.42173767089844" lon="-7.2170491218566895">
        <ele>376.0</ele>
        <time>2019-04-26T10:15:10.000Z</time>
      </trkpt>
      <trkpt lat="42.42182159423828" lon="-7.217069625854492">
        <ele>377.0</ele>
        <time>2019-04-26T10:15:16.000Z</time>
      </trkpt>
      <trkpt lat="42.42192459106445" lon="-7.2170939445495605">
        <ele>377.0</ele>
        <time>2019-04-26T10:15:21.000Z</time>
      </trkpt>
      <trkpt lat="42.42203140258789" lon="-7.21712064743042">
        <ele>378.0</ele>
        <time>2019-04-26T10:15:27.000Z</time>
      </trkpt>
      <trkpt lat="42.422119140625" lon="-7.217143535614014">
        <ele>379.0</ele>
        <time>2019-04-26T10:15:34.000Z</time>
      </trkpt>
      <trkpt lat="42.422210693359375" lon="-7.217166423797607">
        <ele>380.0</ele>
        <time>2019-04-26T10:15:42.000Z</time>
      </trkpt>
      <trkpt lat="42.422298431396484" lon="-7.217190265655518">
        <ele>381.0</ele>
        <time>2019-04-26T10:15:49.000Z</time>
      </trkpt>
      <trkpt lat="42.422386169433594" lon="-7.2172136306762695">
        <ele>382.0</ele>
        <time>2019-04-26T10:15:57.000Z</time>
      </trkpt>
      <trkpt lat="42.42246627807617" lon="-7.217236518859863">
        <ele>382.0</ele>
        <time>2019-04-26T10:16:05.000Z</time>
      </trkpt>
      <trkpt lat="42.42254638671875" lon="-7.217259407043457">
        <ele>383.0</ele>
        <time>2019-04-26T10:16:14.000Z</time>
      </trkpt>
      <trkpt lat="42.42262268066406" lon="-7.217282295227051">
        <ele>383.0</ele>
        <time>2019-04-26T10:16:22.000Z</time>
      </trkpt>
      <trkpt lat="42.42269515991211" lon="-7.217304706573486">
        <ele>384.0</ele>
        <time>2019-04-26T10:16:31.000Z</time>
      </trkpt>
      <trkpt lat="42.4227294921875" lon="-7.217313766479492">
        <ele>384.0</ele>
        <time>2019-04-26T10:16:35.000Z</time>
      </trkpt>
      <trkpt lat="42.42274475097656" lon="-7.217317581176758">
        <ele>384.0</ele>
        <time>2019-04-26T10:16:40.000Z</time>
      </trkpt>
      <trkpt lat="42.42274856567383" lon="-7.2173171043396">
        <ele>384.0</ele>
        <time>2019-04-26T10:16:44.000Z</time>
      </trkpt>
      <trkpt lat="42.42274475097656" lon="-7.217314720153809">
        <ele>384.0</ele>
        <time>2019-04-26T10:16:49.000Z</time>
      </trkpt>
      <trkpt lat="42.42277526855469" lon="-7.217321395874023">
        <ele>384.0</ele>
        <time>2019-04-26T10:16:50.000Z</time>
      </trkpt>
      <trkpt lat="42.42313003540039" lon="-7.2174763679504395">
        <ele>384.0</ele>
        <time>2019-04-26T10:17:14.000Z</time>
      </trkpt>
      <trkpt lat="42.42348098754883" lon="-7.217556476593018">
        <ele>379.0</ele>
        <time>2019-04-26T10:17:46.000Z</time>
      </trkpt>
      <trkpt lat="42.42373275756836" lon="-7.21748685836792">
        <ele>378.0</ele>
        <time>2019-04-26T10:18:16.000Z</time>
      </trkpt>
      <trkpt lat="42.423789978027344" lon="-7.217441558837891">
        <ele>376.0</ele>
        <time>2019-04-26T10:18:35.000Z</time>
      </trkpt>
      <trkpt lat="42.42382049560547" lon="-7.2174177169799805">
        <ele>376.0</ele>
        <time>2019-04-26T10:18:36.000Z</time>
      </trkpt>
      <trkpt lat="42.4240608215332" lon="-7.217085361480713">
        <ele>375.0</ele>
        <time>2019-04-26T10:19:00.000Z</time>
      </trkpt>
      <trkpt lat="42.4240837097168" lon="-7.216977596282959">
        <ele>375.0</ele>
        <time>2019-04-26T10:19:07.000Z</time>
      </trkpt>
      <trkpt lat="42.42409133911133" lon="-7.216859817504883">
        <ele>375.0</ele>
        <time>2019-04-26T10:19:14.000Z</time>
      </trkpt>
      <trkpt lat="42.42408752441406" lon="-7.216734886169434">
        <ele>375.0</ele>
        <time>2019-04-26T10:19:21.000Z</time>
      </trkpt>
      <trkpt lat="42.42407989501953" lon="-7.216607093811035">
        <ele>375.0</ele>
        <time>2019-04-26T10:19:28.000Z</time>
      </trkpt>
      <trkpt lat="42.4240837097168" lon="-7.216490745544434">
        <ele>375.0</ele>
        <time>2019-04-26T10:19:35.000Z</time>
      </trkpt>
      <trkpt lat="42.42408752441406" lon="-7.216375827789307">
        <ele>375.0</ele>
        <time>2019-04-26T10:19:43.000Z</time>
      </trkpt>
      <trkpt lat="42.42409133911133" lon="-7.216261863708496">
        <ele>376.0</ele>
        <time>2019-04-26T10:19:50.000Z</time>
      </trkpt>
      <trkpt lat="42.424095153808594" lon="-7.216148376464844">
        <ele>376.0</ele>
        <time>2019-04-26T10:19:58.000Z</time>
      </trkpt>
      <trkpt lat="42.42409133911133" lon="-7.216057777404785">
        <ele>376.0</ele>
        <time>2019-04-26T10:20:03.000Z</time>
      </trkpt>
      <trkpt lat="42.42407989501953" lon="-7.215977668762207">
        <ele>376.0</ele>
        <time>2019-04-26T10:20:08.000Z</time>
      </trkpt>
      <trkpt lat="42.424068450927734" lon="-7.2159037590026855">
        <ele>376.0</ele>
        <time>2019-04-26T10:20:13.000Z</time>
      </trkpt>
      <trkpt lat="42.42405319213867" lon="-7.21583366394043">
        <ele>377.0</ele>
        <time>2019-04-26T10:20:19.000Z</time>
      </trkpt>
      <trkpt lat="42.42404556274414" lon="-7.215762615203857">
        <ele>377.0</ele>
        <time>2019-04-26T10:20:23.000Z</time>
      </trkpt>
      <trkpt lat="42.424041748046875" lon="-7.215694904327393">
        <ele>377.0</ele>
        <time>2019-04-26T10:20:28.000Z</time>
      </trkpt>
      <trkpt lat="42.42403793334961" lon="-7.215629577636719">
        <ele>378.0</ele>
        <time>2019-04-26T10:20:33.000Z</time>
      </trkpt>
      <trkpt lat="42.424034118652344" lon="-7.215564727783203">
        <ele>378.0</ele>
        <time>2019-04-26T10:20:38.000Z</time>
      </trkpt>
      <trkpt lat="42.42403030395508" lon="-7.215529441833496">
        <ele>379.0</ele>
        <time>2019-04-26T10:20:42.000Z</time>
      </trkpt>
      <trkpt lat="42.42403030395508" lon="-7.215507507324219">
        <ele>379.0</ele>
        <time>2019-04-26T10:20:47.000Z</time>
      </trkpt>
      <trkpt lat="42.42402648925781" lon="-7.215494632720947">
        <ele>380.0</ele>
        <time>2019-04-26T10:20:52.000Z</time>
      </trkpt>
      <trkpt lat="42.42402648925781" lon="-7.2154860496521">
        <ele>380.0</ele>
        <time>2019-04-26T10:20:57.000Z</time>
      </trkpt>
      <trkpt lat="42.42402267456055" lon="-7.215472221374512">
        <ele>380.0</ele>
        <time>2019-04-26T10:20:57.000Z</time>
      </trkpt>
      <trkpt lat="42.42402267456055" lon="-7.215460777282715">
        <ele>380.0</ele>
        <time>2019-04-26T10:20:57.000Z</time>
      </trkpt>
      <trkpt lat="42.42402267456055" lon="-7.215450763702393">
        <ele>380.0</ele>
        <time>2019-04-26T10:20:57.000Z</time>
      </trkpt>
      <trkpt lat="42.42402267456055" lon="-7.215442180633545">
        <ele>380.0</ele>
        <time>2019-04-26T10:20:58.000Z</time>
      </trkpt>
      <trkpt lat="42.42404556274414" lon="-7.214983940124512">
        <ele>383.0</ele>
        <time>2019-04-26T10:21:19.000Z</time>
      </trkpt>
      <trkpt lat="42.424049377441406" lon="-7.2148051261901855">
        <ele>384.0</ele>
        <time>2019-04-26T10:21:32.000Z</time>
      </trkpt>
      <trkpt lat="42.424041748046875" lon="-7.21471643447876">
        <ele>385.0</ele>
        <time>2019-04-26T10:21:48.000Z</time>
      </trkpt>
      <trkpt lat="42.42403793334961" lon="-7.214671611785889">
        <ele>385.0</ele>
        <time>2019-04-26T10:21:49.000Z</time>
      </trkpt>
      <trkpt lat="42.423954010009766" lon="-7.214333534240723">
        <ele>387.0</ele>
        <time>2019-04-26T10:22:05.000Z</time>
      </trkpt>
      <trkpt lat="42.423954010009766" lon="-7.214293956756592">
        <ele>387.0</ele>
        <time>2019-04-26T10:22:10.000Z</time>
      </trkpt>
      <trkpt lat="42.4239616394043" lon="-7.214272975921631">
        <ele>386.0</ele>
        <time>2019-04-26T10:22:15.000Z</time>
      </trkpt>
      <trkpt lat="42.42397689819336" lon="-7.214264392852783">
        <ele>386.0</ele>
        <time>2019-04-26T10:22:20.000Z</time>
      </trkpt>
      <trkpt lat="42.42399597167969" lon="-7.214262008666992">
        <ele>385.0</ele>
        <time>2019-04-26T10:22:26.000Z</time>
      </trkpt>
      <trkpt lat="42.42399978637695" lon="-7.214249610900879">
        <ele>385.0</ele>
        <time>2019-04-26T10:22:26.000Z</time>
      </trkpt>
      <trkpt lat="42.424007415771484" lon="-7.214240074157715">
        <ele>385.0</ele>
        <time>2019-04-26T10:22:26.000Z</time>
      </trkpt>
      <trkpt lat="42.42401123046875" lon="-7.214231967926025">
        <ele>385.0</ele>
        <time>2019-04-26T10:22:26.000Z</time>
      </trkpt>
      <trkpt lat="42.424015045166016" lon="-7.214224815368652">
        <ele>385.0</ele>
        <time>2019-04-26T10:22:27.000Z</time>
      </trkpt>
      <trkpt lat="42.42405700683594" lon="-7.2141618728637695">
        <ele>385.0</ele>
        <time>2019-04-26T10:22:34.000Z</time>
      </trkpt>
      <trkpt lat="42.424110412597656" lon="-7.214076042175293">
        <ele>385.0</ele>
        <time>2019-04-26T10:22:41.000Z</time>
      </trkpt>
      <trkpt lat="42.42417526245117" lon="-7.213975429534912">
        <ele>384.0</ele>
        <time>2019-04-26T10:22:48.000Z</time>
      </trkpt>
      <trkpt lat="42.42424392700195" lon="-7.213866710662842">
        <ele>384.0</ele>
        <time>2019-04-26T10:22:55.000Z</time>
      </trkpt>
      <trkpt lat="42.42427444458008" lon="-7.213825225830078">
        <ele>384.0</ele>
        <time>2019-04-26T10:22:57.000Z</time>
      </trkpt>
      <trkpt lat="42.424285888671875" lon="-7.213803768157959">
        <ele>384.0</ele>
        <time>2019-04-26T10:23:00.000Z</time>
      </trkpt>
      <trkpt lat="42.424293518066406" lon="-7.2137956619262695">
        <ele>383.0</ele>
        <time>2019-04-26T10:23:03.000Z</time>
      </trkpt>
      <trkpt lat="42.42429733276367" lon="-7.213794231414795">
        <ele>383.0</ele>
        <time>2019-04-26T10:23:06.000Z</time>
      </trkpt>
      <trkpt lat="42.4243049621582" lon="-7.213778018951416">
        <ele>383.0</ele>
        <time>2019-04-26T10:23:11.000Z</time>
      </trkpt>
      <trkpt lat="42.424312591552734" lon="-7.2137627601623535">
        <ele>383.0</ele>
        <time>2019-04-26T10:23:17.000Z</time>
      </trkpt>
      <trkpt lat="42.424320220947266" lon="-7.213748455047607">
        <ele>382.0</ele>
        <time>2019-04-26T10:23:22.000Z</time>
      </trkpt>
      <trkpt lat="42.42432403564453" lon="-7.213734149932861">
        <ele>382.0</ele>
        <time>2019-04-26T10:23:28.000Z</time>
      </trkpt>
      <trkpt lat="42.4243278503418" lon="-7.2137227058410645">
        <ele>382.0</ele>
        <time>2019-04-26T10:23:28.000Z</time>
      </trkpt>
      <trkpt lat="42.42433547973633" lon="-7.213712692260742">
        <ele>382.0</ele>
        <time>2019-04-26T10:23:28.000Z</time>
      </trkpt>
      <trkpt lat="42.424339294433594" lon="-7.213703632354736">
        <ele>382.0</ele>
        <time>2019-04-26T10:23:28.000Z</time>
      </trkpt>
      <trkpt lat="42.42434310913086" lon="-7.213695526123047">
        <ele>382.0</ele>
        <time>2019-04-26T10:23:29.000Z</time>
      </trkpt>
      <trkpt lat="42.42444610595703" lon="-7.213347911834717">
        <ele>381.0</ele>
        <time>2019-04-26T10:23:39.000Z</time>
      </trkpt>
      <trkpt lat="42.4244499206543" lon="-7.213303565979004">
        <ele>381.0</ele>
        <time>2019-04-26T10:23:42.000Z</time>
      </trkpt>
      <trkpt lat="42.4244384765625" lon="-7.2132768630981445">
        <ele>381.0</ele>
        <time>2019-04-26T10:23:45.000Z</time>
      </trkpt>
      <trkpt lat="42.42441940307617" lon="-7.21326208114624">
        <ele>380.0</ele>
        <time>2019-04-26T10:23:48.000Z</time>
      </trkpt>
      <trkpt lat="42.424400329589844" lon="-7.213253021240234">
        <ele>380.0</ele>
        <time>2019-04-26T10:23:51.000Z</time>
      </trkpt>
      <trkpt lat="42.42439270019531" lon="-7.2132391929626465">
        <ele>380.0</ele>
        <time>2019-04-26T10:23:58.000Z</time>
      </trkpt>
      <trkpt lat="42.42438507080078" lon="-7.213230133056641">
        <ele>379.0</ele>
        <time>2019-04-26T10:24:06.000Z</time>
      </trkpt>
      <trkpt lat="42.42438507080078" lon="-7.213223457336426">
        <ele>379.0</ele>
        <time>2019-04-26T10:24:13.000Z</time>
      </trkpt>
      <trkpt lat="42.424381256103516" lon="-7.2132182121276855">
        <ele>379.0</ele>
        <time>2019-04-26T10:24:21.000Z</time>
      </trkpt>
      <trkpt lat="42.42437744140625" lon="-7.2132110595703125">
        <ele>378.0</ele>
        <time>2019-04-26T10:24:21.000Z</time>
      </trkpt>
      <trkpt lat="42.424373626708984" lon="-7.213204383850098">
        <ele>378.0</ele>
        <time>2019-04-26T10:24:21.000Z</time>
      </trkpt>
      <trkpt lat="42.42436981201172" lon="-7.213197708129883">
        <ele>378.0</ele>
        <time>2019-04-26T10:24:21.000Z</time>
      </trkpt>
      <trkpt lat="42.42436599731445" lon="-7.213191509246826">
        <ele>379.0</ele>
        <time>2019-04-26T10:24:22.000Z</time>
      </trkpt>
      <trkpt lat="42.42435073852539" lon="-7.213156700134277">
        <ele>379.0</ele>
        <time>2019-04-26T10:24:25.000Z</time>
      </trkpt>
      <trkpt lat="42.4243278503418" lon="-7.213109970092773">
        <ele>379.0</ele>
        <time>2019-04-26T10:24:29.000Z</time>
      </trkpt>
      <trkpt lat="42.42430114746094" lon="-7.213055610656738">
        <ele>379.0</ele>
        <time>2019-04-26T10:24:32.000Z</time>
      </trkpt>
      <trkpt lat="42.42427444458008" lon="-7.2129974365234375">
        <ele>379.0</ele>
        <time>2019-04-26T10:24:36.000Z</time>
      </trkpt>
      <trkpt lat="42.424285888671875" lon="-7.212978363037109">
        <ele>379.0</ele>
        <time>2019-04-26T10:24:42.000Z</time>
      </trkpt>
      <trkpt lat="42.424312591552734" lon="-7.212972164154053">
        <ele>380.0</ele>
        <time>2019-04-26T10:24:49.000Z</time>
      </trkpt>
      <trkpt lat="42.42435073852539" lon="-7.2129740715026855">
        <ele>380.0</ele>
        <time>2019-04-26T10:24:55.000Z</time>
      </trkpt>
      <trkpt lat="42.42439651489258" lon="-7.212979793548584">
        <ele>381.0</ele>
        <time>2019-04-26T10:25:02.000Z</time>
      </trkpt>
      <trkpt lat="42.42441177368164" lon="-7.212977886199951">
        <ele>381.0</ele>
        <time>2019-04-26T10:25:02.000Z</time>
      </trkpt>
      <trkpt lat="42.42441940307617" lon="-7.212976455688477">
        <ele>381.0</ele>
        <time>2019-04-26T10:25:02.000Z</time>
      </trkpt>
      <trkpt lat="42.42442321777344" lon="-7.212975978851318">
        <ele>381.0</ele>
        <time>2019-04-26T10:25:02.000Z</time>
      </trkpt>
      <trkpt lat="42.4244270324707" lon="-7.21297550201416">
        <ele>381.0</ele>
        <time>2019-04-26T10:25:03.000Z</time>
      </trkpt>
      <trkpt lat="42.42443084716797" lon="-7.212981700897217">
        <ele>381.0</ele>
        <time>2019-04-26T10:25:05.000Z</time>
      </trkpt>
      <trkpt lat="42.42443084716797" lon="-7.2129902839660645">
        <ele>381.0</ele>
        <time>2019-04-26T10:25:07.000Z</time>
      </trkpt>
      <trkpt lat="42.42443084716797" lon="-7.213001251220703">
        <ele>380.0</ele>
        <time>2019-04-26T10:25:09.000Z</time>
      </trkpt>
      <trkpt lat="42.42443084716797" lon="-7.2130126953125">
        <ele>380.0</ele>
        <time>2019-04-26T10:25:11.000Z</time>
      </trkpt>
      <trkpt lat="42.42443084716797" lon="-7.2130208015441895">
        <ele>380.0</ele>
        <time>2019-04-26T10:25:17.000Z</time>
      </trkpt>
      <trkpt lat="42.424434661865234" lon="-7.2130279541015625">
        <ele>381.0</ele>
        <time>2019-04-26T10:25:24.000Z</time>
      </trkpt>
      <trkpt lat="42.4244384765625" lon="-7.2130351066589355">
        <ele>381.0</ele>
        <time>2019-04-26T10:25:31.000Z</time>
      </trkpt>
      <trkpt lat="42.424442291259766" lon="-7.21304178237915">
        <ele>382.0</ele>
        <time>2019-04-26T10:25:38.000Z</time>
      </trkpt>
      <trkpt lat="42.424442291259766" lon="-7.213047981262207">
        <ele>382.0</ele>
        <time>2019-04-26T10:25:38.000Z</time>
      </trkpt>
      <trkpt lat="42.42444610595703" lon="-7.213054180145264">
        <ele>382.0</ele>
        <time>2019-04-26T10:25:38.000Z</time>
      </trkpt>
      <trkpt lat="42.42444610595703" lon="-7.213059902191162">
        <ele>382.0</ele>
        <time>2019-04-26T10:25:38.000Z</time>
      </trkpt>
      <trkpt lat="42.4244499206543" lon="-7.213065147399902">
        <ele>382.0</ele>
        <time>2019-04-26T10:25:39.000Z</time>
      </trkpt>
      <trkpt lat="42.42445373535156" lon="-7.213070869445801">
        <ele>382.0</ele>
        <time>2019-04-26T10:25:39.000Z</time>
      </trkpt>
      <trkpt lat="42.42445373535156" lon="-7.213076114654541">
        <ele>382.0</ele>
        <time>2019-04-26T10:25:40.000Z</time>
      </trkpt>
      <trkpt lat="42.42445755004883" lon="-7.213081359863281">
        <ele>382.0</ele>
        <time>2019-04-26T10:25:40.000Z</time>
      </trkpt>
      <trkpt lat="42.424461364746094" lon="-7.2130866050720215">
        <ele>382.0</ele>
        <time>2019-04-26T10:25:41.000Z</time>
      </trkpt>
      <trkpt lat="42.424468994140625" lon="-7.213103294372559">
        <ele>382.0</ele>
        <time>2019-04-26T10:25:41.000Z</time>
      </trkpt>
      <trkpt lat="42.42448043823242" lon="-7.213124752044678">
        <ele>382.0</ele>
        <time>2019-04-26T10:25:42.000Z</time>
      </trkpt>
      <trkpt lat="42.424495697021484" lon="-7.213149547576904">
        <ele>382.0</ele>
        <time>2019-04-26T10:25:42.000Z</time>
      </trkpt>
      <trkpt lat="42.42451095581055" lon="-7.213176250457764">
        <ele>382.0</ele>
        <time>2019-04-26T10:25:43.000Z</time>
      </trkpt>
      <trkpt lat="42.42451858520508" lon="-7.213191032409668">
        <ele>382.0</ele>
        <time>2019-04-26T10:25:43.000Z</time>
      </trkpt>
      <trkpt lat="42.42452621459961" lon="-7.213202953338623">
        <ele>382.0</ele>
        <time>2019-04-26T10:25:43.000Z</time>
      </trkpt>
      <trkpt lat="42.424530029296875" lon="-7.213212490081787">
        <ele>382.0</ele>
        <time>2019-04-26T10:25:43.000Z</time>
      </trkpt>
      <trkpt lat="42.42453384399414" lon="-7.213221073150635">
        <ele>382.0</ele>
        <time>2019-04-26T10:25:44.000Z</time>
      </trkpt>
      <trkpt lat="42.424617767333984" lon="-7.213388442993164">
        <ele>382.0</ele>
        <time>2019-04-26T10:25:50.000Z</time>
      </trkpt>
      <trkpt lat="42.42463302612305" lon="-7.213406085968018">
        <ele>382.0</ele>
        <time>2019-04-26T10:26:11.000Z</time>
      </trkpt>
      <trkpt lat="42.42463684082031" lon="-7.2133941650390625">
        <ele>382.0</ele>
        <time>2019-04-26T10:26:32.000Z</time>
      </trkpt>
      <trkpt lat="42.42464065551758" lon="-7.213395118713379">
        <ele>382.0</ele>
        <time>2019-04-26T10:26:32.000Z</time>
      </trkpt>
      <trkpt lat="42.424644470214844" lon="-7.2133965492248535">
        <ele>382.0</ele>
        <time>2019-04-26T10:26:32.000Z</time>
      </trkpt>
      <trkpt lat="42.42464828491211" lon="-7.21339750289917">
        <ele>382.0</ele>
        <time>2019-04-26T10:26:32.000Z</time>
      </trkpt>
      <trkpt lat="42.424652099609375" lon="-7.2133989334106445">
        <ele>382.0</ele>
        <time>2019-04-26T10:26:33.000Z</time>
      </trkpt>
      <trkpt lat="42.42465591430664" lon="-7.213400363922119">
        <ele>382.0</ele>
        <time>2019-04-26T10:26:33.000Z</time>
      </trkpt>
      <trkpt lat="42.424659729003906" lon="-7.2134013175964355">
        <ele>382.0</ele>
        <time>2019-04-26T10:26:34.000Z</time>
      </trkpt>
      <trkpt lat="42.42466354370117" lon="-7.21340274810791">
        <ele>382.0</ele>
        <time>2019-04-26T10:26:34.000Z</time>
      </trkpt>
      <trkpt lat="42.42466735839844" lon="-7.213404655456543">
        <ele>383.0</ele>
        <time>2019-04-26T10:26:35.000Z</time>
      </trkpt>
      <trkpt lat="42.4246711730957" lon="-7.213406085968018">
        <ele>383.0</ele>
        <time>2019-04-26T10:26:38.000Z</time>
      </trkpt>
      <trkpt lat="42.42467498779297" lon="-7.21340799331665">
        <ele>383.0</ele>
        <time>2019-04-26T10:26:41.000Z</time>
      </trkpt>
      <trkpt lat="42.424678802490234" lon="-7.213409900665283">
        <ele>383.0</ele>
        <time>2019-04-26T10:26:44.000Z</time>
      </trkpt>
      <trkpt lat="42.424678802490234" lon="-7.213412284851074">
        <ele>383.0</ele>
        <time>2019-04-26T10:26:47.000Z</time>
      </trkpt>
      <trkpt lat="42.4246826171875" lon="-7.213413715362549">
        <ele>383.0</ele>
        <time>2019-04-26T10:26:47.000Z</time>
      </trkpt>
      <trkpt lat="42.424686431884766" lon="-7.213415622711182">
        <ele>383.0</ele>
        <time>2019-04-26T10:26:47.000Z</time>
      </trkpt>
      <trkpt lat="42.424686431884766" lon="-7.213417053222656">
        <ele>383.0</ele>
        <time>2019-04-26T10:26:47.000Z</time>
      </trkpt>
      <trkpt lat="42.42469024658203" lon="-7.213418960571289">
        <ele>383.0</ele>
        <time>2019-04-26T10:26:48.000Z</time>
      </trkpt>
      <trkpt lat="42.4246940612793" lon="-7.213422775268555">
        <ele>382.0</ele>
        <time>2019-04-26T10:26:48.000Z</time>
      </trkpt>
      <trkpt lat="42.42470169067383" lon="-7.213427543640137">
        <ele>382.0</ele>
        <time>2019-04-26T10:26:49.000Z</time>
      </trkpt>
      <trkpt lat="42.42470932006836" lon="-7.213433265686035">
        <ele>382.0</ele>
        <time>2019-04-26T10:26:49.000Z</time>
      </trkpt>
      <trkpt lat="42.424720764160156" lon="-7.213438987731934">
        <ele>382.0</ele>
        <time>2019-04-26T10:26:50.000Z</time>
      </trkpt>
      <trkpt lat="42.424747467041016" lon="-7.213465690612793">
        <ele>381.0</ele>
        <time>2019-04-26T10:27:11.000Z</time>
      </trkpt>
      <trkpt lat="42.42477035522461" lon="-7.213486671447754">
        <ele>381.0</ele>
        <time>2019-04-26T10:27:12.000Z</time>
      </trkpt>
      <trkpt lat="42.42489242553711" lon="-7.213614463806152">
        <ele>381.0</ele>
        <time>2019-04-26T10:27:16.000Z</time>
      </trkpt>
      <trkpt lat="42.42491912841797" lon="-7.213648796081543">
        <ele>380.0</ele>
        <time>2019-04-26T10:27:54.000Z</time>
      </trkpt>
      <trkpt lat="42.4249382019043" lon="-7.213675498962402">
        <ele>380.0</ele>
        <time>2019-04-26T10:27:55.000Z</time>
      </trkpt>
      <trkpt lat="42.424957275390625" lon="-7.213698387145996">
        <ele>379.0</ele>
        <time>2019-04-26T10:27:57.000Z</time>
      </trkpt>
      <trkpt lat="42.424991607666016" lon="-7.213752269744873">
        <ele>379.0</ele>
        <time>2019-04-26T10:28:00.000Z</time>
      </trkpt>
      <trkpt lat="42.425018310546875" lon="-7.21378755569458">
        <ele>379.0</ele>
        <time>2019-04-26T10:28:01.000Z</time>
      </trkpt>
      <trkpt lat="42.425235748291016" lon="-7.214150428771973">
        <ele>378.0</ele>
        <time>2019-04-26T10:28:25.000Z</time>
      </trkpt>
      <trkpt lat="42.425270080566406" lon="-7.214211463928223">
        <ele>378.0</ele>
        <time>2019-04-26T10:28:35.000Z</time>
      </trkpt>
      <trkpt lat="42.425323486328125" lon="-7.214264392852783">
        <ele>379.0</ele>
        <time>2019-04-26T10:28:56.000Z</time>
      </trkpt>
      <trkpt lat="42.42534637451172" lon="-7.214292049407959">
        <ele>379.0</ele>
        <time>2019-04-26T10:28:57.000Z</time>
      </trkpt>
      <trkpt lat="42.42546463012695" lon="-7.214512825012207">
        <ele>378.0</ele>
        <time>2019-04-26T10:29:09.000Z</time>
      </trkpt>
      <trkpt lat="42.42551040649414" lon="-7.214590072631836">
        <ele>379.0</ele>
        <time>2019-04-26T10:29:25.000Z</time>
      </trkpt>
      <trkpt lat="42.425533294677734" lon="-7.214627742767334">
        <ele>379.0</ele>
        <time>2019-04-26T10:29:26.000Z</time>
      </trkpt>
      <trkpt lat="42.425716400146484" lon="-7.215027332305908">
        <ele>380.0</ele>
        <time>2019-04-26T10:29:48.000Z</time>
      </trkpt>
      <trkpt lat="42.42583465576172" lon="-7.215478897094727">
        <ele>381.0</ele>
        <time>2019-04-26T10:30:19.000Z</time>
      </trkpt>
      <trkpt lat="42.42604446411133" lon="-7.215864181518555">
        <ele>381.0</ele>
        <time>2019-04-26T10:30:51.000Z</time>
      </trkpt>
      <trkpt lat="42.4262580871582" lon="-7.216238975524902">
        <ele>383.0</ele>
        <time>2019-04-26T10:31:27.000Z</time>
      </trkpt>
      <trkpt lat="42.426551818847656" lon="-7.21649694442749">
        <ele>386.0</ele>
        <time>2019-04-26T10:32:09.000Z</time>
      </trkpt>
      <trkpt lat="42.42660903930664" lon="-7.216551780700684">
        <ele>387.0</ele>
        <time>2019-04-26T10:32:19.000Z</time>
      </trkpt>
      <trkpt lat="42.426639556884766" lon="-7.2165751457214355">
        <ele>386.0</ele>
        <time>2019-04-26T10:32:38.000Z</time>
      </trkpt>
      <trkpt lat="42.426658630371094" lon="-7.2165913581848145">
        <ele>386.0</ele>
        <time>2019-04-26T10:32:39.000Z</time>
      </trkpt>
      <trkpt lat="42.426856994628906" lon="-7.216671943664551">
        <ele>387.0</ele>
        <time>2019-04-26T10:32:49.000Z</time>
      </trkpt>
      <trkpt lat="42.4268684387207" lon="-7.216680526733398">
        <ele>387.0</ele>
        <time>2019-04-26T10:33:11.000Z</time>
      </trkpt>
      <trkpt lat="42.426876068115234" lon="-7.21668815612793">
        <ele>387.0</ele>
        <time>2019-04-26T10:33:12.000Z</time>
      </trkpt>
      <trkpt lat="42.42721176147461" lon="-7.216878414154053">
        <ele>389.0</ele>
        <time>2019-04-26T10:33:29.000Z</time>
      </trkpt>
      <trkpt lat="42.42756652832031" lon="-7.2169599533081055">
        <ele>391.0</ele>
        <time>2019-04-26T10:34:00.000Z</time>
      </trkpt>
      <trkpt lat="42.42792892456055" lon="-7.21697998046875">
        <ele>387.0</ele>
        <time>2019-04-26T10:34:34.000Z</time>
      </trkpt>
      <trkpt lat="42.42828369140625" lon="-7.217029571533203">
        <ele>383.0</ele>
        <time>2019-04-26T10:35:00.000Z</time>
      </trkpt>
      <trkpt lat="42.42840576171875" lon="-7.217072010040283">
        <ele>383.0</ele>
        <time>2019-04-26T10:35:09.000Z</time>
      </trkpt>
      <trkpt lat="42.4284782409668" lon="-7.2171854972839355">
        <ele>382.0</ele>
        <time>2019-04-26T10:35:20.000Z</time>
      </trkpt>
      <trkpt lat="42.428558349609375" lon="-7.217341899871826">
        <ele>380.0</ele>
        <time>2019-04-26T10:35:31.000Z</time>
      </trkpt>
      <trkpt lat="42.42859649658203" lon="-7.217437744140625">
        <ele>379.0</ele>
        <time>2019-04-26T10:35:38.000Z</time>
      </trkpt>
      <trkpt lat="42.42863464355469" lon="-7.217545986175537">
        <ele>378.0</ele>
        <time>2019-04-26T10:35:46.000Z</time>
      </trkpt>
      <trkpt lat="42.428672790527344" lon="-7.2176618576049805">
        <ele>377.0</ele>
        <time>2019-04-26T10:35:54.000Z</time>
      </trkpt>
      <trkpt lat="42.428707122802734" lon="-7.217782020568848">
        <ele>376.0</ele>
        <time>2019-04-26T10:36:02.000Z</time>
      </trkpt>
      <trkpt lat="42.42874526977539" lon="-7.217894077301025">
        <ele>376.0</ele>
        <time>2019-04-26T10:36:09.000Z</time>
      </trkpt>
      <trkpt lat="42.42877960205078" lon="-7.2180070877075195">
        <ele>376.0</ele>
        <time>2019-04-26T10:36:16.000Z</time>
      </trkpt>
      <trkpt lat="42.42881774902344" lon="-7.218120574951172">
        <ele>377.0</ele>
        <time>2019-04-26T10:36:23.000Z</time>
      </trkpt>
      <trkpt lat="42.42885208129883" lon="-7.218234539031982">
        <ele>378.0</ele>
        <time>2019-04-26T10:36:30.000Z</time>
      </trkpt>
      <trkpt lat="42.42898178100586" lon="-7.218392372131348">
        <ele>378.0</ele>
        <time>2019-04-26T10:36:44.000Z</time>
      </trkpt>
      <trkpt lat="42.42913818359375" lon="-7.2185187339782715">
        <ele>378.0</ele>
        <time>2019-04-26T10:36:59.000Z</time>
      </trkpt>
      <trkpt lat="42.42921829223633" lon="-7.218574047088623">
        <ele>378.0</ele>
        <time>2019-04-26T10:37:06.000Z</time>
      </trkpt>
      <trkpt lat="42.42930221557617" lon="-7.218622207641602">
        <ele>378.0</ele>
        <time>2019-04-26T10:37:14.000Z</time>
      </trkpt>
      <trkpt lat="42.429386138916016" lon="-7.218666076660156">
        <ele>378.0</ele>
        <time>2019-04-26T10:37:22.000Z</time>
      </trkpt>
      <trkpt lat="42.42947006225586" lon="-7.218708038330078">
        <ele>378.0</ele>
        <time>2019-04-26T10:37:30.000Z</time>
      </trkpt>
      <trkpt lat="42.4295539855957" lon="-7.218753814697266">
        <ele>378.0</ele>
        <time>2019-04-26T10:37:37.000Z</time>
      </trkpt>
      <trkpt lat="42.42963409423828" lon="-7.218799591064453">
        <ele>377.0</ele>
        <time>2019-04-26T10:37:45.000Z</time>
      </trkpt>
      <trkpt lat="42.429718017578125" lon="-7.218844890594482">
        <ele>377.0</ele>
        <time>2019-04-26T10:37:53.000Z</time>
      </trkpt>
      <trkpt lat="42.4297981262207" lon="-7.218890190124512">
        <ele>377.0</ele>
        <time>2019-04-26T10:38:01.000Z</time>
      </trkpt>
      <trkpt lat="42.42985153198242" lon="-7.218886852264404">
        <ele>377.0</ele>
        <time>2019-04-26T10:38:04.000Z</time>
      </trkpt>
      <trkpt lat="42.42989730834961" lon="-7.218863010406494">
        <ele>376.0</ele>
        <time>2019-04-26T10:38:08.000Z</time>
      </trkpt>
      <trkpt lat="42.429931640625" lon="-7.218825817108154">
        <ele>376.0</ele>
        <time>2019-04-26T10:38:12.000Z</time>
      </trkpt>
      <trkpt lat="42.429962158203125" lon="-7.2187819480896">
        <ele>375.0</ele>
        <time>2019-04-26T10:38:16.000Z</time>
      </trkpt>
      <trkpt lat="42.43000793457031" lon="-7.2187700271606445">
        <ele>375.0</ele>
        <time>2019-04-26T10:38:19.000Z</time>
      </trkpt>
      <trkpt lat="42.430049896240234" lon="-7.218764305114746">
        <ele>374.0</ele>
        <time>2019-04-26T10:38:23.000Z</time>
      </trkpt>
      <trkpt lat="42.43009567260742" lon="-7.2187628746032715">
        <ele>375.0</ele>
        <time>2019-04-26T10:38:27.000Z</time>
      </trkpt>
      <trkpt lat="42.43014144897461" lon="-7.218763828277588">
        <ele>375.0</ele>
        <time>2019-04-26T10:38:31.000Z</time>
      </trkpt>
      <trkpt lat="42.430213928222656" lon="-7.218743324279785">
        <ele>375.0</ele>
        <time>2019-04-26T10:38:38.000Z</time>
      </trkpt>
      <trkpt lat="42.430301666259766" lon="-7.218716621398926">
        <ele>376.0</ele>
        <time>2019-04-26T10:38:45.000Z</time>
      </trkpt>
      <trkpt lat="42.430397033691406" lon="-7.218685150146484">
        <ele>377.0</ele>
        <time>2019-04-26T10:38:52.000Z</time>
      </trkpt>
      <trkpt lat="42.43050003051758" lon="-7.218651294708252">
        <ele>378.0</ele>
        <time>2019-04-26T10:38:59.000Z</time>
      </trkpt>
      <trkpt lat="42.43064880371094" lon="-7.218519687652588">
        <ele>380.0</ele>
        <time>2019-04-26T10:39:13.000Z</time>
      </trkpt>
      <trkpt lat="42.430782318115234" lon="-7.218353271484375">
        <ele>382.0</ele>
        <time>2019-04-26T10:39:28.000Z</time>
      </trkpt>
      <trkpt lat="42.430850982666016" lon="-7.2182722091674805">
        <ele>383.0</ele>
        <time>2019-04-26T10:39:36.000Z</time>
      </trkpt>
      <trkpt lat="42.43091583251953" lon="-7.2181878089904785">
        <ele>383.0</ele>
        <time>2019-04-26T10:39:45.000Z</time>
      </trkpt>
      <trkpt lat="42.43098068237305" lon="-7.218101978302002">
        <ele>383.0</ele>
        <time>2019-04-26T10:39:54.000Z</time>
      </trkpt>
      <trkpt lat="42.4310417175293" lon="-7.218015193939209">
        <ele>383.0</ele>
        <time>2019-04-26T10:40:03.000Z</time>
      </trkpt>
      <trkpt lat="42.43108367919922" lon="-7.217960357666016">
        <ele>383.0</ele>
        <time>2019-04-26T10:40:10.000Z</time>
      </trkpt>
      <trkpt lat="42.431114196777344" lon="-7.2179179191589355">
        <ele>383.0</ele>
        <time>2019-04-26T10:40:17.000Z</time>
      </trkpt>
      <trkpt lat="42.43113708496094" lon="-7.217884063720703">
        <ele>383.0</ele>
        <time>2019-04-26T10:40:24.000Z</time>
      </trkpt>
      <trkpt lat="42.43115997314453" lon="-7.217854022979736">
        <ele>383.0</ele>
        <time>2019-04-26T10:40:32.000Z</time>
      </trkpt>
      <trkpt lat="42.431175231933594" lon="-7.217836380004883">
        <ele>380.0</ele>
        <time>2019-04-26T10:40:41.000Z</time>
      </trkpt>
      <trkpt lat="42.43118667602539" lon="-7.217828273773193">
        <ele>377.0</ele>
        <time>2019-04-26T10:40:51.000Z</time>
      </trkpt>
      <trkpt lat="42.43119430541992" lon="-7.217825889587402">
        <ele>372.0</ele>
        <time>2019-04-26T10:41:01.000Z</time>
      </trkpt>
      <trkpt lat="42.43120193481445" lon="-7.217827320098877">
        <ele>368.0</ele>
        <time>2019-04-26T10:41:11.000Z</time>
      </trkpt>
      <trkpt lat="42.431209564208984" lon="-7.217822074890137">
        <ele>366.0</ele>
        <time>2019-04-26T10:41:11.000Z</time>
      </trkpt>
      <trkpt lat="42.431217193603516" lon="-7.217817783355713">
        <ele>366.0</ele>
        <time>2019-04-26T10:41:11.000Z</time>
      </trkpt>
      <trkpt lat="42.43122482299805" lon="-7.217813491821289">
        <ele>367.0</ele>
        <time>2019-04-26T10:41:11.000Z</time>
      </trkpt>
      <trkpt lat="42.43122863769531" lon="-7.217809677124023">
        <ele>368.0</ele>
        <time>2019-04-26T10:41:12.000Z</time>
      </trkpt>
      <trkpt lat="42.4312858581543" lon="-7.21777868270874">
        <ele>367.0</ele>
        <time>2019-04-26T10:41:16.000Z</time>
      </trkpt>
      <trkpt lat="42.431365966796875" lon="-7.21773624420166">
        <ele>365.0</ele>
        <time>2019-04-26T10:41:21.000Z</time>
      </trkpt>
      <trkpt lat="42.43145751953125" lon="-7.217686653137207">
        <ele>364.0</ele>
        <time>2019-04-26T10:41:26.000Z</time>
      </trkpt>
      <trkpt lat="42.431556701660156" lon="-7.21763277053833">
        <ele>362.0</ele>
        <time>2019-04-26T10:41:31.000Z</time>
      </trkpt>
      <trkpt lat="42.43187713623047" lon="-7.217432498931885">
        <ele>359.0</ele>
        <time>2019-04-26T10:42:07.000Z</time>
      </trkpt>
      <trkpt lat="42.43193054199219" lon="-7.217380046844482">
        <ele>362.0</ele>
        <time>2019-04-26T10:42:27.000Z</time>
      </trkpt>
      <trkpt lat="42.43197250366211" lon="-7.217345714569092">
        <ele>369.0</ele>
        <time>2019-04-26T10:45:19.000Z</time>
      </trkpt>
      <trkpt lat="42.432003021240234" lon="-7.217322826385498">
        <ele>369.0</ele>
        <time>2019-04-26T10:45:20.000Z</time>
      </trkpt>
      <trkpt lat="42.432342529296875" lon="-7.2171807289123535">
        <ele>376.0</ele>
        <time>2019-04-26T10:45:38.000Z</time>
      </trkpt>
      <trkpt lat="42.432437896728516" lon="-7.21715784072876">
        <ele>381.0</ele>
        <time>2019-04-26T10:45:55.000Z</time>
      </trkpt>
      <trkpt lat="42.43250274658203" lon="-7.2171735763549805">
        <ele>389.0</ele>
        <time>2019-04-26T10:46:29.000Z</time>
      </trkpt>
      <trkpt lat="42.432533264160156" lon="-7.21718168258667">
        <ele>389.0</ele>
        <time>2019-04-26T10:46:30.000Z</time>
      </trkpt>
      <trkpt lat="42.432891845703125" lon="-7.217138767242432">
        <ele>393.0</ele>
        <time>2019-04-26T10:46:56.000Z</time>
      </trkpt>
      <trkpt lat="42.43291091918945" lon="-7.217067718505859">
        <ele>395.0</ele>
        <time>2019-04-26T10:47:05.000Z</time>
      </trkpt>
      <trkpt lat="42.43289566040039" lon="-7.2169718742370605">
        <ele>396.0</ele>
        <time>2019-04-26T10:47:15.000Z</time>
      </trkpt>
      <trkpt lat="42.432861328125" lon="-7.216858863830566">
        <ele>397.0</ele>
        <time>2019-04-26T10:47:25.000Z</time>
      </trkpt>
      <trkpt lat="42.43281936645508" lon="-7.216737270355225">
        <ele>399.0</ele>
        <time>2019-04-26T10:47:35.000Z</time>
      </trkpt>
      <trkpt lat="42.43281555175781" lon="-7.216690540313721">
        <ele>400.0</ele>
        <time>2019-04-26T10:47:40.000Z</time>
      </trkpt>
      <trkpt lat="42.43281555175781" lon="-7.216666221618652">
        <ele>401.0</ele>
        <time>2019-04-26T10:47:46.000Z</time>
      </trkpt>
      <trkpt lat="42.432823181152344" lon="-7.216656684875488">
        <ele>401.0</ele>
        <time>2019-04-26T10:47:51.000Z</time>
      </trkpt>
      <trkpt lat="42.432830810546875" lon="-7.2166547775268555">
        <ele>402.0</ele>
        <time>2019-04-26T10:47:57.000Z</time>
      </trkpt>
      <trkpt lat="42.43283462524414" lon="-7.216640472412109">
        <ele>403.0</ele>
        <time>2019-04-26T10:47:57.000Z</time>
      </trkpt>
      <trkpt lat="42.43283462524414" lon="-7.216629505157471">
        <ele>403.0</ele>
        <time>2019-04-26T10:47:57.000Z</time>
      </trkpt>
      <trkpt lat="42.432838439941406" lon="-7.216619968414307">
        <ele>403.0</ele>
        <time>2019-04-26T10:47:57.000Z</time>
      </trkpt>
      <trkpt lat="42.432838439941406" lon="-7.216611385345459">
        <ele>402.0</ele>
        <time>2019-04-26T10:47:58.000Z</time>
      </trkpt>
      <trkpt lat="42.43285369873047" lon="-7.216582298278809">
        <ele>402.0</ele>
        <time>2019-04-26T10:48:00.000Z</time>
      </trkpt>
      <trkpt lat="42.43287658691406" lon="-7.216545581817627">
        <ele>403.0</ele>
        <time>2019-04-26T10:48:03.000Z</time>
      </trkpt>
      <trkpt lat="42.43290328979492" lon="-7.216503620147705">
        <ele>403.0</ele>
        <time>2019-04-26T10:48:05.000Z</time>
      </trkpt>
      <trkpt lat="42.43292999267578" lon="-7.216459274291992">
        <ele>403.0</ele>
        <time>2019-04-26T10:48:08.000Z</time>
      </trkpt>
      <trkpt lat="42.432979583740234" lon="-7.2164626121521">
        <ele>404.0</ele>
        <time>2019-04-26T10:48:15.000Z</time>
      </trkpt>
      <trkpt lat="42.43304443359375" lon="-7.2164835929870605">
        <ele>405.0</ele>
        <time>2019-04-26T10:48:22.000Z</time>
      </trkpt>
      <trkpt lat="42.43311309814453" lon="-7.216516017913818">
        <ele>406.0</ele>
        <time>2019-04-26T10:48:29.000Z</time>
      </trkpt>
      <trkpt lat="42.433189392089844" lon="-7.216554164886475">
        <ele>407.0</ele>
        <time>2019-04-26T10:48:37.000Z</time>
      </trkpt>
      <trkpt lat="42.433265686035156" lon="-7.216591835021973">
        <ele>408.0</ele>
        <time>2019-04-26T10:48:46.000Z</time>
      </trkpt>
      <trkpt lat="42.433345794677734" lon="-7.216635227203369">
        <ele>408.0</ele>
        <time>2019-04-26T10:48:55.000Z</time>
      </trkpt>
      <trkpt lat="42.43342971801758" lon="-7.216682434082031">
        <ele>409.0</ele>
        <time>2019-04-26T10:49:04.000Z</time>
      </trkpt>
      <trkpt lat="42.43351745605469" lon="-7.216731548309326">
        <ele>410.0</ele>
        <time>2019-04-26T10:49:14.000Z</time>
      </trkpt>
      <trkpt lat="42.43355178833008" lon="-7.216745853424072">
        <ele>409.0</ele>
        <time>2019-04-26T10:49:16.000Z</time>
      </trkpt>
      <trkpt lat="42.43356704711914" lon="-7.216747283935547">
        <ele>409.0</ele>
        <time>2019-04-26T10:49:19.000Z</time>
      </trkpt>
      <trkpt lat="42.433570861816406" lon="-7.216740131378174">
        <ele>408.0</ele>
        <time>2019-04-26T10:49:22.000Z</time>
      </trkpt>
      <trkpt lat="42.43356704711914" lon="-7.216728687286377">
        <ele>407.0</ele>
        <time>2019-04-26T10:49:25.000Z</time>
      </trkpt>
      <trkpt lat="42.43359375" lon="-7.2167253494262695">
        <ele>406.0</ele>
        <time>2019-04-26T10:49:47.000Z</time>
      </trkpt>
      <trkpt lat="42.43362045288086" lon="-7.2167205810546875">
        <ele>405.0</ele>
        <time>2019-04-26T10:50:10.000Z</time>
      </trkpt>
      <trkpt lat="42.43365478515625" lon="-7.216714859008789">
        <ele>404.0</ele>
        <time>2019-04-26T10:50:32.000Z</time>
      </trkpt>
      <trkpt lat="42.433685302734375" lon="-7.216709136962891">
        <ele>403.0</ele>
        <time>2019-04-26T10:50:55.000Z</time>
      </trkpt>
      <trkpt lat="42.43370056152344" lon="-7.216706275939941">
        <ele>402.0</ele>
        <time>2019-04-26T10:50:55.000Z</time>
      </trkpt>
      <trkpt lat="42.433712005615234" lon="-7.216704845428467">
        <ele>402.0</ele>
        <time>2019-04-26T10:50:55.000Z</time>
      </trkpt>
      <trkpt lat="42.4337158203125" lon="-7.216704368591309">
        <ele>402.0</ele>
        <time>2019-04-26T10:50:55.000Z</time>
      </trkpt>
      <trkpt lat="42.433719635009766" lon="-7.21670389175415">
        <ele>403.0</ele>
        <time>2019-04-26T10:50:56.000Z</time>
      </trkpt>
      <trkpt lat="42.43376159667969" lon="-7.216688632965088">
        <ele>402.0</ele>
        <time>2019-04-26T10:51:00.000Z</time>
      </trkpt>
      <trkpt lat="42.43382263183594" lon="-7.216667652130127">
        <ele>401.0</ele>
        <time>2019-04-26T10:51:04.000Z</time>
      </trkpt>
      <trkpt lat="42.43389129638672" lon="-7.216643333435059">
        <ele>399.0</ele>
        <time>2019-04-26T10:51:08.000Z</time>
      </trkpt>
      <trkpt lat="42.43396759033203" lon="-7.216616630554199">
        <ele>398.0</ele>
        <time>2019-04-26T10:51:13.000Z</time>
      </trkpt>
      <trkpt lat="42.43413543701172" lon="-7.216516971588135">
        <ele>399.0</ele>
        <time>2019-04-26T10:51:28.000Z</time>
      </trkpt>
      <trkpt lat="42.43427276611328" lon="-7.216343402862549">
        <ele>403.0</ele>
        <time>2019-04-26T10:51:46.000Z</time>
      </trkpt>
      <trkpt lat="42.43437957763672" lon="-7.216136932373047">
        <ele>404.0</ele>
        <time>2019-04-26T10:52:04.000Z</time>
      </trkpt>
      <trkpt lat="42.434486389160156" lon="-7.215933799743652">
        <ele>404.0</ele>
        <time>2019-04-26T10:52:24.000Z</time>
      </trkpt>
      <trkpt lat="42.434661865234375" lon="-7.2155256271362305">
        <ele>405.0</ele>
        <time>2019-04-26T10:53:01.000Z</time>
      </trkpt>
      <trkpt lat="42.43473434448242" lon="-7.215057373046875">
        <ele>408.0</ele>
        <time>2019-04-26T10:53:43.000Z</time>
      </trkpt>
      <trkpt lat="42.43467712402344" lon="-7.214590549468994">
        <ele>414.0</ele>
        <time>2019-04-26T10:54:27.000Z</time>
      </trkpt>
      <trkpt lat="42.43465042114258" lon="-7.214529991149902">
        <ele>419.0</ele>
        <time>2019-04-26T10:55:04.000Z</time>
      </trkpt>
      <trkpt lat="42.43463134765625" lon="-7.214487075805664">
        <ele>419.0</ele>
        <time>2019-04-26T10:55:05.000Z</time>
      </trkpt>
      <trkpt lat="42.43444061279297" lon="-7.214096546173096">
        <ele>420.0</ele>
        <time>2019-04-26T10:55:20.000Z</time>
      </trkpt>
      <trkpt lat="42.43434524536133" lon="-7.213838577270508">
        <ele>423.0</ele>
        <time>2019-04-26T10:55:42.000Z</time>
      </trkpt>
      <trkpt lat="42.4343376159668" lon="-7.213815212249756">
        <ele>424.0</ele>
        <time>2019-04-26T10:55:45.000Z</time>
      </trkpt>
      <trkpt lat="42.43434143066406" lon="-7.213809013366699">
        <ele>424.0</ele>
        <time>2019-04-26T10:55:48.000Z</time>
      </trkpt>
      <trkpt lat="42.43434524536133" lon="-7.2138142585754395">
        <ele>425.0</ele>
        <time>2019-04-26T10:55:51.000Z</time>
      </trkpt>
      <trkpt lat="42.434356689453125" lon="-7.213825702667236">
        <ele>425.0</ele>
        <time>2019-04-26T10:55:55.000Z</time>
      </trkpt>
      <trkpt lat="42.43436050415039" lon="-7.213822364807129">
        <ele>425.0</ele>
        <time>2019-04-26T10:55:55.000Z</time>
      </trkpt>
      <trkpt lat="42.43436050415039" lon="-7.21381950378418">
        <ele>425.0</ele>
        <time>2019-04-26T10:55:55.000Z</time>
      </trkpt>
      <trkpt lat="42.434364318847656" lon="-7.213817119598389">
        <ele>425.0</ele>
        <time>2019-04-26T10:55:55.000Z</time>
      </trkpt>
      <trkpt lat="42.43436813354492" lon="-7.2138142585754395">
        <ele>425.0</ele>
        <time>2019-04-26T10:55:56.000Z</time>
      </trkpt>
      <trkpt lat="42.434391021728516" lon="-7.213791370391846">
        <ele>425.0</ele>
        <time>2019-04-26T10:55:58.000Z</time>
      </trkpt>
      <trkpt lat="42.434425354003906" lon="-7.2137603759765625">
        <ele>426.0</ele>
        <time>2019-04-26T10:56:00.000Z</time>
      </trkpt>
      <trkpt lat="42.43446350097656" lon="-7.213723182678223">
        <ele>426.0</ele>
        <time>2019-04-26T10:56:02.000Z</time>
      </trkpt>
      <trkpt lat="42.43450927734375" lon="-7.21368408203125">
        <ele>427.0</ele>
        <time>2019-04-26T10:56:04.000Z</time>
      </trkpt>
      <trkpt lat="42.43453598022461" lon="-7.213665008544922">
        <ele>427.0</ele>
        <time>2019-04-26T10:56:06.000Z</time>
      </trkpt>
      <trkpt lat="42.4345588684082" lon="-7.21365213394165">
        <ele>428.0</ele>
        <time>2019-04-26T10:56:09.000Z</time>
      </trkpt>
      <trkpt lat="42.43457794189453" lon="-7.213642597198486">
        <ele>429.0</ele>
        <time>2019-04-26T10:56:12.000Z</time>
      </trkpt>
      <trkpt lat="42.43459701538086" lon="-7.213635444641113">
        <ele>430.0</ele>
        <time>2019-04-26T10:56:15.000Z</time>
      </trkpt>
      <trkpt lat="42.434608459472656" lon="-7.21362829208374">
        <ele>430.0</ele>
        <time>2019-04-26T10:56:15.000Z</time>
      </trkpt>
      <trkpt lat="42.43461990356445" lon="-7.213622570037842">
        <ele>430.0</ele>
        <time>2019-04-26T10:56:15.000Z</time>
      </trkpt>
      <trkpt lat="42.434627532958984" lon="-7.213618278503418">
        <ele>430.0</ele>
        <time>2019-04-26T10:56:15.000Z</time>
      </trkpt>
      <trkpt lat="42.434635162353516" lon="-7.2136149406433105">
        <ele>430.0</ele>
        <time>2019-04-26T10:56:16.000Z</time>
      </trkpt>
      <trkpt lat="42.43465805053711" lon="-7.213603973388672">
        <ele>430.0</ele>
        <time>2019-04-26T10:56:17.000Z</time>
      </trkpt>
      <trkpt lat="42.434688568115234" lon="-7.2135910987854">
        <ele>431.0</ele>
        <time>2019-04-26T10:56:19.000Z</time>
      </trkpt>
      <trkpt lat="42.434722900390625" lon="-7.213576793670654">
        <ele>431.0</ele>
        <time>2019-04-26T10:56:21.000Z</time>
      </trkpt>
      <trkpt lat="42.43476104736328" lon="-7.213561534881592">
        <ele>432.0</ele>
        <time>2019-04-26T10:56:23.000Z</time>
      </trkpt>
      <trkpt lat="42.43484878540039" lon="-7.21354866027832">
        <ele>435.0</ele>
        <time>2019-04-26T10:56:36.000Z</time>
      </trkpt>
      <trkpt lat="42.43488311767578" lon="-7.21354341506958">
        <ele>435.0</ele>
        <time>2019-04-26T10:56:37.000Z</time>
      </trkpt>
      <trkpt lat="42.43506622314453" lon="-7.213489055633545">
        <ele>438.0</ele>
        <time>2019-04-26T10:56:43.000Z</time>
      </trkpt>
      <trkpt lat="42.43523406982422" lon="-7.213376998901367">
        <ele>440.0</ele>
        <time>2019-04-26T10:57:02.000Z</time>
      </trkpt>
      <trkpt lat="42.43526077270508" lon="-7.213325500488281">
        <ele>441.0</ele>
        <time>2019-04-26T10:57:06.000Z</time>
      </trkpt>
      <trkpt lat="42.43528747558594" lon="-7.213263988494873">
        <ele>441.0</ele>
        <time>2019-04-26T10:57:11.000Z</time>
      </trkpt>
      <trkpt lat="42.435306549072266" lon="-7.213196277618408">
        <ele>441.0</ele>
        <time>2019-04-26T10:57:16.000Z</time>
      </trkpt>
      <trkpt lat="42.435325622558594" lon="-7.213125228881836">
        <ele>442.0</ele>
        <time>2019-04-26T10:57:21.000Z</time>
      </trkpt>
      <trkpt lat="42.43532180786133" lon="-7.213067531585693">
        <ele>442.0</ele>
        <time>2019-04-26T10:57:25.000Z</time>
      </trkpt>
      <trkpt lat="42.435306549072266" lon="-7.213011741638184">
        <ele>442.0</ele>
        <time>2019-04-26T10:57:29.000Z</time>
      </trkpt>
      <trkpt lat="42.43528747558594" lon="-7.212957859039307">
        <ele>442.0</ele>
        <time>2019-04-26T10:57:33.000Z</time>
      </trkpt>
      <trkpt lat="42.43526077270508" lon="-7.212904453277588">
        <ele>441.0</ele>
        <time>2019-04-26T10:57:38.000Z</time>
      </trkpt>
      <trkpt lat="42.43527603149414" lon="-7.212815284729004">
        <ele>441.0</ele>
        <time>2019-04-26T10:57:44.000Z</time>
      </trkpt>
      <trkpt lat="42.435302734375" lon="-7.212712287902832">
        <ele>440.0</ele>
        <time>2019-04-26T10:57:50.000Z</time>
      </trkpt>
      <trkpt lat="42.43533706665039" lon="-7.212599754333496">
        <ele>440.0</ele>
        <time>2019-04-26T10:57:56.000Z</time>
      </trkpt>
      <trkpt lat="42.43537521362305" lon="-7.212482452392578">
        <ele>439.0</ele>
        <time>2019-04-26T10:58:03.000Z</time>
      </trkpt>
      <trkpt lat="42.435394287109375" lon="-7.212367534637451">
        <ele>438.0</ele>
        <time>2019-04-26T10:58:10.000Z</time>
      </trkpt>
      <trkpt lat="42.43540954589844" lon="-7.212247848510742">
        <ele>438.0</ele>
        <time>2019-04-26T10:58:18.000Z</time>
      </trkpt>
      <trkpt lat="42.435420989990234" lon="-7.212125778198242">
        <ele>437.0</ele>
        <time>2019-04-26T10:58:25.000Z</time>
      </trkpt>
      <trkpt lat="42.435428619384766" lon="-7.212002277374268">
        <ele>437.0</ele>
        <time>2019-04-26T10:58:33.000Z</time>
      </trkpt>
      <trkpt lat="42.435428619384766" lon="-7.211928844451904">
        <ele>436.0</ele>
        <time>2019-04-26T10:58:36.000Z</time>
      </trkpt>
      <trkpt lat="42.435428619384766" lon="-7.211874961853027">
        <ele>435.0</ele>
        <time>2019-04-26T10:58:40.000Z</time>
      </trkpt>
      <trkpt lat="42.435420989990234" lon="-7.211833953857422">
        <ele>434.0</ele>
        <time>2019-04-26T10:58:44.000Z</time>
      </trkpt>
      <trkpt lat="42.4354133605957" lon="-7.211799621582031">
        <ele>433.0</ele>
        <time>2019-04-26T10:58:48.000Z</time>
      </trkpt>
      <trkpt lat="42.4354362487793" lon="-7.211740493774414">
        <ele>433.0</ele>
        <time>2019-04-26T10:58:51.000Z</time>
      </trkpt>
      <trkpt lat="42.43546676635742" lon="-7.211677551269531">
        <ele>432.0</ele>
        <time>2019-04-26T10:58:55.000Z</time>
      </trkpt>
      <trkpt lat="42.435508728027344" lon="-7.211612224578857">
        <ele>432.0</ele>
        <time>2019-04-26T10:58:59.000Z</time>
      </trkpt>
      <trkpt lat="42.435550689697266" lon="-7.211545467376709">
        <ele>432.0</ele>
        <time>2019-04-26T10:59:03.000Z</time>
      </trkpt>
      <trkpt lat="42.435585021972656" lon="-7.211450576782227">
        <ele>431.0</ele>
        <time>2019-04-26T10:59:11.000Z</time>
      </trkpt>
      <trkpt lat="42.43561935424805" lon="-7.2113423347473145">
        <ele>430.0</ele>
        <time>2019-04-26T10:59:19.000Z</time>
      </trkpt>
      <trkpt lat="42.4356575012207" lon="-7.2112250328063965">
        <ele>429.0</ele>
        <time>2019-04-26T10:59:27.000Z</time>
      </trkpt>
      <trkpt lat="42.435691833496094" lon="-7.211103916168213">
        <ele>427.0</ele>
        <time>2019-04-26T10:59:35.000Z</time>
      </trkpt>
      <trkpt lat="42.43572235107422" lon="-7.210990905761719">
        <ele>427.0</ele>
        <time>2019-04-26T10:59:44.000Z</time>
      </trkpt>
      <trkpt lat="42.435752868652344" lon="-7.210877418518066">
        <ele>426.0</ele>
        <time>2019-04-26T10:59:53.000Z</time>
      </trkpt>
      <trkpt lat="42.43578338623047" lon="-7.210763454437256">
        <ele>426.0</ele>
        <time>2019-04-26T11:00:02.000Z</time>
      </trkpt>
      <trkpt lat="42.435813903808594" lon="-7.210649013519287">
        <ele>426.0</ele>
        <time>2019-04-26T11:00:11.000Z</time>
      </trkpt>
      <trkpt lat="42.43584442138672" lon="-7.210535526275635">
        <ele>427.0</ele>
        <time>2019-04-26T11:00:19.000Z</time>
      </trkpt>
      <trkpt lat="42.43587112426758" lon="-7.210422039031982">
        <ele>428.0</ele>
        <time>2019-04-26T11:00:27.000Z</time>
      </trkpt>
      <trkpt lat="42.43589782714844" lon="-7.210309028625488">
        <ele>429.0</ele>
        <time>2019-04-26T11:00:35.000Z</time>
      </trkpt>
      <trkpt lat="42.4359245300293" lon="-7.210196018218994">
        <ele>430.0</ele>
        <time>2019-04-26T11:00:43.000Z</time>
      </trkpt>
      <trkpt lat="42.435916900634766" lon="-7.2100701332092285">
        <ele>431.0</ele>
        <time>2019-04-26T11:00:53.000Z</time>
      </trkpt>
      <trkpt lat="42.435882568359375" lon="-7.209991455078125">
        <ele>431.0</ele>
        <time>2019-04-26T11:01:03.000Z</time>
      </trkpt>
      <trkpt lat="42.43589401245117" lon="-7.209929943084717">
        <ele>431.0</ele>
        <time>2019-04-26T11:01:07.000Z</time>
      </trkpt>
      <trkpt lat="42.4359130859375" lon="-7.209864139556885">
        <ele>431.0</ele>
        <time>2019-04-26T11:01:12.000Z</time>
      </trkpt>
      <trkpt lat="42.435935974121094" lon="-7.2097954750061035">
        <ele>431.0</ele>
        <time>2019-04-26T11:01:17.000Z</time>
      </trkpt>
      <trkpt lat="42.43596267700195" lon="-7.2097249031066895">
        <ele>432.0</ele>
        <time>2019-04-26T11:01:22.000Z</time>
      </trkpt>
      <trkpt lat="42.43600082397461" lon="-7.209633827209473">
        <ele>431.0</ele>
        <time>2019-04-26T11:01:30.000Z</time>
      </trkpt>
      <trkpt lat="42.43605041503906" lon="-7.209531784057617">
        <ele>431.0</ele>
        <time>2019-04-26T11:01:38.000Z</time>
      </trkpt>
      <trkpt lat="42.436100006103516" lon="-7.209423065185547">
        <ele>431.0</ele>
        <time>2019-04-26T11:01:46.000Z</time>
      </trkpt>
      <trkpt lat="42.436153411865234" lon="-7.209310531616211">
        <ele>430.0</ele>
        <time>2019-04-26T11:01:55.000Z</time>
      </trkpt>
      <trkpt lat="42.43619155883789" lon="-7.209216117858887">
        <ele>430.0</ele>
        <time>2019-04-26T11:02:04.000Z</time>
      </trkpt>
      <trkpt lat="42.43622589111328" lon="-7.209125995635986">
        <ele>430.0</ele>
        <time>2019-04-26T11:02:13.000Z</time>
      </trkpt>
      <trkpt lat="42.43626022338867" lon="-7.209038257598877">
        <ele>431.0</ele>
        <time>2019-04-26T11:02:22.000Z</time>
      </trkpt>
      <trkpt lat="42.4362907409668" lon="-7.208951473236084">
        <ele>431.0</ele>
        <time>2019-04-26T11:02:31.000Z</time>
      </trkpt>
      <trkpt lat="42.43631362915039" lon="-7.208939552307129">
        <ele>431.0</ele>
        <time>2019-04-26T11:02:35.000Z</time>
      </trkpt>
      <trkpt lat="42.43633270263672" lon="-7.208959579467773">
        <ele>431.0</ele>
        <time>2019-04-26T11:02:39.000Z</time>
      </trkpt>
      <trkpt lat="42.43635177612305" lon="-7.209001541137695">
        <ele>432.0</ele>
        <time>2019-04-26T11:02:43.000Z</time>
      </trkpt>
      <trkpt lat="42.436370849609375" lon="-7.209054470062256">
        <ele>432.0</ele>
        <time>2019-04-26T11:02:47.000Z</time>
      </trkpt>
      <trkpt lat="42.43635940551758" lon="-7.209066867828369">
        <ele>433.0</ele>
        <time>2019-04-26T11:03:20.000Z</time>
      </trkpt>
      <trkpt lat="42.43633270263672" lon="-7.209074020385742">
        <ele>434.0</ele>
        <time>2019-04-26T11:03:54.000Z</time>
      </trkpt>
      <trkpt lat="42.436302185058594" lon="-7.20907735824585">
        <ele>436.0</ele>
        <time>2019-04-26T11:04:28.000Z</time>
      </trkpt>
      <trkpt lat="42.43626403808594" lon="-7.209078788757324">
        <ele>438.0</ele>
        <time>2019-04-26T11:05:02.000Z</time>
      </trkpt>
      <trkpt lat="42.436248779296875" lon="-7.20908260345459">
        <ele>438.0</ele>
        <time>2019-04-26T11:05:02.000Z</time>
      </trkpt>
      <trkpt lat="42.43623733520508" lon="-7.209085464477539">
        <ele>438.0</ele>
        <time>2019-04-26T11:05:02.000Z</time>
      </trkpt>
      <trkpt lat="42.43622970581055" lon="-7.209087371826172">
        <ele>438.0</ele>
        <time>2019-04-26T11:05:02.000Z</time>
      </trkpt>
      <trkpt lat="42.43621826171875" lon="-7.209089279174805">
        <ele>438.0</ele>
        <time>2019-04-26T11:05:03.000Z</time>
      </trkpt>
      <trkpt lat="42.436195373535156" lon="-7.209097385406494">
        <ele>438.0</ele>
        <time>2019-04-26T11:05:03.000Z</time>
      </trkpt>
      <trkpt lat="42.4361686706543" lon="-7.209107875823975">
        <ele>438.0</ele>
        <time>2019-04-26T11:05:04.000Z</time>
      </trkpt>
      <trkpt lat="42.436134338378906" lon="-7.2091193199157715">
        <ele>438.0</ele>
        <time>2019-04-26T11:05:04.000Z</time>
      </trkpt>
      <trkpt lat="42.436100006103516" lon="-7.209132194519043">
        <ele>438.0</ele>
        <time>2019-04-26T11:05:05.000Z</time>
      </trkpt>
      <trkpt lat="42.436100006103516" lon="-7.209120750427246">
        <ele>438.0</ele>
        <time>2019-04-26T11:05:08.000Z</time>
      </trkpt>
      <trkpt lat="42.43611526489258" lon="-7.209099769592285">
        <ele>438.0</ele>
        <time>2019-04-26T11:05:12.000Z</time>
      </trkpt>
      <trkpt lat="42.43613815307617" lon="-7.209073066711426">
        <ele>438.0</ele>
        <time>2019-04-26T11:05:15.000Z</time>
      </trkpt>
      <trkpt lat="42.43616485595703" lon="-7.209043025970459">
        <ele>438.0</ele>
        <time>2019-04-26T11:05:19.000Z</time>
      </trkpt>
      <trkpt lat="42.43617630004883" lon="-7.209031105041504">
        <ele>437.0</ele>
        <time>2019-04-26T11:05:42.000Z</time>
      </trkpt>
      <trkpt lat="42.436187744140625" lon="-7.2090229988098145">
        <ele>436.0</ele>
        <time>2019-04-26T11:06:05.000Z</time>
      </trkpt>
      <trkpt lat="42.43619918823242" lon="-7.209018230438232">
        <ele>434.0</ele>
        <time>2019-04-26T11:06:28.000Z</time>
      </trkpt>
      <trkpt lat="42.43621063232422" lon="-7.209014415740967">
        <ele>433.0</ele>
        <time>2019-04-26T11:06:52.000Z</time>
      </trkpt>
      <trkpt lat="42.43621826171875" lon="-7.209009170532227">
        <ele>432.0</ele>
        <time>2019-04-26T11:06:52.000Z</time>
      </trkpt>
      <trkpt lat="42.43622589111328" lon="-7.2090044021606445">
        <ele>432.0</ele>
        <time>2019-04-26T11:06:52.000Z</time>
      </trkpt>
      <trkpt lat="42.43622970581055" lon="-7.209000110626221">
        <ele>432.0</ele>
        <time>2019-04-26T11:06:52.000Z</time>
      </trkpt>
      <trkpt lat="42.43623733520508" lon="-7.208996295928955">
        <ele>433.0</ele>
        <time>2019-04-26T11:06:53.000Z</time>
      </trkpt>
      <trkpt lat="42.436256408691406" lon="-7.208983898162842">
        <ele>433.0</ele>
        <time>2019-04-26T11:06:54.000Z</time>
      </trkpt>
      <trkpt lat="42.436279296875" lon="-7.208968639373779">
        <ele>432.0</ele>
        <time>2019-04-26T11:06:55.000Z</time>
      </trkpt>
      <trkpt lat="42.436309814453125" lon="-7.208950996398926">
        <ele>432.0</ele>
        <time>2019-04-26T11:06:56.000Z</time>
      </trkpt>
      <trkpt lat="42.436336517333984" lon="-7.208931922912598">
        <ele>432.0</ele>
        <time>2019-04-26T11:06:57.000Z</time>
      </trkpt>
      <trkpt lat="42.436344146728516" lon="-7.208919048309326">
        <ele>432.0</ele>
        <time>2019-04-26T11:07:04.000Z</time>
      </trkpt>
      <trkpt lat="42.43634033203125" lon="-7.208907127380371">
        <ele>431.0</ele>
        <time>2019-04-26T11:07:11.000Z</time>
      </trkpt>
      <trkpt lat="42.43633270263672" lon="-7.208896160125732">
        <ele>430.0</ele>
        <time>2019-04-26T11:07:18.000Z</time>
      </trkpt>
      <trkpt lat="42.43632125854492" lon="-7.208885669708252">
        <ele>429.0</ele>
        <time>2019-04-26T11:07:26.000Z</time>
      </trkpt>
      <trkpt lat="42.436317443847656" lon="-7.208876132965088">
        <ele>429.0</ele>
        <time>2019-04-26T11:07:26.000Z</time>
      </trkpt>
      <trkpt lat="42.436317443847656" lon="-7.208867073059082">
        <ele>429.0</ele>
        <time>2019-04-26T11:07:26.000Z</time>
      </trkpt>
      <trkpt lat="42.43631362915039" lon="-7.208858489990234">
        <ele>429.0</ele>
        <time>2019-04-26T11:07:26.000Z</time>
      </trkpt>
      <trkpt lat="42.436309814453125" lon="-7.208850383758545">
        <ele>429.0</ele>
        <time>2019-04-26T11:07:27.000Z</time>
      </trkpt>
      <trkpt lat="42.43630599975586" lon="-7.208766937255859">
        <ele>429.0</ele>
        <time>2019-04-26T11:07:29.000Z</time>
      </trkpt>
      <trkpt lat="42.43629837036133" lon="-7.208652019500732">
        <ele>429.0</ele>
        <time>2019-04-26T11:07:32.000Z</time>
      </trkpt>
      <trkpt lat="42.43629455566406" lon="-7.2085161209106445">
        <ele>428.0</ele>
        <time>2019-04-26T11:07:34.000Z</time>
      </trkpt>
      <trkpt lat="42.43628692626953" lon="-7.208369731903076">
        <ele>428.0</ele>
        <time>2019-04-26T11:07:37.000Z</time>
      </trkpt>
      <trkpt lat="42.43628692626953" lon="-7.208312034606934">
        <ele>427.0</ele>
        <time>2019-04-26T11:07:40.000Z</time>
      </trkpt>
      <trkpt lat="42.4362907409668" lon="-7.208280086517334">
        <ele>427.0</ele>
        <time>2019-04-26T11:07:44.000Z</time>
      </trkpt>
      <trkpt lat="42.43629837036133" lon="-7.208265781402588">
        <ele>426.0</ele>
        <time>2019-04-26T11:07:47.000Z</time>
      </trkpt>
      <trkpt lat="42.436302185058594" lon="-7.208259582519531">
        <ele>426.0</ele>
        <time>2019-04-26T11:07:51.000Z</time>
      </trkpt>
      <trkpt lat="42.43630599975586" lon="-7.208240509033203">
        <ele>426.0</ele>
        <time>2019-04-26T11:07:55.000Z</time>
      </trkpt>
      <trkpt lat="42.43630599975586" lon="-7.208224296569824">
        <ele>425.0</ele>
        <time>2019-04-26T11:07:59.000Z</time>
      </trkpt>
      <trkpt lat="42.436302185058594" lon="-7.2082109451293945">
        <ele>425.0</ele>
        <time>2019-04-26T11:08:03.000Z</time>
      </trkpt>
      <trkpt lat="42.436302185058594" lon="-7.208198070526123">
        <ele>424.0</ele>
        <time>2019-04-26T11:08:08.000Z</time>
      </trkpt>
      <trkpt lat="42.436302185058594" lon="-7.208186149597168">
        <ele>424.0</ele>
        <time>2019-04-26T11:08:08.000Z</time>
      </trkpt>
      <trkpt lat="42.436302185058594" lon="-7.208176136016846">
        <ele>424.0</ele>
        <time>2019-04-26T11:08:08.000Z</time>
      </trkpt>
      <trkpt lat="42.436302185058594" lon="-7.208166599273682">
        <ele>424.0</ele>
        <time>2019-04-26T11:08:08.000Z</time>
      </trkpt>
      <trkpt lat="42.436302185058594" lon="-7.208158016204834">
        <ele>424.0</ele>
        <time>2019-04-26T11:08:09.000Z</time>
      </trkpt>
      <trkpt lat="42.436309814453125" lon="-7.207977294921875">
        <ele>423.0</ele>
        <time>2019-04-26T11:08:15.000Z</time>
      </trkpt>
      <trkpt lat="42.436317443847656" lon="-7.207958698272705">
        <ele>423.0</ele>
        <time>2019-04-26T11:08:20.000Z</time>
      </trkpt>
      <trkpt lat="42.43632888793945" lon="-7.207951545715332">
        <ele>423.0</ele>
        <time>2019-04-26T11:08:25.000Z</time>
      </trkpt>
      <trkpt lat="42.43634033203125" lon="-7.207951545715332">
        <ele>422.0</ele>
        <time>2019-04-26T11:08:30.000Z</time>
      </trkpt>
      <trkpt lat="42.43635177612305" lon="-7.207955360412598">
        <ele>421.0</ele>
        <time>2019-04-26T11:08:35.000Z</time>
      </trkpt>
      <trkpt lat="42.43635940551758" lon="-7.207951545715332">
        <ele>421.0</ele>
        <time>2019-04-26T11:08:35.000Z</time>
      </trkpt>
      <trkpt lat="42.43636703491211" lon="-7.207947731018066">
        <ele>421.0</ele>
        <time>2019-04-26T11:08:35.000Z</time>
      </trkpt>
      <trkpt lat="42.43637466430664" lon="-7.207944869995117">
        <ele>421.0</ele>
        <time>2019-04-26T11:08:35.000Z</time>
      </trkpt>
      <trkpt lat="42.436378479003906" lon="-7.20794153213501">
        <ele>421.0</ele>
        <time>2019-04-26T11:08:36.000Z</time>
      </trkpt>
      <trkpt lat="42.436439514160156" lon="-7.2079176902771">
        <ele>421.0</ele>
        <time>2019-04-26T11:08:42.000Z</time>
      </trkpt>
      <trkpt lat="42.436519622802734" lon="-7.207884788513184">
        <ele>421.0</ele>
        <time>2019-04-26T11:08:49.000Z</time>
      </trkpt>
      <trkpt lat="42.43661117553711" lon="-7.207846164703369">
        <ele>421.0</ele>
        <time>2019-04-26T11:08:55.000Z</time>
      </trkpt>
      <trkpt lat="42.43671417236328" lon="-7.2078046798706055">
        <ele>421.0</ele>
        <time>2019-04-26T11:09:02.000Z</time>
      </trkpt>
      <trkpt lat="42.436885833740234" lon="-7.2078328132629395">
        <ele>421.0</ele>
        <time>2019-04-26T11:09:26.000Z</time>
      </trkpt>
      <trkpt lat="42.43705749511719" lon="-7.207905292510986">
        <ele>421.0</ele>
        <time>2019-04-26T11:09:51.000Z</time>
      </trkpt>
      <trkpt lat="42.43709182739258" lon="-7.207911968231201">
        <ele>421.0</ele>
        <time>2019-04-26T11:09:52.000Z</time>
      </trkpt>
      <trkpt lat="42.43710708618164" lon="-7.207911014556885">
        <ele>421.0</ele>
        <time>2019-04-26T11:09:54.000Z</time>
      </trkpt>
      <trkpt lat="42.43710708618164" lon="-7.207905292510986">
        <ele>421.0</ele>
        <time>2019-04-26T11:09:55.000Z</time>
      </trkpt>
      <trkpt lat="42.43709945678711" lon="-7.207896709442139">
        <ele>421.0</ele>
        <time>2019-04-26T11:09:57.000Z</time>
      </trkpt>
      <trkpt lat="42.43710708618164" lon="-7.207892894744873">
        <ele>421.0</ele>
        <time>2019-04-26T11:10:01.000Z</time>
      </trkpt>
      <trkpt lat="42.43711471557617" lon="-7.207889080047607">
        <ele>421.0</ele>
        <time>2019-04-26T11:10:06.000Z</time>
      </trkpt>
      <trkpt lat="42.4371223449707" lon="-7.207884311676025">
        <ele>420.0</ele>
        <time>2019-04-26T11:10:11.000Z</time>
      </trkpt>
      <trkpt lat="42.437129974365234" lon="-7.207879543304443">
        <ele>420.0</ele>
        <time>2019-04-26T11:10:16.000Z</time>
      </trkpt>
      <trkpt lat="42.437137603759766" lon="-7.207875728607178">
        <ele>420.0</ele>
        <time>2019-04-26T11:10:16.000Z</time>
      </trkpt>
      <trkpt lat="42.43714141845703" lon="-7.2078728675842285">
        <ele>420.0</ele>
        <time>2019-04-26T11:10:16.000Z</time>
      </trkpt>
      <trkpt lat="42.4371452331543" lon="-7.207870006561279">
        <ele>420.0</ele>
        <time>2019-04-26T11:10:16.000Z</time>
      </trkpt>
      <trkpt lat="42.43715286254883" lon="-7.20786714553833">
        <ele>420.0</ele>
        <time>2019-04-26T11:10:17.000Z</time>
      </trkpt>
      <trkpt lat="42.43717956542969" lon="-7.20785665512085">
        <ele>420.0</ele>
        <time>2019-04-26T11:10:18.000Z</time>
      </trkpt>
      <trkpt lat="42.43721389770508" lon="-7.20784330368042">
        <ele>420.0</ele>
        <time>2019-04-26T11:10:20.000Z</time>
      </trkpt>
      <trkpt lat="42.437255859375" lon="-7.207828044891357">
        <ele>420.0</ele>
        <time>2019-04-26T11:10:22.000Z</time>
      </trkpt>
      <trkpt lat="42.43730163574219" lon="-7.20781135559082">
        <ele>421.0</ele>
        <time>2019-04-26T11:10:24.000Z</time>
      </trkpt>
      <trkpt lat="42.43731689453125" lon="-7.207808494567871">
        <ele>421.0</ele>
        <time>2019-04-26T11:10:31.000Z</time>
      </trkpt>
      <trkpt lat="42.437320709228516" lon="-7.207809925079346">
        <ele>421.0</ele>
        <time>2019-04-26T11:10:39.000Z</time>
      </trkpt>
      <trkpt lat="42.437320709228516" lon="-7.2078142166137695">
        <ele>422.0</ele>
        <time>2019-04-26T11:10:46.000Z</time>
      </trkpt>
      <trkpt lat="42.43731689453125" lon="-7.207820415496826">
        <ele>422.0</ele>
        <time>2019-04-26T11:10:54.000Z</time>
      </trkpt>
      <trkpt lat="42.43733215332031" lon="-7.207827568054199">
        <ele>422.0</ele>
        <time>2019-04-26T11:10:55.000Z</time>
      </trkpt>
      <trkpt lat="42.437625885009766" lon="-7.208093166351318">
        <ele>423.0</ele>
        <time>2019-04-26T11:11:09.000Z</time>
      </trkpt>
      <trkpt lat="42.43781280517578" lon="-7.208468914031982">
        <ele>424.0</ele>
        <time>2019-04-26T11:11:37.000Z</time>
      </trkpt>
      <trkpt lat="42.43782043457031" lon="-7.208558559417725">
        <ele>425.0</ele>
        <time>2019-04-26T11:11:43.000Z</time>
      </trkpt>
      <trkpt lat="42.43781661987305" lon="-7.208645820617676">
        <ele>426.0</ele>
        <time>2019-04-26T11:11:49.000Z</time>
      </trkpt>
      <trkpt lat="42.43780517578125" lon="-7.208732604980469">
        <ele>427.0</ele>
        <time>2019-04-26T11:11:55.000Z</time>
      </trkpt>
      <trkpt lat="42.43778610229492" lon="-7.208818435668945">
        <ele>428.0</ele>
        <time>2019-04-26T11:12:01.000Z</time>
      </trkpt>
      <trkpt lat="42.43778991699219" lon="-7.208856105804443">
        <ele>428.0</ele>
        <time>2019-04-26T11:12:06.000Z</time>
      </trkpt>
      <trkpt lat="42.43779754638672" lon="-7.208873748779297">
        <ele>429.0</ele>
        <time>2019-04-26T11:12:12.000Z</time>
      </trkpt>
      <trkpt lat="42.437808990478516" lon="-7.208877086639404">
        <ele>430.0</ele>
        <time>2019-04-26T11:12:18.000Z</time>
      </trkpt>
      <trkpt lat="42.43782424926758" lon="-7.208873271942139">
        <ele>431.0</ele>
        <time>2019-04-26T11:12:24.000Z</time>
      </trkpt>
      <trkpt lat="42.43783187866211" lon="-7.208883285522461">
        <ele>431.0</ele>
        <time>2019-04-26T11:12:24.000Z</time>
      </trkpt>
      <trkpt lat="42.437835693359375" lon="-7.208890914916992">
        <ele>431.0</ele>
        <time>2019-04-26T11:12:24.000Z</time>
      </trkpt>
      <trkpt lat="42.43783950805664" lon="-7.208898067474365">
        <ele>431.0</ele>
        <time>2019-04-26T11:12:24.000Z</time>
      </trkpt>
      <trkpt lat="42.437843322753906" lon="-7.208904266357422">
        <ele>431.0</ele>
        <time>2019-04-26T11:12:25.000Z</time>
      </trkpt>
      <trkpt lat="42.43788146972656" lon="-7.2089715003967285">
        <ele>431.0</ele>
        <time>2019-04-26T11:12:30.000Z</time>
      </trkpt>
      <trkpt lat="42.437931060791016" lon="-7.2090630531311035">
        <ele>430.0</ele>
        <time>2019-04-26T11:12:36.000Z</time>
      </trkpt>
      <trkpt lat="42.437992095947266" lon="-7.209171295166016">
        <ele>430.0</ele>
        <time>2019-04-26T11:12:41.000Z</time>
      </trkpt>
      <trkpt lat="42.43805694580078" lon="-7.209288120269775">
        <ele>430.0</ele>
        <time>2019-04-26T11:12:47.000Z</time>
      </trkpt>
      <trkpt lat="42.4381217956543" lon="-7.209366321563721">
        <ele>430.0</ele>
        <time>2019-04-26T11:12:55.000Z</time>
      </trkpt>
      <trkpt lat="42.43819046020508" lon="-7.209436893463135">
        <ele>430.0</ele>
        <time>2019-04-26T11:13:04.000Z</time>
      </trkpt>
      <trkpt lat="42.438262939453125" lon="-7.209502696990967">
        <ele>430.0</ele>
        <time>2019-04-26T11:13:13.000Z</time>
      </trkpt>
      <trkpt lat="42.43833541870117" lon="-7.20956563949585">
        <ele>430.0</ele>
        <time>2019-04-26T11:13:22.000Z</time>
      </trkpt>
      <trkpt lat="42.43843460083008" lon="-7.209757328033447">
        <ele>432.0</ele>
        <time>2019-04-26T11:13:37.000Z</time>
      </trkpt>
      <trkpt lat="42.43851089477539" lon="-7.209972858428955">
        <ele>436.0</ele>
        <time>2019-04-26T11:13:53.000Z</time>
      </trkpt>
      <trkpt lat="42.43856430053711" lon="-7.21006965637207">
        <ele>435.0</ele>
        <time>2019-04-26T11:14:00.000Z</time>
      </trkpt>
      <trkpt lat="42.43861770629883" lon="-7.2101640701293945">
        <ele>434.0</ele>
        <time>2019-04-26T11:14:08.000Z</time>
      </trkpt>
      <trkpt lat="42.43867492675781" lon="-7.210257053375244">
        <ele>433.0</ele>
        <time>2019-04-26T11:14:16.000Z</time>
      </trkpt>
      <trkpt lat="42.4387321472168" lon="-7.210349082946777">
        <ele>431.0</ele>
        <time>2019-04-26T11:14:24.000Z</time>
      </trkpt>
      <trkpt lat="42.43877029418945" lon="-7.210423469543457">
        <ele>431.0</ele>
        <time>2019-04-26T11:14:29.000Z</time>
      </trkpt>
      <trkpt lat="42.438804626464844" lon="-7.210489273071289">
        <ele>431.0</ele>
        <time>2019-04-26T11:14:35.000Z</time>
      </trkpt>
      <trkpt lat="42.4388313293457" lon="-7.210549354553223">
        <ele>432.0</ele>
        <time>2019-04-26T11:14:40.000Z</time>
      </trkpt>
      <trkpt lat="42.4388542175293" lon="-7.210607051849365">
        <ele>433.0</ele>
        <time>2019-04-26T11:14:46.000Z</time>
      </trkpt>
      <trkpt lat="42.43889617919922" lon="-7.210626602172852">
        <ele>433.0</ele>
        <time>2019-04-26T11:14:51.000Z</time>
      </trkpt>
      <trkpt lat="42.43893814086914" lon="-7.210627555847168">
        <ele>433.0</ele>
        <time>2019-04-26T11:14:57.000Z</time>
      </trkpt>
      <trkpt lat="42.438987731933594" lon="-7.210615634918213">
        <ele>432.0</ele>
        <time>2019-04-26T11:15:03.000Z</time>
      </trkpt>
      <trkpt lat="42.43903732299805" lon="-7.210597991943359">
        <ele>432.0</ele>
        <time>2019-04-26T11:15:09.000Z</time>
      </trkpt>
      <trkpt lat="42.43913269042969" lon="-7.210533142089844">
        <ele>431.0</ele>
        <time>2019-04-26T11:15:26.000Z</time>
      </trkpt>
      <trkpt lat="42.43922805786133" lon="-7.210440635681152">
        <ele>430.0</ele>
        <time>2019-04-26T11:15:44.000Z</time>
      </trkpt>
      <trkpt lat="42.43927001953125" lon="-7.210445404052734">
        <ele>429.0</ele>
        <time>2019-04-26T11:15:51.000Z</time>
      </trkpt>
      <trkpt lat="42.43931198120117" lon="-7.210468292236328">
        <ele>428.0</ele>
        <time>2019-04-26T11:15:58.000Z</time>
      </trkpt>
      <trkpt lat="42.43935012817383" lon="-7.210503578186035">
        <ele>428.0</ele>
        <time>2019-04-26T11:16:05.000Z</time>
      </trkpt>
      <trkpt lat="42.43938446044922" lon="-7.210545063018799">
        <ele>427.0</ele>
        <time>2019-04-26T11:16:13.000Z</time>
      </trkpt>
      <trkpt lat="42.439422607421875" lon="-7.210626602172852">
        <ele>426.0</ele>
        <time>2019-04-26T11:16:25.000Z</time>
      </trkpt>
      <trkpt lat="42.439456939697266" lon="-7.210731029510498">
        <ele>425.0</ele>
        <time>2019-04-26T11:16:37.000Z</time>
      </trkpt>
      <trkpt lat="42.43949508666992" lon="-7.210850715637207">
        <ele>424.0</ele>
        <time>2019-04-26T11:16:49.000Z</time>
      </trkpt>
      <trkpt lat="42.43952941894531" lon="-7.2109785079956055">
        <ele>423.0</ele>
        <time>2019-04-26T11:17:02.000Z</time>
      </trkpt>
      <trkpt lat="42.43956756591797" lon="-7.211086750030518">
        <ele>421.0</ele>
        <time>2019-04-26T11:17:15.000Z</time>
      </trkpt>
      <trkpt lat="42.43960189819336" lon="-7.2111945152282715">
        <ele>419.0</ele>
        <time>2019-04-26T11:17:29.000Z</time>
      </trkpt>
      <trkpt lat="42.43963623046875" lon="-7.211302757263184">
        <ele>416.0</ele>
        <time>2019-04-26T11:17:42.000Z</time>
      </trkpt>
      <trkpt lat="42.43967056274414" lon="-7.2114105224609375">
        <ele>414.0</ele>
        <time>2019-04-26T11:17:56.000Z</time>
      </trkpt>
      <trkpt lat="42.43968200683594" lon="-7.211577892303467">
        <ele>411.0</ele>
        <time>2019-04-26T11:18:12.000Z</time>
      </trkpt>
      <trkpt lat="42.43966293334961" lon="-7.211722373962402">
        <ele>409.0</ele>
        <time>2019-04-26T11:18:28.000Z</time>
      </trkpt>
      <trkpt lat="42.43965148925781" lon="-7.211759567260742">
        <ele>408.0</ele>
        <time>2019-04-26T11:18:32.000Z</time>
      </trkpt>
      <trkpt lat="42.43963623046875" lon="-7.2117414474487305">
        <ele>408.0</ele>
        <time>2019-04-26T11:18:37.000Z</time>
      </trkpt>
      <trkpt lat="42.43964385986328" lon="-7.211750030517578">
        <ele>408.0</ele>
        <time>2019-04-26T11:18:51.000Z</time>
      </trkpt>
      <trkpt lat="42.43966293334961" lon="-7.2117600440979">
        <ele>408.0</ele>
        <time>2019-04-26T11:19:04.000Z</time>
      </trkpt>
      <trkpt lat="42.43968200683594" lon="-7.211771488189697">
        <ele>409.0</ele>
        <time>2019-04-26T11:19:18.000Z</time>
      </trkpt>
      <trkpt lat="42.43970489501953" lon="-7.211783409118652">
        <ele>410.0</ele>
        <time>2019-04-26T11:19:32.000Z</time>
      </trkpt>
      <trkpt lat="42.43971252441406" lon="-7.211790084838867">
        <ele>410.0</ele>
        <time>2019-04-26T11:19:32.000Z</time>
      </trkpt>
      <trkpt lat="42.439720153808594" lon="-7.211795330047607">
        <ele>410.0</ele>
        <time>2019-04-26T11:19:32.000Z</time>
      </trkpt>
      <trkpt lat="42.439727783203125" lon="-7.211799144744873">
        <ele>410.0</ele>
        <time>2019-04-26T11:19:32.000Z</time>
      </trkpt>
      <trkpt lat="42.43973159790039" lon="-7.2118024826049805">
        <ele>410.0</ele>
        <time>2019-04-26T11:19:33.000Z</time>
      </trkpt>
      <trkpt lat="42.43975067138672" lon="-7.211814880371094">
        <ele>410.0</ele>
        <time>2019-04-26T11:19:34.000Z</time>
      </trkpt>
      <trkpt lat="42.43976974487305" lon="-7.211830139160156">
        <ele>410.0</ele>
        <time>2019-04-26T11:19:35.000Z</time>
      </trkpt>
      <trkpt lat="42.439796447753906" lon="-7.21184778213501">
        <ele>410.0</ele>
        <time>2019-04-26T11:19:36.000Z</time>
      </trkpt>
      <trkpt lat="42.4398193359375" lon="-7.2118659019470215">
        <ele>410.0</ele>
        <time>2019-04-26T11:19:37.000Z</time>
      </trkpt>
      <trkpt lat="42.43983459472656" lon="-7.211867332458496">
        <ele>410.0</ele>
        <time>2019-04-26T11:19:40.000Z</time>
      </trkpt>
      <trkpt lat="42.43984603881836" lon="-7.211862087249756">
        <ele>410.0</ele>
        <time>2019-04-26T11:19:44.000Z</time>
      </trkpt>
      <trkpt lat="42.439857482910156" lon="-7.211852550506592">
        <ele>410.0</ele>
        <time>2019-04-26T11:19:47.000Z</time>
      </trkpt>
      <trkpt lat="42.43986892700195" lon="-7.211841106414795">
        <ele>410.0</ele>
        <time>2019-04-26T11:19:51.000Z</time>
      </trkpt>
      <trkpt lat="42.439876556396484" lon="-7.211841583251953">
        <ele>410.0</ele>
        <time>2019-04-26T11:20:00.000Z</time>
      </trkpt>
      <trkpt lat="42.43988037109375" lon="-7.2118449211120605">
        <ele>410.0</ele>
        <time>2019-04-26T11:20:09.000Z</time>
      </trkpt>
      <trkpt lat="42.439884185791016" lon="-7.211850166320801">
        <ele>411.0</ele>
        <time>2019-04-26T11:20:18.000Z</time>
      </trkpt>
      <trkpt lat="42.439884185791016" lon="-7.211856365203857">
        <ele>411.0</ele>
        <time>2019-04-26T11:20:28.000Z</time>
      </trkpt>
      <trkpt lat="42.43988800048828" lon="-7.211859226226807">
        <ele>412.0</ele>
        <time>2019-04-26T11:20:28.000Z</time>
      </trkpt>
      <trkpt lat="42.43989181518555" lon="-7.211862564086914">
        <ele>412.0</ele>
        <time>2019-04-26T11:20:28.000Z</time>
      </trkpt>
      <trkpt lat="42.43989562988281" lon="-7.211865425109863">
        <ele>412.0</ele>
        <time>2019-04-26T11:20:28.000Z</time>
      </trkpt>
      <trkpt lat="42.43989562988281" lon="-7.211868762969971">
        <ele>411.0</ele>
        <time>2019-04-26T11:20:29.000Z</time>
      </trkpt>
      <trkpt lat="42.4399299621582" lon="-7.211897373199463">
        <ele>412.0</ele>
        <time>2019-04-26T11:20:31.000Z</time>
      </trkpt>
      <trkpt lat="42.439971923828125" lon="-7.2119364738464355">
        <ele>412.0</ele>
        <time>2019-04-26T11:20:33.000Z</time>
      </trkpt>
      <trkpt lat="42.440025329589844" lon="-7.2119832038879395">
        <ele>413.0</ele>
        <time>2019-04-26T11:20:35.000Z</time>
      </trkpt>
      <trkpt lat="42.44007873535156" lon="-7.212033271789551">
        <ele>414.0</ele>
        <time>2019-04-26T11:20:38.000Z</time>
      </trkpt>
      <trkpt lat="42.440093994140625" lon="-7.212086200714111">
        <ele>414.0</ele>
        <time>2019-04-26T11:20:44.000Z</time>
      </trkpt>
      <trkpt lat="42.440101623535156" lon="-7.212143898010254">
        <ele>416.0</ele>
        <time>2019-04-26T11:20:51.000Z</time>
      </trkpt>
      <trkpt lat="42.44009780883789" lon="-7.212204456329346">
        <ele>417.0</ele>
        <time>2019-04-26T11:20:57.000Z</time>
      </trkpt>
      <trkpt lat="42.44009017944336" lon="-7.21226692199707">
        <ele>418.0</ele>
        <time>2019-04-26T11:21:04.000Z</time>
      </trkpt>
      <trkpt lat="42.44007873535156" lon="-7.2123637199401855">
        <ele>419.0</ele>
        <time>2019-04-26T11:21:14.000Z</time>
      </trkpt>
      <trkpt lat="42.4400634765625" lon="-7.2124762535095215">
        <ele>420.0</ele>
        <time>2019-04-26T11:21:25.000Z</time>
      </trkpt>
      <trkpt lat="42.44004821777344" lon="-7.212599277496338">
        <ele>421.0</ele>
        <time>2019-04-26T11:21:36.000Z</time>
      </trkpt>
      <trkpt lat="42.440025329589844" lon="-7.212728023529053">
        <ele>422.0</ele>
        <time>2019-04-26T11:21:47.000Z</time>
      </trkpt>
      <trkpt lat="42.439964294433594" lon="-7.212795257568359">
        <ele>422.0</ele>
        <time>2019-04-26T11:21:56.000Z</time>
      </trkpt>
      <trkpt lat="42.43988800048828" lon="-7.21284294128418">
        <ele>422.0</ele>
        <time>2019-04-26T11:22:06.000Z</time>
      </trkpt>
      <trkpt lat="42.439796447753906" lon="-7.21287727355957">
        <ele>423.0</ele>
        <time>2019-04-26T11:22:15.000Z</time>
      </trkpt>
      <trkpt lat="42.439701080322266" lon="-7.212904930114746">
        <ele>423.0</ele>
        <time>2019-04-26T11:22:25.000Z</time>
      </trkpt>
      <trkpt lat="42.43952941894531" lon="-7.212903022766113">
        <ele>419.0</ele>
        <time>2019-04-26T11:22:50.000Z</time>
      </trkpt>
      <trkpt lat="42.439353942871094" lon="-7.212859153747559">
        <ele>413.0</ele>
        <time>2019-04-26T11:23:15.000Z</time>
      </trkpt>
      <trkpt lat="42.43930435180664" lon="-7.212860584259033">
        <ele>411.0</ele>
        <time>2019-04-26T11:23:20.000Z</time>
      </trkpt>
      <trkpt lat="42.439273834228516" lon="-7.212867259979248">
        <ele>409.0</ele>
        <time>2019-04-26T11:23:25.000Z</time>
      </trkpt>
      <trkpt lat="42.43925476074219" lon="-7.212878227233887">
        <ele>407.0</ele>
        <time>2019-04-26T11:23:30.000Z</time>
      </trkpt>
      <trkpt lat="42.439239501953125" lon="-7.212890625">
        <ele>405.0</ele>
        <time>2019-04-26T11:23:35.000Z</time>
      </trkpt>
      <trkpt lat="42.43929672241211" lon="-7.212935924530029">
        <ele>400.0</ele>
        <time>2019-04-26T11:23:50.000Z</time>
      </trkpt>
      <trkpt lat="42.439388275146484" lon="-7.212996482849121">
        <ele>394.0</ele>
        <time>2019-04-26T11:24:05.000Z</time>
      </trkpt>
      <trkpt lat="42.43950653076172" lon="-7.213067531585693">
        <ele>388.0</ele>
        <time>2019-04-26T11:24:20.000Z</time>
      </trkpt>
      <trkpt lat="42.43963623046875" lon="-7.213144302368164">
        <ele>381.0</ele>
        <time>2019-04-26T11:24:35.000Z</time>
      </trkpt>
      <trkpt lat="42.439701080322266" lon="-7.213176727294922">
        <ele>377.0</ele>
        <time>2019-04-26T11:24:41.000Z</time>
      </trkpt>
      <trkpt lat="42.43975067138672" lon="-7.213196277618408">
        <ele>375.0</ele>
        <time>2019-04-26T11:24:47.000Z</time>
      </trkpt>
      <trkpt lat="42.439796447753906" lon="-7.213207244873047">
        <ele>374.0</ele>
        <time>2019-04-26T11:24:53.000Z</time>
      </trkpt>
      <trkpt lat="42.4398307800293" lon="-7.21321439743042">
        <ele>373.0</ele>
        <time>2019-04-26T11:25:00.000Z</time>
      </trkpt>
      <trkpt lat="42.439884185791016" lon="-7.213221549987793">
        <ele>371.0</ele>
        <time>2019-04-26T11:25:07.000Z</time>
      </trkpt>
      <trkpt lat="42.43994140625" lon="-7.213224411010742">
        <ele>369.0</ele>
        <time>2019-04-26T11:25:14.000Z</time>
      </trkpt>
      <trkpt lat="42.43999481201172" lon="-7.2132248878479">
        <ele>366.0</ele>
        <time>2019-04-26T11:25:21.000Z</time>
      </trkpt>
      <trkpt lat="42.4400520324707" lon="-7.213223457336426">
        <ele>364.0</ele>
        <time>2019-04-26T11:25:29.000Z</time>
      </trkpt>
      <trkpt lat="42.440120697021484" lon="-7.213271617889404">
        <ele>361.0</ele>
        <time>2019-04-26T11:25:39.000Z</time>
      </trkpt>
      <trkpt lat="42.44017028808594" lon="-7.213339328765869">
        <ele>359.0</ele>
        <time>2019-04-26T11:25:50.000Z</time>
      </trkpt>
      <trkpt lat="42.440223693847656" lon="-7.213320255279541">
        <ele>357.0</ele>
        <time>2019-04-26T11:26:00.000Z</time>
      </trkpt>
      <trkpt lat="42.44029235839844" lon="-7.21328067779541">
        <ele>354.0</ele>
        <time>2019-04-26T11:26:11.000Z</time>
      </trkpt>
      <trkpt lat="42.44036102294922" lon="-7.21322774887085">
        <ele>352.0</ele>
        <time>2019-04-26T11:26:22.000Z</time>
      </trkpt>
      <trkpt lat="42.44043731689453" lon="-7.213168621063232">
        <ele>349.0</ele>
        <time>2019-04-26T11:26:33.000Z</time>
      </trkpt>
      <trkpt lat="42.44047164916992" lon="-7.213138580322266">
        <ele>348.0</ele>
        <time>2019-04-26T11:26:47.000Z</time>
      </trkpt>
      <trkpt lat="42.440486907958984" lon="-7.213114261627197">
        <ele>347.0</ele>
        <time>2019-04-26T11:27:01.000Z</time>
      </trkpt>
      <trkpt lat="42.440494537353516" lon="-7.2130937576293945">
        <ele>347.0</ele>
        <time>2019-04-26T11:27:15.000Z</time>
      </trkpt>
      <trkpt lat="42.440494537353516" lon="-7.213075160980225">
        <ele>347.0</ele>
        <time>2019-04-26T11:27:29.000Z</time>
      </trkpt>
      <trkpt lat="42.44050598144531" lon="-7.2130584716796875">
        <ele>346.0</ele>
        <time>2019-04-26T11:27:29.000Z</time>
      </trkpt>
      <trkpt lat="42.440513610839844" lon="-7.213045120239258">
        <ele>346.0</ele>
        <time>2019-04-26T11:27:29.000Z</time>
      </trkpt>
      <trkpt lat="42.440521240234375" lon="-7.213033676147461">
        <ele>346.0</ele>
        <time>2019-04-26T11:27:29.000Z</time>
      </trkpt>
      <trkpt lat="42.44052505493164" lon="-7.213022708892822">
        <ele>347.0</ele>
        <time>2019-04-26T11:27:30.000Z</time>
      </trkpt>
      <trkpt lat="42.44056701660156" lon="-7.2129645347595215">
        <ele>346.0</ele>
        <time>2019-04-26T11:27:34.000Z</time>
      </trkpt>
      <trkpt lat="42.44062042236328" lon="-7.212886810302734">
        <ele>346.0</ele>
        <time>2019-04-26T11:27:39.000Z</time>
      </trkpt>
      <trkpt lat="42.44068145751953" lon="-7.212796688079834">
        <ele>346.0</ele>
        <time>2019-04-26T11:27:44.000Z</time>
      </trkpt>
      <trkpt lat="42.44075012207031" lon="-7.212700366973877">
        <ele>346.0</ele>
        <time>2019-04-26T11:27:49.000Z</time>
      </trkpt>
      <trkpt lat="42.440757751464844" lon="-7.212680339813232">
        <ele>346.0</ele>
        <time>2019-04-26T11:27:52.000Z</time>
      </trkpt>
      <trkpt lat="42.44075012207031" lon="-7.212686061859131">
        <ele>345.0</ele>
        <time>2019-04-26T11:27:55.000Z</time>
      </trkpt>
      <trkpt lat="42.44072723388672" lon="-7.212708473205566">
        <ele>345.0</ele>
        <time>2019-04-26T11:27:58.000Z</time>
      </trkpt>
      <trkpt lat="42.440696716308594" lon="-7.212739944458008">
        <ele>344.0</ele>
        <time>2019-04-26T11:28:02.000Z</time>
      </trkpt>
      <trkpt lat="42.44069290161133" lon="-7.2127461433410645">
        <ele>342.0</ele>
        <time>2019-04-26T11:28:10.000Z</time>
      </trkpt>
      <trkpt lat="42.44069290161133" lon="-7.212750434875488">
        <ele>340.0</ele>
        <time>2019-04-26T11:28:18.000Z</time>
      </trkpt>
      <trkpt lat="42.440696716308594" lon="-7.212753772735596">
        <ele>337.0</ele>
        <time>2019-04-26T11:28:26.000Z</time>
      </trkpt>
      <trkpt lat="42.44070053100586" lon="-7.212757110595703">
        <ele>334.0</ele>
        <time>2019-04-26T11:28:35.000Z</time>
      </trkpt>
      <trkpt lat="42.440704345703125" lon="-7.212760925292969">
        <ele>333.0</ele>
        <time>2019-04-26T11:28:35.000Z</time>
      </trkpt>
      <trkpt lat="42.440704345703125" lon="-7.212764263153076">
        <ele>333.0</ele>
        <time>2019-04-26T11:28:35.000Z</time>
      </trkpt>
      <trkpt lat="42.440704345703125" lon="-7.212768077850342">
        <ele>333.0</ele>
        <time>2019-04-26T11:28:35.000Z</time>
      </trkpt>
      <trkpt lat="42.44070816040039" lon="-7.212771415710449">
        <ele>334.0</ele>
        <time>2019-04-26T11:28:36.000Z</time>
      </trkpt>
      <trkpt lat="42.44070816040039" lon="-7.212774753570557">
        <ele>334.0</ele>
        <time>2019-04-26T11:28:36.000Z</time>
      </trkpt>
      <trkpt lat="42.44070816040039" lon="-7.212778091430664">
        <ele>334.0</ele>
        <time>2019-04-26T11:28:36.000Z</time>
      </trkpt>
      <trkpt lat="42.44070816040039" lon="-7.212780952453613">
        <ele>334.0</ele>
        <time>2019-04-26T11:28:36.000Z</time>
      </trkpt>
      <trkpt lat="42.440711975097656" lon="-7.2127838134765625">
        <ele>334.0</ele>
        <time>2019-04-26T11:28:37.000Z</time>
      </trkpt>
      <trkpt lat="42.440711975097656" lon="-7.212793350219727">
        <ele>334.0</ele>
        <time>2019-04-26T11:28:38.000Z</time>
      </trkpt>
      <trkpt lat="42.44071578979492" lon="-7.21280574798584">
        <ele>333.0</ele>
        <time>2019-04-26T11:28:39.000Z</time>
      </trkpt>
      <trkpt lat="42.44071960449219" lon="-7.212819576263428">
        <ele>333.0</ele>
        <time>2019-04-26T11:28:40.000Z</time>
      </trkpt>
      <trkpt lat="42.44071960449219" lon="-7.212834358215332">
        <ele>333.0</ele>
        <time>2019-04-26T11:28:42.000Z</time>
      </trkpt>
      <trkpt lat="42.44072341918945" lon="-7.212844371795654">
        <ele>332.0</ele>
        <time>2019-04-26T11:28:42.000Z</time>
      </trkpt>
      <trkpt lat="42.44072341918945" lon="-7.212852954864502">
        <ele>332.0</ele>
        <time>2019-04-26T11:28:42.000Z</time>
      </trkpt>
      <trkpt lat="42.44072723388672" lon="-7.212861061096191">
        <ele>332.0</ele>
        <time>2019-04-26T11:28:42.000Z</time>
      </trkpt>
      <trkpt lat="42.44072723388672" lon="-7.2128682136535645">
        <ele>333.0</ele>
        <time>2019-04-26T11:28:43.000Z</time>
      </trkpt>
      <trkpt lat="42.440731048583984" lon="-7.2128801345825195">
        <ele>333.0</ele>
        <time>2019-04-26T11:28:43.000Z</time>
      </trkpt>
      <trkpt lat="42.44073486328125" lon="-7.212893009185791">
        <ele>333.0</ele>
        <time>2019-04-26T11:28:43.000Z</time>
      </trkpt>
      <trkpt lat="42.44073486328125" lon="-7.212907314300537">
        <ele>333.0</ele>
        <time>2019-04-26T11:28:43.000Z</time>
      </trkpt>
      <trkpt lat="42.440738677978516" lon="-7.212921619415283">
        <ele>333.0</ele>
        <time>2019-04-26T11:28:44.000Z</time>
      </trkpt>
      <trkpt lat="42.44075393676758" lon="-7.213022708892822">
        <ele>332.0</ele>
        <time>2019-04-26T11:28:46.000Z</time>
      </trkpt>
      <trkpt lat="42.440757751464844" lon="-7.21305513381958">
        <ele>332.0</ele>
        <time>2019-04-26T11:28:47.000Z</time>
      </trkpt>
      <trkpt lat="42.440757751464844" lon="-7.213076591491699">
        <ele>332.0</ele>
        <time>2019-04-26T11:28:48.000Z</time>
      </trkpt>
      <trkpt lat="42.440757751464844" lon="-7.213092803955078">
        <ele>332.0</ele>
        <time>2019-04-26T11:28:49.000Z</time>
      </trkpt>
      <trkpt lat="42.440757751464844" lon="-7.213097095489502">
        <ele>331.0</ele>
        <time>2019-04-26T11:28:49.000Z</time>
      </trkpt>
      <trkpt lat="42.44076156616211" lon="-7.213101863861084">
        <ele>331.0</ele>
        <time>2019-04-26T11:28:50.000Z</time>
      </trkpt>
      <trkpt lat="42.440765380859375" lon="-7.213106155395508">
        <ele>331.0</ele>
        <time>2019-04-26T11:28:50.000Z</time>
      </trkpt>
      <trkpt lat="42.44076919555664" lon="-7.21311092376709">
        <ele>331.0</ele>
        <time>2019-04-26T11:28:51.000Z</time>
      </trkpt>
      <trkpt lat="42.440773010253906" lon="-7.213113307952881">
        <ele>331.0</ele>
        <time>2019-04-26T11:28:51.000Z</time>
      </trkpt>
      <trkpt lat="42.440773010253906" lon="-7.213115215301514">
        <ele>331.0</ele>
        <time>2019-04-26T11:28:51.000Z</time>
      </trkpt>
      <trkpt lat="42.440773010253906" lon="-7.21311616897583">
        <ele>331.0</ele>
        <time>2019-04-26T11:28:51.000Z</time>
      </trkpt>
      <trkpt lat="42.440773010253906" lon="-7.213116645812988">
        <ele>331.0</ele>
        <time>2019-04-26T11:28:52.000Z</time>
      </trkpt>
      <trkpt lat="42.440773010253906" lon="-7.213118076324463">
        <ele>330.0</ele>
        <time>2019-04-26T11:28:52.000Z</time>
      </trkpt>
      <trkpt lat="42.44077682495117" lon="-7.2131195068359375">
        <ele>330.0</ele>
        <time>2019-04-26T11:28:52.000Z</time>
      </trkpt>
      <trkpt lat="42.44077682495117" lon="-7.213120937347412">
        <ele>330.0</ele>
        <time>2019-04-26T11:28:52.000Z</time>
      </trkpt>
      <trkpt lat="42.44077682495117" lon="-7.2131218910217285">
        <ele>330.0</ele>
        <time>2019-04-26T11:28:53.000Z</time>
      </trkpt>
      <trkpt lat="42.44077682495117" lon="-7.213123321533203">
        <ele>330.0</ele>
        <time>2019-04-26T11:28:53.000Z</time>
      </trkpt>
      <trkpt lat="42.44077682495117" lon="-7.2131242752075195">
        <ele>330.0</ele>
        <time>2019-04-26T11:28:53.000Z</time>
      </trkpt>
      <trkpt lat="42.44077682495117" lon="-7.213125228881836">
        <ele>330.0</ele>
        <time>2019-04-26T11:28:53.000Z</time>
      </trkpt>
      <trkpt lat="42.44077682495117" lon="-7.213126182556152">
        <ele>330.0</ele>
        <time>2019-04-26T11:28:54.000Z</time>
      </trkpt>
      <trkpt lat="42.44077682495117" lon="-7.2131266593933105">
        <ele>330.0</ele>
        <time>2019-04-26T11:28:54.000Z</time>
      </trkpt>
      <trkpt lat="42.44077682495117" lon="-7.213127613067627">
        <ele>330.0</ele>
        <time>2019-04-26T11:28:54.000Z</time>
      </trkpt>
      <trkpt lat="42.44077682495117" lon="-7.213128566741943">
        <ele>330.0</ele>
        <time>2019-04-26T11:28:54.000Z</time>
      </trkpt>
      <trkpt lat="42.440773010253906" lon="-7.213129043579102">
        <ele>330.0</ele>
        <time>2019-04-26T11:28:55.000Z</time>
      </trkpt>
      <trkpt lat="42.440773010253906" lon="-7.21312952041626">
        <ele>330.0</ele>
        <time>2019-04-26T11:28:55.000Z</time>
      </trkpt>
      <trkpt lat="42.440773010253906" lon="-7.213129997253418">
        <ele>330.0</ele>
        <time>2019-04-26T11:28:55.000Z</time>
      </trkpt>
      <trkpt lat="42.440773010253906" lon="-7.213130474090576">
        <ele>330.0</ele>
        <time>2019-04-26T11:28:55.000Z</time>
      </trkpt>
      <trkpt lat="42.440773010253906" lon="-7.213130950927734">
        <ele>330.0</ele>
        <time>2019-04-26T11:28:56.000Z</time>
      </trkpt>
      <trkpt lat="42.440773010253906" lon="-7.213137626647949">
        <ele>329.0</ele>
        <time>2019-04-26T11:29:04.000Z</time>
      </trkpt>
      <trkpt lat="42.440773010253906" lon="-7.213147163391113">
        <ele>327.0</ele>
        <time>2019-04-26T11:29:13.000Z</time>
      </trkpt>
      <trkpt lat="42.44076919555664" lon="-7.21315860748291">
        <ele>326.0</ele>
        <time>2019-04-26T11:29:21.000Z</time>
      </trkpt>
      <trkpt lat="42.44076919555664" lon="-7.213170528411865">
        <ele>324.0</ele>
        <time>2019-04-26T11:29:30.000Z</time>
      </trkpt>
      <trkpt lat="42.440765380859375" lon="-7.213178634643555">
        <ele>323.0</ele>
        <time>2019-04-26T11:29:30.000Z</time>
      </trkpt>
      <trkpt lat="42.440765380859375" lon="-7.213185787200928">
        <ele>323.0</ele>
        <time>2019-04-26T11:29:30.000Z</time>
      </trkpt>
      <trkpt lat="42.440765380859375" lon="-7.213192462921143">
        <ele>323.0</ele>
        <time>2019-04-26T11:29:30.000Z</time>
      </trkpt>
      <trkpt lat="42.440765380859375" lon="-7.213199138641357">
        <ele>324.0</ele>
        <time>2019-04-26T11:29:31.000Z</time>
      </trkpt>
      <trkpt lat="42.440757751464844" lon="-7.213222026824951">
        <ele>324.0</ele>
        <time>2019-04-26T11:29:32.000Z</time>
      </trkpt>
      <trkpt lat="42.44075012207031" lon="-7.213251113891602">
        <ele>323.0</ele>
        <time>2019-04-26T11:29:33.000Z</time>
      </trkpt>
      <trkpt lat="42.44074249267578" lon="-7.213284969329834">
        <ele>323.0</ele>
        <time>2019-04-26T11:29:34.000Z</time>
      </trkpt>
      <trkpt lat="42.44073486328125" lon="-7.213320732116699">
        <ele>323.0</ele>
        <time>2019-04-26T11:29:35.000Z</time>
      </trkpt>
      <trkpt lat="42.440731048583984" lon="-7.213338851928711">
        <ele>322.0</ele>
        <time>2019-04-26T11:29:39.000Z</time>
      </trkpt>
      <trkpt lat="42.44072723388672" lon="-7.213351726531982">
        <ele>321.0</ele>
        <time>2019-04-26T11:29:44.000Z</time>
      </trkpt>
      <trkpt lat="42.44072723388672" lon="-7.213361740112305">
        <ele>320.0</ele>
        <time>2019-04-26T11:29:49.000Z</time>
      </trkpt>
      <trkpt lat="42.44072341918945" lon="-7.213369846343994">
        <ele>319.0</ele>
        <time>2019-04-26T11:29:54.000Z</time>
      </trkpt>
      <trkpt lat="42.44071960449219" lon="-7.213379383087158">
        <ele>319.0</ele>
        <time>2019-04-26T11:29:54.000Z</time>
      </trkpt>
      <trkpt lat="42.44071960449219" lon="-7.213387966156006">
        <ele>319.0</ele>
        <time>2019-04-26T11:29:54.000Z</time>
      </trkpt>
      <trkpt lat="42.44071578979492" lon="-7.213395595550537">
        <ele>319.0</ele>
        <time>2019-04-26T11:29:54.000Z</time>
      </trkpt>
      <trkpt lat="42.44071578979492" lon="-7.21340274810791">
        <ele>319.0</ele>
        <time>2019-04-26T11:29:55.000Z</time>
      </trkpt>
      <trkpt lat="42.440677642822266" lon="-7.2135820388793945">
        <ele>319.0</ele>
        <time>2019-04-26T11:30:01.000Z</time>
      </trkpt>
      <trkpt lat="42.44068908691406" lon="-7.213621139526367">
        <ele>318.0</ele>
        <time>2019-04-26T11:30:09.000Z</time>
      </trkpt>
      <trkpt lat="42.44070816040039" lon="-7.213657855987549">
        <ele>317.0</ele>
        <time>2019-04-26T11:30:18.000Z</time>
      </trkpt>
      <trkpt lat="42.44073486328125" lon="-7.213693141937256">
        <ele>316.0</ele>
        <time>2019-04-26T11:30:26.000Z</time>
      </trkpt>
      <trkpt lat="42.440765380859375" lon="-7.2137274742126465">
        <ele>314.0</ele>
        <time>2019-04-26T11:30:35.000Z</time>
      </trkpt>
      <trkpt lat="42.44078063964844" lon="-7.213748931884766">
        <ele>313.0</ele>
        <time>2019-04-26T11:30:42.000Z</time>
      </trkpt>
      <trkpt lat="42.440799713134766" lon="-7.213764667510986">
        <ele>312.0</ele>
        <time>2019-04-26T11:30:49.000Z</time>
      </trkpt>
      <trkpt lat="42.44081497192383" lon="-7.213775634765625">
        <ele>310.0</ele>
        <time>2019-04-26T11:30:56.000Z</time>
      </trkpt>
      <trkpt lat="42.440826416015625" lon="-7.213785171508789">
        <ele>309.0</ele>
        <time>2019-04-26T11:31:03.000Z</time>
      </trkpt>
      <trkpt lat="42.44083786010742" lon="-7.213794231414795">
        <ele>309.0</ele>
        <time>2019-04-26T11:31:03.000Z</time>
      </trkpt>
      <trkpt lat="42.44084548950195" lon="-7.213801383972168">
        <ele>309.0</ele>
        <time>2019-04-26T11:31:03.000Z</time>
      </trkpt>
      <trkpt lat="42.440853118896484" lon="-7.213807106018066">
        <ele>309.0</ele>
        <time>2019-04-26T11:31:03.000Z</time>
      </trkpt>
      <trkpt lat="42.44085693359375" lon="-7.213812351226807">
        <ele>309.0</ele>
        <time>2019-04-26T11:31:04.000Z</time>
      </trkpt>
      <trkpt lat="42.440895080566406" lon="-7.213841915130615">
        <ele>309.0</ele>
        <time>2019-04-26T11:31:07.000Z</time>
      </trkpt>
      <trkpt lat="42.440940856933594" lon="-7.21388053894043">
        <ele>309.0</ele>
        <time>2019-04-26T11:31:10.000Z</time>
      </trkpt>
      <trkpt lat="42.44099426269531" lon="-7.213925361633301">
        <ele>308.0</ele>
        <time>2019-04-26T11:31:13.000Z</time>
      </trkpt>
      <trkpt lat="42.44105529785156" lon="-7.213973522186279">
        <ele>308.0</ele>
        <time>2019-04-26T11:31:17.000Z</time>
      </trkpt>
      <trkpt lat="42.44106674194336" lon="-7.213995933532715">
        <ele>307.0</ele>
        <time>2019-04-26T11:31:20.000Z</time>
      </trkpt>
      <trkpt lat="42.441062927246094" lon="-7.214011192321777">
        <ele>307.0</ele>
        <time>2019-04-26T11:31:23.000Z</time>
      </trkpt>
      <trkpt lat="42.4410514831543" lon="-7.214021682739258">
        <ele>306.0</ele>
        <time>2019-04-26T11:31:26.000Z</time>
      </trkpt>
      <trkpt lat="42.44103240966797" lon="-7.214029312133789">
        <ele>306.0</ele>
        <time>2019-04-26T11:31:29.000Z</time>
      </trkpt>
      <trkpt lat="42.441043853759766" lon="-7.214034557342529">
        <ele>306.0</ele>
        <time>2019-04-26T11:31:56.000Z</time>
      </trkpt>
      <trkpt lat="42.44105911254883" lon="-7.214036464691162">
        <ele>306.0</ele>
        <time>2019-04-26T11:32:23.000Z</time>
      </trkpt>
      <trkpt lat="42.441078186035156" lon="-7.214035511016846">
        <ele>306.0</ele>
        <time>2019-04-26T11:32:50.000Z</time>
      </trkpt>
      <trkpt lat="42.441097259521484" lon="-7.214033603668213">
        <ele>307.0</ele>
        <time>2019-04-26T11:33:18.000Z</time>
      </trkpt>
      <trkpt lat="42.44110870361328" lon="-7.214034557342529">
        <ele>307.0</ele>
        <time>2019-04-26T11:33:18.000Z</time>
      </trkpt>
      <trkpt lat="42.44111633300781" lon="-7.2140350341796875">
        <ele>307.0</ele>
        <time>2019-04-26T11:33:18.000Z</time>
      </trkpt>
      <trkpt lat="42.441123962402344" lon="-7.214035511016846">
        <ele>307.0</ele>
        <time>2019-04-26T11:33:18.000Z</time>
      </trkpt>
      <trkpt lat="42.441131591796875" lon="-7.214035987854004">
        <ele>307.0</ele>
        <time>2019-04-26T11:33:19.000Z</time>
      </trkpt>
      <trkpt lat="42.44118881225586" lon="-7.21406888961792">
        <ele>307.0</ele>
        <time>2019-04-26T11:33:26.000Z</time>
      </trkpt>
      <trkpt lat="42.44126892089844" lon="-7.214115142822266">
        <ele>308.0</ele>
        <time>2019-04-26T11:33:33.000Z</time>
      </trkpt>
      <trkpt lat="42.44136047363281" lon="-7.214170455932617">
        <ele>309.0</ele>
        <time>2019-04-26T11:33:40.000Z</time>
      </trkpt>
      <trkpt lat="42.441463470458984" lon="-7.214230060577393">
        <ele>310.0</ele>
        <time>2019-04-26T11:33:47.000Z</time>
      </trkpt>
      <trkpt lat="42.44154357910156" lon="-7.214288234710693">
        <ele>310.0</ele>
        <time>2019-04-26T11:33:54.000Z</time>
      </trkpt>
      <trkpt lat="42.441619873046875" lon="-7.21435022354126">
        <ele>310.0</ele>
        <time>2019-04-26T11:34:02.000Z</time>
      </trkpt>
      <trkpt lat="42.44169998168945" lon="-7.214415073394775">
        <ele>310.0</ele>
        <time>2019-04-26T11:34:10.000Z</time>
      </trkpt>
      <trkpt lat="42.441776275634766" lon="-7.214481353759766">
        <ele>310.0</ele>
        <time>2019-04-26T11:34:18.000Z</time>
      </trkpt>
      <trkpt lat="42.44184494018555" lon="-7.214564323425293">
        <ele>309.0</ele>
        <time>2019-04-26T11:34:27.000Z</time>
      </trkpt>
      <trkpt lat="42.4419059753418" lon="-7.21465539932251">
        <ele>309.0</ele>
        <time>2019-04-26T11:34:36.000Z</time>
      </trkpt>
      <trkpt lat="42.44196319580078" lon="-7.214752197265625">
        <ele>309.0</ele>
        <time>2019-04-26T11:34:45.000Z</time>
      </trkpt>
      <trkpt lat="42.442020416259766" lon="-7.214851379394531">
        <ele>308.0</ele>
        <time>2019-04-26T11:34:55.000Z</time>
      </trkpt>
      <trkpt lat="42.442081451416016" lon="-7.214945316314697">
        <ele>308.0</ele>
        <time>2019-04-26T11:35:03.000Z</time>
      </trkpt>
      <trkpt lat="42.442142486572266" lon="-7.215039253234863">
        <ele>307.0</ele>
        <time>2019-04-26T11:35:11.000Z</time>
      </trkpt>
      <trkpt lat="42.44219970703125" lon="-7.215134143829346">
        <ele>307.0</ele>
        <time>2019-04-26T11:35:19.000Z</time>
      </trkpt>
      <trkpt lat="42.4422607421875" lon="-7.21522855758667">
        <ele>306.0</ele>
        <time>2019-04-26T11:35:27.000Z</time>
      </trkpt>
      <trkpt lat="42.44246292114258" lon="-7.215628147125244">
        <ele>303.0</ele>
        <time>2019-04-26T11:35:55.000Z</time>
      </trkpt>
      <trkpt lat="42.442596435546875" lon="-7.216076850891113">
        <ele>298.0</ele>
        <time>2019-04-26T11:36:23.000Z</time>
      </trkpt>
      <trkpt lat="42.442771911621094" lon="-7.216492176055908">
        <ele>295.0</ele>
        <time>2019-04-26T11:36:52.000Z</time>
      </trkpt>
      <trkpt lat="42.44291687011719" lon="-7.2169342041015625">
        <ele>293.0</ele>
        <time>2019-04-26T11:37:19.000Z</time>
      </trkpt>
      <trkpt lat="42.443077087402344" lon="-7.217366695404053">
        <ele>291.0</ele>
        <time>2019-04-26T11:37:49.000Z</time>
      </trkpt>
      <trkpt lat="42.443275451660156" lon="-7.2177605628967285">
        <ele>291.0</ele>
        <time>2019-04-26T11:38:17.000Z</time>
      </trkpt>
      <trkpt lat="42.443458557128906" lon="-7.218152046203613">
        <ele>288.0</ele>
        <time>2019-04-26T11:38:47.000Z</time>
      </trkpt>
      <trkpt lat="42.44347381591797" lon="-7.218204021453857">
        <ele>288.0</ele>
        <time>2019-04-26T11:38:53.000Z</time>
      </trkpt>
      <trkpt lat="42.443450927734375" lon="-7.218189716339111">
        <ele>289.0</ele>
        <time>2019-04-26T11:39:00.000Z</time>
      </trkpt>
      <trkpt lat="42.4434700012207" lon="-7.218264102935791">
        <ele>288.0</ele>
        <time>2019-04-26T11:40:43.000Z</time>
      </trkpt>
      <trkpt lat="42.44349670410156" lon="-7.2183637619018555">
        <ele>287.0</ele>
        <time>2019-04-26T11:42:27.000Z</time>
      </trkpt>
      <trkpt lat="42.443504333496094" lon="-7.2183837890625">
        <ele>287.0</ele>
        <time>2019-04-26T11:42:27.000Z</time>
      </trkpt>
      <trkpt lat="42.443504333496094" lon="-7.218393325805664">
        <ele>286.0</ele>
        <time>2019-04-26T11:42:27.000Z</time>
      </trkpt>
      <trkpt lat="42.44350814819336" lon="-7.218396186828613">
        <ele>287.0</ele>
        <time>2019-04-26T11:42:27.000Z</time>
      </trkpt>
      <trkpt lat="42.443504333496094" lon="-7.218395709991455">
        <ele>287.0</ele>
        <time>2019-04-26T11:42:28.000Z</time>
      </trkpt>
      <trkpt lat="42.443538665771484" lon="-7.218453407287598">
        <ele>288.0</ele>
        <time>2019-04-26T11:42:34.000Z</time>
      </trkpt>
      <trkpt lat="42.443580627441406" lon="-7.218531608581543">
        <ele>291.0</ele>
        <time>2019-04-26T11:42:40.000Z</time>
      </trkpt>
      <trkpt lat="42.443634033203125" lon="-7.218624114990234">
        <ele>294.0</ele>
        <time>2019-04-26T11:42:46.000Z</time>
      </trkpt>
      <trkpt lat="42.44369125366211" lon="-7.218723297119141">
        <ele>297.0</ele>
        <time>2019-04-26T11:42:52.000Z</time>
      </trkpt>
      <trkpt lat="42.443702697753906" lon="-7.218764781951904">
        <ele>298.0</ele>
        <time>2019-04-26T11:42:55.000Z</time>
      </trkpt>
      <trkpt lat="42.44369888305664" lon="-7.218789577484131">
        <ele>299.0</ele>
        <time>2019-04-26T11:42:59.000Z</time>
      </trkpt>
      <trkpt lat="42.44368362426758" lon="-7.218802452087402">
        <ele>300.0</ele>
        <time>2019-04-26T11:43:02.000Z</time>
      </trkpt>
      <trkpt lat="42.443668365478516" lon="-7.218810081481934">
        <ele>300.0</ele>
        <time>2019-04-26T11:43:06.000Z</time>
      </trkpt>
      <trkpt lat="42.44373321533203" lon="-7.218990325927734">
        <ele>302.0</ele>
        <time>2019-04-26T11:43:21.000Z</time>
      </trkpt>
      <trkpt lat="42.44384002685547" lon="-7.219233512878418">
        <ele>303.0</ele>
        <time>2019-04-26T11:43:37.000Z</time>
      </trkpt>
      <trkpt lat="42.443878173828125" lon="-7.219343185424805">
        <ele>303.0</ele>
        <time>2019-04-26T11:43:44.000Z</time>
      </trkpt>
      <trkpt lat="42.44391632080078" lon="-7.219455242156982">
        <ele>302.0</ele>
        <time>2019-04-26T11:43:52.000Z</time>
      </trkpt>
      <trkpt lat="42.44395065307617" lon="-7.219567775726318">
        <ele>300.0</ele>
        <time>2019-04-26T11:43:59.000Z</time>
      </trkpt>
      <trkpt lat="42.44398498535156" lon="-7.219681262969971">
        <ele>299.0</ele>
        <time>2019-04-26T11:44:07.000Z</time>
      </trkpt>
      <trkpt lat="42.444007873535156" lon="-7.2197980880737305">
        <ele>298.0</ele>
        <time>2019-04-26T11:44:14.000Z</time>
      </trkpt>
      <trkpt lat="42.444026947021484" lon="-7.219917297363281">
        <ele>298.0</ele>
        <time>2019-04-26T11:44:22.000Z</time>
      </trkpt>
      <trkpt lat="42.44404602050781" lon="-7.220037460327148">
        <ele>299.0</ele>
        <time>2019-04-26T11:44:30.000Z</time>
      </trkpt>
      <trkpt lat="42.44405746459961" lon="-7.220158576965332">
        <ele>299.0</ele>
        <time>2019-04-26T11:44:38.000Z</time>
      </trkpt>
      <trkpt lat="42.444091796875" lon="-7.220269680023193">
        <ele>298.0</ele>
        <time>2019-04-26T11:44:45.000Z</time>
      </trkpt>
      <trkpt lat="42.444129943847656" lon="-7.2203779220581055">
        <ele>298.0</ele>
        <time>2019-04-26T11:44:52.000Z</time>
      </trkpt>
      <trkpt lat="42.44417190551758" lon="-7.220483303070068">
        <ele>297.0</ele>
        <time>2019-04-26T11:44:59.000Z</time>
      </trkpt>
      <trkpt lat="42.444217681884766" lon="-7.220587730407715">
        <ele>296.0</ele>
        <time>2019-04-26T11:45:07.000Z</time>
      </trkpt>
      <trkpt lat="42.44424819946289" lon="-7.220700740814209">
        <ele>294.0</ele>
        <time>2019-04-26T11:45:14.000Z</time>
      </trkpt>
      <trkpt lat="42.444278717041016" lon="-7.220815658569336">
        <ele>293.0</ele>
        <time>2019-04-26T11:45:22.000Z</time>
      </trkpt>
      <trkpt lat="42.44430923461914" lon="-7.2209320068359375">
        <ele>291.0</ele>
        <time>2019-04-26T11:45:29.000Z</time>
      </trkpt>
      <trkpt lat="42.4443359375" lon="-7.221048831939697">
        <ele>289.0</ele>
        <time>2019-04-26T11:45:37.000Z</time>
      </trkpt>
      <trkpt lat="42.44438171386719" lon="-7.221153736114502">
        <ele>288.0</ele>
        <time>2019-04-26T11:45:43.000Z</time>
      </trkpt>
      <trkpt lat="42.44443130493164" lon="-7.221253871917725">
        <ele>286.0</ele>
        <time>2019-04-26T11:45:50.000Z</time>
      </trkpt>
      <trkpt lat="42.444488525390625" lon="-7.221351623535156">
        <ele>285.0</ele>
        <time>2019-04-26T11:45:56.000Z</time>
      </trkpt>
      <trkpt lat="42.44454574584961" lon="-7.221447467803955">
        <ele>284.0</ele>
        <time>2019-04-26T11:46:03.000Z</time>
      </trkpt>
      <trkpt lat="42.444740295410156" lon="-7.221863746643066">
        <ele>286.0</ele>
        <time>2019-04-26T11:46:36.000Z</time>
      </trkpt>
      <trkpt lat="42.44498825073242" lon="-7.222236633300781">
        <ele>289.0</ele>
        <time>2019-04-26T11:47:08.000Z</time>
      </trkpt>
      <trkpt lat="42.44525909423828" lon="-7.22255802154541">
        <ele>281.0</ele>
        <time>2019-04-26T11:47:32.000Z</time>
      </trkpt>
      <trkpt lat="42.44550323486328" lon="-7.222928047180176">
        <ele>274.0</ele>
        <time>2019-04-26T11:48:01.000Z</time>
      </trkpt>
      <trkpt lat="42.4456901550293" lon="-7.223234176635742">
        <ele>266.0</ele>
        <time>2019-04-26T11:48:24.000Z</time>
      </trkpt>
      <trkpt lat="42.445701599121094" lon="-7.223281383514404">
        <ele>266.0</ele>
        <time>2019-04-26T11:48:26.000Z</time>
      </trkpt>
      <trkpt lat="42.44569778442383" lon="-7.223315715789795">
        <ele>265.0</ele>
        <time>2019-04-26T11:48:28.000Z</time>
      </trkpt>
      <trkpt lat="42.44568634033203" lon="-7.223341941833496">
        <ele>265.0</ele>
        <time>2019-04-26T11:48:30.000Z</time>
      </trkpt>
      <trkpt lat="42.44567108154297" lon="-7.223364353179932">
        <ele>266.0</ele>
        <time>2019-04-26T11:48:33.000Z</time>
      </trkpt>
      <trkpt lat="42.44573974609375" lon="-7.223550796508789">
        <ele>267.0</ele>
        <time>2019-04-26T11:48:48.000Z</time>
      </trkpt>
      <trkpt lat="42.44584655761719" lon="-7.223793029785156">
        <ele>270.0</ele>
        <time>2019-04-26T11:49:04.000Z</time>
      </trkpt>
      <trkpt lat="42.44587326049805" lon="-7.223909854888916">
        <ele>271.0</ele>
        <time>2019-04-26T11:49:11.000Z</time>
      </trkpt>
      <trkpt lat="42.44588851928711" lon="-7.224030017852783">
        <ele>271.0</ele>
        <time>2019-04-26T11:49:19.000Z</time>
      </trkpt>
      <trkpt lat="42.44589614868164" lon="-7.224153518676758">
        <ele>270.0</ele>
        <time>2019-04-26T11:49:27.000Z</time>
      </trkpt>
      <trkpt lat="42.44590377807617" lon="-7.224277973175049">
        <ele>270.0</ele>
        <time>2019-04-26T11:49:35.000Z</time>
      </trkpt>
      <trkpt lat="42.44591522216797" lon="-7.224399089813232">
        <ele>270.0</ele>
        <time>2019-04-26T11:49:42.000Z</time>
      </trkpt>
      <trkpt lat="42.445919036865234" lon="-7.224520683288574">
        <ele>271.0</ele>
        <time>2019-04-26T11:49:49.000Z</time>
      </trkpt>
      <trkpt lat="42.445926666259766" lon="-7.224642276763916">
        <ele>273.0</ele>
        <time>2019-04-26T11:49:56.000Z</time>
      </trkpt>
      <trkpt lat="42.44593048095703" lon="-7.224763870239258">
        <ele>274.0</ele>
        <time>2019-04-26T11:50:03.000Z</time>
      </trkpt>
      <trkpt lat="42.445926666259766" lon="-7.224884510040283">
        <ele>274.0</ele>
        <time>2019-04-26T11:50:10.000Z</time>
      </trkpt>
      <trkpt lat="42.445919036865234" lon="-7.22500467300415">
        <ele>274.0</ele>
        <time>2019-04-26T11:50:17.000Z</time>
      </trkpt>
      <trkpt lat="42.4459114074707" lon="-7.225124359130859">
        <ele>274.0</ele>
        <time>2019-04-26T11:50:24.000Z</time>
      </trkpt>
      <trkpt lat="42.445899963378906" lon="-7.225244522094727">
        <ele>274.0</ele>
        <time>2019-04-26T11:50:32.000Z</time>
      </trkpt>
      <trkpt lat="42.44589614868164" lon="-7.225365161895752">
        <ele>274.0</ele>
        <time>2019-04-26T11:50:38.000Z</time>
      </trkpt>
      <trkpt lat="42.44589614868164" lon="-7.2254862785339355">
        <ele>274.0</ele>
        <time>2019-04-26T11:50:45.000Z</time>
      </trkpt>
      <trkpt lat="42.44589614868164" lon="-7.225607872009277">
        <ele>274.0</ele>
        <time>2019-04-26T11:50:52.000Z</time>
      </trkpt>
      <trkpt lat="42.445899963378906" lon="-7.225729465484619">
        <ele>274.0</ele>
        <time>2019-04-26T11:50:59.000Z</time>
      </trkpt>
      <trkpt lat="42.44590377807617" lon="-7.225849628448486">
        <ele>275.0</ele>
        <time>2019-04-26T11:51:05.000Z</time>
      </trkpt>
      <trkpt lat="42.44590759277344" lon="-7.225970268249512">
        <ele>276.0</ele>
        <time>2019-04-26T11:51:12.000Z</time>
      </trkpt>
      <trkpt lat="42.44591522216797" lon="-7.226090431213379">
        <ele>277.0</ele>
        <time>2019-04-26T11:51:19.000Z</time>
      </trkpt>
      <trkpt lat="42.4459228515625" lon="-7.226210594177246">
        <ele>278.0</ele>
        <time>2019-04-26T11:51:26.000Z</time>
      </trkpt>
      <trkpt lat="42.4459228515625" lon="-7.226696014404297">
        <ele>280.0</ele>
        <time>2019-04-26T11:51:54.000Z</time>
      </trkpt>
      <trkpt lat="42.44603729248047" lon="-7.227169036865234">
        <ele>278.0</ele>
        <time>2019-04-26T11:52:21.000Z</time>
      </trkpt>
      <trkpt lat="42.44619369506836" lon="-7.227614402770996">
        <ele>276.0</ele>
        <time>2019-04-26T11:52:49.000Z</time>
      </trkpt>
      <trkpt lat="42.446372985839844" lon="-7.228028297424316">
        <ele>274.0</ele>
        <time>2019-04-26T11:53:17.000Z</time>
      </trkpt>
      <trkpt lat="42.446598052978516" lon="-7.228409290313721">
        <ele>269.0</ele>
        <time>2019-04-26T11:53:43.000Z</time>
      </trkpt>
      <trkpt lat="42.44670867919922" lon="-7.228595733642578">
        <ele>270.0</ele>
        <time>2019-04-26T11:53:57.000Z</time>
      </trkpt>
      <trkpt lat="42.44670486450195" lon="-7.228627681732178">
        <ele>271.0</ele>
        <time>2019-04-26T11:54:02.000Z</time>
      </trkpt>
      <trkpt lat="42.44668960571289" lon="-7.228653430938721">
        <ele>272.0</ele>
        <time>2019-04-26T11:54:07.000Z</time>
      </trkpt>
      <trkpt lat="42.4466667175293" lon="-7.22867488861084">
        <ele>273.0</ele>
        <time>2019-04-26T11:54:12.000Z</time>
      </trkpt>
      <trkpt lat="42.44664001464844" lon="-7.228694438934326">
        <ele>274.0</ele>
        <time>2019-04-26T11:54:17.000Z</time>
      </trkpt>
      <trkpt lat="42.44664001464844" lon="-7.228710174560547">
        <ele>275.0</ele>
        <time>2019-04-26T11:54:25.000Z</time>
      </trkpt>
      <trkpt lat="42.4466438293457" lon="-7.228722095489502">
        <ele>276.0</ele>
        <time>2019-04-26T11:54:33.000Z</time>
      </trkpt>
      <trkpt lat="42.446651458740234" lon="-7.228731155395508">
        <ele>277.0</ele>
        <time>2019-04-26T11:54:41.000Z</time>
      </trkpt>
      <trkpt lat="42.44666290283203" lon="-7.228739261627197">
        <ele>278.0</ele>
        <time>2019-04-26T11:54:50.000Z</time>
      </trkpt>
      <trkpt lat="42.44667053222656" lon="-7.228748321533203">
        <ele>278.0</ele>
        <time>2019-04-26T11:54:50.000Z</time>
      </trkpt>
      <trkpt lat="42.44667434692383" lon="-7.228755950927734">
        <ele>278.0</ele>
        <time>2019-04-26T11:54:50.000Z</time>
      </trkpt>
      <trkpt lat="42.44667434692383" lon="-7.228763103485107">
        <ele>278.0</ele>
        <time>2019-04-26T11:54:50.000Z</time>
      </trkpt>
      <trkpt lat="42.446678161621094" lon="-7.228769779205322">
        <ele>278.0</ele>
        <time>2019-04-26T11:54:51.000Z</time>
      </trkpt>
      <trkpt lat="42.446712493896484" lon="-7.228835582733154">
        <ele>279.0</ele>
        <time>2019-04-26T11:54:57.000Z</time>
      </trkpt>
      <trkpt lat="42.44676208496094" lon="-7.228926181793213">
        <ele>279.0</ele>
        <time>2019-04-26T11:55:04.000Z</time>
      </trkpt>
      <trkpt lat="42.446815490722656" lon="-7.22903299331665">
        <ele>280.0</ele>
        <time>2019-04-26T11:55:10.000Z</time>
      </trkpt>
      <trkpt lat="42.446876525878906" lon="-7.229147911071777">
        <ele>281.0</ele>
        <time>2019-04-26T11:55:17.000Z</time>
      </trkpt>
      <trkpt lat="42.446922302246094" lon="-7.229250907897949">
        <ele>281.0</ele>
        <time>2019-04-26T11:55:27.000Z</time>
      </trkpt>
      <trkpt lat="42.446964263916016" lon="-7.2293572425842285">
        <ele>281.0</ele>
        <time>2019-04-26T11:55:37.000Z</time>
      </trkpt>
      <trkpt lat="42.4470100402832" lon="-7.229466438293457">
        <ele>281.0</ele>
        <time>2019-04-26T11:55:47.000Z</time>
      </trkpt>
      <trkpt lat="42.447052001953125" lon="-7.229576587677002">
        <ele>280.0</ele>
        <time>2019-04-26T11:55:57.000Z</time>
      </trkpt>
      <trkpt lat="42.44709014892578" lon="-7.229685306549072">
        <ele>280.0</ele>
        <time>2019-04-26T11:56:04.000Z</time>
      </trkpt>
      <trkpt lat="42.44712829589844" lon="-7.229794979095459">
        <ele>280.0</ele>
        <time>2019-04-26T11:56:12.000Z</time>
      </trkpt>
      <trkpt lat="42.44716262817383" lon="-7.229905128479004">
        <ele>280.0</ele>
        <time>2019-04-26T11:56:20.000Z</time>
      </trkpt>
      <trkpt lat="42.447200775146484" lon="-7.230015754699707">
        <ele>280.0</ele>
        <time>2019-04-26T11:56:28.000Z</time>
      </trkpt>
      <trkpt lat="42.44723892211914" lon="-7.230123996734619">
        <ele>279.0</ele>
        <time>2019-04-26T11:56:36.000Z</time>
      </trkpt>
      <trkpt lat="42.44728088378906" lon="-7.230232238769531">
        <ele>279.0</ele>
        <time>2019-04-26T11:56:45.000Z</time>
      </trkpt>
      <trkpt lat="42.447322845458984" lon="-7.230340003967285">
        <ele>279.0</ele>
        <time>2019-04-26T11:56:53.000Z</time>
      </trkpt>
      <trkpt lat="42.447364807128906" lon="-7.230447292327881">
        <ele>279.0</ele>
        <time>2019-04-26T11:57:02.000Z</time>
      </trkpt>
      <trkpt lat="42.44752883911133" lon="-7.230884075164795">
        <ele>278.0</ele>
        <time>2019-04-26T11:57:33.000Z</time>
      </trkpt>
      <trkpt lat="42.4476318359375" lon="-7.231347560882568">
        <ele>272.0</ele>
        <time>2019-04-26T11:58:04.000Z</time>
      </trkpt>
      <trkpt lat="42.44775390625" lon="-7.231799602508545">
        <ele>286.0</ele>
        <time>2019-04-26T11:58:42.000Z</time>
      </trkpt>
      <trkpt lat="42.447914123535156" lon="-7.232236385345459">
        <ele>291.0</ele>
        <time>2019-04-26T11:59:13.000Z</time>
      </trkpt>
      <trkpt lat="42.44804763793945" lon="-7.232683181762695">
        <ele>289.0</ele>
        <time>2019-04-26T11:59:45.000Z</time>
      </trkpt>
      <trkpt lat="42.44819641113281" lon="-7.233120441436768">
        <ele>288.0</ele>
        <time>2019-04-26T12:00:15.000Z</time>
      </trkpt>
      <trkpt lat="42.44833755493164" lon="-7.233578205108643">
        <ele>289.0</ele>
        <time>2019-04-26T12:00:48.000Z</time>
      </trkpt>
      <trkpt lat="42.44846725463867" lon="-7.234041213989258">
        <ele>289.0</ele>
        <time>2019-04-26T12:01:20.000Z</time>
      </trkpt>
      <trkpt lat="42.44852066040039" lon="-7.234520435333252">
        <ele>286.0</ele>
        <time>2019-04-26T12:01:59.000Z</time>
      </trkpt>
      <trkpt lat="42.448482513427734" lon="-7.234683513641357">
        <ele>284.0</ele>
        <time>2019-04-26T12:02:12.000Z</time>
      </trkpt>
      <trkpt lat="42.44841384887695" lon="-7.234810829162598">
        <ele>281.0</ele>
        <time>2019-04-26T12:02:26.000Z</time>
      </trkpt>
      <trkpt lat="42.44839859008789" lon="-7.234939098358154">
        <ele>281.0</ele>
        <time>2019-04-26T12:02:36.000Z</time>
      </trkpt>
      <trkpt lat="42.44840621948242" lon="-7.235060214996338">
        <ele>282.0</ele>
        <time>2019-04-26T12:02:47.000Z</time>
      </trkpt>
      <trkpt lat="42.44841384887695" lon="-7.235123157501221">
        <ele>283.0</ele>
        <time>2019-04-26T12:02:52.000Z</time>
      </trkpt>
      <trkpt lat="42.44842529296875" lon="-7.2351861000061035">
        <ele>284.0</ele>
        <time>2019-04-26T12:02:57.000Z</time>
      </trkpt>
      <trkpt lat="42.44843673706055" lon="-7.2352495193481445">
        <ele>285.0</ele>
        <time>2019-04-26T12:03:02.000Z</time>
      </trkpt>
      <trkpt lat="42.448448181152344" lon="-7.2353129386901855">
        <ele>286.0</ele>
        <time>2019-04-26T12:03:07.000Z</time>
      </trkpt>
      <trkpt lat="42.44846725463867" lon="-7.235373497009277">
        <ele>287.0</ele>
        <time>2019-04-26T12:03:10.000Z</time>
      </trkpt>
      <trkpt lat="42.448486328125" lon="-7.235432147979736">
        <ele>288.0</ele>
        <time>2019-04-26T12:03:14.000Z</time>
      </trkpt>
      <trkpt lat="42.448509216308594" lon="-7.235490322113037">
        <ele>289.0</ele>
        <time>2019-04-26T12:03:18.000Z</time>
      </trkpt>
      <trkpt lat="42.44853210449219" lon="-7.23554801940918">
        <ele>289.0</ele>
        <time>2019-04-26T12:03:22.000Z</time>
      </trkpt>
      <trkpt lat="42.448551177978516" lon="-7.235645771026611">
        <ele>289.0</ele>
        <time>2019-04-26T12:03:29.000Z</time>
      </trkpt>
      <trkpt lat="42.44857406616211" lon="-7.235759258270264">
        <ele>288.0</ele>
        <time>2019-04-26T12:03:37.000Z</time>
      </trkpt>
      <trkpt lat="42.4485969543457" lon="-7.235883712768555">
        <ele>288.0</ele>
        <time>2019-04-26T12:03:44.000Z</time>
      </trkpt>
      <trkpt lat="42.44861602783203" lon="-7.236013889312744">
        <ele>287.0</ele>
        <time>2019-04-26T12:03:52.000Z</time>
      </trkpt>
      <trkpt lat="42.44862747192383" lon="-7.236134052276611">
        <ele>286.0</ele>
        <time>2019-04-26T12:04:00.000Z</time>
      </trkpt>
      <trkpt lat="42.44863510131836" lon="-7.2362565994262695">
        <ele>284.0</ele>
        <time>2019-04-26T12:04:08.000Z</time>
      </trkpt>
      <trkpt lat="42.448638916015625" lon="-7.236380100250244">
        <ele>283.0</ele>
        <time>2019-04-26T12:04:16.000Z</time>
      </trkpt>
      <trkpt lat="42.44864273071289" lon="-7.236504077911377">
        <ele>282.0</ele>
        <time>2019-04-26T12:04:25.000Z</time>
      </trkpt>
      <trkpt lat="42.448631286621094" lon="-7.2366251945495605">
        <ele>281.0</ele>
        <time>2019-04-26T12:04:32.000Z</time>
      </trkpt>
      <trkpt lat="42.44861602783203" lon="-7.2367448806762695">
        <ele>280.0</ele>
        <time>2019-04-26T12:04:40.000Z</time>
      </trkpt>
      <trkpt lat="42.4485969543457" lon="-7.2368645668029785">
        <ele>280.0</ele>
        <time>2019-04-26T12:04:47.000Z</time>
      </trkpt>
      <trkpt lat="42.448577880859375" lon="-7.236983776092529">
        <ele>280.0</ele>
        <time>2019-04-26T12:04:55.000Z</time>
      </trkpt>
      <trkpt lat="42.44849395751953" lon="-7.237449645996094">
        <ele>283.0</ele>
        <time>2019-04-26T12:05:25.000Z</time>
      </trkpt>
      <trkpt lat="42.448394775390625" lon="-7.237679958343506">
        <ele>291.0</ele>
        <time>2019-04-26T12:05:38.000Z</time>
      </trkpt>
      <trkpt lat="42.448299407958984" lon="-7.237907409667969">
        <ele>300.0</ele>
        <time>2019-04-26T12:05:59.000Z</time>
      </trkpt>
      <trkpt lat="42.44819259643555" lon="-7.2381157875061035">
        <ele>305.0</ele>
        <time>2019-04-26T12:06:17.000Z</time>
      </trkpt>
      <trkpt lat="42.44811248779297" lon="-7.238350868225098">
        <ele>308.0</ele>
        <time>2019-04-26T12:06:35.000Z</time>
      </trkpt>
      <trkpt lat="42.448036193847656" lon="-7.2385711669921875">
        <ele>309.0</ele>
        <time>2019-04-26T12:06:50.000Z</time>
      </trkpt>
      <trkpt lat="42.448020935058594" lon="-7.2388200759887695">
        <ele>308.0</ele>
        <time>2019-04-26T12:07:05.000Z</time>
      </trkpt>
      <trkpt lat="42.448028564453125" lon="-7.23907470703125">
        <ele>308.0</ele>
        <time>2019-04-26T12:07:22.000Z</time>
      </trkpt>
      <trkpt lat="42.44804763793945" lon="-7.239323616027832">
        <ele>304.0</ele>
        <time>2019-04-26T12:07:38.000Z</time>
      </trkpt>
      <trkpt lat="42.44806671142578" lon="-7.239573955535889">
        <ele>300.0</ele>
        <time>2019-04-26T12:07:54.000Z</time>
      </trkpt>
      <trkpt lat="42.44812774658203" lon="-7.240051746368408">
        <ele>307.0</ele>
        <time>2019-04-26T12:08:27.000Z</time>
      </trkpt>
      <trkpt lat="42.44813919067383" lon="-7.2403082847595215">
        <ele>310.0</ele>
        <time>2019-04-26T12:08:45.000Z</time>
      </trkpt>
      <trkpt lat="42.44818115234375" lon="-7.240424156188965">
        <ele>309.0</ele>
        <time>2019-04-26T12:08:52.000Z</time>
      </trkpt>
      <trkpt lat="42.4482421875" lon="-7.240535259246826">
        <ele>308.0</ele>
        <time>2019-04-26T12:08:59.000Z</time>
      </trkpt>
      <trkpt lat="42.44826889038086" lon="-7.2405829429626465">
        <ele>307.0</ele>
        <time>2019-04-26T12:09:04.000Z</time>
      </trkpt>
      <trkpt lat="42.44829559326172" lon="-7.240627288818359">
        <ele>306.0</ele>
        <time>2019-04-26T12:09:10.000Z</time>
      </trkpt>
      <trkpt lat="42.44832229614258" lon="-7.240669250488281">
        <ele>305.0</ele>
        <time>2019-04-26T12:09:15.000Z</time>
      </trkpt>
      <trkpt lat="42.44834518432617" lon="-7.2407097816467285">
        <ele>303.0</ele>
        <time>2019-04-26T12:09:21.000Z</time>
      </trkpt>
      <trkpt lat="42.4483642578125" lon="-7.240730285644531">
        <ele>303.0</ele>
        <time>2019-04-26T12:09:24.000Z</time>
      </trkpt>
      <trkpt lat="42.44837951660156" lon="-7.240740776062012">
        <ele>303.0</ele>
        <time>2019-04-26T12:09:27.000Z</time>
      </trkpt>
      <trkpt lat="42.44839096069336" lon="-7.240745544433594">
        <ele>303.0</ele>
        <time>2019-04-26T12:09:30.000Z</time>
      </trkpt>
      <trkpt lat="42.448402404785156" lon="-7.24074649810791">
        <ele>304.0</ele>
        <time>2019-04-26T12:09:34.000Z</time>
      </trkpt>
      <trkpt lat="42.44842529296875" lon="-7.240777492523193">
        <ele>303.0</ele>
        <time>2019-04-26T12:10:24.000Z</time>
      </trkpt>
      <trkpt lat="42.44844055175781" lon="-7.240814685821533">
        <ele>302.0</ele>
        <time>2019-04-26T12:11:14.000Z</time>
      </trkpt>
      <trkpt lat="42.448448181152344" lon="-7.2408270835876465">
        <ele>302.0</ele>
        <time>2019-04-26T12:11:14.000Z</time>
      </trkpt>
      <trkpt lat="42.448455810546875" lon="-7.240837097167969">
        <ele>302.0</ele>
        <time>2019-04-26T12:11:14.000Z</time>
      </trkpt>
      <trkpt lat="42.44845962524414" lon="-7.240845680236816">
        <ele>302.0</ele>
        <time>2019-04-26T12:11:14.000Z</time>
      </trkpt>
      <trkpt lat="42.448463439941406" lon="-7.240853309631348">
        <ele>302.0</ele>
        <time>2019-04-26T12:11:15.000Z</time>
      </trkpt>
      <trkpt lat="42.448482513427734" lon="-7.240890979766846">
        <ele>302.0</ele>
        <time>2019-04-26T12:11:16.000Z</time>
      </trkpt>
      <trkpt lat="42.448509216308594" lon="-7.240939617156982">
        <ele>302.0</ele>
        <time>2019-04-26T12:11:18.000Z</time>
      </trkpt>
      <trkpt lat="42.448543548583984" lon="-7.240996360778809">
        <ele>301.0</ele>
        <time>2019-04-26T12:11:19.000Z</time>
      </trkpt>
      <trkpt lat="42.44857406616211" lon="-7.2410569190979">
        <ele>301.0</ele>
        <time>2019-04-26T12:11:21.000Z</time>
      </trkpt>
      <trkpt lat="42.44858169555664" lon="-7.24111795425415">
        <ele>301.0</ele>
        <time>2019-04-26T12:11:25.000Z</time>
      </trkpt>
      <trkpt lat="42.44858169555664" lon="-7.241183280944824">
        <ele>300.0</ele>
        <time>2019-04-26T12:11:29.000Z</time>
      </trkpt>
      <trkpt lat="42.44857406616211" lon="-7.241250991821289">
        <ele>300.0</ele>
        <time>2019-04-26T12:11:33.000Z</time>
      </trkpt>
      <trkpt lat="42.44856643676758" lon="-7.2413201332092285">
        <ele>299.0</ele>
        <time>2019-04-26T12:11:38.000Z</time>
      </trkpt>
      <trkpt lat="42.44856643676758" lon="-7.241386890411377">
        <ele>300.0</ele>
        <time>2019-04-26T12:11:42.000Z</time>
      </trkpt>
      <trkpt lat="42.44856643676758" lon="-7.241454601287842">
        <ele>300.0</ele>
        <time>2019-04-26T12:11:47.000Z</time>
      </trkpt>
      <trkpt lat="42.44856643676758" lon="-7.241522312164307">
        <ele>301.0</ele>
        <time>2019-04-26T12:11:52.000Z</time>
      </trkpt>
      <trkpt lat="42.44856643676758" lon="-7.24159049987793">
        <ele>302.0</ele>
        <time>2019-04-26T12:11:57.000Z</time>
      </trkpt>
      <trkpt lat="42.44857406616211" lon="-7.241655349731445">
        <ele>303.0</ele>
        <time>2019-04-26T12:12:00.000Z</time>
      </trkpt>
      <trkpt lat="42.448585510253906" lon="-7.2417192459106445">
        <ele>304.0</ele>
        <time>2019-04-26T12:12:04.000Z</time>
      </trkpt>
      <trkpt lat="42.4485969543457" lon="-7.2417826652526855">
        <ele>305.0</ele>
        <time>2019-04-26T12:12:08.000Z</time>
      </trkpt>
      <trkpt lat="42.4486083984375" lon="-7.24184513092041">
        <ele>306.0</ele>
        <time>2019-04-26T12:12:12.000Z</time>
      </trkpt>
      <trkpt lat="42.4486198425293" lon="-7.24190616607666">
        <ele>306.0</ele>
        <time>2019-04-26T12:12:16.000Z</time>
      </trkpt>
      <trkpt lat="42.44862747192383" lon="-7.241966247558594">
        <ele>306.0</ele>
        <time>2019-04-26T12:12:20.000Z</time>
      </trkpt>
      <trkpt lat="42.44863510131836" lon="-7.242025375366211">
        <ele>307.0</ele>
        <time>2019-04-26T12:12:24.000Z</time>
      </trkpt>
      <trkpt lat="42.44864273071289" lon="-7.24208402633667">
        <ele>307.0</ele>
        <time>2019-04-26T12:12:28.000Z</time>
      </trkpt>
      <trkpt lat="42.44865417480469" lon="-7.2421793937683105">
        <ele>307.0</ele>
        <time>2019-04-26T12:12:35.000Z</time>
      </trkpt>
      <trkpt lat="42.448665618896484" lon="-7.242290019989014">
        <ele>307.0</ele>
        <time>2019-04-26T12:12:43.000Z</time>
      </trkpt>
      <trkpt lat="42.44867706298828" lon="-7.242410659790039">
        <ele>307.0</ele>
        <time>2019-04-26T12:12:51.000Z</time>
      </trkpt>
      <trkpt lat="42.44868850708008" lon="-7.242536544799805">
        <ele>307.0</ele>
        <time>2019-04-26T12:12:59.000Z</time>
      </trkpt>
      <trkpt lat="42.44871520996094" lon="-7.24264669418335">
        <ele>308.0</ele>
        <time>2019-04-26T12:13:05.000Z</time>
      </trkpt>
      <trkpt lat="42.44874572753906" lon="-7.242755889892578">
        <ele>308.0</ele>
        <time>2019-04-26T12:13:12.000Z</time>
      </trkpt>
      <trkpt lat="42.44878005981445" lon="-7.242864608764648">
        <ele>308.0</ele>
        <time>2019-04-26T12:13:18.000Z</time>
      </trkpt>
      <trkpt lat="42.44881820678711" lon="-7.2429728507995605">
        <ele>308.0</ele>
        <time>2019-04-26T12:13:25.000Z</time>
      </trkpt>
      <trkpt lat="42.44895935058594" lon="-7.243404865264893">
        <ele>311.0</ele>
        <time>2019-04-26T12:13:54.000Z</time>
      </trkpt>
      <trkpt lat="42.44912338256836" lon="-7.243839263916016">
        <ele>313.0</ele>
        <time>2019-04-26T12:14:21.000Z</time>
      </trkpt>
      <trkpt lat="42.449249267578125" lon="-7.244293212890625">
        <ele>315.0</ele>
        <time>2019-04-26T12:14:49.000Z</time>
      </trkpt>
      <trkpt lat="42.449440002441406" lon="-7.2446699142456055">
        <ele>312.0</ele>
        <time>2019-04-26T12:15:18.000Z</time>
      </trkpt>
      <trkpt lat="42.449729919433594" lon="-7.244938373565674">
        <ele>311.0</ele>
        <time>2019-04-26T12:15:44.000Z</time>
      </trkpt>
      <trkpt lat="42.45002746582031" lon="-7.245167255401611">
        <ele>311.0</ele>
        <time>2019-04-26T12:16:09.000Z</time>
      </trkpt>
      <trkpt lat="42.45021438598633" lon="-7.245388507843018">
        <ele>311.0</ele>
        <time>2019-04-26T12:16:30.000Z</time>
      </trkpt>
      <trkpt lat="42.45051193237305" lon="-7.245608329772949">
        <ele>311.0</ele>
        <time>2019-04-26T12:17:00.000Z</time>
      </trkpt>
      <trkpt lat="42.45082092285156" lon="-7.245822906494141">
        <ele>306.0</ele>
        <time>2019-04-26T12:17:32.000Z</time>
      </trkpt>
      <trkpt lat="42.451011657714844" lon="-7.245884418487549">
        <ele>308.0</ele>
        <time>2019-04-26T12:17:44.000Z</time>
      </trkpt>
      <trkpt lat="42.45119857788086" lon="-7.245922565460205">
        <ele>312.0</ele>
        <time>2019-04-26T12:18:00.000Z</time>
      </trkpt>
      <trkpt lat="42.451393127441406" lon="-7.245977401733398">
        <ele>313.0</ele>
        <time>2019-04-26T12:18:16.000Z</time>
      </trkpt>
      <trkpt lat="42.45158386230469" lon="-7.245979309082031">
        <ele>316.0</ele>
        <time>2019-04-26T12:18:32.000Z</time>
      </trkpt>
      <trkpt lat="42.45176696777344" lon="-7.245920181274414">
        <ele>315.0</ele>
        <time>2019-04-26T12:18:54.000Z</time>
      </trkpt>
      <trkpt lat="42.45192337036133" lon="-7.2457709312438965">
        <ele>314.0</ele>
        <time>2019-04-26T12:19:09.000Z</time>
      </trkpt>
      <trkpt lat="42.452049255371094" lon="-7.245594024658203">
        <ele>312.0</ele>
        <time>2019-04-26T12:19:26.000Z</time>
      </trkpt>
      <trkpt lat="42.45219421386719" lon="-7.245416164398193">
        <ele>310.0</ele>
        <time>2019-04-26T12:19:40.000Z</time>
      </trkpt>
      <trkpt lat="42.4522819519043" lon="-7.245268821716309">
        <ele>307.0</ele>
        <time>2019-04-26T12:19:57.000Z</time>
      </trkpt>
      <trkpt lat="42.45233154296875" lon="-7.245258331298828">
        <ele>307.0</ele>
        <time>2019-04-26T12:20:01.000Z</time>
      </trkpt>
      <trkpt lat="42.452388763427734" lon="-7.245258808135986">
        <ele>307.0</ele>
        <time>2019-04-26T12:20:06.000Z</time>
      </trkpt>
      <trkpt lat="42.452457427978516" lon="-7.245266914367676">
        <ele>307.0</ele>
        <time>2019-04-26T12:20:10.000Z</time>
      </trkpt>
      <trkpt lat="42.4525260925293" lon="-7.245278835296631">
        <ele>308.0</ele>
        <time>2019-04-26T12:20:15.000Z</time>
      </trkpt>
      <trkpt lat="42.452606201171875" lon="-7.245272159576416">
        <ele>307.0</ele>
        <time>2019-04-26T12:20:22.000Z</time>
      </trkpt>
      <trkpt lat="42.452693939208984" lon="-7.245262145996094">
        <ele>306.0</ele>
        <time>2019-04-26T12:20:29.000Z</time>
      </trkpt>
      <trkpt lat="42.452789306640625" lon="-7.245249271392822">
        <ele>306.0</ele>
        <time>2019-04-26T12:20:36.000Z</time>
      </trkpt>
      <trkpt lat="42.452884674072266" lon="-7.245235443115234">
        <ele>305.0</ele>
        <time>2019-04-26T12:20:43.000Z</time>
      </trkpt>
      <trkpt lat="42.45296096801758" lon="-7.2452073097229">
        <ele>304.0</ele>
        <time>2019-04-26T12:20:50.000Z</time>
      </trkpt>
      <trkpt lat="42.45302963256836" lon="-7.245172023773193">
        <ele>302.0</ele>
        <time>2019-04-26T12:20:58.000Z</time>
      </trkpt>
      <trkpt lat="42.453094482421875" lon="-7.245131969451904">
        <ele>301.0</ele>
        <time>2019-04-26T12:21:06.000Z</time>
      </trkpt>
      <trkpt lat="42.45315933227539" lon="-7.245089530944824">
        <ele>300.0</ele>
        <time>2019-04-26T12:21:14.000Z</time>
      </trkpt>
      <trkpt lat="42.45320510864258" lon="-7.2450456619262695">
        <ele>298.0</ele>
        <time>2019-04-26T12:21:22.000Z</time>
      </trkpt>
      <trkpt lat="42.45320510864258" lon="-7.245015621185303">
        <ele>298.0</ele>
        <time>2019-04-26T12:21:31.000Z</time>
      </trkpt>
      <trkpt lat="42.453208923339844" lon="-7.2450032234191895">
        <ele>298.0</ele>
        <time>2019-04-26T12:21:31.000Z</time>
      </trkpt>
      <trkpt lat="42.453216552734375" lon="-7.244993209838867">
        <ele>298.0</ele>
        <time>2019-04-26T12:21:31.000Z</time>
      </trkpt>
      <trkpt lat="42.45322036743164" lon="-7.244985103607178">
        <ele>298.0</ele>
        <time>2019-04-26T12:21:31.000Z</time>
      </trkpt>
      <trkpt lat="42.453224182128906" lon="-7.244977951049805">
        <ele>298.0</ele>
        <time>2019-04-26T12:21:32.000Z</time>
      </trkpt>
      <trkpt lat="42.45326614379883" lon="-7.244919776916504">
        <ele>298.0</ele>
        <time>2019-04-26T12:21:36.000Z</time>
      </trkpt>
      <trkpt lat="42.45332336425781" lon="-7.244840621948242">
        <ele>297.0</ele>
        <time>2019-04-26T12:21:41.000Z</time>
      </trkpt>
      <trkpt lat="42.45338821411133" lon="-7.244748115539551">
        <ele>297.0</ele>
        <time>2019-04-26T12:21:46.000Z</time>
      </trkpt>
      <trkpt lat="42.453460693359375" lon="-7.244648456573486">
        <ele>297.0</ele>
        <time>2019-04-26T12:21:51.000Z</time>
      </trkpt>
      <trkpt lat="42.453590393066406" lon="-7.244575500488281">
        <ele>297.0</ele>
        <time>2019-04-26T12:22:05.000Z</time>
      </trkpt>
      <trkpt lat="42.4537239074707" lon="-7.244544506072998">
        <ele>298.0</ele>
        <time>2019-04-26T12:22:19.000Z</time>
      </trkpt>
      <trkpt lat="42.45375061035156" lon="-7.24453067779541">
        <ele>298.0</ele>
        <time>2019-04-26T12:22:22.000Z</time>
      </trkpt>
      <trkpt lat="42.45376205444336" lon="-7.2445220947265625">
        <ele>299.0</ele>
        <time>2019-04-26T12:22:25.000Z</time>
      </trkpt>
      <trkpt lat="42.45376205444336" lon="-7.244516849517822">
        <ele>299.0</ele>
        <time>2019-04-26T12:22:28.000Z</time>
      </trkpt>
      <trkpt lat="42.453758239746094" lon="-7.244513034820557">
        <ele>299.0</ele>
        <time>2019-04-26T12:22:31.000Z</time>
      </trkpt>
      <trkpt lat="42.45376205444336" lon="-7.244507312774658">
        <ele>299.0</ele>
        <time>2019-04-26T12:22:31.000Z</time>
      </trkpt>
      <trkpt lat="42.45376968383789" lon="-7.24450159072876">
        <ele>299.0</ele>
        <time>2019-04-26T12:22:31.000Z</time>
      </trkpt>
      <trkpt lat="42.453773498535156" lon="-7.244496822357178">
        <ele>299.0</ele>
        <time>2019-04-26T12:22:31.000Z</time>
      </trkpt>
      <trkpt lat="42.45377731323242" lon="-7.244492053985596">
        <ele>299.0</ele>
        <time>2019-04-26T12:22:32.000Z</time>
      </trkpt>
      <trkpt lat="42.453826904296875" lon="-7.244452953338623">
        <ele>299.0</ele>
        <time>2019-04-26T12:22:35.000Z</time>
      </trkpt>
      <trkpt lat="42.453887939453125" lon="-7.244399547576904">
        <ele>299.0</ele>
        <time>2019-04-26T12:22:38.000Z</time>
      </trkpt>
      <trkpt lat="42.45396423339844" lon="-7.24433708190918">
        <ele>299.0</ele>
        <time>2019-04-26T12:22:41.000Z</time>
      </trkpt>
      <trkpt lat="42.454044342041016" lon="-7.244269847869873">
        <ele>299.0</ele>
        <time>2019-04-26T12:22:45.000Z</time>
      </trkpt>
      <trkpt lat="42.454097747802734" lon="-7.2442402839660645">
        <ele>299.0</ele>
        <time>2019-04-26T12:22:48.000Z</time>
      </trkpt>
      <trkpt lat="42.45414352416992" lon="-7.244221210479736">
        <ele>298.0</ele>
        <time>2019-04-26T12:22:51.000Z</time>
      </trkpt>
      <trkpt lat="42.454185485839844" lon="-7.2442097663879395">
        <ele>297.0</ele>
        <time>2019-04-26T12:22:54.000Z</time>
      </trkpt>
      <trkpt lat="42.454227447509766" lon="-7.244202136993408">
        <ele>296.0</ele>
        <time>2019-04-26T12:22:57.000Z</time>
      </trkpt>
      <trkpt lat="42.45429611206055" lon="-7.244163990020752">
        <ele>295.0</ele>
        <time>2019-04-26T12:23:03.000Z</time>
      </trkpt>
      <trkpt lat="42.454376220703125" lon="-7.24411678314209">
        <ele>294.0</ele>
        <time>2019-04-26T12:23:09.000Z</time>
      </trkpt>
      <trkpt lat="42.454463958740234" lon="-7.244063854217529">
        <ele>293.0</ele>
        <time>2019-04-26T12:23:15.000Z</time>
      </trkpt>
      <trkpt lat="42.45455551147461" lon="-7.2440080642700195">
        <ele>292.0</ele>
        <time>2019-04-26T12:23:22.000Z</time>
      </trkpt>
      <trkpt lat="42.454872131347656" lon="-7.2439165115356445">
        <ele>285.0</ele>
        <time>2019-04-26T12:23:46.000Z</time>
      </trkpt>
      <trkpt lat="42.4550666809082" lon="-7.243859767913818">
        <ele>285.0</ele>
        <time>2019-04-26T12:24:01.000Z</time>
      </trkpt>
      <trkpt lat="42.45526123046875" lon="-7.24383544921875">
        <ele>286.0</ele>
        <time>2019-04-26T12:24:15.000Z</time>
      </trkpt>
      <trkpt lat="42.4554557800293" lon="-7.243807315826416">
        <ele>282.0</ele>
        <time>2019-04-26T12:24:32.000Z</time>
      </trkpt>
      <trkpt lat="42.455657958984375" lon="-7.243791580200195">
        <ele>281.0</ele>
        <time>2019-04-26T12:24:50.000Z</time>
      </trkpt>
      <trkpt lat="42.45584487915039" lon="-7.243810653686523">
        <ele>278.0</ele>
        <time>2019-04-26T12:25:06.000Z</time>
      </trkpt>
      <trkpt lat="42.45602035522461" lon="-7.243876934051514">
        <ele>275.0</ele>
        <time>2019-04-26T12:25:24.000Z</time>
      </trkpt>
      <trkpt lat="42.45616912841797" lon="-7.243929386138916">
        <ele>274.0</ele>
        <time>2019-04-26T12:25:38.000Z</time>
      </trkpt>
      <trkpt lat="42.45632553100586" lon="-7.243999004364014">
        <ele>274.0</ele>
        <time>2019-04-26T12:25:57.000Z</time>
      </trkpt>
      <trkpt lat="42.45650863647461" lon="-7.244071006774902">
        <ele>274.0</ele>
        <time>2019-04-26T12:26:10.000Z</time>
      </trkpt>
      <trkpt lat="42.45665740966797" lon="-7.244153022766113">
        <ele>280.0</ele>
        <time>2019-04-26T12:26:28.000Z</time>
      </trkpt>
      <trkpt lat="42.45671844482422" lon="-7.24418830871582">
        <ele>276.0</ele>
        <time>2019-04-26T12:27:53.000Z</time>
      </trkpt>
      <trkpt lat="42.456748962402344" lon="-7.244205951690674">
        <ele>276.0</ele>
        <time>2019-04-26T12:27:54.000Z</time>
      </trkpt>
      <trkpt lat="42.456932067871094" lon="-7.244293212890625">
        <ele>276.0</ele>
        <time>2019-04-26T12:28:02.000Z</time>
      </trkpt>
      <trkpt lat="42.45709991455078" lon="-7.244393348693848">
        <ele>276.0</ele>
        <time>2019-04-26T12:28:18.000Z</time>
      </trkpt>
      <trkpt lat="42.45723342895508" lon="-7.2444868087768555">
        <ele>278.0</ele>
        <time>2019-04-26T12:28:38.000Z</time>
      </trkpt>
      <trkpt lat="42.457271575927734" lon="-7.244523525238037">
        <ele>278.0</ele>
        <time>2019-04-26T12:29:09.000Z</time>
      </trkpt>
      <trkpt lat="42.457298278808594" lon="-7.244546890258789">
        <ele>278.0</ele>
        <time>2019-04-26T12:29:10.000Z</time>
      </trkpt>
      <trkpt lat="42.45744323730469" lon="-7.244685649871826">
        <ele>278.0</ele>
        <time>2019-04-26T12:29:15.000Z</time>
      </trkpt>
      <trkpt lat="42.457603454589844" lon="-7.2447943687438965">
        <ele>279.0</ele>
        <time>2019-04-26T12:29:27.000Z</time>
      </trkpt>
      <trkpt lat="42.45773696899414" lon="-7.24496603012085">
        <ele>280.0</ele>
        <time>2019-04-26T12:29:40.000Z</time>
      </trkpt>
      <trkpt lat="42.457889556884766" lon="-7.245137691497803">
        <ele>280.0</ele>
        <time>2019-04-26T12:29:56.000Z</time>
      </trkpt>
      <trkpt lat="42.4580078125" lon="-7.2453293800354">
        <ele>282.0</ele>
        <time>2019-04-26T12:30:12.000Z</time>
      </trkpt>
      <trkpt lat="42.45814514160156" lon="-7.245485782623291">
        <ele>284.0</ele>
        <time>2019-04-26T12:30:26.000Z</time>
      </trkpt>
      <trkpt lat="42.458282470703125" lon="-7.245651721954346">
        <ele>286.0</ele>
        <time>2019-04-26T12:30:42.000Z</time>
      </trkpt>
      <trkpt lat="42.458404541015625" lon="-7.24584436416626">
        <ele>290.0</ele>
        <time>2019-04-26T12:30:58.000Z</time>
      </trkpt>
      <trkpt lat="42.45851135253906" lon="-7.246029376983643">
        <ele>291.0</ele>
        <time>2019-04-26T12:31:11.000Z</time>
      </trkpt>
      <trkpt lat="42.45860290527344" lon="-7.246235370635986">
        <ele>294.0</ele>
        <time>2019-04-26T12:31:24.000Z</time>
      </trkpt>
      <trkpt lat="42.45869445800781" lon="-7.246471881866455">
        <ele>294.0</ele>
        <time>2019-04-26T12:31:38.000Z</time>
      </trkpt>
      <trkpt lat="42.4587516784668" lon="-7.246705055236816">
        <ele>293.0</ele>
        <time>2019-04-26T12:31:54.000Z</time>
      </trkpt>
      <trkpt lat="42.458831787109375" lon="-7.246927261352539">
        <ele>290.0</ele>
        <time>2019-04-26T12:32:10.000Z</time>
      </trkpt>
      <trkpt lat="42.458892822265625" lon="-7.247188091278076">
        <ele>286.0</ele>
        <time>2019-04-26T12:32:25.000Z</time>
      </trkpt>
      <trkpt lat="42.45894241333008" lon="-7.2474365234375">
        <ele>284.0</ele>
        <time>2019-04-26T12:32:35.000Z</time>
      </trkpt>
      <trkpt lat="42.45899963378906" lon="-7.247666835784912">
        <ele>282.0</ele>
        <time>2019-04-26T12:32:50.000Z</time>
      </trkpt>
      <trkpt lat="42.45906066894531" lon="-7.247909069061279">
        <ele>280.0</ele>
        <time>2019-04-26T12:33:05.000Z</time>
      </trkpt>
      <trkpt lat="42.45912170410156" lon="-7.248150825500488">
        <ele>279.0</ele>
        <time>2019-04-26T12:33:21.000Z</time>
      </trkpt>
      <trkpt lat="42.45924377441406" lon="-7.248453617095947">
        <ele>279.0</ele>
        <time>2019-04-26T12:33:38.000Z</time>
      </trkpt>
      <trkpt lat="42.45936584472656" lon="-7.248902797698975">
        <ele>276.0</ele>
        <time>2019-04-26T12:34:04.000Z</time>
      </trkpt>
      <trkpt lat="42.45936965942383" lon="-7.249136924743652">
        <ele>273.0</ele>
        <time>2019-04-26T12:34:19.000Z</time>
      </trkpt>
      <trkpt lat="42.459346771240234" lon="-7.24937629699707">
        <ele>269.0</ele>
        <time>2019-04-26T12:34:35.000Z</time>
      </trkpt>
      <trkpt lat="42.45934295654297" lon="-7.249495506286621">
        <ele>267.0</ele>
        <time>2019-04-26T12:34:42.000Z</time>
      </trkpt>
      <trkpt lat="42.4593391418457" lon="-7.249614715576172">
        <ele>266.0</ele>
        <time>2019-04-26T12:34:49.000Z</time>
      </trkpt>
      <trkpt lat="42.4593391418457" lon="-7.249734401702881">
        <ele>265.0</ele>
        <time>2019-04-26T12:34:56.000Z</time>
      </trkpt>
      <trkpt lat="42.45933532714844" lon="-7.24985408782959">
        <ele>263.0</ele>
        <time>2019-04-26T12:35:03.000Z</time>
      </trkpt>
      <trkpt lat="42.45933151245117" lon="-7.249959468841553">
        <ele>262.0</ele>
        <time>2019-04-26T12:35:08.000Z</time>
      </trkpt>
      <trkpt lat="42.45933151245117" lon="-7.250059127807617">
        <ele>262.0</ele>
        <time>2019-04-26T12:35:14.000Z</time>
      </trkpt>
      <trkpt lat="42.459327697753906" lon="-7.250154972076416">
        <ele>261.0</ele>
        <time>2019-04-26T12:35:19.000Z</time>
      </trkpt>
      <trkpt lat="42.45932388305664" lon="-7.250248908996582">
        <ele>260.0</ele>
        <time>2019-04-26T12:35:25.000Z</time>
      </trkpt>
      <trkpt lat="42.459327697753906" lon="-7.250323295593262">
        <ele>260.0</ele>
        <time>2019-04-26T12:35:29.000Z</time>
      </trkpt>
      <trkpt lat="42.459327697753906" lon="-7.250387191772461">
        <ele>261.0</ele>
        <time>2019-04-26T12:35:32.000Z</time>
      </trkpt>
      <trkpt lat="42.45933151245117" lon="-7.250443935394287">
        <ele>261.0</ele>
        <time>2019-04-26T12:35:36.000Z</time>
      </trkpt>
      <trkpt lat="42.45933151245117" lon="-7.250497817993164">
        <ele>261.0</ele>
        <time>2019-04-26T12:35:40.000Z</time>
      </trkpt>
      <trkpt lat="42.45934295654297" lon="-7.250557899475098">
        <ele>262.0</ele>
        <time>2019-04-26T12:35:44.000Z</time>
      </trkpt>
      <trkpt lat="42.459354400634766" lon="-7.250617504119873">
        <ele>263.0</ele>
        <time>2019-04-26T12:35:47.000Z</time>
      </trkpt>
      <trkpt lat="42.45936584472656" lon="-7.25067663192749">
        <ele>263.0</ele>
        <time>2019-04-26T12:35:51.000Z</time>
      </trkpt>
      <trkpt lat="42.459381103515625" lon="-7.250735759735107">
        <ele>264.0</ele>
        <time>2019-04-26T12:35:55.000Z</time>
      </trkpt>
      <trkpt lat="42.459388732910156" lon="-7.250796318054199">
        <ele>265.0</ele>
        <time>2019-04-26T12:35:59.000Z</time>
      </trkpt>
      <trkpt lat="42.45939254760742" lon="-7.250857353210449">
        <ele>267.0</ele>
        <time>2019-04-26T12:36:03.000Z</time>
      </trkpt>
      <trkpt lat="42.45939636230469" lon="-7.250918388366699">
        <ele>268.0</ele>
        <time>2019-04-26T12:36:07.000Z</time>
      </trkpt>
      <trkpt lat="42.45940017700195" lon="-7.250979900360107">
        <ele>270.0</ele>
        <time>2019-04-26T12:36:11.000Z</time>
      </trkpt>
      <trkpt lat="42.459381103515625" lon="-7.251225471496582">
        <ele>272.0</ele>
        <time>2019-04-26T12:36:35.000Z</time>
      </trkpt>
      <trkpt lat="42.459407806396484" lon="-7.251346111297607">
        <ele>274.0</ele>
        <time>2019-04-26T12:36:42.000Z</time>
      </trkpt>
      <trkpt lat="42.45945358276367" lon="-7.251466274261475">
        <ele>277.0</ele>
        <time>2019-04-26T12:36:50.000Z</time>
      </trkpt>
      <trkpt lat="42.4594612121582" lon="-7.251528263092041">
        <ele>278.0</ele>
        <time>2019-04-26T12:36:54.000Z</time>
      </trkpt>
      <trkpt lat="42.459468841552734" lon="-7.251590728759766">
        <ele>279.0</ele>
        <time>2019-04-26T12:36:58.000Z</time>
      </trkpt>
      <trkpt lat="42.459476470947266" lon="-7.251654148101807">
        <ele>279.0</ele>
        <time>2019-04-26T12:37:02.000Z</time>
      </trkpt>
      <trkpt lat="42.45948028564453" lon="-7.251717567443848">
        <ele>279.0</ele>
        <time>2019-04-26T12:37:06.000Z</time>
      </trkpt>
      <trkpt lat="42.45948791503906" lon="-7.2517781257629395">
        <ele>280.0</ele>
        <time>2019-04-26T12:37:11.000Z</time>
      </trkpt>
      <trkpt lat="42.45949935913086" lon="-7.251837730407715">
        <ele>280.0</ele>
        <time>2019-04-26T12:37:15.000Z</time>
      </trkpt>
      <trkpt lat="42.45950698852539" lon="-7.251896858215332">
        <ele>280.0</ele>
        <time>2019-04-26T12:37:20.000Z</time>
      </trkpt>
      <trkpt lat="42.45951843261719" lon="-7.251955509185791">
        <ele>280.0</ele>
        <time>2019-04-26T12:37:25.000Z</time>
      </trkpt>
      <trkpt lat="42.4595832824707" lon="-7.252048492431641">
        <ele>280.0</ele>
        <time>2019-04-26T12:37:35.000Z</time>
      </trkpt>
      <trkpt lat="42.45966339111328" lon="-7.252129077911377">
        <ele>279.0</ele>
        <time>2019-04-26T12:37:45.000Z</time>
      </trkpt>
      <trkpt lat="42.459678649902344" lon="-7.252179145812988">
        <ele>279.0</ele>
        <time>2019-04-26T12:37:47.000Z</time>
      </trkpt>
      <trkpt lat="42.459678649902344" lon="-7.252231597900391">
        <ele>279.0</ele>
        <time>2019-04-26T12:37:50.000Z</time>
      </trkpt>
      <trkpt lat="42.459678649902344" lon="-7.252285957336426">
        <ele>279.0</ele>
        <time>2019-04-26T12:37:52.000Z</time>
      </trkpt>
      <trkpt lat="42.45967102050781" lon="-7.252341270446777">
        <ele>278.0</ele>
        <time>2019-04-26T12:37:55.000Z</time>
      </trkpt>
      <trkpt lat="42.459678649902344" lon="-7.252366542816162">
        <ele>278.0</ele>
        <time>2019-04-26T12:37:56.000Z</time>
      </trkpt>
      <trkpt lat="42.459693908691406" lon="-7.252379894256592">
        <ele>279.0</ele>
        <time>2019-04-26T12:37:56.000Z</time>
      </trkpt>
      <trkpt lat="42.4597053527832" lon="-7.25238561630249">
        <ele>279.0</ele>
        <time>2019-04-26T12:37:56.000Z</time>
      </trkpt>
      <trkpt lat="42.45972442626953" lon="-7.252387523651123">
        <ele>279.0</ele>
        <time>2019-04-26T12:37:57.000Z</time>
      </trkpt>
      <trkpt lat="42.45975875854492" lon="-7.252549171447754">
        <ele>282.0</ele>
        <time>2019-04-26T12:38:10.000Z</time>
      </trkpt>
      <trkpt lat="42.459800720214844" lon="-7.252774715423584">
        <ele>285.0</ele>
        <time>2019-04-26T12:38:23.000Z</time>
      </trkpt>
      <trkpt lat="42.4598388671875" lon="-7.252847194671631">
        <ele>286.0</ele>
        <time>2019-04-26T12:38:27.000Z</time>
      </trkpt>
      <trkpt lat="42.45987319946289" lon="-7.25286340713501">
        <ele>286.0</ele>
        <time>2019-04-26T12:38:32.000Z</time>
      </trkpt>
      <trkpt lat="42.459869384765625" lon="-7.252898216247559">
        <ele>286.0</ele>
        <time>2019-04-26T12:38:34.000Z</time>
      </trkpt>
      <trkpt lat="42.45985412597656" lon="-7.252938270568848">
        <ele>287.0</ele>
        <time>2019-04-26T12:38:36.000Z</time>
      </trkpt>
      <trkpt lat="42.45983123779297" lon="-7.252981662750244">
        <ele>287.0</ele>
        <time>2019-04-26T12:38:38.000Z</time>
      </trkpt>
      <trkpt lat="42.459808349609375" lon="-7.253026962280273">
        <ele>287.0</ele>
        <time>2019-04-26T12:38:40.000Z</time>
      </trkpt>
      <trkpt lat="42.45981216430664" lon="-7.25308084487915">
        <ele>287.0</ele>
        <time>2019-04-26T12:38:44.000Z</time>
      </trkpt>
      <trkpt lat="42.45982360839844" lon="-7.253139972686768">
        <ele>287.0</ele>
        <time>2019-04-26T12:38:47.000Z</time>
      </trkpt>
      <trkpt lat="42.459842681884766" lon="-7.253202438354492">
        <ele>287.0</ele>
        <time>2019-04-26T12:38:51.000Z</time>
      </trkpt>
      <trkpt lat="42.45986557006836" lon="-7.253267288208008">
        <ele>287.0</ele>
        <time>2019-04-26T12:38:55.000Z</time>
      </trkpt>
      <trkpt lat="42.45988845825195" lon="-7.253323078155518">
        <ele>287.0</ele>
        <time>2019-04-26T12:38:59.000Z</time>
      </trkpt>
      <trkpt lat="42.45991134643555" lon="-7.253377914428711">
        <ele>287.0</ele>
        <time>2019-04-26T12:39:03.000Z</time>
      </trkpt>
      <trkpt lat="42.45994186401367" lon="-7.25343132019043">
        <ele>287.0</ele>
        <time>2019-04-26T12:39:08.000Z</time>
      </trkpt>
      <trkpt lat="42.45996856689453" lon="-7.25348424911499">
        <ele>287.0</ele>
        <time>2019-04-26T12:39:12.000Z</time>
      </trkpt>
      <trkpt lat="42.45999526977539" lon="-7.253538131713867">
        <ele>287.0</ele>
        <time>2019-04-26T12:39:15.000Z</time>
      </trkpt>
      <trkpt lat="42.460018157958984" lon="-7.253592014312744">
        <ele>286.0</ele>
        <time>2019-04-26T12:39:18.000Z</time>
      </trkpt>
      <trkpt lat="42.460044860839844" lon="-7.253645420074463">
        <ele>286.0</ele>
        <time>2019-04-26T12:39:21.000Z</time>
      </trkpt>
      <trkpt lat="42.46006774902344" lon="-7.253698825836182">
        <ele>285.0</ele>
        <time>2019-04-26T12:39:24.000Z</time>
      </trkpt>
      <trkpt lat="42.460086822509766" lon="-7.253755569458008">
        <ele>285.0</ele>
        <time>2019-04-26T12:39:29.000Z</time>
      </trkpt>
      <trkpt lat="42.46010208129883" lon="-7.253813743591309">
        <ele>285.0</ele>
        <time>2019-04-26T12:39:33.000Z</time>
      </trkpt>
      <trkpt lat="42.46011734008789" lon="-7.253872394561768">
        <ele>284.0</ele>
        <time>2019-04-26T12:39:38.000Z</time>
      </trkpt>
      <trkpt lat="42.46013259887695" lon="-7.253931522369385">
        <ele>284.0</ele>
        <time>2019-04-26T12:39:43.000Z</time>
      </trkpt>
      <trkpt lat="42.46015167236328" lon="-7.2539849281311035">
        <ele>284.0</ele>
        <time>2019-04-26T12:39:46.000Z</time>
      </trkpt>
      <trkpt lat="42.46017837524414" lon="-7.254035472869873">
        <ele>284.0</ele>
        <time>2019-04-26T12:39:48.000Z</time>
      </trkpt>
      <trkpt lat="42.460201263427734" lon="-7.254085063934326">
        <ele>284.0</ele>
        <time>2019-04-26T12:39:51.000Z</time>
      </trkpt>
      <trkpt lat="42.460227966308594" lon="-7.254133701324463">
        <ele>284.0</ele>
        <time>2019-04-26T12:39:54.000Z</time>
      </trkpt>
      <trkpt lat="42.46025466918945" lon="-7.254185199737549">
        <ele>284.0</ele>
        <time>2019-04-26T12:39:57.000Z</time>
      </trkpt>
      <trkpt lat="42.46028518676758" lon="-7.254237174987793">
        <ele>285.0</ele>
        <time>2019-04-26T12:40:01.000Z</time>
      </trkpt>
      <trkpt lat="42.46031188964844" lon="-7.254289627075195">
        <ele>285.0</ele>
        <time>2019-04-26T12:40:04.000Z</time>
      </trkpt>
      <trkpt lat="42.46034240722656" lon="-7.254342079162598">
        <ele>285.0</ele>
        <time>2019-04-26T12:40:08.000Z</time>
      </trkpt>
      <trkpt lat="42.46046829223633" lon="-7.2545247077941895">
        <ele>283.0</ele>
        <time>2019-04-26T12:40:26.000Z</time>
      </trkpt>
      <trkpt lat="42.460548400878906" lon="-7.254743576049805">
        <ele>284.0</ele>
        <time>2019-04-26T12:40:40.000Z</time>
      </trkpt>
      <trkpt lat="42.46067428588867" lon="-7.254901885986328">
        <ele>282.0</ele>
        <time>2019-04-26T12:40:58.000Z</time>
      </trkpt>
      <trkpt lat="42.4608154296875" lon="-7.255075931549072">
        <ele>281.0</ele>
        <time>2019-04-26T12:41:11.000Z</time>
      </trkpt>
      <trkpt lat="42.46095657348633" lon="-7.255249977111816">
        <ele>281.0</ele>
        <time>2019-04-26T12:41:27.000Z</time>
      </trkpt>
      <trkpt lat="42.461082458496094" lon="-7.255406379699707">
        <ele>282.0</ele>
        <time>2019-04-26T12:41:41.000Z</time>
      </trkpt>
      <trkpt lat="42.46136474609375" lon="-7.255670070648193">
        <ele>286.0</ele>
        <time>2019-04-26T12:42:04.000Z</time>
      </trkpt>
      <trkpt lat="42.46153259277344" lon="-7.255852222442627">
        <ele>287.0</ele>
        <time>2019-04-26T12:42:23.000Z</time>
      </trkpt>
      <trkpt lat="42.461605072021484" lon="-7.255878448486328">
        <ele>287.0</ele>
        <time>2019-04-26T12:42:27.000Z</time>
      </trkpt>
      <trkpt lat="42.461673736572266" lon="-7.255875110626221">
        <ele>286.0</ele>
        <time>2019-04-26T12:42:32.000Z</time>
      </trkpt>
      <trkpt lat="42.461753845214844" lon="-7.255943775177002">
        <ele>286.0</ele>
        <time>2019-04-26T12:42:41.000Z</time>
      </trkpt>
      <trkpt lat="42.46183776855469" lon="-7.256039142608643">
        <ele>286.0</ele>
        <time>2019-04-26T12:42:50.000Z</time>
      </trkpt>
      <trkpt lat="42.46187973022461" lon="-7.256069183349609">
        <ele>287.0</ele>
        <time>2019-04-26T12:42:54.000Z</time>
      </trkpt>
      <trkpt lat="42.46192932128906" lon="-7.256094932556152">
        <ele>287.0</ele>
        <time>2019-04-26T12:42:57.000Z</time>
      </trkpt>
      <trkpt lat="42.461978912353516" lon="-7.256117820739746">
        <ele>288.0</ele>
        <time>2019-04-26T12:43:01.000Z</time>
      </trkpt>
      <trkpt lat="42.46202850341797" lon="-7.256139278411865">
        <ele>289.0</ele>
        <time>2019-04-26T12:43:04.000Z</time>
      </trkpt>
      <trkpt lat="42.462074279785156" lon="-7.2561540603637695">
        <ele>288.0</ele>
        <time>2019-04-26T12:43:07.000Z</time>
      </trkpt>
      <trkpt lat="42.462120056152344" lon="-7.25616455078125">
        <ele>288.0</ele>
        <time>2019-04-26T12:43:10.000Z</time>
      </trkpt>
      <trkpt lat="42.46216583251953" lon="-7.256172180175781">
        <ele>287.0</ele>
        <time>2019-04-26T12:43:14.000Z</time>
      </trkpt>
      <trkpt lat="42.462215423583984" lon="-7.256178855895996">
        <ele>286.0</ele>
        <time>2019-04-26T12:43:17.000Z</time>
      </trkpt>
      <trkpt lat="42.46227264404297" lon="-7.256187915802002">
        <ele>286.0</ele>
        <time>2019-04-26T12:43:23.000Z</time>
      </trkpt>
      <trkpt lat="42.462337493896484" lon="-7.256197452545166">
        <ele>285.0</ele>
        <time>2019-04-26T12:43:29.000Z</time>
      </trkpt>
      <trkpt lat="42.462406158447266" lon="-7.256206035614014">
        <ele>285.0</ele>
        <time>2019-04-26T12:43:36.000Z</time>
      </trkpt>
      <trkpt lat="42.46247482299805" lon="-7.2562150955200195">
        <ele>285.0</ele>
        <time>2019-04-26T12:43:42.000Z</time>
      </trkpt>
      <trkpt lat="42.462528228759766" lon="-7.256227970123291">
        <ele>284.0</ele>
        <time>2019-04-26T12:43:46.000Z</time>
      </trkpt>
      <trkpt lat="42.46257400512695" lon="-7.256241798400879">
        <ele>284.0</ele>
        <time>2019-04-26T12:43:50.000Z</time>
      </trkpt>
      <trkpt lat="42.462615966796875" lon="-7.256256580352783">
        <ele>284.0</ele>
        <time>2019-04-26T12:43:53.000Z</time>
      </trkpt>
      <trkpt lat="42.4626579284668" lon="-7.256272315979004">
        <ele>284.0</ele>
        <time>2019-04-26T12:43:57.000Z</time>
      </trkpt>
      <trkpt lat="42.46269226074219" lon="-7.25628137588501">
        <ele>284.0</ele>
        <time>2019-04-26T12:44:02.000Z</time>
      </trkpt>
      <trkpt lat="42.46272277832031" lon="-7.256288051605225">
        <ele>284.0</ele>
        <time>2019-04-26T12:44:08.000Z</time>
      </trkpt>
      <trkpt lat="42.46275329589844" lon="-7.256293773651123">
        <ele>284.0</ele>
        <time>2019-04-26T12:44:13.000Z</time>
      </trkpt>
      <trkpt lat="42.4627799987793" lon="-7.256298542022705">
        <ele>283.0</ele>
        <time>2019-04-26T12:44:19.000Z</time>
      </trkpt>
      <trkpt lat="42.462825775146484" lon="-7.256309986114502">
        <ele>282.0</ele>
        <time>2019-04-26T12:44:39.000Z</time>
      </trkpt>
      <trkpt lat="42.46285629272461" lon="-7.256317615509033">
        <ele>282.0</ele>
        <time>2019-04-26T12:44:40.000Z</time>
      </trkpt>
      <trkpt lat="42.4630241394043" lon="-7.2563557624816895">
        <ele>282.0</ele>
        <time>2019-04-26T12:44:45.000Z</time>
      </trkpt>
      <trkpt lat="42.46320724487305" lon="-7.256396293640137">
        <ele>278.0</ele>
        <time>2019-04-26T12:45:07.000Z</time>
      </trkpt>
      <trkpt lat="42.46338653564453" lon="-7.2564568519592285">
        <ele>276.0</ele>
        <time>2019-04-26T12:45:24.000Z</time>
      </trkpt>
      <trkpt lat="42.463558197021484" lon="-7.25656270980835">
        <ele>275.0</ele>
        <time>2019-04-26T12:45:41.000Z</time>
      </trkpt>
      <trkpt lat="42.463714599609375" lon="-7.256704330444336">
        <ele>281.0</ele>
        <time>2019-04-26T12:45:59.000Z</time>
      </trkpt>
      <trkpt lat="42.46379089355469" lon="-7.256743907928467">
        <ele>284.0</ele>
        <time>2019-04-26T12:46:23.000Z</time>
      </trkpt>
      <trkpt lat="42.46381378173828" lon="-7.256778240203857">
        <ele>284.0</ele>
        <time>2019-04-26T12:46:37.000Z</time>
      </trkpt>
      <trkpt lat="42.463829040527344" lon="-7.256818771362305">
        <ele>284.0</ele>
        <time>2019-04-26T12:46:52.000Z</time>
      </trkpt>
      <trkpt lat="42.463836669921875" lon="-7.256831169128418">
        <ele>284.0</ele>
        <time>2019-04-26T12:46:52.000Z</time>
      </trkpt>
      <trkpt lat="42.46384048461914" lon="-7.25684118270874">
        <ele>284.0</ele>
        <time>2019-04-26T12:46:52.000Z</time>
      </trkpt>
      <trkpt lat="42.463844299316406" lon="-7.25684928894043">
        <ele>284.0</ele>
        <time>2019-04-26T12:46:53.000Z</time>
      </trkpt>
      <trkpt lat="42.46384811401367" lon="-7.256856441497803">
        <ele>284.0</ele>
        <time>2019-04-26T12:46:53.000Z</time>
      </trkpt>
      <trkpt lat="42.463871002197266" lon="-7.256895542144775">
        <ele>284.0</ele>
        <time>2019-04-26T12:46:55.000Z</time>
      </trkpt>
      <trkpt lat="42.46389389038086" lon="-7.2569475173950195">
        <ele>284.0</ele>
        <time>2019-04-26T12:46:57.000Z</time>
      </trkpt>
      <trkpt lat="42.463924407958984" lon="-7.257007598876953">
        <ele>284.0</ele>
        <time>2019-04-26T12:47:00.000Z</time>
      </trkpt>
      <trkpt lat="42.46395492553711" lon="-7.257071495056152">
        <ele>284.0</ele>
        <time>2019-04-26T12:47:02.000Z</time>
      </trkpt>
      <trkpt lat="42.46398162841797" lon="-7.257127285003662">
        <ele>284.0</ele>
        <time>2019-04-26T12:47:06.000Z</time>
      </trkpt>
      <trkpt lat="42.46400451660156" lon="-7.25718355178833">
        <ele>284.0</ele>
        <time>2019-04-26T12:47:09.000Z</time>
      </trkpt>
      <trkpt lat="42.464027404785156" lon="-7.2572407722473145">
        <ele>284.0</ele>
        <time>2019-04-26T12:47:13.000Z</time>
      </trkpt>
      <trkpt lat="42.46405029296875" lon="-7.257297515869141">
        <ele>283.0</ele>
        <time>2019-04-26T12:47:17.000Z</time>
      </trkpt>
      <trkpt lat="42.46407699584961" lon="-7.257351875305176">
        <ele>283.0</ele>
        <time>2019-04-26T12:47:21.000Z</time>
      </trkpt>
      <trkpt lat="42.46410369873047" lon="-7.2574052810668945">
        <ele>283.0</ele>
        <time>2019-04-26T12:47:25.000Z</time>
      </trkpt>
      <trkpt lat="42.46413040161133" lon="-7.257457733154297">
        <ele>282.0</ele>
        <time>2019-04-26T12:47:29.000Z</time>
      </trkpt>
      <trkpt lat="42.46416091918945" lon="-7.257509708404541">
        <ele>282.0</ele>
        <time>2019-04-26T12:47:33.000Z</time>
      </trkpt>
      <trkpt lat="42.46417999267578" lon="-7.257570266723633">
        <ele>282.0</ele>
        <time>2019-04-26T12:47:38.000Z</time>
      </trkpt>
      <trkpt lat="42.464195251464844" lon="-7.257633686065674">
        <ele>283.0</ele>
        <time>2019-04-26T12:47:44.000Z</time>
      </trkpt>
      <trkpt lat="42.46420669555664" lon="-7.257699489593506">
        <ele>284.0</ele>
        <time>2019-04-26T12:47:49.000Z</time>
      </trkpt>
      <trkpt lat="42.46421813964844" lon="-7.257765769958496">
        <ele>286.0</ele>
        <time>2019-04-26T12:47:55.000Z</time>
      </trkpt>
      <trkpt lat="42.46432113647461" lon="-7.258018493652344">
        <ele>285.0</ele>
        <time>2019-04-26T12:48:11.000Z</time>
      </trkpt>
      <trkpt lat="42.46445083618164" lon="-7.258203506469727">
        <ele>286.0</ele>
        <time>2019-04-26T12:48:26.000Z</time>
      </trkpt>
      <trkpt lat="42.464622497558594" lon="-7.258318901062012">
        <ele>283.0</ele>
        <time>2019-04-26T12:48:42.000Z</time>
      </trkpt>
      <trkpt lat="42.464969635009766" lon="-7.258407115936279">
        <ele>279.0</ele>
        <time>2019-04-26T12:49:20.000Z</time>
      </trkpt>
      <trkpt lat="42.46500015258789" lon="-7.25841760635376">
        <ele>281.0</ele>
        <time>2019-04-26T12:49:40.000Z</time>
      </trkpt>
      <trkpt lat="42.465023040771484" lon="-7.258424758911133">
        <ele>281.0</ele>
        <time>2019-04-26T12:49:41.000Z</time>
      </trkpt>
      <trkpt lat="42.4653205871582" lon="-7.258495330810547">
        <ele>282.0</ele>
        <time>2019-04-26T12:49:58.000Z</time>
      </trkpt>
      <trkpt lat="42.465660095214844" lon="-7.258553504943848">
        <ele>281.0</ele>
        <time>2019-04-26T12:50:23.000Z</time>
      </trkpt>
      <trkpt lat="42.46600341796875" lon="-7.258574962615967">
        <ele>279.0</ele>
        <time>2019-04-26T12:50:55.000Z</time>
      </trkpt>
      <trkpt lat="42.46635055541992" lon="-7.258671283721924">
        <ele>277.0</ele>
        <time>2019-04-26T12:51:21.000Z</time>
      </trkpt>
      <trkpt lat="42.4666748046875" lon="-7.258747577667236">
        <ele>274.0</ele>
        <time>2019-04-26T12:51:51.000Z</time>
      </trkpt>
      <trkpt lat="42.46699142456055" lon="-7.258809566497803">
        <ele>271.0</ele>
        <time>2019-04-26T12:52:22.000Z</time>
      </trkpt>
      <trkpt lat="42.46718215942383" lon="-7.258845329284668">
        <ele>272.0</ele>
        <time>2019-04-26T12:52:36.000Z</time>
      </trkpt>
      <trkpt lat="42.46736526489258" lon="-7.258910655975342">
        <ele>273.0</ele>
        <time>2019-04-26T12:52:50.000Z</time>
      </trkpt>
      <trkpt lat="42.467735290527344" lon="-7.259030342102051">
        <ele>268.0</ele>
        <time>2019-04-26T12:53:23.000Z</time>
      </trkpt>
      <trkpt lat="42.46807861328125" lon="-7.259120941162109">
        <ele>264.0</ele>
        <time>2019-04-26T12:53:53.000Z</time>
      </trkpt>
      <trkpt lat="42.46842575073242" lon="-7.259171009063721">
        <ele>260.0</ele>
        <time>2019-04-26T12:54:21.000Z</time>
      </trkpt>
      <trkpt lat="42.468780517578125" lon="-7.259268283843994">
        <ele>258.0</ele>
        <time>2019-04-26T12:54:51.000Z</time>
      </trkpt>
      <trkpt lat="42.4691047668457" lon="-7.259331226348877">
        <ele>258.0</ele>
        <time>2019-04-26T12:55:25.000Z</time>
      </trkpt>
      <trkpt lat="42.4692497253418" lon="-7.259366035461426">
        <ele>257.0</ele>
        <time>2019-04-26T12:55:31.000Z</time>
      </trkpt>
      <trkpt lat="42.469295501708984" lon="-7.259378910064697">
        <ele>258.0</ele>
        <time>2019-04-26T12:55:43.000Z</time>
      </trkpt>
      <trkpt lat="42.469322204589844" lon="-7.2593865394592285">
        <ele>258.0</ele>
        <time>2019-04-26T12:55:44.000Z</time>
      </trkpt>
      <trkpt lat="42.46950149536133" lon="-7.259429454803467">
        <ele>258.0</ele>
        <time>2019-04-26T12:55:50.000Z</time>
      </trkpt>
      <trkpt lat="42.46968460083008" lon="-7.259453773498535">
        <ele>261.0</ele>
        <time>2019-04-26T12:56:03.000Z</time>
      </trkpt>
      <trkpt lat="42.46986770629883" lon="-7.259451866149902">
        <ele>260.0</ele>
        <time>2019-04-26T12:56:26.000Z</time>
      </trkpt>
      <trkpt lat="42.470211029052734" lon="-7.2595953941345215">
        <ele>255.0</ele>
        <time>2019-04-26T12:56:57.000Z</time>
      </trkpt>
      <trkpt lat="42.47056579589844" lon="-7.259675025939941">
        <ele>251.0</ele>
        <time>2019-04-26T12:57:23.000Z</time>
      </trkpt>
      <trkpt lat="42.47088623046875" lon="-7.259671211242676">
        <ele>252.0</ele>
        <time>2019-04-26T12:57:48.000Z</time>
      </trkpt>
      <trkpt lat="42.471221923828125" lon="-7.259751796722412">
        <ele>254.0</ele>
        <time>2019-04-26T12:58:17.000Z</time>
      </trkpt>
      <trkpt lat="42.471317291259766" lon="-7.259753227233887">
        <ele>254.0</ele>
        <time>2019-04-26T12:58:30.000Z</time>
      </trkpt>
      <trkpt lat="42.47135925292969" lon="-7.259753704071045">
        <ele>254.0</ele>
        <time>2019-04-26T12:58:31.000Z</time>
      </trkpt>
      <trkpt lat="42.471717834472656" lon="-7.259761333465576">
        <ele>255.0</ele>
        <time>2019-04-26T12:59:00.000Z</time>
      </trkpt>
      <trkpt lat="42.471893310546875" lon="-7.259771823883057">
        <ele>254.0</ele>
        <time>2019-04-26T12:59:16.000Z</time>
      </trkpt>
      <trkpt lat="42.47196960449219" lon="-7.259817600250244">
        <ele>254.0</ele>
        <time>2019-04-26T12:59:22.000Z</time>
      </trkpt>
      <trkpt lat="42.47203826904297" lon="-7.259881973266602">
        <ele>254.0</ele>
        <time>2019-04-26T12:59:28.000Z</time>
      </trkpt>
      <trkpt lat="42.47208786010742" lon="-7.259950160980225">
        <ele>254.0</ele>
        <time>2019-04-26T12:59:35.000Z</time>
      </trkpt>
      <trkpt lat="42.472145080566406" lon="-7.260035991668701">
        <ele>254.0</ele>
        <time>2019-04-26T12:59:41.000Z</time>
      </trkpt>
      <trkpt lat="42.472206115722656" lon="-7.260132789611816">
        <ele>255.0</ele>
        <time>2019-04-26T12:59:48.000Z</time>
      </trkpt>
      <trkpt lat="42.47227096557617" lon="-7.260235786437988">
        <ele>255.0</ele>
        <time>2019-04-26T12:59:55.000Z</time>
      </trkpt>
      <trkpt lat="42.472320556640625" lon="-7.26033353805542">
        <ele>255.0</ele>
        <time>2019-04-26T13:00:03.000Z</time>
      </trkpt>
      <trkpt lat="42.47237014770508" lon="-7.260435104370117">
        <ele>255.0</ele>
        <time>2019-04-26T13:00:11.000Z</time>
      </trkpt>
      <trkpt lat="42.472415924072266" lon="-7.260539531707764">
        <ele>256.0</ele>
        <time>2019-04-26T13:00:20.000Z</time>
      </trkpt>
      <trkpt lat="42.47245788574219" lon="-7.260644912719727">
        <ele>256.0</ele>
        <time>2019-04-26T13:00:28.000Z</time>
      </trkpt>
      <trkpt lat="42.472496032714844" lon="-7.2607269287109375">
        <ele>257.0</ele>
        <time>2019-04-26T13:00:33.000Z</time>
      </trkpt>
      <trkpt lat="42.47252655029297" lon="-7.260799884796143">
        <ele>257.0</ele>
        <time>2019-04-26T13:00:38.000Z</time>
      </trkpt>
      <trkpt lat="42.472557067871094" lon="-7.260867118835449">
        <ele>257.0</ele>
        <time>2019-04-26T13:00:43.000Z</time>
      </trkpt>
      <trkpt lat="42.47258758544922" lon="-7.260931015014648">
        <ele>257.0</ele>
        <time>2019-04-26T13:00:48.000Z</time>
      </trkpt>
      <trkpt lat="42.47261047363281" lon="-7.2609968185424805">
        <ele>257.0</ele>
        <time>2019-04-26T13:00:51.000Z</time>
      </trkpt>
      <trkpt lat="42.472633361816406" lon="-7.261059761047363">
        <ele>257.0</ele>
        <time>2019-04-26T13:00:55.000Z</time>
      </trkpt>
      <trkpt lat="42.472652435302734" lon="-7.261120796203613">
        <ele>257.0</ele>
        <time>2019-04-26T13:00:58.000Z</time>
      </trkpt>
      <trkpt lat="42.47267150878906" lon="-7.261181354522705">
        <ele>258.0</ele>
        <time>2019-04-26T13:01:02.000Z</time>
      </trkpt>
      <trkpt lat="42.47269821166992" lon="-7.261277675628662">
        <ele>258.0</ele>
        <time>2019-04-26T13:01:09.000Z</time>
      </trkpt>
      <trkpt lat="42.47272872924805" lon="-7.261388778686523">
        <ele>258.0</ele>
        <time>2019-04-26T13:01:17.000Z</time>
      </trkpt>
      <trkpt lat="42.47275924682617" lon="-7.261508941650391">
        <ele>259.0</ele>
        <time>2019-04-26T13:01:25.000Z</time>
      </trkpt>
      <trkpt lat="42.47278594970703" lon="-7.261634349822998">
        <ele>259.0</ele>
        <time>2019-04-26T13:01:32.000Z</time>
      </trkpt>
      <trkpt lat="42.47288513183594" lon="-7.262085437774658">
        <ele>261.0</ele>
        <time>2019-04-26T13:02:08.000Z</time>
      </trkpt>
      <trkpt lat="42.47304916381836" lon="-7.2624969482421875">
        <ele>260.0</ele>
        <time>2019-04-26T13:02:28.000Z</time>
      </trkpt>
      <trkpt lat="42.47319030761719" lon="-7.2626752853393555">
        <ele>266.0</ele>
        <time>2019-04-26T13:02:46.000Z</time>
      </trkpt>
      <trkpt lat="42.473201751708984" lon="-7.262731075286865">
        <ele>266.0</ele>
        <time>2019-04-26T13:02:52.000Z</time>
      </trkpt>
      <trkpt lat="42.473201751708984" lon="-7.262791633605957">
        <ele>266.0</ele>
        <time>2019-04-26T13:02:58.000Z</time>
      </trkpt>
      <trkpt lat="42.47319412231445" lon="-7.262855529785156">
        <ele>266.0</ele>
        <time>2019-04-26T13:03:05.000Z</time>
      </trkpt>
      <trkpt lat="42.47318649291992" lon="-7.262921333312988">
        <ele>265.0</ele>
        <time>2019-04-26T13:03:11.000Z</time>
      </trkpt>
      <trkpt lat="42.473201751708984" lon="-7.262975215911865">
        <ele>266.0</ele>
        <time>2019-04-26T13:03:20.000Z</time>
      </trkpt>
      <trkpt lat="42.47322463989258" lon="-7.262997150421143">
        <ele>267.0</ele>
        <time>2019-04-26T13:03:29.000Z</time>
      </trkpt>
      <trkpt lat="42.473228454589844" lon="-7.263009548187256">
        <ele>267.0</ele>
        <time>2019-04-26T13:03:29.000Z</time>
      </trkpt>
      <trkpt lat="42.47323226928711" lon="-7.26301908493042">
        <ele>267.0</ele>
        <time>2019-04-26T13:03:30.000Z</time>
      </trkpt>
      <trkpt lat="42.473236083984375" lon="-7.263026714324951">
        <ele>267.0</ele>
        <time>2019-04-26T13:03:30.000Z</time>
      </trkpt>
      <trkpt lat="42.47323989868164" lon="-7.263033390045166">
        <ele>267.0</ele>
        <time>2019-04-26T13:03:30.000Z</time>
      </trkpt>
      <trkpt lat="42.473270416259766" lon="-7.263094902038574">
        <ele>267.0</ele>
        <time>2019-04-26T13:03:35.000Z</time>
      </trkpt>
      <trkpt lat="42.47331237792969" lon="-7.263178825378418">
        <ele>268.0</ele>
        <time>2019-04-26T13:03:40.000Z</time>
      </trkpt>
      <trkpt lat="42.47336196899414" lon="-7.263277053833008">
        <ele>269.0</ele>
        <time>2019-04-26T13:03:46.000Z</time>
      </trkpt>
      <trkpt lat="42.47341537475586" lon="-7.263382434844971">
        <ele>270.0</ele>
        <time>2019-04-26T13:03:51.000Z</time>
      </trkpt>
      <trkpt lat="42.47344207763672" lon="-7.263425350189209">
        <ele>270.0</ele>
        <time>2019-04-26T13:03:53.000Z</time>
      </trkpt>
      <trkpt lat="42.47346115112305" lon="-7.263449192047119">
        <ele>271.0</ele>
        <time>2019-04-26T13:03:54.000Z</time>
      </trkpt>
      <trkpt lat="42.47347640991211" lon="-7.263460636138916">
        <ele>271.0</ele>
        <time>2019-04-26T13:03:56.000Z</time>
      </trkpt>
      <trkpt lat="42.473487854003906" lon="-7.263465881347656">
        <ele>272.0</ele>
        <time>2019-04-26T13:03:58.000Z</time>
      </trkpt>
      <trkpt lat="42.473480224609375" lon="-7.263500690460205">
        <ele>272.0</ele>
        <time>2019-04-26T13:04:00.000Z</time>
      </trkpt>
      <trkpt lat="42.47345733642578" lon="-7.263541221618652">
        <ele>272.0</ele>
        <time>2019-04-26T13:04:02.000Z</time>
      </trkpt>
      <trkpt lat="42.47342300415039" lon="-7.263585567474365">
        <ele>272.0</ele>
        <time>2019-04-26T13:04:04.000Z</time>
      </trkpt>
      <trkpt lat="42.473388671875" lon="-7.263631820678711">
        <ele>272.0</ele>
        <time>2019-04-26T13:04:06.000Z</time>
      </trkpt>
      <trkpt lat="42.473388671875" lon="-7.263683795928955">
        <ele>272.0</ele>
        <time>2019-04-26T13:04:10.000Z</time>
      </trkpt>
      <trkpt lat="42.4734001159668" lon="-7.263740062713623">
        <ele>272.0</ele>
        <time>2019-04-26T13:04:14.000Z</time>
      </trkpt>
      <trkpt lat="42.47341537475586" lon="-7.263799667358398">
        <ele>271.0</ele>
        <time>2019-04-26T13:04:19.000Z</time>
      </trkpt>
      <trkpt lat="42.47343444824219" lon="-7.263860702514648">
        <ele>271.0</ele>
        <time>2019-04-26T13:04:23.000Z</time>
      </trkpt>
      <trkpt lat="42.47346878051758" lon="-7.263947010040283">
        <ele>271.0</ele>
        <time>2019-04-26T13:04:30.000Z</time>
      </trkpt>
      <trkpt lat="42.473514556884766" lon="-7.264045715332031">
        <ele>270.0</ele>
        <time>2019-04-26T13:04:37.000Z</time>
      </trkpt>
      <trkpt lat="42.473567962646484" lon="-7.2641520500183105">
        <ele>269.0</ele>
        <time>2019-04-26T13:04:45.000Z</time>
      </trkpt>
      <trkpt lat="42.4736213684082" lon="-7.264262676239014">
        <ele>268.0</ele>
        <time>2019-04-26T13:04:52.000Z</time>
      </trkpt>
      <trkpt lat="42.47365188598633" lon="-7.26432466506958">
        <ele>268.0</ele>
        <time>2019-04-26T13:04:57.000Z</time>
      </trkpt>
      <trkpt lat="42.473670959472656" lon="-7.264370918273926">
        <ele>268.0</ele>
        <time>2019-04-26T13:05:01.000Z</time>
      </trkpt>
      <trkpt lat="42.47368621826172" lon="-7.264406204223633">
        <ele>268.0</ele>
        <time>2019-04-26T13:05:06.000Z</time>
      </trkpt>
      <trkpt lat="42.47370147705078" lon="-7.2644362449646">
        <ele>269.0</ele>
        <time>2019-04-26T13:05:11.000Z</time>
      </trkpt>
      <trkpt lat="42.47371292114258" lon="-7.264469146728516">
        <ele>269.0</ele>
        <time>2019-04-26T13:05:21.000Z</time>
      </trkpt>
      <trkpt lat="42.47372055053711" lon="-7.264498233795166">
        <ele>269.0</ele>
        <time>2019-04-26T13:05:30.000Z</time>
      </trkpt>
      <trkpt lat="42.473724365234375" lon="-7.264523983001709">
        <ele>270.0</ele>
        <time>2019-04-26T13:05:40.000Z</time>
      </trkpt>
      <trkpt lat="42.47372817993164" lon="-7.2645487785339355">
        <ele>270.0</ele>
        <time>2019-04-26T13:05:50.000Z</time>
      </trkpt>
      <trkpt lat="42.473731994628906" lon="-7.264566421508789">
        <ele>270.0</ele>
        <time>2019-04-26T13:05:50.000Z</time>
      </trkpt>
      <trkpt lat="42.47373580932617" lon="-7.264579772949219">
        <ele>270.0</ele>
        <time>2019-04-26T13:05:50.000Z</time>
      </trkpt>
      <trkpt lat="42.47373580932617" lon="-7.264590740203857">
        <ele>270.0</ele>
        <time>2019-04-26T13:05:51.000Z</time>
      </trkpt>
      <trkpt lat="42.47373962402344" lon="-7.264599800109863">
        <ele>270.0</ele>
        <time>2019-04-26T13:05:51.000Z</time>
      </trkpt>
      <trkpt lat="42.47376251220703" lon="-7.264678001403809">
        <ele>270.0</ele>
        <time>2019-04-26T13:05:55.000Z</time>
      </trkpt>
      <trkpt lat="42.47379684448242" lon="-7.26478385925293">
        <ele>269.0</ele>
        <time>2019-04-26T13:06:00.000Z</time>
      </trkpt>
      <trkpt lat="42.47383499145508" lon="-7.2649078369140625">
        <ele>269.0</ele>
        <time>2019-04-26T13:06:04.000Z</time>
      </trkpt>
      <trkpt lat="42.473876953125" lon="-7.265040874481201">
        <ele>269.0</ele>
        <time>2019-04-26T13:06:09.000Z</time>
      </trkpt>
      <trkpt lat="42.473873138427734" lon="-7.265161514282227">
        <ele>268.0</ele>
        <time>2019-04-26T13:06:16.000Z</time>
      </trkpt>
      <trkpt lat="42.47390365600586" lon="-7.265213966369629">
        <ele>268.0</ele>
        <time>2019-04-26T13:06:20.000Z</time>
      </trkpt>
      <trkpt lat="42.47394943237305" lon="-7.265275955200195">
        <ele>267.0</ele>
        <time>2019-04-26T13:06:23.000Z</time>
      </trkpt>
      <trkpt lat="42.47400665283203" lon="-7.26534366607666">
        <ele>267.0</ele>
        <time>2019-04-26T13:06:27.000Z</time>
      </trkpt>
      <trkpt lat="42.47406768798828" lon="-7.265414714813232">
        <ele>266.0</ele>
        <time>2019-04-26T13:06:31.000Z</time>
      </trkpt>
      <trkpt lat="42.47407150268555" lon="-7.265446662902832">
        <ele>266.0</ele>
        <time>2019-04-26T13:06:32.000Z</time>
      </trkpt>
      <trkpt lat="42.47406005859375" lon="-7.265465259552002">
        <ele>266.0</ele>
        <time>2019-04-26T13:06:33.000Z</time>
      </trkpt>
      <trkpt lat="42.47403335571289" lon="-7.265475273132324">
        <ele>267.0</ele>
        <time>2019-04-26T13:06:34.000Z</time>
      </trkpt>
      <trkpt lat="42.474002838134766" lon="-7.2654805183410645">
        <ele>267.0</ele>
        <time>2019-04-26T13:06:35.000Z</time>
      </trkpt>
      <trkpt lat="42.47400665283203" lon="-7.265525817871094">
        <ele>268.0</ele>
        <time>2019-04-26T13:06:39.000Z</time>
      </trkpt>
      <trkpt lat="42.47401809692383" lon="-7.265583038330078">
        <ele>269.0</ele>
        <time>2019-04-26T13:06:43.000Z</time>
      </trkpt>
      <trkpt lat="42.474037170410156" lon="-7.265648365020752">
        <ele>270.0</ele>
        <time>2019-04-26T13:06:47.000Z</time>
      </trkpt>
      <trkpt lat="42.47406005859375" lon="-7.265717506408691">
        <ele>271.0</ele>
        <time>2019-04-26T13:06:51.000Z</time>
      </trkpt>
      <trkpt lat="42.47407913208008" lon="-7.265773773193359">
        <ele>272.0</ele>
        <time>2019-04-26T13:06:54.000Z</time>
      </trkpt>
      <trkpt lat="42.47410202026367" lon="-7.265828609466553">
        <ele>271.0</ele>
        <time>2019-04-26T13:06:57.000Z</time>
      </trkpt>
      <trkpt lat="42.474124908447266" lon="-7.265882968902588">
        <ele>271.0</ele>
        <time>2019-04-26T13:07:01.000Z</time>
      </trkpt>
      <trkpt lat="42.47414779663086" lon="-7.265936851501465">
        <ele>271.0</ele>
        <time>2019-04-26T13:07:04.000Z</time>
      </trkpt>
      <trkpt lat="42.47416687011719" lon="-7.266033172607422">
        <ele>271.0</ele>
        <time>2019-04-26T13:07:12.000Z</time>
      </trkpt>
      <trkpt lat="42.47418212890625" lon="-7.266146659851074">
        <ele>272.0</ele>
        <time>2019-04-26T13:07:20.000Z</time>
      </trkpt>
      <trkpt lat="42.47420120239258" lon="-7.266272068023682">
        <ele>272.0</ele>
        <time>2019-04-26T13:07:28.000Z</time>
      </trkpt>
      <trkpt lat="42.47421646118164" lon="-7.266403675079346">
        <ele>273.0</ele>
        <time>2019-04-26T13:07:36.000Z</time>
      </trkpt>
      <trkpt lat="42.47423553466797" lon="-7.2664794921875">
        <ele>273.0</ele>
        <time>2019-04-26T13:07:39.000Z</time>
      </trkpt>
      <trkpt lat="42.4742546081543" lon="-7.266538619995117">
        <ele>274.0</ele>
        <time>2019-04-26T13:07:42.000Z</time>
      </trkpt>
      <trkpt lat="42.474273681640625" lon="-7.2665863037109375">
        <ele>273.0</ele>
        <time>2019-04-26T13:07:46.000Z</time>
      </trkpt>
      <trkpt lat="42.47429275512695" lon="-7.266628265380859">
        <ele>273.0</ele>
        <time>2019-04-26T13:07:49.000Z</time>
      </trkpt>
      <trkpt lat="42.47433090209961" lon="-7.266707897186279">
        <ele>274.0</ele>
        <time>2019-04-26T13:07:55.000Z</time>
      </trkpt>
      <trkpt lat="42.47438049316406" lon="-7.2667975425720215">
        <ele>275.0</ele>
        <time>2019-04-26T13:08:01.000Z</time>
      </trkpt>
      <trkpt lat="42.47443771362305" lon="-7.26689338684082">
        <ele>276.0</ele>
        <time>2019-04-26T13:08:07.000Z</time>
      </trkpt>
      <trkpt lat="42.47449493408203" lon="-7.266992092132568">
        <ele>277.0</ele>
        <time>2019-04-26T13:08:13.000Z</time>
      </trkpt>
      <trkpt lat="42.47454833984375" lon="-7.267217636108398">
        <ele>276.0</ele>
        <time>2019-04-26T13:08:30.000Z</time>
      </trkpt>
      <trkpt lat="42.47457504272461" lon="-7.267463207244873">
        <ele>273.0</ele>
        <time>2019-04-26T13:08:46.000Z</time>
      </trkpt>
      <trkpt lat="42.474674224853516" lon="-7.2676591873168945">
        <ele>270.0</ele>
        <time>2019-04-26T13:09:00.000Z</time>
      </trkpt>
      <trkpt lat="42.47480010986328" lon="-7.2678375244140625">
        <ele>267.0</ele>
        <time>2019-04-26T13:09:14.000Z</time>
      </trkpt>
      <trkpt lat="42.47484588623047" lon="-7.267939567565918">
        <ele>267.0</ele>
        <time>2019-04-26T13:09:23.000Z</time>
      </trkpt>
      <trkpt lat="42.474884033203125" lon="-7.268045902252197">
        <ele>268.0</ele>
        <time>2019-04-26T13:09:33.000Z</time>
      </trkpt>
      <trkpt lat="42.474918365478516" lon="-7.268154621124268">
        <ele>269.0</ele>
        <time>2019-04-26T13:09:42.000Z</time>
      </trkpt>
      <trkpt lat="42.474952697753906" lon="-7.268264293670654">
        <ele>271.0</ele>
        <time>2019-04-26T13:09:52.000Z</time>
      </trkpt>
      <trkpt lat="42.47496795654297" lon="-7.268321514129639">
        <ele>271.0</ele>
        <time>2019-04-26T13:09:54.000Z</time>
      </trkpt>
      <trkpt lat="42.4749755859375" lon="-7.268357276916504">
        <ele>271.0</ele>
        <time>2019-04-26T13:09:56.000Z</time>
      </trkpt>
      <trkpt lat="42.474971771240234" lon="-7.2683796882629395">
        <ele>271.0</ele>
        <time>2019-04-26T13:09:58.000Z</time>
      </trkpt>
      <trkpt lat="42.474971771240234" lon="-7.268394947052002">
        <ele>271.0</ele>
        <time>2019-04-26T13:10:00.000Z</time>
      </trkpt>
      <trkpt lat="42.4749755859375" lon="-7.268416881561279">
        <ele>271.0</ele>
        <time>2019-04-26T13:10:06.000Z</time>
      </trkpt>
      <trkpt lat="42.474979400634766" lon="-7.268434524536133">
        <ele>271.0</ele>
        <time>2019-04-26T13:10:12.000Z</time>
      </trkpt>
      <trkpt lat="42.4749870300293" lon="-7.268448829650879">
        <ele>271.0</ele>
        <time>2019-04-26T13:10:18.000Z</time>
      </trkpt>
      <trkpt lat="42.47499465942383" lon="-7.26846170425415">
        <ele>271.0</ele>
        <time>2019-04-26T13:10:24.000Z</time>
      </trkpt>
      <trkpt lat="42.474998474121094" lon="-7.268474578857422">
        <ele>271.0</ele>
        <time>2019-04-26T13:10:24.000Z</time>
      </trkpt>
      <trkpt lat="42.47500228881836" lon="-7.268485069274902">
        <ele>271.0</ele>
        <time>2019-04-26T13:10:24.000Z</time>
      </trkpt>
      <trkpt lat="42.475006103515625" lon="-7.268495082855225">
        <ele>271.0</ele>
        <time>2019-04-26T13:10:25.000Z</time>
      </trkpt>
      <trkpt lat="42.475006103515625" lon="-7.2685041427612305">
        <ele>271.0</ele>
        <time>2019-04-26T13:10:25.000Z</time>
      </trkpt>
      <trkpt lat="42.47502899169922" lon="-7.268584728240967">
        <ele>270.0</ele>
        <time>2019-04-26T13:10:29.000Z</time>
      </trkpt>
      <trkpt lat="42.475059509277344" lon="-7.268694877624512">
        <ele>270.0</ele>
        <time>2019-04-26T13:10:33.000Z</time>
      </trkpt>
      <trkpt lat="42.475093841552734" lon="-7.268824577331543">
        <ele>269.0</ele>
        <time>2019-04-26T13:10:38.000Z</time>
      </trkpt>
      <trkpt lat="42.47513198852539" lon="-7.2689642906188965">
        <ele>269.0</ele>
        <time>2019-04-26T13:10:42.000Z</time>
      </trkpt>
      <trkpt lat="42.475215911865234" lon="-7.269072532653809">
        <ele>266.0</ele>
        <time>2019-04-26T13:10:53.000Z</time>
      </trkpt>
      <trkpt lat="42.47522735595703" lon="-7.269098281860352">
        <ele>265.0</ele>
        <time>2019-04-26T13:10:58.000Z</time>
      </trkpt>
      <trkpt lat="42.475223541259766" lon="-7.269111633300781">
        <ele>264.0</ele>
        <time>2019-04-26T13:11:04.000Z</time>
      </trkpt>
      <trkpt lat="42.47522735595703" lon="-7.269119739532471">
        <ele>264.0</ele>
        <time>2019-04-26T13:11:04.000Z</time>
      </trkpt>
      <trkpt lat="42.47522735595703" lon="-7.269126892089844">
        <ele>264.0</ele>
        <time>2019-04-26T13:11:04.000Z</time>
      </trkpt>
      <trkpt lat="42.47522735595703" lon="-7.269134044647217">
        <ele>264.0</ele>
        <time>2019-04-26T13:11:05.000Z</time>
      </trkpt>
      <trkpt lat="42.4752311706543" lon="-7.269140720367432">
        <ele>264.0</ele>
        <time>2019-04-26T13:11:05.000Z</time>
      </trkpt>
      <trkpt lat="42.47524642944336" lon="-7.269219875335693">
        <ele>264.0</ele>
        <time>2019-04-26T13:11:09.000Z</time>
      </trkpt>
      <trkpt lat="42.47526931762695" lon="-7.269329071044922">
        <ele>264.0</ele>
        <time>2019-04-26T13:11:13.000Z</time>
      </trkpt>
      <trkpt lat="42.47529602050781" lon="-7.269458770751953">
        <ele>264.0</ele>
        <time>2019-04-26T13:11:17.000Z</time>
      </trkpt>
      <trkpt lat="42.47532653808594" lon="-7.269598007202148">
        <ele>264.0</ele>
        <time>2019-04-26T13:11:21.000Z</time>
      </trkpt>
      <trkpt lat="42.475345611572266" lon="-7.269704818725586">
        <ele>265.0</ele>
        <time>2019-04-26T13:11:27.000Z</time>
      </trkpt>
      <trkpt lat="42.47536087036133" lon="-7.269808292388916">
        <ele>265.0</ele>
        <time>2019-04-26T13:11:34.000Z</time>
      </trkpt>
      <trkpt lat="42.47537612915039" lon="-7.269909858703613">
        <ele>266.0</ele>
        <time>2019-04-26T13:11:40.000Z</time>
      </trkpt>
      <trkpt lat="42.47539138793945" lon="-7.270010471343994">
        <ele>267.0</ele>
        <time>2019-04-26T13:11:47.000Z</time>
      </trkpt>
      <trkpt lat="42.475425720214844" lon="-7.270112991333008">
        <ele>268.0</ele>
        <time>2019-04-26T13:11:54.000Z</time>
      </trkpt>
      <trkpt lat="42.475460052490234" lon="-7.270214557647705">
        <ele>269.0</ele>
        <time>2019-04-26T13:12:01.000Z</time>
      </trkpt>
      <trkpt lat="42.475502014160156" lon="-7.270316123962402">
        <ele>270.0</ele>
        <time>2019-04-26T13:12:09.000Z</time>
      </trkpt>
      <trkpt lat="42.475547790527344" lon="-7.270417213439941">
        <ele>272.0</ele>
        <time>2019-04-26T13:12:16.000Z</time>
      </trkpt>
      <trkpt lat="42.4755744934082" lon="-7.270465850830078">
        <ele>272.0</ele>
        <time>2019-04-26T13:12:19.000Z</time>
      </trkpt>
      <trkpt lat="42.47559356689453" lon="-7.270493030548096">
        <ele>273.0</ele>
        <time>2019-04-26T13:12:23.000Z</time>
      </trkpt>
      <trkpt lat="42.47561264038086" lon="-7.270504951477051">
        <ele>273.0</ele>
        <time>2019-04-26T13:12:27.000Z</time>
      </trkpt>
      <trkpt lat="42.47563171386719" lon="-7.270509243011475">
        <ele>273.0</ele>
        <time>2019-04-26T13:12:30.000Z</time>
      </trkpt>
      <trkpt lat="42.47563934326172" lon="-7.2705254554748535">
        <ele>273.0</ele>
        <time>2019-04-26T13:12:41.000Z</time>
      </trkpt>
      <trkpt lat="42.47563171386719" lon="-7.2705278396606445">
        <ele>274.0</ele>
        <time>2019-04-26T13:12:51.000Z</time>
      </trkpt>
      <trkpt lat="42.47563171386719" lon="-7.270532131195068">
        <ele>274.0</ele>
        <time>2019-04-26T13:12:51.000Z</time>
      </trkpt>
      <trkpt lat="42.47563171386719" lon="-7.270536422729492">
        <ele>274.0</ele>
        <time>2019-04-26T13:12:51.000Z</time>
      </trkpt>
      <trkpt lat="42.47563552856445" lon="-7.270540237426758">
        <ele>274.0</ele>
        <time>2019-04-26T13:12:52.000Z</time>
      </trkpt>
      <trkpt lat="42.47563552856445" lon="-7.270544528961182">
        <ele>274.0</ele>
        <time>2019-04-26T13:12:52.000Z</time>
      </trkpt>
      <trkpt lat="42.47565460205078" lon="-7.270619869232178">
        <ele>275.0</ele>
        <time>2019-04-26T13:12:55.000Z</time>
      </trkpt>
      <trkpt lat="42.47568130493164" lon="-7.270725727081299">
        <ele>276.0</ele>
        <time>2019-04-26T13:12:58.000Z</time>
      </trkpt>
      <trkpt lat="42.47571563720703" lon="-7.270851135253906">
        <ele>277.0</ele>
        <time>2019-04-26T13:13:01.000Z</time>
      </trkpt>
      <trkpt lat="42.47574996948242" lon="-7.270986557006836">
        <ele>279.0</ele>
        <time>2019-04-26T13:13:04.000Z</time>
      </trkpt>
      <trkpt lat="42.47577667236328" lon="-7.271090030670166">
        <ele>280.0</ele>
        <time>2019-04-26T13:13:13.000Z</time>
      </trkpt>
      <trkpt lat="42.475807189941406" lon="-7.271190643310547">
        <ele>281.0</ele>
        <time>2019-04-26T13:13:22.000Z</time>
      </trkpt>
      <trkpt lat="42.475833892822266" lon="-7.271289348602295">
        <ele>281.0</ele>
        <time>2019-04-26T13:13:31.000Z</time>
      </trkpt>
      <trkpt lat="42.475860595703125" lon="-7.271386623382568">
        <ele>281.0</ele>
        <time>2019-04-26T13:13:40.000Z</time>
      </trkpt>
      <trkpt lat="42.47587203979492" lon="-7.271426677703857">
        <ele>282.0</ele>
        <time>2019-04-26T13:13:48.000Z</time>
      </trkpt>
      <trkpt lat="42.47587585449219" lon="-7.27144193649292">
        <ele>283.0</ele>
        <time>2019-04-26T13:13:56.000Z</time>
      </trkpt>
      <trkpt lat="42.47587585449219" lon="-7.271440029144287">
        <ele>284.0</ele>
        <time>2019-04-26T13:14:05.000Z</time>
      </trkpt>
      <trkpt lat="42.47587203979492" lon="-7.271430015563965">
        <ele>285.0</ele>
        <time>2019-04-26T13:14:13.000Z</time>
      </trkpt>
      <trkpt lat="42.47587585449219" lon="-7.2714385986328125">
        <ele>286.0</ele>
        <time>2019-04-26T13:14:13.000Z</time>
      </trkpt>
      <trkpt lat="42.47587585449219" lon="-7.271446228027344">
        <ele>286.0</ele>
        <time>2019-04-26T13:14:13.000Z</time>
      </trkpt>
      <trkpt lat="42.47587966918945" lon="-7.271453380584717">
        <ele>286.0</ele>
        <time>2019-04-26T13:14:14.000Z</time>
      </trkpt>
      <trkpt lat="42.47587966918945" lon="-7.27146053314209">
        <ele>285.0</ele>
        <time>2019-04-26T13:14:14.000Z</time>
      </trkpt>
      <trkpt lat="42.47591781616211" lon="-7.271569728851318">
        <ele>286.0</ele>
        <time>2019-04-26T13:14:17.000Z</time>
      </trkpt>
      <trkpt lat="42.47592544555664" lon="-7.271597385406494">
        <ele>286.0</ele>
        <time>2019-04-26T13:14:31.000Z</time>
      </trkpt>
      <trkpt lat="42.47593307495117" lon="-7.271620273590088">
        <ele>286.0</ele>
        <time>2019-04-26T13:14:32.000Z</time>
      </trkpt>
      <trkpt lat="42.476009368896484" lon="-7.271842956542969">
        <ele>288.0</ele>
        <time>2019-04-26T13:14:36.000Z</time>
      </trkpt>
      <trkpt lat="42.47600555419922" lon="-7.271935939788818">
        <ele>290.0</ele>
        <time>2019-04-26T13:14:44.000Z</time>
      </trkpt>
      <trkpt lat="42.47598648071289" lon="-7.2720208168029785">
        <ele>294.0</ele>
        <time>2019-04-26T13:14:52.000Z</time>
      </trkpt>
      <trkpt lat="42.47596740722656" lon="-7.2720184326171875">
        <ele>297.0</ele>
        <time>2019-04-26T13:15:04.000Z</time>
      </trkpt>
      <trkpt lat="42.47587585449219" lon="-7.2719244956970215">
        <ele>312.0</ele>
        <time>2019-04-26T13:15:36.000Z</time>
      </trkpt>
      <trkpt lat="42.47589111328125" lon="-7.271941661834717">
        <ele>310.0</ele>
        <time>2019-04-26T13:15:29.000Z</time>
      </trkpt>
      <trkpt lat="42.47591018676758" lon="-7.271966934204102">
        <ele>306.0</ele>
        <time>2019-04-26T13:15:23.000Z</time>
      </trkpt>
      <trkpt lat="42.47591018676758" lon="-7.271966934204102">
        <ele>306.0</ele>
        <time>2019-04-26T13:15:44.000Z</time>
      </trkpt>
      <trkpt lat="42.47598648071289" lon="-7.2727952003479">
        <ele>290.0</ele>
        <time>2019-04-27T05:46:06.000Z</time>
      </trkpt>
      <trkpt lat="42.475982666015625" lon="-7.2727952003479">
        <ele>289.0</ele>
        <time>2019-04-27T05:46:07.000Z</time>
      </trkpt>
      <trkpt lat="42.47599792480469" lon="-7.2728047370910645">
        <ele>289.0</ele>
        <time>2019-04-27T05:46:35.000Z</time>
      </trkpt>
      <trkpt lat="42.476016998291016" lon="-7.2728190422058105">
        <ele>289.0</ele>
        <time>2019-04-27T05:47:03.000Z</time>
      </trkpt>
      <trkpt lat="42.47602462768555" lon="-7.272823810577393">
        <ele>289.0</ele>
        <time>2019-04-27T05:47:03.000Z</time>
      </trkpt>
      <trkpt lat="42.47602844238281" lon="-7.272828102111816">
        <ele>289.0</ele>
        <time>2019-04-27T05:47:04.000Z</time>
      </trkpt>
      <trkpt lat="42.47603225708008" lon="-7.272831916809082">
        <ele>289.0</ele>
        <time>2019-04-27T05:47:04.000Z</time>
      </trkpt>
      <trkpt lat="42.47603988647461" lon="-7.272835731506348">
        <ele>289.0</ele>
        <time>2019-04-27T05:47:04.000Z</time>
      </trkpt>
      <trkpt lat="42.476070404052734" lon="-7.272894859313965">
        <ele>289.0</ele>
        <time>2019-04-27T05:47:10.000Z</time>
      </trkpt>
      <trkpt lat="42.476112365722656" lon="-7.272976875305176">
        <ele>288.0</ele>
        <time>2019-04-27T05:47:16.000Z</time>
      </trkpt>
      <trkpt lat="42.47616195678711" lon="-7.273073673248291">
        <ele>288.0</ele>
        <time>2019-04-27T05:47:22.000Z</time>
      </trkpt>
      <trkpt lat="42.47621536254883" lon="-7.273178577423096">
        <ele>288.0</ele>
        <time>2019-04-27T05:47:28.000Z</time>
      </trkpt>
      <trkpt lat="42.47623062133789" lon="-7.2732157707214355">
        <ele>287.0</ele>
        <time>2019-04-27T05:47:32.000Z</time>
      </trkpt>
      <trkpt lat="42.476234436035156" lon="-7.273232936859131">
        <ele>287.0</ele>
        <time>2019-04-27T05:47:36.000Z</time>
      </trkpt>
      <trkpt lat="42.47623062133789" lon="-7.273236274719238">
        <ele>287.0</ele>
        <time>2019-04-27T05:47:39.000Z</time>
      </trkpt>
      <trkpt lat="42.47622299194336" lon="-7.273232936859131">
        <ele>287.0</ele>
        <time>2019-04-27T05:47:43.000Z</time>
      </trkpt>
      <trkpt lat="42.476226806640625" lon="-7.273243427276611">
        <ele>287.0</ele>
        <time>2019-04-27T05:47:43.000Z</time>
      </trkpt>
      <trkpt lat="42.476226806640625" lon="-7.273252964019775">
        <ele>287.0</ele>
        <time>2019-04-27T05:47:44.000Z</time>
      </trkpt>
      <trkpt lat="42.47623062133789" lon="-7.273261547088623">
        <ele>287.0</ele>
        <time>2019-04-27T05:47:44.000Z</time>
      </trkpt>
      <trkpt lat="42.47623062133789" lon="-7.2732696533203125">
        <ele>287.0</ele>
        <time>2019-04-27T05:47:44.000Z</time>
      </trkpt>
      <trkpt lat="42.47624206542969" lon="-7.273318767547607">
        <ele>287.0</ele>
        <time>2019-04-27T05:47:46.000Z</time>
      </trkpt>
      <trkpt lat="42.47625732421875" lon="-7.273384094238281">
        <ele>287.0</ele>
        <time>2019-04-27T05:47:48.000Z</time>
      </trkpt>
      <trkpt lat="42.47627258300781" lon="-7.273460388183594">
        <ele>287.0</ele>
        <time>2019-04-27T05:47:50.000Z</time>
      </trkpt>
      <trkpt lat="42.47629165649414" lon="-7.273542881011963">
        <ele>287.0</ele>
        <time>2019-04-27T05:47:52.000Z</time>
      </trkpt>
      <trkpt lat="42.476287841796875" lon="-7.273600101470947">
        <ele>287.0</ele>
        <time>2019-04-27T05:47:55.000Z</time>
      </trkpt>
      <trkpt lat="42.47627258300781" lon="-7.273653030395508">
        <ele>286.0</ele>
        <time>2019-04-27T05:47:59.000Z</time>
      </trkpt>
      <trkpt lat="42.476253509521484" lon="-7.273703098297119">
        <ele>286.0</ele>
        <time>2019-04-27T05:48:02.000Z</time>
      </trkpt>
      <trkpt lat="42.47623062133789" lon="-7.273751735687256">
        <ele>286.0</ele>
        <time>2019-04-27T05:48:05.000Z</time>
      </trkpt>
      <trkpt lat="42.4762077331543" lon="-7.273797035217285">
        <ele>286.0</ele>
        <time>2019-04-27T05:48:08.000Z</time>
      </trkpt>
      <trkpt lat="42.47618865966797" lon="-7.273839473724365">
        <ele>286.0</ele>
        <time>2019-04-27T05:48:10.000Z</time>
      </trkpt>
      <trkpt lat="42.47616195678711" lon="-7.273879528045654">
        <ele>285.0</ele>
        <time>2019-04-27T05:48:13.000Z</time>
      </trkpt>
      <trkpt lat="42.476139068603516" lon="-7.273919105529785">
        <ele>285.0</ele>
        <time>2019-04-27T05:48:15.000Z</time>
      </trkpt>
      <trkpt lat="42.47614669799805" lon="-7.273983478546143">
        <ele>285.0</ele>
        <time>2019-04-27T05:48:20.000Z</time>
      </trkpt>
      <trkpt lat="42.47616958618164" lon="-7.274056911468506">
        <ele>284.0</ele>
        <time>2019-04-27T05:48:24.000Z</time>
      </trkpt>
      <trkpt lat="42.476200103759766" lon="-7.274136543273926">
        <ele>284.0</ele>
        <time>2019-04-27T05:48:29.000Z</time>
      </trkpt>
      <trkpt lat="42.47623825073242" lon="-7.274219512939453">
        <ele>284.0</ele>
        <time>2019-04-27T05:48:33.000Z</time>
      </trkpt>
      <trkpt lat="42.47622299194336" lon="-7.274317264556885">
        <ele>283.0</ele>
        <time>2019-04-27T05:48:41.000Z</time>
      </trkpt>
      <trkpt lat="42.4761962890625" lon="-7.2744245529174805">
        <ele>283.0</ele>
        <time>2019-04-27T05:48:49.000Z</time>
      </trkpt>
      <trkpt lat="42.476158142089844" lon="-7.274537563323975">
        <ele>283.0</ele>
        <time>2019-04-27T05:48:57.000Z</time>
      </trkpt>
      <trkpt lat="42.476112365722656" lon="-7.274654388427734">
        <ele>282.0</ele>
        <time>2019-04-27T05:49:05.000Z</time>
      </trkpt>
      <trkpt lat="42.476112365722656" lon="-7.274692535400391">
        <ele>281.0</ele>
        <time>2019-04-27T05:49:08.000Z</time>
      </trkpt>
      <trkpt lat="42.47612762451172" lon="-7.274701118469238">
        <ele>280.0</ele>
        <time>2019-04-27T05:49:12.000Z</time>
      </trkpt>
      <trkpt lat="42.47615051269531" lon="-7.274690628051758">
        <ele>278.0</ele>
        <time>2019-04-27T05:49:15.000Z</time>
      </trkpt>
      <trkpt lat="42.47617721557617" lon="-7.274669647216797">
        <ele>277.0</ele>
        <time>2019-04-27T05:49:18.000Z</time>
      </trkpt>
      <trkpt lat="42.47618103027344" lon="-7.274676322937012">
        <ele>277.0</ele>
        <time>2019-04-27T05:49:24.000Z</time>
      </trkpt>
      <trkpt lat="42.47617721557617" lon="-7.274683952331543">
        <ele>277.0</ele>
        <time>2019-04-27T05:49:30.000Z</time>
      </trkpt>
      <trkpt lat="42.47616958618164" lon="-7.274692058563232">
        <ele>277.0</ele>
        <time>2019-04-27T05:49:36.000Z</time>
      </trkpt>
      <trkpt lat="42.47616195678711" lon="-7.27470064163208">
        <ele>278.0</ele>
        <time>2019-04-27T05:49:42.000Z</time>
      </trkpt>
      <trkpt lat="42.476158142089844" lon="-7.274707317352295">
        <ele>278.0</ele>
        <time>2019-04-27T05:49:42.000Z</time>
      </trkpt>
      <trkpt lat="42.47615432739258" lon="-7.274713516235352">
        <ele>278.0</ele>
        <time>2019-04-27T05:49:43.000Z</time>
      </trkpt>
      <trkpt lat="42.47615051269531" lon="-7.27471923828125">
        <ele>278.0</ele>
        <time>2019-04-27T05:49:43.000Z</time>
      </trkpt>
      <trkpt lat="42.47614669799805" lon="-7.27472448348999">
        <ele>278.0</ele>
        <time>2019-04-27T05:49:43.000Z</time>
      </trkpt>
      <trkpt lat="42.476112365722656" lon="-7.274796485900879">
        <ele>278.0</ele>
        <time>2019-04-27T05:49:48.000Z</time>
      </trkpt>
      <trkpt lat="42.4760627746582" lon="-7.274895668029785">
        <ele>278.0</ele>
        <time>2019-04-27T05:49:52.000Z</time>
      </trkpt>
      <trkpt lat="42.47600555419922" lon="-7.275013446807861">
        <ele>278.0</ele>
        <time>2019-04-27T05:49:57.000Z</time>
      </trkpt>
      <trkpt lat="42.47594451904297" lon="-7.275140285491943">
        <ele>278.0</ele>
        <time>2019-04-27T05:50:01.000Z</time>
      </trkpt>
      <trkpt lat="42.47590255737305" lon="-7.275245189666748">
        <ele>277.0</ele>
        <time>2019-04-27T05:50:09.000Z</time>
      </trkpt>
      <trkpt lat="42.475860595703125" lon="-7.275351047515869">
        <ele>277.0</ele>
        <time>2019-04-27T05:50:17.000Z</time>
      </trkpt>
      <trkpt lat="42.47582244873047" lon="-7.275456428527832">
        <ele>276.0</ele>
        <time>2019-04-27T05:50:25.000Z</time>
      </trkpt>
      <trkpt lat="42.47578430175781" lon="-7.275562286376953">
        <ele>275.0</ele>
        <time>2019-04-27T05:50:33.000Z</time>
      </trkpt>
      <trkpt lat="42.47573471069336" lon="-7.275653839111328">
        <ele>274.0</ele>
        <time>2019-04-27T05:50:41.000Z</time>
      </trkpt>
      <trkpt lat="42.47568130493164" lon="-7.2757391929626465">
        <ele>273.0</ele>
        <time>2019-04-27T05:50:49.000Z</time>
      </trkpt>
      <trkpt lat="42.475624084472656" lon="-7.275820732116699">
        <ele>272.0</ele>
        <time>2019-04-27T05:50:57.000Z</time>
      </trkpt>
      <trkpt lat="42.47556686401367" lon="-7.275900363922119">
        <ele>271.0</ele>
        <time>2019-04-27T05:51:05.000Z</time>
      </trkpt>
      <trkpt lat="42.47551345825195" lon="-7.2759904861450195">
        <ele>271.0</ele>
        <time>2019-04-27T05:51:12.000Z</time>
      </trkpt>
      <trkpt lat="42.475460052490234" lon="-7.276082992553711">
        <ele>271.0</ele>
        <time>2019-04-27T05:51:19.000Z</time>
      </trkpt>
      <trkpt lat="42.475406646728516" lon="-7.276177406311035">
        <ele>271.0</ele>
        <time>2019-04-27T05:51:26.000Z</time>
      </trkpt>
      <trkpt lat="42.47535705566406" lon="-7.276272296905518">
        <ele>271.0</ele>
        <time>2019-04-27T05:51:33.000Z</time>
      </trkpt>
      <trkpt lat="42.47513961791992" lon="-7.27665901184082">
        <ele>269.0</ele>
        <time>2019-04-27T05:52:03.000Z</time>
      </trkpt>
      <trkpt lat="42.47502899169922" lon="-7.2768449783325195">
        <ele>265.0</ele>
        <time>2019-04-27T05:52:26.000Z</time>
      </trkpt>
      <trkpt lat="42.47501754760742" lon="-7.276866912841797">
        <ele>261.0</ele>
        <time>2019-04-27T05:52:42.000Z</time>
      </trkpt>
      <trkpt lat="42.47500991821289" lon="-7.276885509490967">
        <ele>261.0</ele>
        <time>2019-04-27T05:52:43.000Z</time>
      </trkpt>
      <trkpt lat="42.47481918334961" lon="-7.277268409729004">
        <ele>259.0</ele>
        <time>2019-04-27T05:52:57.000Z</time>
      </trkpt>
      <trkpt lat="42.474586486816406" lon="-7.27761697769165">
        <ele>258.0</ele>
        <time>2019-04-27T05:53:25.000Z</time>
      </trkpt>
      <trkpt lat="42.474334716796875" lon="-7.277935028076172">
        <ele>258.0</ele>
        <time>2019-04-27T05:53:55.000Z</time>
      </trkpt>
      <trkpt lat="42.47420883178711" lon="-7.278088569641113">
        <ele>258.0</ele>
        <time>2019-04-27T05:54:06.000Z</time>
      </trkpt>
      <trkpt lat="42.47416687011719" lon="-7.278291702270508">
        <ele>259.0</ele>
        <time>2019-04-27T05:54:26.000Z</time>
      </trkpt>
      <trkpt lat="42.4741325378418" lon="-7.278553009033203">
        <ele>261.0</ele>
        <time>2019-04-27T05:54:46.000Z</time>
      </trkpt>
      <trkpt lat="42.47412109375" lon="-7.2786030769348145">
        <ele>262.0</ele>
        <time>2019-04-27T05:54:47.000Z</time>
      </trkpt>
      <trkpt lat="42.47411346435547" lon="-7.278626441955566">
        <ele>264.0</ele>
        <time>2019-04-27T05:54:47.000Z</time>
      </trkpt>
      <trkpt lat="42.4741096496582" lon="-7.27863073348999">
        <ele>266.0</ele>
        <time>2019-04-27T05:54:48.000Z</time>
      </trkpt>
      <trkpt lat="42.4741096496582" lon="-7.278626441955566">
        <ele>268.0</ele>
        <time>2019-04-27T05:54:48.000Z</time>
      </trkpt>
      <trkpt lat="42.47406005859375" lon="-7.278679370880127">
        <ele>265.0</ele>
        <time>2019-04-27T05:54:54.000Z</time>
      </trkpt>
      <trkpt lat="42.47399139404297" lon="-7.2787394523620605">
        <ele>258.0</ele>
        <time>2019-04-27T05:54:59.000Z</time>
      </trkpt>
      <trkpt lat="42.47397994995117" lon="-7.27875280380249">
        <ele>257.0</ele>
        <time>2019-04-27T05:54:59.000Z</time>
      </trkpt>
      <trkpt lat="42.47397232055664" lon="-7.2787604331970215">
        <ele>257.0</ele>
        <time>2019-04-27T05:55:00.000Z</time>
      </trkpt>
      <trkpt lat="42.473968505859375" lon="-7.278763294219971">
        <ele>258.0</ele>
        <time>2019-04-27T05:55:00.000Z</time>
      </trkpt>
      <trkpt lat="42.47396469116211" lon="-7.278764247894287">
        <ele>258.0</ele>
        <time>2019-04-27T05:55:00.000Z</time>
      </trkpt>
      <trkpt lat="42.47391891479492" lon="-7.27881383895874">
        <ele>258.0</ele>
        <time>2019-04-27T05:55:07.000Z</time>
      </trkpt>
      <trkpt lat="42.47385025024414" lon="-7.278881549835205">
        <ele>258.0</ele>
        <time>2019-04-27T05:55:14.000Z</time>
      </trkpt>
      <trkpt lat="42.47377014160156" lon="-7.278961181640625">
        <ele>258.0</ele>
        <time>2019-04-27T05:55:21.000Z</time>
      </trkpt>
      <trkpt lat="42.47368621826172" lon="-7.279046535491943">
        <ele>258.0</ele>
        <time>2019-04-27T05:55:28.000Z</time>
      </trkpt>
      <trkpt lat="42.4736328125" lon="-7.279138088226318">
        <ele>258.0</ele>
        <time>2019-04-27T05:55:36.000Z</time>
      </trkpt>
      <trkpt lat="42.47358703613281" lon="-7.279238224029541">
        <ele>257.0</ele>
        <time>2019-04-27T05:55:44.000Z</time>
      </trkpt>
      <trkpt lat="42.47354507446289" lon="-7.279344081878662">
        <ele>256.0</ele>
        <time>2019-04-27T05:55:52.000Z</time>
      </trkpt>
      <trkpt lat="42.473506927490234" lon="-7.279452800750732">
        <ele>255.0</ele>
        <time>2019-04-27T05:56:00.000Z</time>
      </trkpt>
      <trkpt lat="42.47346878051758" lon="-7.279551982879639">
        <ele>254.0</ele>
        <time>2019-04-27T05:56:07.000Z</time>
      </trkpt>
      <trkpt lat="42.47343063354492" lon="-7.279650688171387">
        <ele>253.0</ele>
        <time>2019-04-27T05:56:13.000Z</time>
      </trkpt>
      <trkpt lat="42.47339630126953" lon="-7.279748916625977">
        <ele>252.0</ele>
        <time>2019-04-27T05:56:20.000Z</time>
      </trkpt>
      <trkpt lat="42.473358154296875" lon="-7.279846668243408">
        <ele>252.0</ele>
        <time>2019-04-27T05:56:26.000Z</time>
      </trkpt>
      <trkpt lat="42.47333526611328" lon="-7.279933452606201">
        <ele>251.0</ele>
        <time>2019-04-27T05:56:32.000Z</time>
      </trkpt>
      <trkpt lat="42.47332000732422" lon="-7.280015468597412">
        <ele>250.0</ele>
        <time>2019-04-27T05:56:39.000Z</time>
      </trkpt>
      <trkpt lat="42.473304748535156" lon="-7.280094146728516">
        <ele>249.0</ele>
        <time>2019-04-27T05:56:45.000Z</time>
      </trkpt>
      <trkpt lat="42.47329330444336" lon="-7.2801713943481445">
        <ele>249.0</ele>
        <time>2019-04-27T05:56:51.000Z</time>
      </trkpt>
      <trkpt lat="42.47328186035156" lon="-7.280233860015869">
        <ele>248.0</ele>
        <time>2019-04-27T05:57:08.000Z</time>
      </trkpt>
      <trkpt lat="42.4732780456543" lon="-7.280273914337158">
        <ele>248.0</ele>
        <time>2019-04-27T05:57:09.000Z</time>
      </trkpt>
      <trkpt lat="42.47323226928711" lon="-7.280559062957764">
        <ele>248.0</ele>
        <time>2019-04-27T05:57:16.000Z</time>
      </trkpt>
      <trkpt lat="42.473209381103516" lon="-7.280605792999268">
        <ele>248.0</ele>
        <time>2019-04-27T05:57:20.000Z</time>
      </trkpt>
      <trkpt lat="42.473175048828125" lon="-7.280642032623291">
        <ele>248.0</ele>
        <time>2019-04-27T05:57:24.000Z</time>
      </trkpt>
      <trkpt lat="42.47313690185547" lon="-7.2806715965271">
        <ele>247.0</ele>
        <time>2019-04-27T05:57:27.000Z</time>
      </trkpt>
      <trkpt lat="42.47309875488281" lon="-7.280697345733643">
        <ele>247.0</ele>
        <time>2019-04-27T05:57:31.000Z</time>
      </trkpt>
      <trkpt lat="42.47304153442383" lon="-7.280741214752197">
        <ele>246.0</ele>
        <time>2019-04-27T05:57:38.000Z</time>
      </trkpt>
      <trkpt lat="42.47297668457031" lon="-7.280788898468018">
        <ele>244.0</ele>
        <time>2019-04-27T05:57:45.000Z</time>
      </trkpt>
      <trkpt lat="42.47290802001953" lon="-7.280839443206787">
        <ele>243.0</ele>
        <time>2019-04-27T05:57:52.000Z</time>
      </trkpt>
      <trkpt lat="42.472835540771484" lon="-7.280890941619873">
        <ele>241.0</ele>
        <time>2019-04-27T05:57:59.000Z</time>
      </trkpt>
      <trkpt lat="42.4727897644043" lon="-7.280928611755371">
        <ele>239.0</ele>
        <time>2019-04-27T05:58:06.000Z</time>
      </trkpt>
      <trkpt lat="42.47275161743164" lon="-7.280961990356445">
        <ele>238.0</ele>
        <time>2019-04-27T05:58:13.000Z</time>
      </trkpt>
      <trkpt lat="42.472721099853516" lon="-7.28099250793457">
        <ele>236.0</ele>
        <time>2019-04-27T05:58:20.000Z</time>
      </trkpt>
      <trkpt lat="42.472694396972656" lon="-7.281021595001221">
        <ele>235.0</ele>
        <time>2019-04-27T05:58:27.000Z</time>
      </trkpt>
      <trkpt lat="42.472652435302734" lon="-7.281027793884277">
        <ele>234.0</ele>
        <time>2019-04-27T05:58:32.000Z</time>
      </trkpt>
      <trkpt lat="42.47260665893555" lon="-7.281022548675537">
        <ele>233.0</ele>
        <time>2019-04-27T05:58:36.000Z</time>
      </trkpt>
      <trkpt lat="42.47256088256836" lon="-7.281010150909424">
        <ele>233.0</ele>
        <time>2019-04-27T05:58:41.000Z</time>
      </trkpt>
      <trkpt lat="42.472511291503906" lon="-7.280993938446045">
        <ele>232.0</ele>
        <time>2019-04-27T05:58:45.000Z</time>
      </trkpt>
      <trkpt lat="42.47249221801758" lon="-7.280991077423096">
        <ele>232.0</ele>
        <time>2019-04-27T05:58:45.000Z</time>
      </trkpt>
      <trkpt lat="42.47248840332031" lon="-7.280990123748779">
        <ele>232.0</ele>
        <time>2019-04-27T05:58:46.000Z</time>
      </trkpt>
      <trkpt lat="42.47248840332031" lon="-7.2809906005859375">
        <ele>232.0</ele>
        <time>2019-04-27T05:58:46.000Z</time>
      </trkpt>
      <trkpt lat="42.47249221801758" lon="-7.280991554260254">
        <ele>232.0</ele>
        <time>2019-04-27T05:58:46.000Z</time>
      </trkpt>
      <trkpt lat="42.47246170043945" lon="-7.280986785888672">
        <ele>232.0</ele>
        <time>2019-04-27T05:58:51.000Z</time>
      </trkpt>
      <trkpt lat="42.47241973876953" lon="-7.280980587005615">
        <ele>231.0</ele>
        <time>2019-04-27T05:58:57.000Z</time>
      </trkpt>
      <trkpt lat="42.47236633300781" lon="-7.280973434448242">
        <ele>230.0</ele>
        <time>2019-04-27T05:59:02.000Z</time>
      </trkpt>
      <trkpt lat="42.472312927246094" lon="-7.280965328216553">
        <ele>230.0</ele>
        <time>2019-04-27T05:59:07.000Z</time>
      </trkpt>
      <trkpt lat="42.472286224365234" lon="-7.280951976776123">
        <ele>231.0</ele>
        <time>2019-04-27T05:59:11.000Z</time>
      </trkpt>
      <trkpt lat="42.472293853759766" lon="-7.280938148498535">
        <ele>233.0</ele>
        <time>2019-04-27T05:59:15.000Z</time>
      </trkpt>
      <trkpt lat="42.472293853759766" lon="-7.280941963195801">
        <ele>236.0</ele>
        <time>2019-04-27T05:59:24.000Z</time>
      </trkpt>
      <trkpt lat="42.47229766845703" lon="-7.280950546264648">
        <ele>239.0</ele>
        <time>2019-04-27T05:59:33.000Z</time>
      </trkpt>
      <trkpt lat="42.4723014831543" lon="-7.280961990356445">
        <ele>243.0</ele>
        <time>2019-04-27T05:59:41.000Z</time>
      </trkpt>
      <trkpt lat="42.47230911254883" lon="-7.280975341796875">
        <ele>247.0</ele>
        <time>2019-04-27T05:59:50.000Z</time>
      </trkpt>
      <trkpt lat="42.472312927246094" lon="-7.280982971191406">
        <ele>249.0</ele>
        <time>2019-04-27T05:59:50.000Z</time>
      </trkpt>
      <trkpt lat="42.47231674194336" lon="-7.280989646911621">
        <ele>249.0</ele>
        <time>2019-04-27T05:59:51.000Z</time>
      </trkpt>
      <trkpt lat="42.47231674194336" lon="-7.280995845794678">
        <ele>248.0</ele>
        <time>2019-04-27T05:59:51.000Z</time>
      </trkpt>
      <trkpt lat="42.472320556640625" lon="-7.281002044677734">
        <ele>247.0</ele>
        <time>2019-04-27T05:59:51.000Z</time>
      </trkpt>
      <trkpt lat="42.472320556640625" lon="-7.281027317047119">
        <ele>248.0</ele>
        <time>2019-04-27T05:59:54.000Z</time>
      </trkpt>
      <trkpt lat="42.47232437133789" lon="-7.281060695648193">
        <ele>250.0</ele>
        <time>2019-04-27T05:59:57.000Z</time>
      </trkpt>
      <trkpt lat="42.47232437133789" lon="-7.28109884262085">
        <ele>251.0</ele>
        <time>2019-04-27T06:00:00.000Z</time>
      </trkpt>
      <trkpt lat="42.472328186035156" lon="-7.281139850616455">
        <ele>253.0</ele>
        <time>2019-04-27T06:00:03.000Z</time>
      </trkpt>
      <trkpt lat="42.47231674194336" lon="-7.281144142150879">
        <ele>252.0</ele>
        <time>2019-04-27T06:00:10.000Z</time>
      </trkpt>
      <trkpt lat="42.4723014831543" lon="-7.2811360359191895">
        <ele>251.0</ele>
        <time>2019-04-27T06:00:18.000Z</time>
      </trkpt>
      <trkpt lat="42.4722785949707" lon="-7.281119346618652">
        <ele>248.0</ele>
        <time>2019-04-27T06:00:25.000Z</time>
      </trkpt>
      <trkpt lat="42.472259521484375" lon="-7.28109884262085">
        <ele>245.0</ele>
        <time>2019-04-27T06:00:32.000Z</time>
      </trkpt>
      <trkpt lat="42.47224807739258" lon="-7.281092166900635">
        <ele>245.0</ele>
        <time>2019-04-27T06:00:32.000Z</time>
      </trkpt>
      <trkpt lat="42.47224044799805" lon="-7.281087398529053">
        <ele>245.0</ele>
        <time>2019-04-27T06:00:33.000Z</time>
      </trkpt>
      <trkpt lat="42.472232818603516" lon="-7.281083583831787">
        <ele>245.0</ele>
        <time>2019-04-27T06:00:33.000Z</time>
      </trkpt>
      <trkpt lat="42.47222900390625" lon="-7.2810797691345215">
        <ele>245.0</ele>
        <time>2019-04-27T06:00:33.000Z</time>
      </trkpt>
      <trkpt lat="42.47216796875" lon="-7.281065464019775">
        <ele>245.0</ele>
        <time>2019-04-27T06:00:39.000Z</time>
      </trkpt>
      <trkpt lat="42.472084045410156" lon="-7.281046390533447">
        <ele>244.0</ele>
        <time>2019-04-27T06:00:44.000Z</time>
      </trkpt>
      <trkpt lat="42.471988677978516" lon="-7.281024932861328">
        <ele>242.0</ele>
        <time>2019-04-27T06:00:50.000Z</time>
      </trkpt>
      <trkpt lat="42.471885681152344" lon="-7.281001567840576">
        <ele>241.0</ele>
        <time>2019-04-27T06:00:55.000Z</time>
      </trkpt>
      <trkpt lat="42.471797943115234" lon="-7.2809953689575195">
        <ele>240.0</ele>
        <time>2019-04-27T06:01:03.000Z</time>
      </trkpt>
      <trkpt lat="42.471710205078125" lon="-7.280994415283203">
        <ele>239.0</ele>
        <time>2019-04-27T06:01:10.000Z</time>
      </trkpt>
      <trkpt lat="42.471622467041016" lon="-7.2809977531433105">
        <ele>239.0</ele>
        <time>2019-04-27T06:01:18.000Z</time>
      </trkpt>
      <trkpt lat="42.47153091430664" lon="-7.281002521514893">
        <ele>238.0</ele>
        <time>2019-04-27T06:01:25.000Z</time>
      </trkpt>
      <trkpt lat="42.47144317626953" lon="-7.2809953689575195">
        <ele>238.0</ele>
        <time>2019-04-27T06:01:31.000Z</time>
      </trkpt>
      <trkpt lat="42.471351623535156" lon="-7.280985355377197">
        <ele>237.0</ele>
        <time>2019-04-27T06:01:38.000Z</time>
      </trkpt>
      <trkpt lat="42.47126388549805" lon="-7.280973434448242">
        <ele>237.0</ele>
        <time>2019-04-27T06:01:44.000Z</time>
      </trkpt>
      <trkpt lat="42.47117233276367" lon="-7.2809600830078125">
        <ele>236.0</ele>
        <time>2019-04-27T06:01:50.000Z</time>
      </trkpt>
      <trkpt lat="42.47108840942383" lon="-7.280961036682129">
        <ele>236.0</ele>
        <time>2019-04-27T06:01:59.000Z</time>
      </trkpt>
      <trkpt lat="42.471004486083984" lon="-7.280966281890869">
        <ele>235.0</ele>
        <time>2019-04-27T06:02:07.000Z</time>
      </trkpt>
      <trkpt lat="42.470916748046875" lon="-7.280974864959717">
        <ele>235.0</ele>
        <time>2019-04-27T06:02:16.000Z</time>
      </trkpt>
      <trkpt lat="42.4708366394043" lon="-7.280985355377197">
        <ele>235.0</ele>
        <time>2019-04-27T06:02:24.000Z</time>
      </trkpt>
      <trkpt lat="42.47051239013672" lon="-7.2811102867126465">
        <ele>237.0</ele>
        <time>2019-04-27T06:02:55.000Z</time>
      </trkpt>
      <trkpt lat="42.470272064208984" lon="-7.281124591827393">
        <ele>238.0</ele>
        <time>2019-04-27T06:03:07.000Z</time>
      </trkpt>
      <trkpt lat="42.47020721435547" lon="-7.281172275543213">
        <ele>239.0</ele>
        <time>2019-04-27T06:03:13.000Z</time>
      </trkpt>
      <trkpt lat="42.47016906738281" lon="-7.281239032745361">
        <ele>239.0</ele>
        <time>2019-04-27T06:03:18.000Z</time>
      </trkpt>
      <trkpt lat="42.4701042175293" lon="-7.2812819480896">
        <ele>238.0</ele>
        <time>2019-04-27T06:03:24.000Z</time>
      </trkpt>
      <trkpt lat="42.47002410888672" lon="-7.2813310623168945">
        <ele>238.0</ele>
        <time>2019-04-27T06:03:30.000Z</time>
      </trkpt>
      <trkpt lat="42.46993637084961" lon="-7.281383991241455">
        <ele>237.0</ele>
        <time>2019-04-27T06:03:36.000Z</time>
      </trkpt>
      <trkpt lat="42.469844818115234" lon="-7.281438827514648">
        <ele>236.0</ele>
        <time>2019-04-27T06:03:42.000Z</time>
      </trkpt>
      <trkpt lat="42.46974182128906" lon="-7.281624794006348">
        <ele>237.0</ele>
        <time>2019-04-27T06:04:01.000Z</time>
      </trkpt>
      <trkpt lat="42.46966552734375" lon="-7.281850337982178">
        <ele>240.0</ele>
        <time>2019-04-27T06:04:19.000Z</time>
      </trkpt>
      <trkpt lat="42.46964645385742" lon="-7.281919002532959">
        <ele>241.0</ele>
        <time>2019-04-27T06:04:22.000Z</time>
      </trkpt>
      <trkpt lat="42.46963882446289" lon="-7.281973361968994">
        <ele>242.0</ele>
        <time>2019-04-27T06:04:26.000Z</time>
      </trkpt>
      <trkpt lat="42.46963882446289" lon="-7.282018184661865">
        <ele>244.0</ele>
        <time>2019-04-27T06:04:29.000Z</time>
      </trkpt>
      <trkpt lat="42.469642639160156" lon="-7.282058238983154">
        <ele>245.0</ele>
        <time>2019-04-27T06:04:32.000Z</time>
      </trkpt>
      <trkpt lat="42.469608306884766" lon="-7.282100677490234">
        <ele>246.0</ele>
        <time>2019-04-27T06:04:37.000Z</time>
      </trkpt>
      <trkpt lat="42.46956253051758" lon="-7.282139301300049">
        <ele>247.0</ele>
        <time>2019-04-27T06:04:42.000Z</time>
      </trkpt>
      <trkpt lat="42.469505310058594" lon="-7.282175540924072">
        <ele>248.0</ele>
        <time>2019-04-27T06:04:46.000Z</time>
      </trkpt>
      <trkpt lat="42.46944808959961" lon="-7.282210350036621">
        <ele>249.0</ele>
        <time>2019-04-27T06:04:51.000Z</time>
      </trkpt>
      <trkpt lat="42.469417572021484" lon="-7.2822370529174805">
        <ele>249.0</ele>
        <time>2019-04-27T06:04:54.000Z</time>
      </trkpt>
      <trkpt lat="42.46939468383789" lon="-7.282259464263916">
        <ele>250.0</ele>
        <time>2019-04-27T06:04:57.000Z</time>
      </trkpt>
      <trkpt lat="42.46937942504883" lon="-7.282279014587402">
        <ele>250.0</ele>
        <time>2019-04-27T06:04:59.000Z</time>
      </trkpt>
      <trkpt lat="42.46936798095703" lon="-7.282296657562256">
        <ele>250.0</ele>
        <time>2019-04-27T06:05:02.000Z</time>
      </trkpt>
      <trkpt lat="42.469356536865234" lon="-7.282308101654053">
        <ele>250.0</ele>
        <time>2019-04-27T06:05:06.000Z</time>
      </trkpt>
      <trkpt lat="42.46935272216797" lon="-7.282315254211426">
        <ele>250.0</ele>
        <time>2019-04-27T06:05:09.000Z</time>
      </trkpt>
      <trkpt lat="42.4693489074707" lon="-7.282320022583008">
        <ele>250.0</ele>
        <time>2019-04-27T06:05:13.000Z</time>
      </trkpt>
      <trkpt lat="42.4693489074707" lon="-7.282322883605957">
        <ele>250.0</ele>
        <time>2019-04-27T06:05:16.000Z</time>
      </trkpt>
      <trkpt lat="42.46934509277344" lon="-7.2823286056518555">
        <ele>249.0</ele>
        <time>2019-04-27T06:05:16.000Z</time>
      </trkpt>
      <trkpt lat="42.46934127807617" lon="-7.282333850860596">
        <ele>249.0</ele>
        <time>2019-04-27T06:05:17.000Z</time>
      </trkpt>
      <trkpt lat="42.469337463378906" lon="-7.282338619232178">
        <ele>249.0</ele>
        <time>2019-04-27T06:05:17.000Z</time>
      </trkpt>
      <trkpt lat="42.469337463378906" lon="-7.28234338760376">
        <ele>250.0</ele>
        <time>2019-04-27T06:05:17.000Z</time>
      </trkpt>
      <trkpt lat="42.469303131103516" lon="-7.282383441925049">
        <ele>250.0</ele>
        <time>2019-04-27T06:05:19.000Z</time>
      </trkpt>
      <trkpt lat="42.46925735473633" lon="-7.282437801361084">
        <ele>250.0</ele>
        <time>2019-04-27T06:05:22.000Z</time>
      </trkpt>
      <trkpt lat="42.469207763671875" lon="-7.282502174377441">
        <ele>250.0</ele>
        <time>2019-04-27T06:05:24.000Z</time>
      </trkpt>
      <trkpt lat="42.46915054321289" lon="-7.282570838928223">
        <ele>250.0</ele>
        <time>2019-04-27T06:05:26.000Z</time>
      </trkpt>
      <trkpt lat="42.4691047668457" lon="-7.282623767852783">
        <ele>250.0</ele>
        <time>2019-04-27T06:05:34.000Z</time>
      </trkpt>
      <trkpt lat="42.469058990478516" lon="-7.282675266265869">
        <ele>250.0</ele>
        <time>2019-04-27T06:05:42.000Z</time>
      </trkpt>
      <trkpt lat="42.46900939941406" lon="-7.2827253341674805">
        <ele>251.0</ele>
        <time>2019-04-27T06:05:49.000Z</time>
      </trkpt>
      <trkpt lat="42.468963623046875" lon="-7.282775402069092">
        <ele>252.0</ele>
        <time>2019-04-27T06:05:57.000Z</time>
      </trkpt>
      <trkpt lat="42.46900177001953" lon="-7.2827277183532715">
        <ele>252.0</ele>
        <time>2019-04-27T06:06:08.000Z</time>
      </trkpt>
      <trkpt lat="42.46907424926758" lon="-7.282639026641846">
        <ele>252.0</ele>
        <time>2019-04-27T06:06:20.000Z</time>
      </trkpt>
      <trkpt lat="42.46916961669922" lon="-7.282523155212402">
        <ele>252.0</ele>
        <time>2019-04-27T06:06:31.000Z</time>
      </trkpt>
      <trkpt lat="42.469276428222656" lon="-7.282392978668213">
        <ele>252.0</ele>
        <time>2019-04-27T06:06:42.000Z</time>
      </trkpt>
      <trkpt lat="42.46932601928711" lon="-7.2823333740234375">
        <ele>252.0</ele>
        <time>2019-04-27T06:06:47.000Z</time>
      </trkpt>
      <trkpt lat="42.469364166259766" lon="-7.282288551330566">
        <ele>252.0</ele>
        <time>2019-04-27T06:06:51.000Z</time>
      </trkpt>
      <trkpt lat="42.46939468383789" lon="-7.282254219055176">
        <ele>252.0</ele>
        <time>2019-04-27T06:06:56.000Z</time>
      </trkpt>
      <trkpt lat="42.469417572021484" lon="-7.282224178314209">
        <ele>252.0</ele>
        <time>2019-04-27T06:07:00.000Z</time>
      </trkpt>
      <trkpt lat="42.469451904296875" lon="-7.282179832458496">
        <ele>250.0</ele>
        <time>2019-04-27T06:07:05.000Z</time>
      </trkpt>
      <trkpt lat="42.469478607177734" lon="-7.282134056091309">
        <ele>247.0</ele>
        <time>2019-04-27T06:07:09.000Z</time>
      </trkpt>
      <trkpt lat="42.46950912475586" lon="-7.282087802886963">
        <ele>243.0</ele>
        <time>2019-04-27T06:07:14.000Z</time>
      </trkpt>
      <trkpt lat="42.46953582763672" lon="-7.282041072845459">
        <ele>240.0</ele>
        <time>2019-04-27T06:07:18.000Z</time>
      </trkpt>
      <trkpt lat="42.46957015991211" lon="-7.281997203826904">
        <ele>237.0</ele>
        <time>2019-04-27T06:07:22.000Z</time>
      </trkpt>
      <trkpt lat="42.4696044921875" lon="-7.281953811645508">
        <ele>234.0</ele>
        <time>2019-04-27T06:07:26.000Z</time>
      </trkpt>
      <trkpt lat="42.46963882446289" lon="-7.2819108963012695">
        <ele>232.0</ele>
        <time>2019-04-27T06:07:29.000Z</time>
      </trkpt>
      <trkpt lat="42.46967697143555" lon="-7.2818684577941895">
        <ele>230.0</ele>
        <time>2019-04-27T06:07:33.000Z</time>
      </trkpt>
      <trkpt lat="42.4697151184082" lon="-7.281827926635742">
        <ele>228.0</ele>
        <time>2019-04-27T06:07:38.000Z</time>
      </trkpt>
      <trkpt lat="42.46975326538086" lon="-7.281788349151611">
        <ele>226.0</ele>
        <time>2019-04-27T06:07:43.000Z</time>
      </trkpt>
      <trkpt lat="42.469791412353516" lon="-7.281749725341797">
        <ele>224.0</ele>
        <time>2019-04-27T06:07:47.000Z</time>
      </trkpt>
      <trkpt lat="42.46982955932617" lon="-7.281711101531982">
        <ele>222.0</ele>
        <time>2019-04-27T06:07:52.000Z</time>
      </trkpt>
      <trkpt lat="42.46986770629883" lon="-7.281670093536377">
        <ele>221.0</ele>
        <time>2019-04-27T06:07:56.000Z</time>
      </trkpt>
      <trkpt lat="42.46990203857422" lon="-7.281628131866455">
        <ele>220.0</ele>
        <time>2019-04-27T06:08:00.000Z</time>
      </trkpt>
      <trkpt lat="42.46993637084961" lon="-7.281585693359375">
        <ele>219.0</ele>
        <time>2019-04-27T06:08:04.000Z</time>
      </trkpt>
      <trkpt lat="42.469970703125" lon="-7.281543254852295">
        <ele>218.0</ele>
        <time>2019-04-27T06:08:08.000Z</time>
      </trkpt>
      <trkpt lat="42.47007751464844" lon="-7.281362056732178">
        <ele>217.0</ele>
        <time>2019-04-27T06:08:28.000Z</time>
      </trkpt>
      <trkpt lat="42.470237731933594" lon="-7.281222343444824">
        <ele>218.0</ele>
        <time>2019-04-27T06:08:43.000Z</time>
      </trkpt>
      <trkpt lat="42.470401763916016" lon="-7.281119346618652">
        <ele>221.0</ele>
        <time>2019-04-27T06:08:58.000Z</time>
      </trkpt>
      <trkpt lat="42.470577239990234" lon="-7.281083106994629">
        <ele>226.0</ele>
        <time>2019-04-27T06:09:13.000Z</time>
      </trkpt>
      <trkpt lat="42.470760345458984" lon="-7.28107213973999">
        <ele>231.0</ele>
        <time>2019-04-27T06:09:30.000Z</time>
      </trkpt>
      <trkpt lat="42.47092819213867" lon="-7.281068801879883">
        <ele>235.0</ele>
        <time>2019-04-27T06:09:46.000Z</time>
      </trkpt>
      <trkpt lat="42.47111511230469" lon="-7.281056880950928">
        <ele>238.0</ele>
        <time>2019-04-27T06:10:01.000Z</time>
      </trkpt>
      <trkpt lat="42.47130584716797" lon="-7.281062602996826">
        <ele>241.0</ele>
        <time>2019-04-27T06:10:17.000Z</time>
      </trkpt>
      <trkpt lat="42.47149658203125" lon="-7.281055450439453">
        <ele>246.0</ele>
        <time>2019-04-27T06:10:34.000Z</time>
      </trkpt>
      <trkpt lat="42.47169494628906" lon="-7.281067848205566">
        <ele>252.0</ele>
        <time>2019-04-27T06:10:53.000Z</time>
      </trkpt>
      <trkpt lat="42.47188949584961" lon="-7.281063079833984">
        <ele>248.0</ele>
        <time>2019-04-27T06:11:10.000Z</time>
      </trkpt>
      <trkpt lat="42.472251892089844" lon="-7.281042098999023">
        <ele>245.0</ele>
        <time>2019-04-27T06:11:42.000Z</time>
      </trkpt>
      <trkpt lat="42.47260665893555" lon="-7.281064033508301">
        <ele>241.0</ele>
        <time>2019-04-27T06:12:12.000Z</time>
      </trkpt>
      <trkpt lat="42.472862243652344" lon="-7.281132221221924">
        <ele>239.0</ele>
        <time>2019-04-27T06:12:34.000Z</time>
      </trkpt>
      <trkpt lat="42.47288513183594" lon="-7.281183242797852">
        <ele>239.0</ele>
        <time>2019-04-27T06:12:38.000Z</time>
      </trkpt>
      <trkpt lat="42.4728889465332" lon="-7.281249046325684">
        <ele>239.0</ele>
        <time>2019-04-27T06:12:43.000Z</time>
      </trkpt>
      <trkpt lat="42.47288131713867" lon="-7.2813239097595215">
        <ele>239.0</ele>
        <time>2019-04-27T06:12:47.000Z</time>
      </trkpt>
      <trkpt lat="42.47286605834961" lon="-7.2814040184021">
        <ele>240.0</ele>
        <time>2019-04-27T06:12:51.000Z</time>
      </trkpt>
      <trkpt lat="42.47281265258789" lon="-7.281609058380127">
        <ele>241.0</ele>
        <time>2019-04-27T06:13:07.000Z</time>
      </trkpt>
      <trkpt lat="42.47272872924805" lon="-7.281846046447754">
        <ele>244.0</ele>
        <time>2019-04-27T06:13:22.000Z</time>
      </trkpt>
      <trkpt lat="42.47270584106445" lon="-7.281961441040039">
        <ele>244.0</ele>
        <time>2019-04-27T06:13:29.000Z</time>
      </trkpt>
      <trkpt lat="42.47268295288086" lon="-7.282079219818115">
        <ele>243.0</ele>
        <time>2019-04-27T06:13:37.000Z</time>
      </trkpt>
      <trkpt lat="42.4726676940918" lon="-7.282198429107666">
        <ele>243.0</ele>
        <time>2019-04-27T06:13:44.000Z</time>
      </trkpt>
      <trkpt lat="42.472652435302734" lon="-7.282318115234375">
        <ele>242.0</ele>
        <time>2019-04-27T06:13:51.000Z</time>
      </trkpt>
      <trkpt lat="42.472625732421875" lon="-7.282433032989502">
        <ele>242.0</ele>
        <time>2019-04-27T06:13:59.000Z</time>
      </trkpt>
      <trkpt lat="42.47259521484375" lon="-7.282546520233154">
        <ele>241.0</ele>
        <time>2019-04-27T06:14:06.000Z</time>
      </trkpt>
      <trkpt lat="42.472564697265625" lon="-7.28265905380249">
        <ele>241.0</ele>
        <time>2019-04-27T06:14:14.000Z</time>
      </trkpt>
      <trkpt lat="42.472530364990234" lon="-7.282771587371826">
        <ele>240.0</ele>
        <time>2019-04-27T06:14:21.000Z</time>
      </trkpt>
      <trkpt lat="42.47250747680664" lon="-7.282886028289795">
        <ele>240.0</ele>
        <time>2019-04-27T06:14:28.000Z</time>
      </trkpt>
      <trkpt lat="42.47248458862305" lon="-7.28300142288208">
        <ele>239.0</ele>
        <time>2019-04-27T06:14:35.000Z</time>
      </trkpt>
      <trkpt lat="42.47246551513672" lon="-7.283116817474365">
        <ele>239.0</ele>
        <time>2019-04-27T06:14:42.000Z</time>
      </trkpt>
      <trkpt lat="42.472442626953125" lon="-7.283232688903809">
        <ele>238.0</ele>
        <time>2019-04-27T06:14:49.000Z</time>
      </trkpt>
      <trkpt lat="42.472415924072266" lon="-7.28334379196167">
        <ele>238.0</ele>
        <time>2019-04-27T06:14:56.000Z</time>
      </trkpt>
      <trkpt lat="42.47238540649414" lon="-7.283452987670898">
        <ele>238.0</ele>
        <time>2019-04-27T06:15:03.000Z</time>
      </trkpt>
      <trkpt lat="42.47235107421875" lon="-7.2835612297058105">
        <ele>238.0</ele>
        <time>2019-04-27T06:15:10.000Z</time>
      </trkpt>
      <trkpt lat="42.47231674194336" lon="-7.2836689949035645">
        <ele>238.0</ele>
        <time>2019-04-27T06:15:17.000Z</time>
      </trkpt>
      <trkpt lat="42.47229766845703" lon="-7.283782482147217">
        <ele>237.0</ele>
        <time>2019-04-27T06:15:24.000Z</time>
      </trkpt>
      <trkpt lat="42.47228240966797" lon="-7.283897876739502">
        <ele>237.0</ele>
        <time>2019-04-27T06:15:32.000Z</time>
      </trkpt>
      <trkpt lat="42.47227096557617" lon="-7.2840142250061035">
        <ele>237.0</ele>
        <time>2019-04-27T06:15:39.000Z</time>
      </trkpt>
      <trkpt lat="42.47226333618164" lon="-7.2841315269470215">
        <ele>236.0</ele>
        <time>2019-04-27T06:15:46.000Z</time>
      </trkpt>
      <trkpt lat="42.4721794128418" lon="-7.284335136413574">
        <ele>237.0</ele>
        <time>2019-04-27T06:16:00.000Z</time>
      </trkpt>
      <trkpt lat="42.472068786621094" lon="-7.2845258712768555">
        <ele>237.0</ele>
        <time>2019-04-27T06:16:13.000Z</time>
      </trkpt>
      <trkpt lat="42.47201919555664" lon="-7.284622669219971">
        <ele>238.0</ele>
        <time>2019-04-27T06:16:19.000Z</time>
      </trkpt>
      <trkpt lat="42.47196960449219" lon="-7.284719467163086">
        <ele>238.0</ele>
        <time>2019-04-27T06:16:26.000Z</time>
      </trkpt>
      <trkpt lat="42.471920013427734" lon="-7.284815311431885">
        <ele>238.0</ele>
        <time>2019-04-27T06:16:32.000Z</time>
      </trkpt>
      <trkpt lat="42.47187042236328" lon="-7.284911155700684">
        <ele>238.0</ele>
        <time>2019-04-27T06:16:38.000Z</time>
      </trkpt>
      <trkpt lat="42.471824645996094" lon="-7.285012722015381">
        <ele>238.0</ele>
        <time>2019-04-27T06:16:45.000Z</time>
      </trkpt>
      <trkpt lat="42.471778869628906" lon="-7.285117149353027">
        <ele>238.0</ele>
        <time>2019-04-27T06:16:53.000Z</time>
      </trkpt>
      <trkpt lat="42.471736907958984" lon="-7.285223007202148">
        <ele>239.0</ele>
        <time>2019-04-27T06:17:00.000Z</time>
      </trkpt>
      <trkpt lat="42.47169494628906" lon="-7.285329818725586">
        <ele>239.0</ele>
        <time>2019-04-27T06:17:07.000Z</time>
      </trkpt>
      <trkpt lat="42.471641540527344" lon="-7.285425186157227">
        <ele>239.0</ele>
        <time>2019-04-27T06:17:14.000Z</time>
      </trkpt>
      <trkpt lat="42.47158432006836" lon="-7.28551721572876">
        <ele>240.0</ele>
        <time>2019-04-27T06:17:21.000Z</time>
      </trkpt>
      <trkpt lat="42.47152328491211" lon="-7.285606861114502">
        <ele>240.0</ele>
        <time>2019-04-27T06:17:27.000Z</time>
      </trkpt>
      <trkpt lat="42.47146224975586" lon="-7.2856950759887695">
        <ele>241.0</ele>
        <time>2019-04-27T06:17:34.000Z</time>
      </trkpt>
      <trkpt lat="42.47141647338867" lon="-7.285793781280518">
        <ele>241.0</ele>
        <time>2019-04-27T06:17:42.000Z</time>
      </trkpt>
      <trkpt lat="42.471370697021484" lon="-7.285895824432373">
        <ele>241.0</ele>
        <time>2019-04-27T06:17:50.000Z</time>
      </trkpt>
      <trkpt lat="42.47132873535156" lon="-7.285999774932861">
        <ele>240.0</ele>
        <time>2019-04-27T06:17:57.000Z</time>
      </trkpt>
      <trkpt lat="42.471290588378906" lon="-7.286104679107666">
        <ele>240.0</ele>
        <time>2019-04-27T06:18:05.000Z</time>
      </trkpt>
      <trkpt lat="42.47124099731445" lon="-7.286202907562256">
        <ele>239.0</ele>
        <time>2019-04-27T06:18:11.000Z</time>
      </trkpt>
      <trkpt lat="42.471187591552734" lon="-7.286299228668213">
        <ele>239.0</ele>
        <time>2019-04-27T06:18:18.000Z</time>
      </trkpt>
      <trkpt lat="42.47113037109375" lon="-7.2863945960998535">
        <ele>239.0</ele>
        <time>2019-04-27T06:18:24.000Z</time>
      </trkpt>
      <trkpt lat="42.471073150634766" lon="-7.286489009857178">
        <ele>239.0</ele>
        <time>2019-04-27T06:18:30.000Z</time>
      </trkpt>
      <trkpt lat="42.47084045410156" lon="-7.286844253540039">
        <ele>238.0</ele>
        <time>2019-04-27T06:19:01.000Z</time>
      </trkpt>
      <trkpt lat="42.47054672241211" lon="-7.287102699279785">
        <ele>239.0</ele>
        <time>2019-04-27T06:19:28.000Z</time>
      </trkpt>
      <trkpt lat="42.47028732299805" lon="-7.287420272827148">
        <ele>241.0</ele>
        <time>2019-04-27T06:19:54.000Z</time>
      </trkpt>
      <trkpt lat="42.47005844116211" lon="-7.287785053253174">
        <ele>241.0</ele>
        <time>2019-04-27T06:20:23.000Z</time>
      </trkpt>
      <trkpt lat="42.470001220703125" lon="-7.28800630569458">
        <ele>242.0</ele>
        <time>2019-04-27T06:20:38.000Z</time>
      </trkpt>
      <trkpt lat="42.469970703125" lon="-7.28824520111084">
        <ele>242.0</ele>
        <time>2019-04-27T06:20:52.000Z</time>
      </trkpt>
      <trkpt lat="42.469932556152344" lon="-7.2883501052856445">
        <ele>242.0</ele>
        <time>2019-04-27T06:20:59.000Z</time>
      </trkpt>
      <trkpt lat="42.46988296508789" lon="-7.288450241088867">
        <ele>242.0</ele>
        <time>2019-04-27T06:21:07.000Z</time>
      </trkpt>
      <trkpt lat="42.46982955932617" lon="-7.288547992706299">
        <ele>242.0</ele>
        <time>2019-04-27T06:21:14.000Z</time>
      </trkpt>
      <trkpt lat="42.46977615356445" lon="-7.288643836975098">
        <ele>242.0</ele>
        <time>2019-04-27T06:21:21.000Z</time>
      </trkpt>
      <trkpt lat="42.469722747802734" lon="-7.288738250732422">
        <ele>242.0</ele>
        <time>2019-04-27T06:21:28.000Z</time>
      </trkpt>
      <trkpt lat="42.469669342041016" lon="-7.288830757141113">
        <ele>242.0</ele>
        <time>2019-04-27T06:21:35.000Z</time>
      </trkpt>
      <trkpt lat="42.46961212158203" lon="-7.288922309875488">
        <ele>242.0</ele>
        <time>2019-04-27T06:21:41.000Z</time>
      </trkpt>
      <trkpt lat="42.46955490112305" lon="-7.289012908935547">
        <ele>241.0</ele>
        <time>2019-04-27T06:21:48.000Z</time>
      </trkpt>
      <trkpt lat="42.46950149536133" lon="-7.289106845855713">
        <ele>241.0</ele>
        <time>2019-04-27T06:21:55.000Z</time>
      </trkpt>
      <trkpt lat="42.46944808959961" lon="-7.2892022132873535">
        <ele>240.0</ele>
        <time>2019-04-27T06:22:02.000Z</time>
      </trkpt>
      <trkpt lat="42.46939468383789" lon="-7.289298057556152">
        <ele>239.0</ele>
        <time>2019-04-27T06:22:08.000Z</time>
      </trkpt>
      <trkpt lat="42.46934127807617" lon="-7.289393901824951">
        <ele>238.0</ele>
        <time>2019-04-27T06:22:15.000Z</time>
      </trkpt>
      <trkpt lat="42.46928787231445" lon="-7.28948974609375">
        <ele>238.0</ele>
        <time>2019-04-27T06:22:23.000Z</time>
      </trkpt>
      <trkpt lat="42.46923828125" lon="-7.289586067199707">
        <ele>237.0</ele>
        <time>2019-04-27T06:22:30.000Z</time>
      </trkpt>
      <trkpt lat="42.46918487548828" lon="-7.289682865142822">
        <ele>237.0</ele>
        <time>2019-04-27T06:22:38.000Z</time>
      </trkpt>
      <trkpt lat="42.46913528442383" lon="-7.289779186248779">
        <ele>237.0</ele>
        <time>2019-04-27T06:22:45.000Z</time>
      </trkpt>
      <trkpt lat="42.469085693359375" lon="-7.289876937866211">
        <ele>237.0</ele>
        <time>2019-04-27T06:22:52.000Z</time>
      </trkpt>
      <trkpt lat="42.46903610229492" lon="-7.289974689483643">
        <ele>237.0</ele>
        <time>2019-04-27T06:22:59.000Z</time>
      </trkpt>
      <trkpt lat="42.46898651123047" lon="-7.290073394775391">
        <ele>237.0</ele>
        <time>2019-04-27T06:23:06.000Z</time>
      </trkpt>
      <trkpt lat="42.468936920166016" lon="-7.2901716232299805">
        <ele>237.0</ele>
        <time>2019-04-27T06:23:13.000Z</time>
      </trkpt>
      <trkpt lat="42.4687385559082" lon="-7.2905659675598145">
        <ele>237.0</ele>
        <time>2019-04-27T06:23:40.000Z</time>
      </trkpt>
      <trkpt lat="42.46852493286133" lon="-7.290951728820801">
        <ele>239.0</ele>
        <time>2019-04-27T06:24:19.000Z</time>
      </trkpt>
      <trkpt lat="42.46833419799805" lon="-7.2913498878479">
        <ele>242.0</ele>
        <time>2019-04-27T06:24:47.000Z</time>
      </trkpt>
      <trkpt lat="42.468231201171875" lon="-7.291802406311035">
        <ele>244.0</ele>
        <time>2019-04-27T06:25:17.000Z</time>
      </trkpt>
      <trkpt lat="42.46818923950195" lon="-7.292273044586182">
        <ele>245.0</ele>
        <time>2019-04-27T06:25:50.000Z</time>
      </trkpt>
      <trkpt lat="42.4681510925293" lon="-7.2927350997924805">
        <ele>245.0</ele>
        <time>2019-04-27T06:26:29.000Z</time>
      </trkpt>
      <trkpt lat="42.468177795410156" lon="-7.2932209968566895">
        <ele>244.0</ele>
        <time>2019-04-27T06:26:59.000Z</time>
      </trkpt>
      <trkpt lat="42.46824264526367" lon="-7.293698787689209">
        <ele>246.0</ele>
        <time>2019-04-27T06:27:26.000Z</time>
      </trkpt>
      <trkpt lat="42.46843338012695" lon="-7.294095039367676">
        <ele>244.0</ele>
        <time>2019-04-27T06:27:57.000Z</time>
      </trkpt>
      <trkpt lat="42.46862030029297" lon="-7.29450798034668">
        <ele>239.0</ele>
        <time>2019-04-27T06:28:29.000Z</time>
      </trkpt>
      <trkpt lat="42.46876525878906" lon="-7.294957637786865">
        <ele>241.0</ele>
        <time>2019-04-27T06:28:56.000Z</time>
      </trkpt>
      <trkpt lat="42.468994140625" lon="-7.295328140258789">
        <ele>250.0</ele>
        <time>2019-04-27T06:29:28.000Z</time>
      </trkpt>
      <trkpt lat="42.469276428222656" lon="-7.2956085205078125">
        <ele>255.0</ele>
        <time>2019-04-27T06:29:57.000Z</time>
      </trkpt>
      <trkpt lat="42.46958541870117" lon="-7.29585599899292">
        <ele>258.0</ele>
        <time>2019-04-27T06:30:28.000Z</time>
      </trkpt>
      <trkpt lat="42.46988296508789" lon="-7.296133995056152">
        <ele>260.0</ele>
        <time>2019-04-27T06:31:02.000Z</time>
      </trkpt>
      <trkpt lat="42.47019577026367" lon="-7.2963547706604">
        <ele>261.0</ele>
        <time>2019-04-27T06:31:32.000Z</time>
      </trkpt>
      <trkpt lat="42.470497131347656" lon="-7.2965826988220215">
        <ele>262.0</ele>
        <time>2019-04-27T06:32:04.000Z</time>
      </trkpt>
      <trkpt lat="42.470794677734375" lon="-7.296846389770508">
        <ele>262.0</ele>
        <time>2019-04-27T06:32:37.000Z</time>
      </trkpt>
      <trkpt lat="42.47106170654297" lon="-7.29693603515625">
        <ele>260.0</ele>
        <time>2019-04-27T06:33:03.000Z</time>
      </trkpt>
      <trkpt lat="42.47106170654297" lon="-7.296935081481934">
        <ele>260.0</ele>
        <time>2019-04-27T06:33:09.000Z</time>
      </trkpt>
      <trkpt lat="42.471065521240234" lon="-7.296940326690674">
        <ele>260.0</ele>
        <time>2019-04-27T06:33:18.000Z</time>
      </trkpt>
      <trkpt lat="42.471073150634766" lon="-7.296948432922363">
        <ele>260.0</ele>
        <time>2019-04-27T06:33:27.000Z</time>
      </trkpt>
      <trkpt lat="42.47107696533203" lon="-7.296957969665527">
        <ele>260.0</ele>
        <time>2019-04-27T06:33:35.000Z</time>
      </trkpt>
      <trkpt lat="42.47108840942383" lon="-7.296968460083008">
        <ele>260.0</ele>
        <time>2019-04-27T06:33:44.000Z</time>
      </trkpt>
      <trkpt lat="42.471092224121094" lon="-7.296975135803223">
        <ele>260.0</ele>
        <time>2019-04-27T06:33:44.000Z</time>
      </trkpt>
      <trkpt lat="42.47109603881836" lon="-7.296981334686279">
        <ele>260.0</ele>
        <time>2019-04-27T06:33:45.000Z</time>
      </trkpt>
      <trkpt lat="42.471099853515625" lon="-7.2969865798950195">
        <ele>260.0</ele>
        <time>2019-04-27T06:33:45.000Z</time>
      </trkpt>
      <trkpt lat="42.47110366821289" lon="-7.296992301940918">
        <ele>260.0</ele>
        <time>2019-04-27T06:33:45.000Z</time>
      </trkpt>
      <trkpt lat="42.47112274169922" lon="-7.297013282775879">
        <ele>260.0</ele>
        <time>2019-04-27T06:33:46.000Z</time>
      </trkpt>
      <trkpt lat="42.47114181518555" lon="-7.2970404624938965">
        <ele>260.0</ele>
        <time>2019-04-27T06:33:47.000Z</time>
      </trkpt>
      <trkpt lat="42.471168518066406" lon="-7.297071933746338">
        <ele>260.0</ele>
        <time>2019-04-27T06:33:48.000Z</time>
      </trkpt>
      <trkpt lat="42.471195220947266" lon="-7.297105312347412">
        <ele>259.0</ele>
        <time>2019-04-27T06:33:49.000Z</time>
      </trkpt>
      <trkpt lat="42.47122573852539" lon="-7.297140121459961">
        <ele>259.0</ele>
        <time>2019-04-27T06:33:52.000Z</time>
      </trkpt>
      <trkpt lat="42.47126388549805" lon="-7.297178268432617">
        <ele>258.0</ele>
        <time>2019-04-27T06:33:55.000Z</time>
      </trkpt>
      <trkpt lat="42.4713020324707" lon="-7.297217845916748">
        <ele>258.0</ele>
        <time>2019-04-27T06:33:58.000Z</time>
      </trkpt>
      <trkpt lat="42.47134017944336" lon="-7.2972588539123535">
        <ele>257.0</ele>
        <time>2019-04-27T06:34:01.000Z</time>
      </trkpt>
      <trkpt lat="42.471405029296875" lon="-7.297309398651123">
        <ele>257.0</ele>
        <time>2019-04-27T06:34:09.000Z</time>
      </trkpt>
      <trkpt lat="42.47148132324219" lon="-7.297365665435791">
        <ele>256.0</ele>
        <time>2019-04-27T06:34:18.000Z</time>
      </trkpt>
      <trkpt lat="42.47156524658203" lon="-7.297424793243408">
        <ele>256.0</ele>
        <time>2019-04-27T06:34:26.000Z</time>
      </trkpt>
      <trkpt lat="42.47165298461914" lon="-7.297485828399658">
        <ele>256.0</ele>
        <time>2019-04-27T06:34:34.000Z</time>
      </trkpt>
      <trkpt lat="42.47172927856445" lon="-7.297543048858643">
        <ele>256.0</ele>
        <time>2019-04-27T06:34:41.000Z</time>
      </trkpt>
      <trkpt lat="42.47180938720703" lon="-7.297599792480469">
        <ele>256.0</ele>
        <time>2019-04-27T06:34:48.000Z</time>
      </trkpt>
      <trkpt lat="42.471885681152344" lon="-7.297656536102295">
        <ele>256.0</ele>
        <time>2019-04-27T06:34:55.000Z</time>
      </trkpt>
      <trkpt lat="42.47196578979492" lon="-7.297713756561279">
        <ele>256.0</ele>
        <time>2019-04-27T06:35:02.000Z</time>
      </trkpt>
      <trkpt lat="42.472084045410156" lon="-7.297883987426758">
        <ele>256.0</ele>
        <time>2019-04-27T06:35:23.000Z</time>
      </trkpt>
      <trkpt lat="42.472164154052734" lon="-7.297961711883545">
        <ele>257.0</ele>
        <time>2019-04-27T06:35:43.000Z</time>
      </trkpt>
      <trkpt lat="42.472190856933594" lon="-7.2979888916015625">
        <ele>257.0</ele>
        <time>2019-04-27T06:35:44.000Z</time>
      </trkpt>
      <trkpt lat="42.472511291503906" lon="-7.298191070556641">
        <ele>258.0</ele>
        <time>2019-04-27T06:36:06.000Z</time>
      </trkpt>
      <trkpt lat="42.4725456237793" lon="-7.29822301864624">
        <ele>258.0</ele>
        <time>2019-04-27T06:36:13.000Z</time>
      </trkpt>
      <trkpt lat="42.47259521484375" lon="-7.298281669616699">
        <ele>259.0</ele>
        <time>2019-04-27T06:37:40.000Z</time>
      </trkpt>
      <trkpt lat="42.47280502319336" lon="-7.298461437225342">
        <ele>254.0</ele>
        <time>2019-04-27T06:38:07.000Z</time>
      </trkpt>
      <trkpt lat="42.47280502319336" lon="-7.298461437225342">
        <ele>254.0</ele>
        <time>2019-04-27T06:38:08.000Z</time>
      </trkpt>
      <trkpt lat="42.47310256958008" lon="-7.298710346221924">
        <ele>249.0</ele>
        <time>2019-04-27T06:38:40.000Z</time>
      </trkpt>
      <trkpt lat="42.47334289550781" lon="-7.299046039581299">
        <ele>246.0</ele>
        <time>2019-04-27T06:39:12.000Z</time>
      </trkpt>
      <trkpt lat="42.47361755371094" lon="-7.2992682456970215">
        <ele>244.0</ele>
        <time>2019-04-27T06:39:30.000Z</time>
      </trkpt>
      <trkpt lat="42.4736328125" lon="-7.299309253692627">
        <ele>243.0</ele>
        <time>2019-04-27T06:39:32.000Z</time>
      </trkpt>
      <trkpt lat="42.47362518310547" lon="-7.299344539642334">
        <ele>243.0</ele>
        <time>2019-04-27T06:39:34.000Z</time>
      </trkpt>
      <trkpt lat="42.473602294921875" lon="-7.299376010894775">
        <ele>244.0</ele>
        <time>2019-04-27T06:39:36.000Z</time>
      </trkpt>
      <trkpt lat="42.47357177734375" lon="-7.299405097961426">
        <ele>244.0</ele>
        <time>2019-04-27T06:39:38.000Z</time>
      </trkpt>
      <trkpt lat="42.473602294921875" lon="-7.2994794845581055">
        <ele>244.0</ele>
        <time>2019-04-27T06:39:45.000Z</time>
      </trkpt>
      <trkpt lat="42.47365188598633" lon="-7.2995710372924805">
        <ele>245.0</ele>
        <time>2019-04-27T06:39:53.000Z</time>
      </trkpt>
      <trkpt lat="42.47370910644531" lon="-7.299674034118652">
        <ele>245.0</ele>
        <time>2019-04-27T06:40:00.000Z</time>
      </trkpt>
      <trkpt lat="42.473777770996094" lon="-7.299782752990723">
        <ele>246.0</ele>
        <time>2019-04-27T06:40:07.000Z</time>
      </trkpt>
      <trkpt lat="42.473819732666016" lon="-7.299883842468262">
        <ele>246.0</ele>
        <time>2019-04-27T06:40:14.000Z</time>
      </trkpt>
      <trkpt lat="42.47386169433594" lon="-7.299988269805908">
        <ele>246.0</ele>
        <time>2019-04-27T06:40:21.000Z</time>
      </trkpt>
      <trkpt lat="42.473899841308594" lon="-7.300094127655029">
        <ele>246.0</ele>
        <time>2019-04-27T06:40:27.000Z</time>
      </trkpt>
      <trkpt lat="42.47393798828125" lon="-7.300201416015625">
        <ele>246.0</ele>
        <time>2019-04-27T06:40:34.000Z</time>
      </trkpt>
      <trkpt lat="42.47396469116211" lon="-7.300312519073486">
        <ele>247.0</ele>
        <time>2019-04-27T06:40:42.000Z</time>
      </trkpt>
      <trkpt lat="42.47399139404297" lon="-7.300426483154297">
        <ele>247.0</ele>
        <time>2019-04-27T06:40:50.000Z</time>
      </trkpt>
      <trkpt lat="42.4740104675293" lon="-7.30054235458374">
        <ele>248.0</ele>
        <time>2019-04-27T06:40:57.000Z</time>
      </trkpt>
      <trkpt lat="42.47403335571289" lon="-7.3006591796875">
        <ele>248.0</ele>
        <time>2019-04-27T06:41:05.000Z</time>
      </trkpt>
      <trkpt lat="42.47406768798828" lon="-7.300767421722412">
        <ele>249.0</ele>
        <time>2019-04-27T06:41:12.000Z</time>
      </trkpt>
      <trkpt lat="42.47410583496094" lon="-7.300872802734375">
        <ele>249.0</ele>
        <time>2019-04-27T06:41:20.000Z</time>
      </trkpt>
      <trkpt lat="42.47414779663086" lon="-7.300976753234863">
        <ele>250.0</ele>
        <time>2019-04-27T06:41:27.000Z</time>
      </trkpt>
      <trkpt lat="42.47419357299805" lon="-7.301079750061035">
        <ele>250.0</ele>
        <time>2019-04-27T06:41:34.000Z</time>
      </trkpt>
      <trkpt lat="42.4742317199707" lon="-7.30118465423584">
        <ele>251.0</ele>
        <time>2019-04-27T06:41:42.000Z</time>
      </trkpt>
      <trkpt lat="42.474273681640625" lon="-7.301289081573486">
        <ele>251.0</ele>
        <time>2019-04-27T06:41:49.000Z</time>
      </trkpt>
      <trkpt lat="42.47431564331055" lon="-7.301393508911133">
        <ele>252.0</ele>
        <time>2019-04-27T06:41:57.000Z</time>
      </trkpt>
      <trkpt lat="42.47435760498047" lon="-7.301497936248779">
        <ele>252.0</ele>
        <time>2019-04-27T06:42:04.000Z</time>
      </trkpt>
      <trkpt lat="42.47440719604492" lon="-7.301597595214844">
        <ele>253.0</ele>
        <time>2019-04-27T06:42:12.000Z</time>
      </trkpt>
      <trkpt lat="42.474456787109375" lon="-7.301695823669434">
        <ele>254.0</ele>
        <time>2019-04-27T06:42:19.000Z</time>
      </trkpt>
      <trkpt lat="42.474510192871094" lon="-7.301792144775391">
        <ele>255.0</ele>
        <time>2019-04-27T06:42:27.000Z</time>
      </trkpt>
      <trkpt lat="42.47456741333008" lon="-7.301888465881348">
        <ele>257.0</ele>
        <time>2019-04-27T06:42:34.000Z</time>
      </trkpt>
      <trkpt lat="42.47475814819336" lon="-7.302255153656006">
        <ele>261.0</ele>
        <time>2019-04-27T06:42:59.000Z</time>
      </trkpt>
      <trkpt lat="42.474918365478516" lon="-7.302676677703857">
        <ele>262.0</ele>
        <time>2019-04-27T06:43:25.000Z</time>
      </trkpt>
      <trkpt lat="42.475006103515625" lon="-7.303126811981201">
        <ele>263.0</ele>
        <time>2019-04-27T06:43:54.000Z</time>
      </trkpt>
      <trkpt lat="42.474971771240234" lon="-7.303533554077148">
        <ele>262.0</ele>
        <time>2019-04-27T06:44:19.000Z</time>
      </trkpt>
      <trkpt lat="42.47498321533203" lon="-7.303577899932861">
        <ele>262.0</ele>
        <time>2019-04-27T06:44:23.000Z</time>
      </trkpt>
      <trkpt lat="42.475006103515625" lon="-7.303597450256348">
        <ele>262.0</ele>
        <time>2019-04-27T06:44:26.000Z</time>
      </trkpt>
      <trkpt lat="42.47502899169922" lon="-7.303601264953613">
        <ele>262.0</ele>
        <time>2019-04-27T06:44:30.000Z</time>
      </trkpt>
      <trkpt lat="42.475059509277344" lon="-7.3035969734191895">
        <ele>262.0</ele>
        <time>2019-04-27T06:44:33.000Z</time>
      </trkpt>
      <trkpt lat="42.47505187988281" lon="-7.303678512573242">
        <ele>262.0</ele>
        <time>2019-04-27T06:44:40.000Z</time>
      </trkpt>
      <trkpt lat="42.47502899169922" lon="-7.303787708282471">
        <ele>262.0</ele>
        <time>2019-04-27T06:44:48.000Z</time>
      </trkpt>
      <trkpt lat="42.474998474121094" lon="-7.303915500640869">
        <ele>262.0</ele>
        <time>2019-04-27T06:44:55.000Z</time>
      </trkpt>
      <trkpt lat="42.4749641418457" lon="-7.304052352905273">
        <ele>262.0</ele>
        <time>2019-04-27T06:45:02.000Z</time>
      </trkpt>
      <trkpt lat="42.47495651245117" lon="-7.304145336151123">
        <ele>262.0</ele>
        <time>2019-04-27T06:45:09.000Z</time>
      </trkpt>
      <trkpt lat="42.47494888305664" lon="-7.304228782653809">
        <ele>261.0</ele>
        <time>2019-04-27T06:45:15.000Z</time>
      </trkpt>
      <trkpt lat="42.47494888305664" lon="-7.304306507110596">
        <ele>260.0</ele>
        <time>2019-04-27T06:45:22.000Z</time>
      </trkpt>
      <trkpt lat="42.474952697753906" lon="-7.304381370544434">
        <ele>260.0</ele>
        <time>2019-04-27T06:45:28.000Z</time>
      </trkpt>
      <trkpt lat="42.474952697753906" lon="-7.304417133331299">
        <ele>259.0</ele>
        <time>2019-04-27T06:45:30.000Z</time>
      </trkpt>
      <trkpt lat="42.47495651245117" lon="-7.3044328689575195">
        <ele>259.0</ele>
        <time>2019-04-27T06:45:32.000Z</time>
      </trkpt>
      <trkpt lat="42.47496032714844" lon="-7.304436206817627">
        <ele>259.0</ele>
        <time>2019-04-27T06:45:34.000Z</time>
      </trkpt>
      <trkpt lat="42.47496795654297" lon="-7.3044328689575195">
        <ele>259.0</ele>
        <time>2019-04-27T06:45:36.000Z</time>
      </trkpt>
      <trkpt lat="42.47496795654297" lon="-7.304442882537842">
        <ele>259.0</ele>
        <time>2019-04-27T06:45:36.000Z</time>
      </trkpt>
      <trkpt lat="42.474971771240234" lon="-7.304451942443848">
        <ele>259.0</ele>
        <time>2019-04-27T06:45:37.000Z</time>
      </trkpt>
      <trkpt lat="42.4749755859375" lon="-7.304460525512695">
        <ele>259.0</ele>
        <time>2019-04-27T06:45:37.000Z</time>
      </trkpt>
      <trkpt lat="42.4749755859375" lon="-7.304468631744385">
        <ele>259.0</ele>
        <time>2019-04-27T06:45:37.000Z</time>
      </trkpt>
      <trkpt lat="42.4749870300293" lon="-7.304515838623047">
        <ele>259.0</ele>
        <time>2019-04-27T06:45:38.000Z</time>
      </trkpt>
      <trkpt lat="42.47500228881836" lon="-7.30457878112793">
        <ele>259.0</ele>
        <time>2019-04-27T06:45:39.000Z</time>
      </trkpt>
      <trkpt lat="42.47501754760742" lon="-7.304652214050293">
        <ele>259.0</ele>
        <time>2019-04-27T06:45:39.000Z</time>
      </trkpt>
      <trkpt lat="42.475032806396484" lon="-7.3047308921813965">
        <ele>259.0</ele>
        <time>2019-04-27T06:45:40.000Z</time>
      </trkpt>
      <trkpt lat="42.47502899169922" lon="-7.304763317108154">
        <ele>259.0</ele>
        <time>2019-04-27T06:45:42.000Z</time>
      </trkpt>
      <trkpt lat="42.475013732910156" lon="-7.304781436920166">
        <ele>259.0</ele>
        <time>2019-04-27T06:45:44.000Z</time>
      </trkpt>
      <trkpt lat="42.47499465942383" lon="-7.304790496826172">
        <ele>259.0</ele>
        <time>2019-04-27T06:45:46.000Z</time>
      </trkpt>
      <trkpt lat="42.474971771240234" lon="-7.304794788360596">
        <ele>259.0</ele>
        <time>2019-04-27T06:45:48.000Z</time>
      </trkpt>
      <trkpt lat="42.474998474121094" lon="-7.3047895431518555">
        <ele>260.0</ele>
        <time>2019-04-27T06:45:52.000Z</time>
      </trkpt>
      <trkpt lat="42.475040435791016" lon="-7.304775714874268">
        <ele>260.0</ele>
        <time>2019-04-27T06:45:55.000Z</time>
      </trkpt>
      <trkpt lat="42.475093841552734" lon="-7.304755687713623">
        <ele>260.0</ele>
        <time>2019-04-27T06:45:59.000Z</time>
      </trkpt>
      <trkpt lat="42.475154876708984" lon="-7.304732322692871">
        <ele>260.0</ele>
        <time>2019-04-27T06:46:02.000Z</time>
      </trkpt>
      <trkpt lat="42.475162506103516" lon="-7.304741382598877">
        <ele>260.0</ele>
        <time>2019-04-27T06:46:08.000Z</time>
      </trkpt>
      <trkpt lat="42.475154876708984" lon="-7.304760932922363">
        <ele>260.0</ele>
        <time>2019-04-27T06:46:14.000Z</time>
      </trkpt>
      <trkpt lat="42.475135803222656" lon="-7.3047871589660645">
        <ele>260.0</ele>
        <time>2019-04-27T06:46:20.000Z</time>
      </trkpt>
      <trkpt lat="42.47511291503906" lon="-7.304816722869873">
        <ele>260.0</ele>
        <time>2019-04-27T06:46:26.000Z</time>
      </trkpt>
      <trkpt lat="42.47510528564453" lon="-7.304830074310303">
        <ele>260.0</ele>
        <time>2019-04-27T06:46:26.000Z</time>
      </trkpt>
      <trkpt lat="42.475101470947266" lon="-7.304839611053467">
        <ele>260.0</ele>
        <time>2019-04-27T06:46:27.000Z</time>
      </trkpt>
      <trkpt lat="42.47509765625" lon="-7.304847240447998">
        <ele>260.0</ele>
        <time>2019-04-27T06:46:27.000Z</time>
      </trkpt>
      <trkpt lat="42.475093841552734" lon="-7.304853916168213">
        <ele>260.0</ele>
        <time>2019-04-27T06:46:27.000Z</time>
      </trkpt>
      <trkpt lat="42.4750862121582" lon="-7.304871082305908">
        <ele>260.0</ele>
        <time>2019-04-27T06:46:28.000Z</time>
      </trkpt>
      <trkpt lat="42.475074768066406" lon="-7.304891586303711">
        <ele>260.0</ele>
        <time>2019-04-27T06:46:29.000Z</time>
      </trkpt>
      <trkpt lat="42.47506332397461" lon="-7.3049139976501465">
        <ele>260.0</ele>
        <time>2019-04-27T06:46:30.000Z</time>
      </trkpt>
      <trkpt lat="42.47505187988281" lon="-7.304937839508057">
        <ele>260.0</ele>
        <time>2019-04-27T06:46:31.000Z</time>
      </trkpt>
      <trkpt lat="42.47504425048828" lon="-7.304949760437012">
        <ele>259.0</ele>
        <time>2019-04-27T06:46:36.000Z</time>
      </trkpt>
      <trkpt lat="42.475040435791016" lon="-7.304957389831543">
        <ele>259.0</ele>
        <time>2019-04-27T06:46:41.000Z</time>
      </trkpt>
      <trkpt lat="42.475040435791016" lon="-7.304962158203125">
        <ele>258.0</ele>
        <time>2019-04-27T06:46:46.000Z</time>
      </trkpt>
      <trkpt lat="42.475040435791016" lon="-7.304965972900391">
        <ele>258.0</ele>
        <time>2019-04-27T06:46:51.000Z</time>
      </trkpt>
      <trkpt lat="42.47503662109375" lon="-7.304972171783447">
        <ele>258.0</ele>
        <time>2019-04-27T06:46:51.000Z</time>
      </trkpt>
      <trkpt lat="42.475032806396484" lon="-7.3049774169921875">
        <ele>258.0</ele>
        <time>2019-04-27T06:46:52.000Z</time>
      </trkpt>
      <trkpt lat="42.475032806396484" lon="-7.304983139038086">
        <ele>258.0</ele>
        <time>2019-04-27T06:46:52.000Z</time>
      </trkpt>
      <trkpt lat="42.47502899169922" lon="-7.304988384246826">
        <ele>258.0</ele>
        <time>2019-04-27T06:46:52.000Z</time>
      </trkpt>
      <trkpt lat="42.47499465942383" lon="-7.305058002471924">
        <ele>257.0</ele>
        <time>2019-04-27T06:46:57.000Z</time>
      </trkpt>
      <trkpt lat="42.47494888305664" lon="-7.305154800415039">
        <ele>257.0</ele>
        <time>2019-04-27T06:47:02.000Z</time>
      </trkpt>
      <trkpt lat="42.47489547729492" lon="-7.305269241333008">
        <ele>257.0</ele>
        <time>2019-04-27T06:47:07.000Z</time>
      </trkpt>
      <trkpt lat="42.47483444213867" lon="-7.305393218994141">
        <ele>256.0</ele>
        <time>2019-04-27T06:47:12.000Z</time>
      </trkpt>
      <trkpt lat="42.47474670410156" lon="-7.305665493011475">
        <ele>258.0</ele>
        <time>2019-04-27T06:47:40.000Z</time>
      </trkpt>
      <trkpt lat="42.47471618652344" lon="-7.305703639984131">
        <ele>258.0</ele>
        <time>2019-04-27T06:47:49.000Z</time>
      </trkpt>
      <trkpt lat="42.474693298339844" lon="-7.305696487426758">
        <ele>258.0</ele>
        <time>2019-04-27T06:47:57.000Z</time>
      </trkpt>
      <trkpt lat="42.47468566894531" lon="-7.305701732635498">
        <ele>258.0</ele>
        <time>2019-04-27T06:47:57.000Z</time>
      </trkpt>
      <trkpt lat="42.47467803955078" lon="-7.30570650100708">
        <ele>258.0</ele>
        <time>2019-04-27T06:47:58.000Z</time>
      </trkpt>
      <trkpt lat="42.47467041015625" lon="-7.305710315704346">
        <ele>258.0</ele>
        <time>2019-04-27T06:47:58.000Z</time>
      </trkpt>
      <trkpt lat="42.47466278076172" lon="-7.305713653564453">
        <ele>258.0</ele>
        <time>2019-04-27T06:47:58.000Z</time>
      </trkpt>
      <trkpt lat="42.47464370727539" lon="-7.305726528167725">
        <ele>258.0</ele>
        <time>2019-04-27T06:48:00.000Z</time>
      </trkpt>
      <trkpt lat="42.4746208190918" lon="-7.305743217468262">
        <ele>258.0</ele>
        <time>2019-04-27T06:48:01.000Z</time>
      </trkpt>
      <trkpt lat="42.47459411621094" lon="-7.30576229095459">
        <ele>258.0</ele>
        <time>2019-04-27T06:48:03.000Z</time>
      </trkpt>
      <trkpt lat="42.47456359863281" lon="-7.305782318115234">
        <ele>258.0</ele>
        <time>2019-04-27T06:48:04.000Z</time>
      </trkpt>
      <trkpt lat="42.474544525146484" lon="-7.3057942390441895">
        <ele>258.0</ele>
        <time>2019-04-27T06:48:07.000Z</time>
      </trkpt>
      <trkpt lat="42.47453308105469" lon="-7.305804252624512">
        <ele>258.0</ele>
        <time>2019-04-27T06:48:11.000Z</time>
      </trkpt>
      <trkpt lat="42.47452163696289" lon="-7.305812835693359">
        <ele>258.0</ele>
        <time>2019-04-27T06:48:14.000Z</time>
      </trkpt>
      <trkpt lat="42.474510192871094" lon="-7.305820465087891">
        <ele>258.0</ele>
        <time>2019-04-27T06:48:17.000Z</time>
      </trkpt>
      <trkpt lat="42.47450256347656" lon="-7.3058271408081055">
        <ele>258.0</ele>
        <time>2019-04-27T06:48:17.000Z</time>
      </trkpt>
      <trkpt lat="42.47449493408203" lon="-7.305832862854004">
        <ele>258.0</ele>
        <time>2019-04-27T06:48:18.000Z</time>
      </trkpt>
      <trkpt lat="42.4744873046875" lon="-7.305837631225586">
        <ele>258.0</ele>
        <time>2019-04-27T06:48:18.000Z</time>
      </trkpt>
      <trkpt lat="42.47447967529297" lon="-7.30584192276001">
        <ele>258.0</ele>
        <time>2019-04-27T06:48:18.000Z</time>
      </trkpt>
      <trkpt lat="42.474430084228516" lon="-7.305887699127197">
        <ele>259.0</ele>
        <time>2019-04-27T06:48:24.000Z</time>
      </trkpt>
      <trkpt lat="42.474365234375" lon="-7.305951118469238">
        <ele>259.0</ele>
        <time>2019-04-27T06:48:30.000Z</time>
      </trkpt>
      <trkpt lat="42.47428512573242" lon="-7.306025505065918">
        <ele>259.0</ele>
        <time>2019-04-27T06:48:36.000Z</time>
      </trkpt>
      <trkpt lat="42.47420120239258" lon="-7.306105613708496">
        <ele>259.0</ele>
        <time>2019-04-27T06:48:42.000Z</time>
      </trkpt>
      <trkpt lat="42.4741325378418" lon="-7.3062238693237305">
        <ele>258.0</ele>
        <time>2019-04-27T06:48:49.000Z</time>
      </trkpt>
      <trkpt lat="42.47403335571289" lon="-7.306275844573975">
        <ele>258.0</ele>
        <time>2019-04-27T06:48:59.000Z</time>
      </trkpt>
      <trkpt lat="42.47389602661133" lon="-7.306324005126953">
        <ele>259.0</ele>
        <time>2019-04-27T06:49:09.000Z</time>
      </trkpt>
      <trkpt lat="42.47382736206055" lon="-7.306375026702881">
        <ele>259.0</ele>
        <time>2019-04-27T06:49:17.000Z</time>
      </trkpt>
      <trkpt lat="42.4737548828125" lon="-7.306436538696289">
        <ele>259.0</ele>
        <time>2019-04-27T06:49:25.000Z</time>
      </trkpt>
      <trkpt lat="42.47367858886719" lon="-7.3065056800842285">
        <ele>260.0</ele>
        <time>2019-04-27T06:49:33.000Z</time>
      </trkpt>
      <trkpt lat="42.473602294921875" lon="-7.306578159332275">
        <ele>261.0</ele>
        <time>2019-04-27T06:49:41.000Z</time>
      </trkpt>
      <trkpt lat="42.473548889160156" lon="-7.3066205978393555">
        <ele>261.0</ele>
        <time>2019-04-27T06:49:44.000Z</time>
      </trkpt>
      <trkpt lat="42.473506927490234" lon="-7.306654930114746">
        <ele>261.0</ele>
        <time>2019-04-27T06:49:47.000Z</time>
      </trkpt>
      <trkpt lat="42.473472595214844" lon="-7.30668306350708">
        <ele>261.0</ele>
        <time>2019-04-27T06:49:50.000Z</time>
      </trkpt>
      <trkpt lat="42.47344207763672" lon="-7.306707859039307">
        <ele>261.0</ele>
        <time>2019-04-27T06:49:53.000Z</time>
      </trkpt>
      <trkpt lat="42.473411560058594" lon="-7.306739330291748">
        <ele>261.0</ele>
        <time>2019-04-27T06:49:56.000Z</time>
      </trkpt>
      <trkpt lat="42.473388671875" lon="-7.306770324707031">
        <ele>261.0</ele>
        <time>2019-04-27T06:50:00.000Z</time>
      </trkpt>
      <trkpt lat="42.473365783691406" lon="-7.3068013191223145">
        <ele>262.0</ele>
        <time>2019-04-27T06:50:03.000Z</time>
      </trkpt>
      <trkpt lat="42.47334671020508" lon="-7.3068318367004395">
        <ele>262.0</ele>
        <time>2019-04-27T06:50:06.000Z</time>
      </trkpt>
      <trkpt lat="42.473323822021484" lon="-7.306832790374756">
        <ele>262.0</ele>
        <time>2019-04-27T06:50:07.000Z</time>
      </trkpt>
      <trkpt lat="42.473304748535156" lon="-7.306820869445801">
        <ele>262.0</ele>
        <time>2019-04-27T06:50:08.000Z</time>
      </trkpt>
      <trkpt lat="42.47328567504883" lon="-7.306800842285156">
        <ele>262.0</ele>
        <time>2019-04-27T06:50:09.000Z</time>
      </trkpt>
      <trkpt lat="42.4732666015625" lon="-7.30677604675293">
        <ele>262.0</ele>
        <time>2019-04-27T06:50:10.000Z</time>
      </trkpt>
      <trkpt lat="42.473236083984375" lon="-7.306795597076416">
        <ele>263.0</ele>
        <time>2019-04-27T06:50:15.000Z</time>
      </trkpt>
      <trkpt lat="42.473201751708984" lon="-7.30682897567749">
        <ele>263.0</ele>
        <time>2019-04-27T06:50:20.000Z</time>
      </trkpt>
      <trkpt lat="42.47315979003906" lon="-7.30687141418457">
        <ele>264.0</ele>
        <time>2019-04-27T06:50:24.000Z</time>
      </trkpt>
      <trkpt lat="42.473121643066406" lon="-7.306919097900391">
        <ele>265.0</ele>
        <time>2019-04-27T06:50:29.000Z</time>
      </trkpt>
      <trkpt lat="42.47306823730469" lon="-7.3070220947265625">
        <ele>265.0</ele>
        <time>2019-04-27T06:50:38.000Z</time>
      </trkpt>
      <trkpt lat="42.473026275634766" lon="-7.307139873504639">
        <ele>265.0</ele>
        <time>2019-04-27T06:50:46.000Z</time>
      </trkpt>
      <trkpt lat="42.47298812866211" lon="-7.3072075843811035">
        <ele>265.0</ele>
        <time>2019-04-27T06:50:53.000Z</time>
      </trkpt>
      <trkpt lat="42.47294235229492" lon="-7.307281017303467">
        <ele>265.0</ele>
        <time>2019-04-27T06:50:59.000Z</time>
      </trkpt>
      <trkpt lat="42.47289276123047" lon="-7.3073577880859375">
        <ele>266.0</ele>
        <time>2019-04-27T06:51:06.000Z</time>
      </trkpt>
      <trkpt lat="42.47283935546875" lon="-7.307436466217041">
        <ele>266.0</ele>
        <time>2019-04-27T06:51:12.000Z</time>
      </trkpt>
      <trkpt lat="42.472801208496094" lon="-7.307470321655273">
        <ele>266.0</ele>
        <time>2019-04-27T06:51:19.000Z</time>
      </trkpt>
      <trkpt lat="42.47279357910156" lon="-7.307452201843262">
        <ele>267.0</ele>
        <time>2019-04-27T06:51:26.000Z</time>
      </trkpt>
      <trkpt lat="42.472782135009766" lon="-7.307455062866211">
        <ele>267.0</ele>
        <time>2019-04-27T06:51:26.000Z</time>
      </trkpt>
      <trkpt lat="42.472774505615234" lon="-7.307457447052002">
        <ele>267.0</ele>
        <time>2019-04-27T06:51:27.000Z</time>
      </trkpt>
      <trkpt lat="42.4727668762207" lon="-7.307459831237793">
        <ele>267.0</ele>
        <time>2019-04-27T06:51:27.000Z</time>
      </trkpt>
      <trkpt lat="42.47276306152344" lon="-7.307462215423584">
        <ele>267.0</ele>
        <time>2019-04-27T06:51:27.000Z</time>
      </trkpt>
      <trkpt lat="42.472747802734375" lon="-7.307467460632324">
        <ele>267.0</ele>
        <time>2019-04-27T06:51:28.000Z</time>
      </trkpt>
      <trkpt lat="42.47273254394531" lon="-7.307474613189697">
        <ele>267.0</ele>
        <time>2019-04-27T06:51:29.000Z</time>
      </trkpt>
      <trkpt lat="42.472713470458984" lon="-7.3074822425842285">
        <ele>266.0</ele>
        <time>2019-04-27T06:51:29.000Z</time>
      </trkpt>
      <trkpt lat="42.472694396972656" lon="-7.307490348815918">
        <ele>266.0</ele>
        <time>2019-04-27T06:51:30.000Z</time>
      </trkpt>
      <trkpt lat="42.472686767578125" lon="-7.307493686676025">
        <ele>266.0</ele>
        <time>2019-04-27T06:51:33.000Z</time>
      </trkpt>
      <trkpt lat="42.472679138183594" lon="-7.3074951171875">
        <ele>266.0</ele>
        <time>2019-04-27T06:51:36.000Z</time>
      </trkpt>
      <trkpt lat="42.47267150878906" lon="-7.307496070861816">
        <ele>266.0</ele>
        <time>2019-04-27T06:51:38.000Z</time>
      </trkpt>
      <trkpt lat="42.4726676940918" lon="-7.307496070861816">
        <ele>266.0</ele>
        <time>2019-04-27T06:51:41.000Z</time>
      </trkpt>
      <trkpt lat="42.47266387939453" lon="-7.307497024536133">
        <ele>266.0</ele>
        <time>2019-04-27T06:51:41.000Z</time>
      </trkpt>
      <trkpt lat="42.47265625" lon="-7.307497978210449">
        <ele>266.0</ele>
        <time>2019-04-27T06:51:42.000Z</time>
      </trkpt>
      <trkpt lat="42.472652435302734" lon="-7.307499408721924">
        <ele>266.0</ele>
        <time>2019-04-27T06:51:42.000Z</time>
      </trkpt>
      <trkpt lat="42.47264862060547" lon="-7.30750036239624">
        <ele>266.0</ele>
        <time>2019-04-27T06:51:42.000Z</time>
      </trkpt>
      <trkpt lat="42.47262191772461" lon="-7.307505130767822">
        <ele>266.0</ele>
        <time>2019-04-27T06:51:44.000Z</time>
      </trkpt>
      <trkpt lat="42.47258758544922" lon="-7.307511806488037">
        <ele>266.0</ele>
        <time>2019-04-27T06:51:45.000Z</time>
      </trkpt>
      <trkpt lat="42.4725456237793" lon="-7.307519435882568">
        <ele>266.0</ele>
        <time>2019-04-27T06:51:47.000Z</time>
      </trkpt>
      <trkpt lat="42.472503662109375" lon="-7.307527542114258">
        <ele>266.0</ele>
        <time>2019-04-27T06:51:48.000Z</time>
      </trkpt>
      <trkpt lat="42.472408294677734" lon="-7.307556629180908">
        <ele>265.0</ele>
        <time>2019-04-27T06:52:03.000Z</time>
      </trkpt>
      <trkpt lat="42.47237014770508" lon="-7.307568550109863">
        <ele>265.0</ele>
        <time>2019-04-27T06:52:04.000Z</time>
      </trkpt>
      <trkpt lat="42.472312927246094" lon="-7.307592868804932">
        <ele>264.0</ele>
        <time>2019-04-27T06:52:07.000Z</time>
      </trkpt>
      <trkpt lat="42.472293853759766" lon="-7.307600021362305">
        <ele>263.0</ele>
        <time>2019-04-27T06:52:21.000Z</time>
      </trkpt>
      <trkpt lat="42.4722785949707" lon="-7.307605743408203">
        <ele>263.0</ele>
        <time>2019-04-27T06:52:22.000Z</time>
      </trkpt>
      <trkpt lat="42.472225189208984" lon="-7.307628154754639">
        <ele>263.0</ele>
        <time>2019-04-27T06:52:26.000Z</time>
      </trkpt>
      <trkpt lat="42.472198486328125" lon="-7.307646751403809">
        <ele>263.0</ele>
        <time>2019-04-27T06:52:31.000Z</time>
      </trkpt>
      <trkpt lat="42.47217559814453" lon="-7.307660102844238">
        <ele>263.0</ele>
        <time>2019-04-27T06:52:32.000Z</time>
      </trkpt>
      <trkpt lat="42.47196578979492" lon="-7.307823181152344">
        <ele>266.0</ele>
        <time>2019-04-27T06:52:42.000Z</time>
      </trkpt>
      <trkpt lat="42.471946716308594" lon="-7.307852745056152">
        <ele>266.0</ele>
        <time>2019-04-27T06:52:56.000Z</time>
      </trkpt>
      <trkpt lat="42.4719352722168" lon="-7.307875633239746">
        <ele>266.0</ele>
        <time>2019-04-27T06:52:57.000Z</time>
      </trkpt>
      <trkpt lat="42.47174072265625" lon="-7.308261394500732">
        <ele>265.0</ele>
        <time>2019-04-27T06:53:16.000Z</time>
      </trkpt>
      <trkpt lat="42.471595764160156" lon="-7.308572292327881">
        <ele>265.0</ele>
        <time>2019-04-27T06:53:43.000Z</time>
      </trkpt>
      <trkpt lat="42.47157669067383" lon="-7.308596134185791">
        <ele>266.0</ele>
        <time>2019-04-27T06:54:00.000Z</time>
      </trkpt>
      <trkpt lat="42.47156524658203" lon="-7.308614253997803">
        <ele>266.0</ele>
        <time>2019-04-27T06:54:01.000Z</time>
      </trkpt>
      <trkpt lat="42.47147750854492" lon="-7.3087263107299805">
        <ele>266.0</ele>
        <time>2019-04-27T06:54:06.000Z</time>
      </trkpt>
      <trkpt lat="42.47147750854492" lon="-7.3087310791015625">
        <ele>264.0</ele>
        <time>2019-04-27T06:54:17.000Z</time>
      </trkpt>
      <trkpt lat="42.471473693847656" lon="-7.3087358474731445">
        <ele>264.0</ele>
        <time>2019-04-27T06:54:18.000Z</time>
      </trkpt>
      <trkpt lat="42.471275329589844" lon="-7.308983325958252">
        <ele>264.0</ele>
        <time>2019-04-27T06:54:28.000Z</time>
      </trkpt>
      <trkpt lat="42.47114181518555" lon="-7.309040069580078">
        <ele>265.0</ele>
        <time>2019-04-27T06:54:40.000Z</time>
      </trkpt>
      <trkpt lat="42.47098922729492" lon="-7.309065818786621">
        <ele>266.0</ele>
        <time>2019-04-27T06:54:51.000Z</time>
      </trkpt>
      <trkpt lat="42.47096252441406" lon="-7.309072494506836">
        <ele>267.0</ele>
        <time>2019-04-27T06:54:55.000Z</time>
      </trkpt>
      <trkpt lat="42.47095489501953" lon="-7.3090739250183105">
        <ele>268.0</ele>
        <time>2019-04-27T06:54:59.000Z</time>
      </trkpt>
      <trkpt lat="42.4709587097168" lon="-7.309071063995361">
        <ele>268.0</ele>
        <time>2019-04-27T06:55:02.000Z</time>
      </trkpt>
      <trkpt lat="42.47096633911133" lon="-7.3090667724609375">
        <ele>269.0</ele>
        <time>2019-04-27T06:55:06.000Z</time>
      </trkpt>
      <trkpt lat="42.47096252441406" lon="-7.3090667724609375">
        <ele>269.0</ele>
        <time>2019-04-27T06:55:06.000Z</time>
      </trkpt>
      <trkpt lat="42.4709587097168" lon="-7.309067249298096">
        <ele>269.0</ele>
        <time>2019-04-27T06:55:07.000Z</time>
      </trkpt>
      <trkpt lat="42.470951080322266" lon="-7.309067249298096">
        <ele>269.0</ele>
        <time>2019-04-27T06:55:07.000Z</time>
      </trkpt>
      <trkpt lat="42.470947265625" lon="-7.309067249298096">
        <ele>269.0</ele>
        <time>2019-04-27T06:55:07.000Z</time>
      </trkpt>
      <trkpt lat="42.470890045166016" lon="-7.30906867980957">
        <ele>269.0</ele>
        <time>2019-04-27T06:55:10.000Z</time>
      </trkpt>
      <trkpt lat="42.47080612182617" lon="-7.309071063995361">
        <ele>270.0</ele>
        <time>2019-04-27T06:55:13.000Z</time>
      </trkpt>
      <trkpt lat="42.47071075439453" lon="-7.309073448181152">
        <ele>271.0</ele>
        <time>2019-04-27T06:55:16.000Z</time>
      </trkpt>
      <trkpt lat="42.470603942871094" lon="-7.309075832366943">
        <ele>272.0</ele>
        <time>2019-04-27T06:55:19.000Z</time>
      </trkpt>
      <trkpt lat="42.47054672241211" lon="-7.309069633483887">
        <ele>273.0</ele>
        <time>2019-04-27T06:55:23.000Z</time>
      </trkpt>
      <trkpt lat="42.470497131347656" lon="-7.309060573577881">
        <ele>275.0</ele>
        <time>2019-04-27T06:55:27.000Z</time>
      </trkpt>
      <trkpt lat="42.470458984375" lon="-7.309049129486084">
        <ele>276.0</ele>
        <time>2019-04-27T06:55:30.000Z</time>
      </trkpt>
      <trkpt lat="42.470420837402344" lon="-7.3090362548828125">
        <ele>277.0</ele>
        <time>2019-04-27T06:55:34.000Z</time>
      </trkpt>
      <trkpt lat="42.47037887573242" lon="-7.309061050415039">
        <ele>278.0</ele>
        <time>2019-04-27T06:55:39.000Z</time>
      </trkpt>
      <trkpt lat="42.470340728759766" lon="-7.309100151062012">
        <ele>279.0</ele>
        <time>2019-04-27T06:55:45.000Z</time>
      </trkpt>
      <trkpt lat="42.47030258178711" lon="-7.309149265289307">
        <ele>280.0</ele>
        <time>2019-04-27T06:55:50.000Z</time>
      </trkpt>
      <trkpt lat="42.47026824951172" lon="-7.309202671051025">
        <ele>280.0</ele>
        <time>2019-04-27T06:55:55.000Z</time>
      </trkpt>
      <trkpt lat="42.470252990722656" lon="-7.309222221374512">
        <ele>281.0</ele>
        <time>2019-04-27T06:55:56.000Z</time>
      </trkpt>
      <trkpt lat="42.470245361328125" lon="-7.309232711791992">
        <ele>281.0</ele>
        <time>2019-04-27T06:55:58.000Z</time>
      </trkpt>
      <trkpt lat="42.47024154663086" lon="-7.309237003326416">
        <ele>281.0</ele>
        <time>2019-04-27T06:55:59.000Z</time>
      </trkpt>
      <trkpt lat="42.470245361328125" lon="-7.309237957000732">
        <ele>281.0</ele>
        <time>2019-04-27T06:56:00.000Z</time>
      </trkpt>
      <trkpt lat="42.47024154663086" lon="-7.309255123138428">
        <ele>282.0</ele>
        <time>2019-04-27T06:56:04.000Z</time>
      </trkpt>
      <trkpt lat="42.470245361328125" lon="-7.3092756271362305">
        <ele>282.0</ele>
        <time>2019-04-27T06:56:08.000Z</time>
      </trkpt>
      <trkpt lat="42.470245361328125" lon="-7.309298515319824">
        <ele>283.0</ele>
        <time>2019-04-27T06:56:12.000Z</time>
      </trkpt>
      <trkpt lat="42.47024917602539" lon="-7.309322357177734">
        <ele>283.0</ele>
        <time>2019-04-27T06:56:16.000Z</time>
      </trkpt>
      <trkpt lat="42.47024917602539" lon="-7.309336185455322">
        <ele>283.0</ele>
        <time>2019-04-27T06:56:16.000Z</time>
      </trkpt>
      <trkpt lat="42.47024917602539" lon="-7.309347152709961">
        <ele>283.0</ele>
        <time>2019-04-27T06:56:17.000Z</time>
      </trkpt>
      <trkpt lat="42.47024917602539" lon="-7.309356212615967">
        <ele>283.0</ele>
        <time>2019-04-27T06:56:17.000Z</time>
      </trkpt>
      <trkpt lat="42.47024917602539" lon="-7.309364318847656">
        <ele>283.0</ele>
        <time>2019-04-27T06:56:17.000Z</time>
      </trkpt>
      <trkpt lat="42.47024917602539" lon="-7.309393882751465">
        <ele>283.0</ele>
        <time>2019-04-27T06:56:19.000Z</time>
      </trkpt>
      <trkpt lat="42.47024917602539" lon="-7.309431552886963">
        <ele>283.0</ele>
        <time>2019-04-27T06:56:21.000Z</time>
      </trkpt>
      <trkpt lat="42.470245361328125" lon="-7.309474945068359">
        <ele>283.0</ele>
        <time>2019-04-27T06:56:23.000Z</time>
      </trkpt>
      <trkpt lat="42.470245361328125" lon="-7.309520721435547">
        <ele>284.0</ele>
        <time>2019-04-27T06:56:25.000Z</time>
      </trkpt>
      <trkpt lat="42.47025680541992" lon="-7.309571743011475">
        <ele>284.0</ele>
        <time>2019-04-27T06:56:39.000Z</time>
      </trkpt>
      <trkpt lat="42.470279693603516" lon="-7.309609889984131">
        <ele>284.0</ele>
        <time>2019-04-27T06:56:53.000Z</time>
      </trkpt>
      <trkpt lat="42.47028732299805" lon="-7.309627056121826">
        <ele>284.0</ele>
        <time>2019-04-27T06:56:53.000Z</time>
      </trkpt>
      <trkpt lat="42.47029495239258" lon="-7.3096418380737305">
        <ele>284.0</ele>
        <time>2019-04-27T06:56:54.000Z</time>
      </trkpt>
      <trkpt lat="42.470298767089844" lon="-7.30965518951416">
        <ele>284.0</ele>
        <time>2019-04-27T06:56:54.000Z</time>
      </trkpt>
      <trkpt lat="42.470306396484375" lon="-7.309668064117432">
        <ele>284.0</ele>
        <time>2019-04-27T06:56:54.000Z</time>
      </trkpt>
      <trkpt lat="42.4703369140625" lon="-7.309739589691162">
        <ele>284.0</ele>
        <time>2019-04-27T06:56:57.000Z</time>
      </trkpt>
      <trkpt lat="42.47038269042969" lon="-7.309834957122803">
        <ele>284.0</ele>
        <time>2019-04-27T06:57:00.000Z</time>
      </trkpt>
      <trkpt lat="42.47043228149414" lon="-7.309946060180664">
        <ele>285.0</ele>
        <time>2019-04-27T06:57:03.000Z</time>
      </trkpt>
      <trkpt lat="42.470489501953125" lon="-7.310065269470215">
        <ele>285.0</ele>
        <time>2019-04-27T06:57:06.000Z</time>
      </trkpt>
      <trkpt lat="42.47053146362305" lon="-7.3101654052734375">
        <ele>285.0</ele>
        <time>2019-04-27T06:57:16.000Z</time>
      </trkpt>
      <trkpt lat="42.47057342529297" lon="-7.310266017913818">
        <ele>285.0</ele>
        <time>2019-04-27T06:57:25.000Z</time>
      </trkpt>
      <trkpt lat="42.470611572265625" lon="-7.310367107391357">
        <ele>285.0</ele>
        <time>2019-04-27T06:57:34.000Z</time>
      </trkpt>
      <trkpt lat="42.47064971923828" lon="-7.3104681968688965">
        <ele>285.0</ele>
        <time>2019-04-27T06:57:44.000Z</time>
      </trkpt>
      <trkpt lat="42.470664978027344" lon="-7.310502052307129">
        <ele>285.0</ele>
        <time>2019-04-27T06:57:44.000Z</time>
      </trkpt>
      <trkpt lat="42.470664978027344" lon="-7.3105082511901855">
        <ele>285.0</ele>
        <time>2019-04-27T06:57:45.000Z</time>
      </trkpt>
      <trkpt lat="42.47066116333008" lon="-7.310495376586914">
        <ele>285.0</ele>
        <time>2019-04-27T06:57:45.000Z</time>
      </trkpt>
      <trkpt lat="42.47065353393555" lon="-7.310473442077637">
        <ele>285.0</ele>
        <time>2019-04-27T06:57:46.000Z</time>
      </trkpt>
      <trkpt lat="42.47065734863281" lon="-7.310484886169434">
        <ele>284.0</ele>
        <time>2019-04-27T06:57:49.000Z</time>
      </trkpt>
      <trkpt lat="42.47066879272461" lon="-7.310500621795654">
        <ele>284.0</ele>
        <time>2019-04-27T06:57:53.000Z</time>
      </trkpt>
      <trkpt lat="42.47067642211914" lon="-7.310519218444824">
        <ele>283.0</ele>
        <time>2019-04-27T06:57:56.000Z</time>
      </trkpt>
      <trkpt lat="42.47068786621094" lon="-7.310539245605469">
        <ele>281.0</ele>
        <time>2019-04-27T06:58:00.000Z</time>
      </trkpt>
      <trkpt lat="42.470706939697266" lon="-7.310574531555176">
        <ele>281.0</ele>
        <time>2019-04-27T06:58:01.000Z</time>
      </trkpt>
      <trkpt lat="42.47077941894531" lon="-7.310952186584473">
        <ele>282.0</ele>
        <time>2019-04-27T06:58:15.000Z</time>
      </trkpt>
      <trkpt lat="42.47079849243164" lon="-7.310992240905762">
        <ele>282.0</ele>
        <time>2019-04-27T06:58:17.000Z</time>
      </trkpt>
      <trkpt lat="42.47081756591797" lon="-7.311009883880615">
        <ele>282.0</ele>
        <time>2019-04-27T06:58:19.000Z</time>
      </trkpt>
      <trkpt lat="42.4708366394043" lon="-7.311012268066406">
        <ele>282.0</ele>
        <time>2019-04-27T06:58:21.000Z</time>
      </trkpt>
      <trkpt lat="42.470855712890625" lon="-7.311007022857666">
        <ele>282.0</ele>
        <time>2019-04-27T06:58:23.000Z</time>
      </trkpt>
      <trkpt lat="42.470863342285156" lon="-7.311013698577881">
        <ele>282.0</ele>
        <time>2019-04-27T06:58:24.000Z</time>
      </trkpt>
      <trkpt lat="42.47086715698242" lon="-7.311017990112305">
        <ele>282.0</ele>
        <time>2019-04-27T06:58:24.000Z</time>
      </trkpt>
      <trkpt lat="42.47086715698242" lon="-7.3110198974609375">
        <ele>282.0</ele>
        <time>2019-04-27T06:58:25.000Z</time>
      </trkpt>
      <trkpt lat="42.47086715698242" lon="-7.311021327972412">
        <ele>282.0</ele>
        <time>2019-04-27T06:58:26.000Z</time>
      </trkpt>
      <trkpt lat="42.47087860107422" lon="-7.311030864715576">
        <ele>282.0</ele>
        <time>2019-04-27T06:58:30.000Z</time>
      </trkpt>
      <trkpt lat="42.470890045166016" lon="-7.3110432624816895">
        <ele>282.0</ele>
        <time>2019-04-27T06:58:35.000Z</time>
      </trkpt>
      <trkpt lat="42.47090530395508" lon="-7.311057090759277">
        <ele>282.0</ele>
        <time>2019-04-27T06:58:39.000Z</time>
      </trkpt>
      <trkpt lat="42.47092056274414" lon="-7.311071872711182">
        <ele>281.0</ele>
        <time>2019-04-27T06:58:44.000Z</time>
      </trkpt>
      <trkpt lat="42.47092819213867" lon="-7.311080455780029">
        <ele>281.0</ele>
        <time>2019-04-27T06:58:44.000Z</time>
      </trkpt>
      <trkpt lat="42.4709358215332" lon="-7.311087608337402">
        <ele>281.0</ele>
        <time>2019-04-27T06:58:44.000Z</time>
      </trkpt>
      <trkpt lat="42.47093963623047" lon="-7.311093330383301">
        <ele>281.0</ele>
        <time>2019-04-27T06:58:45.000Z</time>
      </trkpt>
      <trkpt lat="42.470947265625" lon="-7.311098575592041">
        <ele>281.0</ele>
        <time>2019-04-27T06:58:45.000Z</time>
      </trkpt>
      <trkpt lat="42.470977783203125" lon="-7.311164379119873">
        <ele>281.0</ele>
        <time>2019-04-27T06:58:51.000Z</time>
      </trkpt>
      <trkpt lat="42.47101974487305" lon="-7.311254024505615">
        <ele>281.0</ele>
        <time>2019-04-27T06:58:56.000Z</time>
      </trkpt>
      <trkpt lat="42.4710693359375" lon="-7.3113603591918945">
        <ele>281.0</ele>
        <time>2019-04-27T06:59:02.000Z</time>
      </trkpt>
      <trkpt lat="42.47111892700195" lon="-7.3114752769470215">
        <ele>281.0</ele>
        <time>2019-04-27T06:59:08.000Z</time>
      </trkpt>
      <trkpt lat="42.47111892700195" lon="-7.3115410804748535">
        <ele>282.0</ele>
        <time>2019-04-27T06:59:12.000Z</time>
      </trkpt>
      <trkpt lat="42.471099853515625" lon="-7.3115949630737305">
        <ele>282.0</ele>
        <time>2019-04-27T06:59:16.000Z</time>
      </trkpt>
      <trkpt lat="42.4710693359375" lon="-7.311640739440918">
        <ele>283.0</ele>
        <time>2019-04-27T06:59:21.000Z</time>
      </trkpt>
      <trkpt lat="42.47103500366211" lon="-7.311683177947998">
        <ele>284.0</ele>
        <time>2019-04-27T06:59:25.000Z</time>
      </trkpt>
      <trkpt lat="42.47100067138672" lon="-7.31170654296875">
        <ele>285.0</ele>
        <time>2019-04-27T06:59:29.000Z</time>
      </trkpt>
      <trkpt lat="42.47096252441406" lon="-7.311718463897705">
        <ele>286.0</ele>
        <time>2019-04-27T06:59:32.000Z</time>
      </trkpt>
      <trkpt lat="42.47092056274414" lon="-7.3117218017578125">
        <ele>288.0</ele>
        <time>2019-04-27T06:59:36.000Z</time>
      </trkpt>
      <trkpt lat="42.47087860107422" lon="-7.3117218017578125">
        <ele>289.0</ele>
        <time>2019-04-27T06:59:40.000Z</time>
      </trkpt>
      <trkpt lat="42.470794677734375" lon="-7.31169319152832">
        <ele>292.0</ele>
        <time>2019-04-27T06:59:46.000Z</time>
      </trkpt>
      <trkpt lat="42.47071075439453" lon="-7.311643123626709">
        <ele>294.0</ele>
        <time>2019-04-27T06:59:53.000Z</time>
      </trkpt>
      <trkpt lat="42.470672607421875" lon="-7.311620712280273">
        <ele>295.0</ele>
        <time>2019-04-27T06:59:57.000Z</time>
      </trkpt>
      <trkpt lat="42.47063064575195" lon="-7.311596870422363">
        <ele>296.0</ele>
        <time>2019-04-27T07:00:02.000Z</time>
      </trkpt>
      <trkpt lat="42.47058868408203" lon="-7.311572074890137">
        <ele>296.0</ele>
        <time>2019-04-27T07:00:06.000Z</time>
      </trkpt>
      <trkpt lat="42.470550537109375" lon="-7.31154727935791">
        <ele>297.0</ele>
        <time>2019-04-27T07:00:11.000Z</time>
      </trkpt>
      <trkpt lat="42.47050857543945" lon="-7.311525821685791">
        <ele>298.0</ele>
        <time>2019-04-27T07:00:16.000Z</time>
      </trkpt>
      <trkpt lat="42.47046661376953" lon="-7.3115057945251465">
        <ele>299.0</ele>
        <time>2019-04-27T07:00:21.000Z</time>
      </trkpt>
      <trkpt lat="42.47042465209961" lon="-7.31148624420166">
        <ele>299.0</ele>
        <time>2019-04-27T07:00:26.000Z</time>
      </trkpt>
      <trkpt lat="42.47038269042969" lon="-7.311467170715332">
        <ele>300.0</ele>
        <time>2019-04-27T07:00:31.000Z</time>
      </trkpt>
      <trkpt lat="42.470340728759766" lon="-7.311453342437744">
        <ele>300.0</ele>
        <time>2019-04-27T07:00:34.000Z</time>
      </trkpt>
      <trkpt lat="42.470298767089844" lon="-7.3114423751831055">
        <ele>300.0</ele>
        <time>2019-04-27T07:00:38.000Z</time>
      </trkpt>
      <trkpt lat="42.47025680541992" lon="-7.3114333152771">
        <ele>301.0</ele>
        <time>2019-04-27T07:00:41.000Z</time>
      </trkpt>
      <trkpt lat="42.47021484375" lon="-7.311424732208252">
        <ele>301.0</ele>
        <time>2019-04-27T07:00:44.000Z</time>
      </trkpt>
      <trkpt lat="42.470157623291016" lon="-7.311391353607178">
        <ele>301.0</ele>
        <time>2019-04-27T07:00:48.000Z</time>
      </trkpt>
      <trkpt lat="42.470096588134766" lon="-7.311348915100098">
        <ele>302.0</ele>
        <time>2019-04-27T07:00:52.000Z</time>
      </trkpt>
      <trkpt lat="42.47003173828125" lon="-7.311299800872803">
        <ele>302.0</ele>
        <time>2019-04-27T07:00:56.000Z</time>
      </trkpt>
      <trkpt lat="42.46996307373047" lon="-7.3112473487854">
        <ele>303.0</ele>
        <time>2019-04-27T07:01:00.000Z</time>
      </trkpt>
      <trkpt lat="42.469886779785156" lon="-7.311214447021484">
        <ele>303.0</ele>
        <time>2019-04-27T07:01:06.000Z</time>
      </trkpt>
      <trkpt lat="42.469810485839844" lon="-7.311186790466309">
        <ele>304.0</ele>
        <time>2019-04-27T07:01:11.000Z</time>
      </trkpt>
      <trkpt lat="42.4697265625" lon="-7.31116247177124">
        <ele>304.0</ele>
        <time>2019-04-27T07:01:16.000Z</time>
      </trkpt>
      <trkpt lat="42.46963882446289" lon="-7.3111395835876465">
        <ele>305.0</ele>
        <time>2019-04-27T07:01:21.000Z</time>
      </trkpt>
      <trkpt lat="42.46962356567383" lon="-7.311092853546143">
        <ele>305.0</ele>
        <time>2019-04-27T07:01:25.000Z</time>
      </trkpt>
      <trkpt lat="42.469635009765625" lon="-7.311038017272949">
        <ele>306.0</ele>
        <time>2019-04-27T07:01:28.000Z</time>
      </trkpt>
      <trkpt lat="42.46966552734375" lon="-7.310977458953857">
        <ele>307.0</ele>
        <time>2019-04-27T07:01:32.000Z</time>
      </trkpt>
      <trkpt lat="42.469703674316406" lon="-7.310914039611816">
        <ele>307.0</ele>
        <time>2019-04-27T07:01:35.000Z</time>
      </trkpt>
      <trkpt lat="42.46969223022461" lon="-7.310897350311279">
        <ele>307.0</ele>
        <time>2019-04-27T07:01:37.000Z</time>
      </trkpt>
      <trkpt lat="42.469669342041016" lon="-7.3108978271484375">
        <ele>307.0</ele>
        <time>2019-04-27T07:01:39.000Z</time>
      </trkpt>
      <trkpt lat="42.46963882446289" lon="-7.310908794403076">
        <ele>307.0</ele>
        <time>2019-04-27T07:01:41.000Z</time>
      </trkpt>
      <trkpt lat="42.469600677490234" lon="-7.310925483703613">
        <ele>307.0</ele>
        <time>2019-04-27T07:01:42.000Z</time>
      </trkpt>
      <trkpt lat="42.46957015991211" lon="-7.310892105102539">
        <ele>307.0</ele>
        <time>2019-04-27T07:01:47.000Z</time>
      </trkpt>
      <trkpt lat="42.46953201293945" lon="-7.310842990875244">
        <ele>307.0</ele>
        <time>2019-04-27T07:01:52.000Z</time>
      </trkpt>
      <trkpt lat="42.46949768066406" lon="-7.310783863067627">
        <ele>307.0</ele>
        <time>2019-04-27T07:01:57.000Z</time>
      </trkpt>
      <trkpt lat="42.46945571899414" lon="-7.310719966888428">
        <ele>307.0</ele>
        <time>2019-04-27T07:02:02.000Z</time>
      </trkpt>
      <trkpt lat="42.46941375732422" lon="-7.310678005218506">
        <ele>307.0</ele>
        <time>2019-04-27T07:02:07.000Z</time>
      </trkpt>
      <trkpt lat="42.46936798095703" lon="-7.310639381408691">
        <ele>307.0</ele>
        <time>2019-04-27T07:02:12.000Z</time>
      </trkpt>
      <trkpt lat="42.46931838989258" lon="-7.310604095458984">
        <ele>307.0</ele>
        <time>2019-04-27T07:02:17.000Z</time>
      </trkpt>
      <trkpt lat="42.469268798828125" lon="-7.310569763183594">
        <ele>306.0</ele>
        <time>2019-04-27T07:02:21.000Z</time>
      </trkpt>
      <trkpt lat="42.46919631958008" lon="-7.310558795928955">
        <ele>306.0</ele>
        <time>2019-04-27T07:02:26.000Z</time>
      </trkpt>
      <trkpt lat="42.46913146972656" lon="-7.310577869415283">
        <ele>306.0</ele>
        <time>2019-04-27T07:02:30.000Z</time>
      </trkpt>
      <trkpt lat="42.469093322753906" lon="-7.310578346252441">
        <ele>306.0</ele>
        <time>2019-04-27T07:02:33.000Z</time>
      </trkpt>
      <trkpt lat="42.46905517578125" lon="-7.310577869415283">
        <ele>306.0</ele>
        <time>2019-04-27T07:02:36.000Z</time>
      </trkpt>
      <trkpt lat="42.46901321411133" lon="-7.310576438903809">
        <ele>306.0</ele>
        <time>2019-04-27T07:02:39.000Z</time>
      </trkpt>
      <trkpt lat="42.468971252441406" lon="-7.310575008392334">
        <ele>307.0</ele>
        <time>2019-04-27T07:02:41.000Z</time>
      </trkpt>
      <trkpt lat="42.46889877319336" lon="-7.310523986816406">
        <ele>306.0</ele>
        <time>2019-04-27T07:02:49.000Z</time>
      </trkpt>
      <trkpt lat="42.46883773803711" lon="-7.310450553894043">
        <ele>306.0</ele>
        <time>2019-04-27T07:02:57.000Z</time>
      </trkpt>
      <trkpt lat="42.46879959106445" lon="-7.310428142547607">
        <ele>306.0</ele>
        <time>2019-04-27T07:02:59.000Z</time>
      </trkpt>
      <trkpt lat="42.46876525878906" lon="-7.310409069061279">
        <ele>306.0</ele>
        <time>2019-04-27T07:03:01.000Z</time>
      </trkpt>
      <trkpt lat="42.468727111816406" lon="-7.310392379760742">
        <ele>306.0</ele>
        <time>2019-04-27T07:03:03.000Z</time>
      </trkpt>
      <trkpt lat="42.468692779541016" lon="-7.3103766441345215">
        <ele>306.0</ele>
        <time>2019-04-27T07:03:04.000Z</time>
      </trkpt>
      <trkpt lat="42.468685150146484" lon="-7.310337066650391">
        <ele>306.0</ele>
        <time>2019-04-27T07:03:09.000Z</time>
      </trkpt>
      <trkpt lat="42.46868896484375" lon="-7.310288429260254">
        <ele>305.0</ele>
        <time>2019-04-27T07:03:13.000Z</time>
      </trkpt>
      <trkpt lat="42.46870040893555" lon="-7.310234069824219">
        <ele>305.0</ele>
        <time>2019-04-27T07:03:18.000Z</time>
      </trkpt>
      <trkpt lat="42.468719482421875" lon="-7.310176372528076">
        <ele>305.0</ele>
        <time>2019-04-27T07:03:22.000Z</time>
      </trkpt>
      <trkpt lat="42.46871566772461" lon="-7.310152530670166">
        <ele>304.0</ele>
        <time>2019-04-27T07:03:26.000Z</time>
      </trkpt>
      <trkpt lat="42.46870422363281" lon="-7.310139179229736">
        <ele>304.0</ele>
        <time>2019-04-27T07:03:30.000Z</time>
      </trkpt>
      <trkpt lat="42.46869659423828" lon="-7.310133457183838">
        <ele>304.0</ele>
        <time>2019-04-27T07:03:35.000Z</time>
      </trkpt>
      <trkpt lat="42.46868133544922" lon="-7.310131072998047">
        <ele>304.0</ele>
        <time>2019-04-27T07:03:39.000Z</time>
      </trkpt>
      <trkpt lat="42.46867370605469" lon="-7.310122966766357">
        <ele>303.0</ele>
        <time>2019-04-27T07:03:39.000Z</time>
      </trkpt>
      <trkpt lat="42.46866989135742" lon="-7.310115814208984">
        <ele>303.0</ele>
        <time>2019-04-27T07:03:39.000Z</time>
      </trkpt>
      <trkpt lat="42.468666076660156" lon="-7.3101091384887695">
        <ele>303.0</ele>
        <time>2019-04-27T07:03:40.000Z</time>
      </trkpt>
      <trkpt lat="42.468658447265625" lon="-7.310103416442871">
        <ele>304.0</ele>
        <time>2019-04-27T07:03:40.000Z</time>
      </trkpt>
      <trkpt lat="42.468624114990234" lon="-7.310060501098633">
        <ele>304.0</ele>
        <time>2019-04-27T07:03:43.000Z</time>
      </trkpt>
      <trkpt lat="42.46857833862305" lon="-7.310002326965332">
        <ele>305.0</ele>
        <time>2019-04-27T07:03:47.000Z</time>
      </trkpt>
      <trkpt lat="42.46852111816406" lon="-7.309934616088867">
        <ele>306.0</ele>
        <time>2019-04-27T07:03:50.000Z</time>
      </trkpt>
      <trkpt lat="42.46846389770508" lon="-7.309861660003662">
        <ele>308.0</ele>
        <time>2019-04-27T07:03:54.000Z</time>
      </trkpt>
      <trkpt lat="42.46842575073242" lon="-7.309849262237549">
        <ele>308.0</ele>
        <time>2019-04-27T07:03:58.000Z</time>
      </trkpt>
      <trkpt lat="42.46839141845703" lon="-7.309857368469238">
        <ele>308.0</ele>
        <time>2019-04-27T07:04:02.000Z</time>
      </trkpt>
      <trkpt lat="42.468360900878906" lon="-7.309878349304199">
        <ele>308.0</ele>
        <time>2019-04-27T07:04:06.000Z</time>
      </trkpt>
      <trkpt lat="42.46833038330078" lon="-7.309906482696533">
        <ele>308.0</ele>
        <time>2019-04-27T07:04:10.000Z</time>
      </trkpt>
      <trkpt lat="42.468284606933594" lon="-7.309905529022217">
        <ele>308.0</ele>
        <time>2019-04-27T07:04:14.000Z</time>
      </trkpt>
      <trkpt lat="42.46823501586914" lon="-7.309899806976318">
        <ele>309.0</ele>
        <time>2019-04-27T07:04:18.000Z</time>
      </trkpt>
      <trkpt lat="42.468177795410156" lon="-7.3098907470703125">
        <ele>310.0</ele>
        <time>2019-04-27T07:04:23.000Z</time>
      </trkpt>
      <trkpt lat="42.46812057495117" lon="-7.309879779815674">
        <ele>310.0</ele>
        <time>2019-04-27T07:04:27.000Z</time>
      </trkpt>
      <trkpt lat="42.468074798583984" lon="-7.3098673820495605">
        <ele>311.0</ele>
        <time>2019-04-27T07:04:37.000Z</time>
      </trkpt>
      <trkpt lat="42.46803283691406" lon="-7.3098530769348145">
        <ele>311.0</ele>
        <time>2019-04-27T07:04:47.000Z</time>
      </trkpt>
      <trkpt lat="42.467994689941406" lon="-7.3098368644714355">
        <ele>312.0</ele>
        <time>2019-04-27T07:04:58.000Z</time>
      </trkpt>
      <trkpt lat="42.46795654296875" lon="-7.309820175170898">
        <ele>312.0</ele>
        <time>2019-04-27T07:05:08.000Z</time>
      </trkpt>
      <trkpt lat="42.46791076660156" lon="-7.309823989868164">
        <ele>312.0</ele>
        <time>2019-04-27T07:05:18.000Z</time>
      </trkpt>
      <trkpt lat="42.46787643432617" lon="-7.309842586517334">
        <ele>311.0</ele>
        <time>2019-04-27T07:05:29.000Z</time>
      </trkpt>
      <trkpt lat="42.467864990234375" lon="-7.309845924377441">
        <ele>311.0</ele>
        <time>2019-04-27T07:05:29.000Z</time>
      </trkpt>
      <trkpt lat="42.46785354614258" lon="-7.309848308563232">
        <ele>311.0</ele>
        <time>2019-04-27T07:05:29.000Z</time>
      </trkpt>
      <trkpt lat="42.46784973144531" lon="-7.309850215911865">
        <ele>311.0</ele>
        <time>2019-04-27T07:05:30.000Z</time>
      </trkpt>
      <trkpt lat="42.46784210205078" lon="-7.30985164642334">
        <ele>311.0</ele>
        <time>2019-04-27T07:05:30.000Z</time>
      </trkpt>
      <trkpt lat="42.4677848815918" lon="-7.309875011444092">
        <ele>311.0</ele>
        <time>2019-04-27T07:05:36.000Z</time>
      </trkpt>
      <trkpt lat="42.46770477294922" lon="-7.309906959533691">
        <ele>310.0</ele>
        <time>2019-04-27T07:05:42.000Z</time>
      </trkpt>
      <trkpt lat="42.46760940551758" lon="-7.309945106506348">
        <ele>310.0</ele>
        <time>2019-04-27T07:05:49.000Z</time>
      </trkpt>
      <trkpt lat="42.467506408691406" lon="-7.309985637664795">
        <ele>309.0</ele>
        <time>2019-04-27T07:05:55.000Z</time>
      </trkpt>
      <trkpt lat="42.46743392944336" lon="-7.3100409507751465">
        <ele>309.0</ele>
        <time>2019-04-27T07:06:03.000Z</time>
      </trkpt>
      <trkpt lat="42.467369079589844" lon="-7.310105800628662">
        <ele>308.0</ele>
        <time>2019-04-27T07:06:10.000Z</time>
      </trkpt>
      <trkpt lat="42.467308044433594" lon="-7.310176372528076">
        <ele>308.0</ele>
        <time>2019-04-27T07:06:18.000Z</time>
      </trkpt>
      <trkpt lat="42.467247009277344" lon="-7.3102498054504395">
        <ele>307.0</ele>
        <time>2019-04-27T07:06:26.000Z</time>
      </trkpt>
      <trkpt lat="42.46721267700195" lon="-7.31031608581543">
        <ele>306.0</ele>
        <time>2019-04-27T07:06:35.000Z</time>
      </trkpt>
      <trkpt lat="42.46721649169922" lon="-7.310351371765137">
        <ele>305.0</ele>
        <time>2019-04-27T07:06:44.000Z</time>
      </trkpt>
      <trkpt lat="42.46721267700195" lon="-7.310367107391357">
        <ele>305.0</ele>
        <time>2019-04-27T07:06:44.000Z</time>
      </trkpt>
      <trkpt lat="42.46720886230469" lon="-7.3103790283203125">
        <ele>305.0</ele>
        <time>2019-04-27T07:06:44.000Z</time>
      </trkpt>
      <trkpt lat="42.46720504760742" lon="-7.310388565063477">
        <ele>305.0</ele>
        <time>2019-04-27T07:06:45.000Z</time>
      </trkpt>
      <trkpt lat="42.46720504760742" lon="-7.310396194458008">
        <ele>305.0</ele>
        <time>2019-04-27T07:06:45.000Z</time>
      </trkpt>
      <trkpt lat="42.46718215942383" lon="-7.310471534729004">
        <ele>305.0</ele>
        <time>2019-04-27T07:06:50.000Z</time>
      </trkpt>
      <trkpt lat="42.4671516418457" lon="-7.310573101043701">
        <ele>305.0</ele>
        <time>2019-04-27T07:06:55.000Z</time>
      </trkpt>
      <trkpt lat="42.46711730957031" lon="-7.310693264007568">
        <ele>305.0</ele>
        <time>2019-04-27T07:07:01.000Z</time>
      </trkpt>
      <trkpt lat="42.467079162597656" lon="-7.310822010040283">
        <ele>304.0</ele>
        <time>2019-04-27T07:07:06.000Z</time>
      </trkpt>
      <trkpt lat="42.46706771850586" lon="-7.310894966125488">
        <ele>304.0</ele>
        <time>2019-04-27T07:07:10.000Z</time>
      </trkpt>
      <trkpt lat="42.46706008911133" lon="-7.310954570770264">
        <ele>304.0</ele>
        <time>2019-04-27T07:07:15.000Z</time>
      </trkpt>
      <trkpt lat="42.46705627441406" lon="-7.311004638671875">
        <ele>304.0</ele>
        <time>2019-04-27T07:07:19.000Z</time>
      </trkpt>
      <trkpt lat="42.46705627441406" lon="-7.3110504150390625">
        <ele>304.0</ele>
        <time>2019-04-27T07:07:24.000Z</time>
      </trkpt>
      <trkpt lat="42.46705627441406" lon="-7.3110785484313965">
        <ele>304.0</ele>
        <time>2019-04-27T07:07:29.000Z</time>
      </trkpt>
      <trkpt lat="42.46705627441406" lon="-7.311094284057617">
        <ele>304.0</ele>
        <time>2019-04-27T07:07:34.000Z</time>
      </trkpt>
      <trkpt lat="42.46706008911133" lon="-7.311102390289307">
        <ele>304.0</ele>
        <time>2019-04-27T07:07:39.000Z</time>
      </trkpt>
      <trkpt lat="42.467063903808594" lon="-7.311106204986572">
        <ele>304.0</ele>
        <time>2019-04-27T07:07:44.000Z</time>
      </trkpt>
      <trkpt lat="42.467063903808594" lon="-7.311117172241211">
        <ele>304.0</ele>
        <time>2019-04-27T07:07:44.000Z</time>
      </trkpt>
      <trkpt lat="42.46706771850586" lon="-7.311126708984375">
        <ele>304.0</ele>
        <time>2019-04-27T07:07:44.000Z</time>
      </trkpt>
      <trkpt lat="42.46706771850586" lon="-7.311135768890381">
        <ele>304.0</ele>
        <time>2019-04-27T07:07:45.000Z</time>
      </trkpt>
      <trkpt lat="42.467071533203125" lon="-7.31114387512207">
        <ele>304.0</ele>
        <time>2019-04-27T07:07:45.000Z</time>
      </trkpt>
      <trkpt lat="42.46711349487305" lon="-7.311496734619141">
        <ele>305.0</ele>
        <time>2019-04-27T07:07:53.000Z</time>
      </trkpt>
      <trkpt lat="42.46710968017578" lon="-7.311509609222412">
        <ele>305.0</ele>
        <time>2019-04-27T07:07:55.000Z</time>
      </trkpt>
      <trkpt lat="42.46711349487305" lon="-7.311563968658447">
        <ele>313.0</ele>
        <time>2019-04-27T07:08:17.000Z</time>
      </trkpt>
      <trkpt lat="42.46711349487305" lon="-7.311601161956787">
        <ele>313.0</ele>
        <time>2019-04-27T07:08:18.000Z</time>
      </trkpt>
      <trkpt lat="42.467193603515625" lon="-7.312060356140137">
        <ele>320.0</ele>
        <time>2019-04-27T07:08:37.000Z</time>
      </trkpt>
      <trkpt lat="42.46724319458008" lon="-7.312276840209961">
        <ele>322.0</ele>
        <time>2019-04-27T07:08:50.000Z</time>
      </trkpt>
      <trkpt lat="42.4672737121582" lon="-7.312321662902832">
        <ele>322.0</ele>
        <time>2019-04-27T07:08:55.000Z</time>
      </trkpt>
      <trkpt lat="42.46731185913086" lon="-7.312362194061279">
        <ele>322.0</ele>
        <time>2019-04-27T07:09:01.000Z</time>
      </trkpt>
      <trkpt lat="42.46735382080078" lon="-7.3124003410339355">
        <ele>322.0</ele>
        <time>2019-04-27T07:09:06.000Z</time>
      </trkpt>
      <trkpt lat="42.46739959716797" lon="-7.312437057495117">
        <ele>322.0</ele>
        <time>2019-04-27T07:09:12.000Z</time>
      </trkpt>
      <trkpt lat="42.46745681762695" lon="-7.312498569488525">
        <ele>322.0</ele>
        <time>2019-04-27T07:09:20.000Z</time>
      </trkpt>
      <trkpt lat="42.467525482177734" lon="-7.312569618225098">
        <ele>323.0</ele>
        <time>2019-04-27T07:09:27.000Z</time>
      </trkpt>
      <trkpt lat="42.46759796142578" lon="-7.312646389007568">
        <ele>323.0</ele>
        <time>2019-04-27T07:09:35.000Z</time>
      </trkpt>
      <trkpt lat="42.467674255371094" lon="-7.3127264976501465">
        <ele>324.0</ele>
        <time>2019-04-27T07:09:43.000Z</time>
      </trkpt>
      <trkpt lat="42.467742919921875" lon="-7.312800407409668">
        <ele>324.0</ele>
        <time>2019-04-27T07:09:50.000Z</time>
      </trkpt>
      <trkpt lat="42.46780776977539" lon="-7.312874794006348">
        <ele>324.0</ele>
        <time>2019-04-27T07:09:56.000Z</time>
      </trkpt>
      <trkpt lat="42.46787643432617" lon="-7.312949180603027">
        <ele>324.0</ele>
        <time>2019-04-27T07:10:03.000Z</time>
      </trkpt>
      <trkpt lat="42.46794509887695" lon="-7.313024044036865">
        <ele>323.0</ele>
        <time>2019-04-27T07:10:10.000Z</time>
      </trkpt>
      <trkpt lat="42.468021392822266" lon="-7.313082695007324">
        <ele>323.0</ele>
        <time>2019-04-27T07:10:17.000Z</time>
      </trkpt>
      <trkpt lat="42.468101501464844" lon="-7.31313419342041">
        <ele>324.0</ele>
        <time>2019-04-27T07:10:24.000Z</time>
      </trkpt>
      <trkpt lat="42.46818542480469" lon="-7.313181400299072">
        <ele>324.0</ele>
        <time>2019-04-27T07:10:31.000Z</time>
      </trkpt>
      <trkpt lat="42.46826934814453" lon="-7.313226699829102">
        <ele>325.0</ele>
        <time>2019-04-27T07:10:38.000Z</time>
      </trkpt>
      <trkpt lat="42.468379974365234" lon="-7.313395023345947">
        <ele>325.0</ele>
        <time>2019-04-27T07:10:55.000Z</time>
      </trkpt>
      <trkpt lat="42.46847152709961" lon="-7.313593864440918">
        <ele>325.0</ele>
        <time>2019-04-27T07:11:12.000Z</time>
      </trkpt>
      <trkpt lat="42.4685173034668" lon="-7.3136701583862305">
        <ele>325.0</ele>
        <time>2019-04-27T07:11:18.000Z</time>
      </trkpt>
      <trkpt lat="42.46855545043945" lon="-7.31373929977417">
        <ele>325.0</ele>
        <time>2019-04-27T07:11:23.000Z</time>
      </trkpt>
      <trkpt lat="42.46859359741211" lon="-7.3138041496276855">
        <ele>325.0</ele>
        <time>2019-04-27T07:11:29.000Z</time>
      </trkpt>
      <trkpt lat="42.468631744384766" lon="-7.31386661529541">
        <ele>325.0</ele>
        <time>2019-04-27T07:11:35.000Z</time>
      </trkpt>
      <trkpt lat="42.468650817871094" lon="-7.313896179199219">
        <ele>324.0</ele>
        <time>2019-04-27T07:11:38.000Z</time>
      </trkpt>
      <trkpt lat="42.468658447265625" lon="-7.313909530639648">
        <ele>324.0</ele>
        <time>2019-04-27T07:11:40.000Z</time>
      </trkpt>
      <trkpt lat="42.468658447265625" lon="-7.3139119148254395">
        <ele>324.0</ele>
        <time>2019-04-27T07:11:43.000Z</time>
      </trkpt>
      <trkpt lat="42.46865463256836" lon="-7.31390905380249">
        <ele>324.0</ele>
        <time>2019-04-27T07:11:46.000Z</time>
      </trkpt>
      <trkpt lat="42.46866226196289" lon="-7.3139166831970215">
        <ele>324.0</ele>
        <time>2019-04-27T07:11:46.000Z</time>
      </trkpt>
      <trkpt lat="42.468666076660156" lon="-7.3139238357543945">
        <ele>324.0</ele>
        <time>2019-04-27T07:11:46.000Z</time>
      </trkpt>
      <trkpt lat="42.46866989135742" lon="-7.313930034637451">
        <ele>324.0</ele>
        <time>2019-04-27T07:11:47.000Z</time>
      </trkpt>
      <trkpt lat="42.46866989135742" lon="-7.313936233520508">
        <ele>324.0</ele>
        <time>2019-04-27T07:11:47.000Z</time>
      </trkpt>
      <trkpt lat="42.46868896484375" lon="-7.313979148864746">
        <ele>324.0</ele>
        <time>2019-04-27T07:11:51.000Z</time>
      </trkpt>
      <trkpt lat="42.46871566772461" lon="-7.314036846160889">
        <ele>324.0</ele>
        <time>2019-04-27T07:11:54.000Z</time>
      </trkpt>
      <trkpt lat="42.46874237060547" lon="-7.3141045570373535">
        <ele>324.0</ele>
        <time>2019-04-27T07:11:58.000Z</time>
      </trkpt>
      <trkpt lat="42.468772888183594" lon="-7.3141770362854">
        <ele>324.0</ele>
        <time>2019-04-27T07:12:02.000Z</time>
      </trkpt>
      <trkpt lat="42.46878433227539" lon="-7.314213752746582">
        <ele>324.0</ele>
        <time>2019-04-27T07:12:07.000Z</time>
      </trkpt>
      <trkpt lat="42.46879196166992" lon="-7.314239978790283">
        <ele>324.0</ele>
        <time>2019-04-27T07:12:11.000Z</time>
      </trkpt>
      <trkpt lat="42.46879196166992" lon="-7.314260005950928">
        <ele>325.0</ele>
        <time>2019-04-27T07:12:16.000Z</time>
      </trkpt>
      <trkpt lat="42.46879196166992" lon="-7.314276695251465">
        <ele>325.0</ele>
        <time>2019-04-27T07:12:21.000Z</time>
      </trkpt>
      <trkpt lat="42.46880340576172" lon="-7.314329624176025">
        <ele>325.0</ele>
        <time>2019-04-27T07:12:22.000Z</time>
      </trkpt>
      <trkpt lat="42.468875885009766" lon="-7.314605236053467">
        <ele>325.0</ele>
        <time>2019-04-27T07:12:29.000Z</time>
      </trkpt>
      <trkpt lat="42.46890640258789" lon="-7.314663410186768">
        <ele>326.0</ele>
        <time>2019-04-27T07:12:47.000Z</time>
      </trkpt>
      <trkpt lat="42.46892547607422" lon="-7.314697742462158">
        <ele>326.0</ele>
        <time>2019-04-27T07:12:48.000Z</time>
      </trkpt>
      <trkpt lat="42.46919250488281" lon="-7.314983367919922">
        <ele>321.0</ele>
        <time>2019-04-27T07:13:00.000Z</time>
      </trkpt>
      <trkpt lat="42.469276428222656" lon="-7.3151726722717285">
        <ele>320.0</ele>
        <time>2019-04-27T07:13:17.000Z</time>
      </trkpt>
      <trkpt lat="42.46934509277344" lon="-7.3153839111328125">
        <ele>321.0</ele>
        <time>2019-04-27T07:13:35.000Z</time>
      </trkpt>
      <trkpt lat="42.46937942504883" lon="-7.315489292144775">
        <ele>322.0</ele>
        <time>2019-04-27T07:13:42.000Z</time>
      </trkpt>
      <trkpt lat="42.46940994262695" lon="-7.315596103668213">
        <ele>323.0</ele>
        <time>2019-04-27T07:13:49.000Z</time>
      </trkpt>
      <trkpt lat="42.469444274902344" lon="-7.315704822540283">
        <ele>324.0</ele>
        <time>2019-04-27T07:13:56.000Z</time>
      </trkpt>
      <trkpt lat="42.46947479248047" lon="-7.315814018249512">
        <ele>326.0</ele>
        <time>2019-04-27T07:14:03.000Z</time>
      </trkpt>
      <trkpt lat="42.469520568847656" lon="-7.315913677215576">
        <ele>326.0</ele>
        <time>2019-04-27T07:14:10.000Z</time>
      </trkpt>
      <trkpt lat="42.46957015991211" lon="-7.316009998321533">
        <ele>327.0</ele>
        <time>2019-04-27T07:14:18.000Z</time>
      </trkpt>
      <trkpt lat="42.46961975097656" lon="-7.316103935241699">
        <ele>328.0</ele>
        <time>2019-04-27T07:14:25.000Z</time>
      </trkpt>
      <trkpt lat="42.46967315673828" lon="-7.316196918487549">
        <ele>328.0</ele>
        <time>2019-04-27T07:14:33.000Z</time>
      </trkpt>
      <trkpt lat="42.4697265625" lon="-7.316288948059082">
        <ele>329.0</ele>
        <time>2019-04-27T07:14:40.000Z</time>
      </trkpt>
      <trkpt lat="42.46977996826172" lon="-7.316380023956299">
        <ele>329.0</ele>
        <time>2019-04-27T07:14:48.000Z</time>
      </trkpt>
      <trkpt lat="42.4698371887207" lon="-7.316470146179199">
        <ele>330.0</ele>
        <time>2019-04-27T07:14:55.000Z</time>
      </trkpt>
      <trkpt lat="42.46989440917969" lon="-7.316559791564941">
        <ele>331.0</ele>
        <time>2019-04-27T07:15:03.000Z</time>
      </trkpt>
      <trkpt lat="42.46994400024414" lon="-7.316648960113525">
        <ele>332.0</ele>
        <time>2019-04-27T07:15:10.000Z</time>
      </trkpt>
      <trkpt lat="42.46999740600586" lon="-7.316737174987793">
        <ele>333.0</ele>
        <time>2019-04-27T07:15:17.000Z</time>
      </trkpt>
      <trkpt lat="42.47004699707031" lon="-7.3168253898620605">
        <ele>334.0</ele>
        <time>2019-04-27T07:15:24.000Z</time>
      </trkpt>
      <trkpt lat="42.470096588134766" lon="-7.31691312789917">
        <ele>335.0</ele>
        <time>2019-04-27T07:15:31.000Z</time>
      </trkpt>
      <trkpt lat="42.470115661621094" lon="-7.316946983337402">
        <ele>336.0</ele>
        <time>2019-04-27T07:15:35.000Z</time>
      </trkpt>
      <trkpt lat="42.47011947631836" lon="-7.316957473754883">
        <ele>336.0</ele>
        <time>2019-04-27T07:15:40.000Z</time>
      </trkpt>
      <trkpt lat="42.470115661621094" lon="-7.316953182220459">
        <ele>337.0</ele>
        <time>2019-04-27T07:15:44.000Z</time>
      </trkpt>
      <trkpt lat="42.47011184692383" lon="-7.316940784454346">
        <ele>337.0</ele>
        <time>2019-04-27T07:15:49.000Z</time>
      </trkpt>
      <trkpt lat="42.470123291015625" lon="-7.316962718963623">
        <ele>337.0</ele>
        <time>2019-04-27T07:15:50.000Z</time>
      </trkpt>
      <trkpt lat="42.470237731933594" lon="-7.317402362823486">
        <ele>339.0</ele>
        <time>2019-04-27T07:16:10.000Z</time>
      </trkpt>
      <trkpt lat="42.47041702270508" lon="-7.317812919616699">
        <ele>342.0</ele>
        <time>2019-04-27T07:16:35.000Z</time>
      </trkpt>
      <trkpt lat="42.47056579589844" lon="-7.31821346282959">
        <ele>346.0</ele>
        <time>2019-04-27T07:17:08.000Z</time>
      </trkpt>
      <trkpt lat="42.47066879272461" lon="-7.3183441162109375">
        <ele>346.0</ele>
        <time>2019-04-27T07:17:34.000Z</time>
      </trkpt>
      <trkpt lat="42.4707145690918" lon="-7.318399906158447">
        <ele>346.0</ele>
        <time>2019-04-27T07:17:35.000Z</time>
      </trkpt>
      <trkpt lat="42.47073745727539" lon="-7.318431854248047">
        <ele>347.0</ele>
        <time>2019-04-27T07:17:38.000Z</time>
      </trkpt>
      <trkpt lat="42.47074508666992" lon="-7.318445205688477">
        <ele>347.0</ele>
        <time>2019-04-27T07:17:42.000Z</time>
      </trkpt>
      <trkpt lat="42.47075271606445" lon="-7.318456649780273">
        <ele>347.0</ele>
        <time>2019-04-27T07:17:43.000Z</time>
      </trkpt>
      <trkpt lat="42.470890045166016" lon="-7.318698883056641">
        <ele>349.0</ele>
        <time>2019-04-27T07:17:54.000Z</time>
      </trkpt>
      <trkpt lat="42.47089385986328" lon="-7.318727493286133">
        <ele>353.0</ele>
        <time>2019-04-27T07:18:06.000Z</time>
      </trkpt>
      <trkpt lat="42.47090148925781" lon="-7.318750381469727">
        <ele>353.0</ele>
        <time>2019-04-27T07:18:07.000Z</time>
      </trkpt>
      <trkpt lat="42.470890045166016" lon="-7.319065570831299">
        <ele>355.0</ele>
        <time>2019-04-27T07:18:19.000Z</time>
      </trkpt>
      <trkpt lat="42.47090530395508" lon="-7.3191142082214355">
        <ele>355.0</ele>
        <time>2019-04-27T07:18:22.000Z</time>
      </trkpt>
      <trkpt lat="42.47092819213867" lon="-7.319150924682617">
        <ele>355.0</ele>
        <time>2019-04-27T07:18:25.000Z</time>
      </trkpt>
      <trkpt lat="42.47095489501953" lon="-7.319179058074951">
        <ele>356.0</ele>
        <time>2019-04-27T07:18:28.000Z</time>
      </trkpt>
      <trkpt lat="42.47098159790039" lon="-7.3192033767700195">
        <ele>356.0</ele>
        <time>2019-04-27T07:18:31.000Z</time>
      </trkpt>
      <trkpt lat="42.47099685668945" lon="-7.319223880767822">
        <ele>356.0</ele>
        <time>2019-04-27T07:18:32.000Z</time>
      </trkpt>
      <trkpt lat="42.471012115478516" lon="-7.319238185882568">
        <ele>357.0</ele>
        <time>2019-04-27T07:18:34.000Z</time>
      </trkpt>
      <trkpt lat="42.47101974487305" lon="-7.319248676300049">
        <ele>357.0</ele>
        <time>2019-04-27T07:18:35.000Z</time>
      </trkpt>
      <trkpt lat="42.471031188964844" lon="-7.3192572593688965">
        <ele>357.0</ele>
        <time>2019-04-27T07:18:37.000Z</time>
      </trkpt>
      <trkpt lat="42.47104263305664" lon="-7.319301128387451">
        <ele>357.0</ele>
        <time>2019-04-27T07:18:44.000Z</time>
      </trkpt>
      <trkpt lat="42.47105026245117" lon="-7.319352149963379">
        <ele>358.0</ele>
        <time>2019-04-27T07:18:52.000Z</time>
      </trkpt>
      <trkpt lat="42.47105407714844" lon="-7.319367408752441">
        <ele>358.0</ele>
        <time>2019-04-27T07:18:52.000Z</time>
      </trkpt>
      <trkpt lat="42.4710578918457" lon="-7.319379806518555">
        <ele>358.0</ele>
        <time>2019-04-27T07:18:52.000Z</time>
      </trkpt>
      <trkpt lat="42.47106170654297" lon="-7.319389820098877">
        <ele>358.0</ele>
        <time>2019-04-27T07:18:53.000Z</time>
      </trkpt>
      <trkpt lat="42.47106170654297" lon="-7.319398403167725">
        <ele>358.0</ele>
        <time>2019-04-27T07:18:53.000Z</time>
      </trkpt>
      <trkpt lat="42.4710693359375" lon="-7.319447994232178">
        <ele>359.0</ele>
        <time>2019-04-27T07:18:55.000Z</time>
      </trkpt>
      <trkpt lat="42.47107696533203" lon="-7.319513320922852">
        <ele>359.0</ele>
        <time>2019-04-27T07:18:57.000Z</time>
      </trkpt>
      <trkpt lat="42.47108459472656" lon="-7.319589138031006">
        <ele>360.0</ele>
        <time>2019-04-27T07:19:00.000Z</time>
      </trkpt>
      <trkpt lat="42.47109603881836" lon="-7.319670677185059">
        <ele>361.0</ele>
        <time>2019-04-27T07:19:02.000Z</time>
      </trkpt>
      <trkpt lat="42.47111129760742" lon="-7.319725513458252">
        <ele>361.0</ele>
        <time>2019-04-27T07:19:05.000Z</time>
      </trkpt>
      <trkpt lat="42.471134185791016" lon="-7.319774627685547">
        <ele>361.0</ele>
        <time>2019-04-27T07:19:08.000Z</time>
      </trkpt>
      <trkpt lat="42.47115707397461" lon="-7.319819927215576">
        <ele>361.0</ele>
        <time>2019-04-27T07:19:11.000Z</time>
      </trkpt>
      <trkpt lat="42.47118377685547" lon="-7.319863796234131">
        <ele>361.0</ele>
        <time>2019-04-27T07:19:14.000Z</time>
      </trkpt>
      <trkpt lat="42.471195220947266" lon="-7.320000171661377">
        <ele>362.0</ele>
        <time>2019-04-27T07:19:22.000Z</time>
      </trkpt>
      <trkpt lat="42.47119140625" lon="-7.320155143737793">
        <ele>363.0</ele>
        <time>2019-04-27T07:19:30.000Z</time>
      </trkpt>
      <trkpt lat="42.47121047973633" lon="-7.3202056884765625">
        <ele>363.0</ele>
        <time>2019-04-27T07:19:34.000Z</time>
      </trkpt>
      <trkpt lat="42.47123718261719" lon="-7.320247173309326">
        <ele>364.0</ele>
        <time>2019-04-27T07:19:38.000Z</time>
      </trkpt>
      <trkpt lat="42.47126770019531" lon="-7.320281982421875">
        <ele>364.0</ele>
        <time>2019-04-27T07:19:42.000Z</time>
      </trkpt>
      <trkpt lat="42.47129821777344" lon="-7.320313930511475">
        <ele>365.0</ele>
        <time>2019-04-27T07:19:46.000Z</time>
      </trkpt>
      <trkpt lat="42.471336364746094" lon="-7.320338249206543">
        <ele>365.0</ele>
        <time>2019-04-27T07:19:49.000Z</time>
      </trkpt>
      <trkpt lat="42.471370697021484" lon="-7.320336818695068">
        <ele>365.0</ele>
        <time>2019-04-27T07:19:53.000Z</time>
      </trkpt>
      <trkpt lat="42.47138214111328" lon="-7.3203864097595215">
        <ele>366.0</ele>
        <time>2019-04-27T07:19:56.000Z</time>
      </trkpt>
      <trkpt lat="42.47138977050781" lon="-7.320455074310303">
        <ele>366.0</ele>
        <time>2019-04-27T07:20:00.000Z</time>
      </trkpt>
      <trkpt lat="42.471397399902344" lon="-7.320535659790039">
        <ele>366.0</ele>
        <time>2019-04-27T07:20:03.000Z</time>
      </trkpt>
      <trkpt lat="42.47140121459961" lon="-7.320622444152832">
        <ele>367.0</ele>
        <time>2019-04-27T07:20:07.000Z</time>
      </trkpt>
      <trkpt lat="42.47142028808594" lon="-7.32066011428833">
        <ele>367.0</ele>
        <time>2019-04-27T07:20:10.000Z</time>
      </trkpt>
      <trkpt lat="42.4714469909668" lon="-7.320684432983398">
        <ele>367.0</ele>
        <time>2019-04-27T07:20:12.000Z</time>
      </trkpt>
      <trkpt lat="42.471473693847656" lon="-7.3206987380981445">
        <ele>366.0</ele>
        <time>2019-04-27T07:20:15.000Z</time>
      </trkpt>
      <trkpt lat="42.47150421142578" lon="-7.320708751678467">
        <ele>365.0</ele>
        <time>2019-04-27T07:20:18.000Z</time>
      </trkpt>
      <trkpt lat="42.4715461730957" lon="-7.320781230926514">
        <ele>365.0</ele>
        <time>2019-04-27T07:20:25.000Z</time>
      </trkpt>
      <trkpt lat="42.47159194946289" lon="-7.32087516784668">
        <ele>366.0</ele>
        <time>2019-04-27T07:20:32.000Z</time>
      </trkpt>
      <trkpt lat="42.47164535522461" lon="-7.320982933044434">
        <ele>366.0</ele>
        <time>2019-04-27T07:20:40.000Z</time>
      </trkpt>
      <trkpt lat="42.47169876098633" lon="-7.3210978507995605">
        <ele>366.0</ele>
        <time>2019-04-27T07:20:47.000Z</time>
      </trkpt>
      <trkpt lat="42.471736907958984" lon="-7.32120418548584">
        <ele>367.0</ele>
        <time>2019-04-27T07:20:55.000Z</time>
      </trkpt>
      <trkpt lat="42.47176742553711" lon="-7.321313858032227">
        <ele>368.0</ele>
        <time>2019-04-27T07:21:03.000Z</time>
      </trkpt>
      <trkpt lat="42.471797943115234" lon="-7.3214263916015625">
        <ele>370.0</ele>
        <time>2019-04-27T07:21:11.000Z</time>
      </trkpt>
      <trkpt lat="42.471824645996094" lon="-7.321539878845215">
        <ele>371.0</ele>
        <time>2019-04-27T07:21:19.000Z</time>
      </trkpt>
      <trkpt lat="42.47184753417969" lon="-7.321656227111816">
        <ele>372.0</ele>
        <time>2019-04-27T07:21:27.000Z</time>
      </trkpt>
      <trkpt lat="42.47187042236328" lon="-7.321774959564209">
        <ele>373.0</ele>
        <time>2019-04-27T07:21:34.000Z</time>
      </trkpt>
      <trkpt lat="42.471885681152344" lon="-7.321895122528076">
        <ele>374.0</ele>
        <time>2019-04-27T07:21:42.000Z</time>
      </trkpt>
      <trkpt lat="42.47190475463867" lon="-7.32201623916626">
        <ele>375.0</ele>
        <time>2019-04-27T07:21:50.000Z</time>
      </trkpt>
      <trkpt lat="42.471920013427734" lon="-7.322075843811035">
        <ele>376.0</ele>
        <time>2019-04-27T07:21:52.000Z</time>
      </trkpt>
      <trkpt lat="42.4719352722168" lon="-7.322110652923584">
        <ele>376.0</ele>
        <time>2019-04-27T07:21:55.000Z</time>
      </trkpt>
      <trkpt lat="42.47195053100586" lon="-7.322128772735596">
        <ele>376.0</ele>
        <time>2019-04-27T07:21:57.000Z</time>
      </trkpt>
      <trkpt lat="42.471961975097656" lon="-7.322138786315918">
        <ele>376.0</ele>
        <time>2019-04-27T07:22:00.000Z</time>
      </trkpt>
      <trkpt lat="42.471981048583984" lon="-7.322150707244873">
        <ele>376.0</ele>
        <time>2019-04-27T07:22:02.000Z</time>
      </trkpt>
      <trkpt lat="42.472007751464844" lon="-7.3221540451049805">
        <ele>377.0</ele>
        <time>2019-04-27T07:22:04.000Z</time>
      </trkpt>
      <trkpt lat="42.4720344543457" lon="-7.322152614593506">
        <ele>377.0</ele>
        <time>2019-04-27T07:22:07.000Z</time>
      </trkpt>
      <trkpt lat="42.47206115722656" lon="-7.322147846221924">
        <ele>377.0</ele>
        <time>2019-04-27T07:22:09.000Z</time>
      </trkpt>
      <trkpt lat="42.472076416015625" lon="-7.3221964836120605">
        <ele>378.0</ele>
        <time>2019-04-27T07:22:13.000Z</time>
      </trkpt>
      <trkpt lat="42.47208023071289" lon="-7.322264194488525">
        <ele>378.0</ele>
        <time>2019-04-27T07:22:16.000Z</time>
      </trkpt>
      <trkpt lat="42.472084045410156" lon="-7.322344779968262">
        <ele>379.0</ele>
        <time>2019-04-27T07:22:20.000Z</time>
      </trkpt>
      <trkpt lat="42.47208786010742" lon="-7.322432041168213">
        <ele>379.0</ele>
        <time>2019-04-27T07:22:24.000Z</time>
      </trkpt>
      <trkpt lat="42.47216033935547" lon="-7.322619915008545">
        <ele>382.0</ele>
        <time>2019-04-27T07:22:39.000Z</time>
      </trkpt>
      <trkpt lat="42.47226333618164" lon="-7.322828769683838">
        <ele>386.0</ele>
        <time>2019-04-27T07:22:54.000Z</time>
      </trkpt>
      <trkpt lat="42.47232437133789" lon="-7.322911262512207">
        <ele>387.0</ele>
        <time>2019-04-27T07:23:02.000Z</time>
      </trkpt>
      <trkpt lat="42.472389221191406" lon="-7.322986602783203">
        <ele>389.0</ele>
        <time>2019-04-27T07:23:10.000Z</time>
      </trkpt>
      <trkpt lat="42.47246170043945" lon="-7.323057174682617">
        <ele>390.0</ele>
        <time>2019-04-27T07:23:19.000Z</time>
      </trkpt>
      <trkpt lat="42.4725341796875" lon="-7.323125839233398">
        <ele>392.0</ele>
        <time>2019-04-27T07:23:27.000Z</time>
      </trkpt>
      <trkpt lat="42.47260665893555" lon="-7.323182106018066">
        <ele>392.0</ele>
        <time>2019-04-27T07:23:35.000Z</time>
      </trkpt>
      <trkpt lat="42.472679138183594" lon="-7.323231220245361">
        <ele>393.0</ele>
        <time>2019-04-27T07:23:43.000Z</time>
      </trkpt>
      <trkpt lat="42.47275161743164" lon="-7.323275089263916">
        <ele>393.0</ele>
        <time>2019-04-27T07:23:51.000Z</time>
      </trkpt>
      <trkpt lat="42.47282409667969" lon="-7.32331657409668">
        <ele>393.0</ele>
        <time>2019-04-27T07:23:59.000Z</time>
      </trkpt>
      <trkpt lat="42.47285461425781" lon="-7.32333517074585">
        <ele>392.0</ele>
        <time>2019-04-27T07:24:03.000Z</time>
      </trkpt>
      <trkpt lat="42.472869873046875" lon="-7.3233418464660645">
        <ele>392.0</ele>
        <time>2019-04-27T07:24:07.000Z</time>
      </trkpt>
      <trkpt lat="42.472869873046875" lon="-7.323339939117432">
        <ele>391.0</ele>
        <time>2019-04-27T07:24:12.000Z</time>
      </trkpt>
      <trkpt lat="42.472869873046875" lon="-7.323334217071533">
        <ele>391.0</ele>
        <time>2019-04-27T07:24:16.000Z</time>
      </trkpt>
      <trkpt lat="42.472877502441406" lon="-7.323337554931641">
        <ele>390.0</ele>
        <time>2019-04-27T07:24:16.000Z</time>
      </trkpt>
      <trkpt lat="42.47288513183594" lon="-7.32334041595459">
        <ele>390.0</ele>
        <time>2019-04-27T07:24:16.000Z</time>
      </trkpt>
      <trkpt lat="42.4728889465332" lon="-7.323343276977539">
        <ele>390.0</ele>
        <time>2019-04-27T07:24:17.000Z</time>
      </trkpt>
      <trkpt lat="42.472896575927734" lon="-7.32334566116333">
        <ele>391.0</ele>
        <time>2019-04-27T07:24:17.000Z</time>
      </trkpt>
      <trkpt lat="42.47295379638672" lon="-7.323358058929443">
        <ele>390.0</ele>
        <time>2019-04-27T07:24:23.000Z</time>
      </trkpt>
      <trkpt lat="42.47303009033203" lon="-7.323375225067139">
        <ele>390.0</ele>
        <time>2019-04-27T07:24:29.000Z</time>
      </trkpt>
      <trkpt lat="42.47311782836914" lon="-7.323394775390625">
        <ele>389.0</ele>
        <time>2019-04-27T07:24:35.000Z</time>
      </trkpt>
      <trkpt lat="42.47321701049805" lon="-7.323416233062744">
        <ele>389.0</ele>
        <time>2019-04-27T07:24:41.000Z</time>
      </trkpt>
      <trkpt lat="42.473506927490234" lon="-7.323454856872559">
        <ele>387.0</ele>
        <time>2019-04-27T07:25:08.000Z</time>
      </trkpt>
      <trkpt lat="42.47353744506836" lon="-7.3234686851501465">
        <ele>386.0</ele>
        <time>2019-04-27T07:25:24.000Z</time>
      </trkpt>
      <trkpt lat="42.47355651855469" lon="-7.323478698730469">
        <ele>386.0</ele>
        <time>2019-04-27T07:25:25.000Z</time>
      </trkpt>
      <trkpt lat="42.47365188598633" lon="-7.323526382446289">
        <ele>386.0</ele>
        <time>2019-04-27T07:25:30.000Z</time>
      </trkpt>
      <trkpt lat="42.473697662353516" lon="-7.323554515838623">
        <ele>384.0</ele>
        <time>2019-04-27T07:25:44.000Z</time>
      </trkpt>
      <trkpt lat="42.47372817993164" lon="-7.323572158813477">
        <ele>384.0</ele>
        <time>2019-04-27T07:25:45.000Z</time>
      </trkpt>
      <trkpt lat="42.474063873291016" lon="-7.323693752288818">
        <ele>384.0</ele>
        <time>2019-04-27T07:26:14.000Z</time>
      </trkpt>
      <trkpt lat="42.474082946777344" lon="-7.323687553405762">
        <ele>384.0</ele>
        <time>2019-04-27T07:26:37.000Z</time>
      </trkpt>
      <trkpt lat="42.47407150268555" lon="-7.323666095733643">
        <ele>384.0</ele>
        <time>2019-04-27T07:27:01.000Z</time>
      </trkpt>
      <trkpt lat="42.47404479980469" lon="-7.323634147644043">
        <ele>384.0</ele>
        <time>2019-04-27T07:27:24.000Z</time>
      </trkpt>
      <trkpt lat="42.4740104675293" lon="-7.323596954345703">
        <ele>384.0</ele>
        <time>2019-04-27T07:27:48.000Z</time>
      </trkpt>
      <trkpt lat="42.4739990234375" lon="-7.323578834533691">
        <ele>384.0</ele>
        <time>2019-04-27T07:27:48.000Z</time>
      </trkpt>
      <trkpt lat="42.47399139404297" lon="-7.3235626220703125">
        <ele>384.0</ele>
        <time>2019-04-27T07:27:48.000Z</time>
      </trkpt>
      <trkpt lat="42.47398376464844" lon="-7.323548316955566">
        <ele>384.0</ele>
        <time>2019-04-27T07:27:49.000Z</time>
      </trkpt>
      <trkpt lat="42.473976135253906" lon="-7.3235344886779785">
        <ele>384.0</ele>
        <time>2019-04-27T07:27:49.000Z</time>
      </trkpt>
      <trkpt lat="42.473968505859375" lon="-7.323521614074707">
        <ele>384.0</ele>
        <time>2019-04-27T07:27:50.000Z</time>
      </trkpt>
      <trkpt lat="42.473960876464844" lon="-7.323509216308594">
        <ele>384.0</ele>
        <time>2019-04-27T07:27:50.000Z</time>
      </trkpt>
      <trkpt lat="42.47395324707031" lon="-7.323497772216797">
        <ele>384.0</ele>
        <time>2019-04-27T07:27:51.000Z</time>
      </trkpt>
      <trkpt lat="42.47394943237305" lon="-7.323486804962158">
        <ele>384.0</ele>
        <time>2019-04-27T07:27:52.000Z</time>
      </trkpt>
      <trkpt lat="42.47393035888672" lon="-7.323455333709717">
        <ele>384.0</ele>
        <time>2019-04-27T07:28:04.000Z</time>
      </trkpt>
      <trkpt lat="42.473907470703125" lon="-7.323416233062744">
        <ele>384.0</ele>
        <time>2019-04-27T07:28:16.000Z</time>
      </trkpt>
      <trkpt lat="42.473876953125" lon="-7.323371887207031">
        <ele>384.0</ele>
        <time>2019-04-27T07:28:29.000Z</time>
      </trkpt>
      <trkpt lat="42.47385025024414" lon="-7.323324680328369">
        <ele>384.0</ele>
        <time>2019-04-27T07:28:41.000Z</time>
      </trkpt>
      <trkpt lat="42.47383117675781" lon="-7.3232951164245605">
        <ele>384.0</ele>
        <time>2019-04-27T07:28:41.000Z</time>
      </trkpt>
      <trkpt lat="42.47381591796875" lon="-7.323270320892334">
        <ele>384.0</ele>
        <time>2019-04-27T07:28:41.000Z</time>
      </trkpt>
      <trkpt lat="42.47380447387695" lon="-7.323248386383057">
        <ele>384.0</ele>
        <time>2019-04-27T07:28:42.000Z</time>
      </trkpt>
      <trkpt lat="42.47378921508789" lon="-7.323227882385254">
        <ele>384.0</ele>
        <time>2019-04-27T07:28:42.000Z</time>
      </trkpt>
      <trkpt lat="42.47377014160156" lon="-7.323194980621338">
        <ele>384.0</ele>
        <time>2019-04-27T07:28:42.000Z</time>
      </trkpt>
      <trkpt lat="42.473751068115234" lon="-7.323158264160156">
        <ele>384.0</ele>
        <time>2019-04-27T07:28:43.000Z</time>
      </trkpt>
      <trkpt lat="42.473724365234375" lon="-7.323119163513184">
        <ele>384.0</ele>
        <time>2019-04-27T07:28:43.000Z</time>
      </trkpt>
      <trkpt lat="42.47370147705078" lon="-7.323078632354736">
        <ele>384.0</ele>
        <time>2019-04-27T07:28:44.000Z</time>
      </trkpt>
      <trkpt lat="42.473670959472656" lon="-7.323023319244385">
        <ele>384.0</ele>
        <time>2019-04-27T07:28:45.000Z</time>
      </trkpt>
      <trkpt lat="42.4736328125" lon="-7.322974681854248">
        <ele>385.0</ele>
        <time>2019-04-27T07:28:49.000Z</time>
      </trkpt>
      <trkpt lat="42.473609924316406" lon="-7.322941303253174">
        <ele>385.0</ele>
        <time>2019-04-27T07:28:50.000Z</time>
      </trkpt>
      <trkpt lat="42.47350311279297" lon="-7.322805404663086">
        <ele>385.0</ele>
        <time>2019-04-27T07:28:55.000Z</time>
      </trkpt>
      <trkpt lat="42.47331619262695" lon="-7.322698593139648">
        <ele>387.0</ele>
        <time>2019-04-27T07:29:07.000Z</time>
      </trkpt>
      <trkpt lat="42.47331237792969" lon="-7.322695255279541">
        <ele>387.0</ele>
        <time>2019-04-27T07:29:08.000Z</time>
      </trkpt>
      <trkpt lat="42.47327423095703" lon="-7.322635650634766">
        <ele>394.0</ele>
        <time>2019-04-27T07:29:37.000Z</time>
      </trkpt>
      <trkpt lat="42.47324752807617" lon="-7.322597503662109">
        <ele>394.0</ele>
        <time>2019-04-27T07:29:38.000Z</time>
      </trkpt>
      <trkpt lat="42.47323226928711" lon="-7.322574138641357">
        <ele>394.0</ele>
        <time>2019-04-27T07:29:39.000Z</time>
      </trkpt>
      <trkpt lat="42.47315216064453" lon="-7.322478771209717">
        <ele>395.0</ele>
        <time>2019-04-27T07:29:48.000Z</time>
      </trkpt>
      <trkpt lat="42.473121643066406" lon="-7.322441101074219">
        <ele>395.0</ele>
        <time>2019-04-27T07:29:49.000Z</time>
      </trkpt>
      <trkpt lat="42.473079681396484" lon="-7.322394371032715">
        <ele>396.0</ele>
        <time>2019-04-27T07:29:50.000Z</time>
      </trkpt>
      <trkpt lat="42.47303771972656" lon="-7.322353363037109">
        <ele>396.0</ele>
        <time>2019-04-27T07:29:53.000Z</time>
      </trkpt>
      <trkpt lat="42.473026275634766" lon="-7.32232666015625">
        <ele>400.0</ele>
        <time>2019-04-27T07:30:11.000Z</time>
      </trkpt>
      <trkpt lat="42.4730224609375" lon="-7.322297096252441">
        <ele>406.0</ele>
        <time>2019-04-27T07:30:30.000Z</time>
      </trkpt>
      <trkpt lat="42.473018646240234" lon="-7.322285175323486">
        <ele>407.0</ele>
        <time>2019-04-27T07:30:30.000Z</time>
      </trkpt>
      <trkpt lat="42.47301483154297" lon="-7.322274208068848">
        <ele>407.0</ele>
        <time>2019-04-27T07:30:30.000Z</time>
      </trkpt>
      <trkpt lat="42.4730110168457" lon="-7.322263717651367">
        <ele>407.0</ele>
        <time>2019-04-27T07:30:31.000Z</time>
      </trkpt>
      <trkpt lat="42.47300720214844" lon="-7.322253704071045">
        <ele>406.0</ele>
        <time>2019-04-27T07:30:31.000Z</time>
      </trkpt>
      <trkpt lat="42.472984313964844" lon="-7.322177410125732">
        <ele>406.0</ele>
        <time>2019-04-27T07:30:32.000Z</time>
      </trkpt>
      <trkpt lat="42.47294616699219" lon="-7.322073459625244">
        <ele>406.0</ele>
        <time>2019-04-27T07:30:33.000Z</time>
      </trkpt>
      <trkpt lat="42.472904205322266" lon="-7.321951389312744">
        <ele>407.0</ele>
        <time>2019-04-27T07:30:35.000Z</time>
      </trkpt>
      <trkpt lat="42.47285842895508" lon="-7.321820259094238">
        <ele>407.0</ele>
        <time>2019-04-27T07:30:36.000Z</time>
      </trkpt>
      <trkpt lat="42.47283172607422" lon="-7.321735382080078">
        <ele>408.0</ele>
        <time>2019-04-27T07:30:41.000Z</time>
      </trkpt>
      <trkpt lat="42.472808837890625" lon="-7.32166051864624">
        <ele>408.0</ele>
        <time>2019-04-27T07:30:46.000Z</time>
      </trkpt>
      <trkpt lat="42.4727897644043" lon="-7.321591854095459">
        <ele>409.0</ele>
        <time>2019-04-27T07:30:52.000Z</time>
      </trkpt>
      <trkpt lat="42.47277069091797" lon="-7.321527004241943">
        <ele>410.0</ele>
        <time>2019-04-27T07:30:57.000Z</time>
      </trkpt>
      <trkpt lat="42.47276306152344" lon="-7.321495056152344">
        <ele>411.0</ele>
        <time>2019-04-27T07:31:01.000Z</time>
      </trkpt>
      <trkpt lat="42.47276306152344" lon="-7.3214802742004395">
        <ele>411.0</ele>
        <time>2019-04-27T07:31:06.000Z</time>
      </trkpt>
      <trkpt lat="42.4727668762207" lon="-7.321476936340332">
        <ele>412.0</ele>
        <time>2019-04-27T07:31:10.000Z</time>
      </trkpt>
      <trkpt lat="42.47277069091797" lon="-7.321479320526123">
        <ele>412.0</ele>
        <time>2019-04-27T07:31:15.000Z</time>
      </trkpt>
      <trkpt lat="42.47277069091797" lon="-7.321470260620117">
        <ele>412.0</ele>
        <time>2019-04-27T07:31:15.000Z</time>
      </trkpt>
      <trkpt lat="42.47277069091797" lon="-7.3214616775512695">
        <ele>412.0</ele>
        <time>2019-04-27T07:31:15.000Z</time>
      </trkpt>
      <trkpt lat="42.47277069091797" lon="-7.321454048156738">
        <ele>412.0</ele>
        <time>2019-04-27T07:31:16.000Z</time>
      </trkpt>
      <trkpt lat="42.4727668762207" lon="-7.321446418762207">
        <ele>412.0</ele>
        <time>2019-04-27T07:31:16.000Z</time>
      </trkpt>
      <trkpt lat="42.47275924682617" lon="-7.321079254150391">
        <ele>414.0</ele>
        <time>2019-04-27T07:31:32.000Z</time>
      </trkpt>
      <trkpt lat="42.472747802734375" lon="-7.320992946624756">
        <ele>417.0</ele>
        <time>2019-04-27T07:31:49.000Z</time>
      </trkpt>
      <trkpt lat="42.47274398803711" lon="-7.320950031280518">
        <ele>417.0</ele>
        <time>2019-04-27T07:31:50.000Z</time>
      </trkpt>
      <trkpt lat="42.472713470458984" lon="-7.320459365844727">
        <ele>421.0</ele>
        <time>2019-04-27T07:32:15.000Z</time>
      </trkpt>
      <trkpt lat="42.47274398803711" lon="-7.320178985595703">
        <ele>426.0</ele>
        <time>2019-04-27T07:32:39.000Z</time>
      </trkpt>
      <trkpt lat="42.47272872924805" lon="-7.320076942443848">
        <ele>428.0</ele>
        <time>2019-04-27T07:32:57.000Z</time>
      </trkpt>
      <trkpt lat="42.472721099853516" lon="-7.320033073425293">
        <ele>428.0</ele>
        <time>2019-04-27T07:32:58.000Z</time>
      </trkpt>
      <trkpt lat="42.472721099853516" lon="-7.320029258728027">
        <ele>429.0</ele>
        <time>2019-04-27T07:32:59.000Z</time>
      </trkpt>
      <trkpt lat="42.472721099853516" lon="-7.320007801055908">
        <ele>429.0</ele>
        <time>2019-04-27T07:33:08.000Z</time>
      </trkpt>
      <trkpt lat="42.472721099853516" lon="-7.319989204406738">
        <ele>429.0</ele>
        <time>2019-04-27T07:33:09.000Z</time>
      </trkpt>
      <trkpt lat="42.47274398803711" lon="-7.3195037841796875">
        <ele>429.0</ele>
        <time>2019-04-27T07:33:25.000Z</time>
      </trkpt>
      <trkpt lat="42.472713470458984" lon="-7.319023609161377">
        <ele>430.0</ele>
        <time>2019-04-27T07:33:55.000Z</time>
      </trkpt>
      <trkpt lat="42.47278594970703" lon="-7.318557262420654">
        <ele>434.0</ele>
        <time>2019-04-27T07:34:28.000Z</time>
      </trkpt>
      <trkpt lat="42.47283172607422" lon="-7.318084239959717">
        <ele>432.0</ele>
        <time>2019-04-27T07:35:02.000Z</time>
      </trkpt>
      <trkpt lat="42.47287368774414" lon="-7.317965030670166">
        <ele>432.0</ele>
        <time>2019-04-27T07:35:10.000Z</time>
      </trkpt>
      <trkpt lat="42.47292709350586" lon="-7.31790018081665">
        <ele>432.0</ele>
        <time>2019-04-27T07:35:18.000Z</time>
      </trkpt>
      <trkpt lat="42.47294998168945" lon="-7.317910671234131">
        <ele>431.0</ele>
        <time>2019-04-27T07:35:22.000Z</time>
      </trkpt>
      <trkpt lat="42.47297286987305" lon="-7.3179450035095215">
        <ele>431.0</ele>
        <time>2019-04-27T07:35:27.000Z</time>
      </trkpt>
      <trkpt lat="42.47299575805664" lon="-7.317995071411133">
        <ele>432.0</ele>
        <time>2019-04-27T07:35:31.000Z</time>
      </trkpt>
      <trkpt lat="42.473018646240234" lon="-7.318053245544434">
        <ele>432.0</ele>
        <time>2019-04-27T07:35:36.000Z</time>
      </trkpt>
      <trkpt lat="42.4730339050293" lon="-7.318112373352051">
        <ele>431.0</ele>
        <time>2019-04-27T07:35:52.000Z</time>
      </trkpt>
      <trkpt lat="42.4730339050293" lon="-7.3181633949279785">
        <ele>430.0</ele>
        <time>2019-04-27T07:36:09.000Z</time>
      </trkpt>
      <trkpt lat="42.47303771972656" lon="-7.318182945251465">
        <ele>430.0</ele>
        <time>2019-04-27T07:36:09.000Z</time>
      </trkpt>
      <trkpt lat="42.47303771972656" lon="-7.3181986808776855">
        <ele>430.0</ele>
        <time>2019-04-27T07:36:09.000Z</time>
      </trkpt>
      <trkpt lat="42.47304153442383" lon="-7.318212509155273">
        <ele>430.0</ele>
        <time>2019-04-27T07:36:10.000Z</time>
      </trkpt>
      <trkpt lat="42.47304153442383" lon="-7.318224906921387">
        <ele>430.0</ele>
        <time>2019-04-27T07:36:10.000Z</time>
      </trkpt>
      <trkpt lat="42.47304916381836" lon="-7.318310260772705">
        <ele>431.0</ele>
        <time>2019-04-27T07:36:15.000Z</time>
      </trkpt>
      <trkpt lat="42.47305679321289" lon="-7.31842565536499">
        <ele>431.0</ele>
        <time>2019-04-27T07:36:20.000Z</time>
      </trkpt>
      <trkpt lat="42.47306442260742" lon="-7.3185601234436035">
        <ele>431.0</ele>
        <time>2019-04-27T07:36:25.000Z</time>
      </trkpt>
      <trkpt lat="42.47307586669922" lon="-7.318704605102539">
        <ele>432.0</ele>
        <time>2019-04-27T07:36:30.000Z</time>
      </trkpt>
      <trkpt lat="42.47308349609375" lon="-7.318771839141846">
        <ele>432.0</ele>
        <time>2019-04-27T07:36:34.000Z</time>
      </trkpt>
      <trkpt lat="42.473087310791016" lon="-7.318816661834717">
        <ele>432.0</ele>
        <time>2019-04-27T07:36:37.000Z</time>
      </trkpt>
      <trkpt lat="42.47309112548828" lon="-7.318846702575684">
        <ele>432.0</ele>
        <time>2019-04-27T07:36:41.000Z</time>
      </trkpt>
      <trkpt lat="42.47309494018555" lon="-7.318869590759277">
        <ele>433.0</ele>
        <time>2019-04-27T07:36:45.000Z</time>
      </trkpt>
      <trkpt lat="42.47309875488281" lon="-7.31889533996582">
        <ele>433.0</ele>
        <time>2019-04-27T07:36:50.000Z</time>
      </trkpt>
      <trkpt lat="42.47309875488281" lon="-7.318914890289307">
        <ele>433.0</ele>
        <time>2019-04-27T07:36:54.000Z</time>
      </trkpt>
      <trkpt lat="42.47310256958008" lon="-7.318930149078369">
        <ele>434.0</ele>
        <time>2019-04-27T07:36:59.000Z</time>
      </trkpt>
      <trkpt lat="42.47310256958008" lon="-7.318943023681641">
        <ele>434.0</ele>
        <time>2019-04-27T07:37:04.000Z</time>
      </trkpt>
      <trkpt lat="42.47310256958008" lon="-7.318955898284912">
        <ele>435.0</ele>
        <time>2019-04-27T07:37:04.000Z</time>
      </trkpt>
      <trkpt lat="42.473106384277344" lon="-7.318966865539551">
        <ele>435.0</ele>
        <time>2019-04-27T07:37:04.000Z</time>
      </trkpt>
      <trkpt lat="42.473106384277344" lon="-7.318976402282715">
        <ele>435.0</ele>
        <time>2019-04-27T07:37:05.000Z</time>
      </trkpt>
      <trkpt lat="42.473106384277344" lon="-7.3189849853515625">
        <ele>434.0</ele>
        <time>2019-04-27T07:37:05.000Z</time>
      </trkpt>
      <trkpt lat="42.47317886352539" lon="-7.3194379806518555">
        <ele>436.0</ele>
        <time>2019-04-27T07:37:28.000Z</time>
      </trkpt>
      <trkpt lat="42.473243713378906" lon="-7.319899559020996">
        <ele>439.0</ele>
        <time>2019-04-27T07:38:02.000Z</time>
      </trkpt>
      <trkpt lat="42.47325897216797" lon="-7.320067405700684">
        <ele>440.0</ele>
        <time>2019-04-27T07:38:18.000Z</time>
      </trkpt>
      <trkpt lat="42.47327423095703" lon="-7.32016134262085">
        <ele>443.0</ele>
        <time>2019-04-27T07:38:34.000Z</time>
      </trkpt>
      <trkpt lat="42.47328186035156" lon="-7.320207595825195">
        <ele>443.0</ele>
        <time>2019-04-27T07:38:35.000Z</time>
      </trkpt>
      <trkpt lat="42.47341537475586" lon="-7.320586681365967">
        <ele>447.0</ele>
        <time>2019-04-27T07:39:02.000Z</time>
      </trkpt>
      <trkpt lat="42.47345733642578" lon="-7.320646286010742">
        <ele>447.0</ele>
        <time>2019-04-27T07:39:14.000Z</time>
      </trkpt>
      <trkpt lat="42.47348403930664" lon="-7.320645809173584">
        <ele>447.0</ele>
        <time>2019-04-27T07:39:26.000Z</time>
      </trkpt>
      <trkpt lat="42.47349548339844" lon="-7.320655345916748">
        <ele>447.0</ele>
        <time>2019-04-27T07:39:26.000Z</time>
      </trkpt>
      <trkpt lat="42.47350311279297" lon="-7.320662498474121">
        <ele>447.0</ele>
        <time>2019-04-27T07:39:26.000Z</time>
      </trkpt>
      <trkpt lat="42.473506927490234" lon="-7.3206682205200195">
        <ele>447.0</ele>
        <time>2019-04-27T07:39:27.000Z</time>
      </trkpt>
      <trkpt lat="42.473514556884766" lon="-7.32067346572876">
        <ele>447.0</ele>
        <time>2019-04-27T07:39:27.000Z</time>
      </trkpt>
      <trkpt lat="42.47356414794922" lon="-7.32072639465332">
        <ele>448.0</ele>
        <time>2019-04-27T07:39:33.000Z</time>
      </trkpt>
      <trkpt lat="42.473628997802734" lon="-7.320798873901367">
        <ele>448.0</ele>
        <time>2019-04-27T07:39:39.000Z</time>
      </trkpt>
      <trkpt lat="42.47370529174805" lon="-7.3208842277526855">
        <ele>449.0</ele>
        <time>2019-04-27T07:39:46.000Z</time>
      </trkpt>
      <trkpt lat="42.473785400390625" lon="-7.3209757804870605">
        <ele>449.0</ele>
        <time>2019-04-27T07:39:52.000Z</time>
      </trkpt>
      <trkpt lat="42.47385787963867" lon="-7.321043968200684">
        <ele>450.0</ele>
        <time>2019-04-27T07:40:01.000Z</time>
      </trkpt>
      <trkpt lat="42.47393035888672" lon="-7.321109294891357">
        <ele>450.0</ele>
        <time>2019-04-27T07:40:10.000Z</time>
      </trkpt>
      <trkpt lat="42.47400665283203" lon="-7.321172714233398">
        <ele>451.0</ele>
        <time>2019-04-27T07:40:20.000Z</time>
      </trkpt>
      <trkpt lat="42.47407913208008" lon="-7.321235179901123">
        <ele>451.0</ele>
        <time>2019-04-27T07:40:29.000Z</time>
      </trkpt>
      <trkpt lat="42.47416305541992" lon="-7.321273326873779">
        <ele>452.0</ele>
        <time>2019-04-27T07:40:37.000Z</time>
      </trkpt>
      <trkpt lat="42.47425079345703" lon="-7.321300506591797">
        <ele>452.0</ele>
        <time>2019-04-27T07:40:46.000Z</time>
      </trkpt>
      <trkpt lat="42.474342346191406" lon="-7.321320056915283">
        <ele>453.0</ele>
        <time>2019-04-27T07:40:54.000Z</time>
      </trkpt>
      <trkpt lat="42.47443389892578" lon="-7.321336269378662">
        <ele>454.0</ele>
        <time>2019-04-27T07:41:03.000Z</time>
      </trkpt>
      <trkpt lat="42.47452163696289" lon="-7.321368217468262">
        <ele>455.0</ele>
        <time>2019-04-27T07:41:11.000Z</time>
      </trkpt>
      <trkpt lat="42.474605560302734" lon="-7.3214030265808105">
        <ele>456.0</ele>
        <time>2019-04-27T07:41:20.000Z</time>
      </trkpt>
      <trkpt lat="42.474693298339844" lon="-7.321439743041992">
        <ele>457.0</ele>
        <time>2019-04-27T07:41:28.000Z</time>
      </trkpt>
      <trkpt lat="42.47477722167969" lon="-7.321476936340332">
        <ele>458.0</ele>
        <time>2019-04-27T07:41:37.000Z</time>
      </trkpt>
      <trkpt lat="42.47512435913086" lon="-7.321615695953369">
        <ele>463.0</ele>
        <time>2019-04-27T07:42:14.000Z</time>
      </trkpt>
      <trkpt lat="42.4754753112793" lon="-7.321710109710693">
        <ele>467.0</ele>
        <time>2019-04-27T07:42:49.000Z</time>
      </trkpt>
      <trkpt lat="42.47583770751953" lon="-7.321680068969727">
        <ele>473.0</ele>
        <time>2019-04-27T07:43:28.000Z</time>
      </trkpt>
      <trkpt lat="42.47599792480469" lon="-7.32158899307251">
        <ele>475.0</ele>
        <time>2019-04-27T07:43:46.000Z</time>
      </trkpt>
      <trkpt lat="42.47615051269531" lon="-7.321462631225586">
        <ele>477.0</ele>
        <time>2019-04-27T07:44:04.000Z</time>
      </trkpt>
      <trkpt lat="42.47623062133789" lon="-7.321402549743652">
        <ele>478.0</ele>
        <time>2019-04-27T07:44:12.000Z</time>
      </trkpt>
      <trkpt lat="42.4763069152832" lon="-7.3213396072387695">
        <ele>479.0</ele>
        <time>2019-04-27T07:44:21.000Z</time>
      </trkpt>
      <trkpt lat="42.476383209228516" lon="-7.321275234222412">
        <ele>479.0</ele>
        <time>2019-04-27T07:44:29.000Z</time>
      </trkpt>
      <trkpt lat="42.47645950317383" lon="-7.3212103843688965">
        <ele>479.0</ele>
        <time>2019-04-27T07:44:38.000Z</time>
      </trkpt>
      <trkpt lat="42.47652816772461" lon="-7.321134567260742">
        <ele>480.0</ele>
        <time>2019-04-27T07:44:46.000Z</time>
      </trkpt>
      <trkpt lat="42.47658920288086" lon="-7.321053504943848">
        <ele>480.0</ele>
        <time>2019-04-27T07:44:55.000Z</time>
      </trkpt>
      <trkpt lat="42.476654052734375" lon="-7.320969104766846">
        <ele>481.0</ele>
        <time>2019-04-27T07:45:03.000Z</time>
      </trkpt>
      <trkpt lat="42.476715087890625" lon="-7.320882797241211">
        <ele>481.0</ele>
        <time>2019-04-27T07:45:12.000Z</time>
      </trkpt>
      <trkpt lat="42.47687530517578" lon="-7.320797443389893">
        <ele>482.0</ele>
        <time>2019-04-27T07:45:27.000Z</time>
      </trkpt>
      <trkpt lat="42.477054595947266" lon="-7.320748329162598">
        <ele>482.0</ele>
        <time>2019-04-27T07:45:43.000Z</time>
      </trkpt>
      <trkpt lat="42.477142333984375" lon="-7.320740222930908">
        <ele>481.0</ele>
        <time>2019-04-27T07:45:51.000Z</time>
      </trkpt>
      <trkpt lat="42.477230072021484" lon="-7.320743083953857">
        <ele>481.0</ele>
        <time>2019-04-27T07:45:59.000Z</time>
      </trkpt>
      <trkpt lat="42.477317810058594" lon="-7.32075309753418">
        <ele>480.0</ele>
        <time>2019-04-27T07:46:08.000Z</time>
      </trkpt>
      <trkpt lat="42.47740173339844" lon="-7.320766448974609">
        <ele>480.0</ele>
        <time>2019-04-27T07:46:16.000Z</time>
      </trkpt>
      <trkpt lat="42.47748947143555" lon="-7.3207478523254395">
        <ele>479.0</ele>
        <time>2019-04-27T07:46:23.000Z</time>
      </trkpt>
      <trkpt lat="42.47757339477539" lon="-7.320718765258789">
        <ele>479.0</ele>
        <time>2019-04-27T07:46:30.000Z</time>
      </trkpt>
      <trkpt lat="42.477657318115234" lon="-7.32068395614624">
        <ele>479.0</ele>
        <time>2019-04-27T07:46:38.000Z</time>
      </trkpt>
      <trkpt lat="42.47774124145508" lon="-7.320645332336426">
        <ele>478.0</ele>
        <time>2019-04-27T07:46:45.000Z</time>
      </trkpt>
      <trkpt lat="42.47782897949219" lon="-7.320633411407471">
        <ele>478.0</ele>
        <time>2019-04-27T07:46:53.000Z</time>
      </trkpt>
      <trkpt lat="42.4779167175293" lon="-7.320629596710205">
        <ele>478.0</ele>
        <time>2019-04-27T07:47:01.000Z</time>
      </trkpt>
      <trkpt lat="42.47800827026367" lon="-7.32063102722168">
        <ele>479.0</ele>
        <time>2019-04-27T07:47:09.000Z</time>
      </trkpt>
      <trkpt lat="42.47809982299805" lon="-7.320634841918945">
        <ele>479.0</ele>
        <time>2019-04-27T07:47:17.000Z</time>
      </trkpt>
      <trkpt lat="42.47825622558594" lon="-7.32072114944458">
        <ele>481.0</ele>
        <time>2019-04-27T07:47:33.000Z</time>
      </trkpt>
      <trkpt lat="42.47840881347656" lon="-7.320850372314453">
        <ele>484.0</ele>
        <time>2019-04-27T07:47:50.000Z</time>
      </trkpt>
      <trkpt lat="42.47848892211914" lon="-7.320881366729736">
        <ele>485.0</ele>
        <time>2019-04-27T07:47:58.000Z</time>
      </trkpt>
      <trkpt lat="42.478572845458984" lon="-7.3209028244018555">
        <ele>487.0</ele>
        <time>2019-04-27T07:48:07.000Z</time>
      </trkpt>
      <trkpt lat="42.47865676879883" lon="-7.32091760635376">
        <ele>488.0</ele>
        <time>2019-04-27T07:48:15.000Z</time>
      </trkpt>
      <trkpt lat="42.47874069213867" lon="-7.320929527282715">
        <ele>489.0</ele>
        <time>2019-04-27T07:48:24.000Z</time>
      </trkpt>
      <trkpt lat="42.47882080078125" lon="-7.32096529006958">
        <ele>490.0</ele>
        <time>2019-04-27T07:48:31.000Z</time>
      </trkpt>
      <trkpt lat="42.478904724121094" lon="-7.32100772857666">
        <ele>491.0</ele>
        <time>2019-04-27T07:48:38.000Z</time>
      </trkpt>
      <trkpt lat="42.47898864746094" lon="-7.321054458618164">
        <ele>491.0</ele>
        <time>2019-04-27T07:48:45.000Z</time>
      </trkpt>
      <trkpt lat="42.47907257080078" lon="-7.321103096008301">
        <ele>492.0</ele>
        <time>2019-04-27T07:48:52.000Z</time>
      </trkpt>
      <trkpt lat="42.479156494140625" lon="-7.321133613586426">
        <ele>492.0</ele>
        <time>2019-04-27T07:49:00.000Z</time>
      </trkpt>
      <trkpt lat="42.479244232177734" lon="-7.3211588859558105">
        <ele>493.0</ele>
        <time>2019-04-27T07:49:09.000Z</time>
      </trkpt>
      <trkpt lat="42.47932815551758" lon="-7.32118034362793">
        <ele>495.0</ele>
        <time>2019-04-27T07:49:17.000Z</time>
      </trkpt>
      <trkpt lat="42.47941207885742" lon="-7.321199893951416">
        <ele>496.0</ele>
        <time>2019-04-27T07:49:26.000Z</time>
      </trkpt>
      <trkpt lat="42.47947311401367" lon="-7.321192264556885">
        <ele>498.0</ele>
        <time>2019-04-27T07:49:35.000Z</time>
      </trkpt>
      <trkpt lat="42.47948455810547" lon="-7.321157932281494">
        <ele>501.0</ele>
        <time>2019-04-27T07:49:45.000Z</time>
      </trkpt>
      <trkpt lat="42.4794921875" lon="-7.3211517333984375">
        <ele>501.0</ele>
        <time>2019-04-27T07:49:45.000Z</time>
      </trkpt>
      <trkpt lat="42.4795036315918" lon="-7.321146488189697">
        <ele>501.0</ele>
        <time>2019-04-27T07:49:45.000Z</time>
      </trkpt>
      <trkpt lat="42.47950744628906" lon="-7.321142673492432">
        <ele>501.0</ele>
        <time>2019-04-27T07:49:46.000Z</time>
      </trkpt>
      <trkpt lat="42.479515075683594" lon="-7.321139335632324">
        <ele>501.0</ele>
        <time>2019-04-27T07:49:46.000Z</time>
      </trkpt>
      <trkpt lat="42.479549407958984" lon="-7.321108341217041">
        <ele>501.0</ele>
        <time>2019-04-27T07:49:50.000Z</time>
      </trkpt>
      <trkpt lat="42.47959899902344" lon="-7.321065902709961">
        <ele>501.0</ele>
        <time>2019-04-27T07:49:53.000Z</time>
      </trkpt>
      <trkpt lat="42.47965621948242" lon="-7.321016311645508">
        <ele>502.0</ele>
        <time>2019-04-27T07:49:57.000Z</time>
      </trkpt>
      <trkpt lat="42.47972106933594" lon="-7.320963382720947">
        <ele>503.0</ele>
        <time>2019-04-27T07:50:01.000Z</time>
      </trkpt>
      <trkpt lat="42.47975540161133" lon="-7.320944309234619">
        <ele>504.0</ele>
        <time>2019-04-27T07:50:09.000Z</time>
      </trkpt>
      <trkpt lat="42.47978591918945" lon="-7.32093620300293">
        <ele>506.0</ele>
        <time>2019-04-27T07:50:16.000Z</time>
      </trkpt>
      <trkpt lat="42.47981262207031" lon="-7.320935249328613">
        <ele>508.0</ele>
        <time>2019-04-27T07:50:24.000Z</time>
      </trkpt>
      <trkpt lat="42.47983932495117" lon="-7.320937633514404">
        <ele>510.0</ele>
        <time>2019-04-27T07:50:32.000Z</time>
      </trkpt>
      <trkpt lat="42.4798583984375" lon="-7.3209333419799805">
        <ele>510.0</ele>
        <time>2019-04-27T07:50:32.000Z</time>
      </trkpt>
      <trkpt lat="42.4798698425293" lon="-7.320930480957031">
        <ele>510.0</ele>
        <time>2019-04-27T07:50:32.000Z</time>
      </trkpt>
      <trkpt lat="42.479881286621094" lon="-7.320928573608398">
        <ele>510.0</ele>
        <time>2019-04-27T07:50:33.000Z</time>
      </trkpt>
      <trkpt lat="42.479888916015625" lon="-7.320926666259766">
        <ele>510.0</ele>
        <time>2019-04-27T07:50:33.000Z</time>
      </trkpt>
      <trkpt lat="42.47992706298828" lon="-7.320922374725342">
        <ele>510.0</ele>
        <time>2019-04-27T07:50:35.000Z</time>
      </trkpt>
      <trkpt lat="42.47997283935547" lon="-7.320918560028076">
        <ele>510.0</ele>
        <time>2019-04-27T07:50:37.000Z</time>
      </trkpt>
      <trkpt lat="42.48002243041992" lon="-7.320913791656494">
        <ele>509.0</ele>
        <time>2019-04-27T07:50:40.000Z</time>
      </trkpt>
      <trkpt lat="42.480079650878906" lon="-7.320909023284912">
        <ele>509.0</ele>
        <time>2019-04-27T07:50:42.000Z</time>
      </trkpt>
      <trkpt lat="42.4801139831543" lon="-7.320929050445557">
        <ele>510.0</ele>
        <time>2019-04-27T07:51:02.000Z</time>
      </trkpt>
      <trkpt lat="42.480140686035156" lon="-7.3209428787231445">
        <ele>510.0</ele>
        <time>2019-04-27T07:51:03.000Z</time>
      </trkpt>
      <trkpt lat="42.48046875" lon="-7.321051597595215">
        <ele>512.0</ele>
        <time>2019-04-27T07:51:21.000Z</time>
      </trkpt>
      <trkpt lat="42.48051452636719" lon="-7.321092128753662">
        <ele>512.0</ele>
        <time>2019-04-27T07:51:27.000Z</time>
      </trkpt>
      <trkpt lat="42.48054504394531" lon="-7.32113790512085">
        <ele>513.0</ele>
        <time>2019-04-27T07:51:32.000Z</time>
      </trkpt>
      <trkpt lat="42.48056411743164" lon="-7.321187973022461">
        <ele>514.0</ele>
        <time>2019-04-27T07:51:38.000Z</time>
      </trkpt>
      <trkpt lat="42.48057556152344" lon="-7.321239948272705">
        <ele>514.0</ele>
        <time>2019-04-27T07:51:44.000Z</time>
      </trkpt>
      <trkpt lat="42.4805908203125" lon="-7.321262836456299">
        <ele>515.0</ele>
        <time>2019-04-27T07:51:50.000Z</time>
      </trkpt>
      <trkpt lat="42.480594635009766" lon="-7.3212761878967285">
        <ele>515.0</ele>
        <time>2019-04-27T07:51:55.000Z</time>
      </trkpt>
      <trkpt lat="42.48059844970703" lon="-7.321282386779785">
        <ele>515.0</ele>
        <time>2019-04-27T07:52:01.000Z</time>
      </trkpt>
      <trkpt lat="42.48059844970703" lon="-7.321285724639893">
        <ele>515.0</ele>
        <time>2019-04-27T07:52:07.000Z</time>
      </trkpt>
      <trkpt lat="42.48060607910156" lon="-7.321294784545898">
        <ele>515.0</ele>
        <time>2019-04-27T07:52:07.000Z</time>
      </trkpt>
      <trkpt lat="42.48060989379883" lon="-7.321302890777588">
        <ele>515.0</ele>
        <time>2019-04-27T07:52:07.000Z</time>
      </trkpt>
      <trkpt lat="42.480613708496094" lon="-7.321310997009277">
        <ele>515.0</ele>
        <time>2019-04-27T07:52:08.000Z</time>
      </trkpt>
      <trkpt lat="42.48061752319336" lon="-7.32131814956665">
        <ele>515.0</ele>
        <time>2019-04-27T07:52:08.000Z</time>
      </trkpt>
      <trkpt lat="42.48062515258789" lon="-7.321334362030029">
        <ele>515.0</ele>
        <time>2019-04-27T07:52:09.000Z</time>
      </trkpt>
      <trkpt lat="42.48063278198242" lon="-7.321353912353516">
        <ele>515.0</ele>
        <time>2019-04-27T07:52:10.000Z</time>
      </trkpt>
      <trkpt lat="42.48064041137695" lon="-7.321375846862793">
        <ele>515.0</ele>
        <time>2019-04-27T07:52:11.000Z</time>
      </trkpt>
      <trkpt lat="42.48065185546875" lon="-7.321399211883545">
        <ele>515.0</ele>
        <time>2019-04-27T07:52:12.000Z</time>
      </trkpt>
      <trkpt lat="42.48065948486328" lon="-7.321413516998291">
        <ele>515.0</ele>
        <time>2019-04-27T07:52:15.000Z</time>
      </trkpt>
      <trkpt lat="42.48066711425781" lon="-7.321425437927246">
        <ele>515.0</ele>
        <time>2019-04-27T07:52:17.000Z</time>
      </trkpt>
      <trkpt lat="42.480674743652344" lon="-7.321435451507568">
        <ele>515.0</ele>
        <time>2019-04-27T07:52:20.000Z</time>
      </trkpt>
      <trkpt lat="42.480682373046875" lon="-7.321444988250732">
        <ele>515.0</ele>
        <time>2019-04-27T07:52:23.000Z</time>
      </trkpt>
      <trkpt lat="42.48068618774414" lon="-7.32145357131958">
        <ele>515.0</ele>
        <time>2019-04-27T07:52:23.000Z</time>
      </trkpt>
      <trkpt lat="42.480690002441406" lon="-7.321461200714111">
        <ele>515.0</ele>
        <time>2019-04-27T07:52:23.000Z</time>
      </trkpt>
      <trkpt lat="42.48069381713867" lon="-7.321467876434326">
        <ele>515.0</ele>
        <time>2019-04-27T07:52:24.000Z</time>
      </trkpt>
      <trkpt lat="42.48069763183594" lon="-7.321474552154541">
        <ele>515.0</ele>
        <time>2019-04-27T07:52:24.000Z</time>
      </trkpt>
      <trkpt lat="42.48080062866211" lon="-7.321630477905273">
        <ele>515.0</ele>
        <time>2019-04-27T07:52:31.000Z</time>
      </trkpt>
      <trkpt lat="42.4808464050293" lon="-7.321707248687744">
        <ele>520.0</ele>
        <time>2019-04-27T07:53:05.000Z</time>
      </trkpt>
      <trkpt lat="42.48087692260742" lon="-7.321754455566406">
        <ele>520.0</ele>
        <time>2019-04-27T07:53:06.000Z</time>
      </trkpt>
      <trkpt lat="42.480934143066406" lon="-7.321853160858154">
        <ele>521.0</ele>
        <time>2019-04-27T07:53:09.000Z</time>
      </trkpt>
      <trkpt lat="42.48093795776367" lon="-7.321863174438477">
        <ele>524.0</ele>
        <time>2019-04-27T07:53:18.000Z</time>
      </trkpt>
      <trkpt lat="42.48094177246094" lon="-7.321872234344482">
        <ele>524.0</ele>
        <time>2019-04-27T07:53:19.000Z</time>
      </trkpt>
      <trkpt lat="42.48097229003906" lon="-7.321998119354248">
        <ele>525.0</ele>
        <time>2019-04-27T07:53:25.000Z</time>
      </trkpt>
      <trkpt lat="42.48100662231445" lon="-7.322142124176025">
        <ele>526.0</ele>
        <time>2019-04-27T07:53:33.000Z</time>
      </trkpt>
      <trkpt lat="42.48101806640625" lon="-7.322183609008789">
        <ele>526.0</ele>
        <time>2019-04-27T07:53:34.000Z</time>
      </trkpt>
      <trkpt lat="42.48104476928711" lon="-7.322279930114746">
        <ele>526.0</ele>
        <time>2019-04-27T07:53:38.000Z</time>
      </trkpt>
      <trkpt lat="42.48105239868164" lon="-7.32228946685791">
        <ele>531.0</ele>
        <time>2019-04-27T07:54:19.000Z</time>
      </trkpt>
      <trkpt lat="42.48106002807617" lon="-7.322299003601074">
        <ele>531.0</ele>
        <time>2019-04-27T07:54:20.000Z</time>
      </trkpt>
      <trkpt lat="42.48116683959961" lon="-7.322455883026123">
        <ele>532.0</ele>
        <time>2019-04-27T07:54:26.000Z</time>
      </trkpt>
      <trkpt lat="42.481204986572266" lon="-7.3225250244140625">
        <ele>532.0</ele>
        <time>2019-04-27T07:54:33.000Z</time>
      </trkpt>
      <trkpt lat="42.481224060058594" lon="-7.3225603103637695">
        <ele>532.0</ele>
        <time>2019-04-27T07:54:34.000Z</time>
      </trkpt>
      <trkpt lat="42.48123550415039" lon="-7.3225789070129395">
        <ele>532.0</ele>
        <time>2019-04-27T07:54:35.000Z</time>
      </trkpt>
      <trkpt lat="42.481239318847656" lon="-7.322581768035889">
        <ele>532.0</ele>
        <time>2019-04-27T07:54:40.000Z</time>
      </trkpt>
      <trkpt lat="42.481239318847656" lon="-7.322581768035889">
        <ele>533.0</ele>
        <time>2019-04-27T07:54:45.000Z</time>
      </trkpt>
      <trkpt lat="42.48124313354492" lon="-7.322582244873047">
        <ele>533.0</ele>
        <time>2019-04-27T07:54:45.000Z</time>
      </trkpt>
      <trkpt lat="42.48124313354492" lon="-7.322583198547363">
        <ele>533.0</ele>
        <time>2019-04-27T07:54:45.000Z</time>
      </trkpt>
      <trkpt lat="42.48124313354492" lon="-7.3225836753845215">
        <ele>533.0</ele>
        <time>2019-04-27T07:54:46.000Z</time>
      </trkpt>
      <trkpt lat="42.48124694824219" lon="-7.32258415222168">
        <ele>533.0</ele>
        <time>2019-04-27T07:54:46.000Z</time>
      </trkpt>
      <trkpt lat="42.48130416870117" lon="-7.322596073150635">
        <ele>533.0</ele>
        <time>2019-04-27T07:54:48.000Z</time>
      </trkpt>
      <trkpt lat="42.481388092041016" lon="-7.322612762451172">
        <ele>533.0</ele>
        <time>2019-04-27T07:54:50.000Z</time>
      </trkpt>
      <trkpt lat="42.481483459472656" lon="-7.322632312774658">
        <ele>533.0</ele>
        <time>2019-04-27T07:54:53.000Z</time>
      </trkpt>
      <trkpt lat="42.481590270996094" lon="-7.322653770446777">
        <ele>533.0</ele>
        <time>2019-04-27T07:54:55.000Z</time>
      </trkpt>
      <trkpt lat="42.481651306152344" lon="-7.322649955749512">
        <ele>533.0</ele>
        <time>2019-04-27T07:54:59.000Z</time>
      </trkpt>
      <trkpt lat="42.48169708251953" lon="-7.322637557983398">
        <ele>533.0</ele>
        <time>2019-04-27T07:55:03.000Z</time>
      </trkpt>
      <trkpt lat="42.48173522949219" lon="-7.3226189613342285">
        <ele>533.0</ele>
        <time>2019-04-27T07:55:07.000Z</time>
      </trkpt>
      <trkpt lat="42.48176956176758" lon="-7.322597980499268">
        <ele>533.0</ele>
        <time>2019-04-27T07:55:11.000Z</time>
      </trkpt>
      <trkpt lat="42.48179244995117" lon="-7.322594165802002">
        <ele>532.0</ele>
        <time>2019-04-27T07:55:18.000Z</time>
      </trkpt>
      <trkpt lat="42.481807708740234" lon="-7.322595119476318">
        <ele>532.0</ele>
        <time>2019-04-27T07:55:24.000Z</time>
      </trkpt>
      <trkpt lat="42.48181915283203" lon="-7.322598934173584">
        <ele>531.0</ele>
        <time>2019-04-27T07:55:31.000Z</time>
      </trkpt>
      <trkpt lat="42.48182678222656" lon="-7.322603702545166">
        <ele>531.0</ele>
        <time>2019-04-27T07:55:38.000Z</time>
      </trkpt>
      <trkpt lat="42.48183822631836" lon="-7.322605133056641">
        <ele>531.0</ele>
        <time>2019-04-27T07:55:38.000Z</time>
      </trkpt>
      <trkpt lat="42.48184585571289" lon="-7.322606086730957">
        <ele>531.0</ele>
        <time>2019-04-27T07:55:38.000Z</time>
      </trkpt>
      <trkpt lat="42.48185348510742" lon="-7.322606563568115">
        <ele>531.0</ele>
        <time>2019-04-27T07:55:39.000Z</time>
      </trkpt>
      <trkpt lat="42.48186111450195" lon="-7.322607517242432">
        <ele>531.0</ele>
        <time>2019-04-27T07:55:39.000Z</time>
      </trkpt>
      <trkpt lat="42.48189926147461" lon="-7.322607517242432">
        <ele>531.0</ele>
        <time>2019-04-27T07:55:41.000Z</time>
      </trkpt>
      <trkpt lat="42.481964111328125" lon="-7.322582244873047">
        <ele>531.0</ele>
        <time>2019-04-27T07:55:50.000Z</time>
      </trkpt>
      <trkpt lat="42.481998443603516" lon="-7.322568416595459">
        <ele>531.0</ele>
        <time>2019-04-27T07:55:51.000Z</time>
      </trkpt>
      <trkpt lat="42.48226547241211" lon="-7.322364330291748">
        <ele>533.0</ele>
        <time>2019-04-27T07:56:11.000Z</time>
      </trkpt>
      <trkpt lat="42.48234176635742" lon="-7.322329521179199">
        <ele>537.0</ele>
        <time>2019-04-27T07:56:30.000Z</time>
      </trkpt>
      <trkpt lat="42.48237609863281" lon="-7.322314262390137">
        <ele>537.0</ele>
        <time>2019-04-27T07:56:31.000Z</time>
      </trkpt>
      <trkpt lat="42.482452392578125" lon="-7.322268009185791">
        <ele>538.0</ele>
        <time>2019-04-27T07:56:35.000Z</time>
      </trkpt>
      <trkpt lat="42.48245620727539" lon="-7.322274684906006">
        <ele>539.0</ele>
        <time>2019-04-27T07:56:47.000Z</time>
      </trkpt>
      <trkpt lat="42.482452392578125" lon="-7.322288990020752">
        <ele>541.0</ele>
        <time>2019-04-27T07:56:58.000Z</time>
      </trkpt>
      <trkpt lat="42.482444763183594" lon="-7.32230806350708">
        <ele>544.0</ele>
        <time>2019-04-27T07:57:10.000Z</time>
      </trkpt>
      <trkpt lat="42.4824333190918" lon="-7.322329998016357">
        <ele>547.0</ele>
        <time>2019-04-27T07:57:22.000Z</time>
      </trkpt>
      <trkpt lat="42.48242950439453" lon="-7.322341442108154">
        <ele>548.0</ele>
        <time>2019-04-27T07:57:22.000Z</time>
      </trkpt>
      <trkpt lat="42.482425689697266" lon="-7.322350978851318">
        <ele>548.0</ele>
        <time>2019-04-27T07:57:22.000Z</time>
      </trkpt>
      <trkpt lat="42.482421875" lon="-7.322359085083008">
        <ele>548.0</ele>
        <time>2019-04-27T07:57:23.000Z</time>
      </trkpt>
      <trkpt lat="42.482421875" lon="-7.322366714477539">
        <ele>547.0</ele>
        <time>2019-04-27T07:57:23.000Z</time>
      </trkpt>
      <trkpt lat="42.4824104309082" lon="-7.322404861450195">
        <ele>547.0</ele>
        <time>2019-04-27T07:57:26.000Z</time>
      </trkpt>
      <trkpt lat="42.48239517211914" lon="-7.322455406188965">
        <ele>548.0</ele>
        <time>2019-04-27T07:57:28.000Z</time>
      </trkpt>
      <trkpt lat="42.48237991333008" lon="-7.322513580322266">
        <ele>548.0</ele>
        <time>2019-04-27T07:57:31.000Z</time>
      </trkpt>
      <trkpt lat="42.48236083984375" lon="-7.32257604598999">
        <ele>548.0</ele>
        <time>2019-04-27T07:57:34.000Z</time>
      </trkpt>
      <trkpt lat="42.48234558105469" lon="-7.322604656219482">
        <ele>548.0</ele>
        <time>2019-04-27T07:57:38.000Z</time>
      </trkpt>
      <trkpt lat="42.48233413696289" lon="-7.322624206542969">
        <ele>548.0</ele>
        <time>2019-04-27T07:57:43.000Z</time>
      </trkpt>
      <trkpt lat="42.482322692871094" lon="-7.322636604309082">
        <ele>548.0</ele>
        <time>2019-04-27T07:57:47.000Z</time>
      </trkpt>
      <trkpt lat="42.4823112487793" lon="-7.322646141052246">
        <ele>548.0</ele>
        <time>2019-04-27T07:57:52.000Z</time>
      </trkpt>
      <trkpt lat="42.482303619384766" lon="-7.322657585144043">
        <ele>548.0</ele>
        <time>2019-04-27T07:57:52.000Z</time>
      </trkpt>
      <trkpt lat="42.482295989990234" lon="-7.322666645050049">
        <ele>548.0</ele>
        <time>2019-04-27T07:57:52.000Z</time>
      </trkpt>
      <trkpt lat="42.48229217529297" lon="-7.322673320770264">
        <ele>548.0</ele>
        <time>2019-04-27T07:57:53.000Z</time>
      </trkpt>
      <trkpt lat="42.4822883605957" lon="-7.32267951965332">
        <ele>548.0</ele>
        <time>2019-04-27T07:57:53.000Z</time>
      </trkpt>
      <trkpt lat="42.48225784301758" lon="-7.322713851928711">
        <ele>548.0</ele>
        <time>2019-04-27T07:57:56.000Z</time>
      </trkpt>
      <trkpt lat="42.48222351074219" lon="-7.322759628295898">
        <ele>547.0</ele>
        <time>2019-04-27T07:57:59.000Z</time>
      </trkpt>
      <trkpt lat="42.482181549072266" lon="-7.322812080383301">
        <ele>547.0</ele>
        <time>2019-04-27T07:58:03.000Z</time>
      </trkpt>
      <trkpt lat="42.48213577270508" lon="-7.322868347167969">
        <ele>547.0</ele>
        <time>2019-04-27T07:58:06.000Z</time>
      </trkpt>
      <trkpt lat="42.48209762573242" lon="-7.322933197021484">
        <ele>548.0</ele>
        <time>2019-04-27T07:58:20.000Z</time>
      </trkpt>
      <trkpt lat="42.482078552246094" lon="-7.322967529296875">
        <ele>548.0</ele>
        <time>2019-04-27T07:58:21.000Z</time>
      </trkpt>
      <trkpt lat="42.4820442199707" lon="-7.323062419891357">
        <ele>548.0</ele>
        <time>2019-04-27T07:58:26.000Z</time>
      </trkpt>
      <trkpt lat="42.48200225830078" lon="-7.3231892585754395">
        <ele>548.0</ele>
        <time>2019-04-27T07:58:41.000Z</time>
      </trkpt>
      <trkpt lat="42.48198699951172" lon="-7.323231220245361">
        <ele>548.0</ele>
        <time>2019-04-27T07:58:42.000Z</time>
      </trkpt>
      <trkpt lat="42.481971740722656" lon="-7.323284149169922">
        <ele>548.0</ele>
        <time>2019-04-27T07:58:45.000Z</time>
      </trkpt>
      <trkpt lat="42.48194885253906" lon="-7.32333517074585">
        <ele>548.0</ele>
        <time>2019-04-27T07:59:03.000Z</time>
      </trkpt>
      <trkpt lat="42.48193359375" lon="-7.323368072509766">
        <ele>548.0</ele>
        <time>2019-04-27T07:59:04.000Z</time>
      </trkpt>
      <trkpt lat="42.48174285888672" lon="-7.323737621307373">
        <ele>550.0</ele>
        <time>2019-04-27T07:59:28.000Z</time>
      </trkpt>
      <trkpt lat="42.48167037963867" lon="-7.323831081390381">
        <ele>551.0</ele>
        <time>2019-04-27T07:59:38.000Z</time>
      </trkpt>
      <trkpt lat="42.48161315917969" lon="-7.323964595794678">
        <ele>553.0</ele>
        <time>2019-04-27T08:00:02.000Z</time>
      </trkpt>
      <trkpt lat="42.481590270996094" lon="-7.324018478393555">
        <ele>553.0</ele>
        <time>2019-04-27T08:00:03.000Z</time>
      </trkpt>
      <trkpt lat="42.481529235839844" lon="-7.324380397796631">
        <ele>555.0</ele>
        <time>2019-04-27T08:00:24.000Z</time>
      </trkpt>
      <trkpt lat="42.48153305053711" lon="-7.324409484863281">
        <ele>556.0</ele>
        <time>2019-04-27T08:00:29.000Z</time>
      </trkpt>
      <trkpt lat="42.481544494628906" lon="-7.324412822723389">
        <ele>556.0</ele>
        <time>2019-04-27T08:00:34.000Z</time>
      </trkpt>
      <trkpt lat="42.48155975341797" lon="-7.324398994445801">
        <ele>557.0</ele>
        <time>2019-04-27T08:00:39.000Z</time>
      </trkpt>
      <trkpt lat="42.48157501220703" lon="-7.324376583099365">
        <ele>558.0</ele>
        <time>2019-04-27T08:00:44.000Z</time>
      </trkpt>
      <trkpt lat="42.48158645629883" lon="-7.324375629425049">
        <ele>558.0</ele>
        <time>2019-04-27T08:00:44.000Z</time>
      </trkpt>
      <trkpt lat="42.48159408569336" lon="-7.324374675750732">
        <ele>558.0</ele>
        <time>2019-04-27T08:00:44.000Z</time>
      </trkpt>
      <trkpt lat="42.48160171508789" lon="-7.324374198913574">
        <ele>558.0</ele>
        <time>2019-04-27T08:00:45.000Z</time>
      </trkpt>
      <trkpt lat="42.481605529785156" lon="-7.324373722076416">
        <ele>558.0</ele>
        <time>2019-04-27T08:00:45.000Z</time>
      </trkpt>
      <trkpt lat="42.481666564941406" lon="-7.3243536949157715">
        <ele>558.0</ele>
        <time>2019-04-27T08:00:49.000Z</time>
      </trkpt>
      <trkpt lat="42.48175048828125" lon="-7.324326038360596">
        <ele>558.0</ele>
        <time>2019-04-27T08:00:53.000Z</time>
      </trkpt>
      <trkpt lat="42.481849670410156" lon="-7.3242926597595215">
        <ele>558.0</ele>
        <time>2019-04-27T08:00:58.000Z</time>
      </trkpt>
      <trkpt lat="42.48195266723633" lon="-7.324256420135498">
        <ele>558.0</ele>
        <time>2019-04-27T08:01:02.000Z</time>
      </trkpt>
      <trkpt lat="42.48203659057617" lon="-7.324206352233887">
        <ele>558.0</ele>
        <time>2019-04-27T08:01:10.000Z</time>
      </trkpt>
      <trkpt lat="42.482112884521484" lon="-7.324147701263428">
        <ele>558.0</ele>
        <time>2019-04-27T08:01:18.000Z</time>
      </trkpt>
      <trkpt lat="42.4821891784668" lon="-7.32408332824707">
        <ele>558.0</ele>
        <time>2019-04-27T08:01:26.000Z</time>
      </trkpt>
      <trkpt lat="42.482261657714844" lon="-7.3240156173706055">
        <ele>558.0</ele>
        <time>2019-04-27T08:01:34.000Z</time>
      </trkpt>
      <trkpt lat="42.482303619384766" lon="-7.323977947235107">
        <ele>558.0</ele>
        <time>2019-04-27T08:01:38.000Z</time>
      </trkpt>
      <trkpt lat="42.482330322265625" lon="-7.323948860168457">
        <ele>558.0</ele>
        <time>2019-04-27T08:01:41.000Z</time>
      </trkpt>
      <trkpt lat="42.48234939575195" lon="-7.3239264488220215">
        <ele>558.0</ele>
        <time>2019-04-27T08:01:45.000Z</time>
      </trkpt>
      <trkpt lat="42.48236083984375" lon="-7.323907375335693">
        <ele>558.0</ele>
        <time>2019-04-27T08:01:49.000Z</time>
      </trkpt>
      <trkpt lat="42.48237609863281" lon="-7.323889255523682">
        <ele>559.0</ele>
        <time>2019-04-27T08:01:59.000Z</time>
      </trkpt>
      <trkpt lat="42.48238754272461" lon="-7.3238749504089355">
        <ele>559.0</ele>
        <time>2019-04-27T08:02:09.000Z</time>
      </trkpt>
      <trkpt lat="42.48239517211914" lon="-7.3238630294799805">
        <ele>559.0</ele>
        <time>2019-04-27T08:02:20.000Z</time>
      </trkpt>
      <trkpt lat="42.482398986816406" lon="-7.3238525390625">
        <ele>559.0</ele>
        <time>2019-04-27T08:02:30.000Z</time>
      </trkpt>
      <trkpt lat="42.482425689697266" lon="-7.323814392089844">
        <ele>559.0</ele>
        <time>2019-04-27T08:02:31.000Z</time>
      </trkpt>
      <trkpt lat="42.48257827758789" lon="-7.323644638061523">
        <ele>560.0</ele>
        <time>2019-04-27T08:02:37.000Z</time>
      </trkpt>
      <trkpt lat="42.48265838623047" lon="-7.323619842529297">
        <ele>561.0</ele>
        <time>2019-04-27T08:02:41.000Z</time>
      </trkpt>
      <trkpt lat="42.48273849487305" lon="-7.323622703552246">
        <ele>561.0</ele>
        <time>2019-04-27T08:02:45.000Z</time>
      </trkpt>
      <trkpt lat="42.48276901245117" lon="-7.323618412017822">
        <ele>561.0</ele>
        <time>2019-04-27T08:02:47.000Z</time>
      </trkpt>
      <trkpt lat="42.4827880859375" lon="-7.323614597320557">
        <ele>562.0</ele>
        <time>2019-04-27T08:02:50.000Z</time>
      </trkpt>
      <trkpt lat="42.48280715942383" lon="-7.323610782623291">
        <ele>562.0</ele>
        <time>2019-04-27T08:02:52.000Z</time>
      </trkpt>
      <trkpt lat="42.482826232910156" lon="-7.323607444763184">
        <ele>562.0</ele>
        <time>2019-04-27T08:02:55.000Z</time>
      </trkpt>
      <trkpt lat="42.48286819458008" lon="-7.323611736297607">
        <ele>563.0</ele>
        <time>2019-04-27T08:03:02.000Z</time>
      </trkpt>
      <trkpt lat="42.48291778564453" lon="-7.323619365692139">
        <ele>563.0</ele>
        <time>2019-04-27T08:03:09.000Z</time>
      </trkpt>
      <trkpt lat="42.48297882080078" lon="-7.323628902435303">
        <ele>563.0</ele>
        <time>2019-04-27T08:03:17.000Z</time>
      </trkpt>
      <trkpt lat="42.483036041259766" lon="-7.323639392852783">
        <ele>564.0</ele>
        <time>2019-04-27T08:03:24.000Z</time>
      </trkpt>
      <trkpt lat="42.48306655883789" lon="-7.323643684387207">
        <ele>564.0</ele>
        <time>2019-04-27T08:03:24.000Z</time>
      </trkpt>
      <trkpt lat="42.48308181762695" lon="-7.323646068572998">
        <ele>564.0</ele>
        <time>2019-04-27T08:03:24.000Z</time>
      </trkpt>
      <trkpt lat="42.483089447021484" lon="-7.323647499084473">
        <ele>564.0</ele>
        <time>2019-04-27T08:03:25.000Z</time>
      </trkpt>
      <trkpt lat="42.483097076416016" lon="-7.323648452758789">
        <ele>564.0</ele>
        <time>2019-04-27T08:03:25.000Z</time>
      </trkpt>
      <trkpt lat="42.483131408691406" lon="-7.323660850524902">
        <ele>564.0</ele>
        <time>2019-04-27T08:03:28.000Z</time>
      </trkpt>
      <trkpt lat="42.483177185058594" lon="-7.323678493499756">
        <ele>564.0</ele>
        <time>2019-04-27T08:03:30.000Z</time>
      </trkpt>
      <trkpt lat="42.48323059082031" lon="-7.323698997497559">
        <ele>564.0</ele>
        <time>2019-04-27T08:03:33.000Z</time>
      </trkpt>
      <trkpt lat="42.48328399658203" lon="-7.323720455169678">
        <ele>564.0</ele>
        <time>2019-04-27T08:03:36.000Z</time>
      </trkpt>
      <trkpt lat="42.483314514160156" lon="-7.323738098144531">
        <ele>565.0</ele>
        <time>2019-04-27T08:03:40.000Z</time>
      </trkpt>
      <trkpt lat="42.483333587646484" lon="-7.323755741119385">
        <ele>565.0</ele>
        <time>2019-04-27T08:03:44.000Z</time>
      </trkpt>
      <trkpt lat="42.48334884643555" lon="-7.323773384094238">
        <ele>566.0</ele>
        <time>2019-04-27T08:03:49.000Z</time>
      </trkpt>
      <trkpt lat="42.483360290527344" lon="-7.323790550231934">
        <ele>566.0</ele>
        <time>2019-04-27T08:03:53.000Z</time>
      </trkpt>
      <trkpt lat="42.48339080810547" lon="-7.323818206787109">
        <ele>566.0</ele>
        <time>2019-04-27T08:03:54.000Z</time>
      </trkpt>
      <trkpt lat="42.48357391357422" lon="-7.323957443237305">
        <ele>567.0</ele>
        <time>2019-04-27T08:04:09.000Z</time>
      </trkpt>
      <trkpt lat="42.483680725097656" lon="-7.323992729187012">
        <ele>571.0</ele>
        <time>2019-04-27T08:04:37.000Z</time>
      </trkpt>
      <trkpt lat="42.483726501464844" lon="-7.324007511138916">
        <ele>571.0</ele>
        <time>2019-04-27T08:04:38.000Z</time>
      </trkpt>
      <trkpt lat="42.48378372192383" lon="-7.324018955230713">
        <ele>572.0</ele>
        <time>2019-04-27T08:04:42.000Z</time>
      </trkpt>
      <trkpt lat="42.483856201171875" lon="-7.324004173278809">
        <ele>573.0</ele>
        <time>2019-04-27T08:04:54.000Z</time>
      </trkpt>
      <trkpt lat="42.483890533447266" lon="-7.3239970207214355">
        <ele>573.0</ele>
        <time>2019-04-27T08:04:55.000Z</time>
      </trkpt>
      <trkpt lat="42.484230041503906" lon="-7.323849201202393">
        <ele>573.0</ele>
        <time>2019-04-27T08:05:22.000Z</time>
      </trkpt>
      <trkpt lat="42.48452377319336" lon="-7.323568344116211">
        <ele>574.0</ele>
        <time>2019-04-27T08:05:54.000Z</time>
      </trkpt>
      <trkpt lat="42.484527587890625" lon="-7.323565483093262">
        <ele>574.0</ele>
        <time>2019-04-27T08:05:57.000Z</time>
      </trkpt>
      <trkpt lat="42.48466873168945" lon="-7.323545932769775">
        <ele>575.0</ele>
        <time>2019-04-27T08:06:18.000Z</time>
      </trkpt>
      <trkpt lat="42.484703063964844" lon="-7.323541164398193">
        <ele>575.0</ele>
        <time>2019-04-27T08:06:19.000Z</time>
      </trkpt>
      <trkpt lat="42.48472213745117" lon="-7.323541641235352">
        <ele>575.0</ele>
        <time>2019-04-27T08:06:22.000Z</time>
      </trkpt>
      <trkpt lat="42.484737396240234" lon="-7.323541641235352">
        <ele>576.0</ele>
        <time>2019-04-27T08:06:33.000Z</time>
      </trkpt>
      <trkpt lat="42.48474884033203" lon="-7.323541641235352">
        <ele>576.0</ele>
        <time>2019-04-27T08:06:34.000Z</time>
      </trkpt>
      <trkpt lat="42.48508834838867" lon="-7.323489189147949">
        <ele>576.0</ele>
        <time>2019-04-27T08:06:48.000Z</time>
      </trkpt>
      <trkpt lat="42.48516082763672" lon="-7.323437213897705">
        <ele>576.0</ele>
        <time>2019-04-27T08:06:56.000Z</time>
      </trkpt>
      <trkpt lat="42.48519515991211" lon="-7.323373794555664">
        <ele>576.0</ele>
        <time>2019-04-27T08:07:04.000Z</time>
      </trkpt>
      <trkpt lat="42.48521041870117" lon="-7.323363304138184">
        <ele>577.0</ele>
        <time>2019-04-27T08:07:08.000Z</time>
      </trkpt>
      <trkpt lat="42.4852180480957" lon="-7.323360443115234">
        <ele>577.0</ele>
        <time>2019-04-27T08:07:11.000Z</time>
      </trkpt>
      <trkpt lat="42.48522186279297" lon="-7.323362827301025">
        <ele>577.0</ele>
        <time>2019-04-27T08:07:15.000Z</time>
      </trkpt>
      <trkpt lat="42.485225677490234" lon="-7.323367595672607">
        <ele>578.0</ele>
        <time>2019-04-27T08:07:19.000Z</time>
      </trkpt>
      <trkpt lat="42.485233306884766" lon="-7.323366641998291">
        <ele>578.0</ele>
        <time>2019-04-27T08:07:19.000Z</time>
      </trkpt>
      <trkpt lat="42.48523712158203" lon="-7.323365211486816">
        <ele>578.0</ele>
        <time>2019-04-27T08:07:19.000Z</time>
      </trkpt>
      <trkpt lat="42.4852409362793" lon="-7.3233642578125">
        <ele>578.0</ele>
        <time>2019-04-27T08:07:20.000Z</time>
      </trkpt>
      <trkpt lat="42.48524856567383" lon="-7.323363304138184">
        <ele>578.0</ele>
        <time>2019-04-27T08:07:20.000Z</time>
      </trkpt>
      <trkpt lat="42.48530578613281" lon="-7.3233442306518555">
        <ele>578.0</ele>
        <time>2019-04-27T08:07:25.000Z</time>
      </trkpt>
      <trkpt lat="42.485389709472656" lon="-7.323317527770996">
        <ele>578.0</ele>
        <time>2019-04-27T08:07:30.000Z</time>
      </trkpt>
      <trkpt lat="42.4854850769043" lon="-7.3232855796813965">
        <ele>579.0</ele>
        <time>2019-04-27T08:07:35.000Z</time>
      </trkpt>
      <trkpt lat="42.485591888427734" lon="-7.323251724243164">
        <ele>580.0</ele>
        <time>2019-04-27T08:07:40.000Z</time>
      </trkpt>
      <trkpt lat="42.48562240600586" lon="-7.323240280151367">
        <ele>580.0</ele>
        <time>2019-04-27T08:07:41.000Z</time>
      </trkpt>
      <trkpt lat="42.48563003540039" lon="-7.323235511779785">
        <ele>580.0</ele>
        <time>2019-04-27T08:07:42.000Z</time>
      </trkpt>
      <trkpt lat="42.485626220703125" lon="-7.323235511779785">
        <ele>580.0</ele>
        <time>2019-04-27T08:07:43.000Z</time>
      </trkpt>
      <trkpt lat="42.48561096191406" lon="-7.323237895965576">
        <ele>580.0</ele>
        <time>2019-04-27T08:07:44.000Z</time>
      </trkpt>
      <trkpt lat="42.48563003540039" lon="-7.323233127593994">
        <ele>580.0</ele>
        <time>2019-04-27T08:07:51.000Z</time>
      </trkpt>
      <trkpt lat="42.485652923583984" lon="-7.3232269287109375">
        <ele>580.0</ele>
        <time>2019-04-27T08:07:59.000Z</time>
      </trkpt>
      <trkpt lat="42.48568344116211" lon="-7.323220252990723">
        <ele>581.0</ele>
        <time>2019-04-27T08:08:06.000Z</time>
      </trkpt>
      <trkpt lat="42.485713958740234" lon="-7.323213577270508">
        <ele>581.0</ele>
        <time>2019-04-27T08:08:14.000Z</time>
      </trkpt>
      <trkpt lat="42.48576354980469" lon="-7.323202610015869">
        <ele>581.0</ele>
        <time>2019-04-27T08:08:15.000Z</time>
      </trkpt>
      <trkpt lat="42.48600769042969" lon="-7.323147296905518">
        <ele>582.0</ele>
        <time>2019-04-27T08:08:24.000Z</time>
      </trkpt>
      <trkpt lat="42.486106872558594" lon="-7.323088645935059">
        <ele>582.0</ele>
        <time>2019-04-27T08:08:43.000Z</time>
      </trkpt>
      <trkpt lat="42.48613739013672" lon="-7.323070526123047">
        <ele>582.0</ele>
        <time>2019-04-27T08:08:44.000Z</time>
      </trkpt>
      <trkpt lat="42.48636245727539" lon="-7.322919845581055">
        <ele>581.0</ele>
        <time>2019-04-27T08:08:57.000Z</time>
      </trkpt>
      <trkpt lat="42.48640060424805" lon="-7.322895050048828">
        <ele>584.0</ele>
        <time>2019-04-27T08:09:16.000Z</time>
      </trkpt>
      <trkpt lat="42.486427307128906" lon="-7.322877883911133">
        <ele>584.0</ele>
        <time>2019-04-27T08:09:17.000Z</time>
      </trkpt>
      <trkpt lat="42.486698150634766" lon="-7.322597980499268">
        <ele>586.0</ele>
        <time>2019-04-27T08:09:36.000Z</time>
      </trkpt>
      <trkpt lat="42.48692321777344" lon="-7.3222198486328125">
        <ele>588.0</ele>
        <time>2019-04-27T08:10:08.000Z</time>
      </trkpt>
      <trkpt lat="42.48710632324219" lon="-7.321969985961914">
        <ele>586.0</ele>
        <time>2019-04-27T08:10:37.000Z</time>
      </trkpt>
      <trkpt lat="42.48719787597656" lon="-7.321880340576172">
        <ele>588.0</ele>
        <time>2019-04-27T08:11:12.000Z</time>
      </trkpt>
      <trkpt lat="42.48722457885742" lon="-7.3218536376953125">
        <ele>588.0</ele>
        <time>2019-04-27T08:11:13.000Z</time>
      </trkpt>
      <trkpt lat="42.48734664916992" lon="-7.321831703186035">
        <ele>596.0</ele>
        <time>2019-04-27T08:25:33.000Z</time>
      </trkpt>
      <trkpt lat="42.48735427856445" lon="-7.321810245513916">
        <ele>596.0</ele>
        <time>2019-04-27T08:25:38.000Z</time>
      </trkpt>
      <trkpt lat="42.487361907958984" lon="-7.321810722351074">
        <ele>596.0</ele>
        <time>2019-04-27T08:25:53.000Z</time>
      </trkpt>
      <trkpt lat="42.48737335205078" lon="-7.321814060211182">
        <ele>596.0</ele>
        <time>2019-04-27T08:26:08.000Z</time>
      </trkpt>
      <trkpt lat="42.48738479614258" lon="-7.321818828582764">
        <ele>596.0</ele>
        <time>2019-04-27T08:26:23.000Z</time>
      </trkpt>
      <trkpt lat="42.487396240234375" lon="-7.321824550628662">
        <ele>596.0</ele>
        <time>2019-04-27T08:26:39.000Z</time>
      </trkpt>
      <trkpt lat="42.48740768432617" lon="-7.321827411651611">
        <ele>596.0</ele>
        <time>2019-04-27T08:26:39.000Z</time>
      </trkpt>
      <trkpt lat="42.48741149902344" lon="-7.321829795837402">
        <ele>596.0</ele>
        <time>2019-04-27T08:26:39.000Z</time>
      </trkpt>
      <trkpt lat="42.48741912841797" lon="-7.321832180023193">
        <ele>596.0</ele>
        <time>2019-04-27T08:26:39.000Z</time>
      </trkpt>
      <trkpt lat="42.487422943115234" lon="-7.321834087371826">
        <ele>596.0</ele>
        <time>2019-04-27T08:26:40.000Z</time>
      </trkpt>
      <trkpt lat="42.48748779296875" lon="-7.321853160858154">
        <ele>596.0</ele>
        <time>2019-04-27T08:26:46.000Z</time>
      </trkpt>
      <trkpt lat="42.487571716308594" lon="-7.321878910064697">
        <ele>596.0</ele>
        <time>2019-04-27T08:26:52.000Z</time>
      </trkpt>
      <trkpt lat="42.4876708984375" lon="-7.321909427642822">
        <ele>597.0</ele>
        <time>2019-04-27T08:26:58.000Z</time>
      </trkpt>
      <trkpt lat="42.4877815246582" lon="-7.321942329406738">
        <ele>597.0</ele>
        <time>2019-04-27T08:27:04.000Z</time>
      </trkpt>
      <trkpt lat="42.48786926269531" lon="-7.321961402893066">
        <ele>598.0</ele>
        <time>2019-04-27T08:27:14.000Z</time>
      </trkpt>
      <trkpt lat="42.48796081542969" lon="-7.321977615356445">
        <ele>598.0</ele>
        <time>2019-04-27T08:27:25.000Z</time>
      </trkpt>
      <trkpt lat="42.4880485534668" lon="-7.321991443634033">
        <ele>599.0</ele>
        <time>2019-04-27T08:27:35.000Z</time>
      </trkpt>
      <trkpt lat="42.48814010620117" lon="-7.322004318237305">
        <ele>599.0</ele>
        <time>2019-04-27T08:27:46.000Z</time>
      </trkpt>
      <trkpt lat="42.48822021484375" lon="-7.322042465209961">
        <ele>599.0</ele>
        <time>2019-04-27T08:27:54.000Z</time>
      </trkpt>
      <trkpt lat="42.48830032348633" lon="-7.322090148925781">
        <ele>599.0</ele>
        <time>2019-04-27T08:28:03.000Z</time>
      </trkpt>
      <trkpt lat="42.48837661743164" lon="-7.322144508361816">
        <ele>599.0</ele>
        <time>2019-04-27T08:28:12.000Z</time>
      </trkpt>
      <trkpt lat="42.48845291137695" lon="-7.322201728820801">
        <ele>599.0</ele>
        <time>2019-04-27T08:28:21.000Z</time>
      </trkpt>
      <trkpt lat="42.488525390625" lon="-7.322269439697266">
        <ele>597.0</ele>
        <time>2019-04-27T08:28:28.000Z</time>
      </trkpt>
      <trkpt lat="42.488590240478516" lon="-7.3223443031311035">
        <ele>594.0</ele>
        <time>2019-04-27T08:28:35.000Z</time>
      </trkpt>
      <trkpt lat="42.48865509033203" lon="-7.322424411773682">
        <ele>591.0</ele>
        <time>2019-04-27T08:28:42.000Z</time>
      </trkpt>
      <trkpt lat="42.48871612548828" lon="-7.322506904602051">
        <ele>588.0</ele>
        <time>2019-04-27T08:28:50.000Z</time>
      </trkpt>
      <trkpt lat="42.48900604248047" lon="-7.322793960571289">
        <ele>584.0</ele>
        <time>2019-04-27T08:29:26.000Z</time>
      </trkpt>
      <trkpt lat="42.48907470703125" lon="-7.322815895080566">
        <ele>583.0</ele>
        <time>2019-04-27T08:29:31.000Z</time>
      </trkpt>
      <trkpt lat="42.489139556884766" lon="-7.322817325592041">
        <ele>583.0</ele>
        <time>2019-04-27T08:29:36.000Z</time>
      </trkpt>
      <trkpt lat="42.48920822143555" lon="-7.3228044509887695">
        <ele>582.0</ele>
        <time>2019-04-27T08:29:41.000Z</time>
      </trkpt>
      <trkpt lat="42.48927307128906" lon="-7.322784423828125">
        <ele>582.0</ele>
        <time>2019-04-27T08:29:47.000Z</time>
      </trkpt>
      <trkpt lat="42.48933410644531" lon="-7.322747707366943">
        <ele>580.0</ele>
        <time>2019-04-27T08:29:54.000Z</time>
      </trkpt>
      <trkpt lat="42.489356994628906" lon="-7.322695732116699">
        <ele>578.0</ele>
        <time>2019-04-27T08:30:01.000Z</time>
      </trkpt>
      <trkpt lat="42.4893798828125" lon="-7.322657585144043">
        <ele>577.0</ele>
        <time>2019-04-27T08:30:06.000Z</time>
      </trkpt>
      <trkpt lat="42.48940658569336" lon="-7.322612762451172">
        <ele>576.0</ele>
        <time>2019-04-27T08:30:11.000Z</time>
      </trkpt>
      <trkpt lat="42.48942947387695" lon="-7.322563171386719">
        <ele>575.0</ele>
        <time>2019-04-27T08:30:16.000Z</time>
      </trkpt>
      <trkpt lat="42.48945617675781" lon="-7.322511672973633">
        <ele>575.0</ele>
        <time>2019-04-27T08:30:22.000Z</time>
      </trkpt>
      <trkpt lat="42.489463806152344" lon="-7.322447776794434">
        <ele>574.0</ele>
        <time>2019-04-27T08:30:28.000Z</time>
      </trkpt>
      <trkpt lat="42.489463806152344" lon="-7.322376251220703">
        <ele>573.0</ele>
        <time>2019-04-27T08:30:35.000Z</time>
      </trkpt>
      <trkpt lat="42.48945617675781" lon="-7.322299480438232">
        <ele>572.0</ele>
        <time>2019-04-27T08:30:41.000Z</time>
      </trkpt>
      <trkpt lat="42.48944854736328" lon="-7.322220325469971">
        <ele>572.0</ele>
        <time>2019-04-27T08:30:48.000Z</time>
      </trkpt>
      <trkpt lat="42.48945999145508" lon="-7.322119235992432">
        <ele>571.0</ele>
        <time>2019-04-27T08:30:57.000Z</time>
      </trkpt>
      <trkpt lat="42.48947525024414" lon="-7.322006702423096">
        <ele>571.0</ele>
        <time>2019-04-27T08:31:06.000Z</time>
      </trkpt>
      <trkpt lat="42.48949432373047" lon="-7.321885585784912">
        <ele>571.0</ele>
        <time>2019-04-27T08:31:15.000Z</time>
      </trkpt>
      <trkpt lat="42.4895133972168" lon="-7.321760654449463">
        <ele>570.0</ele>
        <time>2019-04-27T08:31:24.000Z</time>
      </trkpt>
      <trkpt lat="42.48954391479492" lon="-7.321652889251709">
        <ele>570.0</ele>
        <time>2019-04-27T08:31:32.000Z</time>
      </trkpt>
      <trkpt lat="42.48957824707031" lon="-7.321547508239746">
        <ele>569.0</ele>
        <time>2019-04-27T08:31:41.000Z</time>
      </trkpt>
      <trkpt lat="42.48961639404297" lon="-7.321444511413574">
        <ele>568.0</ele>
        <time>2019-04-27T08:31:49.000Z</time>
      </trkpt>
      <trkpt lat="42.489654541015625" lon="-7.321342468261719">
        <ele>568.0</ele>
        <time>2019-04-27T08:31:58.000Z</time>
      </trkpt>
      <trkpt lat="42.489681243896484" lon="-7.3212809562683105">
        <ele>567.0</ele>
        <time>2019-04-27T08:32:03.000Z</time>
      </trkpt>
      <trkpt lat="42.48970031738281" lon="-7.321237564086914">
        <ele>567.0</ele>
        <time>2019-04-27T08:32:09.000Z</time>
      </trkpt>
      <trkpt lat="42.489715576171875" lon="-7.321206092834473">
        <ele>566.0</ele>
        <time>2019-04-27T08:32:15.000Z</time>
      </trkpt>
      <trkpt lat="42.48973083496094" lon="-7.32118034362793">
        <ele>566.0</ele>
        <time>2019-04-27T08:32:21.000Z</time>
      </trkpt>
      <trkpt lat="42.489742279052734" lon="-7.321161270141602">
        <ele>566.0</ele>
        <time>2019-04-27T08:32:27.000Z</time>
      </trkpt>
      <trkpt lat="42.489749908447266" lon="-7.321151256561279">
        <ele>565.0</ele>
        <time>2019-04-27T08:32:33.000Z</time>
      </trkpt>
      <trkpt lat="42.48975372314453" lon="-7.3211469650268555">
        <ele>565.0</ele>
        <time>2019-04-27T08:32:39.000Z</time>
      </trkpt>
      <trkpt lat="42.48976135253906" lon="-7.321145534515381">
        <ele>565.0</ele>
        <time>2019-04-27T08:32:45.000Z</time>
      </trkpt>
      <trkpt lat="42.48976516723633" lon="-7.321138381958008">
        <ele>565.0</ele>
        <time>2019-04-27T08:32:45.000Z</time>
      </trkpt>
      <trkpt lat="42.489768981933594" lon="-7.321132183074951">
        <ele>565.0</ele>
        <time>2019-04-27T08:32:45.000Z</time>
      </trkpt>
      <trkpt lat="42.489776611328125" lon="-7.321126937866211">
        <ele>565.0</ele>
        <time>2019-04-27T08:32:45.000Z</time>
      </trkpt>
      <trkpt lat="42.48978042602539" lon="-7.3211212158203125">
        <ele>565.0</ele>
        <time>2019-04-27T08:32:46.000Z</time>
      </trkpt>
      <trkpt lat="42.489837646484375" lon="-7.321048259735107">
        <ele>565.0</ele>
        <time>2019-04-27T08:32:50.000Z</time>
      </trkpt>
      <trkpt lat="42.4898796081543" lon="-7.3210062980651855">
        <ele>564.0</ele>
        <time>2019-04-27T08:33:05.000Z</time>
      </trkpt>
      <trkpt lat="42.48991012573242" lon="-7.320979118347168">
        <ele>564.0</ele>
        <time>2019-04-27T08:33:06.000Z</time>
      </trkpt>
      <trkpt lat="42.4901123046875" lon="-7.320818901062012">
        <ele>563.0</ele>
        <time>2019-04-27T08:33:11.000Z</time>
      </trkpt>
      <trkpt lat="42.490238189697266" lon="-7.32077169418335">
        <ele>563.0</ele>
        <time>2019-04-27T08:33:19.000Z</time>
      </trkpt>
      <trkpt lat="42.49058532714844" lon="-7.320680618286133">
        <ele>560.0</ele>
        <time>2019-04-27T08:33:47.000Z</time>
      </trkpt>
      <trkpt lat="42.49071502685547" lon="-7.3205976486206055">
        <ele>559.0</ele>
        <time>2019-04-27T08:33:57.000Z</time>
      </trkpt>
      <trkpt lat="42.490814208984375" lon="-7.320597171783447">
        <ele>556.0</ele>
        <time>2019-04-27T08:34:09.000Z</time>
      </trkpt>
      <trkpt lat="42.490928649902344" lon="-7.320615768432617">
        <ele>553.0</ele>
        <time>2019-04-27T08:34:21.000Z</time>
      </trkpt>
      <trkpt lat="42.49100112915039" lon="-7.320630073547363">
        <ele>552.0</ele>
        <time>2019-04-27T08:34:27.000Z</time>
      </trkpt>
      <trkpt lat="42.49108123779297" lon="-7.320648670196533">
        <ele>550.0</ele>
        <time>2019-04-27T08:34:34.000Z</time>
      </trkpt>
      <trkpt lat="42.49116897583008" lon="-7.320670127868652">
        <ele>549.0</ele>
        <time>2019-04-27T08:34:41.000Z</time>
      </trkpt>
      <trkpt lat="42.49126052856445" lon="-7.320693016052246">
        <ele>548.0</ele>
        <time>2019-04-27T08:34:48.000Z</time>
      </trkpt>
      <trkpt lat="42.4913444519043" lon="-7.3207197189331055">
        <ele>546.0</ele>
        <time>2019-04-27T08:34:56.000Z</time>
      </trkpt>
      <trkpt lat="42.49142837524414" lon="-7.320749759674072">
        <ele>544.0</ele>
        <time>2019-04-27T08:35:04.000Z</time>
      </trkpt>
      <trkpt lat="42.491512298583984" lon="-7.320781707763672">
        <ele>542.0</ele>
        <time>2019-04-27T08:35:12.000Z</time>
      </trkpt>
      <trkpt lat="42.491600036621094" lon="-7.320814609527588">
        <ele>540.0</ele>
        <time>2019-04-27T08:35:20.000Z</time>
      </trkpt>
      <trkpt lat="42.491729736328125" lon="-7.320957660675049">
        <ele>538.0</ele>
        <time>2019-04-27T08:35:42.000Z</time>
      </trkpt>
      <trkpt lat="42.49184036254883" lon="-7.321138858795166">
        <ele>537.0</ele>
        <time>2019-04-27T08:36:05.000Z</time>
      </trkpt>
      <trkpt lat="42.49190902709961" lon="-7.321213245391846">
        <ele>538.0</ele>
        <time>2019-04-27T08:36:14.000Z</time>
      </trkpt>
      <trkpt lat="42.49197769165039" lon="-7.321285724639893">
        <ele>539.0</ele>
        <time>2019-04-27T08:36:23.000Z</time>
      </trkpt>
      <trkpt lat="42.49204635620117" lon="-7.321355819702148">
        <ele>541.0</ele>
        <time>2019-04-27T08:36:32.000Z</time>
      </trkpt>
      <trkpt lat="42.49211883544922" lon="-7.321425437927246">
        <ele>543.0</ele>
        <time>2019-04-27T08:36:41.000Z</time>
      </trkpt>
      <trkpt lat="42.49214553833008" lon="-7.321450233459473">
        <ele>543.0</ele>
        <time>2019-04-27T08:36:41.000Z</time>
      </trkpt>
      <trkpt lat="42.492149353027344" lon="-7.321455001831055">
        <ele>543.0</ele>
        <time>2019-04-27T08:36:42.000Z</time>
      </trkpt>
      <trkpt lat="42.49214172363281" lon="-7.321446418762207">
        <ele>543.0</ele>
        <time>2019-04-27T08:36:42.000Z</time>
      </trkpt>
      <trkpt lat="42.492130279541016" lon="-7.3214311599731445">
        <ele>543.0</ele>
        <time>2019-04-27T08:36:43.000Z</time>
      </trkpt>
      <trkpt lat="42.49214553833008" lon="-7.321434020996094">
        <ele>543.0</ele>
        <time>2019-04-27T08:36:51.000Z</time>
      </trkpt>
      <trkpt lat="42.492164611816406" lon="-7.321437835693359">
        <ele>543.0</ele>
        <time>2019-04-27T08:37:00.000Z</time>
      </trkpt>
      <trkpt lat="42.4921875" lon="-7.321441650390625">
        <ele>543.0</ele>
        <time>2019-04-27T08:37:08.000Z</time>
      </trkpt>
      <trkpt lat="42.49221420288086" lon="-7.321445941925049">
        <ele>544.0</ele>
        <time>2019-04-27T08:37:17.000Z</time>
      </trkpt>
      <trkpt lat="42.492225646972656" lon="-7.32144832611084">
        <ele>544.0</ele>
        <time>2019-04-27T08:37:17.000Z</time>
      </trkpt>
      <trkpt lat="42.49223709106445" lon="-7.321450233459473">
        <ele>544.0</ele>
        <time>2019-04-27T08:37:17.000Z</time>
      </trkpt>
      <trkpt lat="42.492244720458984" lon="-7.321451187133789">
        <ele>544.0</ele>
        <time>2019-04-27T08:37:17.000Z</time>
      </trkpt>
      <trkpt lat="42.492252349853516" lon="-7.321452617645264">
        <ele>544.0</ele>
        <time>2019-04-27T08:37:18.000Z</time>
      </trkpt>
      <trkpt lat="42.492313385009766" lon="-7.321444034576416">
        <ele>543.0</ele>
        <time>2019-04-27T08:37:23.000Z</time>
      </trkpt>
      <trkpt lat="42.49239730834961" lon="-7.3214311599731445">
        <ele>543.0</ele>
        <time>2019-04-27T08:37:28.000Z</time>
      </trkpt>
      <trkpt lat="42.492496490478516" lon="-7.321415901184082">
        <ele>542.0</ele>
        <time>2019-04-27T08:37:33.000Z</time>
      </trkpt>
      <trkpt lat="42.49260330200195" lon="-7.321398735046387">
        <ele>541.0</ele>
        <time>2019-04-27T08:37:38.000Z</time>
      </trkpt>
      <trkpt lat="42.492942810058594" lon="-7.321280479431152">
        <ele>533.0</ele>
        <time>2019-04-27T08:38:13.000Z</time>
      </trkpt>
      <trkpt lat="42.49299621582031" lon="-7.321199417114258">
        <ele>532.0</ele>
        <time>2019-04-27T08:38:20.000Z</time>
      </trkpt>
      <trkpt lat="42.493038177490234" lon="-7.321097373962402">
        <ele>533.0</ele>
        <time>2019-04-27T08:38:28.000Z</time>
      </trkpt>
      <trkpt lat="42.49306869506836" lon="-7.320980548858643">
        <ele>533.0</ele>
        <time>2019-04-27T08:38:35.000Z</time>
      </trkpt>
      <trkpt lat="42.49309539794922" lon="-7.320857048034668">
        <ele>535.0</ele>
        <time>2019-04-27T08:38:43.000Z</time>
      </trkpt>
      <trkpt lat="42.493133544921875" lon="-7.320748805999756">
        <ele>534.0</ele>
        <time>2019-04-27T08:38:49.000Z</time>
      </trkpt>
      <trkpt lat="42.493167877197266" lon="-7.3206400871276855">
        <ele>534.0</ele>
        <time>2019-04-27T08:38:56.000Z</time>
      </trkpt>
      <trkpt lat="42.493202209472656" lon="-7.320530414581299">
        <ele>534.0</ele>
        <time>2019-04-27T08:39:03.000Z</time>
      </trkpt>
      <trkpt lat="42.49324035644531" lon="-7.320420742034912">
        <ele>533.0</ele>
        <time>2019-04-27T08:39:10.000Z</time>
      </trkpt>
      <trkpt lat="42.4932746887207" lon="-7.320317268371582">
        <ele>533.0</ele>
        <time>2019-04-27T08:39:19.000Z</time>
      </trkpt>
      <trkpt lat="42.49331283569336" lon="-7.320216178894043">
        <ele>533.0</ele>
        <time>2019-04-27T08:39:29.000Z</time>
      </trkpt>
      <trkpt lat="42.49335479736328" lon="-7.320116996765137">
        <ele>533.0</ele>
        <time>2019-04-27T08:39:39.000Z</time>
      </trkpt>
      <trkpt lat="42.49339294433594" lon="-7.320018291473389">
        <ele>533.0</ele>
        <time>2019-04-27T08:39:49.000Z</time>
      </trkpt>
      <trkpt lat="42.493404388427734" lon="-7.3199849128723145">
        <ele>533.0</ele>
        <time>2019-04-27T08:39:50.000Z</time>
      </trkpt>
      <trkpt lat="42.493404388427734" lon="-7.319980144500732">
        <ele>533.0</ele>
        <time>2019-04-27T08:39:51.000Z</time>
      </trkpt>
      <trkpt lat="42.4933967590332" lon="-7.31999397277832">
        <ele>533.0</ele>
        <time>2019-04-27T08:39:52.000Z</time>
      </trkpt>
      <trkpt lat="42.49338912963867" lon="-7.320017337799072">
        <ele>534.0</ele>
        <time>2019-04-27T08:39:53.000Z</time>
      </trkpt>
      <trkpt lat="42.49341583251953" lon="-7.319964408874512">
        <ele>535.0</ele>
        <time>2019-04-27T08:40:18.000Z</time>
      </trkpt>
      <trkpt lat="42.49345397949219" lon="-7.319887161254883">
        <ele>538.0</ele>
        <time>2019-04-27T08:40:44.000Z</time>
      </trkpt>
      <trkpt lat="42.493465423583984" lon="-7.319868087768555">
        <ele>538.0</ele>
        <time>2019-04-27T08:40:44.000Z</time>
      </trkpt>
      <trkpt lat="42.49346923828125" lon="-7.319855213165283">
        <ele>538.0</ele>
        <time>2019-04-27T08:40:44.000Z</time>
      </trkpt>
      <trkpt lat="42.49347686767578" lon="-7.319845676422119">
        <ele>538.0</ele>
        <time>2019-04-27T08:40:44.000Z</time>
      </trkpt>
      <trkpt lat="42.49348068237305" lon="-7.319838047027588">
        <ele>538.0</ele>
        <time>2019-04-27T08:40:45.000Z</time>
      </trkpt>
      <trkpt lat="42.493492126464844" lon="-7.319807529449463">
        <ele>538.0</ele>
        <time>2019-04-27T08:40:46.000Z</time>
      </trkpt>
      <trkpt lat="42.49350357055664" lon="-7.319769382476807">
        <ele>538.0</ele>
        <time>2019-04-27T08:40:48.000Z</time>
      </trkpt>
      <trkpt lat="42.4935188293457" lon="-7.31972599029541">
        <ele>539.0</ele>
        <time>2019-04-27T08:40:49.000Z</time>
      </trkpt>
      <trkpt lat="42.49353790283203" lon="-7.319680213928223">
        <ele>539.0</ele>
        <time>2019-04-27T08:40:51.000Z</time>
      </trkpt>
      <trkpt lat="42.4935417175293" lon="-7.319664001464844">
        <ele>539.0</ele>
        <time>2019-04-27T08:40:54.000Z</time>
      </trkpt>
      <trkpt lat="42.49354553222656" lon="-7.319657802581787">
        <ele>540.0</ele>
        <time>2019-04-27T08:40:57.000Z</time>
      </trkpt>
      <trkpt lat="42.49354553222656" lon="-7.319658279418945">
        <ele>540.0</ele>
        <time>2019-04-27T08:41:00.000Z</time>
      </trkpt>
      <trkpt lat="42.49354553222656" lon="-7.319662094116211">
        <ele>541.0</ele>
        <time>2019-04-27T08:41:04.000Z</time>
      </trkpt>
      <trkpt lat="42.49354934692383" lon="-7.319657802581787">
        <ele>541.0</ele>
        <time>2019-04-27T08:41:04.000Z</time>
      </trkpt>
      <trkpt lat="42.49354934692383" lon="-7.3196539878845215">
        <ele>541.0</ele>
        <time>2019-04-27T08:41:04.000Z</time>
      </trkpt>
      <trkpt lat="42.493553161621094" lon="-7.319650173187256">
        <ele>541.0</ele>
        <time>2019-04-27T08:41:04.000Z</time>
      </trkpt>
      <trkpt lat="42.493553161621094" lon="-7.31964635848999">
        <ele>541.0</ele>
        <time>2019-04-27T08:41:05.000Z</time>
      </trkpt>
      <trkpt lat="42.49358367919922" lon="-7.319577217102051">
        <ele>541.0</ele>
        <time>2019-04-27T08:41:09.000Z</time>
      </trkpt>
      <trkpt lat="42.49362564086914" lon="-7.319480895996094">
        <ele>541.0</ele>
        <time>2019-04-27T08:41:13.000Z</time>
      </trkpt>
      <trkpt lat="42.493675231933594" lon="-7.319366455078125">
        <ele>541.0</ele>
        <time>2019-04-27T08:41:17.000Z</time>
      </trkpt>
      <trkpt lat="42.49372863769531" lon="-7.319242477416992">
        <ele>540.0</ele>
        <time>2019-04-27T08:41:21.000Z</time>
      </trkpt>
      <trkpt lat="42.493873596191406" lon="-7.318816661834717">
        <ele>536.0</ele>
        <time>2019-04-27T08:41:55.000Z</time>
      </trkpt>
      <trkpt lat="42.493896484375" lon="-7.318778038024902">
        <ele>536.0</ele>
        <time>2019-04-27T08:42:00.000Z</time>
      </trkpt>
      <trkpt lat="42.493919372558594" lon="-7.318767547607422">
        <ele>535.0</ele>
        <time>2019-04-27T08:42:06.000Z</time>
      </trkpt>
      <trkpt lat="42.493934631347656" lon="-7.318775653839111">
        <ele>535.0</ele>
        <time>2019-04-27T08:42:11.000Z</time>
      </trkpt>
      <trkpt lat="42.49394989013672" lon="-7.318793773651123">
        <ele>535.0</ele>
        <time>2019-04-27T08:42:17.000Z</time>
      </trkpt>
      <trkpt lat="42.49396514892578" lon="-7.318789958953857">
        <ele>535.0</ele>
        <time>2019-04-27T08:42:17.000Z</time>
      </trkpt>
      <trkpt lat="42.49397659301758" lon="-7.31878662109375">
        <ele>535.0</ele>
        <time>2019-04-27T08:42:17.000Z</time>
      </trkpt>
      <trkpt lat="42.49398422241211" lon="-7.318784236907959">
        <ele>535.0</ele>
        <time>2019-04-27T08:42:17.000Z</time>
      </trkpt>
      <trkpt lat="42.49399185180664" lon="-7.318782329559326">
        <ele>535.0</ele>
        <time>2019-04-27T08:42:18.000Z</time>
      </trkpt>
      <trkpt lat="42.4940185546875" lon="-7.318776607513428">
        <ele>535.0</ele>
        <time>2019-04-27T08:42:18.000Z</time>
      </trkpt>
      <trkpt lat="42.49405288696289" lon="-7.318769931793213">
        <ele>535.0</ele>
        <time>2019-04-27T08:42:19.000Z</time>
      </trkpt>
      <trkpt lat="42.49409484863281" lon="-7.31876277923584">
        <ele>535.0</ele>
        <time>2019-04-27T08:42:20.000Z</time>
      </trkpt>
      <trkpt lat="42.494136810302734" lon="-7.31875467300415">
        <ele>536.0</ele>
        <time>2019-04-27T08:42:21.000Z</time>
      </trkpt>
      <trkpt lat="42.49423599243164" lon="-7.318793773651123">
        <ele>536.0</ele>
        <time>2019-04-27T08:42:29.000Z</time>
      </trkpt>
      <trkpt lat="42.494346618652344" lon="-7.318857192993164">
        <ele>537.0</ele>
        <time>2019-04-27T08:42:38.000Z</time>
      </trkpt>
      <trkpt lat="42.49441146850586" lon="-7.318820953369141">
        <ele>537.0</ele>
        <time>2019-04-27T08:42:46.000Z</time>
      </trkpt>
      <trkpt lat="42.494483947753906" lon="-7.318758487701416">
        <ele>537.0</ele>
        <time>2019-04-27T08:42:55.000Z</time>
      </trkpt>
      <trkpt lat="42.49456024169922" lon="-7.318679332733154">
        <ele>536.0</ele>
        <time>2019-04-27T08:43:03.000Z</time>
      </trkpt>
      <trkpt lat="42.49463653564453" lon="-7.318591117858887">
        <ele>536.0</ele>
        <time>2019-04-27T08:43:12.000Z</time>
      </trkpt>
      <trkpt lat="42.494712829589844" lon="-7.318532943725586">
        <ele>537.0</ele>
        <time>2019-04-27T08:43:19.000Z</time>
      </trkpt>
      <trkpt lat="42.49479675292969" lon="-7.318477630615234">
        <ele>538.0</ele>
        <time>2019-04-27T08:43:27.000Z</time>
      </trkpt>
      <trkpt lat="42.494876861572266" lon="-7.318425178527832">
        <ele>538.0</ele>
        <time>2019-04-27T08:43:34.000Z</time>
      </trkpt>
      <trkpt lat="42.494964599609375" lon="-7.318373203277588">
        <ele>539.0</ele>
        <time>2019-04-27T08:43:42.000Z</time>
      </trkpt>
      <trkpt lat="42.495018005371094" lon="-7.318341255187988">
        <ele>540.0</ele>
        <time>2019-04-27T08:43:47.000Z</time>
      </trkpt>
      <trkpt lat="42.49506378173828" lon="-7.318317890167236">
        <ele>540.0</ele>
        <time>2019-04-27T08:43:53.000Z</time>
      </trkpt>
      <trkpt lat="42.49509811401367" lon="-7.318301200866699">
        <ele>540.0</ele>
        <time>2019-04-27T08:43:58.000Z</time>
      </trkpt>
      <trkpt lat="42.49513244628906" lon="-7.318287372589111">
        <ele>540.0</ele>
        <time>2019-04-27T08:44:03.000Z</time>
      </trkpt>
      <trkpt lat="42.49519729614258" lon="-7.318239688873291">
        <ele>540.0</ele>
        <time>2019-04-27T08:44:11.000Z</time>
      </trkpt>
      <trkpt lat="42.49527359008789" lon="-7.318181037902832">
        <ele>540.0</ele>
        <time>2019-04-27T08:44:19.000Z</time>
      </trkpt>
      <trkpt lat="42.495357513427734" lon="-7.318115234375">
        <ele>540.0</ele>
        <time>2019-04-27T08:44:27.000Z</time>
      </trkpt>
      <trkpt lat="42.495445251464844" lon="-7.318045139312744">
        <ele>540.0</ele>
        <time>2019-04-27T08:44:34.000Z</time>
      </trkpt>
      <trkpt lat="42.49552536010742" lon="-7.3179931640625">
        <ele>540.0</ele>
        <time>2019-04-27T08:44:42.000Z</time>
      </trkpt>
      <trkpt lat="42.49560546875" lon="-7.317944526672363">
        <ele>540.0</ele>
        <time>2019-04-27T08:44:49.000Z</time>
      </trkpt>
      <trkpt lat="42.49568557739258" lon="-7.317897796630859">
        <ele>540.0</ele>
        <time>2019-04-27T08:44:57.000Z</time>
      </trkpt>
      <trkpt lat="42.49576950073242" lon="-7.317852973937988">
        <ele>540.0</ele>
        <time>2019-04-27T08:45:04.000Z</time>
      </trkpt>
      <trkpt lat="42.49586868286133" lon="-7.317671775817871">
        <ele>539.0</ele>
        <time>2019-04-27T08:45:23.000Z</time>
      </trkpt>
      <trkpt lat="42.49594497680664" lon="-7.3174519538879395">
        <ele>538.0</ele>
        <time>2019-04-27T08:45:42.000Z</time>
      </trkpt>
      <trkpt lat="42.49597930908203" lon="-7.317387580871582">
        <ele>538.0</ele>
        <time>2019-04-27T08:45:46.000Z</time>
      </trkpt>
      <trkpt lat="42.49601364135742" lon="-7.317338466644287">
        <ele>538.0</ele>
        <time>2019-04-27T08:45:49.000Z</time>
      </trkpt>
      <trkpt lat="42.49604415893555" lon="-7.3172993659973145">
        <ele>537.0</ele>
        <time>2019-04-27T08:45:53.000Z</time>
      </trkpt>
      <trkpt lat="42.496070861816406" lon="-7.317265033721924">
        <ele>537.0</ele>
        <time>2019-04-27T08:45:56.000Z</time>
      </trkpt>
      <trkpt lat="42.496116638183594" lon="-7.317317485809326">
        <ele>538.0</ele>
        <time>2019-04-27T08:46:04.000Z</time>
      </trkpt>
      <trkpt lat="42.49616241455078" lon="-7.317411422729492">
        <ele>539.0</ele>
        <time>2019-04-27T08:46:12.000Z</time>
      </trkpt>
      <trkpt lat="42.4962158203125" lon="-7.317533016204834">
        <ele>540.0</ele>
        <time>2019-04-27T08:46:20.000Z</time>
      </trkpt>
      <trkpt lat="42.49626922607422" lon="-7.317668437957764">
        <ele>541.0</ele>
        <time>2019-04-27T08:46:27.000Z</time>
      </trkpt>
      <trkpt lat="42.49633026123047" lon="-7.317732810974121">
        <ele>540.0</ele>
        <time>2019-04-27T08:46:38.000Z</time>
      </trkpt>
      <trkpt lat="42.496376037597656" lon="-7.317733287811279">
        <ele>537.0</ele>
        <time>2019-04-27T08:46:49.000Z</time>
      </trkpt>
      <trkpt lat="42.49638748168945" lon="-7.317743301391602">
        <ele>537.0</ele>
        <time>2019-04-27T08:47:03.000Z</time>
      </trkpt>
      <trkpt lat="42.496395111083984" lon="-7.317749977111816">
        <ele>537.0</ele>
        <time>2019-04-27T08:47:17.000Z</time>
      </trkpt>
      <trkpt lat="42.49639892578125" lon="-7.317754745483398">
        <ele>537.0</ele>
        <time>2019-04-27T08:47:31.000Z</time>
      </trkpt>
      <trkpt lat="42.49639892578125" lon="-7.317759037017822">
        <ele>538.0</ele>
        <time>2019-04-27T08:47:45.000Z</time>
      </trkpt>
      <trkpt lat="42.496402740478516" lon="-7.3177642822265625">
        <ele>538.0</ele>
        <time>2019-04-27T08:47:46.000Z</time>
      </trkpt>
      <trkpt lat="42.49640655517578" lon="-7.3177690505981445">
        <ele>538.0</ele>
        <time>2019-04-27T08:47:46.000Z</time>
      </trkpt>
      <trkpt lat="42.49641036987305" lon="-7.317773818969727">
        <ele>538.0</ele>
        <time>2019-04-27T08:47:46.000Z</time>
      </trkpt>
      <trkpt lat="42.49641418457031" lon="-7.31777811050415">
        <ele>538.0</ele>
        <time>2019-04-27T08:47:46.000Z</time>
      </trkpt>
      <trkpt lat="42.496437072753906" lon="-7.317800998687744">
        <ele>538.0</ele>
        <time>2019-04-27T08:47:48.000Z</time>
      </trkpt>
      <trkpt lat="42.496463775634766" lon="-7.317831993103027">
        <ele>538.0</ele>
        <time>2019-04-27T08:47:49.000Z</time>
      </trkpt>
      <trkpt lat="42.496498107910156" lon="-7.317867755889893">
        <ele>538.0</ele>
        <time>2019-04-27T08:47:51.000Z</time>
      </trkpt>
      <trkpt lat="42.49653625488281" lon="-7.317905902862549">
        <ele>538.0</ele>
        <time>2019-04-27T08:47:52.000Z</time>
      </trkpt>
      <trkpt lat="42.496559143066406" lon="-7.317920207977295">
        <ele>539.0</ele>
        <time>2019-04-27T08:48:05.000Z</time>
      </trkpt>
      <trkpt lat="42.4965705871582" lon="-7.317911148071289">
        <ele>539.0</ele>
        <time>2019-04-27T08:48:17.000Z</time>
      </trkpt>
      <trkpt lat="42.49657440185547" lon="-7.317912578582764">
        <ele>539.0</ele>
        <time>2019-04-27T08:48:18.000Z</time>
      </trkpt>
      <trkpt lat="42.49658203125" lon="-7.31791353225708">
        <ele>539.0</ele>
        <time>2019-04-27T08:48:18.000Z</time>
      </trkpt>
      <trkpt lat="42.49658966064453" lon="-7.317914009094238">
        <ele>539.0</ele>
        <time>2019-04-27T08:48:18.000Z</time>
      </trkpt>
      <trkpt lat="42.4965934753418" lon="-7.317914962768555">
        <ele>539.0</ele>
        <time>2019-04-27T08:48:18.000Z</time>
      </trkpt>
      <trkpt lat="42.496612548828125" lon="-7.3179192543029785">
        <ele>539.0</ele>
        <time>2019-04-27T08:48:19.000Z</time>
      </trkpt>
      <trkpt lat="42.49663162231445" lon="-7.317924976348877">
        <ele>539.0</ele>
        <time>2019-04-27T08:48:19.000Z</time>
      </trkpt>
      <trkpt lat="42.49665832519531" lon="-7.317931652069092">
        <ele>539.0</ele>
        <time>2019-04-27T08:48:20.000Z</time>
      </trkpt>
      <trkpt lat="42.496681213378906" lon="-7.317938327789307">
        <ele>540.0</ele>
        <time>2019-04-27T08:48:20.000Z</time>
      </trkpt>
      <trkpt lat="42.496707916259766" lon="-7.317946910858154">
        <ele>540.0</ele>
        <time>2019-04-27T08:48:22.000Z</time>
      </trkpt>
      <trkpt lat="42.49673080444336" lon="-7.317956924438477">
        <ele>540.0</ele>
        <time>2019-04-27T08:48:23.000Z</time>
      </trkpt>
      <trkpt lat="42.49675750732422" lon="-7.317967414855957">
        <ele>540.0</ele>
        <time>2019-04-27T08:48:24.000Z</time>
      </trkpt>
      <trkpt lat="42.49678421020508" lon="-7.317978382110596">
        <ele>540.0</ele>
        <time>2019-04-27T08:48:25.000Z</time>
      </trkpt>
      <trkpt lat="42.496795654296875" lon="-7.317981719970703">
        <ele>541.0</ele>
        <time>2019-04-27T08:48:46.000Z</time>
      </trkpt>
      <trkpt lat="42.496803283691406" lon="-7.317982196807861">
        <ele>541.0</ele>
        <time>2019-04-27T08:49:06.000Z</time>
      </trkpt>
      <trkpt lat="42.496803283691406" lon="-7.317980766296387">
        <ele>542.0</ele>
        <time>2019-04-27T08:49:26.000Z</time>
      </trkpt>
      <trkpt lat="42.49680709838867" lon="-7.3179779052734375">
        <ele>543.0</ele>
        <time>2019-04-27T08:49:46.000Z</time>
      </trkpt>
      <trkpt lat="42.49681091308594" lon="-7.3179779052734375">
        <ele>543.0</ele>
        <time>2019-04-27T08:49:47.000Z</time>
      </trkpt>
      <trkpt lat="42.4968147277832" lon="-7.3179779052734375">
        <ele>543.0</ele>
        <time>2019-04-27T08:49:47.000Z</time>
      </trkpt>
      <trkpt lat="42.49681854248047" lon="-7.3179779052734375">
        <ele>543.0</ele>
        <time>2019-04-27T08:49:47.000Z</time>
      </trkpt>
      <trkpt lat="42.496822357177734" lon="-7.317977428436279">
        <ele>543.0</ele>
        <time>2019-04-27T08:49:47.000Z</time>
      </trkpt>
      <trkpt lat="42.496971130371094" lon="-7.318013668060303">
        <ele>542.0</ele>
        <time>2019-04-27T08:49:51.000Z</time>
      </trkpt>
      <trkpt lat="42.496986389160156" lon="-7.318034648895264">
        <ele>542.0</ele>
        <time>2019-04-27T08:49:53.000Z</time>
      </trkpt>
      <trkpt lat="42.49699020385742" lon="-7.318060398101807">
        <ele>542.0</ele>
        <time>2019-04-27T08:49:55.000Z</time>
      </trkpt>
      <trkpt lat="42.496986389160156" lon="-7.318089008331299">
        <ele>541.0</ele>
        <time>2019-04-27T08:49:57.000Z</time>
      </trkpt>
      <trkpt lat="42.49698257446289" lon="-7.318120002746582">
        <ele>541.0</ele>
        <time>2019-04-27T08:49:58.000Z</time>
      </trkpt>
      <trkpt lat="42.496910095214844" lon="-7.318268775939941">
        <ele>541.0</ele>
        <time>2019-04-27T08:50:12.000Z</time>
      </trkpt>
      <trkpt lat="42.49679946899414" lon="-7.318461894989014">
        <ele>541.0</ele>
        <time>2019-04-27T08:50:26.000Z</time>
      </trkpt>
      <trkpt lat="42.49677658081055" lon="-7.31857967376709">
        <ele>541.0</ele>
        <time>2019-04-27T08:50:35.000Z</time>
      </trkpt>
      <trkpt lat="42.49678421020508" lon="-7.3186726570129395">
        <ele>542.0</ele>
        <time>2019-04-27T08:50:43.000Z</time>
      </trkpt>
      <trkpt lat="42.496726989746094" lon="-7.3186845779418945">
        <ele>542.0</ele>
        <time>2019-04-27T08:50:50.000Z</time>
      </trkpt>
      <trkpt lat="42.49665069580078" lon="-7.3186798095703125">
        <ele>543.0</ele>
        <time>2019-04-27T08:50:56.000Z</time>
      </trkpt>
      <trkpt lat="42.496559143066406" lon="-7.318663597106934">
        <ele>544.0</ele>
        <time>2019-04-27T08:51:03.000Z</time>
      </trkpt>
      <trkpt lat="42.4964599609375" lon="-7.318641662597656">
        <ele>545.0</ele>
        <time>2019-04-27T08:51:09.000Z</time>
      </trkpt>
      <trkpt lat="42.496376037597656" lon="-7.318649768829346">
        <ele>545.0</ele>
        <time>2019-04-27T08:51:16.000Z</time>
      </trkpt>
      <trkpt lat="42.49628829956055" lon="-7.318664073944092">
        <ele>545.0</ele>
        <time>2019-04-27T08:51:22.000Z</time>
      </trkpt>
      <trkpt lat="42.49620056152344" lon="-7.31868314743042">
        <ele>545.0</ele>
        <time>2019-04-27T08:51:28.000Z</time>
      </trkpt>
      <trkpt lat="42.49611282348633" lon="-7.318704128265381">
        <ele>545.0</ele>
        <time>2019-04-27T08:51:34.000Z</time>
      </trkpt>
      <trkpt lat="42.49603271484375" lon="-7.3187665939331055">
        <ele>544.0</ele>
        <time>2019-04-27T08:51:43.000Z</time>
      </trkpt>
      <trkpt lat="42.49599838256836" lon="-7.318843364715576">
        <ele>542.0</ele>
        <time>2019-04-27T08:51:51.000Z</time>
      </trkpt>
      <trkpt lat="42.49598693847656" lon="-7.318907737731934">
        <ele>541.0</ele>
        <time>2019-04-27T08:51:56.000Z</time>
      </trkpt>
      <trkpt lat="42.49597930908203" lon="-7.318984031677246">
        <ele>540.0</ele>
        <time>2019-04-27T08:52:01.000Z</time>
      </trkpt>
      <trkpt lat="42.4959831237793" lon="-7.319068431854248">
        <ele>538.0</ele>
        <time>2019-04-27T08:52:06.000Z</time>
      </trkpt>
      <trkpt lat="42.49598693847656" lon="-7.319157123565674">
        <ele>536.0</ele>
        <time>2019-04-27T08:52:10.000Z</time>
      </trkpt>
      <trkpt lat="42.49594497680664" lon="-7.31924295425415">
        <ele>535.0</ele>
        <time>2019-04-27T08:52:17.000Z</time>
      </trkpt>
      <trkpt lat="42.495887756347656" lon="-7.319331645965576">
        <ele>534.0</ele>
        <time>2019-04-27T08:52:24.000Z</time>
      </trkpt>
      <trkpt lat="42.495819091796875" lon="-7.319422245025635">
        <ele>533.0</ele>
        <time>2019-04-27T08:52:31.000Z</time>
      </trkpt>
      <trkpt lat="42.49574661254883" lon="-7.319514274597168">
        <ele>532.0</ele>
        <time>2019-04-27T08:52:38.000Z</time>
      </trkpt>
      <trkpt lat="42.49568557739258" lon="-7.31959867477417">
        <ele>530.0</ele>
        <time>2019-04-27T08:52:45.000Z</time>
      </trkpt>
      <trkpt lat="42.49562072753906" lon="-7.319681644439697">
        <ele>529.0</ele>
        <time>2019-04-27T08:52:51.000Z</time>
      </trkpt>
      <trkpt lat="42.49555587768555" lon="-7.31976318359375">
        <ele>527.0</ele>
        <time>2019-04-27T08:52:58.000Z</time>
      </trkpt>
      <trkpt lat="42.49549102783203" lon="-7.3198442459106445">
        <ele>525.0</ele>
        <time>2019-04-27T08:53:04.000Z</time>
      </trkpt>
      <trkpt lat="42.49543380737305" lon="-7.3199381828308105">
        <ele>524.0</ele>
        <time>2019-04-27T08:53:12.000Z</time>
      </trkpt>
      <trkpt lat="42.495384216308594" lon="-7.320036888122559">
        <ele>523.0</ele>
        <time>2019-04-27T08:53:19.000Z</time>
      </trkpt>
      <trkpt lat="42.49533462524414" lon="-7.320138931274414">
        <ele>522.0</ele>
        <time>2019-04-27T08:53:27.000Z</time>
      </trkpt>
      <trkpt lat="42.49528884887695" lon="-7.320242404937744">
        <ele>521.0</ele>
        <time>2019-04-27T08:53:34.000Z</time>
      </trkpt>
      <trkpt lat="42.495235443115234" lon="-7.320343494415283">
        <ele>520.0</ele>
        <time>2019-04-27T08:53:42.000Z</time>
      </trkpt>
      <trkpt lat="42.49518585205078" lon="-7.320446014404297">
        <ele>520.0</ele>
        <time>2019-04-27T08:53:50.000Z</time>
      </trkpt>
      <trkpt lat="42.49513626098633" lon="-7.3205485343933105">
        <ele>520.0</ele>
        <time>2019-04-27T08:53:57.000Z</time>
      </trkpt>
      <trkpt lat="42.495086669921875" lon="-7.320651531219482">
        <ele>521.0</ele>
        <time>2019-04-27T08:54:05.000Z</time>
      </trkpt>
      <trkpt lat="42.49505615234375" lon="-7.320886135101318">
        <ele>521.0</ele>
        <time>2019-04-27T08:54:21.000Z</time>
      </trkpt>
      <trkpt lat="42.495059967041016" lon="-7.321134567260742">
        <ele>521.0</ele>
        <time>2019-04-27T08:54:37.000Z</time>
      </trkpt>
      <trkpt lat="42.49505615234375" lon="-7.321255207061768">
        <ele>521.0</ele>
        <time>2019-04-27T08:54:45.000Z</time>
      </trkpt>
      <trkpt lat="42.49504852294922" lon="-7.321375846862793">
        <ele>520.0</ele>
        <time>2019-04-27T08:54:53.000Z</time>
      </trkpt>
      <trkpt lat="42.49504470825195" lon="-7.321496963500977">
        <ele>520.0</ele>
        <time>2019-04-27T08:55:01.000Z</time>
      </trkpt>
      <trkpt lat="42.49503707885742" lon="-7.321617603302002">
        <ele>519.0</ele>
        <time>2019-04-27T08:55:10.000Z</time>
      </trkpt>
      <trkpt lat="42.495094299316406" lon="-7.321836948394775">
        <ele>519.0</ele>
        <time>2019-04-27T08:55:24.000Z</time>
      </trkpt>
      <trkpt lat="42.49517822265625" lon="-7.322046279907227">
        <ele>519.0</ele>
        <time>2019-04-27T08:55:39.000Z</time>
      </trkpt>
      <trkpt lat="42.49522399902344" lon="-7.322149276733398">
        <ele>519.0</ele>
        <time>2019-04-27T08:55:46.000Z</time>
      </trkpt>
      <trkpt lat="42.495269775390625" lon="-7.3222503662109375">
        <ele>518.0</ele>
        <time>2019-04-27T08:55:53.000Z</time>
      </trkpt>
      <trkpt lat="42.49531936645508" lon="-7.32235050201416">
        <ele>518.0</ele>
        <time>2019-04-27T08:56:00.000Z</time>
      </trkpt>
      <trkpt lat="42.4953727722168" lon="-7.322450160980225">
        <ele>518.0</ele>
        <time>2019-04-27T08:56:08.000Z</time>
      </trkpt>
      <trkpt lat="42.49543380737305" lon="-7.322535514831543">
        <ele>518.0</ele>
        <time>2019-04-27T08:56:15.000Z</time>
      </trkpt>
      <trkpt lat="42.49549865722656" lon="-7.322614669799805">
        <ele>519.0</ele>
        <time>2019-04-27T08:56:23.000Z</time>
      </trkpt>
      <trkpt lat="42.49557113647461" lon="-7.322689533233643">
        <ele>520.0</ele>
        <time>2019-04-27T08:56:31.000Z</time>
      </trkpt>
      <trkpt lat="42.49563980102539" lon="-7.322762489318848">
        <ele>521.0</ele>
        <time>2019-04-27T08:56:39.000Z</time>
      </trkpt>
      <trkpt lat="42.495689392089844" lon="-7.322818756103516">
        <ele>522.0</ele>
        <time>2019-04-27T08:56:44.000Z</time>
      </trkpt>
      <trkpt lat="42.495731353759766" lon="-7.322866439819336">
        <ele>522.0</ele>
        <time>2019-04-27T08:56:50.000Z</time>
      </trkpt>
      <trkpt lat="42.49576950073242" lon="-7.3229079246521">
        <ele>523.0</ele>
        <time>2019-04-27T08:56:56.000Z</time>
      </trkpt>
      <trkpt lat="42.49580383300781" lon="-7.322946071624756">
        <ele>523.0</ele>
        <time>2019-04-27T08:57:01.000Z</time>
      </trkpt>
      <trkpt lat="42.49580001831055" lon="-7.323009967803955">
        <ele>524.0</ele>
        <time>2019-04-27T08:57:05.000Z</time>
      </trkpt>
      <trkpt lat="42.49577713012695" lon="-7.3230814933776855">
        <ele>525.0</ele>
        <time>2019-04-27T08:57:09.000Z</time>
      </trkpt>
      <trkpt lat="42.49574279785156" lon="-7.323158264160156">
        <ele>525.0</ele>
        <time>2019-04-27T08:57:13.000Z</time>
      </trkpt>
      <trkpt lat="42.495697021484375" lon="-7.323237419128418">
        <ele>526.0</ele>
        <time>2019-04-27T08:57:17.000Z</time>
      </trkpt>
      <trkpt lat="42.49568176269531" lon="-7.323340892791748">
        <ele>526.0</ele>
        <time>2019-04-27T08:57:25.000Z</time>
      </trkpt>
      <trkpt lat="42.49566650390625" lon="-7.32345724105835">
        <ele>526.0</ele>
        <time>2019-04-27T08:57:32.000Z</time>
      </trkpt>
      <trkpt lat="42.49565505981445" lon="-7.323582649230957">
        <ele>526.0</ele>
        <time>2019-04-27T08:57:39.000Z</time>
      </trkpt>
      <trkpt lat="42.49564743041992" lon="-7.323712348937988">
        <ele>526.0</ele>
        <time>2019-04-27T08:57:46.000Z</time>
      </trkpt>
      <trkpt lat="42.49565124511719" lon="-7.323832035064697">
        <ele>524.0</ele>
        <time>2019-04-27T08:57:55.000Z</time>
      </trkpt>
      <trkpt lat="42.49565887451172" lon="-7.3239521980285645">
        <ele>522.0</ele>
        <time>2019-04-27T08:58:03.000Z</time>
      </trkpt>
      <trkpt lat="42.49567413330078" lon="-7.32407283782959">
        <ele>520.0</ele>
        <time>2019-04-27T08:58:12.000Z</time>
      </trkpt>
      <trkpt lat="42.495689392089844" lon="-7.324193477630615">
        <ele>517.0</ele>
        <time>2019-04-27T08:58:20.000Z</time>
      </trkpt>
      <trkpt lat="42.4957389831543" lon="-7.324283599853516">
        <ele>515.0</ele>
        <time>2019-04-27T08:58:28.000Z</time>
      </trkpt>
      <trkpt lat="42.49580383300781" lon="-7.3243608474731445">
        <ele>514.0</ele>
        <time>2019-04-27T08:58:35.000Z</time>
      </trkpt>
      <trkpt lat="42.495880126953125" lon="-7.324429988861084">
        <ele>514.0</ele>
        <time>2019-04-27T08:58:43.000Z</time>
      </trkpt>
      <trkpt lat="42.4959602355957" lon="-7.3244948387146">
        <ele>513.0</ele>
        <time>2019-04-27T08:58:50.000Z</time>
      </trkpt>
      <trkpt lat="42.495994567871094" lon="-7.3245368003845215">
        <ele>513.0</ele>
        <time>2019-04-27T08:58:56.000Z</time>
      </trkpt>
      <trkpt lat="42.49601364135742" lon="-7.324564456939697">
        <ele>513.0</ele>
        <time>2019-04-27T08:59:01.000Z</time>
      </trkpt>
      <trkpt lat="42.49602508544922" lon="-7.324583530426025">
        <ele>513.0</ele>
        <time>2019-04-27T08:59:06.000Z</time>
      </trkpt>
      <trkpt lat="42.496028900146484" lon="-7.324597358703613">
        <ele>513.0</ele>
        <time>2019-04-27T08:59:11.000Z</time>
      </trkpt>
      <trkpt lat="42.49604415893555" lon="-7.324607849121094">
        <ele>513.0</ele>
        <time>2019-04-27T08:59:20.000Z</time>
      </trkpt>
      <trkpt lat="42.496055603027344" lon="-7.324611663818359">
        <ele>513.0</ele>
        <time>2019-04-27T08:59:28.000Z</time>
      </trkpt>
      <trkpt lat="42.496070861816406" lon="-7.324610710144043">
        <ele>513.0</ele>
        <time>2019-04-27T08:59:37.000Z</time>
      </trkpt>
      <trkpt lat="42.4960823059082" lon="-7.324607849121094">
        <ele>513.0</ele>
        <time>2019-04-27T08:59:45.000Z</time>
      </trkpt>
      <trkpt lat="42.49609375" lon="-7.324609756469727">
        <ele>513.0</ele>
        <time>2019-04-27T08:59:45.000Z</time>
      </trkpt>
      <trkpt lat="42.49610137939453" lon="-7.324611663818359">
        <ele>513.0</ele>
        <time>2019-04-27T08:59:45.000Z</time>
      </trkpt>
      <trkpt lat="42.49610900878906" lon="-7.324613094329834">
        <ele>513.0</ele>
        <time>2019-04-27T08:59:46.000Z</time>
      </trkpt>
      <trkpt lat="42.496116638183594" lon="-7.32461404800415">
        <ele>513.0</ele>
        <time>2019-04-27T08:59:46.000Z</time>
      </trkpt>
      <trkpt lat="42.49617004394531" lon="-7.324642658233643">
        <ele>513.0</ele>
        <time>2019-04-27T08:59:50.000Z</time>
      </trkpt>
      <trkpt lat="42.496246337890625" lon="-7.324682712554932">
        <ele>513.0</ele>
        <time>2019-04-27T08:59:55.000Z</time>
      </trkpt>
      <trkpt lat="42.496337890625" lon="-7.324729919433594">
        <ele>513.0</ele>
        <time>2019-04-27T08:59:59.000Z</time>
      </trkpt>
      <trkpt lat="42.496437072753906" lon="-7.3247809410095215">
        <ele>513.0</ele>
        <time>2019-04-27T09:00:04.000Z</time>
      </trkpt>
      <trkpt lat="42.496543884277344" lon="-7.32495641708374">
        <ele>512.0</ele>
        <time>2019-04-27T09:00:22.000Z</time>
      </trkpt>
      <trkpt lat="42.49662399291992" lon="-7.325173854827881">
        <ele>511.0</ele>
        <time>2019-04-27T09:00:40.000Z</time>
      </trkpt>
      <trkpt lat="42.496665954589844" lon="-7.325240612030029">
        <ele>510.0</ele>
        <time>2019-04-27T09:00:46.000Z</time>
      </trkpt>
      <trkpt lat="42.496707916259766" lon="-7.325294017791748">
        <ele>510.0</ele>
        <time>2019-04-27T09:00:52.000Z</time>
      </trkpt>
      <trkpt lat="42.49674606323242" lon="-7.325338840484619">
        <ele>508.0</ele>
        <time>2019-04-27T09:00:58.000Z</time>
      </trkpt>
      <trkpt lat="42.496788024902344" lon="-7.325378894805908">
        <ele>507.0</ele>
        <time>2019-04-27T09:01:04.000Z</time>
      </trkpt>
      <trkpt lat="42.496795654296875" lon="-7.325403213500977">
        <ele>507.0</ele>
        <time>2019-04-27T09:01:07.000Z</time>
      </trkpt>
      <trkpt lat="42.49679183959961" lon="-7.325416564941406">
        <ele>506.0</ele>
        <time>2019-04-27T09:01:10.000Z</time>
      </trkpt>
      <trkpt lat="42.49678039550781" lon="-7.325422286987305">
        <ele>505.0</ele>
        <time>2019-04-27T09:01:14.000Z</time>
      </trkpt>
      <trkpt lat="42.496761322021484" lon="-7.325424671173096">
        <ele>505.0</ele>
        <time>2019-04-27T09:01:17.000Z</time>
      </trkpt>
      <trkpt lat="42.49675750732422" lon="-7.325433731079102">
        <ele>504.0</ele>
        <time>2019-04-27T09:01:17.000Z</time>
      </trkpt>
      <trkpt lat="42.49675369262695" lon="-7.325441837310791">
        <ele>504.0</ele>
        <time>2019-04-27T09:01:17.000Z</time>
      </trkpt>
      <trkpt lat="42.49674987792969" lon="-7.325448989868164">
        <ele>504.0</ele>
        <time>2019-04-27T09:01:18.000Z</time>
      </trkpt>
      <trkpt lat="42.49674606323242" lon="-7.325456142425537">
        <ele>505.0</ele>
        <time>2019-04-27T09:01:18.000Z</time>
      </trkpt>
      <trkpt lat="42.49671936035156" lon="-7.32549524307251">
        <ele>504.0</ele>
        <time>2019-04-27T09:01:20.000Z</time>
      </trkpt>
      <trkpt lat="42.49668884277344" lon="-7.325547218322754">
        <ele>504.0</ele>
        <time>2019-04-27T09:01:21.000Z</time>
      </trkpt>
      <trkpt lat="42.49665069580078" lon="-7.325607776641846">
        <ele>504.0</ele>
        <time>2019-04-27T09:01:23.000Z</time>
      </trkpt>
      <trkpt lat="42.49660873413086" lon="-7.325672626495361">
        <ele>503.0</ele>
        <time>2019-04-27T09:01:25.000Z</time>
      </trkpt>
      <trkpt lat="42.49658966064453" lon="-7.325695991516113">
        <ele>503.0</ele>
        <time>2019-04-27T09:01:28.000Z</time>
      </trkpt>
      <trkpt lat="42.496578216552734" lon="-7.325706481933594">
        <ele>502.0</ele>
        <time>2019-04-27T09:01:31.000Z</time>
      </trkpt>
      <trkpt lat="42.4965705871582" lon="-7.325708389282227">
        <ele>501.0</ele>
        <time>2019-04-27T09:01:35.000Z</time>
      </trkpt>
      <trkpt lat="42.49656295776367" lon="-7.3257060050964355">
        <ele>501.0</ele>
        <time>2019-04-27T09:01:38.000Z</time>
      </trkpt>
      <trkpt lat="42.49655532836914" lon="-7.325712203979492">
        <ele>500.0</ele>
        <time>2019-04-27T09:01:38.000Z</time>
      </trkpt>
      <trkpt lat="42.49654769897461" lon="-7.325717449188232">
        <ele>500.0</ele>
        <time>2019-04-27T09:01:38.000Z</time>
      </trkpt>
      <trkpt lat="42.496543884277344" lon="-7.3257222175598145">
        <ele>501.0</ele>
        <time>2019-04-27T09:01:39.000Z</time>
      </trkpt>
      <trkpt lat="42.49653625488281" lon="-7.325726509094238">
        <ele>501.0</ele>
        <time>2019-04-27T09:01:39.000Z</time>
      </trkpt>
      <trkpt lat="42.496482849121094" lon="-7.325769901275635">
        <ele>501.0</ele>
        <time>2019-04-27T09:01:44.000Z</time>
      </trkpt>
      <trkpt lat="42.49641036987305" lon="-7.32582950592041">
        <ele>501.0</ele>
        <time>2019-04-27T09:01:48.000Z</time>
      </trkpt>
      <trkpt lat="42.4963264465332" lon="-7.325899124145508">
        <ele>502.0</ele>
        <time>2019-04-27T09:01:53.000Z</time>
      </trkpt>
      <trkpt lat="42.49623489379883" lon="-7.325974464416504">
        <ele>502.0</ele>
        <time>2019-04-27T09:01:57.000Z</time>
      </trkpt>
      <trkpt lat="42.49620056152344" lon="-7.326076507568359">
        <ele>504.0</ele>
        <time>2019-04-27T09:02:06.000Z</time>
      </trkpt>
      <trkpt lat="42.49618911743164" lon="-7.32619571685791">
        <ele>507.0</ele>
        <time>2019-04-27T09:02:15.000Z</time>
      </trkpt>
      <trkpt lat="42.49618911743164" lon="-7.326325416564941">
        <ele>510.0</ele>
        <time>2019-04-27T09:02:24.000Z</time>
      </trkpt>
      <trkpt lat="42.49619674682617" lon="-7.326461315155029">
        <ele>513.0</ele>
        <time>2019-04-27T09:02:32.000Z</time>
      </trkpt>
      <trkpt lat="42.49618911743164" lon="-7.326581001281738">
        <ele>512.0</ele>
        <time>2019-04-27T09:02:40.000Z</time>
      </trkpt>
      <trkpt lat="42.49618148803711" lon="-7.326699733734131">
        <ele>509.0</ele>
        <time>2019-04-27T09:02:47.000Z</time>
      </trkpt>
      <trkpt lat="42.49617385864258" lon="-7.326817989349365">
        <ele>506.0</ele>
        <time>2019-04-27T09:02:55.000Z</time>
      </trkpt>
      <trkpt lat="42.49617004394531" lon="-7.326935768127441">
        <ele>502.0</ele>
        <time>2019-04-27T09:03:02.000Z</time>
      </trkpt>
      <trkpt lat="42.49617004394531" lon="-7.327055931091309">
        <ele>501.0</ele>
        <time>2019-04-27T09:03:10.000Z</time>
      </trkpt>
      <trkpt lat="42.496177673339844" lon="-7.327177047729492">
        <ele>501.0</ele>
        <time>2019-04-27T09:03:17.000Z</time>
      </trkpt>
      <trkpt lat="42.496185302734375" lon="-7.327298164367676">
        <ele>502.0</ele>
        <time>2019-04-27T09:03:25.000Z</time>
      </trkpt>
      <trkpt lat="42.49619674682617" lon="-7.327419757843018">
        <ele>503.0</ele>
        <time>2019-04-27T09:03:32.000Z</time>
      </trkpt>
      <trkpt lat="42.496158599853516" lon="-7.327522277832031">
        <ele>504.0</ele>
        <time>2019-04-27T09:03:39.000Z</time>
      </trkpt>
      <trkpt lat="42.49610137939453" lon="-7.327617168426514">
        <ele>506.0</ele>
        <time>2019-04-27T09:03:46.000Z</time>
      </trkpt>
      <trkpt lat="42.496036529541016" lon="-7.327707290649414">
        <ele>508.0</ele>
        <time>2019-04-27T09:03:53.000Z</time>
      </trkpt>
      <trkpt lat="42.4959602355957" lon="-7.327794551849365">
        <ele>510.0</ele>
        <time>2019-04-27T09:03:59.000Z</time>
      </trkpt>
      <trkpt lat="42.49589157104492" lon="-7.327864170074463">
        <ele>511.0</ele>
        <time>2019-04-27T09:04:06.000Z</time>
      </trkpt>
      <trkpt lat="42.49581527709961" lon="-7.3279242515563965">
        <ele>513.0</ele>
        <time>2019-04-27T09:04:13.000Z</time>
      </trkpt>
      <trkpt lat="42.49573516845703" lon="-7.327977657318115">
        <ele>514.0</ele>
        <time>2019-04-27T09:04:20.000Z</time>
      </trkpt>
      <trkpt lat="42.49565124511719" lon="-7.328028202056885">
        <ele>515.0</ele>
        <time>2019-04-27T09:04:26.000Z</time>
      </trkpt>
      <trkpt lat="42.49558639526367" lon="-7.328108787536621">
        <ele>516.0</ele>
        <time>2019-04-27T09:04:33.000Z</time>
      </trkpt>
      <trkpt lat="42.49552917480469" lon="-7.328198432922363">
        <ele>517.0</ele>
        <time>2019-04-27T09:04:40.000Z</time>
      </trkpt>
      <trkpt lat="42.4954719543457" lon="-7.32829475402832">
        <ele>518.0</ele>
        <time>2019-04-27T09:04:47.000Z</time>
      </trkpt>
      <trkpt lat="42.495418548583984" lon="-7.328393936157227">
        <ele>519.0</ele>
        <time>2019-04-27T09:04:54.000Z</time>
      </trkpt>
      <trkpt lat="42.4953727722168" lon="-7.32849645614624">
        <ele>519.0</ele>
        <time>2019-04-27T09:05:02.000Z</time>
      </trkpt>
      <trkpt lat="42.495330810546875" lon="-7.328603744506836">
        <ele>519.0</ele>
        <time>2019-04-27T09:05:09.000Z</time>
      </trkpt>
      <trkpt lat="42.49529266357422" lon="-7.328714370727539">
        <ele>519.0</ele>
        <time>2019-04-27T09:05:17.000Z</time>
      </trkpt>
      <trkpt lat="42.49525833129883" lon="-7.328825950622559">
        <ele>518.0</ele>
        <time>2019-04-27T09:05:24.000Z</time>
      </trkpt>
      <trkpt lat="42.4952392578125" lon="-7.328917980194092">
        <ele>518.0</ele>
        <time>2019-04-27T09:05:29.000Z</time>
      </trkpt>
      <trkpt lat="42.49523162841797" lon="-7.32900333404541">
        <ele>519.0</ele>
        <time>2019-04-27T09:05:34.000Z</time>
      </trkpt>
      <trkpt lat="42.4952278137207" lon="-7.3290839195251465">
        <ele>519.0</ele>
        <time>2019-04-27T09:05:39.000Z</time>
      </trkpt>
      <trkpt lat="42.49522399902344" lon="-7.329162120819092">
        <ele>520.0</ele>
        <time>2019-04-27T09:05:43.000Z</time>
      </trkpt>
      <trkpt lat="42.49520492553711" lon="-7.329226970672607">
        <ele>520.0</ele>
        <time>2019-04-27T09:05:46.000Z</time>
      </trkpt>
      <trkpt lat="42.495182037353516" lon="-7.329283714294434">
        <ele>520.0</ele>
        <time>2019-04-27T09:05:49.000Z</time>
      </trkpt>
      <trkpt lat="42.495155334472656" lon="-7.329334735870361">
        <ele>521.0</ele>
        <time>2019-04-27T09:05:52.000Z</time>
      </trkpt>
      <trkpt lat="42.4951286315918" lon="-7.329383373260498">
        <ele>521.0</ele>
        <time>2019-04-27T09:05:55.000Z</time>
      </trkpt>
      <trkpt lat="42.495079040527344" lon="-7.329638957977295">
        <ele>523.0</ele>
        <time>2019-04-27T09:06:14.000Z</time>
      </trkpt>
      <trkpt lat="42.49503707885742" lon="-7.329886436462402">
        <ele>524.0</ele>
        <time>2019-04-27T09:06:30.000Z</time>
      </trkpt>
      <trkpt lat="42.49495315551758" lon="-7.330118179321289">
        <ele>524.0</ele>
        <time>2019-04-27T09:06:46.000Z</time>
      </trkpt>
      <trkpt lat="42.49491882324219" lon="-7.330513954162598">
        <ele>520.0</ele>
        <time>2019-04-27T09:07:14.000Z</time>
      </trkpt>
      <trkpt lat="42.49489974975586" lon="-7.3305888175964355">
        <ele>516.0</ele>
        <time>2019-04-27T09:07:35.000Z</time>
      </trkpt>
      <trkpt lat="42.49489212036133" lon="-7.330631732940674">
        <ele>516.0</ele>
        <time>2019-04-27T09:07:36.000Z</time>
      </trkpt>
      <trkpt lat="42.49480056762695" lon="-7.331087112426758">
        <ele>515.0</ele>
        <time>2019-04-27T09:07:59.000Z</time>
      </trkpt>
      <trkpt lat="42.49478530883789" lon="-7.3314666748046875">
        <ele>515.0</ele>
        <time>2019-04-27T09:08:23.000Z</time>
      </trkpt>
      <trkpt lat="42.494686126708984" lon="-7.331916332244873">
        <ele>519.0</ele>
        <time>2019-04-27T09:08:55.000Z</time>
      </trkpt>
      <trkpt lat="42.49470520019531" lon="-7.33237361907959">
        <ele>520.0</ele>
        <time>2019-04-27T09:09:16.000Z</time>
      </trkpt>
      <trkpt lat="42.4947395324707" lon="-7.332578659057617">
        <ele>522.0</ele>
        <time>2019-04-27T09:09:28.000Z</time>
      </trkpt>
      <trkpt lat="42.494720458984375" lon="-7.332637310028076">
        <ele>523.0</ele>
        <time>2019-04-27T09:09:33.000Z</time>
      </trkpt>
      <trkpt lat="42.494693756103516" lon="-7.332699298858643">
        <ele>524.0</ele>
        <time>2019-04-27T09:09:38.000Z</time>
      </trkpt>
      <trkpt lat="42.494659423828125" lon="-7.332763195037842">
        <ele>525.0</ele>
        <time>2019-04-27T09:09:43.000Z</time>
      </trkpt>
      <trkpt lat="42.49462127685547" lon="-7.332828044891357">
        <ele>526.0</ele>
        <time>2019-04-27T09:09:48.000Z</time>
      </trkpt>
      <trkpt lat="42.494598388671875" lon="-7.33292818069458">
        <ele>526.0</ele>
        <time>2019-04-27T09:09:59.000Z</time>
      </trkpt>
      <trkpt lat="42.49457931518555" lon="-7.333044528961182">
        <ele>526.0</ele>
        <time>2019-04-27T09:10:09.000Z</time>
      </trkpt>
      <trkpt lat="42.49456024169922" lon="-7.333171844482422">
        <ele>526.0</ele>
        <time>2019-04-27T09:10:20.000Z</time>
      </trkpt>
      <trkpt lat="42.49454116821289" lon="-7.333303928375244">
        <ele>526.0</ele>
        <time>2019-04-27T09:10:30.000Z</time>
      </trkpt>
      <trkpt lat="42.49449157714844" lon="-7.333352088928223">
        <ele>526.0</ele>
        <time>2019-04-27T09:10:33.000Z</time>
      </trkpt>
      <trkpt lat="42.49443054199219" lon="-7.333370685577393">
        <ele>526.0</ele>
        <time>2019-04-27T09:10:36.000Z</time>
      </trkpt>
      <trkpt lat="42.49435806274414" lon="-7.333369255065918">
        <ele>526.0</ele>
        <time>2019-04-27T09:10:39.000Z</time>
      </trkpt>
      <trkpt lat="42.494285583496094" lon="-7.333358287811279">
        <ele>527.0</ele>
        <time>2019-04-27T09:10:42.000Z</time>
      </trkpt>
      <trkpt lat="42.4942512512207" lon="-7.333381652832031">
        <ele>527.0</ele>
        <time>2019-04-27T09:10:45.000Z</time>
      </trkpt>
      <trkpt lat="42.494232177734375" lon="-7.333409309387207">
        <ele>527.0</ele>
        <time>2019-04-27T09:10:47.000Z</time>
      </trkpt>
      <trkpt lat="42.49422073364258" lon="-7.333439350128174">
        <ele>527.0</ele>
        <time>2019-04-27T09:10:49.000Z</time>
      </trkpt>
      <trkpt lat="42.49421310424805" lon="-7.333471298217773">
        <ele>527.0</ele>
        <time>2019-04-27T09:10:51.000Z</time>
      </trkpt>
      <trkpt lat="42.49420166015625" lon="-7.333498001098633">
        <ele>527.0</ele>
        <time>2019-04-27T09:10:53.000Z</time>
      </trkpt>
      <trkpt lat="42.49419403076172" lon="-7.333523750305176">
        <ele>527.0</ele>
        <time>2019-04-27T09:10:55.000Z</time>
      </trkpt>
      <trkpt lat="42.49418640136719" lon="-7.333549499511719">
        <ele>528.0</ele>
        <time>2019-04-27T09:10:57.000Z</time>
      </trkpt>
      <trkpt lat="42.49418258666992" lon="-7.3335747718811035">
        <ele>528.0</ele>
        <time>2019-04-27T09:10:59.000Z</time>
      </trkpt>
      <trkpt lat="42.49420928955078" lon="-7.333641529083252">
        <ele>527.0</ele>
        <time>2019-04-27T09:11:05.000Z</time>
      </trkpt>
      <trkpt lat="42.49424743652344" lon="-7.333725452423096">
        <ele>527.0</ele>
        <time>2019-04-27T09:11:10.000Z</time>
      </trkpt>
      <trkpt lat="42.49429702758789" lon="-7.3338212966918945">
        <ele>526.0</ele>
        <time>2019-04-27T09:11:16.000Z</time>
      </trkpt>
      <trkpt lat="42.494346618652344" lon="-7.333922386169434">
        <ele>525.0</ele>
        <time>2019-04-27T09:11:21.000Z</time>
      </trkpt>
      <trkpt lat="42.49436950683594" lon="-7.3339619636535645">
        <ele>525.0</ele>
        <time>2019-04-27T09:11:23.000Z</time>
      </trkpt>
      <trkpt lat="42.494380950927734" lon="-7.333981513977051">
        <ele>524.0</ele>
        <time>2019-04-27T09:11:25.000Z</time>
      </trkpt>
      <trkpt lat="42.494388580322266" lon="-7.333987712860107">
        <ele>525.0</ele>
        <time>2019-04-27T09:11:27.000Z</time>
      </trkpt>
      <trkpt lat="42.49439239501953" lon="-7.333987712860107">
        <ele>525.0</ele>
        <time>2019-04-27T09:11:28.000Z</time>
      </trkpt>
      <trkpt lat="42.4943733215332" lon="-7.334021091461182">
        <ele>523.0</ele>
        <time>2019-04-27T09:11:34.000Z</time>
      </trkpt>
      <trkpt lat="42.49433898925781" lon="-7.334061622619629">
        <ele>522.0</ele>
        <time>2019-04-27T09:11:40.000Z</time>
      </trkpt>
      <trkpt lat="42.49429702758789" lon="-7.334106922149658">
        <ele>520.0</ele>
        <time>2019-04-27T09:11:46.000Z</time>
      </trkpt>
      <trkpt lat="42.4942512512207" lon="-7.3341546058654785">
        <ele>518.0</ele>
        <time>2019-04-27T09:11:52.000Z</time>
      </trkpt>
      <trkpt lat="42.494258880615234" lon="-7.334192276000977">
        <ele>517.0</ele>
        <time>2019-04-27T09:11:56.000Z</time>
      </trkpt>
      <trkpt lat="42.494285583496094" lon="-7.334228038787842">
        <ele>515.0</ele>
        <time>2019-04-27T09:12:00.000Z</time>
      </trkpt>
      <trkpt lat="42.49432373046875" lon="-7.334262371063232">
        <ele>514.0</ele>
        <time>2019-04-27T09:12:04.000Z</time>
      </trkpt>
      <trkpt lat="42.49436569213867" lon="-7.334296226501465">
        <ele>513.0</ele>
        <time>2019-04-27T09:12:08.000Z</time>
      </trkpt>
      <trkpt lat="42.494388580322266" lon="-7.3343071937561035">
        <ele>513.0</ele>
        <time>2019-04-27T09:12:10.000Z</time>
      </trkpt>
      <trkpt lat="42.49440383911133" lon="-7.334307670593262">
        <ele>514.0</ele>
        <time>2019-04-27T09:12:12.000Z</time>
      </trkpt>
      <trkpt lat="42.49441909790039" lon="-7.334301471710205">
        <ele>515.0</ele>
        <time>2019-04-27T09:12:14.000Z</time>
      </trkpt>
      <trkpt lat="42.49443054199219" lon="-7.334291458129883">
        <ele>516.0</ele>
        <time>2019-04-27T09:12:16.000Z</time>
      </trkpt>
      <trkpt lat="42.49444580078125" lon="-7.334297180175781">
        <ele>517.0</ele>
        <time>2019-04-27T09:12:25.000Z</time>
      </trkpt>
      <trkpt lat="42.49445343017578" lon="-7.334306240081787">
        <ele>518.0</ele>
        <time>2019-04-27T09:12:33.000Z</time>
      </trkpt>
      <trkpt lat="42.49446105957031" lon="-7.334317207336426">
        <ele>519.0</ele>
        <time>2019-04-27T09:12:42.000Z</time>
      </trkpt>
      <trkpt lat="42.49447250366211" lon="-7.334329128265381">
        <ele>520.0</ele>
        <time>2019-04-27T09:12:51.000Z</time>
      </trkpt>
      <trkpt lat="42.49448013305664" lon="-7.334336280822754">
        <ele>520.0</ele>
        <time>2019-04-27T09:12:51.000Z</time>
      </trkpt>
      <trkpt lat="42.494483947753906" lon="-7.3343424797058105">
        <ele>520.0</ele>
        <time>2019-04-27T09:12:51.000Z</time>
      </trkpt>
      <trkpt lat="42.49449157714844" lon="-7.334347724914551">
        <ele>520.0</ele>
        <time>2019-04-27T09:12:51.000Z</time>
      </trkpt>
      <trkpt lat="42.4944953918457" lon="-7.334352970123291">
        <ele>520.0</ele>
        <time>2019-04-27T09:12:52.000Z</time>
      </trkpt>
      <trkpt lat="42.494510650634766" lon="-7.33437442779541">
        <ele>520.0</ele>
        <time>2019-04-27T09:12:52.000Z</time>
      </trkpt>
      <trkpt lat="42.49453353881836" lon="-7.334402561187744">
        <ele>520.0</ele>
        <time>2019-04-27T09:12:53.000Z</time>
      </trkpt>
      <trkpt lat="42.49455642700195" lon="-7.334434986114502">
        <ele>520.0</ele>
        <time>2019-04-27T09:12:54.000Z</time>
      </trkpt>
      <trkpt lat="42.49457931518555" lon="-7.334469795227051">
        <ele>520.0</ele>
        <time>2019-04-27T09:12:55.000Z</time>
      </trkpt>
      <trkpt lat="42.49456787109375" lon="-7.3345046043396">
        <ele>520.0</ele>
        <time>2019-04-27T09:13:00.000Z</time>
      </trkpt>
      <trkpt lat="42.49454116821289" lon="-7.334542751312256">
        <ele>520.0</ele>
        <time>2019-04-27T09:13:06.000Z</time>
      </trkpt>
      <trkpt lat="42.494503021240234" lon="-7.3345818519592285">
        <ele>520.0</ele>
        <time>2019-04-27T09:13:11.000Z</time>
      </trkpt>
      <trkpt lat="42.49446105957031" lon="-7.334621906280518">
        <ele>519.0</ele>
        <time>2019-04-27T09:13:17.000Z</time>
      </trkpt>
      <trkpt lat="42.49446105957031" lon="-7.3346428871154785">
        <ele>519.0</ele>
        <time>2019-04-27T09:13:18.000Z</time>
      </trkpt>
      <trkpt lat="42.494468688964844" lon="-7.334656715393066">
        <ele>519.0</ele>
        <time>2019-04-27T09:13:18.000Z</time>
      </trkpt>
      <trkpt lat="42.494483947753906" lon="-7.334665775299072">
        <ele>520.0</ele>
        <time>2019-04-27T09:13:19.000Z</time>
      </trkpt>
      <trkpt lat="42.494503021240234" lon="-7.334671974182129">
        <ele>520.0</ele>
        <time>2019-04-27T09:13:20.000Z</time>
      </trkpt>
      <trkpt lat="42.494529724121094" lon="-7.33465576171875">
        <ele>520.0</ele>
        <time>2019-04-27T09:13:23.000Z</time>
      </trkpt>
      <trkpt lat="42.49456787109375" lon="-7.334627151489258">
        <ele>520.0</ele>
        <time>2019-04-27T09:13:27.000Z</time>
      </trkpt>
      <trkpt lat="42.49460983276367" lon="-7.334590911865234">
        <ele>521.0</ele>
        <time>2019-04-27T09:13:30.000Z</time>
      </trkpt>
      <trkpt lat="42.49465560913086" lon="-7.334549903869629">
        <ele>521.0</ele>
        <time>2019-04-27T09:13:34.000Z</time>
      </trkpt>
      <trkpt lat="42.49467849731445" lon="-7.334543704986572">
        <ele>522.0</ele>
        <time>2019-04-27T09:13:36.000Z</time>
      </trkpt>
      <trkpt lat="42.49469757080078" lon="-7.334547519683838">
        <ele>522.0</ele>
        <time>2019-04-27T09:13:38.000Z</time>
      </trkpt>
      <trkpt lat="42.494712829589844" lon="-7.334558486938477">
        <ele>523.0</ele>
        <time>2019-04-27T09:13:40.000Z</time>
      </trkpt>
      <trkpt lat="42.49472427368164" lon="-7.3345723152160645">
        <ele>523.0</ele>
        <time>2019-04-27T09:13:43.000Z</time>
      </trkpt>
      <trkpt lat="42.4947395324707" lon="-7.334578514099121">
        <ele>525.0</ele>
        <time>2019-04-27T09:13:53.000Z</time>
      </trkpt>
      <trkpt lat="42.49475860595703" lon="-7.334584712982178">
        <ele>527.0</ele>
        <time>2019-04-27T09:14:03.000Z</time>
      </trkpt>
      <trkpt lat="42.494773864746094" lon="-7.334590911865234">
        <ele>530.0</ele>
        <time>2019-04-27T09:14:13.000Z</time>
      </trkpt>
      <trkpt lat="42.494789123535156" lon="-7.334597110748291">
        <ele>532.0</ele>
        <time>2019-04-27T09:14:24.000Z</time>
      </trkpt>
      <trkpt lat="42.49480056762695" lon="-7.334601879119873">
        <ele>533.0</ele>
        <time>2019-04-27T09:14:24.000Z</time>
      </trkpt>
      <trkpt lat="42.49481201171875" lon="-7.334606170654297">
        <ele>533.0</ele>
        <time>2019-04-27T09:14:24.000Z</time>
      </trkpt>
      <trkpt lat="42.49482345581055" lon="-7.3346099853515625">
        <ele>533.0</ele>
        <time>2019-04-27T09:14:24.000Z</time>
      </trkpt>
      <trkpt lat="42.49483108520508" lon="-7.33461332321167">
        <ele>532.0</ele>
        <time>2019-04-27T09:14:25.000Z</time>
      </trkpt>
      <trkpt lat="42.49489212036133" lon="-7.33464241027832">
        <ele>533.0</ele>
        <time>2019-04-27T09:14:27.000Z</time>
      </trkpt>
      <trkpt lat="42.49496841430664" lon="-7.334681034088135">
        <ele>533.0</ele>
        <time>2019-04-27T09:14:29.000Z</time>
      </trkpt>
      <trkpt lat="42.495059967041016" lon="-7.334726810455322">
        <ele>534.0</ele>
        <time>2019-04-27T09:14:31.000Z</time>
      </trkpt>
      <trkpt lat="42.49515914916992" lon="-7.334775924682617">
        <ele>535.0</ele>
        <time>2019-04-27T09:14:33.000Z</time>
      </trkpt>
      <trkpt lat="42.49521255493164" lon="-7.334797382354736">
        <ele>535.0</ele>
        <time>2019-04-27T09:14:36.000Z</time>
      </trkpt>
      <trkpt lat="42.4952507019043" lon="-7.334810256958008">
        <ele>535.0</ele>
        <time>2019-04-27T09:14:39.000Z</time>
      </trkpt>
      <trkpt lat="42.495277404785156" lon="-7.334817886352539">
        <ele>536.0</ele>
        <time>2019-04-27T09:14:42.000Z</time>
      </trkpt>
      <trkpt lat="42.495304107666016" lon="-7.334823131561279">
        <ele>536.0</ele>
        <time>2019-04-27T09:14:46.000Z</time>
      </trkpt>
      <trkpt lat="42.49540328979492" lon="-7.33478307723999">
        <ele>535.0</ele>
        <time>2019-04-27T09:14:56.000Z</time>
      </trkpt>
      <trkpt lat="42.495513916015625" lon="-7.334714412689209">
        <ele>534.0</ele>
        <time>2019-04-27T09:15:06.000Z</time>
      </trkpt>
      <trkpt lat="42.49559020996094" lon="-7.334707260131836">
        <ele>534.0</ele>
        <time>2019-04-27T09:15:13.000Z</time>
      </trkpt>
      <trkpt lat="42.49567794799805" lon="-7.3347086906433105">
        <ele>535.0</ele>
        <time>2019-04-27T09:15:21.000Z</time>
      </trkpt>
      <trkpt lat="42.49577331542969" lon="-7.334715843200684">
        <ele>536.0</ele>
        <time>2019-04-27T09:15:28.000Z</time>
      </trkpt>
      <trkpt lat="42.49586868286133" lon="-7.334725856781006">
        <ele>537.0</ele>
        <time>2019-04-27T09:15:36.000Z</time>
      </trkpt>
      <trkpt lat="42.4959602355957" lon="-7.334719181060791">
        <ele>537.0</ele>
        <time>2019-04-27T09:15:43.000Z</time>
      </trkpt>
      <trkpt lat="42.496055603027344" lon="-7.334708213806152">
        <ele>538.0</ele>
        <time>2019-04-27T09:15:50.000Z</time>
      </trkpt>
      <trkpt lat="42.49614715576172" lon="-7.334694862365723">
        <ele>538.0</ele>
        <time>2019-04-27T09:15:57.000Z</time>
      </trkpt>
      <trkpt lat="42.496238708496094" lon="-7.334680080413818">
        <ele>538.0</ele>
        <time>2019-04-27T09:16:05.000Z</time>
      </trkpt>
      <trkpt lat="42.49633026123047" lon="-7.334666728973389">
        <ele>537.0</ele>
        <time>2019-04-27T09:16:12.000Z</time>
      </trkpt>
      <trkpt lat="42.496421813964844" lon="-7.334651947021484">
        <ele>536.0</ele>
        <time>2019-04-27T09:16:20.000Z</time>
      </trkpt>
      <trkpt lat="42.49651336669922" lon="-7.33463716506958">
        <ele>534.0</ele>
        <time>2019-04-27T09:16:27.000Z</time>
      </trkpt>
      <trkpt lat="42.496604919433594" lon="-7.334622383117676">
        <ele>533.0</ele>
        <time>2019-04-27T09:16:35.000Z</time>
      </trkpt>
      <trkpt lat="42.4966926574707" lon="-7.334601402282715">
        <ele>531.0</ele>
        <time>2019-04-27T09:16:43.000Z</time>
      </trkpt>
      <trkpt lat="42.49678039550781" lon="-7.334577560424805">
        <ele>530.0</ele>
        <time>2019-04-27T09:16:51.000Z</time>
      </trkpt>
      <trkpt lat="42.49686813354492" lon="-7.334551811218262">
        <ele>529.0</ele>
        <time>2019-04-27T09:16:59.000Z</time>
      </trkpt>
      <trkpt lat="42.49695587158203" lon="-7.3345255851745605">
        <ele>528.0</ele>
        <time>2019-04-27T09:17:07.000Z</time>
      </trkpt>
      <trkpt lat="42.49704360961914" lon="-7.334498405456543">
        <ele>527.0</ele>
        <time>2019-04-27T09:17:15.000Z</time>
      </trkpt>
      <trkpt lat="42.497127532958984" lon="-7.334470272064209">
        <ele>527.0</ele>
        <time>2019-04-27T09:17:23.000Z</time>
      </trkpt>
      <trkpt lat="42.497215270996094" lon="-7.334441661834717">
        <ele>526.0</ele>
        <time>2019-04-27T09:17:31.000Z</time>
      </trkpt>
      <trkpt lat="42.49729919433594" lon="-7.334412097930908">
        <ele>526.0</ele>
        <time>2019-04-27T09:17:40.000Z</time>
      </trkpt>
      <trkpt lat="42.497440338134766" lon="-7.334354877471924">
        <ele>527.0</ele>
        <time>2019-04-27T09:17:59.000Z</time>
      </trkpt>
      <trkpt lat="42.49753952026367" lon="-7.33430290222168">
        <ele>525.0</ele>
        <time>2019-04-27T09:18:14.000Z</time>
      </trkpt>
      <trkpt lat="42.49757385253906" lon="-7.33428430557251">
        <ele>525.0</ele>
        <time>2019-04-27T09:18:15.000Z</time>
      </trkpt>
      <trkpt lat="42.4979133605957" lon="-7.3341522216796875">
        <ele>525.0</ele>
        <time>2019-04-27T09:18:37.000Z</time>
      </trkpt>
      <trkpt lat="42.4982795715332" lon="-7.334059238433838">
        <ele>526.0</ele>
        <time>2019-04-27T09:19:05.000Z</time>
      </trkpt>
      <trkpt lat="42.498291015625" lon="-7.334054470062256">
        <ele>526.0</ele>
        <time>2019-04-27T09:19:07.000Z</time>
      </trkpt>
      <trkpt lat="42.49834060668945" lon="-7.334007740020752">
        <ele>518.0</ele>
        <time>2019-04-27T09:19:24.000Z</time>
      </trkpt>
      <trkpt lat="42.49837112426758" lon="-7.333981513977051">
        <ele>518.0</ele>
        <time>2019-04-27T09:19:25.000Z</time>
      </trkpt>
      <trkpt lat="42.49870300292969" lon="-7.333817481994629">
        <ele>516.0</ele>
        <time>2019-04-27T09:19:49.000Z</time>
      </trkpt>
      <trkpt lat="42.499046325683594" lon="-7.333742618560791">
        <ele>516.0</ele>
        <time>2019-04-27T09:20:19.000Z</time>
      </trkpt>
      <trkpt lat="42.49936294555664" lon="-7.33383321762085">
        <ele>515.0</ele>
        <time>2019-04-27T09:20:57.000Z</time>
      </trkpt>
      <trkpt lat="42.499385833740234" lon="-7.33383321762085">
        <ele>514.0</ele>
        <time>2019-04-27T09:21:14.000Z</time>
      </trkpt>
      <trkpt lat="42.49940490722656" lon="-7.333832740783691">
        <ele>514.0</ele>
        <time>2019-04-27T09:21:15.000Z</time>
      </trkpt>
      <trkpt lat="42.49961853027344" lon="-7.333810329437256">
        <ele>514.0</ele>
        <time>2019-04-27T09:21:22.000Z</time>
      </trkpt>
      <trkpt lat="42.49965286254883" lon="-7.333784580230713">
        <ele>514.0</ele>
        <time>2019-04-27T09:21:25.000Z</time>
      </trkpt>
      <trkpt lat="42.49968338012695" lon="-7.333749771118164">
        <ele>513.0</ele>
        <time>2019-04-27T09:21:29.000Z</time>
      </trkpt>
      <trkpt lat="42.49971008300781" lon="-7.333709239959717">
        <ele>513.0</ele>
        <time>2019-04-27T09:21:32.000Z</time>
      </trkpt>
      <trkpt lat="42.499732971191406" lon="-7.3336663246154785">
        <ele>513.0</ele>
        <time>2019-04-27T09:21:36.000Z</time>
      </trkpt>
      <trkpt lat="42.499752044677734" lon="-7.333643913269043">
        <ele>512.0</ele>
        <time>2019-04-27T09:21:38.000Z</time>
      </trkpt>
      <trkpt lat="42.499759674072266" lon="-7.333627223968506">
        <ele>512.0</ele>
        <time>2019-04-27T09:21:41.000Z</time>
      </trkpt>
      <trkpt lat="42.4997673034668" lon="-7.333614349365234">
        <ele>512.0</ele>
        <time>2019-04-27T09:21:44.000Z</time>
      </trkpt>
      <trkpt lat="42.49977111816406" lon="-7.3336029052734375">
        <ele>511.0</ele>
        <time>2019-04-27T09:21:47.000Z</time>
      </trkpt>
      <trkpt lat="42.49979019165039" lon="-7.333597660064697">
        <ele>511.0</ele>
        <time>2019-04-27T09:21:52.000Z</time>
      </trkpt>
      <trkpt lat="42.49980926513672" lon="-7.333596706390381">
        <ele>510.0</ele>
        <time>2019-04-27T09:21:57.000Z</time>
      </trkpt>
      <trkpt lat="42.49983215332031" lon="-7.333599090576172">
        <ele>509.0</ele>
        <time>2019-04-27T09:22:02.000Z</time>
      </trkpt>
      <trkpt lat="42.499855041503906" lon="-7.333602428436279">
        <ele>508.0</ele>
        <time>2019-04-27T09:22:07.000Z</time>
      </trkpt>
      <trkpt lat="42.49987030029297" lon="-7.333602428436279">
        <ele>508.0</ele>
        <time>2019-04-27T09:22:07.000Z</time>
      </trkpt>
      <trkpt lat="42.4998779296875" lon="-7.333602428436279">
        <ele>508.0</ele>
        <time>2019-04-27T09:22:07.000Z</time>
      </trkpt>
      <trkpt lat="42.49988555908203" lon="-7.333602428436279">
        <ele>508.0</ele>
        <time>2019-04-27T09:22:07.000Z</time>
      </trkpt>
      <trkpt lat="42.49989318847656" lon="-7.333602428436279">
        <ele>508.0</ele>
        <time>2019-04-27T09:22:08.000Z</time>
      </trkpt>
      <trkpt lat="42.499916076660156" lon="-7.333609580993652">
        <ele>508.0</ele>
        <time>2019-04-27T09:22:09.000Z</time>
      </trkpt>
      <trkpt lat="42.499942779541016" lon="-7.333620071411133">
        <ele>507.0</ele>
        <time>2019-04-27T09:22:11.000Z</time>
      </trkpt>
      <trkpt lat="42.49997329711914" lon="-7.333632469177246">
        <ele>507.0</ele>
        <time>2019-04-27T09:22:12.000Z</time>
      </trkpt>
      <trkpt lat="42.50000762939453" lon="-7.333645820617676">
        <ele>507.0</ele>
        <time>2019-04-27T09:22:14.000Z</time>
      </trkpt>
      <trkpt lat="42.500022888183594" lon="-7.333651542663574">
        <ele>506.0</ele>
        <time>2019-04-27T09:22:17.000Z</time>
      </trkpt>
      <trkpt lat="42.500030517578125" lon="-7.333654880523682">
        <ele>505.0</ele>
        <time>2019-04-27T09:22:21.000Z</time>
      </trkpt>
      <trkpt lat="42.500030517578125" lon="-7.333656311035156">
        <ele>504.0</ele>
        <time>2019-04-27T09:22:25.000Z</time>
      </trkpt>
      <trkpt lat="42.50003433227539" lon="-7.333657264709473">
        <ele>504.0</ele>
        <time>2019-04-27T09:22:29.000Z</time>
      </trkpt>
      <trkpt lat="42.500038146972656" lon="-7.333659648895264">
        <ele>503.0</ele>
        <time>2019-04-27T09:22:29.000Z</time>
      </trkpt>
      <trkpt lat="42.50004196166992" lon="-7.333662033081055">
        <ele>503.0</ele>
        <time>2019-04-27T09:22:29.000Z</time>
      </trkpt>
      <trkpt lat="42.50004959106445" lon="-7.3336639404296875">
        <ele>503.0</ele>
        <time>2019-04-27T09:22:29.000Z</time>
      </trkpt>
      <trkpt lat="42.50005340576172" lon="-7.33366584777832">
        <ele>504.0</ele>
        <time>2019-04-27T09:22:30.000Z</time>
      </trkpt>
      <trkpt lat="42.50010299682617" lon="-7.333670616149902">
        <ele>504.0</ele>
        <time>2019-04-27T09:22:34.000Z</time>
      </trkpt>
      <trkpt lat="42.50016784667969" lon="-7.333676338195801">
        <ele>504.0</ele>
        <time>2019-04-27T09:22:39.000Z</time>
      </trkpt>
      <trkpt lat="42.500247955322266" lon="-7.333682537078857">
        <ele>504.0</ele>
        <time>2019-04-27T09:22:43.000Z</time>
      </trkpt>
      <trkpt lat="42.500335693359375" lon="-7.333689212799072">
        <ele>504.0</ele>
        <time>2019-04-27T09:22:48.000Z</time>
      </trkpt>
      <trkpt lat="42.5003662109375" lon="-7.333709239959717">
        <ele>504.0</ele>
        <time>2019-04-27T09:22:52.000Z</time>
      </trkpt>
      <trkpt lat="42.5003776550293" lon="-7.333734512329102">
        <ele>504.0</ele>
        <time>2019-04-27T09:22:56.000Z</time>
      </trkpt>
      <trkpt lat="42.50038146972656" lon="-7.33376407623291">
        <ele>504.0</ele>
        <time>2019-04-27T09:23:00.000Z</time>
      </trkpt>
      <trkpt lat="42.50037384033203" lon="-7.333795070648193">
        <ele>503.0</ele>
        <time>2019-04-27T09:23:05.000Z</time>
      </trkpt>
      <trkpt lat="42.50038146972656" lon="-7.333812236785889">
        <ele>503.0</ele>
        <time>2019-04-27T09:23:05.000Z</time>
      </trkpt>
      <trkpt lat="42.500389099121094" lon="-7.333826065063477">
        <ele>503.0</ele>
        <time>2019-04-27T09:23:05.000Z</time>
      </trkpt>
      <trkpt lat="42.50039291381836" lon="-7.333837032318115">
        <ele>503.0</ele>
        <time>2019-04-27T09:23:05.000Z</time>
      </trkpt>
      <trkpt lat="42.500396728515625" lon="-7.333846569061279">
        <ele>503.0</ele>
        <time>2019-04-27T09:23:06.000Z</time>
      </trkpt>
      <trkpt lat="42.50041198730469" lon="-7.333926677703857">
        <ele>503.0</ele>
        <time>2019-04-27T09:23:13.000Z</time>
      </trkpt>
      <trkpt lat="42.50043869018555" lon="-7.334034442901611">
        <ele>502.0</ele>
        <time>2019-04-27T09:23:21.000Z</time>
      </trkpt>
      <trkpt lat="42.500465393066406" lon="-7.334161281585693">
        <ele>501.0</ele>
        <time>2019-04-27T09:23:28.000Z</time>
      </trkpt>
      <trkpt lat="42.500492095947266" lon="-7.3342976570129395">
        <ele>500.0</ele>
        <time>2019-04-27T09:23:36.000Z</time>
      </trkpt>
      <trkpt lat="42.500511169433594" lon="-7.334378719329834">
        <ele>500.0</ele>
        <time>2019-04-27T09:23:41.000Z</time>
      </trkpt>
      <trkpt lat="42.500526428222656" lon="-7.334445953369141">
        <ele>500.0</ele>
        <time>2019-04-27T09:23:47.000Z</time>
      </trkpt>
      <trkpt lat="42.50053787231445" lon="-7.3345046043396">
        <ele>500.0</ele>
        <time>2019-04-27T09:23:53.000Z</time>
      </trkpt>
      <trkpt lat="42.50054931640625" lon="-7.334558963775635">
        <ele>500.0</ele>
        <time>2019-04-27T09:23:59.000Z</time>
      </trkpt>
      <trkpt lat="42.50056076049805" lon="-7.334591388702393">
        <ele>498.0</ele>
        <time>2019-04-27T09:24:03.000Z</time>
      </trkpt>
      <trkpt lat="42.50056457519531" lon="-7.334610462188721">
        <ele>496.0</ele>
        <time>2019-04-27T09:24:07.000Z</time>
      </trkpt>
      <trkpt lat="42.500572204589844" lon="-7.334620475769043">
        <ele>494.0</ele>
        <time>2019-04-27T09:24:11.000Z</time>
      </trkpt>
      <trkpt lat="42.50057601928711" lon="-7.334626197814941">
        <ele>492.0</ele>
        <time>2019-04-27T09:24:16.000Z</time>
      </trkpt>
      <trkpt lat="42.50058364868164" lon="-7.3346381187438965">
        <ele>491.0</ele>
        <time>2019-04-27T09:24:16.000Z</time>
      </trkpt>
      <trkpt lat="42.500587463378906" lon="-7.3346476554870605">
        <ele>491.0</ele>
        <time>2019-04-27T09:24:16.000Z</time>
      </trkpt>
      <trkpt lat="42.500587463378906" lon="-7.33465576171875">
        <ele>491.0</ele>
        <time>2019-04-27T09:24:16.000Z</time>
      </trkpt>
      <trkpt lat="42.50059127807617" lon="-7.334662914276123">
        <ele>492.0</ele>
        <time>2019-04-27T09:24:17.000Z</time>
      </trkpt>
      <trkpt lat="42.5007438659668" lon="-7.334920406341553">
        <ele>480.0</ele>
        <time>2019-04-27T09:24:37.000Z</time>
      </trkpt>
      <trkpt lat="42.50074768066406" lon="-7.334957599639893">
        <ele>478.0</ele>
        <time>2019-04-27T09:24:39.000Z</time>
      </trkpt>
      <trkpt lat="42.500736236572266" lon="-7.3349833488464355">
        <ele>477.0</ele>
        <time>2019-04-27T09:24:42.000Z</time>
      </trkpt>
      <trkpt lat="42.5007209777832" lon="-7.3350019454956055">
        <ele>477.0</ele>
        <time>2019-04-27T09:24:44.000Z</time>
      </trkpt>
      <trkpt lat="42.50069808959961" lon="-7.335016250610352">
        <ele>476.0</ele>
        <time>2019-04-27T09:24:47.000Z</time>
      </trkpt>
      <trkpt lat="42.50069808959961" lon="-7.335005283355713">
        <ele>475.0</ele>
        <time>2019-04-27T09:24:55.000Z</time>
      </trkpt>
      <trkpt lat="42.500709533691406" lon="-7.33497953414917">
        <ele>474.0</ele>
        <time>2019-04-27T09:25:03.000Z</time>
      </trkpt>
      <trkpt lat="42.5007209777832" lon="-7.334943771362305">
        <ele>473.0</ele>
        <time>2019-04-27T09:25:11.000Z</time>
      </trkpt>
      <trkpt lat="42.50074005126953" lon="-7.334903717041016">
        <ele>472.0</ele>
        <time>2019-04-27T09:25:19.000Z</time>
      </trkpt>
      <trkpt lat="42.500770568847656" lon="-7.334918975830078">
        <ele>472.0</ele>
        <time>2019-04-27T09:25:33.000Z</time>
      </trkpt>
      <trkpt lat="42.500816345214844" lon="-7.334952354431152">
        <ele>472.0</ele>
        <time>2019-04-27T09:25:48.000Z</time>
      </trkpt>
      <trkpt lat="42.5008659362793" lon="-7.334997653961182">
        <ele>473.0</ele>
        <time>2019-04-27T09:26:03.000Z</time>
      </trkpt>
      <trkpt lat="42.50091552734375" lon="-7.335049152374268">
        <ele>474.0</ele>
        <time>2019-04-27T09:26:18.000Z</time>
      </trkpt>
      <trkpt lat="42.500938415527344" lon="-7.335065841674805">
        <ele>474.0</ele>
        <time>2019-04-27T09:26:18.000Z</time>
      </trkpt>
      <trkpt lat="42.500946044921875" lon="-7.335073947906494">
        <ele>474.0</ele>
        <time>2019-04-27T09:26:18.000Z</time>
      </trkpt>
      <trkpt lat="42.50094985961914" lon="-7.335076808929443">
        <ele>474.0</ele>
        <time>2019-04-27T09:26:18.000Z</time>
      </trkpt>
      <trkpt lat="42.50094985961914" lon="-7.335076808929443">
        <ele>474.0</ele>
        <time>2019-04-27T09:26:19.000Z</time>
      </trkpt>
      <trkpt lat="42.500972747802734" lon="-7.335092544555664">
        <ele>474.0</ele>
        <time>2019-04-27T09:26:20.000Z</time>
      </trkpt>
      <trkpt lat="42.500999450683594" lon="-7.335112571716309">
        <ele>474.0</ele>
        <time>2019-04-27T09:26:22.000Z</time>
      </trkpt>
      <trkpt lat="42.50102996826172" lon="-7.335135459899902">
        <ele>474.0</ele>
        <time>2019-04-27T09:26:24.000Z</time>
      </trkpt>
      <trkpt lat="42.501060485839844" lon="-7.3351593017578125">
        <ele>473.0</ele>
        <time>2019-04-27T09:26:26.000Z</time>
      </trkpt>
      <trkpt lat="42.501068115234375" lon="-7.335184574127197">
        <ele>473.0</ele>
        <time>2019-04-27T09:26:28.000Z</time>
      </trkpt>
      <trkpt lat="42.50107192993164" lon="-7.335211277008057">
        <ele>473.0</ele>
        <time>2019-04-27T09:26:31.000Z</time>
      </trkpt>
      <trkpt lat="42.501068115234375" lon="-7.335239410400391">
        <ele>472.0</ele>
        <time>2019-04-27T09:26:33.000Z</time>
      </trkpt>
      <trkpt lat="42.50106430053711" lon="-7.335268020629883">
        <ele>472.0</ele>
        <time>2019-04-27T09:26:36.000Z</time>
      </trkpt>
      <trkpt lat="42.501075744628906" lon="-7.335305690765381">
        <ele>472.0</ele>
        <time>2019-04-27T09:26:46.000Z</time>
      </trkpt>
      <trkpt lat="42.501094818115234" lon="-7.3353352546691895">
        <ele>473.0</ele>
        <time>2019-04-27T09:26:57.000Z</time>
      </trkpt>
      <trkpt lat="42.5010986328125" lon="-7.3353471755981445">
        <ele>474.0</ele>
        <time>2019-04-27T09:26:57.000Z</time>
      </trkpt>
      <trkpt lat="42.501102447509766" lon="-7.335357189178467">
        <ele>474.0</ele>
        <time>2019-04-27T09:26:57.000Z</time>
      </trkpt>
      <trkpt lat="42.50110626220703" lon="-7.335365295410156">
        <ele>473.0</ele>
        <time>2019-04-27T09:26:57.000Z</time>
      </trkpt>
      <trkpt lat="42.5011100769043" lon="-7.3353729248046875">
        <ele>473.0</ele>
        <time>2019-04-27T09:26:58.000Z</time>
      </trkpt>
      <trkpt lat="42.50112533569336" lon="-7.335399627685547">
        <ele>473.0</ele>
        <time>2019-04-27T09:26:59.000Z</time>
      </trkpt>
      <trkpt lat="42.50114440917969" lon="-7.335433483123779">
        <ele>473.0</ele>
        <time>2019-04-27T09:27:00.000Z</time>
      </trkpt>
      <trkpt lat="42.50116729736328" lon="-7.335472583770752">
        <ele>473.0</ele>
        <time>2019-04-27T09:27:01.000Z</time>
      </trkpt>
      <trkpt lat="42.501190185546875" lon="-7.335513591766357">
        <ele>473.0</ele>
        <time>2019-04-27T09:27:02.000Z</time>
      </trkpt>
      <trkpt lat="42.501220703125" lon="-7.335528373718262">
        <ele>473.0</ele>
        <time>2019-04-27T09:27:05.000Z</time>
      </trkpt>
      <trkpt lat="42.501258850097656" lon="-7.335533618927002">
        <ele>474.0</ele>
        <time>2019-04-27T09:27:08.000Z</time>
      </trkpt>
      <trkpt lat="42.50129699707031" lon="-7.335533618927002">
        <ele>474.0</ele>
        <time>2019-04-27T09:27:11.000Z</time>
      </trkpt>
      <trkpt lat="42.501338958740234" lon="-7.3355302810668945">
        <ele>474.0</ele>
        <time>2019-04-27T09:27:14.000Z</time>
      </trkpt>
      <trkpt lat="42.50135803222656" lon="-7.3355207443237305">
        <ele>474.0</ele>
        <time>2019-04-27T09:27:17.000Z</time>
      </trkpt>
      <trkpt lat="42.501365661621094" lon="-7.335505485534668">
        <ele>473.0</ele>
        <time>2019-04-27T09:27:20.000Z</time>
      </trkpt>
      <trkpt lat="42.50136947631836" lon="-7.33548641204834">
        <ele>473.0</ele>
        <time>2019-04-27T09:27:23.000Z</time>
      </trkpt>
      <trkpt lat="42.50136947631836" lon="-7.335465431213379">
        <ele>472.0</ele>
        <time>2019-04-27T09:27:26.000Z</time>
      </trkpt>
      <trkpt lat="42.50141906738281" lon="-7.335488319396973">
        <ele>476.0</ele>
        <time>2019-04-27T09:39:08.000Z</time>
      </trkpt>
      <trkpt lat="42.50162124633789" lon="-7.335561752319336">
        <ele>469.0</ele>
        <time>2019-04-27T09:39:45.000Z</time>
      </trkpt>
      <trkpt lat="42.50162124633789" lon="-7.335561752319336">
        <ele>469.0</ele>
        <time>2019-04-27T09:39:46.000Z</time>
      </trkpt>
      <trkpt lat="42.50181198120117" lon="-7.335657119750977">
        <ele>466.0</ele>
        <time>2019-04-27T09:40:16.000Z</time>
      </trkpt>
      <trkpt lat="42.50186538696289" lon="-7.335679531097412">
        <ele>464.0</ele>
        <time>2019-04-27T09:40:45.000Z</time>
      </trkpt>
      <trkpt lat="42.501895904541016" lon="-7.335692405700684">
        <ele>464.0</ele>
        <time>2019-04-27T09:40:46.000Z</time>
      </trkpt>
      <trkpt lat="42.502079010009766" lon="-7.3357744216918945">
        <ele>462.0</ele>
        <time>2019-04-27T09:40:56.000Z</time>
      </trkpt>
      <trkpt lat="42.50214767456055" lon="-7.335846900939941">
        <ele>459.0</ele>
        <time>2019-04-27T09:41:09.000Z</time>
      </trkpt>
      <trkpt lat="42.50220489501953" lon="-7.335934638977051">
        <ele>455.0</ele>
        <time>2019-04-27T09:41:23.000Z</time>
      </trkpt>
      <trkpt lat="42.50221633911133" lon="-7.3359456062316895">
        <ele>455.0</ele>
        <time>2019-04-27T09:41:23.000Z</time>
      </trkpt>
      <trkpt lat="42.502220153808594" lon="-7.335945129394531">
        <ele>455.0</ele>
        <time>2019-04-27T09:41:24.000Z</time>
      </trkpt>
      <trkpt lat="42.50221633911133" lon="-7.335936546325684">
        <ele>455.0</ele>
        <time>2019-04-27T09:41:25.000Z</time>
      </trkpt>
      <trkpt lat="42.50221252441406" lon="-7.33592414855957">
        <ele>455.0</ele>
        <time>2019-04-27T09:41:26.000Z</time>
      </trkpt>
      <trkpt lat="42.50222396850586" lon="-7.335925579071045">
        <ele>454.0</ele>
        <time>2019-04-27T09:41:31.000Z</time>
      </trkpt>
      <trkpt lat="42.502235412597656" lon="-7.335928440093994">
        <ele>453.0</ele>
        <time>2019-04-27T09:41:37.000Z</time>
      </trkpt>
      <trkpt lat="42.50225067138672" lon="-7.335932731628418">
        <ele>451.0</ele>
        <time>2019-04-27T09:41:42.000Z</time>
      </trkpt>
      <trkpt lat="42.50226593017578" lon="-7.335937976837158">
        <ele>450.0</ele>
        <time>2019-04-27T09:41:48.000Z</time>
      </trkpt>
      <trkpt lat="42.50227355957031" lon="-7.335940361022949">
        <ele>449.0</ele>
        <time>2019-04-27T09:41:48.000Z</time>
      </trkpt>
      <trkpt lat="42.502281188964844" lon="-7.335942268371582">
        <ele>449.0</ele>
        <time>2019-04-27T09:41:48.000Z</time>
      </trkpt>
      <trkpt lat="42.502288818359375" lon="-7.335944175720215">
        <ele>449.0</ele>
        <time>2019-04-27T09:41:48.000Z</time>
      </trkpt>
      <trkpt lat="42.502296447753906" lon="-7.335946083068848">
        <ele>450.0</ele>
        <time>2019-04-27T09:41:49.000Z</time>
      </trkpt>
      <trkpt lat="42.502349853515625" lon="-7.335981369018555">
        <ele>449.0</ele>
        <time>2019-04-27T09:41:55.000Z</time>
      </trkpt>
      <trkpt lat="42.50242614746094" lon="-7.33603048324585">
        <ele>449.0</ele>
        <time>2019-04-27T09:42:02.000Z</time>
      </trkpt>
      <trkpt lat="42.50251388549805" lon="-7.336089134216309">
        <ele>448.0</ele>
        <time>2019-04-27T09:42:08.000Z</time>
      </trkpt>
      <trkpt lat="42.50260925292969" lon="-7.33615255355835">
        <ele>447.0</ele>
        <time>2019-04-27T09:42:15.000Z</time>
      </trkpt>
      <trkpt lat="42.502681732177734" lon="-7.336155414581299">
        <ele>446.0</ele>
        <time>2019-04-27T09:42:21.000Z</time>
      </trkpt>
      <trkpt lat="42.502716064453125" lon="-7.3361124992370605">
        <ele>445.0</ele>
        <time>2019-04-27T09:42:28.000Z</time>
      </trkpt>
      <trkpt lat="42.502742767333984" lon="-7.336074352264404">
        <ele>444.0</ele>
        <time>2019-04-27T09:42:34.000Z</time>
      </trkpt>
      <trkpt lat="42.50276565551758" lon="-7.336024761199951">
        <ele>443.0</ele>
        <time>2019-04-27T09:42:40.000Z</time>
      </trkpt>
      <trkpt lat="42.50279235839844" lon="-7.335967063903809">
        <ele>441.0</ele>
        <time>2019-04-27T09:42:46.000Z</time>
      </trkpt>
      <trkpt lat="42.5028190612793" lon="-7.3359055519104">
        <ele>440.0</ele>
        <time>2019-04-27T09:42:53.000Z</time>
      </trkpt>
      <trkpt lat="42.50284194946289" lon="-7.335887908935547">
        <ele>439.0</ele>
        <time>2019-04-27T09:42:56.000Z</time>
      </trkpt>
      <trkpt lat="42.50286865234375" lon="-7.335885047912598">
        <ele>438.0</ele>
        <time>2019-04-27T09:42:59.000Z</time>
      </trkpt>
      <trkpt lat="42.502891540527344" lon="-7.335892200469971">
        <ele>438.0</ele>
        <time>2019-04-27T09:43:02.000Z</time>
      </trkpt>
      <trkpt lat="42.50291442871094" lon="-7.335903644561768">
        <ele>438.0</ele>
        <time>2019-04-27T09:43:05.000Z</time>
      </trkpt>
      <trkpt lat="42.50296401977539" lon="-7.335964679718018">
        <ele>437.0</ele>
        <time>2019-04-27T09:43:14.000Z</time>
      </trkpt>
      <trkpt lat="42.50301742553711" lon="-7.336050987243652">
        <ele>435.0</ele>
        <time>2019-04-27T09:43:24.000Z</time>
      </trkpt>
      <trkpt lat="42.503082275390625" lon="-7.336154937744141">
        <ele>434.0</ele>
        <time>2019-04-27T09:43:33.000Z</time>
      </trkpt>
      <trkpt lat="42.50314712524414" lon="-7.336266994476318">
        <ele>432.0</ele>
        <time>2019-04-27T09:43:43.000Z</time>
      </trkpt>
      <trkpt lat="42.5031852722168" lon="-7.336246967315674">
        <ele>432.0</ele>
        <time>2019-04-27T09:43:51.000Z</time>
      </trkpt>
      <trkpt lat="42.503211975097656" lon="-7.336180210113525">
        <ele>431.0</ele>
        <time>2019-04-27T09:44:00.000Z</time>
      </trkpt>
      <trkpt lat="42.503231048583984" lon="-7.336082935333252">
        <ele>430.0</ele>
        <time>2019-04-27T09:44:09.000Z</time>
      </trkpt>
      <trkpt lat="42.50325012207031" lon="-7.335969924926758">
        <ele>430.0</ele>
        <time>2019-04-27T09:44:18.000Z</time>
      </trkpt>
      <trkpt lat="42.5032844543457" lon="-7.335940837860107">
        <ele>429.0</ele>
        <time>2019-04-27T09:44:21.000Z</time>
      </trkpt>
      <trkpt lat="42.50332260131836" lon="-7.335930347442627">
        <ele>429.0</ele>
        <time>2019-04-27T09:44:25.000Z</time>
      </trkpt>
      <trkpt lat="42.503360748291016" lon="-7.335933208465576">
        <ele>429.0</ele>
        <time>2019-04-27T09:44:28.000Z</time>
      </trkpt>
      <trkpt lat="42.50340270996094" lon="-7.335941791534424">
        <ele>428.0</ele>
        <time>2019-04-27T09:44:32.000Z</time>
      </trkpt>
      <trkpt lat="42.503475189208984" lon="-7.335954189300537">
        <ele>428.0</ele>
        <time>2019-04-27T09:44:40.000Z</time>
      </trkpt>
      <trkpt lat="42.50355911254883" lon="-7.335975170135498">
        <ele>427.0</ele>
        <time>2019-04-27T09:44:48.000Z</time>
      </trkpt>
      <trkpt lat="42.5036506652832" lon="-7.336001396179199">
        <ele>426.0</ele>
        <time>2019-04-27T09:44:56.000Z</time>
      </trkpt>
      <trkpt lat="42.50374984741211" lon="-7.33603048324585">
        <ele>425.0</ele>
        <time>2019-04-27T09:45:04.000Z</time>
      </trkpt>
      <trkpt lat="42.50383758544922" lon="-7.336047649383545">
        <ele>425.0</ele>
        <time>2019-04-27T09:45:11.000Z</time>
      </trkpt>
      <trkpt lat="42.50392532348633" lon="-7.336063385009766">
        <ele>425.0</ele>
        <time>2019-04-27T09:45:19.000Z</time>
      </trkpt>
      <trkpt lat="42.50401306152344" lon="-7.3360772132873535">
        <ele>424.0</ele>
        <time>2019-04-27T09:45:26.000Z</time>
      </trkpt>
      <trkpt lat="42.50410079956055" lon="-7.336090564727783">
        <ele>424.0</ele>
        <time>2019-04-27T09:45:34.000Z</time>
      </trkpt>
      <trkpt lat="42.504276275634766" lon="-7.336040019989014">
        <ele>423.0</ele>
        <time>2019-04-27T09:45:48.000Z</time>
      </trkpt>
      <trkpt lat="42.50444412231445" lon="-7.335951805114746">
        <ele>421.0</ele>
        <time>2019-04-27T09:46:03.000Z</time>
      </trkpt>
      <trkpt lat="42.504573822021484" lon="-7.335787773132324">
        <ele>421.0</ele>
        <time>2019-04-27T09:46:19.000Z</time>
      </trkpt>
      <trkpt lat="42.50468826293945" lon="-7.335580348968506">
        <ele>422.0</ele>
        <time>2019-04-27T09:46:35.000Z</time>
      </trkpt>
      <trkpt lat="42.50474548339844" lon="-7.335487365722656">
        <ele>421.0</ele>
        <time>2019-04-27T09:46:43.000Z</time>
      </trkpt>
      <trkpt lat="42.50480651855469" lon="-7.335394382476807">
        <ele>420.0</ele>
        <time>2019-04-27T09:46:52.000Z</time>
      </trkpt>
      <trkpt lat="42.50486373901367" lon="-7.335301876068115">
        <ele>419.0</ele>
        <time>2019-04-27T09:47:00.000Z</time>
      </trkpt>
      <trkpt lat="42.504920959472656" lon="-7.335208892822266">
        <ele>418.0</ele>
        <time>2019-04-27T09:47:09.000Z</time>
      </trkpt>
      <trkpt lat="42.50495910644531" lon="-7.335162162780762">
        <ele>418.0</ele>
        <time>2019-04-27T09:47:11.000Z</time>
      </trkpt>
      <trkpt lat="42.50498962402344" lon="-7.335135459899902">
        <ele>418.0</ele>
        <time>2019-04-27T09:47:14.000Z</time>
      </trkpt>
      <trkpt lat="42.50501251220703" lon="-7.3351216316223145">
        <ele>418.0</ele>
        <time>2019-04-27T09:47:16.000Z</time>
      </trkpt>
      <trkpt lat="42.505035400390625" lon="-7.335114002227783">
        <ele>418.0</ele>
        <time>2019-04-27T09:47:19.000Z</time>
      </trkpt>
      <trkpt lat="42.50505065917969" lon="-7.335071563720703">
        <ele>418.0</ele>
        <time>2019-04-27T09:47:22.000Z</time>
      </trkpt>
      <trkpt lat="42.505062103271484" lon="-7.335021018981934">
        <ele>418.0</ele>
        <time>2019-04-27T09:47:26.000Z</time>
      </trkpt>
      <trkpt lat="42.505069732666016" lon="-7.334965705871582">
        <ele>418.0</ele>
        <time>2019-04-27T09:47:30.000Z</time>
      </trkpt>
      <trkpt lat="42.50507736206055" lon="-7.334907531738281">
        <ele>418.0</ele>
        <time>2019-04-27T09:47:34.000Z</time>
      </trkpt>
      <trkpt lat="42.505088806152344" lon="-7.334910869598389">
        <ele>418.0</ele>
        <time>2019-04-27T09:47:37.000Z</time>
      </trkpt>
      <trkpt lat="42.505104064941406" lon="-7.33493709564209">
        <ele>417.0</ele>
        <time>2019-04-27T09:47:40.000Z</time>
      </trkpt>
      <trkpt lat="42.50511932373047" lon="-7.334978103637695">
        <ele>417.0</ele>
        <time>2019-04-27T09:47:43.000Z</time>
      </trkpt>
      <trkpt lat="42.505130767822266" lon="-7.33502721786499">
        <ele>417.0</ele>
        <time>2019-04-27T09:47:47.000Z</time>
      </trkpt>
      <trkpt lat="42.50514602661133" lon="-7.335117340087891">
        <ele>417.0</ele>
        <time>2019-04-27T09:47:57.000Z</time>
      </trkpt>
      <trkpt lat="42.50516128540039" lon="-7.335232734680176">
        <ele>416.0</ele>
        <time>2019-04-27T09:48:07.000Z</time>
      </trkpt>
      <trkpt lat="42.50518035888672" lon="-7.335364818572998">
        <ele>415.0</ele>
        <time>2019-04-27T09:48:17.000Z</time>
      </trkpt>
      <trkpt lat="42.50519561767578" lon="-7.335505485534668">
        <ele>414.0</ele>
        <time>2019-04-27T09:48:28.000Z</time>
      </trkpt>
      <trkpt lat="42.50519943237305" lon="-7.335625171661377">
        <ele>412.0</ele>
        <time>2019-04-27T09:48:39.000Z</time>
      </trkpt>
      <trkpt lat="42.50519561767578" lon="-7.335745334625244">
        <ele>410.0</ele>
        <time>2019-04-27T09:48:51.000Z</time>
      </trkpt>
      <trkpt lat="42.50518798828125" lon="-7.335865497589111">
        <ele>407.0</ele>
        <time>2019-04-27T09:49:03.000Z</time>
      </trkpt>
      <trkpt lat="42.50518035888672" lon="-7.335986137390137">
        <ele>405.0</ele>
        <time>2019-04-27T09:49:15.000Z</time>
      </trkpt>
      <trkpt lat="42.50517654418945" lon="-7.336104393005371">
        <ele>401.0</ele>
        <time>2019-04-27T09:49:27.000Z</time>
      </trkpt>
      <trkpt lat="42.50517272949219" lon="-7.3362226486206055">
        <ele>397.0</ele>
        <time>2019-04-27T09:49:40.000Z</time>
      </trkpt>
      <trkpt lat="42.50516891479492" lon="-7.336339950561523">
        <ele>392.0</ele>
        <time>2019-04-27T09:49:53.000Z</time>
      </trkpt>
      <trkpt lat="42.50516128540039" lon="-7.3364577293396">
        <ele>388.0</ele>
        <time>2019-04-27T09:50:06.000Z</time>
      </trkpt>
      <trkpt lat="42.50517272949219" lon="-7.3365583419799805">
        <ele>386.0</ele>
        <time>2019-04-27T09:50:12.000Z</time>
      </trkpt>
      <trkpt lat="42.505184173583984" lon="-7.3366522789001465">
        <ele>385.0</ele>
        <time>2019-04-27T09:50:19.000Z</time>
      </trkpt>
      <trkpt lat="42.50520324707031" lon="-7.3367414474487305">
        <ele>385.0</ele>
        <time>2019-04-27T09:50:26.000Z</time>
      </trkpt>
      <trkpt lat="42.505218505859375" lon="-7.336827754974365">
        <ele>385.0</ele>
        <time>2019-04-27T09:50:33.000Z</time>
      </trkpt>
      <trkpt lat="42.50518798828125" lon="-7.336869239807129">
        <ele>385.0</ele>
        <time>2019-04-27T09:50:39.000Z</time>
      </trkpt>
      <trkpt lat="42.5051383972168" lon="-7.336889266967773">
        <ele>384.0</ele>
        <time>2019-04-27T09:50:45.000Z</time>
      </trkpt>
      <trkpt lat="42.50507736206055" lon="-7.33689546585083">
        <ele>384.0</ele>
        <time>2019-04-27T09:50:51.000Z</time>
      </trkpt>
      <trkpt lat="42.505008697509766" lon="-7.3368940353393555">
        <ele>384.0</ele>
        <time>2019-04-27T09:50:58.000Z</time>
      </trkpt>
      <trkpt lat="42.50498580932617" lon="-7.336903095245361">
        <ele>383.0</ele>
        <time>2019-04-27T09:50:59.000Z</time>
      </trkpt>
      <trkpt lat="42.504974365234375" lon="-7.33690881729126">
        <ele>383.0</ele>
        <time>2019-04-27T09:51:01.000Z</time>
      </trkpt>
      <trkpt lat="42.50497055053711" lon="-7.336912631988525">
        <ele>383.0</ele>
        <time>2019-04-27T09:51:03.000Z</time>
      </trkpt>
      <trkpt lat="42.504974365234375" lon="-7.336915493011475">
        <ele>383.0</ele>
        <time>2019-04-27T09:51:05.000Z</time>
      </trkpt>
      <trkpt lat="42.504974365234375" lon="-7.336935520172119">
        <ele>383.0</ele>
        <time>2019-04-27T09:51:13.000Z</time>
      </trkpt>
      <trkpt lat="42.50497817993164" lon="-7.33696174621582">
        <ele>383.0</ele>
        <time>2019-04-27T09:51:21.000Z</time>
      </trkpt>
      <trkpt lat="42.50498580932617" lon="-7.336992263793945">
        <ele>383.0</ele>
        <time>2019-04-27T09:51:29.000Z</time>
      </trkpt>
      <trkpt lat="42.5049934387207" lon="-7.337024688720703">
        <ele>384.0</ele>
        <time>2019-04-27T09:51:37.000Z</time>
      </trkpt>
      <trkpt lat="42.50499725341797" lon="-7.337041854858398">
        <ele>384.0</ele>
        <time>2019-04-27T09:51:37.000Z</time>
      </trkpt>
      <trkpt lat="42.50499725341797" lon="-7.337055206298828">
        <ele>384.0</ele>
        <time>2019-04-27T09:51:37.000Z</time>
      </trkpt>
      <trkpt lat="42.505001068115234" lon="-7.33706521987915">
        <ele>384.0</ele>
        <time>2019-04-27T09:51:37.000Z</time>
      </trkpt>
      <trkpt lat="42.505001068115234" lon="-7.337074279785156">
        <ele>384.0</ele>
        <time>2019-04-27T09:51:38.000Z</time>
      </trkpt>
      <trkpt lat="42.505027770996094" lon="-7.337151050567627">
        <ele>383.0</ele>
        <time>2019-04-27T09:51:45.000Z</time>
      </trkpt>
      <trkpt lat="42.50506591796875" lon="-7.337254524230957">
        <ele>383.0</ele>
        <time>2019-04-27T09:51:53.000Z</time>
      </trkpt>
      <trkpt lat="42.50510787963867" lon="-7.337376117706299">
        <ele>382.0</ele>
        <time>2019-04-27T09:52:01.000Z</time>
      </trkpt>
      <trkpt lat="42.50515365600586" lon="-7.3375067710876465">
        <ele>381.0</ele>
        <time>2019-04-27T09:52:09.000Z</time>
      </trkpt>
      <trkpt lat="42.50517654418945" lon="-7.33762264251709">
        <ele>380.0</ele>
        <time>2019-04-27T09:52:17.000Z</time>
      </trkpt>
      <trkpt lat="42.505191802978516" lon="-7.337741374969482">
        <ele>378.0</ele>
        <time>2019-04-27T09:52:26.000Z</time>
      </trkpt>
      <trkpt lat="42.50520324707031" lon="-7.337862491607666">
        <ele>376.0</ele>
        <time>2019-04-27T09:52:34.000Z</time>
      </trkpt>
      <trkpt lat="42.505210876464844" lon="-7.337984561920166">
        <ele>374.0</ele>
        <time>2019-04-27T09:52:43.000Z</time>
      </trkpt>
      <trkpt lat="42.505226135253906" lon="-7.338103294372559">
        <ele>372.0</ele>
        <time>2019-04-27T09:52:53.000Z</time>
      </trkpt>
      <trkpt lat="42.50524139404297" lon="-7.338221549987793">
        <ele>370.0</ele>
        <time>2019-04-27T09:53:04.000Z</time>
      </trkpt>
      <trkpt lat="42.505252838134766" lon="-7.338339328765869">
        <ele>367.0</ele>
        <time>2019-04-27T09:53:15.000Z</time>
      </trkpt>
      <trkpt lat="42.50526809692383" lon="-7.338456630706787">
        <ele>365.0</ele>
        <time>2019-04-27T09:53:26.000Z</time>
      </trkpt>
      <trkpt lat="42.50529861450195" lon="-7.338569641113281">
        <ele>363.0</ele>
        <time>2019-04-27T09:53:34.000Z</time>
      </trkpt>
      <trkpt lat="42.50533676147461" lon="-7.338680744171143">
        <ele>361.0</ele>
        <time>2019-04-27T09:53:43.000Z</time>
      </trkpt>
      <trkpt lat="42.50537872314453" lon="-7.338789939880371">
        <ele>359.0</ele>
        <time>2019-04-27T09:53:52.000Z</time>
      </trkpt>
      <trkpt lat="42.50542449951172" lon="-7.338898658752441">
        <ele>358.0</ele>
        <time>2019-04-27T09:54:01.000Z</time>
      </trkpt>
      <trkpt lat="42.50564193725586" lon="-7.339283466339111">
        <ele>355.0</ele>
        <time>2019-04-27T09:54:41.000Z</time>
      </trkpt>
      <trkpt lat="42.505672454833984" lon="-7.339331150054932">
        <ele>354.0</ele>
        <time>2019-04-27T09:54:55.000Z</time>
      </trkpt>
      <trkpt lat="42.50571060180664" lon="-7.339390754699707">
        <ele>356.0</ele>
        <time>2019-04-27T09:56:47.000Z</time>
      </trkpt>
      <trkpt lat="42.50572967529297" lon="-7.3394246101379395">
        <ele>356.0</ele>
        <time>2019-04-27T09:56:48.000Z</time>
      </trkpt>
      <trkpt lat="42.50592041015625" lon="-7.339728832244873">
        <ele>349.0</ele>
        <time>2019-04-27T09:57:13.000Z</time>
      </trkpt>
      <trkpt lat="42.50602340698242" lon="-7.339926242828369">
        <ele>348.0</ele>
        <time>2019-04-27T09:57:34.000Z</time>
      </trkpt>
      <trkpt lat="42.506141662597656" lon="-7.340115070343018">
        <ele>348.0</ele>
        <time>2019-04-27T09:57:53.000Z</time>
      </trkpt>
      <trkpt lat="42.506290435791016" lon="-7.340267181396484">
        <ele>346.0</ele>
        <time>2019-04-27T09:58:15.000Z</time>
      </trkpt>
      <trkpt lat="42.50631332397461" lon="-7.340237140655518">
        <ele>346.0</ele>
        <time>2019-04-27T09:58:19.000Z</time>
      </trkpt>
      <trkpt lat="42.50633239746094" lon="-7.340179443359375">
        <ele>346.0</ele>
        <time>2019-04-27T09:58:24.000Z</time>
      </trkpt>
      <trkpt lat="42.50634765625" lon="-7.340102672576904">
        <ele>346.0</ele>
        <time>2019-04-27T09:58:28.000Z</time>
      </trkpt>
      <trkpt lat="42.50636291503906" lon="-7.3400163650512695">
        <ele>347.0</ele>
        <time>2019-04-27T09:58:33.000Z</time>
      </trkpt>
      <trkpt lat="42.506378173828125" lon="-7.339954376220703">
        <ele>346.0</ele>
        <time>2019-04-27T09:58:37.000Z</time>
      </trkpt>
      <trkpt lat="42.50639343261719" lon="-7.339892864227295">
        <ele>346.0</ele>
        <time>2019-04-27T09:58:42.000Z</time>
      </trkpt>
      <trkpt lat="42.506404876708984" lon="-7.3398308753967285">
        <ele>345.0</ele>
        <time>2019-04-27T09:58:46.000Z</time>
      </trkpt>
      <trkpt lat="42.50641632080078" lon="-7.33976936340332">
        <ele>344.0</ele>
        <time>2019-04-27T09:58:51.000Z</time>
      </trkpt>
      <trkpt lat="42.506412506103516" lon="-7.339648246765137">
        <ele>342.0</ele>
        <time>2019-04-27T09:58:58.000Z</time>
      </trkpt>
      <trkpt lat="42.50638961791992" lon="-7.3395280838012695">
        <ele>340.0</ele>
        <time>2019-04-27T09:59:05.000Z</time>
      </trkpt>
      <trkpt lat="42.50637435913086" lon="-7.339473247528076">
        <ele>338.0</ele>
        <time>2019-04-27T09:59:08.000Z</time>
      </trkpt>
      <trkpt lat="42.5063591003418" lon="-7.339420795440674">
        <ele>338.0</ele>
        <time>2019-04-27T09:59:12.000Z</time>
      </trkpt>
      <trkpt lat="42.50634002685547" lon="-7.339369773864746">
        <ele>337.0</ele>
        <time>2019-04-27T09:59:16.000Z</time>
      </trkpt>
      <trkpt lat="42.50632095336914" lon="-7.339319229125977">
        <ele>336.0</ele>
        <time>2019-04-27T09:59:20.000Z</time>
      </trkpt>
      <trkpt lat="42.506324768066406" lon="-7.339191436767578">
        <ele>336.0</ele>
        <time>2019-04-27T09:59:30.000Z</time>
      </trkpt>
      <trkpt lat="42.506343841552734" lon="-7.339052677154541">
        <ele>336.0</ele>
        <time>2019-04-27T09:59:41.000Z</time>
      </trkpt>
      <trkpt lat="42.506343841552734" lon="-7.3389997482299805">
        <ele>336.0</ele>
        <time>2019-04-27T09:59:45.000Z</time>
      </trkpt>
      <trkpt lat="42.50634002685547" lon="-7.338953018188477">
        <ele>336.0</ele>
        <time>2019-04-27T09:59:49.000Z</time>
      </trkpt>
      <trkpt lat="42.50633239746094" lon="-7.338910102844238">
        <ele>335.0</ele>
        <time>2019-04-27T09:59:53.000Z</time>
      </trkpt>
      <trkpt lat="42.50632858276367" lon="-7.338868618011475">
        <ele>335.0</ele>
        <time>2019-04-27T09:59:57.000Z</time>
      </trkpt>
      <trkpt lat="42.50634765625" lon="-7.33881139755249">
        <ele>334.0</ele>
        <time>2019-04-27T10:00:02.000Z</time>
      </trkpt>
      <trkpt lat="42.506378173828125" lon="-7.338749408721924">
        <ele>334.0</ele>
        <time>2019-04-27T10:00:08.000Z</time>
      </trkpt>
      <trkpt lat="42.50642013549805" lon="-7.33868408203125">
        <ele>333.0</ele>
        <time>2019-04-27T10:00:13.000Z</time>
      </trkpt>
      <trkpt lat="42.50646209716797" lon="-7.338616847991943">
        <ele>333.0</ele>
        <time>2019-04-27T10:00:19.000Z</time>
      </trkpt>
      <trkpt lat="42.506473541259766" lon="-7.33859395980835">
        <ele>332.0</ele>
        <time>2019-04-27T10:00:19.000Z</time>
      </trkpt>
      <trkpt lat="42.50647735595703" lon="-7.338587760925293">
        <ele>332.0</ele>
        <time>2019-04-27T10:00:20.000Z</time>
      </trkpt>
      <trkpt lat="42.506473541259766" lon="-7.338592529296875">
        <ele>332.0</ele>
        <time>2019-04-27T10:00:21.000Z</time>
      </trkpt>
      <trkpt lat="42.506465911865234" lon="-7.3386030197143555">
        <ele>332.0</ele>
        <time>2019-04-27T10:00:22.000Z</time>
      </trkpt>
      <trkpt lat="42.50648880004883" lon="-7.338602066040039">
        <ele>332.0</ele>
        <time>2019-04-27T10:00:32.000Z</time>
      </trkpt>
      <trkpt lat="42.50651550292969" lon="-7.3386030197143555">
        <ele>331.0</ele>
        <time>2019-04-27T10:00:42.000Z</time>
      </trkpt>
      <trkpt lat="42.506553649902344" lon="-7.33860445022583">
        <ele>330.0</ele>
        <time>2019-04-27T10:00:52.000Z</time>
      </trkpt>
      <trkpt lat="42.506591796875" lon="-7.338606357574463">
        <ele>329.0</ele>
        <time>2019-04-27T10:01:03.000Z</time>
      </trkpt>
      <trkpt lat="42.50660705566406" lon="-7.338606834411621">
        <ele>329.0</ele>
        <time>2019-04-27T10:01:03.000Z</time>
      </trkpt>
      <trkpt lat="42.506614685058594" lon="-7.338607311248779">
        <ele>329.0</ele>
        <time>2019-04-27T10:01:03.000Z</time>
      </trkpt>
      <trkpt lat="42.50661849975586" lon="-7.338607311248779">
        <ele>329.0</ele>
        <time>2019-04-27T10:01:03.000Z</time>
      </trkpt>
      <trkpt lat="42.50661849975586" lon="-7.338607311248779">
        <ele>329.0</ele>
        <time>2019-04-27T10:01:04.000Z</time>
      </trkpt>
      <trkpt lat="42.506717681884766" lon="-7.338754177093506">
        <ele>331.0</ele>
        <time>2019-04-27T10:01:18.000Z</time>
      </trkpt>
      <trkpt lat="42.50685501098633" lon="-7.338968753814697">
        <ele>333.0</ele>
        <time>2019-04-27T10:01:32.000Z</time>
      </trkpt>
      <trkpt lat="42.506919860839844" lon="-7.339051246643066">
        <ele>335.0</ele>
        <time>2019-04-27T10:01:39.000Z</time>
      </trkpt>
      <trkpt lat="42.506988525390625" lon="-7.339130401611328">
        <ele>336.0</ele>
        <time>2019-04-27T10:01:47.000Z</time>
      </trkpt>
      <trkpt lat="42.507057189941406" lon="-7.339207172393799">
        <ele>338.0</ele>
        <time>2019-04-27T10:01:54.000Z</time>
      </trkpt>
      <trkpt lat="42.50712585449219" lon="-7.339282512664795">
        <ele>340.0</ele>
        <time>2019-04-27T10:02:02.000Z</time>
      </trkpt>
      <trkpt lat="42.507293701171875" lon="-7.339351654052734">
        <ele>343.0</ele>
        <time>2019-04-27T10:02:17.000Z</time>
      </trkpt>
      <trkpt lat="42.507476806640625" lon="-7.339379787445068">
        <ele>346.0</ele>
        <time>2019-04-27T10:02:33.000Z</time>
      </trkpt>
      <trkpt lat="42.5075569152832" lon="-7.339394569396973">
        <ele>345.0</ele>
        <time>2019-04-27T10:02:39.000Z</time>
      </trkpt>
      <trkpt lat="42.50762939453125" lon="-7.339405536651611">
        <ele>344.0</ele>
        <time>2019-04-27T10:02:45.000Z</time>
      </trkpt>
      <trkpt lat="42.5077018737793" lon="-7.339413642883301">
        <ele>343.0</ele>
        <time>2019-04-27T10:02:52.000Z</time>
      </trkpt>
      <trkpt lat="42.507774353027344" lon="-7.339420795440674">
        <ele>342.0</ele>
        <time>2019-04-27T10:02:58.000Z</time>
      </trkpt>
      <trkpt lat="42.5078239440918" lon="-7.339455604553223">
        <ele>340.0</ele>
        <time>2019-04-27T10:03:03.000Z</time>
      </trkpt>
      <trkpt lat="42.50782775878906" lon="-7.339496612548828">
        <ele>340.0</ele>
        <time>2019-04-27T10:03:08.000Z</time>
      </trkpt>
      <trkpt lat="42.507850646972656" lon="-7.339701175689697">
        <ele>339.0</ele>
        <time>2019-04-27T10:03:23.000Z</time>
      </trkpt>
      <trkpt lat="42.50786590576172" lon="-7.339982986450195">
        <ele>338.0</ele>
        <time>2019-04-27T10:03:39.000Z</time>
      </trkpt>
      <trkpt lat="42.50786209106445" lon="-7.340103626251221">
        <ele>338.0</ele>
        <time>2019-04-27T10:03:46.000Z</time>
      </trkpt>
      <trkpt lat="42.507850646972656" lon="-7.340223789215088">
        <ele>337.0</ele>
        <time>2019-04-27T10:03:54.000Z</time>
      </trkpt>
      <trkpt lat="42.507835388183594" lon="-7.340343475341797">
        <ele>336.0</ele>
        <time>2019-04-27T10:04:02.000Z</time>
      </trkpt>
      <trkpt lat="42.507816314697266" lon="-7.340463638305664">
        <ele>336.0</ele>
        <time>2019-04-27T10:04:10.000Z</time>
      </trkpt>
      <trkpt lat="42.507816314697266" lon="-7.340583324432373">
        <ele>335.0</ele>
        <time>2019-04-27T10:04:17.000Z</time>
      </trkpt>
      <trkpt lat="42.5078239440918" lon="-7.340702533721924">
        <ele>334.0</ele>
        <time>2019-04-27T10:04:25.000Z</time>
      </trkpt>
      <trkpt lat="42.50783157348633" lon="-7.340822219848633">
        <ele>334.0</ele>
        <time>2019-04-27T10:04:33.000Z</time>
      </trkpt>
      <trkpt lat="42.507843017578125" lon="-7.340941429138184">
        <ele>334.0</ele>
        <time>2019-04-27T10:04:41.000Z</time>
      </trkpt>
      <trkpt lat="42.50786590576172" lon="-7.341058254241943">
        <ele>333.0</ele>
        <time>2019-04-27T10:04:49.000Z</time>
      </trkpt>
      <trkpt lat="42.507896423339844" lon="-7.3411736488342285">
        <ele>333.0</ele>
        <time>2019-04-27T10:04:58.000Z</time>
      </trkpt>
      <trkpt lat="42.507930755615234" lon="-7.3412885665893555">
        <ele>333.0</ele>
        <time>2019-04-27T10:05:07.000Z</time>
      </trkpt>
      <trkpt lat="42.50796890258789" lon="-7.341403007507324">
        <ele>334.0</ele>
        <time>2019-04-27T10:05:16.000Z</time>
      </trkpt>
      <trkpt lat="42.50800704956055" lon="-7.341463565826416">
        <ele>333.0</ele>
        <time>2019-04-27T10:05:20.000Z</time>
      </trkpt>
      <trkpt lat="42.50804901123047" lon="-7.341501235961914">
        <ele>333.0</ele>
        <time>2019-04-27T10:05:24.000Z</time>
      </trkpt>
      <trkpt lat="42.508094787597656" lon="-7.34152364730835">
        <ele>332.0</ele>
        <time>2019-04-27T10:05:28.000Z</time>
      </trkpt>
      <trkpt lat="42.50813674926758" lon="-7.341538429260254">
        <ele>331.0</ele>
        <time>2019-04-27T10:05:33.000Z</time>
      </trkpt>
      <trkpt lat="42.50822448730469" lon="-7.341549396514893">
        <ele>331.0</ele>
        <time>2019-04-27T10:05:41.000Z</time>
      </trkpt>
      <trkpt lat="42.50830841064453" lon="-7.341534614562988">
        <ele>331.0</ele>
        <time>2019-04-27T10:05:49.000Z</time>
      </trkpt>
      <trkpt lat="42.508384704589844" lon="-7.3415374755859375">
        <ele>331.0</ele>
        <time>2019-04-27T10:05:58.000Z</time>
      </trkpt>
      <trkpt lat="42.50847244262695" lon="-7.3415422439575195">
        <ele>330.0</ele>
        <time>2019-04-27T10:06:07.000Z</time>
      </trkpt>
      <trkpt lat="42.50857162475586" lon="-7.341548442840576">
        <ele>330.0</ele>
        <time>2019-04-27T10:06:16.000Z</time>
      </trkpt>
      <trkpt lat="42.50867462158203" lon="-7.341554641723633">
        <ele>329.0</ele>
        <time>2019-04-27T10:06:25.000Z</time>
      </trkpt>
      <trkpt lat="42.508758544921875" lon="-7.341590404510498">
        <ele>328.0</ele>
        <time>2019-04-27T10:06:33.000Z</time>
      </trkpt>
      <trkpt lat="42.50883865356445" lon="-7.341639518737793">
        <ele>326.0</ele>
        <time>2019-04-27T10:06:42.000Z</time>
      </trkpt>
      <trkpt lat="42.50891876220703" lon="-7.341696739196777">
        <ele>325.0</ele>
        <time>2019-04-27T10:06:50.000Z</time>
      </trkpt>
      <trkpt lat="42.508995056152344" lon="-7.3417582511901855">
        <ele>323.0</ele>
        <time>2019-04-27T10:06:59.000Z</time>
      </trkpt>
      <trkpt lat="42.50907897949219" lon="-7.341795444488525">
        <ele>323.0</ele>
        <time>2019-04-27T10:07:07.000Z</time>
      </trkpt>
      <trkpt lat="42.5091667175293" lon="-7.341827392578125">
        <ele>323.0</ele>
        <time>2019-04-27T10:07:15.000Z</time>
      </trkpt>
      <trkpt lat="42.50925064086914" lon="-7.341855049133301">
        <ele>323.0</ele>
        <time>2019-04-27T10:07:23.000Z</time>
      </trkpt>
      <trkpt lat="42.50933837890625" lon="-7.341881275177002">
        <ele>323.0</ele>
        <time>2019-04-27T10:07:32.000Z</time>
      </trkpt>
      <trkpt lat="42.50947189331055" lon="-7.341846942901611">
        <ele>320.0</ele>
        <time>2019-04-27T10:07:49.000Z</time>
      </trkpt>
      <trkpt lat="42.50958251953125" lon="-7.341768741607666">
        <ele>316.0</ele>
        <time>2019-04-27T10:08:07.000Z</time>
      </trkpt>
      <trkpt lat="42.509620666503906" lon="-7.341785430908203">
        <ele>314.0</ele>
        <time>2019-04-27T10:08:14.000Z</time>
      </trkpt>
      <trkpt lat="42.50965118408203" lon="-7.341821193695068">
        <ele>312.0</ele>
        <time>2019-04-27T10:08:21.000Z</time>
      </trkpt>
      <trkpt lat="42.509674072265625" lon="-7.341869354248047">
        <ele>310.0</ele>
        <time>2019-04-27T10:08:28.000Z</time>
      </trkpt>
      <trkpt lat="42.50969314575195" lon="-7.341923713684082">
        <ele>308.0</ele>
        <time>2019-04-27T10:08:35.000Z</time>
      </trkpt>
      <trkpt lat="42.509735107421875" lon="-7.341958522796631">
        <ele>307.0</ele>
        <time>2019-04-27T10:08:43.000Z</time>
      </trkpt>
      <trkpt lat="42.509788513183594" lon="-7.341991424560547">
        <ele>306.0</ele>
        <time>2019-04-27T10:08:52.000Z</time>
      </trkpt>
      <trkpt lat="42.50984191894531" lon="-7.342022895812988">
        <ele>305.0</ele>
        <time>2019-04-27T10:09:01.000Z</time>
      </trkpt>
      <trkpt lat="42.5098991394043" lon="-7.3420538902282715">
        <ele>305.0</ele>
        <time>2019-04-27T10:09:10.000Z</time>
      </trkpt>
      <trkpt lat="42.50992965698242" lon="-7.342094421386719">
        <ele>304.0</ele>
        <time>2019-04-27T10:09:13.000Z</time>
      </trkpt>
      <trkpt lat="42.50994873046875" lon="-7.342137813568115">
        <ele>304.0</ele>
        <time>2019-04-27T10:09:17.000Z</time>
      </trkpt>
      <trkpt lat="42.50996017456055" lon="-7.342184066772461">
        <ele>303.0</ele>
        <time>2019-04-27T10:09:21.000Z</time>
      </trkpt>
      <trkpt lat="42.50996780395508" lon="-7.342230796813965">
        <ele>303.0</ele>
        <time>2019-04-27T10:09:25.000Z</time>
      </trkpt>
      <trkpt lat="42.50997543334961" lon="-7.3423848152160645">
        <ele>302.0</ele>
        <time>2019-04-27T10:09:44.000Z</time>
      </trkpt>
      <trkpt lat="42.509971618652344" lon="-7.342569351196289">
        <ele>301.0</ele>
        <time>2019-04-27T10:10:04.000Z</time>
      </trkpt>
      <trkpt lat="42.510005950927734" lon="-7.3425703048706055">
        <ele>301.0</ele>
        <time>2019-04-27T10:10:11.000Z</time>
      </trkpt>
      <trkpt lat="42.51005554199219" lon="-7.342535972595215">
        <ele>300.0</ele>
        <time>2019-04-27T10:10:18.000Z</time>
      </trkpt>
      <trkpt lat="42.51011657714844" lon="-7.3424787521362305">
        <ele>300.0</ele>
        <time>2019-04-27T10:10:25.000Z</time>
      </trkpt>
      <trkpt lat="42.51018142700195" lon="-7.342409610748291">
        <ele>300.0</ele>
        <time>2019-04-27T10:10:32.000Z</time>
      </trkpt>
      <trkpt lat="42.51020050048828" lon="-7.342380523681641">
        <ele>299.0</ele>
        <time>2019-04-27T10:10:34.000Z</time>
      </trkpt>
      <trkpt lat="42.51020431518555" lon="-7.342355728149414">
        <ele>299.0</ele>
        <time>2019-04-27T10:10:36.000Z</time>
      </trkpt>
      <trkpt lat="42.51020050048828" lon="-7.342333793640137">
        <ele>299.0</ele>
        <time>2019-04-27T10:10:38.000Z</time>
      </trkpt>
      <trkpt lat="42.510189056396484" lon="-7.342313766479492">
        <ele>299.0</ele>
        <time>2019-04-27T10:10:40.000Z</time>
      </trkpt>
      <trkpt lat="42.510189056396484" lon="-7.342300891876221">
        <ele>298.0</ele>
        <time>2019-04-27T10:10:41.000Z</time>
      </trkpt>
      <trkpt lat="42.510189056396484" lon="-7.3422932624816895">
        <ele>298.0</ele>
        <time>2019-04-27T10:10:42.000Z</time>
      </trkpt>
      <trkpt lat="42.510189056396484" lon="-7.342288494110107">
        <ele>298.0</ele>
        <time>2019-04-27T10:10:43.000Z</time>
      </trkpt>
      <trkpt lat="42.510189056396484" lon="-7.34228515625">
        <ele>298.0</ele>
        <time>2019-04-27T10:10:45.000Z</time>
      </trkpt>
      <trkpt lat="42.51019287109375" lon="-7.342258453369141">
        <ele>299.0</ele>
        <time>2019-04-27T10:11:09.000Z</time>
      </trkpt>
      <trkpt lat="42.51020431518555" lon="-7.342223644256592">
        <ele>299.0</ele>
        <time>2019-04-27T10:11:33.000Z</time>
      </trkpt>
      <trkpt lat="42.51021194458008" lon="-7.3421831130981445">
        <ele>300.0</ele>
        <time>2019-04-27T10:11:57.000Z</time>
      </trkpt>
      <trkpt lat="42.510223388671875" lon="-7.342139720916748">
        <ele>301.0</ele>
        <time>2019-04-27T10:12:22.000Z</time>
      </trkpt>
      <trkpt lat="42.510231018066406" lon="-7.342121601104736">
        <ele>301.0</ele>
        <time>2019-04-27T10:12:22.000Z</time>
      </trkpt>
      <trkpt lat="42.510231018066406" lon="-7.342110633850098">
        <ele>301.0</ele>
        <time>2019-04-27T10:12:22.000Z</time>
      </trkpt>
      <trkpt lat="42.51023483276367" lon="-7.342104911804199">
        <ele>301.0</ele>
        <time>2019-04-27T10:12:22.000Z</time>
      </trkpt>
      <trkpt lat="42.51023483276367" lon="-7.342101573944092">
        <ele>301.0</ele>
        <time>2019-04-27T10:12:23.000Z</time>
      </trkpt>
      <trkpt lat="42.51023864746094" lon="-7.342091083526611">
        <ele>301.0</ele>
        <time>2019-04-27T10:12:25.000Z</time>
      </trkpt>
      <trkpt lat="42.5102424621582" lon="-7.342079162597656">
        <ele>301.0</ele>
        <time>2019-04-27T10:12:28.000Z</time>
      </trkpt>
      <trkpt lat="42.510250091552734" lon="-7.342067718505859">
        <ele>301.0</ele>
        <time>2019-04-27T10:12:31.000Z</time>
      </trkpt>
      <trkpt lat="42.51025390625" lon="-7.342055320739746">
        <ele>301.0</ele>
        <time>2019-04-27T10:12:34.000Z</time>
      </trkpt>
      <trkpt lat="42.51026916503906" lon="-7.342040061950684">
        <ele>300.0</ele>
        <time>2019-04-27T10:12:50.000Z</time>
      </trkpt>
      <trkpt lat="42.51028060913086" lon="-7.342028617858887">
        <ele>299.0</ele>
        <time>2019-04-27T10:13:06.000Z</time>
      </trkpt>
      <trkpt lat="42.51028823852539" lon="-7.342022895812988">
        <ele>299.0</ele>
        <time>2019-04-27T10:13:06.000Z</time>
      </trkpt>
      <trkpt lat="42.510292053222656" lon="-7.342018127441406">
        <ele>299.0</ele>
        <time>2019-04-27T10:13:06.000Z</time>
      </trkpt>
      <trkpt lat="42.51029586791992" lon="-7.342013835906982">
        <ele>299.0</ele>
        <time>2019-04-27T10:13:06.000Z</time>
      </trkpt>
      <trkpt lat="42.51030349731445" lon="-7.342009544372559">
        <ele>299.0</ele>
        <time>2019-04-27T10:13:07.000Z</time>
      </trkpt>
      <trkpt lat="42.51034927368164" lon="-7.3419694900512695">
        <ele>299.0</ele>
        <time>2019-04-27T10:13:14.000Z</time>
      </trkpt>
      <trkpt lat="42.51041793823242" lon="-7.341915130615234">
        <ele>299.0</ele>
        <time>2019-04-27T10:13:22.000Z</time>
      </trkpt>
      <trkpt lat="42.510494232177734" lon="-7.341850757598877">
        <ele>299.0</ele>
        <time>2019-04-27T10:13:29.000Z</time>
      </trkpt>
      <trkpt lat="42.51057815551758" lon="-7.3417816162109375">
        <ele>299.0</ele>
        <time>2019-04-27T10:13:37.000Z</time>
      </trkpt>
      <trkpt lat="42.5106086730957" lon="-7.341759204864502">
        <ele>299.0</ele>
        <time>2019-04-27T10:13:59.000Z</time>
      </trkpt>
      <trkpt lat="42.51062774658203" lon="-7.3417510986328125">
        <ele>298.0</ele>
        <time>2019-04-27T10:14:21.000Z</time>
      </trkpt>
      <trkpt lat="42.5106315612793" lon="-7.341752529144287">
        <ele>297.0</ele>
        <time>2019-04-27T10:14:43.000Z</time>
      </trkpt>
      <trkpt lat="42.5106315612793" lon="-7.341759204864502">
        <ele>295.0</ele>
        <time>2019-04-27T10:15:05.000Z</time>
      </trkpt>
      <trkpt lat="42.510643005371094" lon="-7.341755390167236">
        <ele>295.0</ele>
        <time>2019-04-27T10:15:05.000Z</time>
      </trkpt>
      <trkpt lat="42.510650634765625" lon="-7.341752052307129">
        <ele>295.0</ele>
        <time>2019-04-27T10:15:05.000Z</time>
      </trkpt>
      <trkpt lat="42.510658264160156" lon="-7.34174919128418">
        <ele>295.0</ele>
        <time>2019-04-27T10:15:05.000Z</time>
      </trkpt>
      <trkpt lat="42.51066207885742" lon="-7.3417463302612305">
        <ele>295.0</ele>
        <time>2019-04-27T10:15:06.000Z</time>
      </trkpt>
      <trkpt lat="42.510719299316406" lon="-7.341711044311523">
        <ele>295.0</ele>
        <time>2019-04-27T10:15:12.000Z</time>
      </trkpt>
      <trkpt lat="42.51079177856445" lon="-7.341662406921387">
        <ele>294.0</ele>
        <time>2019-04-27T10:15:19.000Z</time>
      </trkpt>
      <trkpt lat="42.51088333129883" lon="-7.341604232788086">
        <ele>294.0</ele>
        <time>2019-04-27T10:15:26.000Z</time>
      </trkpt>
      <trkpt lat="42.51097869873047" lon="-7.3415422439575195">
        <ele>293.0</ele>
        <time>2019-04-27T10:15:33.000Z</time>
      </trkpt>
      <trkpt lat="42.51115036010742" lon="-7.341516494750977">
        <ele>296.0</ele>
        <time>2019-04-27T10:15:55.000Z</time>
      </trkpt>
      <trkpt lat="42.51133346557617" lon="-7.341526508331299">
        <ele>301.0</ele>
        <time>2019-04-27T10:16:17.000Z</time>
      </trkpt>
      <trkpt lat="42.51137924194336" lon="-7.341531276702881">
        <ele>302.0</ele>
        <time>2019-04-27T10:16:21.000Z</time>
      </trkpt>
      <trkpt lat="42.511409759521484" lon="-7.34153938293457">
        <ele>303.0</ele>
        <time>2019-04-27T10:16:25.000Z</time>
      </trkpt>
      <trkpt lat="42.51142501831055" lon="-7.341550350189209">
        <ele>304.0</ele>
        <time>2019-04-27T10:16:29.000Z</time>
      </trkpt>
      <trkpt lat="42.511436462402344" lon="-7.341562271118164">
        <ele>305.0</ele>
        <time>2019-04-27T10:16:33.000Z</time>
      </trkpt>
      <trkpt lat="42.51145553588867" lon="-7.341567039489746">
        <ele>305.0</ele>
        <time>2019-04-27T10:16:40.000Z</time>
      </trkpt>
      <trkpt lat="42.511474609375" lon="-7.3415703773498535">
        <ele>304.0</ele>
        <time>2019-04-27T10:16:47.000Z</time>
      </trkpt>
      <trkpt lat="42.51148986816406" lon="-7.341572284698486">
        <ele>304.0</ele>
        <time>2019-04-27T10:16:54.000Z</time>
      </trkpt>
      <trkpt lat="42.511505126953125" lon="-7.341573715209961">
        <ele>303.0</ele>
        <time>2019-04-27T10:17:01.000Z</time>
      </trkpt>
      <trkpt lat="42.511512756347656" lon="-7.341576099395752">
        <ele>302.0</ele>
        <time>2019-04-27T10:17:01.000Z</time>
      </trkpt>
      <trkpt lat="42.51152420043945" lon="-7.341577529907227">
        <ele>302.0</ele>
        <time>2019-04-27T10:17:01.000Z</time>
      </trkpt>
      <trkpt lat="42.511531829833984" lon="-7.341578483581543">
        <ele>302.0</ele>
        <time>2019-04-27T10:17:01.000Z</time>
      </trkpt>
      <trkpt lat="42.51153564453125" lon="-7.341579914093018">
        <ele>303.0</ele>
        <time>2019-04-27T10:17:02.000Z</time>
      </trkpt>
      <trkpt lat="42.511558532714844" lon="-7.341581344604492">
        <ele>302.0</ele>
        <time>2019-04-27T10:17:04.000Z</time>
      </trkpt>
      <trkpt lat="42.5115852355957" lon="-7.341582775115967">
        <ele>302.0</ele>
        <time>2019-04-27T10:17:06.000Z</time>
      </trkpt>
      <trkpt lat="42.51161575317383" lon="-7.3415846824646">
        <ele>302.0</ele>
        <time>2019-04-27T10:17:08.000Z</time>
      </trkpt>
      <trkpt lat="42.51165008544922" lon="-7.341586589813232">
        <ele>302.0</ele>
        <time>2019-04-27T10:17:11.000Z</time>
      </trkpt>
      <trkpt lat="42.511661529541016" lon="-7.3416008949279785">
        <ele>302.0</ele>
        <time>2019-04-27T10:17:43.000Z</time>
      </trkpt>
      <trkpt lat="42.51166534423828" lon="-7.341620922088623">
        <ele>303.0</ele>
        <time>2019-04-27T10:18:15.000Z</time>
      </trkpt>
      <trkpt lat="42.51166534423828" lon="-7.341644763946533">
        <ele>303.0</ele>
        <time>2019-04-27T10:18:47.000Z</time>
      </trkpt>
      <trkpt lat="42.51166534423828" lon="-7.341670036315918">
        <ele>304.0</ele>
        <time>2019-04-27T10:19:19.000Z</time>
      </trkpt>
      <trkpt lat="42.51166915893555" lon="-7.341686248779297">
        <ele>304.0</ele>
        <time>2019-04-27T10:19:19.000Z</time>
      </trkpt>
      <trkpt lat="42.51166915893555" lon="-7.341700077056885">
        <ele>304.0</ele>
        <time>2019-04-27T10:19:19.000Z</time>
      </trkpt>
      <trkpt lat="42.51167297363281" lon="-7.341712951660156">
        <ele>304.0</ele>
        <time>2019-04-27T10:19:19.000Z</time>
      </trkpt>
      <trkpt lat="42.51167678833008" lon="-7.341724872589111">
        <ele>304.0</ele>
        <time>2019-04-27T10:19:20.000Z</time>
      </trkpt>
      <trkpt lat="42.511688232421875" lon="-7.341768741607666">
        <ele>304.0</ele>
        <time>2019-04-27T10:19:22.000Z</time>
      </trkpt>
      <trkpt lat="42.51170349121094" lon="-7.341825008392334">
        <ele>304.0</ele>
        <time>2019-04-27T10:19:24.000Z</time>
      </trkpt>
      <trkpt lat="42.511722564697266" lon="-7.341889381408691">
        <ele>304.0</ele>
        <time>2019-04-27T10:19:26.000Z</time>
      </trkpt>
      <trkpt lat="42.511741638183594" lon="-7.341958045959473">
        <ele>304.0</ele>
        <time>2019-04-27T10:19:28.000Z</time>
      </trkpt>
      <trkpt lat="42.51176452636719" lon="-7.342010974884033">
        <ele>304.0</ele>
        <time>2019-04-27T10:19:30.000Z</time>
      </trkpt>
      <trkpt lat="42.51179122924805" lon="-7.3420610427856445">
        <ele>304.0</ele>
        <time>2019-04-27T10:19:32.000Z</time>
      </trkpt>
      <trkpt lat="42.51182174682617" lon="-7.3421101570129395">
        <ele>304.0</ele>
        <time>2019-04-27T10:19:34.000Z</time>
      </trkpt>
      <trkpt lat="42.51185607910156" lon="-7.34215784072876">
        <ele>304.0</ele>
        <time>2019-04-27T10:19:36.000Z</time>
      </trkpt>
      <trkpt lat="42.51195526123047" lon="-7.342226982116699">
        <ele>305.0</ele>
        <time>2019-04-27T10:19:49.000Z</time>
      </trkpt>
      <trkpt lat="42.51207733154297" lon="-7.342282295227051">
        <ele>307.0</ele>
        <time>2019-04-27T10:20:02.000Z</time>
      </trkpt>
      <trkpt lat="42.51210403442383" lon="-7.342303276062012">
        <ele>308.0</ele>
        <time>2019-04-27T10:20:12.000Z</time>
      </trkpt>
      <trkpt lat="42.512115478515625" lon="-7.342319965362549">
        <ele>309.0</ele>
        <time>2019-04-27T10:20:23.000Z</time>
      </trkpt>
      <trkpt lat="42.51211929321289" lon="-7.342334270477295">
        <ele>310.0</ele>
        <time>2019-04-27T10:20:33.000Z</time>
      </trkpt>
      <trkpt lat="42.51211929321289" lon="-7.342347145080566">
        <ele>311.0</ele>
        <time>2019-04-27T10:20:44.000Z</time>
      </trkpt>
      <trkpt lat="42.51212692260742" lon="-7.34235954284668">
        <ele>312.0</ele>
        <time>2019-04-27T10:20:44.000Z</time>
      </trkpt>
      <trkpt lat="42.51213455200195" lon="-7.342370510101318">
        <ele>312.0</ele>
        <time>2019-04-27T10:20:44.000Z</time>
      </trkpt>
      <trkpt lat="42.51213836669922" lon="-7.342380523681641">
        <ele>311.0</ele>
        <time>2019-04-27T10:20:44.000Z</time>
      </trkpt>
      <trkpt lat="42.51214599609375" lon="-7.3423895835876465">
        <ele>311.0</ele>
        <time>2019-04-27T10:20:45.000Z</time>
      </trkpt>
      <trkpt lat="42.512149810791016" lon="-7.342397689819336">
        <ele>311.0</ele>
        <time>2019-04-27T10:20:45.000Z</time>
      </trkpt>
      <trkpt lat="42.51215362548828" lon="-7.342403888702393">
        <ele>311.0</ele>
        <time>2019-04-27T10:20:46.000Z</time>
      </trkpt>
      <trkpt lat="42.51215744018555" lon="-7.342409610748291">
        <ele>311.0</ele>
        <time>2019-04-27T10:20:46.000Z</time>
      </trkpt>
      <trkpt lat="42.51216125488281" lon="-7.3424153327941895">
        <ele>311.0</ele>
        <time>2019-04-27T10:20:47.000Z</time>
      </trkpt>
      <trkpt lat="42.512168884277344" lon="-7.342419624328613">
        <ele>313.0</ele>
        <time>2019-04-27T10:21:58.000Z</time>
      </trkpt>
      <trkpt lat="42.51217269897461" lon="-7.342423439025879">
        <ele>315.0</ele>
        <time>2019-04-27T10:23:09.000Z</time>
      </trkpt>
      <trkpt lat="42.512176513671875" lon="-7.342426776885986">
        <ele>317.0</ele>
        <time>2019-04-27T10:24:20.000Z</time>
      </trkpt>
      <trkpt lat="42.51218032836914" lon="-7.342430114746094">
        <ele>320.0</ele>
        <time>2019-04-27T10:25:31.000Z</time>
      </trkpt>
      <trkpt lat="42.512184143066406" lon="-7.342433452606201">
        <ele>321.0</ele>
        <time>2019-04-27T10:25:31.000Z</time>
      </trkpt>
      <trkpt lat="42.51218795776367" lon="-7.34243631362915">
        <ele>321.0</ele>
        <time>2019-04-27T10:25:31.000Z</time>
      </trkpt>
      <trkpt lat="42.51219177246094" lon="-7.342439651489258">
        <ele>321.0</ele>
        <time>2019-04-27T10:25:31.000Z</time>
      </trkpt>
      <trkpt lat="42.5121955871582" lon="-7.342442512512207">
        <ele>320.0</ele>
        <time>2019-04-27T10:25:32.000Z</time>
      </trkpt>
      <trkpt lat="42.51249313354492" lon="-7.342621326446533">
        <ele>319.0</ele>
        <time>2019-04-27T10:25:40.000Z</time>
      </trkpt>
      <trkpt lat="42.51253890991211" lon="-7.342602252960205">
        <ele>319.0</ele>
        <time>2019-04-27T10:25:45.000Z</time>
      </trkpt>
      <trkpt lat="42.512569427490234" lon="-7.342556953430176">
        <ele>319.0</ele>
        <time>2019-04-27T10:25:50.000Z</time>
      </trkpt>
      <trkpt lat="42.51258850097656" lon="-7.342493534088135">
        <ele>319.0</ele>
        <time>2019-04-27T10:25:55.000Z</time>
      </trkpt>
      <trkpt lat="42.51260757446289" lon="-7.342421531677246">
        <ele>319.0</ele>
        <time>2019-04-27T10:26:01.000Z</time>
      </trkpt>
      <trkpt lat="42.512657165527344" lon="-7.342444896697998">
        <ele>319.0</ele>
        <time>2019-04-27T10:26:06.000Z</time>
      </trkpt>
      <trkpt lat="42.51271438598633" lon="-7.342498779296875">
        <ele>319.0</ele>
        <time>2019-04-27T10:26:11.000Z</time>
      </trkpt>
      <trkpt lat="42.51278305053711" lon="-7.342573642730713">
        <ele>318.0</ele>
        <time>2019-04-27T10:26:16.000Z</time>
      </trkpt>
      <trkpt lat="42.51285171508789" lon="-7.342658519744873">
        <ele>318.0</ele>
        <time>2019-04-27T10:26:22.000Z</time>
      </trkpt>
      <trkpt lat="42.51288604736328" lon="-7.3426666259765625">
        <ele>318.0</ele>
        <time>2019-04-27T10:26:26.000Z</time>
      </trkpt>
      <trkpt lat="42.512916564941406" lon="-7.342652797698975">
        <ele>317.0</ele>
        <time>2019-04-27T10:26:31.000Z</time>
      </trkpt>
      <trkpt lat="42.512939453125" lon="-7.342625141143799">
        <ele>317.0</ele>
        <time>2019-04-27T10:26:35.000Z</time>
      </trkpt>
      <trkpt lat="42.51295471191406" lon="-7.342589855194092">
        <ele>317.0</ele>
        <time>2019-04-27T10:26:40.000Z</time>
      </trkpt>
      <trkpt lat="42.51298141479492" lon="-7.342589378356934">
        <ele>317.0</ele>
        <time>2019-04-27T10:26:50.000Z</time>
      </trkpt>
      <trkpt lat="42.51299285888672" lon="-7.342604160308838">
        <ele>317.0</ele>
        <time>2019-04-27T10:27:01.000Z</time>
      </trkpt>
      <trkpt lat="42.51300048828125" lon="-7.342607021331787">
        <ele>317.0</ele>
        <time>2019-04-27T10:27:01.000Z</time>
      </trkpt>
      <trkpt lat="42.51300811767578" lon="-7.342609405517578">
        <ele>317.0</ele>
        <time>2019-04-27T10:27:01.000Z</time>
      </trkpt>
      <trkpt lat="42.51301193237305" lon="-7.342611312866211">
        <ele>317.0</ele>
        <time>2019-04-27T10:27:01.000Z</time>
      </trkpt>
      <trkpt lat="42.51301956176758" lon="-7.342613220214844">
        <ele>317.0</ele>
        <time>2019-04-27T10:27:02.000Z</time>
      </trkpt>
      <trkpt lat="42.51304244995117" lon="-7.342616081237793">
        <ele>317.0</ele>
        <time>2019-04-27T10:27:02.000Z</time>
      </trkpt>
      <trkpt lat="42.51306915283203" lon="-7.342618942260742">
        <ele>317.0</ele>
        <time>2019-04-27T10:27:03.000Z</time>
      </trkpt>
      <trkpt lat="42.51310348510742" lon="-7.342621803283691">
        <ele>317.0</ele>
        <time>2019-04-27T10:27:03.000Z</time>
      </trkpt>
      <trkpt lat="42.51314163208008" lon="-7.342624664306641">
        <ele>317.0</ele>
        <time>2019-04-27T10:27:04.000Z</time>
      </trkpt>
      <trkpt lat="42.51316452026367" lon="-7.342602252960205">
        <ele>317.0</ele>
        <time>2019-04-27T10:27:07.000Z</time>
      </trkpt>
      <trkpt lat="42.51318359375" lon="-7.342568874359131">
        <ele>317.0</ele>
        <time>2019-04-27T10:27:10.000Z</time>
      </trkpt>
      <trkpt lat="42.51320266723633" lon="-7.342528343200684">
        <ele>317.0</ele>
        <time>2019-04-27T10:27:13.000Z</time>
      </trkpt>
      <trkpt lat="42.51321792602539" lon="-7.342484474182129">
        <ele>317.0</ele>
        <time>2019-04-27T10:27:16.000Z</time>
      </trkpt>
      <trkpt lat="42.51323699951172" lon="-7.342475891113281">
        <ele>317.0</ele>
        <time>2019-04-27T10:27:22.000Z</time>
      </trkpt>
      <trkpt lat="42.51325225830078" lon="-7.342478275299072">
        <ele>317.0</ele>
        <time>2019-04-27T10:27:28.000Z</time>
      </trkpt>
      <trkpt lat="42.513267517089844" lon="-7.342487812042236">
        <ele>316.0</ele>
        <time>2019-04-27T10:27:34.000Z</time>
      </trkpt>
      <trkpt lat="42.513282775878906" lon="-7.342501640319824">
        <ele>316.0</ele>
        <time>2019-04-27T10:27:41.000Z</time>
      </trkpt>
      <trkpt lat="42.5132942199707" lon="-7.342504024505615">
        <ele>316.0</ele>
        <time>2019-04-27T10:27:41.000Z</time>
      </trkpt>
      <trkpt lat="42.513301849365234" lon="-7.342506408691406">
        <ele>316.0</ele>
        <time>2019-04-27T10:27:41.000Z</time>
      </trkpt>
      <trkpt lat="42.513309478759766" lon="-7.342508316040039">
        <ele>316.0</ele>
        <time>2019-04-27T10:27:41.000Z</time>
      </trkpt>
      <trkpt lat="42.5133171081543" lon="-7.342509746551514">
        <ele>316.0</ele>
        <time>2019-04-27T10:27:42.000Z</time>
      </trkpt>
      <trkpt lat="42.513328552246094" lon="-7.3425116539001465">
        <ele>316.0</ele>
        <time>2019-04-27T10:27:42.000Z</time>
      </trkpt>
      <trkpt lat="42.513336181640625" lon="-7.342513084411621">
        <ele>315.0</ele>
        <time>2019-04-27T10:27:43.000Z</time>
      </trkpt>
      <trkpt lat="42.51334762573242" lon="-7.342514514923096">
        <ele>315.0</ele>
        <time>2019-04-27T10:27:44.000Z</time>
      </trkpt>
      <trkpt lat="42.51335906982422" lon="-7.342515468597412">
        <ele>315.0</ele>
        <time>2019-04-27T10:27:45.000Z</time>
      </trkpt>
      <trkpt lat="42.51336669921875" lon="-7.342510223388672">
        <ele>315.0</ele>
        <time>2019-04-27T10:27:56.000Z</time>
      </trkpt>
      <trkpt lat="42.51337432861328" lon="-7.342502593994141">
        <ele>314.0</ele>
        <time>2019-04-27T10:28:08.000Z</time>
      </trkpt>
      <trkpt lat="42.51337814331055" lon="-7.342492580413818">
        <ele>314.0</ele>
        <time>2019-04-27T10:28:20.000Z</time>
      </trkpt>
      <trkpt lat="42.51338195800781" lon="-7.34248161315918">
        <ele>314.0</ele>
        <time>2019-04-27T10:28:32.000Z</time>
      </trkpt>
      <trkpt lat="42.51338577270508" lon="-7.342474460601807">
        <ele>314.0</ele>
        <time>2019-04-27T10:28:32.000Z</time>
      </trkpt>
      <trkpt lat="42.513389587402344" lon="-7.342467784881592">
        <ele>314.0</ele>
        <time>2019-04-27T10:28:32.000Z</time>
      </trkpt>
      <trkpt lat="42.51339340209961" lon="-7.342461585998535">
        <ele>314.0</ele>
        <time>2019-04-27T10:28:32.000Z</time>
      </trkpt>
      <trkpt lat="42.513397216796875" lon="-7.3424553871154785">
        <ele>314.0</ele>
        <time>2019-04-27T10:28:33.000Z</time>
      </trkpt>
      <trkpt lat="42.51344299316406" lon="-7.342401504516602">
        <ele>314.0</ele>
        <time>2019-04-27T10:28:34.000Z</time>
      </trkpt>
      <trkpt lat="42.51350402832031" lon="-7.34232759475708">
        <ele>314.0</ele>
        <time>2019-04-27T10:28:36.000Z</time>
      </trkpt>
      <trkpt lat="42.51357650756836" lon="-7.342240810394287">
        <ele>314.0</ele>
        <time>2019-04-27T10:28:38.000Z</time>
      </trkpt>
      <trkpt lat="42.51365661621094" lon="-7.342147350311279">
        <ele>315.0</ele>
        <time>2019-04-27T10:28:40.000Z</time>
      </trkpt>
      <trkpt lat="42.5136833190918" lon="-7.342111587524414">
        <ele>315.0</ele>
        <time>2019-04-27T10:28:41.000Z</time>
      </trkpt>
      <trkpt lat="42.51369857788086" lon="-7.342092514038086">
        <ele>314.0</ele>
        <time>2019-04-27T10:28:43.000Z</time>
      </trkpt>
      <trkpt lat="42.513702392578125" lon="-7.342084884643555">
        <ele>314.0</ele>
        <time>2019-04-27T10:28:44.000Z</time>
      </trkpt>
      <trkpt lat="42.513702392578125" lon="-7.34208345413208">
        <ele>314.0</ele>
        <time>2019-04-27T10:28:46.000Z</time>
      </trkpt>
      <trkpt lat="42.513755798339844" lon="-7.342113018035889">
        <ele>313.0</ele>
        <time>2019-04-27T10:28:54.000Z</time>
      </trkpt>
      <trkpt lat="42.51382827758789" lon="-7.342161655426025">
        <ele>312.0</ele>
        <time>2019-04-27T10:29:02.000Z</time>
      </trkpt>
      <trkpt lat="42.51390838623047" lon="-7.342223644256592">
        <ele>311.0</ele>
        <time>2019-04-27T10:29:10.000Z</time>
      </trkpt>
      <trkpt lat="42.51399612426758" lon="-7.342291355133057">
        <ele>310.0</ele>
        <time>2019-04-27T10:29:19.000Z</time>
      </trkpt>
      <trkpt lat="42.51406478881836" lon="-7.342322826385498">
        <ele>309.0</ele>
        <time>2019-04-27T10:29:23.000Z</time>
      </trkpt>
      <trkpt lat="42.514129638671875" lon="-7.342345714569092">
        <ele>308.0</ele>
        <time>2019-04-27T10:29:27.000Z</time>
      </trkpt>
      <trkpt lat="42.514198303222656" lon="-7.342362880706787">
        <ele>308.0</ele>
        <time>2019-04-27T10:29:31.000Z</time>
      </trkpt>
      <trkpt lat="42.51426315307617" lon="-7.342377185821533">
        <ele>308.0</ele>
        <time>2019-04-27T10:29:35.000Z</time>
      </trkpt>
      <trkpt lat="42.51430130004883" lon="-7.342379093170166">
        <ele>307.0</ele>
        <time>2019-04-27T10:29:36.000Z</time>
      </trkpt>
      <trkpt lat="42.51432800292969" lon="-7.342373371124268">
        <ele>307.0</ele>
        <time>2019-04-27T10:29:37.000Z</time>
      </trkpt>
      <trkpt lat="42.51435089111328" lon="-7.342362403869629">
        <ele>308.0</ele>
        <time>2019-04-27T10:29:38.000Z</time>
      </trkpt>
      <trkpt lat="42.514366149902344" lon="-7.342348575592041">
        <ele>308.0</ele>
        <time>2019-04-27T10:29:40.000Z</time>
      </trkpt>
      <trkpt lat="42.51438903808594" lon="-7.34234619140625">
        <ele>308.0</ele>
        <time>2019-04-27T10:29:40.000Z</time>
      </trkpt>
      <trkpt lat="42.514408111572266" lon="-7.34234619140625">
        <ele>308.0</ele>
        <time>2019-04-27T10:29:41.000Z</time>
      </trkpt>
      <trkpt lat="42.51442337036133" lon="-7.342347145080566">
        <ele>308.0</ele>
        <time>2019-04-27T10:29:42.000Z</time>
      </trkpt>
      <trkpt lat="42.514442443847656" lon="-7.342349052429199">
        <ele>308.0</ele>
        <time>2019-04-27T10:29:43.000Z</time>
      </trkpt>
      <trkpt lat="42.51445388793945" lon="-7.34234619140625">
        <ele>308.0</ele>
        <time>2019-04-27T10:29:44.000Z</time>
      </trkpt>
      <trkpt lat="42.51446533203125" lon="-7.342341899871826">
        <ele>308.0</ele>
        <time>2019-04-27T10:29:45.000Z</time>
      </trkpt>
      <trkpt lat="42.51447296142578" lon="-7.342336654663086">
        <ele>307.0</ele>
        <time>2019-04-27T10:29:46.000Z</time>
      </trkpt>
      <trkpt lat="42.51447677612305" lon="-7.3423309326171875">
        <ele>307.0</ele>
        <time>2019-04-27T10:29:48.000Z</time>
      </trkpt>
      <trkpt lat="42.51447677612305" lon="-7.3423261642456055">
        <ele>307.0</ele>
        <time>2019-04-27T10:29:48.000Z</time>
      </trkpt>
      <trkpt lat="42.514469146728516" lon="-7.342321395874023">
        <ele>307.0</ele>
        <time>2019-04-27T10:29:49.000Z</time>
      </trkpt>
      <trkpt lat="42.514461517333984" lon="-7.342316150665283">
        <ele>307.0</ele>
        <time>2019-04-27T10:29:49.000Z</time>
      </trkpt>
      <trkpt lat="42.51445388793945" lon="-7.342311382293701">
        <ele>307.0</ele>
        <time>2019-04-27T10:29:50.000Z</time>
      </trkpt>
      <trkpt lat="42.51446533203125" lon="-7.342325687408447">
        <ele>307.0</ele>
        <time>2019-04-27T10:29:53.000Z</time>
      </trkpt>
      <trkpt lat="42.514488220214844" lon="-7.342348098754883">
        <ele>307.0</ele>
        <time>2019-04-27T10:29:57.000Z</time>
      </trkpt>
      <trkpt lat="42.51451873779297" lon="-7.342376232147217">
        <ele>307.0</ele>
        <time>2019-04-27T10:30:01.000Z</time>
      </trkpt>
      <trkpt lat="42.514549255371094" lon="-7.3424072265625">
        <ele>307.0</ele>
        <time>2019-04-27T10:30:05.000Z</time>
      </trkpt>
      <trkpt lat="42.51457595825195" lon="-7.342394828796387">
        <ele>307.0</ele>
        <time>2019-04-27T10:30:08.000Z</time>
      </trkpt>
      <trkpt lat="42.51460647583008" lon="-7.342367649078369">
        <ele>307.0</ele>
        <time>2019-04-27T10:30:12.000Z</time>
      </trkpt>
      <trkpt lat="42.5146369934082" lon="-7.342329978942871">
        <ele>307.0</ele>
        <time>2019-04-27T10:30:16.000Z</time>
      </trkpt>
      <trkpt lat="42.51466751098633" lon="-7.342287540435791">
        <ele>307.0</ele>
        <time>2019-04-27T10:30:20.000Z</time>
      </trkpt>
      <trkpt lat="42.51469039916992" lon="-7.342235565185547">
        <ele>307.0</ele>
        <time>2019-04-27T10:30:22.000Z</time>
      </trkpt>
      <trkpt lat="42.51469802856445" lon="-7.342186450958252">
        <ele>307.0</ele>
        <time>2019-04-27T10:30:25.000Z</time>
      </trkpt>
      <trkpt lat="42.514713287353516" lon="-7.342188358306885">
        <ele>307.0</ele>
        <time>2019-04-27T10:30:28.000Z</time>
      </trkpt>
      <trkpt lat="42.51473617553711" lon="-7.342200756072998">
        <ele>306.0</ele>
        <time>2019-04-27T10:30:32.000Z</time>
      </trkpt>
      <trkpt lat="42.51476287841797" lon="-7.342221260070801">
        <ele>305.0</ele>
        <time>2019-04-27T10:30:36.000Z</time>
      </trkpt>
      <trkpt lat="42.51478958129883" lon="-7.342245101928711">
        <ele>304.0</ele>
        <time>2019-04-27T10:30:40.000Z</time>
      </trkpt>
      <trkpt lat="42.51480484008789" lon="-7.342243194580078">
        <ele>303.0</ele>
        <time>2019-04-27T10:30:42.000Z</time>
      </trkpt>
      <trkpt lat="42.51482009887695" lon="-7.3422346115112305">
        <ele>303.0</ele>
        <time>2019-04-27T10:30:45.000Z</time>
      </trkpt>
      <trkpt lat="42.514835357666016" lon="-7.342221260070801">
        <ele>303.0</ele>
        <time>2019-04-27T10:30:47.000Z</time>
      </trkpt>
      <trkpt lat="42.51485061645508" lon="-7.34220552444458">
        <ele>302.0</ele>
        <time>2019-04-27T10:30:50.000Z</time>
      </trkpt>
      <trkpt lat="42.51485824584961" lon="-7.342197895050049">
        <ele>302.0</ele>
        <time>2019-04-27T10:30:55.000Z</time>
      </trkpt>
      <trkpt lat="42.514862060546875" lon="-7.342191219329834">
        <ele>302.0</ele>
        <time>2019-04-27T10:31:00.000Z</time>
      </trkpt>
      <trkpt lat="42.51486587524414" lon="-7.342185020446777">
        <ele>302.0</ele>
        <time>2019-04-27T10:31:05.000Z</time>
      </trkpt>
      <trkpt lat="42.51486587524414" lon="-7.342179298400879">
        <ele>302.0</ele>
        <time>2019-04-27T10:31:10.000Z</time>
      </trkpt>
      <trkpt lat="42.514869689941406" lon="-7.342174053192139">
        <ele>302.0</ele>
        <time>2019-04-27T10:31:10.000Z</time>
      </trkpt>
      <trkpt lat="42.51487350463867" lon="-7.342169284820557">
        <ele>302.0</ele>
        <time>2019-04-27T10:31:10.000Z</time>
      </trkpt>
      <trkpt lat="42.51487731933594" lon="-7.342164516448975">
        <ele>302.0</ele>
        <time>2019-04-27T10:31:10.000Z</time>
      </trkpt>
      <trkpt lat="42.5148811340332" lon="-7.342159748077393">
        <ele>302.0</ele>
        <time>2019-04-27T10:31:11.000Z</time>
      </trkpt>
      <trkpt lat="42.51491165161133" lon="-7.342107772827148">
        <ele>302.0</ele>
        <time>2019-04-27T10:31:16.000Z</time>
      </trkpt>
      <trkpt lat="42.514949798583984" lon="-7.34203577041626">
        <ele>302.0</ele>
        <time>2019-04-27T10:31:21.000Z</time>
      </trkpt>
      <trkpt lat="42.51499557495117" lon="-7.3419508934021">
        <ele>302.0</ele>
        <time>2019-04-27T10:31:26.000Z</time>
      </trkpt>
      <trkpt lat="42.515045166015625" lon="-7.341859340667725">
        <ele>302.0</ele>
        <time>2019-04-27T10:31:32.000Z</time>
      </trkpt>
      <trkpt lat="42.515079498291016" lon="-7.34182596206665">
        <ele>301.0</ele>
        <time>2019-04-27T10:31:41.000Z</time>
      </trkpt>
      <trkpt lat="42.51509475708008" lon="-7.341846466064453">
        <ele>301.0</ele>
        <time>2019-04-27T10:31:50.000Z</time>
      </trkpt>
      <trkpt lat="42.51510238647461" lon="-7.341844081878662">
        <ele>301.0</ele>
        <time>2019-04-27T10:31:50.000Z</time>
      </trkpt>
      <trkpt lat="42.51511001586914" lon="-7.341842174530029">
        <ele>301.0</ele>
        <time>2019-04-27T10:31:50.000Z</time>
      </trkpt>
      <trkpt lat="42.51511764526367" lon="-7.3418402671813965">
        <ele>301.0</ele>
        <time>2019-04-27T10:31:50.000Z</time>
      </trkpt>
      <trkpt lat="42.5151252746582" lon="-7.341838359832764">
        <ele>301.0</ele>
        <time>2019-04-27T10:31:51.000Z</time>
      </trkpt>
      <trkpt lat="42.51517105102539" lon="-7.341822624206543">
        <ele>300.0</ele>
        <time>2019-04-27T10:31:53.000Z</time>
      </trkpt>
      <trkpt lat="42.515228271484375" lon="-7.341800212860107">
        <ele>299.0</ele>
        <time>2019-04-27T10:31:56.000Z</time>
      </trkpt>
      <trkpt lat="42.51530075073242" lon="-7.3417744636535645">
        <ele>298.0</ele>
        <time>2019-04-27T10:31:59.000Z</time>
      </trkpt>
      <trkpt lat="42.515377044677734" lon="-7.341746807098389">
        <ele>296.0</ele>
        <time>2019-04-27T10:32:02.000Z</time>
      </trkpt>
      <trkpt lat="42.51540756225586" lon="-7.341728210449219">
        <ele>297.0</ele>
        <time>2019-04-27T10:32:09.000Z</time>
      </trkpt>
      <trkpt lat="42.51542663574219" lon="-7.34171199798584">
        <ele>297.0</ele>
        <time>2019-04-27T10:32:17.000Z</time>
      </trkpt>
      <trkpt lat="42.515438079833984" lon="-7.3416972160339355">
        <ele>299.0</ele>
        <time>2019-04-27T10:32:24.000Z</time>
      </trkpt>
      <trkpt lat="42.51544189453125" lon="-7.341682434082031">
        <ele>300.0</ele>
        <time>2019-04-27T10:32:32.000Z</time>
      </trkpt>
      <trkpt lat="42.51545333862305" lon="-7.341672420501709">
        <ele>300.0</ele>
        <time>2019-04-27T10:32:32.000Z</time>
      </trkpt>
      <trkpt lat="42.51546096801758" lon="-7.3416643142700195">
        <ele>300.0</ele>
        <time>2019-04-27T10:32:32.000Z</time>
      </trkpt>
      <trkpt lat="42.51546859741211" lon="-7.341657638549805">
        <ele>300.0</ele>
        <time>2019-04-27T10:32:32.000Z</time>
      </trkpt>
      <trkpt lat="42.515472412109375" lon="-7.341651916503906">
        <ele>300.0</ele>
        <time>2019-04-27T10:32:33.000Z</time>
      </trkpt>
      <trkpt lat="42.51548767089844" lon="-7.341618061065674">
        <ele>300.0</ele>
        <time>2019-04-27T10:32:35.000Z</time>
      </trkpt>
      <trkpt lat="42.515506744384766" lon="-7.341573715209961">
        <ele>301.0</ele>
        <time>2019-04-27T10:32:38.000Z</time>
      </trkpt>
      <trkpt lat="42.515525817871094" lon="-7.341521739959717">
        <ele>301.0</ele>
        <time>2019-04-27T10:32:41.000Z</time>
      </trkpt>
      <trkpt lat="42.51554870605469" lon="-7.341465950012207">
        <ele>302.0</ele>
        <time>2019-04-27T10:32:44.000Z</time>
      </trkpt>
      <trkpt lat="42.515560150146484" lon="-7.341447830200195">
        <ele>303.0</ele>
        <time>2019-04-27T10:33:01.000Z</time>
      </trkpt>
      <trkpt lat="42.51557540893555" lon="-7.3414411544799805">
        <ele>304.0</ele>
        <time>2019-04-27T10:33:19.000Z</time>
      </trkpt>
      <trkpt lat="42.51558303833008" lon="-7.341442108154297">
        <ele>306.0</ele>
        <time>2019-04-27T10:33:36.000Z</time>
      </trkpt>
      <trkpt lat="42.515594482421875" lon="-7.341447353363037">
        <ele>308.0</ele>
        <time>2019-04-27T10:33:54.000Z</time>
      </trkpt>
      <trkpt lat="42.515602111816406" lon="-7.34144401550293">
        <ele>308.0</ele>
        <time>2019-04-27T10:33:54.000Z</time>
      </trkpt>
      <trkpt lat="42.51560974121094" lon="-7.341440677642822">
        <ele>308.0</ele>
        <time>2019-04-27T10:33:54.000Z</time>
      </trkpt>
      <trkpt lat="42.51561737060547" lon="-7.341438293457031">
        <ele>308.0</ele>
        <time>2019-04-27T10:33:54.000Z</time>
      </trkpt>
      <trkpt lat="42.515625" lon="-7.34143590927124">
        <ele>308.0</ele>
        <time>2019-04-27T10:33:55.000Z</time>
      </trkpt>
      <trkpt lat="42.51565170288086" lon="-7.341421604156494">
        <ele>308.0</ele>
        <time>2019-04-27T10:33:58.000Z</time>
      </trkpt>
      <trkpt lat="42.515682220458984" lon="-7.341402053833008">
        <ele>309.0</ele>
        <time>2019-04-27T10:34:01.000Z</time>
      </trkpt>
      <trkpt lat="42.515724182128906" lon="-7.341379642486572">
        <ele>310.0</ele>
        <time>2019-04-27T10:34:04.000Z</time>
      </trkpt>
      <trkpt lat="42.51576614379883" lon="-7.341355800628662">
        <ele>311.0</ele>
        <time>2019-04-27T10:34:08.000Z</time>
      </trkpt>
      <trkpt lat="42.515777587890625" lon="-7.341329574584961">
        <ele>313.0</ele>
        <time>2019-04-27T10:34:21.000Z</time>
      </trkpt>
      <trkpt lat="42.515785217285156" lon="-7.3413004875183105">
        <ele>315.0</ele>
        <time>2019-04-27T10:34:35.000Z</time>
      </trkpt>
      <trkpt lat="42.515785217285156" lon="-7.3412699699401855">
        <ele>317.0</ele>
        <time>2019-04-27T10:34:49.000Z</time>
      </trkpt>
      <trkpt lat="42.51578140258789" lon="-7.341238498687744">
        <ele>320.0</ele>
        <time>2019-04-27T10:35:03.000Z</time>
      </trkpt>
      <trkpt lat="42.515785217285156" lon="-7.341217994689941">
        <ele>321.0</ele>
        <time>2019-04-27T10:35:03.000Z</time>
      </trkpt>
      <trkpt lat="42.515785217285156" lon="-7.3412017822265625">
        <ele>321.0</ele>
        <time>2019-04-27T10:35:03.000Z</time>
      </trkpt>
      <trkpt lat="42.51578903198242" lon="-7.341187953948975">
        <ele>320.0</ele>
        <time>2019-04-27T10:35:03.000Z</time>
      </trkpt>
      <trkpt lat="42.51578903198242" lon="-7.341175079345703">
        <ele>320.0</ele>
        <time>2019-04-27T10:35:04.000Z</time>
      </trkpt>
      <trkpt lat="42.51579666137695" lon="-7.3411383628845215">
        <ele>320.0</ele>
        <time>2019-04-27T10:35:05.000Z</time>
      </trkpt>
      <trkpt lat="42.515804290771484" lon="-7.341092586517334">
        <ele>320.0</ele>
        <time>2019-04-27T10:35:06.000Z</time>
      </trkpt>
      <trkpt lat="42.515811920166016" lon="-7.341041088104248">
        <ele>320.0</ele>
        <time>2019-04-27T10:35:07.000Z</time>
      </trkpt>
      <trkpt lat="42.51581954956055" lon="-7.340986251831055">
        <ele>321.0</ele>
        <time>2019-04-27T10:35:09.000Z</time>
      </trkpt>
      <trkpt lat="42.515830993652344" lon="-7.340977191925049">
        <ele>321.0</ele>
        <time>2019-04-27T10:35:19.000Z</time>
      </trkpt>
      <trkpt lat="42.515838623046875" lon="-7.340983867645264">
        <ele>322.0</ele>
        <time>2019-04-27T10:35:29.000Z</time>
      </trkpt>
      <trkpt lat="42.51585006713867" lon="-7.341000556945801">
        <ele>322.0</ele>
        <time>2019-04-27T10:35:39.000Z</time>
      </trkpt>
      <trkpt lat="42.5158576965332" lon="-7.341022968292236">
        <ele>323.0</ele>
        <time>2019-04-27T10:35:50.000Z</time>
      </trkpt>
      <trkpt lat="42.515865325927734" lon="-7.341030120849609">
        <ele>323.0</ele>
        <time>2019-04-27T10:35:50.000Z</time>
      </trkpt>
      <trkpt lat="42.515872955322266" lon="-7.341035842895508">
        <ele>323.0</ele>
        <time>2019-04-27T10:35:50.000Z</time>
      </trkpt>
      <trkpt lat="42.51587677001953" lon="-7.341041088104248">
        <ele>323.0</ele>
        <time>2019-04-27T10:35:50.000Z</time>
      </trkpt>
      <trkpt lat="42.5158805847168" lon="-7.34104585647583">
        <ele>323.0</ele>
        <time>2019-04-27T10:35:51.000Z</time>
      </trkpt>
      <trkpt lat="42.51593017578125" lon="-7.341099739074707">
        <ele>323.0</ele>
        <time>2019-04-27T10:35:58.000Z</time>
      </trkpt>
      <trkpt lat="42.515995025634766" lon="-7.3411736488342285">
        <ele>323.0</ele>
        <time>2019-04-27T10:36:06.000Z</time>
      </trkpt>
      <trkpt lat="42.51606750488281" lon="-7.341261386871338">
        <ele>322.0</ele>
        <time>2019-04-27T10:36:13.000Z</time>
      </trkpt>
      <trkpt lat="42.516151428222656" lon="-7.341355323791504">
        <ele>322.0</ele>
        <time>2019-04-27T10:36:21.000Z</time>
      </trkpt>
      <trkpt lat="42.51622009277344" lon="-7.341429233551025">
        <ele>322.0</ele>
        <time>2019-04-27T10:36:31.000Z</time>
      </trkpt>
      <trkpt lat="42.516292572021484" lon="-7.341501712799072">
        <ele>323.0</ele>
        <time>2019-04-27T10:36:42.000Z</time>
      </trkpt>
      <trkpt lat="42.51636505126953" lon="-7.341573238372803">
        <ele>323.0</ele>
        <time>2019-04-27T10:36:53.000Z</time>
      </trkpt>
      <trkpt lat="42.51643753051758" lon="-7.341644287109375">
        <ele>324.0</ele>
        <time>2019-04-27T10:37:04.000Z</time>
      </trkpt>
      <trkpt lat="42.516502380371094" lon="-7.341701507568359">
        <ele>325.0</ele>
        <time>2019-04-27T10:37:11.000Z</time>
      </trkpt>
      <trkpt lat="42.51655960083008" lon="-7.341752529144287">
        <ele>325.0</ele>
        <time>2019-04-27T10:37:19.000Z</time>
      </trkpt>
      <trkpt lat="42.5166130065918" lon="-7.341799736022949">
        <ele>325.0</ele>
        <time>2019-04-27T10:37:26.000Z</time>
      </trkpt>
      <trkpt lat="42.51667022705078" lon="-7.34184455871582">
        <ele>326.0</ele>
        <time>2019-04-27T10:37:34.000Z</time>
      </trkpt>
      <trkpt lat="42.51673126220703" lon="-7.341856479644775">
        <ele>326.0</ele>
        <time>2019-04-27T10:37:38.000Z</time>
      </trkpt>
      <trkpt lat="42.51676940917969" lon="-7.341827392578125">
        <ele>326.0</ele>
        <time>2019-04-27T10:37:43.000Z</time>
      </trkpt>
      <trkpt lat="42.51682662963867" lon="-7.341841220855713">
        <ele>325.0</ele>
        <time>2019-04-27T10:37:52.000Z</time>
      </trkpt>
      <trkpt lat="42.51689910888672" lon="-7.341862201690674">
        <ele>324.0</ele>
        <time>2019-04-27T10:38:01.000Z</time>
      </trkpt>
      <trkpt lat="42.5169792175293" lon="-7.341888427734375">
        <ele>322.0</ele>
        <time>2019-04-27T10:38:10.000Z</time>
      </trkpt>
      <trkpt lat="42.517066955566406" lon="-7.341916561126709">
        <ele>321.0</ele>
        <time>2019-04-27T10:38:19.000Z</time>
      </trkpt>
      <trkpt lat="42.517093658447266" lon="-7.341922760009766">
        <ele>320.0</ele>
        <time>2019-04-27T10:38:24.000Z</time>
      </trkpt>
      <trkpt lat="42.5171012878418" lon="-7.341921806335449">
        <ele>319.0</ele>
        <time>2019-04-27T10:38:29.000Z</time>
      </trkpt>
      <trkpt lat="42.51709747314453" lon="-7.341916084289551">
        <ele>318.0</ele>
        <time>2019-04-27T10:38:34.000Z</time>
      </trkpt>
      <trkpt lat="42.51708984375" lon="-7.3419084548950195">
        <ele>318.0</ele>
        <time>2019-04-27T10:38:40.000Z</time>
      </trkpt>
      <trkpt lat="42.517093658447266" lon="-7.341906547546387">
        <ele>317.0</ele>
        <time>2019-04-27T10:38:40.000Z</time>
      </trkpt>
      <trkpt lat="42.51709747314453" lon="-7.341904640197754">
        <ele>317.0</ele>
        <time>2019-04-27T10:38:40.000Z</time>
      </trkpt>
      <trkpt lat="42.5171012878418" lon="-7.341903209686279">
        <ele>317.0</ele>
        <time>2019-04-27T10:38:40.000Z</time>
      </trkpt>
      <trkpt lat="42.51710510253906" lon="-7.341901779174805">
        <ele>318.0</ele>
        <time>2019-04-27T10:38:41.000Z</time>
      </trkpt>
      <trkpt lat="42.51715087890625" lon="-7.341894149780273">
        <ele>317.0</ele>
        <time>2019-04-27T10:38:45.000Z</time>
      </trkpt>
      <trkpt lat="42.517208099365234" lon="-7.341884136199951">
        <ele>317.0</ele>
        <time>2019-04-27T10:38:49.000Z</time>
      </trkpt>
      <trkpt lat="42.517276763916016" lon="-7.341872692108154">
        <ele>316.0</ele>
        <time>2019-04-27T10:38:53.000Z</time>
      </trkpt>
      <trkpt lat="42.51735305786133" lon="-7.341860294342041">
        <ele>315.0</ele>
        <time>2019-04-27T10:38:57.000Z</time>
      </trkpt>
      <trkpt lat="42.51737976074219" lon="-7.341856956481934">
        <ele>314.0</ele>
        <time>2019-04-27T10:39:02.000Z</time>
      </trkpt>
      <trkpt lat="42.517391204833984" lon="-7.341856479644775">
        <ele>313.0</ele>
        <time>2019-04-27T10:39:08.000Z</time>
      </trkpt>
      <trkpt lat="42.517391204833984" lon="-7.34185791015625">
        <ele>313.0</ele>
        <time>2019-04-27T10:39:14.000Z</time>
      </trkpt>
      <trkpt lat="42.51738739013672" lon="-7.341860294342041">
        <ele>312.0</ele>
        <time>2019-04-27T10:39:20.000Z</time>
      </trkpt>
      <trkpt lat="42.51741027832031" lon="-7.341859817504883">
        <ele>312.0</ele>
        <time>2019-04-27T10:39:21.000Z</time>
      </trkpt>
      <trkpt lat="42.51776123046875" lon="-7.341831684112549">
        <ele>310.0</ele>
        <time>2019-04-27T10:39:36.000Z</time>
      </trkpt>
      <trkpt lat="42.5179328918457" lon="-7.3417649269104">
        <ele>330.0</ele>
        <time>2019-04-27T10:40:02.000Z</time>
      </trkpt>
      <trkpt lat="42.51795959472656" lon="-7.341739177703857">
        <ele>333.0</ele>
        <time>2019-04-27T10:40:07.000Z</time>
      </trkpt>
      <trkpt lat="42.51796340942383" lon="-7.341716766357422">
        <ele>334.0</ele>
        <time>2019-04-27T10:40:13.000Z</time>
      </trkpt>
      <trkpt lat="42.517982482910156" lon="-7.341699123382568">
        <ele>337.0</ele>
        <time>2019-04-27T10:40:23.000Z</time>
      </trkpt>
      <trkpt lat="42.518009185791016" lon="-7.341684341430664">
        <ele>341.0</ele>
        <time>2019-04-27T10:40:34.000Z</time>
      </trkpt>
      <trkpt lat="42.51802062988281" lon="-7.341678619384766">
        <ele>341.0</ele>
        <time>2019-04-27T10:40:34.000Z</time>
      </trkpt>
      <trkpt lat="42.518028259277344" lon="-7.341673851013184">
        <ele>342.0</ele>
        <time>2019-04-27T10:40:34.000Z</time>
      </trkpt>
      <trkpt lat="42.51803207397461" lon="-7.34166955947876">
        <ele>341.0</ele>
        <time>2019-04-27T10:40:34.000Z</time>
      </trkpt>
      <trkpt lat="42.51803970336914" lon="-7.341665744781494">
        <ele>341.0</ele>
        <time>2019-04-27T10:40:35.000Z</time>
      </trkpt>
      <trkpt lat="42.518089294433594" lon="-7.341627597808838">
        <ele>342.0</ele>
        <time>2019-04-27T10:40:41.000Z</time>
      </trkpt>
      <trkpt lat="42.51816177368164" lon="-7.3415751457214355">
        <ele>343.0</ele>
        <time>2019-04-27T10:40:47.000Z</time>
      </trkpt>
      <trkpt lat="42.518245697021484" lon="-7.3415141105651855">
        <ele>345.0</ele>
        <time>2019-04-27T10:40:53.000Z</time>
      </trkpt>
      <trkpt lat="42.518333435058594" lon="-7.341447830200195">
        <ele>347.0</ele>
        <time>2019-04-27T10:40:59.000Z</time>
      </trkpt>
      <trkpt lat="42.51837158203125" lon="-7.341427803039551">
        <ele>348.0</ele>
        <time>2019-04-27T10:41:01.000Z</time>
      </trkpt>
      <trkpt lat="42.518394470214844" lon="-7.341423034667969">
        <ele>349.0</ele>
        <time>2019-04-27T10:41:04.000Z</time>
      </trkpt>
      <trkpt lat="42.518402099609375" lon="-7.341427326202393">
        <ele>349.0</ele>
        <time>2019-04-27T10:41:06.000Z</time>
      </trkpt>
      <trkpt lat="42.518409729003906" lon="-7.341436862945557">
        <ele>350.0</ele>
        <time>2019-04-27T10:41:09.000Z</time>
      </trkpt>
      <trkpt lat="42.51841735839844" lon="-7.341436862945557">
        <ele>350.0</ele>
        <time>2019-04-27T10:41:12.000Z</time>
      </trkpt>
      <trkpt lat="42.51842498779297" lon="-7.341437816619873">
        <ele>351.0</ele>
        <time>2019-04-27T10:41:16.000Z</time>
      </trkpt>
      <trkpt lat="42.51842498779297" lon="-7.341439247131348">
        <ele>352.0</ele>
        <time>2019-04-27T10:41:20.000Z</time>
      </trkpt>
      <trkpt lat="42.518428802490234" lon="-7.341441631317139">
        <ele>353.0</ele>
        <time>2019-04-27T10:41:24.000Z</time>
      </trkpt>
      <trkpt lat="42.5184326171875" lon="-7.341442584991455">
        <ele>354.0</ele>
        <time>2019-04-27T10:41:24.000Z</time>
      </trkpt>
      <trkpt lat="42.518436431884766" lon="-7.3414435386657715">
        <ele>354.0</ele>
        <time>2019-04-27T10:41:24.000Z</time>
      </trkpt>
      <trkpt lat="42.51844024658203" lon="-7.341444492340088">
        <ele>354.0</ele>
        <time>2019-04-27T10:41:24.000Z</time>
      </trkpt>
      <trkpt lat="42.5184440612793" lon="-7.341445446014404">
        <ele>353.0</ele>
        <time>2019-04-27T10:41:25.000Z</time>
      </trkpt>
      <trkpt lat="42.518760681152344" lon="-7.341501235961914">
        <ele>358.0</ele>
        <time>2019-04-27T10:41:46.000Z</time>
      </trkpt>
      <trkpt lat="42.5187873840332" lon="-7.341524600982666">
        <ele>359.0</ele>
        <time>2019-04-27T10:41:49.000Z</time>
      </trkpt>
      <trkpt lat="42.518795013427734" lon="-7.341552734375">
        <ele>359.0</ele>
        <time>2019-04-27T10:41:52.000Z</time>
      </trkpt>
      <trkpt lat="42.5187873840332" lon="-7.341582775115967">
        <ele>359.0</ele>
        <time>2019-04-27T10:41:55.000Z</time>
      </trkpt>
      <trkpt lat="42.51877212524414" lon="-7.341614723205566">
        <ele>359.0</ele>
        <time>2019-04-27T10:41:58.000Z</time>
      </trkpt>
      <trkpt lat="42.51883316040039" lon="-7.341611385345459">
        <ele>360.0</ele>
        <time>2019-04-27T10:42:05.000Z</time>
      </trkpt>
      <trkpt lat="42.518917083740234" lon="-7.34159517288208">
        <ele>360.0</ele>
        <time>2019-04-27T10:42:13.000Z</time>
      </trkpt>
      <trkpt lat="42.51901626586914" lon="-7.341569900512695">
        <ele>361.0</ele>
        <time>2019-04-27T10:42:21.000Z</time>
      </trkpt>
      <trkpt lat="42.51912307739258" lon="-7.341540336608887">
        <ele>361.0</ele>
        <time>2019-04-27T10:42:29.000Z</time>
      </trkpt>
      <trkpt lat="42.51921081542969" lon="-7.3415327072143555">
        <ele>361.0</ele>
        <time>2019-04-27T10:42:38.000Z</time>
      </trkpt>
      <trkpt lat="42.5192985534668" lon="-7.3415303230285645">
        <ele>360.0</ele>
        <time>2019-04-27T10:42:47.000Z</time>
      </trkpt>
      <trkpt lat="42.519386291503906" lon="-7.3415303230285645">
        <ele>360.0</ele>
        <time>2019-04-27T10:42:56.000Z</time>
      </trkpt>
      <trkpt lat="42.519474029541016" lon="-7.341532230377197">
        <ele>359.0</ele>
        <time>2019-04-27T10:43:06.000Z</time>
      </trkpt>
      <trkpt lat="42.519561767578125" lon="-7.341522216796875">
        <ele>359.0</ele>
        <time>2019-04-27T10:43:14.000Z</time>
      </trkpt>
      <trkpt lat="42.519649505615234" lon="-7.341508865356445">
        <ele>360.0</ele>
        <time>2019-04-27T10:43:22.000Z</time>
      </trkpt>
      <trkpt lat="42.519737243652344" lon="-7.341493129730225">
        <ele>361.0</ele>
        <time>2019-04-27T10:43:30.000Z</time>
      </trkpt>
      <trkpt lat="42.51982498168945" lon="-7.3414764404296875">
        <ele>362.0</ele>
        <time>2019-04-27T10:43:39.000Z</time>
      </trkpt>
      <trkpt lat="42.5198974609375" lon="-7.341467380523682">
        <ele>363.0</ele>
        <time>2019-04-27T10:43:47.000Z</time>
      </trkpt>
      <trkpt lat="42.51996612548828" lon="-7.341460704803467">
        <ele>365.0</ele>
        <time>2019-04-27T10:43:56.000Z</time>
      </trkpt>
      <trkpt lat="42.52003479003906" lon="-7.341455459594727">
        <ele>366.0</ele>
        <time>2019-04-27T10:44:04.000Z</time>
      </trkpt>
      <trkpt lat="42.52009582519531" lon="-7.341451168060303">
        <ele>368.0</ele>
        <time>2019-04-27T10:44:13.000Z</time>
      </trkpt>
      <trkpt lat="42.5201301574707" lon="-7.341442584991455">
        <ele>369.0</ele>
        <time>2019-04-27T10:44:18.000Z</time>
      </trkpt>
      <trkpt lat="42.520145416259766" lon="-7.341432571411133">
        <ele>369.0</ele>
        <time>2019-04-27T10:44:23.000Z</time>
      </trkpt>
      <trkpt lat="42.5201530456543" lon="-7.341422080993652">
        <ele>369.0</ele>
        <time>2019-04-27T10:44:28.000Z</time>
      </trkpt>
      <trkpt lat="42.52015686035156" lon="-7.341411590576172">
        <ele>369.0</ele>
        <time>2019-04-27T10:44:33.000Z</time>
      </trkpt>
      <trkpt lat="42.520164489746094" lon="-7.341404438018799">
        <ele>369.0</ele>
        <time>2019-04-27T10:44:33.000Z</time>
      </trkpt>
      <trkpt lat="42.520172119140625" lon="-7.341399192810059">
        <ele>369.0</ele>
        <time>2019-04-27T10:44:33.000Z</time>
      </trkpt>
      <trkpt lat="42.520179748535156" lon="-7.341394424438477">
        <ele>369.0</ele>
        <time>2019-04-27T10:44:33.000Z</time>
      </trkpt>
      <trkpt lat="42.52018737792969" lon="-7.341390132904053">
        <ele>369.0</ele>
        <time>2019-04-27T10:44:34.000Z</time>
      </trkpt>
      <trkpt lat="42.52029800415039" lon="-7.341318130493164">
        <ele>370.0</ele>
        <time>2019-04-27T10:44:41.000Z</time>
      </trkpt>
      <trkpt lat="42.52033615112305" lon="-7.341303825378418">
        <ele>371.0</ele>
        <time>2019-04-27T10:45:00.000Z</time>
      </trkpt>
      <trkpt lat="42.520362854003906" lon="-7.341294288635254">
        <ele>371.0</ele>
        <time>2019-04-27T10:45:01.000Z</time>
      </trkpt>
      <trkpt lat="42.52057647705078" lon="-7.341245651245117">
        <ele>372.0</ele>
        <time>2019-04-27T10:45:16.000Z</time>
      </trkpt>
      <trkpt lat="42.52068328857422" lon="-7.341217041015625">
        <ele>367.0</ele>
        <time>2019-04-27T10:46:06.000Z</time>
      </trkpt>
      <trkpt lat="42.52071762084961" lon="-7.341207504272461">
        <ele>367.0</ele>
        <time>2019-04-27T10:46:07.000Z</time>
      </trkpt>
      <trkpt lat="42.52104949951172" lon="-7.341037273406982">
        <ele>365.0</ele>
        <time>2019-04-27T10:46:30.000Z</time>
      </trkpt>
      <trkpt lat="42.52136993408203" lon="-7.3409624099731445">
        <ele>368.0</ele>
        <time>2019-04-27T10:47:07.000Z</time>
      </trkpt>
      <trkpt lat="42.52139663696289" lon="-7.340982437133789">
        <ele>373.0</ele>
        <time>2019-04-27T10:47:29.000Z</time>
      </trkpt>
      <trkpt lat="42.52141571044922" lon="-7.340997219085693">
        <ele>373.0</ele>
        <time>2019-04-27T10:47:30.000Z</time>
      </trkpt>
      <trkpt lat="42.521724700927734" lon="-7.341196060180664">
        <ele>381.0</ele>
        <time>2019-04-27T10:47:55.000Z</time>
      </trkpt>
      <trkpt lat="42.52206039428711" lon="-7.3413543701171875">
        <ele>388.0</ele>
        <time>2019-04-27T10:48:32.000Z</time>
      </trkpt>
      <trkpt lat="42.522274017333984" lon="-7.341552257537842">
        <ele>391.0</ele>
        <time>2019-04-27T10:49:04.000Z</time>
      </trkpt>
      <trkpt lat="42.5223388671875" lon="-7.34162712097168">
        <ele>393.0</ele>
        <time>2019-04-27T10:49:22.000Z</time>
      </trkpt>
      <trkpt lat="42.52236557006836" lon="-7.341658115386963">
        <ele>393.0</ele>
        <time>2019-04-27T10:49:23.000Z</time>
      </trkpt>
      <trkpt lat="42.52259826660156" lon="-7.341996669769287">
        <ele>395.0</ele>
        <time>2019-04-27T10:49:50.000Z</time>
      </trkpt>
      <trkpt lat="42.522674560546875" lon="-7.3420538902282715">
        <ele>395.0</ele>
        <time>2019-04-27T10:49:58.000Z</time>
      </trkpt>
      <trkpt lat="42.52273178100586" lon="-7.342060089111328">
        <ele>395.0</ele>
        <time>2019-04-27T10:50:07.000Z</time>
      </trkpt>
      <trkpt lat="42.522769927978516" lon="-7.342101573944092">
        <ele>395.0</ele>
        <time>2019-04-27T10:50:55.000Z</time>
      </trkpt>
      <trkpt lat="42.52279281616211" lon="-7.342147350311279">
        <ele>396.0</ele>
        <time>2019-04-27T10:51:43.000Z</time>
      </trkpt>
      <trkpt lat="42.52280044555664" lon="-7.342160224914551">
        <ele>396.0</ele>
        <time>2019-04-27T10:51:43.000Z</time>
      </trkpt>
      <trkpt lat="42.52280807495117" lon="-7.342169284820557">
        <ele>396.0</ele>
        <time>2019-04-27T10:51:43.000Z</time>
      </trkpt>
      <trkpt lat="42.52281188964844" lon="-7.342175483703613">
        <ele>396.0</ele>
        <time>2019-04-27T10:51:43.000Z</time>
      </trkpt>
      <trkpt lat="42.5228157043457" lon="-7.3421807289123535">
        <ele>396.0</ele>
        <time>2019-04-27T10:51:44.000Z</time>
      </trkpt>
      <trkpt lat="42.522823333740234" lon="-7.342193126678467">
        <ele>396.0</ele>
        <time>2019-04-27T10:51:44.000Z</time>
      </trkpt>
      <trkpt lat="42.52283477783203" lon="-7.342206954956055">
        <ele>396.0</ele>
        <time>2019-04-27T10:51:45.000Z</time>
      </trkpt>
      <trkpt lat="42.52284622192383" lon="-7.342222213745117">
        <ele>396.0</ele>
        <time>2019-04-27T10:51:45.000Z</time>
      </trkpt>
      <trkpt lat="42.522857666015625" lon="-7.34223747253418">
        <ele>396.0</ele>
        <time>2019-04-27T10:51:46.000Z</time>
      </trkpt>
      <trkpt lat="42.52286148071289" lon="-7.3422441482543945">
        <ele>395.0</ele>
        <time>2019-04-27T10:51:50.000Z</time>
      </trkpt>
      <trkpt lat="42.522865295410156" lon="-7.342247486114502">
        <ele>394.0</ele>
        <time>2019-04-27T10:51:55.000Z</time>
      </trkpt>
      <trkpt lat="42.52286911010742" lon="-7.342248916625977">
        <ele>393.0</ele>
        <time>2019-04-27T10:51:59.000Z</time>
      </trkpt>
      <trkpt lat="42.52287292480469" lon="-7.342248916625977">
        <ele>392.0</ele>
        <time>2019-04-27T10:52:04.000Z</time>
      </trkpt>
      <trkpt lat="42.52287673950195" lon="-7.342251777648926">
        <ele>392.0</ele>
        <time>2019-04-27T10:52:04.000Z</time>
      </trkpt>
      <trkpt lat="42.52287673950195" lon="-7.342254161834717">
        <ele>392.0</ele>
        <time>2019-04-27T10:52:04.000Z</time>
      </trkpt>
      <trkpt lat="42.52288055419922" lon="-7.342256546020508">
        <ele>392.0</ele>
        <time>2019-04-27T10:52:04.000Z</time>
      </trkpt>
      <trkpt lat="42.522884368896484" lon="-7.342258930206299">
        <ele>392.0</ele>
        <time>2019-04-27T10:52:05.000Z</time>
      </trkpt>
      <trkpt lat="42.5229377746582" lon="-7.34229040145874">
        <ele>392.0</ele>
        <time>2019-04-27T10:52:09.000Z</time>
      </trkpt>
      <trkpt lat="42.52301025390625" lon="-7.342333793640137">
        <ele>391.0</ele>
        <time>2019-04-27T10:52:14.000Z</time>
      </trkpt>
      <trkpt lat="42.52309799194336" lon="-7.342385768890381">
        <ele>390.0</ele>
        <time>2019-04-27T10:52:18.000Z</time>
      </trkpt>
      <trkpt lat="42.523193359375" lon="-7.342441558837891">
        <ele>389.0</ele>
        <time>2019-04-27T10:52:23.000Z</time>
      </trkpt>
      <trkpt lat="42.52347946166992" lon="-7.342713832855225">
        <ele>386.0</ele>
        <time>2019-04-27T10:52:52.000Z</time>
      </trkpt>
      <trkpt lat="42.52379608154297" lon="-7.342930316925049">
        <ele>385.0</ele>
        <time>2019-04-27T10:53:25.000Z</time>
      </trkpt>
      <trkpt lat="42.52384567260742" lon="-7.342988967895508">
        <ele>384.0</ele>
        <time>2019-04-27T10:53:33.000Z</time>
      </trkpt>
      <trkpt lat="42.5239143371582" lon="-7.3430352210998535">
        <ele>383.0</ele>
        <time>2019-04-27T10:53:52.000Z</time>
      </trkpt>
      <trkpt lat="42.52394485473633" lon="-7.343055248260498">
        <ele>383.0</ele>
        <time>2019-04-27T10:53:53.000Z</time>
      </trkpt>
      <trkpt lat="42.52417755126953" lon="-7.343198776245117">
        <ele>382.0</ele>
        <time>2019-04-27T10:54:13.000Z</time>
      </trkpt>
      <trkpt lat="42.52420425415039" lon="-7.343229293823242">
        <ele>381.0</ele>
        <time>2019-04-27T10:54:35.000Z</time>
      </trkpt>
      <trkpt lat="42.52422332763672" lon="-7.343250751495361">
        <ele>381.0</ele>
        <time>2019-04-27T10:54:36.000Z</time>
      </trkpt>
      <trkpt lat="42.52423858642578" lon="-7.343265533447266">
        <ele>381.0</ele>
        <time>2019-04-27T10:54:37.000Z</time>
      </trkpt>
      <trkpt lat="42.52424240112305" lon="-7.3432698249816895">
        <ele>381.0</ele>
        <time>2019-04-27T10:54:44.000Z</time>
      </trkpt>
      <trkpt lat="42.52424621582031" lon="-7.343273639678955">
        <ele>381.0</ele>
        <time>2019-04-27T10:54:45.000Z</time>
      </trkpt>
      <trkpt lat="42.52442932128906" lon="-7.3433837890625">
        <ele>381.0</ele>
        <time>2019-04-27T10:54:56.000Z</time>
      </trkpt>
      <trkpt lat="42.52458572387695" lon="-7.343398094177246">
        <ele>384.0</ele>
        <time>2019-04-27T10:55:15.000Z</time>
      </trkpt>
      <trkpt lat="42.52460861206055" lon="-7.343400478363037">
        <ele>384.0</ele>
        <time>2019-04-27T10:55:16.000Z</time>
      </trkpt>
      <trkpt lat="42.524696350097656" lon="-7.3433942794799805">
        <ele>386.0</ele>
        <time>2019-04-27T10:55:23.000Z</time>
      </trkpt>
      <trkpt lat="42.52471160888672" lon="-7.34340238571167">
        <ele>388.0</ele>
        <time>2019-04-27T10:55:33.000Z</time>
      </trkpt>
      <trkpt lat="42.524723052978516" lon="-7.343414783477783">
        <ele>391.0</ele>
        <time>2019-04-27T10:55:44.000Z</time>
      </trkpt>
      <trkpt lat="42.52473831176758" lon="-7.3434295654296875">
        <ele>394.0</ele>
        <time>2019-04-27T10:55:55.000Z</time>
      </trkpt>
      <trkpt lat="42.524749755859375" lon="-7.343445777893066">
        <ele>398.0</ele>
        <time>2019-04-27T10:56:06.000Z</time>
      </trkpt>
      <trkpt lat="42.524757385253906" lon="-7.3434553146362305">
        <ele>399.0</ele>
        <time>2019-04-27T10:56:06.000Z</time>
      </trkpt>
      <trkpt lat="42.52476501464844" lon="-7.34346342086792">
        <ele>399.0</ele>
        <time>2019-04-27T10:56:06.000Z</time>
      </trkpt>
      <trkpt lat="42.52477264404297" lon="-7.343470573425293">
        <ele>398.0</ele>
        <time>2019-04-27T10:56:06.000Z</time>
      </trkpt>
      <trkpt lat="42.5247802734375" lon="-7.343477249145508">
        <ele>398.0</ele>
        <time>2019-04-27T10:56:07.000Z</time>
      </trkpt>
      <trkpt lat="42.52479934692383" lon="-7.343496799468994">
        <ele>398.0</ele>
        <time>2019-04-27T10:56:07.000Z</time>
      </trkpt>
      <trkpt lat="42.52482223510742" lon="-7.343521595001221">
        <ele>398.0</ele>
        <time>2019-04-27T10:56:08.000Z</time>
      </trkpt>
      <trkpt lat="42.52485275268555" lon="-7.343549728393555">
        <ele>398.0</ele>
        <time>2019-04-27T10:56:08.000Z</time>
      </trkpt>
      <trkpt lat="42.524879455566406" lon="-7.343579292297363">
        <ele>398.0</ele>
        <time>2019-04-27T10:56:09.000Z</time>
      </trkpt>
      <trkpt lat="42.52490997314453" lon="-7.343597888946533">
        <ele>399.0</ele>
        <time>2019-04-27T10:56:11.000Z</time>
      </trkpt>
      <trkpt lat="42.524940490722656" lon="-7.343613147735596">
        <ele>400.0</ele>
        <time>2019-04-27T10:56:14.000Z</time>
      </trkpt>
      <trkpt lat="42.52497100830078" lon="-7.343626022338867">
        <ele>401.0</ele>
        <time>2019-04-27T10:56:17.000Z</time>
      </trkpt>
      <trkpt lat="42.525001525878906" lon="-7.3436384201049805">
        <ele>402.0</ele>
        <time>2019-04-27T10:56:20.000Z</time>
      </trkpt>
      <trkpt lat="42.525047302246094" lon="-7.343630313873291">
        <ele>403.0</ele>
        <time>2019-04-27T10:56:23.000Z</time>
      </trkpt>
      <trkpt lat="42.52508544921875" lon="-7.343604564666748">
        <ele>405.0</ele>
        <time>2019-04-27T10:56:26.000Z</time>
      </trkpt>
      <trkpt lat="42.52509689331055" lon="-7.3436102867126465">
        <ele>405.0</ele>
        <time>2019-04-27T10:56:27.000Z</time>
      </trkpt>
      <trkpt lat="42.52510452270508" lon="-7.34362268447876">
        <ele>406.0</ele>
        <time>2019-04-27T10:56:28.000Z</time>
      </trkpt>
      <trkpt lat="42.525108337402344" lon="-7.343638896942139">
        <ele>406.0</ele>
        <time>2019-04-27T10:56:29.000Z</time>
      </trkpt>
      <trkpt lat="42.52511215209961" lon="-7.34365701675415">
        <ele>407.0</ele>
        <time>2019-04-27T10:56:31.000Z</time>
      </trkpt>
      <trkpt lat="42.52516174316406" lon="-7.343658924102783">
        <ele>409.0</ele>
        <time>2019-04-27T10:56:39.000Z</time>
      </trkpt>
      <trkpt lat="42.52522659301758" lon="-7.343656539916992">
        <ele>412.0</ele>
        <time>2019-04-27T10:56:48.000Z</time>
      </trkpt>
      <trkpt lat="42.52530288696289" lon="-7.343651294708252">
        <ele>416.0</ele>
        <time>2019-04-27T10:56:56.000Z</time>
      </trkpt>
      <trkpt lat="42.525386810302734" lon="-7.343644142150879">
        <ele>420.0</ele>
        <time>2019-04-27T10:57:05.000Z</time>
      </trkpt>
      <trkpt lat="42.525421142578125" lon="-7.3436479568481445">
        <ele>422.0</ele>
        <time>2019-04-27T10:57:11.000Z</time>
      </trkpt>
      <trkpt lat="42.52544021606445" lon="-7.343654632568359">
        <ele>425.0</ele>
        <time>2019-04-27T10:57:18.000Z</time>
      </trkpt>
      <trkpt lat="42.52545166015625" lon="-7.343663215637207">
        <ele>427.0</ele>
        <time>2019-04-27T10:57:24.000Z</time>
      </trkpt>
      <trkpt lat="42.525455474853516" lon="-7.343672275543213">
        <ele>430.0</ele>
        <time>2019-04-27T10:57:31.000Z</time>
      </trkpt>
      <trkpt lat="42.52546691894531" lon="-7.343677520751953">
        <ele>431.0</ele>
        <time>2019-04-27T10:57:31.000Z</time>
      </trkpt>
      <trkpt lat="42.52547836303711" lon="-7.343681812286377">
        <ele>431.0</ele>
        <time>2019-04-27T10:57:31.000Z</time>
      </trkpt>
      <trkpt lat="42.52548599243164" lon="-7.343685626983643">
        <ele>430.0</ele>
        <time>2019-04-27T10:57:31.000Z</time>
      </trkpt>
      <trkpt lat="42.52549362182617" lon="-7.34368896484375">
        <ele>430.0</ele>
        <time>2019-04-27T10:57:32.000Z</time>
      </trkpt>
      <trkpt lat="42.52552032470703" lon="-7.343704700469971">
        <ele>430.0</ele>
        <time>2019-04-27T10:57:33.000Z</time>
      </trkpt>
      <trkpt lat="42.52555465698242" lon="-7.343725681304932">
        <ele>430.0</ele>
        <time>2019-04-27T10:57:34.000Z</time>
      </trkpt>
      <trkpt lat="42.52558898925781" lon="-7.343750476837158">
        <ele>430.0</ele>
        <time>2019-04-27T10:57:35.000Z</time>
      </trkpt>
      <trkpt lat="42.525630950927734" lon="-7.343776226043701">
        <ele>431.0</ele>
        <time>2019-04-27T10:57:36.000Z</time>
      </trkpt>
      <trkpt lat="42.5256462097168" lon="-7.343836307525635">
        <ele>431.0</ele>
        <time>2019-04-27T10:57:42.000Z</time>
      </trkpt>
      <trkpt lat="42.52566146850586" lon="-7.343912601470947">
        <ele>431.0</ele>
        <time>2019-04-27T10:57:48.000Z</time>
      </trkpt>
      <trkpt lat="42.52566909790039" lon="-7.34399938583374">
        <ele>431.0</ele>
        <time>2019-04-27T10:57:55.000Z</time>
      </trkpt>
      <trkpt lat="42.52567672729492" lon="-7.344091415405273">
        <ele>431.0</ele>
        <time>2019-04-27T10:58:01.000Z</time>
      </trkpt>
      <trkpt lat="42.525691986083984" lon="-7.344143867492676">
        <ele>432.0</ele>
        <time>2019-04-27T10:58:06.000Z</time>
      </trkpt>
      <trkpt lat="42.52571105957031" lon="-7.344185829162598">
        <ele>432.0</ele>
        <time>2019-04-27T10:58:11.000Z</time>
      </trkpt>
      <trkpt lat="42.52573013305664" lon="-7.344220161437988">
        <ele>433.0</ele>
        <time>2019-04-27T10:58:16.000Z</time>
      </trkpt>
      <trkpt lat="42.52574920654297" lon="-7.3442511558532715">
        <ele>434.0</ele>
        <time>2019-04-27T10:58:21.000Z</time>
      </trkpt>
      <trkpt lat="42.5257682800293" lon="-7.344272136688232">
        <ele>434.0</ele>
        <time>2019-04-27T10:58:26.000Z</time>
      </trkpt>
      <trkpt lat="42.525794982910156" lon="-7.344285488128662">
        <ele>435.0</ele>
        <time>2019-04-27T10:58:31.000Z</time>
      </trkpt>
      <trkpt lat="42.52581787109375" lon="-7.344293117523193">
        <ele>436.0</ele>
        <time>2019-04-27T10:58:36.000Z</time>
      </trkpt>
      <trkpt lat="42.525840759277344" lon="-7.344298362731934">
        <ele>437.0</ele>
        <time>2019-04-27T10:58:42.000Z</time>
      </trkpt>
      <trkpt lat="42.525856018066406" lon="-7.34430456161499">
        <ele>437.0</ele>
        <time>2019-04-27T10:58:42.000Z</time>
      </trkpt>
      <trkpt lat="42.52586364746094" lon="-7.344308853149414">
        <ele>437.0</ele>
        <time>2019-04-27T10:58:42.000Z</time>
      </trkpt>
      <trkpt lat="42.5258674621582" lon="-7.344311714172363">
        <ele>437.0</ele>
        <time>2019-04-27T10:58:42.000Z</time>
      </trkpt>
      <trkpt lat="42.525875091552734" lon="-7.344314098358154">
        <ele>437.0</ele>
        <time>2019-04-27T10:58:43.000Z</time>
      </trkpt>
      <trkpt lat="42.525936126708984" lon="-7.344329357147217">
        <ele>438.0</ele>
        <time>2019-04-27T10:58:51.000Z</time>
      </trkpt>
      <trkpt lat="42.52602005004883" lon="-7.344348907470703">
        <ele>438.0</ele>
        <time>2019-04-27T10:58:59.000Z</time>
      </trkpt>
      <trkpt lat="42.526119232177734" lon="-7.344371795654297">
        <ele>439.0</ele>
        <time>2019-04-27T10:59:07.000Z</time>
      </trkpt>
      <trkpt lat="42.52622604370117" lon="-7.344396114349365">
        <ele>441.0</ele>
        <time>2019-04-27T10:59:15.000Z</time>
      </trkpt>
      <trkpt lat="42.52626419067383" lon="-7.3444085121154785">
        <ele>441.0</ele>
        <time>2019-04-27T10:59:17.000Z</time>
      </trkpt>
      <trkpt lat="42.52627944946289" lon="-7.344417095184326">
        <ele>441.0</ele>
        <time>2019-04-27T10:59:19.000Z</time>
      </trkpt>
      <trkpt lat="42.526283264160156" lon="-7.344423770904541">
        <ele>441.0</ele>
        <time>2019-04-27T10:59:21.000Z</time>
      </trkpt>
      <trkpt lat="42.526275634765625" lon="-7.344429016113281">
        <ele>442.0</ele>
        <time>2019-04-27T10:59:23.000Z</time>
      </trkpt>
      <trkpt lat="42.52628707885742" lon="-7.344433784484863">
        <ele>442.0</ele>
        <time>2019-04-27T10:59:29.000Z</time>
      </trkpt>
      <trkpt lat="42.52629852294922" lon="-7.344437599182129">
        <ele>443.0</ele>
        <time>2019-04-27T10:59:35.000Z</time>
      </trkpt>
      <trkpt lat="42.526309967041016" lon="-7.344440460205078">
        <ele>443.0</ele>
        <time>2019-04-27T10:59:41.000Z</time>
      </trkpt>
      <trkpt lat="42.52632141113281" lon="-7.344443321228027">
        <ele>444.0</ele>
        <time>2019-04-27T10:59:48.000Z</time>
      </trkpt>
      <trkpt lat="42.526329040527344" lon="-7.344445705413818">
        <ele>444.0</ele>
        <time>2019-04-27T10:59:48.000Z</time>
      </trkpt>
      <trkpt lat="42.526336669921875" lon="-7.344448089599609">
        <ele>444.0</ele>
        <time>2019-04-27T10:59:48.000Z</time>
      </trkpt>
      <trkpt lat="42.52634048461914" lon="-7.3444504737854">
        <ele>444.0</ele>
        <time>2019-04-27T10:59:48.000Z</time>
      </trkpt>
      <trkpt lat="42.52634811401367" lon="-7.344452381134033">
        <ele>444.0</ele>
        <time>2019-04-27T10:59:49.000Z</time>
      </trkpt>
      <trkpt lat="42.5265007019043" lon="-7.3445143699646">
        <ele>445.0</ele>
        <time>2019-04-27T10:59:56.000Z</time>
      </trkpt>
      <trkpt lat="42.526512145996094" lon="-7.344517230987549">
        <ele>447.0</ele>
        <time>2019-04-27T11:00:18.000Z</time>
      </trkpt>
      <trkpt lat="42.52652359008789" lon="-7.344520092010498">
        <ele>447.0</ele>
        <time>2019-04-27T11:00:19.000Z</time>
      </trkpt>
      <trkpt lat="42.52668762207031" lon="-7.344566822052002">
        <ele>448.0</ele>
        <time>2019-04-27T11:00:26.000Z</time>
      </trkpt>
      <trkpt lat="42.526702880859375" lon="-7.344577789306641">
        <ele>450.0</ele>
        <time>2019-04-27T11:00:42.000Z</time>
      </trkpt>
      <trkpt lat="42.52671813964844" lon="-7.344586372375488">
        <ele>450.0</ele>
        <time>2019-04-27T11:00:43.000Z</time>
      </trkpt>
      <trkpt lat="42.52687454223633" lon="-7.344669342041016">
        <ele>451.0</ele>
        <time>2019-04-27T11:00:51.000Z</time>
      </trkpt>
      <trkpt lat="42.526947021484375" lon="-7.344669818878174">
        <ele>457.0</ele>
        <time>2019-04-27T11:01:34.000Z</time>
      </trkpt>
      <trkpt lat="42.52699661254883" lon="-7.344670295715332">
        <ele>457.0</ele>
        <time>2019-04-27T11:01:35.000Z</time>
      </trkpt>
      <trkpt lat="42.52733612060547" lon="-7.344717979431152">
        <ele>459.0</ele>
        <time>2019-04-27T11:01:51.000Z</time>
      </trkpt>
      <trkpt lat="42.527339935302734" lon="-7.344720840454102">
        <ele>459.0</ele>
        <time>2019-04-27T11:01:52.000Z</time>
      </trkpt>
      <trkpt lat="42.52736282348633" lon="-7.344733715057373">
        <ele>462.0</ele>
        <time>2019-04-27T11:02:12.000Z</time>
      </trkpt>
      <trkpt lat="42.527381896972656" lon="-7.344743728637695">
        <ele>462.0</ele>
        <time>2019-04-27T11:02:13.000Z</time>
      </trkpt>
      <trkpt lat="42.52742385864258" lon="-7.344764709472656">
        <ele>463.0</ele>
        <time>2019-04-27T11:02:17.000Z</time>
      </trkpt>
      <trkpt lat="42.5274543762207" lon="-7.344789981842041">
        <ele>464.0</ele>
        <time>2019-04-27T11:02:29.000Z</time>
      </trkpt>
      <trkpt lat="42.52748107910156" lon="-7.344808578491211">
        <ele>464.0</ele>
        <time>2019-04-27T11:02:30.000Z</time>
      </trkpt>
      <trkpt lat="42.52756118774414" lon="-7.344888687133789">
        <ele>464.0</ele>
        <time>2019-04-27T11:02:35.000Z</time>
      </trkpt>
      <trkpt lat="42.52765655517578" lon="-7.34507942199707">
        <ele>465.0</ele>
        <time>2019-04-27T11:02:40.000Z</time>
      </trkpt>
      <trkpt lat="42.527793884277344" lon="-7.345244884490967">
        <ele>466.0</ele>
        <time>2019-04-27T11:02:58.000Z</time>
      </trkpt>
      <trkpt lat="42.5279426574707" lon="-7.345339775085449">
        <ele>464.0</ele>
        <time>2019-04-27T11:03:16.000Z</time>
      </trkpt>
      <trkpt lat="42.52797317504883" lon="-7.345351696014404">
        <ele>464.0</ele>
        <time>2019-04-27T11:03:30.000Z</time>
      </trkpt>
      <trkpt lat="42.52799606323242" lon="-7.345360279083252">
        <ele>464.0</ele>
        <time>2019-04-27T11:03:31.000Z</time>
      </trkpt>
      <trkpt lat="42.52804946899414" lon="-7.345386505126953">
        <ele>463.0</ele>
        <time>2019-04-27T11:03:34.000Z</time>
      </trkpt>
      <trkpt lat="42.5280647277832" lon="-7.345397472381592">
        <ele>463.0</ele>
        <time>2019-04-27T11:03:43.000Z</time>
      </trkpt>
      <trkpt lat="42.528076171875" lon="-7.345407962799072">
        <ele>463.0</ele>
        <time>2019-04-27T11:03:44.000Z</time>
      </trkpt>
      <trkpt lat="42.528160095214844" lon="-7.345482349395752">
        <ele>462.0</ele>
        <time>2019-04-27T11:03:46.000Z</time>
      </trkpt>
      <trkpt lat="42.5281982421875" lon="-7.345575332641602">
        <ele>462.0</ele>
        <time>2019-04-27T11:03:49.000Z</time>
      </trkpt>
      <trkpt lat="42.528236389160156" lon="-7.345693588256836">
        <ele>462.0</ele>
        <time>2019-04-27T11:03:52.000Z</time>
      </trkpt>
      <trkpt lat="42.52821350097656" lon="-7.345778942108154">
        <ele>462.0</ele>
        <time>2019-04-27T11:04:00.000Z</time>
      </trkpt>
      <trkpt lat="42.528175354003906" lon="-7.345877170562744">
        <ele>462.0</ele>
        <time>2019-04-27T11:04:08.000Z</time>
      </trkpt>
      <trkpt lat="42.52812576293945" lon="-7.345984935760498">
        <ele>463.0</ele>
        <time>2019-04-27T11:04:16.000Z</time>
      </trkpt>
      <trkpt lat="42.52806854248047" lon="-7.346096992492676">
        <ele>463.0</ele>
        <time>2019-04-27T11:04:25.000Z</time>
      </trkpt>
      <trkpt lat="42.528038024902344" lon="-7.346160888671875">
        <ele>463.0</ele>
        <time>2019-04-27T11:04:28.000Z</time>
      </trkpt>
      <trkpt lat="42.528011322021484" lon="-7.34621000289917">
        <ele>463.0</ele>
        <time>2019-04-27T11:04:31.000Z</time>
      </trkpt>
      <trkpt lat="42.52798843383789" lon="-7.346248626708984">
        <ele>463.0</ele>
        <time>2019-04-27T11:04:34.000Z</time>
      </trkpt>
      <trkpt lat="42.5279655456543" lon="-7.346282005310059">
        <ele>463.0</ele>
        <time>2019-04-27T11:04:37.000Z</time>
      </trkpt>
      <trkpt lat="42.52793502807617" lon="-7.346327781677246">
        <ele>463.0</ele>
        <time>2019-04-27T11:04:40.000Z</time>
      </trkpt>
      <trkpt lat="42.52790069580078" lon="-7.346373558044434">
        <ele>463.0</ele>
        <time>2019-04-27T11:04:44.000Z</time>
      </trkpt>
      <trkpt lat="42.52786636352539" lon="-7.346419334411621">
        <ele>464.0</ele>
        <time>2019-04-27T11:04:47.000Z</time>
      </trkpt>
      <trkpt lat="42.52783203125" lon="-7.34646463394165">
        <ele>464.0</ele>
        <time>2019-04-27T11:04:51.000Z</time>
      </trkpt>
      <trkpt lat="42.527801513671875" lon="-7.346510410308838">
        <ele>464.0</ele>
        <time>2019-04-27T11:04:54.000Z</time>
      </trkpt>
      <trkpt lat="42.52777099609375" lon="-7.346555709838867">
        <ele>464.0</ele>
        <time>2019-04-27T11:04:57.000Z</time>
      </trkpt>
      <trkpt lat="42.527740478515625" lon="-7.346601486206055">
        <ele>465.0</ele>
        <time>2019-04-27T11:05:00.000Z</time>
      </trkpt>
      <trkpt lat="42.527713775634766" lon="-7.346646785736084">
        <ele>465.0</ele>
        <time>2019-04-27T11:05:04.000Z</time>
      </trkpt>
      <trkpt lat="42.52769088745117" lon="-7.346678256988525">
        <ele>465.0</ele>
        <time>2019-04-27T11:05:08.000Z</time>
      </trkpt>
      <trkpt lat="42.52767562866211" lon="-7.34670352935791">
        <ele>465.0</ele>
        <time>2019-04-27T11:05:13.000Z</time>
      </trkpt>
      <trkpt lat="42.52765655517578" lon="-7.346724987030029">
        <ele>465.0</ele>
        <time>2019-04-27T11:05:17.000Z</time>
      </trkpt>
      <trkpt lat="42.527645111083984" lon="-7.346744537353516">
        <ele>466.0</ele>
        <time>2019-04-27T11:05:22.000Z</time>
      </trkpt>
      <trkpt lat="42.52763748168945" lon="-7.346776008605957">
        <ele>466.0</ele>
        <time>2019-04-27T11:05:25.000Z</time>
      </trkpt>
      <trkpt lat="42.52763366699219" lon="-7.346810340881348">
        <ele>466.0</ele>
        <time>2019-04-27T11:05:29.000Z</time>
      </trkpt>
      <trkpt lat="42.52763366699219" lon="-7.346846580505371">
        <ele>467.0</ele>
        <time>2019-04-27T11:05:33.000Z</time>
      </trkpt>
      <trkpt lat="42.52763366699219" lon="-7.346883773803711">
        <ele>468.0</ele>
        <time>2019-04-27T11:05:37.000Z</time>
      </trkpt>
      <trkpt lat="42.52762985229492" lon="-7.3469038009643555">
        <ele>468.0</ele>
        <time>2019-04-27T11:05:37.000Z</time>
      </trkpt>
      <trkpt lat="42.52762985229492" lon="-7.346917152404785">
        <ele>468.0</ele>
        <time>2019-04-27T11:05:37.000Z</time>
      </trkpt>
      <trkpt lat="42.52762985229492" lon="-7.346926689147949">
        <ele>468.0</ele>
        <time>2019-04-27T11:05:37.000Z</time>
      </trkpt>
      <trkpt lat="42.52762985229492" lon="-7.346933841705322">
        <ele>468.0</ele>
        <time>2019-04-27T11:05:38.000Z</time>
      </trkpt>
      <trkpt lat="42.52763748168945" lon="-7.347017765045166">
        <ele>468.0</ele>
        <time>2019-04-27T11:05:43.000Z</time>
      </trkpt>
      <trkpt lat="42.527645111083984" lon="-7.347131252288818">
        <ele>468.0</ele>
        <time>2019-04-27T11:05:49.000Z</time>
      </trkpt>
      <trkpt lat="42.52766036987305" lon="-7.347264766693115">
        <ele>468.0</ele>
        <time>2019-04-27T11:05:55.000Z</time>
      </trkpt>
      <trkpt lat="42.527671813964844" lon="-7.347408294677734">
        <ele>469.0</ele>
        <time>2019-04-27T11:06:01.000Z</time>
      </trkpt>
      <trkpt lat="42.527671813964844" lon="-7.3475260734558105">
        <ele>470.0</ele>
        <time>2019-04-27T11:06:09.000Z</time>
      </trkpt>
      <trkpt lat="42.52766418457031" lon="-7.347643852233887">
        <ele>471.0</ele>
        <time>2019-04-27T11:06:17.000Z</time>
      </trkpt>
      <trkpt lat="42.527652740478516" lon="-7.347761154174805">
        <ele>473.0</ele>
        <time>2019-04-27T11:06:25.000Z</time>
      </trkpt>
      <trkpt lat="42.52764129638672" lon="-7.347878932952881">
        <ele>475.0</ele>
        <time>2019-04-27T11:06:33.000Z</time>
      </trkpt>
      <trkpt lat="42.527671813964844" lon="-7.347986221313477">
        <ele>476.0</ele>
        <time>2019-04-27T11:06:40.000Z</time>
      </trkpt>
      <trkpt lat="42.52771759033203" lon="-7.348089694976807">
        <ele>476.0</ele>
        <time>2019-04-27T11:06:46.000Z</time>
      </trkpt>
      <trkpt lat="42.52777099609375" lon="-7.348190784454346">
        <ele>477.0</ele>
        <time>2019-04-27T11:06:53.000Z</time>
      </trkpt>
      <trkpt lat="42.527835845947266" lon="-7.348289966583252">
        <ele>477.0</ele>
        <time>2019-04-27T11:06:59.000Z</time>
      </trkpt>
      <trkpt lat="42.52788162231445" lon="-7.348393440246582">
        <ele>477.0</ele>
        <time>2019-04-27T11:07:08.000Z</time>
      </trkpt>
      <trkpt lat="42.527923583984375" lon="-7.34849739074707">
        <ele>476.0</ele>
        <time>2019-04-27T11:07:16.000Z</time>
      </trkpt>
      <trkpt lat="42.52796936035156" lon="-7.348601341247559">
        <ele>475.0</ele>
        <time>2019-04-27T11:07:25.000Z</time>
      </trkpt>
      <trkpt lat="42.528011322021484" lon="-7.348705291748047">
        <ele>474.0</ele>
        <time>2019-04-27T11:07:33.000Z</time>
      </trkpt>
      <trkpt lat="42.528053283691406" lon="-7.348782062530518">
        <ele>474.0</ele>
        <time>2019-04-27T11:07:40.000Z</time>
      </trkpt>
      <trkpt lat="42.52809524536133" lon="-7.348846912384033">
        <ele>474.0</ele>
        <time>2019-04-27T11:07:47.000Z</time>
      </trkpt>
      <trkpt lat="42.52813720703125" lon="-7.348904609680176">
        <ele>474.0</ele>
        <time>2019-04-27T11:07:54.000Z</time>
      </trkpt>
      <trkpt lat="42.528175354003906" lon="-7.348958492279053">
        <ele>474.0</ele>
        <time>2019-04-27T11:08:01.000Z</time>
      </trkpt>
      <trkpt lat="42.528202056884766" lon="-7.348977565765381">
        <ele>474.0</ele>
        <time>2019-04-27T11:08:03.000Z</time>
      </trkpt>
      <trkpt lat="42.528221130371094" lon="-7.348978042602539">
        <ele>474.0</ele>
        <time>2019-04-27T11:08:05.000Z</time>
      </trkpt>
      <trkpt lat="42.52823257446289" lon="-7.348965644836426">
        <ele>475.0</ele>
        <time>2019-04-27T11:08:07.000Z</time>
      </trkpt>
      <trkpt lat="42.52824401855469" lon="-7.348947525024414">
        <ele>475.0</ele>
        <time>2019-04-27T11:08:08.000Z</time>
      </trkpt>
      <trkpt lat="42.52827072143555" lon="-7.348955154418945">
        <ele>476.0</ele>
        <time>2019-04-27T11:08:18.000Z</time>
      </trkpt>
      <trkpt lat="42.52829360961914" lon="-7.34896993637085">
        <ele>478.0</ele>
        <time>2019-04-27T11:08:28.000Z</time>
      </trkpt>
      <trkpt lat="42.52830505371094" lon="-7.348973751068115">
        <ele>478.0</ele>
        <time>2019-04-27T11:08:29.000Z</time>
      </trkpt>
      <trkpt lat="42.52831268310547" lon="-7.348977565765381">
        <ele>478.0</ele>
        <time>2019-04-27T11:08:29.000Z</time>
      </trkpt>
      <trkpt lat="42.5283203125" lon="-7.34898042678833">
        <ele>478.0</ele>
        <time>2019-04-27T11:08:29.000Z</time>
      </trkpt>
      <trkpt lat="42.528324127197266" lon="-7.348983287811279">
        <ele>478.0</ele>
        <time>2019-04-27T11:08:29.000Z</time>
      </trkpt>
      <trkpt lat="42.528377532958984" lon="-7.349001884460449">
        <ele>478.0</ele>
        <time>2019-04-27T11:08:34.000Z</time>
      </trkpt>
      <trkpt lat="42.52845001220703" lon="-7.349026203155518">
        <ele>478.0</ele>
        <time>2019-04-27T11:08:38.000Z</time>
      </trkpt>
      <trkpt lat="42.52853012084961" lon="-7.34905481338501">
        <ele>479.0</ele>
        <time>2019-04-27T11:08:43.000Z</time>
      </trkpt>
      <trkpt lat="42.528621673583984" lon="-7.349085330963135">
        <ele>480.0</ele>
        <time>2019-04-27T11:08:47.000Z</time>
      </trkpt>
      <trkpt lat="42.52865219116211" lon="-7.349093914031982">
        <ele>480.0</ele>
        <time>2019-04-27T11:08:51.000Z</time>
      </trkpt>
      <trkpt lat="42.52865982055664" lon="-7.349094867706299">
        <ele>480.0</ele>
        <time>2019-04-27T11:08:55.000Z</time>
      </trkpt>
      <trkpt lat="42.528656005859375" lon="-7.349091529846191">
        <ele>480.0</ele>
        <time>2019-04-27T11:08:59.000Z</time>
      </trkpt>
      <trkpt lat="42.528648376464844" lon="-7.349085330963135">
        <ele>480.0</ele>
        <time>2019-04-27T11:09:03.000Z</time>
      </trkpt>
      <trkpt lat="42.52865219116211" lon="-7.349085330963135">
        <ele>480.0</ele>
        <time>2019-04-27T11:09:04.000Z</time>
      </trkpt>
      <trkpt lat="42.52865982055664" lon="-7.349085330963135">
        <ele>480.0</ele>
        <time>2019-04-27T11:09:04.000Z</time>
      </trkpt>
      <trkpt lat="42.528663635253906" lon="-7.349085807800293">
        <ele>480.0</ele>
        <time>2019-04-27T11:09:04.000Z</time>
      </trkpt>
      <trkpt lat="42.52866744995117" lon="-7.349085807800293">
        <ele>480.0</ele>
        <time>2019-04-27T11:09:04.000Z</time>
      </trkpt>
      <trkpt lat="42.52872085571289" lon="-7.349078178405762">
        <ele>481.0</ele>
        <time>2019-04-27T11:09:09.000Z</time>
      </trkpt>
      <trkpt lat="42.52879333496094" lon="-7.349067211151123">
        <ele>481.0</ele>
        <time>2019-04-27T11:09:13.000Z</time>
      </trkpt>
      <trkpt lat="42.52887725830078" lon="-7.34905481338501">
        <ele>481.0</ele>
        <time>2019-04-27T11:09:17.000Z</time>
      </trkpt>
      <trkpt lat="42.52897262573242" lon="-7.349040985107422">
        <ele>481.0</ele>
        <time>2019-04-27T11:09:21.000Z</time>
      </trkpt>
      <trkpt lat="42.52898025512695" lon="-7.349038124084473">
        <ele>483.0</ele>
        <time>2019-04-27T11:09:34.000Z</time>
      </trkpt>
      <trkpt lat="42.528987884521484" lon="-7.349035263061523">
        <ele>483.0</ele>
        <time>2019-04-27T11:09:35.000Z</time>
      </trkpt>
      <trkpt lat="42.52903747558594" lon="-7.349018573760986">
        <ele>484.0</ele>
        <time>2019-04-27T11:09:37.000Z</time>
      </trkpt>
      <trkpt lat="42.52922058105469" lon="-7.348976135253906">
        <ele>484.0</ele>
        <time>2019-04-27T11:09:42.000Z</time>
      </trkpt>
      <trkpt lat="42.52939987182617" lon="-7.348950386047363">
        <ele>483.0</ele>
        <time>2019-04-27T11:09:59.000Z</time>
      </trkpt>
      <trkpt lat="42.52959442138672" lon="-7.3488922119140625">
        <ele>482.0</ele>
        <time>2019-04-27T11:10:18.000Z</time>
      </trkpt>
      <trkpt lat="42.529666900634766" lon="-7.348859786987305">
        <ele>482.0</ele>
        <time>2019-04-27T11:10:29.000Z</time>
      </trkpt>
      <trkpt lat="42.52973937988281" lon="-7.348810195922852">
        <ele>482.0</ele>
        <time>2019-04-27T11:10:44.000Z</time>
      </trkpt>
      <trkpt lat="42.52976989746094" lon="-7.348787307739258">
        <ele>482.0</ele>
        <time>2019-04-27T11:10:45.000Z</time>
      </trkpt>
      <trkpt lat="42.53009033203125" lon="-7.34858512878418">
        <ele>483.0</ele>
        <time>2019-04-27T11:11:12.000Z</time>
      </trkpt>
      <trkpt lat="42.53036117553711" lon="-7.348335266113281">
        <ele>485.0</ele>
        <time>2019-04-27T11:11:38.000Z</time>
      </trkpt>
      <trkpt lat="42.53068161010742" lon="-7.348110198974609">
        <ele>486.0</ele>
        <time>2019-04-27T11:12:06.000Z</time>
      </trkpt>
      <trkpt lat="42.530757904052734" lon="-7.348093032836914">
        <ele>487.0</ele>
        <time>2019-04-27T11:12:13.000Z</time>
      </trkpt>
      <trkpt lat="42.53079605102539" lon="-7.348120212554932">
        <ele>487.0</ele>
        <time>2019-04-27T11:12:20.000Z</time>
      </trkpt>
      <trkpt lat="42.53082275390625" lon="-7.348104000091553">
        <ele>488.0</ele>
        <time>2019-04-27T11:12:24.000Z</time>
      </trkpt>
      <trkpt lat="42.53084945678711" lon="-7.348079204559326">
        <ele>490.0</ele>
        <time>2019-04-27T11:12:27.000Z</time>
      </trkpt>
      <trkpt lat="42.5308723449707" lon="-7.348049163818359">
        <ele>491.0</ele>
        <time>2019-04-27T11:12:31.000Z</time>
      </trkpt>
      <trkpt lat="42.5308952331543" lon="-7.348016262054443">
        <ele>493.0</ele>
        <time>2019-04-27T11:12:34.000Z</time>
      </trkpt>
      <trkpt lat="42.530906677246094" lon="-7.348003387451172">
        <ele>493.0</ele>
        <time>2019-04-27T11:12:41.000Z</time>
      </trkpt>
      <trkpt lat="42.53091049194336" lon="-7.347996234893799">
        <ele>492.0</ele>
        <time>2019-04-27T11:12:48.000Z</time>
      </trkpt>
      <trkpt lat="42.53091049194336" lon="-7.347992897033691">
        <ele>491.0</ele>
        <time>2019-04-27T11:12:55.000Z</time>
      </trkpt>
      <trkpt lat="42.530906677246094" lon="-7.347991466522217">
        <ele>490.0</ele>
        <time>2019-04-27T11:13:02.000Z</time>
      </trkpt>
      <trkpt lat="42.53091049194336" lon="-7.347985744476318">
        <ele>489.0</ele>
        <time>2019-04-27T11:13:03.000Z</time>
      </trkpt>
      <trkpt lat="42.53091049194336" lon="-7.347980499267578">
        <ele>489.0</ele>
        <time>2019-04-27T11:13:03.000Z</time>
      </trkpt>
      <trkpt lat="42.530914306640625" lon="-7.347975254058838">
        <ele>490.0</ele>
        <time>2019-04-27T11:13:03.000Z</time>
      </trkpt>
      <trkpt lat="42.53091812133789" lon="-7.347970485687256">
        <ele>490.0</ele>
        <time>2019-04-27T11:13:03.000Z</time>
      </trkpt>
      <trkpt lat="42.53094482421875" lon="-7.347901821136475">
        <ele>489.0</ele>
        <time>2019-04-27T11:13:08.000Z</time>
      </trkpt>
      <trkpt lat="42.53097915649414" lon="-7.347806930541992">
        <ele>489.0</ele>
        <time>2019-04-27T11:13:12.000Z</time>
      </trkpt>
      <trkpt lat="42.53102111816406" lon="-7.347693920135498">
        <ele>488.0</ele>
        <time>2019-04-27T11:13:17.000Z</time>
      </trkpt>
      <trkpt lat="42.53106689453125" lon="-7.347572326660156">
        <ele>487.0</ele>
        <time>2019-04-27T11:13:21.000Z</time>
      </trkpt>
      <trkpt lat="42.531105041503906" lon="-7.347479820251465">
        <ele>487.0</ele>
        <time>2019-04-27T11:13:28.000Z</time>
      </trkpt>
      <trkpt lat="42.53114318847656" lon="-7.3473896980285645">
        <ele>486.0</ele>
        <time>2019-04-27T11:13:35.000Z</time>
      </trkpt>
      <trkpt lat="42.53117752075195" lon="-7.347301483154297">
        <ele>486.0</ele>
        <time>2019-04-27T11:13:42.000Z</time>
      </trkpt>
      <trkpt lat="42.53121566772461" lon="-7.347214221954346">
        <ele>486.0</ele>
        <time>2019-04-27T11:13:49.000Z</time>
      </trkpt>
      <trkpt lat="42.53123474121094" lon="-7.347177505493164">
        <ele>485.0</ele>
        <time>2019-04-27T11:13:55.000Z</time>
      </trkpt>
      <trkpt lat="42.531246185302734" lon="-7.34716272354126">
        <ele>485.0</ele>
        <time>2019-04-27T11:14:00.000Z</time>
      </trkpt>
      <trkpt lat="42.53125" lon="-7.347162246704102">
        <ele>484.0</ele>
        <time>2019-04-27T11:14:06.000Z</time>
      </trkpt>
      <trkpt lat="42.531253814697266" lon="-7.347169399261475">
        <ele>484.0</ele>
        <time>2019-04-27T11:14:11.000Z</time>
      </trkpt>
      <trkpt lat="42.53127670288086" lon="-7.347142696380615">
        <ele>484.0</ele>
        <time>2019-04-27T11:14:12.000Z</time>
      </trkpt>
      <trkpt lat="42.531551361083984" lon="-7.346846580505371">
        <ele>479.0</ele>
        <time>2019-04-27T11:14:39.000Z</time>
      </trkpt>
      <trkpt lat="42.531612396240234" lon="-7.34670352935791">
        <ele>474.0</ele>
        <time>2019-04-27T11:14:55.000Z</time>
      </trkpt>
      <trkpt lat="42.531639099121094" lon="-7.3465895652771">
        <ele>471.0</ele>
        <time>2019-04-27T11:15:13.000Z</time>
      </trkpt>
      <trkpt lat="42.531646728515625" lon="-7.346543312072754">
        <ele>471.0</ele>
        <time>2019-04-27T11:15:14.000Z</time>
      </trkpt>
      <trkpt lat="42.53175735473633" lon="-7.3462114334106445">
        <ele>471.0</ele>
        <time>2019-04-27T11:15:33.000Z</time>
      </trkpt>
      <trkpt lat="42.531803131103516" lon="-7.346161842346191">
        <ele>472.0</ele>
        <time>2019-04-27T11:15:55.000Z</time>
      </trkpt>
      <trkpt lat="42.53182601928711" lon="-7.346134185791016">
        <ele>472.0</ele>
        <time>2019-04-27T11:15:56.000Z</time>
      </trkpt>
      <trkpt lat="42.53184127807617" lon="-7.346118927001953">
        <ele>472.0</ele>
        <time>2019-04-27T11:15:57.000Z</time>
      </trkpt>
      <trkpt lat="42.531883239746094" lon="-7.346105098724365">
        <ele>473.0</ele>
        <time>2019-04-27T11:16:21.000Z</time>
      </trkpt>
      <trkpt lat="42.53190994262695" lon="-7.346095561981201">
        <ele>473.0</ele>
        <time>2019-04-27T11:16:22.000Z</time>
      </trkpt>
      <trkpt lat="42.53203582763672" lon="-7.346078872680664">
        <ele>473.0</ele>
        <time>2019-04-27T11:16:24.000Z</time>
      </trkpt>
      <trkpt lat="42.53206253051758" lon="-7.34608793258667">
        <ele>473.0</ele>
        <time>2019-04-27T11:16:25.000Z</time>
      </trkpt>
      <trkpt lat="42.532073974609375" lon="-7.346105575561523">
        <ele>473.0</ele>
        <time>2019-04-27T11:16:26.000Z</time>
      </trkpt>
      <trkpt lat="42.532081604003906" lon="-7.346174716949463">
        <ele>475.0</ele>
        <time>2019-04-27T11:16:33.000Z</time>
      </trkpt>
      <trkpt lat="42.53208923339844" lon="-7.346269607543945">
        <ele>476.0</ele>
        <time>2019-04-27T11:16:39.000Z</time>
      </trkpt>
      <trkpt lat="42.53209686279297" lon="-7.346382141113281">
        <ele>478.0</ele>
        <time>2019-04-27T11:16:45.000Z</time>
      </trkpt>
      <trkpt lat="42.5321044921875" lon="-7.346503257751465">
        <ele>481.0</ele>
        <time>2019-04-27T11:16:51.000Z</time>
      </trkpt>
      <trkpt lat="42.53209686279297" lon="-7.346584796905518">
        <ele>483.0</ele>
        <time>2019-04-27T11:16:57.000Z</time>
      </trkpt>
      <trkpt lat="42.53208923339844" lon="-7.346658229827881">
        <ele>485.0</ele>
        <time>2019-04-27T11:17:02.000Z</time>
      </trkpt>
      <trkpt lat="42.53207778930664" lon="-7.346726894378662">
        <ele>487.0</ele>
        <time>2019-04-27T11:17:07.000Z</time>
      </trkpt>
      <trkpt lat="42.53206253051758" lon="-7.346793174743652">
        <ele>490.0</ele>
        <time>2019-04-27T11:17:12.000Z</time>
      </trkpt>
      <trkpt lat="42.532073974609375" lon="-7.346848964691162">
        <ele>491.0</ele>
        <time>2019-04-27T11:17:16.000Z</time>
      </trkpt>
      <trkpt lat="42.5320930480957" lon="-7.346897602081299">
        <ele>492.0</ele>
        <time>2019-04-27T11:17:20.000Z</time>
      </trkpt>
      <trkpt lat="42.5321159362793" lon="-7.3469414710998535">
        <ele>493.0</ele>
        <time>2019-04-27T11:17:24.000Z</time>
      </trkpt>
      <trkpt lat="42.532142639160156" lon="-7.346982955932617">
        <ele>494.0</ele>
        <time>2019-04-27T11:17:27.000Z</time>
      </trkpt>
      <trkpt lat="42.53216552734375" lon="-7.347075939178467">
        <ele>496.0</ele>
        <time>2019-04-27T11:17:36.000Z</time>
      </trkpt>
      <trkpt lat="42.532188415527344" lon="-7.3471879959106445">
        <ele>498.0</ele>
        <time>2019-04-27T11:17:45.000Z</time>
      </trkpt>
      <trkpt lat="42.53220748901367" lon="-7.347312927246094">
        <ele>501.0</ele>
        <time>2019-04-27T11:17:54.000Z</time>
      </trkpt>
      <trkpt lat="42.532230377197266" lon="-7.347444534301758">
        <ele>503.0</ele>
        <time>2019-04-27T11:18:03.000Z</time>
      </trkpt>
      <trkpt lat="42.53225326538086" lon="-7.347550392150879">
        <ele>505.0</ele>
        <time>2019-04-27T11:18:11.000Z</time>
      </trkpt>
      <trkpt lat="42.53227233886719" lon="-7.347652435302734">
        <ele>507.0</ele>
        <time>2019-04-27T11:18:19.000Z</time>
      </trkpt>
      <trkpt lat="42.53228759765625" lon="-7.347751617431641">
        <ele>509.0</ele>
        <time>2019-04-27T11:18:27.000Z</time>
      </trkpt>
      <trkpt lat="42.53230667114258" lon="-7.347849369049072">
        <ele>511.0</ele>
        <time>2019-04-27T11:18:35.000Z</time>
      </trkpt>
      <trkpt lat="42.53232955932617" lon="-7.347956657409668">
        <ele>512.0</ele>
        <time>2019-04-27T11:18:44.000Z</time>
      </trkpt>
      <trkpt lat="42.532352447509766" lon="-7.348066329956055">
        <ele>513.0</ele>
        <time>2019-04-27T11:18:52.000Z</time>
      </trkpt>
      <trkpt lat="42.53237533569336" lon="-7.348177909851074">
        <ele>513.0</ele>
        <time>2019-04-27T11:19:01.000Z</time>
      </trkpt>
      <trkpt lat="42.53239822387695" lon="-7.34829044342041">
        <ele>514.0</ele>
        <time>2019-04-27T11:19:09.000Z</time>
      </trkpt>
      <trkpt lat="42.53240203857422" lon="-7.34840726852417">
        <ele>514.0</ele>
        <time>2019-04-27T11:19:19.000Z</time>
      </trkpt>
      <trkpt lat="42.53239822387695" lon="-7.348527431488037">
        <ele>514.0</ele>
        <time>2019-04-27T11:19:28.000Z</time>
      </trkpt>
      <trkpt lat="42.53239059448242" lon="-7.348649501800537">
        <ele>514.0</ele>
        <time>2019-04-27T11:19:38.000Z</time>
      </trkpt>
      <trkpt lat="42.532379150390625" lon="-7.348773002624512">
        <ele>514.0</ele>
        <time>2019-04-27T11:19:47.000Z</time>
      </trkpt>
      <trkpt lat="42.53237533569336" lon="-7.348816871643066">
        <ele>514.0</ele>
        <time>2019-04-27T11:19:48.000Z</time>
      </trkpt>
      <trkpt lat="42.532371520996094" lon="-7.3488287925720215">
        <ele>514.0</ele>
        <time>2019-04-27T11:19:49.000Z</time>
      </trkpt>
      <trkpt lat="42.532371520996094" lon="-7.348819732666016">
        <ele>515.0</ele>
        <time>2019-04-27T11:19:50.000Z</time>
      </trkpt>
      <trkpt lat="42.53236770629883" lon="-7.348799705505371">
        <ele>515.0</ele>
        <time>2019-04-27T11:19:51.000Z</time>
      </trkpt>
      <trkpt lat="42.532371520996094" lon="-7.34881067276001">
        <ele>515.0</ele>
        <time>2019-04-27T11:19:57.000Z</time>
      </trkpt>
      <trkpt lat="42.53237533569336" lon="-7.3488240242004395">
        <ele>514.0</ele>
        <time>2019-04-27T11:20:02.000Z</time>
      </trkpt>
      <trkpt lat="42.532379150390625" lon="-7.3488383293151855">
        <ele>514.0</ele>
        <time>2019-04-27T11:20:07.000Z</time>
      </trkpt>
      <trkpt lat="42.532386779785156" lon="-7.348853588104248">
        <ele>514.0</ele>
        <time>2019-04-27T11:20:12.000Z</time>
      </trkpt>
      <trkpt lat="42.53239059448242" lon="-7.3488640785217285">
        <ele>514.0</ele>
        <time>2019-04-27T11:20:13.000Z</time>
      </trkpt>
      <trkpt lat="42.53239440917969" lon="-7.348872661590576">
        <ele>514.0</ele>
        <time>2019-04-27T11:20:13.000Z</time>
      </trkpt>
      <trkpt lat="42.53239822387695" lon="-7.348880767822266">
        <ele>514.0</ele>
        <time>2019-04-27T11:20:13.000Z</time>
      </trkpt>
      <trkpt lat="42.53239822387695" lon="-7.348887920379639">
        <ele>514.0</ele>
        <time>2019-04-27T11:20:13.000Z</time>
      </trkpt>
      <trkpt lat="42.53240966796875" lon="-7.348923206329346">
        <ele>514.0</ele>
        <time>2019-04-27T11:20:16.000Z</time>
      </trkpt>
      <trkpt lat="42.53242111206055" lon="-7.348969459533691">
        <ele>514.0</ele>
        <time>2019-04-27T11:20:18.000Z</time>
      </trkpt>
      <trkpt lat="42.53243637084961" lon="-7.349023342132568">
        <ele>514.0</ele>
        <time>2019-04-27T11:20:20.000Z</time>
      </trkpt>
      <trkpt lat="42.532447814941406" lon="-7.349080562591553">
        <ele>513.0</ele>
        <time>2019-04-27T11:20:22.000Z</time>
      </trkpt>
      <trkpt lat="42.53245544433594" lon="-7.349101543426514">
        <ele>513.0</ele>
        <time>2019-04-27T11:20:25.000Z</time>
      </trkpt>
      <trkpt lat="42.53245544433594" lon="-7.3491106033325195">
        <ele>512.0</ele>
        <time>2019-04-27T11:20:28.000Z</time>
      </trkpt>
      <trkpt lat="42.5324592590332" lon="-7.349112033843994">
        <ele>511.0</ele>
        <time>2019-04-27T11:20:31.000Z</time>
      </trkpt>
      <trkpt lat="42.5324592590332" lon="-7.349110126495361">
        <ele>510.0</ele>
        <time>2019-04-27T11:20:34.000Z</time>
      </trkpt>
      <trkpt lat="42.5324592590332" lon="-7.349116325378418">
        <ele>510.0</ele>
        <time>2019-04-27T11:20:35.000Z</time>
      </trkpt>
      <trkpt lat="42.53246307373047" lon="-7.349122524261475">
        <ele>510.0</ele>
        <time>2019-04-27T11:20:35.000Z</time>
      </trkpt>
      <trkpt lat="42.53246307373047" lon="-7.349128246307373">
        <ele>510.0</ele>
        <time>2019-04-27T11:20:35.000Z</time>
      </trkpt>
      <trkpt lat="42.53246307373047" lon="-7.349133491516113">
        <ele>510.0</ele>
        <time>2019-04-27T11:20:35.000Z</time>
      </trkpt>
      <trkpt lat="42.532474517822266" lon="-7.349174976348877">
        <ele>510.0</ele>
        <time>2019-04-27T11:20:37.000Z</time>
      </trkpt>
      <trkpt lat="42.53248977661133" lon="-7.349231719970703">
        <ele>510.0</ele>
        <time>2019-04-27T11:20:38.000Z</time>
      </trkpt>
      <trkpt lat="42.53250503540039" lon="-7.349298000335693">
        <ele>509.0</ele>
        <time>2019-04-27T11:20:40.000Z</time>
      </trkpt>
      <trkpt lat="42.53252029418945" lon="-7.349369049072266">
        <ele>509.0</ele>
        <time>2019-04-27T11:20:41.000Z</time>
      </trkpt>
      <trkpt lat="42.53250503540039" lon="-7.349483013153076">
        <ele>507.0</ele>
        <time>2019-04-27T11:20:48.000Z</time>
      </trkpt>
      <trkpt lat="42.532470703125" lon="-7.349594593048096">
        <ele>505.0</ele>
        <time>2019-04-27T11:20:54.000Z</time>
      </trkpt>
      <trkpt lat="42.532466888427734" lon="-7.349644660949707">
        <ele>505.0</ele>
        <time>2019-04-27T11:20:57.000Z</time>
      </trkpt>
      <trkpt lat="42.532470703125" lon="-7.349692344665527">
        <ele>504.0</ele>
        <time>2019-04-27T11:20:59.000Z</time>
      </trkpt>
      <trkpt lat="42.532474517822266" lon="-7.349738121032715">
        <ele>503.0</ele>
        <time>2019-04-27T11:21:02.000Z</time>
      </trkpt>
      <trkpt lat="42.5324821472168" lon="-7.349782943725586">
        <ele>503.0</ele>
        <time>2019-04-27T11:21:04.000Z</time>
      </trkpt>
      <trkpt lat="42.5324592590332" lon="-7.349842071533203">
        <ele>502.0</ele>
        <time>2019-04-27T11:21:10.000Z</time>
      </trkpt>
      <trkpt lat="42.53242492675781" lon="-7.349905967712402">
        <ele>501.0</ele>
        <time>2019-04-27T11:21:16.000Z</time>
      </trkpt>
      <trkpt lat="42.532386779785156" lon="-7.349973678588867">
        <ele>500.0</ele>
        <time>2019-04-27T11:21:22.000Z</time>
      </trkpt>
      <trkpt lat="42.532344818115234" lon="-7.350042819976807">
        <ele>499.0</ele>
        <time>2019-04-27T11:21:28.000Z</time>
      </trkpt>
      <trkpt lat="42.53230285644531" lon="-7.350255489349365">
        <ele>498.0</ele>
        <time>2019-04-27T11:21:44.000Z</time>
      </trkpt>
      <trkpt lat="42.53227615356445" lon="-7.350505828857422">
        <ele>497.0</ele>
        <time>2019-04-27T11:22:00.000Z</time>
      </trkpt>
      <trkpt lat="42.53225326538086" lon="-7.350619316101074">
        <ele>496.0</ele>
        <time>2019-04-27T11:22:10.000Z</time>
      </trkpt>
      <trkpt lat="42.532230377197266" lon="-7.35073184967041">
        <ele>495.0</ele>
        <time>2019-04-27T11:22:20.000Z</time>
      </trkpt>
      <trkpt lat="42.53219985961914" lon="-7.350843906402588">
        <ele>494.0</ele>
        <time>2019-04-27T11:22:30.000Z</time>
      </trkpt>
      <trkpt lat="42.53217315673828" lon="-7.350955486297607">
        <ele>492.0</ele>
        <time>2019-04-27T11:22:39.000Z</time>
      </trkpt>
      <trkpt lat="42.532196044921875" lon="-7.351189136505127">
        <ele>492.0</ele>
        <time>2019-04-27T11:22:54.000Z</time>
      </trkpt>
      <trkpt lat="42.532257080078125" lon="-7.35142707824707">
        <ele>494.0</ele>
        <time>2019-04-27T11:23:09.000Z</time>
      </trkpt>
      <trkpt lat="42.532318115234375" lon="-7.351500988006592">
        <ele>495.0</ele>
        <time>2019-04-27T11:23:18.000Z</time>
      </trkpt>
      <trkpt lat="42.53239822387695" lon="-7.351556301116943">
        <ele>496.0</ele>
        <time>2019-04-27T11:23:27.000Z</time>
      </trkpt>
      <trkpt lat="42.53248596191406" lon="-7.35159969329834">
        <ele>498.0</ele>
        <time>2019-04-27T11:23:36.000Z</time>
      </trkpt>
      <trkpt lat="42.53258514404297" lon="-7.3516364097595215">
        <ele>500.0</ele>
        <time>2019-04-27T11:23:45.000Z</time>
      </trkpt>
      <trkpt lat="42.53263473510742" lon="-7.351657390594482">
        <ele>501.0</ele>
        <time>2019-04-27T11:23:49.000Z</time>
      </trkpt>
      <trkpt lat="42.53267288208008" lon="-7.351665019989014">
        <ele>502.0</ele>
        <time>2019-04-27T11:23:53.000Z</time>
      </trkpt>
      <trkpt lat="42.5327033996582" lon="-7.351663589477539">
        <ele>504.0</ele>
        <time>2019-04-27T11:23:57.000Z</time>
      </trkpt>
      <trkpt lat="42.53273010253906" lon="-7.351658344268799">
        <ele>505.0</ele>
        <time>2019-04-27T11:24:01.000Z</time>
      </trkpt>
      <trkpt lat="42.53276824951172" lon="-7.351615905761719">
        <ele>506.0</ele>
        <time>2019-04-27T11:24:08.000Z</time>
      </trkpt>
      <trkpt lat="42.532806396484375" lon="-7.351552963256836">
        <ele>506.0</ele>
        <time>2019-04-27T11:24:16.000Z</time>
      </trkpt>
      <trkpt lat="42.5328483581543" lon="-7.351477146148682">
        <ele>507.0</ele>
        <time>2019-04-27T11:24:23.000Z</time>
      </trkpt>
      <trkpt lat="42.53289031982422" lon="-7.351394176483154">
        <ele>507.0</ele>
        <time>2019-04-27T11:24:30.000Z</time>
      </trkpt>
      <trkpt lat="42.53290557861328" lon="-7.351355075836182">
        <ele>507.0</ele>
        <time>2019-04-27T11:24:34.000Z</time>
      </trkpt>
      <trkpt lat="42.53291320800781" lon="-7.351326942443848">
        <ele>507.0</ele>
        <time>2019-04-27T11:24:39.000Z</time>
      </trkpt>
      <trkpt lat="42.53291320800781" lon="-7.351306438446045">
        <ele>506.0</ele>
        <time>2019-04-27T11:24:43.000Z</time>
      </trkpt>
      <trkpt lat="42.53290939331055" lon="-7.35128927230835">
        <ele>506.0</ele>
        <time>2019-04-27T11:24:47.000Z</time>
      </trkpt>
      <trkpt lat="42.532920837402344" lon="-7.351266384124756">
        <ele>506.0</ele>
        <time>2019-04-27T11:25:10.000Z</time>
      </trkpt>
      <trkpt lat="42.532936096191406" lon="-7.35125732421875">
        <ele>508.0</ele>
        <time>2019-04-27T11:25:32.000Z</time>
      </trkpt>
      <trkpt lat="42.53293991088867" lon="-7.351251125335693">
        <ele>508.0</ele>
        <time>2019-04-27T11:25:32.000Z</time>
      </trkpt>
      <trkpt lat="42.5329475402832" lon="-7.351244926452637">
        <ele>508.0</ele>
        <time>2019-04-27T11:25:33.000Z</time>
      </trkpt>
      <trkpt lat="42.53295135498047" lon="-7.3512396812438965">
        <ele>508.0</ele>
        <time>2019-04-27T11:25:33.000Z</time>
      </trkpt>
      <trkpt lat="42.532955169677734" lon="-7.351234436035156">
        <ele>508.0</ele>
        <time>2019-04-27T11:25:33.000Z</time>
      </trkpt>
      <trkpt lat="42.53299331665039" lon="-7.351180553436279">
        <ele>508.0</ele>
        <time>2019-04-27T11:25:37.000Z</time>
      </trkpt>
      <trkpt lat="42.533050537109375" lon="-7.351106643676758">
        <ele>508.0</ele>
        <time>2019-04-27T11:25:41.000Z</time>
      </trkpt>
      <trkpt lat="42.53311538696289" lon="-7.351019382476807">
        <ele>508.0</ele>
        <time>2019-04-27T11:25:44.000Z</time>
      </trkpt>
      <trkpt lat="42.53318405151367" lon="-7.350924968719482">
        <ele>508.0</ele>
        <time>2019-04-27T11:25:48.000Z</time>
      </trkpt>
      <trkpt lat="42.53324508666992" lon="-7.350851535797119">
        <ele>509.0</ele>
        <time>2019-04-27T11:25:56.000Z</time>
      </trkpt>
      <trkpt lat="42.53330993652344" lon="-7.350779056549072">
        <ele>511.0</ele>
        <time>2019-04-27T11:26:04.000Z</time>
      </trkpt>
      <trkpt lat="42.53337097167969" lon="-7.3507080078125">
        <ele>513.0</ele>
        <time>2019-04-27T11:26:11.000Z</time>
      </trkpt>
      <trkpt lat="42.5334358215332" lon="-7.350637435913086">
        <ele>515.0</ele>
        <time>2019-04-27T11:26:19.000Z</time>
      </trkpt>
      <trkpt lat="42.53350067138672" lon="-7.350560188293457">
        <ele>517.0</ele>
        <time>2019-04-27T11:26:27.000Z</time>
      </trkpt>
      <trkpt lat="42.533565521240234" lon="-7.350480556488037">
        <ele>519.0</ele>
        <time>2019-04-27T11:26:35.000Z</time>
      </trkpt>
      <trkpt lat="42.53363037109375" lon="-7.350399017333984">
        <ele>522.0</ele>
        <time>2019-04-27T11:26:42.000Z</time>
      </trkpt>
      <trkpt lat="42.533695220947266" lon="-7.350317001342773">
        <ele>524.0</ele>
        <time>2019-04-27T11:26:50.000Z</time>
      </trkpt>
      <trkpt lat="42.53376007080078" lon="-7.350249290466309">
        <ele>526.0</ele>
        <time>2019-04-27T11:26:56.000Z</time>
      </trkpt>
      <trkpt lat="42.53382873535156" lon="-7.350186347961426">
        <ele>527.0</ele>
        <time>2019-04-27T11:27:03.000Z</time>
      </trkpt>
      <trkpt lat="42.533897399902344" lon="-7.35012674331665">
        <ele>527.0</ele>
        <time>2019-04-27T11:27:09.000Z</time>
      </trkpt>
      <trkpt lat="42.53396987915039" lon="-7.35006856918335">
        <ele>528.0</ele>
        <time>2019-04-27T11:27:15.000Z</time>
      </trkpt>
      <trkpt lat="42.53419494628906" lon="-7.3498358726501465">
        <ele>533.0</ele>
        <time>2019-04-27T11:27:46.000Z</time>
      </trkpt>
      <trkpt lat="42.53422164916992" lon="-7.349806308746338">
        <ele>535.0</ele>
        <time>2019-04-27T11:28:00.000Z</time>
      </trkpt>
      <trkpt lat="42.53424072265625" lon="-7.349785804748535">
        <ele>535.0</ele>
        <time>2019-04-27T11:28:01.000Z</time>
      </trkpt>
      <trkpt lat="42.534576416015625" lon="-7.349438667297363">
        <ele>539.0</ele>
        <time>2019-04-27T11:28:31.000Z</time>
      </trkpt>
      <trkpt lat="42.53458786010742" lon="-7.349427223205566">
        <ele>539.0</ele>
        <time>2019-04-27T11:28:33.000Z</time>
      </trkpt>
      <trkpt lat="42.53462600708008" lon="-7.349359035491943">
        <ele>541.0</ele>
        <time>2019-04-27T11:28:56.000Z</time>
      </trkpt>
      <trkpt lat="42.53464889526367" lon="-7.3493218421936035">
        <ele>541.0</ele>
        <time>2019-04-27T11:28:57.000Z</time>
      </trkpt>
      <trkpt lat="42.53487777709961" lon="-7.348963260650635">
        <ele>546.0</ele>
        <time>2019-04-27T11:29:27.000Z</time>
      </trkpt>
      <trkpt lat="42.535030364990234" lon="-7.348688125610352">
        <ele>552.0</ele>
        <time>2019-04-27T11:29:55.000Z</time>
      </trkpt>
      <trkpt lat="42.5350456237793" lon="-7.348607063293457">
        <ele>552.0</ele>
        <time>2019-04-27T11:30:13.000Z</time>
      </trkpt>
      <trkpt lat="42.535057067871094" lon="-7.348562240600586">
        <ele>552.0</ele>
        <time>2019-04-27T11:30:14.000Z</time>
      </trkpt>
      <trkpt lat="42.53514862060547" lon="-7.348326683044434">
        <ele>553.0</ele>
        <time>2019-04-27T11:30:25.000Z</time>
      </trkpt>
      <trkpt lat="42.53517150878906" lon="-7.348288059234619">
        <ele>553.0</ele>
        <time>2019-04-27T11:30:47.000Z</time>
      </trkpt>
      <trkpt lat="42.535186767578125" lon="-7.348260402679443">
        <ele>553.0</ele>
        <time>2019-04-27T11:30:48.000Z</time>
      </trkpt>
      <trkpt lat="42.535430908203125" lon="-7.347912311553955">
        <ele>553.0</ele>
        <time>2019-04-27T11:31:09.000Z</time>
      </trkpt>
      <trkpt lat="42.53553771972656" lon="-7.347643852233887">
        <ele>555.0</ele>
        <time>2019-04-27T11:31:33.000Z</time>
      </trkpt>
      <trkpt lat="42.53556823730469" lon="-7.3476080894470215">
        <ele>555.0</ele>
        <time>2019-04-27T11:31:37.000Z</time>
      </trkpt>
      <trkpt lat="42.53560256958008" lon="-7.347585201263428">
        <ele>555.0</ele>
        <time>2019-04-27T11:31:40.000Z</time>
      </trkpt>
      <trkpt lat="42.53563690185547" lon="-7.34757137298584">
        <ele>555.0</ele>
        <time>2019-04-27T11:31:44.000Z</time>
      </trkpt>
      <trkpt lat="42.53567123413086" lon="-7.347561836242676">
        <ele>554.0</ele>
        <time>2019-04-27T11:31:47.000Z</time>
      </trkpt>
      <trkpt lat="42.53569030761719" lon="-7.347548484802246">
        <ele>554.0</ele>
        <time>2019-04-27T11:31:49.000Z</time>
      </trkpt>
      <trkpt lat="42.535701751708984" lon="-7.347537517547607">
        <ele>554.0</ele>
        <time>2019-04-27T11:31:51.000Z</time>
      </trkpt>
      <trkpt lat="42.53570556640625" lon="-7.347528457641602">
        <ele>553.0</ele>
        <time>2019-04-27T11:31:52.000Z</time>
      </trkpt>
      <trkpt lat="42.53571319580078" lon="-7.347520351409912">
        <ele>553.0</ele>
        <time>2019-04-27T11:31:54.000Z</time>
      </trkpt>
      <trkpt lat="42.53571701049805" lon="-7.347513198852539">
        <ele>553.0</ele>
        <time>2019-04-27T11:31:58.000Z</time>
      </trkpt>
      <trkpt lat="42.53572463989258" lon="-7.347506523132324">
        <ele>553.0</ele>
        <time>2019-04-27T11:32:02.000Z</time>
      </trkpt>
      <trkpt lat="42.535728454589844" lon="-7.347501277923584">
        <ele>553.0</ele>
        <time>2019-04-27T11:32:06.000Z</time>
      </trkpt>
      <trkpt lat="42.53573226928711" lon="-7.347496032714844">
        <ele>554.0</ele>
        <time>2019-04-27T11:32:10.000Z</time>
      </trkpt>
      <trkpt lat="42.535736083984375" lon="-7.3474907875061035">
        <ele>554.0</ele>
        <time>2019-04-27T11:32:10.000Z</time>
      </trkpt>
      <trkpt lat="42.53573989868164" lon="-7.3474860191345215">
        <ele>554.0</ele>
        <time>2019-04-27T11:32:11.000Z</time>
      </trkpt>
      <trkpt lat="42.535743713378906" lon="-7.3474812507629395">
        <ele>554.0</ele>
        <time>2019-04-27T11:32:11.000Z</time>
      </trkpt>
      <trkpt lat="42.53574752807617" lon="-7.347476482391357">
        <ele>554.0</ele>
        <time>2019-04-27T11:32:11.000Z</time>
      </trkpt>
      <trkpt lat="42.5357551574707" lon="-7.3474650382995605">
        <ele>554.0</ele>
        <time>2019-04-27T11:32:12.000Z</time>
      </trkpt>
      <trkpt lat="42.535762786865234" lon="-7.3474507331848145">
        <ele>554.0</ele>
        <time>2019-04-27T11:32:13.000Z</time>
      </trkpt>
      <trkpt lat="42.53577423095703" lon="-7.347434043884277">
        <ele>554.0</ele>
        <time>2019-04-27T11:32:13.000Z</time>
      </trkpt>
      <trkpt lat="42.53578567504883" lon="-7.347416877746582">
        <ele>554.0</ele>
        <time>2019-04-27T11:32:14.000Z</time>
      </trkpt>
      <trkpt lat="42.53580856323242" lon="-7.347379207611084">
        <ele>554.0</ele>
        <time>2019-04-27T11:32:16.000Z</time>
      </trkpt>
      <trkpt lat="42.535831451416016" lon="-7.34733247756958">
        <ele>554.0</ele>
        <time>2019-04-27T11:32:17.000Z</time>
      </trkpt>
      <trkpt lat="42.53586196899414" lon="-7.347278594970703">
        <ele>554.0</ele>
        <time>2019-04-27T11:32:19.000Z</time>
      </trkpt>
      <trkpt lat="42.535888671875" lon="-7.347222328186035">
        <ele>554.0</ele>
        <time>2019-04-27T11:32:20.000Z</time>
      </trkpt>
      <trkpt lat="42.53615188598633" lon="-7.346883773803711">
        <ele>554.0</ele>
        <time>2019-04-27T11:32:53.000Z</time>
      </trkpt>
      <trkpt lat="42.53640365600586" lon="-7.3465423583984375">
        <ele>554.0</ele>
        <time>2019-04-27T11:33:26.000Z</time>
      </trkpt>
      <trkpt lat="42.536617279052734" lon="-7.346171855926514">
        <ele>557.0</ele>
        <time>2019-04-27T11:34:03.000Z</time>
      </trkpt>
      <trkpt lat="42.53666305541992" lon="-7.3461151123046875">
        <ele>556.0</ele>
        <time>2019-04-27T11:34:19.000Z</time>
      </trkpt>
      <trkpt lat="42.53668975830078" lon="-7.346083164215088">
        <ele>556.0</ele>
        <time>2019-04-27T11:34:20.000Z</time>
      </trkpt>
      <trkpt lat="42.536956787109375" lon="-7.345760345458984">
        <ele>557.0</ele>
        <time>2019-04-27T11:34:43.000Z</time>
      </trkpt>
      <trkpt lat="42.536983489990234" lon="-7.345704078674316">
        <ele>558.0</ele>
        <time>2019-04-27T11:34:57.000Z</time>
      </trkpt>
      <trkpt lat="42.536956787109375" lon="-7.345695972442627">
        <ele>560.0</ele>
        <time>2019-04-27T11:35:11.000Z</time>
      </trkpt>
      <trkpt lat="42.53697204589844" lon="-7.345677852630615">
        <ele>562.0</ele>
        <time>2019-04-27T11:35:28.000Z</time>
      </trkpt>
      <trkpt lat="42.536991119384766" lon="-7.345659255981445">
        <ele>564.0</ele>
        <time>2019-04-27T11:35:44.000Z</time>
      </trkpt>
      <trkpt lat="42.537017822265625" lon="-7.345640182495117">
        <ele>566.0</ele>
        <time>2019-04-27T11:36:00.000Z</time>
      </trkpt>
      <trkpt lat="42.537044525146484" lon="-7.345620632171631">
        <ele>569.0</ele>
        <time>2019-04-27T11:36:16.000Z</time>
      </trkpt>
      <trkpt lat="42.53705978393555" lon="-7.345608711242676">
        <ele>570.0</ele>
        <time>2019-04-27T11:36:17.000Z</time>
      </trkpt>
      <trkpt lat="42.53706741333008" lon="-7.345600128173828">
        <ele>570.0</ele>
        <time>2019-04-27T11:36:17.000Z</time>
      </trkpt>
      <trkpt lat="42.53707504272461" lon="-7.345593452453613">
        <ele>569.0</ele>
        <time>2019-04-27T11:36:17.000Z</time>
      </trkpt>
      <trkpt lat="42.53708267211914" lon="-7.345587253570557">
        <ele>569.0</ele>
        <time>2019-04-27T11:36:17.000Z</time>
      </trkpt>
      <trkpt lat="42.537132263183594" lon="-7.345531463623047">
        <ele>569.0</ele>
        <time>2019-04-27T11:36:23.000Z</time>
      </trkpt>
      <trkpt lat="42.53719711303711" lon="-7.345455646514893">
        <ele>570.0</ele>
        <time>2019-04-27T11:36:28.000Z</time>
      </trkpt>
      <trkpt lat="42.53727340698242" lon="-7.345366477966309">
        <ele>571.0</ele>
        <time>2019-04-27T11:36:34.000Z</time>
      </trkpt>
      <trkpt lat="42.537357330322266" lon="-7.34527063369751">
        <ele>572.0</ele>
        <time>2019-04-27T11:36:39.000Z</time>
      </trkpt>
      <trkpt lat="42.53742218017578" lon="-7.345186233520508">
        <ele>573.0</ele>
        <time>2019-04-27T11:36:48.000Z</time>
      </trkpt>
      <trkpt lat="42.53748321533203" lon="-7.345098972320557">
        <ele>574.0</ele>
        <time>2019-04-27T11:36:56.000Z</time>
      </trkpt>
      <trkpt lat="42.53754425048828" lon="-7.345009803771973">
        <ele>575.0</ele>
        <time>2019-04-27T11:37:04.000Z</time>
      </trkpt>
      <trkpt lat="42.53760528564453" lon="-7.3449201583862305">
        <ele>576.0</ele>
        <time>2019-04-27T11:37:12.000Z</time>
      </trkpt>
      <trkpt lat="42.53766632080078" lon="-7.344836235046387">
        <ele>577.0</ele>
        <time>2019-04-27T11:37:20.000Z</time>
      </trkpt>
      <trkpt lat="42.53772735595703" lon="-7.344753265380859">
        <ele>578.0</ele>
        <time>2019-04-27T11:37:28.000Z</time>
      </trkpt>
      <trkpt lat="42.53779220581055" lon="-7.344671726226807">
        <ele>579.0</ele>
        <time>2019-04-27T11:37:36.000Z</time>
      </trkpt>
      <trkpt lat="42.5378532409668" lon="-7.344590187072754">
        <ele>579.0</ele>
        <time>2019-04-27T11:37:44.000Z</time>
      </trkpt>
      <trkpt lat="42.53791809082031" lon="-7.34451150894165">
        <ele>580.0</ele>
        <time>2019-04-27T11:37:52.000Z</time>
      </trkpt>
      <trkpt lat="42.53798294067383" lon="-7.34443473815918">
        <ele>580.0</ele>
        <time>2019-04-27T11:38:00.000Z</time>
      </trkpt>
      <trkpt lat="42.538047790527344" lon="-7.344358921051025">
        <ele>581.0</ele>
        <time>2019-04-27T11:38:08.000Z</time>
      </trkpt>
      <trkpt lat="42.538116455078125" lon="-7.344283103942871">
        <ele>582.0</ele>
        <time>2019-04-27T11:38:15.000Z</time>
      </trkpt>
      <trkpt lat="42.538387298583984" lon="-7.343964099884033">
        <ele>570.0</ele>
        <time>2019-04-27T11:38:50.000Z</time>
      </trkpt>
      <trkpt lat="42.538421630859375" lon="-7.3438568115234375">
        <ele>567.0</ele>
        <time>2019-04-27T11:38:58.000Z</time>
      </trkpt>
      <trkpt lat="42.5384407043457" lon="-7.343738555908203">
        <ele>565.0</ele>
        <time>2019-04-27T11:39:05.000Z</time>
      </trkpt>
      <trkpt lat="42.5384521484375" lon="-7.343612194061279">
        <ele>563.0</ele>
        <time>2019-04-27T11:39:13.000Z</time>
      </trkpt>
      <trkpt lat="42.538455963134766" lon="-7.34348201751709">
        <ele>561.0</ele>
        <time>2019-04-27T11:39:20.000Z</time>
      </trkpt>
      <trkpt lat="42.53846740722656" lon="-7.343360424041748">
        <ele>559.0</ele>
        <time>2019-04-27T11:39:29.000Z</time>
      </trkpt>
      <trkpt lat="42.53847885131836" lon="-7.343238830566406">
        <ele>557.0</ele>
        <time>2019-04-27T11:39:37.000Z</time>
      </trkpt>
      <trkpt lat="42.538490295410156" lon="-7.343116760253906">
        <ele>555.0</ele>
        <time>2019-04-27T11:39:46.000Z</time>
      </trkpt>
      <trkpt lat="42.53849792480469" lon="-7.342994689941406">
        <ele>553.0</ele>
        <time>2019-04-27T11:39:54.000Z</time>
      </trkpt>
      <trkpt lat="42.538516998291016" lon="-7.342916965484619">
        <ele>552.0</ele>
        <time>2019-04-27T11:40:00.000Z</time>
      </trkpt>
      <trkpt lat="42.538536071777344" lon="-7.34285831451416">
        <ele>551.0</ele>
        <time>2019-04-27T11:40:05.000Z</time>
      </trkpt>
      <trkpt lat="42.5385627746582" lon="-7.342811584472656">
        <ele>550.0</ele>
        <time>2019-04-27T11:40:10.000Z</time>
      </trkpt>
      <trkpt lat="42.5385856628418" lon="-7.342771053314209">
        <ele>549.0</ele>
        <time>2019-04-27T11:40:15.000Z</time>
      </trkpt>
      <trkpt lat="42.538597106933594" lon="-7.342744827270508">
        <ele>548.0</ele>
        <time>2019-04-27T11:40:20.000Z</time>
      </trkpt>
      <trkpt lat="42.538604736328125" lon="-7.34273099899292">
        <ele>547.0</ele>
        <time>2019-04-27T11:40:25.000Z</time>
      </trkpt>
      <trkpt lat="42.53860855102539" lon="-7.3427252769470215">
        <ele>546.0</ele>
        <time>2019-04-27T11:40:30.000Z</time>
      </trkpt>
      <trkpt lat="42.538612365722656" lon="-7.342723846435547">
        <ele>545.0</ele>
        <time>2019-04-27T11:40:35.000Z</time>
      </trkpt>
      <trkpt lat="42.53861618041992" lon="-7.342714786529541">
        <ele>545.0</ele>
        <time>2019-04-27T11:40:36.000Z</time>
      </trkpt>
      <trkpt lat="42.53861999511719" lon="-7.34270715713501">
        <ele>545.0</ele>
        <time>2019-04-27T11:40:36.000Z</time>
      </trkpt>
      <trkpt lat="42.53862380981445" lon="-7.3426995277404785">
        <ele>545.0</ele>
        <time>2019-04-27T11:40:36.000Z</time>
      </trkpt>
      <trkpt lat="42.53862762451172" lon="-7.342692852020264">
        <ele>545.0</ele>
        <time>2019-04-27T11:40:36.000Z</time>
      </trkpt>
      <trkpt lat="42.53864288330078" lon="-7.342662334442139">
        <ele>545.0</ele>
        <time>2019-04-27T11:40:37.000Z</time>
      </trkpt>
      <trkpt lat="42.53866195678711" lon="-7.34262228012085">
        <ele>545.0</ele>
        <time>2019-04-27T11:40:38.000Z</time>
      </trkpt>
      <trkpt lat="42.53868103027344" lon="-7.342576503753662">
        <ele>544.0</ele>
        <time>2019-04-27T11:40:39.000Z</time>
      </trkpt>
      <trkpt lat="42.53870391845703" lon="-7.342526912689209">
        <ele>544.0</ele>
        <time>2019-04-27T11:40:40.000Z</time>
      </trkpt>
      <trkpt lat="42.538719177246094" lon="-7.3424072265625">
        <ele>543.0</ele>
        <time>2019-04-27T11:40:46.000Z</time>
      </trkpt>
      <trkpt lat="42.53873062133789" lon="-7.342270851135254">
        <ele>542.0</ele>
        <time>2019-04-27T11:40:52.000Z</time>
      </trkpt>
      <trkpt lat="42.53877639770508" lon="-7.342197418212891">
        <ele>542.0</ele>
        <time>2019-04-27T11:40:59.000Z</time>
      </trkpt>
      <trkpt lat="42.53884506225586" lon="-7.3421196937561035">
        <ele>542.0</ele>
        <time>2019-04-27T11:41:06.000Z</time>
      </trkpt>
      <trkpt lat="42.53892517089844" lon="-7.342039585113525">
        <ele>543.0</ele>
        <time>2019-04-27T11:41:13.000Z</time>
      </trkpt>
      <trkpt lat="42.53900909423828" lon="-7.341958045959473">
        <ele>543.0</ele>
        <time>2019-04-27T11:41:20.000Z</time>
      </trkpt>
      <trkpt lat="42.539039611816406" lon="-7.341881275177002">
        <ele>544.0</ele>
        <time>2019-04-27T11:41:23.000Z</time>
      </trkpt>
      <trkpt lat="42.53902053833008" lon="-7.341841697692871">
        <ele>545.0</ele>
        <time>2019-04-27T11:41:27.000Z</time>
      </trkpt>
      <trkpt lat="42.539039611816406" lon="-7.3418354988098145">
        <ele>546.0</ele>
        <time>2019-04-27T11:41:29.000Z</time>
      </trkpt>
      <trkpt lat="42.539066314697266" lon="-7.341838836669922">
        <ele>547.0</ele>
        <time>2019-04-27T11:41:32.000Z</time>
      </trkpt>
      <trkpt lat="42.539093017578125" lon="-7.341848850250244">
        <ele>548.0</ele>
        <time>2019-04-27T11:41:34.000Z</time>
      </trkpt>
      <trkpt lat="42.53912353515625" lon="-7.341862201690674">
        <ele>549.0</ele>
        <time>2019-04-27T11:41:37.000Z</time>
      </trkpt>
      <trkpt lat="42.53915023803711" lon="-7.341829776763916">
        <ele>551.0</ele>
        <time>2019-04-27T11:41:42.000Z</time>
      </trkpt>
      <trkpt lat="42.53917694091797" lon="-7.341782569885254">
        <ele>552.0</ele>
        <time>2019-04-27T11:41:48.000Z</time>
      </trkpt>
      <trkpt lat="42.53920364379883" lon="-7.341724395751953">
        <ele>554.0</ele>
        <time>2019-04-27T11:41:53.000Z</time>
      </trkpt>
      <trkpt lat="42.53923034667969" lon="-7.34166145324707">
        <ele>555.0</ele>
        <time>2019-04-27T11:41:59.000Z</time>
      </trkpt>
      <trkpt lat="42.539249420166016" lon="-7.341633319854736">
        <ele>556.0</ele>
        <time>2019-04-27T11:42:03.000Z</time>
      </trkpt>
      <trkpt lat="42.53926086425781" lon="-7.341614246368408">
        <ele>557.0</ele>
        <time>2019-04-27T11:42:08.000Z</time>
      </trkpt>
      <trkpt lat="42.53927230834961" lon="-7.341601371765137">
        <ele>558.0</ele>
        <time>2019-04-27T11:42:12.000Z</time>
      </trkpt>
      <trkpt lat="42.539283752441406" lon="-7.3415913581848145">
        <ele>560.0</ele>
        <time>2019-04-27T11:42:17.000Z</time>
      </trkpt>
      <trkpt lat="42.53929138183594" lon="-7.341579437255859">
        <ele>560.0</ele>
        <time>2019-04-27T11:42:17.000Z</time>
      </trkpt>
      <trkpt lat="42.53929901123047" lon="-7.341569423675537">
        <ele>560.0</ele>
        <time>2019-04-27T11:42:17.000Z</time>
      </trkpt>
      <trkpt lat="42.539302825927734" lon="-7.3415608406066895">
        <ele>560.0</ele>
        <time>2019-04-27T11:42:17.000Z</time>
      </trkpt>
      <trkpt lat="42.539310455322266" lon="-7.341553211212158">
        <ele>560.0</ele>
        <time>2019-04-27T11:42:18.000Z</time>
      </trkpt>
      <trkpt lat="42.53933334350586" lon="-7.341518878936768">
        <ele>560.0</ele>
        <time>2019-04-27T11:42:19.000Z</time>
      </trkpt>
      <trkpt lat="42.53936767578125" lon="-7.341474533081055">
        <ele>560.0</ele>
        <time>2019-04-27T11:42:20.000Z</time>
      </trkpt>
      <trkpt lat="42.53940200805664" lon="-7.341423034667969">
        <ele>561.0</ele>
        <time>2019-04-27T11:42:21.000Z</time>
      </trkpt>
      <trkpt lat="42.53944396972656" lon="-7.341368675231934">
        <ele>561.0</ele>
        <time>2019-04-27T11:42:22.000Z</time>
      </trkpt>
      <trkpt lat="42.53952407836914" lon="-7.341322422027588">
        <ele>563.0</ele>
        <time>2019-04-27T11:42:32.000Z</time>
      </trkpt>
      <trkpt lat="42.539608001708984" lon="-7.3412981033325195">
        <ele>565.0</ele>
        <time>2019-04-27T11:42:42.000Z</time>
      </trkpt>
      <trkpt lat="42.5396728515625" lon="-7.341246604919434">
        <ele>566.0</ele>
        <time>2019-04-27T11:42:51.000Z</time>
      </trkpt>
      <trkpt lat="42.53974533081055" lon="-7.34118127822876">
        <ele>567.0</ele>
        <time>2019-04-27T11:43:01.000Z</time>
      </trkpt>
      <trkpt lat="42.53982162475586" lon="-7.341106414794922">
        <ele>569.0</ele>
        <time>2019-04-27T11:43:10.000Z</time>
      </trkpt>
      <trkpt lat="42.5399055480957" lon="-7.34102725982666">
        <ele>570.0</ele>
        <time>2019-04-27T11:43:20.000Z</time>
      </trkpt>
      <trkpt lat="42.53995132446289" lon="-7.340956211090088">
        <ele>573.0</ele>
        <time>2019-04-27T11:43:28.000Z</time>
      </trkpt>
      <trkpt lat="42.53998947143555" lon="-7.340884208679199">
        <ele>576.0</ele>
        <time>2019-04-27T11:43:36.000Z</time>
      </trkpt>
      <trkpt lat="42.54001998901367" lon="-7.340811729431152">
        <ele>580.0</ele>
        <time>2019-04-27T11:43:44.000Z</time>
      </trkpt>
      <trkpt lat="42.540042877197266" lon="-7.340738296508789">
        <ele>584.0</ele>
        <time>2019-04-27T11:43:52.000Z</time>
      </trkpt>
      <trkpt lat="42.54005813598633" lon="-7.340710163116455">
        <ele>586.0</ele>
        <time>2019-04-27T11:43:56.000Z</time>
      </trkpt>
      <trkpt lat="42.54006576538086" lon="-7.340700626373291">
        <ele>587.0</ele>
        <time>2019-04-27T11:44:00.000Z</time>
      </trkpt>
      <trkpt lat="42.54006576538086" lon="-7.340703010559082">
        <ele>587.0</ele>
        <time>2019-04-27T11:44:05.000Z</time>
      </trkpt>
      <trkpt lat="42.540061950683594" lon="-7.34071159362793">
        <ele>587.0</ele>
        <time>2019-04-27T11:44:09.000Z</time>
      </trkpt>
      <trkpt lat="42.54006576538086" lon="-7.340705871582031">
        <ele>587.0</ele>
        <time>2019-04-27T11:44:09.000Z</time>
      </trkpt>
      <trkpt lat="42.540069580078125" lon="-7.340700626373291">
        <ele>587.0</ele>
        <time>2019-04-27T11:44:09.000Z</time>
      </trkpt>
      <trkpt lat="42.54007339477539" lon="-7.340695858001709">
        <ele>587.0</ele>
        <time>2019-04-27T11:44:10.000Z</time>
      </trkpt>
      <trkpt lat="42.540077209472656" lon="-7.340691089630127">
        <ele>587.0</ele>
        <time>2019-04-27T11:44:10.000Z</time>
      </trkpt>
      <trkpt lat="42.54010772705078" lon="-7.340643882751465">
        <ele>588.0</ele>
        <time>2019-04-27T11:44:14.000Z</time>
      </trkpt>
      <trkpt lat="42.5401496887207" lon="-7.340578556060791">
        <ele>589.0</ele>
        <time>2019-04-27T11:44:17.000Z</time>
      </trkpt>
      <trkpt lat="42.54019546508789" lon="-7.34050178527832">
        <ele>590.0</ele>
        <time>2019-04-27T11:44:21.000Z</time>
      </trkpt>
      <trkpt lat="42.54024887084961" lon="-7.340418815612793">
        <ele>591.0</ele>
        <time>2019-04-27T11:44:25.000Z</time>
      </trkpt>
      <trkpt lat="42.54026794433594" lon="-7.340390205383301">
        <ele>595.0</ele>
        <time>2019-04-27T11:44:41.000Z</time>
      </trkpt>
      <trkpt lat="42.540279388427734" lon="-7.340368270874023">
        <ele>595.0</ele>
        <time>2019-04-27T11:44:42.000Z</time>
      </trkpt>
      <trkpt lat="42.54046630859375" lon="-7.339949131011963">
        <ele>599.0</ele>
        <time>2019-04-27T11:45:02.000Z</time>
      </trkpt>
      <trkpt lat="42.54061508178711" lon="-7.339685916900635">
        <ele>600.0</ele>
        <time>2019-04-27T11:45:30.000Z</time>
      </trkpt>
      <trkpt lat="42.54084014892578" lon="-7.339322566986084">
        <ele>591.0</ele>
        <time>2019-04-27T11:46:02.000Z</time>
      </trkpt>
      <trkpt lat="42.54109573364258" lon="-7.338995456695557">
        <ele>585.0</ele>
        <time>2019-04-27T11:46:39.000Z</time>
      </trkpt>
      <trkpt lat="42.541385650634766" lon="-7.338716983795166">
        <ele>585.0</ele>
        <time>2019-04-27T11:47:10.000Z</time>
      </trkpt>
      <trkpt lat="42.541648864746094" lon="-7.338398456573486">
        <ele>584.0</ele>
        <time>2019-04-27T11:47:43.000Z</time>
      </trkpt>
      <trkpt lat="42.54194259643555" lon="-7.338224411010742">
        <ele>585.0</ele>
        <time>2019-04-27T11:48:15.000Z</time>
      </trkpt>
      <trkpt lat="42.54210662841797" lon="-7.338116645812988">
        <ele>582.0</ele>
        <time>2019-04-27T11:48:31.000Z</time>
      </trkpt>
      <trkpt lat="42.54242706298828" lon="-7.337912082672119">
        <ele>585.0</ele>
        <time>2019-04-27T11:49:08.000Z</time>
      </trkpt>
      <trkpt lat="42.542762756347656" lon="-7.337765693664551">
        <ele>590.0</ele>
        <time>2019-04-27T11:49:39.000Z</time>
      </trkpt>
      <trkpt lat="42.542816162109375" lon="-7.337761878967285">
        <ele>590.0</ele>
        <time>2019-04-27T11:49:46.000Z</time>
      </trkpt>
      <trkpt lat="42.54281997680664" lon="-7.337790489196777">
        <ele>589.0</ele>
        <time>2019-04-27T11:49:54.000Z</time>
      </trkpt>
      <trkpt lat="42.54282760620117" lon="-7.337795257568359">
        <ele>589.0</ele>
        <time>2019-04-27T11:49:54.000Z</time>
      </trkpt>
      <trkpt lat="42.54283905029297" lon="-7.337798595428467">
        <ele>589.0</ele>
        <time>2019-04-27T11:49:54.000Z</time>
      </trkpt>
      <trkpt lat="42.5428466796875" lon="-7.337801933288574">
        <ele>589.0</ele>
        <time>2019-04-27T11:49:54.000Z</time>
      </trkpt>
      <trkpt lat="42.542850494384766" lon="-7.337805271148682">
        <ele>589.0</ele>
        <time>2019-04-27T11:49:55.000Z</time>
      </trkpt>
      <trkpt lat="42.542903900146484" lon="-7.337831020355225">
        <ele>588.0</ele>
        <time>2019-04-27T11:50:00.000Z</time>
      </trkpt>
      <trkpt lat="42.542972564697266" lon="-7.33786678314209">
        <ele>587.0</ele>
        <time>2019-04-27T11:50:05.000Z</time>
      </trkpt>
      <trkpt lat="42.54305648803711" lon="-7.337908744812012">
        <ele>586.0</ele>
        <time>2019-04-27T11:50:11.000Z</time>
      </trkpt>
      <trkpt lat="42.54314422607422" lon="-7.337953567504883">
        <ele>585.0</ele>
        <time>2019-04-27T11:50:16.000Z</time>
      </trkpt>
      <trkpt lat="42.5432014465332" lon="-7.337979316711426">
        <ele>584.0</ele>
        <time>2019-04-27T11:50:19.000Z</time>
      </trkpt>
      <trkpt lat="42.543251037597656" lon="-7.338000297546387">
        <ele>584.0</ele>
        <time>2019-04-27T11:50:23.000Z</time>
      </trkpt>
      <trkpt lat="42.543296813964844" lon="-7.338017463684082">
        <ele>584.0</ele>
        <time>2019-04-27T11:50:26.000Z</time>
      </trkpt>
      <trkpt lat="42.543338775634766" lon="-7.338033676147461">
        <ele>584.0</ele>
        <time>2019-04-27T11:50:30.000Z</time>
      </trkpt>
      <trkpt lat="42.54338455200195" lon="-7.338067531585693">
        <ele>583.0</ele>
        <time>2019-04-27T11:50:35.000Z</time>
      </trkpt>
      <trkpt lat="42.543426513671875" lon="-7.338107109069824">
        <ele>582.0</ele>
        <time>2019-04-27T11:50:40.000Z</time>
      </trkpt>
      <trkpt lat="42.54346466064453" lon="-7.338150501251221">
        <ele>581.0</ele>
        <time>2019-04-27T11:50:45.000Z</time>
      </trkpt>
      <trkpt lat="42.54350662231445" lon="-7.338196277618408">
        <ele>581.0</ele>
        <time>2019-04-27T11:50:50.000Z</time>
      </trkpt>
      <trkpt lat="42.54354476928711" lon="-7.33823299407959">
        <ele>580.0</ele>
        <time>2019-04-27T11:50:56.000Z</time>
      </trkpt>
      <trkpt lat="42.5435791015625" lon="-7.338267803192139">
        <ele>580.0</ele>
        <time>2019-04-27T11:51:02.000Z</time>
      </trkpt>
      <trkpt lat="42.54361343383789" lon="-7.338302135467529">
        <ele>581.0</ele>
        <time>2019-04-27T11:51:08.000Z</time>
      </trkpt>
      <trkpt lat="42.54364776611328" lon="-7.3383355140686035">
        <ele>581.0</ele>
        <time>2019-04-27T11:51:14.000Z</time>
      </trkpt>
      <trkpt lat="42.54365539550781" lon="-7.338350772857666">
        <ele>581.0</ele>
        <time>2019-04-27T11:51:17.000Z</time>
      </trkpt>
      <trkpt lat="42.54368209838867" lon="-7.338370323181152">
        <ele>579.0</ele>
        <time>2019-04-27T11:51:41.000Z</time>
      </trkpt>
      <trkpt lat="42.543697357177734" lon="-7.338385581970215">
        <ele>579.0</ele>
        <time>2019-04-27T11:51:42.000Z</time>
      </trkpt>
      <trkpt lat="42.543792724609375" lon="-7.3384809494018555">
        <ele>580.0</ele>
        <time>2019-04-27T11:51:46.000Z</time>
      </trkpt>
      <trkpt lat="42.54384231567383" lon="-7.338545322418213">
        <ele>579.0</ele>
        <time>2019-04-27T11:51:50.000Z</time>
      </trkpt>
      <trkpt lat="42.54385757446289" lon="-7.338587760925293">
        <ele>579.0</ele>
        <time>2019-04-27T11:51:59.000Z</time>
      </trkpt>
      <trkpt lat="42.54386901855469" lon="-7.338634967803955">
        <ele>578.0</ele>
        <time>2019-04-27T11:52:09.000Z</time>
      </trkpt>
      <trkpt lat="42.54387283325195" lon="-7.338650226593018">
        <ele>578.0</ele>
        <time>2019-04-27T11:52:09.000Z</time>
      </trkpt>
      <trkpt lat="42.54387283325195" lon="-7.3386616706848145">
        <ele>578.0</ele>
        <time>2019-04-27T11:52:09.000Z</time>
      </trkpt>
      <trkpt lat="42.54387664794922" lon="-7.3386712074279785">
        <ele>578.0</ele>
        <time>2019-04-27T11:52:09.000Z</time>
      </trkpt>
      <trkpt lat="42.543880462646484" lon="-7.338679790496826">
        <ele>578.0</ele>
        <time>2019-04-27T11:52:10.000Z</time>
      </trkpt>
      <trkpt lat="42.543907165527344" lon="-7.338733673095703">
        <ele>578.0</ele>
        <time>2019-04-27T11:52:13.000Z</time>
      </trkpt>
      <trkpt lat="42.5439453125" lon="-7.338805198669434">
        <ele>577.0</ele>
        <time>2019-04-27T11:52:17.000Z</time>
      </trkpt>
      <trkpt lat="42.54399108886719" lon="-7.338889122009277">
        <ele>577.0</ele>
        <time>2019-04-27T11:52:21.000Z</time>
      </trkpt>
      <trkpt lat="42.544036865234375" lon="-7.3389787673950195">
        <ele>577.0</ele>
        <time>2019-04-27T11:52:25.000Z</time>
      </trkpt>
      <trkpt lat="42.54407501220703" lon="-7.3390350341796875">
        <ele>577.0</ele>
        <time>2019-04-27T11:52:29.000Z</time>
      </trkpt>
      <trkpt lat="42.54410934448242" lon="-7.339083671569824">
        <ele>577.0</ele>
        <time>2019-04-27T11:52:33.000Z</time>
      </trkpt>
      <trkpt lat="42.54414367675781" lon="-7.339127540588379">
        <ele>577.0</ele>
        <time>2019-04-27T11:52:37.000Z</time>
      </trkpt>
      <trkpt lat="42.54417419433594" lon="-7.339168548583984">
        <ele>577.0</ele>
        <time>2019-04-27T11:52:41.000Z</time>
      </trkpt>
      <trkpt lat="42.54421615600586" lon="-7.339190483093262">
        <ele>577.0</ele>
        <time>2019-04-27T11:52:45.000Z</time>
      </trkpt>
      <trkpt lat="42.54426193237305" lon="-7.339202404022217">
        <ele>577.0</ele>
        <time>2019-04-27T11:52:48.000Z</time>
      </trkpt>
      <trkpt lat="42.5443115234375" lon="-7.339206695556641">
        <ele>578.0</ele>
        <time>2019-04-27T11:52:52.000Z</time>
      </trkpt>
      <trkpt lat="42.54435729980469" lon="-7.339207649230957">
        <ele>578.0</ele>
        <time>2019-04-27T11:52:55.000Z</time>
      </trkpt>
      <trkpt lat="42.54442596435547" lon="-7.339179992675781">
        <ele>578.0</ele>
        <time>2019-04-27T11:53:04.000Z</time>
      </trkpt>
      <trkpt lat="42.54448699951172" lon="-7.33912992477417">
        <ele>578.0</ele>
        <time>2019-04-27T11:53:12.000Z</time>
      </trkpt>
      <trkpt lat="42.54450988769531" lon="-7.339138984680176">
        <ele>578.0</ele>
        <time>2019-04-27T11:53:14.000Z</time>
      </trkpt>
      <trkpt lat="42.544525146484375" lon="-7.339160442352295">
        <ele>578.0</ele>
        <time>2019-04-27T11:53:15.000Z</time>
      </trkpt>
      <trkpt lat="42.5445442199707" lon="-7.339189529418945">
        <ele>578.0</ele>
        <time>2019-04-27T11:53:16.000Z</time>
      </trkpt>
      <trkpt lat="42.5445556640625" lon="-7.3392229080200195">
        <ele>578.0</ele>
        <time>2019-04-27T11:53:17.000Z</time>
      </trkpt>
      <trkpt lat="42.54457092285156" lon="-7.339237689971924">
        <ele>577.0</ele>
        <time>2019-04-27T11:53:18.000Z</time>
      </trkpt>
      <trkpt lat="42.54458236694336" lon="-7.3392486572265625">
        <ele>577.0</ele>
        <time>2019-04-27T11:53:19.000Z</time>
      </trkpt>
      <trkpt lat="42.544593811035156" lon="-7.339257717132568">
        <ele>577.0</ele>
        <time>2019-04-27T11:53:20.000Z</time>
      </trkpt>
      <trkpt lat="42.54460144042969" lon="-7.339265823364258">
        <ele>577.0</ele>
        <time>2019-04-27T11:53:20.000Z</time>
      </trkpt>
      <trkpt lat="42.54462814331055" lon="-7.3392653465271">
        <ele>577.0</ele>
        <time>2019-04-27T11:53:25.000Z</time>
      </trkpt>
      <trkpt lat="42.54465866088867" lon="-7.339260101318359">
        <ele>576.0</ele>
        <time>2019-04-27T11:53:30.000Z</time>
      </trkpt>
      <trkpt lat="42.54469680786133" lon="-7.339252471923828">
        <ele>576.0</ele>
        <time>2019-04-27T11:53:35.000Z</time>
      </trkpt>
      <trkpt lat="42.544734954833984" lon="-7.339242458343506">
        <ele>575.0</ele>
        <time>2019-04-27T11:53:39.000Z</time>
      </trkpt>
      <trkpt lat="42.544734954833984" lon="-7.339248180389404">
        <ele>575.0</ele>
        <time>2019-04-27T11:53:47.000Z</time>
      </trkpt>
      <trkpt lat="42.54471969604492" lon="-7.339258670806885">
        <ele>574.0</ele>
        <time>2019-04-27T11:53:55.000Z</time>
      </trkpt>
      <trkpt lat="42.54469680786133" lon="-7.3392720222473145">
        <ele>574.0</ele>
        <time>2019-04-27T11:54:02.000Z</time>
      </trkpt>
      <trkpt lat="42.54467010498047" lon="-7.339287281036377">
        <ele>574.0</ele>
        <time>2019-04-27T11:54:10.000Z</time>
      </trkpt>
      <trkpt lat="42.5446662902832" lon="-7.339287281036377">
        <ele>574.0</ele>
        <time>2019-04-27T11:54:19.000Z</time>
      </trkpt>
      <trkpt lat="42.544681549072266" lon="-7.339266300201416">
        <ele>574.0</ele>
        <time>2019-04-27T11:54:41.000Z</time>
      </trkpt>
      <trkpt lat="42.544677734375" lon="-7.339270114898682">
        <ele>574.0</ele>
        <time>2019-04-27T11:54:37.000Z</time>
      </trkpt>
      <trkpt lat="42.544673919677734" lon="-7.33927583694458">
        <ele>574.0</ele>
        <time>2019-04-27T11:54:32.000Z</time>
      </trkpt>
      <trkpt lat="42.544673919677734" lon="-7.33927583694458">
        <ele>574.0</ele>
        <time>2019-04-27T11:54:47.000Z</time>
      </trkpt>
      <trkpt lat="42.519935607910156" lon="-7.515381813049316">
        <ele>334.0</ele>
        <time>2019-04-30T05:46:36.000Z</time>
      </trkpt>
      <trkpt lat="42.51998519897461" lon="-7.515241622924805">
        <ele>326.0</ele>
        <time>2019-04-30T05:46:49.000Z</time>
      </trkpt>
      <trkpt lat="42.51999282836914" lon="-7.515221118927002">
        <ele>320.0</ele>
        <time>2019-04-30T05:47:03.000Z</time>
      </trkpt>
      <trkpt lat="42.52000045776367" lon="-7.515203475952148">
        <ele>320.0</ele>
        <time>2019-04-30T05:47:04.000Z</time>
      </trkpt>
      <trkpt lat="42.52001190185547" lon="-7.515181541442871">
        <ele>319.0</ele>
        <time>2019-04-30T05:47:06.000Z</time>
      </trkpt>
      <trkpt lat="42.52006149291992" lon="-7.515081405639648">
        <ele>318.0</ele>
        <time>2019-04-30T05:47:08.000Z</time>
      </trkpt>
      <trkpt lat="42.520084381103516" lon="-7.515036582946777">
        <ele>318.0</ele>
        <time>2019-04-30T05:47:09.000Z</time>
      </trkpt>
      <trkpt lat="42.52040481567383" lon="-7.514828205108643">
        <ele>312.0</ele>
        <time>2019-04-30T05:47:23.000Z</time>
      </trkpt>
      <trkpt lat="42.52052307128906" lon="-7.514720439910889">
        <ele>311.0</ele>
        <time>2019-04-30T05:47:38.000Z</time>
      </trkpt>
      <trkpt lat="42.52056884765625" lon="-7.514695644378662">
        <ele>311.0</ele>
        <time>2019-04-30T05:47:56.000Z</time>
      </trkpt>
      <trkpt lat="42.520599365234375" lon="-7.514679431915283">
        <ele>311.0</ele>
        <time>2019-04-30T05:47:57.000Z</time>
      </trkpt>
      <trkpt lat="42.52083206176758" lon="-7.514551162719727">
        <ele>311.0</ele>
        <time>2019-04-30T05:48:08.000Z</time>
      </trkpt>
      <trkpt lat="42.52086639404297" lon="-7.514505386352539">
        <ele>312.0</ele>
        <time>2019-04-30T05:48:23.000Z</time>
      </trkpt>
      <trkpt lat="42.5208854675293" lon="-7.5144758224487305">
        <ele>312.0</ele>
        <time>2019-04-30T05:48:24.000Z</time>
      </trkpt>
      <trkpt lat="42.5209846496582" lon="-7.514302730560303">
        <ele>312.0</ele>
        <time>2019-04-30T05:48:32.000Z</time>
      </trkpt>
      <trkpt lat="42.52101135253906" lon="-7.514279842376709">
        <ele>313.0</ele>
        <time>2019-04-30T05:48:48.000Z</time>
      </trkpt>
      <trkpt lat="42.521034240722656" lon="-7.514262676239014">
        <ele>313.0</ele>
        <time>2019-04-30T05:48:49.000Z</time>
      </trkpt>
      <trkpt lat="42.52130889892578" lon="-7.514082908630371">
        <ele>313.0</ele>
        <time>2019-04-30T05:49:04.000Z</time>
      </trkpt>
      <trkpt lat="42.52149963378906" lon="-7.5139923095703125">
        <ele>313.0</ele>
        <time>2019-04-30T05:49:15.000Z</time>
      </trkpt>
      <trkpt lat="42.521549224853516" lon="-7.513995170593262">
        <ele>310.0</ele>
        <time>2019-04-30T05:49:26.000Z</time>
      </trkpt>
      <trkpt lat="42.521575927734375" lon="-7.5140204429626465">
        <ele>307.0</ele>
        <time>2019-04-30T05:49:37.000Z</time>
      </trkpt>
      <trkpt lat="42.52158737182617" lon="-7.51402473449707">
        <ele>306.0</ele>
        <time>2019-04-30T05:49:37.000Z</time>
      </trkpt>
      <trkpt lat="42.52159881591797" lon="-7.514028549194336">
        <ele>306.0</ele>
        <time>2019-04-30T05:49:38.000Z</time>
      </trkpt>
      <trkpt lat="42.5216064453125" lon="-7.514031410217285">
        <ele>307.0</ele>
        <time>2019-04-30T05:49:38.000Z</time>
      </trkpt>
      <trkpt lat="42.52161407470703" lon="-7.514033794403076">
        <ele>307.0</ele>
        <time>2019-04-30T05:49:38.000Z</time>
      </trkpt>
      <trkpt lat="42.52167510986328" lon="-7.514037609100342">
        <ele>306.0</ele>
        <time>2019-04-30T05:49:42.000Z</time>
      </trkpt>
      <trkpt lat="42.521759033203125" lon="-7.514041423797607">
        <ele>305.0</ele>
        <time>2019-04-30T05:49:47.000Z</time>
      </trkpt>
      <trkpt lat="42.52185821533203" lon="-7.514045238494873">
        <ele>304.0</ele>
        <time>2019-04-30T05:49:51.000Z</time>
      </trkpt>
      <trkpt lat="42.5219612121582" lon="-7.514049530029297">
        <ele>302.0</ele>
        <time>2019-04-30T05:49:55.000Z</time>
      </trkpt>
      <trkpt lat="42.52200698852539" lon="-7.514127731323242">
        <ele>302.0</ele>
        <time>2019-04-30T05:50:02.000Z</time>
      </trkpt>
      <trkpt lat="42.522029876708984" lon="-7.514237403869629">
        <ele>301.0</ele>
        <time>2019-04-30T05:50:08.000Z</time>
      </trkpt>
      <trkpt lat="42.52204513549805" lon="-7.514367580413818">
        <ele>300.0</ele>
        <time>2019-04-30T05:50:15.000Z</time>
      </trkpt>
      <trkpt lat="42.52205276489258" lon="-7.514508247375488">
        <ele>300.0</ele>
        <time>2019-04-30T05:50:21.000Z</time>
      </trkpt>
      <trkpt lat="42.5220947265625" lon="-7.514582633972168">
        <ele>300.0</ele>
        <time>2019-04-30T05:50:27.000Z</time>
      </trkpt>
      <trkpt lat="42.522132873535156" lon="-7.514585494995117">
        <ele>301.0</ele>
        <time>2019-04-30T05:50:32.000Z</time>
      </trkpt>
      <trkpt lat="42.52215576171875" lon="-7.514594078063965">
        <ele>301.0</ele>
        <time>2019-04-30T05:50:44.000Z</time>
      </trkpt>
      <trkpt lat="42.52216339111328" lon="-7.514588832855225">
        <ele>302.0</ele>
        <time>2019-04-30T05:50:56.000Z</time>
      </trkpt>
      <trkpt lat="42.52217102050781" lon="-7.514589786529541">
        <ele>302.0</ele>
        <time>2019-04-30T05:50:56.000Z</time>
      </trkpt>
      <trkpt lat="42.522178649902344" lon="-7.514590740203857">
        <ele>302.0</ele>
        <time>2019-04-30T05:50:57.000Z</time>
      </trkpt>
      <trkpt lat="42.52218246459961" lon="-7.514591217041016">
        <ele>302.0</ele>
        <time>2019-04-30T05:50:57.000Z</time>
      </trkpt>
      <trkpt lat="42.522186279296875" lon="-7.514591693878174">
        <ele>302.0</ele>
        <time>2019-04-30T05:50:57.000Z</time>
      </trkpt>
      <trkpt lat="42.52225112915039" lon="-7.514575958251953">
        <ele>302.0</ele>
        <time>2019-04-30T05:51:01.000Z</time>
      </trkpt>
      <trkpt lat="42.522335052490234" lon="-7.514553070068359">
        <ele>302.0</ele>
        <time>2019-04-30T05:51:05.000Z</time>
      </trkpt>
      <trkpt lat="42.52243423461914" lon="-7.514525890350342">
        <ele>303.0</ele>
        <time>2019-04-30T05:51:08.000Z</time>
      </trkpt>
      <trkpt lat="42.522544860839844" lon="-7.514496326446533">
        <ele>303.0</ele>
        <time>2019-04-30T05:51:12.000Z</time>
      </trkpt>
      <trkpt lat="42.522605895996094" lon="-7.514472007751465">
        <ele>304.0</ele>
        <time>2019-04-30T05:51:15.000Z</time>
      </trkpt>
      <trkpt lat="42.52265167236328" lon="-7.514448642730713">
        <ele>304.0</ele>
        <time>2019-04-30T05:51:19.000Z</time>
      </trkpt>
      <trkpt lat="42.5226936340332" lon="-7.514424800872803">
        <ele>304.0</ele>
        <time>2019-04-30T05:51:22.000Z</time>
      </trkpt>
      <trkpt lat="42.52273178100586" lon="-7.514400959014893">
        <ele>305.0</ele>
        <time>2019-04-30T05:51:25.000Z</time>
      </trkpt>
      <trkpt lat="42.522762298583984" lon="-7.514402389526367">
        <ele>305.0</ele>
        <time>2019-04-30T05:51:30.000Z</time>
      </trkpt>
      <trkpt lat="42.522789001464844" lon="-7.514414310455322">
        <ele>305.0</ele>
        <time>2019-04-30T05:51:35.000Z</time>
      </trkpt>
      <trkpt lat="42.52281188964844" lon="-7.51443338394165">
        <ele>306.0</ele>
        <time>2019-04-30T05:51:39.000Z</time>
      </trkpt>
      <trkpt lat="42.522830963134766" lon="-7.514456272125244">
        <ele>306.0</ele>
        <time>2019-04-30T05:51:44.000Z</time>
      </trkpt>
      <trkpt lat="42.52284240722656" lon="-7.514463424682617">
        <ele>306.0</ele>
        <time>2019-04-30T05:51:44.000Z</time>
      </trkpt>
      <trkpt lat="42.52285385131836" lon="-7.514467716217041">
        <ele>306.0</ele>
        <time>2019-04-30T05:51:45.000Z</time>
      </trkpt>
      <trkpt lat="42.522857666015625" lon="-7.514470100402832">
        <ele>306.0</ele>
        <time>2019-04-30T05:51:45.000Z</time>
      </trkpt>
      <trkpt lat="42.522857666015625" lon="-7.514471530914307">
        <ele>306.0</ele>
        <time>2019-04-30T05:51:45.000Z</time>
      </trkpt>
      <trkpt lat="42.52289962768555" lon="-7.514565467834473">
        <ele>306.0</ele>
        <time>2019-04-30T05:51:53.000Z</time>
      </trkpt>
      <trkpt lat="42.522953033447266" lon="-7.514699935913086">
        <ele>306.0</ele>
        <time>2019-04-30T05:52:01.000Z</time>
      </trkpt>
      <trkpt lat="42.52296447753906" lon="-7.5147271156311035">
        <ele>305.0</ele>
        <time>2019-04-30T05:52:06.000Z</time>
      </trkpt>
      <trkpt lat="42.52296829223633" lon="-7.514741897583008">
        <ele>304.0</ele>
        <time>2019-04-30T05:52:10.000Z</time>
      </trkpt>
      <trkpt lat="42.522972106933594" lon="-7.514748573303223">
        <ele>304.0</ele>
        <time>2019-04-30T05:52:15.000Z</time>
      </trkpt>
      <trkpt lat="42.522972106933594" lon="-7.514750957489014">
        <ele>303.0</ele>
        <time>2019-04-30T05:52:19.000Z</time>
      </trkpt>
      <trkpt lat="42.52297592163086" lon="-7.514760494232178">
        <ele>303.0</ele>
        <time>2019-04-30T05:52:19.000Z</time>
      </trkpt>
      <trkpt lat="42.522979736328125" lon="-7.514769554138184">
        <ele>303.0</ele>
        <time>2019-04-30T05:52:20.000Z</time>
      </trkpt>
      <trkpt lat="42.522979736328125" lon="-7.514777660369873">
        <ele>303.0</ele>
        <time>2019-04-30T05:52:20.000Z</time>
      </trkpt>
      <trkpt lat="42.52298355102539" lon="-7.514785289764404">
        <ele>303.0</ele>
        <time>2019-04-30T05:52:20.000Z</time>
      </trkpt>
      <trkpt lat="42.52299499511719" lon="-7.514825344085693">
        <ele>303.0</ele>
        <time>2019-04-30T05:52:22.000Z</time>
      </trkpt>
      <trkpt lat="42.52301025390625" lon="-7.514878749847412">
        <ele>303.0</ele>
        <time>2019-04-30T05:52:25.000Z</time>
      </trkpt>
      <trkpt lat="42.52302932739258" lon="-7.5149407386779785">
        <ele>302.0</ele>
        <time>2019-04-30T05:52:27.000Z</time>
      </trkpt>
      <trkpt lat="42.523048400878906" lon="-7.515007495880127">
        <ele>302.0</ele>
        <time>2019-04-30T05:52:29.000Z</time>
      </trkpt>
      <trkpt lat="42.52305603027344" lon="-7.515040397644043">
        <ele>302.0</ele>
        <time>2019-04-30T05:52:36.000Z</time>
      </trkpt>
      <trkpt lat="42.52306365966797" lon="-7.515064239501953">
        <ele>302.0</ele>
        <time>2019-04-30T05:52:43.000Z</time>
      </trkpt>
      <trkpt lat="42.523067474365234" lon="-7.515081882476807">
        <ele>303.0</ele>
        <time>2019-04-30T05:52:49.000Z</time>
      </trkpt>
      <trkpt lat="42.523067474365234" lon="-7.515096187591553">
        <ele>303.0</ele>
        <time>2019-04-30T05:52:56.000Z</time>
      </trkpt>
      <trkpt lat="42.5230712890625" lon="-7.515111923217773">
        <ele>303.0</ele>
        <time>2019-04-30T05:52:56.000Z</time>
      </trkpt>
      <trkpt lat="42.523075103759766" lon="-7.515124797821045">
        <ele>303.0</ele>
        <time>2019-04-30T05:52:57.000Z</time>
      </trkpt>
      <trkpt lat="42.52307891845703" lon="-7.515135288238525">
        <ele>303.0</ele>
        <time>2019-04-30T05:52:57.000Z</time>
      </trkpt>
      <trkpt lat="42.52307891845703" lon="-7.515145301818848">
        <ele>303.0</ele>
        <time>2019-04-30T05:52:57.000Z</time>
      </trkpt>
      <trkpt lat="42.523136138916016" lon="-7.515424728393555">
        <ele>304.0</ele>
        <time>2019-04-30T05:53:07.000Z</time>
      </trkpt>
      <trkpt lat="42.523136138916016" lon="-7.515452861785889">
        <ele>305.0</ele>
        <time>2019-04-30T05:53:14.000Z</time>
      </trkpt>
      <trkpt lat="42.52313232421875" lon="-7.5154643058776855">
        <ele>305.0</ele>
        <time>2019-04-30T05:53:21.000Z</time>
      </trkpt>
      <trkpt lat="42.52312088012695" lon="-7.515463829040527">
        <ele>306.0</ele>
        <time>2019-04-30T05:53:27.000Z</time>
      </trkpt>
      <trkpt lat="42.523109436035156" lon="-7.515457630157471">
        <ele>306.0</ele>
        <time>2019-04-30T05:53:34.000Z</time>
      </trkpt>
      <trkpt lat="42.52310562133789" lon="-7.515463829040527">
        <ele>306.0</ele>
        <time>2019-04-30T05:53:34.000Z</time>
      </trkpt>
      <trkpt lat="42.523101806640625" lon="-7.515470027923584">
        <ele>306.0</ele>
        <time>2019-04-30T05:53:35.000Z</time>
      </trkpt>
      <trkpt lat="42.52309799194336" lon="-7.515475273132324">
        <ele>306.0</ele>
        <time>2019-04-30T05:53:35.000Z</time>
      </trkpt>
      <trkpt lat="42.52309036254883" lon="-7.5154805183410645">
        <ele>306.0</ele>
        <time>2019-04-30T05:53:35.000Z</time>
      </trkpt>
      <trkpt lat="42.523075103759766" lon="-7.51549768447876">
        <ele>306.0</ele>
        <time>2019-04-30T05:53:36.000Z</time>
      </trkpt>
      <trkpt lat="42.52305603027344" lon="-7.515519142150879">
        <ele>306.0</ele>
        <time>2019-04-30T05:53:38.000Z</time>
      </trkpt>
      <trkpt lat="42.523033142089844" lon="-7.515544414520264">
        <ele>306.0</ele>
        <time>2019-04-30T05:53:39.000Z</time>
      </trkpt>
      <trkpt lat="42.52301025390625" lon="-7.515570640563965">
        <ele>306.0</ele>
        <time>2019-04-30T05:53:40.000Z</time>
      </trkpt>
      <trkpt lat="42.52299880981445" lon="-7.515583038330078">
        <ele>306.0</ele>
        <time>2019-04-30T05:53:43.000Z</time>
      </trkpt>
      <trkpt lat="42.52299118041992" lon="-7.515590667724609">
        <ele>306.0</ele>
        <time>2019-04-30T05:53:46.000Z</time>
      </trkpt>
      <trkpt lat="42.522987365722656" lon="-7.51559591293335">
        <ele>307.0</ele>
        <time>2019-04-30T05:53:48.000Z</time>
      </trkpt>
      <trkpt lat="42.522987365722656" lon="-7.515599250793457">
        <ele>307.0</ele>
        <time>2019-04-30T05:53:51.000Z</time>
      </trkpt>
      <trkpt lat="42.52298355102539" lon="-7.5156049728393555">
        <ele>307.0</ele>
        <time>2019-04-30T05:53:51.000Z</time>
      </trkpt>
      <trkpt lat="42.522979736328125" lon="-7.515610218048096">
        <ele>307.0</ele>
        <time>2019-04-30T05:53:52.000Z</time>
      </trkpt>
      <trkpt lat="42.52297592163086" lon="-7.515615463256836">
        <ele>307.0</ele>
        <time>2019-04-30T05:53:52.000Z</time>
      </trkpt>
      <trkpt lat="42.522972106933594" lon="-7.515620231628418">
        <ele>307.0</ele>
        <time>2019-04-30T05:53:52.000Z</time>
      </trkpt>
      <trkpt lat="42.52296447753906" lon="-7.515626430511475">
        <ele>307.0</ele>
        <time>2019-04-30T05:53:53.000Z</time>
      </trkpt>
      <trkpt lat="42.5229606628418" lon="-7.515633583068848">
        <ele>307.0</ele>
        <time>2019-04-30T05:53:53.000Z</time>
      </trkpt>
      <trkpt lat="42.522953033447266" lon="-7.515640735626221">
        <ele>307.0</ele>
        <time>2019-04-30T05:53:54.000Z</time>
      </trkpt>
      <trkpt lat="42.52294921875" lon="-7.515647888183594">
        <ele>307.0</ele>
        <time>2019-04-30T05:53:54.000Z</time>
      </trkpt>
      <trkpt lat="42.52291488647461" lon="-7.515671730041504">
        <ele>306.0</ele>
        <time>2019-04-30T05:53:59.000Z</time>
      </trkpt>
      <trkpt lat="42.52288818359375" lon="-7.515688419342041">
        <ele>306.0</ele>
        <time>2019-04-30T05:54:00.000Z</time>
      </trkpt>
      <trkpt lat="42.52257537841797" lon="-7.515908241271973">
        <ele>305.0</ele>
        <time>2019-04-30T05:54:16.000Z</time>
      </trkpt>
      <trkpt lat="42.522544860839844" lon="-7.515955924987793">
        <ele>305.0</ele>
        <time>2019-04-30T05:54:20.000Z</time>
      </trkpt>
      <trkpt lat="42.52253341674805" lon="-7.516000270843506">
        <ele>305.0</ele>
        <time>2019-04-30T05:54:23.000Z</time>
      </trkpt>
      <trkpt lat="42.52253723144531" lon="-7.516043186187744">
        <ele>306.0</ele>
        <time>2019-04-30T05:54:27.000Z</time>
      </trkpt>
      <trkpt lat="42.52254867553711" lon="-7.516084671020508">
        <ele>306.0</ele>
        <time>2019-04-30T05:54:30.000Z</time>
      </trkpt>
      <trkpt lat="42.5225715637207" lon="-7.516145706176758">
        <ele>306.0</ele>
        <time>2019-04-30T05:54:35.000Z</time>
      </trkpt>
      <trkpt lat="42.522605895996094" lon="-7.516213417053223">
        <ele>306.0</ele>
        <time>2019-04-30T05:54:40.000Z</time>
      </trkpt>
      <trkpt lat="42.52265167236328" lon="-7.5162858963012695">
        <ele>306.0</ele>
        <time>2019-04-30T05:54:44.000Z</time>
      </trkpt>
      <trkpt lat="42.52269744873047" lon="-7.516360759735107">
        <ele>306.0</ele>
        <time>2019-04-30T05:54:49.000Z</time>
      </trkpt>
      <trkpt lat="42.5227165222168" lon="-7.516458034515381">
        <ele>306.0</ele>
        <time>2019-04-30T05:54:55.000Z</time>
      </trkpt>
      <trkpt lat="42.522708892822266" lon="-7.516536235809326">
        <ele>306.0</ele>
        <time>2019-04-30T05:55:01.000Z</time>
      </trkpt>
      <trkpt lat="42.52271270751953" lon="-7.51656436920166">
        <ele>306.0</ele>
        <time>2019-04-30T05:55:05.000Z</time>
      </trkpt>
      <trkpt lat="42.52271270751953" lon="-7.516585350036621">
        <ele>306.0</ele>
        <time>2019-04-30T05:55:09.000Z</time>
      </trkpt>
      <trkpt lat="42.5227165222168" lon="-7.516602039337158">
        <ele>306.0</ele>
        <time>2019-04-30T05:55:12.000Z</time>
      </trkpt>
      <trkpt lat="42.5227165222168" lon="-7.5166168212890625">
        <ele>307.0</ele>
        <time>2019-04-30T05:55:16.000Z</time>
      </trkpt>
      <trkpt lat="42.5227165222168" lon="-7.51663064956665">
        <ele>307.0</ele>
        <time>2019-04-30T05:55:16.000Z</time>
      </trkpt>
      <trkpt lat="42.52272033691406" lon="-7.516642093658447">
        <ele>307.0</ele>
        <time>2019-04-30T05:55:17.000Z</time>
      </trkpt>
      <trkpt lat="42.52272033691406" lon="-7.5166521072387695">
        <ele>307.0</ele>
        <time>2019-04-30T05:55:17.000Z</time>
      </trkpt>
      <trkpt lat="42.52272033691406" lon="-7.516661167144775">
        <ele>307.0</ele>
        <time>2019-04-30T05:55:17.000Z</time>
      </trkpt>
      <trkpt lat="42.522743225097656" lon="-7.516735076904297">
        <ele>307.0</ele>
        <time>2019-04-30T05:55:23.000Z</time>
      </trkpt>
      <trkpt lat="42.52277374267578" lon="-7.516835689544678">
        <ele>307.0</ele>
        <time>2019-04-30T05:55:29.000Z</time>
      </trkpt>
      <trkpt lat="42.52280807495117" lon="-7.516953468322754">
        <ele>306.0</ele>
        <time>2019-04-30T05:55:35.000Z</time>
      </trkpt>
      <trkpt lat="42.52284622192383" lon="-7.517079830169678">
        <ele>306.0</ele>
        <time>2019-04-30T05:55:41.000Z</time>
      </trkpt>
      <trkpt lat="42.52286148071289" lon="-7.517161846160889">
        <ele>306.0</ele>
        <time>2019-04-30T05:55:46.000Z</time>
      </trkpt>
      <trkpt lat="42.522865295410156" lon="-7.517233848571777">
        <ele>307.0</ele>
        <time>2019-04-30T05:55:51.000Z</time>
      </trkpt>
      <trkpt lat="42.52286911010742" lon="-7.517299652099609">
        <ele>307.0</ele>
        <time>2019-04-30T05:55:55.000Z</time>
      </trkpt>
      <trkpt lat="42.522865295410156" lon="-7.517362117767334">
        <ele>307.0</ele>
        <time>2019-04-30T05:56:00.000Z</time>
      </trkpt>
      <trkpt lat="42.522857666015625" lon="-7.517392158508301">
        <ele>307.0</ele>
        <time>2019-04-30T05:56:03.000Z</time>
      </trkpt>
      <trkpt lat="42.52284622192383" lon="-7.517405033111572">
        <ele>306.0</ele>
        <time>2019-04-30T05:56:06.000Z</time>
      </trkpt>
      <trkpt lat="42.522830963134766" lon="-7.517406463623047">
        <ele>306.0</ele>
        <time>2019-04-30T05:56:09.000Z</time>
      </trkpt>
      <trkpt lat="42.5228157043457" lon="-7.517402648925781">
        <ele>305.0</ele>
        <time>2019-04-30T05:56:12.000Z</time>
      </trkpt>
      <trkpt lat="42.52280807495117" lon="-7.517409801483154">
        <ele>305.0</ele>
        <time>2019-04-30T05:56:12.000Z</time>
      </trkpt>
      <trkpt lat="42.52280044555664" lon="-7.517416477203369">
        <ele>305.0</ele>
        <time>2019-04-30T05:56:13.000Z</time>
      </trkpt>
      <trkpt lat="42.52279281616211" lon="-7.517421722412109">
        <ele>305.0</ele>
        <time>2019-04-30T05:56:13.000Z</time>
      </trkpt>
      <trkpt lat="42.52278518676758" lon="-7.51742696762085">
        <ele>305.0</ele>
        <time>2019-04-30T05:56:13.000Z</time>
      </trkpt>
      <trkpt lat="42.52275466918945" lon="-7.517448425292969">
        <ele>305.0</ele>
        <time>2019-04-30T05:56:15.000Z</time>
      </trkpt>
      <trkpt lat="42.522708892822266" lon="-7.517475605010986">
        <ele>305.0</ele>
        <time>2019-04-30T05:56:17.000Z</time>
      </trkpt>
      <trkpt lat="42.52265930175781" lon="-7.517507076263428">
        <ele>305.0</ele>
        <time>2019-04-30T05:56:19.000Z</time>
      </trkpt>
      <trkpt lat="42.522605895996094" lon="-7.51754093170166">
        <ele>305.0</ele>
        <time>2019-04-30T05:56:21.000Z</time>
      </trkpt>
      <trkpt lat="42.52259063720703" lon="-7.517560958862305">
        <ele>306.0</ele>
        <time>2019-04-30T05:56:29.000Z</time>
      </trkpt>
      <trkpt lat="42.522586822509766" lon="-7.517577171325684">
        <ele>306.0</ele>
        <time>2019-04-30T05:56:38.000Z</time>
      </trkpt>
      <trkpt lat="42.522586822509766" lon="-7.51759147644043">
        <ele>306.0</ele>
        <time>2019-04-30T05:56:46.000Z</time>
      </trkpt>
      <trkpt lat="42.5225944519043" lon="-7.517604351043701">
        <ele>307.0</ele>
        <time>2019-04-30T05:56:54.000Z</time>
      </trkpt>
      <trkpt lat="42.5225944519043" lon="-7.517615795135498">
        <ele>307.0</ele>
        <time>2019-04-30T05:56:54.000Z</time>
      </trkpt>
      <trkpt lat="42.52259063720703" lon="-7.51762580871582">
        <ele>307.0</ele>
        <time>2019-04-30T05:56:55.000Z</time>
      </trkpt>
      <trkpt lat="42.52259063720703" lon="-7.517634391784668">
        <ele>307.0</ele>
        <time>2019-04-30T05:56:55.000Z</time>
      </trkpt>
      <trkpt lat="42.522586822509766" lon="-7.517642498016357">
        <ele>307.0</ele>
        <time>2019-04-30T05:56:55.000Z</time>
      </trkpt>
      <trkpt lat="42.5225830078125" lon="-7.517658233642578">
        <ele>307.0</ele>
        <time>2019-04-30T05:56:56.000Z</time>
      </trkpt>
      <trkpt lat="42.522579193115234" lon="-7.517676830291748">
        <ele>307.0</ele>
        <time>2019-04-30T05:56:56.000Z</time>
      </trkpt>
      <trkpt lat="42.52257537841797" lon="-7.517696857452393">
        <ele>307.0</ele>
        <time>2019-04-30T05:56:57.000Z</time>
      </trkpt>
      <trkpt lat="42.5225715637207" lon="-7.5177178382873535">
        <ele>307.0</ele>
        <time>2019-04-30T05:56:57.000Z</time>
      </trkpt>
      <trkpt lat="42.52256774902344" lon="-7.517726898193359">
        <ele>307.0</ele>
        <time>2019-04-30T05:57:00.000Z</time>
      </trkpt>
      <trkpt lat="42.52256393432617" lon="-7.517731189727783">
        <ele>307.0</ele>
        <time>2019-04-30T05:57:04.000Z</time>
      </trkpt>
      <trkpt lat="42.52256393432617" lon="-7.517733097076416">
        <ele>307.0</ele>
        <time>2019-04-30T05:57:07.000Z</time>
      </trkpt>
      <trkpt lat="42.522560119628906" lon="-7.517733573913574">
        <ele>308.0</ele>
        <time>2019-04-30T05:57:10.000Z</time>
      </trkpt>
      <trkpt lat="42.522560119628906" lon="-7.51773738861084">
        <ele>308.0</ele>
        <time>2019-04-30T05:57:10.000Z</time>
      </trkpt>
      <trkpt lat="42.52255630493164" lon="-7.517740726470947">
        <ele>308.0</ele>
        <time>2019-04-30T05:57:11.000Z</time>
      </trkpt>
      <trkpt lat="42.522552490234375" lon="-7.517744064331055">
        <ele>308.0</ele>
        <time>2019-04-30T05:57:11.000Z</time>
      </trkpt>
      <trkpt lat="42.522552490234375" lon="-7.517747402191162">
        <ele>308.0</ele>
        <time>2019-04-30T05:57:11.000Z</time>
      </trkpt>
      <trkpt lat="42.52252960205078" lon="-7.5177812576293945">
        <ele>308.0</ele>
        <time>2019-04-30T05:57:13.000Z</time>
      </trkpt>
      <trkpt lat="42.522499084472656" lon="-7.517828464508057">
        <ele>308.0</ele>
        <time>2019-04-30T05:57:15.000Z</time>
      </trkpt>
      <trkpt lat="42.522464752197266" lon="-7.517883777618408">
        <ele>308.0</ele>
        <time>2019-04-30T05:57:17.000Z</time>
      </trkpt>
      <trkpt lat="42.522422790527344" lon="-7.517943382263184">
        <ele>308.0</ele>
        <time>2019-04-30T05:57:19.000Z</time>
      </trkpt>
      <trkpt lat="42.52241516113281" lon="-7.517950057983398">
        <ele>309.0</ele>
        <time>2019-04-30T05:57:42.000Z</time>
      </trkpt>
      <trkpt lat="42.52241897583008" lon="-7.51793909072876">
        <ele>312.0</ele>
        <time>2019-04-30T05:58:05.000Z</time>
      </trkpt>
      <trkpt lat="42.522430419921875" lon="-7.517916679382324">
        <ele>316.0</ele>
        <time>2019-04-30T05:58:28.000Z</time>
      </trkpt>
      <trkpt lat="42.52244567871094" lon="-7.517887592315674">
        <ele>320.0</ele>
        <time>2019-04-30T05:58:51.000Z</time>
      </trkpt>
      <trkpt lat="42.5224494934082" lon="-7.517877578735352">
        <ele>320.0</ele>
        <time>2019-04-30T05:58:51.000Z</time>
      </trkpt>
      <trkpt lat="42.52245330810547" lon="-7.517868518829346">
        <ele>321.0</ele>
        <time>2019-04-30T05:58:52.000Z</time>
      </trkpt>
      <trkpt lat="42.52245330810547" lon="-7.517860412597656">
        <ele>320.0</ele>
        <time>2019-04-30T05:58:52.000Z</time>
      </trkpt>
      <trkpt lat="42.522457122802734" lon="-7.517853260040283">
        <ele>320.0</ele>
        <time>2019-04-30T05:58:52.000Z</time>
      </trkpt>
      <trkpt lat="42.5224609375" lon="-7.517843246459961">
        <ele>320.0</ele>
        <time>2019-04-30T05:58:53.000Z</time>
      </trkpt>
      <trkpt lat="42.522464752197266" lon="-7.517833232879639">
        <ele>320.0</ele>
        <time>2019-04-30T05:58:53.000Z</time>
      </trkpt>
      <trkpt lat="42.52246856689453" lon="-7.517822265625">
        <ele>320.0</ele>
        <time>2019-04-30T05:58:54.000Z</time>
      </trkpt>
      <trkpt lat="42.5224723815918" lon="-7.5178117752075195">
        <ele>320.0</ele>
        <time>2019-04-30T05:58:54.000Z</time>
      </trkpt>
      <trkpt lat="42.52248001098633" lon="-7.51779842376709">
        <ele>320.0</ele>
        <time>2019-04-30T05:58:57.000Z</time>
      </trkpt>
      <trkpt lat="42.52248764038086" lon="-7.517784118652344">
        <ele>321.0</ele>
        <time>2019-04-30T05:58:59.000Z</time>
      </trkpt>
      <trkpt lat="42.522499084472656" lon="-7.5177693367004395">
        <ele>321.0</ele>
        <time>2019-04-30T05:59:02.000Z</time>
      </trkpt>
      <trkpt lat="42.52251052856445" lon="-7.517753601074219">
        <ele>322.0</ele>
        <time>2019-04-30T05:59:04.000Z</time>
      </trkpt>
      <trkpt lat="42.522518157958984" lon="-7.517743110656738">
        <ele>322.0</ele>
        <time>2019-04-30T05:59:04.000Z</time>
      </trkpt>
      <trkpt lat="42.522525787353516" lon="-7.517734527587891">
        <ele>322.0</ele>
        <time>2019-04-30T05:59:05.000Z</time>
      </trkpt>
      <trkpt lat="42.52252960205078" lon="-7.517726898193359">
        <ele>322.0</ele>
        <time>2019-04-30T05:59:05.000Z</time>
      </trkpt>
      <trkpt lat="42.52253723144531" lon="-7.517719745635986">
        <ele>322.0</ele>
        <time>2019-04-30T05:59:05.000Z</time>
      </trkpt>
      <trkpt lat="42.5225830078125" lon="-7.517673969268799">
        <ele>322.0</ele>
        <time>2019-04-30T05:59:08.000Z</time>
      </trkpt>
      <trkpt lat="42.52265167236328" lon="-7.517612457275391">
        <ele>322.0</ele>
        <time>2019-04-30T05:59:11.000Z</time>
      </trkpt>
      <trkpt lat="42.52273178100586" lon="-7.517540454864502">
        <ele>323.0</ele>
        <time>2019-04-30T05:59:14.000Z</time>
      </trkpt>
      <trkpt lat="42.52281951904297" lon="-7.517463207244873">
        <ele>323.0</ele>
        <time>2019-04-30T05:59:17.000Z</time>
      </trkpt>
      <trkpt lat="42.523136138916016" lon="-7.517265796661377">
        <ele>328.0</ele>
        <time>2019-04-30T05:59:43.000Z</time>
      </trkpt>
      <trkpt lat="42.52318572998047" lon="-7.5172553062438965">
        <ele>328.0</ele>
        <time>2019-04-30T05:59:55.000Z</time>
      </trkpt>
      <trkpt lat="42.5231819152832" lon="-7.517285346984863">
        <ele>327.0</ele>
        <time>2019-04-30T06:00:06.000Z</time>
      </trkpt>
      <trkpt lat="42.523193359375" lon="-7.517289161682129">
        <ele>327.0</ele>
        <time>2019-04-30T06:00:06.000Z</time>
      </trkpt>
      <trkpt lat="42.52320098876953" lon="-7.517292499542236">
        <ele>327.0</ele>
        <time>2019-04-30T06:00:07.000Z</time>
      </trkpt>
      <trkpt lat="42.52320861816406" lon="-7.5172953605651855">
        <ele>327.0</ele>
        <time>2019-04-30T06:00:07.000Z</time>
      </trkpt>
      <trkpt lat="42.52321243286133" lon="-7.517297744750977">
        <ele>327.0</ele>
        <time>2019-04-30T06:00:07.000Z</time>
      </trkpt>
      <trkpt lat="42.52326965332031" lon="-7.517323970794678">
        <ele>327.0</ele>
        <time>2019-04-30T06:00:10.000Z</time>
      </trkpt>
      <trkpt lat="42.523345947265625" lon="-7.517359733581543">
        <ele>326.0</ele>
        <time>2019-04-30T06:00:14.000Z</time>
      </trkpt>
      <trkpt lat="42.5234375" lon="-7.517402172088623">
        <ele>326.0</ele>
        <time>2019-04-30T06:00:17.000Z</time>
      </trkpt>
      <trkpt lat="42.52353286743164" lon="-7.517447471618652">
        <ele>325.0</ele>
        <time>2019-04-30T06:00:20.000Z</time>
      </trkpt>
      <trkpt lat="42.52358627319336" lon="-7.517475605010986">
        <ele>324.0</ele>
        <time>2019-04-30T06:00:23.000Z</time>
      </trkpt>
      <trkpt lat="42.52362823486328" lon="-7.517498970031738">
        <ele>323.0</ele>
        <time>2019-04-30T06:00:26.000Z</time>
      </trkpt>
      <trkpt lat="42.52366256713867" lon="-7.517519950866699">
        <ele>322.0</ele>
        <time>2019-04-30T06:00:29.000Z</time>
      </trkpt>
      <trkpt lat="42.52368927001953" lon="-7.5175395011901855">
        <ele>321.0</ele>
        <time>2019-04-30T06:00:32.000Z</time>
      </trkpt>
      <trkpt lat="42.523712158203125" lon="-7.517555236816406">
        <ele>320.0</ele>
        <time>2019-04-30T06:00:39.000Z</time>
      </trkpt>
      <trkpt lat="42.52373123168945" lon="-7.517567157745361">
        <ele>318.0</ele>
        <time>2019-04-30T06:00:46.000Z</time>
      </trkpt>
      <trkpt lat="42.52374267578125" lon="-7.517577648162842">
        <ele>317.0</ele>
        <time>2019-04-30T06:00:53.000Z</time>
      </trkpt>
      <trkpt lat="42.52375411987305" lon="-7.517586708068848">
        <ele>316.0</ele>
        <time>2019-04-30T06:01:00.000Z</time>
      </trkpt>
      <trkpt lat="42.523765563964844" lon="-7.517596244812012">
        <ele>315.0</ele>
        <time>2019-04-30T06:01:00.000Z</time>
      </trkpt>
      <trkpt lat="42.52377700805664" lon="-7.517604827880859">
        <ele>315.0</ele>
        <time>2019-04-30T06:01:01.000Z</time>
      </trkpt>
      <trkpt lat="42.52378845214844" lon="-7.517612457275391">
        <ele>316.0</ele>
        <time>2019-04-30T06:01:01.000Z</time>
      </trkpt>
      <trkpt lat="42.52379608154297" lon="-7.517620086669922">
        <ele>316.0</ele>
        <time>2019-04-30T06:01:01.000Z</time>
      </trkpt>
      <trkpt lat="42.52399444580078" lon="-7.517872333526611">
        <ele>315.0</ele>
        <time>2019-04-30T06:01:05.000Z</time>
      </trkpt>
      <trkpt lat="42.52400207519531" lon="-7.5179243087768555">
        <ele>315.0</ele>
        <time>2019-04-30T06:01:07.000Z</time>
      </trkpt>
      <trkpt lat="42.52399444580078" lon="-7.517971038818359">
        <ele>314.0</ele>
        <time>2019-04-30T06:01:09.000Z</time>
      </trkpt>
      <trkpt lat="42.52397155761719" lon="-7.518014907836914">
        <ele>313.0</ele>
        <time>2019-04-30T06:01:10.000Z</time>
      </trkpt>
      <trkpt lat="42.52394485473633" lon="-7.518056869506836">
        <ele>313.0</ele>
        <time>2019-04-30T06:01:12.000Z</time>
      </trkpt>
      <trkpt lat="42.52397155761719" lon="-7.518136024475098">
        <ele>311.0</ele>
        <time>2019-04-30T06:01:20.000Z</time>
      </trkpt>
      <trkpt lat="42.524017333984375" lon="-7.5182294845581055">
        <ele>309.0</ele>
        <time>2019-04-30T06:01:28.000Z</time>
      </trkpt>
      <trkpt lat="42.524070739746094" lon="-7.518331527709961">
        <ele>308.0</ele>
        <time>2019-04-30T06:01:35.000Z</time>
      </trkpt>
      <trkpt lat="42.524131774902344" lon="-7.518438339233398">
        <ele>306.0</ele>
        <time>2019-04-30T06:01:43.000Z</time>
      </trkpt>
      <trkpt lat="42.52415084838867" lon="-7.518485069274902">
        <ele>305.0</ele>
        <time>2019-04-30T06:01:45.000Z</time>
      </trkpt>
      <trkpt lat="42.5241584777832" lon="-7.5185112953186035">
        <ele>304.0</ele>
        <time>2019-04-30T06:01:47.000Z</time>
      </trkpt>
      <trkpt lat="42.5241584777832" lon="-7.518524169921875">
        <ele>304.0</ele>
        <time>2019-04-30T06:01:48.000Z</time>
      </trkpt>
      <trkpt lat="42.52415466308594" lon="-7.518530368804932">
        <ele>304.0</ele>
        <time>2019-04-30T06:01:50.000Z</time>
      </trkpt>
      <trkpt lat="42.524166107177734" lon="-7.51854944229126">
        <ele>303.0</ele>
        <time>2019-04-30T06:01:55.000Z</time>
      </trkpt>
      <trkpt lat="42.524173736572266" lon="-7.518567085266113">
        <ele>301.0</ele>
        <time>2019-04-30T06:01:59.000Z</time>
      </trkpt>
      <trkpt lat="42.52418899536133" lon="-7.51858377456665">
        <ele>300.0</ele>
        <time>2019-04-30T06:02:04.000Z</time>
      </trkpt>
      <trkpt lat="42.524200439453125" lon="-7.518599987030029">
        <ele>298.0</ele>
        <time>2019-04-30T06:02:08.000Z</time>
      </trkpt>
      <trkpt lat="42.524208068847656" lon="-7.518611431121826">
        <ele>298.0</ele>
        <time>2019-04-30T06:02:08.000Z</time>
      </trkpt>
      <trkpt lat="42.52421569824219" lon="-7.518620491027832">
        <ele>298.0</ele>
        <time>2019-04-30T06:02:09.000Z</time>
      </trkpt>
      <trkpt lat="42.52421951293945" lon="-7.518628120422363">
        <ele>298.0</ele>
        <time>2019-04-30T06:02:09.000Z</time>
      </trkpt>
      <trkpt lat="42.52422332763672" lon="-7.518634796142578">
        <ele>298.0</ele>
        <time>2019-04-30T06:02:09.000Z</time>
      </trkpt>
      <trkpt lat="42.52425003051758" lon="-7.518704414367676">
        <ele>298.0</ele>
        <time>2019-04-30T06:02:14.000Z</time>
      </trkpt>
      <trkpt lat="42.524288177490234" lon="-7.518799781799316">
        <ele>297.0</ele>
        <time>2019-04-30T06:02:20.000Z</time>
      </trkpt>
      <trkpt lat="42.524330139160156" lon="-7.518912315368652">
        <ele>296.0</ele>
        <time>2019-04-30T06:02:25.000Z</time>
      </trkpt>
      <trkpt lat="42.524375915527344" lon="-7.519032955169678">
        <ele>295.0</ele>
        <time>2019-04-30T06:02:30.000Z</time>
      </trkpt>
      <trkpt lat="42.5244140625" lon="-7.519130706787109">
        <ele>293.0</ele>
        <time>2019-04-30T06:02:37.000Z</time>
      </trkpt>
      <trkpt lat="42.524452209472656" lon="-7.519227981567383">
        <ele>292.0</ele>
        <time>2019-04-30T06:02:43.000Z</time>
      </trkpt>
      <trkpt lat="42.52449417114258" lon="-7.519324779510498">
        <ele>291.0</ele>
        <time>2019-04-30T06:02:50.000Z</time>
      </trkpt>
      <trkpt lat="42.524532318115234" lon="-7.519421577453613">
        <ele>290.0</ele>
        <time>2019-04-30T06:02:56.000Z</time>
      </trkpt>
      <trkpt lat="42.524574279785156" lon="-7.519499778747559">
        <ele>288.0</ele>
        <time>2019-04-30T06:03:09.000Z</time>
      </trkpt>
      <trkpt lat="42.524593353271484" lon="-7.519538879394531">
        <ele>288.0</ele>
        <time>2019-04-30T06:03:10.000Z</time>
      </trkpt>
      <trkpt lat="42.52466583251953" lon="-7.519769668579102">
        <ele>287.0</ele>
        <time>2019-04-30T06:03:18.000Z</time>
      </trkpt>
      <trkpt lat="42.52473449707031" lon="-7.519840717315674">
        <ele>286.0</ele>
        <time>2019-04-30T06:03:26.000Z</time>
      </trkpt>
      <trkpt lat="42.524818420410156" lon="-7.519890785217285">
        <ele>286.0</ele>
        <time>2019-04-30T06:03:34.000Z</time>
      </trkpt>
      <trkpt lat="42.52483367919922" lon="-7.519906997680664">
        <ele>286.0</ele>
        <time>2019-04-30T06:03:38.000Z</time>
      </trkpt>
      <trkpt lat="42.524837493896484" lon="-7.519917011260986">
        <ele>287.0</ele>
        <time>2019-04-30T06:03:42.000Z</time>
      </trkpt>
      <trkpt lat="42.524837493896484" lon="-7.519923210144043">
        <ele>288.0</ele>
        <time>2019-04-30T06:03:45.000Z</time>
      </trkpt>
      <trkpt lat="42.52483367919922" lon="-7.519927501678467">
        <ele>289.0</ele>
        <time>2019-04-30T06:03:49.000Z</time>
      </trkpt>
      <trkpt lat="42.52483367919922" lon="-7.51993465423584">
        <ele>289.0</ele>
        <time>2019-04-30T06:03:49.000Z</time>
      </trkpt>
      <trkpt lat="42.524837493896484" lon="-7.519941806793213">
        <ele>289.0</ele>
        <time>2019-04-30T06:03:50.000Z</time>
      </trkpt>
      <trkpt lat="42.52484130859375" lon="-7.5199480056762695">
        <ele>289.0</ele>
        <time>2019-04-30T06:03:50.000Z</time>
      </trkpt>
      <trkpt lat="42.52484130859375" lon="-7.519954681396484">
        <ele>289.0</ele>
        <time>2019-04-30T06:03:50.000Z</time>
      </trkpt>
      <trkpt lat="42.524864196777344" lon="-7.5200276374816895">
        <ele>289.0</ele>
        <time>2019-04-30T06:03:54.000Z</time>
      </trkpt>
      <trkpt lat="42.524898529052734" lon="-7.52012825012207">
        <ele>290.0</ele>
        <time>2019-04-30T06:03:58.000Z</time>
      </trkpt>
      <trkpt lat="42.52493667602539" lon="-7.520247936248779">
        <ele>291.0</ele>
        <time>2019-04-30T06:04:01.000Z</time>
      </trkpt>
      <trkpt lat="42.52497482299805" lon="-7.520376205444336">
        <ele>292.0</ele>
        <time>2019-04-30T06:04:05.000Z</time>
      </trkpt>
      <trkpt lat="42.52499008178711" lon="-7.520425319671631">
        <ele>292.0</ele>
        <time>2019-04-30T06:04:07.000Z</time>
      </trkpt>
      <trkpt lat="42.52499771118164" lon="-7.520450592041016">
        <ele>292.0</ele>
        <time>2019-04-30T06:04:09.000Z</time>
      </trkpt>
      <trkpt lat="42.52499771118164" lon="-7.520460605621338">
        <ele>292.0</ele>
        <time>2019-04-30T06:04:10.000Z</time>
      </trkpt>
      <trkpt lat="42.52499771118164" lon="-7.5204620361328125">
        <ele>292.0</ele>
        <time>2019-04-30T06:04:12.000Z</time>
      </trkpt>
      <trkpt lat="42.525001525878906" lon="-7.5204758644104">
        <ele>292.0</ele>
        <time>2019-04-30T06:04:16.000Z</time>
      </trkpt>
      <trkpt lat="42.52500534057617" lon="-7.520486354827881">
        <ele>293.0</ele>
        <time>2019-04-30T06:04:20.000Z</time>
      </trkpt>
      <trkpt lat="42.52500534057617" lon="-7.52049446105957">
        <ele>293.0</ele>
        <time>2019-04-30T06:04:23.000Z</time>
      </trkpt>
      <trkpt lat="42.52500534057617" lon="-7.520502090454102">
        <ele>293.0</ele>
        <time>2019-04-30T06:04:27.000Z</time>
      </trkpt>
      <trkpt lat="42.5250129699707" lon="-7.520531177520752">
        <ele>293.0</ele>
        <time>2019-04-30T06:04:28.000Z</time>
      </trkpt>
      <trkpt lat="42.52506637573242" lon="-7.520944595336914">
        <ele>295.0</ele>
        <time>2019-04-30T06:04:45.000Z</time>
      </trkpt>
      <trkpt lat="42.52509307861328" lon="-7.521373271942139">
        <ele>294.0</ele>
        <time>2019-04-30T06:05:09.000Z</time>
      </trkpt>
      <trkpt lat="42.525177001953125" lon="-7.521827697753906">
        <ele>293.0</ele>
        <time>2019-04-30T06:05:35.000Z</time>
      </trkpt>
      <trkpt lat="42.52525329589844" lon="-7.522279262542725">
        <ele>295.0</ele>
        <time>2019-04-30T06:06:07.000Z</time>
      </trkpt>
      <trkpt lat="42.525333404541016" lon="-7.522735595703125">
        <ele>300.0</ele>
        <time>2019-04-30T06:06:37.000Z</time>
      </trkpt>
      <trkpt lat="42.52538299560547" lon="-7.52311372756958">
        <ele>300.0</ele>
        <time>2019-04-30T06:07:05.000Z</time>
      </trkpt>
      <trkpt lat="42.525390625" lon="-7.523135185241699">
        <ele>299.0</ele>
        <time>2019-04-30T06:07:23.000Z</time>
      </trkpt>
      <trkpt lat="42.52539825439453" lon="-7.523152828216553">
        <ele>299.0</ele>
        <time>2019-04-30T06:07:24.000Z</time>
      </trkpt>
      <trkpt lat="42.52544021606445" lon="-7.52323579788208">
        <ele>299.0</ele>
        <time>2019-04-30T06:07:28.000Z</time>
      </trkpt>
      <trkpt lat="42.52546691894531" lon="-7.523317337036133">
        <ele>298.0</ele>
        <time>2019-04-30T06:07:42.000Z</time>
      </trkpt>
      <trkpt lat="42.525482177734375" lon="-7.523359298706055">
        <ele>298.0</ele>
        <time>2019-04-30T06:07:43.000Z</time>
      </trkpt>
      <trkpt lat="42.52548599243164" lon="-7.523370265960693">
        <ele>298.0</ele>
        <time>2019-04-30T06:07:44.000Z</time>
      </trkpt>
      <trkpt lat="42.52548599243164" lon="-7.5234198570251465">
        <ele>297.0</ele>
        <time>2019-04-30T06:07:51.000Z</time>
      </trkpt>
      <trkpt lat="42.525482177734375" lon="-7.5234551429748535">
        <ele>297.0</ele>
        <time>2019-04-30T06:07:52.000Z</time>
      </trkpt>
      <trkpt lat="42.52541732788086" lon="-7.523910999298096">
        <ele>296.0</ele>
        <time>2019-04-30T06:08:06.000Z</time>
      </trkpt>
      <trkpt lat="42.525421142578125" lon="-7.523974895477295">
        <ele>295.0</ele>
        <time>2019-04-30T06:08:09.000Z</time>
      </trkpt>
      <trkpt lat="42.52544403076172" lon="-7.523963451385498">
        <ele>295.0</ele>
        <time>2019-04-30T06:08:12.000Z</time>
      </trkpt>
      <trkpt lat="42.525447845458984" lon="-7.5239715576171875">
        <ele>295.0</ele>
        <time>2019-04-30T06:08:15.000Z</time>
      </trkpt>
      <trkpt lat="42.52545166015625" lon="-7.523977756500244">
        <ele>295.0</ele>
        <time>2019-04-30T06:08:19.000Z</time>
      </trkpt>
      <trkpt lat="42.525455474853516" lon="-7.523982524871826">
        <ele>295.0</ele>
        <time>2019-04-30T06:08:22.000Z</time>
      </trkpt>
      <trkpt lat="42.52545928955078" lon="-7.523986339569092">
        <ele>294.0</ele>
        <time>2019-04-30T06:08:25.000Z</time>
      </trkpt>
      <trkpt lat="42.52546310424805" lon="-7.523991584777832">
        <ele>294.0</ele>
        <time>2019-04-30T06:08:25.000Z</time>
      </trkpt>
      <trkpt lat="42.52546691894531" lon="-7.523995876312256">
        <ele>294.0</ele>
        <time>2019-04-30T06:08:26.000Z</time>
      </trkpt>
      <trkpt lat="42.52546691894531" lon="-7.524000644683838">
        <ele>294.0</ele>
        <time>2019-04-30T06:08:26.000Z</time>
      </trkpt>
      <trkpt lat="42.52547073364258" lon="-7.524004936218262">
        <ele>294.0</ele>
        <time>2019-04-30T06:08:26.000Z</time>
      </trkpt>
      <trkpt lat="42.525508880615234" lon="-7.524063587188721">
        <ele>295.0</ele>
        <time>2019-04-30T06:08:29.000Z</time>
      </trkpt>
      <trkpt lat="42.52556228637695" lon="-7.524145603179932">
        <ele>295.0</ele>
        <time>2019-04-30T06:08:32.000Z</time>
      </trkpt>
      <trkpt lat="42.5256233215332" lon="-7.524242401123047">
        <ele>295.0</ele>
        <time>2019-04-30T06:08:34.000Z</time>
      </trkpt>
      <trkpt lat="42.525691986083984" lon="-7.524346828460693">
        <ele>295.0</ele>
        <time>2019-04-30T06:08:37.000Z</time>
      </trkpt>
      <trkpt lat="42.52573776245117" lon="-7.524418354034424">
        <ele>296.0</ele>
        <time>2019-04-30T06:08:40.000Z</time>
      </trkpt>
      <trkpt lat="42.52577590942383" lon="-7.5244832038879395">
        <ele>296.0</ele>
        <time>2019-04-30T06:08:43.000Z</time>
      </trkpt>
      <trkpt lat="42.525814056396484" lon="-7.524544715881348">
        <ele>297.0</ele>
        <time>2019-04-30T06:08:46.000Z</time>
      </trkpt>
      <trkpt lat="42.525848388671875" lon="-7.524603843688965">
        <ele>297.0</ele>
        <time>2019-04-30T06:08:49.000Z</time>
      </trkpt>
      <trkpt lat="42.52582550048828" lon="-7.52467155456543">
        <ele>298.0</ele>
        <time>2019-04-30T06:08:52.000Z</time>
      </trkpt>
      <trkpt lat="42.52577590942383" lon="-7.524740695953369">
        <ele>298.0</ele>
        <time>2019-04-30T06:08:54.000Z</time>
      </trkpt>
      <trkpt lat="42.52571105957031" lon="-7.524810314178467">
        <ele>298.0</ele>
        <time>2019-04-30T06:08:57.000Z</time>
      </trkpt>
      <trkpt lat="42.525638580322266" lon="-7.524880886077881">
        <ele>298.0</ele>
        <time>2019-04-30T06:08:59.000Z</time>
      </trkpt>
      <trkpt lat="42.52560806274414" lon="-7.52492618560791">
        <ele>299.0</ele>
        <time>2019-04-30T06:09:01.000Z</time>
      </trkpt>
      <trkpt lat="42.52558898925781" lon="-7.524960994720459">
        <ele>299.0</ele>
        <time>2019-04-30T06:09:03.000Z</time>
      </trkpt>
      <trkpt lat="42.525577545166016" lon="-7.524989128112793">
        <ele>299.0</ele>
        <time>2019-04-30T06:09:04.000Z</time>
      </trkpt>
      <trkpt lat="42.525569915771484" lon="-7.5250139236450195">
        <ele>300.0</ele>
        <time>2019-04-30T06:09:06.000Z</time>
      </trkpt>
      <trkpt lat="42.52558135986328" lon="-7.525079250335693">
        <ele>300.0</ele>
        <time>2019-04-30T06:09:11.000Z</time>
      </trkpt>
      <trkpt lat="42.52560043334961" lon="-7.525157451629639">
        <ele>301.0</ele>
        <time>2019-04-30T06:09:15.000Z</time>
      </trkpt>
      <trkpt lat="42.525630950927734" lon="-7.525245189666748">
        <ele>301.0</ele>
        <time>2019-04-30T06:09:20.000Z</time>
      </trkpt>
      <trkpt lat="42.52566146850586" lon="-7.525336742401123">
        <ele>302.0</ele>
        <time>2019-04-30T06:09:24.000Z</time>
      </trkpt>
      <trkpt lat="42.525672912597656" lon="-7.52537727355957">
        <ele>302.0</ele>
        <time>2019-04-30T06:09:26.000Z</time>
      </trkpt>
      <trkpt lat="42.525672912597656" lon="-7.5254011154174805">
        <ele>303.0</ele>
        <time>2019-04-30T06:09:28.000Z</time>
      </trkpt>
      <trkpt lat="42.525672912597656" lon="-7.525413513183594">
        <ele>303.0</ele>
        <time>2019-04-30T06:09:29.000Z</time>
      </trkpt>
      <trkpt lat="42.525672912597656" lon="-7.525420665740967">
        <ele>303.0</ele>
        <time>2019-04-30T06:09:31.000Z</time>
      </trkpt>
      <trkpt lat="42.525672912597656" lon="-7.525430202484131">
        <ele>303.0</ele>
        <time>2019-04-30T06:09:35.000Z</time>
      </trkpt>
      <trkpt lat="42.525672912597656" lon="-7.525434970855713">
        <ele>304.0</ele>
        <time>2019-04-30T06:09:39.000Z</time>
      </trkpt>
      <trkpt lat="42.525672912597656" lon="-7.5254364013671875">
        <ele>304.0</ele>
        <time>2019-04-30T06:09:43.000Z</time>
      </trkpt>
      <trkpt lat="42.525672912597656" lon="-7.525435924530029">
        <ele>305.0</ele>
        <time>2019-04-30T06:09:47.000Z</time>
      </trkpt>
      <trkpt lat="42.525672912597656" lon="-7.525439739227295">
        <ele>305.0</ele>
        <time>2019-04-30T06:09:47.000Z</time>
      </trkpt>
      <trkpt lat="42.525672912597656" lon="-7.525443077087402">
        <ele>305.0</ele>
        <time>2019-04-30T06:09:48.000Z</time>
      </trkpt>
      <trkpt lat="42.525672912597656" lon="-7.525446891784668">
        <ele>305.0</ele>
        <time>2019-04-30T06:09:48.000Z</time>
      </trkpt>
      <trkpt lat="42.525672912597656" lon="-7.525450229644775">
        <ele>305.0</ele>
        <time>2019-04-30T06:09:48.000Z</time>
      </trkpt>
      <trkpt lat="42.52568054199219" lon="-7.525518894195557">
        <ele>305.0</ele>
        <time>2019-04-30T06:09:52.000Z</time>
      </trkpt>
      <trkpt lat="42.52568817138672" lon="-7.5256147384643555">
        <ele>306.0</ele>
        <time>2019-04-30T06:09:56.000Z</time>
      </trkpt>
      <trkpt lat="42.525699615478516" lon="-7.525729179382324">
        <ele>307.0</ele>
        <time>2019-04-30T06:09:59.000Z</time>
      </trkpt>
      <trkpt lat="42.52571487426758" lon="-7.525852203369141">
        <ele>308.0</ele>
        <time>2019-04-30T06:10:03.000Z</time>
      </trkpt>
      <trkpt lat="42.52577590942383" lon="-7.52601432800293">
        <ele>307.0</ele>
        <time>2019-04-30T06:10:12.000Z</time>
      </trkpt>
      <trkpt lat="42.52585983276367" lon="-7.526158332824707">
        <ele>305.0</ele>
        <time>2019-04-30T06:10:20.000Z</time>
      </trkpt>
      <trkpt lat="42.52586364746094" lon="-7.52619743347168">
        <ele>304.0</ele>
        <time>2019-04-30T06:10:23.000Z</time>
      </trkpt>
      <trkpt lat="42.52585220336914" lon="-7.526220798492432">
        <ele>304.0</ele>
        <time>2019-04-30T06:10:26.000Z</time>
      </trkpt>
      <trkpt lat="42.52582931518555" lon="-7.526233673095703">
        <ele>305.0</ele>
        <time>2019-04-30T06:10:28.000Z</time>
      </trkpt>
      <trkpt lat="42.52580642700195" lon="-7.526241302490234">
        <ele>305.0</ele>
        <time>2019-04-30T06:10:31.000Z</time>
      </trkpt>
      <trkpt lat="42.52580261230469" lon="-7.526255130767822">
        <ele>305.0</ele>
        <time>2019-04-30T06:10:35.000Z</time>
      </trkpt>
      <trkpt lat="42.52580642700195" lon="-7.526266098022461">
        <ele>305.0</ele>
        <time>2019-04-30T06:10:39.000Z</time>
      </trkpt>
      <trkpt lat="42.52581024169922" lon="-7.526275157928467">
        <ele>305.0</ele>
        <time>2019-04-30T06:10:43.000Z</time>
      </trkpt>
      <trkpt lat="42.52581787109375" lon="-7.526283264160156">
        <ele>305.0</ele>
        <time>2019-04-30T06:10:47.000Z</time>
      </trkpt>
      <trkpt lat="42.525821685791016" lon="-7.526291847229004">
        <ele>305.0</ele>
        <time>2019-04-30T06:10:47.000Z</time>
      </trkpt>
      <trkpt lat="42.525821685791016" lon="-7.526299476623535">
        <ele>305.0</ele>
        <time>2019-04-30T06:10:48.000Z</time>
      </trkpt>
      <trkpt lat="42.52582550048828" lon="-7.526306629180908">
        <ele>305.0</ele>
        <time>2019-04-30T06:10:48.000Z</time>
      </trkpt>
      <trkpt lat="42.52582550048828" lon="-7.526313781738281">
        <ele>305.0</ele>
        <time>2019-04-30T06:10:48.000Z</time>
      </trkpt>
      <trkpt lat="42.525840759277344" lon="-7.52639102935791">
        <ele>305.0</ele>
        <time>2019-04-30T06:10:52.000Z</time>
      </trkpt>
      <trkpt lat="42.525856018066406" lon="-7.5264973640441895">
        <ele>304.0</ele>
        <time>2019-04-30T06:10:56.000Z</time>
      </trkpt>
      <trkpt lat="42.525875091552734" lon="-7.526623249053955">
        <ele>304.0</ele>
        <time>2019-04-30T06:10:59.000Z</time>
      </trkpt>
      <trkpt lat="42.52589797973633" lon="-7.526759147644043">
        <ele>304.0</ele>
        <time>2019-04-30T06:11:03.000Z</time>
      </trkpt>
      <trkpt lat="42.52593231201172" lon="-7.526861190795898">
        <ele>304.0</ele>
        <time>2019-04-30T06:11:09.000Z</time>
      </trkpt>
      <trkpt lat="42.52597427368164" lon="-7.526959419250488">
        <ele>304.0</ele>
        <time>2019-04-30T06:11:16.000Z</time>
      </trkpt>
      <trkpt lat="42.52602005004883" lon="-7.527055263519287">
        <ele>304.0</ele>
        <time>2019-04-30T06:11:22.000Z</time>
      </trkpt>
      <trkpt lat="42.52606964111328" lon="-7.527149677276611">
        <ele>304.0</ele>
        <time>2019-04-30T06:11:28.000Z</time>
      </trkpt>
      <trkpt lat="42.5261116027832" lon="-7.527252197265625">
        <ele>304.0</ele>
        <time>2019-04-30T06:11:36.000Z</time>
      </trkpt>
      <trkpt lat="42.52614974975586" lon="-7.52735710144043">
        <ele>304.0</ele>
        <time>2019-04-30T06:11:44.000Z</time>
      </trkpt>
      <trkpt lat="42.52619171142578" lon="-7.527463436126709">
        <ele>303.0</ele>
        <time>2019-04-30T06:11:51.000Z</time>
      </trkpt>
      <trkpt lat="42.52622985839844" lon="-7.5275702476501465">
        <ele>303.0</ele>
        <time>2019-04-30T06:11:59.000Z</time>
      </trkpt>
      <trkpt lat="42.52627182006836" lon="-7.527673721313477">
        <ele>303.0</ele>
        <time>2019-04-30T06:12:08.000Z</time>
      </trkpt>
      <trkpt lat="42.526309967041016" lon="-7.527776718139648">
        <ele>304.0</ele>
        <time>2019-04-30T06:12:18.000Z</time>
      </trkpt>
      <trkpt lat="42.52635192871094" lon="-7.52787971496582">
        <ele>304.0</ele>
        <time>2019-04-30T06:12:27.000Z</time>
      </trkpt>
      <trkpt lat="42.52639389038086" lon="-7.527982234954834">
        <ele>305.0</ele>
        <time>2019-04-30T06:12:36.000Z</time>
      </trkpt>
      <trkpt lat="42.52641677856445" lon="-7.52802848815918">
        <ele>305.0</ele>
        <time>2019-04-30T06:12:52.000Z</time>
      </trkpt>
      <trkpt lat="42.526432037353516" lon="-7.528059959411621">
        <ele>305.0</ele>
        <time>2019-04-30T06:12:53.000Z</time>
      </trkpt>
      <trkpt lat="42.526641845703125" lon="-7.528433799743652">
        <ele>306.0</ele>
        <time>2019-04-30T06:13:09.000Z</time>
      </trkpt>
      <trkpt lat="42.52684020996094" lon="-7.528786659240723">
        <ele>307.0</ele>
        <time>2019-04-30T06:13:35.000Z</time>
      </trkpt>
      <trkpt lat="42.52701187133789" lon="-7.529201984405518">
        <ele>307.0</ele>
        <time>2019-04-30T06:14:00.000Z</time>
      </trkpt>
      <trkpt lat="42.52718734741211" lon="-7.529595375061035">
        <ele>307.0</ele>
        <time>2019-04-30T06:14:32.000Z</time>
      </trkpt>
      <trkpt lat="42.52739715576172" lon="-7.529983043670654">
        <ele>309.0</ele>
        <time>2019-04-30T06:15:00.000Z</time>
      </trkpt>
      <trkpt lat="42.52755355834961" lon="-7.530401706695557">
        <ele>310.0</ele>
        <time>2019-04-30T06:15:27.000Z</time>
      </trkpt>
      <trkpt lat="42.527626037597656" lon="-7.530603885650635">
        <ele>311.0</ele>
        <time>2019-04-30T06:15:45.000Z</time>
      </trkpt>
      <trkpt lat="42.52766418457031" lon="-7.530667304992676">
        <ele>311.0</ele>
        <time>2019-04-30T06:15:58.000Z</time>
      </trkpt>
      <trkpt lat="42.527687072753906" lon="-7.530703067779541">
        <ele>311.0</ele>
        <time>2019-04-30T06:15:59.000Z</time>
      </trkpt>
      <trkpt lat="42.52788543701172" lon="-7.531088829040527">
        <ele>311.0</ele>
        <time>2019-04-30T06:16:20.000Z</time>
      </trkpt>
      <trkpt lat="42.528053283691406" lon="-7.531500339508057">
        <ele>311.0</ele>
        <time>2019-04-30T06:16:53.000Z</time>
      </trkpt>
      <trkpt lat="42.52826690673828" lon="-7.5318989753723145">
        <ele>313.0</ele>
        <time>2019-04-30T06:17:22.000Z</time>
      </trkpt>
      <trkpt lat="42.52828598022461" lon="-7.531961917877197">
        <ele>313.0</ele>
        <time>2019-04-30T06:17:27.000Z</time>
      </trkpt>
      <trkpt lat="42.52825927734375" lon="-7.531960964202881">
        <ele>312.0</ele>
        <time>2019-04-30T06:17:31.000Z</time>
      </trkpt>
      <trkpt lat="42.528263092041016" lon="-7.5319695472717285">
        <ele>313.0</ele>
        <time>2019-04-30T06:17:39.000Z</time>
      </trkpt>
      <trkpt lat="42.52826690673828" lon="-7.531974792480469">
        <ele>314.0</ele>
        <time>2019-04-30T06:17:47.000Z</time>
      </trkpt>
      <trkpt lat="42.52827072143555" lon="-7.531978607177734">
        <ele>316.0</ele>
        <time>2019-04-30T06:17:54.000Z</time>
      </trkpt>
      <trkpt lat="42.52827453613281" lon="-7.531980991363525">
        <ele>317.0</ele>
        <time>2019-04-30T06:18:02.000Z</time>
      </trkpt>
      <trkpt lat="42.52827835083008" lon="-7.531985282897949">
        <ele>318.0</ele>
        <time>2019-04-30T06:18:02.000Z</time>
      </trkpt>
      <trkpt lat="42.528282165527344" lon="-7.531989574432373">
        <ele>318.0</ele>
        <time>2019-04-30T06:18:03.000Z</time>
      </trkpt>
      <trkpt lat="42.528282165527344" lon="-7.531993389129639">
        <ele>317.0</ele>
        <time>2019-04-30T06:18:03.000Z</time>
      </trkpt>
      <trkpt lat="42.52828598022461" lon="-7.531997203826904">
        <ele>317.0</ele>
        <time>2019-04-30T06:18:03.000Z</time>
      </trkpt>
      <trkpt lat="42.5283203125" lon="-7.532061576843262">
        <ele>318.0</ele>
        <time>2019-04-30T06:18:09.000Z</time>
      </trkpt>
      <trkpt lat="42.52836608886719" lon="-7.532150745391846">
        <ele>318.0</ele>
        <time>2019-04-30T06:18:14.000Z</time>
      </trkpt>
      <trkpt lat="42.52842330932617" lon="-7.532257080078125">
        <ele>319.0</ele>
        <time>2019-04-30T06:18:20.000Z</time>
      </trkpt>
      <trkpt lat="42.528480529785156" lon="-7.532371520996094">
        <ele>319.0</ele>
        <time>2019-04-30T06:18:25.000Z</time>
      </trkpt>
      <trkpt lat="42.52850341796875" lon="-7.5324225425720215">
        <ele>320.0</ele>
        <time>2019-04-30T06:18:28.000Z</time>
      </trkpt>
      <trkpt lat="42.52851867675781" lon="-7.532454967498779">
        <ele>320.0</ele>
        <time>2019-04-30T06:18:31.000Z</time>
      </trkpt>
      <trkpt lat="42.52852249145508" lon="-7.53247594833374">
        <ele>321.0</ele>
        <time>2019-04-30T06:18:34.000Z</time>
      </trkpt>
      <trkpt lat="42.528526306152344" lon="-7.532490253448486">
        <ele>321.0</ele>
        <time>2019-04-30T06:18:37.000Z</time>
      </trkpt>
      <trkpt lat="42.528560638427734" lon="-7.532530784606934">
        <ele>321.0</ele>
        <time>2019-04-30T06:18:45.000Z</time>
      </trkpt>
      <trkpt lat="42.528602600097656" lon="-7.532561779022217">
        <ele>321.0</ele>
        <time>2019-04-30T06:18:53.000Z</time>
      </trkpt>
      <trkpt lat="42.52861022949219" lon="-7.532572269439697">
        <ele>321.0</ele>
        <time>2019-04-30T06:18:53.000Z</time>
      </trkpt>
      <trkpt lat="42.52861785888672" lon="-7.5325798988342285">
        <ele>321.0</ele>
        <time>2019-04-30T06:18:54.000Z</time>
      </trkpt>
      <trkpt lat="42.52862548828125" lon="-7.532585144042969">
        <ele>321.0</ele>
        <time>2019-04-30T06:18:54.000Z</time>
      </trkpt>
      <trkpt lat="42.528629302978516" lon="-7.532589435577393">
        <ele>321.0</ele>
        <time>2019-04-30T06:18:54.000Z</time>
      </trkpt>
      <trkpt lat="42.52865219116211" lon="-7.532621383666992">
        <ele>321.0</ele>
        <time>2019-04-30T06:18:57.000Z</time>
      </trkpt>
      <trkpt lat="42.5286865234375" lon="-7.532663345336914">
        <ele>322.0</ele>
        <time>2019-04-30T06:19:00.000Z</time>
      </trkpt>
      <trkpt lat="42.52872085571289" lon="-7.532711982727051">
        <ele>322.0</ele>
        <time>2019-04-30T06:19:02.000Z</time>
      </trkpt>
      <trkpt lat="42.52875900268555" lon="-7.532764434814453">
        <ele>322.0</ele>
        <time>2019-04-30T06:19:05.000Z</time>
      </trkpt>
      <trkpt lat="42.52876663208008" lon="-7.53278112411499">
        <ele>322.0</ele>
        <time>2019-04-30T06:19:08.000Z</time>
      </trkpt>
      <trkpt lat="42.52876281738281" lon="-7.532786846160889">
        <ele>322.0</ele>
        <time>2019-04-30T06:19:12.000Z</time>
      </trkpt>
      <trkpt lat="42.528751373291016" lon="-7.532784938812256">
        <ele>321.0</ele>
        <time>2019-04-30T06:19:15.000Z</time>
      </trkpt>
      <trkpt lat="42.52873992919922" lon="-7.532778739929199">
        <ele>321.0</ele>
        <time>2019-04-30T06:19:18.000Z</time>
      </trkpt>
      <trkpt lat="42.52873992919922" lon="-7.532785892486572">
        <ele>320.0</ele>
        <time>2019-04-30T06:19:26.000Z</time>
      </trkpt>
      <trkpt lat="42.528743743896484" lon="-7.53279447555542">
        <ele>320.0</ele>
        <time>2019-04-30T06:19:35.000Z</time>
      </trkpt>
      <trkpt lat="42.52874755859375" lon="-7.532804012298584">
        <ele>319.0</ele>
        <time>2019-04-30T06:19:43.000Z</time>
      </trkpt>
      <trkpt lat="42.52875518798828" lon="-7.532814025878906">
        <ele>318.0</ele>
        <time>2019-04-30T06:19:51.000Z</time>
      </trkpt>
      <trkpt lat="42.52875900268555" lon="-7.532821178436279">
        <ele>318.0</ele>
        <time>2019-04-30T06:19:51.000Z</time>
      </trkpt>
      <trkpt lat="42.52876281738281" lon="-7.532827377319336">
        <ele>318.0</ele>
        <time>2019-04-30T06:19:52.000Z</time>
      </trkpt>
      <trkpt lat="42.52876281738281" lon="-7.532833099365234">
        <ele>318.0</ele>
        <time>2019-04-30T06:19:52.000Z</time>
      </trkpt>
      <trkpt lat="42.52876663208008" lon="-7.532838821411133">
        <ele>318.0</ele>
        <time>2019-04-30T06:19:52.000Z</time>
      </trkpt>
      <trkpt lat="42.52878189086914" lon="-7.53287410736084">
        <ele>319.0</ele>
        <time>2019-04-30T06:19:56.000Z</time>
      </trkpt>
      <trkpt lat="42.52880096435547" lon="-7.532921314239502">
        <ele>319.0</ele>
        <time>2019-04-30T06:20:00.000Z</time>
      </trkpt>
      <trkpt lat="42.5288200378418" lon="-7.5329766273498535">
        <ele>320.0</ele>
        <time>2019-04-30T06:20:04.000Z</time>
      </trkpt>
      <trkpt lat="42.528846740722656" lon="-7.533035755157471">
        <ele>321.0</ele>
        <time>2019-04-30T06:20:08.000Z</time>
      </trkpt>
      <trkpt lat="42.528839111328125" lon="-7.533027172088623">
        <ele>320.0</ele>
        <time>2019-04-30T06:20:32.000Z</time>
      </trkpt>
      <trkpt lat="42.52882766723633" lon="-7.532993793487549">
        <ele>319.0</ele>
        <time>2019-04-30T06:20:56.000Z</time>
      </trkpt>
      <trkpt lat="42.528804779052734" lon="-7.532944679260254">
        <ele>318.0</ele>
        <time>2019-04-30T06:21:20.000Z</time>
      </trkpt>
      <trkpt lat="42.52878189086914" lon="-7.532886981964111">
        <ele>316.0</ele>
        <time>2019-04-30T06:21:44.000Z</time>
      </trkpt>
      <trkpt lat="42.528770446777344" lon="-7.53286600112915">
        <ele>316.0</ele>
        <time>2019-04-30T06:21:44.000Z</time>
      </trkpt>
      <trkpt lat="42.52876663208008" lon="-7.532851696014404">
        <ele>316.0</ele>
        <time>2019-04-30T06:21:45.000Z</time>
      </trkpt>
      <trkpt lat="42.52876281738281" lon="-7.532842636108398">
        <ele>316.0</ele>
        <time>2019-04-30T06:21:45.000Z</time>
      </trkpt>
      <trkpt lat="42.52875900268555" lon="-7.532835006713867">
        <ele>316.0</ele>
        <time>2019-04-30T06:21:45.000Z</time>
      </trkpt>
      <trkpt lat="42.52874755859375" lon="-7.532814025878906">
        <ele>316.0</ele>
        <time>2019-04-30T06:21:47.000Z</time>
      </trkpt>
      <trkpt lat="42.52872848510742" lon="-7.53278923034668">
        <ele>317.0</ele>
        <time>2019-04-30T06:21:49.000Z</time>
      </trkpt>
      <trkpt lat="42.528709411621094" lon="-7.532762050628662">
        <ele>317.0</ele>
        <time>2019-04-30T06:21:50.000Z</time>
      </trkpt>
      <trkpt lat="42.528690338134766" lon="-7.532733917236328">
        <ele>317.0</ele>
        <time>2019-04-30T06:21:52.000Z</time>
      </trkpt>
      <trkpt lat="42.52864456176758" lon="-7.532698154449463">
        <ele>317.0</ele>
        <time>2019-04-30T06:21:57.000Z</time>
      </trkpt>
      <trkpt lat="42.528587341308594" lon="-7.532657623291016">
        <ele>317.0</ele>
        <time>2019-04-30T06:22:02.000Z</time>
      </trkpt>
      <trkpt lat="42.52852249145508" lon="-7.532614707946777">
        <ele>317.0</ele>
        <time>2019-04-30T06:22:07.000Z</time>
      </trkpt>
      <trkpt lat="42.52845001220703" lon="-7.5325703620910645">
        <ele>317.0</ele>
        <time>2019-04-30T06:22:12.000Z</time>
      </trkpt>
      <trkpt lat="42.52840805053711" lon="-7.532578468322754">
        <ele>316.0</ele>
        <time>2019-04-30T06:22:16.000Z</time>
      </trkpt>
      <trkpt lat="42.52836608886719" lon="-7.532607078552246">
        <ele>316.0</ele>
        <time>2019-04-30T06:22:20.000Z</time>
      </trkpt>
      <trkpt lat="42.5283317565918" lon="-7.532649517059326">
        <ele>316.0</ele>
        <time>2019-04-30T06:22:23.000Z</time>
      </trkpt>
      <trkpt lat="42.528297424316406" lon="-7.532698631286621">
        <ele>315.0</ele>
        <time>2019-04-30T06:22:27.000Z</time>
      </trkpt>
      <trkpt lat="42.528282165527344" lon="-7.532712936401367">
        <ele>315.0</ele>
        <time>2019-04-30T06:22:27.000Z</time>
      </trkpt>
      <trkpt lat="42.52827453613281" lon="-7.532719612121582">
        <ele>315.0</ele>
        <time>2019-04-30T06:22:28.000Z</time>
      </trkpt>
      <trkpt lat="42.52827072143555" lon="-7.532721519470215">
        <ele>315.0</ele>
        <time>2019-04-30T06:22:28.000Z</time>
      </trkpt>
      <trkpt lat="42.52827072143555" lon="-7.532720565795898">
        <ele>315.0</ele>
        <time>2019-04-30T06:22:28.000Z</time>
      </trkpt>
      <trkpt lat="42.52825164794922" lon="-7.532738208770752">
        <ele>315.0</ele>
        <time>2019-04-30T06:22:31.000Z</time>
      </trkpt>
      <trkpt lat="42.52822494506836" lon="-7.532761096954346">
        <ele>315.0</ele>
        <time>2019-04-30T06:22:33.000Z</time>
      </trkpt>
      <trkpt lat="42.528194427490234" lon="-7.532786846160889">
        <ele>315.0</ele>
        <time>2019-04-30T06:22:36.000Z</time>
      </trkpt>
      <trkpt lat="42.52816390991211" lon="-7.532814979553223">
        <ele>315.0</ele>
        <time>2019-04-30T06:22:38.000Z</time>
      </trkpt>
      <trkpt lat="42.52814865112305" lon="-7.5328264236450195">
        <ele>314.0</ele>
        <time>2019-04-30T06:22:41.000Z</time>
      </trkpt>
      <trkpt lat="42.528141021728516" lon="-7.532833099365234">
        <ele>314.0</ele>
        <time>2019-04-30T06:22:45.000Z</time>
      </trkpt>
      <trkpt lat="42.52813720703125" lon="-7.532836437225342">
        <ele>314.0</ele>
        <time>2019-04-30T06:22:48.000Z</time>
      </trkpt>
      <trkpt lat="42.52813720703125" lon="-7.532838344573975">
        <ele>314.0</ele>
        <time>2019-04-30T06:22:51.000Z</time>
      </trkpt>
      <trkpt lat="42.52812957763672" lon="-7.532843112945557">
        <ele>314.0</ele>
        <time>2019-04-30T06:22:51.000Z</time>
      </trkpt>
      <trkpt lat="42.52812576293945" lon="-7.5328474044799805">
        <ele>314.0</ele>
        <time>2019-04-30T06:22:52.000Z</time>
      </trkpt>
      <trkpt lat="42.52812194824219" lon="-7.532851696014404">
        <ele>314.0</ele>
        <time>2019-04-30T06:22:52.000Z</time>
      </trkpt>
      <trkpt lat="42.52811813354492" lon="-7.532855987548828">
        <ele>314.0</ele>
        <time>2019-04-30T06:22:52.000Z</time>
      </trkpt>
      <trkpt lat="42.528099060058594" lon="-7.532872200012207">
        <ele>314.0</ele>
        <time>2019-04-30T06:22:54.000Z</time>
      </trkpt>
      <trkpt lat="42.528076171875" lon="-7.532893657684326">
        <ele>314.0</ele>
        <time>2019-04-30T06:22:55.000Z</time>
      </trkpt>
      <trkpt lat="42.528045654296875" lon="-7.532918930053711">
        <ele>314.0</ele>
        <time>2019-04-30T06:22:57.000Z</time>
      </trkpt>
      <trkpt lat="42.528018951416016" lon="-7.532945156097412">
        <ele>313.0</ele>
        <time>2019-04-30T06:22:58.000Z</time>
      </trkpt>
      <trkpt lat="42.52791976928711" lon="-7.5330281257629395">
        <ele>313.0</ele>
        <time>2019-04-30T06:23:11.000Z</time>
      </trkpt>
      <trkpt lat="42.527889251708984" lon="-7.533052444458008">
        <ele>313.0</ele>
        <time>2019-04-30T06:23:12.000Z</time>
      </trkpt>
      <trkpt lat="42.527652740478516" lon="-7.533347129821777">
        <ele>312.0</ele>
        <time>2019-04-30T06:23:34.000Z</time>
      </trkpt>
      <trkpt lat="42.527587890625" lon="-7.533430099487305">
        <ele>319.0</ele>
        <time>2019-04-30T06:24:03.000Z</time>
      </trkpt>
      <trkpt lat="42.527565002441406" lon="-7.533461570739746">
        <ele>319.0</ele>
        <time>2019-04-30T06:24:04.000Z</time>
      </trkpt>
      <trkpt lat="42.52754211425781" lon="-7.5334906578063965">
        <ele>318.0</ele>
        <time>2019-04-30T06:24:08.000Z</time>
      </trkpt>
      <trkpt lat="42.52753829956055" lon="-7.533491134643555">
        <ele>319.0</ele>
        <time>2019-04-30T06:24:22.000Z</time>
      </trkpt>
      <trkpt lat="42.52753448486328" lon="-7.5334882736206055">
        <ele>319.0</ele>
        <time>2019-04-30T06:24:35.000Z</time>
      </trkpt>
      <trkpt lat="42.527530670166016" lon="-7.533483505249023">
        <ele>320.0</ele>
        <time>2019-04-30T06:24:49.000Z</time>
      </trkpt>
      <trkpt lat="42.52752685546875" lon="-7.533477783203125">
        <ele>321.0</ele>
        <time>2019-04-30T06:25:02.000Z</time>
      </trkpt>
      <trkpt lat="42.527523040771484" lon="-7.533474922180176">
        <ele>321.0</ele>
        <time>2019-04-30T06:25:02.000Z</time>
      </trkpt>
      <trkpt lat="42.52751922607422" lon="-7.533472061157227">
        <ele>321.0</ele>
        <time>2019-04-30T06:25:03.000Z</time>
      </trkpt>
      <trkpt lat="42.52751541137695" lon="-7.5334696769714355">
        <ele>321.0</ele>
        <time>2019-04-30T06:25:03.000Z</time>
      </trkpt>
      <trkpt lat="42.52751159667969" lon="-7.533466815948486">
        <ele>321.0</ele>
        <time>2019-04-30T06:25:03.000Z</time>
      </trkpt>
      <trkpt lat="42.527503967285156" lon="-7.5334601402282715">
        <ele>321.0</ele>
        <time>2019-04-30T06:25:04.000Z</time>
      </trkpt>
      <trkpt lat="42.52749252319336" lon="-7.533451080322266">
        <ele>321.0</ele>
        <time>2019-04-30T06:25:04.000Z</time>
      </trkpt>
      <trkpt lat="42.52748107910156" lon="-7.533441543579102">
        <ele>321.0</ele>
        <time>2019-04-30T06:25:05.000Z</time>
      </trkpt>
      <trkpt lat="42.527469635009766" lon="-7.533431053161621">
        <ele>321.0</ele>
        <time>2019-04-30T06:25:05.000Z</time>
      </trkpt>
      <trkpt lat="42.52744674682617" lon="-7.533411502838135">
        <ele>321.0</ele>
        <time>2019-04-30T06:25:06.000Z</time>
      </trkpt>
      <trkpt lat="42.52741622924805" lon="-7.533386707305908">
        <ele>321.0</ele>
        <time>2019-04-30T06:25:07.000Z</time>
      </trkpt>
      <trkpt lat="42.52738571166992" lon="-7.533359050750732">
        <ele>321.0</ele>
        <time>2019-04-30T06:25:07.000Z</time>
      </trkpt>
      <trkpt lat="42.52735137939453" lon="-7.53333044052124">
        <ele>322.0</ele>
        <time>2019-04-30T06:25:08.000Z</time>
      </trkpt>
      <trkpt lat="42.52731704711914" lon="-7.5333027839660645">
        <ele>322.0</ele>
        <time>2019-04-30T06:25:10.000Z</time>
      </trkpt>
      <trkpt lat="42.52727508544922" lon="-7.533275127410889">
        <ele>322.0</ele>
        <time>2019-04-30T06:25:12.000Z</time>
      </trkpt>
      <trkpt lat="42.5272331237793" lon="-7.5332465171813965">
        <ele>322.0</ele>
        <time>2019-04-30T06:25:14.000Z</time>
      </trkpt>
      <trkpt lat="42.52718734741211" lon="-7.533217430114746">
        <ele>323.0</ele>
        <time>2019-04-30T06:25:16.000Z</time>
      </trkpt>
      <trkpt lat="42.52714538574219" lon="-7.533186912536621">
        <ele>323.0</ele>
        <time>2019-04-30T06:25:20.000Z</time>
      </trkpt>
      <trkpt lat="42.527103424072266" lon="-7.533155918121338">
        <ele>323.0</ele>
        <time>2019-04-30T06:25:24.000Z</time>
      </trkpt>
      <trkpt lat="42.527061462402344" lon="-7.533123970031738">
        <ele>324.0</ele>
        <time>2019-04-30T06:25:28.000Z</time>
      </trkpt>
      <trkpt lat="42.52701950073242" lon="-7.5330915451049805">
        <ele>324.0</ele>
        <time>2019-04-30T06:25:32.000Z</time>
      </trkpt>
      <trkpt lat="42.52696228027344" lon="-7.53299617767334">
        <ele>324.0</ele>
        <time>2019-04-30T06:25:40.000Z</time>
      </trkpt>
      <trkpt lat="42.526912689208984" lon="-7.532886028289795">
        <ele>324.0</ele>
        <time>2019-04-30T06:25:48.000Z</time>
      </trkpt>
      <trkpt lat="42.526878356933594" lon="-7.532844066619873">
        <ele>323.0</ele>
        <time>2019-04-30T06:25:52.000Z</time>
      </trkpt>
      <trkpt lat="42.52684020996094" lon="-7.532806396484375">
        <ele>322.0</ele>
        <time>2019-04-30T06:25:56.000Z</time>
      </trkpt>
      <trkpt lat="42.52680206298828" lon="-7.53277063369751">
        <ele>320.0</ele>
        <time>2019-04-30T06:26:00.000Z</time>
      </trkpt>
      <trkpt lat="42.52676010131836" lon="-7.532736778259277">
        <ele>319.0</ele>
        <time>2019-04-30T06:26:04.000Z</time>
      </trkpt>
      <trkpt lat="42.5267219543457" lon="-7.532702922821045">
        <ele>318.0</ele>
        <time>2019-04-30T06:26:08.000Z</time>
      </trkpt>
      <trkpt lat="42.52668380737305" lon="-7.532670974731445">
        <ele>316.0</ele>
        <time>2019-04-30T06:26:12.000Z</time>
      </trkpt>
      <trkpt lat="42.526641845703125" lon="-7.532639980316162">
        <ele>315.0</ele>
        <time>2019-04-30T06:26:15.000Z</time>
      </trkpt>
      <trkpt lat="42.52660369873047" lon="-7.532609462738037">
        <ele>314.0</ele>
        <time>2019-04-30T06:26:19.000Z</time>
      </trkpt>
      <trkpt lat="42.52656173706055" lon="-7.5325703620910645">
        <ele>313.0</ele>
        <time>2019-04-30T06:26:23.000Z</time>
      </trkpt>
      <trkpt lat="42.52652359008789" lon="-7.532528877258301">
        <ele>313.0</ele>
        <time>2019-04-30T06:26:27.000Z</time>
      </trkpt>
      <trkpt lat="42.52648162841797" lon="-7.532485485076904">
        <ele>312.0</ele>
        <time>2019-04-30T06:26:31.000Z</time>
      </trkpt>
      <trkpt lat="42.52644348144531" lon="-7.532441139221191">
        <ele>312.0</ele>
        <time>2019-04-30T06:26:35.000Z</time>
      </trkpt>
      <trkpt lat="42.52635955810547" lon="-7.532413482666016">
        <ele>311.0</ele>
        <time>2019-04-30T06:26:44.000Z</time>
      </trkpt>
      <trkpt lat="42.526275634765625" lon="-7.532412052154541">
        <ele>311.0</ele>
        <time>2019-04-30T06:26:52.000Z</time>
      </trkpt>
      <trkpt lat="42.5262451171875" lon="-7.532419681549072">
        <ele>310.0</ele>
        <time>2019-04-30T06:26:55.000Z</time>
      </trkpt>
      <trkpt lat="42.526241302490234" lon="-7.532436847686768">
        <ele>310.0</ele>
        <time>2019-04-30T06:26:57.000Z</time>
      </trkpt>
      <trkpt lat="42.5262336730957" lon="-7.532436370849609">
        <ele>310.0</ele>
        <time>2019-04-30T06:27:01.000Z</time>
      </trkpt>
      <trkpt lat="42.52621841430664" lon="-7.532433032989502">
        <ele>310.0</ele>
        <time>2019-04-30T06:27:04.000Z</time>
      </trkpt>
      <trkpt lat="42.526206970214844" lon="-7.532427787780762">
        <ele>309.0</ele>
        <time>2019-04-30T06:27:08.000Z</time>
      </trkpt>
      <trkpt lat="42.52619552612305" lon="-7.532421588897705">
        <ele>309.0</ele>
        <time>2019-04-30T06:27:11.000Z</time>
      </trkpt>
      <trkpt lat="42.52618408203125" lon="-7.532418727874756">
        <ele>309.0</ele>
        <time>2019-04-30T06:27:11.000Z</time>
      </trkpt>
      <trkpt lat="42.52617645263672" lon="-7.532416343688965">
        <ele>309.0</ele>
        <time>2019-04-30T06:27:12.000Z</time>
      </trkpt>
      <trkpt lat="42.52616882324219" lon="-7.532413959503174">
        <ele>309.0</ele>
        <time>2019-04-30T06:27:12.000Z</time>
      </trkpt>
      <trkpt lat="42.52616500854492" lon="-7.532412052154541">
        <ele>309.0</ele>
        <time>2019-04-30T06:27:12.000Z</time>
      </trkpt>
      <trkpt lat="42.5261344909668" lon="-7.532404899597168">
        <ele>309.0</ele>
        <time>2019-04-30T06:27:14.000Z</time>
      </trkpt>
      <trkpt lat="42.526092529296875" lon="-7.532395839691162">
        <ele>309.0</ele>
        <time>2019-04-30T06:27:15.000Z</time>
      </trkpt>
      <trkpt lat="42.52604675292969" lon="-7.53238582611084">
        <ele>308.0</ele>
        <time>2019-04-30T06:27:17.000Z</time>
      </trkpt>
      <trkpt lat="42.525997161865234" lon="-7.532374858856201">
        <ele>308.0</ele>
        <time>2019-04-30T06:27:18.000Z</time>
      </trkpt>
      <trkpt lat="42.525909423828125" lon="-7.5323991775512695">
        <ele>308.0</ele>
        <time>2019-04-30T06:27:25.000Z</time>
      </trkpt>
      <trkpt lat="42.52582550048828" lon="-7.532443523406982">
        <ele>307.0</ele>
        <time>2019-04-30T06:27:32.000Z</time>
      </trkpt>
      <trkpt lat="42.52579116821289" lon="-7.532460689544678">
        <ele>307.0</ele>
        <time>2019-04-30T06:27:35.000Z</time>
      </trkpt>
      <trkpt lat="42.5257568359375" lon="-7.532477855682373">
        <ele>307.0</ele>
        <time>2019-04-30T06:27:37.000Z</time>
      </trkpt>
      <trkpt lat="42.525726318359375" lon="-7.532495021820068">
        <ele>307.0</ele>
        <time>2019-04-30T06:27:40.000Z</time>
      </trkpt>
      <trkpt lat="42.52569580078125" lon="-7.5325117111206055">
        <ele>307.0</ele>
        <time>2019-04-30T06:27:42.000Z</time>
      </trkpt>
      <trkpt lat="42.525691986083984" lon="-7.532583713531494">
        <ele>307.0</ele>
        <time>2019-04-30T06:27:49.000Z</time>
      </trkpt>
      <trkpt lat="42.525699615478516" lon="-7.532678127288818">
        <ele>306.0</ele>
        <time>2019-04-30T06:27:57.000Z</time>
      </trkpt>
      <trkpt lat="42.52571487426758" lon="-7.532788276672363">
        <ele>305.0</ele>
        <time>2019-04-30T06:28:04.000Z</time>
      </trkpt>
      <trkpt lat="42.525733947753906" lon="-7.532905578613281">
        <ele>304.0</ele>
        <time>2019-04-30T06:28:11.000Z</time>
      </trkpt>
      <trkpt lat="42.52573776245117" lon="-7.533020496368408">
        <ele>303.0</ele>
        <time>2019-04-30T06:28:18.000Z</time>
      </trkpt>
      <trkpt lat="42.52574157714844" lon="-7.53314208984375">
        <ele>303.0</ele>
        <time>2019-04-30T06:28:26.000Z</time>
      </trkpt>
      <trkpt lat="42.5257453918457" lon="-7.533267974853516">
        <ele>304.0</ele>
        <time>2019-04-30T06:28:33.000Z</time>
      </trkpt>
      <trkpt lat="42.5257453918457" lon="-7.533395767211914">
        <ele>304.0</ele>
        <time>2019-04-30T06:28:40.000Z</time>
      </trkpt>
      <trkpt lat="42.5257568359375" lon="-7.53351354598999">
        <ele>304.0</ele>
        <time>2019-04-30T06:28:49.000Z</time>
      </trkpt>
      <trkpt lat="42.52577209472656" lon="-7.533629417419434">
        <ele>303.0</ele>
        <time>2019-04-30T06:28:57.000Z</time>
      </trkpt>
      <trkpt lat="42.52579116821289" lon="-7.533743858337402">
        <ele>302.0</ele>
        <time>2019-04-30T06:29:06.000Z</time>
      </trkpt>
      <trkpt lat="42.52581024169922" lon="-7.533857822418213">
        <ele>301.0</ele>
        <time>2019-04-30T06:29:14.000Z</time>
      </trkpt>
      <trkpt lat="42.52581024169922" lon="-7.533972263336182">
        <ele>300.0</ele>
        <time>2019-04-30T06:29:21.000Z</time>
      </trkpt>
      <trkpt lat="42.52580642700195" lon="-7.534086227416992">
        <ele>300.0</ele>
        <time>2019-04-30T06:29:28.000Z</time>
      </trkpt>
      <trkpt lat="42.52579116821289" lon="-7.534200191497803">
        <ele>299.0</ele>
        <time>2019-04-30T06:29:34.000Z</time>
      </trkpt>
      <trkpt lat="42.525779724121094" lon="-7.534314155578613">
        <ele>299.0</ele>
        <time>2019-04-30T06:29:41.000Z</time>
      </trkpt>
      <trkpt lat="42.52577590942383" lon="-7.534431457519531">
        <ele>299.0</ele>
        <time>2019-04-30T06:29:48.000Z</time>
      </trkpt>
      <trkpt lat="42.525779724121094" lon="-7.534550189971924">
        <ele>298.0</ele>
        <time>2019-04-30T06:29:55.000Z</time>
      </trkpt>
      <trkpt lat="42.525779724121094" lon="-7.534669399261475">
        <ele>298.0</ele>
        <time>2019-04-30T06:30:01.000Z</time>
      </trkpt>
      <trkpt lat="42.52578353881836" lon="-7.534789085388184">
        <ele>298.0</ele>
        <time>2019-04-30T06:30:08.000Z</time>
      </trkpt>
      <trkpt lat="42.52578353881836" lon="-7.53490686416626">
        <ele>297.0</ele>
        <time>2019-04-30T06:30:16.000Z</time>
      </trkpt>
      <trkpt lat="42.525779724121094" lon="-7.535024166107178">
        <ele>297.0</ele>
        <time>2019-04-30T06:30:24.000Z</time>
      </trkpt>
      <trkpt lat="42.52577590942383" lon="-7.5351409912109375">
        <ele>297.0</ele>
        <time>2019-04-30T06:30:31.000Z</time>
      </trkpt>
      <trkpt lat="42.5257682800293" lon="-7.535257339477539">
        <ele>296.0</ele>
        <time>2019-04-30T06:30:39.000Z</time>
      </trkpt>
      <trkpt lat="42.5257682800293" lon="-7.535731792449951">
        <ele>302.0</ele>
        <time>2019-04-30T06:31:02.000Z</time>
      </trkpt>
      <trkpt lat="42.525787353515625" lon="-7.5362067222595215">
        <ele>305.0</ele>
        <time>2019-04-30T06:31:28.000Z</time>
      </trkpt>
      <trkpt lat="42.525787353515625" lon="-7.5366902351379395">
        <ele>305.0</ele>
        <time>2019-04-30T06:31:58.000Z</time>
      </trkpt>
      <trkpt lat="42.525814056396484" lon="-7.537088871002197">
        <ele>307.0</ele>
        <time>2019-04-30T06:32:22.000Z</time>
      </trkpt>
      <trkpt lat="42.52583312988281" lon="-7.537350654602051">
        <ele>308.0</ele>
        <time>2019-04-30T06:32:38.000Z</time>
      </trkpt>
      <trkpt lat="42.52583312988281" lon="-7.537624835968018">
        <ele>307.0</ele>
        <time>2019-04-30T06:32:53.000Z</time>
      </trkpt>
      <trkpt lat="42.52583694458008" lon="-7.5378899574279785">
        <ele>310.0</ele>
        <time>2019-04-30T06:33:08.000Z</time>
      </trkpt>
      <trkpt lat="42.525856018066406" lon="-7.538148880004883">
        <ele>312.0</ele>
        <time>2019-04-30T06:33:24.000Z</time>
      </trkpt>
      <trkpt lat="42.52586364746094" lon="-7.538414001464844">
        <ele>310.0</ele>
        <time>2019-04-30T06:33:41.000Z</time>
      </trkpt>
      <trkpt lat="42.52587890625" lon="-7.538674831390381">
        <ele>311.0</ele>
        <time>2019-04-30T06:33:58.000Z</time>
      </trkpt>
      <trkpt lat="42.52589416503906" lon="-7.5389275550842285">
        <ele>310.0</ele>
        <time>2019-04-30T06:34:16.000Z</time>
      </trkpt>
      <trkpt lat="42.52590560913086" lon="-7.539416313171387">
        <ele>307.0</ele>
        <time>2019-04-30T06:34:49.000Z</time>
      </trkpt>
      <trkpt lat="42.52598571777344" lon="-7.539886474609375">
        <ele>306.0</ele>
        <time>2019-04-30T06:35:20.000Z</time>
      </trkpt>
      <trkpt lat="42.525970458984375" lon="-7.540345191955566">
        <ele>302.0</ele>
        <time>2019-04-30T06:35:53.000Z</time>
      </trkpt>
      <trkpt lat="42.52597427368164" lon="-7.540828704833984">
        <ele>299.0</ele>
        <time>2019-04-30T06:36:16.000Z</time>
      </trkpt>
      <trkpt lat="42.5259895324707" lon="-7.541309356689453">
        <ele>299.0</ele>
        <time>2019-04-30T06:36:44.000Z</time>
      </trkpt>
      <trkpt lat="42.52605438232422" lon="-7.541772842407227">
        <ele>301.0</ele>
        <time>2019-04-30T06:37:12.000Z</time>
      </trkpt>
      <trkpt lat="42.52606964111328" lon="-7.542257785797119">
        <ele>306.0</ele>
        <time>2019-04-30T06:37:38.000Z</time>
      </trkpt>
      <trkpt lat="42.52613830566406" lon="-7.542725563049316">
        <ele>305.0</ele>
        <time>2019-04-30T06:38:07.000Z</time>
      </trkpt>
      <trkpt lat="42.526187896728516" lon="-7.543198585510254">
        <ele>303.0</ele>
        <time>2019-04-30T06:38:36.000Z</time>
      </trkpt>
      <trkpt lat="42.52623748779297" lon="-7.543671131134033">
        <ele>299.0</ele>
        <time>2019-04-30T06:39:06.000Z</time>
      </trkpt>
      <trkpt lat="42.52626037597656" lon="-7.543811321258545">
        <ele>299.0</ele>
        <time>2019-04-30T06:39:16.000Z</time>
      </trkpt>
      <trkpt lat="42.526268005371094" lon="-7.543862342834473">
        <ele>297.0</ele>
        <time>2019-04-30T06:39:29.000Z</time>
      </trkpt>
      <trkpt lat="42.52627182006836" lon="-7.5438971519470215">
        <ele>297.0</ele>
        <time>2019-04-30T06:39:30.000Z</time>
      </trkpt>
      <trkpt lat="42.52634811401367" lon="-7.544369220733643">
        <ele>298.0</ele>
        <time>2019-04-30T06:39:46.000Z</time>
      </trkpt>
      <trkpt lat="42.52639389038086" lon="-7.544844150543213">
        <ele>294.0</ele>
        <time>2019-04-30T06:40:19.000Z</time>
      </trkpt>
      <trkpt lat="42.52648162841797" lon="-7.545289993286133">
        <ele>291.0</ele>
        <time>2019-04-30T06:40:45.000Z</time>
      </trkpt>
      <trkpt lat="42.52650833129883" lon="-7.545741558074951">
        <ele>286.0</ele>
        <time>2019-04-30T06:41:15.000Z</time>
      </trkpt>
      <trkpt lat="42.526573181152344" lon="-7.546226501464844">
        <ele>285.0</ele>
        <time>2019-04-30T06:41:40.000Z</time>
      </trkpt>
      <trkpt lat="42.526634216308594" lon="-7.5466790199279785">
        <ele>281.0</ele>
        <time>2019-04-30T06:42:13.000Z</time>
      </trkpt>
      <trkpt lat="42.52667236328125" lon="-7.547159194946289">
        <ele>279.0</ele>
        <time>2019-04-30T06:42:40.000Z</time>
      </trkpt>
      <trkpt lat="42.526729583740234" lon="-7.547634601593018">
        <ele>279.0</ele>
        <time>2019-04-30T06:43:06.000Z</time>
      </trkpt>
      <trkpt lat="42.52678298950195" lon="-7.548107624053955">
        <ele>282.0</ele>
        <time>2019-04-30T06:43:30.000Z</time>
      </trkpt>
      <trkpt lat="42.5268669128418" lon="-7.548567295074463">
        <ele>287.0</ele>
        <time>2019-04-30T06:43:58.000Z</time>
      </trkpt>
      <trkpt lat="42.52694320678711" lon="-7.548923969268799">
        <ele>290.0</ele>
        <time>2019-04-30T06:44:17.000Z</time>
      </trkpt>
      <trkpt lat="42.52695846557617" lon="-7.549180030822754">
        <ele>293.0</ele>
        <time>2019-04-30T06:44:32.000Z</time>
      </trkpt>
      <trkpt lat="42.52696228027344" lon="-7.549428462982178">
        <ele>295.0</ele>
        <time>2019-04-30T06:44:48.000Z</time>
      </trkpt>
      <trkpt lat="42.52701187133789" lon="-7.549681663513184">
        <ele>295.0</ele>
        <time>2019-04-30T06:45:04.000Z</time>
      </trkpt>
      <trkpt lat="42.52703857421875" lon="-7.5499420166015625">
        <ele>297.0</ele>
        <time>2019-04-30T06:45:19.000Z</time>
      </trkpt>
      <trkpt lat="42.527122497558594" lon="-7.55040979385376">
        <ele>290.0</ele>
        <time>2019-04-30T06:45:47.000Z</time>
      </trkpt>
      <trkpt lat="42.52717971801758" lon="-7.550880432128906">
        <ele>281.0</ele>
        <time>2019-04-30T06:46:22.000Z</time>
      </trkpt>
      <trkpt lat="42.527191162109375" lon="-7.551121711730957">
        <ele>279.0</ele>
        <time>2019-04-30T06:46:36.000Z</time>
      </trkpt>
      <trkpt lat="42.52721405029297" lon="-7.551386833190918">
        <ele>287.0</ele>
        <time>2019-04-30T06:46:51.000Z</time>
      </trkpt>
      <trkpt lat="42.52724838256836" lon="-7.551642417907715">
        <ele>293.0</ele>
        <time>2019-04-30T06:47:06.000Z</time>
      </trkpt>
      <trkpt lat="42.527278900146484" lon="-7.551902770996094">
        <ele>296.0</ele>
        <time>2019-04-30T06:47:22.000Z</time>
      </trkpt>
      <trkpt lat="42.52730941772461" lon="-7.552164077758789">
        <ele>299.0</ele>
        <time>2019-04-30T06:47:38.000Z</time>
      </trkpt>
      <trkpt lat="42.52737045288086" lon="-7.552645206451416">
        <ele>297.0</ele>
        <time>2019-04-30T06:48:09.000Z</time>
      </trkpt>
      <trkpt lat="42.52744674682617" lon="-7.553123950958252">
        <ele>291.0</ele>
        <time>2019-04-30T06:48:39.000Z</time>
      </trkpt>
      <trkpt lat="42.52753829956055" lon="-7.553592681884766">
        <ele>292.0</ele>
        <time>2019-04-30T06:49:09.000Z</time>
      </trkpt>
      <trkpt lat="42.52759552001953" lon="-7.554073810577393">
        <ele>288.0</ele>
        <time>2019-04-30T06:49:39.000Z</time>
      </trkpt>
      <trkpt lat="42.52762985229492" lon="-7.554492950439453">
        <ele>291.0</ele>
        <time>2019-04-30T06:50:03.000Z</time>
      </trkpt>
      <trkpt lat="42.527652740478516" lon="-7.554785251617432">
        <ele>296.0</ele>
        <time>2019-04-30T06:50:21.000Z</time>
      </trkpt>
      <trkpt lat="42.52777099609375" lon="-7.555212020874023">
        <ele>293.0</ele>
        <time>2019-04-30T06:51:04.000Z</time>
      </trkpt>
      <trkpt lat="42.527835845947266" lon="-7.555691242218018">
        <ele>284.0</ele>
        <time>2019-04-30T06:51:28.000Z</time>
      </trkpt>
      <trkpt lat="42.52793884277344" lon="-7.5561394691467285">
        <ele>286.0</ele>
        <time>2019-04-30T06:51:54.000Z</time>
      </trkpt>
      <trkpt lat="42.52813720703125" lon="-7.556533336639404">
        <ele>288.0</ele>
        <time>2019-04-30T06:52:23.000Z</time>
      </trkpt>
      <trkpt lat="42.528350830078125" lon="-7.556929111480713">
        <ele>287.0</ele>
        <time>2019-04-30T06:52:51.000Z</time>
      </trkpt>
      <trkpt lat="42.52849578857422" lon="-7.557064056396484">
        <ele>287.0</ele>
        <time>2019-04-30T06:53:07.000Z</time>
      </trkpt>
      <trkpt lat="42.528656005859375" lon="-7.5571699142456055">
        <ele>286.0</ele>
        <time>2019-04-30T06:53:22.000Z</time>
      </trkpt>
      <trkpt lat="42.528831481933594" lon="-7.557188987731934">
        <ele>287.0</ele>
        <time>2019-04-30T06:53:37.000Z</time>
      </trkpt>
      <trkpt lat="42.529014587402344" lon="-7.557161808013916">
        <ele>289.0</ele>
        <time>2019-04-30T06:53:51.000Z</time>
      </trkpt>
      <trkpt lat="42.52910232543945" lon="-7.557155132293701">
        <ele>290.0</ele>
        <time>2019-04-30T06:53:58.000Z</time>
      </trkpt>
      <trkpt lat="42.52919006347656" lon="-7.557146072387695">
        <ele>291.0</ele>
        <time>2019-04-30T06:54:05.000Z</time>
      </trkpt>
      <trkpt lat="42.52927780151367" lon="-7.557136058807373">
        <ele>291.0</ele>
        <time>2019-04-30T06:54:12.000Z</time>
      </trkpt>
      <trkpt lat="42.529361724853516" lon="-7.557125091552734">
        <ele>292.0</ele>
        <time>2019-04-30T06:54:18.000Z</time>
      </trkpt>
      <trkpt lat="42.52940368652344" lon="-7.5571208000183105">
        <ele>293.0</ele>
        <time>2019-04-30T06:54:20.000Z</time>
      </trkpt>
      <trkpt lat="42.52942657470703" lon="-7.557117938995361">
        <ele>294.0</ele>
        <time>2019-04-30T06:54:22.000Z</time>
      </trkpt>
      <trkpt lat="42.52943801879883" lon="-7.557116508483887">
        <ele>294.0</ele>
        <time>2019-04-30T06:54:24.000Z</time>
      </trkpt>
      <trkpt lat="42.52943801879883" lon="-7.5571160316467285">
        <ele>295.0</ele>
        <time>2019-04-30T06:54:25.000Z</time>
      </trkpt>
      <trkpt lat="42.52946853637695" lon="-7.557156085968018">
        <ele>296.0</ele>
        <time>2019-04-30T06:54:31.000Z</time>
      </trkpt>
      <trkpt lat="42.52950668334961" lon="-7.55721378326416">
        <ele>297.0</ele>
        <time>2019-04-30T06:54:36.000Z</time>
      </trkpt>
      <trkpt lat="42.529544830322266" lon="-7.557283401489258">
        <ele>299.0</ele>
        <time>2019-04-30T06:54:41.000Z</time>
      </trkpt>
      <trkpt lat="42.52958297729492" lon="-7.557359218597412">
        <ele>300.0</ele>
        <time>2019-04-30T06:54:46.000Z</time>
      </trkpt>
      <trkpt lat="42.52959060668945" lon="-7.557408809661865">
        <ele>301.0</ele>
        <time>2019-04-30T06:54:50.000Z</time>
      </trkpt>
      <trkpt lat="42.52958679199219" lon="-7.557453632354736">
        <ele>302.0</ele>
        <time>2019-04-30T06:54:53.000Z</time>
      </trkpt>
      <trkpt lat="42.529571533203125" lon="-7.557495594024658">
        <ele>303.0</ele>
        <time>2019-04-30T06:54:57.000Z</time>
      </trkpt>
      <trkpt lat="42.52955627441406" lon="-7.557535648345947">
        <ele>304.0</ele>
        <time>2019-04-30T06:55:00.000Z</time>
      </trkpt>
      <trkpt lat="42.5295524597168" lon="-7.557558536529541">
        <ele>304.0</ele>
        <time>2019-04-30T06:55:02.000Z</time>
      </trkpt>
      <trkpt lat="42.52954864501953" lon="-7.557572364807129">
        <ele>305.0</ele>
        <time>2019-04-30T06:55:03.000Z</time>
      </trkpt>
      <trkpt lat="42.52954864501953" lon="-7.55757999420166">
        <ele>305.0</ele>
        <time>2019-04-30T06:55:04.000Z</time>
      </trkpt>
      <trkpt lat="42.52954864501953" lon="-7.557584762573242">
        <ele>305.0</ele>
        <time>2019-04-30T06:55:05.000Z</time>
      </trkpt>
      <trkpt lat="42.529544830322266" lon="-7.557599067687988">
        <ele>305.0</ele>
        <time>2019-04-30T06:55:08.000Z</time>
      </trkpt>
      <trkpt lat="42.529541015625" lon="-7.557614326477051">
        <ele>305.0</ele>
        <time>2019-04-30T06:55:12.000Z</time>
      </trkpt>
      <trkpt lat="42.529537200927734" lon="-7.557629585266113">
        <ele>305.0</ele>
        <time>2019-04-30T06:55:15.000Z</time>
      </trkpt>
      <trkpt lat="42.52953338623047" lon="-7.557645797729492">
        <ele>305.0</ele>
        <time>2019-04-30T06:55:18.000Z</time>
      </trkpt>
      <trkpt lat="42.5295295715332" lon="-7.557657241821289">
        <ele>305.0</ele>
        <time>2019-04-30T06:55:19.000Z</time>
      </trkpt>
      <trkpt lat="42.52952575683594" lon="-7.557666778564453">
        <ele>305.0</ele>
        <time>2019-04-30T06:55:19.000Z</time>
      </trkpt>
      <trkpt lat="42.52952575683594" lon="-7.557675361633301">
        <ele>305.0</ele>
        <time>2019-04-30T06:55:19.000Z</time>
      </trkpt>
      <trkpt lat="42.52952194213867" lon="-7.557682991027832">
        <ele>305.0</ele>
        <time>2019-04-30T06:55:19.000Z</time>
      </trkpt>
      <trkpt lat="42.52950668334961" lon="-7.557765007019043">
        <ele>305.0</ele>
        <time>2019-04-30T06:55:25.000Z</time>
      </trkpt>
      <trkpt lat="42.52948760986328" lon="-7.557877063751221">
        <ele>305.0</ele>
        <time>2019-04-30T06:55:31.000Z</time>
      </trkpt>
      <trkpt lat="42.52946472167969" lon="-7.558009147644043">
        <ele>305.0</ele>
        <time>2019-04-30T06:55:37.000Z</time>
      </trkpt>
      <trkpt lat="42.52943801879883" lon="-7.5581512451171875">
        <ele>305.0</ele>
        <time>2019-04-30T06:55:42.000Z</time>
      </trkpt>
      <trkpt lat="42.52943420410156" lon="-7.5582709312438965">
        <ele>305.0</ele>
        <time>2019-04-30T06:55:50.000Z</time>
      </trkpt>
      <trkpt lat="42.52943420410156" lon="-7.558391571044922">
        <ele>306.0</ele>
        <time>2019-04-30T06:55:57.000Z</time>
      </trkpt>
      <trkpt lat="42.529441833496094" lon="-7.5585126876831055">
        <ele>307.0</ele>
        <time>2019-04-30T06:56:04.000Z</time>
      </trkpt>
      <trkpt lat="42.529449462890625" lon="-7.558634281158447">
        <ele>308.0</ele>
        <time>2019-04-30T06:56:11.000Z</time>
      </trkpt>
      <trkpt lat="42.52951431274414" lon="-7.558825969696045">
        <ele>309.0</ele>
        <time>2019-04-30T06:56:24.000Z</time>
      </trkpt>
      <trkpt lat="42.52960205078125" lon="-7.558994293212891">
        <ele>309.0</ele>
        <time>2019-04-30T06:56:37.000Z</time>
      </trkpt>
      <trkpt lat="42.5296516418457" lon="-7.559085845947266">
        <ele>310.0</ele>
        <time>2019-04-30T06:56:45.000Z</time>
      </trkpt>
      <trkpt lat="42.52970504760742" lon="-7.559178352355957">
        <ele>311.0</ele>
        <time>2019-04-30T06:56:53.000Z</time>
      </trkpt>
      <trkpt lat="42.529762268066406" lon="-7.55927038192749">
        <ele>312.0</ele>
        <time>2019-04-30T06:57:01.000Z</time>
      </trkpt>
      <trkpt lat="42.52981948852539" lon="-7.55936336517334">
        <ele>313.0</ele>
        <time>2019-04-30T06:57:09.000Z</time>
      </trkpt>
      <trkpt lat="42.52985382080078" lon="-7.559418678283691">
        <ele>314.0</ele>
        <time>2019-04-30T06:57:15.000Z</time>
      </trkpt>
      <trkpt lat="42.529876708984375" lon="-7.559459209442139">
        <ele>314.0</ele>
        <time>2019-04-30T06:57:20.000Z</time>
      </trkpt>
      <trkpt lat="42.52989196777344" lon="-7.559488773345947">
        <ele>314.0</ele>
        <time>2019-04-30T06:57:26.000Z</time>
      </trkpt>
      <trkpt lat="42.5299072265625" lon="-7.559514045715332">
        <ele>314.0</ele>
        <time>2019-04-30T06:57:31.000Z</time>
      </trkpt>
      <trkpt lat="42.52992248535156" lon="-7.559545993804932">
        <ele>315.0</ele>
        <time>2019-04-30T06:57:37.000Z</time>
      </trkpt>
      <trkpt lat="42.52993392944336" lon="-7.559576034545898">
        <ele>315.0</ele>
        <time>2019-04-30T06:57:42.000Z</time>
      </trkpt>
      <trkpt lat="42.52994155883789" lon="-7.559605121612549">
        <ele>315.0</ele>
        <time>2019-04-30T06:57:48.000Z</time>
      </trkpt>
      <trkpt lat="42.52994918823242" lon="-7.559632778167725">
        <ele>316.0</ele>
        <time>2019-04-30T06:57:53.000Z</time>
      </trkpt>
      <trkpt lat="42.52995300292969" lon="-7.55964994430542">
        <ele>316.0</ele>
        <time>2019-04-30T06:57:54.000Z</time>
      </trkpt>
      <trkpt lat="42.52995681762695" lon="-7.559661865234375">
        <ele>316.0</ele>
        <time>2019-04-30T06:57:54.000Z</time>
      </trkpt>
      <trkpt lat="42.52996063232422" lon="-7.559670448303223">
        <ele>316.0</ele>
        <time>2019-04-30T06:57:54.000Z</time>
      </trkpt>
      <trkpt lat="42.529964447021484" lon="-7.5596771240234375">
        <ele>316.0</ele>
        <time>2019-04-30T06:57:54.000Z</time>
      </trkpt>
      <trkpt lat="42.52999496459961" lon="-7.559751510620117">
        <ele>315.0</ele>
        <time>2019-04-30T06:58:00.000Z</time>
      </trkpt>
      <trkpt lat="42.53003692626953" lon="-7.55985164642334">
        <ele>314.0</ele>
        <time>2019-04-30T06:58:06.000Z</time>
      </trkpt>
      <trkpt lat="42.53009033203125" lon="-7.559969902038574">
        <ele>313.0</ele>
        <time>2019-04-30T06:58:12.000Z</time>
      </trkpt>
      <trkpt lat="42.53014373779297" lon="-7.560096740722656">
        <ele>312.0</ele>
        <time>2019-04-30T06:58:18.000Z</time>
      </trkpt>
      <trkpt lat="42.53019332885742" lon="-7.560576438903809">
        <ele>314.0</ele>
        <time>2019-04-30T06:58:51.000Z</time>
      </trkpt>
      <trkpt lat="42.530250549316406" lon="-7.5610551834106445">
        <ele>316.0</ele>
        <time>2019-04-30T06:59:23.000Z</time>
      </trkpt>
      <trkpt lat="42.53030776977539" lon="-7.561540603637695">
        <ele>314.0</ele>
        <time>2019-04-30T06:59:51.000Z</time>
      </trkpt>
      <trkpt lat="42.53035354614258" lon="-7.562017917633057">
        <ele>312.0</ele>
        <time>2019-04-30T07:00:17.000Z</time>
      </trkpt>
      <trkpt lat="42.53040313720703" lon="-7.562502861022949">
        <ele>313.0</ele>
        <time>2019-04-30T07:00:47.000Z</time>
      </trkpt>
      <trkpt lat="42.5305290222168" lon="-7.562947750091553">
        <ele>313.0</ele>
        <time>2019-04-30T07:01:14.000Z</time>
      </trkpt>
      <trkpt lat="42.530662536621094" lon="-7.56339693069458">
        <ele>315.0</ele>
        <time>2019-04-30T07:01:43.000Z</time>
      </trkpt>
      <trkpt lat="42.53083038330078" lon="-7.563815593719482">
        <ele>316.0</ele>
        <time>2019-04-30T07:02:14.000Z</time>
      </trkpt>
      <trkpt lat="42.531036376953125" lon="-7.56420373916626">
        <ele>317.0</ele>
        <time>2019-04-30T07:02:42.000Z</time>
      </trkpt>
      <trkpt lat="42.53120803833008" lon="-7.564639091491699">
        <ele>319.0</ele>
        <time>2019-04-30T07:03:10.000Z</time>
      </trkpt>
      <trkpt lat="42.531375885009766" lon="-7.565071105957031">
        <ele>322.0</ele>
        <time>2019-04-30T07:03:41.000Z</time>
      </trkpt>
      <trkpt lat="42.53157043457031" lon="-7.5654754638671875">
        <ele>318.0</ele>
        <time>2019-04-30T07:04:13.000Z</time>
      </trkpt>
      <trkpt lat="42.531715393066406" lon="-7.565913200378418">
        <ele>317.0</ele>
        <time>2019-04-30T07:04:42.000Z</time>
      </trkpt>
      <trkpt lat="42.531734466552734" lon="-7.566402912139893">
        <ele>312.0</ele>
        <time>2019-04-30T07:05:16.000Z</time>
      </trkpt>
      <trkpt lat="42.53168869018555" lon="-7.566875457763672">
        <ele>309.0</ele>
        <time>2019-04-30T07:05:47.000Z</time>
      </trkpt>
      <trkpt lat="42.531585693359375" lon="-7.5673441886901855">
        <ele>307.0</ele>
        <time>2019-04-30T07:06:14.000Z</time>
      </trkpt>
      <trkpt lat="42.53145980834961" lon="-7.567802906036377">
        <ele>307.0</ele>
        <time>2019-04-30T07:06:45.000Z</time>
      </trkpt>
      <trkpt lat="42.53135299682617" lon="-7.568266868591309">
        <ele>304.0</ele>
        <time>2019-04-30T07:07:13.000Z</time>
      </trkpt>
      <trkpt lat="42.531341552734375" lon="-7.568359375">
        <ele>303.0</ele>
        <time>2019-04-30T07:07:21.000Z</time>
      </trkpt>
      <trkpt lat="42.53133773803711" lon="-7.568406581878662">
        <ele>302.0</ele>
        <time>2019-04-30T07:07:37.000Z</time>
      </trkpt>
      <trkpt lat="42.53133773803711" lon="-7.5684404373168945">
        <ele>302.0</ele>
        <time>2019-04-30T07:07:38.000Z</time>
      </trkpt>
      <trkpt lat="42.53132629394531" lon="-7.568902015686035">
        <ele>301.0</ele>
        <time>2019-04-30T07:07:51.000Z</time>
      </trkpt>
      <trkpt lat="42.53130340576172" lon="-7.569364547729492">
        <ele>300.0</ele>
        <time>2019-04-30T07:08:18.000Z</time>
      </trkpt>
      <trkpt lat="42.531307220458984" lon="-7.56984281539917">
        <ele>302.0</ele>
        <time>2019-04-30T07:08:47.000Z</time>
      </trkpt>
      <trkpt lat="42.53131103515625" lon="-7.570040225982666">
        <ele>301.0</ele>
        <time>2019-04-30T07:09:08.000Z</time>
      </trkpt>
      <trkpt lat="42.53130340576172" lon="-7.570093154907227">
        <ele>308.0</ele>
        <time>2019-04-30T07:10:09.000Z</time>
      </trkpt>
      <trkpt lat="42.53129577636719" lon="-7.57012939453125">
        <ele>308.0</ele>
        <time>2019-04-30T07:10:10.000Z</time>
      </trkpt>
      <trkpt lat="42.53129577636719" lon="-7.570429801940918">
        <ele>309.0</ele>
        <time>2019-04-30T07:10:20.000Z</time>
      </trkpt>
      <trkpt lat="42.53129959106445" lon="-7.570496559143066">
        <ele>310.0</ele>
        <time>2019-04-30T07:10:33.000Z</time>
      </trkpt>
      <trkpt lat="42.53130340576172" lon="-7.570537567138672">
        <ele>310.0</ele>
        <time>2019-04-30T07:10:34.000Z</time>
      </trkpt>
      <trkpt lat="42.53135681152344" lon="-7.571009635925293">
        <ele>310.0</ele>
        <time>2019-04-30T07:10:53.000Z</time>
      </trkpt>
      <trkpt lat="42.531402587890625" lon="-7.571488380432129">
        <ele>313.0</ele>
        <time>2019-04-30T07:11:21.000Z</time>
      </trkpt>
      <trkpt lat="42.5313606262207" lon="-7.571970462799072">
        <ele>312.0</ele>
        <time>2019-04-30T07:11:49.000Z</time>
      </trkpt>
      <trkpt lat="42.53139114379883" lon="-7.572335720062256">
        <ele>314.0</ele>
        <time>2019-04-30T07:12:15.000Z</time>
      </trkpt>
      <trkpt lat="42.53139877319336" lon="-7.572387218475342">
        <ele>315.0</ele>
        <time>2019-04-30T07:12:27.000Z</time>
      </trkpt>
      <trkpt lat="42.53140640258789" lon="-7.572422027587891">
        <ele>315.0</ele>
        <time>2019-04-30T07:12:28.000Z</time>
      </trkpt>
      <trkpt lat="42.53147888183594" lon="-7.57288122177124">
        <ele>315.0</ele>
        <time>2019-04-30T07:12:46.000Z</time>
      </trkpt>
      <trkpt lat="42.53157424926758" lon="-7.573353290557861">
        <ele>315.0</ele>
        <time>2019-04-30T07:13:11.000Z</time>
      </trkpt>
      <trkpt lat="42.53166198730469" lon="-7.573801040649414">
        <ele>315.0</ele>
        <time>2019-04-30T07:13:37.000Z</time>
      </trkpt>
      <trkpt lat="42.5317268371582" lon="-7.574252128601074">
        <ele>316.0</ele>
        <time>2019-04-30T07:14:06.000Z</time>
      </trkpt>
      <trkpt lat="42.531734466552734" lon="-7.574723720550537">
        <ele>316.0</ele>
        <time>2019-04-30T07:14:33.000Z</time>
      </trkpt>
      <trkpt lat="42.531795501708984" lon="-7.574898719787598">
        <ele>315.0</ele>
        <time>2019-04-30T07:14:44.000Z</time>
      </trkpt>
      <trkpt lat="42.53187942504883" lon="-7.575045585632324">
        <ele>315.0</ele>
        <time>2019-04-30T07:14:55.000Z</time>
      </trkpt>
      <trkpt lat="42.531898498535156" lon="-7.575113296508789">
        <ele>314.0</ele>
        <time>2019-04-30T07:14:59.000Z</time>
      </trkpt>
      <trkpt lat="42.53191375732422" lon="-7.575175762176514">
        <ele>314.0</ele>
        <time>2019-04-30T07:15:02.000Z</time>
      </trkpt>
      <trkpt lat="42.531925201416016" lon="-7.575234889984131">
        <ele>314.0</ele>
        <time>2019-04-30T07:15:06.000Z</time>
      </trkpt>
      <trkpt lat="42.53193283081055" lon="-7.575292110443115">
        <ele>314.0</ele>
        <time>2019-04-30T07:15:10.000Z</time>
      </trkpt>
      <trkpt lat="42.531951904296875" lon="-7.575350761413574">
        <ele>313.0</ele>
        <time>2019-04-30T07:15:14.000Z</time>
      </trkpt>
      <trkpt lat="42.5319709777832" lon="-7.575407981872559">
        <ele>312.0</ele>
        <time>2019-04-30T07:15:18.000Z</time>
      </trkpt>
      <trkpt lat="42.5319938659668" lon="-7.575464248657227">
        <ele>311.0</ele>
        <time>2019-04-30T07:15:22.000Z</time>
      </trkpt>
      <trkpt lat="42.53201675415039" lon="-7.575520038604736">
        <ele>310.0</ele>
        <time>2019-04-30T07:15:26.000Z</time>
      </trkpt>
      <trkpt lat="42.53205871582031" lon="-7.5756072998046875">
        <ele>309.0</ele>
        <time>2019-04-30T07:15:34.000Z</time>
      </trkpt>
      <trkpt lat="42.5321044921875" lon="-7.57570743560791">
        <ele>308.0</ele>
        <time>2019-04-30T07:15:42.000Z</time>
      </trkpt>
      <trkpt lat="42.53215789794922" lon="-7.575815677642822">
        <ele>307.0</ele>
        <time>2019-04-30T07:15:50.000Z</time>
      </trkpt>
      <trkpt lat="42.5322151184082" lon="-7.575928688049316">
        <ele>306.0</ele>
        <time>2019-04-30T07:15:57.000Z</time>
      </trkpt>
      <trkpt lat="42.53225326538086" lon="-7.576038837432861">
        <ele>305.0</ele>
        <time>2019-04-30T07:16:05.000Z</time>
      </trkpt>
      <trkpt lat="42.532283782958984" lon="-7.576152324676514">
        <ele>305.0</ele>
        <time>2019-04-30T07:16:12.000Z</time>
      </trkpt>
      <trkpt lat="42.53231430053711" lon="-7.576267719268799">
        <ele>305.0</ele>
        <time>2019-04-30T07:16:19.000Z</time>
      </trkpt>
      <trkpt lat="42.532344818115234" lon="-7.576384544372559">
        <ele>305.0</ele>
        <time>2019-04-30T07:16:26.000Z</time>
      </trkpt>
      <trkpt lat="42.532379150390625" lon="-7.576492786407471">
        <ele>306.0</ele>
        <time>2019-04-30T07:16:35.000Z</time>
      </trkpt>
      <trkpt lat="42.53241729736328" lon="-7.57659912109375">
        <ele>306.0</ele>
        <time>2019-04-30T07:16:43.000Z</time>
      </trkpt>
      <trkpt lat="42.5324592590332" lon="-7.5767035484313965">
        <ele>306.0</ele>
        <time>2019-04-30T07:16:51.000Z</time>
      </trkpt>
      <trkpt lat="42.53249740600586" lon="-7.576807498931885">
        <ele>307.0</ele>
        <time>2019-04-30T07:16:59.000Z</time>
      </trkpt>
      <trkpt lat="42.53267288208008" lon="-7.577235698699951">
        <ele>311.0</ele>
        <time>2019-04-30T07:17:30.000Z</time>
      </trkpt>
      <trkpt lat="42.53282165527344" lon="-7.577678203582764">
        <ele>315.0</ele>
        <time>2019-04-30T07:18:00.000Z</time>
      </trkpt>
      <trkpt lat="42.53297805786133" lon="-7.578105926513672">
        <ele>317.0</ele>
        <time>2019-04-30T07:18:30.000Z</time>
      </trkpt>
      <trkpt lat="42.53306198120117" lon="-7.5783467292785645">
        <ele>321.0</ele>
        <time>2019-04-30T07:18:47.000Z</time>
      </trkpt>
      <trkpt lat="42.53321075439453" lon="-7.57877779006958">
        <ele>329.0</ele>
        <time>2019-04-30T07:19:23.000Z</time>
      </trkpt>
      <trkpt lat="42.533302307128906" lon="-7.579004764556885">
        <ele>332.0</ele>
        <time>2019-04-30T07:19:39.000Z</time>
      </trkpt>
      <trkpt lat="42.53337860107422" lon="-7.579241752624512">
        <ele>333.0</ele>
        <time>2019-04-30T07:19:55.000Z</time>
      </trkpt>
      <trkpt lat="42.53346252441406" lon="-7.579469680786133">
        <ele>331.0</ele>
        <time>2019-04-30T07:20:13.000Z</time>
      </trkpt>
      <trkpt lat="42.53355407714844" lon="-7.579702854156494">
        <ele>328.0</ele>
        <time>2019-04-30T07:20:29.000Z</time>
      </trkpt>
      <trkpt lat="42.53362274169922" lon="-7.579952716827393">
        <ele>330.0</ele>
        <time>2019-04-30T07:20:47.000Z</time>
      </trkpt>
      <trkpt lat="42.5337028503418" lon="-7.580184459686279">
        <ele>332.0</ele>
        <time>2019-04-30T07:21:02.000Z</time>
      </trkpt>
      <trkpt lat="42.53386306762695" lon="-7.580620765686035">
        <ele>332.0</ele>
        <time>2019-04-30T07:21:35.000Z</time>
      </trkpt>
      <trkpt lat="42.53392791748047" lon="-7.581082344055176">
        <ele>327.0</ele>
        <time>2019-04-30T07:22:05.000Z</time>
      </trkpt>
      <trkpt lat="42.53395462036133" lon="-7.58136510848999">
        <ele>328.0</ele>
        <time>2019-04-30T07:22:26.000Z</time>
      </trkpt>
      <trkpt lat="42.53396224975586" lon="-7.581470012664795">
        <ele>328.0</ele>
        <time>2019-04-30T07:23:12.000Z</time>
      </trkpt>
      <trkpt lat="42.53396224975586" lon="-7.581516742706299">
        <ele>328.0</ele>
        <time>2019-04-30T07:23:13.000Z</time>
      </trkpt>
      <trkpt lat="42.534080505371094" lon="-7.581974029541016">
        <ele>326.0</ele>
        <time>2019-04-30T07:23:35.000Z</time>
      </trkpt>
      <trkpt lat="42.534278869628906" lon="-7.582370281219482">
        <ele>318.0</ele>
        <time>2019-04-30T07:24:01.000Z</time>
      </trkpt>
      <trkpt lat="42.53450012207031" lon="-7.582744598388672">
        <ele>316.0</ele>
        <time>2019-04-30T07:24:32.000Z</time>
      </trkpt>
      <trkpt lat="42.534706115722656" lon="-7.583132743835449">
        <ele>311.0</ele>
        <time>2019-04-30T07:25:01.000Z</time>
      </trkpt>
      <trkpt lat="42.534942626953125" lon="-7.583517074584961">
        <ele>312.0</ele>
        <time>2019-04-30T07:25:30.000Z</time>
      </trkpt>
      <trkpt lat="42.53517150878906" lon="-7.58388090133667">
        <ele>314.0</ele>
        <time>2019-04-30T07:25:59.000Z</time>
      </trkpt>
      <trkpt lat="42.535430908203125" lon="-7.584203243255615">
        <ele>313.0</ele>
        <time>2019-04-30T07:26:27.000Z</time>
      </trkpt>
      <trkpt lat="42.53567886352539" lon="-7.584517955780029">
        <ele>314.0</ele>
        <time>2019-04-30T07:26:53.000Z</time>
      </trkpt>
      <trkpt lat="42.53583908081055" lon="-7.584680080413818">
        <ele>319.0</ele>
        <time>2019-04-30T07:27:09.000Z</time>
      </trkpt>
      <trkpt lat="42.53597640991211" lon="-7.5848612785339355">
        <ele>324.0</ele>
        <time>2019-04-30T07:27:25.000Z</time>
      </trkpt>
      <trkpt lat="42.536128997802734" lon="-7.584995269775391">
        <ele>326.0</ele>
        <time>2019-04-30T07:27:42.000Z</time>
      </trkpt>
      <trkpt lat="42.53640365600586" lon="-7.58530330657959">
        <ele>327.0</ele>
        <time>2019-04-30T07:28:12.000Z</time>
      </trkpt>
      <trkpt lat="42.53667449951172" lon="-7.585625648498535">
        <ele>324.0</ele>
        <time>2019-04-30T07:28:43.000Z</time>
      </trkpt>
      <trkpt lat="42.5368537902832" lon="-7.58581018447876">
        <ele>324.0</ele>
        <time>2019-04-30T07:28:59.000Z</time>
      </trkpt>
      <trkpt lat="42.53691482543945" lon="-7.585909366607666">
        <ele>325.0</ele>
        <time>2019-04-30T07:29:14.000Z</time>
      </trkpt>
      <trkpt lat="42.536930084228516" lon="-7.585909843444824">
        <ele>326.0</ele>
        <time>2019-04-30T07:29:22.000Z</time>
      </trkpt>
      <trkpt lat="42.53694152832031" lon="-7.58590030670166">
        <ele>328.0</ele>
        <time>2019-04-30T07:29:30.000Z</time>
      </trkpt>
      <trkpt lat="42.536956787109375" lon="-7.585884094238281">
        <ele>330.0</ele>
        <time>2019-04-30T07:29:38.000Z</time>
      </trkpt>
      <trkpt lat="42.53697204589844" lon="-7.585864543914795">
        <ele>333.0</ele>
        <time>2019-04-30T07:29:46.000Z</time>
      </trkpt>
      <trkpt lat="42.53697967529297" lon="-7.585856914520264">
        <ele>333.0</ele>
        <time>2019-04-30T07:29:47.000Z</time>
      </trkpt>
      <trkpt lat="42.5369873046875" lon="-7.585851192474365">
        <ele>334.0</ele>
        <time>2019-04-30T07:29:47.000Z</time>
      </trkpt>
      <trkpt lat="42.53699493408203" lon="-7.585846424102783">
        <ele>333.0</ele>
        <time>2019-04-30T07:29:47.000Z</time>
      </trkpt>
      <trkpt lat="42.5369987487793" lon="-7.585841655731201">
        <ele>333.0</ele>
        <time>2019-04-30T07:29:47.000Z</time>
      </trkpt>
      <trkpt lat="42.53702163696289" lon="-7.585821151733398">
        <ele>333.0</ele>
        <time>2019-04-30T07:29:48.000Z</time>
      </trkpt>
      <trkpt lat="42.53704833984375" lon="-7.585793972015381">
        <ele>333.0</ele>
        <time>2019-04-30T07:29:49.000Z</time>
      </trkpt>
      <trkpt lat="42.537078857421875" lon="-7.585762977600098">
        <ele>333.0</ele>
        <time>2019-04-30T07:29:50.000Z</time>
      </trkpt>
      <trkpt lat="42.537109375" lon="-7.585729598999023">
        <ele>333.0</ele>
        <time>2019-04-30T07:29:51.000Z</time>
      </trkpt>
      <trkpt lat="42.537147521972656" lon="-7.585602760314941">
        <ele>333.0</ele>
        <time>2019-04-30T07:30:03.000Z</time>
      </trkpt>
      <trkpt lat="42.537174224853516" lon="-7.585443019866943">
        <ele>334.0</ele>
        <time>2019-04-30T07:30:14.000Z</time>
      </trkpt>
      <trkpt lat="42.5372314453125" lon="-7.5853400230407715">
        <ele>334.0</ele>
        <time>2019-04-30T07:30:20.000Z</time>
      </trkpt>
      <trkpt lat="42.537296295166016" lon="-7.585255146026611">
        <ele>333.0</ele>
        <time>2019-04-30T07:30:26.000Z</time>
      </trkpt>
      <trkpt lat="42.537330627441406" lon="-7.585216045379639">
        <ele>333.0</ele>
        <time>2019-04-30T07:30:30.000Z</time>
      </trkpt>
      <trkpt lat="42.5373649597168" lon="-7.585180282592773">
        <ele>332.0</ele>
        <time>2019-04-30T07:30:33.000Z</time>
      </trkpt>
      <trkpt lat="42.53740310668945" lon="-7.585146903991699">
        <ele>332.0</ele>
        <time>2019-04-30T07:30:37.000Z</time>
      </trkpt>
      <trkpt lat="42.537437438964844" lon="-7.585114479064941">
        <ele>331.0</ele>
        <time>2019-04-30T07:30:40.000Z</time>
      </trkpt>
      <trkpt lat="42.537471771240234" lon="-7.585073947906494">
        <ele>330.0</ele>
        <time>2019-04-30T07:30:45.000Z</time>
      </trkpt>
      <trkpt lat="42.537506103515625" lon="-7.585031032562256">
        <ele>328.0</ele>
        <time>2019-04-30T07:30:49.000Z</time>
      </trkpt>
      <trkpt lat="42.537540435791016" lon="-7.584986686706543">
        <ele>326.0</ele>
        <time>2019-04-30T07:30:54.000Z</time>
      </trkpt>
      <trkpt lat="42.537574768066406" lon="-7.584941864013672">
        <ele>324.0</ele>
        <time>2019-04-30T07:30:59.000Z</time>
      </trkpt>
      <trkpt lat="42.53761291503906" lon="-7.584909439086914">
        <ele>322.0</ele>
        <time>2019-04-30T07:31:02.000Z</time>
      </trkpt>
      <trkpt lat="42.537654876708984" lon="-7.5848822593688965">
        <ele>321.0</ele>
        <time>2019-04-30T07:31:06.000Z</time>
      </trkpt>
      <trkpt lat="42.537696838378906" lon="-7.58485746383667">
        <ele>319.0</ele>
        <time>2019-04-30T07:31:09.000Z</time>
      </trkpt>
      <trkpt lat="42.537742614746094" lon="-7.584835052490234">
        <ele>318.0</ele>
        <time>2019-04-30T07:31:13.000Z</time>
      </trkpt>
      <trkpt lat="42.5378303527832" lon="-7.5848283767700195">
        <ele>316.0</ele>
        <time>2019-04-30T07:31:20.000Z</time>
      </trkpt>
      <trkpt lat="42.537925720214844" lon="-7.58484411239624">
        <ele>313.0</ele>
        <time>2019-04-30T07:31:27.000Z</time>
      </trkpt>
      <trkpt lat="42.53797149658203" lon="-7.5848565101623535">
        <ele>313.0</ele>
        <time>2019-04-30T07:31:31.000Z</time>
      </trkpt>
      <trkpt lat="42.53801727294922" lon="-7.584873199462891">
        <ele>314.0</ele>
        <time>2019-04-30T07:31:34.000Z</time>
      </trkpt>
      <trkpt lat="42.538063049316406" lon="-7.584892749786377">
        <ele>315.0</ele>
        <time>2019-04-30T07:31:38.000Z</time>
      </trkpt>
      <trkpt lat="42.538108825683594" lon="-7.584913730621338">
        <ele>317.0</ele>
        <time>2019-04-30T07:31:42.000Z</time>
      </trkpt>
      <trkpt lat="42.538177490234375" lon="-7.584949970245361">
        <ele>317.0</ele>
        <time>2019-04-30T07:31:50.000Z</time>
      </trkpt>
      <trkpt lat="42.53826141357422" lon="-7.584994792938232">
        <ele>316.0</ele>
        <time>2019-04-30T07:31:57.000Z</time>
      </trkpt>
      <trkpt lat="42.538352966308594" lon="-7.585044860839844">
        <ele>316.0</ele>
        <time>2019-04-30T07:32:05.000Z</time>
      </trkpt>
      <trkpt lat="42.538448333740234" lon="-7.585097789764404">
        <ele>315.0</ele>
        <time>2019-04-30T07:32:12.000Z</time>
      </trkpt>
      <trkpt lat="42.538516998291016" lon="-7.5851664543151855">
        <ele>315.0</ele>
        <time>2019-04-30T07:32:19.000Z</time>
      </trkpt>
      <trkpt lat="42.5385856628418" lon="-7.585244655609131">
        <ele>314.0</ele>
        <time>2019-04-30T07:32:25.000Z</time>
      </trkpt>
      <trkpt lat="42.53865051269531" lon="-7.585329532623291">
        <ele>315.0</ele>
        <time>2019-04-30T07:32:32.000Z</time>
      </trkpt>
      <trkpt lat="42.53871154785156" lon="-7.5854172706604">
        <ele>315.0</ele>
        <time>2019-04-30T07:32:38.000Z</time>
      </trkpt>
      <trkpt lat="42.53877639770508" lon="-7.585500717163086">
        <ele>315.0</ele>
        <time>2019-04-30T07:32:46.000Z</time>
      </trkpt>
      <trkpt lat="42.53884506225586" lon="-7.585585117340088">
        <ele>316.0</ele>
        <time>2019-04-30T07:32:54.000Z</time>
      </trkpt>
      <trkpt lat="42.538909912109375" lon="-7.585669994354248">
        <ele>317.0</ele>
        <time>2019-04-30T07:33:01.000Z</time>
      </trkpt>
      <trkpt lat="42.53897476196289" lon="-7.585755825042725">
        <ele>318.0</ele>
        <time>2019-04-30T07:33:09.000Z</time>
      </trkpt>
      <trkpt lat="42.539039611816406" lon="-7.58584451675415">
        <ele>318.0</ele>
        <time>2019-04-30T07:33:16.000Z</time>
      </trkpt>
      <trkpt lat="42.53909683227539" lon="-7.585934638977051">
        <ele>318.0</ele>
        <time>2019-04-30T07:33:23.000Z</time>
      </trkpt>
      <trkpt lat="42.53915786743164" lon="-7.586025714874268">
        <ele>318.0</ele>
        <time>2019-04-30T07:33:30.000Z</time>
      </trkpt>
      <trkpt lat="42.539215087890625" lon="-7.586117267608643">
        <ele>318.0</ele>
        <time>2019-04-30T07:33:37.000Z</time>
      </trkpt>
      <trkpt lat="42.5394401550293" lon="-7.586495876312256">
        <ele>316.0</ele>
        <time>2019-04-30T07:34:06.000Z</time>
      </trkpt>
      <trkpt lat="42.539634704589844" lon="-7.586905002593994">
        <ele>314.0</ele>
        <time>2019-04-30T07:34:35.000Z</time>
      </trkpt>
      <trkpt lat="42.53989791870117" lon="-7.587243556976318">
        <ele>318.0</ele>
        <time>2019-04-30T07:35:04.000Z</time>
      </trkpt>
      <trkpt lat="42.540199279785156" lon="-7.587510108947754">
        <ele>322.0</ele>
        <time>2019-04-30T07:35:32.000Z</time>
      </trkpt>
      <trkpt lat="42.54050827026367" lon="-7.587762832641602">
        <ele>326.0</ele>
        <time>2019-04-30T07:36:00.000Z</time>
      </trkpt>
      <trkpt lat="42.54075622558594" lon="-7.588047504425049">
        <ele>328.0</ele>
        <time>2019-04-30T07:36:29.000Z</time>
      </trkpt>
      <trkpt lat="42.5407600402832" lon="-7.588056564331055">
        <ele>328.0</ele>
        <time>2019-04-30T07:36:32.000Z</time>
      </trkpt>
      <trkpt lat="42.540767669677734" lon="-7.588146209716797">
        <ele>333.0</ele>
        <time>2019-04-30T07:37:14.000Z</time>
      </trkpt>
      <trkpt lat="42.540775299072266" lon="-7.588193893432617">
        <ele>333.0</ele>
        <time>2019-04-30T07:37:15.000Z</time>
      </trkpt>
      <trkpt lat="42.540802001953125" lon="-7.588547229766846">
        <ele>335.0</ele>
        <time>2019-04-30T07:37:32.000Z</time>
      </trkpt>
      <trkpt lat="42.540794372558594" lon="-7.588595390319824">
        <ele>335.0</ele>
        <time>2019-04-30T07:37:34.000Z</time>
      </trkpt>
      <trkpt lat="42.540775299072266" lon="-7.588627338409424">
        <ele>335.0</ele>
        <time>2019-04-30T07:37:35.000Z</time>
      </trkpt>
      <trkpt lat="42.54075241088867" lon="-7.588648319244385">
        <ele>335.0</ele>
        <time>2019-04-30T07:37:37.000Z</time>
      </trkpt>
      <trkpt lat="42.54072952270508" lon="-7.588663578033447">
        <ele>335.0</ele>
        <time>2019-04-30T07:37:39.000Z</time>
      </trkpt>
      <trkpt lat="42.54069519042969" lon="-7.588744640350342">
        <ele>334.0</ele>
        <time>2019-04-30T07:37:46.000Z</time>
      </trkpt>
      <trkpt lat="42.54065704345703" lon="-7.5888471603393555">
        <ele>333.0</ele>
        <time>2019-04-30T07:37:52.000Z</time>
      </trkpt>
      <trkpt lat="42.540611267089844" lon="-7.588963985443115">
        <ele>332.0</ele>
        <time>2019-04-30T07:37:59.000Z</time>
      </trkpt>
      <trkpt lat="42.540565490722656" lon="-7.589087963104248">
        <ele>331.0</ele>
        <time>2019-04-30T07:38:06.000Z</time>
      </trkpt>
      <trkpt lat="42.54052734375" lon="-7.589196681976318">
        <ele>330.0</ele>
        <time>2019-04-30T07:38:14.000Z</time>
      </trkpt>
      <trkpt lat="42.54049301147461" lon="-7.589305877685547">
        <ele>330.0</ele>
        <time>2019-04-30T07:38:23.000Z</time>
      </trkpt>
      <trkpt lat="42.54045486450195" lon="-7.589416027069092">
        <ele>329.0</ele>
        <time>2019-04-30T07:38:32.000Z</time>
      </trkpt>
      <trkpt lat="42.54042053222656" lon="-7.589526176452637">
        <ele>329.0</ele>
        <time>2019-04-30T07:38:40.000Z</time>
      </trkpt>
      <trkpt lat="42.54035568237305" lon="-7.589620590209961">
        <ele>328.0</ele>
        <time>2019-04-30T07:38:47.000Z</time>
      </trkpt>
      <trkpt lat="42.54029083251953" lon="-7.589658260345459">
        <ele>328.0</ele>
        <time>2019-04-30T07:38:54.000Z</time>
      </trkpt>
      <trkpt lat="42.54019546508789" lon="-7.589683532714844">
        <ele>328.0</ele>
        <time>2019-04-30T07:39:07.000Z</time>
      </trkpt>
      <trkpt lat="42.54008483886719" lon="-7.589690208435059">
        <ele>327.0</ele>
        <time>2019-04-30T07:39:19.000Z</time>
      </trkpt>
      <trkpt lat="42.540035247802734" lon="-7.589690685272217">
        <ele>329.0</ele>
        <time>2019-04-30T07:39:24.000Z</time>
      </trkpt>
      <trkpt lat="42.539981842041016" lon="-7.589688301086426">
        <ele>330.0</ele>
        <time>2019-04-30T07:39:29.000Z</time>
      </trkpt>
      <trkpt lat="42.5399284362793" lon="-7.589684009552002">
        <ele>333.0</ele>
        <time>2019-04-30T07:39:33.000Z</time>
      </trkpt>
      <trkpt lat="42.53987503051758" lon="-7.5896782875061035">
        <ele>335.0</ele>
        <time>2019-04-30T07:39:38.000Z</time>
      </trkpt>
      <trkpt lat="42.53984832763672" lon="-7.589741230010986">
        <ele>336.0</ele>
        <time>2019-04-30T07:39:49.000Z</time>
      </trkpt>
      <trkpt lat="42.53983688354492" lon="-7.589831829071045">
        <ele>337.0</ele>
        <time>2019-04-30T07:40:00.000Z</time>
      </trkpt>
      <trkpt lat="42.53983688354492" lon="-7.589940547943115">
        <ele>337.0</ele>
        <time>2019-04-30T07:40:10.000Z</time>
      </trkpt>
      <trkpt lat="42.53983688354492" lon="-7.590058326721191">
        <ele>338.0</ele>
        <time>2019-04-30T07:40:21.000Z</time>
      </trkpt>
      <trkpt lat="42.539825439453125" lon="-7.590092182159424">
        <ele>338.0</ele>
        <time>2019-04-30T07:40:23.000Z</time>
      </trkpt>
      <trkpt lat="42.53981018066406" lon="-7.590099811553955">
        <ele>339.0</ele>
        <time>2019-04-30T07:40:24.000Z</time>
      </trkpt>
      <trkpt lat="42.539794921875" lon="-7.590090751647949">
        <ele>339.0</ele>
        <time>2019-04-30T07:40:26.000Z</time>
      </trkpt>
      <trkpt lat="42.53977966308594" lon="-7.5900726318359375">
        <ele>339.0</ele>
        <time>2019-04-30T07:40:27.000Z</time>
      </trkpt>
      <trkpt lat="42.539764404296875" lon="-7.590074062347412">
        <ele>340.0</ele>
        <time>2019-04-30T07:40:33.000Z</time>
      </trkpt>
      <trkpt lat="42.53974914550781" lon="-7.59007453918457">
        <ele>341.0</ele>
        <time>2019-04-30T07:40:39.000Z</time>
      </trkpt>
      <trkpt lat="42.539737701416016" lon="-7.59007453918457">
        <ele>342.0</ele>
        <time>2019-04-30T07:40:44.000Z</time>
      </trkpt>
      <trkpt lat="42.53972244262695" lon="-7.59007453918457">
        <ele>344.0</ele>
        <time>2019-04-30T07:40:50.000Z</time>
      </trkpt>
      <trkpt lat="42.539710998535156" lon="-7.5900750160217285">
        <ele>345.0</ele>
        <time>2019-04-30T07:40:50.000Z</time>
      </trkpt>
      <trkpt lat="42.539703369140625" lon="-7.5900750160217285">
        <ele>345.0</ele>
        <time>2019-04-30T07:40:51.000Z</time>
      </trkpt>
      <trkpt lat="42.539695739746094" lon="-7.590075492858887">
        <ele>344.0</ele>
        <time>2019-04-30T07:40:51.000Z</time>
      </trkpt>
      <trkpt lat="42.53969192504883" lon="-7.590075492858887">
        <ele>344.0</ele>
        <time>2019-04-30T07:40:51.000Z</time>
      </trkpt>
      <trkpt lat="42.539634704589844" lon="-7.590082168579102">
        <ele>344.0</ele>
        <time>2019-04-30T07:40:55.000Z</time>
      </trkpt>
      <trkpt lat="42.539554595947266" lon="-7.590091705322266">
        <ele>344.0</ele>
        <time>2019-04-30T07:41:00.000Z</time>
      </trkpt>
      <trkpt lat="42.53946304321289" lon="-7.590102672576904">
        <ele>344.0</ele>
        <time>2019-04-30T07:41:04.000Z</time>
      </trkpt>
      <trkpt lat="42.53936767578125" lon="-7.590115070343018">
        <ele>345.0</ele>
        <time>2019-04-30T07:41:08.000Z</time>
      </trkpt>
      <trkpt lat="42.53938674926758" lon="-7.590155601501465">
        <ele>345.0</ele>
        <time>2019-04-30T07:41:16.000Z</time>
      </trkpt>
      <trkpt lat="42.539451599121094" lon="-7.590209007263184">
        <ele>346.0</ele>
        <time>2019-04-30T07:41:24.000Z</time>
      </trkpt>
      <trkpt lat="42.5395393371582" lon="-7.590271472930908">
        <ele>346.0</ele>
        <time>2019-04-30T07:41:31.000Z</time>
      </trkpt>
      <trkpt lat="42.53964614868164" lon="-7.590337753295898">
        <ele>347.0</ele>
        <time>2019-04-30T07:41:39.000Z</time>
      </trkpt>
      <trkpt lat="42.53965377807617" lon="-7.590386390686035">
        <ele>347.0</ele>
        <time>2019-04-30T07:41:43.000Z</time>
      </trkpt>
      <trkpt lat="42.53963088989258" lon="-7.590432167053223">
        <ele>347.0</ele>
        <time>2019-04-30T07:41:47.000Z</time>
      </trkpt>
      <trkpt lat="42.53959274291992" lon="-7.590476036071777">
        <ele>347.0</ele>
        <time>2019-04-30T07:41:51.000Z</time>
      </trkpt>
      <trkpt lat="42.539546966552734" lon="-7.590518474578857">
        <ele>347.0</ele>
        <time>2019-04-30T07:41:55.000Z</time>
      </trkpt>
      <trkpt lat="42.539512634277344" lon="-7.590534687042236">
        <ele>347.0</ele>
        <time>2019-04-30T07:41:59.000Z</time>
      </trkpt>
      <trkpt lat="42.53947448730469" lon="-7.590538501739502">
        <ele>348.0</ele>
        <time>2019-04-30T07:42:02.000Z</time>
      </trkpt>
      <trkpt lat="42.53943634033203" lon="-7.590534687042236">
        <ele>348.0</ele>
        <time>2019-04-30T07:42:06.000Z</time>
      </trkpt>
      <trkpt lat="42.53939437866211" lon="-7.590526103973389">
        <ele>349.0</ele>
        <time>2019-04-30T07:42:09.000Z</time>
      </trkpt>
      <trkpt lat="42.539302825927734" lon="-7.590584754943848">
        <ele>349.0</ele>
        <time>2019-04-30T07:42:20.000Z</time>
      </trkpt>
      <trkpt lat="42.539207458496094" lon="-7.590667724609375">
        <ele>349.0</ele>
        <time>2019-04-30T07:42:31.000Z</time>
      </trkpt>
      <trkpt lat="42.53914260864258" lon="-7.590729236602783">
        <ele>349.0</ele>
        <time>2019-04-30T07:42:39.000Z</time>
      </trkpt>
      <trkpt lat="42.5390739440918" lon="-7.59080171585083">
        <ele>349.0</ele>
        <time>2019-04-30T07:42:48.000Z</time>
      </trkpt>
      <trkpt lat="42.53900146484375" lon="-7.59088134765625">
        <ele>349.0</ele>
        <time>2019-04-30T07:42:56.000Z</time>
      </trkpt>
      <trkpt lat="42.53892517089844" lon="-7.5909647941589355">
        <ele>348.0</ele>
        <time>2019-04-30T07:43:04.000Z</time>
      </trkpt>
      <trkpt lat="42.538875579833984" lon="-7.591021537780762">
        <ele>349.0</ele>
        <time>2019-04-30T07:43:10.000Z</time>
      </trkpt>
      <trkpt lat="42.53883743286133" lon="-7.591071128845215">
        <ele>349.0</ele>
        <time>2019-04-30T07:43:15.000Z</time>
      </trkpt>
      <trkpt lat="42.53880310058594" lon="-7.591115951538086">
        <ele>349.0</ele>
        <time>2019-04-30T07:43:21.000Z</time>
      </trkpt>
      <trkpt lat="42.53877639770508" lon="-7.591158390045166">
        <ele>350.0</ele>
        <time>2019-04-30T07:43:26.000Z</time>
      </trkpt>
      <trkpt lat="42.538761138916016" lon="-7.591179370880127">
        <ele>350.0</ele>
        <time>2019-04-30T07:43:31.000Z</time>
      </trkpt>
      <trkpt lat="42.538753509521484" lon="-7.591188430786133">
        <ele>351.0</ele>
        <time>2019-04-30T07:43:36.000Z</time>
      </trkpt>
      <trkpt lat="42.538753509521484" lon="-7.591190338134766">
        <ele>351.0</ele>
        <time>2019-04-30T07:43:40.000Z</time>
      </trkpt>
      <trkpt lat="42.53875732421875" lon="-7.591187953948975">
        <ele>352.0</ele>
        <time>2019-04-30T07:43:45.000Z</time>
      </trkpt>
      <trkpt lat="42.538753509521484" lon="-7.591194152832031">
        <ele>352.0</ele>
        <time>2019-04-30T07:43:45.000Z</time>
      </trkpt>
      <trkpt lat="42.538753509521484" lon="-7.59119987487793">
        <ele>352.0</ele>
        <time>2019-04-30T07:43:46.000Z</time>
      </trkpt>
      <trkpt lat="42.53874969482422" lon="-7.59120512008667">
        <ele>352.0</ele>
        <time>2019-04-30T07:43:46.000Z</time>
      </trkpt>
      <trkpt lat="42.53874588012695" lon="-7.59121036529541">
        <ele>352.0</ele>
        <time>2019-04-30T07:43:46.000Z</time>
      </trkpt>
      <trkpt lat="42.53870391845703" lon="-7.59127140045166">
        <ele>352.0</ele>
        <time>2019-04-30T07:43:50.000Z</time>
      </trkpt>
      <trkpt lat="42.53864669799805" lon="-7.591355800628662">
        <ele>353.0</ele>
        <time>2019-04-30T07:43:54.000Z</time>
      </trkpt>
      <trkpt lat="42.53858184814453" lon="-7.591455459594727">
        <ele>353.0</ele>
        <time>2019-04-30T07:43:58.000Z</time>
      </trkpt>
      <trkpt lat="42.538509368896484" lon="-7.5915632247924805">
        <ele>353.0</ele>
        <time>2019-04-30T07:44:02.000Z</time>
      </trkpt>
      <trkpt lat="42.538238525390625" lon="-7.591872215270996">
        <ele>358.0</ele>
        <time>2019-04-30T07:44:34.000Z</time>
      </trkpt>
      <trkpt lat="42.53804397583008" lon="-7.592279434204102">
        <ele>364.0</ele>
        <time>2019-04-30T07:45:10.000Z</time>
      </trkpt>
      <trkpt lat="42.538021087646484" lon="-7.592513084411621">
        <ele>367.0</ele>
        <time>2019-04-30T07:45:27.000Z</time>
      </trkpt>
      <trkpt lat="42.538028717041016" lon="-7.592761039733887">
        <ele>370.0</ele>
        <time>2019-04-30T07:45:43.000Z</time>
      </trkpt>
      <trkpt lat="42.53802490234375" lon="-7.592880725860596">
        <ele>371.0</ele>
        <time>2019-04-30T07:45:51.000Z</time>
      </trkpt>
      <trkpt lat="42.53801727294922" lon="-7.593000411987305">
        <ele>372.0</ele>
        <time>2019-04-30T07:45:59.000Z</time>
      </trkpt>
      <trkpt lat="42.53801345825195" lon="-7.593120098114014">
        <ele>373.0</ele>
        <time>2019-04-30T07:46:06.000Z</time>
      </trkpt>
      <trkpt lat="42.53800964355469" lon="-7.593239784240723">
        <ele>374.0</ele>
        <time>2019-04-30T07:46:14.000Z</time>
      </trkpt>
      <trkpt lat="42.53801345825195" lon="-7.593358993530273">
        <ele>374.0</ele>
        <time>2019-04-30T07:46:22.000Z</time>
      </trkpt>
      <trkpt lat="42.538021087646484" lon="-7.593477249145508">
        <ele>374.0</ele>
        <time>2019-04-30T07:46:30.000Z</time>
      </trkpt>
      <trkpt lat="42.53803253173828" lon="-7.5935959815979">
        <ele>374.0</ele>
        <time>2019-04-30T07:46:37.000Z</time>
      </trkpt>
      <trkpt lat="42.53804397583008" lon="-7.593714237213135">
        <ele>374.0</ele>
        <time>2019-04-30T07:46:45.000Z</time>
      </trkpt>
      <trkpt lat="42.538047790527344" lon="-7.593831539154053">
        <ele>374.0</ele>
        <time>2019-04-30T07:46:53.000Z</time>
      </trkpt>
      <trkpt lat="42.538047790527344" lon="-7.5939483642578125">
        <ele>374.0</ele>
        <time>2019-04-30T07:47:02.000Z</time>
      </trkpt>
      <trkpt lat="42.538047790527344" lon="-7.594064712524414">
        <ele>374.0</ele>
        <time>2019-04-30T07:47:10.000Z</time>
      </trkpt>
      <trkpt lat="42.53804397583008" lon="-7.594181060791016">
        <ele>375.0</ele>
        <time>2019-04-30T07:47:18.000Z</time>
      </trkpt>
      <trkpt lat="42.53804397583008" lon="-7.594299793243408">
        <ele>375.0</ele>
        <time>2019-04-30T07:47:26.000Z</time>
      </trkpt>
      <trkpt lat="42.53804016113281" lon="-7.594419479370117">
        <ele>375.0</ele>
        <time>2019-04-30T07:47:33.000Z</time>
      </trkpt>
      <trkpt lat="42.53803634643555" lon="-7.594539642333984">
        <ele>376.0</ele>
        <time>2019-04-30T07:47:41.000Z</time>
      </trkpt>
      <trkpt lat="42.538028717041016" lon="-7.59466028213501">
        <ele>377.0</ele>
        <time>2019-04-30T07:47:48.000Z</time>
      </trkpt>
      <trkpt lat="42.53803253173828" lon="-7.594710826873779">
        <ele>377.0</ele>
        <time>2019-04-30T07:47:51.000Z</time>
      </trkpt>
      <trkpt lat="42.53803253173828" lon="-7.594732761383057">
        <ele>377.0</ele>
        <time>2019-04-30T07:47:54.000Z</time>
      </trkpt>
      <trkpt lat="42.53803634643555" lon="-7.594735622406006">
        <ele>377.0</ele>
        <time>2019-04-30T07:47:56.000Z</time>
      </trkpt>
      <trkpt lat="42.53804397583008" lon="-7.594728469848633">
        <ele>377.0</ele>
        <time>2019-04-30T07:47:59.000Z</time>
      </trkpt>
      <trkpt lat="42.53773880004883" lon="-7.602323532104492">
        <ele>421.0</ele>
        <time>2019-04-30T08:01:08.000Z</time>
      </trkpt>
      <trkpt lat="42.53779983520508" lon="-7.602593421936035">
        <ele>423.0</ele>
        <time>2019-04-30T08:01:25.000Z</time>
      </trkpt>
      <trkpt lat="42.53779983520508" lon="-7.602593421936035">
        <ele>423.0</ele>
        <time>2019-04-30T08:01:26.000Z</time>
      </trkpt>
      <trkpt lat="42.537845611572266" lon="-7.602830410003662">
        <ele>419.0</ele>
        <time>2019-04-30T08:01:44.000Z</time>
      </trkpt>
      <trkpt lat="42.537906646728516" lon="-7.603078842163086">
        <ele>414.0</ele>
        <time>2019-04-30T08:02:01.000Z</time>
      </trkpt>
      <trkpt lat="42.53792190551758" lon="-7.603339195251465">
        <ele>412.0</ele>
        <time>2019-04-30T08:02:16.000Z</time>
      </trkpt>
      <trkpt lat="42.53795623779297" lon="-7.603598594665527">
        <ele>411.0</ele>
        <time>2019-04-30T08:02:33.000Z</time>
      </trkpt>
      <trkpt lat="42.53794860839844" lon="-7.603844165802002">
        <ele>408.0</ele>
        <time>2019-04-30T08:02:48.000Z</time>
      </trkpt>
      <trkpt lat="42.53794860839844" lon="-7.604063987731934">
        <ele>407.0</ele>
        <time>2019-04-30T08:03:04.000Z</time>
      </trkpt>
      <trkpt lat="42.5379524230957" lon="-7.604071617126465">
        <ele>408.0</ele>
        <time>2019-04-30T08:03:05.000Z</time>
      </trkpt>
      <trkpt lat="42.53801727294922" lon="-7.604168891906738">
        <ele>409.0</ele>
        <time>2019-04-30T08:03:21.000Z</time>
      </trkpt>
      <trkpt lat="42.53804016113281" lon="-7.6042046546936035">
        <ele>409.0</ele>
        <time>2019-04-30T08:03:22.000Z</time>
      </trkpt>
      <trkpt lat="42.53812026977539" lon="-7.604436874389648">
        <ele>410.0</ele>
        <time>2019-04-30T08:03:32.000Z</time>
      </trkpt>
      <trkpt lat="42.53817367553711" lon="-7.604685306549072">
        <ele>410.0</ele>
        <time>2019-04-30T08:03:46.000Z</time>
      </trkpt>
      <trkpt lat="42.53825378417969" lon="-7.6049041748046875">
        <ele>408.0</ele>
        <time>2019-04-30T08:04:00.000Z</time>
      </trkpt>
      <trkpt lat="42.538333892822266" lon="-7.605136871337891">
        <ele>409.0</ele>
        <time>2019-04-30T08:04:16.000Z</time>
      </trkpt>
      <trkpt lat="42.53841018676758" lon="-7.6053619384765625">
        <ele>410.0</ele>
        <time>2019-04-30T08:04:36.000Z</time>
      </trkpt>
      <trkpt lat="42.5384407043457" lon="-7.605592727661133">
        <ele>413.0</ele>
        <time>2019-04-30T08:04:52.000Z</time>
      </trkpt>
      <trkpt lat="42.53852081298828" lon="-7.606064319610596">
        <ele>415.0</ele>
        <time>2019-04-30T08:05:18.000Z</time>
      </trkpt>
      <trkpt lat="42.53861618041992" lon="-7.606532096862793">
        <ele>420.0</ele>
        <time>2019-04-30T08:05:45.000Z</time>
      </trkpt>
      <trkpt lat="42.538692474365234" lon="-7.607015132904053">
        <ele>426.0</ele>
        <time>2019-04-30T08:06:15.000Z</time>
      </trkpt>
      <trkpt lat="42.538787841796875" lon="-7.607492446899414">
        <ele>429.0</ele>
        <time>2019-04-30T08:06:44.000Z</time>
      </trkpt>
      <trkpt lat="42.538909912109375" lon="-7.607958793640137">
        <ele>430.0</ele>
        <time>2019-04-30T08:07:12.000Z</time>
      </trkpt>
      <trkpt lat="42.53901290893555" lon="-7.608422756195068">
        <ele>425.0</ele>
        <time>2019-04-30T08:07:45.000Z</time>
      </trkpt>
      <trkpt lat="42.539058685302734" lon="-7.6086745262146">
        <ele>425.0</ele>
        <time>2019-04-30T08:08:02.000Z</time>
      </trkpt>
      <trkpt lat="42.539119720458984" lon="-7.608762741088867">
        <ele>426.0</ele>
        <time>2019-04-30T08:08:09.000Z</time>
      </trkpt>
      <trkpt lat="42.5391960144043" lon="-7.608833312988281">
        <ele>426.0</ele>
        <time>2019-04-30T08:08:17.000Z</time>
      </trkpt>
      <trkpt lat="42.53923416137695" lon="-7.608917713165283">
        <ele>426.0</ele>
        <time>2019-04-30T08:08:24.000Z</time>
      </trkpt>
      <trkpt lat="42.53927230834961" lon="-7.609020709991455">
        <ele>425.0</ele>
        <time>2019-04-30T08:08:31.000Z</time>
      </trkpt>
      <trkpt lat="42.53931427001953" lon="-7.609135627746582">
        <ele>424.0</ele>
        <time>2019-04-30T08:08:38.000Z</time>
      </trkpt>
      <trkpt lat="42.53935623168945" lon="-7.609257221221924">
        <ele>424.0</ele>
        <time>2019-04-30T08:08:45.000Z</time>
      </trkpt>
      <trkpt lat="42.53941345214844" lon="-7.609347343444824">
        <ele>423.0</ele>
        <time>2019-04-30T08:08:52.000Z</time>
      </trkpt>
      <trkpt lat="42.53947448730469" lon="-7.609430313110352">
        <ele>423.0</ele>
        <time>2019-04-30T08:08:59.000Z</time>
      </trkpt>
      <trkpt lat="42.5395393371582" lon="-7.609508514404297">
        <ele>423.0</ele>
        <time>2019-04-30T08:09:06.000Z</time>
      </trkpt>
      <trkpt lat="42.539608001708984" lon="-7.609584808349609">
        <ele>423.0</ele>
        <time>2019-04-30T08:09:13.000Z</time>
      </trkpt>
      <trkpt lat="42.539669036865234" lon="-7.609670162200928">
        <ele>422.0</ele>
        <time>2019-04-30T08:09:20.000Z</time>
      </trkpt>
      <trkpt lat="42.539730072021484" lon="-7.609756946563721">
        <ele>422.0</ele>
        <time>2019-04-30T08:09:28.000Z</time>
      </trkpt>
      <trkpt lat="42.53978729248047" lon="-7.60984468460083">
        <ele>422.0</ele>
        <time>2019-04-30T08:09:35.000Z</time>
      </trkpt>
      <trkpt lat="42.53984832763672" lon="-7.609932899475098">
        <ele>422.0</ele>
        <time>2019-04-30T08:09:42.000Z</time>
      </trkpt>
      <trkpt lat="42.53990936279297" lon="-7.610023021697998">
        <ele>422.0</ele>
        <time>2019-04-30T08:09:50.000Z</time>
      </trkpt>
      <trkpt lat="42.53996658325195" lon="-7.610114097595215">
        <ele>422.0</ele>
        <time>2019-04-30T08:09:57.000Z</time>
      </trkpt>
      <trkpt lat="42.5400276184082" lon="-7.610206604003906">
        <ele>421.0</ele>
        <time>2019-04-30T08:10:04.000Z</time>
      </trkpt>
      <trkpt lat="42.54008865356445" lon="-7.610299110412598">
        <ele>421.0</ele>
        <time>2019-04-30T08:10:12.000Z</time>
      </trkpt>
      <trkpt lat="42.540157318115234" lon="-7.610368728637695">
        <ele>421.0</ele>
        <time>2019-04-30T08:10:19.000Z</time>
      </trkpt>
      <trkpt lat="42.54023361206055" lon="-7.610429763793945">
        <ele>420.0</ele>
        <time>2019-04-30T08:10:27.000Z</time>
      </trkpt>
      <trkpt lat="42.540313720703125" lon="-7.610484600067139">
        <ele>420.0</ele>
        <time>2019-04-30T08:10:35.000Z</time>
      </trkpt>
      <trkpt lat="42.5403938293457" lon="-7.610536098480225">
        <ele>419.0</ele>
        <time>2019-04-30T08:10:42.000Z</time>
      </trkpt>
      <trkpt lat="42.54069137573242" lon="-7.610798358917236">
        <ele>415.0</ele>
        <time>2019-04-30T08:11:14.000Z</time>
      </trkpt>
      <trkpt lat="42.5407829284668" lon="-7.610864162445068">
        <ele>415.0</ele>
        <time>2019-04-30T08:11:23.000Z</time>
      </trkpt>
      <trkpt lat="42.540828704833984" lon="-7.610900402069092">
        <ele>413.0</ele>
        <time>2019-04-30T08:11:35.000Z</time>
      </trkpt>
      <trkpt lat="42.540855407714844" lon="-7.610921859741211">
        <ele>413.0</ele>
        <time>2019-04-30T08:11:36.000Z</time>
      </trkpt>
      <trkpt lat="42.54116439819336" lon="-7.611169338226318">
        <ele>412.0</ele>
        <time>2019-04-30T08:12:00.000Z</time>
      </trkpt>
      <trkpt lat="42.541473388671875" lon="-7.611392021179199">
        <ele>410.0</ele>
        <time>2019-04-30T08:12:29.000Z</time>
      </trkpt>
      <trkpt lat="42.5416374206543" lon="-7.611629009246826">
        <ele>410.0</ele>
        <time>2019-04-30T08:12:46.000Z</time>
      </trkpt>
      <trkpt lat="42.54164505004883" lon="-7.611679553985596">
        <ele>410.0</ele>
        <time>2019-04-30T08:12:50.000Z</time>
      </trkpt>
      <trkpt lat="42.54164123535156" lon="-7.6117262840271">
        <ele>410.0</ele>
        <time>2019-04-30T08:12:54.000Z</time>
      </trkpt>
      <trkpt lat="42.541622161865234" lon="-7.6117706298828125">
        <ele>410.0</ele>
        <time>2019-04-30T08:12:58.000Z</time>
      </trkpt>
      <trkpt lat="42.541603088378906" lon="-7.611814022064209">
        <ele>410.0</ele>
        <time>2019-04-30T08:13:02.000Z</time>
      </trkpt>
      <trkpt lat="42.541595458984375" lon="-7.611839771270752">
        <ele>410.0</ele>
        <time>2019-04-30T08:13:13.000Z</time>
      </trkpt>
      <trkpt lat="42.541587829589844" lon="-7.611856937408447">
        <ele>410.0</ele>
        <time>2019-04-30T08:13:24.000Z</time>
      </trkpt>
      <trkpt lat="42.54158020019531" lon="-7.611867904663086">
        <ele>410.0</ele>
        <time>2019-04-30T08:13:34.000Z</time>
      </trkpt>
      <trkpt lat="42.54157257080078" lon="-7.611876487731934">
        <ele>410.0</ele>
        <time>2019-04-30T08:13:45.000Z</time>
      </trkpt>
      <trkpt lat="42.54156494140625" lon="-7.611889362335205">
        <ele>410.0</ele>
        <time>2019-04-30T08:13:45.000Z</time>
      </trkpt>
      <trkpt lat="42.541561126708984" lon="-7.61190128326416">
        <ele>410.0</ele>
        <time>2019-04-30T08:13:46.000Z</time>
      </trkpt>
      <trkpt lat="42.54155349731445" lon="-7.611912727355957">
        <ele>410.0</ele>
        <time>2019-04-30T08:13:46.000Z</time>
      </trkpt>
      <trkpt lat="42.54154968261719" lon="-7.6119232177734375">
        <ele>410.0</ele>
        <time>2019-04-30T08:13:46.000Z</time>
      </trkpt>
      <trkpt lat="42.54151916503906" lon="-7.611995697021484">
        <ele>410.0</ele>
        <time>2019-04-30T08:13:48.000Z</time>
      </trkpt>
      <trkpt lat="42.541481018066406" lon="-7.612093448638916">
        <ele>410.0</ele>
        <time>2019-04-30T08:13:50.000Z</time>
      </trkpt>
      <trkpt lat="42.54143524169922" lon="-7.612208366394043">
        <ele>410.0</ele>
        <time>2019-04-30T08:13:51.000Z</time>
      </trkpt>
      <trkpt lat="42.541385650634766" lon="-7.612331390380859">
        <ele>410.0</ele>
        <time>2019-04-30T08:13:53.000Z</time>
      </trkpt>
      <trkpt lat="42.54136276245117" lon="-7.612566947937012">
        <ele>411.0</ele>
        <time>2019-04-30T08:14:05.000Z</time>
      </trkpt>
      <trkpt lat="42.54136657714844" lon="-7.612817287445068">
        <ele>411.0</ele>
        <time>2019-04-30T08:14:16.000Z</time>
      </trkpt>
      <trkpt lat="42.5413932800293" lon="-7.612950325012207">
        <ele>412.0</ele>
        <time>2019-04-30T08:14:22.000Z</time>
      </trkpt>
      <trkpt lat="42.54144287109375" lon="-7.613032341003418">
        <ele>413.0</ele>
        <time>2019-04-30T08:14:28.000Z</time>
      </trkpt>
      <trkpt lat="42.54145812988281" lon="-7.613067626953125">
        <ele>413.0</ele>
        <time>2019-04-30T08:14:32.000Z</time>
      </trkpt>
      <trkpt lat="42.54146957397461" lon="-7.613094806671143">
        <ele>413.0</ele>
        <time>2019-04-30T08:14:36.000Z</time>
      </trkpt>
      <trkpt lat="42.541481018066406" lon="-7.61311674118042">
        <ele>413.0</ele>
        <time>2019-04-30T08:14:39.000Z</time>
      </trkpt>
      <trkpt lat="42.5414924621582" lon="-7.613136291503906">
        <ele>413.0</ele>
        <time>2019-04-30T08:14:43.000Z</time>
      </trkpt>
      <trkpt lat="42.541500091552734" lon="-7.613151550292969">
        <ele>413.0</ele>
        <time>2019-04-30T08:14:43.000Z</time>
      </trkpt>
      <trkpt lat="42.541507720947266" lon="-7.613162517547607">
        <ele>413.0</ele>
        <time>2019-04-30T08:14:44.000Z</time>
      </trkpt>
      <trkpt lat="42.54151153564453" lon="-7.6131696701049805">
        <ele>413.0</ele>
        <time>2019-04-30T08:14:44.000Z</time>
      </trkpt>
      <trkpt lat="42.5415153503418" lon="-7.613175868988037">
        <ele>413.0</ele>
        <time>2019-04-30T08:14:44.000Z</time>
      </trkpt>
      <trkpt lat="42.54153823852539" lon="-7.61322546005249">
        <ele>413.0</ele>
        <time>2019-04-30T08:14:48.000Z</time>
      </trkpt>
      <trkpt lat="42.54157257080078" lon="-7.613290786743164">
        <ele>412.0</ele>
        <time>2019-04-30T08:14:53.000Z</time>
      </trkpt>
      <trkpt lat="42.54161071777344" lon="-7.613368034362793">
        <ele>412.0</ele>
        <time>2019-04-30T08:14:57.000Z</time>
      </trkpt>
      <trkpt lat="42.54165267944336" lon="-7.613450050354004">
        <ele>411.0</ele>
        <time>2019-04-30T08:15:01.000Z</time>
      </trkpt>
      <trkpt lat="42.54166793823242" lon="-7.6134843826293945">
        <ele>412.0</ele>
        <time>2019-04-30T08:15:16.000Z</time>
      </trkpt>
      <trkpt lat="42.54167556762695" lon="-7.613503932952881">
        <ele>413.0</ele>
        <time>2019-04-30T08:15:31.000Z</time>
      </trkpt>
      <trkpt lat="42.541683197021484" lon="-7.613513946533203">
        <ele>414.0</ele>
        <time>2019-04-30T08:15:45.000Z</time>
      </trkpt>
      <trkpt lat="42.541683197021484" lon="-7.613519191741943">
        <ele>416.0</ele>
        <time>2019-04-30T08:16:00.000Z</time>
      </trkpt>
      <trkpt lat="42.54168701171875" lon="-7.613531112670898">
        <ele>416.0</ele>
        <time>2019-04-30T08:16:00.000Z</time>
      </trkpt>
      <trkpt lat="42.54169464111328" lon="-7.6135406494140625">
        <ele>416.0</ele>
        <time>2019-04-30T08:16:00.000Z</time>
      </trkpt>
      <trkpt lat="42.54169845581055" lon="-7.613548755645752">
        <ele>416.0</ele>
        <time>2019-04-30T08:16:01.000Z</time>
      </trkpt>
      <trkpt lat="42.54169845581055" lon="-7.613555908203125">
        <ele>416.0</ele>
        <time>2019-04-30T08:16:01.000Z</time>
      </trkpt>
      <trkpt lat="42.541927337646484" lon="-7.613934516906738">
        <ele>413.0</ele>
        <time>2019-04-30T08:16:22.000Z</time>
      </trkpt>
      <trkpt lat="42.542110443115234" lon="-7.614343643188477">
        <ele>415.0</ele>
        <time>2019-04-30T08:16:50.000Z</time>
      </trkpt>
      <trkpt lat="42.54218292236328" lon="-7.614432334899902">
        <ele>415.0</ele>
        <time>2019-04-30T08:16:58.000Z</time>
      </trkpt>
      <trkpt lat="42.5422477722168" lon="-7.614467620849609">
        <ele>414.0</ele>
        <time>2019-04-30T08:17:05.000Z</time>
      </trkpt>
      <trkpt lat="42.542293548583984" lon="-7.6145853996276855">
        <ele>414.0</ele>
        <time>2019-04-30T08:17:13.000Z</time>
      </trkpt>
      <trkpt lat="42.542327880859375" lon="-7.614728927612305">
        <ele>415.0</ele>
        <time>2019-04-30T08:17:20.000Z</time>
      </trkpt>
      <trkpt lat="42.54237365722656" lon="-7.614813327789307">
        <ele>415.0</ele>
        <time>2019-04-30T08:17:28.000Z</time>
      </trkpt>
      <trkpt lat="42.54242706298828" lon="-7.614905834197998">
        <ele>415.0</ele>
        <time>2019-04-30T08:17:36.000Z</time>
      </trkpt>
      <trkpt lat="42.5424919128418" lon="-7.615004062652588">
        <ele>415.0</ele>
        <time>2019-04-30T08:17:43.000Z</time>
      </trkpt>
      <trkpt lat="42.54255676269531" lon="-7.615104675292969">
        <ele>416.0</ele>
        <time>2019-04-30T08:17:51.000Z</time>
      </trkpt>
      <trkpt lat="42.54261016845703" lon="-7.615199089050293">
        <ele>415.0</ele>
        <time>2019-04-30T08:17:59.000Z</time>
      </trkpt>
      <trkpt lat="42.542667388916016" lon="-7.615293979644775">
        <ele>415.0</ele>
        <time>2019-04-30T08:18:07.000Z</time>
      </trkpt>
      <trkpt lat="42.542720794677734" lon="-7.615388870239258">
        <ele>415.0</ele>
        <time>2019-04-30T08:18:14.000Z</time>
      </trkpt>
      <trkpt lat="42.54277801513672" lon="-7.61548376083374">
        <ele>415.0</ele>
        <time>2019-04-30T08:18:22.000Z</time>
      </trkpt>
      <trkpt lat="42.542816162109375" lon="-7.615548610687256">
        <ele>415.0</ele>
        <time>2019-04-30T08:18:28.000Z</time>
      </trkpt>
      <trkpt lat="42.542850494384766" lon="-7.615601539611816">
        <ele>414.0</ele>
        <time>2019-04-30T08:18:34.000Z</time>
      </trkpt>
      <trkpt lat="42.542877197265625" lon="-7.615645885467529">
        <ele>414.0</ele>
        <time>2019-04-30T08:18:39.000Z</time>
      </trkpt>
      <trkpt lat="42.542903900146484" lon="-7.615686416625977">
        <ele>414.0</ele>
        <time>2019-04-30T08:18:45.000Z</time>
      </trkpt>
      <trkpt lat="42.54291915893555" lon="-7.615711212158203">
        <ele>414.0</ele>
        <time>2019-04-30T08:18:50.000Z</time>
      </trkpt>
      <trkpt lat="42.54292297363281" lon="-7.615725040435791">
        <ele>414.0</ele>
        <time>2019-04-30T08:18:55.000Z</time>
      </trkpt>
      <trkpt lat="42.54292678833008" lon="-7.615732192993164">
        <ele>414.0</ele>
        <time>2019-04-30T08:18:59.000Z</time>
      </trkpt>
      <trkpt lat="42.54292297363281" lon="-7.6157355308532715">
        <ele>414.0</ele>
        <time>2019-04-30T08:19:04.000Z</time>
      </trkpt>
      <trkpt lat="42.54292678833008" lon="-7.6157450675964355">
        <ele>414.0</ele>
        <time>2019-04-30T08:19:04.000Z</time>
      </trkpt>
      <trkpt lat="42.542930603027344" lon="-7.615753173828125">
        <ele>414.0</ele>
        <time>2019-04-30T08:19:05.000Z</time>
      </trkpt>
      <trkpt lat="42.54293441772461" lon="-7.615760803222656">
        <ele>414.0</ele>
        <time>2019-04-30T08:19:05.000Z</time>
      </trkpt>
      <trkpt lat="42.542938232421875" lon="-7.615767955780029">
        <ele>414.0</ele>
        <time>2019-04-30T08:19:05.000Z</time>
      </trkpt>
      <trkpt lat="42.54313659667969" lon="-7.6161370277404785">
        <ele>418.0</ele>
        <time>2019-04-30T08:19:24.000Z</time>
      </trkpt>
      <trkpt lat="42.54334259033203" lon="-7.616525650024414">
        <ele>422.0</ele>
        <time>2019-04-30T08:19:55.000Z</time>
      </trkpt>
      <trkpt lat="42.54356002807617" lon="-7.616888999938965">
        <ele>427.0</ele>
        <time>2019-04-30T08:20:27.000Z</time>
      </trkpt>
      <trkpt lat="42.543819427490234" lon="-7.617233753204346">
        <ele>427.0</ele>
        <time>2019-04-30T08:20:59.000Z</time>
      </trkpt>
      <trkpt lat="42.543983459472656" lon="-7.617319583892822">
        <ele>429.0</ele>
        <time>2019-04-30T08:21:13.000Z</time>
      </trkpt>
      <trkpt lat="42.54416275024414" lon="-7.617366313934326">
        <ele>432.0</ele>
        <time>2019-04-30T08:21:27.000Z</time>
      </trkpt>
      <trkpt lat="42.54425048828125" lon="-7.617387294769287">
        <ele>432.0</ele>
        <time>2019-04-30T08:21:34.000Z</time>
      </trkpt>
      <trkpt lat="42.54433822631836" lon="-7.617403984069824">
        <ele>432.0</ele>
        <time>2019-04-30T08:21:42.000Z</time>
      </trkpt>
      <trkpt lat="42.54442596435547" lon="-7.617416858673096">
        <ele>432.0</ele>
        <time>2019-04-30T08:21:49.000Z</time>
      </trkpt>
      <trkpt lat="42.544517517089844" lon="-7.617428302764893">
        <ele>431.0</ele>
        <time>2019-04-30T08:21:56.000Z</time>
      </trkpt>
      <trkpt lat="42.54460525512695" lon="-7.61745023727417">
        <ele>431.0</ele>
        <time>2019-04-30T08:22:05.000Z</time>
      </trkpt>
      <trkpt lat="42.5446891784668" lon="-7.617475509643555">
        <ele>431.0</ele>
        <time>2019-04-30T08:22:14.000Z</time>
      </trkpt>
      <trkpt lat="42.544776916503906" lon="-7.617502212524414">
        <ele>431.0</ele>
        <time>2019-04-30T08:22:22.000Z</time>
      </trkpt>
      <trkpt lat="42.54486083984375" lon="-7.617530345916748">
        <ele>432.0</ele>
        <time>2019-04-30T08:22:31.000Z</time>
      </trkpt>
      <trkpt lat="42.54494857788086" lon="-7.6175618171691895">
        <ele>431.0</ele>
        <time>2019-04-30T08:22:40.000Z</time>
      </trkpt>
      <trkpt lat="42.5450325012207" lon="-7.617595672607422">
        <ele>430.0</ele>
        <time>2019-04-30T08:22:49.000Z</time>
      </trkpt>
      <trkpt lat="42.54511642456055" lon="-7.617631435394287">
        <ele>430.0</ele>
        <time>2019-04-30T08:22:58.000Z</time>
      </trkpt>
      <trkpt lat="42.54520034790039" lon="-7.617668151855469">
        <ele>429.0</ele>
        <time>2019-04-30T08:23:07.000Z</time>
      </trkpt>
      <trkpt lat="42.54522705078125" lon="-7.617705345153809">
        <ele>428.0</ele>
        <time>2019-04-30T08:23:15.000Z</time>
      </trkpt>
      <trkpt lat="42.54522705078125" lon="-7.617744445800781">
        <ele>428.0</ele>
        <time>2019-04-30T08:23:23.000Z</time>
      </trkpt>
      <trkpt lat="42.54521179199219" lon="-7.617784023284912">
        <ele>428.0</ele>
        <time>2019-04-30T08:23:30.000Z</time>
      </trkpt>
      <trkpt lat="42.54518508911133" lon="-7.617824077606201">
        <ele>427.0</ele>
        <time>2019-04-30T08:23:38.000Z</time>
      </trkpt>
      <trkpt lat="42.54518127441406" lon="-7.617841720581055">
        <ele>427.0</ele>
        <time>2019-04-30T08:23:43.000Z</time>
      </trkpt>
      <trkpt lat="42.5451774597168" lon="-7.6178507804870605">
        <ele>428.0</ele>
        <time>2019-04-30T08:23:48.000Z</time>
      </trkpt>
      <trkpt lat="42.54517364501953" lon="-7.61785364151001">
        <ele>428.0</ele>
        <time>2019-04-30T08:23:53.000Z</time>
      </trkpt>
      <trkpt lat="42.545169830322266" lon="-7.61785364151001">
        <ele>429.0</ele>
        <time>2019-04-30T08:23:58.000Z</time>
      </trkpt>
      <trkpt lat="42.545166015625" lon="-7.617859840393066">
        <ele>429.0</ele>
        <time>2019-04-30T08:23:58.000Z</time>
      </trkpt>
      <trkpt lat="42.545166015625" lon="-7.617865562438965">
        <ele>429.0</ele>
        <time>2019-04-30T08:23:59.000Z</time>
      </trkpt>
      <trkpt lat="42.545162200927734" lon="-7.617871284484863">
        <ele>429.0</ele>
        <time>2019-04-30T08:23:59.000Z</time>
      </trkpt>
      <trkpt lat="42.54515838623047" lon="-7.6178765296936035">
        <ele>429.0</ele>
        <time>2019-04-30T08:23:59.000Z</time>
      </trkpt>
      <trkpt lat="42.545135498046875" lon="-7.617909908294678">
        <ele>429.0</ele>
        <time>2019-04-30T08:24:01.000Z</time>
      </trkpt>
      <trkpt lat="42.54510498046875" lon="-7.617955207824707">
        <ele>429.0</ele>
        <time>2019-04-30T08:24:02.000Z</time>
      </trkpt>
      <trkpt lat="42.54507064819336" lon="-7.618008136749268">
        <ele>429.0</ele>
        <time>2019-04-30T08:24:03.000Z</time>
      </trkpt>
      <trkpt lat="42.54502868652344" lon="-7.618064880371094">
        <ele>429.0</ele>
        <time>2019-04-30T08:24:05.000Z</time>
      </trkpt>
      <trkpt lat="42.54499053955078" lon="-7.6180877685546875">
        <ele>430.0</ele>
        <time>2019-04-30T08:24:09.000Z</time>
      </trkpt>
      <trkpt lat="42.544944763183594" lon="-7.618100643157959">
        <ele>430.0</ele>
        <time>2019-04-30T08:24:13.000Z</time>
      </trkpt>
      <trkpt lat="42.54489517211914" lon="-7.618106842041016">
        <ele>431.0</ele>
        <time>2019-04-30T08:24:17.000Z</time>
      </trkpt>
      <trkpt lat="42.54484558105469" lon="-7.618109703063965">
        <ele>432.0</ele>
        <time>2019-04-30T08:24:21.000Z</time>
      </trkpt>
      <trkpt lat="42.544776916503906" lon="-7.618144512176514">
        <ele>432.0</ele>
        <time>2019-04-30T08:24:30.000Z</time>
      </trkpt>
      <trkpt lat="42.54469299316406" lon="-7.618188381195068">
        <ele>432.0</ele>
        <time>2019-04-30T08:24:38.000Z</time>
      </trkpt>
      <trkpt lat="42.54460525512695" lon="-7.618239402770996">
        <ele>432.0</ele>
        <time>2019-04-30T08:24:46.000Z</time>
      </trkpt>
      <trkpt lat="42.54451370239258" lon="-7.618293762207031">
        <ele>432.0</ele>
        <time>2019-04-30T08:24:54.000Z</time>
      </trkpt>
      <trkpt lat="42.544437408447266" lon="-7.6183552742004395">
        <ele>432.0</ele>
        <time>2019-04-30T08:25:02.000Z</time>
      </trkpt>
      <trkpt lat="42.54436492919922" lon="-7.6184234619140625">
        <ele>433.0</ele>
        <time>2019-04-30T08:25:10.000Z</time>
      </trkpt>
      <trkpt lat="42.54429626464844" lon="-7.618496417999268">
        <ele>434.0</ele>
        <time>2019-04-30T08:25:18.000Z</time>
      </trkpt>
      <trkpt lat="42.54422378540039" lon="-7.6185712814331055">
        <ele>435.0</ele>
        <time>2019-04-30T08:25:26.000Z</time>
      </trkpt>
      <trkpt lat="42.54414749145508" lon="-7.6186203956604">
        <ele>436.0</ele>
        <time>2019-04-30T08:25:35.000Z</time>
      </trkpt>
      <trkpt lat="42.544063568115234" lon="-7.618661403656006">
        <ele>437.0</ele>
        <time>2019-04-30T08:25:44.000Z</time>
      </trkpt>
      <trkpt lat="42.54397964477539" lon="-7.618696689605713">
        <ele>439.0</ele>
        <time>2019-04-30T08:25:53.000Z</time>
      </trkpt>
      <trkpt lat="42.54389190673828" lon="-7.618729114532471">
        <ele>440.0</ele>
        <time>2019-04-30T08:26:02.000Z</time>
      </trkpt>
      <trkpt lat="42.543861389160156" lon="-7.618744850158691">
        <ele>440.0</ele>
        <time>2019-04-30T08:26:03.000Z</time>
      </trkpt>
      <trkpt lat="42.543853759765625" lon="-7.61875057220459">
        <ele>441.0</ele>
        <time>2019-04-30T08:26:05.000Z</time>
      </trkpt>
      <trkpt lat="42.543861389160156" lon="-7.618749618530273">
        <ele>441.0</ele>
        <time>2019-04-30T08:26:06.000Z</time>
      </trkpt>
      <trkpt lat="42.54387283325195" lon="-7.618745803833008">
        <ele>441.0</ele>
        <time>2019-04-30T08:26:07.000Z</time>
      </trkpt>
      <trkpt lat="42.543861389160156" lon="-7.618750095367432">
        <ele>442.0</ele>
        <time>2019-04-30T08:26:11.000Z</time>
      </trkpt>
      <trkpt lat="42.54384231567383" lon="-7.618753910064697">
        <ele>442.0</ele>
        <time>2019-04-30T08:26:15.000Z</time>
      </trkpt>
      <trkpt lat="42.5438232421875" lon="-7.618758201599121">
        <ele>443.0</ele>
        <time>2019-04-30T08:26:18.000Z</time>
      </trkpt>
      <trkpt lat="42.543800354003906" lon="-7.618762493133545">
        <ele>443.0</ele>
        <time>2019-04-30T08:26:22.000Z</time>
      </trkpt>
      <trkpt lat="42.543766021728516" lon="-7.618770599365234">
        <ele>443.0</ele>
        <time>2019-04-30T08:26:23.000Z</time>
      </trkpt>
      <trkpt lat="42.54341125488281" lon="-7.618705749511719">
        <ele>442.0</ele>
        <time>2019-04-30T08:26:49.000Z</time>
      </trkpt>
      <trkpt lat="42.54307556152344" lon="-7.618564605712891">
        <ele>430.0</ele>
        <time>2019-04-30T08:27:27.000Z</time>
      </trkpt>
      <trkpt lat="42.54290008544922" lon="-7.618424415588379">
        <ele>426.0</ele>
        <time>2019-04-30T08:27:55.000Z</time>
      </trkpt>
      <trkpt lat="42.5428581237793" lon="-7.6183762550354">
        <ele>434.0</ele>
        <time>2019-04-30T08:29:20.000Z</time>
      </trkpt>
      <trkpt lat="42.5428352355957" lon="-7.618350028991699">
        <ele>434.0</ele>
        <time>2019-04-30T08:29:21.000Z</time>
      </trkpt>
      <trkpt lat="42.542537689208984" lon="-7.618098735809326">
        <ele>437.0</ele>
        <time>2019-04-30T08:29:47.000Z</time>
      </trkpt>
      <trkpt lat="42.54253005981445" lon="-7.6180853843688965">
        <ele>437.0</ele>
        <time>2019-04-30T08:29:50.000Z</time>
      </trkpt>
      <trkpt lat="42.542518615722656" lon="-7.618085861206055">
        <ele>437.0</ele>
        <time>2019-04-30T08:29:56.000Z</time>
      </trkpt>
      <trkpt lat="42.54250717163086" lon="-7.6180877685546875">
        <ele>437.0</ele>
        <time>2019-04-30T08:30:02.000Z</time>
      </trkpt>
      <trkpt lat="42.5424919128418" lon="-7.618090629577637">
        <ele>438.0</ele>
        <time>2019-04-30T08:30:08.000Z</time>
      </trkpt>
      <trkpt lat="42.54247283935547" lon="-7.618093967437744">
        <ele>438.0</ele>
        <time>2019-04-30T08:30:14.000Z</time>
      </trkpt>
      <trkpt lat="42.54246139526367" lon="-7.618095397949219">
        <ele>439.0</ele>
        <time>2019-04-30T08:30:14.000Z</time>
      </trkpt>
      <trkpt lat="42.54245376586914" lon="-7.618096351623535">
        <ele>439.0</ele>
        <time>2019-04-30T08:30:14.000Z</time>
      </trkpt>
      <trkpt lat="42.542449951171875" lon="-7.618097305297852">
        <ele>438.0</ele>
        <time>2019-04-30T08:30:15.000Z</time>
      </trkpt>
      <trkpt lat="42.542442321777344" lon="-7.618098258972168">
        <ele>438.0</ele>
        <time>2019-04-30T08:30:15.000Z</time>
      </trkpt>
      <trkpt lat="42.542381286621094" lon="-7.618128299713135">
        <ele>439.0</ele>
        <time>2019-04-30T08:30:22.000Z</time>
      </trkpt>
      <trkpt lat="42.54229736328125" lon="-7.618170738220215">
        <ele>439.0</ele>
        <time>2019-04-30T08:30:28.000Z</time>
      </trkpt>
      <trkpt lat="42.542198181152344" lon="-7.618220806121826">
        <ele>439.0</ele>
        <time>2019-04-30T08:30:35.000Z</time>
      </trkpt>
      <trkpt lat="42.542091369628906" lon="-7.618275165557861">
        <ele>439.0</ele>
        <time>2019-04-30T08:30:42.000Z</time>
      </trkpt>
      <trkpt lat="42.5420036315918" lon="-7.618305206298828">
        <ele>440.0</ele>
        <time>2019-04-30T08:30:50.000Z</time>
      </trkpt>
      <trkpt lat="42.54191589355469" lon="-7.6183295249938965">
        <ele>440.0</ele>
        <time>2019-04-30T08:30:57.000Z</time>
      </trkpt>
      <trkpt lat="42.54182815551758" lon="-7.618349552154541">
        <ele>441.0</ele>
        <time>2019-04-30T08:31:05.000Z</time>
      </trkpt>
      <trkpt lat="42.54174041748047" lon="-7.618367671966553">
        <ele>441.0</ele>
        <time>2019-04-30T08:31:13.000Z</time>
      </trkpt>
      <trkpt lat="42.54166030883789" lon="-7.618374347686768">
        <ele>442.0</ele>
        <time>2019-04-30T08:31:20.000Z</time>
      </trkpt>
      <trkpt lat="42.54158401489258" lon="-7.618374347686768">
        <ele>443.0</ele>
        <time>2019-04-30T08:31:26.000Z</time>
      </trkpt>
      <trkpt lat="42.541507720947266" lon="-7.618370056152344">
        <ele>444.0</ele>
        <time>2019-04-30T08:31:33.000Z</time>
      </trkpt>
      <trkpt lat="42.54143524169922" lon="-7.618362903594971">
        <ele>446.0</ele>
        <time>2019-04-30T08:31:40.000Z</time>
      </trkpt>
      <trkpt lat="42.541351318359375" lon="-7.618318557739258">
        <ele>447.0</ele>
        <time>2019-04-30T08:31:51.000Z</time>
      </trkpt>
      <trkpt lat="42.54130554199219" lon="-7.6182541847229">
        <ele>447.0</ele>
        <time>2019-04-30T08:32:02.000Z</time>
      </trkpt>
      <trkpt lat="42.541290283203125" lon="-7.6182427406311035">
        <ele>447.0</ele>
        <time>2019-04-30T08:32:13.000Z</time>
      </trkpt>
      <trkpt lat="42.541282653808594" lon="-7.618237495422363">
        <ele>447.0</ele>
        <time>2019-04-30T08:32:23.000Z</time>
      </trkpt>
      <trkpt lat="42.541282653808594" lon="-7.618237018585205">
        <ele>448.0</ele>
        <time>2019-04-30T08:32:33.000Z</time>
      </trkpt>
      <trkpt lat="42.541282653808594" lon="-7.61823844909668">
        <ele>448.0</ele>
        <time>2019-04-30T08:32:44.000Z</time>
      </trkpt>
      <trkpt lat="42.54127883911133" lon="-7.618235111236572">
        <ele>448.0</ele>
        <time>2019-04-30T08:32:44.000Z</time>
      </trkpt>
      <trkpt lat="42.54127502441406" lon="-7.618231773376465">
        <ele>448.0</ele>
        <time>2019-04-30T08:32:44.000Z</time>
      </trkpt>
      <trkpt lat="42.5412712097168" lon="-7.618228435516357">
        <ele>448.0</ele>
        <time>2019-04-30T08:32:44.000Z</time>
      </trkpt>
      <trkpt lat="42.541263580322266" lon="-7.61822509765625">
        <ele>448.0</ele>
        <time>2019-04-30T08:32:45.000Z</time>
      </trkpt>
      <trkpt lat="42.5412483215332" lon="-7.618213653564453">
        <ele>448.0</ele>
        <time>2019-04-30T08:32:45.000Z</time>
      </trkpt>
      <trkpt lat="42.541229248046875" lon="-7.618198394775391">
        <ele>448.0</ele>
        <time>2019-04-30T08:32:46.000Z</time>
      </trkpt>
      <trkpt lat="42.54120635986328" lon="-7.618181228637695">
        <ele>448.0</ele>
        <time>2019-04-30T08:32:46.000Z</time>
      </trkpt>
      <trkpt lat="42.54117965698242" lon="-7.618162631988525">
        <ele>448.0</ele>
        <time>2019-04-30T08:32:47.000Z</time>
      </trkpt>
      <trkpt lat="42.54114532470703" lon="-7.618137836456299">
        <ele>448.0</ele>
        <time>2019-04-30T08:32:47.000Z</time>
      </trkpt>
      <trkpt lat="42.54110336303711" lon="-7.618109226226807">
        <ele>448.0</ele>
        <time>2019-04-30T08:32:48.000Z</time>
      </trkpt>
      <trkpt lat="42.54105758666992" lon="-7.618078231811523">
        <ele>448.0</ele>
        <time>2019-04-30T08:32:48.000Z</time>
      </trkpt>
      <trkpt lat="42.541011810302734" lon="-7.618045806884766">
        <ele>448.0</ele>
        <time>2019-04-30T08:32:49.000Z</time>
      </trkpt>
      <trkpt lat="42.54096984863281" lon="-7.618022441864014">
        <ele>447.0</ele>
        <time>2019-04-30T08:32:52.000Z</time>
      </trkpt>
      <trkpt lat="42.540924072265625" lon="-7.618001461029053">
        <ele>447.0</ele>
        <time>2019-04-30T08:32:56.000Z</time>
      </trkpt>
      <trkpt lat="42.5408821105957" lon="-7.617982387542725">
        <ele>446.0</ele>
        <time>2019-04-30T08:32:59.000Z</time>
      </trkpt>
      <trkpt lat="42.540836334228516" lon="-7.617964267730713">
        <ele>445.0</ele>
        <time>2019-04-30T08:33:03.000Z</time>
      </trkpt>
      <trkpt lat="42.540748596191406" lon="-7.617967128753662">
        <ele>445.0</ele>
        <time>2019-04-30T08:33:11.000Z</time>
      </trkpt>
      <trkpt lat="42.54065704345703" lon="-7.617990016937256">
        <ele>445.0</ele>
        <time>2019-04-30T08:33:20.000Z</time>
      </trkpt>
      <trkpt lat="42.54060363769531" lon="-7.6179938316345215">
        <ele>445.0</ele>
        <time>2019-04-30T08:33:26.000Z</time>
      </trkpt>
      <trkpt lat="42.54054260253906" lon="-7.617996692657471">
        <ele>444.0</ele>
        <time>2019-04-30T08:33:32.000Z</time>
      </trkpt>
      <trkpt lat="42.54047775268555" lon="-7.6179986000061035">
        <ele>444.0</ele>
        <time>2019-04-30T08:33:39.000Z</time>
      </trkpt>
      <trkpt lat="42.5404167175293" lon="-7.618000507354736">
        <ele>443.0</ele>
        <time>2019-04-30T08:33:45.000Z</time>
      </trkpt>
      <trkpt lat="42.540401458740234" lon="-7.618064880371094">
        <ele>442.0</ele>
        <time>2019-04-30T08:33:52.000Z</time>
      </trkpt>
      <trkpt lat="42.5404052734375" lon="-7.6181559562683105">
        <ele>440.0</ele>
        <time>2019-04-30T08:33:59.000Z</time>
      </trkpt>
      <trkpt lat="42.54042434692383" lon="-7.6182637214660645">
        <ele>438.0</ele>
        <time>2019-04-30T08:34:06.000Z</time>
      </trkpt>
      <trkpt lat="42.54045104980469" lon="-7.618380546569824">
        <ele>436.0</ele>
        <time>2019-04-30T08:34:13.000Z</time>
      </trkpt>
      <trkpt lat="42.54043960571289" lon="-7.618436813354492">
        <ele>436.0</ele>
        <time>2019-04-30T08:34:17.000Z</time>
      </trkpt>
      <trkpt lat="42.54042434692383" lon="-7.618476867675781">
        <ele>436.0</ele>
        <time>2019-04-30T08:34:21.000Z</time>
      </trkpt>
      <trkpt lat="42.540401458740234" lon="-7.618505954742432">
        <ele>436.0</ele>
        <time>2019-04-30T08:34:26.000Z</time>
      </trkpt>
      <trkpt lat="42.540374755859375" lon="-7.618529319763184">
        <ele>437.0</ele>
        <time>2019-04-30T08:34:30.000Z</time>
      </trkpt>
      <trkpt lat="42.54037094116211" lon="-7.618549823760986">
        <ele>438.0</ele>
        <time>2019-04-30T08:34:42.000Z</time>
      </trkpt>
      <trkpt lat="42.540367126464844" lon="-7.618563652038574">
        <ele>439.0</ele>
        <time>2019-04-30T08:34:54.000Z</time>
      </trkpt>
      <trkpt lat="42.540367126464844" lon="-7.618572235107422">
        <ele>441.0</ele>
        <time>2019-04-30T08:35:07.000Z</time>
      </trkpt>
      <trkpt lat="42.54037094116211" lon="-7.618578910827637">
        <ele>443.0</ele>
        <time>2019-04-30T08:35:19.000Z</time>
      </trkpt>
      <trkpt lat="42.54037094116211" lon="-7.618588924407959">
        <ele>444.0</ele>
        <time>2019-04-30T08:35:19.000Z</time>
      </trkpt>
      <trkpt lat="42.540367126464844" lon="-7.618598461151123">
        <ele>444.0</ele>
        <time>2019-04-30T08:35:19.000Z</time>
      </trkpt>
      <trkpt lat="42.540367126464844" lon="-7.618607521057129">
        <ele>444.0</ele>
        <time>2019-04-30T08:35:20.000Z</time>
      </trkpt>
      <trkpt lat="42.540367126464844" lon="-7.618616580963135">
        <ele>443.0</ele>
        <time>2019-04-30T08:35:20.000Z</time>
      </trkpt>
      <trkpt lat="42.54035568237305" lon="-7.618683338165283">
        <ele>444.0</ele>
        <time>2019-04-30T08:35:23.000Z</time>
      </trkpt>
      <trkpt lat="42.540348052978516" lon="-7.6187744140625">
        <ele>444.0</ele>
        <time>2019-04-30T08:35:25.000Z</time>
      </trkpt>
      <trkpt lat="42.54033279418945" lon="-7.618881702423096">
        <ele>444.0</ele>
        <time>2019-04-30T08:35:28.000Z</time>
      </trkpt>
      <trkpt lat="42.54031753540039" lon="-7.618996620178223">
        <ele>445.0</ele>
        <time>2019-04-30T08:35:31.000Z</time>
      </trkpt>
      <trkpt lat="42.54031753540039" lon="-7.6190314292907715">
        <ele>445.0</ele>
        <time>2019-04-30T08:35:36.000Z</time>
      </trkpt>
      <trkpt lat="42.54031753540039" lon="-7.6190409660339355">
        <ele>446.0</ele>
        <time>2019-04-30T08:35:42.000Z</time>
      </trkpt>
      <trkpt lat="42.54031753540039" lon="-7.6190338134765625">
        <ele>446.0</ele>
        <time>2019-04-30T08:35:47.000Z</time>
      </trkpt>
      <trkpt lat="42.540321350097656" lon="-7.619018077850342">
        <ele>446.0</ele>
        <time>2019-04-30T08:35:52.000Z</time>
      </trkpt>
      <trkpt lat="42.540321350097656" lon="-7.619022846221924">
        <ele>446.0</ele>
        <time>2019-04-30T08:35:53.000Z</time>
      </trkpt>
      <trkpt lat="42.540321350097656" lon="-7.619027137756348">
        <ele>446.0</ele>
        <time>2019-04-30T08:35:53.000Z</time>
      </trkpt>
      <trkpt lat="42.540321350097656" lon="-7.61903190612793">
        <ele>446.0</ele>
        <time>2019-04-30T08:35:53.000Z</time>
      </trkpt>
      <trkpt lat="42.54032516479492" lon="-7.6190361976623535">
        <ele>446.0</ele>
        <time>2019-04-30T08:35:53.000Z</time>
      </trkpt>
      <trkpt lat="42.540374755859375" lon="-7.619359493255615">
        <ele>450.0</ele>
        <time>2019-04-30T08:36:11.000Z</time>
      </trkpt>
      <trkpt lat="42.54038619995117" lon="-7.619491100311279">
        <ele>458.0</ele>
        <time>2019-04-30T08:37:02.000Z</time>
      </trkpt>
      <trkpt lat="42.54039001464844" lon="-7.6195526123046875">
        <ele>458.0</ele>
        <time>2019-04-30T08:37:03.000Z</time>
      </trkpt>
      <trkpt lat="42.5404167175293" lon="-7.619708061218262">
        <ele>458.0</ele>
        <time>2019-04-30T08:37:09.000Z</time>
      </trkpt>
      <trkpt lat="42.54045486450195" lon="-7.619826316833496">
        <ele>459.0</ele>
        <time>2019-04-30T08:37:36.000Z</time>
      </trkpt>
      <trkpt lat="42.54046630859375" lon="-7.61986780166626">
        <ele>459.0</ele>
        <time>2019-04-30T08:37:37.000Z</time>
      </trkpt>
      <trkpt lat="42.54048156738281" lon="-7.619906902313232">
        <ele>459.0</ele>
        <time>2019-04-30T08:37:39.000Z</time>
      </trkpt>
      <trkpt lat="42.540496826171875" lon="-7.619930744171143">
        <ele>460.0</ele>
        <time>2019-04-30T08:37:59.000Z</time>
      </trkpt>
      <trkpt lat="42.54050827026367" lon="-7.619949817657471">
        <ele>460.0</ele>
        <time>2019-04-30T08:38:00.000Z</time>
      </trkpt>
      <trkpt lat="42.54051971435547" lon="-7.619964599609375">
        <ele>460.0</ele>
        <time>2019-04-30T08:38:01.000Z</time>
      </trkpt>
      <trkpt lat="42.54053497314453" lon="-7.620009422302246">
        <ele>461.0</ele>
        <time>2019-04-30T08:38:10.000Z</time>
      </trkpt>
      <trkpt lat="42.54054641723633" lon="-7.620041370391846">
        <ele>461.0</ele>
        <time>2019-04-30T08:38:11.000Z</time>
      </trkpt>
      <trkpt lat="42.54057693481445" lon="-7.620246887207031">
        <ele>463.0</ele>
        <time>2019-04-30T08:38:17.000Z</time>
      </trkpt>
      <trkpt lat="42.540557861328125" lon="-7.6203436851501465">
        <ele>463.0</ele>
        <time>2019-04-30T08:38:24.000Z</time>
      </trkpt>
      <trkpt lat="42.540523529052734" lon="-7.620437145233154">
        <ele>464.0</ele>
        <time>2019-04-30T08:38:30.000Z</time>
      </trkpt>
      <trkpt lat="42.5405158996582" lon="-7.620462894439697">
        <ele>464.0</ele>
        <time>2019-04-30T08:38:36.000Z</time>
      </trkpt>
      <trkpt lat="42.54050827026367" lon="-7.620479106903076">
        <ele>465.0</ele>
        <time>2019-04-30T08:38:42.000Z</time>
      </trkpt>
      <trkpt lat="42.540504455566406" lon="-7.620489597320557">
        <ele>465.0</ele>
        <time>2019-04-30T08:38:48.000Z</time>
      </trkpt>
      <trkpt lat="42.54050064086914" lon="-7.62049674987793">
        <ele>465.0</ele>
        <time>2019-04-30T08:38:53.000Z</time>
      </trkpt>
      <trkpt lat="42.540496826171875" lon="-7.620508193969727">
        <ele>465.0</ele>
        <time>2019-04-30T08:38:54.000Z</time>
      </trkpt>
      <trkpt lat="42.54049301147461" lon="-7.620518207550049">
        <ele>465.0</ele>
        <time>2019-04-30T08:38:54.000Z</time>
      </trkpt>
      <trkpt lat="42.540489196777344" lon="-7.6205267906188965">
        <ele>465.0</ele>
        <time>2019-04-30T08:38:54.000Z</time>
      </trkpt>
      <trkpt lat="42.54048538208008" lon="-7.620535373687744">
        <ele>465.0</ele>
        <time>2019-04-30T08:38:54.000Z</time>
      </trkpt>
      <trkpt lat="42.54047393798828" lon="-7.6205854415893555">
        <ele>465.0</ele>
        <time>2019-04-30T08:38:56.000Z</time>
      </trkpt>
      <trkpt lat="42.54045867919922" lon="-7.620652198791504">
        <ele>465.0</ele>
        <time>2019-04-30T08:38:58.000Z</time>
      </trkpt>
      <trkpt lat="42.540443420410156" lon="-7.620730876922607">
        <ele>465.0</ele>
        <time>2019-04-30T08:39:00.000Z</time>
      </trkpt>
      <trkpt lat="42.54042434692383" lon="-7.620814800262451">
        <ele>465.0</ele>
        <time>2019-04-30T08:39:01.000Z</time>
      </trkpt>
      <trkpt lat="42.540443420410156" lon="-7.620863437652588">
        <ele>465.0</ele>
        <time>2019-04-30T08:39:06.000Z</time>
      </trkpt>
      <trkpt lat="42.54047393798828" lon="-7.620903491973877">
        <ele>466.0</ele>
        <time>2019-04-30T08:39:11.000Z</time>
      </trkpt>
      <trkpt lat="42.5405158996582" lon="-7.620937824249268">
        <ele>467.0</ele>
        <time>2019-04-30T08:39:16.000Z</time>
      </trkpt>
      <trkpt lat="42.54056167602539" lon="-7.620968818664551">
        <ele>468.0</ele>
        <time>2019-04-30T08:39:21.000Z</time>
      </trkpt>
      <trkpt lat="42.54058074951172" lon="-7.621000289916992">
        <ele>468.0</ele>
        <time>2019-04-30T08:39:25.000Z</time>
      </trkpt>
      <trkpt lat="42.54059600830078" lon="-7.621028423309326">
        <ele>469.0</ele>
        <time>2019-04-30T08:39:29.000Z</time>
      </trkpt>
      <trkpt lat="42.54060363769531" lon="-7.621054649353027">
        <ele>469.0</ele>
        <time>2019-04-30T08:39:33.000Z</time>
      </trkpt>
      <trkpt lat="42.54061508178711" lon="-7.621079921722412">
        <ele>469.0</ele>
        <time>2019-04-30T08:39:37.000Z</time>
      </trkpt>
      <trkpt lat="42.540618896484375" lon="-7.621095657348633">
        <ele>469.0</ele>
        <time>2019-04-30T08:39:38.000Z</time>
      </trkpt>
      <trkpt lat="42.540626525878906" lon="-7.621106147766113">
        <ele>469.0</ele>
        <time>2019-04-30T08:39:38.000Z</time>
      </trkpt>
      <trkpt lat="42.54063034057617" lon="-7.621113300323486">
        <ele>469.0</ele>
        <time>2019-04-30T08:39:38.000Z</time>
      </trkpt>
      <trkpt lat="42.54063034057617" lon="-7.621118545532227">
        <ele>469.0</ele>
        <time>2019-04-30T08:39:38.000Z</time>
      </trkpt>
      <trkpt lat="42.5406379699707" lon="-7.621131896972656">
        <ele>469.0</ele>
        <time>2019-04-30T08:39:39.000Z</time>
      </trkpt>
      <trkpt lat="42.540645599365234" lon="-7.6211466789245605">
        <ele>469.0</ele>
        <time>2019-04-30T08:39:39.000Z</time>
      </trkpt>
      <trkpt lat="42.5406494140625" lon="-7.621162414550781">
        <ele>469.0</ele>
        <time>2019-04-30T08:39:39.000Z</time>
      </trkpt>
      <trkpt lat="42.54065704345703" lon="-7.621178150177002">
        <ele>469.0</ele>
        <time>2019-04-30T08:39:39.000Z</time>
      </trkpt>
      <trkpt lat="42.5406608581543" lon="-7.621187210083008">
        <ele>469.0</ele>
        <time>2019-04-30T08:39:40.000Z</time>
      </trkpt>
      <trkpt lat="42.54066467285156" lon="-7.621193885803223">
        <ele>469.0</ele>
        <time>2019-04-30T08:39:40.000Z</time>
      </trkpt>
      <trkpt lat="42.54066467285156" lon="-7.621199131011963">
        <ele>469.0</ele>
        <time>2019-04-30T08:39:40.000Z</time>
      </trkpt>
      <trkpt lat="42.54066467285156" lon="-7.621203422546387">
        <ele>469.0</ele>
        <time>2019-04-30T08:39:40.000Z</time>
      </trkpt>
      <trkpt lat="42.54066467285156" lon="-7.621207237243652">
        <ele>469.0</ele>
        <time>2019-04-30T08:39:41.000Z</time>
      </trkpt>
      <trkpt lat="42.54066467285156" lon="-7.621209621429443">
        <ele>469.0</ele>
        <time>2019-04-30T08:39:41.000Z</time>
      </trkpt>
      <trkpt lat="42.5406608581543" lon="-7.621211528778076">
        <ele>469.0</ele>
        <time>2019-04-30T08:39:41.000Z</time>
      </trkpt>
      <trkpt lat="42.54065704345703" lon="-7.621212959289551">
        <ele>469.0</ele>
        <time>2019-04-30T08:39:41.000Z</time>
      </trkpt>
      <trkpt lat="42.54065704345703" lon="-7.621213912963867">
        <ele>469.0</ele>
        <time>2019-04-30T08:39:42.000Z</time>
      </trkpt>
      <trkpt lat="42.540653228759766" lon="-7.621213912963867">
        <ele>469.0</ele>
        <time>2019-04-30T08:39:42.000Z</time>
      </trkpt>
      <trkpt lat="42.5406494140625" lon="-7.621213912963867">
        <ele>469.0</ele>
        <time>2019-04-30T08:39:42.000Z</time>
      </trkpt>
      <trkpt lat="42.540645599365234" lon="-7.621213436126709">
        <ele>469.0</ele>
        <time>2019-04-30T08:39:42.000Z</time>
      </trkpt>
      <trkpt lat="42.540645599365234" lon="-7.621212005615234">
        <ele>470.0</ele>
        <time>2019-04-30T08:39:43.000Z</time>
      </trkpt>
      <trkpt lat="42.540645599365234" lon="-7.621209621429443">
        <ele>470.0</ele>
        <time>2019-04-30T08:39:43.000Z</time>
      </trkpt>
      <trkpt lat="42.54064178466797" lon="-7.621207237243652">
        <ele>470.0</ele>
        <time>2019-04-30T08:39:43.000Z</time>
      </trkpt>
      <trkpt lat="42.54064178466797" lon="-7.621204376220703">
        <ele>470.0</ele>
        <time>2019-04-30T08:39:43.000Z</time>
      </trkpt>
      <trkpt lat="42.54064178466797" lon="-7.621203899383545">
        <ele>470.0</ele>
        <time>2019-04-30T08:39:44.000Z</time>
      </trkpt>
      <trkpt lat="42.54064178466797" lon="-7.621203899383545">
        <ele>470.0</ele>
        <time>2019-04-30T08:39:45.000Z</time>
      </trkpt>
      <trkpt lat="42.5406379699707" lon="-7.621204376220703">
        <ele>470.0</ele>
        <time>2019-04-30T08:39:46.000Z</time>
      </trkpt>
      <trkpt lat="42.5406379699707" lon="-7.621204853057861">
        <ele>470.0</ele>
        <time>2019-04-30T08:39:46.000Z</time>
      </trkpt>
      <trkpt lat="42.5406379699707" lon="-7.6212077140808105">
        <ele>470.0</ele>
        <time>2019-04-30T08:39:57.000Z</time>
      </trkpt>
      <trkpt lat="42.5406379699707" lon="-7.621211528778076">
        <ele>472.0</ele>
        <time>2019-04-30T08:40:08.000Z</time>
      </trkpt>
      <trkpt lat="42.5406379699707" lon="-7.6212158203125">
        <ele>473.0</ele>
        <time>2019-04-30T08:40:19.000Z</time>
      </trkpt>
      <trkpt lat="42.5406379699707" lon="-7.621220588684082">
        <ele>475.0</ele>
        <time>2019-04-30T08:40:29.000Z</time>
      </trkpt>
      <trkpt lat="42.54063415527344" lon="-7.621224403381348">
        <ele>475.0</ele>
        <time>2019-04-30T08:40:30.000Z</time>
      </trkpt>
      <trkpt lat="42.54063415527344" lon="-7.621227741241455">
        <ele>475.0</ele>
        <time>2019-04-30T08:40:30.000Z</time>
      </trkpt>
      <trkpt lat="42.54063415527344" lon="-7.6212310791015625">
        <ele>475.0</ele>
        <time>2019-04-30T08:40:30.000Z</time>
      </trkpt>
      <trkpt lat="42.54063415527344" lon="-7.621234893798828">
        <ele>475.0</ele>
        <time>2019-04-30T08:40:30.000Z</time>
      </trkpt>
      <trkpt lat="42.540626525878906" lon="-7.621275424957275">
        <ele>475.0</ele>
        <time>2019-04-30T08:40:32.000Z</time>
      </trkpt>
      <trkpt lat="42.54061508178711" lon="-7.621331214904785">
        <ele>475.0</ele>
        <time>2019-04-30T08:40:33.000Z</time>
      </trkpt>
      <trkpt lat="42.54060363769531" lon="-7.621397972106934">
        <ele>475.0</ele>
        <time>2019-04-30T08:40:34.000Z</time>
      </trkpt>
      <trkpt lat="42.54058837890625" lon="-7.621469497680664">
        <ele>475.0</ele>
        <time>2019-04-30T08:40:35.000Z</time>
      </trkpt>
      <trkpt lat="42.54058837890625" lon="-7.62150239944458">
        <ele>476.0</ele>
        <time>2019-04-30T08:40:49.000Z</time>
      </trkpt>
      <trkpt lat="42.54059982299805" lon="-7.621495723724365">
        <ele>478.0</ele>
        <time>2019-04-30T08:41:03.000Z</time>
      </trkpt>
      <trkpt lat="42.54059982299805" lon="-7.621501445770264">
        <ele>478.0</ele>
        <time>2019-04-30T08:41:04.000Z</time>
      </trkpt>
      <trkpt lat="42.54060363769531" lon="-7.621506690979004">
        <ele>478.0</ele>
        <time>2019-04-30T08:41:04.000Z</time>
      </trkpt>
      <trkpt lat="42.54060363769531" lon="-7.621511936187744">
        <ele>478.0</ele>
        <time>2019-04-30T08:41:04.000Z</time>
      </trkpt>
      <trkpt lat="42.54060745239258" lon="-7.621517181396484">
        <ele>478.0</ele>
        <time>2019-04-30T08:41:04.000Z</time>
      </trkpt>
      <trkpt lat="42.54062271118164" lon="-7.6215643882751465">
        <ele>478.0</ele>
        <time>2019-04-30T08:41:08.000Z</time>
      </trkpt>
      <trkpt lat="42.54064178466797" lon="-7.621629238128662">
        <ele>479.0</ele>
        <time>2019-04-30T08:41:11.000Z</time>
      </trkpt>
      <trkpt lat="42.54066467285156" lon="-7.621705532073975">
        <ele>480.0</ele>
        <time>2019-04-30T08:41:14.000Z</time>
      </trkpt>
      <trkpt lat="42.54069137573242" lon="-7.6217875480651855">
        <ele>481.0</ele>
        <time>2019-04-30T08:41:17.000Z</time>
      </trkpt>
      <trkpt lat="42.540714263916016" lon="-7.621820449829102">
        <ele>481.0</ele>
        <time>2019-04-30T08:41:22.000Z</time>
      </trkpt>
      <trkpt lat="42.54073715209961" lon="-7.621838569641113">
        <ele>481.0</ele>
        <time>2019-04-30T08:41:26.000Z</time>
      </trkpt>
      <trkpt lat="42.5407600402832" lon="-7.621847152709961">
        <ele>481.0</ele>
        <time>2019-04-30T08:41:30.000Z</time>
      </trkpt>
      <trkpt lat="42.54077911376953" lon="-7.621850490570068">
        <ele>481.0</ele>
        <time>2019-04-30T08:41:34.000Z</time>
      </trkpt>
      <trkpt lat="42.540794372558594" lon="-7.621859073638916">
        <ele>481.0</ele>
        <time>2019-04-30T08:41:35.000Z</time>
      </trkpt>
      <trkpt lat="42.540802001953125" lon="-7.621864318847656">
        <ele>481.0</ele>
        <time>2019-04-30T08:41:35.000Z</time>
      </trkpt>
      <trkpt lat="42.54080581665039" lon="-7.621867656707764">
        <ele>481.0</ele>
        <time>2019-04-30T08:41:35.000Z</time>
      </trkpt>
      <trkpt lat="42.540809631347656" lon="-7.621870040893555">
        <ele>481.0</ele>
        <time>2019-04-30T08:41:35.000Z</time>
      </trkpt>
      <trkpt lat="42.54082107543945" lon="-7.621873378753662">
        <ele>481.0</ele>
        <time>2019-04-30T08:41:36.000Z</time>
      </trkpt>
      <trkpt lat="42.54083251953125" lon="-7.621875762939453">
        <ele>481.0</ele>
        <time>2019-04-30T08:41:37.000Z</time>
      </trkpt>
      <trkpt lat="42.54084777832031" lon="-7.621877670288086">
        <ele>482.0</ele>
        <time>2019-04-30T08:41:39.000Z</time>
      </trkpt>
      <trkpt lat="42.540863037109375" lon="-7.621879577636719">
        <ele>482.0</ele>
        <time>2019-04-30T08:41:40.000Z</time>
      </trkpt>
      <trkpt lat="42.54088592529297" lon="-7.6218791007995605">
        <ele>483.0</ele>
        <time>2019-04-30T08:41:46.000Z</time>
      </trkpt>
      <trkpt lat="42.54091262817383" lon="-7.621877670288086">
        <ele>484.0</ele>
        <time>2019-04-30T08:41:53.000Z</time>
      </trkpt>
      <trkpt lat="42.54094314575195" lon="-7.621875286102295">
        <ele>485.0</ele>
        <time>2019-04-30T08:41:59.000Z</time>
      </trkpt>
      <trkpt lat="42.54097366333008" lon="-7.621872425079346">
        <ele>486.0</ele>
        <time>2019-04-30T08:42:06.000Z</time>
      </trkpt>
      <trkpt lat="42.54098892211914" lon="-7.621871471405029">
        <ele>487.0</ele>
        <time>2019-04-30T08:42:06.000Z</time>
      </trkpt>
      <trkpt lat="42.5410041809082" lon="-7.621870517730713">
        <ele>487.0</ele>
        <time>2019-04-30T08:42:06.000Z</time>
      </trkpt>
      <trkpt lat="42.541015625" lon="-7.6218695640563965">
        <ele>486.0</ele>
        <time>2019-04-30T08:42:06.000Z</time>
      </trkpt>
      <trkpt lat="42.54102325439453" lon="-7.621869087219238">
        <ele>486.0</ele>
        <time>2019-04-30T08:42:07.000Z</time>
      </trkpt>
      <trkpt lat="42.54107666015625" lon="-7.621859550476074">
        <ele>486.0</ele>
        <time>2019-04-30T08:42:11.000Z</time>
      </trkpt>
      <trkpt lat="42.54114532470703" lon="-7.621846675872803">
        <ele>486.0</ele>
        <time>2019-04-30T08:42:16.000Z</time>
      </trkpt>
      <trkpt lat="42.54122543334961" lon="-7.62183141708374">
        <ele>487.0</ele>
        <time>2019-04-30T08:42:20.000Z</time>
      </trkpt>
      <trkpt lat="42.54130935668945" lon="-7.621814727783203">
        <ele>487.0</ele>
        <time>2019-04-30T08:42:25.000Z</time>
      </trkpt>
      <trkpt lat="42.54135513305664" lon="-7.621824741363525">
        <ele>488.0</ele>
        <time>2019-04-30T08:42:35.000Z</time>
      </trkpt>
      <trkpt lat="42.54135513305664" lon="-7.621851921081543">
        <ele>488.0</ele>
        <time>2019-04-30T08:42:45.000Z</time>
      </trkpt>
      <trkpt lat="42.54136276245117" lon="-7.621858596801758">
        <ele>489.0</ele>
        <time>2019-04-30T08:42:45.000Z</time>
      </trkpt>
      <trkpt lat="42.5413703918457" lon="-7.621864318847656">
        <ele>489.0</ele>
        <time>2019-04-30T08:42:45.000Z</time>
      </trkpt>
      <trkpt lat="42.541378021240234" lon="-7.6218695640563965">
        <ele>488.0</ele>
        <time>2019-04-30T08:42:46.000Z</time>
      </trkpt>
      <trkpt lat="42.5413818359375" lon="-7.62187385559082">
        <ele>488.0</ele>
        <time>2019-04-30T08:42:46.000Z</time>
      </trkpt>
      <trkpt lat="42.541439056396484" lon="-7.621905326843262">
        <ele>489.0</ele>
        <time>2019-04-30T08:42:51.000Z</time>
      </trkpt>
      <trkpt lat="42.54151916503906" lon="-7.621947765350342">
        <ele>489.0</ele>
        <time>2019-04-30T08:42:55.000Z</time>
      </trkpt>
      <trkpt lat="42.54161071777344" lon="-7.621997356414795">
        <ele>490.0</ele>
        <time>2019-04-30T08:43:00.000Z</time>
      </trkpt>
      <trkpt lat="42.541709899902344" lon="-7.6220502853393555">
        <ele>490.0</ele>
        <time>2019-04-30T08:43:05.000Z</time>
      </trkpt>
      <trkpt lat="42.54179382324219" lon="-7.622086524963379">
        <ele>491.0</ele>
        <time>2019-04-30T08:43:14.000Z</time>
      </trkpt>
      <trkpt lat="42.54187774658203" lon="-7.622118949890137">
        <ele>491.0</ele>
        <time>2019-04-30T08:43:22.000Z</time>
      </trkpt>
      <trkpt lat="42.541961669921875" lon="-7.6221489906311035">
        <ele>492.0</ele>
        <time>2019-04-30T08:43:31.000Z</time>
      </trkpt>
      <trkpt lat="42.542049407958984" lon="-7.622178077697754">
        <ele>493.0</ele>
        <time>2019-04-30T08:43:40.000Z</time>
      </trkpt>
      <trkpt lat="42.542076110839844" lon="-7.622189044952393">
        <ele>493.0</ele>
        <time>2019-04-30T08:43:40.000Z</time>
      </trkpt>
      <trkpt lat="42.542083740234375" lon="-7.622190952301025">
        <ele>493.0</ele>
        <time>2019-04-30T08:43:41.000Z</time>
      </trkpt>
      <trkpt lat="42.54207229614258" lon="-7.62218713760376">
        <ele>493.0</ele>
        <time>2019-04-30T08:43:41.000Z</time>
      </trkpt>
      <trkpt lat="42.54205322265625" lon="-7.622180461883545">
        <ele>493.0</ele>
        <time>2019-04-30T08:43:42.000Z</time>
      </trkpt>
      <trkpt lat="42.542076110839844" lon="-7.622194290161133">
        <ele>494.0</ele>
        <time>2019-04-30T08:43:53.000Z</time>
      </trkpt>
      <trkpt lat="42.5421028137207" lon="-7.622212886810303">
        <ele>495.0</ele>
        <time>2019-04-30T08:44:04.000Z</time>
      </trkpt>
      <trkpt lat="42.54213333129883" lon="-7.622235298156738">
        <ele>495.0</ele>
        <time>2019-04-30T08:44:16.000Z</time>
      </trkpt>
      <trkpt lat="42.54216766357422" lon="-7.622259616851807">
        <ele>497.0</ele>
        <time>2019-04-30T08:44:27.000Z</time>
      </trkpt>
      <trkpt lat="42.542213439941406" lon="-7.622291564941406">
        <ele>497.0</ele>
        <time>2019-04-30T08:44:28.000Z</time>
      </trkpt>
      <trkpt lat="42.542335510253906" lon="-7.622373104095459">
        <ele>497.0</ele>
        <time>2019-04-30T08:44:35.000Z</time>
      </trkpt>
      <trkpt lat="42.54236602783203" lon="-7.622374534606934">
        <ele>497.0</ele>
        <time>2019-04-30T08:44:42.000Z</time>
      </trkpt>
      <trkpt lat="42.542388916015625" lon="-7.622368335723877">
        <ele>497.0</ele>
        <time>2019-04-30T08:44:48.000Z</time>
      </trkpt>
      <trkpt lat="42.542415618896484" lon="-7.62235689163208">
        <ele>496.0</ele>
        <time>2019-04-30T08:44:55.000Z</time>
      </trkpt>
      <trkpt lat="42.54243850708008" lon="-7.622343063354492">
        <ele>496.0</ele>
        <time>2019-04-30T08:45:02.000Z</time>
      </trkpt>
      <trkpt lat="42.54245376586914" lon="-7.622338771820068">
        <ele>496.0</ele>
        <time>2019-04-30T08:45:02.000Z</time>
      </trkpt>
      <trkpt lat="42.54246139526367" lon="-7.622336387634277">
        <ele>496.0</ele>
        <time>2019-04-30T08:45:03.000Z</time>
      </trkpt>
      <trkpt lat="42.5424690246582" lon="-7.6223344802856445">
        <ele>496.0</ele>
        <time>2019-04-30T08:45:03.000Z</time>
      </trkpt>
      <trkpt lat="42.54247283935547" lon="-7.62233304977417">
        <ele>496.0</ele>
        <time>2019-04-30T08:45:03.000Z</time>
      </trkpt>
      <trkpt lat="42.54253387451172" lon="-7.622319221496582">
        <ele>496.0</ele>
        <time>2019-04-30T08:45:10.000Z</time>
      </trkpt>
      <trkpt lat="42.54261779785156" lon="-7.62230110168457">
        <ele>496.0</ele>
        <time>2019-04-30T08:45:17.000Z</time>
      </trkpt>
      <trkpt lat="42.54271697998047" lon="-7.622279167175293">
        <ele>496.0</ele>
        <time>2019-04-30T08:45:23.000Z</time>
      </trkpt>
      <trkpt lat="42.542823791503906" lon="-7.622256278991699">
        <ele>496.0</ele>
        <time>2019-04-30T08:45:30.000Z</time>
      </trkpt>
      <trkpt lat="42.54290771484375" lon="-7.622221946716309">
        <ele>496.0</ele>
        <time>2019-04-30T08:45:38.000Z</time>
      </trkpt>
      <trkpt lat="42.54298782348633" lon="-7.622181415557861">
        <ele>498.0</ele>
        <time>2019-04-30T08:45:47.000Z</time>
      </trkpt>
      <trkpt lat="42.543067932128906" lon="-7.622137069702148">
        <ele>500.0</ele>
        <time>2019-04-30T08:45:55.000Z</time>
      </trkpt>
      <trkpt lat="42.54314422607422" lon="-7.6220903396606445">
        <ele>502.0</ele>
        <time>2019-04-30T08:46:03.000Z</time>
      </trkpt>
      <trkpt lat="42.54331970214844" lon="-7.622084617614746">
        <ele>502.0</ele>
        <time>2019-04-30T08:46:20.000Z</time>
      </trkpt>
      <trkpt lat="42.54350280761719" lon="-7.622114658355713">
        <ele>501.0</ele>
        <time>2019-04-30T08:46:37.000Z</time>
      </trkpt>
      <trkpt lat="42.54354476928711" lon="-7.6221160888671875">
        <ele>501.0</ele>
        <time>2019-04-30T08:46:40.000Z</time>
      </trkpt>
      <trkpt lat="42.54356002807617" lon="-7.622115612030029">
        <ele>501.0</ele>
        <time>2019-04-30T08:46:43.000Z</time>
      </trkpt>
      <trkpt lat="42.5435676574707" lon="-7.6221137046813965">
        <ele>501.0</ele>
        <time>2019-04-30T08:46:46.000Z</time>
      </trkpt>
      <trkpt lat="42.54356384277344" lon="-7.6221113204956055">
        <ele>501.0</ele>
        <time>2019-04-30T08:46:49.000Z</time>
      </trkpt>
      <trkpt lat="42.54359436035156" lon="-7.6221232414245605">
        <ele>504.0</ele>
        <time>2019-04-30T09:03:44.000Z</time>
      </trkpt>
      <trkpt lat="42.54373550415039" lon="-7.622340202331543">
        <ele>503.0</ele>
        <time>2019-04-30T09:04:08.000Z</time>
      </trkpt>
      <trkpt lat="42.54373550415039" lon="-7.622340202331543">
        <ele>503.0</ele>
        <time>2019-04-30T09:04:09.000Z</time>
      </trkpt>
      <trkpt lat="42.54387664794922" lon="-7.622769355773926">
        <ele>504.0</ele>
        <time>2019-04-30T09:04:48.000Z</time>
      </trkpt>
      <trkpt lat="42.54398727416992" lon="-7.6232171058654785">
        <ele>499.0</ele>
        <time>2019-04-30T09:05:23.000Z</time>
      </trkpt>
      <trkpt lat="42.54402160644531" lon="-7.62344217300415">
        <ele>496.0</ele>
        <time>2019-04-30T09:05:45.000Z</time>
      </trkpt>
      <trkpt lat="42.54403305053711" lon="-7.623469829559326">
        <ele>495.0</ele>
        <time>2019-04-30T09:05:56.000Z</time>
      </trkpt>
      <trkpt lat="42.54404067993164" lon="-7.623458385467529">
        <ele>494.0</ele>
        <time>2019-04-30T09:06:07.000Z</time>
      </trkpt>
      <trkpt lat="42.544044494628906" lon="-7.623462200164795">
        <ele>494.0</ele>
        <time>2019-04-30T09:06:07.000Z</time>
      </trkpt>
      <trkpt lat="42.54404830932617" lon="-7.623465538024902">
        <ele>494.0</ele>
        <time>2019-04-30T09:06:08.000Z</time>
      </trkpt>
      <trkpt lat="42.54405212402344" lon="-7.623468399047852">
        <ele>494.0</ele>
        <time>2019-04-30T09:06:08.000Z</time>
      </trkpt>
      <trkpt lat="42.5440559387207" lon="-7.623471736907959">
        <ele>494.0</ele>
        <time>2019-04-30T09:06:08.000Z</time>
      </trkpt>
      <trkpt lat="42.54410934448242" lon="-7.62351655960083">
        <ele>494.0</ele>
        <time>2019-04-30T09:06:13.000Z</time>
      </trkpt>
      <trkpt lat="42.5441780090332" lon="-7.623579025268555">
        <ele>493.0</ele>
        <time>2019-04-30T09:06:18.000Z</time>
      </trkpt>
      <trkpt lat="42.54426193237305" lon="-7.623653411865234">
        <ele>493.0</ele>
        <time>2019-04-30T09:06:22.000Z</time>
      </trkpt>
      <trkpt lat="42.54435348510742" lon="-7.623733043670654">
        <ele>492.0</ele>
        <time>2019-04-30T09:06:27.000Z</time>
      </trkpt>
      <trkpt lat="42.54442596435547" lon="-7.623754024505615">
        <ele>492.0</ele>
        <time>2019-04-30T09:06:34.000Z</time>
      </trkpt>
      <trkpt lat="42.54446029663086" lon="-7.623724460601807">
        <ele>492.0</ele>
        <time>2019-04-30T09:06:40.000Z</time>
      </trkpt>
      <trkpt lat="42.54450225830078" lon="-7.62376594543457">
        <ele>491.0</ele>
        <time>2019-04-30T09:06:47.000Z</time>
      </trkpt>
      <trkpt lat="42.5445556640625" lon="-7.6238250732421875">
        <ele>491.0</ele>
        <time>2019-04-30T09:06:54.000Z</time>
      </trkpt>
      <trkpt lat="42.54460906982422" lon="-7.623896598815918">
        <ele>491.0</ele>
        <time>2019-04-30T09:07:01.000Z</time>
      </trkpt>
      <trkpt lat="42.5446662902832" lon="-7.623974323272705">
        <ele>490.0</ele>
        <time>2019-04-30T09:07:08.000Z</time>
      </trkpt>
      <trkpt lat="42.544742584228516" lon="-7.624020576477051">
        <ele>490.0</ele>
        <time>2019-04-30T09:07:17.000Z</time>
      </trkpt>
      <trkpt lat="42.544822692871094" lon="-7.62406063079834">
        <ele>491.0</ele>
        <time>2019-04-30T09:07:26.000Z</time>
      </trkpt>
      <trkpt lat="42.5449104309082" lon="-7.624096393585205">
        <ele>491.0</ele>
        <time>2019-04-30T09:07:35.000Z</time>
      </trkpt>
      <trkpt lat="42.54500198364258" lon="-7.624129772186279">
        <ele>492.0</ele>
        <time>2019-04-30T09:07:44.000Z</time>
      </trkpt>
      <trkpt lat="42.54510498046875" lon="-7.624276638031006">
        <ele>494.0</ele>
        <time>2019-04-30T09:08:00.000Z</time>
      </trkpt>
      <trkpt lat="42.54518127441406" lon="-7.624455451965332">
        <ele>496.0</ele>
        <time>2019-04-30T09:08:16.000Z</time>
      </trkpt>
      <trkpt lat="42.54520034790039" lon="-7.6244893074035645">
        <ele>497.0</ele>
        <time>2019-04-30T09:08:22.000Z</time>
      </trkpt>
      <trkpt lat="42.545204162597656" lon="-7.624502658843994">
        <ele>497.0</ele>
        <time>2019-04-30T09:08:28.000Z</time>
      </trkpt>
      <trkpt lat="42.545204162597656" lon="-7.624503135681152">
        <ele>498.0</ele>
        <time>2019-04-30T09:08:34.000Z</time>
      </trkpt>
      <trkpt lat="42.54520034790039" lon="-7.624496936798096">
        <ele>498.0</ele>
        <time>2019-04-30T09:08:40.000Z</time>
      </trkpt>
      <trkpt lat="42.545204162597656" lon="-7.624505519866943">
        <ele>499.0</ele>
        <time>2019-04-30T09:08:40.000Z</time>
      </trkpt>
      <trkpt lat="42.54520797729492" lon="-7.624513149261475">
        <ele>499.0</ele>
        <time>2019-04-30T09:08:41.000Z</time>
      </trkpt>
      <trkpt lat="42.54520797729492" lon="-7.624520301818848">
        <ele>499.0</ele>
        <time>2019-04-30T09:08:41.000Z</time>
      </trkpt>
      <trkpt lat="42.54521179199219" lon="-7.6245269775390625">
        <ele>498.0</ele>
        <time>2019-04-30T09:08:41.000Z</time>
      </trkpt>
      <trkpt lat="42.54522705078125" lon="-7.624560356140137">
        <ele>498.0</ele>
        <time>2019-04-30T09:08:43.000Z</time>
      </trkpt>
      <trkpt lat="42.54524612426758" lon="-7.624603748321533">
        <ele>498.0</ele>
        <time>2019-04-30T09:08:44.000Z</time>
      </trkpt>
      <trkpt lat="42.54526901245117" lon="-7.624654769897461">
        <ele>498.0</ele>
        <time>2019-04-30T09:08:46.000Z</time>
      </trkpt>
      <trkpt lat="42.54529571533203" lon="-7.624709129333496">
        <ele>499.0</ele>
        <time>2019-04-30T09:08:47.000Z</time>
      </trkpt>
      <trkpt lat="42.54530334472656" lon="-7.6247334480285645">
        <ele>499.0</ele>
        <time>2019-04-30T09:08:55.000Z</time>
      </trkpt>
      <trkpt lat="42.545310974121094" lon="-7.624749183654785">
        <ele>499.0</ele>
        <time>2019-04-30T09:09:03.000Z</time>
      </trkpt>
      <trkpt lat="42.54531478881836" lon="-7.624758720397949">
        <ele>499.0</ele>
        <time>2019-04-30T09:09:11.000Z</time>
      </trkpt>
      <trkpt lat="42.545318603515625" lon="-7.624765396118164">
        <ele>499.0</ele>
        <time>2019-04-30T09:09:19.000Z</time>
      </trkpt>
      <trkpt lat="42.54532241821289" lon="-7.624776840209961">
        <ele>499.0</ele>
        <time>2019-04-30T09:09:19.000Z</time>
      </trkpt>
      <trkpt lat="42.545326232910156" lon="-7.6247878074646">
        <ele>499.0</ele>
        <time>2019-04-30T09:09:19.000Z</time>
      </trkpt>
      <trkpt lat="42.54533004760742" lon="-7.624797344207764">
        <ele>499.0</ele>
        <time>2019-04-30T09:09:19.000Z</time>
      </trkpt>
      <trkpt lat="42.54533386230469" lon="-7.624806880950928">
        <ele>499.0</ele>
        <time>2019-04-30T09:09:20.000Z</time>
      </trkpt>
      <trkpt lat="42.54540252685547" lon="-7.624964714050293">
        <ele>500.0</ele>
        <time>2019-04-30T09:09:23.000Z</time>
      </trkpt>
      <trkpt lat="42.545406341552734" lon="-7.62497615814209">
        <ele>501.0</ele>
        <time>2019-04-30T09:09:29.000Z</time>
      </trkpt>
      <trkpt lat="42.54541015625" lon="-7.62498664855957">
        <ele>501.0</ele>
        <time>2019-04-30T09:09:30.000Z</time>
      </trkpt>
      <trkpt lat="42.54560089111328" lon="-7.625180244445801">
        <ele>505.0</ele>
        <time>2019-04-30T09:09:45.000Z</time>
      </trkpt>
      <trkpt lat="42.54561996459961" lon="-7.625209808349609">
        <ele>508.0</ele>
        <time>2019-04-30T09:10:06.000Z</time>
      </trkpt>
      <trkpt lat="42.54563522338867" lon="-7.6252312660217285">
        <ele>508.0</ele>
        <time>2019-04-30T09:10:07.000Z</time>
      </trkpt>
      <trkpt lat="42.54564666748047" lon="-7.625247001647949">
        <ele>508.0</ele>
        <time>2019-04-30T09:10:08.000Z</time>
      </trkpt>
      <trkpt lat="42.54566192626953" lon="-7.625269889831543">
        <ele>509.0</ele>
        <time>2019-04-30T09:10:15.000Z</time>
      </trkpt>
      <trkpt lat="42.54567337036133" lon="-7.625288009643555">
        <ele>509.0</ele>
        <time>2019-04-30T09:10:16.000Z</time>
      </trkpt>
      <trkpt lat="42.54579162597656" lon="-7.625432968139648">
        <ele>511.0</ele>
        <time>2019-04-30T09:10:23.000Z</time>
      </trkpt>
      <trkpt lat="42.54580307006836" lon="-7.625446796417236">
        <ele>512.0</ele>
        <time>2019-04-30T09:10:40.000Z</time>
      </trkpt>
      <trkpt lat="42.54581069946289" lon="-7.625458717346191">
        <ele>512.0</ele>
        <time>2019-04-30T09:10:41.000Z</time>
      </trkpt>
      <trkpt lat="42.546058654785156" lon="-7.625786304473877">
        <ele>516.0</ele>
        <time>2019-04-30T09:11:02.000Z</time>
      </trkpt>
      <trkpt lat="42.54621124267578" lon="-7.626220703125">
        <ele>523.0</ele>
        <time>2019-04-30T09:11:35.000Z</time>
      </trkpt>
      <trkpt lat="42.54622268676758" lon="-7.626453876495361">
        <ele>525.0</ele>
        <time>2019-04-30T09:11:53.000Z</time>
      </trkpt>
      <trkpt lat="42.54620361328125" lon="-7.626694679260254">
        <ele>528.0</ele>
        <time>2019-04-30T09:12:11.000Z</time>
      </trkpt>
      <trkpt lat="42.54619598388672" lon="-7.626799583435059">
        <ele>528.0</ele>
        <time>2019-04-30T09:12:18.000Z</time>
      </trkpt>
      <trkpt lat="42.546180725097656" lon="-7.626898288726807">
        <ele>528.0</ele>
        <time>2019-04-30T09:12:25.000Z</time>
      </trkpt>
      <trkpt lat="42.546165466308594" lon="-7.626993179321289">
        <ele>528.0</ele>
        <time>2019-04-30T09:12:33.000Z</time>
      </trkpt>
      <trkpt lat="42.54615020751953" lon="-7.627086162567139">
        <ele>528.0</ele>
        <time>2019-04-30T09:12:40.000Z</time>
      </trkpt>
      <trkpt lat="42.54616165161133" lon="-7.627159118652344">
        <ele>526.0</ele>
        <time>2019-04-30T09:13:08.000Z</time>
      </trkpt>
      <trkpt lat="42.54618835449219" lon="-7.627176284790039">
        <ele>525.0</ele>
        <time>2019-04-30T09:13:36.000Z</time>
      </trkpt>
      <trkpt lat="42.54619216918945" lon="-7.627190589904785">
        <ele>524.0</ele>
        <time>2019-04-30T09:13:36.000Z</time>
      </trkpt>
      <trkpt lat="42.546199798583984" lon="-7.627201080322266">
        <ele>524.0</ele>
        <time>2019-04-30T09:13:36.000Z</time>
      </trkpt>
      <trkpt lat="42.546199798583984" lon="-7.627209663391113">
        <ele>524.0</ele>
        <time>2019-04-30T09:13:36.000Z</time>
      </trkpt>
      <trkpt lat="42.54620361328125" lon="-7.6272172927856445">
        <ele>525.0</ele>
        <time>2019-04-30T09:13:37.000Z</time>
      </trkpt>
      <trkpt lat="42.546207427978516" lon="-7.627224445343018">
        <ele>525.0</ele>
        <time>2019-04-30T09:13:37.000Z</time>
      </trkpt>
      <trkpt lat="42.54621124267578" lon="-7.627230167388916">
        <ele>525.0</ele>
        <time>2019-04-30T09:13:37.000Z</time>
      </trkpt>
      <trkpt lat="42.54621124267578" lon="-7.62723445892334">
        <ele>525.0</ele>
        <time>2019-04-30T09:13:37.000Z</time>
      </trkpt>
      <trkpt lat="42.54621505737305" lon="-7.627238750457764">
        <ele>525.0</ele>
        <time>2019-04-30T09:13:38.000Z</time>
      </trkpt>
      <trkpt lat="42.54621505737305" lon="-7.627242565155029">
        <ele>525.0</ele>
        <time>2019-04-30T09:13:41.000Z</time>
      </trkpt>
      <trkpt lat="42.54621505737305" lon="-7.6272454261779785">
        <ele>525.0</ele>
        <time>2019-04-30T09:13:45.000Z</time>
      </trkpt>
      <trkpt lat="42.54621505737305" lon="-7.6272478103637695">
        <ele>525.0</ele>
        <time>2019-04-30T09:13:48.000Z</time>
      </trkpt>
      <trkpt lat="42.54621505737305" lon="-7.6272501945495605">
        <ele>525.0</ele>
        <time>2019-04-30T09:13:52.000Z</time>
      </trkpt>
      <trkpt lat="42.54621887207031" lon="-7.627252578735352">
        <ele>525.0</ele>
        <time>2019-04-30T09:13:52.000Z</time>
      </trkpt>
      <trkpt lat="42.54621887207031" lon="-7.627254962921143">
        <ele>525.0</ele>
        <time>2019-04-30T09:13:52.000Z</time>
      </trkpt>
      <trkpt lat="42.54621887207031" lon="-7.627257823944092">
        <ele>525.0</ele>
        <time>2019-04-30T09:13:52.000Z</time>
      </trkpt>
      <trkpt lat="42.54621887207031" lon="-7.627260208129883">
        <ele>525.0</ele>
        <time>2019-04-30T09:13:53.000Z</time>
      </trkpt>
      <trkpt lat="42.546226501464844" lon="-7.627277374267578">
        <ele>525.0</ele>
        <time>2019-04-30T09:13:53.000Z</time>
      </trkpt>
      <trkpt lat="42.546234130859375" lon="-7.627300262451172">
        <ele>525.0</ele>
        <time>2019-04-30T09:13:54.000Z</time>
      </trkpt>
      <trkpt lat="42.546241760253906" lon="-7.627327919006348">
        <ele>525.0</ele>
        <time>2019-04-30T09:13:55.000Z</time>
      </trkpt>
      <trkpt lat="42.5462532043457" lon="-7.627357006072998">
        <ele>525.0</ele>
        <time>2019-04-30T09:13:56.000Z</time>
      </trkpt>
      <trkpt lat="42.5462532043457" lon="-7.627390384674072">
        <ele>525.0</ele>
        <time>2019-04-30T09:14:08.000Z</time>
      </trkpt>
      <trkpt lat="42.54624938964844" lon="-7.627416610717773">
        <ele>526.0</ele>
        <time>2019-04-30T09:14:20.000Z</time>
      </trkpt>
      <trkpt lat="42.54624938964844" lon="-7.627429008483887">
        <ele>526.0</ele>
        <time>2019-04-30T09:14:20.000Z</time>
      </trkpt>
      <trkpt lat="42.54624557495117" lon="-7.627440452575684">
        <ele>526.0</ele>
        <time>2019-04-30T09:14:20.000Z</time>
      </trkpt>
      <trkpt lat="42.54624557495117" lon="-7.627450942993164">
        <ele>526.0</ele>
        <time>2019-04-30T09:14:20.000Z</time>
      </trkpt>
      <trkpt lat="42.54624557495117" lon="-7.6274614334106445">
        <ele>526.0</ele>
        <time>2019-04-30T09:14:21.000Z</time>
      </trkpt>
      <trkpt lat="42.546241760253906" lon="-7.627526760101318">
        <ele>526.0</ele>
        <time>2019-04-30T09:14:23.000Z</time>
      </trkpt>
      <trkpt lat="42.546234130859375" lon="-7.627615451812744">
        <ele>526.0</ele>
        <time>2019-04-30T09:14:26.000Z</time>
      </trkpt>
      <trkpt lat="42.54622268676758" lon="-7.627718925476074">
        <ele>526.0</ele>
        <time>2019-04-30T09:14:29.000Z</time>
      </trkpt>
      <trkpt lat="42.54621505737305" lon="-7.6278300285339355">
        <ele>526.0</ele>
        <time>2019-04-30T09:14:32.000Z</time>
      </trkpt>
      <trkpt lat="42.54621124267578" lon="-7.627861499786377">
        <ele>526.0</ele>
        <time>2019-04-30T09:14:32.000Z</time>
      </trkpt>
      <trkpt lat="42.54621124267578" lon="-7.627867698669434">
        <ele>526.0</ele>
        <time>2019-04-30T09:14:32.000Z</time>
      </trkpt>
      <trkpt lat="42.54621124267578" lon="-7.627857208251953">
        <ele>526.0</ele>
        <time>2019-04-30T09:14:32.000Z</time>
      </trkpt>
      <trkpt lat="42.54621124267578" lon="-7.627838134765625">
        <ele>526.0</ele>
        <time>2019-04-30T09:14:33.000Z</time>
      </trkpt>
      <trkpt lat="42.54623031616211" lon="-7.627858638763428">
        <ele>526.0</ele>
        <time>2019-04-30T09:14:47.000Z</time>
      </trkpt>
      <trkpt lat="42.5462532043457" lon="-7.627886772155762">
        <ele>526.0</ele>
        <time>2019-04-30T09:15:02.000Z</time>
      </trkpt>
      <trkpt lat="42.546260833740234" lon="-7.627895832061768">
        <ele>525.0</ele>
        <time>2019-04-30T09:15:02.000Z</time>
      </trkpt>
      <trkpt lat="42.546268463134766" lon="-7.627903461456299">
        <ele>525.0</ele>
        <time>2019-04-30T09:15:02.000Z</time>
      </trkpt>
      <trkpt lat="42.54627227783203" lon="-7.6279096603393555">
        <ele>525.0</ele>
        <time>2019-04-30T09:15:02.000Z</time>
      </trkpt>
      <trkpt lat="42.5462760925293" lon="-7.627915859222412">
        <ele>526.0</ele>
        <time>2019-04-30T09:15:03.000Z</time>
      </trkpt>
      <trkpt lat="42.54629135131836" lon="-7.627931594848633">
        <ele>525.0</ele>
        <time>2019-04-30T09:15:04.000Z</time>
      </trkpt>
      <trkpt lat="42.546302795410156" lon="-7.627951145172119">
        <ele>525.0</ele>
        <time>2019-04-30T09:15:06.000Z</time>
      </trkpt>
      <trkpt lat="42.546321868896484" lon="-7.627972602844238">
        <ele>525.0</ele>
        <time>2019-04-30T09:15:07.000Z</time>
      </trkpt>
      <trkpt lat="42.54633712768555" lon="-7.627995491027832">
        <ele>525.0</ele>
        <time>2019-04-30T09:15:09.000Z</time>
      </trkpt>
      <trkpt lat="42.546329498291016" lon="-7.628023147583008">
        <ele>525.0</ele>
        <time>2019-04-30T09:15:13.000Z</time>
      </trkpt>
      <trkpt lat="42.54631042480469" lon="-7.628053665161133">
        <ele>525.0</ele>
        <time>2019-04-30T09:15:17.000Z</time>
      </trkpt>
      <trkpt lat="42.54628372192383" lon="-7.628086566925049">
        <ele>526.0</ele>
        <time>2019-04-30T09:15:21.000Z</time>
      </trkpt>
      <trkpt lat="42.54625701904297" lon="-7.628120422363281">
        <ele>526.0</ele>
        <time>2019-04-30T09:15:25.000Z</time>
      </trkpt>
      <trkpt lat="42.54624557495117" lon="-7.628135681152344">
        <ele>526.0</ele>
        <time>2019-04-30T09:15:25.000Z</time>
      </trkpt>
      <trkpt lat="42.546241760253906" lon="-7.628143787384033">
        <ele>526.0</ele>
        <time>2019-04-30T09:15:25.000Z</time>
      </trkpt>
      <trkpt lat="42.54623794555664" lon="-7.628147602081299">
        <ele>526.0</ele>
        <time>2019-04-30T09:15:25.000Z</time>
      </trkpt>
      <trkpt lat="42.54623794555664" lon="-7.628149032592773">
        <ele>526.0</ele>
        <time>2019-04-30T09:15:26.000Z</time>
      </trkpt>
      <trkpt lat="42.54621124267578" lon="-7.628167152404785">
        <ele>526.0</ele>
        <time>2019-04-30T09:15:29.000Z</time>
      </trkpt>
      <trkpt lat="42.546180725097656" lon="-7.628189563751221">
        <ele>526.0</ele>
        <time>2019-04-30T09:15:32.000Z</time>
      </trkpt>
      <trkpt lat="42.546142578125" lon="-7.628215312957764">
        <ele>526.0</ele>
        <time>2019-04-30T09:15:35.000Z</time>
      </trkpt>
      <trkpt lat="42.54610061645508" lon="-7.628242492675781">
        <ele>526.0</ele>
        <time>2019-04-30T09:15:38.000Z</time>
      </trkpt>
      <trkpt lat="42.54608154296875" lon="-7.628258228302002">
        <ele>526.0</ele>
        <time>2019-04-30T09:15:41.000Z</time>
      </trkpt>
      <trkpt lat="42.54606246948242" lon="-7.628270626068115">
        <ele>526.0</ele>
        <time>2019-04-30T09:15:44.000Z</time>
      </trkpt>
      <trkpt lat="42.54604721069336" lon="-7.6282806396484375">
        <ele>527.0</ele>
        <time>2019-04-30T09:15:47.000Z</time>
      </trkpt>
      <trkpt lat="42.54603576660156" lon="-7.628290176391602">
        <ele>527.0</ele>
        <time>2019-04-30T09:15:50.000Z</time>
      </trkpt>
      <trkpt lat="42.54602813720703" lon="-7.628297805786133">
        <ele>527.0</ele>
        <time>2019-04-30T09:15:50.000Z</time>
      </trkpt>
      <trkpt lat="42.546016693115234" lon="-7.628303527832031">
        <ele>527.0</ele>
        <time>2019-04-30T09:15:50.000Z</time>
      </trkpt>
      <trkpt lat="42.54601287841797" lon="-7.628307819366455">
        <ele>527.0</ele>
        <time>2019-04-30T09:15:51.000Z</time>
      </trkpt>
      <trkpt lat="42.54600524902344" lon="-7.628311634063721">
        <ele>527.0</ele>
        <time>2019-04-30T09:15:51.000Z</time>
      </trkpt>
      <trkpt lat="42.54598617553711" lon="-7.6283278465271">
        <ele>527.0</ele>
        <time>2019-04-30T09:15:53.000Z</time>
      </trkpt>
      <trkpt lat="42.545963287353516" lon="-7.6283488273620605">
        <ele>527.0</ele>
        <time>2019-04-30T09:15:55.000Z</time>
      </trkpt>
      <trkpt lat="42.54593276977539" lon="-7.628372669219971">
        <ele>526.0</ele>
        <time>2019-04-30T09:15:57.000Z</time>
      </trkpt>
      <trkpt lat="42.545902252197266" lon="-7.6283979415893555">
        <ele>526.0</ele>
        <time>2019-04-30T09:15:59.000Z</time>
      </trkpt>
      <trkpt lat="42.5458869934082" lon="-7.628420352935791">
        <ele>527.0</ele>
        <time>2019-04-30T09:16:08.000Z</time>
      </trkpt>
      <trkpt lat="42.54589080810547" lon="-7.628433704376221">
        <ele>529.0</ele>
        <time>2019-04-30T09:16:17.000Z</time>
      </trkpt>
      <trkpt lat="42.5458869934082" lon="-7.628441333770752">
        <ele>529.0</ele>
        <time>2019-04-30T09:16:17.000Z</time>
      </trkpt>
      <trkpt lat="42.5458869934082" lon="-7.628448486328125">
        <ele>529.0</ele>
        <time>2019-04-30T09:16:17.000Z</time>
      </trkpt>
      <trkpt lat="42.54588317871094" lon="-7.628454685211182">
        <ele>529.0</ele>
        <time>2019-04-30T09:16:18.000Z</time>
      </trkpt>
      <trkpt lat="42.54588317871094" lon="-7.628460884094238">
        <ele>529.0</ele>
        <time>2019-04-30T09:16:18.000Z</time>
      </trkpt>
      <trkpt lat="42.54587936401367" lon="-7.628544330596924">
        <ele>529.0</ele>
        <time>2019-04-30T09:16:22.000Z</time>
      </trkpt>
      <trkpt lat="42.545875549316406" lon="-7.628659248352051">
        <ele>529.0</ele>
        <time>2019-04-30T09:16:26.000Z</time>
      </trkpt>
      <trkpt lat="42.54587173461914" lon="-7.628795623779297">
        <ele>529.0</ele>
        <time>2019-04-30T09:16:31.000Z</time>
      </trkpt>
      <trkpt lat="42.545867919921875" lon="-7.628942489624023">
        <ele>530.0</ele>
        <time>2019-04-30T09:16:35.000Z</time>
      </trkpt>
      <trkpt lat="42.545894622802734" lon="-7.629009246826172">
        <ele>530.0</ele>
        <time>2019-04-30T09:16:40.000Z</time>
      </trkpt>
      <trkpt lat="42.54593276977539" lon="-7.629054069519043">
        <ele>531.0</ele>
        <time>2019-04-30T09:16:45.000Z</time>
      </trkpt>
      <trkpt lat="42.54597473144531" lon="-7.629083633422852">
        <ele>531.0</ele>
        <time>2019-04-30T09:16:51.000Z</time>
      </trkpt>
      <trkpt lat="42.546024322509766" lon="-7.629105567932129">
        <ele>532.0</ele>
        <time>2019-04-30T09:16:56.000Z</time>
      </trkpt>
      <trkpt lat="42.54603958129883" lon="-7.629122257232666">
        <ele>532.0</ele>
        <time>2019-04-30T09:17:00.000Z</time>
      </trkpt>
      <trkpt lat="42.54604721069336" lon="-7.629128932952881">
        <ele>533.0</ele>
        <time>2019-04-30T09:17:04.000Z</time>
      </trkpt>
      <trkpt lat="42.54604721069336" lon="-7.629128932952881">
        <ele>533.0</ele>
        <time>2019-04-30T09:17:09.000Z</time>
      </trkpt>
      <trkpt lat="42.546043395996094" lon="-7.629125595092773">
        <ele>534.0</ele>
        <time>2019-04-30T09:17:13.000Z</time>
      </trkpt>
      <trkpt lat="42.54604721069336" lon="-7.629129886627197">
        <ele>534.0</ele>
        <time>2019-04-30T09:17:13.000Z</time>
      </trkpt>
      <trkpt lat="42.546051025390625" lon="-7.629133701324463">
        <ele>534.0</ele>
        <time>2019-04-30T09:17:13.000Z</time>
      </trkpt>
      <trkpt lat="42.54605484008789" lon="-7.6291375160217285">
        <ele>534.0</ele>
        <time>2019-04-30T09:17:14.000Z</time>
      </trkpt>
      <trkpt lat="42.546058654785156" lon="-7.629141330718994">
        <ele>534.0</ele>
        <time>2019-04-30T09:17:14.000Z</time>
      </trkpt>
      <trkpt lat="42.54607391357422" lon="-7.629153728485107">
        <ele>534.0</ele>
        <time>2019-04-30T09:17:15.000Z</time>
      </trkpt>
      <trkpt lat="42.546085357666016" lon="-7.629169940948486">
        <ele>534.0</ele>
        <time>2019-04-30T09:17:16.000Z</time>
      </trkpt>
      <trkpt lat="42.546104431152344" lon="-7.629188060760498">
        <ele>534.0</ele>
        <time>2019-04-30T09:17:17.000Z</time>
      </trkpt>
      <trkpt lat="42.54612350463867" lon="-7.629208087921143">
        <ele>535.0</ele>
        <time>2019-04-30T09:17:18.000Z</time>
      </trkpt>
      <trkpt lat="42.546146392822266" lon="-7.629241943359375">
        <ele>535.0</ele>
        <time>2019-04-30T09:17:24.000Z</time>
      </trkpt>
      <trkpt lat="42.54617691040039" lon="-7.629283428192139">
        <ele>537.0</ele>
        <time>2019-04-30T09:17:31.000Z</time>
      </trkpt>
      <trkpt lat="42.546207427978516" lon="-7.629329204559326">
        <ele>538.0</ele>
        <time>2019-04-30T09:17:37.000Z</time>
      </trkpt>
      <trkpt lat="42.54623794555664" lon="-7.629377841949463">
        <ele>539.0</ele>
        <time>2019-04-30T09:17:44.000Z</time>
      </trkpt>
      <trkpt lat="42.5462532043457" lon="-7.629398345947266">
        <ele>539.0</ele>
        <time>2019-04-30T09:17:44.000Z</time>
      </trkpt>
      <trkpt lat="42.546260833740234" lon="-7.629408836364746">
        <ele>539.0</ele>
        <time>2019-04-30T09:17:44.000Z</time>
      </trkpt>
      <trkpt lat="42.5462646484375" lon="-7.62941312789917">
        <ele>539.0</ele>
        <time>2019-04-30T09:17:45.000Z</time>
      </trkpt>
      <trkpt lat="42.5462646484375" lon="-7.6294145584106445">
        <ele>539.0</ele>
        <time>2019-04-30T09:17:45.000Z</time>
      </trkpt>
      <trkpt lat="42.54631042480469" lon="-7.629493713378906">
        <ele>539.0</ele>
        <time>2019-04-30T09:17:48.000Z</time>
      </trkpt>
      <trkpt lat="42.546321868896484" lon="-7.629538059234619">
        <ele>539.0</ele>
        <time>2019-04-30T09:17:51.000Z</time>
      </trkpt>
      <trkpt lat="42.54632568359375" lon="-7.629584312438965">
        <ele>540.0</ele>
        <time>2019-04-30T09:17:55.000Z</time>
      </trkpt>
      <trkpt lat="42.546321868896484" lon="-7.6296000480651855">
        <ele>541.0</ele>
        <time>2019-04-30T09:18:00.000Z</time>
      </trkpt>
      <trkpt lat="42.54631805419922" lon="-7.629613399505615">
        <ele>542.0</ele>
        <time>2019-04-30T09:18:06.000Z</time>
      </trkpt>
      <trkpt lat="42.54631042480469" lon="-7.629624843597412">
        <ele>543.0</ele>
        <time>2019-04-30T09:18:11.000Z</time>
      </trkpt>
      <trkpt lat="42.546302795410156" lon="-7.629635334014893">
        <ele>545.0</ele>
        <time>2019-04-30T09:18:17.000Z</time>
      </trkpt>
      <trkpt lat="42.54629898071289" lon="-7.629644870758057">
        <ele>545.0</ele>
        <time>2019-04-30T09:18:17.000Z</time>
      </trkpt>
      <trkpt lat="42.546295166015625" lon="-7.629653453826904">
        <ele>545.0</ele>
        <time>2019-04-30T09:18:17.000Z</time>
      </trkpt>
      <trkpt lat="42.54629135131836" lon="-7.6296610832214355">
        <ele>545.0</ele>
        <time>2019-04-30T09:18:18.000Z</time>
      </trkpt>
      <trkpt lat="42.546287536621094" lon="-7.629668235778809">
        <ele>545.0</ele>
        <time>2019-04-30T09:18:18.000Z</time>
      </trkpt>
      <trkpt lat="42.546268463134766" lon="-7.62974739074707">
        <ele>545.0</ele>
        <time>2019-04-30T09:18:23.000Z</time>
      </trkpt>
      <trkpt lat="42.54624557495117" lon="-7.629856109619141">
        <ele>545.0</ele>
        <time>2019-04-30T09:18:29.000Z</time>
      </trkpt>
      <trkpt lat="42.54621887207031" lon="-7.6299848556518555">
        <ele>545.0</ele>
        <time>2019-04-30T09:18:34.000Z</time>
      </trkpt>
      <trkpt lat="42.54618835449219" lon="-7.630123138427734">
        <ele>545.0</ele>
        <time>2019-04-30T09:18:40.000Z</time>
      </trkpt>
      <trkpt lat="42.54616165161133" lon="-7.630237579345703">
        <ele>545.0</ele>
        <time>2019-04-30T09:18:49.000Z</time>
      </trkpt>
      <trkpt lat="42.54613494873047" lon="-7.63035249710083">
        <ele>546.0</ele>
        <time>2019-04-30T09:18:57.000Z</time>
      </trkpt>
      <trkpt lat="42.54610824584961" lon="-7.630467891693115">
        <ele>546.0</ele>
        <time>2019-04-30T09:19:06.000Z</time>
      </trkpt>
      <trkpt lat="42.54608154296875" lon="-7.630582809448242">
        <ele>546.0</ele>
        <time>2019-04-30T09:19:15.000Z</time>
      </trkpt>
      <trkpt lat="42.54607009887695" lon="-7.63070011138916">
        <ele>546.0</ele>
        <time>2019-04-30T09:19:24.000Z</time>
      </trkpt>
      <trkpt lat="42.54606628417969" lon="-7.6308183670043945">
        <ele>546.0</ele>
        <time>2019-04-30T09:19:33.000Z</time>
      </trkpt>
      <trkpt lat="42.54607009887695" lon="-7.630937576293945">
        <ele>545.0</ele>
        <time>2019-04-30T09:19:42.000Z</time>
      </trkpt>
      <trkpt lat="42.54607391357422" lon="-7.631056785583496">
        <ele>545.0</ele>
        <time>2019-04-30T09:19:51.000Z</time>
      </trkpt>
      <trkpt lat="42.546058654785156" lon="-7.631174564361572">
        <ele>545.0</ele>
        <time>2019-04-30T09:19:58.000Z</time>
      </trkpt>
      <trkpt lat="42.546043395996094" lon="-7.63129186630249">
        <ele>546.0</ele>
        <time>2019-04-30T09:20:06.000Z</time>
      </trkpt>
      <trkpt lat="42.5460205078125" lon="-7.63140869140625">
        <ele>546.0</ele>
        <time>2019-04-30T09:20:13.000Z</time>
      </trkpt>
      <trkpt lat="42.545997619628906" lon="-7.63152551651001">
        <ele>547.0</ele>
        <time>2019-04-30T09:20:21.000Z</time>
      </trkpt>
      <trkpt lat="42.54587936401367" lon="-7.631806373596191">
        <ele>548.0</ele>
        <time>2019-04-30T09:20:49.000Z</time>
      </trkpt>
      <trkpt lat="42.54586410522461" lon="-7.631894111633301">
        <ele>549.0</ele>
        <time>2019-04-30T09:20:59.000Z</time>
      </trkpt>
      <trkpt lat="42.54587173461914" lon="-7.6319580078125">
        <ele>549.0</ele>
        <time>2019-04-30T09:21:10.000Z</time>
      </trkpt>
      <trkpt lat="42.545867919921875" lon="-7.631979942321777">
        <ele>549.0</ele>
        <time>2019-04-30T09:21:10.000Z</time>
      </trkpt>
      <trkpt lat="42.545867919921875" lon="-7.631994724273682">
        <ele>549.0</ele>
        <time>2019-04-30T09:21:10.000Z</time>
      </trkpt>
      <trkpt lat="42.545867919921875" lon="-7.63200569152832">
        <ele>549.0</ele>
        <time>2019-04-30T09:21:11.000Z</time>
      </trkpt>
      <trkpt lat="42.545867919921875" lon="-7.632014274597168">
        <ele>549.0</ele>
        <time>2019-04-30T09:21:11.000Z</time>
      </trkpt>
      <trkpt lat="42.54586410522461" lon="-7.632042407989502">
        <ele>549.0</ele>
        <time>2019-04-30T09:21:12.000Z</time>
      </trkpt>
      <trkpt lat="42.54586410522461" lon="-7.632077217102051">
        <ele>549.0</ele>
        <time>2019-04-30T09:21:14.000Z</time>
      </trkpt>
      <trkpt lat="42.545860290527344" lon="-7.632115840911865">
        <ele>549.0</ele>
        <time>2019-04-30T09:21:15.000Z</time>
      </trkpt>
      <trkpt lat="42.545860290527344" lon="-7.6321563720703125">
        <ele>549.0</ele>
        <time>2019-04-30T09:21:17.000Z</time>
      </trkpt>
      <trkpt lat="42.545860290527344" lon="-7.63217830657959">
        <ele>549.0</ele>
        <time>2019-04-30T09:21:21.000Z</time>
      </trkpt>
      <trkpt lat="42.545860290527344" lon="-7.632194995880127">
        <ele>550.0</ele>
        <time>2019-04-30T09:21:26.000Z</time>
      </trkpt>
      <trkpt lat="42.545860290527344" lon="-7.632207870483398">
        <ele>551.0</ele>
        <time>2019-04-30T09:21:30.000Z</time>
      </trkpt>
      <trkpt lat="42.545860290527344" lon="-7.632218837738037">
        <ele>551.0</ele>
        <time>2019-04-30T09:21:35.000Z</time>
      </trkpt>
      <trkpt lat="42.545860290527344" lon="-7.632230281829834">
        <ele>552.0</ele>
        <time>2019-04-30T09:21:35.000Z</time>
      </trkpt>
      <trkpt lat="42.545860290527344" lon="-7.6322407722473145">
        <ele>552.0</ele>
        <time>2019-04-30T09:21:35.000Z</time>
      </trkpt>
      <trkpt lat="42.545860290527344" lon="-7.63224983215332">
        <ele>552.0</ele>
        <time>2019-04-30T09:21:36.000Z</time>
      </trkpt>
      <trkpt lat="42.54585647583008" lon="-7.632258892059326">
        <ele>551.0</ele>
        <time>2019-04-30T09:21:36.000Z</time>
      </trkpt>
      <trkpt lat="42.545860290527344" lon="-7.632308483123779">
        <ele>551.0</ele>
        <time>2019-04-30T09:21:39.000Z</time>
      </trkpt>
      <trkpt lat="42.54586410522461" lon="-7.6323747634887695">
        <ele>551.0</ele>
        <time>2019-04-30T09:21:41.000Z</time>
      </trkpt>
      <trkpt lat="42.545867919921875" lon="-7.632452011108398">
        <ele>551.0</ele>
        <time>2019-04-30T09:21:44.000Z</time>
      </trkpt>
      <trkpt lat="42.54587173461914" lon="-7.632534980773926">
        <ele>552.0</ele>
        <time>2019-04-30T09:21:47.000Z</time>
      </trkpt>
      <trkpt lat="42.54588317871094" lon="-7.632573127746582">
        <ele>552.0</ele>
        <time>2019-04-30T09:22:00.000Z</time>
      </trkpt>
      <trkpt lat="42.54589080810547" lon="-7.632601737976074">
        <ele>552.0</ele>
        <time>2019-04-30T09:22:01.000Z</time>
      </trkpt>
      <trkpt lat="42.545921325683594" lon="-7.632709980010986">
        <ele>553.0</ele>
        <time>2019-04-30T09:22:04.000Z</time>
      </trkpt>
      <trkpt lat="42.54597091674805" lon="-7.632889270782471">
        <ele>552.0</ele>
        <time>2019-04-30T09:22:30.000Z</time>
      </trkpt>
      <trkpt lat="42.54599380493164" lon="-7.632966995239258">
        <ele>552.0</ele>
        <time>2019-04-30T09:22:31.000Z</time>
      </trkpt>
      <trkpt lat="42.54612350463867" lon="-7.633419513702393">
        <ele>553.0</ele>
        <time>2019-04-30T09:22:50.000Z</time>
      </trkpt>
      <trkpt lat="42.54631423950195" lon="-7.633823394775391">
        <ele>553.0</ele>
        <time>2019-04-30T09:23:21.000Z</time>
      </trkpt>
      <trkpt lat="42.54639434814453" lon="-7.634115219116211">
        <ele>555.0</ele>
        <time>2019-04-30T09:23:46.000Z</time>
      </trkpt>
      <trkpt lat="42.54641342163086" lon="-7.634163856506348">
        <ele>558.0</ele>
        <time>2019-04-30T09:24:14.000Z</time>
      </trkpt>
      <trkpt lat="42.54642868041992" lon="-7.6342010498046875">
        <ele>558.0</ele>
        <time>2019-04-30T09:24:15.000Z</time>
      </trkpt>
      <trkpt lat="42.546531677246094" lon="-7.634614944458008">
        <ele>561.0</ele>
        <time>2019-04-30T09:24:31.000Z</time>
      </trkpt>
      <trkpt lat="42.546531677246094" lon="-7.6346659660339355">
        <ele>563.0</ele>
        <time>2019-04-30T09:24:35.000Z</time>
      </trkpt>
      <trkpt lat="42.54651641845703" lon="-7.634695053100586">
        <ele>565.0</ele>
        <time>2019-04-30T09:24:40.000Z</time>
      </trkpt>
      <trkpt lat="42.54649353027344" lon="-7.634709358215332">
        <ele>568.0</ele>
        <time>2019-04-30T09:24:44.000Z</time>
      </trkpt>
      <trkpt lat="42.54646682739258" lon="-7.634716510772705">
        <ele>570.0</ele>
        <time>2019-04-30T09:24:48.000Z</time>
      </trkpt>
      <trkpt lat="42.54645919799805" lon="-7.634730815887451">
        <ele>571.0</ele>
        <time>2019-04-30T09:24:48.000Z</time>
      </trkpt>
      <trkpt lat="42.546451568603516" lon="-7.634740829467773">
        <ele>571.0</ele>
        <time>2019-04-30T09:24:49.000Z</time>
      </trkpt>
      <trkpt lat="42.54644775390625" lon="-7.6347479820251465">
        <ele>571.0</ele>
        <time>2019-04-30T09:24:49.000Z</time>
      </trkpt>
      <trkpt lat="42.546443939208984" lon="-7.634753227233887">
        <ele>570.0</ele>
        <time>2019-04-30T09:24:49.000Z</time>
      </trkpt>
      <trkpt lat="42.54643249511719" lon="-7.634769916534424">
        <ele>571.0</ele>
        <time>2019-04-30T09:24:50.000Z</time>
      </trkpt>
      <trkpt lat="42.54642105102539" lon="-7.634789943695068">
        <ele>571.0</ele>
        <time>2019-04-30T09:24:52.000Z</time>
      </trkpt>
      <trkpt lat="42.54640579223633" lon="-7.634811878204346">
        <ele>572.0</ele>
        <time>2019-04-30T09:24:53.000Z</time>
      </trkpt>
      <trkpt lat="42.546390533447266" lon="-7.6348347663879395">
        <ele>572.0</ele>
        <time>2019-04-30T09:24:54.000Z</time>
      </trkpt>
      <trkpt lat="42.54637908935547" lon="-7.634857177734375">
        <ele>573.0</ele>
        <time>2019-04-30T09:24:59.000Z</time>
      </trkpt>
      <trkpt lat="42.54637145996094" lon="-7.634880065917969">
        <ele>574.0</ele>
        <time>2019-04-30T09:25:03.000Z</time>
      </trkpt>
      <trkpt lat="42.54636764526367" lon="-7.634903907775879">
        <ele>574.0</ele>
        <time>2019-04-30T09:25:08.000Z</time>
      </trkpt>
      <trkpt lat="42.54636001586914" lon="-7.634927749633789">
        <ele>575.0</ele>
        <time>2019-04-30T09:25:13.000Z</time>
      </trkpt>
      <trkpt lat="42.546356201171875" lon="-7.634942531585693">
        <ele>575.0</ele>
        <time>2019-04-30T09:25:13.000Z</time>
      </trkpt>
      <trkpt lat="42.54635238647461" lon="-7.634953498840332">
        <ele>575.0</ele>
        <time>2019-04-30T09:25:13.000Z</time>
      </trkpt>
      <trkpt lat="42.546348571777344" lon="-7.63496208190918">
        <ele>575.0</ele>
        <time>2019-04-30T09:25:14.000Z</time>
      </trkpt>
      <trkpt lat="42.546348571777344" lon="-7.634969711303711">
        <ele>575.0</ele>
        <time>2019-04-30T09:25:14.000Z</time>
      </trkpt>
      <trkpt lat="42.54634475708008" lon="-7.634980201721191">
        <ele>575.0</ele>
        <time>2019-04-30T09:25:15.000Z</time>
      </trkpt>
      <trkpt lat="42.54634094238281" lon="-7.634990692138672">
        <ele>575.0</ele>
        <time>2019-04-30T09:25:15.000Z</time>
      </trkpt>
      <trkpt lat="42.54633712768555" lon="-7.635001182556152">
        <ele>575.0</ele>
        <time>2019-04-30T09:25:16.000Z</time>
      </trkpt>
      <trkpt lat="42.54633331298828" lon="-7.635011672973633">
        <ele>575.0</ele>
        <time>2019-04-30T09:25:17.000Z</time>
      </trkpt>
      <trkpt lat="42.54634475708008" lon="-7.63503360748291">
        <ele>575.0</ele>
        <time>2019-04-30T09:25:24.000Z</time>
      </trkpt>
      <trkpt lat="42.546356201171875" lon="-7.6350603103637695">
        <ele>576.0</ele>
        <time>2019-04-30T09:25:31.000Z</time>
      </trkpt>
      <trkpt lat="42.54637145996094" lon="-7.635090351104736">
        <ele>576.0</ele>
        <time>2019-04-30T09:25:39.000Z</time>
      </trkpt>
      <trkpt lat="42.54638671875" lon="-7.635121822357178">
        <ele>577.0</ele>
        <time>2019-04-30T09:25:46.000Z</time>
      </trkpt>
      <trkpt lat="42.5463981628418" lon="-7.635141372680664">
        <ele>577.0</ele>
        <time>2019-04-30T09:25:46.000Z</time>
      </trkpt>
      <trkpt lat="42.54640579223633" lon="-7.635157585144043">
        <ele>577.0</ele>
        <time>2019-04-30T09:25:46.000Z</time>
      </trkpt>
      <trkpt lat="42.54641342163086" lon="-7.635171413421631">
        <ele>577.0</ele>
        <time>2019-04-30T09:25:47.000Z</time>
      </trkpt>
      <trkpt lat="42.546417236328125" lon="-7.635184288024902">
        <ele>577.0</ele>
        <time>2019-04-30T09:25:47.000Z</time>
      </trkpt>
      <trkpt lat="42.54643630981445" lon="-7.635223865509033">
        <ele>576.0</ele>
        <time>2019-04-30T09:25:48.000Z</time>
      </trkpt>
      <trkpt lat="42.54645538330078" lon="-7.6352739334106445">
        <ele>576.0</ele>
        <time>2019-04-30T09:25:48.000Z</time>
      </trkpt>
      <trkpt lat="42.546478271484375" lon="-7.6353302001953125">
        <ele>576.0</ele>
        <time>2019-04-30T09:25:49.000Z</time>
      </trkpt>
      <trkpt lat="42.546504974365234" lon="-7.635390281677246">
        <ele>575.0</ele>
        <time>2019-04-30T09:25:50.000Z</time>
      </trkpt>
      <trkpt lat="42.54651641845703" lon="-7.635441780090332">
        <ele>575.0</ele>
        <time>2019-04-30T09:25:54.000Z</time>
      </trkpt>
      <trkpt lat="42.5465202331543" lon="-7.63549280166626">
        <ele>574.0</ele>
        <time>2019-04-30T09:25:58.000Z</time>
      </trkpt>
      <trkpt lat="42.54652404785156" lon="-7.6355438232421875">
        <ele>573.0</ele>
        <time>2019-04-30T09:26:02.000Z</time>
      </trkpt>
      <trkpt lat="42.54652786254883" lon="-7.635594844818115">
        <ele>573.0</ele>
        <time>2019-04-30T09:26:06.000Z</time>
      </trkpt>
      <trkpt lat="42.54652786254883" lon="-7.635619640350342">
        <ele>572.0</ele>
        <time>2019-04-30T09:26:11.000Z</time>
      </trkpt>
      <trkpt lat="42.546531677246094" lon="-7.6356329917907715">
        <ele>572.0</ele>
        <time>2019-04-30T09:26:15.000Z</time>
      </trkpt>
      <trkpt lat="42.546531677246094" lon="-7.635639190673828">
        <ele>571.0</ele>
        <time>2019-04-30T09:26:20.000Z</time>
      </trkpt>
      <trkpt lat="42.54652786254883" lon="-7.635641574859619">
        <ele>570.0</ele>
        <time>2019-04-30T09:26:24.000Z</time>
      </trkpt>
      <trkpt lat="42.546531677246094" lon="-7.635651111602783">
        <ele>570.0</ele>
        <time>2019-04-30T09:26:24.000Z</time>
      </trkpt>
      <trkpt lat="42.546531677246094" lon="-7.635659694671631">
        <ele>570.0</ele>
        <time>2019-04-30T09:26:25.000Z</time>
      </trkpt>
      <trkpt lat="42.546531677246094" lon="-7.635667324066162">
        <ele>570.0</ele>
        <time>2019-04-30T09:26:25.000Z</time>
      </trkpt>
      <trkpt lat="42.546531677246094" lon="-7.635674953460693">
        <ele>570.0</ele>
        <time>2019-04-30T09:26:25.000Z</time>
      </trkpt>
      <trkpt lat="42.54653549194336" lon="-7.6357855796813965">
        <ele>570.0</ele>
        <time>2019-04-30T09:26:28.000Z</time>
      </trkpt>
      <trkpt lat="42.546539306640625" lon="-7.63580846786499">
        <ele>568.0</ele>
        <time>2019-04-30T09:26:40.000Z</time>
      </trkpt>
      <trkpt lat="42.546539306640625" lon="-7.635827541351318">
        <ele>568.0</ele>
        <time>2019-04-30T09:26:41.000Z</time>
      </trkpt>
      <trkpt lat="42.54654312133789" lon="-7.636091709136963">
        <ele>568.0</ele>
        <time>2019-04-30T09:26:47.000Z</time>
      </trkpt>
      <trkpt lat="42.54652404785156" lon="-7.636229515075684">
        <ele>566.0</ele>
        <time>2019-04-30T09:26:58.000Z</time>
      </trkpt>
      <trkpt lat="42.54651641845703" lon="-7.636277675628662">
        <ele>566.0</ele>
        <time>2019-04-30T09:26:59.000Z</time>
      </trkpt>
      <trkpt lat="42.54645919799805" lon="-7.636731147766113">
        <ele>567.0</ele>
        <time>2019-04-30T09:27:20.000Z</time>
      </trkpt>
      <trkpt lat="42.54644775390625" lon="-7.637218475341797">
        <ele>571.0</ele>
        <time>2019-04-30T09:27:49.000Z</time>
      </trkpt>
      <trkpt lat="42.546390533447266" lon="-7.637423515319824">
        <ele>568.0</ele>
        <time>2019-04-30T09:28:03.000Z</time>
      </trkpt>
      <trkpt lat="42.5463981628418" lon="-7.637487888336182">
        <ele>568.0</ele>
        <time>2019-04-30T09:28:07.000Z</time>
      </trkpt>
      <trkpt lat="42.54641342163086" lon="-7.637557506561279">
        <ele>568.0</ele>
        <time>2019-04-30T09:28:11.000Z</time>
      </trkpt>
      <trkpt lat="42.54643630981445" lon="-7.637630939483643">
        <ele>567.0</ele>
        <time>2019-04-30T09:28:15.000Z</time>
      </trkpt>
      <trkpt lat="42.54645919799805" lon="-7.6377058029174805">
        <ele>567.0</ele>
        <time>2019-04-30T09:28:19.000Z</time>
      </trkpt>
      <trkpt lat="42.54649353027344" lon="-7.637800216674805">
        <ele>567.0</ele>
        <time>2019-04-30T09:28:28.000Z</time>
      </trkpt>
      <trkpt lat="42.546531677246094" lon="-7.637904167175293">
        <ele>568.0</ele>
        <time>2019-04-30T09:28:36.000Z</time>
      </trkpt>
      <trkpt lat="42.54657745361328" lon="-7.638014793395996">
        <ele>569.0</ele>
        <time>2019-04-30T09:28:44.000Z</time>
      </trkpt>
      <trkpt lat="42.54662322998047" lon="-7.638128757476807">
        <ele>569.0</ele>
        <time>2019-04-30T09:28:53.000Z</time>
      </trkpt>
      <trkpt lat="42.546661376953125" lon="-7.6382365226745605">
        <ele>569.0</ele>
        <time>2019-04-30T09:29:00.000Z</time>
      </trkpt>
      <trkpt lat="42.54669952392578" lon="-7.638345241546631">
        <ele>569.0</ele>
        <time>2019-04-30T09:29:08.000Z</time>
      </trkpt>
      <trkpt lat="42.54673767089844" lon="-7.638454437255859">
        <ele>568.0</ele>
        <time>2019-04-30T09:29:16.000Z</time>
      </trkpt>
      <trkpt lat="42.546775817871094" lon="-7.638563632965088">
        <ele>568.0</ele>
        <time>2019-04-30T09:29:24.000Z</time>
      </trkpt>
      <trkpt lat="42.54682922363281" lon="-7.638662815093994">
        <ele>567.0</ele>
        <time>2019-04-30T09:29:31.000Z</time>
      </trkpt>
      <trkpt lat="42.5468864440918" lon="-7.638757705688477">
        <ele>567.0</ele>
        <time>2019-04-30T09:29:38.000Z</time>
      </trkpt>
      <trkpt lat="42.54695129394531" lon="-7.63884973526001">
        <ele>566.0</ele>
        <time>2019-04-30T09:29:45.000Z</time>
      </trkpt>
      <trkpt lat="42.54701232910156" lon="-7.638940811157227">
        <ele>566.0</ele>
        <time>2019-04-30T09:29:52.000Z</time>
      </trkpt>
      <trkpt lat="42.547080993652344" lon="-7.63901948928833">
        <ele>566.0</ele>
        <time>2019-04-30T09:30:00.000Z</time>
      </trkpt>
      <trkpt lat="42.54715347290039" lon="-7.639091968536377">
        <ele>566.0</ele>
        <time>2019-04-30T09:30:08.000Z</time>
      </trkpt>
      <trkpt lat="42.5472297668457" lon="-7.63916015625">
        <ele>566.0</ele>
        <time>2019-04-30T09:30:16.000Z</time>
      </trkpt>
      <trkpt lat="42.54730224609375" lon="-7.639225959777832">
        <ele>567.0</ele>
        <time>2019-04-30T09:30:25.000Z</time>
      </trkpt>
      <trkpt lat="42.54737854003906" lon="-7.639288425445557">
        <ele>567.0</ele>
        <time>2019-04-30T09:30:32.000Z</time>
      </trkpt>
      <trkpt lat="42.547454833984375" lon="-7.639346599578857">
        <ele>568.0</ele>
        <time>2019-04-30T09:30:40.000Z</time>
      </trkpt>
      <trkpt lat="42.54753494262695" lon="-7.639402866363525">
        <ele>568.0</ele>
        <time>2019-04-30T09:30:48.000Z</time>
      </trkpt>
      <trkpt lat="42.54761505126953" lon="-7.6394572257995605">
        <ele>569.0</ele>
        <time>2019-04-30T09:30:56.000Z</time>
      </trkpt>
      <trkpt lat="42.54768371582031" lon="-7.639523506164551">
        <ele>572.0</ele>
        <time>2019-04-30T09:31:09.000Z</time>
      </trkpt>
      <trkpt lat="42.547733306884766" lon="-7.639533042907715">
        <ele>575.0</ele>
        <time>2019-04-30T09:31:23.000Z</time>
      </trkpt>
      <trkpt lat="42.547786712646484" lon="-7.639532089233398">
        <ele>578.0</ele>
        <time>2019-04-30T09:31:37.000Z</time>
      </trkpt>
      <trkpt lat="42.54780197143555" lon="-7.639533519744873">
        <ele>578.0</ele>
        <time>2019-04-30T09:31:37.000Z</time>
      </trkpt>
      <trkpt lat="42.547813415527344" lon="-7.639534950256348">
        <ele>578.0</ele>
        <time>2019-04-30T09:31:37.000Z</time>
      </trkpt>
      <trkpt lat="42.54782485961914" lon="-7.639535427093506">
        <ele>578.0</ele>
        <time>2019-04-30T09:31:37.000Z</time>
      </trkpt>
      <trkpt lat="42.54783248901367" lon="-7.639536380767822">
        <ele>578.0</ele>
        <time>2019-04-30T09:31:38.000Z</time>
      </trkpt>
      <trkpt lat="42.54786682128906" lon="-7.639551639556885">
        <ele>578.0</ele>
        <time>2019-04-30T09:31:40.000Z</time>
      </trkpt>
      <trkpt lat="42.54791259765625" lon="-7.639573097229004">
        <ele>579.0</ele>
        <time>2019-04-30T09:31:43.000Z</time>
      </trkpt>
      <trkpt lat="42.54796600341797" lon="-7.639598846435547">
        <ele>579.0</ele>
        <time>2019-04-30T09:31:45.000Z</time>
      </trkpt>
      <trkpt lat="42.54802322387695" lon="-7.639626502990723">
        <ele>580.0</ele>
        <time>2019-04-30T09:31:48.000Z</time>
      </trkpt>
      <trkpt lat="42.548072814941406" lon="-7.63968563079834">
        <ele>581.0</ele>
        <time>2019-04-30T09:31:59.000Z</time>
      </trkpt>
      <trkpt lat="42.5481071472168" lon="-7.639750957489014">
        <ele>583.0</ele>
        <time>2019-04-30T09:32:10.000Z</time>
      </trkpt>
      <trkpt lat="42.548118591308594" lon="-7.639769077301025">
        <ele>583.0</ele>
        <time>2019-04-30T09:32:10.000Z</time>
      </trkpt>
      <trkpt lat="42.548126220703125" lon="-7.6397809982299805">
        <ele>583.0</ele>
        <time>2019-04-30T09:32:10.000Z</time>
      </trkpt>
      <trkpt lat="42.548133850097656" lon="-7.63978910446167">
        <ele>583.0</ele>
        <time>2019-04-30T09:32:10.000Z</time>
      </trkpt>
      <trkpt lat="42.54813766479492" lon="-7.639795780181885">
        <ele>583.0</ele>
        <time>2019-04-30T09:32:11.000Z</time>
      </trkpt>
      <trkpt lat="42.54815673828125" lon="-7.639848232269287">
        <ele>583.0</ele>
        <time>2019-04-30T09:32:14.000Z</time>
      </trkpt>
      <trkpt lat="42.54818344116211" lon="-7.639917850494385">
        <ele>582.0</ele>
        <time>2019-04-30T09:32:18.000Z</time>
      </trkpt>
      <trkpt lat="42.54821014404297" lon="-7.639998912811279">
        <ele>582.0</ele>
        <time>2019-04-30T09:32:21.000Z</time>
      </trkpt>
      <trkpt lat="42.548240661621094" lon="-7.6400861740112305">
        <ele>581.0</ele>
        <time>2019-04-30T09:32:25.000Z</time>
      </trkpt>
      <trkpt lat="42.54825210571289" lon="-7.640113353729248">
        <ele>581.0</ele>
        <time>2019-04-30T09:32:28.000Z</time>
      </trkpt>
      <trkpt lat="42.548255920410156" lon="-7.6401214599609375">
        <ele>582.0</ele>
        <time>2019-04-30T09:32:32.000Z</time>
      </trkpt>
      <trkpt lat="42.54825973510742" lon="-7.640117168426514">
        <ele>582.0</ele>
        <time>2019-04-30T09:32:36.000Z</time>
      </trkpt>
      <trkpt lat="42.548255920410156" lon="-7.640106201171875">
        <ele>583.0</ele>
        <time>2019-04-30T09:32:40.000Z</time>
      </trkpt>
      <trkpt lat="42.54825973510742" lon="-7.640110492706299">
        <ele>583.0</ele>
        <time>2019-04-30T09:32:40.000Z</time>
      </trkpt>
      <trkpt lat="42.54826354980469" lon="-7.640114784240723">
        <ele>583.0</ele>
        <time>2019-04-30T09:32:40.000Z</time>
      </trkpt>
      <trkpt lat="42.54826736450195" lon="-7.640118598937988">
        <ele>583.0</ele>
        <time>2019-04-30T09:32:40.000Z</time>
      </trkpt>
      <trkpt lat="42.54827117919922" lon="-7.640122413635254">
        <ele>583.0</ele>
        <time>2019-04-30T09:32:41.000Z</time>
      </trkpt>
      <trkpt lat="42.548301696777344" lon="-7.640162944793701">
        <ele>583.0</ele>
        <time>2019-04-30T09:32:44.000Z</time>
      </trkpt>
      <trkpt lat="42.54834747314453" lon="-7.640218734741211">
        <ele>583.0</ele>
        <time>2019-04-30T09:32:48.000Z</time>
      </trkpt>
      <trkpt lat="42.548397064208984" lon="-7.640284538269043">
        <ele>583.0</ele>
        <time>2019-04-30T09:32:52.000Z</time>
      </trkpt>
      <trkpt lat="42.54845428466797" lon="-7.640355587005615">
        <ele>584.0</ele>
        <time>2019-04-30T09:32:56.000Z</time>
      </trkpt>
      <trkpt lat="42.54848098754883" lon="-7.6404218673706055">
        <ele>585.0</ele>
        <time>2019-04-30T09:33:14.000Z</time>
      </trkpt>
      <trkpt lat="42.54849624633789" lon="-7.6404595375061035">
        <ele>585.0</ele>
        <time>2019-04-30T09:33:15.000Z</time>
      </trkpt>
      <trkpt lat="42.548702239990234" lon="-7.640832901000977">
        <ele>584.0</ele>
        <time>2019-04-30T09:33:32.000Z</time>
      </trkpt>
      <trkpt lat="42.54880142211914" lon="-7.641246318817139">
        <ele>584.0</ele>
        <time>2019-04-30T09:34:04.000Z</time>
      </trkpt>
      <trkpt lat="42.548919677734375" lon="-7.641415119171143">
        <ele>584.0</ele>
        <time>2019-04-30T09:34:15.000Z</time>
      </trkpt>
      <trkpt lat="42.54906463623047" lon="-7.641566276550293">
        <ele>584.0</ele>
        <time>2019-04-30T09:34:27.000Z</time>
      </trkpt>
      <trkpt lat="42.54912567138672" lon="-7.641653060913086">
        <ele>583.0</ele>
        <time>2019-04-30T09:34:35.000Z</time>
      </trkpt>
      <trkpt lat="42.5491828918457" lon="-7.641743183135986">
        <ele>582.0</ele>
        <time>2019-04-30T09:34:44.000Z</time>
      </trkpt>
      <trkpt lat="42.54924011230469" lon="-7.641834735870361">
        <ele>582.0</ele>
        <time>2019-04-30T09:34:52.000Z</time>
      </trkpt>
      <trkpt lat="42.549293518066406" lon="-7.641927719116211">
        <ele>581.0</ele>
        <time>2019-04-30T09:35:01.000Z</time>
      </trkpt>
      <trkpt lat="42.549339294433594" lon="-7.641983509063721">
        <ele>580.0</ele>
        <time>2019-04-30T09:35:06.000Z</time>
      </trkpt>
      <trkpt lat="42.549381256103516" lon="-7.642024517059326">
        <ele>579.0</ele>
        <time>2019-04-30T09:35:11.000Z</time>
      </trkpt>
      <trkpt lat="42.54941940307617" lon="-7.642056465148926">
        <ele>579.0</ele>
        <time>2019-04-30T09:35:16.000Z</time>
      </trkpt>
      <trkpt lat="42.54945755004883" lon="-7.642083168029785">
        <ele>578.0</ele>
        <time>2019-04-30T09:35:22.000Z</time>
      </trkpt>
      <trkpt lat="42.54948043823242" lon="-7.642104148864746">
        <ele>578.0</ele>
        <time>2019-04-30T09:35:26.000Z</time>
      </trkpt>
      <trkpt lat="42.549495697021484" lon="-7.642117500305176">
        <ele>577.0</ele>
        <time>2019-04-30T09:35:30.000Z</time>
      </trkpt>
      <trkpt lat="42.549503326416016" lon="-7.642125606536865">
        <ele>577.0</ele>
        <time>2019-04-30T09:35:34.000Z</time>
      </trkpt>
      <trkpt lat="42.54951095581055" lon="-7.642131805419922">
        <ele>577.0</ele>
        <time>2019-04-30T09:35:38.000Z</time>
      </trkpt>
      <trkpt lat="42.549522399902344" lon="-7.642139911651611">
        <ele>577.0</ele>
        <time>2019-04-30T09:35:38.000Z</time>
      </trkpt>
      <trkpt lat="42.549530029296875" lon="-7.642146110534668">
        <ele>577.0</ele>
        <time>2019-04-30T09:35:38.000Z</time>
      </trkpt>
      <trkpt lat="42.549537658691406" lon="-7.642151832580566">
        <ele>577.0</ele>
        <time>2019-04-30T09:35:38.000Z</time>
      </trkpt>
      <trkpt lat="42.54954147338867" lon="-7.642156600952148">
        <ele>577.0</ele>
        <time>2019-04-30T09:35:39.000Z</time>
      </trkpt>
      <trkpt lat="42.549560546875" lon="-7.642173767089844">
        <ele>577.0</ele>
        <time>2019-04-30T09:35:40.000Z</time>
      </trkpt>
      <trkpt lat="42.54958724975586" lon="-7.642196178436279">
        <ele>577.0</ele>
        <time>2019-04-30T09:35:42.000Z</time>
      </trkpt>
      <trkpt lat="42.549617767333984" lon="-7.642220973968506">
        <ele>577.0</ele>
        <time>2019-04-30T09:35:43.000Z</time>
      </trkpt>
      <trkpt lat="42.549652099609375" lon="-7.642247676849365">
        <ele>577.0</ele>
        <time>2019-04-30T09:35:45.000Z</time>
      </trkpt>
      <trkpt lat="42.549659729003906" lon="-7.642260551452637">
        <ele>578.0</ele>
        <time>2019-04-30T09:36:38.000Z</time>
      </trkpt>
      <trkpt lat="42.5496711730957" lon="-7.642271995544434">
        <ele>578.0</ele>
        <time>2019-04-30T09:36:39.000Z</time>
      </trkpt>
      <trkpt lat="42.54994201660156" lon="-7.642561435699463">
        <ele>577.0</ele>
        <time>2019-04-30T09:36:56.000Z</time>
      </trkpt>
      <trkpt lat="42.549949645996094" lon="-7.642580032348633">
        <ele>577.0</ele>
        <time>2019-04-30T09:36:58.000Z</time>
      </trkpt>
      <trkpt lat="42.54996871948242" lon="-7.6426215171813965">
        <ele>574.0</ele>
        <time>2019-04-30T09:37:56.000Z</time>
      </trkpt>
      <trkpt lat="42.54998016357422" lon="-7.642650604248047">
        <ele>574.0</ele>
        <time>2019-04-30T09:37:57.000Z</time>
      </trkpt>
      <trkpt lat="42.54998779296875" lon="-7.642670154571533">
        <ele>574.0</ele>
        <time>2019-04-30T09:37:58.000Z</time>
      </trkpt>
      <trkpt lat="42.54999542236328" lon="-7.642690181732178">
        <ele>572.0</ele>
        <time>2019-04-30T09:38:05.000Z</time>
      </trkpt>
      <trkpt lat="42.55000305175781" lon="-7.642707347869873">
        <ele>572.0</ele>
        <time>2019-04-30T09:38:06.000Z</time>
      </trkpt>
      <trkpt lat="42.55000305175781" lon="-7.642712116241455">
        <ele>572.0</ele>
        <time>2019-04-30T09:38:07.000Z</time>
      </trkpt>
      <trkpt lat="42.550010681152344" lon="-7.642722129821777">
        <ele>571.0</ele>
        <time>2019-04-30T09:38:30.000Z</time>
      </trkpt>
      <trkpt lat="42.55001449584961" lon="-7.642731189727783">
        <ele>571.0</ele>
        <time>2019-04-30T09:38:31.000Z</time>
      </trkpt>
      <trkpt lat="42.550048828125" lon="-7.642799377441406">
        <ele>571.0</ele>
        <time>2019-04-30T09:38:34.000Z</time>
      </trkpt>
      <trkpt lat="42.55010986328125" lon="-7.642909526824951">
        <ele>568.0</ele>
        <time>2019-04-30T09:38:44.000Z</time>
      </trkpt>
      <trkpt lat="42.55014419555664" lon="-7.642971515655518">
        <ele>568.0</ele>
        <time>2019-04-30T09:38:45.000Z</time>
      </trkpt>
      <trkpt lat="42.55016326904297" lon="-7.643006801605225">
        <ele>566.0</ele>
        <time>2019-04-30T09:38:47.000Z</time>
      </trkpt>
      <trkpt lat="42.550201416015625" lon="-7.643073558807373">
        <ele>565.0</ele>
        <time>2019-04-30T09:38:51.000Z</time>
      </trkpt>
      <trkpt lat="42.55022430419922" lon="-7.643110275268555">
        <ele>565.0</ele>
        <time>2019-04-30T09:38:52.000Z</time>
      </trkpt>
      <trkpt lat="42.55039978027344" lon="-7.643372535705566">
        <ele>564.0</ele>
        <time>2019-04-30T09:39:08.000Z</time>
      </trkpt>
      <trkpt lat="42.550411224365234" lon="-7.643414497375488">
        <ele>562.0</ele>
        <time>2019-04-30T09:39:31.000Z</time>
      </trkpt>
      <trkpt lat="42.550418853759766" lon="-7.643446445465088">
        <ele>562.0</ele>
        <time>2019-04-30T09:39:32.000Z</time>
      </trkpt>
      <trkpt lat="42.550437927246094" lon="-7.643527984619141">
        <ele>561.0</ele>
        <time>2019-04-30T09:39:35.000Z</time>
      </trkpt>
      <trkpt lat="42.55046081542969" lon="-7.643622398376465">
        <ele>560.0</ele>
        <time>2019-04-30T09:39:41.000Z</time>
      </trkpt>
      <trkpt lat="42.55047607421875" lon="-7.643669128417969">
        <ele>560.0</ele>
        <time>2019-04-30T09:39:42.000Z</time>
      </trkpt>
      <trkpt lat="42.550533294677734" lon="-7.643972396850586">
        <ele>560.0</ele>
        <time>2019-04-30T09:39:56.000Z</time>
      </trkpt>
      <trkpt lat="42.550537109375" lon="-7.6439924240112305">
        <ele>559.0</ele>
        <time>2019-04-30T09:40:14.000Z</time>
      </trkpt>
      <trkpt lat="42.550540924072266" lon="-7.644009590148926">
        <ele>559.0</ele>
        <time>2019-04-30T09:40:15.000Z</time>
      </trkpt>
      <trkpt lat="42.55058670043945" lon="-7.6442131996154785">
        <ele>559.0</ele>
        <time>2019-04-30T09:40:21.000Z</time>
      </trkpt>
      <trkpt lat="42.55061340332031" lon="-7.64432430267334">
        <ele>557.0</ele>
        <time>2019-04-30T09:40:31.000Z</time>
      </trkpt>
      <trkpt lat="42.55062484741211" lon="-7.6443681716918945">
        <ele>557.0</ele>
        <time>2019-04-30T09:40:32.000Z</time>
      </trkpt>
      <trkpt lat="42.55064392089844" lon="-7.644467830657959">
        <ele>556.0</ele>
        <time>2019-04-30T09:40:37.000Z</time>
      </trkpt>
      <trkpt lat="42.550655364990234" lon="-7.644497871398926">
        <ele>550.0</ele>
        <time>2019-04-30T09:41:04.000Z</time>
      </trkpt>
      <trkpt lat="42.550662994384766" lon="-7.644522666931152">
        <ele>550.0</ele>
        <time>2019-04-30T09:41:05.000Z</time>
      </trkpt>
      <trkpt lat="42.55066680908203" lon="-7.644538879394531">
        <ele>550.0</ele>
        <time>2019-04-30T09:41:06.000Z</time>
      </trkpt>
      <trkpt lat="42.55070877075195" lon="-7.6446709632873535">
        <ele>550.0</ele>
        <time>2019-04-30T09:41:12.000Z</time>
      </trkpt>
      <trkpt lat="42.550724029541016" lon="-7.644728183746338">
        <ele>550.0</ele>
        <time>2019-04-30T09:41:13.000Z</time>
      </trkpt>
      <trkpt lat="42.550785064697266" lon="-7.644939422607422">
        <ele>552.0</ele>
        <time>2019-04-30T09:41:21.000Z</time>
      </trkpt>
      <trkpt lat="42.55080032348633" lon="-7.6449689865112305">
        <ele>554.0</ele>
        <time>2019-04-30T09:41:34.000Z</time>
      </trkpt>
      <trkpt lat="42.550811767578125" lon="-7.644991874694824">
        <ele>554.0</ele>
        <time>2019-04-30T09:41:35.000Z</time>
      </trkpt>
      <trkpt lat="42.550899505615234" lon="-7.645326137542725">
        <ele>555.0</ele>
        <time>2019-04-30T09:41:48.000Z</time>
      </trkpt>
      <trkpt lat="42.550941467285156" lon="-7.645387649536133">
        <ele>553.0</ele>
        <time>2019-04-30T09:42:00.000Z</time>
      </trkpt>
      <trkpt lat="42.55098342895508" lon="-7.645400047302246">
        <ele>551.0</ele>
        <time>2019-04-30T09:42:12.000Z</time>
      </trkpt>
      <trkpt lat="42.550994873046875" lon="-7.645410060882568">
        <ele>551.0</ele>
        <time>2019-04-30T09:42:12.000Z</time>
      </trkpt>
      <trkpt lat="42.551002502441406" lon="-7.645416259765625">
        <ele>551.0</ele>
        <time>2019-04-30T09:42:12.000Z</time>
      </trkpt>
      <trkpt lat="42.55100631713867" lon="-7.645420074462891">
        <ele>551.0</ele>
        <time>2019-04-30T09:42:12.000Z</time>
      </trkpt>
      <trkpt lat="42.55101013183594" lon="-7.64542293548584">
        <ele>551.0</ele>
        <time>2019-04-30T09:42:13.000Z</time>
      </trkpt>
      <trkpt lat="42.55101776123047" lon="-7.645429611206055">
        <ele>551.0</ele>
        <time>2019-04-30T09:42:13.000Z</time>
      </trkpt>
      <trkpt lat="42.551029205322266" lon="-7.6454362869262695">
        <ele>551.0</ele>
        <time>2019-04-30T09:42:14.000Z</time>
      </trkpt>
      <trkpt lat="42.5510368347168" lon="-7.645443439483643">
        <ele>551.0</ele>
        <time>2019-04-30T09:42:15.000Z</time>
      </trkpt>
      <trkpt lat="42.551048278808594" lon="-7.645451068878174">
        <ele>551.0</ele>
        <time>2019-04-30T09:42:16.000Z</time>
      </trkpt>
      <trkpt lat="42.551055908203125" lon="-7.645455837249756">
        <ele>551.0</ele>
        <time>2019-04-30T09:42:21.000Z</time>
      </trkpt>
      <trkpt lat="42.55105972290039" lon="-7.64546012878418">
        <ele>551.0</ele>
        <time>2019-04-30T09:42:27.000Z</time>
      </trkpt>
      <trkpt lat="42.551063537597656" lon="-7.645463466644287">
        <ele>551.0</ele>
        <time>2019-04-30T09:42:33.000Z</time>
      </trkpt>
      <trkpt lat="42.55106735229492" lon="-7.6454668045043945">
        <ele>551.0</ele>
        <time>2019-04-30T09:42:39.000Z</time>
      </trkpt>
      <trkpt lat="42.55107116699219" lon="-7.645470142364502">
        <ele>551.0</ele>
        <time>2019-04-30T09:42:39.000Z</time>
      </trkpt>
      <trkpt lat="42.55107498168945" lon="-7.645473480224609">
        <ele>551.0</ele>
        <time>2019-04-30T09:42:39.000Z</time>
      </trkpt>
      <trkpt lat="42.55107879638672" lon="-7.645476818084717">
        <ele>551.0</ele>
        <time>2019-04-30T09:42:39.000Z</time>
      </trkpt>
      <trkpt lat="42.551082611083984" lon="-7.645479679107666">
        <ele>551.0</ele>
        <time>2019-04-30T09:42:40.000Z</time>
      </trkpt>
      <trkpt lat="42.551109313964844" lon="-7.645502090454102">
        <ele>551.0</ele>
        <time>2019-04-30T09:42:41.000Z</time>
      </trkpt>
      <trkpt lat="42.551143646240234" lon="-7.645532608032227">
        <ele>551.0</ele>
        <time>2019-04-30T09:42:43.000Z</time>
      </trkpt>
      <trkpt lat="42.55118179321289" lon="-7.645568370819092">
        <ele>551.0</ele>
        <time>2019-04-30T09:42:44.000Z</time>
      </trkpt>
      <trkpt lat="42.55122375488281" lon="-7.645606517791748">
        <ele>551.0</ele>
        <time>2019-04-30T09:42:46.000Z</time>
      </trkpt>
      <trkpt lat="42.55125045776367" lon="-7.645616054534912">
        <ele>549.0</ele>
        <time>2019-04-30T09:43:03.000Z</time>
      </trkpt>
      <trkpt lat="42.55126953125" lon="-7.645623207092285">
        <ele>549.0</ele>
        <time>2019-04-30T09:43:04.000Z</time>
      </trkpt>
      <trkpt lat="42.55148696899414" lon="-7.645695209503174">
        <ele>548.0</ele>
        <time>2019-04-30T09:43:19.000Z</time>
      </trkpt>
      <trkpt lat="42.55155944824219" lon="-7.645726680755615">
        <ele>546.0</ele>
        <time>2019-04-30T09:43:37.000Z</time>
      </trkpt>
      <trkpt lat="42.55159378051758" lon="-7.645741939544678">
        <ele>546.0</ele>
        <time>2019-04-30T09:43:38.000Z</time>
      </trkpt>
      <trkpt lat="42.55168533325195" lon="-7.645786285400391">
        <ele>546.0</ele>
        <time>2019-04-30T09:43:41.000Z</time>
      </trkpt>
      <trkpt lat="42.55174255371094" lon="-7.645816802978516">
        <ele>544.0</ele>
        <time>2019-04-30T09:43:56.000Z</time>
      </trkpt>
      <trkpt lat="42.55177688598633" lon="-7.6458330154418945">
        <ele>544.0</ele>
        <time>2019-04-30T09:43:57.000Z</time>
      </trkpt>
      <trkpt lat="42.551998138427734" lon="-7.6459059715271">
        <ele>544.0</ele>
        <time>2019-04-30T09:44:15.000Z</time>
      </trkpt>
      <trkpt lat="42.552024841308594" lon="-7.645930290222168">
        <ele>546.0</ele>
        <time>2019-04-30T09:44:49.000Z</time>
      </trkpt>
      <trkpt lat="42.55204391479492" lon="-7.645948886871338">
        <ele>546.0</ele>
        <time>2019-04-30T09:44:50.000Z</time>
      </trkpt>
      <trkpt lat="42.55222702026367" lon="-7.646202564239502">
        <ele>552.0</ele>
        <time>2019-04-30T09:45:02.000Z</time>
      </trkpt>
      <trkpt lat="42.55223846435547" lon="-7.646233081817627">
        <ele>553.0</ele>
        <time>2019-04-30T09:45:06.000Z</time>
      </trkpt>
      <trkpt lat="42.55223846435547" lon="-7.646249294281006">
        <ele>555.0</ele>
        <time>2019-04-30T09:45:10.000Z</time>
      </trkpt>
      <trkpt lat="42.55223083496094" lon="-7.646256923675537">
        <ele>557.0</ele>
        <time>2019-04-30T09:45:14.000Z</time>
      </trkpt>
      <trkpt lat="42.552215576171875" lon="-7.646259784698486">
        <ele>559.0</ele>
        <time>2019-04-30T09:45:19.000Z</time>
      </trkpt>
      <trkpt lat="42.552215576171875" lon="-7.646270751953125">
        <ele>559.0</ele>
        <time>2019-04-30T09:45:19.000Z</time>
      </trkpt>
      <trkpt lat="42.552215576171875" lon="-7.646280765533447">
        <ele>560.0</ele>
        <time>2019-04-30T09:45:19.000Z</time>
      </trkpt>
      <trkpt lat="42.55221176147461" lon="-7.646289348602295">
        <ele>559.0</ele>
        <time>2019-04-30T09:45:19.000Z</time>
      </trkpt>
      <trkpt lat="42.55221176147461" lon="-7.646297931671143">
        <ele>559.0</ele>
        <time>2019-04-30T09:45:20.000Z</time>
      </trkpt>
      <trkpt lat="42.55220413208008" lon="-7.646345615386963">
        <ele>559.0</ele>
        <time>2019-04-30T09:45:22.000Z</time>
      </trkpt>
      <trkpt lat="42.55219268798828" lon="-7.646409511566162">
        <ele>560.0</ele>
        <time>2019-04-30T09:45:24.000Z</time>
      </trkpt>
      <trkpt lat="42.552181243896484" lon="-7.646484375">
        <ele>561.0</ele>
        <time>2019-04-30T09:45:26.000Z</time>
      </trkpt>
      <trkpt lat="42.55216598510742" lon="-7.646564483642578">
        <ele>562.0</ele>
        <time>2019-04-30T09:45:29.000Z</time>
      </trkpt>
      <trkpt lat="42.55216598510742" lon="-7.646606922149658">
        <ele>562.0</ele>
        <time>2019-04-30T09:45:34.000Z</time>
      </trkpt>
      <trkpt lat="42.55216598510742" lon="-7.646638870239258">
        <ele>563.0</ele>
        <time>2019-04-30T09:45:39.000Z</time>
      </trkpt>
      <trkpt lat="42.55216979980469" lon="-7.646664142608643">
        <ele>564.0</ele>
        <time>2019-04-30T09:45:44.000Z</time>
      </trkpt>
      <trkpt lat="42.55217742919922" lon="-7.646686553955078">
        <ele>565.0</ele>
        <time>2019-04-30T09:45:50.000Z</time>
      </trkpt>
      <trkpt lat="42.55217742919922" lon="-7.646704196929932">
        <ele>565.0</ele>
        <time>2019-04-30T09:45:50.000Z</time>
      </trkpt>
      <trkpt lat="42.552181243896484" lon="-7.646716594696045">
        <ele>565.0</ele>
        <time>2019-04-30T09:45:50.000Z</time>
      </trkpt>
      <trkpt lat="42.552181243896484" lon="-7.646725654602051">
        <ele>565.0</ele>
        <time>2019-04-30T09:45:50.000Z</time>
      </trkpt>
      <trkpt lat="42.552181243896484" lon="-7.646733283996582">
        <ele>565.0</ele>
        <time>2019-04-30T09:45:51.000Z</time>
      </trkpt>
      <trkpt lat="42.55218505859375" lon="-7.646815776824951">
        <ele>565.0</ele>
        <time>2019-04-30T09:45:58.000Z</time>
      </trkpt>
      <trkpt lat="42.552188873291016" lon="-7.646927356719971">
        <ele>566.0</ele>
        <time>2019-04-30T09:46:05.000Z</time>
      </trkpt>
      <trkpt lat="42.55219650268555" lon="-7.647059440612793">
        <ele>568.0</ele>
        <time>2019-04-30T09:46:12.000Z</time>
      </trkpt>
      <trkpt lat="42.55220031738281" lon="-7.647201061248779">
        <ele>569.0</ele>
        <time>2019-04-30T09:46:19.000Z</time>
      </trkpt>
      <trkpt lat="42.55229187011719" lon="-7.6476640701293945">
        <ele>573.0</ele>
        <time>2019-04-30T09:46:53.000Z</time>
      </trkpt>
      <trkpt lat="42.55244827270508" lon="-7.648100852966309">
        <ele>567.0</ele>
        <time>2019-04-30T09:47:26.000Z</time>
      </trkpt>
      <trkpt lat="42.55258560180664" lon="-7.648528099060059">
        <ele>566.0</ele>
        <time>2019-04-30T09:47:57.000Z</time>
      </trkpt>
      <trkpt lat="42.55274200439453" lon="-7.6489577293396">
        <ele>565.0</ele>
        <time>2019-04-30T09:48:29.000Z</time>
      </trkpt>
      <trkpt lat="42.55281066894531" lon="-7.64914083480835">
        <ele>566.0</ele>
        <time>2019-04-30T09:48:53.000Z</time>
      </trkpt>
      <trkpt lat="42.5528564453125" lon="-7.649225234985352">
        <ele>570.0</ele>
        <time>2019-04-30T09:49:30.000Z</time>
      </trkpt>
      <trkpt lat="42.552879333496094" lon="-7.649265766143799">
        <ele>570.0</ele>
        <time>2019-04-30T09:49:31.000Z</time>
      </trkpt>
      <trkpt lat="42.55304718017578" lon="-7.649677276611328">
        <ele>576.0</ele>
        <time>2019-04-30T09:49:54.000Z</time>
      </trkpt>
      <trkpt lat="42.553226470947266" lon="-7.650078296661377">
        <ele>580.0</ele>
        <time>2019-04-30T09:50:20.000Z</time>
      </trkpt>
      <trkpt lat="42.553375244140625" lon="-7.650514125823975">
        <ele>577.0</ele>
        <time>2019-04-30T09:50:54.000Z</time>
      </trkpt>
      <trkpt lat="42.55351257324219" lon="-7.6509528160095215">
        <ele>570.0</ele>
        <time>2019-04-30T09:51:28.000Z</time>
      </trkpt>
      <trkpt lat="42.55366897583008" lon="-7.651386260986328">
        <ele>569.0</ele>
        <time>2019-04-30T09:51:56.000Z</time>
      </trkpt>
      <trkpt lat="42.5538444519043" lon="-7.6518025398254395">
        <ele>570.0</ele>
        <time>2019-04-30T09:52:25.000Z</time>
      </trkpt>
      <trkpt lat="42.55400085449219" lon="-7.6522393226623535">
        <ele>572.0</ele>
        <time>2019-04-30T09:52:56.000Z</time>
      </trkpt>
      <trkpt lat="42.554195404052734" lon="-7.652645111083984">
        <ele>573.0</ele>
        <time>2019-04-30T09:53:26.000Z</time>
      </trkpt>
      <trkpt lat="42.554439544677734" lon="-7.652987957000732">
        <ele>572.0</ele>
        <time>2019-04-30T09:53:56.000Z</time>
      </trkpt>
      <trkpt lat="42.55471420288086" lon="-7.653300762176514">
        <ele>572.0</ele>
        <time>2019-04-30T09:54:30.000Z</time>
      </trkpt>
      <trkpt lat="42.554962158203125" lon="-7.653642654418945">
        <ele>570.0</ele>
        <time>2019-04-30T09:54:57.000Z</time>
      </trkpt>
      <trkpt lat="42.555179595947266" lon="-7.654024600982666">
        <ele>571.0</ele>
        <time>2019-04-30T09:55:27.000Z</time>
      </trkpt>
      <trkpt lat="42.55536651611328" lon="-7.654442310333252">
        <ele>578.0</ele>
        <time>2019-04-30T09:55:54.000Z</time>
      </trkpt>
      <trkpt lat="42.555564880371094" lon="-7.654854774475098">
        <ele>577.0</ele>
        <time>2019-04-30T09:56:24.000Z</time>
      </trkpt>
      <trkpt lat="42.555747985839844" lon="-7.655269145965576">
        <ele>578.0</ele>
        <time>2019-04-30T09:56:53.000Z</time>
      </trkpt>
      <trkpt lat="42.556026458740234" lon="-7.655580997467041">
        <ele>579.0</ele>
        <time>2019-04-30T09:57:21.000Z</time>
      </trkpt>
      <trkpt lat="42.556236267089844" lon="-7.655974864959717">
        <ele>581.0</ele>
        <time>2019-04-30T09:57:52.000Z</time>
      </trkpt>
      <trkpt lat="42.55646514892578" lon="-7.656322479248047">
        <ele>584.0</ele>
        <time>2019-04-30T09:58:20.000Z</time>
      </trkpt>
      <trkpt lat="42.55667495727539" lon="-7.656721115112305">
        <ele>582.0</ele>
        <time>2019-04-30T09:58:50.000Z</time>
      </trkpt>
      <trkpt lat="42.55691909790039" lon="-7.657073974609375">
        <ele>580.0</ele>
        <time>2019-04-30T09:59:21.000Z</time>
      </trkpt>
      <trkpt lat="42.557159423828125" lon="-7.6574320793151855">
        <ele>582.0</ele>
        <time>2019-04-30T09:59:50.000Z</time>
      </trkpt>
      <trkpt lat="42.55741500854492" lon="-7.657762050628662">
        <ele>581.0</ele>
        <time>2019-04-30T10:00:19.000Z</time>
      </trkpt>
      <trkpt lat="42.557716369628906" lon="-7.65802001953125">
        <ele>585.0</ele>
        <time>2019-04-30T10:00:47.000Z</time>
      </trkpt>
      <trkpt lat="42.55802536010742" lon="-7.6582536697387695">
        <ele>587.0</ele>
        <time>2019-04-30T10:01:21.000Z</time>
      </trkpt>
      <trkpt lat="42.558326721191406" lon="-7.6585164070129395">
        <ele>587.0</ele>
        <time>2019-04-30T10:01:59.000Z</time>
      </trkpt>
      <trkpt lat="42.558650970458984" lon="-7.658730983734131">
        <ele>592.0</ele>
        <time>2019-04-30T10:02:31.000Z</time>
      </trkpt>
      <trkpt lat="42.5589485168457" lon="-7.658999919891357">
        <ele>587.0</ele>
        <time>2019-04-30T10:03:05.000Z</time>
      </trkpt>
      <trkpt lat="42.55926513671875" lon="-7.659224510192871">
        <ele>586.0</ele>
        <time>2019-04-30T10:03:38.000Z</time>
      </trkpt>
      <trkpt lat="42.55953598022461" lon="-7.659556865692139">
        <ele>588.0</ele>
        <time>2019-04-30T10:04:12.000Z</time>
      </trkpt>
      <trkpt lat="42.55976104736328" lon="-7.659924507141113">
        <ele>592.0</ele>
        <time>2019-04-30T10:04:41.000Z</time>
      </trkpt>
      <trkpt lat="42.56001281738281" lon="-7.660277366638184">
        <ele>601.0</ele>
        <time>2019-04-30T10:05:14.000Z</time>
      </trkpt>
      <trkpt lat="42.56023025512695" lon="-7.660655498504639">
        <ele>606.0</ele>
        <time>2019-04-30T10:05:45.000Z</time>
      </trkpt>
      <trkpt lat="42.560359954833984" lon="-7.660813331604004">
        <ele>609.0</ele>
        <time>2019-04-30T10:06:11.000Z</time>
      </trkpt>
      <trkpt lat="42.56039810180664" lon="-7.660869598388672">
        <ele>604.0</ele>
        <time>2019-04-30T10:07:41.000Z</time>
      </trkpt>
      <trkpt lat="42.5604248046875" lon="-7.660902500152588">
        <ele>604.0</ele>
        <time>2019-04-30T10:07:42.000Z</time>
      </trkpt>
      <trkpt lat="42.56062698364258" lon="-7.661285877227783">
        <ele>603.0</ele>
        <time>2019-04-30T10:08:03.000Z</time>
      </trkpt>
      <trkpt lat="42.56085205078125" lon="-7.661645412445068">
        <ele>603.0</ele>
        <time>2019-04-30T10:08:30.000Z</time>
      </trkpt>
      <trkpt lat="42.5610237121582" lon="-7.661988735198975">
        <ele>607.0</ele>
        <time>2019-04-30T10:09:01.000Z</time>
      </trkpt>
      <trkpt lat="42.5610466003418" lon="-7.662040710449219">
        <ele>610.0</ele>
        <time>2019-04-30T10:09:15.000Z</time>
      </trkpt>
      <trkpt lat="42.561058044433594" lon="-7.662075042724609">
        <ele>610.0</ele>
        <time>2019-04-30T10:09:16.000Z</time>
      </trkpt>
      <trkpt lat="42.56126403808594" lon="-7.662479400634766">
        <ele>610.0</ele>
        <time>2019-04-30T10:09:36.000Z</time>
      </trkpt>
      <trkpt lat="42.561424255371094" lon="-7.662914752960205">
        <ele>612.0</ele>
        <time>2019-04-30T10:10:07.000Z</time>
      </trkpt>
      <trkpt lat="42.56158447265625" lon="-7.663356781005859">
        <ele>616.0</ele>
        <time>2019-04-30T10:10:39.000Z</time>
      </trkpt>
      <trkpt lat="42.561676025390625" lon="-7.663562297821045">
        <ele>617.0</ele>
        <time>2019-04-30T10:10:55.000Z</time>
      </trkpt>
      <trkpt lat="42.561710357666016" lon="-7.663604736328125">
        <ele>617.0</ele>
        <time>2019-04-30T10:11:17.000Z</time>
      </trkpt>
      <trkpt lat="42.56173324584961" lon="-7.663632392883301">
        <ele>617.0</ele>
        <time>2019-04-30T10:11:18.000Z</time>
      </trkpt>
      <trkpt lat="42.561737060546875" lon="-7.66364049911499">
        <ele>617.0</ele>
        <time>2019-04-30T10:11:19.000Z</time>
      </trkpt>
      <trkpt lat="42.56177520751953" lon="-7.6636834144592285">
        <ele>617.0</ele>
        <time>2019-04-30T10:11:24.000Z</time>
      </trkpt>
      <trkpt lat="42.561798095703125" lon="-7.663711071014404">
        <ele>617.0</ele>
        <time>2019-04-30T10:11:25.000Z</time>
      </trkpt>
      <trkpt lat="42.562042236328125" lon="-7.664051532745361">
        <ele>614.0</ele>
        <time>2019-04-30T10:11:41.000Z</time>
      </trkpt>
      <trkpt lat="42.56224060058594" lon="-7.664368629455566">
        <ele>615.0</ele>
        <time>2019-04-30T10:12:10.000Z</time>
      </trkpt>
      <trkpt lat="42.56226348876953" lon="-7.6644110679626465">
        <ele>611.0</ele>
        <time>2019-04-30T10:12:28.000Z</time>
      </trkpt>
      <trkpt lat="42.562278747558594" lon="-7.664441108703613">
        <ele>611.0</ele>
        <time>2019-04-30T10:12:29.000Z</time>
      </trkpt>
      <trkpt lat="42.56234359741211" lon="-7.664669990539551">
        <ele>608.0</ele>
        <time>2019-04-30T10:12:34.000Z</time>
      </trkpt>
      <trkpt lat="42.56241226196289" lon="-7.664757251739502">
        <ele>608.0</ele>
        <time>2019-04-30T10:12:42.000Z</time>
      </trkpt>
      <trkpt lat="42.562496185302734" lon="-7.66483211517334">
        <ele>609.0</ele>
        <time>2019-04-30T10:12:50.000Z</time>
      </trkpt>
      <trkpt lat="42.56253433227539" lon="-7.664887428283691">
        <ele>609.0</ele>
        <time>2019-04-30T10:12:55.000Z</time>
      </trkpt>
      <trkpt lat="42.56256866455078" lon="-7.664949417114258">
        <ele>609.0</ele>
        <time>2019-04-30T10:13:01.000Z</time>
      </trkpt>
      <trkpt lat="42.56260681152344" lon="-7.665014743804932">
        <ele>609.0</ele>
        <time>2019-04-30T10:13:06.000Z</time>
      </trkpt>
      <trkpt lat="42.562644958496094" lon="-7.665082931518555">
        <ele>609.0</ele>
        <time>2019-04-30T10:13:11.000Z</time>
      </trkpt>
      <trkpt lat="42.562679290771484" lon="-7.665110111236572">
        <ele>609.0</ele>
        <time>2019-04-30T10:13:14.000Z</time>
      </trkpt>
      <trkpt lat="42.562713623046875" lon="-7.665122985839844">
        <ele>608.0</ele>
        <time>2019-04-30T10:13:17.000Z</time>
      </trkpt>
      <trkpt lat="42.562747955322266" lon="-7.665125846862793">
        <ele>608.0</ele>
        <time>2019-04-30T10:13:19.000Z</time>
      </trkpt>
      <trkpt lat="42.56277847290039" lon="-7.66512393951416">
        <ele>607.0</ele>
        <time>2019-04-30T10:13:22.000Z</time>
      </trkpt>
      <trkpt lat="42.56284713745117" lon="-7.665150165557861">
        <ele>606.0</ele>
        <time>2019-04-30T10:13:31.000Z</time>
      </trkpt>
      <trkpt lat="42.56292724609375" lon="-7.665183067321777">
        <ele>605.0</ele>
        <time>2019-04-30T10:13:40.000Z</time>
      </trkpt>
      <trkpt lat="42.563018798828125" lon="-7.665220260620117">
        <ele>604.0</ele>
        <time>2019-04-30T10:13:49.000Z</time>
      </trkpt>
      <trkpt lat="42.56311798095703" lon="-7.665259838104248">
        <ele>603.0</ele>
        <time>2019-04-30T10:13:58.000Z</time>
      </trkpt>
      <trkpt lat="42.563201904296875" lon="-7.665289878845215">
        <ele>602.0</ele>
        <time>2019-04-30T10:14:07.000Z</time>
      </trkpt>
      <trkpt lat="42.563289642333984" lon="-7.665318012237549">
        <ele>601.0</ele>
        <time>2019-04-30T10:14:15.000Z</time>
      </trkpt>
      <trkpt lat="42.56337356567383" lon="-7.665345191955566">
        <ele>600.0</ele>
        <time>2019-04-30T10:14:24.000Z</time>
      </trkpt>
      <trkpt lat="42.56346130371094" lon="-7.665371417999268">
        <ele>598.0</ele>
        <time>2019-04-30T10:14:32.000Z</time>
      </trkpt>
      <trkpt lat="42.56354522705078" lon="-7.66538667678833">
        <ele>598.0</ele>
        <time>2019-04-30T10:14:39.000Z</time>
      </trkpt>
      <trkpt lat="42.563629150390625" lon="-7.665396213531494">
        <ele>597.0</ele>
        <time>2019-04-30T10:14:45.000Z</time>
      </trkpt>
      <trkpt lat="42.56371307373047" lon="-7.665402412414551">
        <ele>597.0</ele>
        <time>2019-04-30T10:14:52.000Z</time>
      </trkpt>
      <trkpt lat="42.56379318237305" lon="-7.665406703948975">
        <ele>597.0</ele>
        <time>2019-04-30T10:14:58.000Z</time>
      </trkpt>
      <trkpt lat="42.56385040283203" lon="-7.6654205322265625">
        <ele>597.0</ele>
        <time>2019-04-30T10:15:02.000Z</time>
      </trkpt>
      <trkpt lat="42.563899993896484" lon="-7.665436744689941">
        <ele>596.0</ele>
        <time>2019-04-30T10:15:06.000Z</time>
      </trkpt>
      <trkpt lat="42.56393814086914" lon="-7.665453910827637">
        <ele>596.0</ele>
        <time>2019-04-30T10:15:10.000Z</time>
      </trkpt>
      <trkpt lat="42.56397247314453" lon="-7.66547155380249">
        <ele>596.0</ele>
        <time>2019-04-30T10:15:14.000Z</time>
      </trkpt>
      <trkpt lat="42.56401824951172" lon="-7.665493011474609">
        <ele>595.0</ele>
        <time>2019-04-30T10:15:18.000Z</time>
      </trkpt>
      <trkpt lat="42.564064025878906" lon="-7.665515899658203">
        <ele>594.0</ele>
        <time>2019-04-30T10:15:22.000Z</time>
      </trkpt>
      <trkpt lat="42.56410598754883" lon="-7.6655402183532715">
        <ele>593.0</ele>
        <time>2019-04-30T10:15:25.000Z</time>
      </trkpt>
      <trkpt lat="42.564151763916016" lon="-7.665565013885498">
        <ele>592.0</ele>
        <time>2019-04-30T10:15:29.000Z</time>
      </trkpt>
      <trkpt lat="42.5643196105957" lon="-7.665680885314941">
        <ele>591.0</ele>
        <time>2019-04-30T10:15:45.000Z</time>
      </trkpt>
      <trkpt lat="42.56460189819336" lon="-7.665987491607666">
        <ele>586.0</ele>
        <time>2019-04-30T10:16:20.000Z</time>
      </trkpt>
      <trkpt lat="42.564693450927734" lon="-7.666024684906006">
        <ele>586.0</ele>
        <time>2019-04-30T10:16:29.000Z</time>
      </trkpt>
      <trkpt lat="42.564762115478516" lon="-7.666008472442627">
        <ele>587.0</ele>
        <time>2019-04-30T10:16:37.000Z</time>
      </trkpt>
      <trkpt lat="42.56478500366211" lon="-7.666012763977051">
        <ele>588.0</ele>
        <time>2019-04-30T10:16:57.000Z</time>
      </trkpt>
      <trkpt lat="42.564796447753906" lon="-7.666016578674316">
        <ele>589.0</ele>
        <time>2019-04-30T10:17:17.000Z</time>
      </trkpt>
      <trkpt lat="42.5648078918457" lon="-7.666019916534424">
        <ele>589.0</ele>
        <time>2019-04-30T10:17:37.000Z</time>
      </trkpt>
      <trkpt lat="42.56481170654297" lon="-7.6660237312316895">
        <ele>590.0</ele>
        <time>2019-04-30T10:17:57.000Z</time>
      </trkpt>
      <trkpt lat="42.564823150634766" lon="-7.6660261154174805">
        <ele>590.0</ele>
        <time>2019-04-30T10:17:57.000Z</time>
      </trkpt>
      <trkpt lat="42.5648307800293" lon="-7.66602897644043">
        <ele>590.0</ele>
        <time>2019-04-30T10:17:58.000Z</time>
      </trkpt>
      <trkpt lat="42.56483840942383" lon="-7.6660308837890625">
        <ele>590.0</ele>
        <time>2019-04-30T10:17:58.000Z</time>
      </trkpt>
      <trkpt lat="42.56484603881836" lon="-7.666032791137695">
        <ele>590.0</ele>
        <time>2019-04-30T10:17:58.000Z</time>
      </trkpt>
      <trkpt lat="42.56486511230469" lon="-7.666038513183594">
        <ele>590.0</ele>
        <time>2019-04-30T10:17:59.000Z</time>
      </trkpt>
      <trkpt lat="42.56488800048828" lon="-7.666045665740967">
        <ele>590.0</ele>
        <time>2019-04-30T10:18:00.000Z</time>
      </trkpt>
      <trkpt lat="42.564918518066406" lon="-7.666053771972656">
        <ele>590.0</ele>
        <time>2019-04-30T10:18:00.000Z</time>
      </trkpt>
      <trkpt lat="42.56494903564453" lon="-7.666062355041504">
        <ele>590.0</ele>
        <time>2019-04-30T10:18:01.000Z</time>
      </trkpt>
      <trkpt lat="42.564964294433594" lon="-7.666067123413086">
        <ele>590.0</ele>
        <time>2019-04-30T10:18:20.000Z</time>
      </trkpt>
      <trkpt lat="42.564979553222656" lon="-7.666071891784668">
        <ele>591.0</ele>
        <time>2019-04-30T10:18:39.000Z</time>
      </trkpt>
      <trkpt lat="42.56498718261719" lon="-7.666075706481934">
        <ele>591.0</ele>
        <time>2019-04-30T10:18:58.000Z</time>
      </trkpt>
      <trkpt lat="42.564998626708984" lon="-7.666079044342041">
        <ele>592.0</ele>
        <time>2019-04-30T10:19:17.000Z</time>
      </trkpt>
      <trkpt lat="42.565006256103516" lon="-7.666082382202148">
        <ele>592.0</ele>
        <time>2019-04-30T10:19:17.000Z</time>
      </trkpt>
      <trkpt lat="42.56501388549805" lon="-7.6660847663879395">
        <ele>592.0</ele>
        <time>2019-04-30T10:19:18.000Z</time>
      </trkpt>
      <trkpt lat="42.56502151489258" lon="-7.6660871505737305">
        <ele>592.0</ele>
        <time>2019-04-30T10:19:18.000Z</time>
      </trkpt>
      <trkpt lat="42.56502914428711" lon="-7.6660895347595215">
        <ele>592.0</ele>
        <time>2019-04-30T10:19:18.000Z</time>
      </trkpt>
      <trkpt lat="42.56538772583008" lon="-7.666150093078613">
        <ele>592.0</ele>
        <time>2019-04-30T10:19:35.000Z</time>
      </trkpt>
      <trkpt lat="42.565738677978516" lon="-7.666224002838135">
        <ele>594.0</ele>
        <time>2019-04-30T10:20:04.000Z</time>
      </trkpt>
      <trkpt lat="42.56607437133789" lon="-7.6663970947265625">
        <ele>594.0</ele>
        <time>2019-04-30T10:20:33.000Z</time>
      </trkpt>
      <trkpt lat="42.56632995605469" lon="-7.666721820831299">
        <ele>591.0</ele>
        <time>2019-04-30T10:21:03.000Z</time>
      </trkpt>
      <trkpt lat="42.56657028198242" lon="-7.667052268981934">
        <ele>589.0</ele>
        <time>2019-04-30T10:21:32.000Z</time>
      </trkpt>
      <trkpt lat="42.56687545776367" lon="-7.66730260848999">
        <ele>592.0</ele>
        <time>2019-04-30T10:22:04.000Z</time>
      </trkpt>
      <trkpt lat="42.56718826293945" lon="-7.66752815246582">
        <ele>595.0</ele>
        <time>2019-04-30T10:22:32.000Z</time>
      </trkpt>
      <trkpt lat="42.567527770996094" lon="-7.667659759521484">
        <ele>589.0</ele>
        <time>2019-04-30T10:23:03.000Z</time>
      </trkpt>
      <trkpt lat="42.5676383972168" lon="-7.667759895324707">
        <ele>588.0</ele>
        <time>2019-04-30T10:23:15.000Z</time>
      </trkpt>
      <trkpt lat="42.56768798828125" lon="-7.667759895324707">
        <ele>588.0</ele>
        <time>2019-04-30T10:23:20.000Z</time>
      </trkpt>
      <trkpt lat="42.567745208740234" lon="-7.667749404907227">
        <ele>589.0</ele>
        <time>2019-04-30T10:23:24.000Z</time>
      </trkpt>
      <trkpt lat="42.56781005859375" lon="-7.667732238769531">
        <ele>589.0</ele>
        <time>2019-04-30T10:23:29.000Z</time>
      </trkpt>
      <trkpt lat="42.56787872314453" lon="-7.6677117347717285">
        <ele>589.0</ele>
        <time>2019-04-30T10:23:33.000Z</time>
      </trkpt>
      <trkpt lat="42.567928314208984" lon="-7.667707920074463">
        <ele>589.0</ele>
        <time>2019-04-30T10:23:36.000Z</time>
      </trkpt>
      <trkpt lat="42.567970275878906" lon="-7.667707920074463">
        <ele>590.0</ele>
        <time>2019-04-30T10:23:39.000Z</time>
      </trkpt>
      <trkpt lat="42.56800842285156" lon="-7.667709827423096">
        <ele>590.0</ele>
        <time>2019-04-30T10:23:42.000Z</time>
      </trkpt>
      <trkpt lat="42.56804656982422" lon="-7.667713165283203">
        <ele>590.0</ele>
        <time>2019-04-30T10:23:45.000Z</time>
      </trkpt>
      <trkpt lat="42.56813430786133" lon="-7.667653560638428">
        <ele>590.0</ele>
        <time>2019-04-30T10:23:54.000Z</time>
      </trkpt>
      <trkpt lat="42.56821823120117" lon="-7.667565822601318">
        <ele>591.0</ele>
        <time>2019-04-30T10:24:03.000Z</time>
      </trkpt>
      <trkpt lat="42.568294525146484" lon="-7.667533874511719">
        <ele>591.0</ele>
        <time>2019-04-30T10:24:11.000Z</time>
      </trkpt>
      <trkpt lat="42.56837844848633" lon="-7.66750431060791">
        <ele>592.0</ele>
        <time>2019-04-30T10:24:19.000Z</time>
      </trkpt>
      <trkpt lat="42.56847381591797" lon="-7.667476177215576">
        <ele>592.0</ele>
        <time>2019-04-30T10:24:27.000Z</time>
      </trkpt>
      <trkpt lat="42.568572998046875" lon="-7.6674485206604">
        <ele>592.0</ele>
        <time>2019-04-30T10:24:35.000Z</time>
      </trkpt>
      <trkpt lat="42.568626403808594" lon="-7.667430400848389">
        <ele>592.0</ele>
        <time>2019-04-30T10:24:39.000Z</time>
      </trkpt>
      <trkpt lat="42.568668365478516" lon="-7.667416572570801">
        <ele>591.0</ele>
        <time>2019-04-30T10:24:43.000Z</time>
      </trkpt>
      <trkpt lat="42.56869888305664" lon="-7.667405605316162">
        <ele>591.0</ele>
        <time>2019-04-30T10:24:46.000Z</time>
      </trkpt>
      <trkpt lat="42.568721771240234" lon="-7.667396545410156">
        <ele>590.0</ele>
        <time>2019-04-30T10:24:50.000Z</time>
      </trkpt>
      <trkpt lat="42.56874465942383" lon="-7.66738748550415">
        <ele>590.0</ele>
        <time>2019-04-30T10:24:54.000Z</time>
      </trkpt>
      <trkpt lat="42.56875991821289" lon="-7.667379856109619">
        <ele>590.0</ele>
        <time>2019-04-30T10:24:57.000Z</time>
      </trkpt>
      <trkpt lat="42.56876754760742" lon="-7.667373180389404">
        <ele>590.0</ele>
        <time>2019-04-30T10:25:01.000Z</time>
      </trkpt>
      <trkpt lat="42.56877517700195" lon="-7.667367458343506">
        <ele>589.0</ele>
        <time>2019-04-30T10:25:04.000Z</time>
      </trkpt>
      <trkpt lat="42.568782806396484" lon="-7.667362213134766">
        <ele>589.0</ele>
        <time>2019-04-30T10:25:04.000Z</time>
      </trkpt>
      <trkpt lat="42.568790435791016" lon="-7.667357921600342">
        <ele>589.0</ele>
        <time>2019-04-30T10:25:05.000Z</time>
      </trkpt>
      <trkpt lat="42.56879806518555" lon="-7.667354106903076">
        <ele>589.0</ele>
        <time>2019-04-30T10:25:05.000Z</time>
      </trkpt>
      <trkpt lat="42.56880569458008" lon="-7.667350769042969">
        <ele>589.0</ele>
        <time>2019-04-30T10:25:05.000Z</time>
      </trkpt>
      <trkpt lat="42.568851470947266" lon="-7.667322158813477">
        <ele>589.0</ele>
        <time>2019-04-30T10:25:09.000Z</time>
      </trkpt>
      <trkpt lat="42.568912506103516" lon="-7.66728401184082">
        <ele>590.0</ele>
        <time>2019-04-30T10:25:12.000Z</time>
      </trkpt>
      <trkpt lat="42.56898498535156" lon="-7.667238712310791">
        <ele>590.0</ele>
        <time>2019-04-30T10:25:16.000Z</time>
      </trkpt>
      <trkpt lat="42.569061279296875" lon="-7.6671905517578125">
        <ele>590.0</ele>
        <time>2019-04-30T10:25:19.000Z</time>
      </trkpt>
      <trkpt lat="42.56907272338867" lon="-7.667171001434326">
        <ele>588.0</ele>
        <time>2019-04-30T10:25:35.000Z</time>
      </trkpt>
      <trkpt lat="42.56908416748047" lon="-7.6671552658081055">
        <ele>588.0</ele>
        <time>2019-04-30T10:25:36.000Z</time>
      </trkpt>
      <trkpt lat="42.5693244934082" lon="-7.66680908203125">
        <ele>584.0</ele>
        <time>2019-04-30T10:25:51.000Z</time>
      </trkpt>
      <trkpt lat="42.569515228271484" lon="-7.666655540466309">
        <ele>583.0</ele>
        <time>2019-04-30T10:26:10.000Z</time>
      </trkpt>
      <trkpt lat="42.5695915222168" lon="-7.6666412353515625">
        <ele>582.0</ele>
        <time>2019-04-30T10:26:15.000Z</time>
      </trkpt>
      <trkpt lat="42.56966018676758" lon="-7.666655540466309">
        <ele>581.0</ele>
        <time>2019-04-30T10:26:20.000Z</time>
      </trkpt>
      <trkpt lat="42.56972885131836" lon="-7.666681289672852">
        <ele>581.0</ele>
        <time>2019-04-30T10:26:27.000Z</time>
      </trkpt>
      <trkpt lat="42.5698127746582" lon="-7.666718482971191">
        <ele>582.0</ele>
        <time>2019-04-30T10:26:33.000Z</time>
      </trkpt>
      <trkpt lat="42.569908142089844" lon="-7.666762828826904">
        <ele>583.0</ele>
        <time>2019-04-30T10:26:40.000Z</time>
      </trkpt>
      <trkpt lat="42.570003509521484" lon="-7.666810512542725">
        <ele>584.0</ele>
        <time>2019-04-30T10:26:46.000Z</time>
      </trkpt>
      <trkpt lat="42.57008743286133" lon="-7.666852951049805">
        <ele>584.0</ele>
        <time>2019-04-30T10:26:56.000Z</time>
      </trkpt>
      <trkpt lat="42.57017135620117" lon="-7.666896343231201">
        <ele>584.0</ele>
        <time>2019-04-30T10:27:05.000Z</time>
      </trkpt>
      <trkpt lat="42.57025146484375" lon="-7.666941165924072">
        <ele>584.0</ele>
        <time>2019-04-30T10:27:15.000Z</time>
      </trkpt>
      <trkpt lat="42.57033157348633" lon="-7.666986465454102">
        <ele>584.0</ele>
        <time>2019-04-30T10:27:24.000Z</time>
      </trkpt>
      <trkpt lat="42.57036590576172" lon="-7.66701078414917">
        <ele>584.0</ele>
        <time>2019-04-30T10:27:26.000Z</time>
      </trkpt>
      <trkpt lat="42.57038116455078" lon="-7.667026519775391">
        <ele>584.0</ele>
        <time>2019-04-30T10:27:27.000Z</time>
      </trkpt>
      <trkpt lat="42.57038497924805" lon="-7.667037010192871">
        <ele>584.0</ele>
        <time>2019-04-30T10:27:28.000Z</time>
      </trkpt>
      <trkpt lat="42.57038116455078" lon="-7.667044162750244">
        <ele>584.0</ele>
        <time>2019-04-30T10:27:29.000Z</time>
      </trkpt>
      <trkpt lat="42.57039260864258" lon="-7.667055130004883">
        <ele>585.0</ele>
        <time>2019-04-30T10:27:33.000Z</time>
      </trkpt>
      <trkpt lat="42.57040023803711" lon="-7.667065143585205">
        <ele>586.0</ele>
        <time>2019-04-30T10:27:37.000Z</time>
      </trkpt>
      <trkpt lat="42.570411682128906" lon="-7.667073726654053">
        <ele>586.0</ele>
        <time>2019-04-30T10:27:41.000Z</time>
      </trkpt>
      <trkpt lat="42.5704231262207" lon="-7.667081832885742">
        <ele>587.0</ele>
        <time>2019-04-30T10:27:44.000Z</time>
      </trkpt>
      <trkpt lat="42.570430755615234" lon="-7.667088985443115">
        <ele>588.0</ele>
        <time>2019-04-30T10:27:45.000Z</time>
      </trkpt>
      <trkpt lat="42.5704345703125" lon="-7.667094707489014">
        <ele>588.0</ele>
        <time>2019-04-30T10:27:45.000Z</time>
      </trkpt>
      <trkpt lat="42.57044219970703" lon="-7.667099952697754">
        <ele>587.0</ele>
        <time>2019-04-30T10:27:45.000Z</time>
      </trkpt>
      <trkpt lat="42.5704460144043" lon="-7.667105197906494">
        <ele>587.0</ele>
        <time>2019-04-30T10:27:45.000Z</time>
      </trkpt>
      <trkpt lat="42.57057189941406" lon="-7.66725492477417">
        <ele>591.0</ele>
        <time>2019-04-30T10:27:53.000Z</time>
      </trkpt>
      <trkpt lat="42.57062530517578" lon="-7.667299270629883">
        <ele>596.0</ele>
        <time>2019-04-30T10:28:09.000Z</time>
      </trkpt>
      <trkpt lat="42.570655822753906" lon="-7.667324066162109">
        <ele>596.0</ele>
        <time>2019-04-30T10:28:10.000Z</time>
      </trkpt>
      <trkpt lat="42.57077407836914" lon="-7.667415618896484">
        <ele>597.0</ele>
        <time>2019-04-30T10:28:15.000Z</time>
      </trkpt>
      <trkpt lat="42.57081985473633" lon="-7.6674485206604">
        <ele>599.0</ele>
        <time>2019-04-30T10:28:29.000Z</time>
      </trkpt>
      <trkpt lat="42.57084655761719" lon="-7.667466640472412">
        <ele>599.0</ele>
        <time>2019-04-30T10:28:30.000Z</time>
      </trkpt>
      <trkpt lat="42.57094955444336" lon="-7.667562484741211">
        <ele>600.0</ele>
        <time>2019-04-30T10:28:36.000Z</time>
      </trkpt>
      <trkpt lat="42.57096481323242" lon="-7.667574882507324">
        <ele>604.0</ele>
        <time>2019-04-30T10:28:55.000Z</time>
      </trkpt>
      <trkpt lat="42.57097625732422" lon="-7.667585372924805">
        <ele>604.0</ele>
        <time>2019-04-30T10:28:56.000Z</time>
      </trkpt>
      <trkpt lat="42.57114028930664" lon="-7.667703151702881">
        <ele>605.0</ele>
        <time>2019-04-30T10:29:02.000Z</time>
      </trkpt>
      <trkpt lat="42.57121658325195" lon="-7.667770862579346">
        <ele>606.0</ele>
        <time>2019-04-30T10:29:14.000Z</time>
      </trkpt>
      <trkpt lat="42.57124710083008" lon="-7.6677961349487305">
        <ele>606.0</ele>
        <time>2019-04-30T10:29:15.000Z</time>
      </trkpt>
      <trkpt lat="42.571556091308594" lon="-7.667977333068848">
        <ele>606.0</ele>
        <time>2019-04-30T10:29:39.000Z</time>
      </trkpt>
      <trkpt lat="42.57158660888672" lon="-7.667981147766113">
        <ele>602.0</ele>
        <time>2019-04-30T10:29:56.000Z</time>
      </trkpt>
      <trkpt lat="42.57160949707031" lon="-7.6679840087890625">
        <ele>602.0</ele>
        <time>2019-04-30T10:29:57.000Z</time>
      </trkpt>
      <trkpt lat="42.57169723510742" lon="-7.667995929718018">
        <ele>602.0</ele>
        <time>2019-04-30T10:30:00.000Z</time>
      </trkpt>
      <trkpt lat="42.571754455566406" lon="-7.667994976043701">
        <ele>603.0</ele>
        <time>2019-04-30T10:30:10.000Z</time>
      </trkpt>
      <trkpt lat="42.5717887878418" lon="-7.667994976043701">
        <ele>603.0</ele>
        <time>2019-04-30T10:30:11.000Z</time>
      </trkpt>
      <trkpt lat="42.57196044921875" lon="-7.668017864227295">
        <ele>603.0</ele>
        <time>2019-04-30T10:30:18.000Z</time>
      </trkpt>
      <trkpt lat="42.57199478149414" lon="-7.668045997619629">
        <ele>607.0</ele>
        <time>2019-04-30T10:30:33.000Z</time>
      </trkpt>
      <trkpt lat="42.572017669677734" lon="-7.668065071105957">
        <ele>607.0</ele>
        <time>2019-04-30T10:30:34.000Z</time>
      </trkpt>
      <trkpt lat="42.57234573364258" lon="-7.668247699737549">
        <ele>605.0</ele>
        <time>2019-04-30T10:30:51.000Z</time>
      </trkpt>
      <trkpt lat="42.57268524169922" lon="-7.66838264465332">
        <ele>606.0</ele>
        <time>2019-04-30T10:31:20.000Z</time>
      </trkpt>
      <trkpt lat="42.573036193847656" lon="-7.668478012084961">
        <ele>605.0</ele>
        <time>2019-04-30T10:31:48.000Z</time>
      </trkpt>
      <trkpt lat="42.573360443115234" lon="-7.668671131134033">
        <ele>607.0</ele>
        <time>2019-04-30T10:32:17.000Z</time>
      </trkpt>
      <trkpt lat="42.57361602783203" lon="-7.669020652770996">
        <ele>609.0</ele>
        <time>2019-04-30T10:32:48.000Z</time>
      </trkpt>
      <trkpt lat="42.57377624511719" lon="-7.669454574584961">
        <ele>612.0</ele>
        <time>2019-04-30T10:33:17.000Z</time>
      </trkpt>
      <trkpt lat="42.57389831542969" lon="-7.669919013977051">
        <ele>612.0</ele>
        <time>2019-04-30T10:33:46.000Z</time>
      </trkpt>
      <trkpt lat="42.57406234741211" lon="-7.670354843139648">
        <ele>612.0</ele>
        <time>2019-04-30T10:34:18.000Z</time>
      </trkpt>
      <trkpt lat="42.57419204711914" lon="-7.67080020904541">
        <ele>615.0</ele>
        <time>2019-04-30T10:34:49.000Z</time>
      </trkpt>
      <trkpt lat="42.57427215576172" lon="-7.671281337738037">
        <ele>621.0</ele>
        <time>2019-04-30T10:35:25.000Z</time>
      </trkpt>
      <trkpt lat="42.57442092895508" lon="-7.67170524597168">
        <ele>626.0</ele>
        <time>2019-04-30T10:36:02.000Z</time>
      </trkpt>
      <trkpt lat="42.57448959350586" lon="-7.671962738037109">
        <ele>628.0</ele>
        <time>2019-04-30T10:36:28.000Z</time>
      </trkpt>
      <trkpt lat="42.574501037597656" lon="-7.672088146209717">
        <ele>628.0</ele>
        <time>2019-04-30T10:37:03.000Z</time>
      </trkpt>
      <trkpt lat="42.57450866699219" lon="-7.672147750854492">
        <ele>628.0</ele>
        <time>2019-04-30T10:37:04.000Z</time>
      </trkpt>
      <trkpt lat="42.57452392578125" lon="-7.672360897064209">
        <ele>628.0</ele>
        <time>2019-04-30T10:37:11.000Z</time>
      </trkpt>
      <trkpt lat="42.57453155517578" lon="-7.672391891479492">
        <ele>627.0</ele>
        <time>2019-04-30T10:37:30.000Z</time>
      </trkpt>
      <trkpt lat="42.57453536987305" lon="-7.672416687011719">
        <ele>627.0</ele>
        <time>2019-04-30T10:37:31.000Z</time>
      </trkpt>
      <trkpt lat="42.57460403442383" lon="-7.672882556915283">
        <ele>624.0</ele>
        <time>2019-04-30T10:37:51.000Z</time>
      </trkpt>
      <trkpt lat="42.57477951049805" lon="-7.673328876495361">
        <ele>621.0</ele>
        <time>2019-04-30T10:38:20.000Z</time>
      </trkpt>
      <trkpt lat="42.57494354248047" lon="-7.673753261566162">
        <ele>612.0</ele>
        <time>2019-04-30T10:38:49.000Z</time>
      </trkpt>
      <trkpt lat="42.57511520385742" lon="-7.674186706542969">
        <ele>605.0</ele>
        <time>2019-04-30T10:39:18.000Z</time>
      </trkpt>
      <trkpt lat="42.57530975341797" lon="-7.674582004547119">
        <ele>600.0</ele>
        <time>2019-04-30T10:39:48.000Z</time>
      </trkpt>
      <trkpt lat="42.575469970703125" lon="-7.67501974105835">
        <ele>604.0</ele>
        <time>2019-04-30T10:40:16.000Z</time>
      </trkpt>
      <trkpt lat="42.575721740722656" lon="-7.6753411293029785">
        <ele>610.0</ele>
        <time>2019-04-30T10:40:43.000Z</time>
      </trkpt>
      <trkpt lat="42.57591247558594" lon="-7.6757493019104">
        <ele>616.0</ele>
        <time>2019-04-30T10:41:10.000Z</time>
      </trkpt>
      <trkpt lat="42.576114654541016" lon="-7.676146030426025">
        <ele>618.0</ele>
        <time>2019-04-30T10:41:39.000Z</time>
      </trkpt>
      <trkpt lat="42.57627487182617" lon="-7.676575660705566">
        <ele>614.0</ele>
        <time>2019-04-30T10:42:08.000Z</time>
      </trkpt>
      <trkpt lat="42.57640838623047" lon="-7.677014350891113">
        <ele>609.0</ele>
        <time>2019-04-30T10:42:39.000Z</time>
      </trkpt>
      <trkpt lat="42.57661819458008" lon="-7.677380561828613">
        <ele>606.0</ele>
        <time>2019-04-30T10:43:08.000Z</time>
      </trkpt>
      <trkpt lat="42.57684326171875" lon="-7.677759170532227">
        <ele>602.0</ele>
        <time>2019-04-30T10:43:39.000Z</time>
      </trkpt>
      <trkpt lat="42.57704162597656" lon="-7.678164005279541">
        <ele>603.0</ele>
        <time>2019-04-30T10:44:08.000Z</time>
      </trkpt>
      <trkpt lat="42.57719802856445" lon="-7.67860221862793">
        <ele>605.0</ele>
        <time>2019-04-30T10:44:37.000Z</time>
      </trkpt>
      <trkpt lat="42.57736587524414" lon="-7.6790385246276855">
        <ele>613.0</ele>
        <time>2019-04-30T10:45:09.000Z</time>
      </trkpt>
      <trkpt lat="42.577606201171875" lon="-7.679370880126953">
        <ele>616.0</ele>
        <time>2019-04-30T10:45:37.000Z</time>
      </trkpt>
      <trkpt lat="42.57783508300781" lon="-7.679734230041504">
        <ele>614.0</ele>
        <time>2019-04-30T10:46:08.000Z</time>
      </trkpt>
      <trkpt lat="42.578147888183594" lon="-7.679968357086182">
        <ele>612.0</ele>
        <time>2019-04-30T10:46:35.000Z</time>
      </trkpt>
      <trkpt lat="42.578468322753906" lon="-7.680173397064209">
        <ele>609.0</ele>
        <time>2019-04-30T10:47:05.000Z</time>
      </trkpt>
      <trkpt lat="42.57881164550781" lon="-7.6802873611450195">
        <ele>606.0</ele>
        <time>2019-04-30T10:47:37.000Z</time>
      </trkpt>
      <trkpt lat="42.57912826538086" lon="-7.680487632751465">
        <ele>606.0</ele>
        <time>2019-04-30T10:48:03.000Z</time>
      </trkpt>
      <trkpt lat="42.57943344116211" lon="-7.680736541748047">
        <ele>608.0</ele>
        <time>2019-04-30T10:48:34.000Z</time>
      </trkpt>
      <trkpt lat="42.57976531982422" lon="-7.680892467498779">
        <ele>608.0</ele>
        <time>2019-04-30T10:49:03.000Z</time>
      </trkpt>
      <trkpt lat="42.58005142211914" lon="-7.68120002746582">
        <ele>607.0</ele>
        <time>2019-04-30T10:49:30.000Z</time>
      </trkpt>
      <trkpt lat="42.58020782470703" lon="-7.681355953216553">
        <ele>603.0</ele>
        <time>2019-04-30T10:49:45.000Z</time>
      </trkpt>
      <trkpt lat="42.580223083496094" lon="-7.681413173675537">
        <ele>603.0</ele>
        <time>2019-04-30T10:49:49.000Z</time>
      </trkpt>
      <trkpt lat="42.580230712890625" lon="-7.6814775466918945">
        <ele>604.0</ele>
        <time>2019-04-30T10:49:53.000Z</time>
      </trkpt>
      <trkpt lat="42.58023452758789" lon="-7.68154764175415">
        <ele>604.0</ele>
        <time>2019-04-30T10:49:57.000Z</time>
      </trkpt>
      <trkpt lat="42.580230712890625" lon="-7.681620121002197">
        <ele>605.0</ele>
        <time>2019-04-30T10:50:01.000Z</time>
      </trkpt>
      <trkpt lat="42.580257415771484" lon="-7.681717395782471">
        <ele>606.0</ele>
        <time>2019-04-30T10:50:09.000Z</time>
      </trkpt>
      <trkpt lat="42.58028793334961" lon="-7.681828022003174">
        <ele>608.0</ele>
        <time>2019-04-30T10:50:16.000Z</time>
      </trkpt>
      <trkpt lat="42.580326080322266" lon="-7.681947708129883">
        <ele>609.0</ele>
        <time>2019-04-30T10:50:24.000Z</time>
      </trkpt>
      <trkpt lat="42.58036804199219" lon="-7.682071208953857">
        <ele>611.0</ele>
        <time>2019-04-30T10:50:31.000Z</time>
      </trkpt>
      <trkpt lat="42.58036422729492" lon="-7.682305812835693">
        <ele>612.0</ele>
        <time>2019-04-30T10:50:46.000Z</time>
      </trkpt>
      <trkpt lat="42.580326080322266" lon="-7.682543754577637">
        <ele>611.0</ele>
        <time>2019-04-30T10:51:00.000Z</time>
      </trkpt>
      <trkpt lat="42.58030319213867" lon="-7.682659149169922">
        <ele>611.0</ele>
        <time>2019-04-30T10:51:08.000Z</time>
      </trkpt>
      <trkpt lat="42.58028030395508" lon="-7.682773590087891">
        <ele>610.0</ele>
        <time>2019-04-30T10:51:15.000Z</time>
      </trkpt>
      <trkpt lat="42.58024978637695" lon="-7.682887554168701">
        <ele>609.0</ele>
        <time>2019-04-30T10:51:22.000Z</time>
      </trkpt>
      <trkpt lat="42.58021926879883" lon="-7.683000564575195">
        <ele>609.0</ele>
        <time>2019-04-30T10:51:29.000Z</time>
      </trkpt>
      <trkpt lat="42.580204010009766" lon="-7.683079242706299">
        <ele>608.0</ele>
        <time>2019-04-30T10:51:33.000Z</time>
      </trkpt>
      <trkpt lat="42.580196380615234" lon="-7.68314266204834">
        <ele>608.0</ele>
        <time>2019-04-30T10:51:36.000Z</time>
      </trkpt>
      <trkpt lat="42.58019256591797" lon="-7.683196067810059">
        <ele>608.0</ele>
        <time>2019-04-30T10:51:39.000Z</time>
      </trkpt>
      <trkpt lat="42.5801887512207" lon="-7.683244228363037">
        <ele>608.0</ele>
        <time>2019-04-30T10:51:43.000Z</time>
      </trkpt>
      <trkpt lat="42.580223083496094" lon="-7.683361530303955">
        <ele>608.0</ele>
        <time>2019-04-30T10:51:51.000Z</time>
      </trkpt>
      <trkpt lat="42.58027267456055" lon="-7.683476448059082">
        <ele>609.0</ele>
        <time>2019-04-30T10:51:59.000Z</time>
      </trkpt>
      <trkpt lat="42.580318450927734" lon="-7.683560371398926">
        <ele>610.0</ele>
        <time>2019-04-30T10:52:07.000Z</time>
      </trkpt>
      <trkpt lat="42.58036804199219" lon="-7.683655261993408">
        <ele>610.0</ele>
        <time>2019-04-30T10:52:16.000Z</time>
      </trkpt>
      <trkpt lat="42.58042526245117" lon="-7.683757781982422">
        <ele>611.0</ele>
        <time>2019-04-30T10:52:25.000Z</time>
      </trkpt>
      <trkpt lat="42.58048629760742" lon="-7.683863639831543">
        <ele>612.0</ele>
        <time>2019-04-30T10:52:33.000Z</time>
      </trkpt>
      <trkpt lat="42.580543518066406" lon="-7.68395471572876">
        <ele>612.0</ele>
        <time>2019-04-30T10:52:40.000Z</time>
      </trkpt>
      <trkpt lat="42.580596923828125" lon="-7.684043884277344">
        <ele>613.0</ele>
        <time>2019-04-30T10:52:48.000Z</time>
      </trkpt>
      <trkpt lat="42.58065414428711" lon="-7.684131145477295">
        <ele>614.0</ele>
        <time>2019-04-30T10:52:55.000Z</time>
      </trkpt>
      <trkpt lat="42.58070755004883" lon="-7.684217929840088">
        <ele>615.0</ele>
        <time>2019-04-30T10:53:02.000Z</time>
      </trkpt>
      <trkpt lat="42.580753326416016" lon="-7.684288501739502">
        <ele>615.0</ele>
        <time>2019-04-30T10:53:09.000Z</time>
      </trkpt>
      <trkpt lat="42.58079528808594" lon="-7.684351921081543">
        <ele>615.0</ele>
        <time>2019-04-30T10:53:15.000Z</time>
      </trkpt>
      <trkpt lat="42.58083724975586" lon="-7.684410095214844">
        <ele>615.0</ele>
        <time>2019-04-30T10:53:22.000Z</time>
      </trkpt>
      <trkpt lat="42.580875396728516" lon="-7.6844658851623535">
        <ele>615.0</ele>
        <time>2019-04-30T10:53:29.000Z</time>
      </trkpt>
      <trkpt lat="42.58094024658203" lon="-7.684521675109863">
        <ele>618.0</ele>
        <time>2019-04-30T10:54:27.000Z</time>
      </trkpt>
      <trkpt lat="42.5810661315918" lon="-7.684756755828857">
        <ele>615.0</ele>
        <time>2019-04-30T10:54:44.000Z</time>
      </trkpt>
      <trkpt lat="42.5810661315918" lon="-7.684756755828857">
        <ele>615.0</ele>
        <time>2019-04-30T10:54:45.000Z</time>
      </trkpt>
      <trkpt lat="42.58122253417969" lon="-7.684895992279053">
        <ele>610.0</ele>
        <time>2019-04-30T10:55:03.000Z</time>
      </trkpt>
      <trkpt lat="42.581382751464844" lon="-7.685013771057129">
        <ele>612.0</ele>
        <time>2019-04-30T10:55:17.000Z</time>
      </trkpt>
      <trkpt lat="42.58154296875" lon="-7.6851606369018555">
        <ele>614.0</ele>
        <time>2019-04-30T10:55:34.000Z</time>
      </trkpt>
      <trkpt lat="42.58171844482422" lon="-7.6852641105651855">
        <ele>616.0</ele>
        <time>2019-04-30T10:55:47.000Z</time>
      </trkpt>
      <trkpt lat="42.58198928833008" lon="-7.685579299926758">
        <ele>613.0</ele>
        <time>2019-04-30T10:56:17.000Z</time>
      </trkpt>
      <trkpt lat="42.582279205322266" lon="-7.6858649253845215">
        <ele>615.0</ele>
        <time>2019-04-30T10:56:46.000Z</time>
      </trkpt>
      <trkpt lat="42.582462310791016" lon="-7.686129093170166">
        <ele>613.0</ele>
        <time>2019-04-30T10:57:08.000Z</time>
      </trkpt>
      <trkpt lat="42.58247756958008" lon="-7.686178684234619">
        <ele>613.0</ele>
        <time>2019-04-30T10:57:11.000Z</time>
      </trkpt>
      <trkpt lat="42.58247375488281" lon="-7.686221122741699">
        <ele>613.0</ele>
        <time>2019-04-30T10:57:13.000Z</time>
      </trkpt>
      <trkpt lat="42.582462310791016" lon="-7.6862592697143555">
        <ele>613.0</ele>
        <time>2019-04-30T10:57:16.000Z</time>
      </trkpt>
      <trkpt lat="42.58244705200195" lon="-7.6862945556640625">
        <ele>614.0</ele>
        <time>2019-04-30T10:57:18.000Z</time>
      </trkpt>
      <trkpt lat="42.58244323730469" lon="-7.686389923095703">
        <ele>614.0</ele>
        <time>2019-04-30T10:57:26.000Z</time>
      </trkpt>
      <trkpt lat="42.58244323730469" lon="-7.6865081787109375">
        <ele>613.0</ele>
        <time>2019-04-30T10:57:33.000Z</time>
      </trkpt>
      <trkpt lat="42.58243942260742" lon="-7.686641693115234">
        <ele>613.0</ele>
        <time>2019-04-30T10:57:41.000Z</time>
      </trkpt>
      <trkpt lat="42.582435607910156" lon="-7.6867828369140625">
        <ele>613.0</ele>
        <time>2019-04-30T10:57:48.000Z</time>
      </trkpt>
      <trkpt lat="42.58242416381836" lon="-7.686867713928223">
        <ele>613.0</ele>
        <time>2019-04-30T10:57:52.000Z</time>
      </trkpt>
      <trkpt lat="42.5824089050293" lon="-7.68693733215332">
        <ele>613.0</ele>
        <time>2019-04-30T10:57:56.000Z</time>
      </trkpt>
      <trkpt lat="42.5823860168457" lon="-7.6869964599609375">
        <ele>614.0</ele>
        <time>2019-04-30T10:58:00.000Z</time>
      </trkpt>
      <trkpt lat="42.582366943359375" lon="-7.6870503425598145">
        <ele>614.0</ele>
        <time>2019-04-30T10:58:04.000Z</time>
      </trkpt>
      <trkpt lat="42.58237075805664" lon="-7.687107086181641">
        <ele>614.0</ele>
        <time>2019-04-30T10:58:08.000Z</time>
      </trkpt>
      <trkpt lat="42.58238220214844" lon="-7.687159538269043">
        <ele>613.0</ele>
        <time>2019-04-30T10:58:12.000Z</time>
      </trkpt>
      <trkpt lat="42.582401275634766" lon="-7.687209129333496">
        <ele>612.0</ele>
        <time>2019-04-30T10:58:16.000Z</time>
      </trkpt>
      <trkpt lat="42.58242416381836" lon="-7.687256813049316">
        <ele>611.0</ele>
        <time>2019-04-30T10:58:19.000Z</time>
      </trkpt>
      <trkpt lat="42.582393646240234" lon="-7.687463760375977">
        <ele>608.0</ele>
        <time>2019-04-30T10:58:32.000Z</time>
      </trkpt>
      <trkpt lat="42.582332611083984" lon="-7.687718868255615">
        <ele>606.0</ele>
        <time>2019-04-30T10:58:45.000Z</time>
      </trkpt>
      <trkpt lat="42.582313537597656" lon="-7.68778657913208">
        <ele>605.0</ele>
        <time>2019-04-30T10:58:48.000Z</time>
      </trkpt>
      <trkpt lat="42.58229446411133" lon="-7.687834739685059">
        <ele>604.0</ele>
        <time>2019-04-30T10:58:50.000Z</time>
      </trkpt>
      <trkpt lat="42.582279205322266" lon="-7.687870025634766">
        <ele>603.0</ele>
        <time>2019-04-30T10:58:53.000Z</time>
      </trkpt>
      <trkpt lat="42.58226013183594" lon="-7.6878981590271">
        <ele>602.0</ele>
        <time>2019-04-30T10:58:55.000Z</time>
      </trkpt>
      <trkpt lat="42.5822639465332" lon="-7.6879658699035645">
        <ele>602.0</ele>
        <time>2019-04-30T10:59:00.000Z</time>
      </trkpt>
      <trkpt lat="42.582271575927734" lon="-7.688043117523193">
        <ele>602.0</ele>
        <time>2019-04-30T10:59:04.000Z</time>
      </trkpt>
      <trkpt lat="42.5822868347168" lon="-7.688126564025879">
        <ele>602.0</ele>
        <time>2019-04-30T10:59:09.000Z</time>
      </trkpt>
      <trkpt lat="42.582305908203125" lon="-7.688212871551514">
        <ele>602.0</ele>
        <time>2019-04-30T10:59:13.000Z</time>
      </trkpt>
      <trkpt lat="42.582332611083984" lon="-7.6883158683776855">
        <ele>602.0</ele>
        <time>2019-04-30T10:59:21.000Z</time>
      </trkpt>
      <trkpt lat="42.58236312866211" lon="-7.6884284019470215">
        <ele>603.0</ele>
        <time>2019-04-30T10:59:28.000Z</time>
      </trkpt>
      <trkpt lat="42.5823974609375" lon="-7.6885480880737305">
        <ele>604.0</ele>
        <time>2019-04-30T10:59:36.000Z</time>
      </trkpt>
      <trkpt lat="42.582435607910156" lon="-7.688670635223389">
        <ele>605.0</ele>
        <time>2019-04-30T10:59:43.000Z</time>
      </trkpt>
      <trkpt lat="42.582454681396484" lon="-7.688789367675781">
        <ele>606.0</ele>
        <time>2019-04-30T10:59:50.000Z</time>
      </trkpt>
      <trkpt lat="42.58246612548828" lon="-7.68890905380249">
        <ele>607.0</ele>
        <time>2019-04-30T10:59:57.000Z</time>
      </trkpt>
      <trkpt lat="42.58247375488281" lon="-7.689030170440674">
        <ele>607.0</ele>
        <time>2019-04-30T11:00:04.000Z</time>
      </trkpt>
      <trkpt lat="42.582481384277344" lon="-7.689151763916016">
        <ele>608.0</ele>
        <time>2019-04-30T11:00:11.000Z</time>
      </trkpt>
      <trkpt lat="42.58249282836914" lon="-7.689270496368408">
        <ele>609.0</ele>
        <time>2019-04-30T11:00:18.000Z</time>
      </trkpt>
      <trkpt lat="42.58250427246094" lon="-7.689389228820801">
        <ele>610.0</ele>
        <time>2019-04-30T11:00:25.000Z</time>
      </trkpt>
      <trkpt lat="42.58251953125" lon="-7.689507007598877">
        <ele>610.0</ele>
        <time>2019-04-30T11:00:32.000Z</time>
      </trkpt>
      <trkpt lat="42.58253479003906" lon="-7.689624786376953">
        <ele>611.0</ele>
        <time>2019-04-30T11:00:39.000Z</time>
      </trkpt>
      <trkpt lat="42.582557678222656" lon="-7.6897406578063965">
        <ele>612.0</ele>
        <time>2019-04-30T11:00:46.000Z</time>
      </trkpt>
      <trkpt lat="42.582584381103516" lon="-7.689855575561523">
        <ele>614.0</ele>
        <time>2019-04-30T11:00:53.000Z</time>
      </trkpt>
      <trkpt lat="42.58261489868164" lon="-7.689969539642334">
        <ele>615.0</ele>
        <time>2019-04-30T11:01:00.000Z</time>
      </trkpt>
      <trkpt lat="42.582645416259766" lon="-7.690083026885986">
        <ele>617.0</ele>
        <time>2019-04-30T11:01:07.000Z</time>
      </trkpt>
      <trkpt lat="42.58265686035156" lon="-7.690201282501221">
        <ele>617.0</ele>
        <time>2019-04-30T11:01:14.000Z</time>
      </trkpt>
      <trkpt lat="42.58265686035156" lon="-7.690321445465088">
        <ele>616.0</ele>
        <time>2019-04-30T11:01:22.000Z</time>
      </trkpt>
      <trkpt lat="42.5826530456543" lon="-7.6904425621032715">
        <ele>615.0</ele>
        <time>2019-04-30T11:01:29.000Z</time>
      </trkpt>
      <trkpt lat="42.582645416259766" lon="-7.6905646324157715">
        <ele>614.0</ele>
        <time>2019-04-30T11:01:37.000Z</time>
      </trkpt>
      <trkpt lat="42.582698822021484" lon="-7.690726280212402">
        <ele>611.0</ele>
        <time>2019-04-30T11:01:46.000Z</time>
      </trkpt>
      <trkpt lat="42.58277893066406" lon="-7.69085168838501">
        <ele>609.0</ele>
        <time>2019-04-30T11:01:55.000Z</time>
      </trkpt>
      <trkpt lat="42.5827751159668" lon="-7.690907955169678">
        <ele>608.0</ele>
        <time>2019-04-30T11:01:58.000Z</time>
      </trkpt>
      <trkpt lat="42.582759857177734" lon="-7.690958023071289">
        <ele>607.0</ele>
        <time>2019-04-30T11:02:01.000Z</time>
      </trkpt>
      <trkpt lat="42.58272933959961" lon="-7.691003799438477">
        <ele>606.0</ele>
        <time>2019-04-30T11:02:04.000Z</time>
      </trkpt>
      <trkpt lat="42.582698822021484" lon="-7.691047191619873">
        <ele>606.0</ele>
        <time>2019-04-30T11:02:07.000Z</time>
      </trkpt>
      <trkpt lat="42.582706451416016" lon="-7.691142559051514">
        <ele>605.0</ele>
        <time>2019-04-30T11:02:14.000Z</time>
      </trkpt>
      <trkpt lat="42.582725524902344" lon="-7.691257953643799">
        <ele>606.0</ele>
        <time>2019-04-30T11:02:20.000Z</time>
      </trkpt>
      <trkpt lat="42.5827522277832" lon="-7.691385746002197">
        <ele>606.0</ele>
        <time>2019-04-30T11:02:27.000Z</time>
      </trkpt>
      <trkpt lat="42.58278274536133" lon="-7.6915202140808105">
        <ele>607.0</ele>
        <time>2019-04-30T11:02:34.000Z</time>
      </trkpt>
      <trkpt lat="42.58279800415039" lon="-7.691638946533203">
        <ele>607.0</ele>
        <time>2019-04-30T11:02:41.000Z</time>
      </trkpt>
      <trkpt lat="42.58280944824219" lon="-7.691758155822754">
        <ele>608.0</ele>
        <time>2019-04-30T11:02:48.000Z</time>
      </trkpt>
      <trkpt lat="42.58282470703125" lon="-7.691877365112305">
        <ele>608.0</ele>
        <time>2019-04-30T11:02:56.000Z</time>
      </trkpt>
      <trkpt lat="42.58283233642578" lon="-7.6919965744018555">
        <ele>608.0</ele>
        <time>2019-04-30T11:03:03.000Z</time>
      </trkpt>
      <trkpt lat="42.58285140991211" lon="-7.692114353179932">
        <ele>608.0</ele>
        <time>2019-04-30T11:03:10.000Z</time>
      </trkpt>
      <trkpt lat="42.58287048339844" lon="-7.69223165512085">
        <ele>607.0</ele>
        <time>2019-04-30T11:03:17.000Z</time>
      </trkpt>
      <trkpt lat="42.582889556884766" lon="-7.692348957061768">
        <ele>607.0</ele>
        <time>2019-04-30T11:03:25.000Z</time>
      </trkpt>
      <trkpt lat="42.58291244506836" lon="-7.6924662590026855">
        <ele>606.0</ele>
        <time>2019-04-30T11:03:32.000Z</time>
      </trkpt>
      <trkpt lat="42.582942962646484" lon="-7.692577838897705">
        <ele>605.0</ele>
        <time>2019-04-30T11:03:39.000Z</time>
      </trkpt>
      <trkpt lat="42.58298110961914" lon="-7.692687511444092">
        <ele>605.0</ele>
        <time>2019-04-30T11:03:46.000Z</time>
      </trkpt>
      <trkpt lat="42.58302307128906" lon="-7.692795276641846">
        <ele>606.0</ele>
        <time>2019-04-30T11:03:54.000Z</time>
      </trkpt>
      <trkpt lat="42.583065032958984" lon="-7.692902565002441">
        <ele>606.0</ele>
        <time>2019-04-30T11:04:01.000Z</time>
      </trkpt>
      <trkpt lat="42.58310317993164" lon="-7.693010330200195">
        <ele>607.0</ele>
        <time>2019-04-30T11:04:09.000Z</time>
      </trkpt>
      <trkpt lat="42.5831413269043" lon="-7.693118095397949">
        <ele>609.0</ele>
        <time>2019-04-30T11:04:16.000Z</time>
      </trkpt>
      <trkpt lat="42.58317947387695" lon="-7.693225383758545">
        <ele>611.0</ele>
        <time>2019-04-30T11:04:24.000Z</time>
      </trkpt>
      <trkpt lat="42.583221435546875" lon="-7.693332195281982">
        <ele>613.0</ele>
        <time>2019-04-30T11:04:32.000Z</time>
      </trkpt>
      <trkpt lat="42.58325958251953" lon="-7.693439483642578">
        <ele>614.0</ele>
        <time>2019-04-30T11:04:40.000Z</time>
      </trkpt>
      <trkpt lat="42.58330154418945" lon="-7.693546295166016">
        <ele>615.0</ele>
        <time>2019-04-30T11:04:48.000Z</time>
      </trkpt>
      <trkpt lat="42.58334732055664" lon="-7.693653583526611">
        <ele>616.0</ele>
        <time>2019-04-30T11:04:56.000Z</time>
      </trkpt>
      <trkpt lat="42.58338928222656" lon="-7.693760395050049">
        <ele>617.0</ele>
        <time>2019-04-30T11:05:04.000Z</time>
      </trkpt>
      <trkpt lat="42.583396911621094" lon="-7.693840503692627">
        <ele>617.0</ele>
        <time>2019-04-30T11:05:10.000Z</time>
      </trkpt>
      <trkpt lat="42.58338928222656" lon="-7.693909168243408">
        <ele>617.0</ele>
        <time>2019-04-30T11:05:17.000Z</time>
      </trkpt>
      <trkpt lat="42.583370208740234" lon="-7.693970680236816">
        <ele>616.0</ele>
        <time>2019-04-30T11:05:23.000Z</time>
      </trkpt>
      <trkpt lat="42.58334732055664" lon="-7.694028377532959">
        <ele>615.0</ele>
        <time>2019-04-30T11:05:30.000Z</time>
      </trkpt>
      <trkpt lat="42.58335876464844" lon="-7.694085597991943">
        <ele>614.0</ele>
        <time>2019-04-30T11:05:33.000Z</time>
      </trkpt>
      <trkpt lat="42.583377838134766" lon="-7.694138526916504">
        <ele>613.0</ele>
        <time>2019-04-30T11:05:37.000Z</time>
      </trkpt>
      <trkpt lat="42.583404541015625" lon="-7.694189071655273">
        <ele>612.0</ele>
        <time>2019-04-30T11:05:41.000Z</time>
      </trkpt>
      <trkpt lat="42.583431243896484" lon="-7.694238185882568">
        <ele>610.0</ele>
        <time>2019-04-30T11:05:45.000Z</time>
      </trkpt>
      <trkpt lat="42.58345031738281" lon="-7.694334983825684">
        <ele>609.0</ele>
        <time>2019-04-30T11:05:55.000Z</time>
      </trkpt>
      <trkpt lat="42.583465576171875" lon="-7.694450378417969">
        <ele>608.0</ele>
        <time>2019-04-30T11:06:06.000Z</time>
      </trkpt>
      <trkpt lat="42.58348083496094" lon="-7.694577693939209">
        <ele>607.0</ele>
        <time>2019-04-30T11:06:16.000Z</time>
      </trkpt>
      <trkpt lat="42.58349609375" lon="-7.694711208343506">
        <ele>606.0</ele>
        <time>2019-04-30T11:06:27.000Z</time>
      </trkpt>
      <trkpt lat="42.58350372314453" lon="-7.694772720336914">
        <ele>606.0</ele>
        <time>2019-04-30T11:06:32.000Z</time>
      </trkpt>
      <trkpt lat="42.58351135253906" lon="-7.694809913635254">
        <ele>607.0</ele>
        <time>2019-04-30T11:06:37.000Z</time>
      </trkpt>
      <trkpt lat="42.58351516723633" lon="-7.694831848144531">
        <ele>608.0</ele>
        <time>2019-04-30T11:06:42.000Z</time>
      </trkpt>
      <trkpt lat="42.58351516723633" lon="-7.694845199584961">
        <ele>609.0</ele>
        <time>2019-04-30T11:06:48.000Z</time>
      </trkpt>
      <trkpt lat="42.583518981933594" lon="-7.694859027862549">
        <ele>609.0</ele>
        <time>2019-04-30T11:07:06.000Z</time>
      </trkpt>
      <trkpt lat="42.58352279663086" lon="-7.694864749908447">
        <ele>608.0</ele>
        <time>2019-04-30T11:07:25.000Z</time>
      </trkpt>
      <trkpt lat="42.58352279663086" lon="-7.694864749908447">
        <ele>608.0</ele>
        <time>2019-04-30T11:07:43.000Z</time>
      </trkpt>
      <trkpt lat="42.583526611328125" lon="-7.694861888885498">
        <ele>608.0</ele>
        <time>2019-04-30T11:08:02.000Z</time>
      </trkpt>
      <trkpt lat="42.583526611328125" lon="-7.694865703582764">
        <ele>608.0</ele>
        <time>2019-04-30T11:08:02.000Z</time>
      </trkpt>
      <trkpt lat="42.58353042602539" lon="-7.694869518280029">
        <ele>608.0</ele>
        <time>2019-04-30T11:08:02.000Z</time>
      </trkpt>
      <trkpt lat="42.58353042602539" lon="-7.694872856140137">
        <ele>608.0</ele>
        <time>2019-04-30T11:08:02.000Z</time>
      </trkpt>
      <trkpt lat="42.583534240722656" lon="-7.694876194000244">
        <ele>608.0</ele>
        <time>2019-04-30T11:08:03.000Z</time>
      </trkpt>
      <trkpt lat="42.58356857299805" lon="-7.694945335388184">
        <ele>608.0</ele>
        <time>2019-04-30T11:08:07.000Z</time>
      </trkpt>
      <trkpt lat="42.583614349365234" lon="-7.695041656494141">
        <ele>608.0</ele>
        <time>2019-04-30T11:08:11.000Z</time>
      </trkpt>
      <trkpt lat="42.58366775512695" lon="-7.695156574249268">
        <ele>609.0</ele>
        <time>2019-04-30T11:08:15.000Z</time>
      </trkpt>
      <trkpt lat="42.5837287902832" lon="-7.695280075073242">
        <ele>609.0</ele>
        <time>2019-04-30T11:08:19.000Z</time>
      </trkpt>
      <trkpt lat="42.583866119384766" lon="-7.695736885070801">
        <ele>608.0</ele>
        <time>2019-04-30T11:08:49.000Z</time>
      </trkpt>
      <trkpt lat="42.58399200439453" lon="-7.6961894035339355">
        <ele>605.0</ele>
        <time>2019-04-30T11:09:21.000Z</time>
      </trkpt>
      <trkpt lat="42.58417510986328" lon="-7.696593761444092">
        <ele>600.0</ele>
        <time>2019-04-30T11:09:51.000Z</time>
      </trkpt>
      <trkpt lat="42.58430862426758" lon="-7.697033405303955">
        <ele>600.0</ele>
        <time>2019-04-30T11:10:22.000Z</time>
      </trkpt>
      <trkpt lat="42.584476470947266" lon="-7.697465419769287">
        <ele>597.0</ele>
        <time>2019-04-30T11:10:53.000Z</time>
      </trkpt>
      <trkpt lat="42.58464050292969" lon="-7.697900772094727">
        <ele>594.0</ele>
        <time>2019-04-30T11:11:24.000Z</time>
      </trkpt>
      <trkpt lat="42.58479690551758" lon="-7.698327541351318">
        <ele>590.0</ele>
        <time>2019-04-30T11:11:53.000Z</time>
      </trkpt>
      <trkpt lat="42.58491134643555" lon="-7.698782920837402">
        <ele>589.0</ele>
        <time>2019-04-30T11:12:23.000Z</time>
      </trkpt>
      <trkpt lat="42.58504867553711" lon="-7.699223518371582">
        <ele>582.0</ele>
        <time>2019-04-30T11:12:56.000Z</time>
      </trkpt>
      <trkpt lat="42.585147857666016" lon="-7.699685096740723">
        <ele>588.0</ele>
        <time>2019-04-30T11:13:27.000Z</time>
      </trkpt>
      <trkpt lat="42.58513259887695" lon="-7.699915409088135">
        <ele>589.0</ele>
        <time>2019-04-30T11:13:43.000Z</time>
      </trkpt>
      <trkpt lat="42.58509063720703" lon="-7.700145721435547">
        <ele>589.0</ele>
        <time>2019-04-30T11:14:00.000Z</time>
      </trkpt>
      <trkpt lat="42.58505630493164" lon="-7.700257778167725">
        <ele>588.0</ele>
        <time>2019-04-30T11:14:07.000Z</time>
      </trkpt>
      <trkpt lat="42.58502197265625" lon="-7.7003679275512695">
        <ele>587.0</ele>
        <time>2019-04-30T11:14:14.000Z</time>
      </trkpt>
      <trkpt lat="42.58498001098633" lon="-7.700477600097656">
        <ele>586.0</ele>
        <time>2019-04-30T11:14:21.000Z</time>
      </trkpt>
      <trkpt lat="42.58493423461914" lon="-7.700586318969727">
        <ele>585.0</ele>
        <time>2019-04-30T11:14:29.000Z</time>
      </trkpt>
      <trkpt lat="42.58489990234375" lon="-7.700697898864746">
        <ele>583.0</ele>
        <time>2019-04-30T11:14:37.000Z</time>
      </trkpt>
      <trkpt lat="42.584869384765625" lon="-7.700809955596924">
        <ele>582.0</ele>
        <time>2019-04-30T11:14:45.000Z</time>
      </trkpt>
      <trkpt lat="42.5848388671875" lon="-7.70092248916626">
        <ele>581.0</ele>
        <time>2019-04-30T11:14:53.000Z</time>
      </trkpt>
      <trkpt lat="42.584808349609375" lon="-7.701035499572754">
        <ele>580.0</ele>
        <time>2019-04-30T11:15:01.000Z</time>
      </trkpt>
      <trkpt lat="42.58476638793945" lon="-7.7011399269104">
        <ele>578.0</ele>
        <time>2019-04-30T11:15:09.000Z</time>
      </trkpt>
      <trkpt lat="42.584716796875" lon="-7.701241493225098">
        <ele>577.0</ele>
        <time>2019-04-30T11:15:17.000Z</time>
      </trkpt>
      <trkpt lat="42.58466720581055" lon="-7.701340675354004">
        <ele>575.0</ele>
        <time>2019-04-30T11:15:25.000Z</time>
      </trkpt>
      <trkpt lat="42.58460998535156" lon="-7.701438903808594">
        <ele>573.0</ele>
        <time>2019-04-30T11:15:33.000Z</time>
      </trkpt>
      <trkpt lat="42.58456039428711" lon="-7.701535224914551">
        <ele>571.0</ele>
        <time>2019-04-30T11:15:42.000Z</time>
      </trkpt>
      <trkpt lat="42.58450698852539" lon="-7.701629161834717">
        <ele>569.0</ele>
        <time>2019-04-30T11:15:51.000Z</time>
      </trkpt>
      <trkpt lat="42.584449768066406" lon="-7.701721668243408">
        <ele>566.0</ele>
        <time>2019-04-30T11:16:00.000Z</time>
      </trkpt>
      <trkpt lat="42.58439636230469" lon="-7.701813697814941">
        <ele>564.0</ele>
        <time>2019-04-30T11:16:09.000Z</time>
      </trkpt>
      <trkpt lat="42.5843391418457" lon="-7.701902389526367">
        <ele>562.0</ele>
        <time>2019-04-30T11:16:15.000Z</time>
      </trkpt>
      <trkpt lat="42.58428192138672" lon="-7.701988697052002">
        <ele>560.0</ele>
        <time>2019-04-30T11:16:21.000Z</time>
      </trkpt>
      <trkpt lat="42.584224700927734" lon="-7.70207405090332">
        <ele>559.0</ele>
        <time>2019-04-30T11:16:28.000Z</time>
      </trkpt>
      <trkpt lat="42.584163665771484" lon="-7.702158451080322">
        <ele>558.0</ele>
        <time>2019-04-30T11:16:34.000Z</time>
      </trkpt>
      <trkpt lat="42.58396911621094" lon="-7.702538013458252">
        <ele>553.0</ele>
        <time>2019-04-30T11:17:03.000Z</time>
      </trkpt>
      <trkpt lat="42.583866119384766" lon="-7.70299768447876">
        <ele>554.0</ele>
        <time>2019-04-30T11:17:32.000Z</time>
      </trkpt>
      <trkpt lat="42.583892822265625" lon="-7.703225612640381">
        <ele>556.0</ele>
        <time>2019-04-30T11:17:46.000Z</time>
      </trkpt>
      <trkpt lat="42.583961486816406" lon="-7.703452110290527">
        <ele>559.0</ele>
        <time>2019-04-30T11:17:59.000Z</time>
      </trkpt>
      <trkpt lat="42.583988189697266" lon="-7.7035651206970215">
        <ele>561.0</ele>
        <time>2019-04-30T11:18:06.000Z</time>
      </trkpt>
      <trkpt lat="42.584014892578125" lon="-7.703677654266357">
        <ele>562.0</ele>
        <time>2019-04-30T11:18:14.000Z</time>
      </trkpt>
      <trkpt lat="42.584041595458984" lon="-7.703790187835693">
        <ele>564.0</ele>
        <time>2019-04-30T11:18:21.000Z</time>
      </trkpt>
      <trkpt lat="42.584068298339844" lon="-7.703902721405029">
        <ele>565.0</ele>
        <time>2019-04-30T11:18:28.000Z</time>
      </trkpt>
      <trkpt lat="42.5840950012207" lon="-7.70401668548584">
        <ele>566.0</ele>
        <time>2019-04-30T11:18:35.000Z</time>
      </trkpt>
      <trkpt lat="42.58412170410156" lon="-7.704131126403809">
        <ele>566.0</ele>
        <time>2019-04-30T11:18:43.000Z</time>
      </trkpt>
      <trkpt lat="42.58415222167969" lon="-7.704245567321777">
        <ele>566.0</ele>
        <time>2019-04-30T11:18:50.000Z</time>
      </trkpt>
      <trkpt lat="42.58418273925781" lon="-7.704360485076904">
        <ele>566.0</ele>
        <time>2019-04-30T11:18:57.000Z</time>
      </trkpt>
      <trkpt lat="42.58420944213867" lon="-7.704475402832031">
        <ele>567.0</ele>
        <time>2019-04-30T11:19:05.000Z</time>
      </trkpt>
      <trkpt lat="42.5842399597168" lon="-7.704590320587158">
        <ele>568.0</ele>
        <time>2019-04-30T11:19:13.000Z</time>
      </trkpt>
      <trkpt lat="42.58427047729492" lon="-7.704705238342285">
        <ele>569.0</ele>
        <time>2019-04-30T11:19:21.000Z</time>
      </trkpt>
      <trkpt lat="42.58429718017578" lon="-7.704820156097412">
        <ele>570.0</ele>
        <time>2019-04-30T11:19:29.000Z</time>
      </trkpt>
      <trkpt lat="42.584293365478516" lon="-7.70505428314209">
        <ele>568.0</ele>
        <time>2019-04-30T11:19:45.000Z</time>
      </trkpt>
      <trkpt lat="42.584259033203125" lon="-7.7052903175354">
        <ele>563.0</ele>
        <time>2019-04-30T11:20:00.000Z</time>
      </trkpt>
      <trkpt lat="42.584251403808594" lon="-7.705410480499268">
        <ele>562.0</ele>
        <time>2019-04-30T11:20:08.000Z</time>
      </trkpt>
      <trkpt lat="42.58424758911133" lon="-7.705531597137451">
        <ele>560.0</ele>
        <time>2019-04-30T11:20:15.000Z</time>
      </trkpt>
      <trkpt lat="42.58424377441406" lon="-7.705653190612793">
        <ele>559.0</ele>
        <time>2019-04-30T11:20:23.000Z</time>
      </trkpt>
      <trkpt lat="42.58424377441406" lon="-7.705775260925293">
        <ele>557.0</ele>
        <time>2019-04-30T11:20:30.000Z</time>
      </trkpt>
      <trkpt lat="42.584232330322266" lon="-7.70589542388916">
        <ele>556.0</ele>
        <time>2019-04-30T11:20:38.000Z</time>
      </trkpt>
      <trkpt lat="42.5842170715332" lon="-7.706014633178711">
        <ele>555.0</ele>
        <time>2019-04-30T11:20:45.000Z</time>
      </trkpt>
      <trkpt lat="42.58420181274414" lon="-7.706133842468262">
        <ele>554.0</ele>
        <time>2019-04-30T11:20:53.000Z</time>
      </trkpt>
      <trkpt lat="42.58418273925781" lon="-7.706252574920654">
        <ele>553.0</ele>
        <time>2019-04-30T11:21:00.000Z</time>
      </trkpt>
      <trkpt lat="42.58414840698242" lon="-7.706364631652832">
        <ele>553.0</ele>
        <time>2019-04-30T11:21:07.000Z</time>
      </trkpt>
      <trkpt lat="42.584102630615234" lon="-7.706473350524902">
        <ele>553.0</ele>
        <time>2019-04-30T11:21:14.000Z</time>
      </trkpt>
      <trkpt lat="42.58405303955078" lon="-7.70658016204834">
        <ele>553.0</ele>
        <time>2019-04-30T11:21:21.000Z</time>
      </trkpt>
      <trkpt lat="42.58399963378906" lon="-7.706686019897461">
        <ele>554.0</ele>
        <time>2019-04-30T11:21:28.000Z</time>
      </trkpt>
      <trkpt lat="42.58394241333008" lon="-7.7067790031433105">
        <ele>554.0</ele>
        <time>2019-04-30T11:21:37.000Z</time>
      </trkpt>
      <trkpt lat="42.5838737487793" lon="-7.7068657875061035">
        <ele>554.0</ele>
        <time>2019-04-30T11:21:45.000Z</time>
      </trkpt>
      <trkpt lat="42.583805084228516" lon="-7.706948757171631">
        <ele>554.0</ele>
        <time>2019-04-30T11:21:53.000Z</time>
      </trkpt>
      <trkpt lat="42.5837287902832" lon="-7.707028865814209">
        <ele>554.0</ele>
        <time>2019-04-30T11:22:02.000Z</time>
      </trkpt>
      <trkpt lat="42.58365249633789" lon="-7.707244396209717">
        <ele>555.0</ele>
        <time>2019-04-30T11:22:16.000Z</time>
      </trkpt>
      <trkpt lat="42.58360290527344" lon="-7.707479953765869">
        <ele>558.0</ele>
        <time>2019-04-30T11:22:31.000Z</time>
      </trkpt>
      <trkpt lat="42.58359146118164" lon="-7.707569599151611">
        <ele>558.0</ele>
        <time>2019-04-30T11:22:36.000Z</time>
      </trkpt>
      <trkpt lat="42.583587646484375" lon="-7.707649230957031">
        <ele>557.0</ele>
        <time>2019-04-30T11:22:42.000Z</time>
      </trkpt>
      <trkpt lat="42.58359146118164" lon="-7.7077226638793945">
        <ele>557.0</ele>
        <time>2019-04-30T11:22:47.000Z</time>
      </trkpt>
      <trkpt lat="42.583595275878906" lon="-7.70779275894165">
        <ele>556.0</ele>
        <time>2019-04-30T11:22:52.000Z</time>
      </trkpt>
      <trkpt lat="42.583614349365234" lon="-7.70784330368042">
        <ele>555.0</ele>
        <time>2019-04-30T11:22:55.000Z</time>
      </trkpt>
      <trkpt lat="42.58363723754883" lon="-7.707881927490234">
        <ele>554.0</ele>
        <time>2019-04-30T11:22:59.000Z</time>
      </trkpt>
      <trkpt lat="42.58366775512695" lon="-7.707913398742676">
        <ele>554.0</ele>
        <time>2019-04-30T11:23:02.000Z</time>
      </trkpt>
      <trkpt lat="42.583702087402344" lon="-7.707940578460693">
        <ele>553.0</ele>
        <time>2019-04-30T11:23:05.000Z</time>
      </trkpt>
      <trkpt lat="42.58372497558594" lon="-7.707976818084717">
        <ele>552.0</ele>
        <time>2019-04-30T11:23:09.000Z</time>
      </trkpt>
      <trkpt lat="42.58374786376953" lon="-7.70801305770874">
        <ele>552.0</ele>
        <time>2019-04-30T11:23:12.000Z</time>
      </trkpt>
      <trkpt lat="42.58376693725586" lon="-7.7080488204956055">
        <ele>551.0</ele>
        <time>2019-04-30T11:23:16.000Z</time>
      </trkpt>
      <trkpt lat="42.58378982543945" lon="-7.708084583282471">
        <ele>551.0</ele>
        <time>2019-04-30T11:23:19.000Z</time>
      </trkpt>
      <trkpt lat="42.58388137817383" lon="-7.708140850067139">
        <ele>550.0</ele>
        <time>2019-04-30T11:23:28.000Z</time>
      </trkpt>
      <trkpt lat="42.5839958190918" lon="-7.708189010620117">
        <ele>549.0</ele>
        <time>2019-04-30T11:23:36.000Z</time>
      </trkpt>
      <trkpt lat="42.58406066894531" lon="-7.7082390785217285">
        <ele>549.0</ele>
        <time>2019-04-30T11:23:43.000Z</time>
      </trkpt>
      <trkpt lat="42.584136962890625" lon="-7.708299160003662">
        <ele>549.0</ele>
        <time>2019-04-30T11:23:50.000Z</time>
      </trkpt>
      <trkpt lat="42.5842170715332" lon="-7.7083659172058105">
        <ele>549.0</ele>
        <time>2019-04-30T11:23:56.000Z</time>
      </trkpt>
      <trkpt lat="42.58430099487305" lon="-7.708436012268066">
        <ele>549.0</ele>
        <time>2019-04-30T11:24:03.000Z</time>
      </trkpt>
      <trkpt lat="42.584346771240234" lon="-7.708477973937988">
        <ele>549.0</ele>
        <time>2019-04-30T11:24:07.000Z</time>
      </trkpt>
      <trkpt lat="42.58437728881836" lon="-7.708512306213379">
        <ele>550.0</ele>
        <time>2019-04-30T11:24:10.000Z</time>
      </trkpt>
      <trkpt lat="42.58440017700195" lon="-7.708540916442871">
        <ele>550.0</ele>
        <time>2019-04-30T11:24:14.000Z</time>
      </trkpt>
      <trkpt lat="42.58441925048828" lon="-7.708567142486572">
        <ele>551.0</ele>
        <time>2019-04-30T11:24:17.000Z</time>
      </trkpt>
      <trkpt lat="42.58451461791992" lon="-7.708602428436279">
        <ele>551.0</ele>
        <time>2019-04-30T11:24:27.000Z</time>
      </trkpt>
      <trkpt lat="42.584625244140625" lon="-7.70862340927124">
        <ele>550.0</ele>
        <time>2019-04-30T11:24:36.000Z</time>
      </trkpt>
      <trkpt lat="42.58470153808594" lon="-7.708643436431885">
        <ele>550.0</ele>
        <time>2019-04-30T11:24:45.000Z</time>
      </trkpt>
      <trkpt lat="42.58478546142578" lon="-7.708665370941162">
        <ele>550.0</ele>
        <time>2019-04-30T11:24:55.000Z</time>
      </trkpt>
      <trkpt lat="42.58488082885742" lon="-7.708688735961914">
        <ele>550.0</ele>
        <time>2019-04-30T11:25:04.000Z</time>
      </trkpt>
      <trkpt lat="42.58497619628906" lon="-7.708713531494141">
        <ele>550.0</ele>
        <time>2019-04-30T11:25:13.000Z</time>
      </trkpt>
      <trkpt lat="42.58504867553711" lon="-7.7087273597717285">
        <ele>549.0</ele>
        <time>2019-04-30T11:25:20.000Z</time>
      </trkpt>
      <trkpt lat="42.58511734008789" lon="-7.708737373352051">
        <ele>548.0</ele>
        <time>2019-04-30T11:25:27.000Z</time>
      </trkpt>
      <trkpt lat="42.585182189941406" lon="-7.70874547958374">
        <ele>548.0</ele>
        <time>2019-04-30T11:25:34.000Z</time>
      </trkpt>
      <trkpt lat="42.58524703979492" lon="-7.708752155303955">
        <ele>547.0</ele>
        <time>2019-04-30T11:25:41.000Z</time>
      </trkpt>
      <trkpt lat="42.58526611328125" lon="-7.708771228790283">
        <ele>546.0</ele>
        <time>2019-04-30T11:25:46.000Z</time>
      </trkpt>
      <trkpt lat="42.585269927978516" lon="-7.708794593811035">
        <ele>546.0</ele>
        <time>2019-04-30T11:25:51.000Z</time>
      </trkpt>
      <trkpt lat="42.58525848388672" lon="-7.708820343017578">
        <ele>546.0</ele>
        <time>2019-04-30T11:25:55.000Z</time>
      </trkpt>
      <trkpt lat="42.58523941040039" lon="-7.7088470458984375">
        <ele>546.0</ele>
        <time>2019-04-30T11:26:00.000Z</time>
      </trkpt>
      <trkpt lat="42.58524703979492" lon="-7.708855152130127">
        <ele>544.0</ele>
        <time>2019-04-30T11:26:08.000Z</time>
      </trkpt>
      <trkpt lat="42.58525848388672" lon="-7.70885705947876">
        <ele>543.0</ele>
        <time>2019-04-30T11:26:17.000Z</time>
      </trkpt>
      <trkpt lat="42.58527374267578" lon="-7.708853721618652">
        <ele>541.0</ele>
        <time>2019-04-30T11:26:25.000Z</time>
      </trkpt>
      <trkpt lat="42.585289001464844" lon="-7.70884895324707">
        <ele>540.0</ele>
        <time>2019-04-30T11:26:33.000Z</time>
      </trkpt>
      <trkpt lat="42.58530044555664" lon="-7.70884895324707">
        <ele>539.0</ele>
        <time>2019-04-30T11:26:33.000Z</time>
      </trkpt>
      <trkpt lat="42.585304260253906" lon="-7.7088494300842285">
        <ele>539.0</ele>
        <time>2019-04-30T11:26:34.000Z</time>
      </trkpt>
      <trkpt lat="42.58531188964844" lon="-7.7088494300842285">
        <ele>539.0</ele>
        <time>2019-04-30T11:26:34.000Z</time>
      </trkpt>
      <trkpt lat="42.58531951904297" lon="-7.708849906921387">
        <ele>540.0</ele>
        <time>2019-04-30T11:26:34.000Z</time>
      </trkpt>
      <trkpt lat="42.5853271484375" lon="-7.708850383758545">
        <ele>540.0</ele>
        <time>2019-04-30T11:26:35.000Z</time>
      </trkpt>
      <trkpt lat="42.5853385925293" lon="-7.7088518142700195">
        <ele>540.0</ele>
        <time>2019-04-30T11:26:35.000Z</time>
      </trkpt>
      <trkpt lat="42.58535385131836" lon="-7.708852767944336">
        <ele>540.0</ele>
        <time>2019-04-30T11:26:36.000Z</time>
      </trkpt>
      <trkpt lat="42.585365295410156" lon="-7.7088541984558105">
        <ele>540.0</ele>
        <time>2019-04-30T11:26:36.000Z</time>
      </trkpt>
      <trkpt lat="42.58537292480469" lon="-7.708858013153076">
        <ele>540.0</ele>
        <time>2019-04-30T11:26:40.000Z</time>
      </trkpt>
      <trkpt lat="42.585384368896484" lon="-7.708863735198975">
        <ele>540.0</ele>
        <time>2019-04-30T11:26:45.000Z</time>
      </trkpt>
      <trkpt lat="42.585391998291016" lon="-7.708869934082031">
        <ele>540.0</ele>
        <time>2019-04-30T11:26:49.000Z</time>
      </trkpt>
      <trkpt lat="42.58539962768555" lon="-7.708876609802246">
        <ele>540.0</ele>
        <time>2019-04-30T11:26:53.000Z</time>
      </trkpt>
      <trkpt lat="42.58540725708008" lon="-7.708881378173828">
        <ele>540.0</ele>
        <time>2019-04-30T11:26:53.000Z</time>
      </trkpt>
      <trkpt lat="42.58541488647461" lon="-7.708885192871094">
        <ele>540.0</ele>
        <time>2019-04-30T11:26:54.000Z</time>
      </trkpt>
      <trkpt lat="42.585418701171875" lon="-7.708888530731201">
        <ele>540.0</ele>
        <time>2019-04-30T11:26:54.000Z</time>
      </trkpt>
      <trkpt lat="42.585426330566406" lon="-7.708891868591309">
        <ele>540.0</ele>
        <time>2019-04-30T11:26:54.000Z</time>
      </trkpt>
      <trkpt lat="42.58545684814453" lon="-7.708912372589111">
        <ele>540.0</ele>
        <time>2019-04-30T11:26:57.000Z</time>
      </trkpt>
      <trkpt lat="42.58549880981445" lon="-7.708940029144287">
        <ele>540.0</ele>
        <time>2019-04-30T11:26:59.000Z</time>
      </trkpt>
      <trkpt lat="42.585548400878906" lon="-7.708971977233887">
        <ele>540.0</ele>
        <time>2019-04-30T11:27:02.000Z</time>
      </trkpt>
      <trkpt lat="42.585601806640625" lon="-7.7090067863464355">
        <ele>540.0</ele>
        <time>2019-04-30T11:27:04.000Z</time>
      </trkpt>
      <trkpt lat="42.585628509521484" lon="-7.709011077880859">
        <ele>540.0</ele>
        <time>2019-04-30T11:27:07.000Z</time>
      </trkpt>
      <trkpt lat="42.58564758300781" lon="-7.709005832672119">
        <ele>540.0</ele>
        <time>2019-04-30T11:27:09.000Z</time>
      </trkpt>
      <trkpt lat="42.58565902709961" lon="-7.708993434906006">
        <ele>539.0</ele>
        <time>2019-04-30T11:27:11.000Z</time>
      </trkpt>
      <trkpt lat="42.585670471191406" lon="-7.708978176116943">
        <ele>539.0</ele>
        <time>2019-04-30T11:27:14.000Z</time>
      </trkpt>
      <trkpt lat="42.58574676513672" lon="-7.709003448486328">
        <ele>539.0</ele>
        <time>2019-04-30T11:27:32.000Z</time>
      </trkpt>
      <trkpt lat="42.585838317871094" lon="-7.709047794342041">
        <ele>539.0</ele>
        <time>2019-04-30T11:27:49.000Z</time>
      </trkpt>
      <trkpt lat="42.585906982421875" lon="-7.709046363830566">
        <ele>539.0</ele>
        <time>2019-04-30T11:27:57.000Z</time>
      </trkpt>
      <trkpt lat="42.58598709106445" lon="-7.709036827087402">
        <ele>538.0</ele>
        <time>2019-04-30T11:28:05.000Z</time>
      </trkpt>
      <trkpt lat="42.5860710144043" lon="-7.709022521972656">
        <ele>537.0</ele>
        <time>2019-04-30T11:28:13.000Z</time>
      </trkpt>
      <trkpt lat="42.586158752441406" lon="-7.709005355834961">
        <ele>537.0</ele>
        <time>2019-04-30T11:28:21.000Z</time>
      </trkpt>
      <trkpt lat="42.5861930847168" lon="-7.70900297164917">
        <ele>536.0</ele>
        <time>2019-04-30T11:28:25.000Z</time>
      </trkpt>
      <trkpt lat="42.586204528808594" lon="-7.7090044021606445">
        <ele>536.0</ele>
        <time>2019-04-30T11:28:29.000Z</time>
      </trkpt>
      <trkpt lat="42.586204528808594" lon="-7.709007740020752">
        <ele>535.0</ele>
        <time>2019-04-30T11:28:33.000Z</time>
      </trkpt>
      <trkpt lat="42.58619689941406" lon="-7.709012985229492">
        <ele>535.0</ele>
        <time>2019-04-30T11:28:37.000Z</time>
      </trkpt>
      <trkpt lat="42.586204528808594" lon="-7.709014415740967">
        <ele>535.0</ele>
        <time>2019-04-30T11:28:37.000Z</time>
      </trkpt>
      <trkpt lat="42.586212158203125" lon="-7.709015369415283">
        <ele>535.0</ele>
        <time>2019-04-30T11:28:38.000Z</time>
      </trkpt>
      <trkpt lat="42.58621597290039" lon="-7.709016799926758">
        <ele>535.0</ele>
        <time>2019-04-30T11:28:38.000Z</time>
      </trkpt>
      <trkpt lat="42.58622360229492" lon="-7.709017753601074">
        <ele>535.0</ele>
        <time>2019-04-30T11:28:38.000Z</time>
      </trkpt>
      <trkpt lat="42.586280822753906" lon="-7.709045886993408">
        <ele>535.0</ele>
        <time>2019-04-30T11:28:42.000Z</time>
      </trkpt>
      <trkpt lat="42.586360931396484" lon="-7.709084987640381">
        <ele>534.0</ele>
        <time>2019-04-30T11:28:47.000Z</time>
      </trkpt>
      <trkpt lat="42.58645248413086" lon="-7.709131717681885">
        <ele>534.0</ele>
        <time>2019-04-30T11:28:51.000Z</time>
      </trkpt>
      <trkpt lat="42.586551666259766" lon="-7.709182262420654">
        <ele>534.0</ele>
        <time>2019-04-30T11:28:55.000Z</time>
      </trkpt>
      <trkpt lat="42.586631774902344" lon="-7.709234714508057">
        <ele>534.0</ele>
        <time>2019-04-30T11:29:02.000Z</time>
      </trkpt>
      <trkpt lat="42.58671188354492" lon="-7.709291458129883">
        <ele>534.0</ele>
        <time>2019-04-30T11:29:09.000Z</time>
      </trkpt>
      <trkpt lat="42.586788177490234" lon="-7.709351062774658">
        <ele>534.0</ele>
        <time>2019-04-30T11:29:15.000Z</time>
      </trkpt>
      <trkpt lat="42.58686447143555" lon="-7.709412574768066">
        <ele>535.0</ele>
        <time>2019-04-30T11:29:22.000Z</time>
      </trkpt>
      <trkpt lat="42.58712387084961" lon="-7.709681510925293">
        <ele>536.0</ele>
        <time>2019-04-30T11:29:52.000Z</time>
      </trkpt>
      <trkpt lat="42.58721923828125" lon="-7.709704399108887">
        <ele>537.0</ele>
        <time>2019-04-30T11:30:12.000Z</time>
      </trkpt>
      <trkpt lat="42.587257385253906" lon="-7.709714412689209">
        <ele>537.0</ele>
        <time>2019-04-30T11:30:13.000Z</time>
      </trkpt>
      <trkpt lat="42.58748245239258" lon="-7.7098212242126465">
        <ele>537.0</ele>
        <time>2019-04-30T11:30:26.000Z</time>
      </trkpt>
      <trkpt lat="42.587642669677734" lon="-7.709811687469482">
        <ele>536.0</ele>
        <time>2019-04-30T11:30:36.000Z</time>
      </trkpt>
      <trkpt lat="42.58766174316406" lon="-7.709810256958008">
        <ele>536.0</ele>
        <time>2019-04-30T11:30:37.000Z</time>
      </trkpt>
      <trkpt lat="42.587860107421875" lon="-7.709796905517578">
        <ele>539.0</ele>
        <time>2019-04-30T11:30:51.000Z</time>
      </trkpt>
      <trkpt lat="42.58804702758789" lon="-7.709803581237793">
        <ele>537.0</ele>
        <time>2019-04-30T11:31:08.000Z</time>
      </trkpt>
      <trkpt lat="42.58822250366211" lon="-7.709773063659668">
        <ele>537.0</ele>
        <time>2019-04-30T11:31:28.000Z</time>
      </trkpt>
      <trkpt lat="42.58855438232422" lon="-7.709781169891357">
        <ele>534.0</ele>
        <time>2019-04-30T11:31:57.000Z</time>
      </trkpt>
      <trkpt lat="42.58872604370117" lon="-7.709772109985352">
        <ele>531.0</ele>
        <time>2019-04-30T11:32:18.000Z</time>
      </trkpt>
      <trkpt lat="42.5887565612793" lon="-7.709779262542725">
        <ele>529.0</ele>
        <time>2019-04-30T11:32:32.000Z</time>
      </trkpt>
      <trkpt lat="42.58877944946289" lon="-7.709784507751465">
        <ele>529.0</ele>
        <time>2019-04-30T11:32:33.000Z</time>
      </trkpt>
      <trkpt lat="42.589111328125" lon="-7.709925174713135">
        <ele>527.0</ele>
        <time>2019-04-30T11:32:49.000Z</time>
      </trkpt>
      <trkpt lat="42.58929443359375" lon="-7.710112571716309">
        <ele>528.0</ele>
        <time>2019-04-30T11:33:13.000Z</time>
      </trkpt>
      <trkpt lat="42.589473724365234" lon="-7.7102179527282715">
        <ele>524.0</ele>
        <time>2019-04-30T11:33:33.000Z</time>
      </trkpt>
      <trkpt lat="42.58964538574219" lon="-7.710324764251709">
        <ele>519.0</ele>
        <time>2019-04-30T11:33:50.000Z</time>
      </trkpt>
      <trkpt lat="42.58980941772461" lon="-7.710461139678955">
        <ele>517.0</ele>
        <time>2019-04-30T11:34:07.000Z</time>
      </trkpt>
      <trkpt lat="42.58998107910156" lon="-7.71058988571167">
        <ele>520.0</ele>
        <time>2019-04-30T11:34:24.000Z</time>
      </trkpt>
      <trkpt lat="42.59030532836914" lon="-7.710773468017578">
        <ele>518.0</ele>
        <time>2019-04-30T11:34:58.000Z</time>
      </trkpt>
      <trkpt lat="42.59060287475586" lon="-7.711035251617432">
        <ele>517.0</ele>
        <time>2019-04-30T11:35:30.000Z</time>
      </trkpt>
      <trkpt lat="42.59088897705078" lon="-7.711308479309082">
        <ele>517.0</ele>
        <time>2019-04-30T11:36:04.000Z</time>
      </trkpt>
      <trkpt lat="42.59096145629883" lon="-7.711328029632568">
        <ele>518.0</ele>
        <time>2019-04-30T11:36:10.000Z</time>
      </trkpt>
      <trkpt lat="42.590999603271484" lon="-7.7112932205200195">
        <ele>518.0</ele>
        <time>2019-04-30T11:36:15.000Z</time>
      </trkpt>
      <trkpt lat="42.59103012084961" lon="-7.711268901824951">
        <ele>520.0</ele>
        <time>2019-04-30T11:36:24.000Z</time>
      </trkpt>
      <trkpt lat="42.5910530090332" lon="-7.711236953735352">
        <ele>523.0</ele>
        <time>2019-04-30T11:36:33.000Z</time>
      </trkpt>
      <trkpt lat="42.591060638427734" lon="-7.7112274169921875">
        <ele>524.0</ele>
        <time>2019-04-30T11:36:33.000Z</time>
      </trkpt>
      <trkpt lat="42.591068267822266" lon="-7.7112202644348145">
        <ele>524.0</ele>
        <time>2019-04-30T11:36:33.000Z</time>
      </trkpt>
      <trkpt lat="42.5910758972168" lon="-7.711214065551758">
        <ele>524.0</ele>
        <time>2019-04-30T11:36:34.000Z</time>
      </trkpt>
      <trkpt lat="42.59107971191406" lon="-7.711208343505859">
        <ele>523.0</ele>
        <time>2019-04-30T11:36:34.000Z</time>
      </trkpt>
      <trkpt lat="42.59110641479492" lon="-7.711187362670898">
        <ele>524.0</ele>
        <time>2019-04-30T11:36:35.000Z</time>
      </trkpt>
      <trkpt lat="42.59113693237305" lon="-7.711160182952881">
        <ele>524.0</ele>
        <time>2019-04-30T11:36:37.000Z</time>
      </trkpt>
      <trkpt lat="42.5911750793457" lon="-7.711129188537598">
        <ele>524.0</ele>
        <time>2019-04-30T11:36:38.000Z</time>
      </trkpt>
      <trkpt lat="42.591217041015625" lon="-7.711096286773682">
        <ele>524.0</ele>
        <time>2019-04-30T11:36:40.000Z</time>
      </trkpt>
      <trkpt lat="42.59125900268555" lon="-7.711145877838135">
        <ele>524.0</ele>
        <time>2019-04-30T11:36:46.000Z</time>
      </trkpt>
      <trkpt lat="42.59130096435547" lon="-7.7112274169921875">
        <ele>523.0</ele>
        <time>2019-04-30T11:36:52.000Z</time>
      </trkpt>
      <trkpt lat="42.591346740722656" lon="-7.711331367492676">
        <ele>522.0</ele>
        <time>2019-04-30T11:36:59.000Z</time>
      </trkpt>
      <trkpt lat="42.591392517089844" lon="-7.711445331573486">
        <ele>521.0</ele>
        <time>2019-04-30T11:37:05.000Z</time>
      </trkpt>
      <trkpt lat="42.591434478759766" lon="-7.711519241333008">
        <ele>520.0</ele>
        <time>2019-04-30T11:37:12.000Z</time>
      </trkpt>
      <trkpt lat="42.59147644042969" lon="-7.711586952209473">
        <ele>518.0</ele>
        <time>2019-04-30T11:37:19.000Z</time>
      </trkpt>
      <trkpt lat="42.59151840209961" lon="-7.711650848388672">
        <ele>517.0</ele>
        <time>2019-04-30T11:37:27.000Z</time>
      </trkpt>
      <trkpt lat="42.59156036376953" lon="-7.711712837219238">
        <ele>515.0</ele>
        <time>2019-04-30T11:37:34.000Z</time>
      </trkpt>
      <trkpt lat="42.591575622558594" lon="-7.711737632751465">
        <ele>514.0</ele>
        <time>2019-04-30T11:37:38.000Z</time>
      </trkpt>
      <trkpt lat="42.59158706665039" lon="-7.711744785308838">
        <ele>512.0</ele>
        <time>2019-04-30T11:37:41.000Z</time>
      </trkpt>
      <trkpt lat="42.59158706665039" lon="-7.711740493774414">
        <ele>511.0</ele>
        <time>2019-04-30T11:37:45.000Z</time>
      </trkpt>
      <trkpt lat="42.59158706665039" lon="-7.711730003356934">
        <ele>510.0</ele>
        <time>2019-04-30T11:37:49.000Z</time>
      </trkpt>
      <trkpt lat="42.591590881347656" lon="-7.711733818054199">
        <ele>510.0</ele>
        <time>2019-04-30T11:37:49.000Z</time>
      </trkpt>
      <trkpt lat="42.59159469604492" lon="-7.711737632751465">
        <ele>510.0</ele>
        <time>2019-04-30T11:37:49.000Z</time>
      </trkpt>
      <trkpt lat="42.59160232543945" lon="-7.711740970611572">
        <ele>510.0</ele>
        <time>2019-04-30T11:37:50.000Z</time>
      </trkpt>
      <trkpt lat="42.59160614013672" lon="-7.7117438316345215">
        <ele>510.0</ele>
        <time>2019-04-30T11:37:50.000Z</time>
      </trkpt>
      <trkpt lat="42.59165954589844" lon="-7.711785316467285">
        <ele>510.0</ele>
        <time>2019-04-30T11:37:53.000Z</time>
      </trkpt>
      <trkpt lat="42.591732025146484" lon="-7.711843013763428">
        <ele>509.0</ele>
        <time>2019-04-30T11:37:57.000Z</time>
      </trkpt>
      <trkpt lat="42.59181594848633" lon="-7.711911201477051">
        <ele>509.0</ele>
        <time>2019-04-30T11:38:00.000Z</time>
      </trkpt>
      <trkpt lat="42.5919075012207" lon="-7.711984634399414">
        <ele>508.0</ele>
        <time>2019-04-30T11:38:04.000Z</time>
      </trkpt>
      <trkpt lat="42.59198760986328" lon="-7.712032794952393">
        <ele>508.0</ele>
        <time>2019-04-30T11:38:11.000Z</time>
      </trkpt>
      <trkpt lat="42.592071533203125" lon="-7.712076663970947">
        <ele>507.0</ele>
        <time>2019-04-30T11:38:18.000Z</time>
      </trkpt>
      <trkpt lat="42.592159271240234" lon="-7.712116718292236">
        <ele>506.0</ele>
        <time>2019-04-30T11:38:26.000Z</time>
      </trkpt>
      <trkpt lat="42.59224319458008" lon="-7.712155342102051">
        <ele>506.0</ele>
        <time>2019-04-30T11:38:33.000Z</time>
      </trkpt>
      <trkpt lat="42.59251403808594" lon="-7.71231746673584">
        <ele>504.0</ele>
        <time>2019-04-30T11:38:57.000Z</time>
      </trkpt>
      <trkpt lat="42.592803955078125" lon="-7.712499141693115">
        <ele>500.0</ele>
        <time>2019-04-30T11:39:31.000Z</time>
      </trkpt>
      <trkpt lat="42.59285354614258" lon="-7.7125420570373535">
        <ele>497.0</ele>
        <time>2019-04-30T11:39:48.000Z</time>
      </trkpt>
      <trkpt lat="42.5928840637207" lon="-7.712566375732422">
        <ele>497.0</ele>
        <time>2019-04-30T11:39:49.000Z</time>
      </trkpt>
      <trkpt lat="42.593017578125" lon="-7.7126593589782715">
        <ele>497.0</ele>
        <time>2019-04-30T11:39:57.000Z</time>
      </trkpt>
      <trkpt lat="42.59313201904297" lon="-7.7126898765563965">
        <ele>500.0</ele>
        <time>2019-04-30T11:40:13.000Z</time>
      </trkpt>
      <trkpt lat="42.59316635131836" lon="-7.712698936462402">
        <ele>500.0</ele>
        <time>2019-04-30T11:40:14.000Z</time>
      </trkpt>
      <trkpt lat="42.59349822998047" lon="-7.712711334228516">
        <ele>505.0</ele>
        <time>2019-04-30T11:40:39.000Z</time>
      </trkpt>
      <trkpt lat="42.593570709228516" lon="-7.712745666503906">
        <ele>502.0</ele>
        <time>2019-04-30T11:40:52.000Z</time>
      </trkpt>
      <trkpt lat="42.593563079833984" lon="-7.712761402130127">
        <ele>502.0</ele>
        <time>2019-04-30T11:41:18.000Z</time>
      </trkpt>
      <trkpt lat="42.593544006347656" lon="-7.712779998779297">
        <ele>501.0</ele>
        <time>2019-04-30T11:41:43.000Z</time>
      </trkpt>
      <trkpt lat="42.5935173034668" lon="-7.712800979614258">
        <ele>500.0</ele>
        <time>2019-04-30T11:42:09.000Z</time>
      </trkpt>
      <trkpt lat="42.59348678588867" lon="-7.712822437286377">
        <ele>500.0</ele>
        <time>2019-04-30T11:42:34.000Z</time>
      </trkpt>
      <trkpt lat="42.593475341796875" lon="-7.712833881378174">
        <ele>500.0</ele>
        <time>2019-04-30T11:42:34.000Z</time>
      </trkpt>
      <trkpt lat="42.593467712402344" lon="-7.712841987609863">
        <ele>500.0</ele>
        <time>2019-04-30T11:42:35.000Z</time>
      </trkpt>
      <trkpt lat="42.59346008300781" lon="-7.71284818649292">
        <ele>500.0</ele>
        <time>2019-04-30T11:42:35.000Z</time>
      </trkpt>
      <trkpt lat="42.59345626831055" lon="-7.712852954864502">
        <ele>500.0</ele>
        <time>2019-04-30T11:42:35.000Z</time>
      </trkpt>
      <trkpt lat="42.59339904785156" lon="-7.712882995605469">
        <ele>500.0</ele>
        <time>2019-04-30T11:42:42.000Z</time>
      </trkpt>
      <trkpt lat="42.593318939208984" lon="-7.712923049926758">
        <ele>500.0</ele>
        <time>2019-04-30T11:42:48.000Z</time>
      </trkpt>
      <trkpt lat="42.59322738647461" lon="-7.7129693031311035">
        <ele>500.0</ele>
        <time>2019-04-30T11:42:55.000Z</time>
      </trkpt>
      <trkpt lat="42.59312438964844" lon="-7.713018894195557">
        <ele>500.0</ele>
        <time>2019-04-30T11:43:01.000Z</time>
      </trkpt>
      <trkpt lat="42.59305191040039" lon="-7.713097095489502">
        <ele>501.0</ele>
        <time>2019-04-30T11:43:06.000Z</time>
      </trkpt>
      <trkpt lat="42.593013763427734" lon="-7.713172912597656">
        <ele>502.0</ele>
        <time>2019-04-30T11:43:10.000Z</time>
      </trkpt>
      <trkpt lat="42.592979431152344" lon="-7.713191032409668">
        <ele>502.0</ele>
        <time>2019-04-30T11:43:14.000Z</time>
      </trkpt>
      <trkpt lat="42.59293746948242" lon="-7.713200092315674">
        <ele>502.0</ele>
        <time>2019-04-30T11:43:18.000Z</time>
      </trkpt>
      <trkpt lat="42.5928955078125" lon="-7.713203430175781">
        <ele>503.0</ele>
        <time>2019-04-30T11:43:22.000Z</time>
      </trkpt>
      <trkpt lat="42.59284973144531" lon="-7.713203430175781">
        <ele>504.0</ele>
        <time>2019-04-30T11:43:26.000Z</time>
      </trkpt>
      <trkpt lat="42.592830657958984" lon="-7.7132086753845215">
        <ele>504.0</ele>
        <time>2019-04-30T11:43:30.000Z</time>
      </trkpt>
      <trkpt lat="42.59282302856445" lon="-7.713212490081787">
        <ele>504.0</ele>
        <time>2019-04-30T11:43:34.000Z</time>
      </trkpt>
      <trkpt lat="42.59281921386719" lon="-7.713215351104736">
        <ele>505.0</ele>
        <time>2019-04-30T11:43:38.000Z</time>
      </trkpt>
      <trkpt lat="42.59282302856445" lon="-7.713217735290527">
        <ele>505.0</ele>
        <time>2019-04-30T11:43:42.000Z</time>
      </trkpt>
      <trkpt lat="42.59281539916992" lon="-7.713220596313477">
        <ele>505.0</ele>
        <time>2019-04-30T11:43:42.000Z</time>
      </trkpt>
      <trkpt lat="42.592811584472656" lon="-7.713223457336426">
        <ele>505.0</ele>
        <time>2019-04-30T11:43:43.000Z</time>
      </trkpt>
      <trkpt lat="42.59280776977539" lon="-7.713226318359375">
        <ele>505.0</ele>
        <time>2019-04-30T11:43:43.000Z</time>
      </trkpt>
      <trkpt lat="42.592803955078125" lon="-7.713228702545166">
        <ele>505.0</ele>
        <time>2019-04-30T11:43:43.000Z</time>
      </trkpt>
      <trkpt lat="42.5927619934082" lon="-7.713249206542969">
        <ele>505.0</ele>
        <time>2019-04-30T11:43:45.000Z</time>
      </trkpt>
      <trkpt lat="42.59270477294922" lon="-7.7132768630981445">
        <ele>505.0</ele>
        <time>2019-04-30T11:43:47.000Z</time>
      </trkpt>
      <trkpt lat="42.59263610839844" lon="-7.7133097648620605">
        <ele>505.0</ele>
        <time>2019-04-30T11:43:49.000Z</time>
      </trkpt>
      <trkpt lat="42.59256362915039" lon="-7.713345050811768">
        <ele>505.0</ele>
        <time>2019-04-30T11:43:51.000Z</time>
      </trkpt>
      <trkpt lat="42.592533111572266" lon="-7.713378429412842">
        <ele>504.0</ele>
        <time>2019-04-30T11:43:53.000Z</time>
      </trkpt>
      <trkpt lat="42.59251403808594" lon="-7.713413238525391">
        <ele>503.0</ele>
        <time>2019-04-30T11:43:56.000Z</time>
      </trkpt>
      <trkpt lat="42.592506408691406" lon="-7.713449001312256">
        <ele>502.0</ele>
        <time>2019-04-30T11:43:58.000Z</time>
      </trkpt>
      <trkpt lat="42.59250259399414" lon="-7.7134857177734375">
        <ele>501.0</ele>
        <time>2019-04-30T11:44:00.000Z</time>
      </trkpt>
      <trkpt lat="42.59247589111328" lon="-7.713574409484863">
        <ele>500.0</ele>
        <time>2019-04-30T11:44:07.000Z</time>
      </trkpt>
      <trkpt lat="42.592445373535156" lon="-7.713685512542725">
        <ele>499.0</ele>
        <time>2019-04-30T11:44:14.000Z</time>
      </trkpt>
      <trkpt lat="42.59241485595703" lon="-7.71381139755249">
        <ele>499.0</ele>
        <time>2019-04-30T11:44:20.000Z</time>
      </trkpt>
      <trkpt lat="42.59238052368164" lon="-7.713944911956787">
        <ele>498.0</ele>
        <time>2019-04-30T11:44:27.000Z</time>
      </trkpt>
      <trkpt lat="42.59235382080078" lon="-7.714060306549072">
        <ele>498.0</ele>
        <time>2019-04-30T11:44:35.000Z</time>
      </trkpt>
      <trkpt lat="42.59233093261719" lon="-7.714175224304199">
        <ele>497.0</ele>
        <time>2019-04-30T11:44:43.000Z</time>
      </trkpt>
      <trkpt lat="42.592308044433594" lon="-7.714290618896484">
        <ele>497.0</ele>
        <time>2019-04-30T11:44:51.000Z</time>
      </trkpt>
      <trkpt lat="42.592288970947266" lon="-7.714406490325928">
        <ele>497.0</ele>
        <time>2019-04-30T11:44:59.000Z</time>
      </trkpt>
      <trkpt lat="42.59230041503906" lon="-7.7145161628723145">
        <ele>497.0</ele>
        <time>2019-04-30T11:45:11.000Z</time>
      </trkpt>
      <trkpt lat="42.59233093261719" lon="-7.714624404907227">
        <ele>497.0</ele>
        <time>2019-04-30T11:45:23.000Z</time>
      </trkpt>
      <trkpt lat="42.592369079589844" lon="-7.714730739593506">
        <ele>496.0</ele>
        <time>2019-04-30T11:45:35.000Z</time>
      </trkpt>
      <trkpt lat="42.59241485595703" lon="-7.714836597442627">
        <ele>496.0</ele>
        <time>2019-04-30T11:45:47.000Z</time>
      </trkpt>
      <trkpt lat="42.592464447021484" lon="-7.714913368225098">
        <ele>495.0</ele>
        <time>2019-04-30T11:45:54.000Z</time>
      </trkpt>
      <trkpt lat="42.59251403808594" lon="-7.714925765991211">
        <ele>493.0</ele>
        <time>2019-04-30T11:46:02.000Z</time>
      </trkpt>
      <trkpt lat="42.592533111572266" lon="-7.714961051940918">
        <ele>491.0</ele>
        <time>2019-04-30T11:46:29.000Z</time>
      </trkpt>
      <trkpt lat="42.59253692626953" lon="-7.714991569519043">
        <ele>490.0</ele>
        <time>2019-04-30T11:46:56.000Z</time>
      </trkpt>
      <trkpt lat="42.5925407409668" lon="-7.715003490447998">
        <ele>490.0</ele>
        <time>2019-04-30T11:46:56.000Z</time>
      </trkpt>
      <trkpt lat="42.59254455566406" lon="-7.715013027191162">
        <ele>490.0</ele>
        <time>2019-04-30T11:46:56.000Z</time>
      </trkpt>
      <trkpt lat="42.59254837036133" lon="-7.71502161026001">
        <ele>490.0</ele>
        <time>2019-04-30T11:46:57.000Z</time>
      </trkpt>
      <trkpt lat="42.592552185058594" lon="-7.715029239654541">
        <ele>490.0</ele>
        <time>2019-04-30T11:46:57.000Z</time>
      </trkpt>
      <trkpt lat="42.59259033203125" lon="-7.715095520019531">
        <ele>490.0</ele>
        <time>2019-04-30T11:47:05.000Z</time>
      </trkpt>
      <trkpt lat="42.5926399230957" lon="-7.715185165405273">
        <ele>489.0</ele>
        <time>2019-04-30T11:47:13.000Z</time>
      </trkpt>
      <trkpt lat="42.59270095825195" lon="-7.7152910232543945">
        <ele>489.0</ele>
        <time>2019-04-30T11:47:20.000Z</time>
      </trkpt>
      <trkpt lat="42.59276580810547" lon="-7.715404987335205">
        <ele>488.0</ele>
        <time>2019-04-30T11:47:28.000Z</time>
      </trkpt>
      <trkpt lat="42.59291076660156" lon="-7.715530872344971">
        <ele>486.0</ele>
        <time>2019-04-30T11:47:46.000Z</time>
      </trkpt>
      <trkpt lat="42.59307098388672" lon="-7.715628147125244">
        <ele>484.0</ele>
        <time>2019-04-30T11:48:03.000Z</time>
      </trkpt>
      <trkpt lat="42.5931282043457" lon="-7.715683937072754">
        <ele>483.0</ele>
        <time>2019-04-30T11:48:11.000Z</time>
      </trkpt>
      <trkpt lat="42.593177795410156" lon="-7.715739727020264">
        <ele>482.0</ele>
        <time>2019-04-30T11:48:18.000Z</time>
      </trkpt>
      <trkpt lat="42.59321975708008" lon="-7.715795040130615">
        <ele>481.0</ele>
        <time>2019-04-30T11:48:26.000Z</time>
      </trkpt>
      <trkpt lat="42.59326171875" lon="-7.715850830078125">
        <ele>480.0</ele>
        <time>2019-04-30T11:48:33.000Z</time>
      </trkpt>
      <trkpt lat="42.59328079223633" lon="-7.715882778167725">
        <ele>479.0</ele>
        <time>2019-04-30T11:48:43.000Z</time>
      </trkpt>
      <trkpt lat="42.59326171875" lon="-7.715878486633301">
        <ele>478.0</ele>
        <time>2019-04-30T11:48:53.000Z</time>
      </trkpt>
      <trkpt lat="42.59326171875" lon="-7.715884685516357">
        <ele>478.0</ele>
        <time>2019-04-30T11:48:54.000Z</time>
      </trkpt>
      <trkpt lat="42.593265533447266" lon="-7.715890407562256">
        <ele>478.0</ele>
        <time>2019-04-30T11:48:54.000Z</time>
      </trkpt>
      <trkpt lat="42.593265533447266" lon="-7.715895652770996">
        <ele>478.0</ele>
        <time>2019-04-30T11:48:54.000Z</time>
      </trkpt>
      <trkpt lat="42.593265533447266" lon="-7.715900897979736">
        <ele>478.0</ele>
        <time>2019-04-30T11:48:54.000Z</time>
      </trkpt>
      <trkpt lat="42.593265533447266" lon="-7.715904235839844">
        <ele>478.0</ele>
        <time>2019-04-30T11:48:55.000Z</time>
      </trkpt>
      <trkpt lat="42.593265533447266" lon="-7.715907096862793">
        <ele>478.0</ele>
        <time>2019-04-30T11:48:55.000Z</time>
      </trkpt>
      <trkpt lat="42.593265533447266" lon="-7.715909004211426">
        <ele>478.0</ele>
        <time>2019-04-30T11:48:55.000Z</time>
      </trkpt>
      <trkpt lat="42.593265533447266" lon="-7.7159104347229">
        <ele>478.0</ele>
        <time>2019-04-30T11:48:55.000Z</time>
      </trkpt>
      <trkpt lat="42.593265533447266" lon="-7.71592378616333">
        <ele>478.0</ele>
        <time>2019-04-30T11:48:56.000Z</time>
      </trkpt>
      <trkpt lat="42.59326934814453" lon="-7.7159423828125">
        <ele>478.0</ele>
        <time>2019-04-30T11:48:56.000Z</time>
      </trkpt>
      <trkpt lat="42.59326934814453" lon="-7.715963840484619">
        <ele>478.0</ele>
        <time>2019-04-30T11:48:57.000Z</time>
      </trkpt>
      <trkpt lat="42.5932731628418" lon="-7.715986728668213">
        <ele>478.0</ele>
        <time>2019-04-30T11:48:57.000Z</time>
      </trkpt>
      <trkpt lat="42.5932731628418" lon="-7.716000080108643">
        <ele>477.0</ele>
        <time>2019-04-30T11:48:58.000Z</time>
      </trkpt>
      <trkpt lat="42.5932731628418" lon="-7.7160115242004395">
        <ele>477.0</ele>
        <time>2019-04-30T11:48:58.000Z</time>
      </trkpt>
      <trkpt lat="42.5932731628418" lon="-7.7160210609436035">
        <ele>477.0</ele>
        <time>2019-04-30T11:48:58.000Z</time>
      </trkpt>
      <trkpt lat="42.59327697753906" lon="-7.716029644012451">
        <ele>478.0</ele>
        <time>2019-04-30T11:48:58.000Z</time>
      </trkpt>
      <trkpt lat="42.59328079223633" lon="-7.716055870056152">
        <ele>477.0</ele>
        <time>2019-04-30T11:49:00.000Z</time>
      </trkpt>
      <trkpt lat="42.593292236328125" lon="-7.716088771820068">
        <ele>477.0</ele>
        <time>2019-04-30T11:49:01.000Z</time>
      </trkpt>
      <trkpt lat="42.593299865722656" lon="-7.716126441955566">
        <ele>477.0</ele>
        <time>2019-04-30T11:49:02.000Z</time>
      </trkpt>
      <trkpt lat="42.59331130981445" lon="-7.716166019439697">
        <ele>477.0</ele>
        <time>2019-04-30T11:49:03.000Z</time>
      </trkpt>
      <trkpt lat="42.59331130981445" lon="-7.716190814971924">
        <ele>476.0</ele>
        <time>2019-04-30T11:49:26.000Z</time>
      </trkpt>
      <trkpt lat="42.59331512451172" lon="-7.716211795806885">
        <ele>476.0</ele>
        <time>2019-04-30T11:49:27.000Z</time>
      </trkpt>
      <trkpt lat="42.593318939208984" lon="-7.716464519500732">
        <ele>476.0</ele>
        <time>2019-04-30T11:49:32.000Z</time>
      </trkpt>
      <trkpt lat="42.59331512451172" lon="-7.716554641723633">
        <ele>475.0</ele>
        <time>2019-04-30T11:49:46.000Z</time>
      </trkpt>
      <trkpt lat="42.59331130981445" lon="-7.7166056632995605">
        <ele>475.0</ele>
        <time>2019-04-30T11:49:47.000Z</time>
      </trkpt>
      <trkpt lat="42.593318939208984" lon="-7.716805458068848">
        <ele>475.0</ele>
        <time>2019-04-30T11:49:52.000Z</time>
      </trkpt>
      <trkpt lat="42.593326568603516" lon="-7.716829299926758">
        <ele>473.0</ele>
        <time>2019-04-30T11:50:06.000Z</time>
      </trkpt>
      <trkpt lat="42.59333419799805" lon="-7.716848850250244">
        <ele>473.0</ele>
        <time>2019-04-30T11:50:07.000Z</time>
      </trkpt>
      <trkpt lat="42.59334945678711" lon="-7.716881275177002">
        <ele>473.0</ele>
        <time>2019-04-30T11:50:09.000Z</time>
      </trkpt>
      <trkpt lat="42.59335708618164" lon="-7.716897010803223">
        <ele>472.0</ele>
        <time>2019-04-30T11:50:12.000Z</time>
      </trkpt>
      <trkpt lat="42.59336471557617" lon="-7.716911315917969">
        <ele>472.0</ele>
        <time>2019-04-30T11:50:13.000Z</time>
      </trkpt>
      <trkpt lat="42.593505859375" lon="-7.71710205078125">
        <ele>472.0</ele>
        <time>2019-04-30T11:50:19.000Z</time>
      </trkpt>
      <trkpt lat="42.593509674072266" lon="-7.717106819152832">
        <ele>468.0</ele>
        <time>2019-04-30T11:50:38.000Z</time>
      </trkpt>
      <trkpt lat="42.59351348876953" lon="-7.717111110687256">
        <ele>468.0</ele>
        <time>2019-04-30T11:50:39.000Z</time>
      </trkpt>
      <trkpt lat="42.59373092651367" lon="-7.717287063598633">
        <ele>461.0</ele>
        <time>2019-04-30T11:50:55.000Z</time>
      </trkpt>
      <trkpt lat="42.59379196166992" lon="-7.717402458190918">
        <ele>457.0</ele>
        <time>2019-04-30T11:51:22.000Z</time>
      </trkpt>
      <trkpt lat="42.59381866455078" lon="-7.717450141906738">
        <ele>457.0</ele>
        <time>2019-04-30T11:51:23.000Z</time>
      </trkpt>
      <trkpt lat="42.5938720703125" lon="-7.717813968658447">
        <ele>454.0</ele>
        <time>2019-04-30T11:51:46.000Z</time>
      </trkpt>
      <trkpt lat="42.5938720703125" lon="-7.717829704284668">
        <ele>453.0</ele>
        <time>2019-04-30T11:52:21.000Z</time>
      </trkpt>
      <trkpt lat="42.593875885009766" lon="-7.717844009399414">
        <ele>453.0</ele>
        <time>2019-04-30T11:52:22.000Z</time>
      </trkpt>
      <trkpt lat="42.59404373168945" lon="-7.718255996704102">
        <ele>453.0</ele>
        <time>2019-04-30T11:52:34.000Z</time>
      </trkpt>
      <trkpt lat="42.59421157836914" lon="-7.71845006942749">
        <ele>451.0</ele>
        <time>2019-04-30T11:53:01.000Z</time>
      </trkpt>
      <trkpt lat="42.594234466552734" lon="-7.71846866607666">
        <ele>452.0</ele>
        <time>2019-04-30T11:53:27.000Z</time>
      </trkpt>
      <trkpt lat="42.5942497253418" lon="-7.718482971191406">
        <ele>452.0</ele>
        <time>2019-04-30T11:53:28.000Z</time>
      </trkpt>
      <trkpt lat="42.59450912475586" lon="-7.7188029289245605">
        <ele>450.0</ele>
        <time>2019-04-30T11:53:57.000Z</time>
      </trkpt>
      <trkpt lat="42.594520568847656" lon="-7.718824863433838">
        <ele>449.0</ele>
        <time>2019-04-30T11:54:01.000Z</time>
      </trkpt>
      <trkpt lat="42.59455108642578" lon="-7.718887805938721">
        <ele>440.0</ele>
        <time>2019-04-30T11:54:33.000Z</time>
      </trkpt>
      <trkpt lat="42.59457015991211" lon="-7.718921184539795">
        <ele>440.0</ele>
        <time>2019-04-30T11:54:34.000Z</time>
      </trkpt>
      <trkpt lat="42.59467315673828" lon="-7.719080924987793">
        <ele>439.0</ele>
        <time>2019-04-30T11:54:45.000Z</time>
      </trkpt>
      <trkpt lat="42.59468460083008" lon="-7.71909236907959">
        <ele>438.0</ele>
        <time>2019-04-30T11:55:03.000Z</time>
      </trkpt>
      <trkpt lat="42.59469223022461" lon="-7.719102382659912">
        <ele>438.0</ele>
        <time>2019-04-30T11:55:04.000Z</time>
      </trkpt>
      <trkpt lat="42.59492874145508" lon="-7.719417095184326">
        <ele>436.0</ele>
        <time>2019-04-30T11:55:31.000Z</time>
      </trkpt>
      <trkpt lat="42.595001220703125" lon="-7.719503402709961">
        <ele>436.0</ele>
        <time>2019-04-30T11:55:55.000Z</time>
      </trkpt>
      <trkpt lat="42.59502410888672" lon="-7.719533920288086">
        <ele>436.0</ele>
        <time>2019-04-30T11:55:56.000Z</time>
      </trkpt>
      <trkpt lat="42.595088958740234" lon="-7.719608306884766">
        <ele>436.0</ele>
        <time>2019-04-30T11:56:00.000Z</time>
      </trkpt>
      <trkpt lat="42.595096588134766" lon="-7.719638347625732">
        <ele>431.0</ele>
        <time>2019-04-30T11:56:23.000Z</time>
      </trkpt>
      <trkpt lat="42.59510040283203" lon="-7.719665050506592">
        <ele>425.0</ele>
        <time>2019-04-30T11:56:46.000Z</time>
      </trkpt>
      <trkpt lat="42.5951042175293" lon="-7.7196760177612305">
        <ele>424.0</ele>
        <time>2019-04-30T11:56:46.000Z</time>
      </trkpt>
      <trkpt lat="42.5951042175293" lon="-7.719685077667236">
        <ele>424.0</ele>
        <time>2019-04-30T11:56:47.000Z</time>
      </trkpt>
      <trkpt lat="42.59510803222656" lon="-7.719693183898926">
        <ele>425.0</ele>
        <time>2019-04-30T11:56:47.000Z</time>
      </trkpt>
      <trkpt lat="42.59510803222656" lon="-7.719700813293457">
        <ele>425.0</ele>
        <time>2019-04-30T11:56:47.000Z</time>
      </trkpt>
      <trkpt lat="42.59512710571289" lon="-7.719743251800537">
        <ele>425.0</ele>
        <time>2019-04-30T11:56:51.000Z</time>
      </trkpt>
      <trkpt lat="42.59515380859375" lon="-7.719799995422363">
        <ele>425.0</ele>
        <time>2019-04-30T11:56:54.000Z</time>
      </trkpt>
      <trkpt lat="42.595184326171875" lon="-7.719865798950195">
        <ele>425.0</ele>
        <time>2019-04-30T11:56:58.000Z</time>
      </trkpt>
      <trkpt lat="42.59521484375" lon="-7.719936370849609">
        <ele>425.0</ele>
        <time>2019-04-30T11:57:01.000Z</time>
      </trkpt>
      <trkpt lat="42.595237731933594" lon="-7.71996545791626">
        <ele>427.0</ele>
        <time>2019-04-30T11:57:33.000Z</time>
      </trkpt>
      <trkpt lat="42.595245361328125" lon="-7.7199530601501465">
        <ele>429.0</ele>
        <time>2019-04-30T11:58:05.000Z</time>
      </trkpt>
      <trkpt lat="42.59524917602539" lon="-7.719956874847412">
        <ele>429.0</ele>
        <time>2019-04-30T11:58:05.000Z</time>
      </trkpt>
      <trkpt lat="42.59525680541992" lon="-7.7199602127075195">
        <ele>429.0</ele>
        <time>2019-04-30T11:58:06.000Z</time>
      </trkpt>
      <trkpt lat="42.59526062011719" lon="-7.719963550567627">
        <ele>429.0</ele>
        <time>2019-04-30T11:58:06.000Z</time>
      </trkpt>
      <trkpt lat="42.59526824951172" lon="-7.719966888427734">
        <ele>429.0</ele>
        <time>2019-04-30T11:58:06.000Z</time>
      </trkpt>
      <trkpt lat="42.59529113769531" lon="-7.719982147216797">
        <ele>429.0</ele>
        <time>2019-04-30T11:58:07.000Z</time>
      </trkpt>
      <trkpt lat="42.59532165527344" lon="-7.720002174377441">
        <ele>429.0</ele>
        <time>2019-04-30T11:58:07.000Z</time>
      </trkpt>
      <trkpt lat="42.595359802246094" lon="-7.720026016235352">
        <ele>429.0</ele>
        <time>2019-04-30T11:58:08.000Z</time>
      </trkpt>
      <trkpt lat="42.59539794921875" lon="-7.720051288604736">
        <ele>429.0</ele>
        <time>2019-04-30T11:58:08.000Z</time>
      </trkpt>
      <trkpt lat="42.59543228149414" lon="-7.720076560974121">
        <ele>429.0</ele>
        <time>2019-04-30T11:58:10.000Z</time>
      </trkpt>
      <trkpt lat="42.59546661376953" lon="-7.7201032638549805">
        <ele>429.0</ele>
        <time>2019-04-30T11:58:11.000Z</time>
      </trkpt>
      <trkpt lat="42.59550094604492" lon="-7.7201313972473145">
        <ele>429.0</ele>
        <time>2019-04-30T11:58:13.000Z</time>
      </trkpt>
      <trkpt lat="42.59553527832031" lon="-7.720160007476807">
        <ele>429.0</ele>
        <time>2019-04-30T11:58:14.000Z</time>
      </trkpt>
      <trkpt lat="42.595550537109375" lon="-7.720162391662598">
        <ele>427.0</ele>
        <time>2019-04-30T11:58:36.000Z</time>
      </trkpt>
      <trkpt lat="42.59556198120117" lon="-7.720154762268066">
        <ele>425.0</ele>
        <time>2019-04-30T11:58:57.000Z</time>
      </trkpt>
      <trkpt lat="42.59556579589844" lon="-7.720139980316162">
        <ele>422.0</ele>
        <time>2019-04-30T11:59:19.000Z</time>
      </trkpt>
      <trkpt lat="42.5955696105957" lon="-7.72012186050415">
        <ele>419.0</ele>
        <time>2019-04-30T11:59:40.000Z</time>
      </trkpt>
      <trkpt lat="42.59557342529297" lon="-7.720114231109619">
        <ele>419.0</ele>
        <time>2019-04-30T11:59:40.000Z</time>
      </trkpt>
      <trkpt lat="42.5955810546875" lon="-7.7201080322265625">
        <ele>419.0</ele>
        <time>2019-04-30T11:59:41.000Z</time>
      </trkpt>
      <trkpt lat="42.595584869384766" lon="-7.720102310180664">
        <ele>419.0</ele>
        <time>2019-04-30T11:59:41.000Z</time>
      </trkpt>
      <trkpt lat="42.5955924987793" lon="-7.720096588134766">
        <ele>419.0</ele>
        <time>2019-04-30T11:59:41.000Z</time>
      </trkpt>
      <trkpt lat="42.595611572265625" lon="-7.720080375671387">
        <ele>419.0</ele>
        <time>2019-04-30T11:59:42.000Z</time>
      </trkpt>
      <trkpt lat="42.59563446044922" lon="-7.720060348510742">
        <ele>419.0</ele>
        <time>2019-04-30T11:59:43.000Z</time>
      </trkpt>
      <trkpt lat="42.595664978027344" lon="-7.720037937164307">
        <ele>419.0</ele>
        <time>2019-04-30T11:59:44.000Z</time>
      </trkpt>
      <trkpt lat="42.59569549560547" lon="-7.720013618469238">
        <ele>419.0</ele>
        <time>2019-04-30T11:59:45.000Z</time>
      </trkpt>
      <trkpt lat="42.595733642578125" lon="-7.720016956329346">
        <ele>419.0</ele>
        <time>2019-04-30T11:59:49.000Z</time>
      </trkpt>
      <trkpt lat="42.59577560424805" lon="-7.720029830932617">
        <ele>419.0</ele>
        <time>2019-04-30T11:59:53.000Z</time>
      </trkpt>
      <trkpt lat="42.595821380615234" lon="-7.7200493812561035">
        <ele>418.0</ele>
        <time>2019-04-30T11:59:57.000Z</time>
      </trkpt>
      <trkpt lat="42.59587097167969" lon="-7.720072269439697">
        <ele>418.0</ele>
        <time>2019-04-30T12:00:02.000Z</time>
      </trkpt>
      <trkpt lat="42.59590148925781" lon="-7.720080852508545">
        <ele>417.0</ele>
        <time>2019-04-30T12:00:15.000Z</time>
      </trkpt>
      <trkpt lat="42.595924377441406" lon="-7.720087051391602">
        <ele>415.0</ele>
        <time>2019-04-30T12:00:28.000Z</time>
      </trkpt>
      <trkpt lat="42.595947265625" lon="-7.720091342926025">
        <ele>413.0</ele>
        <time>2019-04-30T12:00:42.000Z</time>
      </trkpt>
      <trkpt lat="42.59596633911133" lon="-7.720094680786133">
        <ele>411.0</ele>
        <time>2019-04-30T12:00:55.000Z</time>
      </trkpt>
      <trkpt lat="42.59598159790039" lon="-7.720098495483398">
        <ele>411.0</ele>
        <time>2019-04-30T12:00:56.000Z</time>
      </trkpt>
      <trkpt lat="42.59598922729492" lon="-7.7201008796691895">
        <ele>411.0</ele>
        <time>2019-04-30T12:00:56.000Z</time>
      </trkpt>
      <trkpt lat="42.59599685668945" lon="-7.720102310180664">
        <ele>411.0</ele>
        <time>2019-04-30T12:00:56.000Z</time>
      </trkpt>
      <trkpt lat="42.596004486083984" lon="-7.720103740692139">
        <ele>411.0</ele>
        <time>2019-04-30T12:00:56.000Z</time>
      </trkpt>
      <trkpt lat="42.59603500366211" lon="-7.720126628875732">
        <ele>411.0</ele>
        <time>2019-04-30T12:00:59.000Z</time>
      </trkpt>
      <trkpt lat="42.596073150634766" lon="-7.720157623291016">
        <ele>410.0</ele>
        <time>2019-04-30T12:01:02.000Z</time>
      </trkpt>
      <trkpt lat="42.59611511230469" lon="-7.720193862915039">
        <ele>409.0</ele>
        <time>2019-04-30T12:01:05.000Z</time>
      </trkpt>
      <trkpt lat="42.596160888671875" lon="-7.72023344039917">
        <ele>408.0</ele>
        <time>2019-04-30T12:01:07.000Z</time>
      </trkpt>
      <trkpt lat="42.59617233276367" lon="-7.720258712768555">
        <ele>406.0</ele>
        <time>2019-04-30T12:01:19.000Z</time>
      </trkpt>
      <trkpt lat="42.59617614746094" lon="-7.72028112411499">
        <ele>403.0</ele>
        <time>2019-04-30T12:01:30.000Z</time>
      </trkpt>
      <trkpt lat="42.59617233276367" lon="-7.720301628112793">
        <ele>401.0</ele>
        <time>2019-04-30T12:01:42.000Z</time>
      </trkpt>
      <trkpt lat="42.59616470336914" lon="-7.720321178436279">
        <ele>398.0</ele>
        <time>2019-04-30T12:01:53.000Z</time>
      </trkpt>
      <trkpt lat="42.59616470336914" lon="-7.720336437225342">
        <ele>397.0</ele>
        <time>2019-04-30T12:01:54.000Z</time>
      </trkpt>
      <trkpt lat="42.59616470336914" lon="-7.7203497886657715">
        <ele>397.0</ele>
        <time>2019-04-30T12:01:54.000Z</time>
      </trkpt>
      <trkpt lat="42.596168518066406" lon="-7.72036075592041">
        <ele>397.0</ele>
        <time>2019-04-30T12:01:54.000Z</time>
      </trkpt>
      <trkpt lat="42.596168518066406" lon="-7.720371246337891">
        <ele>398.0</ele>
        <time>2019-04-30T12:01:54.000Z</time>
      </trkpt>
      <trkpt lat="42.596168518066406" lon="-7.720400810241699">
        <ele>398.0</ele>
        <time>2019-04-30T12:01:56.000Z</time>
      </trkpt>
      <trkpt lat="42.596168518066406" lon="-7.720437049865723">
        <ele>398.0</ele>
        <time>2019-04-30T12:01:57.000Z</time>
      </trkpt>
      <trkpt lat="42.59617233276367" lon="-7.720478057861328">
        <ele>398.0</ele>
        <time>2019-04-30T12:01:58.000Z</time>
      </trkpt>
      <trkpt lat="42.59617233276367" lon="-7.720521450042725">
        <ele>398.0</ele>
        <time>2019-04-30T12:01:59.000Z</time>
      </trkpt>
      <trkpt lat="42.59616470336914" lon="-7.720545291900635">
        <ele>397.0</ele>
        <time>2019-04-30T12:02:14.000Z</time>
      </trkpt>
      <trkpt lat="42.59615707397461" lon="-7.72056245803833">
        <ele>396.0</ele>
        <time>2019-04-30T12:02:29.000Z</time>
      </trkpt>
      <trkpt lat="42.59614562988281" lon="-7.720576286315918">
        <ele>395.0</ele>
        <time>2019-04-30T12:02:44.000Z</time>
      </trkpt>
      <trkpt lat="42.59613037109375" lon="-7.720587730407715">
        <ele>394.0</ele>
        <time>2019-04-30T12:02:58.000Z</time>
      </trkpt>
      <trkpt lat="42.59612274169922" lon="-7.720599174499512">
        <ele>394.0</ele>
        <time>2019-04-30T12:02:59.000Z</time>
      </trkpt>
      <trkpt lat="42.59611892700195" lon="-7.720608711242676">
        <ele>394.0</ele>
        <time>2019-04-30T12:02:59.000Z</time>
      </trkpt>
      <trkpt lat="42.59611511230469" lon="-7.720617294311523">
        <ele>394.0</ele>
        <time>2019-04-30T12:02:59.000Z</time>
      </trkpt>
      <trkpt lat="42.596107482910156" lon="-7.7206244468688965">
        <ele>394.0</ele>
        <time>2019-04-30T12:02:59.000Z</time>
      </trkpt>
      <trkpt lat="42.596073150634766" lon="-7.720681190490723">
        <ele>392.0</ele>
        <time>2019-04-30T12:03:09.000Z</time>
      </trkpt>
      <trkpt lat="42.59602355957031" lon="-7.720758438110352">
        <ele>390.0</ele>
        <time>2019-04-30T12:03:18.000Z</time>
      </trkpt>
      <trkpt lat="42.595970153808594" lon="-7.720848560333252">
        <ele>387.0</ele>
        <time>2019-04-30T12:03:28.000Z</time>
      </trkpt>
      <trkpt lat="42.595909118652344" lon="-7.720945358276367">
        <ele>384.0</ele>
        <time>2019-04-30T12:03:37.000Z</time>
      </trkpt>
      <trkpt lat="42.595890045166016" lon="-7.720976829528809">
        <ele>382.0</ele>
        <time>2019-04-30T12:03:46.000Z</time>
      </trkpt>
      <trkpt lat="42.59588623046875" lon="-7.720988750457764">
        <ele>380.0</ele>
        <time>2019-04-30T12:03:55.000Z</time>
      </trkpt>
      <trkpt lat="42.595890045166016" lon="-7.720986843109131">
        <ele>377.0</ele>
        <time>2019-04-30T12:04:04.000Z</time>
      </trkpt>
      <trkpt lat="42.59590148925781" lon="-7.720977783203125">
        <ele>375.0</ele>
        <time>2019-04-30T12:04:12.000Z</time>
      </trkpt>
      <trkpt lat="42.59589767456055" lon="-7.720984935760498">
        <ele>374.0</ele>
        <time>2019-04-30T12:04:13.000Z</time>
      </trkpt>
      <trkpt lat="42.59589767456055" lon="-7.720991134643555">
        <ele>374.0</ele>
        <time>2019-04-30T12:04:13.000Z</time>
      </trkpt>
      <trkpt lat="42.59589385986328" lon="-7.720997333526611">
        <ele>375.0</ele>
        <time>2019-04-30T12:04:13.000Z</time>
      </trkpt>
      <trkpt lat="42.59589385986328" lon="-7.72100305557251">
        <ele>375.0</ele>
        <time>2019-04-30T12:04:13.000Z</time>
      </trkpt>
      <trkpt lat="42.59588623046875" lon="-7.721022129058838">
        <ele>375.0</ele>
        <time>2019-04-30T12:04:14.000Z</time>
      </trkpt>
      <trkpt lat="42.595882415771484" lon="-7.721046447753906">
        <ele>375.0</ele>
        <time>2019-04-30T12:04:15.000Z</time>
      </trkpt>
      <trkpt lat="42.59587478637695" lon="-7.72107458114624">
        <ele>375.0</ele>
        <time>2019-04-30T12:04:16.000Z</time>
      </trkpt>
      <trkpt lat="42.595863342285156" lon="-7.721104145050049">
        <ele>375.0</ele>
        <time>2019-04-30T12:04:16.000Z</time>
      </trkpt>
      <trkpt lat="42.59584426879883" lon="-7.721131324768066">
        <ele>373.0</ele>
        <time>2019-04-30T12:04:23.000Z</time>
      </trkpt>
      <trkpt lat="42.595821380615234" lon="-7.7211480140686035">
        <ele>371.0</ele>
        <time>2019-04-30T12:04:30.000Z</time>
      </trkpt>
      <trkpt lat="42.5958137512207" lon="-7.721155643463135">
        <ele>370.0</ele>
        <time>2019-04-30T12:04:31.000Z</time>
      </trkpt>
      <trkpt lat="42.59580993652344" lon="-7.72116231918335">
        <ele>370.0</ele>
        <time>2019-04-30T12:04:31.000Z</time>
      </trkpt>
      <trkpt lat="42.595802307128906" lon="-7.721168041229248">
        <ele>371.0</ele>
        <time>2019-04-30T12:04:31.000Z</time>
      </trkpt>
      <trkpt lat="42.59579849243164" lon="-7.7211737632751465">
        <ele>371.0</ele>
        <time>2019-04-30T12:04:31.000Z</time>
      </trkpt>
      <trkpt lat="42.59574890136719" lon="-7.7212233543396">
        <ele>370.0</ele>
        <time>2019-04-30T12:04:38.000Z</time>
      </trkpt>
      <trkpt lat="42.595680236816406" lon="-7.721291542053223">
        <ele>368.0</ele>
        <time>2019-04-30T12:04:46.000Z</time>
      </trkpt>
      <trkpt lat="42.59560012817383" lon="-7.721371650695801">
        <ele>366.0</ele>
        <time>2019-04-30T12:04:53.000Z</time>
      </trkpt>
      <trkpt lat="42.59551239013672" lon="-7.7214579582214355">
        <ele>364.0</ele>
        <time>2019-04-30T12:05:00.000Z</time>
      </trkpt>
      <trkpt lat="42.59534454345703" lon="-7.721508026123047">
        <ele>358.0</ele>
        <time>2019-04-30T12:05:21.000Z</time>
      </trkpt>
      <trkpt lat="42.59516143798828" lon="-7.721516132354736">
        <ele>351.0</ele>
        <time>2019-04-30T12:05:43.000Z</time>
      </trkpt>
      <trkpt lat="42.5950813293457" lon="-7.721546173095703">
        <ele>349.0</ele>
        <time>2019-04-30T12:05:55.000Z</time>
      </trkpt>
      <trkpt lat="42.59500503540039" lon="-7.721582889556885">
        <ele>348.0</ele>
        <time>2019-04-30T12:06:06.000Z</time>
      </trkpt>
      <trkpt lat="42.59492874145508" lon="-7.72162389755249">
        <ele>347.0</ele>
        <time>2019-04-30T12:06:18.000Z</time>
      </trkpt>
      <trkpt lat="42.59485626220703" lon="-7.721667289733887">
        <ele>347.0</ele>
        <time>2019-04-30T12:06:30.000Z</time>
      </trkpt>
      <trkpt lat="42.59482192993164" lon="-7.721685409545898">
        <ele>347.0</ele>
        <time>2019-04-30T12:06:41.000Z</time>
      </trkpt>
      <trkpt lat="42.594810485839844" lon="-7.7216949462890625">
        <ele>348.0</ele>
        <time>2019-04-30T12:06:52.000Z</time>
      </trkpt>
      <trkpt lat="42.594810485839844" lon="-7.721699237823486">
        <ele>350.0</ele>
        <time>2019-04-30T12:07:03.000Z</time>
      </trkpt>
      <trkpt lat="42.59481430053711" lon="-7.721700668334961">
        <ele>352.0</ele>
        <time>2019-04-30T12:07:14.000Z</time>
      </trkpt>
      <trkpt lat="42.59480667114258" lon="-7.721706867218018">
        <ele>352.0</ele>
        <time>2019-04-30T12:07:14.000Z</time>
      </trkpt>
      <trkpt lat="42.59479904174805" lon="-7.721712589263916">
        <ele>352.0</ele>
        <time>2019-04-30T12:07:14.000Z</time>
      </trkpt>
      <trkpt lat="42.59479522705078" lon="-7.721717834472656">
        <ele>352.0</ele>
        <time>2019-04-30T12:07:15.000Z</time>
      </trkpt>
      <trkpt lat="42.59478759765625" lon="-7.721722602844238">
        <ele>352.0</ele>
        <time>2019-04-30T12:07:15.000Z</time>
      </trkpt>
      <trkpt lat="42.59474563598633" lon="-7.721761703491211">
        <ele>353.0</ele>
        <time>2019-04-30T12:07:24.000Z</time>
      </trkpt>
      <trkpt lat="42.59468460083008" lon="-7.7218146324157715">
        <ele>354.0</ele>
        <time>2019-04-30T12:07:33.000Z</time>
      </trkpt>
      <trkpt lat="42.59461212158203" lon="-7.721877098083496">
        <ele>356.0</ele>
        <time>2019-04-30T12:07:42.000Z</time>
      </trkpt>
      <trkpt lat="42.59453582763672" lon="-7.7219438552856445">
        <ele>358.0</ele>
        <time>2019-04-30T12:07:51.000Z</time>
      </trkpt>
      <trkpt lat="42.59451675415039" lon="-7.721962928771973">
        <ele>359.0</ele>
        <time>2019-04-30T12:07:59.000Z</time>
      </trkpt>
      <trkpt lat="42.594512939453125" lon="-7.721966743469238">
        <ele>359.0</ele>
        <time>2019-04-30T12:08:08.000Z</time>
      </trkpt>
      <trkpt lat="42.59451675415039" lon="-7.721960067749023">
        <ele>360.0</ele>
        <time>2019-04-30T12:08:16.000Z</time>
      </trkpt>
      <trkpt lat="42.59453201293945" lon="-7.721948623657227">
        <ele>361.0</ele>
        <time>2019-04-30T12:08:25.000Z</time>
      </trkpt>
      <trkpt lat="42.59452438354492" lon="-7.721953392028809">
        <ele>361.0</ele>
        <time>2019-04-30T12:08:26.000Z</time>
      </trkpt>
      <trkpt lat="42.59431457519531" lon="-7.722128868103027">
        <ele>362.0</ele>
        <time>2019-04-30T12:08:45.000Z</time>
      </trkpt>
      <trkpt lat="42.59425735473633" lon="-7.722200870513916">
        <ele>363.0</ele>
        <time>2019-04-30T12:09:02.000Z</time>
      </trkpt>
      <trkpt lat="42.5942268371582" lon="-7.722233772277832">
        <ele>363.0</ele>
        <time>2019-04-30T12:09:03.000Z</time>
      </trkpt>
      <trkpt lat="42.59401321411133" lon="-7.722376823425293">
        <ele>363.0</ele>
        <time>2019-04-30T12:09:23.000Z</time>
      </trkpt>
      <trkpt lat="42.593955993652344" lon="-7.722382068634033">
        <ele>363.0</ele>
        <time>2019-04-30T12:09:39.000Z</time>
      </trkpt>
      <trkpt lat="42.59392166137695" lon="-7.722385406494141">
        <ele>363.0</ele>
        <time>2019-04-30T12:09:40.000Z</time>
      </trkpt>
      <trkpt lat="42.59357452392578" lon="-7.722352504730225">
        <ele>361.0</ele>
        <time>2019-04-30T12:10:06.000Z</time>
      </trkpt>
      <trkpt lat="42.59322738647461" lon="-7.722297191619873">
        <ele>347.0</ele>
        <time>2019-04-30T12:10:48.000Z</time>
      </trkpt>
      <trkpt lat="42.593170166015625" lon="-7.722303867340088">
        <ele>345.0</ele>
        <time>2019-04-30T12:10:55.000Z</time>
      </trkpt>
      <trkpt lat="42.593135833740234" lon="-7.722288608551025">
        <ele>341.0</ele>
        <time>2019-04-30T12:11:07.000Z</time>
      </trkpt>
      <trkpt lat="42.59309387207031" lon="-7.722264766693115">
        <ele>335.0</ele>
        <time>2019-04-30T12:11:20.000Z</time>
      </trkpt>
      <trkpt lat="42.593082427978516" lon="-7.722258567810059">
        <ele>334.0</ele>
        <time>2019-04-30T12:11:20.000Z</time>
      </trkpt>
      <trkpt lat="42.593074798583984" lon="-7.722254276275635">
        <ele>334.0</ele>
        <time>2019-04-30T12:11:20.000Z</time>
      </trkpt>
      <trkpt lat="42.59306716918945" lon="-7.722250938415527">
        <ele>334.0</ele>
        <time>2019-04-30T12:11:21.000Z</time>
      </trkpt>
      <trkpt lat="42.59305953979492" lon="-7.722248077392578">
        <ele>335.0</ele>
        <time>2019-04-30T12:11:21.000Z</time>
      </trkpt>
      <trkpt lat="42.5930290222168" lon="-7.722214698791504">
        <ele>334.0</ele>
        <time>2019-04-30T12:11:26.000Z</time>
      </trkpt>
      <trkpt lat="42.59298324584961" lon="-7.722169399261475">
        <ele>332.0</ele>
        <time>2019-04-30T12:11:32.000Z</time>
      </trkpt>
      <trkpt lat="42.592933654785156" lon="-7.722115993499756">
        <ele>331.0</ele>
        <time>2019-04-30T12:11:37.000Z</time>
      </trkpt>
      <trkpt lat="42.59287643432617" lon="-7.722058296203613">
        <ele>329.0</ele>
        <time>2019-04-30T12:11:43.000Z</time>
      </trkpt>
      <trkpt lat="42.59286117553711" lon="-7.722051620483398">
        <ele>327.0</ele>
        <time>2019-04-30T12:12:02.000Z</time>
      </trkpt>
      <trkpt lat="42.592857360839844" lon="-7.722062110900879">
        <ele>325.0</ele>
        <time>2019-04-30T12:12:21.000Z</time>
      </trkpt>
      <trkpt lat="42.59286117553711" lon="-7.722084045410156">
        <ele>324.0</ele>
        <time>2019-04-30T12:12:41.000Z</time>
      </trkpt>
      <trkpt lat="42.59286880493164" lon="-7.722111701965332">
        <ele>322.0</ele>
        <time>2019-04-30T12:13:00.000Z</time>
      </trkpt>
      <trkpt lat="42.59286880493164" lon="-7.722122669219971">
        <ele>321.0</ele>
        <time>2019-04-30T12:13:00.000Z</time>
      </trkpt>
      <trkpt lat="42.59286880493164" lon="-7.722132205963135">
        <ele>321.0</ele>
        <time>2019-04-30T12:13:00.000Z</time>
      </trkpt>
      <trkpt lat="42.592864990234375" lon="-7.722140789031982">
        <ele>321.0</ele>
        <time>2019-04-30T12:13:01.000Z</time>
      </trkpt>
      <trkpt lat="42.592864990234375" lon="-7.722148895263672">
        <ele>322.0</ele>
        <time>2019-04-30T12:13:01.000Z</time>
      </trkpt>
      <trkpt lat="42.592864990234375" lon="-7.722192764282227">
        <ele>322.0</ele>
        <time>2019-04-30T12:13:04.000Z</time>
      </trkpt>
      <trkpt lat="42.59286880493164" lon="-7.722250461578369">
        <ele>322.0</ele>
        <time>2019-04-30T12:13:07.000Z</time>
      </trkpt>
      <trkpt lat="42.592872619628906" lon="-7.722318172454834">
        <ele>322.0</ele>
        <time>2019-04-30T12:13:10.000Z</time>
      </trkpt>
      <trkpt lat="42.59287643432617" lon="-7.722390174865723">
        <ele>322.0</ele>
        <time>2019-04-30T12:13:13.000Z</time>
      </trkpt>
      <trkpt lat="42.59288787841797" lon="-7.722434997558594">
        <ele>323.0</ele>
        <time>2019-04-30T12:13:23.000Z</time>
      </trkpt>
      <trkpt lat="42.5929069519043" lon="-7.7224440574646">
        <ele>323.0</ele>
        <time>2019-04-30T12:13:34.000Z</time>
      </trkpt>
      <trkpt lat="42.59291076660156" lon="-7.722453594207764">
        <ele>323.0</ele>
        <time>2019-04-30T12:13:34.000Z</time>
      </trkpt>
      <trkpt lat="42.59291458129883" lon="-7.722462177276611">
        <ele>324.0</ele>
        <time>2019-04-30T12:13:34.000Z</time>
      </trkpt>
      <trkpt lat="42.592918395996094" lon="-7.722469329833984">
        <ele>323.0</ele>
        <time>2019-04-30T12:13:35.000Z</time>
      </trkpt>
      <trkpt lat="42.59292221069336" lon="-7.722476482391357">
        <ele>323.0</ele>
        <time>2019-04-30T12:13:35.000Z</time>
      </trkpt>
      <trkpt lat="42.59294891357422" lon="-7.72252082824707">
        <ele>323.0</ele>
        <time>2019-04-30T12:13:39.000Z</time>
      </trkpt>
      <trkpt lat="42.592979431152344" lon="-7.7225799560546875">
        <ele>324.0</ele>
        <time>2019-04-30T12:13:43.000Z</time>
      </trkpt>
      <trkpt lat="42.593021392822266" lon="-7.722649574279785">
        <ele>324.0</ele>
        <time>2019-04-30T12:13:48.000Z</time>
      </trkpt>
      <trkpt lat="42.59305953979492" lon="-7.722723960876465">
        <ele>324.0</ele>
        <time>2019-04-30T12:13:52.000Z</time>
      </trkpt>
      <trkpt lat="42.59308624267578" lon="-7.722758769989014">
        <ele>324.0</ele>
        <time>2019-04-30T12:13:56.000Z</time>
      </trkpt>
      <trkpt lat="42.59310531616211" lon="-7.722782611846924">
        <ele>324.0</ele>
        <time>2019-04-30T12:14:01.000Z</time>
      </trkpt>
      <trkpt lat="42.59312057495117" lon="-7.722799301147461">
        <ele>323.0</ele>
        <time>2019-04-30T12:14:05.000Z</time>
      </trkpt>
      <trkpt lat="42.593135833740234" lon="-7.722811698913574">
        <ele>323.0</ele>
        <time>2019-04-30T12:14:10.000Z</time>
      </trkpt>
      <trkpt lat="42.593143463134766" lon="-7.7228240966796875">
        <ele>323.0</ele>
        <time>2019-04-30T12:14:10.000Z</time>
      </trkpt>
      <trkpt lat="42.5931510925293" lon="-7.722832202911377">
        <ele>323.0</ele>
        <time>2019-04-30T12:14:10.000Z</time>
      </trkpt>
      <trkpt lat="42.59315490722656" lon="-7.722837448120117">
        <ele>323.0</ele>
        <time>2019-04-30T12:14:11.000Z</time>
      </trkpt>
      <trkpt lat="42.59315872192383" lon="-7.722841739654541">
        <ele>323.0</ele>
        <time>2019-04-30T12:14:11.000Z</time>
      </trkpt>
      <trkpt lat="42.59317398071289" lon="-7.7228593826293945">
        <ele>323.0</ele>
        <time>2019-04-30T12:14:13.000Z</time>
      </trkpt>
      <trkpt lat="42.593196868896484" lon="-7.722881317138672">
        <ele>323.0</ele>
        <time>2019-04-30T12:14:14.000Z</time>
      </trkpt>
      <trkpt lat="42.59321594238281" lon="-7.722906112670898">
        <ele>323.0</ele>
        <time>2019-04-30T12:14:16.000Z</time>
      </trkpt>
      <trkpt lat="42.59324264526367" lon="-7.722932815551758">
        <ele>323.0</ele>
        <time>2019-04-30T12:14:18.000Z</time>
      </trkpt>
      <trkpt lat="42.5932502746582" lon="-7.722939968109131">
        <ele>324.0</ele>
        <time>2019-04-30T12:14:48.000Z</time>
      </trkpt>
      <trkpt lat="42.593257904052734" lon="-7.722946643829346">
        <ele>324.0</ele>
        <time>2019-04-30T12:14:49.000Z</time>
      </trkpt>
      <trkpt lat="42.59328079223633" lon="-7.722964286804199">
        <ele>324.0</ele>
        <time>2019-04-30T12:14:52.000Z</time>
      </trkpt>
      <trkpt lat="42.59333419799805" lon="-7.72299337387085">
        <ele>323.0</ele>
        <time>2019-04-30T12:15:29.000Z</time>
      </trkpt>
      <trkpt lat="42.59337615966797" lon="-7.7230143547058105">
        <ele>323.0</ele>
        <time>2019-04-30T12:15:30.000Z</time>
      </trkpt>
      <trkpt lat="42.593692779541016" lon="-7.723127841949463">
        <ele>321.0</ele>
        <time>2019-04-30T12:15:37.000Z</time>
      </trkpt>
      <trkpt lat="42.59373092651367" lon="-7.723159313201904">
        <ele>319.0</ele>
        <time>2019-04-30T12:16:17.000Z</time>
      </trkpt>
      <trkpt lat="42.593711853027344" lon="-7.723178863525391">
        <ele>316.0</ele>
        <time>2019-04-30T12:16:57.000Z</time>
      </trkpt>
      <trkpt lat="42.59371566772461" lon="-7.723189353942871">
        <ele>315.0</ele>
        <time>2019-04-30T12:16:57.000Z</time>
      </trkpt>
      <trkpt lat="42.593719482421875" lon="-7.723198890686035">
        <ele>315.0</ele>
        <time>2019-04-30T12:16:57.000Z</time>
      </trkpt>
      <trkpt lat="42.59372329711914" lon="-7.723207473754883">
        <ele>315.0</ele>
        <time>2019-04-30T12:16:58.000Z</time>
      </trkpt>
      <trkpt lat="42.593727111816406" lon="-7.723215579986572">
        <ele>316.0</ele>
        <time>2019-04-30T12:16:58.000Z</time>
      </trkpt>
      <trkpt lat="42.5937385559082" lon="-7.723268032073975">
        <ele>315.0</ele>
        <time>2019-04-30T12:16:59.000Z</time>
      </trkpt>
      <trkpt lat="42.59375762939453" lon="-7.7233381271362305">
        <ele>315.0</ele>
        <time>2019-04-30T12:17:01.000Z</time>
      </trkpt>
      <trkpt lat="42.593772888183594" lon="-7.7234206199646">
        <ele>315.0</ele>
        <time>2019-04-30T12:17:02.000Z</time>
      </trkpt>
      <trkpt lat="42.59379196166992" lon="-7.723509311676025">
        <ele>315.0</ele>
        <time>2019-04-30T12:17:04.000Z</time>
      </trkpt>
      <trkpt lat="42.59381103515625" lon="-7.723511695861816">
        <ele>314.0</ele>
        <time>2019-04-30T12:17:08.000Z</time>
      </trkpt>
      <trkpt lat="42.59382629394531" lon="-7.723484516143799">
        <ele>314.0</ele>
        <time>2019-04-30T12:17:12.000Z</time>
      </trkpt>
      <trkpt lat="42.59384536743164" lon="-7.723437786102295">
        <ele>312.0</ele>
        <time>2019-04-30T12:17:17.000Z</time>
      </trkpt>
      <trkpt lat="42.5938606262207" lon="-7.723381042480469">
        <ele>311.0</ele>
        <time>2019-04-30T12:17:21.000Z</time>
      </trkpt>
      <trkpt lat="42.5938720703125" lon="-7.7233710289001465">
        <ele>311.0</ele>
        <time>2019-04-30T12:17:30.000Z</time>
      </trkpt>
      <trkpt lat="42.59387969970703" lon="-7.72337007522583">
        <ele>311.0</ele>
        <time>2019-04-30T12:17:39.000Z</time>
      </trkpt>
      <trkpt lat="42.5938835144043" lon="-7.72337532043457">
        <ele>312.0</ele>
        <time>2019-04-30T12:17:48.000Z</time>
      </trkpt>
      <trkpt lat="42.59388732910156" lon="-7.72338342666626">
        <ele>313.0</ele>
        <time>2019-04-30T12:17:57.000Z</time>
      </trkpt>
      <trkpt lat="42.59389114379883" lon="-7.723384380340576">
        <ele>313.0</ele>
        <time>2019-04-30T12:17:57.000Z</time>
      </trkpt>
      <trkpt lat="42.59389877319336" lon="-7.723384857177734">
        <ele>313.0</ele>
        <time>2019-04-30T12:17:57.000Z</time>
      </trkpt>
      <trkpt lat="42.593902587890625" lon="-7.723385334014893">
        <ele>313.0</ele>
        <time>2019-04-30T12:17:58.000Z</time>
      </trkpt>
      <trkpt lat="42.59390640258789" lon="-7.723385810852051">
        <ele>313.0</ele>
        <time>2019-04-30T12:17:58.000Z</time>
      </trkpt>
      <trkpt lat="42.59394454956055" lon="-7.723392009735107">
        <ele>313.0</ele>
        <time>2019-04-30T12:18:01.000Z</time>
      </trkpt>
      <trkpt lat="42.593990325927734" lon="-7.723400592803955">
        <ele>313.0</ele>
        <time>2019-04-30T12:18:04.000Z</time>
      </trkpt>
      <trkpt lat="42.59404754638672" lon="-7.7234110832214355">
        <ele>312.0</ele>
        <time>2019-04-30T12:18:08.000Z</time>
      </trkpt>
      <trkpt lat="42.59410858154297" lon="-7.723422050476074">
        <ele>312.0</ele>
        <time>2019-04-30T12:18:11.000Z</time>
      </trkpt>
      <trkpt lat="42.594112396240234" lon="-7.72343635559082">
        <ele>310.0</ele>
        <time>2019-04-30T12:18:26.000Z</time>
      </trkpt>
      <trkpt lat="42.594093322753906" lon="-7.723453044891357">
        <ele>307.0</ele>
        <time>2019-04-30T12:18:42.000Z</time>
      </trkpt>
      <trkpt lat="42.59406280517578" lon="-7.723471641540527">
        <ele>304.0</ele>
        <time>2019-04-30T12:18:57.000Z</time>
      </trkpt>
      <trkpt lat="42.594024658203125" lon="-7.723490238189697">
        <ele>300.0</ele>
        <time>2019-04-30T12:19:13.000Z</time>
      </trkpt>
      <trkpt lat="42.59401321411133" lon="-7.7235002517700195">
        <ele>299.0</ele>
        <time>2019-04-30T12:19:13.000Z</time>
      </trkpt>
      <trkpt lat="42.59400177001953" lon="-7.723507404327393">
        <ele>299.0</ele>
        <time>2019-04-30T12:19:13.000Z</time>
      </trkpt>
      <trkpt lat="42.593997955322266" lon="-7.723512172698975">
        <ele>299.0</ele>
        <time>2019-04-30T12:19:14.000Z</time>
      </trkpt>
      <trkpt lat="42.593990325927734" lon="-7.723516464233398">
        <ele>300.0</ele>
        <time>2019-04-30T12:19:14.000Z</time>
      </trkpt>
      <trkpt lat="42.593971252441406" lon="-7.723526954650879">
        <ele>300.0</ele>
        <time>2019-04-30T12:19:17.000Z</time>
      </trkpt>
      <trkpt lat="42.59394836425781" lon="-7.723539352416992">
        <ele>299.0</ele>
        <time>2019-04-30T12:19:19.000Z</time>
      </trkpt>
      <trkpt lat="42.59392166137695" lon="-7.723552703857422">
        <ele>298.0</ele>
        <time>2019-04-30T12:19:22.000Z</time>
      </trkpt>
      <trkpt lat="42.59389114379883" lon="-7.723567008972168">
        <ele>297.0</ele>
        <time>2019-04-30T12:19:25.000Z</time>
      </trkpt>
      <trkpt lat="42.593875885009766" lon="-7.723588943481445">
        <ele>297.0</ele>
        <time>2019-04-30T12:19:39.000Z</time>
      </trkpt>
      <trkpt lat="42.593875885009766" lon="-7.723609447479248">
        <ele>297.0</ele>
        <time>2019-04-30T12:19:53.000Z</time>
      </trkpt>
      <trkpt lat="42.5938720703125" lon="-7.723618030548096">
        <ele>297.0</ele>
        <time>2019-04-30T12:19:53.000Z</time>
      </trkpt>
      <trkpt lat="42.593868255615234" lon="-7.723625183105469">
        <ele>297.0</ele>
        <time>2019-04-30T12:19:53.000Z</time>
      </trkpt>
      <trkpt lat="42.59386444091797" lon="-7.723631858825684">
        <ele>297.0</ele>
        <time>2019-04-30T12:19:54.000Z</time>
      </trkpt>
      <trkpt lat="42.59386444091797" lon="-7.723638534545898">
        <ele>297.0</ele>
        <time>2019-04-30T12:19:54.000Z</time>
      </trkpt>
      <trkpt lat="42.593849182128906" lon="-7.723669052124023">
        <ele>297.0</ele>
        <time>2019-04-30T12:19:58.000Z</time>
      </trkpt>
      <trkpt lat="42.59382629394531" lon="-7.723709583282471">
        <ele>297.0</ele>
        <time>2019-04-30T12:20:03.000Z</time>
      </trkpt>
      <trkpt lat="42.59380340576172" lon="-7.723756313323975">
        <ele>296.0</ele>
        <time>2019-04-30T12:20:07.000Z</time>
      </trkpt>
      <trkpt lat="42.59377670288086" lon="-7.723806381225586">
        <ele>296.0</ele>
        <time>2019-04-30T12:20:12.000Z</time>
      </trkpt>
      <trkpt lat="42.59376525878906" lon="-7.723826885223389">
        <ele>296.0</ele>
        <time>2019-04-30T12:20:23.000Z</time>
      </trkpt>
      <trkpt lat="42.59375" lon="-7.7238383293151855">
        <ele>295.0</ele>
        <time>2019-04-30T12:20:34.000Z</time>
      </trkpt>
      <trkpt lat="42.59374237060547" lon="-7.723844051361084">
        <ele>295.0</ele>
        <time>2019-04-30T12:20:45.000Z</time>
      </trkpt>
      <trkpt lat="42.59373092651367" lon="-7.723846912384033">
        <ele>295.0</ele>
        <time>2019-04-30T12:20:56.000Z</time>
      </trkpt>
      <trkpt lat="42.59372329711914" lon="-7.723854064941406">
        <ele>294.0</ele>
        <time>2019-04-30T12:20:56.000Z</time>
      </trkpt>
      <trkpt lat="42.59371566772461" lon="-7.723860263824463">
        <ele>294.0</ele>
        <time>2019-04-30T12:20:56.000Z</time>
      </trkpt>
      <trkpt lat="42.593711853027344" lon="-7.723865509033203">
        <ele>295.0</ele>
        <time>2019-04-30T12:20:57.000Z</time>
      </trkpt>
      <trkpt lat="42.59370422363281" lon="-7.723870277404785">
        <ele>295.0</ele>
        <time>2019-04-30T12:20:57.000Z</time>
      </trkpt>
      <trkpt lat="42.59368133544922" lon="-7.7238874435424805">
        <ele>295.0</ele>
        <time>2019-04-30T12:20:59.000Z</time>
      </trkpt>
      <trkpt lat="42.59365463256836" lon="-7.723909854888916">
        <ele>295.0</ele>
        <time>2019-04-30T12:21:01.000Z</time>
      </trkpt>
      <trkpt lat="42.59362030029297" lon="-7.723935604095459">
        <ele>295.0</ele>
        <time>2019-04-30T12:21:04.000Z</time>
      </trkpt>
      <trkpt lat="42.59358215332031" lon="-7.723962306976318">
        <ele>295.0</ele>
        <time>2019-04-30T12:21:06.000Z</time>
      </trkpt>
      <trkpt lat="42.59355545043945" lon="-7.7239813804626465">
        <ele>289.0</ele>
        <time>2019-04-30T12:22:39.000Z</time>
      </trkpt>
      <trkpt lat="42.593536376953125" lon="-7.723994731903076">
        <ele>289.0</ele>
        <time>2019-04-30T12:22:40.000Z</time>
      </trkpt>
      <trkpt lat="42.59319305419922" lon="-7.724118232727051">
        <ele>273.0</ele>
        <time>2019-04-30T12:23:24.000Z</time>
      </trkpt>
      <trkpt lat="42.5931282043457" lon="-7.724118232727051">
        <ele>269.0</ele>
        <time>2019-04-30T12:23:33.000Z</time>
      </trkpt>
      <trkpt lat="42.593109130859375" lon="-7.7240891456604">
        <ele>267.0</ele>
        <time>2019-04-30T12:23:43.000Z</time>
      </trkpt>
      <trkpt lat="42.59309768676758" lon="-7.724086284637451">
        <ele>265.0</ele>
        <time>2019-04-30T12:23:50.000Z</time>
      </trkpt>
      <trkpt lat="42.59308624267578" lon="-7.724085330963135">
        <ele>263.0</ele>
        <time>2019-04-30T12:23:57.000Z</time>
      </trkpt>
      <trkpt lat="42.59307861328125" lon="-7.724085807800293">
        <ele>260.0</ele>
        <time>2019-04-30T12:24:05.000Z</time>
      </trkpt>
      <trkpt lat="42.59307098388672" lon="-7.724086284637451">
        <ele>257.0</ele>
        <time>2019-04-30T12:24:12.000Z</time>
      </trkpt>
      <trkpt lat="42.59306335449219" lon="-7.724085807800293">
        <ele>256.0</ele>
        <time>2019-04-30T12:24:12.000Z</time>
      </trkpt>
      <trkpt lat="42.59305953979492" lon="-7.724085330963135">
        <ele>256.0</ele>
        <time>2019-04-30T12:24:12.000Z</time>
      </trkpt>
      <trkpt lat="42.59305191040039" lon="-7.724084854125977">
        <ele>257.0</ele>
        <time>2019-04-30T12:24:13.000Z</time>
      </trkpt>
      <trkpt lat="42.593048095703125" lon="-7.724084377288818">
        <ele>257.0</ele>
        <time>2019-04-30T12:24:13.000Z</time>
      </trkpt>
      <trkpt lat="42.592987060546875" lon="-7.724070072174072">
        <ele>255.0</ele>
        <time>2019-04-30T12:24:21.000Z</time>
      </trkpt>
      <trkpt lat="42.592899322509766" lon="-7.724049091339111">
        <ele>253.0</ele>
        <time>2019-04-30T12:24:30.000Z</time>
      </trkpt>
      <trkpt lat="42.59280014038086" lon="-7.724024295806885">
        <ele>250.0</ele>
        <time>2019-04-30T12:24:38.000Z</time>
      </trkpt>
      <trkpt lat="42.59269332885742" lon="-7.723998069763184">
        <ele>247.0</ele>
        <time>2019-04-30T12:24:47.000Z</time>
      </trkpt>
      <trkpt lat="42.59264373779297" lon="-7.723969459533691">
        <ele>245.0</ele>
        <time>2019-04-30T12:24:53.000Z</time>
      </trkpt>
      <trkpt lat="42.59260559082031" lon="-7.72393798828125">
        <ele>243.0</ele>
        <time>2019-04-30T12:24:59.000Z</time>
      </trkpt>
      <trkpt lat="42.59257888793945" lon="-7.723904132843018">
        <ele>241.0</ele>
        <time>2019-04-30T12:25:06.000Z</time>
      </trkpt>
      <trkpt lat="42.59255599975586" lon="-7.723869800567627">
        <ele>240.0</ele>
        <time>2019-04-30T12:25:12.000Z</time>
      </trkpt>
      <trkpt lat="42.59251403808594" lon="-7.723853588104248">
        <ele>235.0</ele>
        <time>2019-04-30T12:25:34.000Z</time>
      </trkpt>
      <trkpt lat="42.59248733520508" lon="-7.7238593101501465">
        <ele>230.0</ele>
        <time>2019-04-30T12:25:57.000Z</time>
      </trkpt>
      <trkpt lat="42.59247589111328" lon="-7.723857402801514">
        <ele>229.0</ele>
        <time>2019-04-30T12:25:57.000Z</time>
      </trkpt>
      <trkpt lat="42.592464447021484" lon="-7.723855972290039">
        <ele>229.0</ele>
        <time>2019-04-30T12:25:57.000Z</time>
      </trkpt>
      <trkpt lat="42.59246063232422" lon="-7.7238545417785645">
        <ele>229.0</ele>
        <time>2019-04-30T12:25:58.000Z</time>
      </trkpt>
      <trkpt lat="42.59245300292969" lon="-7.723853588104248">
        <ele>230.0</ele>
        <time>2019-04-30T12:25:58.000Z</time>
      </trkpt>
      <trkpt lat="42.592411041259766" lon="-7.723838806152344">
        <ele>229.0</ele>
        <time>2019-04-30T12:26:04.000Z</time>
      </trkpt>
      <trkpt lat="42.59235382080078" lon="-7.723817825317383">
        <ele>227.0</ele>
        <time>2019-04-30T12:26:10.000Z</time>
      </trkpt>
      <trkpt lat="42.592288970947266" lon="-7.7237935066223145">
        <ele>225.0</ele>
        <time>2019-04-30T12:26:16.000Z</time>
      </trkpt>
      <trkpt lat="42.59221649169922" lon="-7.723767280578613">
        <ele>223.0</ele>
        <time>2019-04-30T12:26:22.000Z</time>
      </trkpt>
      <trkpt lat="42.59218978881836" lon="-7.723759651184082">
        <ele>221.0</ele>
        <time>2019-04-30T12:26:30.000Z</time>
      </trkpt>
      <trkpt lat="42.5921745300293" lon="-7.723758220672607">
        <ele>219.0</ele>
        <time>2019-04-30T12:26:38.000Z</time>
      </trkpt>
      <trkpt lat="42.592166900634766" lon="-7.723760604858398">
        <ele>217.0</ele>
        <time>2019-04-30T12:26:46.000Z</time>
      </trkpt>
      <trkpt lat="42.592166900634766" lon="-7.723764896392822">
        <ele>214.0</ele>
        <time>2019-04-30T12:26:54.000Z</time>
      </trkpt>
      <trkpt lat="42.592159271240234" lon="-7.723764419555664">
        <ele>213.0</ele>
        <time>2019-04-30T12:26:54.000Z</time>
      </trkpt>
      <trkpt lat="42.5921516418457" lon="-7.723763942718506">
        <ele>213.0</ele>
        <time>2019-04-30T12:26:54.000Z</time>
      </trkpt>
      <trkpt lat="42.59214401245117" lon="-7.723763942718506">
        <ele>214.0</ele>
        <time>2019-04-30T12:26:55.000Z</time>
      </trkpt>
      <trkpt lat="42.59213638305664" lon="-7.723763465881348">
        <ele>214.0</ele>
        <time>2019-04-30T12:26:55.000Z</time>
      </trkpt>
      <trkpt lat="42.59207534790039" lon="-7.723748207092285">
        <ele>212.0</ele>
        <time>2019-04-30T12:27:07.000Z</time>
      </trkpt>
      <trkpt lat="42.59199523925781" lon="-7.723726749420166">
        <ele>209.0</ele>
        <time>2019-04-30T12:27:18.000Z</time>
      </trkpt>
      <trkpt lat="42.591896057128906" lon="-7.723701000213623">
        <ele>206.0</ele>
        <time>2019-04-30T12:27:30.000Z</time>
      </trkpt>
      <trkpt lat="42.591793060302734" lon="-7.723672866821289">
        <ele>202.0</ele>
        <time>2019-04-30T12:27:42.000Z</time>
      </trkpt>
      <trkpt lat="42.591712951660156" lon="-7.723668575286865">
        <ele>198.0</ele>
        <time>2019-04-30T12:27:58.000Z</time>
      </trkpt>
      <trkpt lat="42.59168243408203" lon="-7.7236528396606445">
        <ele>190.0</ele>
        <time>2019-04-30T12:28:31.000Z</time>
      </trkpt>
      <trkpt lat="42.59165954589844" lon="-7.723640441894531">
        <ele>190.0</ele>
        <time>2019-04-30T12:28:32.000Z</time>
      </trkpt>
      <trkpt lat="42.591651916503906" lon="-7.723637104034424">
        <ele>190.0</ele>
        <time>2019-04-30T12:28:34.000Z</time>
      </trkpt>
      <trkpt lat="42.59160232543945" lon="-7.723616123199463">
        <ele>184.0</ele>
        <time>2019-04-30T12:29:05.000Z</time>
      </trkpt>
      <trkpt lat="42.5915641784668" lon="-7.723599910736084">
        <ele>184.0</ele>
        <time>2019-04-30T12:29:06.000Z</time>
      </trkpt>
      <trkpt lat="42.591270446777344" lon="-7.7235307693481445">
        <ele>182.0</ele>
        <time>2019-04-30T12:29:14.000Z</time>
      </trkpt>
      <trkpt lat="42.59126281738281" lon="-7.723529815673828">
        <ele>177.0</ele>
        <time>2019-04-30T12:29:44.000Z</time>
      </trkpt>
      <trkpt lat="42.59125900268555" lon="-7.723528861999512">
        <ele>177.0</ele>
        <time>2019-04-30T12:29:45.000Z</time>
      </trkpt>
      <trkpt lat="42.591064453125" lon="-7.723512172698975">
        <ele>176.0</ele>
        <time>2019-04-30T12:29:50.000Z</time>
      </trkpt>
      <trkpt lat="42.59101486206055" lon="-7.723525524139404">
        <ele>175.0</ele>
        <time>2019-04-30T12:29:52.000Z</time>
      </trkpt>
      <trkpt lat="42.591007232666016" lon="-7.72353458404541">
        <ele>175.0</ele>
        <time>2019-04-30T12:29:59.000Z</time>
      </trkpt>
      <trkpt lat="42.590999603271484" lon="-7.723546028137207">
        <ele>174.0</ele>
        <time>2019-04-30T12:30:06.000Z</time>
      </trkpt>
      <trkpt lat="42.59099578857422" lon="-7.723559379577637">
        <ele>173.0</ele>
        <time>2019-04-30T12:30:14.000Z</time>
      </trkpt>
      <trkpt lat="42.59098815917969" lon="-7.723573207855225">
        <ele>172.0</ele>
        <time>2019-04-30T12:30:21.000Z</time>
      </trkpt>
      <trkpt lat="42.59098434448242" lon="-7.723582744598389">
        <ele>172.0</ele>
        <time>2019-04-30T12:30:21.000Z</time>
      </trkpt>
      <trkpt lat="42.59097671508789" lon="-7.723590850830078">
        <ele>172.0</ele>
        <time>2019-04-30T12:30:21.000Z</time>
      </trkpt>
      <trkpt lat="42.590972900390625" lon="-7.723598003387451">
        <ele>172.0</ele>
        <time>2019-04-30T12:30:22.000Z</time>
      </trkpt>
      <trkpt lat="42.59096908569336" lon="-7.723604679107666">
        <ele>172.0</ele>
        <time>2019-04-30T12:30:22.000Z</time>
      </trkpt>
      <trkpt lat="42.5909538269043" lon="-7.723630905151367">
        <ele>172.0</ele>
        <time>2019-04-30T12:30:23.000Z</time>
      </trkpt>
      <trkpt lat="42.59093475341797" lon="-7.723664283752441">
        <ele>173.0</ele>
        <time>2019-04-30T12:30:25.000Z</time>
      </trkpt>
      <trkpt lat="42.590911865234375" lon="-7.723702907562256">
        <ele>174.0</ele>
        <time>2019-04-30T12:30:26.000Z</time>
      </trkpt>
      <trkpt lat="42.590885162353516" lon="-7.723743915557861">
        <ele>174.0</ele>
        <time>2019-04-30T12:30:28.000Z</time>
      </trkpt>
      <trkpt lat="42.590885162353516" lon="-7.723757266998291">
        <ele>175.0</ele>
        <time>2019-04-30T12:30:36.000Z</time>
      </trkpt>
      <trkpt lat="42.59088897705078" lon="-7.723761558532715">
        <ele>176.0</ele>
        <time>2019-04-30T12:30:44.000Z</time>
      </trkpt>
      <trkpt lat="42.59090042114258" lon="-7.72376012802124">
        <ele>177.0</ele>
        <time>2019-04-30T12:30:52.000Z</time>
      </trkpt>
      <trkpt lat="42.59091567993164" lon="-7.723755836486816">
        <ele>178.0</ele>
        <time>2019-04-30T12:31:00.000Z</time>
      </trkpt>
      <trkpt lat="42.590919494628906" lon="-7.723758220672607">
        <ele>178.0</ele>
        <time>2019-04-30T12:31:00.000Z</time>
      </trkpt>
      <trkpt lat="42.59092712402344" lon="-7.723760604858398">
        <ele>178.0</ele>
        <time>2019-04-30T12:31:00.000Z</time>
      </trkpt>
      <trkpt lat="42.5909309387207" lon="-7.723762512207031">
        <ele>178.0</ele>
        <time>2019-04-30T12:31:01.000Z</time>
      </trkpt>
      <trkpt lat="42.590938568115234" lon="-7.723764896392822">
        <ele>178.0</ele>
        <time>2019-04-30T12:31:01.000Z</time>
      </trkpt>
      <trkpt lat="42.59098815917969" lon="-7.723780632019043">
        <ele>178.0</ele>
        <time>2019-04-30T12:31:05.000Z</time>
      </trkpt>
      <trkpt lat="42.591060638427734" lon="-7.72380256652832">
        <ele>178.0</ele>
        <time>2019-04-30T12:31:10.000Z</time>
      </trkpt>
      <trkpt lat="42.59114456176758" lon="-7.723828315734863">
        <ele>178.0</ele>
        <time>2019-04-30T12:31:14.000Z</time>
      </trkpt>
      <trkpt lat="42.59123229980469" lon="-7.723855972290039">
        <ele>178.0</ele>
        <time>2019-04-30T12:31:19.000Z</time>
      </trkpt>
      <trkpt lat="42.59128952026367" lon="-7.7238898277282715">
        <ele>178.0</ele>
        <time>2019-04-30T12:31:26.000Z</time>
      </trkpt>
      <trkpt lat="42.59134292602539" lon="-7.723928451538086">
        <ele>179.0</ele>
        <time>2019-04-30T12:31:33.000Z</time>
      </trkpt>
      <trkpt lat="42.59138870239258" lon="-7.723970413208008">
        <ele>179.0</ele>
        <time>2019-04-30T12:31:41.000Z</time>
      </trkpt>
      <trkpt lat="42.591434478759766" lon="-7.724013805389404">
        <ele>179.0</ele>
        <time>2019-04-30T12:31:48.000Z</time>
      </trkpt>
      <trkpt lat="42.591453552246094" lon="-7.724047660827637">
        <ele>180.0</ele>
        <time>2019-04-30T12:32:02.000Z</time>
      </trkpt>
      <trkpt lat="42.59145736694336" lon="-7.72407865524292">
        <ele>180.0</ele>
        <time>2019-04-30T12:32:16.000Z</time>
      </trkpt>
      <trkpt lat="42.591453552246094" lon="-7.724108695983887">
        <ele>181.0</ele>
        <time>2019-04-30T12:32:30.000Z</time>
      </trkpt>
      <trkpt lat="42.5914421081543" lon="-7.724137306213379">
        <ele>182.0</ele>
        <time>2019-04-30T12:32:44.000Z</time>
      </trkpt>
      <trkpt lat="42.59144592285156" lon="-7.724156379699707">
        <ele>182.0</ele>
        <time>2019-04-30T12:32:44.000Z</time>
      </trkpt>
      <trkpt lat="42.59144592285156" lon="-7.724170207977295">
        <ele>182.0</ele>
        <time>2019-04-30T12:32:44.000Z</time>
      </trkpt>
      <trkpt lat="42.59144592285156" lon="-7.724180698394775">
        <ele>182.0</ele>
        <time>2019-04-30T12:32:45.000Z</time>
      </trkpt>
      <trkpt lat="42.59144592285156" lon="-7.724189281463623">
        <ele>182.0</ele>
        <time>2019-04-30T12:32:45.000Z</time>
      </trkpt>
      <trkpt lat="42.591434478759766" lon="-7.724234104156494">
        <ele>182.0</ele>
        <time>2019-04-30T12:32:49.000Z</time>
      </trkpt>
      <trkpt lat="42.59141540527344" lon="-7.724291801452637">
        <ele>182.0</ele>
        <time>2019-04-30T12:32:52.000Z</time>
      </trkpt>
      <trkpt lat="42.59139633178711" lon="-7.724358558654785">
        <ele>182.0</ele>
        <time>2019-04-30T12:32:56.000Z</time>
      </trkpt>
      <trkpt lat="42.59136962890625" lon="-7.724429607391357">
        <ele>182.0</ele>
        <time>2019-04-30T12:33:00.000Z</time>
      </trkpt>
      <trkpt lat="42.59135055541992" lon="-7.7244873046875">
        <ele>183.0</ele>
        <time>2019-04-30T12:33:05.000Z</time>
      </trkpt>
      <trkpt lat="42.591331481933594" lon="-7.724543571472168">
        <ele>183.0</ele>
        <time>2019-04-30T12:33:09.000Z</time>
      </trkpt>
      <trkpt lat="42.59130859375" lon="-7.724599361419678">
        <ele>183.0</ele>
        <time>2019-04-30T12:33:14.000Z</time>
      </trkpt>
      <trkpt lat="42.59128952026367" lon="-7.7246551513671875">
        <ele>184.0</ele>
        <time>2019-04-30T12:33:19.000Z</time>
      </trkpt>
      <trkpt lat="42.59126663208008" lon="-7.724707126617432">
        <ele>183.0</ele>
        <time>2019-04-30T12:33:25.000Z</time>
      </trkpt>
      <trkpt lat="42.59123992919922" lon="-7.724757194519043">
        <ele>182.0</ele>
        <time>2019-04-30T12:33:31.000Z</time>
      </trkpt>
      <trkpt lat="42.591217041015625" lon="-7.724806308746338">
        <ele>181.0</ele>
        <time>2019-04-30T12:33:38.000Z</time>
      </trkpt>
      <trkpt lat="42.59119415283203" lon="-7.724854469299316">
        <ele>180.0</ele>
        <time>2019-04-30T12:33:44.000Z</time>
      </trkpt>
      <trkpt lat="42.5911865234375" lon="-7.724879741668701">
        <ele>181.0</ele>
        <time>2019-04-30T12:33:50.000Z</time>
      </trkpt>
      <trkpt lat="42.59120178222656" lon="-7.724870681762695">
        <ele>184.0</ele>
        <time>2019-04-30T12:33:57.000Z</time>
      </trkpt>
      <trkpt lat="42.59120178222656" lon="-7.724875450134277">
        <ele>186.0</ele>
        <time>2019-04-30T12:34:15.000Z</time>
      </trkpt>
      <trkpt lat="42.5911979675293" lon="-7.724880695343018">
        <ele>187.0</ele>
        <time>2019-04-30T12:34:33.000Z</time>
      </trkpt>
      <trkpt lat="42.59119415283203" lon="-7.724885940551758">
        <ele>189.0</ele>
        <time>2019-04-30T12:34:52.000Z</time>
      </trkpt>
      <trkpt lat="42.591190338134766" lon="-7.724891185760498">
        <ele>192.0</ele>
        <time>2019-04-30T12:35:10.000Z</time>
      </trkpt>
      <trkpt lat="42.591190338134766" lon="-7.72489595413208">
        <ele>192.0</ele>
        <time>2019-04-30T12:35:10.000Z</time>
      </trkpt>
      <trkpt lat="42.5911865234375" lon="-7.724900245666504">
        <ele>192.0</ele>
        <time>2019-04-30T12:35:10.000Z</time>
      </trkpt>
      <trkpt lat="42.591182708740234" lon="-7.724904537200928">
        <ele>192.0</ele>
        <time>2019-04-30T12:35:11.000Z</time>
      </trkpt>
      <trkpt lat="42.591182708740234" lon="-7.724908351898193">
        <ele>192.0</ele>
        <time>2019-04-30T12:35:11.000Z</time>
      </trkpt>
      <trkpt lat="42.5911750793457" lon="-7.724923610687256">
        <ele>192.0</ele>
        <time>2019-04-30T12:35:12.000Z</time>
      </trkpt>
      <trkpt lat="42.59116744995117" lon="-7.724943161010742">
        <ele>192.0</ele>
        <time>2019-04-30T12:35:12.000Z</time>
      </trkpt>
      <trkpt lat="42.591156005859375" lon="-7.724965572357178">
        <ele>192.0</ele>
        <time>2019-04-30T12:35:13.000Z</time>
      </trkpt>
      <trkpt lat="42.59114456176758" lon="-7.724989414215088">
        <ele>192.0</ele>
        <time>2019-04-30T12:35:14.000Z</time>
      </trkpt>
      <trkpt lat="42.591129302978516" lon="-7.725025177001953">
        <ele>193.0</ele>
        <time>2019-04-30T12:35:16.000Z</time>
      </trkpt>
      <trkpt lat="42.59111022949219" lon="-7.725068092346191">
        <ele>193.0</ele>
        <time>2019-04-30T12:35:17.000Z</time>
      </trkpt>
      <trkpt lat="42.59109115600586" lon="-7.7251152992248535">
        <ele>194.0</ele>
        <time>2019-04-30T12:35:19.000Z</time>
      </trkpt>
      <trkpt lat="42.591068267822266" lon="-7.725164413452148">
        <ele>195.0</ele>
        <time>2019-04-30T12:35:21.000Z</time>
      </trkpt>
      <trkpt lat="42.59104919433594" lon="-7.725216865539551">
        <ele>197.0</ele>
        <time>2019-04-30T12:35:24.000Z</time>
      </trkpt>
      <trkpt lat="42.591026306152344" lon="-7.725273132324219">
        <ele>199.0</ele>
        <time>2019-04-30T12:35:27.000Z</time>
      </trkpt>
      <trkpt lat="42.59100341796875" lon="-7.725331783294678">
        <ele>200.0</ele>
        <time>2019-04-30T12:35:31.000Z</time>
      </trkpt>
      <trkpt lat="42.590980529785156" lon="-7.725391387939453">
        <ele>203.0</ele>
        <time>2019-04-30T12:35:34.000Z</time>
      </trkpt>
      <trkpt lat="42.59096908569336" lon="-7.725447654724121">
        <ele>205.0</ele>
        <time>2019-04-30T12:35:39.000Z</time>
      </trkpt>
      <trkpt lat="42.59095764160156" lon="-7.725503921508789">
        <ele>207.0</ele>
        <time>2019-04-30T12:35:45.000Z</time>
      </trkpt>
      <trkpt lat="42.59095001220703" lon="-7.725559711456299">
        <ele>209.0</ele>
        <time>2019-04-30T12:35:50.000Z</time>
      </trkpt>
      <trkpt lat="42.5909423828125" lon="-7.72561502456665">
        <ele>212.0</ele>
        <time>2019-04-30T12:35:56.000Z</time>
      </trkpt>
      <trkpt lat="42.5909309387207" lon="-7.725634574890137">
        <ele>212.0</ele>
        <time>2019-04-30T12:36:14.000Z</time>
      </trkpt>
      <trkpt lat="42.59092330932617" lon="-7.7256388664245605">
        <ele>212.0</ele>
        <time>2019-04-30T12:36:31.000Z</time>
      </trkpt>
      <trkpt lat="42.590919494628906" lon="-7.725633144378662">
        <ele>211.0</ele>
        <time>2019-04-30T12:36:49.000Z</time>
      </trkpt>
      <trkpt lat="42.590911865234375" lon="-7.725622177124023">
        <ele>210.0</ele>
        <time>2019-04-30T12:37:07.000Z</time>
      </trkpt>
      <trkpt lat="42.590904235839844" lon="-7.725623607635498">
        <ele>209.0</ele>
        <time>2019-04-30T12:37:07.000Z</time>
      </trkpt>
      <trkpt lat="42.59090042114258" lon="-7.7256245613098145">
        <ele>209.0</ele>
        <time>2019-04-30T12:37:07.000Z</time>
      </trkpt>
      <trkpt lat="42.59089279174805" lon="-7.725625991821289">
        <ele>209.0</ele>
        <time>2019-04-30T12:37:08.000Z</time>
      </trkpt>
      <trkpt lat="42.59088897705078" lon="-7.725627422332764">
        <ele>210.0</ele>
        <time>2019-04-30T12:37:08.000Z</time>
      </trkpt>
      <trkpt lat="42.59086608886719" lon="-7.725641250610352">
        <ele>209.0</ele>
        <time>2019-04-30T12:37:10.000Z</time>
      </trkpt>
      <trkpt lat="42.59083938598633" lon="-7.72566032409668">
        <ele>209.0</ele>
        <time>2019-04-30T12:37:11.000Z</time>
      </trkpt>
      <trkpt lat="42.5908088684082" lon="-7.725683212280273">
        <ele>209.0</ele>
        <time>2019-04-30T12:37:13.000Z</time>
      </trkpt>
      <trkpt lat="42.59077453613281" lon="-7.725707530975342">
        <ele>209.0</ele>
        <time>2019-04-30T12:37:15.000Z</time>
      </trkpt>
      <trkpt lat="42.590763092041016" lon="-7.725708484649658">
        <ele>209.0</ele>
        <time>2019-04-30T12:37:20.000Z</time>
      </trkpt>
      <trkpt lat="42.590763092041016" lon="-7.725675106048584">
        <ele>208.0</ele>
        <time>2019-04-30T12:37:31.000Z</time>
      </trkpt>
      <trkpt lat="42.590763092041016" lon="-7.725681304931641">
        <ele>208.0</ele>
        <time>2019-04-30T12:37:29.000Z</time>
      </trkpt>
      <trkpt lat="42.59075927734375" lon="-7.7256903648376465">
        <ele>208.0</ele>
        <time>2019-04-30T12:37:27.000Z</time>
      </trkpt>
      <trkpt lat="42.59075927734375" lon="-7.7256903648376465">
        <ele>208.0</ele>
        <time>2019-04-30T12:37:34.000Z</time>
      </trkpt>
      <trkpt lat="42.6099967956543" lon="-7.7707200050354">
        <ele>511.0</ele>
        <time>2019-05-01T05:32:36.000Z</time>
      </trkpt>
      <trkpt lat="42.6101188659668" lon="-7.770994186401367">
        <ele>510.0</ele>
        <time>2019-05-01T05:33:00.000Z</time>
      </trkpt>
      <trkpt lat="42.61012649536133" lon="-7.771030902862549">
        <ele>510.0</ele>
        <time>2019-05-01T05:33:10.000Z</time>
      </trkpt>
      <trkpt lat="42.610111236572266" lon="-7.771021842956543">
        <ele>512.0</ele>
        <time>2019-05-01T05:33:19.000Z</time>
      </trkpt>
      <trkpt lat="42.610111236572266" lon="-7.7710280418396">
        <ele>512.0</ele>
        <time>2019-05-01T05:33:20.000Z</time>
      </trkpt>
      <trkpt lat="42.610107421875" lon="-7.771033763885498">
        <ele>512.0</ele>
        <time>2019-05-01T05:33:20.000Z</time>
      </trkpt>
      <trkpt lat="42.610107421875" lon="-7.7710394859313965">
        <ele>512.0</ele>
        <time>2019-05-01T05:33:20.000Z</time>
      </trkpt>
      <trkpt lat="42.610107421875" lon="-7.771045207977295">
        <ele>512.0</ele>
        <time>2019-05-01T05:33:20.000Z</time>
      </trkpt>
      <trkpt lat="42.610103607177734" lon="-7.7710676193237305">
        <ele>512.0</ele>
        <time>2019-05-01T05:33:22.000Z</time>
      </trkpt>
      <trkpt lat="42.6100959777832" lon="-7.771097660064697">
        <ele>512.0</ele>
        <time>2019-05-01T05:33:23.000Z</time>
      </trkpt>
      <trkpt lat="42.61008834838867" lon="-7.771131992340088">
        <ele>512.0</ele>
        <time>2019-05-01T05:33:25.000Z</time>
      </trkpt>
      <trkpt lat="42.61008071899414" lon="-7.7711687088012695">
        <ele>512.0</ele>
        <time>2019-05-01T05:33:27.000Z</time>
      </trkpt>
      <trkpt lat="42.61008834838867" lon="-7.771214962005615">
        <ele>514.0</ele>
        <time>2019-05-01T05:33:37.000Z</time>
      </trkpt>
      <trkpt lat="42.610103607177734" lon="-7.771254062652588">
        <ele>517.0</ele>
        <time>2019-05-01T05:33:47.000Z</time>
      </trkpt>
      <trkpt lat="42.610107421875" lon="-7.771269798278809">
        <ele>517.0</ele>
        <time>2019-05-01T05:33:48.000Z</time>
      </trkpt>
      <trkpt lat="42.610111236572266" lon="-7.7712836265563965">
        <ele>517.0</ele>
        <time>2019-05-01T05:33:48.000Z</time>
      </trkpt>
      <trkpt lat="42.61011505126953" lon="-7.771295547485352">
        <ele>517.0</ele>
        <time>2019-05-01T05:33:48.000Z</time>
      </trkpt>
      <trkpt lat="42.61011505126953" lon="-7.771306991577148">
        <ele>517.0</ele>
        <time>2019-05-01T05:33:48.000Z</time>
      </trkpt>
      <trkpt lat="42.61012268066406" lon="-7.77133846282959">
        <ele>517.0</ele>
        <time>2019-05-01T05:33:50.000Z</time>
      </trkpt>
      <trkpt lat="42.610130310058594" lon="-7.7713775634765625">
        <ele>517.0</ele>
        <time>2019-05-01T05:33:51.000Z</time>
      </trkpt>
      <trkpt lat="42.610137939453125" lon="-7.771421909332275">
        <ele>517.0</ele>
        <time>2019-05-01T05:33:52.000Z</time>
      </trkpt>
      <trkpt lat="42.610145568847656" lon="-7.771468639373779">
        <ele>517.0</ele>
        <time>2019-05-01T05:33:53.000Z</time>
      </trkpt>
      <trkpt lat="42.61014938354492" lon="-7.771491527557373">
        <ele>517.0</ele>
        <time>2019-05-01T05:33:55.000Z</time>
      </trkpt>
      <trkpt lat="42.61015319824219" lon="-7.771506309509277">
        <ele>517.0</ele>
        <time>2019-05-01T05:33:56.000Z</time>
      </trkpt>
      <trkpt lat="42.61015701293945" lon="-7.7715163230896">
        <ele>516.0</ele>
        <time>2019-05-01T05:33:58.000Z</time>
      </trkpt>
      <trkpt lat="42.61016082763672" lon="-7.771523952484131">
        <ele>516.0</ele>
        <time>2019-05-01T05:33:59.000Z</time>
      </trkpt>
      <trkpt lat="42.610164642333984" lon="-7.771534442901611">
        <ele>516.0</ele>
        <time>2019-05-01T05:34:00.000Z</time>
      </trkpt>
      <trkpt lat="42.610164642333984" lon="-7.771543979644775">
        <ele>516.0</ele>
        <time>2019-05-01T05:34:00.000Z</time>
      </trkpt>
      <trkpt lat="42.61016845703125" lon="-7.771552562713623">
        <ele>516.0</ele>
        <time>2019-05-01T05:34:00.000Z</time>
      </trkpt>
      <trkpt lat="42.61016845703125" lon="-7.771560192108154">
        <ele>516.0</ele>
        <time>2019-05-01T05:34:00.000Z</time>
      </trkpt>
      <trkpt lat="42.61020278930664" lon="-7.771622180938721">
        <ele>516.0</ele>
        <time>2019-05-01T05:34:05.000Z</time>
      </trkpt>
      <trkpt lat="42.610252380371094" lon="-7.771705627441406">
        <ele>517.0</ele>
        <time>2019-05-01T05:34:10.000Z</time>
      </trkpt>
      <trkpt lat="42.61030960083008" lon="-7.771804332733154">
        <ele>517.0</ele>
        <time>2019-05-01T05:34:15.000Z</time>
      </trkpt>
      <trkpt lat="42.61037063598633" lon="-7.771909713745117">
        <ele>517.0</ele>
        <time>2019-05-01T05:34:19.000Z</time>
      </trkpt>
      <trkpt lat="42.610469818115234" lon="-7.772165298461914">
        <ele>517.0</ele>
        <time>2019-05-01T05:34:40.000Z</time>
      </trkpt>
      <trkpt lat="42.61048126220703" lon="-7.7722086906433105">
        <ele>515.0</ele>
        <time>2019-05-01T05:34:56.000Z</time>
      </trkpt>
      <trkpt lat="42.61048889160156" lon="-7.772240161895752">
        <ele>515.0</ele>
        <time>2019-05-01T05:34:57.000Z</time>
      </trkpt>
      <trkpt lat="42.61064529418945" lon="-7.772656440734863">
        <ele>515.0</ele>
        <time>2019-05-01T05:35:17.000Z</time>
      </trkpt>
      <trkpt lat="42.61080551147461" lon="-7.773021697998047">
        <ele>514.0</ele>
        <time>2019-05-01T05:35:46.000Z</time>
      </trkpt>
      <trkpt lat="42.61089324951172" lon="-7.773306846618652">
        <ele>514.0</ele>
        <time>2019-05-01T05:36:10.000Z</time>
      </trkpt>
      <trkpt lat="42.61089324951172" lon="-7.773362159729004">
        <ele>513.0</ele>
        <time>2019-05-01T05:36:22.000Z</time>
      </trkpt>
      <trkpt lat="42.610877990722656" lon="-7.773376941680908">
        <ele>512.0</ele>
        <time>2019-05-01T05:36:33.000Z</time>
      </trkpt>
      <trkpt lat="42.61087417602539" lon="-7.77338981628418">
        <ele>512.0</ele>
        <time>2019-05-01T05:36:34.000Z</time>
      </trkpt>
      <trkpt lat="42.61087417602539" lon="-7.77340030670166">
        <ele>512.0</ele>
        <time>2019-05-01T05:36:34.000Z</time>
      </trkpt>
      <trkpt lat="42.610870361328125" lon="-7.773409843444824">
        <ele>512.0</ele>
        <time>2019-05-01T05:36:34.000Z</time>
      </trkpt>
      <trkpt lat="42.610870361328125" lon="-7.773418426513672">
        <ele>512.0</ele>
        <time>2019-05-01T05:36:34.000Z</time>
      </trkpt>
      <trkpt lat="42.61085891723633" lon="-7.773460865020752">
        <ele>512.0</ele>
        <time>2019-05-01T05:36:36.000Z</time>
      </trkpt>
      <trkpt lat="42.61084747314453" lon="-7.773516654968262">
        <ele>512.0</ele>
        <time>2019-05-01T05:36:38.000Z</time>
      </trkpt>
      <trkpt lat="42.6108283996582" lon="-7.773581504821777">
        <ele>512.0</ele>
        <time>2019-05-01T05:36:40.000Z</time>
      </trkpt>
      <trkpt lat="42.61081314086914" lon="-7.773651123046875">
        <ele>513.0</ele>
        <time>2019-05-01T05:36:42.000Z</time>
      </trkpt>
      <trkpt lat="42.61078643798828" lon="-7.773679256439209">
        <ele>513.0</ele>
        <time>2019-05-01T05:36:45.000Z</time>
      </trkpt>
      <trkpt lat="42.610755920410156" lon="-7.773695468902588">
        <ele>513.0</ele>
        <time>2019-05-01T05:36:47.000Z</time>
      </trkpt>
      <trkpt lat="42.610721588134766" lon="-7.773703098297119">
        <ele>513.0</ele>
        <time>2019-05-01T05:36:49.000Z</time>
      </trkpt>
      <trkpt lat="42.610687255859375" lon="-7.773706912994385">
        <ele>513.0</ele>
        <time>2019-05-01T05:36:51.000Z</time>
      </trkpt>
      <trkpt lat="42.61068344116211" lon="-7.773741245269775">
        <ele>513.0</ele>
        <time>2019-05-01T05:36:53.000Z</time>
      </trkpt>
      <trkpt lat="42.610694885253906" lon="-7.773784637451172">
        <ele>512.0</ele>
        <time>2019-05-01T05:36:55.000Z</time>
      </trkpt>
      <trkpt lat="42.61071014404297" lon="-7.773833751678467">
        <ele>512.0</ele>
        <time>2019-05-01T05:36:57.000Z</time>
      </trkpt>
      <trkpt lat="42.6107292175293" lon="-7.773885726928711">
        <ele>512.0</ele>
        <time>2019-05-01T05:36:59.000Z</time>
      </trkpt>
      <trkpt lat="42.610713958740234" lon="-7.773938179016113">
        <ele>511.0</ele>
        <time>2019-05-01T05:37:05.000Z</time>
      </trkpt>
      <trkpt lat="42.61068344116211" lon="-7.773993492126465">
        <ele>511.0</ele>
        <time>2019-05-01T05:37:10.000Z</time>
      </trkpt>
      <trkpt lat="42.61064910888672" lon="-7.774050712585449">
        <ele>511.0</ele>
        <time>2019-05-01T05:37:16.000Z</time>
      </trkpt>
      <trkpt lat="42.6106071472168" lon="-7.774109363555908">
        <ele>510.0</ele>
        <time>2019-05-01T05:37:21.000Z</time>
      </trkpt>
      <trkpt lat="42.61060333251953" lon="-7.774134635925293">
        <ele>511.0</ele>
        <time>2019-05-01T05:37:31.000Z</time>
      </trkpt>
      <trkpt lat="42.61061096191406" lon="-7.7741475105285645">
        <ele>512.0</ele>
        <time>2019-05-01T05:37:41.000Z</time>
      </trkpt>
      <trkpt lat="42.61063003540039" lon="-7.7741522789001465">
        <ele>513.0</ele>
        <time>2019-05-01T05:37:51.000Z</time>
      </trkpt>
      <trkpt lat="42.61064910888672" lon="-7.7741522789001465">
        <ele>514.0</ele>
        <time>2019-05-01T05:38:01.000Z</time>
      </trkpt>
      <trkpt lat="42.61065673828125" lon="-7.774160861968994">
        <ele>514.0</ele>
        <time>2019-05-01T05:38:02.000Z</time>
      </trkpt>
      <trkpt lat="42.61066436767578" lon="-7.774168014526367">
        <ele>514.0</ele>
        <time>2019-05-01T05:38:02.000Z</time>
      </trkpt>
      <trkpt lat="42.61066818237305" lon="-7.77417516708374">
        <ele>514.0</ele>
        <time>2019-05-01T05:38:02.000Z</time>
      </trkpt>
      <trkpt lat="42.61067581176758" lon="-7.774181365966797">
        <ele>514.0</ele>
        <time>2019-05-01T05:38:02.000Z</time>
      </trkpt>
      <trkpt lat="42.61069869995117" lon="-7.774219512939453">
        <ele>514.0</ele>
        <time>2019-05-01T05:38:04.000Z</time>
      </trkpt>
      <trkpt lat="42.6107292175293" lon="-7.774271011352539">
        <ele>514.0</ele>
        <time>2019-05-01T05:38:05.000Z</time>
      </trkpt>
      <trkpt lat="42.61076354980469" lon="-7.774331569671631">
        <ele>515.0</ele>
        <time>2019-05-01T05:38:06.000Z</time>
      </trkpt>
      <trkpt lat="42.61079788208008" lon="-7.774395942687988">
        <ele>515.0</ele>
        <time>2019-05-01T05:38:07.000Z</time>
      </trkpt>
      <trkpt lat="42.61083221435547" lon="-7.774453639984131">
        <ele>515.0</ele>
        <time>2019-05-01T05:38:12.000Z</time>
      </trkpt>
      <trkpt lat="42.610862731933594" lon="-7.774512767791748">
        <ele>516.0</ele>
        <time>2019-05-01T05:38:16.000Z</time>
      </trkpt>
      <trkpt lat="42.610897064208984" lon="-7.774572849273682">
        <ele>517.0</ele>
        <time>2019-05-01T05:38:21.000Z</time>
      </trkpt>
      <trkpt lat="42.610931396484375" lon="-7.774633884429932">
        <ele>517.0</ele>
        <time>2019-05-01T05:38:25.000Z</time>
      </trkpt>
      <trkpt lat="42.61094665527344" lon="-7.774655818939209">
        <ele>516.0</ele>
        <time>2019-05-01T05:38:34.000Z</time>
      </trkpt>
      <trkpt lat="42.61094284057617" lon="-7.774632930755615">
        <ele>515.0</ele>
        <time>2019-05-01T05:38:42.000Z</time>
      </trkpt>
      <trkpt lat="42.61094665527344" lon="-7.774632453918457">
        <ele>515.0</ele>
        <time>2019-05-01T05:38:43.000Z</time>
      </trkpt>
      <trkpt lat="42.61094665527344" lon="-7.774631977081299">
        <ele>515.0</ele>
        <time>2019-05-01T05:38:43.000Z</time>
      </trkpt>
      <trkpt lat="42.6109504699707" lon="-7.774631977081299">
        <ele>515.0</ele>
        <time>2019-05-01T05:38:43.000Z</time>
      </trkpt>
      <trkpt lat="42.61095428466797" lon="-7.774631500244141">
        <ele>515.0</ele>
        <time>2019-05-01T05:38:43.000Z</time>
      </trkpt>
      <trkpt lat="42.61095428466797" lon="-7.774631500244141">
        <ele>515.0</ele>
        <time>2019-05-01T05:38:44.000Z</time>
      </trkpt>
      <trkpt lat="42.610958099365234" lon="-7.774631023406982">
        <ele>515.0</ele>
        <time>2019-05-01T05:38:44.000Z</time>
      </trkpt>
      <trkpt lat="42.6109619140625" lon="-7.774631023406982">
        <ele>515.0</ele>
        <time>2019-05-01T05:38:44.000Z</time>
      </trkpt>
      <trkpt lat="42.6109619140625" lon="-7.774630546569824">
        <ele>515.0</ele>
        <time>2019-05-01T05:38:44.000Z</time>
      </trkpt>
      <trkpt lat="42.61098861694336" lon="-7.7746429443359375">
        <ele>515.0</ele>
        <time>2019-05-01T05:38:50.000Z</time>
      </trkpt>
      <trkpt lat="42.611026763916016" lon="-7.774660110473633">
        <ele>516.0</ele>
        <time>2019-05-01T05:38:56.000Z</time>
      </trkpt>
      <trkpt lat="42.61106872558594" lon="-7.7746806144714355">
        <ele>516.0</ele>
        <time>2019-05-01T05:39:02.000Z</time>
      </trkpt>
      <trkpt lat="42.611114501953125" lon="-7.774703025817871">
        <ele>517.0</ele>
        <time>2019-05-01T05:39:07.000Z</time>
      </trkpt>
      <trkpt lat="42.61113739013672" lon="-7.774713516235352">
        <ele>517.0</ele>
        <time>2019-05-01T05:39:08.000Z</time>
      </trkpt>
      <trkpt lat="42.61115264892578" lon="-7.774721145629883">
        <ele>517.0</ele>
        <time>2019-05-01T05:39:08.000Z</time>
      </trkpt>
      <trkpt lat="42.61116409301758" lon="-7.774726390838623">
        <ele>517.0</ele>
        <time>2019-05-01T05:39:08.000Z</time>
      </trkpt>
      <trkpt lat="42.61117172241211" lon="-7.774730682373047">
        <ele>517.0</ele>
        <time>2019-05-01T05:39:08.000Z</time>
      </trkpt>
      <trkpt lat="42.61122131347656" lon="-7.77476692199707">
        <ele>517.0</ele>
        <time>2019-05-01T05:39:12.000Z</time>
      </trkpt>
      <trkpt lat="42.61128234863281" lon="-7.774815559387207">
        <ele>517.0</ele>
        <time>2019-05-01T05:39:15.000Z</time>
      </trkpt>
      <trkpt lat="42.61135482788086" lon="-7.774872303009033">
        <ele>516.0</ele>
        <time>2019-05-01T05:39:18.000Z</time>
      </trkpt>
      <trkpt lat="42.61143112182617" lon="-7.774933338165283">
        <ele>516.0</ele>
        <time>2019-05-01T05:39:21.000Z</time>
      </trkpt>
      <trkpt lat="42.6114501953125" lon="-7.774948596954346">
        <ele>517.0</ele>
        <time>2019-05-01T05:39:53.000Z</time>
      </trkpt>
      <trkpt lat="42.61146545410156" lon="-7.774961948394775">
        <ele>517.0</ele>
        <time>2019-05-01T05:39:54.000Z</time>
      </trkpt>
      <trkpt lat="42.611549377441406" lon="-7.775031089782715">
        <ele>517.0</ele>
        <time>2019-05-01T05:39:58.000Z</time>
      </trkpt>
      <trkpt lat="42.61156463623047" lon="-7.775042533874512">
        <ele>518.0</ele>
        <time>2019-05-01T05:40:00.000Z</time>
      </trkpt>
      <trkpt lat="42.611576080322266" lon="-7.775052547454834">
        <ele>518.0</ele>
        <time>2019-05-01T05:40:01.000Z</time>
      </trkpt>
      <trkpt lat="42.61187744140625" lon="-7.7752885818481445">
        <ele>521.0</ele>
        <time>2019-05-01T05:40:14.000Z</time>
      </trkpt>
      <trkpt lat="42.612186431884766" lon="-7.775506973266602">
        <ele>523.0</ele>
        <time>2019-05-01T05:40:42.000Z</time>
      </trkpt>
      <trkpt lat="42.61248779296875" lon="-7.775721549987793">
        <ele>525.0</ele>
        <time>2019-05-01T05:41:15.000Z</time>
      </trkpt>
      <trkpt lat="42.612545013427734" lon="-7.7758097648620605">
        <ele>526.0</ele>
        <time>2019-05-01T05:41:22.000Z</time>
      </trkpt>
      <trkpt lat="42.6125602722168" lon="-7.775889873504639">
        <ele>526.0</ele>
        <time>2019-05-01T05:41:29.000Z</time>
      </trkpt>
      <trkpt lat="42.612648010253906" lon="-7.775959491729736">
        <ele>526.0</ele>
        <time>2019-05-01T05:41:38.000Z</time>
      </trkpt>
      <trkpt lat="42.61275863647461" lon="-7.776022434234619">
        <ele>525.0</ele>
        <time>2019-05-01T05:41:47.000Z</time>
      </trkpt>
      <trkpt lat="42.612796783447266" lon="-7.776092529296875">
        <ele>525.0</ele>
        <time>2019-05-01T05:41:55.000Z</time>
      </trkpt>
      <trkpt lat="42.61280822753906" lon="-7.776163578033447">
        <ele>526.0</ele>
        <time>2019-05-01T05:42:02.000Z</time>
      </trkpt>
      <trkpt lat="42.612850189208984" lon="-7.776196479797363">
        <ele>526.0</ele>
        <time>2019-05-01T05:42:08.000Z</time>
      </trkpt>
      <trkpt lat="42.6129035949707" lon="-7.776227951049805">
        <ele>527.0</ele>
        <time>2019-05-01T05:42:13.000Z</time>
      </trkpt>
      <trkpt lat="42.61296844482422" lon="-7.77625846862793">
        <ele>527.0</ele>
        <time>2019-05-01T05:42:18.000Z</time>
      </trkpt>
      <trkpt lat="42.613033294677734" lon="-7.776288986206055">
        <ele>528.0</ele>
        <time>2019-05-01T05:42:23.000Z</time>
      </trkpt>
      <trkpt lat="42.613101959228516" lon="-7.776332855224609">
        <ele>529.0</ele>
        <time>2019-05-01T05:42:30.000Z</time>
      </trkpt>
      <trkpt lat="42.61317825317383" lon="-7.776381969451904">
        <ele>529.0</ele>
        <time>2019-05-01T05:42:37.000Z</time>
      </trkpt>
      <trkpt lat="42.61325454711914" lon="-7.776434898376465">
        <ele>529.0</ele>
        <time>2019-05-01T05:42:44.000Z</time>
      </trkpt>
      <trkpt lat="42.61333465576172" lon="-7.7764892578125">
        <ele>530.0</ele>
        <time>2019-05-01T05:42:51.000Z</time>
      </trkpt>
      <trkpt lat="42.61338424682617" lon="-7.776523590087891">
        <ele>530.0</ele>
        <time>2019-05-01T05:42:56.000Z</time>
      </trkpt>
      <trkpt lat="42.61342239379883" lon="-7.776551246643066">
        <ele>531.0</ele>
        <time>2019-05-01T05:43:01.000Z</time>
      </trkpt>
      <trkpt lat="42.61344909667969" lon="-7.776575088500977">
        <ele>531.0</ele>
        <time>2019-05-01T05:43:06.000Z</time>
      </trkpt>
      <trkpt lat="42.61347579956055" lon="-7.7765960693359375">
        <ele>532.0</ele>
        <time>2019-05-01T05:43:11.000Z</time>
      </trkpt>
      <trkpt lat="42.613494873046875" lon="-7.776616096496582">
        <ele>532.0</ele>
        <time>2019-05-01T05:43:15.000Z</time>
      </trkpt>
      <trkpt lat="42.61351013183594" lon="-7.776632785797119">
        <ele>533.0</ele>
        <time>2019-05-01T05:43:18.000Z</time>
      </trkpt>
      <trkpt lat="42.613521575927734" lon="-7.776647567749023">
        <ele>533.0</ele>
        <time>2019-05-01T05:43:21.000Z</time>
      </trkpt>
      <trkpt lat="42.613529205322266" lon="-7.7766618728637695">
        <ele>534.0</ele>
        <time>2019-05-01T05:43:24.000Z</time>
      </trkpt>
      <trkpt lat="42.61354064941406" lon="-7.77667236328125">
        <ele>534.0</ele>
        <time>2019-05-01T05:43:25.000Z</time>
      </trkpt>
      <trkpt lat="42.61354446411133" lon="-7.776679992675781">
        <ele>534.0</ele>
        <time>2019-05-01T05:43:25.000Z</time>
      </trkpt>
      <trkpt lat="42.61355209350586" lon="-7.776686191558838">
        <ele>534.0</ele>
        <time>2019-05-01T05:43:25.000Z</time>
      </trkpt>
      <trkpt lat="42.613555908203125" lon="-7.776691913604736">
        <ele>534.0</ele>
        <time>2019-05-01T05:43:25.000Z</time>
      </trkpt>
      <trkpt lat="42.61360549926758" lon="-7.77673864364624">
        <ele>535.0</ele>
        <time>2019-05-01T05:43:32.000Z</time>
      </trkpt>
      <trkpt lat="42.61367416381836" lon="-7.7768025398254395">
        <ele>536.0</ele>
        <time>2019-05-01T05:43:39.000Z</time>
      </trkpt>
      <trkpt lat="42.61375427246094" lon="-7.776876926422119">
        <ele>538.0</ele>
        <time>2019-05-01T05:43:46.000Z</time>
      </trkpt>
      <trkpt lat="42.61383819580078" lon="-7.776957035064697">
        <ele>540.0</ele>
        <time>2019-05-01T05:43:52.000Z</time>
      </trkpt>
      <trkpt lat="42.6138916015625" lon="-7.776989936828613">
        <ele>541.0</ele>
        <time>2019-05-01T05:43:58.000Z</time>
      </trkpt>
      <trkpt lat="42.61394119262695" lon="-7.777024745941162">
        <ele>544.0</ele>
        <time>2019-05-01T05:44:12.000Z</time>
      </trkpt>
      <trkpt lat="42.61397171020508" lon="-7.777044296264648">
        <ele>544.0</ele>
        <time>2019-05-01T05:44:13.000Z</time>
      </trkpt>
      <trkpt lat="42.61430740356445" lon="-7.777196884155273">
        <ele>548.0</ele>
        <time>2019-05-01T05:44:28.000Z</time>
      </trkpt>
      <trkpt lat="42.614646911621094" lon="-7.777338981628418">
        <ele>553.0</ele>
        <time>2019-05-01T05:45:05.000Z</time>
      </trkpt>
      <trkpt lat="42.61467742919922" lon="-7.777343273162842">
        <ele>553.0</ele>
        <time>2019-05-01T05:45:10.000Z</time>
      </trkpt>
      <trkpt lat="42.61472702026367" lon="-7.777354717254639">
        <ele>558.0</ele>
        <time>2019-05-01T05:45:28.000Z</time>
      </trkpt>
      <trkpt lat="42.6147575378418" lon="-7.7773613929748535">
        <ele>558.0</ele>
        <time>2019-05-01T05:45:29.000Z</time>
      </trkpt>
      <trkpt lat="42.6151008605957" lon="-7.77748441696167">
        <ele>562.0</ele>
        <time>2019-05-01T05:45:47.000Z</time>
      </trkpt>
      <trkpt lat="42.615421295166016" lon="-7.7776780128479">
        <ele>566.0</ele>
        <time>2019-05-01T05:46:14.000Z</time>
      </trkpt>
      <trkpt lat="42.61554718017578" lon="-7.777838706970215">
        <ele>565.0</ele>
        <time>2019-05-01T05:46:28.000Z</time>
      </trkpt>
      <trkpt lat="42.615657806396484" lon="-7.778029441833496">
        <ele>563.0</ele>
        <time>2019-05-01T05:46:42.000Z</time>
      </trkpt>
      <trkpt lat="42.61570739746094" lon="-7.778128623962402">
        <ele>562.0</ele>
        <time>2019-05-01T05:46:51.000Z</time>
      </trkpt>
      <trkpt lat="42.615753173828125" lon="-7.778233051300049">
        <ele>562.0</ele>
        <time>2019-05-01T05:46:59.000Z</time>
      </trkpt>
      <trkpt lat="42.61579513549805" lon="-7.778340816497803">
        <ele>561.0</ele>
        <time>2019-05-01T05:47:08.000Z</time>
      </trkpt>
      <trkpt lat="42.61583709716797" lon="-7.778450012207031">
        <ele>561.0</ele>
        <time>2019-05-01T05:47:16.000Z</time>
      </trkpt>
      <trkpt lat="42.615867614746094" lon="-7.778518199920654">
        <ele>561.0</ele>
        <time>2019-05-01T05:47:21.000Z</time>
      </trkpt>
      <trkpt lat="42.61589050292969" lon="-7.778571128845215">
        <ele>561.0</ele>
        <time>2019-05-01T05:47:26.000Z</time>
      </trkpt>
      <trkpt lat="42.61590576171875" lon="-7.778613090515137">
        <ele>561.0</ele>
        <time>2019-05-01T05:47:31.000Z</time>
      </trkpt>
      <trkpt lat="42.61592483520508" lon="-7.778650283813477">
        <ele>562.0</ele>
        <time>2019-05-01T05:47:35.000Z</time>
      </trkpt>
      <trkpt lat="42.61594772338867" lon="-7.77870512008667">
        <ele>562.0</ele>
        <time>2019-05-01T05:47:42.000Z</time>
      </trkpt>
      <trkpt lat="42.61597442626953" lon="-7.778761863708496">
        <ele>562.0</ele>
        <time>2019-05-01T05:47:49.000Z</time>
      </trkpt>
      <trkpt lat="42.61600112915039" lon="-7.778819561004639">
        <ele>562.0</ele>
        <time>2019-05-01T05:47:56.000Z</time>
      </trkpt>
      <trkpt lat="42.616031646728516" lon="-7.778878211975098">
        <ele>562.0</ele>
        <time>2019-05-01T05:48:03.000Z</time>
      </trkpt>
      <trkpt lat="42.61603927612305" lon="-7.778903484344482">
        <ele>562.0</ele>
        <time>2019-05-01T05:48:05.000Z</time>
      </trkpt>
      <trkpt lat="42.61603546142578" lon="-7.778915882110596">
        <ele>562.0</ele>
        <time>2019-05-01T05:48:07.000Z</time>
      </trkpt>
      <trkpt lat="42.61602783203125" lon="-7.778919219970703">
        <ele>562.0</ele>
        <time>2019-05-01T05:48:09.000Z</time>
      </trkpt>
      <trkpt lat="42.61601638793945" lon="-7.7789177894592285">
        <ele>563.0</ele>
        <time>2019-05-01T05:48:10.000Z</time>
      </trkpt>
      <trkpt lat="42.61602783203125" lon="-7.778923034667969">
        <ele>563.0</ele>
        <time>2019-05-01T05:48:16.000Z</time>
      </trkpt>
      <trkpt lat="42.61603927612305" lon="-7.778926372528076">
        <ele>564.0</ele>
        <time>2019-05-01T05:48:21.000Z</time>
      </trkpt>
      <trkpt lat="42.61605453491211" lon="-7.778928279876709">
        <ele>565.0</ele>
        <time>2019-05-01T05:48:27.000Z</time>
      </trkpt>
      <trkpt lat="42.61607360839844" lon="-7.778929233551025">
        <ele>566.0</ele>
        <time>2019-05-01T05:48:32.000Z</time>
      </trkpt>
      <trkpt lat="42.616085052490234" lon="-7.778931140899658">
        <ele>567.0</ele>
        <time>2019-05-01T05:48:33.000Z</time>
      </trkpt>
      <trkpt lat="42.616092681884766" lon="-7.778933048248291">
        <ele>567.0</ele>
        <time>2019-05-01T05:48:33.000Z</time>
      </trkpt>
      <trkpt lat="42.6161003112793" lon="-7.778934478759766">
        <ele>567.0</ele>
        <time>2019-05-01T05:48:33.000Z</time>
      </trkpt>
      <trkpt lat="42.61610412597656" lon="-7.77893590927124">
        <ele>566.0</ele>
        <time>2019-05-01T05:48:33.000Z</time>
      </trkpt>
      <trkpt lat="42.61616134643555" lon="-7.778963088989258">
        <ele>567.0</ele>
        <time>2019-05-01T05:48:39.000Z</time>
      </trkpt>
      <trkpt lat="42.616241455078125" lon="-7.779000759124756">
        <ele>567.0</ele>
        <time>2019-05-01T05:48:45.000Z</time>
      </trkpt>
      <trkpt lat="42.6163330078125" lon="-7.779045581817627">
        <ele>567.0</ele>
        <time>2019-05-01T05:48:51.000Z</time>
      </trkpt>
      <trkpt lat="42.616432189941406" lon="-7.779094219207764">
        <ele>568.0</ele>
        <time>2019-05-01T05:48:57.000Z</time>
      </trkpt>
      <trkpt lat="42.61650848388672" lon="-7.779152870178223">
        <ele>568.0</ele>
        <time>2019-05-01T05:49:04.000Z</time>
      </trkpt>
      <trkpt lat="42.616580963134766" lon="-7.779219150543213">
        <ele>569.0</ele>
        <time>2019-05-01T05:49:11.000Z</time>
      </trkpt>
      <trkpt lat="42.61665344238281" lon="-7.779290676116943">
        <ele>569.0</ele>
        <time>2019-05-01T05:49:18.000Z</time>
      </trkpt>
      <trkpt lat="42.616722106933594" lon="-7.779364585876465">
        <ele>570.0</ele>
        <time>2019-05-01T05:49:25.000Z</time>
      </trkpt>
      <trkpt lat="42.616790771484375" lon="-7.7794389724731445">
        <ele>570.0</ele>
        <time>2019-05-01T05:49:33.000Z</time>
      </trkpt>
      <trkpt lat="42.616859436035156" lon="-7.779516220092773">
        <ele>570.0</ele>
        <time>2019-05-01T05:49:40.000Z</time>
      </trkpt>
      <trkpt lat="42.61692428588867" lon="-7.779595375061035">
        <ele>570.0</ele>
        <time>2019-05-01T05:49:48.000Z</time>
      </trkpt>
      <trkpt lat="42.61698532104492" lon="-7.779675483703613">
        <ele>570.0</ele>
        <time>2019-05-01T05:49:55.000Z</time>
      </trkpt>
      <trkpt lat="42.6170539855957" lon="-7.77974796295166">
        <ele>570.0</ele>
        <time>2019-05-01T05:50:03.000Z</time>
      </trkpt>
      <trkpt lat="42.61712646484375" lon="-7.779818534851074">
        <ele>569.0</ele>
        <time>2019-05-01T05:50:11.000Z</time>
      </trkpt>
      <trkpt lat="42.61719512939453" lon="-7.779887676239014">
        <ele>569.0</ele>
        <time>2019-05-01T05:50:19.000Z</time>
      </trkpt>
      <trkpt lat="42.61726760864258" lon="-7.779955863952637">
        <ele>568.0</ele>
        <time>2019-05-01T05:50:27.000Z</time>
      </trkpt>
      <trkpt lat="42.61739730834961" lon="-7.780118465423584">
        <ele>567.0</ele>
        <time>2019-05-01T05:50:41.000Z</time>
      </trkpt>
      <trkpt lat="42.61740493774414" lon="-7.780179977416992">
        <ele>567.0</ele>
        <time>2019-05-01T05:50:46.000Z</time>
      </trkpt>
      <trkpt lat="42.61740493774414" lon="-7.780250549316406">
        <ele>566.0</ele>
        <time>2019-05-01T05:50:50.000Z</time>
      </trkpt>
      <trkpt lat="42.617401123046875" lon="-7.7803263664245605">
        <ele>565.0</ele>
        <time>2019-05-01T05:50:55.000Z</time>
      </trkpt>
      <trkpt lat="42.61738967895508" lon="-7.7804059982299805">
        <ele>565.0</ele>
        <time>2019-05-01T05:50:59.000Z</time>
      </trkpt>
      <trkpt lat="42.61738586425781" lon="-7.780493259429932">
        <ele>564.0</ele>
        <time>2019-05-01T05:51:06.000Z</time>
      </trkpt>
      <trkpt lat="42.61737823486328" lon="-7.780587673187256">
        <ele>564.0</ele>
        <time>2019-05-01T05:51:12.000Z</time>
      </trkpt>
      <trkpt lat="42.61737060546875" lon="-7.780686378479004">
        <ele>564.0</ele>
        <time>2019-05-01T05:51:18.000Z</time>
      </trkpt>
      <trkpt lat="42.617366790771484" lon="-7.780786991119385">
        <ele>563.0</ele>
        <time>2019-05-01T05:51:24.000Z</time>
      </trkpt>
      <trkpt lat="42.617374420166016" lon="-7.780832290649414">
        <ele>563.0</ele>
        <time>2019-05-01T05:51:26.000Z</time>
      </trkpt>
      <trkpt lat="42.61738967895508" lon="-7.780856609344482">
        <ele>563.0</ele>
        <time>2019-05-01T05:51:27.000Z</time>
      </trkpt>
      <trkpt lat="42.617408752441406" lon="-7.780867099761963">
        <ele>563.0</ele>
        <time>2019-05-01T05:51:29.000Z</time>
      </trkpt>
      <trkpt lat="42.617427825927734" lon="-7.7808709144592285">
        <ele>563.0</ele>
        <time>2019-05-01T05:51:30.000Z</time>
      </trkpt>
      <trkpt lat="42.61745834350586" lon="-7.780949115753174">
        <ele>563.0</ele>
        <time>2019-05-01T05:51:40.000Z</time>
      </trkpt>
      <trkpt lat="42.617496490478516" lon="-7.781051158905029">
        <ele>563.0</ele>
        <time>2019-05-01T05:51:49.000Z</time>
      </trkpt>
      <trkpt lat="42.61753845214844" lon="-7.781169414520264">
        <ele>562.0</ele>
        <time>2019-05-01T05:51:58.000Z</time>
      </trkpt>
      <trkpt lat="42.617584228515625" lon="-7.781295299530029">
        <ele>562.0</ele>
        <time>2019-05-01T05:52:07.000Z</time>
      </trkpt>
      <trkpt lat="42.617576599121094" lon="-7.781406879425049">
        <ele>562.0</ele>
        <time>2019-05-01T05:52:15.000Z</time>
      </trkpt>
      <trkpt lat="42.617549896240234" lon="-7.781520366668701">
        <ele>562.0</ele>
        <time>2019-05-01T05:52:23.000Z</time>
      </trkpt>
      <trkpt lat="42.61751174926758" lon="-7.781635284423828">
        <ele>563.0</ele>
        <time>2019-05-01T05:52:31.000Z</time>
      </trkpt>
      <trkpt lat="42.617469787597656" lon="-7.7817511558532715">
        <ele>563.0</ele>
        <time>2019-05-01T05:52:38.000Z</time>
      </trkpt>
      <trkpt lat="42.6174201965332" lon="-7.781848907470703">
        <ele>563.0</ele>
        <time>2019-05-01T05:52:47.000Z</time>
      </trkpt>
      <trkpt lat="42.61736297607422" lon="-7.781939506530762">
        <ele>563.0</ele>
        <time>2019-05-01T05:52:56.000Z</time>
      </trkpt>
      <trkpt lat="42.61730194091797" lon="-7.7820258140563965">
        <ele>564.0</ele>
        <time>2019-05-01T05:53:05.000Z</time>
      </trkpt>
      <trkpt lat="42.61723709106445" lon="-7.78210973739624">
        <ele>564.0</ele>
        <time>2019-05-01T05:53:13.000Z</time>
      </trkpt>
      <trkpt lat="42.617191314697266" lon="-7.782156467437744">
        <ele>564.0</ele>
        <time>2019-05-01T05:53:18.000Z</time>
      </trkpt>
      <trkpt lat="42.61715316772461" lon="-7.782185077667236">
        <ele>564.0</ele>
        <time>2019-05-01T05:53:22.000Z</time>
      </trkpt>
      <trkpt lat="42.61711502075195" lon="-7.782201290130615">
        <ele>564.0</ele>
        <time>2019-05-01T05:53:27.000Z</time>
      </trkpt>
      <trkpt lat="42.61708068847656" lon="-7.782211780548096">
        <ele>564.0</ele>
        <time>2019-05-01T05:53:31.000Z</time>
      </trkpt>
      <trkpt lat="42.617061614990234" lon="-7.782224178314209">
        <ele>564.0</ele>
        <time>2019-05-01T05:53:35.000Z</time>
      </trkpt>
      <trkpt lat="42.61705017089844" lon="-7.782230377197266">
        <ele>564.0</ele>
        <time>2019-05-01T05:53:38.000Z</time>
      </trkpt>
      <trkpt lat="42.617042541503906" lon="-7.782233238220215">
        <ele>564.0</ele>
        <time>2019-05-01T05:53:42.000Z</time>
      </trkpt>
      <trkpt lat="42.617034912109375" lon="-7.782233715057373">
        <ele>565.0</ele>
        <time>2019-05-01T05:53:45.000Z</time>
      </trkpt>
      <trkpt lat="42.617027282714844" lon="-7.782238006591797">
        <ele>565.0</ele>
        <time>2019-05-01T05:53:46.000Z</time>
      </trkpt>
      <trkpt lat="42.61701965332031" lon="-7.782241344451904">
        <ele>565.0</ele>
        <time>2019-05-01T05:53:46.000Z</time>
      </trkpt>
      <trkpt lat="42.61701202392578" lon="-7.782244682312012">
        <ele>565.0</ele>
        <time>2019-05-01T05:53:46.000Z</time>
      </trkpt>
      <trkpt lat="42.61700439453125" lon="-7.782247543334961">
        <ele>565.0</ele>
        <time>2019-05-01T05:53:46.000Z</time>
      </trkpt>
      <trkpt lat="42.6169548034668" lon="-7.782281875610352">
        <ele>565.0</ele>
        <time>2019-05-01T05:53:51.000Z</time>
      </trkpt>
      <trkpt lat="42.616886138916016" lon="-7.782329082489014">
        <ele>565.0</ele>
        <time>2019-05-01T05:53:55.000Z</time>
      </trkpt>
      <trkpt lat="42.61680603027344" lon="-7.782384872436523">
        <ele>565.0</ele>
        <time>2019-05-01T05:53:59.000Z</time>
      </trkpt>
      <trkpt lat="42.61671829223633" lon="-7.782444953918457">
        <ele>566.0</ele>
        <time>2019-05-01T05:54:03.000Z</time>
      </trkpt>
      <trkpt lat="42.6166877746582" lon="-7.782465934753418">
        <ele>566.0</ele>
        <time>2019-05-01T05:54:09.000Z</time>
      </trkpt>
      <trkpt lat="42.61668014526367" lon="-7.782473087310791">
        <ele>566.0</ele>
        <time>2019-05-01T05:54:25.000Z</time>
      </trkpt>
      <trkpt lat="42.61668014526367" lon="-7.782479763031006">
        <ele>567.0</ele>
        <time>2019-05-01T05:54:41.000Z</time>
      </trkpt>
      <trkpt lat="42.616676330566406" lon="-7.782482624053955">
        <ele>567.0</ele>
        <time>2019-05-01T05:54:42.000Z</time>
      </trkpt>
      <trkpt lat="42.616676330566406" lon="-7.7824859619140625">
        <ele>567.0</ele>
        <time>2019-05-01T05:54:42.000Z</time>
      </trkpt>
      <trkpt lat="42.61667251586914" lon="-7.782488822937012">
        <ele>567.0</ele>
        <time>2019-05-01T05:54:42.000Z</time>
      </trkpt>
      <trkpt lat="42.61667251586914" lon="-7.782491683959961">
        <ele>567.0</ele>
        <time>2019-05-01T05:54:42.000Z</time>
      </trkpt>
      <trkpt lat="42.616634368896484" lon="-7.78255033493042">
        <ele>567.0</ele>
        <time>2019-05-01T05:54:46.000Z</time>
      </trkpt>
      <trkpt lat="42.616580963134766" lon="-7.782631874084473">
        <ele>567.0</ele>
        <time>2019-05-01T05:54:49.000Z</time>
      </trkpt>
      <trkpt lat="42.61651611328125" lon="-7.782729148864746">
        <ele>567.0</ele>
        <time>2019-05-01T05:54:52.000Z</time>
      </trkpt>
      <trkpt lat="42.61644744873047" lon="-7.782833576202393">
        <ele>567.0</ele>
        <time>2019-05-01T05:54:55.000Z</time>
      </trkpt>
      <trkpt lat="42.61640548706055" lon="-7.783058166503906">
        <ele>567.0</ele>
        <time>2019-05-01T05:55:11.000Z</time>
      </trkpt>
      <trkpt lat="42.61639404296875" lon="-7.7833075523376465">
        <ele>567.0</ele>
        <time>2019-05-01T05:55:27.000Z</time>
      </trkpt>
      <trkpt lat="42.61638641357422" lon="-7.783426284790039">
        <ele>567.0</ele>
        <time>2019-05-01T05:55:35.000Z</time>
      </trkpt>
      <trkpt lat="42.61638641357422" lon="-7.78354549407959">
        <ele>567.0</ele>
        <time>2019-05-01T05:55:43.000Z</time>
      </trkpt>
      <trkpt lat="42.61638259887695" lon="-7.783665180206299">
        <ele>567.0</ele>
        <time>2019-05-01T05:55:51.000Z</time>
      </trkpt>
      <trkpt lat="42.61638259887695" lon="-7.78378438949585">
        <ele>567.0</ele>
        <time>2019-05-01T05:55:58.000Z</time>
      </trkpt>
      <trkpt lat="42.616355895996094" lon="-7.783849716186523">
        <ele>567.0</ele>
        <time>2019-05-01T05:56:02.000Z</time>
      </trkpt>
      <trkpt lat="42.61631774902344" lon="-7.783892631530762">
        <ele>568.0</ele>
        <time>2019-05-01T05:56:05.000Z</time>
      </trkpt>
      <trkpt lat="42.616275787353516" lon="-7.7839202880859375">
        <ele>568.0</ele>
        <time>2019-05-01T05:56:09.000Z</time>
      </trkpt>
      <trkpt lat="42.61622619628906" lon="-7.78394079208374">
        <ele>569.0</ele>
        <time>2019-05-01T05:56:12.000Z</time>
      </trkpt>
      <trkpt lat="42.616188049316406" lon="-7.78397274017334">
        <ele>569.0</ele>
        <time>2019-05-01T05:56:17.000Z</time>
      </trkpt>
      <trkpt lat="42.61614990234375" lon="-7.784001350402832">
        <ele>569.0</ele>
        <time>2019-05-01T05:56:22.000Z</time>
      </trkpt>
      <trkpt lat="42.616111755371094" lon="-7.784028053283691">
        <ele>568.0</ele>
        <time>2019-05-01T05:56:27.000Z</time>
      </trkpt>
      <trkpt lat="42.61607360839844" lon="-7.784054279327393">
        <ele>568.0</ele>
        <time>2019-05-01T05:56:31.000Z</time>
      </trkpt>
      <trkpt lat="42.61605453491211" lon="-7.7840657234191895">
        <ele>568.0</ele>
        <time>2019-05-01T05:56:32.000Z</time>
      </trkpt>
      <trkpt lat="42.61604690551758" lon="-7.78407096862793">
        <ele>568.0</ele>
        <time>2019-05-01T05:56:33.000Z</time>
      </trkpt>
      <trkpt lat="42.61604690551758" lon="-7.784071445465088">
        <ele>568.0</ele>
        <time>2019-05-01T05:56:34.000Z</time>
      </trkpt>
      <trkpt lat="42.616050720214844" lon="-7.784069061279297">
        <ele>568.0</ele>
        <time>2019-05-01T05:56:35.000Z</time>
      </trkpt>
      <trkpt lat="42.61603927612305" lon="-7.784088134765625">
        <ele>569.0</ele>
        <time>2019-05-01T05:56:39.000Z</time>
      </trkpt>
      <trkpt lat="42.616024017333984" lon="-7.784113883972168">
        <ele>569.0</ele>
        <time>2019-05-01T05:56:42.000Z</time>
      </trkpt>
      <trkpt lat="42.61600875854492" lon="-7.784143447875977">
        <ele>570.0</ele>
        <time>2019-05-01T05:56:46.000Z</time>
      </trkpt>
      <trkpt lat="42.61599349975586" lon="-7.784174919128418">
        <ele>571.0</ele>
        <time>2019-05-01T05:56:49.000Z</time>
      </trkpt>
      <trkpt lat="42.61598587036133" lon="-7.7841901779174805">
        <ele>571.0</ele>
        <time>2019-05-01T05:56:50.000Z</time>
      </trkpt>
      <trkpt lat="42.6159782409668" lon="-7.784200191497803">
        <ele>571.0</ele>
        <time>2019-05-01T05:56:50.000Z</time>
      </trkpt>
      <trkpt lat="42.61597442626953" lon="-7.784206867218018">
        <ele>571.0</ele>
        <time>2019-05-01T05:56:50.000Z</time>
      </trkpt>
      <trkpt lat="42.615970611572266" lon="-7.784212112426758">
        <ele>571.0</ele>
        <time>2019-05-01T05:56:50.000Z</time>
      </trkpt>
      <trkpt lat="42.61594772338867" lon="-7.78428840637207">
        <ele>572.0</ele>
        <time>2019-05-01T05:56:58.000Z</time>
      </trkpt>
      <trkpt lat="42.61592102050781" lon="-7.784392356872559">
        <ele>573.0</ele>
        <time>2019-05-01T05:57:05.000Z</time>
      </trkpt>
      <trkpt lat="42.615882873535156" lon="-7.784514904022217">
        <ele>575.0</ele>
        <time>2019-05-01T05:57:13.000Z</time>
      </trkpt>
      <trkpt lat="42.615848541259766" lon="-7.784646511077881">
        <ele>576.0</ele>
        <time>2019-05-01T05:57:20.000Z</time>
      </trkpt>
      <trkpt lat="42.6158447265625" lon="-7.784653186798096">
        <ele>576.0</ele>
        <time>2019-05-01T05:57:21.000Z</time>
      </trkpt>
      <trkpt lat="42.6158447265625" lon="-7.78468132019043">
        <ele>579.0</ele>
        <time>2019-05-01T05:57:41.000Z</time>
      </trkpt>
      <trkpt lat="42.615840911865234" lon="-7.784704208374023">
        <ele>579.0</ele>
        <time>2019-05-01T05:57:42.000Z</time>
      </trkpt>
      <trkpt lat="42.615848541259766" lon="-7.785160541534424">
        <ele>583.0</ele>
        <time>2019-05-01T05:58:04.000Z</time>
      </trkpt>
      <trkpt lat="42.61587142944336" lon="-7.785425186157227">
        <ele>585.0</ele>
        <time>2019-05-01T05:58:21.000Z</time>
      </trkpt>
      <trkpt lat="42.6158561706543" lon="-7.785510540008545">
        <ele>586.0</ele>
        <time>2019-05-01T05:58:30.000Z</time>
      </trkpt>
      <trkpt lat="42.61582946777344" lon="-7.785574436187744">
        <ele>588.0</ele>
        <time>2019-05-01T05:58:40.000Z</time>
      </trkpt>
      <trkpt lat="42.61582565307617" lon="-7.785597324371338">
        <ele>588.0</ele>
        <time>2019-05-01T05:58:43.000Z</time>
      </trkpt>
      <trkpt lat="42.61582565307617" lon="-7.785614013671875">
        <ele>588.0</ele>
        <time>2019-05-01T05:58:47.000Z</time>
      </trkpt>
      <trkpt lat="42.61582565307617" lon="-7.7856268882751465">
        <ele>589.0</ele>
        <time>2019-05-01T05:58:51.000Z</time>
      </trkpt>
      <trkpt lat="42.61582565307617" lon="-7.785637855529785">
        <ele>589.0</ele>
        <time>2019-05-01T05:58:54.000Z</time>
      </trkpt>
      <trkpt lat="42.61582565307617" lon="-7.785649299621582">
        <ele>589.0</ele>
        <time>2019-05-01T05:58:55.000Z</time>
      </trkpt>
      <trkpt lat="42.61582565307617" lon="-7.7856597900390625">
        <ele>589.0</ele>
        <time>2019-05-01T05:58:55.000Z</time>
      </trkpt>
      <trkpt lat="42.61582565307617" lon="-7.785668849945068">
        <ele>589.0</ele>
        <time>2019-05-01T05:58:55.000Z</time>
      </trkpt>
      <trkpt lat="42.61582565307617" lon="-7.785676956176758">
        <ele>589.0</ele>
        <time>2019-05-01T05:58:55.000Z</time>
      </trkpt>
      <trkpt lat="42.61583709716797" lon="-7.7857584953308105">
        <ele>589.0</ele>
        <time>2019-05-01T05:59:01.000Z</time>
      </trkpt>
      <trkpt lat="42.61585235595703" lon="-7.78587007522583">
        <ele>589.0</ele>
        <time>2019-05-01T05:59:07.000Z</time>
      </trkpt>
      <trkpt lat="42.615875244140625" lon="-7.786001682281494">
        <ele>588.0</ele>
        <time>2019-05-01T05:59:13.000Z</time>
      </trkpt>
      <trkpt lat="42.61589813232422" lon="-7.7861433029174805">
        <ele>588.0</ele>
        <time>2019-05-01T05:59:18.000Z</time>
      </trkpt>
      <trkpt lat="42.61591720581055" lon="-7.786220550537109">
        <ele>588.0</ele>
        <time>2019-05-01T05:59:23.000Z</time>
      </trkpt>
      <trkpt lat="42.615936279296875" lon="-7.786281108856201">
        <ele>587.0</ele>
        <time>2019-05-01T05:59:28.000Z</time>
      </trkpt>
      <trkpt lat="42.6159553527832" lon="-7.7863311767578125">
        <ele>587.0</ele>
        <time>2019-05-01T05:59:33.000Z</time>
      </trkpt>
      <trkpt lat="42.61597442626953" lon="-7.786375045776367">
        <ele>586.0</ele>
        <time>2019-05-01T05:59:37.000Z</time>
      </trkpt>
      <trkpt lat="42.61602020263672" lon="-7.7864603996276855">
        <ele>586.0</ele>
        <time>2019-05-01T05:59:45.000Z</time>
      </trkpt>
      <trkpt lat="42.61606979370117" lon="-7.786557197570801">
        <ele>585.0</ele>
        <time>2019-05-01T05:59:53.000Z</time>
      </trkpt>
      <trkpt lat="42.616127014160156" lon="-7.786661624908447">
        <ele>584.0</ele>
        <time>2019-05-01T06:00:01.000Z</time>
      </trkpt>
      <trkpt lat="42.616188049316406" lon="-7.786769390106201">
        <ele>583.0</ele>
        <time>2019-05-01T06:00:08.000Z</time>
      </trkpt>
      <trkpt lat="42.616363525390625" lon="-7.787184238433838">
        <ele>579.0</ele>
        <time>2019-05-01T06:00:40.000Z</time>
      </trkpt>
      <trkpt lat="42.61649703979492" lon="-7.787629127502441">
        <ele>578.0</ele>
        <time>2019-05-01T06:01:06.000Z</time>
      </trkpt>
      <trkpt lat="42.616512298583984" lon="-7.788106441497803">
        <ele>578.0</ele>
        <time>2019-05-01T06:01:41.000Z</time>
      </trkpt>
      <trkpt lat="42.616493225097656" lon="-7.788585662841797">
        <ele>576.0</ele>
        <time>2019-05-01T06:02:11.000Z</time>
      </trkpt>
      <trkpt lat="42.61637496948242" lon="-7.789037704467773">
        <ele>571.0</ele>
        <time>2019-05-01T06:02:43.000Z</time>
      </trkpt>
      <trkpt lat="42.61634826660156" lon="-7.789170265197754">
        <ele>570.0</ele>
        <time>2019-05-01T06:02:55.000Z</time>
      </trkpt>
      <trkpt lat="42.61634063720703" lon="-7.78920841217041">
        <ele>570.0</ele>
        <time>2019-05-01T06:03:12.000Z</time>
      </trkpt>
      <trkpt lat="42.6163330078125" lon="-7.789237976074219">
        <ele>570.0</ele>
        <time>2019-05-01T06:03:13.000Z</time>
      </trkpt>
      <trkpt lat="42.61630630493164" lon="-7.789387226104736">
        <ele>570.0</ele>
        <time>2019-05-01T06:03:18.000Z</time>
      </trkpt>
      <trkpt lat="42.61627960205078" lon="-7.7895827293396">
        <ele>569.0</ele>
        <time>2019-05-01T06:03:23.000Z</time>
      </trkpt>
      <trkpt lat="42.616275787353516" lon="-7.789618968963623">
        <ele>569.0</ele>
        <time>2019-05-01T06:03:24.000Z</time>
      </trkpt>
      <trkpt lat="42.61614990234375" lon="-7.790061950683594">
        <ele>567.0</ele>
        <time>2019-05-01T06:03:54.000Z</time>
      </trkpt>
      <trkpt lat="42.616146087646484" lon="-7.790535926818848">
        <ele>565.0</ele>
        <time>2019-05-01T06:04:22.000Z</time>
      </trkpt>
      <trkpt lat="42.61619567871094" lon="-7.790877819061279">
        <ele>566.0</ele>
        <time>2019-05-01T06:04:45.000Z</time>
      </trkpt>
      <trkpt lat="42.61616516113281" lon="-7.79098653793335">
        <ele>568.0</ele>
        <time>2019-05-01T06:06:11.000Z</time>
      </trkpt>
      <trkpt lat="42.6161994934082" lon="-7.791266441345215">
        <ele>568.0</ele>
        <time>2019-05-01T06:06:32.000Z</time>
      </trkpt>
      <trkpt lat="42.6161994934082" lon="-7.791266441345215">
        <ele>568.0</ele>
        <time>2019-05-01T06:06:33.000Z</time>
      </trkpt>
      <trkpt lat="42.61617660522461" lon="-7.791733741760254">
        <ele>567.0</ele>
        <time>2019-05-01T06:07:04.000Z</time>
      </trkpt>
      <trkpt lat="42.616214752197266" lon="-7.79221248626709">
        <ele>567.0</ele>
        <time>2019-05-01T06:07:29.000Z</time>
      </trkpt>
      <trkpt lat="42.61632537841797" lon="-7.7926788330078125">
        <ele>569.0</ele>
        <time>2019-05-01T06:07:58.000Z</time>
      </trkpt>
      <trkpt lat="42.61644744873047" lon="-7.793124675750732">
        <ele>573.0</ele>
        <time>2019-05-01T06:08:29.000Z</time>
      </trkpt>
      <trkpt lat="42.616580963134766" lon="-7.793553352355957">
        <ele>579.0</ele>
        <time>2019-05-01T06:09:04.000Z</time>
      </trkpt>
      <trkpt lat="42.61659240722656" lon="-7.79358434677124">
        <ele>580.0</ele>
        <time>2019-05-01T06:09:08.000Z</time>
      </trkpt>
      <trkpt lat="42.61661148071289" lon="-7.793640613555908">
        <ele>583.0</ele>
        <time>2019-05-01T06:09:30.000Z</time>
      </trkpt>
      <trkpt lat="42.61662292480469" lon="-7.793679714202881">
        <ele>583.0</ele>
        <time>2019-05-01T06:09:31.000Z</time>
      </trkpt>
      <trkpt lat="42.61671829223633" lon="-7.794120788574219">
        <ele>583.0</ele>
        <time>2019-05-01T06:09:51.000Z</time>
      </trkpt>
      <trkpt lat="42.616851806640625" lon="-7.794560432434082">
        <ele>588.0</ele>
        <time>2019-05-01T06:10:24.000Z</time>
      </trkpt>
      <trkpt lat="42.61698532104492" lon="-7.794997215270996">
        <ele>591.0</ele>
        <time>2019-05-01T06:10:58.000Z</time>
      </trkpt>
      <trkpt lat="42.617095947265625" lon="-7.795456409454346">
        <ele>593.0</ele>
        <time>2019-05-01T06:11:30.000Z</time>
      </trkpt>
      <trkpt lat="42.61716842651367" lon="-7.795925617218018">
        <ele>595.0</ele>
        <time>2019-05-01T06:12:01.000Z</time>
      </trkpt>
      <trkpt lat="42.61725997924805" lon="-7.796375751495361">
        <ele>596.0</ele>
        <time>2019-05-01T06:12:34.000Z</time>
      </trkpt>
      <trkpt lat="42.617401123046875" lon="-7.796806812286377">
        <ele>598.0</ele>
        <time>2019-05-01T06:13:01.000Z</time>
      </trkpt>
      <trkpt lat="42.61749267578125" lon="-7.797266960144043">
        <ele>597.0</ele>
        <time>2019-05-01T06:13:30.000Z</time>
      </trkpt>
      <trkpt lat="42.617584228515625" lon="-7.79773473739624">
        <ele>596.0</ele>
        <time>2019-05-01T06:13:59.000Z</time>
      </trkpt>
      <trkpt lat="42.61767578125" lon="-7.798202037811279">
        <ele>596.0</ele>
        <time>2019-05-01T06:14:30.000Z</time>
      </trkpt>
      <trkpt lat="42.617713928222656" lon="-7.7986884117126465">
        <ele>595.0</ele>
        <time>2019-05-01T06:14:57.000Z</time>
      </trkpt>
      <trkpt lat="42.61776351928711" lon="-7.7991461753845215">
        <ele>595.0</ele>
        <time>2019-05-01T06:15:33.000Z</time>
      </trkpt>
      <trkpt lat="42.617820739746094" lon="-7.799614429473877">
        <ele>596.0</ele>
        <time>2019-05-01T06:16:02.000Z</time>
      </trkpt>
      <trkpt lat="42.61778259277344" lon="-7.8000946044921875">
        <ele>600.0</ele>
        <time>2019-05-01T06:16:31.000Z</time>
      </trkpt>
      <trkpt lat="42.61778259277344" lon="-7.800337314605713">
        <ele>600.0</ele>
        <time>2019-05-01T06:16:44.000Z</time>
      </trkpt>
      <trkpt lat="42.617820739746094" lon="-7.8005900382995605">
        <ele>596.0</ele>
        <time>2019-05-01T06:16:55.000Z</time>
      </trkpt>
      <trkpt lat="42.617855072021484" lon="-7.800772190093994">
        <ele>595.0</ele>
        <time>2019-05-01T06:17:10.000Z</time>
      </trkpt>
      <trkpt lat="42.61787033081055" lon="-7.800816535949707">
        <ele>592.0</ele>
        <time>2019-05-01T06:17:23.000Z</time>
      </trkpt>
      <trkpt lat="42.617881774902344" lon="-7.800847053527832">
        <ele>592.0</ele>
        <time>2019-05-01T06:17:24.000Z</time>
      </trkpt>
      <trkpt lat="42.617923736572266" lon="-7.801054000854492">
        <ele>592.0</ele>
        <time>2019-05-01T06:17:30.000Z</time>
      </trkpt>
      <trkpt lat="42.61791229248047" lon="-7.80128812789917">
        <ele>593.0</ele>
        <time>2019-05-01T06:17:43.000Z</time>
      </trkpt>
      <trkpt lat="42.61794662475586" lon="-7.801398277282715">
        <ele>593.0</ele>
        <time>2019-05-01T06:17:53.000Z</time>
      </trkpt>
      <trkpt lat="42.61800003051758" lon="-7.801505088806152">
        <ele>592.0</ele>
        <time>2019-05-01T06:18:04.000Z</time>
      </trkpt>
      <trkpt lat="42.61801528930664" lon="-7.80162239074707">
        <ele>593.0</ele>
        <time>2019-05-01T06:18:11.000Z</time>
      </trkpt>
      <trkpt lat="42.618011474609375" lon="-7.801743507385254">
        <ele>594.0</ele>
        <time>2019-05-01T06:18:18.000Z</time>
      </trkpt>
      <trkpt lat="42.61800765991211" lon="-7.801800727844238">
        <ele>594.0</ele>
        <time>2019-05-01T06:18:22.000Z</time>
      </trkpt>
      <trkpt lat="42.618003845214844" lon="-7.801856517791748">
        <ele>594.0</ele>
        <time>2019-05-01T06:18:26.000Z</time>
      </trkpt>
      <trkpt lat="42.61799621582031" lon="-7.8019118309021">
        <ele>594.0</ele>
        <time>2019-05-01T06:18:30.000Z</time>
      </trkpt>
      <trkpt lat="42.61798858642578" lon="-7.801966667175293">
        <ele>595.0</ele>
        <time>2019-05-01T06:18:34.000Z</time>
      </trkpt>
      <trkpt lat="42.61799621582031" lon="-7.802027702331543">
        <ele>595.0</ele>
        <time>2019-05-01T06:18:37.000Z</time>
      </trkpt>
      <trkpt lat="42.61801528930664" lon="-7.802065372467041">
        <ele>595.0</ele>
        <time>2019-05-01T06:18:39.000Z</time>
      </trkpt>
      <trkpt lat="42.61800765991211" lon="-7.802101135253906">
        <ele>596.0</ele>
        <time>2019-05-01T06:18:42.000Z</time>
      </trkpt>
      <trkpt lat="42.61799621582031" lon="-7.8021416664123535">
        <ele>596.0</ele>
        <time>2019-05-01T06:18:45.000Z</time>
      </trkpt>
      <trkpt lat="42.61798095703125" lon="-7.802185535430908">
        <ele>597.0</ele>
        <time>2019-05-01T06:18:47.000Z</time>
      </trkpt>
      <trkpt lat="42.61796188354492" lon="-7.8022308349609375">
        <ele>598.0</ele>
        <time>2019-05-01T06:18:50.000Z</time>
      </trkpt>
      <trkpt lat="42.61794662475586" lon="-7.80228328704834">
        <ele>599.0</ele>
        <time>2019-05-01T06:18:54.000Z</time>
      </trkpt>
      <trkpt lat="42.6179313659668" lon="-7.802340030670166">
        <ele>601.0</ele>
        <time>2019-05-01T06:18:57.000Z</time>
      </trkpt>
      <trkpt lat="42.617916107177734" lon="-7.802399635314941">
        <ele>602.0</ele>
        <time>2019-05-01T06:19:01.000Z</time>
      </trkpt>
      <trkpt lat="42.61790084838867" lon="-7.80246114730835">
        <ele>604.0</ele>
        <time>2019-05-01T06:19:05.000Z</time>
      </trkpt>
      <trkpt lat="42.617881774902344" lon="-7.802517414093018">
        <ele>605.0</ele>
        <time>2019-05-01T06:19:08.000Z</time>
      </trkpt>
      <trkpt lat="42.61786651611328" lon="-7.802573204040527">
        <ele>606.0</ele>
        <time>2019-05-01T06:19:12.000Z</time>
      </trkpt>
      <trkpt lat="42.61784744262695" lon="-7.802628993988037">
        <ele>607.0</ele>
        <time>2019-05-01T06:19:15.000Z</time>
      </trkpt>
      <trkpt lat="42.617828369140625" lon="-7.802684307098389">
        <ele>609.0</ele>
        <time>2019-05-01T06:19:19.000Z</time>
      </trkpt>
      <trkpt lat="42.61781692504883" lon="-7.802717208862305">
        <ele>608.0</ele>
        <time>2019-05-01T06:19:23.000Z</time>
      </trkpt>
      <trkpt lat="42.61781311035156" lon="-7.802741050720215">
        <ele>608.0</ele>
        <time>2019-05-01T06:19:26.000Z</time>
      </trkpt>
      <trkpt lat="42.6178092956543" lon="-7.802758693695068">
        <ele>607.0</ele>
        <time>2019-05-01T06:19:30.000Z</time>
      </trkpt>
      <trkpt lat="42.6178092956543" lon="-7.8027729988098145">
        <ele>605.0</ele>
        <time>2019-05-01T06:19:34.000Z</time>
      </trkpt>
      <trkpt lat="42.617801666259766" lon="-7.802789688110352">
        <ele>605.0</ele>
        <time>2019-05-01T06:19:39.000Z</time>
      </trkpt>
      <trkpt lat="42.617794036865234" lon="-7.802804470062256">
        <ele>605.0</ele>
        <time>2019-05-01T06:19:44.000Z</time>
      </trkpt>
      <trkpt lat="42.61778259277344" lon="-7.8028178215026855">
        <ele>605.0</ele>
        <time>2019-05-01T06:19:49.000Z</time>
      </trkpt>
      <trkpt lat="42.617774963378906" lon="-7.802830219268799">
        <ele>606.0</ele>
        <time>2019-05-01T06:19:54.000Z</time>
      </trkpt>
      <trkpt lat="42.617767333984375" lon="-7.802840709686279">
        <ele>606.0</ele>
        <time>2019-05-01T06:19:54.000Z</time>
      </trkpt>
      <trkpt lat="42.61776351928711" lon="-7.802849292755127">
        <ele>606.0</ele>
        <time>2019-05-01T06:19:54.000Z</time>
      </trkpt>
      <trkpt lat="42.617759704589844" lon="-7.8028564453125">
        <ele>606.0</ele>
        <time>2019-05-01T06:19:55.000Z</time>
      </trkpt>
      <trkpt lat="42.61775588989258" lon="-7.802863597869873">
        <ele>606.0</ele>
        <time>2019-05-01T06:19:55.000Z</time>
      </trkpt>
      <trkpt lat="42.61766052246094" lon="-7.803056716918945">
        <ele>606.0</ele>
        <time>2019-05-01T06:20:03.000Z</time>
      </trkpt>
      <trkpt lat="42.61764144897461" lon="-7.80314302444458">
        <ele>605.0</ele>
        <time>2019-05-01T06:20:14.000Z</time>
      </trkpt>
      <trkpt lat="42.61764907836914" lon="-7.8031535148620605">
        <ele>605.0</ele>
        <time>2019-05-01T06:20:20.000Z</time>
      </trkpt>
      <trkpt lat="42.61766052246094" lon="-7.803158760070801">
        <ele>604.0</ele>
        <time>2019-05-01T06:20:26.000Z</time>
      </trkpt>
      <trkpt lat="42.617671966552734" lon="-7.80316162109375">
        <ele>604.0</ele>
        <time>2019-05-01T06:20:33.000Z</time>
      </trkpt>
      <trkpt lat="42.61769104003906" lon="-7.803162097930908">
        <ele>604.0</ele>
        <time>2019-05-01T06:20:39.000Z</time>
      </trkpt>
      <trkpt lat="42.617698669433594" lon="-7.803165912628174">
        <ele>603.0</ele>
        <time>2019-05-01T06:20:39.000Z</time>
      </trkpt>
      <trkpt lat="42.617706298828125" lon="-7.803168773651123">
        <ele>603.0</ele>
        <time>2019-05-01T06:20:39.000Z</time>
      </trkpt>
      <trkpt lat="42.617713928222656" lon="-7.803171634674072">
        <ele>603.0</ele>
        <time>2019-05-01T06:20:40.000Z</time>
      </trkpt>
      <trkpt lat="42.61771774291992" lon="-7.803174018859863">
        <ele>604.0</ele>
        <time>2019-05-01T06:20:40.000Z</time>
      </trkpt>
      <trkpt lat="42.61774444580078" lon="-7.803183078765869">
        <ele>603.0</ele>
        <time>2019-05-01T06:20:41.000Z</time>
      </trkpt>
      <trkpt lat="42.61778259277344" lon="-7.803194999694824">
        <ele>603.0</ele>
        <time>2019-05-01T06:20:42.000Z</time>
      </trkpt>
      <trkpt lat="42.61782455444336" lon="-7.803208351135254">
        <ele>602.0</ele>
        <time>2019-05-01T06:20:44.000Z</time>
      </trkpt>
      <trkpt lat="42.61786651611328" lon="-7.80322265625">
        <ele>601.0</ele>
        <time>2019-05-01T06:20:45.000Z</time>
      </trkpt>
      <trkpt lat="42.61788558959961" lon="-7.803212642669678">
        <ele>601.0</ele>
        <time>2019-05-01T06:20:47.000Z</time>
      </trkpt>
      <trkpt lat="42.617897033691406" lon="-7.803194046020508">
        <ele>600.0</ele>
        <time>2019-05-01T06:20:50.000Z</time>
      </trkpt>
      <trkpt lat="42.61790084838867" lon="-7.803169250488281">
        <ele>600.0</ele>
        <time>2019-05-01T06:20:52.000Z</time>
      </trkpt>
      <trkpt lat="42.61790466308594" lon="-7.8031415939331055">
        <ele>600.0</ele>
        <time>2019-05-01T06:20:55.000Z</time>
      </trkpt>
      <trkpt lat="42.617919921875" lon="-7.803095817565918">
        <ele>599.0</ele>
        <time>2019-05-01T06:20:59.000Z</time>
      </trkpt>
      <trkpt lat="42.617942810058594" lon="-7.803039073944092">
        <ele>599.0</ele>
        <time>2019-05-01T06:21:03.000Z</time>
      </trkpt>
      <trkpt lat="42.61796569824219" lon="-7.802975654602051">
        <ele>599.0</ele>
        <time>2019-05-01T06:21:08.000Z</time>
      </trkpt>
      <trkpt lat="42.61798858642578" lon="-7.802908420562744">
        <ele>598.0</ele>
        <time>2019-05-01T06:21:12.000Z</time>
      </trkpt>
      <trkpt lat="42.618003845214844" lon="-7.80287504196167">
        <ele>598.0</ele>
        <time>2019-05-01T06:21:14.000Z</time>
      </trkpt>
      <trkpt lat="42.61801528930664" lon="-7.802851676940918">
        <ele>598.0</ele>
        <time>2019-05-01T06:21:15.000Z</time>
      </trkpt>
      <trkpt lat="42.61802291870117" lon="-7.802835464477539">
        <ele>598.0</ele>
        <time>2019-05-01T06:21:17.000Z</time>
      </trkpt>
      <trkpt lat="42.61803436279297" lon="-7.802822589874268">
        <ele>598.0</ele>
        <time>2019-05-01T06:21:19.000Z</time>
      </trkpt>
      <trkpt lat="42.61806106567383" lon="-7.8028364181518555">
        <ele>598.0</ele>
        <time>2019-05-01T06:21:22.000Z</time>
      </trkpt>
      <trkpt lat="42.61809158325195" lon="-7.802865028381348">
        <ele>598.0</ele>
        <time>2019-05-01T06:21:25.000Z</time>
      </trkpt>
      <trkpt lat="42.61812973022461" lon="-7.802903175354004">
        <ele>598.0</ele>
        <time>2019-05-01T06:21:28.000Z</time>
      </trkpt>
      <trkpt lat="42.618167877197266" lon="-7.8029465675354">
        <ele>598.0</ele>
        <time>2019-05-01T06:21:31.000Z</time>
      </trkpt>
      <trkpt lat="42.61819076538086" lon="-7.8029961585998535">
        <ele>598.0</ele>
        <time>2019-05-01T06:21:35.000Z</time>
      </trkpt>
      <trkpt lat="42.61820602416992" lon="-7.803053855895996">
        <ele>598.0</ele>
        <time>2019-05-01T06:21:40.000Z</time>
      </trkpt>
      <trkpt lat="42.61821365356445" lon="-7.803116321563721">
        <ele>598.0</ele>
        <time>2019-05-01T06:21:44.000Z</time>
      </trkpt>
      <trkpt lat="42.61822509765625" lon="-7.803182125091553">
        <ele>598.0</ele>
        <time>2019-05-01T06:21:49.000Z</time>
      </trkpt>
      <trkpt lat="42.61823272705078" lon="-7.803243160247803">
        <ele>598.0</ele>
        <time>2019-05-01T06:21:53.000Z</time>
      </trkpt>
      <trkpt lat="42.61824035644531" lon="-7.803305149078369">
        <ele>598.0</ele>
        <time>2019-05-01T06:21:56.000Z</time>
      </trkpt>
      <trkpt lat="42.61824417114258" lon="-7.803368091583252">
        <ele>598.0</ele>
        <time>2019-05-01T06:22:00.000Z</time>
      </trkpt>
      <trkpt lat="42.618247985839844" lon="-7.803431034088135">
        <ele>598.0</ele>
        <time>2019-05-01T06:22:04.000Z</time>
      </trkpt>
      <trkpt lat="42.61825180053711" lon="-7.803492069244385">
        <ele>598.0</ele>
        <time>2019-05-01T06:22:09.000Z</time>
      </trkpt>
      <trkpt lat="42.618255615234375" lon="-7.803552627563477">
        <ele>598.0</ele>
        <time>2019-05-01T06:22:14.000Z</time>
      </trkpt>
      <trkpt lat="42.618263244628906" lon="-7.803613185882568">
        <ele>598.0</ele>
        <time>2019-05-01T06:22:19.000Z</time>
      </trkpt>
      <trkpt lat="42.61826705932617" lon="-7.803673267364502">
        <ele>598.0</ele>
        <time>2019-05-01T06:22:24.000Z</time>
      </trkpt>
      <trkpt lat="42.61827850341797" lon="-7.803734302520752">
        <ele>597.0</ele>
        <time>2019-05-01T06:22:28.000Z</time>
      </trkpt>
      <trkpt lat="42.6182975769043" lon="-7.803794860839844">
        <ele>597.0</ele>
        <time>2019-05-01T06:22:32.000Z</time>
      </trkpt>
      <trkpt lat="42.61831283569336" lon="-7.803855895996094">
        <ele>597.0</ele>
        <time>2019-05-01T06:22:37.000Z</time>
      </trkpt>
      <trkpt lat="42.61833190917969" lon="-7.803916931152344">
        <ele>597.0</ele>
        <time>2019-05-01T06:22:41.000Z</time>
      </trkpt>
      <trkpt lat="42.618350982666016" lon="-7.803984642028809">
        <ele>596.0</ele>
        <time>2019-05-01T06:22:47.000Z</time>
      </trkpt>
      <trkpt lat="42.61837387084961" lon="-7.804055213928223">
        <ele>596.0</ele>
        <time>2019-05-01T06:22:52.000Z</time>
      </trkpt>
      <trkpt lat="42.6183967590332" lon="-7.8041276931762695">
        <ele>596.0</ele>
        <time>2019-05-01T06:22:58.000Z</time>
      </trkpt>
      <trkpt lat="42.6184196472168" lon="-7.804200649261475">
        <ele>595.0</ele>
        <time>2019-05-01T06:23:04.000Z</time>
      </trkpt>
      <trkpt lat="42.61844253540039" lon="-7.804262161254883">
        <ele>595.0</ele>
        <time>2019-05-01T06:23:08.000Z</time>
      </trkpt>
      <trkpt lat="42.61845779418945" lon="-7.804319858551025">
        <ele>594.0</ele>
        <time>2019-05-01T06:23:12.000Z</time>
      </trkpt>
      <trkpt lat="42.61847686767578" lon="-7.804374694824219">
        <ele>594.0</ele>
        <time>2019-05-01T06:23:16.000Z</time>
      </trkpt>
      <trkpt lat="42.61849594116211" lon="-7.804428577423096">
        <ele>594.0</ele>
        <time>2019-05-01T06:23:20.000Z</time>
      </trkpt>
      <trkpt lat="42.618560791015625" lon="-7.804624557495117">
        <ele>592.0</ele>
        <time>2019-05-01T06:23:39.000Z</time>
      </trkpt>
      <trkpt lat="42.61857604980469" lon="-7.804661273956299">
        <ele>590.0</ele>
        <time>2019-05-01T06:23:56.000Z</time>
      </trkpt>
      <trkpt lat="42.61858367919922" lon="-7.804688453674316">
        <ele>590.0</ele>
        <time>2019-05-01T06:23:57.000Z</time>
      </trkpt>
      <trkpt lat="42.618621826171875" lon="-7.8047943115234375">
        <ele>590.0</ele>
        <time>2019-05-01T06:24:01.000Z</time>
      </trkpt>
      <trkpt lat="42.618648529052734" lon="-7.80486536026001">
        <ele>589.0</ele>
        <time>2019-05-01T06:24:09.000Z</time>
      </trkpt>
      <trkpt lat="42.6186637878418" lon="-7.804904937744141">
        <ele>589.0</ele>
        <time>2019-05-01T06:24:10.000Z</time>
      </trkpt>
      <trkpt lat="42.61883544921875" lon="-7.805330276489258">
        <ele>588.0</ele>
        <time>2019-05-01T06:24:34.000Z</time>
      </trkpt>
      <trkpt lat="42.618995666503906" lon="-7.805749893188477">
        <ele>586.0</ele>
        <time>2019-05-01T06:25:09.000Z</time>
      </trkpt>
      <trkpt lat="42.61919021606445" lon="-7.806146621704102">
        <ele>583.0</ele>
        <time>2019-05-01T06:25:35.000Z</time>
      </trkpt>
      <trkpt lat="42.61933898925781" lon="-7.806582927703857">
        <ele>581.0</ele>
        <time>2019-05-01T06:26:03.000Z</time>
      </trkpt>
      <trkpt lat="42.619529724121094" lon="-7.8069844245910645">
        <ele>579.0</ele>
        <time>2019-05-01T06:26:32.000Z</time>
      </trkpt>
      <trkpt lat="42.61968994140625" lon="-7.807389259338379">
        <ele>579.0</ele>
        <time>2019-05-01T06:27:03.000Z</time>
      </trkpt>
      <trkpt lat="42.61991500854492" lon="-7.807764053344727">
        <ele>581.0</ele>
        <time>2019-05-01T06:27:34.000Z</time>
      </trkpt>
      <trkpt lat="42.6201171875" lon="-7.808159351348877">
        <ele>578.0</ele>
        <time>2019-05-01T06:27:59.000Z</time>
      </trkpt>
      <trkpt lat="42.620323181152344" lon="-7.808534622192383">
        <ele>582.0</ele>
        <time>2019-05-01T06:28:27.000Z</time>
      </trkpt>
      <trkpt lat="42.620567321777344" lon="-7.808867454528809">
        <ele>584.0</ele>
        <time>2019-05-01T06:28:52.000Z</time>
      </trkpt>
      <trkpt lat="42.620792388916016" lon="-7.809217929840088">
        <ele>580.0</ele>
        <time>2019-05-01T06:29:22.000Z</time>
      </trkpt>
      <trkpt lat="42.62104415893555" lon="-7.809545516967773">
        <ele>581.0</ele>
        <time>2019-05-01T06:29:52.000Z</time>
      </trkpt>
      <trkpt lat="42.62129211425781" lon="-7.809882164001465">
        <ele>582.0</ele>
        <time>2019-05-01T06:30:20.000Z</time>
      </trkpt>
      <trkpt lat="42.62154006958008" lon="-7.810236930847168">
        <ele>582.0</ele>
        <time>2019-05-01T06:30:44.000Z</time>
      </trkpt>
      <trkpt lat="42.62176513671875" lon="-7.81060266494751">
        <ele>584.0</ele>
        <time>2019-05-01T06:31:14.000Z</time>
      </trkpt>
      <trkpt lat="42.62199401855469" lon="-7.810969352722168">
        <ele>587.0</ele>
        <time>2019-05-01T06:31:46.000Z</time>
      </trkpt>
      <trkpt lat="42.62220764160156" lon="-7.811347484588623">
        <ele>586.0</ele>
        <time>2019-05-01T06:32:12.000Z</time>
      </trkpt>
      <trkpt lat="42.6224250793457" lon="-7.8117218017578125">
        <ele>588.0</ele>
        <time>2019-05-01T06:32:45.000Z</time>
      </trkpt>
      <trkpt lat="42.62259292602539" lon="-7.8121418952941895">
        <ele>589.0</ele>
        <time>2019-05-01T06:33:15.000Z</time>
      </trkpt>
      <trkpt lat="42.622589111328125" lon="-7.812254905700684">
        <ele>590.0</ele>
        <time>2019-05-01T06:33:22.000Z</time>
      </trkpt>
      <trkpt lat="42.62256622314453" lon="-7.812370777130127">
        <ele>590.0</ele>
        <time>2019-05-01T06:33:30.000Z</time>
      </trkpt>
      <trkpt lat="42.62253189086914" lon="-7.8124895095825195">
        <ele>590.0</ele>
        <time>2019-05-01T06:33:37.000Z</time>
      </trkpt>
      <trkpt lat="42.62248992919922" lon="-7.81260871887207">
        <ele>590.0</ele>
        <time>2019-05-01T06:33:44.000Z</time>
      </trkpt>
      <trkpt lat="42.62250518798828" lon="-7.812840938568115">
        <ele>591.0</ele>
        <time>2019-05-01T06:33:59.000Z</time>
      </trkpt>
      <trkpt lat="42.6225471496582" lon="-7.813072204589844">
        <ele>591.0</ele>
        <time>2019-05-01T06:34:14.000Z</time>
      </trkpt>
      <trkpt lat="42.62256622314453" lon="-7.813187122344971">
        <ele>591.0</ele>
        <time>2019-05-01T06:34:21.000Z</time>
      </trkpt>
      <trkpt lat="42.62259292602539" lon="-7.813302040100098">
        <ele>591.0</ele>
        <time>2019-05-01T06:34:28.000Z</time>
      </trkpt>
      <trkpt lat="42.62261962890625" lon="-7.813416481018066">
        <ele>590.0</ele>
        <time>2019-05-01T06:34:34.000Z</time>
      </trkpt>
      <trkpt lat="42.622650146484375" lon="-7.813530921936035">
        <ele>589.0</ele>
        <time>2019-05-01T06:34:41.000Z</time>
      </trkpt>
      <trkpt lat="42.622711181640625" lon="-7.813601970672607">
        <ele>589.0</ele>
        <time>2019-05-01T06:34:48.000Z</time>
      </trkpt>
      <trkpt lat="42.62278747558594" lon="-7.81365442276001">
        <ele>589.0</ele>
        <time>2019-05-01T06:34:56.000Z</time>
      </trkpt>
      <trkpt lat="42.62287521362305" lon="-7.813694953918457">
        <ele>589.0</ele>
        <time>2019-05-01T06:35:03.000Z</time>
      </trkpt>
      <trkpt lat="42.62296676635742" lon="-7.813729286193848">
        <ele>589.0</ele>
        <time>2019-05-01T06:35:10.000Z</time>
      </trkpt>
      <trkpt lat="42.623050689697266" lon="-7.813756942749023">
        <ele>589.0</ele>
        <time>2019-05-01T06:35:18.000Z</time>
      </trkpt>
      <trkpt lat="42.623138427734375" lon="-7.813775539398193">
        <ele>590.0</ele>
        <time>2019-05-01T06:35:27.000Z</time>
      </trkpt>
      <trkpt lat="42.62322235107422" lon="-7.813788414001465">
        <ele>590.0</ele>
        <time>2019-05-01T06:35:35.000Z</time>
      </trkpt>
      <trkpt lat="42.62331008911133" lon="-7.813797950744629">
        <ele>590.0</ele>
        <time>2019-05-01T06:35:43.000Z</time>
      </trkpt>
      <trkpt lat="42.62337875366211" lon="-7.813859939575195">
        <ele>590.0</ele>
        <time>2019-05-01T06:35:52.000Z</time>
      </trkpt>
      <trkpt lat="42.62339782714844" lon="-7.813935279846191">
        <ele>590.0</ele>
        <time>2019-05-01T06:36:01.000Z</time>
      </trkpt>
      <trkpt lat="42.623409271240234" lon="-7.813956260681152">
        <ele>590.0</ele>
        <time>2019-05-01T06:36:07.000Z</time>
      </trkpt>
      <trkpt lat="42.623416900634766" lon="-7.813971996307373">
        <ele>590.0</ele>
        <time>2019-05-01T06:36:12.000Z</time>
      </trkpt>
      <trkpt lat="42.62342071533203" lon="-7.813984394073486">
        <ele>590.0</ele>
        <time>2019-05-01T06:36:18.000Z</time>
      </trkpt>
      <trkpt lat="42.62342071533203" lon="-7.813994884490967">
        <ele>590.0</ele>
        <time>2019-05-01T06:36:23.000Z</time>
      </trkpt>
      <trkpt lat="42.6234245300293" lon="-7.8140058517456055">
        <ele>590.0</ele>
        <time>2019-05-01T06:36:23.000Z</time>
      </trkpt>
      <trkpt lat="42.62342834472656" lon="-7.8140153884887695">
        <ele>590.0</ele>
        <time>2019-05-01T06:36:24.000Z</time>
      </trkpt>
      <trkpt lat="42.62343215942383" lon="-7.814023494720459">
        <ele>590.0</ele>
        <time>2019-05-01T06:36:24.000Z</time>
      </trkpt>
      <trkpt lat="42.623435974121094" lon="-7.814031600952148">
        <ele>590.0</ele>
        <time>2019-05-01T06:36:24.000Z</time>
      </trkpt>
      <trkpt lat="42.62346267700195" lon="-7.814106464385986">
        <ele>590.0</ele>
        <time>2019-05-01T06:36:29.000Z</time>
      </trkpt>
      <trkpt lat="42.62350082397461" lon="-7.814208984375">
        <ele>590.0</ele>
        <time>2019-05-01T06:36:35.000Z</time>
      </trkpt>
      <trkpt lat="42.62354278564453" lon="-7.814330101013184">
        <ele>589.0</ele>
        <time>2019-05-01T06:36:40.000Z</time>
      </trkpt>
      <trkpt lat="42.623592376708984" lon="-7.814460277557373">
        <ele>589.0</ele>
        <time>2019-05-01T06:36:45.000Z</time>
      </trkpt>
      <trkpt lat="42.623619079589844" lon="-7.814553737640381">
        <ele>589.0</ele>
        <time>2019-05-01T06:36:52.000Z</time>
      </trkpt>
      <trkpt lat="42.6236457824707" lon="-7.814641952514648">
        <ele>589.0</ele>
        <time>2019-05-01T06:36:59.000Z</time>
      </trkpt>
      <trkpt lat="42.6236686706543" lon="-7.814725875854492">
        <ele>589.0</ele>
        <time>2019-05-01T06:37:05.000Z</time>
      </trkpt>
      <trkpt lat="42.62369155883789" lon="-7.814808368682861">
        <ele>588.0</ele>
        <time>2019-05-01T06:37:12.000Z</time>
      </trkpt>
      <trkpt lat="42.62370300292969" lon="-7.814851760864258">
        <ele>588.0</ele>
        <time>2019-05-01T06:37:16.000Z</time>
      </trkpt>
      <trkpt lat="42.623714447021484" lon="-7.814876556396484">
        <ele>588.0</ele>
        <time>2019-05-01T06:37:20.000Z</time>
      </trkpt>
      <trkpt lat="42.62371826171875" lon="-7.814889430999756">
        <ele>588.0</ele>
        <time>2019-05-01T06:37:23.000Z</time>
      </trkpt>
      <trkpt lat="42.623722076416016" lon="-7.814896106719971">
        <ele>588.0</ele>
        <time>2019-05-01T06:37:27.000Z</time>
      </trkpt>
      <trkpt lat="42.62373733520508" lon="-7.814939975738525">
        <ele>588.0</ele>
        <time>2019-05-01T06:37:28.000Z</time>
      </trkpt>
      <trkpt lat="42.623870849609375" lon="-7.815349102020264">
        <ele>592.0</ele>
        <time>2019-05-01T06:37:54.000Z</time>
      </trkpt>
      <trkpt lat="42.62400817871094" lon="-7.815774917602539">
        <ele>595.0</ele>
        <time>2019-05-01T06:38:16.000Z</time>
      </trkpt>
      <trkpt lat="42.624122619628906" lon="-7.816153049468994">
        <ele>592.0</ele>
        <time>2019-05-01T06:38:44.000Z</time>
      </trkpt>
      <trkpt lat="42.62413787841797" lon="-7.816189765930176">
        <ele>591.0</ele>
        <time>2019-05-01T06:39:02.000Z</time>
      </trkpt>
      <trkpt lat="42.6241455078125" lon="-7.816216945648193">
        <ele>591.0</ele>
        <time>2019-05-01T06:39:03.000Z</time>
      </trkpt>
      <trkpt lat="42.624267578125" lon="-7.816647052764893">
        <ele>592.0</ele>
        <time>2019-05-01T06:39:27.000Z</time>
      </trkpt>
      <trkpt lat="42.62433624267578" lon="-7.816831111907959">
        <ele>593.0</ele>
        <time>2019-05-01T06:39:44.000Z</time>
      </trkpt>
      <trkpt lat="42.624366760253906" lon="-7.81696891784668">
        <ele>593.0</ele>
        <time>2019-05-01T06:39:59.000Z</time>
      </trkpt>
      <trkpt lat="42.6243782043457" lon="-7.8170166015625">
        <ele>593.0</ele>
        <time>2019-05-01T06:40:00.000Z</time>
      </trkpt>
      <trkpt lat="42.62453079223633" lon="-7.817433834075928">
        <ele>592.0</ele>
        <time>2019-05-01T06:40:25.000Z</time>
      </trkpt>
      <trkpt lat="42.62466812133789" lon="-7.817849636077881">
        <ele>593.0</ele>
        <time>2019-05-01T06:40:55.000Z</time>
      </trkpt>
      <trkpt lat="42.624778747558594" lon="-7.818211078643799">
        <ele>594.0</ele>
        <time>2019-05-01T06:41:22.000Z</time>
      </trkpt>
      <trkpt lat="42.624778747558594" lon="-7.818246841430664">
        <ele>595.0</ele>
        <time>2019-05-01T06:41:27.000Z</time>
      </trkpt>
      <trkpt lat="42.6247673034668" lon="-7.818259239196777">
        <ele>595.0</ele>
        <time>2019-05-01T06:41:32.000Z</time>
      </trkpt>
      <trkpt lat="42.624752044677734" lon="-7.818256378173828">
        <ele>595.0</ele>
        <time>2019-05-01T06:41:36.000Z</time>
      </trkpt>
      <trkpt lat="42.624732971191406" lon="-7.818245887756348">
        <ele>595.0</ele>
        <time>2019-05-01T06:41:41.000Z</time>
      </trkpt>
      <trkpt lat="42.62472152709961" lon="-7.8182525634765625">
        <ele>595.0</ele>
        <time>2019-05-01T06:41:41.000Z</time>
      </trkpt>
      <trkpt lat="42.624717712402344" lon="-7.818257808685303">
        <ele>595.0</ele>
        <time>2019-05-01T06:41:42.000Z</time>
      </trkpt>
      <trkpt lat="42.62471008300781" lon="-7.818262577056885">
        <ele>595.0</ele>
        <time>2019-05-01T06:41:42.000Z</time>
      </trkpt>
      <trkpt lat="42.62470626831055" lon="-7.818266868591309">
        <ele>595.0</ele>
        <time>2019-05-01T06:41:42.000Z</time>
      </trkpt>
      <trkpt lat="42.62469482421875" lon="-7.818272590637207">
        <ele>595.0</ele>
        <time>2019-05-01T06:41:43.000Z</time>
      </trkpt>
      <trkpt lat="42.62468719482422" lon="-7.818278789520264">
        <ele>595.0</ele>
        <time>2019-05-01T06:41:43.000Z</time>
      </trkpt>
      <trkpt lat="42.62467956542969" lon="-7.81828498840332">
        <ele>595.0</ele>
        <time>2019-05-01T06:41:44.000Z</time>
      </trkpt>
      <trkpt lat="42.62466812133789" lon="-7.818291664123535">
        <ele>595.0</ele>
        <time>2019-05-01T06:41:44.000Z</time>
      </trkpt>
      <trkpt lat="42.62466049194336" lon="-7.818296909332275">
        <ele>595.0</ele>
        <time>2019-05-01T06:41:46.000Z</time>
      </trkpt>
      <trkpt lat="42.62464904785156" lon="-7.818301677703857">
        <ele>595.0</ele>
        <time>2019-05-01T06:41:48.000Z</time>
      </trkpt>
      <trkpt lat="42.624637603759766" lon="-7.818305969238281">
        <ele>595.0</ele>
        <time>2019-05-01T06:41:50.000Z</time>
      </trkpt>
      <trkpt lat="42.624629974365234" lon="-7.818310260772705">
        <ele>595.0</ele>
        <time>2019-05-01T06:41:52.000Z</time>
      </trkpt>
      <trkpt lat="42.6246223449707" lon="-7.8183135986328125">
        <ele>595.0</ele>
        <time>2019-05-01T06:41:52.000Z</time>
      </trkpt>
      <trkpt lat="42.62461471557617" lon="-7.81831693649292">
        <ele>595.0</ele>
        <time>2019-05-01T06:41:53.000Z</time>
      </trkpt>
      <trkpt lat="42.62460708618164" lon="-7.818319320678711">
        <ele>595.0</ele>
        <time>2019-05-01T06:41:53.000Z</time>
      </trkpt>
      <trkpt lat="42.624603271484375" lon="-7.81832218170166">
        <ele>595.0</ele>
        <time>2019-05-01T06:41:53.000Z</time>
      </trkpt>
      <trkpt lat="42.624542236328125" lon="-7.8183393478393555">
        <ele>595.0</ele>
        <time>2019-05-01T06:41:57.000Z</time>
      </trkpt>
      <trkpt lat="42.62445831298828" lon="-7.818362712860107">
        <ele>595.0</ele>
        <time>2019-05-01T06:42:02.000Z</time>
      </trkpt>
      <trkpt lat="42.62436294555664" lon="-7.818389415740967">
        <ele>595.0</ele>
        <time>2019-05-01T06:42:06.000Z</time>
      </trkpt>
      <trkpt lat="42.6242561340332" lon="-7.818418502807617">
        <ele>596.0</ele>
        <time>2019-05-01T06:42:10.000Z</time>
      </trkpt>
      <trkpt lat="42.624114990234375" lon="-7.8185601234436035">
        <ele>596.0</ele>
        <time>2019-05-01T06:42:25.000Z</time>
      </trkpt>
      <trkpt lat="42.62398910522461" lon="-7.81874418258667">
        <ele>596.0</ele>
        <time>2019-05-01T06:42:39.000Z</time>
      </trkpt>
      <trkpt lat="42.623924255371094" lon="-7.818826675415039">
        <ele>597.0</ele>
        <time>2019-05-01T06:42:47.000Z</time>
      </trkpt>
      <trkpt lat="42.62385559082031" lon="-7.818909645080566">
        <ele>598.0</ele>
        <time>2019-05-01T06:42:55.000Z</time>
      </trkpt>
      <trkpt lat="42.6237907409668" lon="-7.818993091583252">
        <ele>600.0</ele>
        <time>2019-05-01T06:43:02.000Z</time>
      </trkpt>
      <trkpt lat="42.62372970581055" lon="-7.8190765380859375">
        <ele>602.0</ele>
        <time>2019-05-01T06:43:10.000Z</time>
      </trkpt>
      <trkpt lat="42.623653411865234" lon="-7.819145202636719">
        <ele>603.0</ele>
        <time>2019-05-01T06:43:18.000Z</time>
      </trkpt>
      <trkpt lat="42.62357711791992" lon="-7.819207668304443">
        <ele>604.0</ele>
        <time>2019-05-01T06:43:26.000Z</time>
      </trkpt>
      <trkpt lat="42.62350082397461" lon="-7.819266319274902">
        <ele>605.0</ele>
        <time>2019-05-01T06:43:34.000Z</time>
      </trkpt>
      <trkpt lat="42.62342071533203" lon="-7.81932258605957">
        <ele>606.0</ele>
        <time>2019-05-01T06:43:42.000Z</time>
      </trkpt>
      <trkpt lat="42.62333679199219" lon="-7.8193678855896">
        <ele>607.0</ele>
        <time>2019-05-01T06:43:49.000Z</time>
      </trkpt>
      <trkpt lat="42.62324905395508" lon="-7.819406032562256">
        <ele>607.0</ele>
        <time>2019-05-01T06:43:56.000Z</time>
      </trkpt>
      <trkpt lat="42.62316131591797" lon="-7.819439888000488">
        <ele>608.0</ele>
        <time>2019-05-01T06:44:03.000Z</time>
      </trkpt>
      <trkpt lat="42.62307357788086" lon="-7.81947135925293">
        <ele>609.0</ele>
        <time>2019-05-01T06:44:10.000Z</time>
      </trkpt>
      <trkpt lat="42.62298583984375" lon="-7.819502353668213">
        <ele>609.0</ele>
        <time>2019-05-01T06:44:17.000Z</time>
      </trkpt>
      <trkpt lat="42.62289810180664" lon="-7.819530963897705">
        <ele>609.0</ele>
        <time>2019-05-01T06:44:25.000Z</time>
      </trkpt>
      <trkpt lat="42.62281036376953" lon="-7.819558143615723">
        <ele>609.0</ele>
        <time>2019-05-01T06:44:32.000Z</time>
      </trkpt>
      <trkpt lat="42.622718811035156" lon="-7.819584369659424">
        <ele>609.0</ele>
        <time>2019-05-01T06:44:40.000Z</time>
      </trkpt>
      <trkpt lat="42.62263488769531" lon="-7.819619655609131">
        <ele>609.0</ele>
        <time>2019-05-01T06:44:48.000Z</time>
      </trkpt>
      <trkpt lat="42.6225471496582" lon="-7.819657325744629">
        <ele>610.0</ele>
        <time>2019-05-01T06:44:56.000Z</time>
      </trkpt>
      <trkpt lat="42.62246322631836" lon="-7.81969690322876">
        <ele>611.0</ele>
        <time>2019-05-01T06:45:04.000Z</time>
      </trkpt>
      <trkpt lat="42.62237548828125" lon="-7.819737911224365">
        <ele>612.0</ele>
        <time>2019-05-01T06:45:13.000Z</time>
      </trkpt>
      <trkpt lat="42.62207794189453" lon="-7.820010185241699">
        <ele>614.0</ele>
        <time>2019-05-01T06:45:43.000Z</time>
      </trkpt>
      <trkpt lat="42.621829986572266" lon="-7.82034969329834">
        <ele>614.0</ele>
        <time>2019-05-01T06:46:11.000Z</time>
      </trkpt>
      <trkpt lat="42.6215934753418" lon="-7.820714950561523">
        <ele>616.0</ele>
        <time>2019-05-01T06:46:45.000Z</time>
      </trkpt>
      <trkpt lat="42.62141799926758" lon="-7.821132183074951">
        <ele>620.0</ele>
        <time>2019-05-01T06:47:17.000Z</time>
      </trkpt>
      <trkpt lat="42.621246337890625" lon="-7.821464538574219">
        <ele>624.0</ele>
        <time>2019-05-01T06:47:48.000Z</time>
      </trkpt>
      <trkpt lat="42.62123107910156" lon="-7.821486949920654">
        <ele>627.0</ele>
        <time>2019-05-01T06:48:07.000Z</time>
      </trkpt>
      <trkpt lat="42.621219635009766" lon="-7.821505069732666">
        <ele>627.0</ele>
        <time>2019-05-01T06:48:08.000Z</time>
      </trkpt>
      <trkpt lat="42.62107467651367" lon="-7.8217291831970215">
        <ele>629.0</ele>
        <time>2019-05-01T06:48:18.000Z</time>
      </trkpt>
      <trkpt lat="42.62104415893555" lon="-7.82175350189209">
        <ele>630.0</ele>
        <time>2019-05-01T06:48:30.000Z</time>
      </trkpt>
      <trkpt lat="42.62103271484375" lon="-7.821737289428711">
        <ele>632.0</ele>
        <time>2019-05-01T06:48:42.000Z</time>
      </trkpt>
      <trkpt lat="42.62102508544922" lon="-7.821739196777344">
        <ele>632.0</ele>
        <time>2019-05-01T06:48:42.000Z</time>
      </trkpt>
      <trkpt lat="42.62101364135742" lon="-7.821740627288818">
        <ele>632.0</ele>
        <time>2019-05-01T06:48:43.000Z</time>
      </trkpt>
      <trkpt lat="42.62100601196289" lon="-7.821742057800293">
        <ele>632.0</ele>
        <time>2019-05-01T06:48:43.000Z</time>
      </trkpt>
      <trkpt lat="42.62099838256836" lon="-7.821743488311768">
        <ele>632.0</ele>
        <time>2019-05-01T06:48:43.000Z</time>
      </trkpt>
      <trkpt lat="42.620941162109375" lon="-7.821747779846191">
        <ele>632.0</ele>
        <time>2019-05-01T06:48:46.000Z</time>
      </trkpt>
      <trkpt lat="42.62085723876953" lon="-7.821753025054932">
        <ele>632.0</ele>
        <time>2019-05-01T06:48:48.000Z</time>
      </trkpt>
      <trkpt lat="42.62076187133789" lon="-7.82175874710083">
        <ele>633.0</ele>
        <time>2019-05-01T06:48:50.000Z</time>
      </trkpt>
      <trkpt lat="42.62065505981445" lon="-7.821765422821045">
        <ele>633.0</ele>
        <time>2019-05-01T06:48:53.000Z</time>
      </trkpt>
      <trkpt lat="42.620609283447266" lon="-7.821774482727051">
        <ele>633.0</ele>
        <time>2019-05-01T06:48:56.000Z</time>
      </trkpt>
      <trkpt lat="42.62057876586914" lon="-7.821784973144531">
        <ele>634.0</ele>
        <time>2019-05-01T06:48:59.000Z</time>
      </trkpt>
      <trkpt lat="42.62055587768555" lon="-7.821796894073486">
        <ele>634.0</ele>
        <time>2019-05-01T06:49:02.000Z</time>
      </trkpt>
      <trkpt lat="42.620540618896484" lon="-7.821808815002441">
        <ele>634.0</ele>
        <time>2019-05-01T06:49:05.000Z</time>
      </trkpt>
      <trkpt lat="42.620521545410156" lon="-7.821817398071289">
        <ele>634.0</ele>
        <time>2019-05-01T06:49:09.000Z</time>
      </trkpt>
      <trkpt lat="42.620506286621094" lon="-7.82182502746582">
        <ele>634.0</ele>
        <time>2019-05-01T06:49:12.000Z</time>
      </trkpt>
      <trkpt lat="42.6204948425293" lon="-7.821832180023193">
        <ele>634.0</ele>
        <time>2019-05-01T06:49:16.000Z</time>
      </trkpt>
      <trkpt lat="42.6204833984375" lon="-7.821838855743408">
        <ele>635.0</ele>
        <time>2019-05-01T06:49:20.000Z</time>
      </trkpt>
      <trkpt lat="42.62047576904297" lon="-7.82184362411499">
        <ele>635.0</ele>
        <time>2019-05-01T06:49:20.000Z</time>
      </trkpt>
      <trkpt lat="42.62046813964844" lon="-7.821847915649414">
        <ele>635.0</ele>
        <time>2019-05-01T06:49:20.000Z</time>
      </trkpt>
      <trkpt lat="42.620460510253906" lon="-7.8218512535095215">
        <ele>635.0</ele>
        <time>2019-05-01T06:49:21.000Z</time>
      </trkpt>
      <trkpt lat="42.620452880859375" lon="-7.821854114532471">
        <ele>635.0</ele>
        <time>2019-05-01T06:49:21.000Z</time>
      </trkpt>
      <trkpt lat="42.62043762207031" lon="-7.821863174438477">
        <ele>635.0</ele>
        <time>2019-05-01T06:49:22.000Z</time>
      </trkpt>
      <trkpt lat="42.62040710449219" lon="-7.821872234344482">
        <ele>635.0</ele>
        <time>2019-05-01T06:49:36.000Z</time>
      </trkpt>
      <trkpt lat="42.62038040161133" lon="-7.821878910064697">
        <ele>635.0</ele>
        <time>2019-05-01T06:49:37.000Z</time>
      </trkpt>
      <trkpt lat="42.62003707885742" lon="-7.821994781494141">
        <ele>634.0</ele>
        <time>2019-05-01T06:49:53.000Z</time>
      </trkpt>
      <trkpt lat="42.619686126708984" lon="-7.82210636138916">
        <ele>633.0</ele>
        <time>2019-05-01T06:50:22.000Z</time>
      </trkpt>
      <trkpt lat="42.61934280395508" lon="-7.822229862213135">
        <ele>632.0</ele>
        <time>2019-05-01T06:50:56.000Z</time>
      </trkpt>
      <trkpt lat="42.61901092529297" lon="-7.822366714477539">
        <ele>629.0</ele>
        <time>2019-05-01T06:51:30.000Z</time>
      </trkpt>
      <trkpt lat="42.618804931640625" lon="-7.8225297927856445">
        <ele>639.0</ele>
        <time>2019-05-01T06:51:48.000Z</time>
      </trkpt>
      <trkpt lat="42.61872482299805" lon="-7.822545528411865">
        <ele>642.0</ele>
        <time>2019-05-01T06:51:57.000Z</time>
      </trkpt>
      <trkpt lat="42.618656158447266" lon="-7.822530269622803">
        <ele>644.0</ele>
        <time>2019-05-01T06:52:07.000Z</time>
      </trkpt>
      <trkpt lat="42.618621826171875" lon="-7.8225579261779785">
        <ele>645.0</ele>
        <time>2019-05-01T06:52:11.000Z</time>
      </trkpt>
      <trkpt lat="42.618587493896484" lon="-7.822597026824951">
        <ele>645.0</ele>
        <time>2019-05-01T06:52:14.000Z</time>
      </trkpt>
      <trkpt lat="42.61855697631836" lon="-7.822644233703613">
        <ele>644.0</ele>
        <time>2019-05-01T06:52:18.000Z</time>
      </trkpt>
      <trkpt lat="42.618526458740234" lon="-7.822694778442383">
        <ele>644.0</ele>
        <time>2019-05-01T06:52:22.000Z</time>
      </trkpt>
      <trkpt lat="42.61848831176758" lon="-7.82273530960083">
        <ele>644.0</ele>
        <time>2019-05-01T06:52:26.000Z</time>
      </trkpt>
      <trkpt lat="42.61845016479492" lon="-7.822775363922119">
        <ele>644.0</ele>
        <time>2019-05-01T06:52:30.000Z</time>
      </trkpt>
      <trkpt lat="42.618408203125" lon="-7.822815418243408">
        <ele>644.0</ele>
        <time>2019-05-01T06:52:34.000Z</time>
      </trkpt>
      <trkpt lat="42.61836242675781" lon="-7.822855472564697">
        <ele>644.0</ele>
        <time>2019-05-01T06:52:38.000Z</time>
      </trkpt>
      <trkpt lat="42.61832809448242" lon="-7.822916507720947">
        <ele>644.0</ele>
        <time>2019-05-01T06:52:43.000Z</time>
      </trkpt>
      <trkpt lat="42.6182975769043" lon="-7.822986602783203">
        <ele>644.0</ele>
        <time>2019-05-01T06:52:48.000Z</time>
      </trkpt>
      <trkpt lat="42.61826705932617" lon="-7.823062419891357">
        <ele>644.0</ele>
        <time>2019-05-01T06:52:52.000Z</time>
      </trkpt>
      <trkpt lat="42.61823654174805" lon="-7.823141098022461">
        <ele>643.0</ele>
        <time>2019-05-01T06:52:57.000Z</time>
      </trkpt>
      <trkpt lat="42.618255615234375" lon="-7.8231964111328125">
        <ele>642.0</ele>
        <time>2019-05-01T06:53:01.000Z</time>
      </trkpt>
      <trkpt lat="42.61830139160156" lon="-7.823245048522949">
        <ele>641.0</ele>
        <time>2019-05-01T06:53:05.000Z</time>
      </trkpt>
      <trkpt lat="42.61835861206055" lon="-7.823288917541504">
        <ele>640.0</ele>
        <time>2019-05-01T06:53:09.000Z</time>
      </trkpt>
      <trkpt lat="42.61842346191406" lon="-7.823330879211426">
        <ele>639.0</ele>
        <time>2019-05-01T06:53:13.000Z</time>
      </trkpt>
      <trkpt lat="42.61848449707031" lon="-7.823398113250732">
        <ele>638.0</ele>
        <time>2019-05-01T06:53:21.000Z</time>
      </trkpt>
      <trkpt lat="42.61855697631836" lon="-7.823474407196045">
        <ele>638.0</ele>
        <time>2019-05-01T06:53:29.000Z</time>
      </trkpt>
      <trkpt lat="42.618629455566406" lon="-7.8235554695129395">
        <ele>638.0</ele>
        <time>2019-05-01T06:53:36.000Z</time>
      </trkpt>
      <trkpt lat="42.61870574951172" lon="-7.823639869689941">
        <ele>638.0</ele>
        <time>2019-05-01T06:53:44.000Z</time>
      </trkpt>
      <trkpt lat="42.61876678466797" lon="-7.82372522354126">
        <ele>637.0</ele>
        <time>2019-05-01T06:53:51.000Z</time>
      </trkpt>
      <trkpt lat="42.61882781982422" lon="-7.823813438415527">
        <ele>636.0</ele>
        <time>2019-05-01T06:53:57.000Z</time>
      </trkpt>
      <trkpt lat="42.61888122558594" lon="-7.823904037475586">
        <ele>635.0</ele>
        <time>2019-05-01T06:54:04.000Z</time>
      </trkpt>
      <trkpt lat="42.61893844604492" lon="-7.823995590209961">
        <ele>634.0</ele>
        <time>2019-05-01T06:54:10.000Z</time>
      </trkpt>
      <trkpt lat="42.618980407714844" lon="-7.824059009552002">
        <ele>633.0</ele>
        <time>2019-05-01T06:54:14.000Z</time>
      </trkpt>
      <trkpt lat="42.6190185546875" lon="-7.824111461639404">
        <ele>633.0</ele>
        <time>2019-05-01T06:54:19.000Z</time>
      </trkpt>
      <trkpt lat="42.619049072265625" lon="-7.824157238006592">
        <ele>633.0</ele>
        <time>2019-05-01T06:54:23.000Z</time>
      </trkpt>
      <trkpt lat="42.61907958984375" lon="-7.824199199676514">
        <ele>633.0</ele>
        <time>2019-05-01T06:54:27.000Z</time>
      </trkpt>
      <trkpt lat="42.61915588378906" lon="-7.824235439300537">
        <ele>634.0</ele>
        <time>2019-05-01T06:54:35.000Z</time>
      </trkpt>
      <trkpt lat="42.619239807128906" lon="-7.8242411613464355">
        <ele>635.0</ele>
        <time>2019-05-01T06:54:42.000Z</time>
      </trkpt>
      <trkpt lat="42.61930465698242" lon="-7.824281215667725">
        <ele>636.0</ele>
        <time>2019-05-01T06:54:48.000Z</time>
      </trkpt>
      <trkpt lat="42.619380950927734" lon="-7.824334144592285">
        <ele>636.0</ele>
        <time>2019-05-01T06:54:54.000Z</time>
      </trkpt>
      <trkpt lat="42.61946487426758" lon="-7.824395179748535">
        <ele>637.0</ele>
        <time>2019-05-01T06:55:00.000Z</time>
      </trkpt>
      <trkpt lat="42.61955261230469" lon="-7.824460029602051">
        <ele>638.0</ele>
        <time>2019-05-01T06:55:06.000Z</time>
      </trkpt>
      <trkpt lat="42.61962890625" lon="-7.824530124664307">
        <ele>638.0</ele>
        <time>2019-05-01T06:55:13.000Z</time>
      </trkpt>
      <trkpt lat="42.61969757080078" lon="-7.824606418609619">
        <ele>639.0</ele>
        <time>2019-05-01T06:55:20.000Z</time>
      </trkpt>
      <trkpt lat="42.61977005004883" lon="-7.824686527252197">
        <ele>639.0</ele>
        <time>2019-05-01T06:55:27.000Z</time>
      </trkpt>
      <trkpt lat="42.61983871459961" lon="-7.824769020080566">
        <ele>639.0</ele>
        <time>2019-05-01T06:55:34.000Z</time>
      </trkpt>
      <trkpt lat="42.619911193847656" lon="-7.824840068817139">
        <ele>639.0</ele>
        <time>2019-05-01T06:55:42.000Z</time>
      </trkpt>
      <trkpt lat="42.6199836730957" lon="-7.824908256530762">
        <ele>638.0</ele>
        <time>2019-05-01T06:55:49.000Z</time>
      </trkpt>
      <trkpt lat="42.62005615234375" lon="-7.824974536895752">
        <ele>636.0</ele>
        <time>2019-05-01T06:55:57.000Z</time>
      </trkpt>
      <trkpt lat="42.62013244628906" lon="-7.825040340423584">
        <ele>635.0</ele>
        <time>2019-05-01T06:56:04.000Z</time>
      </trkpt>
      <trkpt lat="42.620201110839844" lon="-7.8251142501831055">
        <ele>635.0</ele>
        <time>2019-05-01T06:56:12.000Z</time>
      </trkpt>
      <trkpt lat="42.62027359008789" lon="-7.825191020965576">
        <ele>635.0</ele>
        <time>2019-05-01T06:56:20.000Z</time>
      </trkpt>
      <trkpt lat="42.62034225463867" lon="-7.8252692222595215">
        <ele>636.0</ele>
        <time>2019-05-01T06:56:27.000Z</time>
      </trkpt>
      <trkpt lat="42.62041473388672" lon="-7.825348377227783">
        <ele>636.0</ele>
        <time>2019-05-01T06:56:35.000Z</time>
      </trkpt>
      <trkpt lat="42.6204833984375" lon="-7.825422763824463">
        <ele>638.0</ele>
        <time>2019-05-01T06:56:43.000Z</time>
      </trkpt>
      <trkpt lat="42.62055587768555" lon="-7.825496196746826">
        <ele>640.0</ele>
        <time>2019-05-01T06:56:51.000Z</time>
      </trkpt>
      <trkpt lat="42.620628356933594" lon="-7.825569152832031">
        <ele>643.0</ele>
        <time>2019-05-01T06:56:58.000Z</time>
      </trkpt>
      <trkpt lat="42.62070083618164" lon="-7.825641632080078">
        <ele>646.0</ele>
        <time>2019-05-01T06:57:06.000Z</time>
      </trkpt>
      <trkpt lat="42.62092971801758" lon="-7.82601261138916">
        <ele>651.0</ele>
        <time>2019-05-01T06:57:34.000Z</time>
      </trkpt>
      <trkpt lat="42.621212005615234" lon="-7.826338291168213">
        <ele>651.0</ele>
        <time>2019-05-01T06:58:05.000Z</time>
      </trkpt>
      <trkpt lat="42.6214714050293" lon="-7.826686859130859">
        <ele>651.0</ele>
        <time>2019-05-01T06:58:36.000Z</time>
      </trkpt>
      <trkpt lat="42.62175369262695" lon="-7.827004909515381">
        <ele>650.0</ele>
        <time>2019-05-01T06:59:06.000Z</time>
      </trkpt>
      <trkpt lat="42.62202453613281" lon="-7.82732629776001">
        <ele>650.0</ele>
        <time>2019-05-01T06:59:35.000Z</time>
      </trkpt>
      <trkpt lat="42.622283935546875" lon="-7.8276591300964355">
        <ele>651.0</ele>
        <time>2019-05-01T07:00:09.000Z</time>
      </trkpt>
      <trkpt lat="42.622581481933594" lon="-7.8279032707214355">
        <ele>645.0</ele>
        <time>2019-05-01T07:00:39.000Z</time>
      </trkpt>
      <trkpt lat="42.62273406982422" lon="-7.828064918518066">
        <ele>642.0</ele>
        <time>2019-05-01T07:00:54.000Z</time>
      </trkpt>
      <trkpt lat="42.622859954833984" lon="-7.828237056732178">
        <ele>642.0</ele>
        <time>2019-05-01T07:01:09.000Z</time>
      </trkpt>
      <trkpt lat="42.622989654541016" lon="-7.828408241271973">
        <ele>640.0</ele>
        <time>2019-05-01T07:01:27.000Z</time>
      </trkpt>
      <trkpt lat="42.62311553955078" lon="-7.828566551208496">
        <ele>638.0</ele>
        <time>2019-05-01T07:01:40.000Z</time>
      </trkpt>
      <trkpt lat="42.623233795166016" lon="-7.828754901885986">
        <ele>641.0</ele>
        <time>2019-05-01T07:01:55.000Z</time>
      </trkpt>
      <trkpt lat="42.62335968017578" lon="-7.828939914703369">
        <ele>644.0</ele>
        <time>2019-05-01T07:02:08.000Z</time>
      </trkpt>
      <trkpt lat="42.623470306396484" lon="-7.8290839195251465">
        <ele>656.0</ele>
        <time>2019-05-01T07:02:33.000Z</time>
      </trkpt>
      <trkpt lat="42.62352752685547" lon="-7.829165458679199">
        <ele>654.0</ele>
        <time>2019-05-01T07:02:56.000Z</time>
      </trkpt>
      <trkpt lat="42.62355422973633" lon="-7.829200267791748">
        <ele>654.0</ele>
        <time>2019-05-01T07:02:57.000Z</time>
      </trkpt>
      <trkpt lat="42.623809814453125" lon="-7.82952880859375">
        <ele>657.0</ele>
        <time>2019-05-01T07:03:20.000Z</time>
      </trkpt>
      <trkpt lat="42.624019622802734" lon="-7.829920768737793">
        <ele>658.0</ele>
        <time>2019-05-01T07:03:49.000Z</time>
      </trkpt>
      <trkpt lat="42.624202728271484" lon="-7.8303422927856445">
        <ele>650.0</ele>
        <time>2019-05-01T07:04:18.000Z</time>
      </trkpt>
      <trkpt lat="42.624324798583984" lon="-7.83079719543457">
        <ele>652.0</ele>
        <time>2019-05-01T07:04:49.000Z</time>
      </trkpt>
      <trkpt lat="42.62447738647461" lon="-7.831247329711914">
        <ele>658.0</ele>
        <time>2019-05-01T07:05:19.000Z</time>
      </trkpt>
      <trkpt lat="42.62460708618164" lon="-7.831699371337891">
        <ele>659.0</ele>
        <time>2019-05-01T07:05:48.000Z</time>
      </trkpt>
      <trkpt lat="42.62461853027344" lon="-7.8319525718688965">
        <ele>661.0</ele>
        <time>2019-05-01T07:06:05.000Z</time>
      </trkpt>
      <trkpt lat="42.624603271484375" lon="-7.832433223724365">
        <ele>662.0</ele>
        <time>2019-05-01T07:06:35.000Z</time>
      </trkpt>
      <trkpt lat="42.62468338012695" lon="-7.832908630371094">
        <ele>662.0</ele>
        <time>2019-05-01T07:07:04.000Z</time>
      </trkpt>
      <trkpt lat="42.62484359741211" lon="-7.833332061767578">
        <ele>663.0</ele>
        <time>2019-05-01T07:07:42.000Z</time>
      </trkpt>
      <trkpt lat="42.62495422363281" lon="-7.833544731140137">
        <ele>664.0</ele>
        <time>2019-05-01T07:07:57.000Z</time>
      </trkpt>
      <trkpt lat="42.625057220458984" lon="-7.833749294281006">
        <ele>667.0</ele>
        <time>2019-05-01T07:08:14.000Z</time>
      </trkpt>
      <trkpt lat="42.62525939941406" lon="-7.834155559539795">
        <ele>666.0</ele>
        <time>2019-05-01T07:08:47.000Z</time>
      </trkpt>
      <trkpt lat="42.62542724609375" lon="-7.834569931030273">
        <ele>664.0</ele>
        <time>2019-05-01T07:09:17.000Z</time>
      </trkpt>
      <trkpt lat="42.625606536865234" lon="-7.834998607635498">
        <ele>665.0</ele>
        <time>2019-05-01T07:09:46.000Z</time>
      </trkpt>
      <trkpt lat="42.625694274902344" lon="-7.835478782653809">
        <ele>666.0</ele>
        <time>2019-05-01T07:10:18.000Z</time>
      </trkpt>
      <trkpt lat="42.62570571899414" lon="-7.835967063903809">
        <ele>668.0</ele>
        <time>2019-05-01T07:10:50.000Z</time>
      </trkpt>
      <trkpt lat="42.625640869140625" lon="-7.8364410400390625">
        <ele>673.0</ele>
        <time>2019-05-01T07:11:25.000Z</time>
      </trkpt>
      <trkpt lat="42.6256217956543" lon="-7.8369221687316895">
        <ele>677.0</ele>
        <time>2019-05-01T07:12:00.000Z</time>
      </trkpt>
      <trkpt lat="42.62555694580078" lon="-7.837391376495361">
        <ele>680.0</ele>
        <time>2019-05-01T07:12:32.000Z</time>
      </trkpt>
      <trkpt lat="42.62554931640625" lon="-7.837867736816406">
        <ele>686.0</ele>
        <time>2019-05-01T07:13:05.000Z</time>
      </trkpt>
      <trkpt lat="42.62545394897461" lon="-7.838343143463135">
        <ele>685.0</ele>
        <time>2019-05-01T07:13:37.000Z</time>
      </trkpt>
      <trkpt lat="42.62533187866211" lon="-7.83878755569458">
        <ele>690.0</ele>
        <time>2019-05-01T07:14:10.000Z</time>
      </trkpt>
      <trkpt lat="42.625160217285156" lon="-7.839215278625488">
        <ele>694.0</ele>
        <time>2019-05-01T07:14:41.000Z</time>
      </trkpt>
      <trkpt lat="42.62500762939453" lon="-7.839650630950928">
        <ele>696.0</ele>
        <time>2019-05-01T07:15:11.000Z</time>
      </trkpt>
      <trkpt lat="42.625" lon="-7.8398871421813965">
        <ele>697.0</ele>
        <time>2019-05-01T07:15:27.000Z</time>
      </trkpt>
      <trkpt lat="42.62501907348633" lon="-7.840131759643555">
        <ele>699.0</ele>
        <time>2019-05-01T07:15:43.000Z</time>
      </trkpt>
      <trkpt lat="42.62501907348633" lon="-7.8402509689331055">
        <ele>700.0</ele>
        <time>2019-05-01T07:15:50.000Z</time>
      </trkpt>
      <trkpt lat="42.62501525878906" lon="-7.84036922454834">
        <ele>700.0</ele>
        <time>2019-05-01T07:15:57.000Z</time>
      </trkpt>
      <trkpt lat="42.62501525878906" lon="-7.840487957000732">
        <ele>700.0</ele>
        <time>2019-05-01T07:16:04.000Z</time>
      </trkpt>
      <trkpt lat="42.6250114440918" lon="-7.840605735778809">
        <ele>700.0</ele>
        <time>2019-05-01T07:16:11.000Z</time>
      </trkpt>
      <trkpt lat="42.62500762939453" lon="-7.840725898742676">
        <ele>700.0</ele>
        <time>2019-05-01T07:16:18.000Z</time>
      </trkpt>
      <trkpt lat="42.625003814697266" lon="-7.840847015380859">
        <ele>701.0</ele>
        <time>2019-05-01T07:16:25.000Z</time>
      </trkpt>
      <trkpt lat="42.625" lon="-7.840968132019043">
        <ele>701.0</ele>
        <time>2019-05-01T07:16:32.000Z</time>
      </trkpt>
      <trkpt lat="42.62499237060547" lon="-7.841089725494385">
        <ele>702.0</ele>
        <time>2019-05-01T07:16:39.000Z</time>
      </trkpt>
      <trkpt lat="42.6249885559082" lon="-7.841208457946777">
        <ele>704.0</ele>
        <time>2019-05-01T07:16:47.000Z</time>
      </trkpt>
      <trkpt lat="42.62498092651367" lon="-7.8413262367248535">
        <ele>705.0</ele>
        <time>2019-05-01T07:16:55.000Z</time>
      </trkpt>
      <trkpt lat="42.62497329711914" lon="-7.8414435386657715">
        <ele>707.0</ele>
        <time>2019-05-01T07:17:03.000Z</time>
      </trkpt>
      <trkpt lat="42.62496566772461" lon="-7.841560363769531">
        <ele>709.0</ele>
        <time>2019-05-01T07:17:11.000Z</time>
      </trkpt>
      <trkpt lat="42.62493896484375" lon="-7.841672897338867">
        <ele>709.0</ele>
        <time>2019-05-01T07:17:17.000Z</time>
      </trkpt>
      <trkpt lat="42.62490463256836" lon="-7.84178352355957">
        <ele>708.0</ele>
        <time>2019-05-01T07:17:22.000Z</time>
      </trkpt>
      <trkpt lat="42.62486267089844" lon="-7.841892242431641">
        <ele>707.0</ele>
        <time>2019-05-01T07:17:28.000Z</time>
      </trkpt>
      <trkpt lat="42.624820709228516" lon="-7.842000961303711">
        <ele>706.0</ele>
        <time>2019-05-01T07:17:34.000Z</time>
      </trkpt>
      <trkpt lat="42.62480545043945" lon="-7.842120170593262">
        <ele>704.0</ele>
        <time>2019-05-01T07:17:41.000Z</time>
      </trkpt>
      <trkpt lat="42.62480163574219" lon="-7.842243671417236">
        <ele>703.0</ele>
        <time>2019-05-01T07:17:49.000Z</time>
      </trkpt>
      <trkpt lat="42.62480163574219" lon="-7.842369556427002">
        <ele>702.0</ele>
        <time>2019-05-01T07:17:56.000Z</time>
      </trkpt>
      <trkpt lat="42.62480545043945" lon="-7.842496871948242">
        <ele>700.0</ele>
        <time>2019-05-01T07:18:04.000Z</time>
      </trkpt>
      <trkpt lat="42.62478256225586" lon="-7.842991352081299">
        <ele>696.0</ele>
        <time>2019-05-01T07:18:33.000Z</time>
      </trkpt>
      <trkpt lat="42.62480163574219" lon="-7.843481063842773">
        <ele>696.0</ele>
        <time>2019-05-01T07:19:03.000Z</time>
      </trkpt>
      <trkpt lat="42.624786376953125" lon="-7.84397029876709">
        <ele>699.0</ele>
        <time>2019-05-01T07:19:32.000Z</time>
      </trkpt>
      <trkpt lat="42.62480545043945" lon="-7.844456672668457">
        <ele>699.0</ele>
        <time>2019-05-01T07:20:02.000Z</time>
      </trkpt>
      <trkpt lat="42.62477493286133" lon="-7.844715595245361">
        <ele>699.0</ele>
        <time>2019-05-01T07:20:18.000Z</time>
      </trkpt>
      <trkpt lat="42.62472915649414" lon="-7.8449788093566895">
        <ele>699.0</ele>
        <time>2019-05-01T07:20:35.000Z</time>
      </trkpt>
      <trkpt lat="42.62472915649414" lon="-7.845046043395996">
        <ele>699.0</ele>
        <time>2019-05-01T07:20:49.000Z</time>
      </trkpt>
      <trkpt lat="42.624725341796875" lon="-7.845071315765381">
        <ele>698.0</ele>
        <time>2019-05-01T07:21:14.000Z</time>
      </trkpt>
      <trkpt lat="42.62472152709961" lon="-7.845093250274658">
        <ele>698.0</ele>
        <time>2019-05-01T07:21:15.000Z</time>
      </trkpt>
      <trkpt lat="42.62467575073242" lon="-7.845341682434082">
        <ele>699.0</ele>
        <time>2019-05-01T07:21:17.000Z</time>
      </trkpt>
      <trkpt lat="42.624595642089844" lon="-7.8458251953125">
        <ele>696.0</ele>
        <time>2019-05-01T07:21:51.000Z</time>
      </trkpt>
      <trkpt lat="42.6245231628418" lon="-7.84630012512207">
        <ele>696.0</ele>
        <time>2019-05-01T07:22:17.000Z</time>
      </trkpt>
      <trkpt lat="42.6244010925293" lon="-7.84676456451416">
        <ele>700.0</ele>
        <time>2019-05-01T07:22:46.000Z</time>
      </trkpt>
      <trkpt lat="42.62429428100586" lon="-7.84722900390625">
        <ele>700.0</ele>
        <time>2019-05-01T07:23:16.000Z</time>
      </trkpt>
      <trkpt lat="42.62431335449219" lon="-7.8473405838012695">
        <ele>700.0</ele>
        <time>2019-05-01T07:23:23.000Z</time>
      </trkpt>
      <trkpt lat="42.624351501464844" lon="-7.847450256347656">
        <ele>701.0</ele>
        <time>2019-05-01T07:23:30.000Z</time>
      </trkpt>
      <trkpt lat="42.6244010925293" lon="-7.847558498382568">
        <ele>701.0</ele>
        <time>2019-05-01T07:23:38.000Z</time>
      </trkpt>
      <trkpt lat="42.62445831298828" lon="-7.847666263580322">
        <ele>701.0</ele>
        <time>2019-05-01T07:23:45.000Z</time>
      </trkpt>
      <trkpt lat="42.624507904052734" lon="-7.847769737243652">
        <ele>701.0</ele>
        <time>2019-05-01T07:23:52.000Z</time>
      </trkpt>
      <trkpt lat="42.62455749511719" lon="-7.847870349884033">
        <ele>700.0</ele>
        <time>2019-05-01T07:24:00.000Z</time>
      </trkpt>
      <trkpt lat="42.624610900878906" lon="-7.847969055175781">
        <ele>699.0</ele>
        <time>2019-05-01T07:24:07.000Z</time>
      </trkpt>
      <trkpt lat="42.62466812133789" lon="-7.848066806793213">
        <ele>699.0</ele>
        <time>2019-05-01T07:24:15.000Z</time>
      </trkpt>
      <trkpt lat="42.62471008300781" lon="-7.848173141479492">
        <ele>698.0</ele>
        <time>2019-05-01T07:24:23.000Z</time>
      </trkpt>
      <trkpt lat="42.624752044677734" lon="-7.8482818603515625">
        <ele>697.0</ele>
        <time>2019-05-01T07:24:31.000Z</time>
      </trkpt>
      <trkpt lat="42.624794006347656" lon="-7.848392009735107">
        <ele>696.0</ele>
        <time>2019-05-01T07:24:40.000Z</time>
      </trkpt>
      <trkpt lat="42.62483215332031" lon="-7.848503112792969">
        <ele>694.0</ele>
        <time>2019-05-01T07:24:48.000Z</time>
      </trkpt>
      <trkpt lat="42.624874114990234" lon="-7.8486127853393555">
        <ele>694.0</ele>
        <time>2019-05-01T07:24:57.000Z</time>
      </trkpt>
      <trkpt lat="42.624916076660156" lon="-7.8487229347229">
        <ele>694.0</ele>
        <time>2019-05-01T07:25:05.000Z</time>
      </trkpt>
      <trkpt lat="42.62495422363281" lon="-7.848832607269287">
        <ele>694.0</ele>
        <time>2019-05-01T07:25:14.000Z</time>
      </trkpt>
      <trkpt lat="42.624996185302734" lon="-7.848942756652832">
        <ele>695.0</ele>
        <time>2019-05-01T07:25:23.000Z</time>
      </trkpt>
      <trkpt lat="42.625038146972656" lon="-7.849050045013428">
        <ele>694.0</ele>
        <time>2019-05-01T07:25:31.000Z</time>
      </trkpt>
      <trkpt lat="42.62508010864258" lon="-7.849155902862549">
        <ele>694.0</ele>
        <time>2019-05-01T07:25:38.000Z</time>
      </trkpt>
      <trkpt lat="42.6251220703125" lon="-7.849261283874512">
        <ele>694.0</ele>
        <time>2019-05-01T07:25:46.000Z</time>
      </trkpt>
      <trkpt lat="42.62516403198242" lon="-7.849366664886475">
        <ele>694.0</ele>
        <time>2019-05-01T07:25:54.000Z</time>
      </trkpt>
      <trkpt lat="42.62518310546875" lon="-7.849442958831787">
        <ele>694.0</ele>
        <time>2019-05-01T07:25:58.000Z</time>
      </trkpt>
      <trkpt lat="42.62519836425781" lon="-7.849506855010986">
        <ele>695.0</ele>
        <time>2019-05-01T07:26:01.000Z</time>
      </trkpt>
      <trkpt lat="42.62520217895508" lon="-7.849563121795654">
        <ele>695.0</ele>
        <time>2019-05-01T07:26:05.000Z</time>
      </trkpt>
      <trkpt lat="42.625205993652344" lon="-7.84961462020874">
        <ele>695.0</ele>
        <time>2019-05-01T07:26:09.000Z</time>
      </trkpt>
      <trkpt lat="42.6252326965332" lon="-7.849658966064453">
        <ele>696.0</ele>
        <time>2019-05-01T07:26:14.000Z</time>
      </trkpt>
      <trkpt lat="42.62527084350586" lon="-7.849696159362793">
        <ele>697.0</ele>
        <time>2019-05-01T07:26:19.000Z</time>
      </trkpt>
      <trkpt lat="42.62531280517578" lon="-7.849727630615234">
        <ele>698.0</ele>
        <time>2019-05-01T07:26:25.000Z</time>
      </trkpt>
      <trkpt lat="42.62535858154297" lon="-7.849757194519043">
        <ele>699.0</ele>
        <time>2019-05-01T07:26:30.000Z</time>
      </trkpt>
      <trkpt lat="42.62538528442383" lon="-7.849791526794434">
        <ele>700.0</ele>
        <time>2019-05-01T07:26:33.000Z</time>
      </trkpt>
      <trkpt lat="42.625404357910156" lon="-7.849825382232666">
        <ele>700.0</ele>
        <time>2019-05-01T07:26:37.000Z</time>
      </trkpt>
      <trkpt lat="42.62541580200195" lon="-7.849859237670898">
        <ele>701.0</ele>
        <time>2019-05-01T07:26:40.000Z</time>
      </trkpt>
      <trkpt lat="42.625431060791016" lon="-7.849892616271973">
        <ele>702.0</ele>
        <time>2019-05-01T07:26:44.000Z</time>
      </trkpt>
      <trkpt lat="42.62542724609375" lon="-7.849912643432617">
        <ele>702.0</ele>
        <time>2019-05-01T07:26:45.000Z</time>
      </trkpt>
      <trkpt lat="42.62541198730469" lon="-7.849926948547363">
        <ele>703.0</ele>
        <time>2019-05-01T07:26:46.000Z</time>
      </trkpt>
      <trkpt lat="42.62539291381836" lon="-7.849937438964844">
        <ele>703.0</ele>
        <time>2019-05-01T07:26:48.000Z</time>
      </trkpt>
      <trkpt lat="42.625370025634766" lon="-7.849946022033691">
        <ele>703.0</ele>
        <time>2019-05-01T07:26:49.000Z</time>
      </trkpt>
      <trkpt lat="42.62535858154297" lon="-7.849941253662109">
        <ele>703.0</ele>
        <time>2019-05-01T07:26:52.000Z</time>
      </trkpt>
      <trkpt lat="42.625343322753906" lon="-7.849928379058838">
        <ele>703.0</ele>
        <time>2019-05-01T07:26:54.000Z</time>
      </trkpt>
      <trkpt lat="42.625328063964844" lon="-7.849910736083984">
        <ele>702.0</ele>
        <time>2019-05-01T07:26:57.000Z</time>
      </trkpt>
      <trkpt lat="42.62531661987305" lon="-7.84989070892334">
        <ele>702.0</ele>
        <time>2019-05-01T07:27:00.000Z</time>
      </trkpt>
      <trkpt lat="42.625328063964844" lon="-7.849883556365967">
        <ele>701.0</ele>
        <time>2019-05-01T07:27:02.000Z</time>
      </trkpt>
      <trkpt lat="42.6253547668457" lon="-7.849879264831543">
        <ele>699.0</ele>
        <time>2019-05-01T07:27:04.000Z</time>
      </trkpt>
      <trkpt lat="42.625389099121094" lon="-7.849876403808594">
        <ele>698.0</ele>
        <time>2019-05-01T07:27:07.000Z</time>
      </trkpt>
      <trkpt lat="42.62542724609375" lon="-7.849874496459961">
        <ele>696.0</ele>
        <time>2019-05-01T07:27:09.000Z</time>
      </trkpt>
      <trkpt lat="42.625457763671875" lon="-7.849898815155029">
        <ele>694.0</ele>
        <time>2019-05-01T07:27:14.000Z</time>
      </trkpt>
      <trkpt lat="42.625492095947266" lon="-7.8499345779418945">
        <ele>692.0</ele>
        <time>2019-05-01T07:27:19.000Z</time>
      </trkpt>
      <trkpt lat="42.625526428222656" lon="-7.849977970123291">
        <ele>690.0</ele>
        <time>2019-05-01T07:27:24.000Z</time>
      </trkpt>
      <trkpt lat="42.62556457519531" lon="-7.850025177001953">
        <ele>688.0</ele>
        <time>2019-05-01T07:27:29.000Z</time>
      </trkpt>
      <trkpt lat="42.625572204589844" lon="-7.8500165939331055">
        <ele>687.0</ele>
        <time>2019-05-01T07:27:31.000Z</time>
      </trkpt>
      <trkpt lat="42.62556838989258" lon="-7.84998893737793">
        <ele>687.0</ele>
        <time>2019-05-01T07:27:33.000Z</time>
      </trkpt>
      <trkpt lat="42.62555694580078" lon="-7.849948406219482">
        <ele>687.0</ele>
        <time>2019-05-01T07:27:35.000Z</time>
      </trkpt>
      <trkpt lat="42.62554168701172" lon="-7.84990119934082">
        <ele>687.0</ele>
        <time>2019-05-01T07:27:37.000Z</time>
      </trkpt>
      <trkpt lat="42.625545501708984" lon="-7.850039958953857">
        <ele>698.0</ele>
        <time>2019-05-01T08:05:39.000Z</time>
      </trkpt>
      <trkpt lat="42.625606536865234" lon="-7.850135803222656">
        <ele>698.0</ele>
        <time>2019-05-01T08:05:51.000Z</time>
      </trkpt>
      <trkpt lat="42.6256103515625" lon="-7.850152969360352">
        <ele>698.0</ele>
        <time>2019-05-01T08:05:56.000Z</time>
      </trkpt>
      <trkpt lat="42.625614166259766" lon="-7.850167751312256">
        <ele>698.0</ele>
        <time>2019-05-01T08:06:00.000Z</time>
      </trkpt>
      <trkpt lat="42.6256103515625" lon="-7.850180625915527">
        <ele>698.0</ele>
        <time>2019-05-01T08:06:04.000Z</time>
      </trkpt>
      <trkpt lat="42.625606536865234" lon="-7.850192546844482">
        <ele>698.0</ele>
        <time>2019-05-01T08:06:08.000Z</time>
      </trkpt>
      <trkpt lat="42.625606536865234" lon="-7.850203514099121">
        <ele>698.0</ele>
        <time>2019-05-01T08:06:09.000Z</time>
      </trkpt>
      <trkpt lat="42.625606536865234" lon="-7.850213050842285">
        <ele>698.0</ele>
        <time>2019-05-01T08:06:09.000Z</time>
      </trkpt>
      <trkpt lat="42.625606536865234" lon="-7.850221633911133">
        <ele>698.0</ele>
        <time>2019-05-01T08:06:09.000Z</time>
      </trkpt>
      <trkpt lat="42.625606536865234" lon="-7.850229740142822">
        <ele>698.0</ele>
        <time>2019-05-01T08:06:09.000Z</time>
      </trkpt>
      <trkpt lat="42.625606536865234" lon="-7.850236892700195">
        <ele>698.0</ele>
        <time>2019-05-01T08:06:10.000Z</time>
      </trkpt>
      <trkpt lat="42.625606536865234" lon="-7.85024356842041">
        <ele>698.0</ele>
        <time>2019-05-01T08:06:10.000Z</time>
      </trkpt>
      <trkpt lat="42.625606536865234" lon="-7.85024881362915">
        <ele>698.0</ele>
        <time>2019-05-01T08:06:10.000Z</time>
      </trkpt>
      <trkpt lat="42.625606536865234" lon="-7.850254535675049">
        <ele>698.0</ele>
        <time>2019-05-01T08:06:10.000Z</time>
      </trkpt>
      <trkpt lat="42.625606536865234" lon="-7.850279331207275">
        <ele>698.0</ele>
        <time>2019-05-01T08:06:12.000Z</time>
      </trkpt>
      <trkpt lat="42.6256103515625" lon="-7.850312232971191">
        <ele>698.0</ele>
        <time>2019-05-01T08:06:14.000Z</time>
      </trkpt>
      <trkpt lat="42.6256103515625" lon="-7.850350379943848">
        <ele>698.0</ele>
        <time>2019-05-01T08:06:16.000Z</time>
      </trkpt>
      <trkpt lat="42.6256103515625" lon="-7.850390911102295">
        <ele>698.0</ele>
        <time>2019-05-01T08:06:17.000Z</time>
      </trkpt>
      <trkpt lat="42.6256103515625" lon="-7.850409984588623">
        <ele>698.0</ele>
        <time>2019-05-01T08:06:18.000Z</time>
      </trkpt>
      <trkpt lat="42.625614166259766" lon="-7.8504228591918945">
        <ele>698.0</ele>
        <time>2019-05-01T08:06:18.000Z</time>
      </trkpt>
      <trkpt lat="42.625614166259766" lon="-7.850430965423584">
        <ele>698.0</ele>
        <time>2019-05-01T08:06:18.000Z</time>
      </trkpt>
      <trkpt lat="42.625614166259766" lon="-7.850437641143799">
        <ele>698.0</ele>
        <time>2019-05-01T08:06:18.000Z</time>
      </trkpt>
      <trkpt lat="42.62560272216797" lon="-7.850522994995117">
        <ele>698.0</ele>
        <time>2019-05-01T08:06:26.000Z</time>
      </trkpt>
      <trkpt lat="42.62559127807617" lon="-7.850639343261719">
        <ele>697.0</ele>
        <time>2019-05-01T08:06:33.000Z</time>
      </trkpt>
      <trkpt lat="42.62557601928711" lon="-7.850776672363281">
        <ele>697.0</ele>
        <time>2019-05-01T08:06:40.000Z</time>
      </trkpt>
      <trkpt lat="42.62555694580078" lon="-7.850924015045166">
        <ele>696.0</ele>
        <time>2019-05-01T08:06:47.000Z</time>
      </trkpt>
      <trkpt lat="42.6255989074707" lon="-7.851407527923584">
        <ele>693.0</ele>
        <time>2019-05-01T08:07:19.000Z</time>
      </trkpt>
      <trkpt lat="42.625648498535156" lon="-7.851891994476318">
        <ele>693.0</ele>
        <time>2019-05-01T08:07:57.000Z</time>
      </trkpt>
      <trkpt lat="42.62571334838867" lon="-7.852356433868408">
        <ele>699.0</ele>
        <time>2019-05-01T08:08:52.000Z</time>
      </trkpt>
      <trkpt lat="42.625736236572266" lon="-7.852412223815918">
        <ele>700.0</ele>
        <time>2019-05-01T08:09:02.000Z</time>
      </trkpt>
      <trkpt lat="42.62574768066406" lon="-7.852434158325195">
        <ele>703.0</ele>
        <time>2019-05-01T08:09:18.000Z</time>
      </trkpt>
      <trkpt lat="42.625755310058594" lon="-7.852451801300049">
        <ele>703.0</ele>
        <time>2019-05-01T08:09:19.000Z</time>
      </trkpt>
      <trkpt lat="42.62581253051758" lon="-7.852921009063721">
        <ele>708.0</ele>
        <time>2019-05-01T08:09:47.000Z</time>
      </trkpt>
      <trkpt lat="42.62580871582031" lon="-7.8529534339904785">
        <ele>709.0</ele>
        <time>2019-05-01T08:09:51.000Z</time>
      </trkpt>
      <trkpt lat="42.62579345703125" lon="-7.853003978729248">
        <ele>712.0</ele>
        <time>2019-05-01T08:10:12.000Z</time>
      </trkpt>
      <trkpt lat="42.62578201293945" lon="-7.853037357330322">
        <ele>712.0</ele>
        <time>2019-05-01T08:10:13.000Z</time>
      </trkpt>
      <trkpt lat="42.62569046020508" lon="-7.853438377380371">
        <ele>717.0</ele>
        <time>2019-05-01T08:10:38.000Z</time>
      </trkpt>
      <trkpt lat="42.62568283081055" lon="-7.853466033935547">
        <ele>720.0</ele>
        <time>2019-05-01T08:10:55.000Z</time>
      </trkpt>
      <trkpt lat="42.62567901611328" lon="-7.853487968444824">
        <ele>720.0</ele>
        <time>2019-05-01T08:10:56.000Z</time>
      </trkpt>
      <trkpt lat="42.62556457519531" lon="-7.853932857513428">
        <ele>723.0</ele>
        <time>2019-05-01T08:11:13.000Z</time>
      </trkpt>
      <trkpt lat="42.625457763671875" lon="-7.85439395904541">
        <ele>727.0</ele>
        <time>2019-05-01T08:11:47.000Z</time>
      </trkpt>
      <trkpt lat="42.625301361083984" lon="-7.854842662811279">
        <ele>734.0</ele>
        <time>2019-05-01T08:12:22.000Z</time>
      </trkpt>
      <trkpt lat="42.625152587890625" lon="-7.855283260345459">
        <ele>737.0</ele>
        <time>2019-05-01T08:12:58.000Z</time>
      </trkpt>
      <trkpt lat="42.62496566772461" lon="-7.855701446533203">
        <ele>739.0</ele>
        <time>2019-05-01T08:13:33.000Z</time>
      </trkpt>
      <trkpt lat="42.624813079833984" lon="-7.856137275695801">
        <ele>747.0</ele>
        <time>2019-05-01T08:14:15.000Z</time>
      </trkpt>
      <trkpt lat="42.6247673034668" lon="-7.856534481048584">
        <ele>752.0</ele>
        <time>2019-05-01T08:14:52.000Z</time>
      </trkpt>
      <trkpt lat="42.624755859375" lon="-7.856630802154541">
        <ele>754.0</ele>
        <time>2019-05-01T08:15:14.000Z</time>
      </trkpt>
      <trkpt lat="42.624752044677734" lon="-7.856677055358887">
        <ele>754.0</ele>
        <time>2019-05-01T08:15:15.000Z</time>
      </trkpt>
      <trkpt lat="42.624610900878906" lon="-7.857133388519287">
        <ele>755.0</ele>
        <time>2019-05-01T08:15:41.000Z</time>
      </trkpt>
      <trkpt lat="42.62457275390625" lon="-7.857359409332275">
        <ele>756.0</ele>
        <time>2019-05-01T08:15:56.000Z</time>
      </trkpt>
      <trkpt lat="42.62459945678711" lon="-7.857485294342041">
        <ele>757.0</ele>
        <time>2019-05-01T08:16:06.000Z</time>
      </trkpt>
      <trkpt lat="42.6246452331543" lon="-7.857616424560547">
        <ele>758.0</ele>
        <time>2019-05-01T08:16:16.000Z</time>
      </trkpt>
      <trkpt lat="42.62468338012695" lon="-7.857706069946289">
        <ele>759.0</ele>
        <time>2019-05-01T08:16:26.000Z</time>
      </trkpt>
      <trkpt lat="42.62472915649414" lon="-7.85780668258667">
        <ele>760.0</ele>
        <time>2019-05-01T08:16:35.000Z</time>
      </trkpt>
      <trkpt lat="42.624778747558594" lon="-7.857913970947266">
        <ele>762.0</ele>
        <time>2019-05-01T08:16:45.000Z</time>
      </trkpt>
      <trkpt lat="42.62483596801758" lon="-7.858025074005127">
        <ele>764.0</ele>
        <time>2019-05-01T08:16:55.000Z</time>
      </trkpt>
      <trkpt lat="42.624881744384766" lon="-7.858126640319824">
        <ele>765.0</ele>
        <time>2019-05-01T08:17:05.000Z</time>
      </trkpt>
      <trkpt lat="42.62493133544922" lon="-7.8582282066345215">
        <ele>766.0</ele>
        <time>2019-05-01T08:17:15.000Z</time>
      </trkpt>
      <trkpt lat="42.624977111816406" lon="-7.858329772949219">
        <ele>768.0</ele>
        <time>2019-05-01T08:17:26.000Z</time>
      </trkpt>
      <trkpt lat="42.62502670288086" lon="-7.858430862426758">
        <ele>769.0</ele>
        <time>2019-05-01T08:17:36.000Z</time>
      </trkpt>
      <trkpt lat="42.62516784667969" lon="-7.858554363250732">
        <ele>769.0</ele>
        <time>2019-05-01T08:17:59.000Z</time>
      </trkpt>
      <trkpt lat="42.625328063964844" lon="-7.858641147613525">
        <ele>768.0</ele>
        <time>2019-05-01T08:18:23.000Z</time>
      </trkpt>
      <trkpt lat="42.62540817260742" lon="-7.858697414398193">
        <ele>768.0</ele>
        <time>2019-05-01T08:18:33.000Z</time>
      </trkpt>
      <trkpt lat="42.625484466552734" lon="-7.858756065368652">
        <ele>769.0</ele>
        <time>2019-05-01T08:18:42.000Z</time>
      </trkpt>
      <trkpt lat="42.62556457519531" lon="-7.8588151931762695">
        <ele>769.0</ele>
        <time>2019-05-01T08:18:52.000Z</time>
      </trkpt>
      <trkpt lat="42.62564468383789" lon="-7.858875274658203">
        <ele>770.0</ele>
        <time>2019-05-01T08:19:02.000Z</time>
      </trkpt>
      <trkpt lat="42.62571334838867" lon="-7.858950138092041">
        <ele>771.0</ele>
        <time>2019-05-01T08:19:10.000Z</time>
      </trkpt>
      <trkpt lat="42.62577819824219" lon="-7.859032154083252">
        <ele>773.0</ele>
        <time>2019-05-01T08:19:18.000Z</time>
      </trkpt>
      <trkpt lat="42.6258430480957" lon="-7.859118938446045">
        <ele>775.0</ele>
        <time>2019-05-01T08:19:27.000Z</time>
      </trkpt>
      <trkpt lat="42.62590408325195" lon="-7.859208106994629">
        <ele>777.0</ele>
        <time>2019-05-01T08:19:35.000Z</time>
      </trkpt>
      <trkpt lat="42.625980377197266" lon="-7.8594207763671875">
        <ele>781.0</ele>
        <time>2019-05-01T08:19:54.000Z</time>
      </trkpt>
      <trkpt lat="42.62602996826172" lon="-7.859654903411865">
        <ele>787.0</ele>
        <time>2019-05-01T08:20:13.000Z</time>
      </trkpt>
      <trkpt lat="42.626075744628906" lon="-7.859755992889404">
        <ele>789.0</ele>
        <time>2019-05-01T08:20:21.000Z</time>
      </trkpt>
      <trkpt lat="42.62613296508789" lon="-7.8598527908325195">
        <ele>791.0</ele>
        <time>2019-05-01T08:20:29.000Z</time>
      </trkpt>
      <trkpt lat="42.626190185546875" lon="-7.859946250915527">
        <ele>793.0</ele>
        <time>2019-05-01T08:20:37.000Z</time>
      </trkpt>
      <trkpt lat="42.626251220703125" lon="-7.8600382804870605">
        <ele>795.0</ele>
        <time>2019-05-01T08:20:45.000Z</time>
      </trkpt>
      <trkpt lat="42.62629699707031" lon="-7.860121726989746">
        <ele>797.0</ele>
        <time>2019-05-01T08:20:52.000Z</time>
      </trkpt>
      <trkpt lat="42.626338958740234" lon="-7.86020040512085">
        <ele>799.0</ele>
        <time>2019-05-01T08:20:58.000Z</time>
      </trkpt>
      <trkpt lat="42.62637710571289" lon="-7.8602752685546875">
        <ele>801.0</ele>
        <time>2019-05-01T08:21:05.000Z</time>
      </trkpt>
      <trkpt lat="42.62641525268555" lon="-7.860348701477051">
        <ele>803.0</ele>
        <time>2019-05-01T08:21:12.000Z</time>
      </trkpt>
      <trkpt lat="42.62644577026367" lon="-7.860405921936035">
        <ele>804.0</ele>
        <time>2019-05-01T08:21:15.000Z</time>
      </trkpt>
      <trkpt lat="42.62647247314453" lon="-7.860454559326172">
        <ele>804.0</ele>
        <time>2019-05-01T08:21:18.000Z</time>
      </trkpt>
      <trkpt lat="42.626495361328125" lon="-7.86049747467041">
        <ele>804.0</ele>
        <time>2019-05-01T08:21:22.000Z</time>
      </trkpt>
      <trkpt lat="42.62651443481445" lon="-7.860538005828857">
        <ele>804.0</ele>
        <time>2019-05-01T08:21:25.000Z</time>
      </trkpt>
      <trkpt lat="42.62654113769531" lon="-7.860764026641846">
        <ele>807.0</ele>
        <time>2019-05-01T08:21:38.000Z</time>
      </trkpt>
      <trkpt lat="42.62655258178711" lon="-7.861051559448242">
        <ele>811.0</ele>
        <time>2019-05-01T08:21:52.000Z</time>
      </trkpt>
      <trkpt lat="42.626564025878906" lon="-7.861109733581543">
        <ele>812.0</ele>
        <time>2019-05-01T08:21:55.000Z</time>
      </trkpt>
      <trkpt lat="42.62657165527344" lon="-7.861139297485352">
        <ele>812.0</ele>
        <time>2019-05-01T08:21:58.000Z</time>
      </trkpt>
      <trkpt lat="42.626583099365234" lon="-7.861148834228516">
        <ele>812.0</ele>
        <time>2019-05-01T08:22:02.000Z</time>
      </trkpt>
      <trkpt lat="42.626590728759766" lon="-7.861148834228516">
        <ele>812.0</ele>
        <time>2019-05-01T08:22:05.000Z</time>
      </trkpt>
      <trkpt lat="42.6265754699707" lon="-7.861181259155273">
        <ele>812.0</ele>
        <time>2019-05-01T08:22:07.000Z</time>
      </trkpt>
      <trkpt lat="42.62655258178711" lon="-7.861217021942139">
        <ele>813.0</ele>
        <time>2019-05-01T08:22:10.000Z</time>
      </trkpt>
      <trkpt lat="42.62651824951172" lon="-7.861254692077637">
        <ele>814.0</ele>
        <time>2019-05-01T08:22:12.000Z</time>
      </trkpt>
      <trkpt lat="42.62648391723633" lon="-7.861293792724609">
        <ele>815.0</ele>
        <time>2019-05-01T08:22:15.000Z</time>
      </trkpt>
      <trkpt lat="42.62644958496094" lon="-7.861299514770508">
        <ele>816.0</ele>
        <time>2019-05-01T08:22:19.000Z</time>
      </trkpt>
      <trkpt lat="42.62641525268555" lon="-7.861292839050293">
        <ele>817.0</ele>
        <time>2019-05-01T08:22:23.000Z</time>
      </trkpt>
      <trkpt lat="42.62637710571289" lon="-7.8612775802612305">
        <ele>819.0</ele>
        <time>2019-05-01T08:22:28.000Z</time>
      </trkpt>
      <trkpt lat="42.626338958740234" lon="-7.861258029937744">
        <ele>821.0</ele>
        <time>2019-05-01T08:22:32.000Z</time>
      </trkpt>
      <trkpt lat="42.62629699707031" lon="-7.861284255981445">
        <ele>821.0</ele>
        <time>2019-05-01T08:22:38.000Z</time>
      </trkpt>
      <trkpt lat="42.626251220703125" lon="-7.861324787139893">
        <ele>820.0</ele>
        <time>2019-05-01T08:22:44.000Z</time>
      </trkpt>
      <trkpt lat="42.62620544433594" lon="-7.861374855041504">
        <ele>819.0</ele>
        <time>2019-05-01T08:22:51.000Z</time>
      </trkpt>
      <trkpt lat="42.626155853271484" lon="-7.8614301681518555">
        <ele>818.0</ele>
        <time>2019-05-01T08:22:57.000Z</time>
      </trkpt>
      <trkpt lat="42.62608337402344" lon="-7.861473560333252">
        <ele>817.0</ele>
        <time>2019-05-01T08:23:05.000Z</time>
      </trkpt>
      <trkpt lat="42.62600326538086" lon="-7.861517429351807">
        <ele>815.0</ele>
        <time>2019-05-01T08:23:12.000Z</time>
      </trkpt>
      <trkpt lat="42.62591552734375" lon="-7.861561298370361">
        <ele>812.0</ele>
        <time>2019-05-01T08:23:20.000Z</time>
      </trkpt>
      <trkpt lat="42.62582015991211" lon="-7.861605644226074">
        <ele>810.0</ele>
        <time>2019-05-01T08:23:28.000Z</time>
      </trkpt>
      <trkpt lat="42.62577438354492" lon="-7.861637592315674">
        <ele>809.0</ele>
        <time>2019-05-01T08:23:32.000Z</time>
      </trkpt>
      <trkpt lat="42.6257438659668" lon="-7.861664772033691">
        <ele>809.0</ele>
        <time>2019-05-01T08:23:37.000Z</time>
      </trkpt>
      <trkpt lat="42.62572479248047" lon="-7.861688613891602">
        <ele>810.0</ele>
        <time>2019-05-01T08:23:41.000Z</time>
      </trkpt>
      <trkpt lat="42.62571334838867" lon="-7.861711025238037">
        <ele>811.0</ele>
        <time>2019-05-01T08:23:46.000Z</time>
      </trkpt>
      <trkpt lat="42.625694274902344" lon="-7.8617730140686035">
        <ele>811.0</ele>
        <time>2019-05-01T08:23:55.000Z</time>
      </trkpt>
      <trkpt lat="42.62567901611328" lon="-7.861849784851074">
        <ele>810.0</ele>
        <time>2019-05-01T08:24:05.000Z</time>
      </trkpt>
      <trkpt lat="42.62566375732422" lon="-7.861936569213867">
        <ele>809.0</ele>
        <time>2019-05-01T08:24:14.000Z</time>
      </trkpt>
      <trkpt lat="42.62565231323242" lon="-7.862028121948242">
        <ele>808.0</ele>
        <time>2019-05-01T08:24:24.000Z</time>
      </trkpt>
      <trkpt lat="42.62564468383789" lon="-7.862135410308838">
        <ele>807.0</ele>
        <time>2019-05-01T08:24:37.000Z</time>
      </trkpt>
      <trkpt lat="42.625640869140625" lon="-7.862254619598389">
        <ele>807.0</ele>
        <time>2019-05-01T08:24:50.000Z</time>
      </trkpt>
      <trkpt lat="42.62563705444336" lon="-7.8623809814453125">
        <ele>807.0</ele>
        <time>2019-05-01T08:25:04.000Z</time>
      </trkpt>
      <trkpt lat="42.625633239746094" lon="-7.86251163482666">
        <ele>807.0</ele>
        <time>2019-05-01T08:25:17.000Z</time>
      </trkpt>
      <trkpt lat="42.625675201416016" lon="-7.862648010253906">
        <ele>808.0</ele>
        <time>2019-05-01T08:25:33.000Z</time>
      </trkpt>
      <trkpt lat="42.62574005126953" lon="-7.862736225128174">
        <ele>810.0</ele>
        <time>2019-05-01T08:25:49.000Z</time>
      </trkpt>
      <trkpt lat="42.62574768066406" lon="-7.862757205963135">
        <ele>811.0</ele>
        <time>2019-05-01T08:25:56.000Z</time>
      </trkpt>
      <trkpt lat="42.62575149536133" lon="-7.862763404846191">
        <ele>812.0</ele>
        <time>2019-05-01T08:26:02.000Z</time>
      </trkpt>
      <trkpt lat="42.62575149536133" lon="-7.862760066986084">
        <ele>813.0</ele>
        <time>2019-05-01T08:26:09.000Z</time>
      </trkpt>
      <trkpt lat="42.62574768066406" lon="-7.8627519607543945">
        <ele>815.0</ele>
        <time>2019-05-01T08:26:16.000Z</time>
      </trkpt>
      <trkpt lat="42.62574768066406" lon="-7.862755298614502">
        <ele>815.0</ele>
        <time>2019-05-01T08:26:16.000Z</time>
      </trkpt>
      <trkpt lat="42.62575149536133" lon="-7.862758636474609">
        <ele>815.0</ele>
        <time>2019-05-01T08:26:16.000Z</time>
      </trkpt>
      <trkpt lat="42.62575149536133" lon="-7.862761974334717">
        <ele>815.0</ele>
        <time>2019-05-01T08:26:17.000Z</time>
      </trkpt>
      <trkpt lat="42.625755310058594" lon="-7.862765312194824">
        <ele>815.0</ele>
        <time>2019-05-01T08:26:17.000Z</time>
      </trkpt>
      <trkpt lat="42.625789642333984" lon="-7.862829208374023">
        <ele>816.0</ele>
        <time>2019-05-01T08:26:24.000Z</time>
      </trkpt>
      <trkpt lat="42.62583541870117" lon="-7.862918376922607">
        <ele>818.0</ele>
        <time>2019-05-01T08:26:32.000Z</time>
      </trkpt>
      <trkpt lat="42.62588882446289" lon="-7.8630242347717285">
        <ele>820.0</ele>
        <time>2019-05-01T08:26:39.000Z</time>
      </trkpt>
      <trkpt lat="42.62594985961914" lon="-7.863138675689697">
        <ele>822.0</ele>
        <time>2019-05-01T08:26:46.000Z</time>
      </trkpt>
      <trkpt lat="42.6259765625" lon="-7.8632073402404785">
        <ele>824.0</ele>
        <time>2019-05-01T08:26:52.000Z</time>
      </trkpt>
      <trkpt lat="42.62599182128906" lon="-7.863265514373779">
        <ele>826.0</ele>
        <time>2019-05-01T08:26:58.000Z</time>
      </trkpt>
      <trkpt lat="42.625999450683594" lon="-7.863317489624023">
        <ele>828.0</ele>
        <time>2019-05-01T08:27:05.000Z</time>
      </trkpt>
      <trkpt lat="42.626007080078125" lon="-7.863365173339844">
        <ele>829.0</ele>
        <time>2019-05-01T08:27:11.000Z</time>
      </trkpt>
      <trkpt lat="42.62601089477539" lon="-7.863398551940918">
        <ele>830.0</ele>
        <time>2019-05-01T08:27:20.000Z</time>
      </trkpt>
      <trkpt lat="42.62601852416992" lon="-7.86342191696167">
        <ele>830.0</ele>
        <time>2019-05-01T08:27:28.000Z</time>
      </trkpt>
      <trkpt lat="42.62601852416992" lon="-7.863438129425049">
        <ele>830.0</ele>
        <time>2019-05-01T08:27:37.000Z</time>
      </trkpt>
      <trkpt lat="42.62602233886719" lon="-7.8634514808654785">
        <ele>829.0</ele>
        <time>2019-05-01T08:27:46.000Z</time>
      </trkpt>
      <trkpt lat="42.62602996826172" lon="-7.863495826721191">
        <ele>829.0</ele>
        <time>2019-05-01T08:27:47.000Z</time>
      </trkpt>
      <trkpt lat="42.62604904174805" lon="-7.863635063171387">
        <ele>829.0</ele>
        <time>2019-05-01T08:27:51.000Z</time>
      </trkpt>
      <trkpt lat="42.62605285644531" lon="-7.863647937774658">
        <ele>829.0</ele>
        <time>2019-05-01T08:28:09.000Z</time>
      </trkpt>
      <trkpt lat="42.62605667114258" lon="-7.863659381866455">
        <ele>829.0</ele>
        <time>2019-05-01T08:28:10.000Z</time>
      </trkpt>
      <trkpt lat="42.626224517822266" lon="-7.864076614379883">
        <ele>832.0</ele>
        <time>2019-05-01T08:28:29.000Z</time>
      </trkpt>
      <trkpt lat="42.626365661621094" lon="-7.864502429962158">
        <ele>838.0</ele>
        <time>2019-05-01T08:29:10.000Z</time>
      </trkpt>
      <trkpt lat="42.626373291015625" lon="-7.86452054977417">
        <ele>839.0</ele>
        <time>2019-05-01T08:29:13.000Z</time>
      </trkpt>
      <trkpt lat="42.62641143798828" lon="-7.864598751068115">
        <ele>843.0</ele>
        <time>2019-05-01T08:29:35.000Z</time>
      </trkpt>
      <trkpt lat="42.626426696777344" lon="-7.864636421203613">
        <ele>843.0</ele>
        <time>2019-05-01T08:29:36.000Z</time>
      </trkpt>
      <trkpt lat="42.6264533996582" lon="-7.864686489105225">
        <ele>843.0</ele>
        <time>2019-05-01T08:29:39.000Z</time>
      </trkpt>
      <trkpt lat="42.626529693603516" lon="-7.864777565002441">
        <ele>844.0</ele>
        <time>2019-05-01T08:29:58.000Z</time>
      </trkpt>
      <trkpt lat="42.626556396484375" lon="-7.864811897277832">
        <ele>844.0</ele>
        <time>2019-05-01T08:29:59.000Z</time>
      </trkpt>
      <trkpt lat="42.62657165527344" lon="-7.8648295402526855">
        <ele>844.0</ele>
        <time>2019-05-01T08:30:01.000Z</time>
      </trkpt>
      <trkpt lat="42.62660598754883" lon="-7.864890098571777">
        <ele>848.0</ele>
        <time>2019-05-01T08:30:24.000Z</time>
      </trkpt>
      <trkpt lat="42.626625061035156" lon="-7.864928722381592">
        <ele>848.0</ele>
        <time>2019-05-01T08:30:25.000Z</time>
      </trkpt>
      <trkpt lat="42.62668228149414" lon="-7.865021228790283">
        <ele>848.0</ele>
        <time>2019-05-01T08:30:32.000Z</time>
      </trkpt>
      <trkpt lat="42.6267204284668" lon="-7.865173816680908">
        <ele>853.0</ele>
        <time>2019-05-01T08:31:13.000Z</time>
      </trkpt>
      <trkpt lat="42.62674331665039" lon="-7.8652567863464355">
        <ele>853.0</ele>
        <time>2019-05-01T08:31:14.000Z</time>
      </trkpt>
      <trkpt lat="42.62675476074219" lon="-7.865302085876465">
        <ele>853.0</ele>
        <time>2019-05-01T08:31:15.000Z</time>
      </trkpt>
      <trkpt lat="42.62682342529297" lon="-7.865506649017334">
        <ele>855.0</ele>
        <time>2019-05-01T08:31:24.000Z</time>
      </trkpt>
      <trkpt lat="42.6268424987793" lon="-7.865556716918945">
        <ele>855.0</ele>
        <time>2019-05-01T08:31:25.000Z</time>
      </trkpt>
      <trkpt lat="42.62688064575195" lon="-7.865716934204102">
        <ele>856.0</ele>
        <time>2019-05-01T08:31:35.000Z</time>
      </trkpt>
      <trkpt lat="42.62690734863281" lon="-7.865772247314453">
        <ele>859.0</ele>
        <time>2019-05-01T08:31:54.000Z</time>
      </trkpt>
      <trkpt lat="42.626922607421875" lon="-7.865807056427002">
        <ele>859.0</ele>
        <time>2019-05-01T08:31:55.000Z</time>
      </trkpt>
      <trkpt lat="42.62703323364258" lon="-7.866028308868408">
        <ele>860.0</ele>
        <time>2019-05-01T08:32:07.000Z</time>
      </trkpt>
      <trkpt lat="42.6270751953125" lon="-7.866073131561279">
        <ele>862.0</ele>
        <time>2019-05-01T08:32:24.000Z</time>
      </trkpt>
      <trkpt lat="42.62710189819336" lon="-7.8660993576049805">
        <ele>862.0</ele>
        <time>2019-05-01T08:32:25.000Z</time>
      </trkpt>
      <trkpt lat="42.6273307800293" lon="-7.866473197937012">
        <ele>864.0</ele>
        <time>2019-05-01T08:32:50.000Z</time>
      </trkpt>
      <trkpt lat="42.62750244140625" lon="-7.866900444030762">
        <ele>869.0</ele>
        <time>2019-05-01T08:33:30.000Z</time>
      </trkpt>
      <trkpt lat="42.62752151489258" lon="-7.866945266723633">
        <ele>869.0</ele>
        <time>2019-05-01T08:33:35.000Z</time>
      </trkpt>
      <trkpt lat="42.62752914428711" lon="-7.866978168487549">
        <ele>872.0</ele>
        <time>2019-05-01T08:33:53.000Z</time>
      </trkpt>
      <trkpt lat="42.62753677368164" lon="-7.867003917694092">
        <ele>872.0</ele>
        <time>2019-05-01T08:33:54.000Z</time>
      </trkpt>
      <trkpt lat="42.6276741027832" lon="-7.867432594299316">
        <ele>875.0</ele>
        <time>2019-05-01T08:34:19.000Z</time>
      </trkpt>
      <trkpt lat="42.6276969909668" lon="-7.867584705352783">
        <ele>877.0</ele>
        <time>2019-05-01T08:34:31.000Z</time>
      </trkpt>
      <trkpt lat="42.62770080566406" lon="-7.867632865905762">
        <ele>880.0</ele>
        <time>2019-05-01T08:34:52.000Z</time>
      </trkpt>
      <trkpt lat="42.62770080566406" lon="-7.867666721343994">
        <ele>880.0</ele>
        <time>2019-05-01T08:34:53.000Z</time>
      </trkpt>
      <trkpt lat="42.627708435058594" lon="-7.8680830001831055">
        <ele>882.0</ele>
        <time>2019-05-01T08:35:20.000Z</time>
      </trkpt>
      <trkpt lat="42.62770080566406" lon="-7.86813497543335">
        <ele>883.0</ele>
        <time>2019-05-01T08:35:35.000Z</time>
      </trkpt>
      <trkpt lat="42.627689361572266" lon="-7.868114471435547">
        <ele>885.0</ele>
        <time>2019-05-01T08:35:50.000Z</time>
      </trkpt>
      <trkpt lat="42.627685546875" lon="-7.868121147155762">
        <ele>885.0</ele>
        <time>2019-05-01T08:35:50.000Z</time>
      </trkpt>
      <trkpt lat="42.627681732177734" lon="-7.86812686920166">
        <ele>885.0</ele>
        <time>2019-05-01T08:35:50.000Z</time>
      </trkpt>
      <trkpt lat="42.62767791748047" lon="-7.868132591247559">
        <ele>885.0</ele>
        <time>2019-05-01T08:35:51.000Z</time>
      </trkpt>
      <trkpt lat="42.6276741027832" lon="-7.868137836456299">
        <ele>885.0</ele>
        <time>2019-05-01T08:35:51.000Z</time>
      </trkpt>
      <trkpt lat="42.62766647338867" lon="-7.86821174621582">
        <ele>885.0</ele>
        <time>2019-05-01T08:35:55.000Z</time>
      </trkpt>
      <trkpt lat="42.62765884399414" lon="-7.868314266204834">
        <ele>885.0</ele>
        <time>2019-05-01T08:35:58.000Z</time>
      </trkpt>
      <trkpt lat="42.627647399902344" lon="-7.868435382843018">
        <ele>885.0</ele>
        <time>2019-05-01T08:36:02.000Z</time>
      </trkpt>
      <trkpt lat="42.62763595581055" lon="-7.868566513061523">
        <ele>886.0</ele>
        <time>2019-05-01T08:36:06.000Z</time>
      </trkpt>
      <trkpt lat="42.62763214111328" lon="-7.868612766265869">
        <ele>886.0</ele>
        <time>2019-05-01T08:36:07.000Z</time>
      </trkpt>
      <trkpt lat="42.62763214111328" lon="-7.86863374710083">
        <ele>886.0</ele>
        <time>2019-05-01T08:36:09.000Z</time>
      </trkpt>
      <trkpt lat="42.62763595581055" lon="-7.868638038635254">
        <ele>886.0</ele>
        <time>2019-05-01T08:36:10.000Z</time>
      </trkpt>
      <trkpt lat="42.62763595581055" lon="-7.86863374710083">
        <ele>886.0</ele>
        <time>2019-05-01T08:36:11.000Z</time>
      </trkpt>
      <trkpt lat="42.62763214111328" lon="-7.868671894073486">
        <ele>886.0</ele>
        <time>2019-05-01T08:36:16.000Z</time>
      </trkpt>
      <trkpt lat="42.627628326416016" lon="-7.868719100952148">
        <ele>886.0</ele>
        <time>2019-05-01T08:36:21.000Z</time>
      </trkpt>
      <trkpt lat="42.62761688232422" lon="-7.868772029876709">
        <ele>887.0</ele>
        <time>2019-05-01T08:36:26.000Z</time>
      </trkpt>
      <trkpt lat="42.62760925292969" lon="-7.868827819824219">
        <ele>887.0</ele>
        <time>2019-05-01T08:36:31.000Z</time>
      </trkpt>
      <trkpt lat="42.62760925292969" lon="-7.86884880065918">
        <ele>888.0</ele>
        <time>2019-05-01T08:36:31.000Z</time>
      </trkpt>
      <trkpt lat="42.62760543823242" lon="-7.868858337402344">
        <ele>888.0</ele>
        <time>2019-05-01T08:36:32.000Z</time>
      </trkpt>
      <trkpt lat="42.62760543823242" lon="-7.868860721588135">
        <ele>887.0</ele>
        <time>2019-05-01T08:36:32.000Z</time>
      </trkpt>
      <trkpt lat="42.62760543823242" lon="-7.868858814239502">
        <ele>887.0</ele>
        <time>2019-05-01T08:36:32.000Z</time>
      </trkpt>
      <trkpt lat="42.627593994140625" lon="-7.868946075439453">
        <ele>891.0</ele>
        <time>2019-05-01T08:36:40.000Z</time>
      </trkpt>
      <trkpt lat="42.627586364746094" lon="-7.868992328643799">
        <ele>897.0</ele>
        <time>2019-05-01T08:37:10.000Z</time>
      </trkpt>
      <trkpt lat="42.62757873535156" lon="-7.869024276733398">
        <ele>897.0</ele>
        <time>2019-05-01T08:37:11.000Z</time>
      </trkpt>
      <trkpt lat="42.62754440307617" lon="-7.8694987297058105">
        <ele>901.0</ele>
        <time>2019-05-01T08:37:38.000Z</time>
      </trkpt>
      <trkpt lat="42.627532958984375" lon="-7.869678974151611">
        <ele>903.0</ele>
        <time>2019-05-01T08:37:59.000Z</time>
      </trkpt>
      <trkpt lat="42.6275520324707" lon="-7.869791507720947">
        <ele>904.0</ele>
        <time>2019-05-01T08:38:17.000Z</time>
      </trkpt>
      <trkpt lat="42.6275634765625" lon="-7.869836807250977">
        <ele>904.0</ele>
        <time>2019-05-01T08:38:18.000Z</time>
      </trkpt>
      <trkpt lat="42.6275634765625" lon="-7.8703131675720215">
        <ele>907.0</ele>
        <time>2019-05-01T08:38:53.000Z</time>
      </trkpt>
      <trkpt lat="42.627525329589844" lon="-7.870786666870117">
        <ele>910.0</ele>
        <time>2019-05-01T08:39:36.000Z</time>
      </trkpt>
      <trkpt lat="42.627525329589844" lon="-7.871261119842529">
        <ele>915.0</ele>
        <time>2019-05-01T08:40:18.000Z</time>
      </trkpt>
      <trkpt lat="42.62751388549805" lon="-7.871740818023682">
        <ele>921.0</ele>
        <time>2019-05-01T08:41:08.000Z</time>
      </trkpt>
      <trkpt lat="42.62750244140625" lon="-7.871821403503418">
        <ele>923.0</ele>
        <time>2019-05-01T08:41:17.000Z</time>
      </trkpt>
      <trkpt lat="42.62750244140625" lon="-7.871857166290283">
        <ele>929.0</ele>
        <time>2019-05-01T08:41:46.000Z</time>
      </trkpt>
      <trkpt lat="42.62750244140625" lon="-7.871884822845459">
        <ele>929.0</ele>
        <time>2019-05-01T08:41:47.000Z</time>
      </trkpt>
      <trkpt lat="42.627479553222656" lon="-7.8723626136779785">
        <ele>934.0</ele>
        <time>2019-05-01T08:42:10.000Z</time>
      </trkpt>
      <trkpt lat="42.627471923828125" lon="-7.872793197631836">
        <ele>937.0</ele>
        <time>2019-05-01T08:42:41.000Z</time>
      </trkpt>
      <trkpt lat="42.62751388549805" lon="-7.873288154602051">
        <ele>936.0</ele>
        <time>2019-05-01T08:43:17.000Z</time>
      </trkpt>
      <trkpt lat="42.627471923828125" lon="-7.873568534851074">
        <ele>934.0</ele>
        <time>2019-05-01T08:43:46.000Z</time>
      </trkpt>
      <trkpt lat="42.627471923828125" lon="-7.873594284057617">
        <ele>932.0</ele>
        <time>2019-05-01T08:44:05.000Z</time>
      </trkpt>
      <trkpt lat="42.62747573852539" lon="-7.873615741729736">
        <ele>932.0</ele>
        <time>2019-05-01T08:44:06.000Z</time>
      </trkpt>
      <trkpt lat="42.62746810913086" lon="-7.874102592468262">
        <ele>928.0</ele>
        <time>2019-05-01T08:44:22.000Z</time>
      </trkpt>
      <trkpt lat="42.6274528503418" lon="-7.874590873718262">
        <ele>924.0</ele>
        <time>2019-05-01T08:44:53.000Z</time>
      </trkpt>
      <trkpt lat="42.62746047973633" lon="-7.875077247619629">
        <ele>925.0</ele>
        <time>2019-05-01T08:45:20.000Z</time>
      </trkpt>
      <trkpt lat="42.62740707397461" lon="-7.87532377243042">
        <ele>924.0</ele>
        <time>2019-05-01T08:45:37.000Z</time>
      </trkpt>
      <trkpt lat="42.627418518066406" lon="-7.875380992889404">
        <ele>924.0</ele>
        <time>2019-05-01T08:45:39.000Z</time>
      </trkpt>
      <trkpt lat="42.627445220947266" lon="-7.875436305999756">
        <ele>924.0</ele>
        <time>2019-05-01T08:45:42.000Z</time>
      </trkpt>
      <trkpt lat="42.627471923828125" lon="-7.875490188598633">
        <ele>923.0</ele>
        <time>2019-05-01T08:45:45.000Z</time>
      </trkpt>
      <trkpt lat="42.627506256103516" lon="-7.875543594360352">
        <ele>922.0</ele>
        <time>2019-05-01T08:45:48.000Z</time>
      </trkpt>
      <trkpt lat="42.627532958984375" lon="-7.875594615936279">
        <ele>922.0</ele>
        <time>2019-05-01T08:45:52.000Z</time>
      </trkpt>
      <trkpt lat="42.62755584716797" lon="-7.875644207000732">
        <ele>922.0</ele>
        <time>2019-05-01T08:45:56.000Z</time>
      </trkpt>
      <trkpt lat="42.62757873535156" lon="-7.875691890716553">
        <ele>922.0</ele>
        <time>2019-05-01T08:46:00.000Z</time>
      </trkpt>
      <trkpt lat="42.627601623535156" lon="-7.875739574432373">
        <ele>922.0</ele>
        <time>2019-05-01T08:46:04.000Z</time>
      </trkpt>
      <trkpt lat="42.62761688232422" lon="-7.875855922698975">
        <ele>921.0</ele>
        <time>2019-05-01T08:46:12.000Z</time>
      </trkpt>
      <trkpt lat="42.62760925292969" lon="-7.875980854034424">
        <ele>920.0</ele>
        <time>2019-05-01T08:46:20.000Z</time>
      </trkpt>
      <trkpt lat="42.62761306762695" lon="-7.876008987426758">
        <ele>920.0</ele>
        <time>2019-05-01T08:46:22.000Z</time>
      </trkpt>
      <trkpt lat="42.627620697021484" lon="-7.876023292541504">
        <ele>920.0</ele>
        <time>2019-05-01T08:46:24.000Z</time>
      </trkpt>
      <trkpt lat="42.62762451171875" lon="-7.876029014587402">
        <ele>920.0</ele>
        <time>2019-05-01T08:46:26.000Z</time>
      </trkpt>
      <trkpt lat="42.627628326416016" lon="-7.876029968261719">
        <ele>920.0</ele>
        <time>2019-05-01T08:46:28.000Z</time>
      </trkpt>
      <trkpt lat="42.62763214111328" lon="-7.876036167144775">
        <ele>921.0</ele>
        <time>2019-05-01T08:46:33.000Z</time>
      </trkpt>
      <trkpt lat="42.62763214111328" lon="-7.876040458679199">
        <ele>921.0</ele>
        <time>2019-05-01T08:46:38.000Z</time>
      </trkpt>
      <trkpt lat="42.62763214111328" lon="-7.87604284286499">
        <ele>921.0</ele>
        <time>2019-05-01T08:46:43.000Z</time>
      </trkpt>
      <trkpt lat="42.62763214111328" lon="-7.876044273376465">
        <ele>922.0</ele>
        <time>2019-05-01T08:46:48.000Z</time>
      </trkpt>
      <trkpt lat="42.62763214111328" lon="-7.876047611236572">
        <ele>922.0</ele>
        <time>2019-05-01T08:46:48.000Z</time>
      </trkpt>
      <trkpt lat="42.62763214111328" lon="-7.87605094909668">
        <ele>922.0</ele>
        <time>2019-05-01T08:46:48.000Z</time>
      </trkpt>
      <trkpt lat="42.62763214111328" lon="-7.876053810119629">
        <ele>922.0</ele>
        <time>2019-05-01T08:46:49.000Z</time>
      </trkpt>
      <trkpt lat="42.62763595581055" lon="-7.876057147979736">
        <ele>922.0</ele>
        <time>2019-05-01T08:46:49.000Z</time>
      </trkpt>
      <trkpt lat="42.62763977050781" lon="-7.876075267791748">
        <ele>922.0</ele>
        <time>2019-05-01T08:46:49.000Z</time>
      </trkpt>
      <trkpt lat="42.62764358520508" lon="-7.876100063323975">
        <ele>922.0</ele>
        <time>2019-05-01T08:46:50.000Z</time>
      </trkpt>
      <trkpt lat="42.62765121459961" lon="-7.876128673553467">
        <ele>922.0</ele>
        <time>2019-05-01T08:46:50.000Z</time>
      </trkpt>
      <trkpt lat="42.62765884399414" lon="-7.87615966796875">
        <ele>922.0</ele>
        <time>2019-05-01T08:46:51.000Z</time>
      </trkpt>
      <trkpt lat="42.62766647338867" lon="-7.876201629638672">
        <ele>922.0</ele>
        <time>2019-05-01T08:46:52.000Z</time>
      </trkpt>
      <trkpt lat="42.62767791748047" lon="-7.876250267028809">
        <ele>922.0</ele>
        <time>2019-05-01T08:46:52.000Z</time>
      </trkpt>
      <trkpt lat="42.627685546875" lon="-7.8763041496276855">
        <ele>922.0</ele>
        <time>2019-05-01T08:46:53.000Z</time>
      </trkpt>
      <trkpt lat="42.6276969909668" lon="-7.876359939575195">
        <ele>923.0</ele>
        <time>2019-05-01T08:46:54.000Z</time>
      </trkpt>
      <trkpt lat="42.62778091430664" lon="-7.876586437225342">
        <ele>925.0</ele>
        <time>2019-05-01T08:47:11.000Z</time>
      </trkpt>
      <trkpt lat="42.6278190612793" lon="-7.87673282623291">
        <ele>923.0</ele>
        <time>2019-05-01T08:47:29.000Z</time>
      </trkpt>
      <trkpt lat="42.62784957885742" lon="-7.876826286315918">
        <ele>928.0</ele>
        <time>2019-05-01T08:48:21.000Z</time>
      </trkpt>
      <trkpt lat="42.62786102294922" lon="-7.876869201660156">
        <ele>928.0</ele>
        <time>2019-05-01T08:48:22.000Z</time>
      </trkpt>
      <trkpt lat="42.628021240234375" lon="-7.877305507659912">
        <ele>917.0</ele>
        <time>2019-05-01T08:48:44.000Z</time>
      </trkpt>
      <trkpt lat="42.62812423706055" lon="-7.877774238586426">
        <ele>919.0</ele>
        <time>2019-05-01T08:49:15.000Z</time>
      </trkpt>
      <trkpt lat="42.628211975097656" lon="-7.878244400024414">
        <ele>921.0</ele>
        <time>2019-05-01T08:49:42.000Z</time>
      </trkpt>
      <trkpt lat="42.62828063964844" lon="-7.878708839416504">
        <ele>924.0</ele>
        <time>2019-05-01T08:50:13.000Z</time>
      </trkpt>
      <trkpt lat="42.62823486328125" lon="-7.87893009185791">
        <ele>925.0</ele>
        <time>2019-05-01T08:50:30.000Z</time>
      </trkpt>
      <trkpt lat="42.628150939941406" lon="-7.879146575927734">
        <ele>926.0</ele>
        <time>2019-05-01T08:50:46.000Z</time>
      </trkpt>
      <trkpt lat="42.628116607666016" lon="-7.879257678985596">
        <ele>928.0</ele>
        <time>2019-05-01T08:50:55.000Z</time>
      </trkpt>
      <trkpt lat="42.628082275390625" lon="-7.879369735717773">
        <ele>930.0</ele>
        <time>2019-05-01T08:51:03.000Z</time>
      </trkpt>
      <trkpt lat="42.628047943115234" lon="-7.879481792449951">
        <ele>932.0</ele>
        <time>2019-05-01T08:51:12.000Z</time>
      </trkpt>
      <trkpt lat="42.62801742553711" lon="-7.879594326019287">
        <ele>934.0</ele>
        <time>2019-05-01T08:51:20.000Z</time>
      </trkpt>
      <trkpt lat="42.62797546386719" lon="-7.879700183868408">
        <ele>936.0</ele>
        <time>2019-05-01T08:51:29.000Z</time>
      </trkpt>
      <trkpt lat="42.6279296875" lon="-7.879802703857422">
        <ele>937.0</ele>
        <time>2019-05-01T08:51:38.000Z</time>
      </trkpt>
      <trkpt lat="42.62788009643555" lon="-7.879903793334961">
        <ele>939.0</ele>
        <time>2019-05-01T08:51:47.000Z</time>
      </trkpt>
      <trkpt lat="42.627830505371094" lon="-7.880003929138184">
        <ele>941.0</ele>
        <time>2019-05-01T08:51:56.000Z</time>
      </trkpt>
      <trkpt lat="42.6278076171875" lon="-7.880084037780762">
        <ele>942.0</ele>
        <time>2019-05-01T08:52:01.000Z</time>
      </trkpt>
      <trkpt lat="42.62778854370117" lon="-7.880154132843018">
        <ele>942.0</ele>
        <time>2019-05-01T08:52:07.000Z</time>
      </trkpt>
      <trkpt lat="42.62778091430664" lon="-7.880218029022217">
        <ele>943.0</ele>
        <time>2019-05-01T08:52:12.000Z</time>
      </trkpt>
      <trkpt lat="42.627769470214844" lon="-7.880278587341309">
        <ele>944.0</ele>
        <time>2019-05-01T08:52:18.000Z</time>
      </trkpt>
      <trkpt lat="42.62778854370117" lon="-7.880390167236328">
        <ele>946.0</ele>
        <time>2019-05-01T08:52:26.000Z</time>
      </trkpt>
      <trkpt lat="42.62782669067383" lon="-7.880489349365234">
        <ele>948.0</ele>
        <time>2019-05-01T08:52:35.000Z</time>
      </trkpt>
      <trkpt lat="42.62794876098633" lon="-7.880626201629639">
        <ele>949.0</ele>
        <time>2019-05-01T08:52:56.000Z</time>
      </trkpt>
      <trkpt lat="42.628116607666016" lon="-7.880777359008789">
        <ele>950.0</ele>
        <time>2019-05-01T08:53:17.000Z</time>
      </trkpt>
      <trkpt lat="42.62819290161133" lon="-7.880835056304932">
        <ele>951.0</ele>
        <time>2019-05-01T08:53:26.000Z</time>
      </trkpt>
      <trkpt lat="42.628273010253906" lon="-7.880887031555176">
        <ele>951.0</ele>
        <time>2019-05-01T08:53:35.000Z</time>
      </trkpt>
      <trkpt lat="42.62835693359375" lon="-7.880935192108154">
        <ele>952.0</ele>
        <time>2019-05-01T08:53:45.000Z</time>
      </trkpt>
      <trkpt lat="42.628440856933594" lon="-7.880980968475342">
        <ele>953.0</ele>
        <time>2019-05-01T08:53:54.000Z</time>
      </trkpt>
      <trkpt lat="42.628517150878906" lon="-7.881041049957275">
        <ele>954.0</ele>
        <time>2019-05-01T08:54:03.000Z</time>
      </trkpt>
      <trkpt lat="42.62858963012695" lon="-7.881105422973633">
        <ele>955.0</ele>
        <time>2019-05-01T08:54:12.000Z</time>
      </trkpt>
      <trkpt lat="42.628662109375" lon="-7.881171703338623">
        <ele>955.0</ele>
        <time>2019-05-01T08:54:22.000Z</time>
      </trkpt>
      <trkpt lat="42.62873077392578" lon="-7.881239414215088">
        <ele>956.0</ele>
        <time>2019-05-01T08:54:31.000Z</time>
      </trkpt>
      <trkpt lat="42.62879943847656" lon="-7.881312370300293">
        <ele>957.0</ele>
        <time>2019-05-01T08:54:40.000Z</time>
      </trkpt>
      <trkpt lat="42.628868103027344" lon="-7.881389141082764">
        <ele>958.0</ele>
        <time>2019-05-01T08:54:50.000Z</time>
      </trkpt>
      <trkpt lat="42.628936767578125" lon="-7.881467819213867">
        <ele>959.0</ele>
        <time>2019-05-01T08:54:59.000Z</time>
      </trkpt>
      <trkpt lat="42.629005432128906" lon="-7.881547927856445">
        <ele>960.0</ele>
        <time>2019-05-01T08:55:09.000Z</time>
      </trkpt>
      <trkpt lat="42.629066467285156" lon="-7.881634712219238">
        <ele>961.0</ele>
        <time>2019-05-01T08:55:18.000Z</time>
      </trkpt>
      <trkpt lat="42.629127502441406" lon="-7.881724834442139">
        <ele>962.0</ele>
        <time>2019-05-01T08:55:27.000Z</time>
      </trkpt>
      <trkpt lat="42.62918472290039" lon="-7.8818182945251465">
        <ele>963.0</ele>
        <time>2019-05-01T08:55:36.000Z</time>
      </trkpt>
      <trkpt lat="42.62923812866211" lon="-7.881912708282471">
        <ele>964.0</ele>
        <time>2019-05-01T08:55:45.000Z</time>
      </trkpt>
      <trkpt lat="42.629295349121094" lon="-7.882004737854004">
        <ele>965.0</ele>
        <time>2019-05-01T08:55:54.000Z</time>
      </trkpt>
      <trkpt lat="42.629356384277344" lon="-7.882097244262695">
        <ele>965.0</ele>
        <time>2019-05-01T08:56:03.000Z</time>
      </trkpt>
      <trkpt lat="42.62941360473633" lon="-7.882190227508545">
        <ele>965.0</ele>
        <time>2019-05-01T08:56:13.000Z</time>
      </trkpt>
      <trkpt lat="42.62947463989258" lon="-7.8822832107543945">
        <ele>965.0</ele>
        <time>2019-05-01T08:56:22.000Z</time>
      </trkpt>
      <trkpt lat="42.62953567504883" lon="-7.882506847381592">
        <ele>966.0</ele>
        <time>2019-05-01T08:56:42.000Z</time>
      </trkpt>
      <trkpt lat="42.62957763671875" lon="-7.882748603820801">
        <ele>968.0</ele>
        <time>2019-05-01T08:57:03.000Z</time>
      </trkpt>
      <trkpt lat="42.629600524902344" lon="-7.882864952087402">
        <ele>969.0</ele>
        <time>2019-05-01T08:57:11.000Z</time>
      </trkpt>
      <trkpt lat="42.62962341308594" lon="-7.882981300354004">
        <ele>970.0</ele>
        <time>2019-05-01T08:57:19.000Z</time>
      </trkpt>
      <trkpt lat="42.62964630126953" lon="-7.8830976486206055">
        <ele>971.0</ele>
        <time>2019-05-01T08:57:28.000Z</time>
      </trkpt>
      <trkpt lat="42.62966537475586" lon="-7.883214473724365">
        <ele>972.0</ele>
        <time>2019-05-01T08:57:36.000Z</time>
      </trkpt>
      <trkpt lat="42.629737854003906" lon="-7.883333206176758">
        <ele>974.0</ele>
        <time>2019-05-01T08:57:49.000Z</time>
      </trkpt>
      <trkpt lat="42.629825592041016" lon="-7.883399486541748">
        <ele>975.0</ele>
        <time>2019-05-01T08:58:02.000Z</time>
      </trkpt>
      <trkpt lat="42.62986373901367" lon="-7.883417129516602">
        <ele>976.0</ele>
        <time>2019-05-01T08:58:07.000Z</time>
      </trkpt>
      <trkpt lat="42.629905700683594" lon="-7.883422374725342">
        <ele>976.0</ele>
        <time>2019-05-01T08:58:11.000Z</time>
      </trkpt>
      <trkpt lat="42.62995147705078" lon="-7.883419990539551">
        <ele>977.0</ele>
        <time>2019-05-01T08:58:16.000Z</time>
      </trkpt>
      <trkpt lat="42.6299934387207" lon="-7.883413314819336">
        <ele>978.0</ele>
        <time>2019-05-01T08:58:21.000Z</time>
      </trkpt>
      <trkpt lat="42.63006591796875" lon="-7.883412837982178">
        <ele>979.0</ele>
        <time>2019-05-01T08:58:29.000Z</time>
      </trkpt>
      <trkpt lat="42.63015365600586" lon="-7.883410453796387">
        <ele>980.0</ele>
        <time>2019-05-01T08:58:37.000Z</time>
      </trkpt>
      <trkpt lat="42.630245208740234" lon="-7.883407115936279">
        <ele>982.0</ele>
        <time>2019-05-01T08:58:46.000Z</time>
      </trkpt>
      <trkpt lat="42.63034439086914" lon="-7.883403301239014">
        <ele>983.0</ele>
        <time>2019-05-01T08:58:54.000Z</time>
      </trkpt>
      <trkpt lat="42.63043212890625" lon="-7.883424282073975">
        <ele>983.0</ele>
        <time>2019-05-01T08:59:03.000Z</time>
      </trkpt>
      <trkpt lat="42.63051986694336" lon="-7.8834547996521">
        <ele>984.0</ele>
        <time>2019-05-01T08:59:12.000Z</time>
      </trkpt>
      <trkpt lat="42.6306037902832" lon="-7.8834919929504395">
        <ele>984.0</ele>
        <time>2019-05-01T08:59:21.000Z</time>
      </trkpt>
      <trkpt lat="42.63069152832031" lon="-7.883532524108887">
        <ele>984.0</ele>
        <time>2019-05-01T08:59:30.000Z</time>
      </trkpt>
      <trkpt lat="42.630741119384766" lon="-7.8835577964782715">
        <ele>984.0</ele>
        <time>2019-05-01T08:59:34.000Z</time>
      </trkpt>
      <trkpt lat="42.630775451660156" lon="-7.883580207824707">
        <ele>984.0</ele>
        <time>2019-05-01T08:59:38.000Z</time>
      </trkpt>
      <trkpt lat="42.63079833984375" lon="-7.88360071182251">
        <ele>984.0</ele>
        <time>2019-05-01T08:59:42.000Z</time>
      </trkpt>
      <trkpt lat="42.63081359863281" lon="-7.883620262145996">
        <ele>984.0</ele>
        <time>2019-05-01T08:59:46.000Z</time>
      </trkpt>
      <trkpt lat="42.630828857421875" lon="-7.883635997772217">
        <ele>984.0</ele>
        <time>2019-05-01T08:59:50.000Z</time>
      </trkpt>
      <trkpt lat="42.63084030151367" lon="-7.88364839553833">
        <ele>983.0</ele>
        <time>2019-05-01T08:59:55.000Z</time>
      </trkpt>
      <trkpt lat="42.63084411621094" lon="-7.883659362792969">
        <ele>982.0</ele>
        <time>2019-05-01T08:59:59.000Z</time>
      </trkpt>
      <trkpt lat="42.63084411621094" lon="-7.883669376373291">
        <ele>982.0</ele>
        <time>2019-05-01T09:00:04.000Z</time>
      </trkpt>
      <trkpt lat="42.6308479309082" lon="-7.883678913116455">
        <ele>982.0</ele>
        <time>2019-05-01T09:00:04.000Z</time>
      </trkpt>
      <trkpt lat="42.630855560302734" lon="-7.8836870193481445">
        <ele>982.0</ele>
        <time>2019-05-01T09:00:04.000Z</time>
      </trkpt>
      <trkpt lat="42.630859375" lon="-7.883694171905518">
        <ele>982.0</ele>
        <time>2019-05-01T09:00:04.000Z</time>
      </trkpt>
      <trkpt lat="42.630863189697266" lon="-7.883701324462891">
        <ele>982.0</ele>
        <time>2019-05-01T09:00:05.000Z</time>
      </trkpt>
      <trkpt lat="42.63092041015625" lon="-7.883784770965576">
        <ele>981.0</ele>
        <time>2019-05-01T09:00:09.000Z</time>
      </trkpt>
      <trkpt lat="42.630943298339844" lon="-7.8837971687316895">
        <ele>982.0</ele>
        <time>2019-05-01T09:00:15.000Z</time>
      </trkpt>
      <trkpt lat="42.63096618652344" lon="-7.883795738220215">
        <ele>983.0</ele>
        <time>2019-05-01T09:00:22.000Z</time>
      </trkpt>
      <trkpt lat="42.63097381591797" lon="-7.883797645568848">
        <ele>983.0</ele>
        <time>2019-05-01T09:00:22.000Z</time>
      </trkpt>
      <trkpt lat="42.6309814453125" lon="-7.8837995529174805">
        <ele>983.0</ele>
        <time>2019-05-01T09:00:22.000Z</time>
      </trkpt>
      <trkpt lat="42.63098907470703" lon="-7.883800983428955">
        <ele>983.0</ele>
        <time>2019-05-01T09:00:22.000Z</time>
      </trkpt>
      <trkpt lat="42.63099670410156" lon="-7.883802890777588">
        <ele>983.0</ele>
        <time>2019-05-01T09:00:23.000Z</time>
      </trkpt>
      <trkpt lat="42.63105392456055" lon="-7.883831024169922">
        <ele>983.0</ele>
        <time>2019-05-01T09:00:28.000Z</time>
      </trkpt>
      <trkpt lat="42.631134033203125" lon="-7.8838701248168945">
        <ele>983.0</ele>
        <time>2019-05-01T09:00:33.000Z</time>
      </trkpt>
      <trkpt lat="42.631229400634766" lon="-7.883916854858398">
        <ele>984.0</ele>
        <time>2019-05-01T09:00:39.000Z</time>
      </trkpt>
      <trkpt lat="42.63132858276367" lon="-7.883967399597168">
        <ele>985.0</ele>
        <time>2019-05-01T09:00:44.000Z</time>
      </trkpt>
      <trkpt lat="42.631412506103516" lon="-7.884002208709717">
        <ele>986.0</ele>
        <time>2019-05-01T09:00:52.000Z</time>
      </trkpt>
      <trkpt lat="42.631500244140625" lon="-7.884035110473633">
        <ele>988.0</ele>
        <time>2019-05-01T09:01:00.000Z</time>
      </trkpt>
      <trkpt lat="42.63158416748047" lon="-7.884065628051758">
        <ele>989.0</ele>
        <time>2019-05-01T09:01:08.000Z</time>
      </trkpt>
      <trkpt lat="42.63166809082031" lon="-7.884096145629883">
        <ele>991.0</ele>
        <time>2019-05-01T09:01:16.000Z</time>
      </trkpt>
      <trkpt lat="42.63175582885742" lon="-7.884128093719482">
        <ele>993.0</ele>
        <time>2019-05-01T09:01:25.000Z</time>
      </trkpt>
      <trkpt lat="42.63184356689453" lon="-7.884160041809082">
        <ele>994.0</ele>
        <time>2019-05-01T09:01:34.000Z</time>
      </trkpt>
      <trkpt lat="42.63193130493164" lon="-7.884191989898682">
        <ele>996.0</ele>
        <time>2019-05-01T09:01:44.000Z</time>
      </trkpt>
      <trkpt lat="42.63201904296875" lon="-7.884223937988281">
        <ele>997.0</ele>
        <time>2019-05-01T09:01:53.000Z</time>
      </trkpt>
      <trkpt lat="42.63216018676758" lon="-7.8843607902526855">
        <ele>998.0</ele>
        <time>2019-05-01T09:02:10.000Z</time>
      </trkpt>
      <trkpt lat="42.63228988647461" lon="-7.884531021118164">
        <ele>998.0</ele>
        <time>2019-05-01T09:02:27.000Z</time>
      </trkpt>
      <trkpt lat="42.63237762451172" lon="-7.884732246398926">
        <ele>1000.0</ele>
        <time>2019-05-01T09:02:43.000Z</time>
      </trkpt>
      <trkpt lat="42.632442474365234" lon="-7.884955883026123">
        <ele>1001.0</ele>
        <time>2019-05-01T09:03:00.000Z</time>
      </trkpt>
      <trkpt lat="42.63247299194336" lon="-7.88506555557251">
        <ele>1002.0</ele>
        <time>2019-05-01T09:03:09.000Z</time>
      </trkpt>
      <trkpt lat="42.63249969482422" lon="-7.885176658630371">
        <ele>1003.0</ele>
        <time>2019-05-01T09:03:19.000Z</time>
      </trkpt>
      <trkpt lat="42.63252639770508" lon="-7.885289192199707">
        <ele>1005.0</ele>
        <time>2019-05-01T09:03:28.000Z</time>
      </trkpt>
      <trkpt lat="42.63255310058594" lon="-7.885401725769043">
        <ele>1007.0</ele>
        <time>2019-05-01T09:03:38.000Z</time>
      </trkpt>
      <trkpt lat="42.632564544677734" lon="-7.885519981384277">
        <ele>1007.0</ele>
        <time>2019-05-01T09:03:46.000Z</time>
      </trkpt>
      <trkpt lat="42.632564544677734" lon="-7.885641098022461">
        <ele>1008.0</ele>
        <time>2019-05-01T09:03:54.000Z</time>
      </trkpt>
      <trkpt lat="42.63256072998047" lon="-7.885763645172119">
        <ele>1008.0</ele>
        <time>2019-05-01T09:04:03.000Z</time>
      </trkpt>
      <trkpt lat="42.6325569152832" lon="-7.885887145996094">
        <ele>1008.0</ele>
        <time>2019-05-01T09:04:11.000Z</time>
      </trkpt>
      <trkpt lat="42.63254165649414" lon="-7.88600492477417">
        <ele>1008.0</ele>
        <time>2019-05-01T09:04:20.000Z</time>
      </trkpt>
      <trkpt lat="42.63251876831055" lon="-7.886120319366455">
        <ele>1008.0</ele>
        <time>2019-05-01T09:04:29.000Z</time>
      </trkpt>
      <trkpt lat="42.63249206542969" lon="-7.886235237121582">
        <ele>1008.0</ele>
        <time>2019-05-01T09:04:39.000Z</time>
      </trkpt>
      <trkpt lat="42.63246536254883" lon="-7.886349201202393">
        <ele>1008.0</ele>
        <time>2019-05-01T09:04:48.000Z</time>
      </trkpt>
      <trkpt lat="42.6324348449707" lon="-7.8864617347717285">
        <ele>1009.0</ele>
        <time>2019-05-01T09:04:56.000Z</time>
      </trkpt>
      <trkpt lat="42.63240051269531" lon="-7.886573314666748">
        <ele>1009.0</ele>
        <time>2019-05-01T09:05:05.000Z</time>
      </trkpt>
      <trkpt lat="42.632362365722656" lon="-7.886683940887451">
        <ele>1010.0</ele>
        <time>2019-05-01T09:05:14.000Z</time>
      </trkpt>
      <trkpt lat="42.632328033447266" lon="-7.886794567108154">
        <ele>1011.0</ele>
        <time>2019-05-01T09:05:23.000Z</time>
      </trkpt>
      <trkpt lat="42.632286071777344" lon="-7.886900424957275">
        <ele>1011.0</ele>
        <time>2019-05-01T09:05:32.000Z</time>
      </trkpt>
      <trkpt lat="42.632240295410156" lon="-7.887004375457764">
        <ele>1012.0</ele>
        <time>2019-05-01T09:05:41.000Z</time>
      </trkpt>
      <trkpt lat="42.6321907043457" lon="-7.887106895446777">
        <ele>1013.0</ele>
        <time>2019-05-01T09:05:50.000Z</time>
      </trkpt>
      <trkpt lat="42.632144927978516" lon="-7.887208938598633">
        <ele>1014.0</ele>
        <time>2019-05-01T09:05:59.000Z</time>
      </trkpt>
      <trkpt lat="42.632015228271484" lon="-7.887658596038818">
        <ele>1018.0</ele>
        <time>2019-05-01T09:06:35.000Z</time>
      </trkpt>
      <trkpt lat="42.63180923461914" lon="-7.8880462646484375">
        <ele>1023.0</ele>
        <time>2019-05-01T09:07:12.000Z</time>
      </trkpt>
      <trkpt lat="42.6315803527832" lon="-7.888401508331299">
        <ele>1028.0</ele>
        <time>2019-05-01T09:07:48.000Z</time>
      </trkpt>
      <trkpt lat="42.63136672973633" lon="-7.888783931732178">
        <ele>1034.0</ele>
        <time>2019-05-01T09:08:23.000Z</time>
      </trkpt>
      <trkpt lat="42.63112258911133" lon="-7.8891425132751465">
        <ele>1041.0</ele>
        <time>2019-05-01T09:09:01.000Z</time>
      </trkpt>
      <trkpt lat="42.63081359863281" lon="-7.889367580413818">
        <ele>1048.0</ele>
        <time>2019-05-01T09:09:35.000Z</time>
      </trkpt>
      <trkpt lat="42.630470275878906" lon="-7.889474868774414">
        <ele>1053.0</ele>
        <time>2019-05-01T09:10:08.000Z</time>
      </trkpt>
      <trkpt lat="42.6301155090332" lon="-7.889510154724121">
        <ele>1056.0</ele>
        <time>2019-05-01T09:10:40.000Z</time>
      </trkpt>
      <trkpt lat="42.6297607421875" lon="-7.889530658721924">
        <ele>1059.0</ele>
        <time>2019-05-01T09:11:14.000Z</time>
      </trkpt>
      <trkpt lat="42.629417419433594" lon="-7.889577388763428">
        <ele>1062.0</ele>
        <time>2019-05-01T09:11:45.000Z</time>
      </trkpt>
      <trkpt lat="42.62929916381836" lon="-7.8896026611328125">
        <ele>1063.0</ele>
        <time>2019-05-01T09:12:02.000Z</time>
      </trkpt>
      <trkpt lat="42.62922668457031" lon="-7.889630317687988">
        <ele>1065.0</ele>
        <time>2019-05-01T09:12:22.000Z</time>
      </trkpt>
      <trkpt lat="42.62919235229492" lon="-7.88964319229126">
        <ele>1065.0</ele>
        <time>2019-05-01T09:12:23.000Z</time>
      </trkpt>
      <trkpt lat="42.6290397644043" lon="-7.889719009399414">
        <ele>1065.0</ele>
        <time>2019-05-01T09:12:31.000Z</time>
      </trkpt>
      <trkpt lat="42.62897872924805" lon="-7.889817237854004">
        <ele>1065.0</ele>
        <time>2019-05-01T09:12:41.000Z</time>
      </trkpt>
      <trkpt lat="42.62892150878906" lon="-7.8899431228637695">
        <ele>1064.0</ele>
        <time>2019-05-01T09:12:51.000Z</time>
      </trkpt>
      <trkpt lat="42.62889862060547" lon="-7.890012264251709">
        <ele>1064.0</ele>
        <time>2019-05-01T09:12:58.000Z</time>
      </trkpt>
      <trkpt lat="42.628875732421875" lon="-7.890086650848389">
        <ele>1064.0</ele>
        <time>2019-05-01T09:13:05.000Z</time>
      </trkpt>
      <trkpt lat="42.62885284423828" lon="-7.890164375305176">
        <ele>1063.0</ele>
        <time>2019-05-01T09:13:12.000Z</time>
      </trkpt>
      <trkpt lat="42.62882995605469" lon="-7.890244007110596">
        <ele>1063.0</ele>
        <time>2019-05-01T09:13:19.000Z</time>
      </trkpt>
      <trkpt lat="42.62881088256836" lon="-7.8903117179870605">
        <ele>1064.0</ele>
        <time>2019-05-01T09:13:22.000Z</time>
      </trkpt>
      <trkpt lat="42.62879180908203" lon="-7.890376567840576">
        <ele>1065.0</ele>
        <time>2019-05-01T09:13:26.000Z</time>
      </trkpt>
      <trkpt lat="42.6287727355957" lon="-7.890439510345459">
        <ele>1067.0</ele>
        <time>2019-05-01T09:13:29.000Z</time>
      </trkpt>
      <trkpt lat="42.628753662109375" lon="-7.890501499176025">
        <ele>1068.0</ele>
        <time>2019-05-01T09:13:33.000Z</time>
      </trkpt>
      <trkpt lat="42.62873840332031" lon="-7.89056396484375">
        <ele>1069.0</ele>
        <time>2019-05-01T09:13:37.000Z</time>
      </trkpt>
      <trkpt lat="42.628726959228516" lon="-7.890626430511475">
        <ele>1071.0</ele>
        <time>2019-05-01T09:13:42.000Z</time>
      </trkpt>
      <trkpt lat="42.62871551513672" lon="-7.890687942504883">
        <ele>1072.0</ele>
        <time>2019-05-01T09:13:46.000Z</time>
      </trkpt>
      <trkpt lat="42.62870407104492" lon="-7.890749454498291">
        <ele>1073.0</ele>
        <time>2019-05-01T09:13:51.000Z</time>
      </trkpt>
      <trkpt lat="42.62870407104492" lon="-7.890850067138672">
        <ele>1072.0</ele>
        <time>2019-05-01T09:14:00.000Z</time>
      </trkpt>
      <trkpt lat="42.62870788574219" lon="-7.89096736907959">
        <ele>1070.0</ele>
        <time>2019-05-01T09:14:10.000Z</time>
      </trkpt>
      <trkpt lat="42.62871551513672" lon="-7.891095161437988">
        <ele>1068.0</ele>
        <time>2019-05-01T09:14:19.000Z</time>
      </trkpt>
      <trkpt lat="42.628726959228516" lon="-7.891228675842285">
        <ele>1066.0</ele>
        <time>2019-05-01T09:14:29.000Z</time>
      </trkpt>
      <trkpt lat="42.62870407104492" lon="-7.891357421875">
        <ele>1064.0</ele>
        <time>2019-05-01T09:14:39.000Z</time>
      </trkpt>
      <trkpt lat="42.628662109375" lon="-7.891435623168945">
        <ele>1063.0</ele>
        <time>2019-05-01T09:14:49.000Z</time>
      </trkpt>
      <trkpt lat="42.628658294677734" lon="-7.8914690017700195">
        <ele>1062.0</ele>
        <time>2019-05-01T09:14:54.000Z</time>
      </trkpt>
      <trkpt lat="42.62865447998047" lon="-7.891494274139404">
        <ele>1062.0</ele>
        <time>2019-05-01T09:15:00.000Z</time>
      </trkpt>
      <trkpt lat="42.62865447998047" lon="-7.891514778137207">
        <ele>1063.0</ele>
        <time>2019-05-01T09:15:05.000Z</time>
      </trkpt>
      <trkpt lat="42.62865447998047" lon="-7.8915324211120605">
        <ele>1063.0</ele>
        <time>2019-05-01T09:15:11.000Z</time>
      </trkpt>
      <trkpt lat="42.62865447998047" lon="-7.891547679901123">
        <ele>1063.0</ele>
        <time>2019-05-01T09:15:11.000Z</time>
      </trkpt>
      <trkpt lat="42.62865447998047" lon="-7.891560077667236">
        <ele>1063.0</ele>
        <time>2019-05-01T09:15:11.000Z</time>
      </trkpt>
      <trkpt lat="42.6286506652832" lon="-7.8915696144104">
        <ele>1063.0</ele>
        <time>2019-05-01T09:15:12.000Z</time>
      </trkpt>
      <trkpt lat="42.6286506652832" lon="-7.891578197479248">
        <ele>1063.0</ele>
        <time>2019-05-01T09:15:12.000Z</time>
      </trkpt>
      <trkpt lat="42.62864685058594" lon="-7.891618728637695">
        <ele>1063.0</ele>
        <time>2019-05-01T09:15:14.000Z</time>
      </trkpt>
      <trkpt lat="42.628639221191406" lon="-7.891671180725098">
        <ele>1064.0</ele>
        <time>2019-05-01T09:15:16.000Z</time>
      </trkpt>
      <trkpt lat="42.628631591796875" lon="-7.8917317390441895">
        <ele>1064.0</ele>
        <time>2019-05-01T09:15:19.000Z</time>
      </trkpt>
      <trkpt lat="42.62862014770508" lon="-7.891796112060547">
        <ele>1064.0</ele>
        <time>2019-05-01T09:15:21.000Z</time>
      </trkpt>
      <trkpt lat="42.628604888916016" lon="-7.891839504241943">
        <ele>1065.0</ele>
        <time>2019-05-01T09:15:27.000Z</time>
      </trkpt>
      <trkpt lat="42.62858581542969" lon="-7.891852378845215">
        <ele>1066.0</ele>
        <time>2019-05-01T09:15:34.000Z</time>
      </trkpt>
      <trkpt lat="42.628578186035156" lon="-7.891862392425537">
        <ele>1066.0</ele>
        <time>2019-05-01T09:15:34.000Z</time>
      </trkpt>
      <trkpt lat="42.62857437133789" lon="-7.891870975494385">
        <ele>1066.0</ele>
        <time>2019-05-01T09:15:34.000Z</time>
      </trkpt>
      <trkpt lat="42.62856674194336" lon="-7.891878128051758">
        <ele>1066.0</ele>
        <time>2019-05-01T09:15:35.000Z</time>
      </trkpt>
      <trkpt lat="42.628562927246094" lon="-7.8918843269348145">
        <ele>1066.0</ele>
        <time>2019-05-01T09:15:35.000Z</time>
      </trkpt>
      <trkpt lat="42.6285285949707" lon="-7.891934871673584">
        <ele>1066.0</ele>
        <time>2019-05-01T09:15:40.000Z</time>
      </trkpt>
      <trkpt lat="42.628482818603516" lon="-7.892002582550049">
        <ele>1067.0</ele>
        <time>2019-05-01T09:15:45.000Z</time>
      </trkpt>
      <trkpt lat="42.6284294128418" lon="-7.892082214355469">
        <ele>1069.0</ele>
        <time>2019-05-01T09:15:51.000Z</time>
      </trkpt>
      <trkpt lat="42.62837219238281" lon="-7.892167568206787">
        <ele>1070.0</ele>
        <time>2019-05-01T09:15:56.000Z</time>
      </trkpt>
      <trkpt lat="42.628353118896484" lon="-7.892198085784912">
        <ele>1070.0</ele>
        <time>2019-05-01T09:15:58.000Z</time>
      </trkpt>
      <trkpt lat="42.62834930419922" lon="-7.8922119140625">
        <ele>1071.0</ele>
        <time>2019-05-01T09:16:00.000Z</time>
      </trkpt>
      <trkpt lat="42.62835693359375" lon="-7.892214298248291">
        <ele>1071.0</ele>
        <time>2019-05-01T09:16:02.000Z</time>
      </trkpt>
      <trkpt lat="42.62836456298828" lon="-7.892211437225342">
        <ele>1071.0</ele>
        <time>2019-05-01T09:16:04.000Z</time>
      </trkpt>
      <trkpt lat="42.62822341918945" lon="-7.892356872558594">
        <ele>1074.0</ele>
        <time>2019-05-01T09:29:31.000Z</time>
      </trkpt>
      <trkpt lat="42.628143310546875" lon="-7.892620086669922">
        <ele>1073.0</ele>
        <time>2019-05-01T09:29:57.000Z</time>
      </trkpt>
      <trkpt lat="42.628143310546875" lon="-7.892620086669922">
        <ele>1073.0</ele>
        <time>2019-05-01T09:29:58.000Z</time>
      </trkpt>
      <trkpt lat="42.628047943115234" lon="-7.893057823181152">
        <ele>1073.0</ele>
        <time>2019-05-01T09:30:28.000Z</time>
      </trkpt>
      <trkpt lat="42.627933502197266" lon="-7.893497943878174">
        <ele>1078.0</ele>
        <time>2019-05-01T09:31:01.000Z</time>
      </trkpt>
      <trkpt lat="42.6279296875" lon="-7.893507957458496">
        <ele>1078.0</ele>
        <time>2019-05-01T09:31:02.000Z</time>
      </trkpt>
      <trkpt lat="42.62791442871094" lon="-7.8935465812683105">
        <ele>1082.0</ele>
        <time>2019-05-01T09:31:19.000Z</time>
      </trkpt>
      <trkpt lat="42.627906799316406" lon="-7.893575191497803">
        <ele>1082.0</ele>
        <time>2019-05-01T09:31:20.000Z</time>
      </trkpt>
      <trkpt lat="42.62784957885742" lon="-7.893716812133789">
        <ele>1083.0</ele>
        <time>2019-05-01T09:31:24.000Z</time>
      </trkpt>
      <trkpt lat="42.62778854370117" lon="-7.893819808959961">
        <ele>1085.0</ele>
        <time>2019-05-01T09:31:37.000Z</time>
      </trkpt>
      <trkpt lat="42.62776565551758" lon="-7.893858909606934">
        <ele>1085.0</ele>
        <time>2019-05-01T09:31:38.000Z</time>
      </trkpt>
      <trkpt lat="42.62753677368164" lon="-7.894219875335693">
        <ele>1089.0</ele>
        <time>2019-05-01T09:32:09.000Z</time>
      </trkpt>
      <trkpt lat="42.62748336791992" lon="-7.894350528717041">
        <ele>1090.0</ele>
        <time>2019-05-01T09:32:21.000Z</time>
      </trkpt>
      <trkpt lat="42.62744140625" lon="-7.8944196701049805">
        <ele>1093.0</ele>
        <time>2019-05-01T09:32:56.000Z</time>
      </trkpt>
      <trkpt lat="42.627418518066406" lon="-7.8944549560546875">
        <ele>1093.0</ele>
        <time>2019-05-01T09:32:57.000Z</time>
      </trkpt>
      <trkpt lat="42.627323150634766" lon="-7.89459228515625">
        <ele>1094.0</ele>
        <time>2019-05-01T09:33:03.000Z</time>
      </trkpt>
      <trkpt lat="42.62731170654297" lon="-7.894618511199951">
        <ele>1094.0</ele>
        <time>2019-05-01T09:33:27.000Z</time>
      </trkpt>
      <trkpt lat="42.627296447753906" lon="-7.894639492034912">
        <ele>1094.0</ele>
        <time>2019-05-01T09:33:28.000Z</time>
      </trkpt>
      <trkpt lat="42.6270751953125" lon="-7.895008087158203">
        <ele>1095.0</ele>
        <time>2019-05-01T09:33:46.000Z</time>
      </trkpt>
      <trkpt lat="42.626834869384766" lon="-7.89518928527832">
        <ele>1098.0</ele>
        <time>2019-05-01T09:34:16.000Z</time>
      </trkpt>
      <trkpt lat="42.62681579589844" lon="-7.895224571228027">
        <ele>1099.0</ele>
        <time>2019-05-01T09:34:21.000Z</time>
      </trkpt>
      <trkpt lat="42.62681198120117" lon="-7.8952555656433105">
        <ele>1100.0</ele>
        <time>2019-05-01T09:34:26.000Z</time>
      </trkpt>
      <trkpt lat="42.62682342529297" lon="-7.895284175872803">
        <ele>1101.0</ele>
        <time>2019-05-01T09:34:31.000Z</time>
      </trkpt>
      <trkpt lat="42.62683868408203" lon="-7.895310878753662">
        <ele>1101.0</ele>
        <time>2019-05-01T09:34:36.000Z</time>
      </trkpt>
      <trkpt lat="42.626853942871094" lon="-7.895324230194092">
        <ele>1102.0</ele>
        <time>2019-05-01T09:34:50.000Z</time>
      </trkpt>
      <trkpt lat="42.62687301635742" lon="-7.895330429077148">
        <ele>1103.0</ele>
        <time>2019-05-01T09:35:05.000Z</time>
      </trkpt>
      <trkpt lat="42.626895904541016" lon="-7.895331859588623">
        <ele>1104.0</ele>
        <time>2019-05-01T09:35:19.000Z</time>
      </trkpt>
      <trkpt lat="42.626922607421875" lon="-7.895330905914307">
        <ele>1105.0</ele>
        <time>2019-05-01T09:35:34.000Z</time>
      </trkpt>
      <trkpt lat="42.62693405151367" lon="-7.895333766937256">
        <ele>1105.0</ele>
        <time>2019-05-01T09:35:34.000Z</time>
      </trkpt>
      <trkpt lat="42.62694549560547" lon="-7.895336151123047">
        <ele>1105.0</ele>
        <time>2019-05-01T09:35:34.000Z</time>
      </trkpt>
      <trkpt lat="42.626953125" lon="-7.8953375816345215">
        <ele>1105.0</ele>
        <time>2019-05-01T09:35:34.000Z</time>
      </trkpt>
      <trkpt lat="42.626956939697266" lon="-7.895339012145996">
        <ele>1105.0</ele>
        <time>2019-05-01T09:35:35.000Z</time>
      </trkpt>
      <trkpt lat="42.626991271972656" lon="-7.89534330368042">
        <ele>1105.0</ele>
        <time>2019-05-01T09:35:37.000Z</time>
      </trkpt>
      <trkpt lat="42.627037048339844" lon="-7.895347595214844">
        <ele>1105.0</ele>
        <time>2019-05-01T09:35:39.000Z</time>
      </trkpt>
      <trkpt lat="42.62709045410156" lon="-7.895352840423584">
        <ele>1105.0</ele>
        <time>2019-05-01T09:35:41.000Z</time>
      </trkpt>
      <trkpt lat="42.62714385986328" lon="-7.895358562469482">
        <ele>1105.0</ele>
        <time>2019-05-01T09:35:44.000Z</time>
      </trkpt>
      <trkpt lat="42.627227783203125" lon="-7.895326614379883">
        <ele>1104.0</ele>
        <time>2019-05-01T09:35:52.000Z</time>
      </trkpt>
      <trkpt lat="42.62731170654297" lon="-7.895275592803955">
        <ele>1104.0</ele>
        <time>2019-05-01T09:36:01.000Z</time>
      </trkpt>
      <trkpt lat="42.6273307800293" lon="-7.895257949829102">
        <ele>1104.0</ele>
        <time>2019-05-01T09:36:05.000Z</time>
      </trkpt>
      <trkpt lat="42.62734603881836" lon="-7.8952412605285645">
        <ele>1104.0</ele>
        <time>2019-05-01T09:36:09.000Z</time>
      </trkpt>
      <trkpt lat="42.62735366821289" lon="-7.895226001739502">
        <ele>1104.0</ele>
        <time>2019-05-01T09:36:13.000Z</time>
      </trkpt>
      <trkpt lat="42.627357482910156" lon="-7.8952107429504395">
        <ele>1104.0</ele>
        <time>2019-05-01T09:36:17.000Z</time>
      </trkpt>
      <trkpt lat="42.62738037109375" lon="-7.895200252532959">
        <ele>1103.0</ele>
        <time>2019-05-01T09:36:26.000Z</time>
      </trkpt>
      <trkpt lat="42.627403259277344" lon="-7.895199775695801">
        <ele>1103.0</ele>
        <time>2019-05-01T09:36:36.000Z</time>
      </trkpt>
      <trkpt lat="42.627410888671875" lon="-7.895197868347168">
        <ele>1102.0</ele>
        <time>2019-05-01T09:36:36.000Z</time>
      </trkpt>
      <trkpt lat="42.627418518066406" lon="-7.895195960998535">
        <ele>1102.0</ele>
        <time>2019-05-01T09:36:36.000Z</time>
      </trkpt>
      <trkpt lat="42.62742614746094" lon="-7.8951945304870605">
        <ele>1102.0</ele>
        <time>2019-05-01T09:36:36.000Z</time>
      </trkpt>
      <trkpt lat="42.6274299621582" lon="-7.895193099975586">
        <ele>1103.0</ele>
        <time>2019-05-01T09:36:37.000Z</time>
      </trkpt>
      <trkpt lat="42.62749099731445" lon="-7.895163536071777">
        <ele>1102.0</ele>
        <time>2019-05-01T09:36:43.000Z</time>
      </trkpt>
      <trkpt lat="42.62757110595703" lon="-7.895122051239014">
        <ele>1101.0</ele>
        <time>2019-05-01T09:36:50.000Z</time>
      </trkpt>
      <trkpt lat="42.627662658691406" lon="-7.895073413848877">
        <ele>1101.0</ele>
        <time>2019-05-01T09:36:57.000Z</time>
      </trkpt>
      <trkpt lat="42.62776565551758" lon="-7.895020484924316">
        <ele>1100.0</ele>
        <time>2019-05-01T09:37:04.000Z</time>
      </trkpt>
      <trkpt lat="42.62783432006836" lon="-7.894951820373535">
        <ele>1099.0</ele>
        <time>2019-05-01T09:37:12.000Z</time>
      </trkpt>
      <trkpt lat="42.627899169921875" lon="-7.894872665405273">
        <ele>1098.0</ele>
        <time>2019-05-01T09:37:20.000Z</time>
      </trkpt>
      <trkpt lat="42.627960205078125" lon="-7.8947858810424805">
        <ele>1097.0</ele>
        <time>2019-05-01T09:37:28.000Z</time>
      </trkpt>
      <trkpt lat="42.62801742553711" lon="-7.894696235656738">
        <ele>1096.0</ele>
        <time>2019-05-01T09:37:37.000Z</time>
      </trkpt>
      <trkpt lat="42.62809371948242" lon="-7.89464807510376">
        <ele>1094.0</ele>
        <time>2019-05-01T09:37:44.000Z</time>
      </trkpt>
      <trkpt lat="42.62814712524414" lon="-7.8946533203125">
        <ele>1091.0</ele>
        <time>2019-05-01T09:37:51.000Z</time>
      </trkpt>
      <trkpt lat="42.62818145751953" lon="-7.894603729248047">
        <ele>1089.0</ele>
        <time>2019-05-01T09:37:56.000Z</time>
      </trkpt>
      <trkpt lat="42.62821578979492" lon="-7.894538402557373">
        <ele>1087.0</ele>
        <time>2019-05-01T09:38:02.000Z</time>
      </trkpt>
      <trkpt lat="42.62825012207031" lon="-7.8944621086120605">
        <ele>1085.0</ele>
        <time>2019-05-01T09:38:07.000Z</time>
      </trkpt>
      <trkpt lat="42.6282844543457" lon="-7.89438009262085">
        <ele>1084.0</ele>
        <time>2019-05-01T09:38:13.000Z</time>
      </trkpt>
      <trkpt lat="42.62833786010742" lon="-7.8942975997924805">
        <ele>1081.0</ele>
        <time>2019-05-01T09:38:22.000Z</time>
      </trkpt>
      <trkpt lat="42.628395080566406" lon="-7.894209384918213">
        <ele>1079.0</ele>
        <time>2019-05-01T09:38:32.000Z</time>
      </trkpt>
      <trkpt lat="42.62845993041992" lon="-7.8941168785095215">
        <ele>1076.0</ele>
        <time>2019-05-01T09:38:41.000Z</time>
      </trkpt>
      <trkpt lat="42.62852478027344" lon="-7.894022464752197">
        <ele>1073.0</ele>
        <time>2019-05-01T09:38:51.000Z</time>
      </trkpt>
      <trkpt lat="42.62855911254883" lon="-7.893976211547852">
        <ele>1071.0</ele>
        <time>2019-05-01T09:38:53.000Z</time>
      </trkpt>
      <trkpt lat="42.62858200073242" lon="-7.893947601318359">
        <ele>1071.0</ele>
        <time>2019-05-01T09:38:56.000Z</time>
      </trkpt>
      <trkpt lat="42.62860107421875" lon="-7.893930912017822">
        <ele>1071.0</ele>
        <time>2019-05-01T09:38:59.000Z</time>
      </trkpt>
      <trkpt lat="42.62861251831055" lon="-7.893920421600342">
        <ele>1071.0</ele>
        <time>2019-05-01T09:39:02.000Z</time>
      </trkpt>
      <trkpt lat="42.62872314453125" lon="-7.893887996673584">
        <ele>1069.0</ele>
        <time>2019-05-01T09:39:17.000Z</time>
      </trkpt>
      <trkpt lat="42.62886047363281" lon="-7.893864631652832">
        <ele>1067.0</ele>
        <time>2019-05-01T09:39:32.000Z</time>
      </trkpt>
      <trkpt lat="42.62892532348633" lon="-7.8938822746276855">
        <ele>1065.0</ele>
        <time>2019-05-01T09:39:37.000Z</time>
      </trkpt>
      <trkpt lat="42.62896728515625" lon="-7.8939208984375">
        <ele>1064.0</ele>
        <time>2019-05-01T09:39:43.000Z</time>
      </trkpt>
      <trkpt lat="42.62898635864258" lon="-7.893917083740234">
        <ele>1064.0</ele>
        <time>2019-05-01T09:39:48.000Z</time>
      </trkpt>
      <trkpt lat="42.62900161743164" lon="-7.893906116485596">
        <ele>1064.0</ele>
        <time>2019-05-01T09:39:53.000Z</time>
      </trkpt>
      <trkpt lat="42.6290168762207" lon="-7.893889904022217">
        <ele>1064.0</ele>
        <time>2019-05-01T09:39:58.000Z</time>
      </trkpt>
      <trkpt lat="42.629032135009766" lon="-7.893871307373047">
        <ele>1064.0</ele>
        <time>2019-05-01T09:40:03.000Z</time>
      </trkpt>
      <trkpt lat="42.62904357910156" lon="-7.893862724304199">
        <ele>1064.0</ele>
        <time>2019-05-01T09:40:03.000Z</time>
      </trkpt>
      <trkpt lat="42.629051208496094" lon="-7.893856525421143">
        <ele>1064.0</ele>
        <time>2019-05-01T09:40:03.000Z</time>
      </trkpt>
      <trkpt lat="42.629058837890625" lon="-7.893850803375244">
        <ele>1064.0</ele>
        <time>2019-05-01T09:40:03.000Z</time>
      </trkpt>
      <trkpt lat="42.62906265258789" lon="-7.893846035003662">
        <ele>1064.0</ele>
        <time>2019-05-01T09:40:04.000Z</time>
      </trkpt>
      <trkpt lat="42.62908935546875" lon="-7.893829822540283">
        <ele>1064.0</ele>
        <time>2019-05-01T09:40:05.000Z</time>
      </trkpt>
      <trkpt lat="42.629119873046875" lon="-7.893808841705322">
        <ele>1064.0</ele>
        <time>2019-05-01T09:40:06.000Z</time>
      </trkpt>
      <trkpt lat="42.62915802001953" lon="-7.893784999847412">
        <ele>1064.0</ele>
        <time>2019-05-01T09:40:07.000Z</time>
      </trkpt>
      <trkpt lat="42.62919616699219" lon="-7.8937602043151855">
        <ele>1064.0</ele>
        <time>2019-05-01T09:40:08.000Z</time>
      </trkpt>
      <trkpt lat="42.629302978515625" lon="-7.893767356872559">
        <ele>1062.0</ele>
        <time>2019-05-01T09:40:18.000Z</time>
      </trkpt>
      <trkpt lat="42.62942886352539" lon="-7.893797874450684">
        <ele>1059.0</ele>
        <time>2019-05-01T09:40:28.000Z</time>
      </trkpt>
      <trkpt lat="42.629478454589844" lon="-7.893798351287842">
        <ele>1058.0</ele>
        <time>2019-05-01T09:40:34.000Z</time>
      </trkpt>
      <trkpt lat="42.62953186035156" lon="-7.893794536590576">
        <ele>1056.0</ele>
        <time>2019-05-01T09:40:41.000Z</time>
      </trkpt>
      <trkpt lat="42.629581451416016" lon="-7.8937883377075195">
        <ele>1054.0</ele>
        <time>2019-05-01T09:40:48.000Z</time>
      </trkpt>
      <trkpt lat="42.6296272277832" lon="-7.8937811851501465">
        <ele>1052.0</ele>
        <time>2019-05-01T09:40:55.000Z</time>
      </trkpt>
      <trkpt lat="42.62965774536133" lon="-7.893771171569824">
        <ele>1051.0</ele>
        <time>2019-05-01T09:40:58.000Z</time>
      </trkpt>
      <trkpt lat="42.629676818847656" lon="-7.893759250640869">
        <ele>1051.0</ele>
        <time>2019-05-01T09:41:01.000Z</time>
      </trkpt>
      <trkpt lat="42.62969207763672" lon="-7.8937458992004395">
        <ele>1050.0</ele>
        <time>2019-05-01T09:41:04.000Z</time>
      </trkpt>
      <trkpt lat="42.62969970703125" lon="-7.893731117248535">
        <ele>1050.0</ele>
        <time>2019-05-01T09:41:08.000Z</time>
      </trkpt>
      <trkpt lat="42.62971115112305" lon="-7.893723487854004">
        <ele>1050.0</ele>
        <time>2019-05-01T09:41:08.000Z</time>
      </trkpt>
      <trkpt lat="42.629722595214844" lon="-7.893717288970947">
        <ele>1050.0</ele>
        <time>2019-05-01T09:41:08.000Z</time>
      </trkpt>
      <trkpt lat="42.629730224609375" lon="-7.893712520599365">
        <ele>1050.0</ele>
        <time>2019-05-01T09:41:08.000Z</time>
      </trkpt>
      <trkpt lat="42.62973403930664" lon="-7.893708229064941">
        <ele>1050.0</ele>
        <time>2019-05-01T09:41:09.000Z</time>
      </trkpt>
      <trkpt lat="42.62978744506836" lon="-7.893662929534912">
        <ele>1050.0</ele>
        <time>2019-05-01T09:41:14.000Z</time>
      </trkpt>
      <trkpt lat="42.629859924316406" lon="-7.893601894378662">
        <ele>1051.0</ele>
        <time>2019-05-01T09:41:19.000Z</time>
      </trkpt>
      <trkpt lat="42.629947662353516" lon="-7.893529415130615">
        <ele>1051.0</ele>
        <time>2019-05-01T09:41:24.000Z</time>
      </trkpt>
      <trkpt lat="42.63003921508789" lon="-7.893451690673828">
        <ele>1051.0</ele>
        <time>2019-05-01T09:41:30.000Z</time>
      </trkpt>
      <trkpt lat="42.630104064941406" lon="-7.893371105194092">
        <ele>1053.0</ele>
        <time>2019-05-01T09:41:37.000Z</time>
      </trkpt>
      <trkpt lat="42.630165100097656" lon="-7.893283367156982">
        <ele>1054.0</ele>
        <time>2019-05-01T09:41:44.000Z</time>
      </trkpt>
      <trkpt lat="42.63022232055664" lon="-7.893191337585449">
        <ele>1056.0</ele>
        <time>2019-05-01T09:41:51.000Z</time>
      </trkpt>
      <trkpt lat="42.630279541015625" lon="-7.893096923828125">
        <ele>1058.0</ele>
        <time>2019-05-01T09:41:59.000Z</time>
      </trkpt>
      <trkpt lat="42.63051223754883" lon="-7.8927178382873535">
        <ele>1058.0</ele>
        <time>2019-05-01T09:42:26.000Z</time>
      </trkpt>
      <trkpt lat="42.63078689575195" lon="-7.892434597015381">
        <ele>1059.0</ele>
        <time>2019-05-01T09:42:54.000Z</time>
      </trkpt>
      <trkpt lat="42.63093185424805" lon="-7.892273426055908">
        <ele>1063.0</ele>
        <time>2019-05-01T09:43:15.000Z</time>
      </trkpt>
      <trkpt lat="42.630943298339844" lon="-7.892251491546631">
        <ele>1064.0</ele>
        <time>2019-05-01T09:43:17.000Z</time>
      </trkpt>
      <trkpt lat="42.63093185424805" lon="-7.892256259918213">
        <ele>1064.0</ele>
        <time>2019-05-01T09:43:20.000Z</time>
      </trkpt>
      <trkpt lat="42.63093948364258" lon="-7.892256259918213">
        <ele>1064.0</ele>
        <time>2019-05-01T09:43:23.000Z</time>
      </trkpt>
      <trkpt lat="42.63095474243164" lon="-7.8922576904296875">
        <ele>1064.0</ele>
        <time>2019-05-01T09:43:26.000Z</time>
      </trkpt>
      <trkpt lat="42.63097381591797" lon="-7.8922600746154785">
        <ele>1064.0</ele>
        <time>2019-05-01T09:43:29.000Z</time>
      </trkpt>
      <trkpt lat="42.6309928894043" lon="-7.892263412475586">
        <ele>1065.0</ele>
        <time>2019-05-01T09:43:32.000Z</time>
      </trkpt>
      <trkpt lat="42.63100051879883" lon="-7.8922648429870605">
        <ele>1065.0</ele>
        <time>2019-05-01T09:43:32.000Z</time>
      </trkpt>
      <trkpt lat="42.631011962890625" lon="-7.892265796661377">
        <ele>1065.0</ele>
        <time>2019-05-01T09:43:32.000Z</time>
      </trkpt>
      <trkpt lat="42.631019592285156" lon="-7.892266750335693">
        <ele>1065.0</ele>
        <time>2019-05-01T09:43:33.000Z</time>
      </trkpt>
      <trkpt lat="42.63102722167969" lon="-7.89226770401001">
        <ele>1065.0</ele>
        <time>2019-05-01T09:43:33.000Z</time>
      </trkpt>
      <trkpt lat="42.63105392456055" lon="-7.892269611358643">
        <ele>1065.0</ele>
        <time>2019-05-01T09:43:34.000Z</time>
      </trkpt>
      <trkpt lat="42.63108825683594" lon="-7.892271995544434">
        <ele>1065.0</ele>
        <time>2019-05-01T09:43:36.000Z</time>
      </trkpt>
      <trkpt lat="42.63113021850586" lon="-7.892274379730225">
        <ele>1065.0</ele>
        <time>2019-05-01T09:43:37.000Z</time>
      </trkpt>
      <trkpt lat="42.63117218017578" lon="-7.892276763916016">
        <ele>1065.0</ele>
        <time>2019-05-01T09:43:39.000Z</time>
      </trkpt>
      <trkpt lat="42.63119125366211" lon="-7.892255783081055">
        <ele>1065.0</ele>
        <time>2019-05-01T09:43:40.000Z</time>
      </trkpt>
      <trkpt lat="42.63119888305664" lon="-7.89222526550293">
        <ele>1065.0</ele>
        <time>2019-05-01T09:43:42.000Z</time>
      </trkpt>
      <trkpt lat="42.63119888305664" lon="-7.89218807220459">
        <ele>1065.0</ele>
        <time>2019-05-01T09:43:43.000Z</time>
      </trkpt>
      <trkpt lat="42.63119888305664" lon="-7.892147541046143">
        <ele>1065.0</ele>
        <time>2019-05-01T09:43:45.000Z</time>
      </trkpt>
      <trkpt lat="42.631229400634766" lon="-7.892096519470215">
        <ele>1065.0</ele>
        <time>2019-05-01T09:43:49.000Z</time>
      </trkpt>
      <trkpt lat="42.63126754760742" lon="-7.892052173614502">
        <ele>1065.0</ele>
        <time>2019-05-01T09:43:53.000Z</time>
      </trkpt>
      <trkpt lat="42.631317138671875" lon="-7.892031669616699">
        <ele>1065.0</ele>
        <time>2019-05-01T09:43:56.000Z</time>
      </trkpt>
      <trkpt lat="42.631370544433594" lon="-7.892024040222168">
        <ele>1064.0</ele>
        <time>2019-05-01T09:43:59.000Z</time>
      </trkpt>
      <trkpt lat="42.631404876708984" lon="-7.891998291015625">
        <ele>1064.0</ele>
        <time>2019-05-01T09:44:03.000Z</time>
      </trkpt>
      <trkpt lat="42.631446838378906" lon="-7.891965389251709">
        <ele>1064.0</ele>
        <time>2019-05-01T09:44:07.000Z</time>
      </trkpt>
      <trkpt lat="42.63148880004883" lon="-7.891927242279053">
        <ele>1064.0</ele>
        <time>2019-05-01T09:44:11.000Z</time>
      </trkpt>
      <trkpt lat="42.63153076171875" lon="-7.8918867111206055">
        <ele>1064.0</ele>
        <time>2019-05-01T09:44:15.000Z</time>
      </trkpt>
      <trkpt lat="42.6315803527832" lon="-7.891783714294434">
        <ele>1064.0</ele>
        <time>2019-05-01T09:44:23.000Z</time>
      </trkpt>
      <trkpt lat="42.63161849975586" lon="-7.891664981842041">
        <ele>1065.0</ele>
        <time>2019-05-01T09:44:32.000Z</time>
      </trkpt>
      <trkpt lat="42.63164520263672" lon="-7.891619682312012">
        <ele>1065.0</ele>
        <time>2019-05-01T09:44:36.000Z</time>
      </trkpt>
      <trkpt lat="42.63167190551758" lon="-7.8915791511535645">
        <ele>1065.0</ele>
        <time>2019-05-01T09:44:40.000Z</time>
      </trkpt>
      <trkpt lat="42.6317024230957" lon="-7.891541481018066">
        <ele>1065.0</ele>
        <time>2019-05-01T09:44:45.000Z</time>
      </trkpt>
      <trkpt lat="42.631736755371094" lon="-7.891505718231201">
        <ele>1066.0</ele>
        <time>2019-05-01T09:44:49.000Z</time>
      </trkpt>
      <trkpt lat="42.63182067871094" lon="-7.891465187072754">
        <ele>1064.0</ele>
        <time>2019-05-01T09:44:53.000Z</time>
      </trkpt>
      <trkpt lat="42.631919860839844" lon="-7.891442775726318">
        <ele>1063.0</ele>
        <time>2019-05-01T09:44:58.000Z</time>
      </trkpt>
      <trkpt lat="42.631961822509766" lon="-7.891366481781006">
        <ele>1061.0</ele>
        <time>2019-05-01T09:45:04.000Z</time>
      </trkpt>
      <trkpt lat="42.63200759887695" lon="-7.891264915466309">
        <ele>1059.0</ele>
        <time>2019-05-01T09:45:11.000Z</time>
      </trkpt>
      <trkpt lat="42.632049560546875" lon="-7.891147136688232">
        <ele>1057.0</ele>
        <time>2019-05-01T09:45:17.000Z</time>
      </trkpt>
      <trkpt lat="42.6320915222168" lon="-7.89102029800415">
        <ele>1054.0</ele>
        <time>2019-05-01T09:45:24.000Z</time>
      </trkpt>
      <trkpt lat="42.63214874267578" lon="-7.890928745269775">
        <ele>1052.0</ele>
        <time>2019-05-01T09:45:31.000Z</time>
      </trkpt>
      <trkpt lat="42.6322135925293" lon="-7.890842914581299">
        <ele>1050.0</ele>
        <time>2019-05-01T09:45:39.000Z</time>
      </trkpt>
      <trkpt lat="42.63228225708008" lon="-7.890760898590088">
        <ele>1047.0</ele>
        <time>2019-05-01T09:45:46.000Z</time>
      </trkpt>
      <trkpt lat="42.63235092163086" lon="-7.89068078994751">
        <ele>1045.0</ele>
        <time>2019-05-01T09:45:54.000Z</time>
      </trkpt>
      <trkpt lat="42.632415771484375" lon="-7.890593528747559">
        <ele>1043.0</ele>
        <time>2019-05-01T09:46:01.000Z</time>
      </trkpt>
      <trkpt lat="42.632476806640625" lon="-7.890504837036133">
        <ele>1042.0</ele>
        <time>2019-05-01T09:46:09.000Z</time>
      </trkpt>
      <trkpt lat="42.632537841796875" lon="-7.890416145324707">
        <ele>1041.0</ele>
        <time>2019-05-01T09:46:16.000Z</time>
      </trkpt>
      <trkpt lat="42.632598876953125" lon="-7.890326499938965">
        <ele>1040.0</ele>
        <time>2019-05-01T09:46:24.000Z</time>
      </trkpt>
      <trkpt lat="42.63267517089844" lon="-7.890262603759766">
        <ele>1039.0</ele>
        <time>2019-05-01T09:46:32.000Z</time>
      </trkpt>
      <trkpt lat="42.632755279541016" lon="-7.890209197998047">
        <ele>1039.0</ele>
        <time>2019-05-01T09:46:39.000Z</time>
      </trkpt>
      <trkpt lat="42.63283920288086" lon="-7.890162944793701">
        <ele>1039.0</ele>
        <time>2019-05-01T09:46:47.000Z</time>
      </trkpt>
      <trkpt lat="42.6329231262207" lon="-7.890120029449463">
        <ele>1039.0</ele>
        <time>2019-05-01T09:46:55.000Z</time>
      </trkpt>
      <trkpt lat="42.632999420166016" lon="-7.89005708694458">
        <ele>1039.0</ele>
        <time>2019-05-01T09:47:02.000Z</time>
      </trkpt>
      <trkpt lat="42.63307189941406" lon="-7.889990329742432">
        <ele>1038.0</ele>
        <time>2019-05-01T09:47:09.000Z</time>
      </trkpt>
      <trkpt lat="42.63314437866211" lon="-7.889920234680176">
        <ele>1037.0</ele>
        <time>2019-05-01T09:47:16.000Z</time>
      </trkpt>
      <trkpt lat="42.63321304321289" lon="-7.889848709106445">
        <ele>1036.0</ele>
        <time>2019-05-01T09:47:23.000Z</time>
      </trkpt>
      <trkpt lat="42.63328552246094" lon="-7.889779567718506">
        <ele>1036.0</ele>
        <time>2019-05-01T09:47:30.000Z</time>
      </trkpt>
      <trkpt lat="42.633358001708984" lon="-7.889710426330566">
        <ele>1036.0</ele>
        <time>2019-05-01T09:47:37.000Z</time>
      </trkpt>
      <trkpt lat="42.63343048095703" lon="-7.8896403312683105">
        <ele>1036.0</ele>
        <time>2019-05-01T09:47:45.000Z</time>
      </trkpt>
      <trkpt lat="42.63349914550781" lon="-7.889570236206055">
        <ele>1036.0</ele>
        <time>2019-05-01T09:47:52.000Z</time>
      </trkpt>
      <trkpt lat="42.63379669189453" lon="-7.88931131362915">
        <ele>1033.0</ele>
        <time>2019-05-01T09:48:21.000Z</time>
      </trkpt>
      <trkpt lat="42.63408279418945" lon="-7.889033317565918">
        <ele>1037.0</ele>
        <time>2019-05-01T09:48:47.000Z</time>
      </trkpt>
      <trkpt lat="42.63419723510742" lon="-7.8889594078063965">
        <ele>1038.0</ele>
        <time>2019-05-01T09:49:07.000Z</time>
      </trkpt>
      <trkpt lat="42.63422393798828" lon="-7.888937950134277">
        <ele>1037.0</ele>
        <time>2019-05-01T09:49:29.000Z</time>
      </trkpt>
      <trkpt lat="42.63424301147461" lon="-7.888922214508057">
        <ele>1037.0</ele>
        <time>2019-05-01T09:49:30.000Z</time>
      </trkpt>
      <trkpt lat="42.634437561035156" lon="-7.888760566711426">
        <ele>1037.0</ele>
        <time>2019-05-01T09:49:43.000Z</time>
      </trkpt>
      <trkpt lat="42.63445281982422" lon="-7.888739585876465">
        <ele>1038.0</ele>
        <time>2019-05-01T09:49:45.000Z</time>
      </trkpt>
      <trkpt lat="42.634429931640625" lon="-7.888746738433838">
        <ele>1039.0</ele>
        <time>2019-05-01T09:49:48.000Z</time>
      </trkpt>
      <trkpt lat="42.63443374633789" lon="-7.888747215270996">
        <ele>1039.0</ele>
        <time>2019-05-01T09:50:07.000Z</time>
      </trkpt>
      <trkpt lat="42.634437561035156" lon="-7.888749122619629">
        <ele>1039.0</ele>
        <time>2019-05-01T09:50:26.000Z</time>
      </trkpt>
      <trkpt lat="42.63444519042969" lon="-7.888751983642578">
        <ele>1040.0</ele>
        <time>2019-05-01T09:50:45.000Z</time>
      </trkpt>
      <trkpt lat="42.63444900512695" lon="-7.888755798339844">
        <ele>1040.0</ele>
        <time>2019-05-01T09:51:04.000Z</time>
      </trkpt>
      <trkpt lat="42.634456634521484" lon="-7.888757705688477">
        <ele>1040.0</ele>
        <time>2019-05-01T09:51:04.000Z</time>
      </trkpt>
      <trkpt lat="42.63446044921875" lon="-7.888759613037109">
        <ele>1040.0</ele>
        <time>2019-05-01T09:51:04.000Z</time>
      </trkpt>
      <trkpt lat="42.634464263916016" lon="-7.888761043548584">
        <ele>1040.0</ele>
        <time>2019-05-01T09:51:05.000Z</time>
      </trkpt>
      <trkpt lat="42.63446807861328" lon="-7.888762950897217">
        <ele>1040.0</ele>
        <time>2019-05-01T09:51:05.000Z</time>
      </trkpt>
      <trkpt lat="42.63447570800781" lon="-7.888767719268799">
        <ele>1040.0</ele>
        <time>2019-05-01T09:51:05.000Z</time>
      </trkpt>
      <trkpt lat="42.634490966796875" lon="-7.8887739181518555">
        <ele>1040.0</ele>
        <time>2019-05-01T09:51:06.000Z</time>
      </trkpt>
      <trkpt lat="42.63450622558594" lon="-7.8887810707092285">
        <ele>1040.0</ele>
        <time>2019-05-01T09:51:06.000Z</time>
      </trkpt>
      <trkpt lat="42.634521484375" lon="-7.88878870010376">
        <ele>1040.0</ele>
        <time>2019-05-01T09:51:07.000Z</time>
      </trkpt>
      <trkpt lat="42.6345329284668" lon="-7.888793468475342">
        <ele>1040.0</ele>
        <time>2019-05-01T09:51:07.000Z</time>
      </trkpt>
      <trkpt lat="42.63454055786133" lon="-7.888797760009766">
        <ele>1040.0</ele>
        <time>2019-05-01T09:51:07.000Z</time>
      </trkpt>
      <trkpt lat="42.63454818725586" lon="-7.888801097869873">
        <ele>1040.0</ele>
        <time>2019-05-01T09:51:08.000Z</time>
      </trkpt>
      <trkpt lat="42.63455581665039" lon="-7.888804912567139">
        <ele>1040.0</ele>
        <time>2019-05-01T09:51:08.000Z</time>
      </trkpt>
      <trkpt lat="42.63456344604492" lon="-7.8888068199157715">
        <ele>1040.0</ele>
        <time>2019-05-01T09:51:10.000Z</time>
      </trkpt>
      <trkpt lat="42.63456726074219" lon="-7.888808250427246">
        <ele>1040.0</ele>
        <time>2019-05-01T09:51:13.000Z</time>
      </trkpt>
      <trkpt lat="42.63457107543945" lon="-7.888808727264404">
        <ele>1040.0</ele>
        <time>2019-05-01T09:51:15.000Z</time>
      </trkpt>
      <trkpt lat="42.63457489013672" lon="-7.8888092041015625">
        <ele>1040.0</ele>
        <time>2019-05-01T09:51:18.000Z</time>
      </trkpt>
      <trkpt lat="42.634578704833984" lon="-7.888810157775879">
        <ele>1040.0</ele>
        <time>2019-05-01T09:51:18.000Z</time>
      </trkpt>
      <trkpt lat="42.63458251953125" lon="-7.888811111450195">
        <ele>1040.0</ele>
        <time>2019-05-01T09:51:18.000Z</time>
      </trkpt>
      <trkpt lat="42.634586334228516" lon="-7.888812065124512">
        <ele>1040.0</ele>
        <time>2019-05-01T09:51:19.000Z</time>
      </trkpt>
      <trkpt lat="42.63459014892578" lon="-7.888813018798828">
        <ele>1040.0</ele>
        <time>2019-05-01T09:51:19.000Z</time>
      </trkpt>
      <trkpt lat="42.634639739990234" lon="-7.888829708099365">
        <ele>1040.0</ele>
        <time>2019-05-01T09:51:22.000Z</time>
      </trkpt>
      <trkpt lat="42.63475799560547" lon="-7.888866901397705">
        <ele>1040.0</ele>
        <time>2019-05-01T09:51:26.000Z</time>
      </trkpt>
      <trkpt lat="42.634910583496094" lon="-7.888895511627197">
        <ele>1039.0</ele>
        <time>2019-05-01T09:51:34.000Z</time>
      </trkpt>
      <trkpt lat="42.6350212097168" lon="-7.888943672180176">
        <ele>1038.0</ele>
        <time>2019-05-01T09:51:43.000Z</time>
      </trkpt>
      <trkpt lat="42.63506317138672" lon="-7.888960361480713">
        <ele>1036.0</ele>
        <time>2019-05-01T09:51:55.000Z</time>
      </trkpt>
      <trkpt lat="42.63508987426758" lon="-7.888971328735352">
        <ele>1036.0</ele>
        <time>2019-05-01T09:51:56.000Z</time>
      </trkpt>
      <trkpt lat="42.63526153564453" lon="-7.889053821563721">
        <ele>1034.0</ele>
        <time>2019-05-01T09:52:01.000Z</time>
      </trkpt>
      <trkpt lat="42.63544464111328" lon="-7.889081001281738">
        <ele>1029.0</ele>
        <time>2019-05-01T09:52:19.000Z</time>
      </trkpt>
      <trkpt lat="42.635799407958984" lon="-7.889105319976807">
        <ele>1023.0</ele>
        <time>2019-05-01T09:52:54.000Z</time>
      </trkpt>
      <trkpt lat="42.636131286621094" lon="-7.889009475708008">
        <ele>1015.0</ele>
        <time>2019-05-01T09:53:24.000Z</time>
      </trkpt>
      <trkpt lat="42.6364860534668" lon="-7.888903617858887">
        <ele>1013.0</ele>
        <time>2019-05-01T09:53:51.000Z</time>
      </trkpt>
      <trkpt lat="42.636844635009766" lon="-7.8889665603637695">
        <ele>1011.0</ele>
        <time>2019-05-01T09:54:18.000Z</time>
      </trkpt>
      <trkpt lat="42.63718795776367" lon="-7.889106273651123">
        <ele>1014.0</ele>
        <time>2019-05-01T09:54:45.000Z</time>
      </trkpt>
      <trkpt lat="42.637359619140625" lon="-7.889200210571289">
        <ele>1019.0</ele>
        <time>2019-05-01T09:55:00.000Z</time>
      </trkpt>
      <trkpt lat="42.6375617980957" lon="-7.889267921447754">
        <ele>1026.0</ele>
        <time>2019-05-01T09:55:16.000Z</time>
      </trkpt>
      <trkpt lat="42.637725830078125" lon="-7.889353275299072">
        <ele>1028.0</ele>
        <time>2019-05-01T09:55:29.000Z</time>
      </trkpt>
      <trkpt lat="42.637901306152344" lon="-7.889473915100098">
        <ele>1015.0</ele>
        <time>2019-05-01T09:55:53.000Z</time>
      </trkpt>
      <trkpt lat="42.6380500793457" lon="-7.889598369598389">
        <ele>1014.0</ele>
        <time>2019-05-01T09:56:14.000Z</time>
      </trkpt>
      <trkpt lat="42.6380615234375" lon="-7.889602184295654">
        <ele>1010.0</ele>
        <time>2019-05-01T09:57:23.000Z</time>
      </trkpt>
      <trkpt lat="42.6380729675293" lon="-7.8896050453186035">
        <ele>1010.0</ele>
        <time>2019-05-01T09:57:24.000Z</time>
      </trkpt>
      <trkpt lat="42.63842010498047" lon="-7.889734268188477">
        <ele>1006.0</ele>
        <time>2019-05-01T09:57:37.000Z</time>
      </trkpt>
      <trkpt lat="42.638771057128906" lon="-7.889745712280273">
        <ele>997.0</ele>
        <time>2019-05-01T09:58:09.000Z</time>
      </trkpt>
      <trkpt lat="42.63912582397461" lon="-7.889739990234375">
        <ele>989.0</ele>
        <time>2019-05-01T09:58:38.000Z</time>
      </trkpt>
      <trkpt lat="42.63947677612305" lon="-7.889644145965576">
        <ele>985.0</ele>
        <time>2019-05-01T09:59:07.000Z</time>
      </trkpt>
      <trkpt lat="42.63983154296875" lon="-7.889666557312012">
        <ele>984.0</ele>
        <time>2019-05-01T09:59:36.000Z</time>
      </trkpt>
      <trkpt lat="42.64016342163086" lon="-7.889750957489014">
        <ele>984.0</ele>
        <time>2019-05-01T10:00:03.000Z</time>
      </trkpt>
      <trkpt lat="42.64052200317383" lon="-7.88976526260376">
        <ele>985.0</ele>
        <time>2019-05-01T10:00:30.000Z</time>
      </trkpt>
      <trkpt lat="42.64085388183594" lon="-7.889678955078125">
        <ele>985.0</ele>
        <time>2019-05-01T10:00:59.000Z</time>
      </trkpt>
      <trkpt lat="42.641178131103516" lon="-7.889501094818115">
        <ele>985.0</ele>
        <time>2019-05-01T10:01:27.000Z</time>
      </trkpt>
      <trkpt lat="42.64151382446289" lon="-7.8893513679504395">
        <ele>986.0</ele>
        <time>2019-05-01T10:01:54.000Z</time>
      </trkpt>
      <trkpt lat="42.64185333251953" lon="-7.889242649078369">
        <ele>982.0</ele>
        <time>2019-05-01T10:02:19.000Z</time>
      </trkpt>
      <trkpt lat="42.64219284057617" lon="-7.889098167419434">
        <ele>987.0</ele>
        <time>2019-05-01T10:02:46.000Z</time>
      </trkpt>
      <trkpt lat="42.64227294921875" lon="-7.8890204429626465">
        <ele>991.0</ele>
        <time>2019-05-01T10:02:57.000Z</time>
      </trkpt>
      <trkpt lat="42.64229202270508" lon="-7.889030933380127">
        <ele>992.0</ele>
        <time>2019-05-01T10:02:59.000Z</time>
      </trkpt>
      <trkpt lat="42.64230728149414" lon="-7.889054298400879">
        <ele>993.0</ele>
        <time>2019-05-01T10:03:02.000Z</time>
      </trkpt>
      <trkpt lat="42.6423225402832" lon="-7.88908576965332">
        <ele>994.0</ele>
        <time>2019-05-01T10:03:04.000Z</time>
      </trkpt>
      <trkpt lat="42.642333984375" lon="-7.8891215324401855">
        <ele>994.0</ele>
        <time>2019-05-01T10:03:07.000Z</time>
      </trkpt>
      <trkpt lat="42.64234924316406" lon="-7.889115810394287">
        <ele>995.0</ele>
        <time>2019-05-01T10:03:09.000Z</time>
      </trkpt>
      <trkpt lat="42.642356872558594" lon="-7.889097213745117">
        <ele>996.0</ele>
        <time>2019-05-01T10:03:11.000Z</time>
      </trkpt>
      <trkpt lat="42.64236831665039" lon="-7.8890700340271">
        <ele>996.0</ele>
        <time>2019-05-01T10:03:13.000Z</time>
      </trkpt>
      <trkpt lat="42.64237976074219" lon="-7.889038562774658">
        <ele>997.0</ele>
        <time>2019-05-01T10:03:15.000Z</time>
      </trkpt>
      <trkpt lat="42.642391204833984" lon="-7.889040470123291">
        <ele>998.0</ele>
        <time>2019-05-01T10:03:17.000Z</time>
      </trkpt>
      <trkpt lat="42.64241027832031" lon="-7.889051914215088">
        <ele>998.0</ele>
        <time>2019-05-01T10:03:18.000Z</time>
      </trkpt>
      <trkpt lat="42.642425537109375" lon="-7.889069557189941">
        <ele>999.0</ele>
        <time>2019-05-01T10:03:20.000Z</time>
      </trkpt>
      <trkpt lat="42.6424446105957" lon="-7.889090538024902">
        <ele>1000.0</ele>
        <time>2019-05-01T10:03:22.000Z</time>
      </trkpt>
      <trkpt lat="42.6424446105957" lon="-7.889062881469727">
        <ele>1001.0</ele>
        <time>2019-05-01T10:03:24.000Z</time>
      </trkpt>
      <trkpt lat="42.64244079589844" lon="-7.8890180587768555">
        <ele>1001.0</ele>
        <time>2019-05-01T10:03:26.000Z</time>
      </trkpt>
      <trkpt lat="42.64242935180664" lon="-7.8889617919921875">
        <ele>1001.0</ele>
        <time>2019-05-01T10:03:29.000Z</time>
      </trkpt>
      <trkpt lat="42.642417907714844" lon="-7.888899803161621">
        <ele>1002.0</ele>
        <time>2019-05-01T10:03:31.000Z</time>
      </trkpt>
      <trkpt lat="42.6424674987793" lon="-7.888876438140869">
        <ele>1001.0</ele>
        <time>2019-05-01T10:03:37.000Z</time>
      </trkpt>
      <trkpt lat="42.64253616333008" lon="-7.888863563537598">
        <ele>1001.0</ele>
        <time>2019-05-01T10:03:43.000Z</time>
      </trkpt>
      <trkpt lat="42.642616271972656" lon="-7.888857364654541">
        <ele>1000.0</ele>
        <time>2019-05-01T10:03:50.000Z</time>
      </trkpt>
      <trkpt lat="42.64270782470703" lon="-7.88885498046875">
        <ele>1000.0</ele>
        <time>2019-05-01T10:03:56.000Z</time>
      </trkpt>
      <trkpt lat="42.642791748046875" lon="-7.888853549957275">
        <ele>999.0</ele>
        <time>2019-05-01T10:04:03.000Z</time>
      </trkpt>
      <trkpt lat="42.64287567138672" lon="-7.888856887817383">
        <ele>999.0</ele>
        <time>2019-05-01T10:04:09.000Z</time>
      </trkpt>
      <trkpt lat="42.64296340942383" lon="-7.888862609863281">
        <ele>998.0</ele>
        <time>2019-05-01T10:04:16.000Z</time>
      </trkpt>
      <trkpt lat="42.6430549621582" lon="-7.888869762420654">
        <ele>998.0</ele>
        <time>2019-05-01T10:04:23.000Z</time>
      </trkpt>
      <trkpt lat="42.643104553222656" lon="-7.88887882232666">
        <ele>998.0</ele>
        <time>2019-05-01T10:04:25.000Z</time>
      </trkpt>
      <trkpt lat="42.64313507080078" lon="-7.888889789581299">
        <ele>997.0</ele>
        <time>2019-05-01T10:04:26.000Z</time>
      </trkpt>
      <trkpt lat="42.643157958984375" lon="-7.888902187347412">
        <ele>997.0</ele>
        <time>2019-05-01T10:04:28.000Z</time>
      </trkpt>
      <trkpt lat="42.6431770324707" lon="-7.888915538787842">
        <ele>996.0</ele>
        <time>2019-05-01T10:04:30.000Z</time>
      </trkpt>
      <trkpt lat="42.64320373535156" lon="-7.888927459716797">
        <ele>996.0</ele>
        <time>2019-05-01T10:04:31.000Z</time>
      </trkpt>
      <trkpt lat="42.64323043823242" lon="-7.888939380645752">
        <ele>996.0</ele>
        <time>2019-05-01T10:04:32.000Z</time>
      </trkpt>
      <trkpt lat="42.64325714111328" lon="-7.888951301574707">
        <ele>996.0</ele>
        <time>2019-05-01T10:04:33.000Z</time>
      </trkpt>
      <trkpt lat="42.64328384399414" lon="-7.88896369934082">
        <ele>997.0</ele>
        <time>2019-05-01T10:04:34.000Z</time>
      </trkpt>
      <trkpt lat="42.6433219909668" lon="-7.888980388641357">
        <ele>997.0</ele>
        <time>2019-05-01T10:04:37.000Z</time>
      </trkpt>
      <trkpt lat="42.643367767333984" lon="-7.888998985290527">
        <ele>997.0</ele>
        <time>2019-05-01T10:04:39.000Z</time>
      </trkpt>
      <trkpt lat="42.6434211730957" lon="-7.88901948928833">
        <ele>997.0</ele>
        <time>2019-05-01T10:04:42.000Z</time>
      </trkpt>
      <trkpt lat="42.643470764160156" lon="-7.889039993286133">
        <ele>997.0</ele>
        <time>2019-05-01T10:04:45.000Z</time>
      </trkpt>
      <trkpt lat="42.64349365234375" lon="-7.889048099517822">
        <ele>997.0</ele>
        <time>2019-05-01T10:04:46.000Z</time>
      </trkpt>
      <trkpt lat="42.64350128173828" lon="-7.88905143737793">
        <ele>997.0</ele>
        <time>2019-05-01T10:04:47.000Z</time>
      </trkpt>
      <trkpt lat="42.64350509643555" lon="-7.88905143737793">
        <ele>997.0</ele>
        <time>2019-05-01T10:04:48.000Z</time>
      </trkpt>
      <trkpt lat="42.64350128173828" lon="-7.889050483703613">
        <ele>997.0</ele>
        <time>2019-05-01T10:04:49.000Z</time>
      </trkpt>
      <trkpt lat="42.64350891113281" lon="-7.889022350311279">
        <ele>997.0</ele>
        <time>2019-05-01T10:04:53.000Z</time>
      </trkpt>
      <trkpt lat="42.64352035522461" lon="-7.888981342315674">
        <ele>997.0</ele>
        <time>2019-05-01T10:04:57.000Z</time>
      </trkpt>
      <trkpt lat="42.64352798461914" lon="-7.888931751251221">
        <ele>996.0</ele>
        <time>2019-05-01T10:05:02.000Z</time>
      </trkpt>
      <trkpt lat="42.64353561401367" lon="-7.888878345489502">
        <ele>996.0</ele>
        <time>2019-05-01T10:05:06.000Z</time>
      </trkpt>
      <trkpt lat="42.6435546875" lon="-7.8888702392578125">
        <ele>996.0</ele>
        <time>2019-05-01T10:05:08.000Z</time>
      </trkpt>
      <trkpt lat="42.64358139038086" lon="-7.8888773918151855">
        <ele>996.0</ele>
        <time>2019-05-01T10:05:09.000Z</time>
      </trkpt>
      <trkpt lat="42.643611907958984" lon="-7.888894081115723">
        <ele>995.0</ele>
        <time>2019-05-01T10:05:11.000Z</time>
      </trkpt>
      <trkpt lat="42.64364242553711" lon="-7.888915538787842">
        <ele>995.0</ele>
        <time>2019-05-01T10:05:13.000Z</time>
      </trkpt>
      <trkpt lat="42.64372634887695" lon="-7.888895034790039">
        <ele>994.0</ele>
        <time>2019-05-01T10:05:21.000Z</time>
      </trkpt>
      <trkpt lat="42.643829345703125" lon="-7.888856410980225">
        <ele>994.0</ele>
        <time>2019-05-01T10:05:29.000Z</time>
      </trkpt>
      <trkpt lat="42.64392852783203" lon="-7.888871192932129">
        <ele>993.0</ele>
        <time>2019-05-01T10:05:35.000Z</time>
      </trkpt>
      <trkpt lat="42.64402389526367" lon="-7.888906478881836">
        <ele>992.0</ele>
        <time>2019-05-01T10:05:41.000Z</time>
      </trkpt>
      <trkpt lat="42.64406967163086" lon="-7.888906002044678">
        <ele>991.0</ele>
        <time>2019-05-01T10:05:45.000Z</time>
      </trkpt>
      <trkpt lat="42.64411544799805" lon="-7.8889007568359375">
        <ele>989.0</ele>
        <time>2019-05-01T10:05:49.000Z</time>
      </trkpt>
      <trkpt lat="42.64415740966797" lon="-7.888891220092773">
        <ele>988.0</ele>
        <time>2019-05-01T10:05:53.000Z</time>
      </trkpt>
      <trkpt lat="42.644203186035156" lon="-7.888880252838135">
        <ele>987.0</ele>
        <time>2019-05-01T10:05:57.000Z</time>
      </trkpt>
      <trkpt lat="42.64424514770508" lon="-7.888870716094971">
        <ele>986.0</ele>
        <time>2019-05-01T10:06:01.000Z</time>
      </trkpt>
      <trkpt lat="42.644287109375" lon="-7.888859748840332">
        <ele>985.0</ele>
        <time>2019-05-01T10:06:06.000Z</time>
      </trkpt>
      <trkpt lat="42.64433288574219" lon="-7.888847827911377">
        <ele>984.0</ele>
        <time>2019-05-01T10:06:10.000Z</time>
      </trkpt>
      <trkpt lat="42.64437484741211" lon="-7.888835430145264">
        <ele>984.0</ele>
        <time>2019-05-01T10:06:15.000Z</time>
      </trkpt>
      <trkpt lat="42.6444091796875" lon="-7.888827800750732">
        <ele>983.0</ele>
        <time>2019-05-01T10:06:17.000Z</time>
      </trkpt>
      <trkpt lat="42.64444351196289" lon="-7.888821601867676">
        <ele>983.0</ele>
        <time>2019-05-01T10:06:20.000Z</time>
      </trkpt>
      <trkpt lat="42.64447021484375" lon="-7.888816833496094">
        <ele>983.0</ele>
        <time>2019-05-01T10:06:22.000Z</time>
      </trkpt>
      <trkpt lat="42.644500732421875" lon="-7.888812065124512">
        <ele>983.0</ele>
        <time>2019-05-01T10:06:25.000Z</time>
      </trkpt>
      <trkpt lat="42.64460372924805" lon="-7.888858795166016">
        <ele>983.0</ele>
        <time>2019-05-01T10:06:35.000Z</time>
      </trkpt>
      <trkpt lat="42.64472961425781" lon="-7.888932704925537">
        <ele>984.0</ele>
        <time>2019-05-01T10:06:46.000Z</time>
      </trkpt>
      <trkpt lat="42.64480209350586" lon="-7.8889641761779785">
        <ele>983.0</ele>
        <time>2019-05-01T10:06:52.000Z</time>
      </trkpt>
      <trkpt lat="42.6448860168457" lon="-7.8889970779418945">
        <ele>982.0</ele>
        <time>2019-05-01T10:06:59.000Z</time>
      </trkpt>
      <trkpt lat="42.64497375488281" lon="-7.8890299797058105">
        <ele>980.0</ele>
        <time>2019-05-01T10:07:05.000Z</time>
      </trkpt>
      <trkpt lat="42.64506530761719" lon="-7.889063358306885">
        <ele>978.0</ele>
        <time>2019-05-01T10:07:12.000Z</time>
      </trkpt>
      <trkpt lat="42.6451530456543" lon="-7.889089107513428">
        <ele>978.0</ele>
        <time>2019-05-01T10:07:19.000Z</time>
      </trkpt>
      <trkpt lat="42.64523696899414" lon="-7.889111518859863">
        <ele>979.0</ele>
        <time>2019-05-01T10:07:27.000Z</time>
      </trkpt>
      <trkpt lat="42.64532470703125" lon="-7.889132022857666">
        <ele>980.0</ele>
        <time>2019-05-01T10:07:34.000Z</time>
      </trkpt>
      <trkpt lat="42.645416259765625" lon="-7.889151573181152">
        <ele>981.0</ele>
        <time>2019-05-01T10:07:42.000Z</time>
      </trkpt>
      <trkpt lat="42.645503997802734" lon="-7.889172077178955">
        <ele>982.0</ele>
        <time>2019-05-01T10:07:48.000Z</time>
      </trkpt>
      <trkpt lat="42.64559555053711" lon="-7.889191627502441">
        <ele>981.0</ele>
        <time>2019-05-01T10:07:55.000Z</time>
      </trkpt>
      <trkpt lat="42.645687103271484" lon="-7.8892107009887695">
        <ele>981.0</ele>
        <time>2019-05-01T10:08:01.000Z</time>
      </trkpt>
      <trkpt lat="42.64577865600586" lon="-7.8892292976379395">
        <ele>981.0</ele>
        <time>2019-05-01T10:08:08.000Z</time>
      </trkpt>
      <trkpt lat="42.64586639404297" lon="-7.88924503326416">
        <ele>981.0</ele>
        <time>2019-05-01T10:08:16.000Z</time>
      </trkpt>
      <trkpt lat="42.64595413208008" lon="-7.8892598152160645">
        <ele>980.0</ele>
        <time>2019-05-01T10:08:23.000Z</time>
      </trkpt>
      <trkpt lat="42.64603805541992" lon="-7.889273166656494">
        <ele>979.0</ele>
        <time>2019-05-01T10:08:31.000Z</time>
      </trkpt>
      <trkpt lat="42.64612579345703" lon="-7.889286041259766">
        <ele>979.0</ele>
        <time>2019-05-01T10:08:39.000Z</time>
      </trkpt>
      <trkpt lat="42.64621353149414" lon="-7.889291763305664">
        <ele>978.0</ele>
        <time>2019-05-01T10:08:46.000Z</time>
      </trkpt>
      <trkpt lat="42.64630126953125" lon="-7.889293670654297">
        <ele>977.0</ele>
        <time>2019-05-01T10:08:52.000Z</time>
      </trkpt>
      <trkpt lat="42.646392822265625" lon="-7.889293193817139">
        <ele>976.0</ele>
        <time>2019-05-01T10:08:59.000Z</time>
      </trkpt>
      <trkpt lat="42.646480560302734" lon="-7.889291763305664">
        <ele>975.0</ele>
        <time>2019-05-01T10:09:06.000Z</time>
      </trkpt>
      <trkpt lat="42.646644592285156" lon="-7.889204978942871">
        <ele>977.0</ele>
        <time>2019-05-01T10:09:18.000Z</time>
      </trkpt>
      <trkpt lat="42.64680099487305" lon="-7.8890767097473145">
        <ele>981.0</ele>
        <time>2019-05-01T10:09:30.000Z</time>
      </trkpt>
      <trkpt lat="42.64686965942383" lon="-7.8890509605407715">
        <ele>981.0</ele>
        <time>2019-05-01T10:09:35.000Z</time>
      </trkpt>
      <trkpt lat="42.64693069458008" lon="-7.889036655426025">
        <ele>980.0</ele>
        <time>2019-05-01T10:09:40.000Z</time>
      </trkpt>
      <trkpt lat="42.64698791503906" lon="-7.889030456542969">
        <ele>979.0</ele>
        <time>2019-05-01T10:09:46.000Z</time>
      </trkpt>
      <trkpt lat="42.64704513549805" lon="-7.8890275955200195">
        <ele>978.0</ele>
        <time>2019-05-01T10:09:51.000Z</time>
      </trkpt>
      <trkpt lat="42.64711380004883" lon="-7.8890461921691895">
        <ele>978.0</ele>
        <time>2019-05-01T10:09:58.000Z</time>
      </trkpt>
      <trkpt lat="42.647159576416016" lon="-7.889084339141846">
        <ele>977.0</ele>
        <time>2019-05-01T10:10:05.000Z</time>
      </trkpt>
      <trkpt lat="42.647178649902344" lon="-7.889084339141846">
        <ele>978.0</ele>
        <time>2019-05-01T10:10:08.000Z</time>
      </trkpt>
      <trkpt lat="42.647186279296875" lon="-7.889071464538574">
        <ele>979.0</ele>
        <time>2019-05-01T10:10:12.000Z</time>
      </trkpt>
      <trkpt lat="42.647193908691406" lon="-7.889067649841309">
        <ele>980.0</ele>
        <time>2019-05-01T10:10:21.000Z</time>
      </trkpt>
      <trkpt lat="42.64719772338867" lon="-7.889062881469727">
        <ele>980.0</ele>
        <time>2019-05-01T10:10:30.000Z</time>
      </trkpt>
      <trkpt lat="42.6472053527832" lon="-7.889058589935303">
        <ele>981.0</ele>
        <time>2019-05-01T10:10:39.000Z</time>
      </trkpt>
      <trkpt lat="42.647212982177734" lon="-7.889053821563721">
        <ele>981.0</ele>
        <time>2019-05-01T10:10:48.000Z</time>
      </trkpt>
      <trkpt lat="42.647216796875" lon="-7.889050006866455">
        <ele>982.0</ele>
        <time>2019-05-01T10:10:48.000Z</time>
      </trkpt>
      <trkpt lat="42.647220611572266" lon="-7.889046669006348">
        <ele>982.0</ele>
        <time>2019-05-01T10:10:48.000Z</time>
      </trkpt>
      <trkpt lat="42.6472282409668" lon="-7.88904333114624">
        <ele>982.0</ele>
        <time>2019-05-01T10:10:49.000Z</time>
      </trkpt>
      <trkpt lat="42.64723205566406" lon="-7.889040470123291">
        <ele>981.0</ele>
        <time>2019-05-01T10:10:49.000Z</time>
      </trkpt>
      <trkpt lat="42.64728546142578" lon="-7.888992786407471">
        <ele>981.0</ele>
        <time>2019-05-01T10:10:53.000Z</time>
      </trkpt>
      <trkpt lat="42.64735412597656" lon="-7.8889265060424805">
        <ele>981.0</ele>
        <time>2019-05-01T10:10:57.000Z</time>
      </trkpt>
      <trkpt lat="42.64744186401367" lon="-7.888848304748535">
        <ele>981.0</ele>
        <time>2019-05-01T10:11:01.000Z</time>
      </trkpt>
      <trkpt lat="42.64753341674805" lon="-7.888763427734375">
        <ele>981.0</ele>
        <time>2019-05-01T10:11:05.000Z</time>
      </trkpt>
      <trkpt lat="42.64759826660156" lon="-7.888683795928955">
        <ele>980.0</ele>
        <time>2019-05-01T10:11:12.000Z</time>
      </trkpt>
      <trkpt lat="42.64766311645508" lon="-7.888599872589111">
        <ele>979.0</ele>
        <time>2019-05-01T10:11:19.000Z</time>
      </trkpt>
      <trkpt lat="42.64772415161133" lon="-7.888513565063477">
        <ele>978.0</ele>
        <time>2019-05-01T10:11:27.000Z</time>
      </trkpt>
      <trkpt lat="42.64778137207031" lon="-7.888425350189209">
        <ele>977.0</ele>
        <time>2019-05-01T10:11:34.000Z</time>
      </trkpt>
      <trkpt lat="42.647945404052734" lon="-7.888327121734619">
        <ele>978.0</ele>
        <time>2019-05-01T10:11:48.000Z</time>
      </trkpt>
      <trkpt lat="42.648128509521484" lon="-7.8882622718811035">
        <ele>981.0</ele>
        <time>2019-05-01T10:12:03.000Z</time>
      </trkpt>
      <trkpt lat="42.648216247558594" lon="-7.888247013092041">
        <ele>981.0</ele>
        <time>2019-05-01T10:12:10.000Z</time>
      </trkpt>
      <trkpt lat="42.64830780029297" lon="-7.888242721557617">
        <ele>981.0</ele>
        <time>2019-05-01T10:12:18.000Z</time>
      </trkpt>
      <trkpt lat="42.648399353027344" lon="-7.888245582580566">
        <ele>980.0</ele>
        <time>2019-05-01T10:12:25.000Z</time>
      </trkpt>
      <trkpt lat="42.64849090576172" lon="-7.888251781463623">
        <ele>980.0</ele>
        <time>2019-05-01T10:12:33.000Z</time>
      </trkpt>
      <trkpt lat="42.64853286743164" lon="-7.888237476348877">
        <ele>979.0</ele>
        <time>2019-05-01T10:12:39.000Z</time>
      </trkpt>
      <trkpt lat="42.64851379394531" lon="-7.888218879699707">
        <ele>979.0</ele>
        <time>2019-05-01T10:12:45.000Z</time>
      </trkpt>
      <trkpt lat="42.648521423339844" lon="-7.8882155418396">
        <ele>979.0</ele>
        <time>2019-05-01T10:12:51.000Z</time>
      </trkpt>
      <trkpt lat="42.64853286743164" lon="-7.888213634490967">
        <ele>978.0</ele>
        <time>2019-05-01T10:12:56.000Z</time>
      </trkpt>
      <trkpt lat="42.64854049682617" lon="-7.88821268081665">
        <ele>978.0</ele>
        <time>2019-05-01T10:13:02.000Z</time>
      </trkpt>
      <trkpt lat="42.64855194091797" lon="-7.88821268081665">
        <ele>978.0</ele>
        <time>2019-05-01T10:13:08.000Z</time>
      </trkpt>
      <trkpt lat="42.6485595703125" lon="-7.888211250305176">
        <ele>978.0</ele>
        <time>2019-05-01T10:13:08.000Z</time>
      </trkpt>
      <trkpt lat="42.64856719970703" lon="-7.888210296630859">
        <ele>978.0</ele>
        <time>2019-05-01T10:13:08.000Z</time>
      </trkpt>
      <trkpt lat="42.6485710144043" lon="-7.888209342956543">
        <ele>978.0</ele>
        <time>2019-05-01T10:13:09.000Z</time>
      </trkpt>
      <trkpt lat="42.64857864379883" lon="-7.888207912445068">
        <ele>978.0</ele>
        <time>2019-05-01T10:13:09.000Z</time>
      </trkpt>
      <trkpt lat="42.648624420166016" lon="-7.888204097747803">
        <ele>978.0</ele>
        <time>2019-05-01T10:13:11.000Z</time>
      </trkpt>
      <trkpt lat="42.648685455322266" lon="-7.888199329376221">
        <ele>978.0</ele>
        <time>2019-05-01T10:13:13.000Z</time>
      </trkpt>
      <trkpt lat="42.64875793457031" lon="-7.888193130493164">
        <ele>978.0</ele>
        <time>2019-05-01T10:13:16.000Z</time>
      </trkpt>
      <trkpt lat="42.648834228515625" lon="-7.888186931610107">
        <ele>978.0</ele>
        <time>2019-05-01T10:13:18.000Z</time>
      </trkpt>
      <trkpt lat="42.648868560791016" lon="-7.888184070587158">
        <ele>978.0</ele>
        <time>2019-05-01T10:13:20.000Z</time>
      </trkpt>
      <trkpt lat="42.64889144897461" lon="-7.888182163238525">
        <ele>979.0</ele>
        <time>2019-05-01T10:13:22.000Z</time>
      </trkpt>
      <trkpt lat="42.648902893066406" lon="-7.888180732727051">
        <ele>979.0</ele>
        <time>2019-05-01T10:13:25.000Z</time>
      </trkpt>
      <trkpt lat="42.6489143371582" lon="-7.888179302215576">
        <ele>980.0</ele>
        <time>2019-05-01T10:13:27.000Z</time>
      </trkpt>
      <trkpt lat="42.64891052246094" lon="-7.888163089752197">
        <ele>980.0</ele>
        <time>2019-05-01T10:13:30.000Z</time>
      </trkpt>
      <trkpt lat="42.648895263671875" lon="-7.888140678405762">
        <ele>980.0</ele>
        <time>2019-05-01T10:13:33.000Z</time>
      </trkpt>
      <trkpt lat="42.64887237548828" lon="-7.8881144523620605">
        <ele>980.0</ele>
        <time>2019-05-01T10:13:36.000Z</time>
      </trkpt>
      <trkpt lat="42.64884567260742" lon="-7.888086318969727">
        <ele>981.0</ele>
        <time>2019-05-01T10:13:39.000Z</time>
      </trkpt>
      <trkpt lat="42.64885330200195" lon="-7.888088703155518">
        <ele>981.0</ele>
        <time>2019-05-01T10:13:55.000Z</time>
      </trkpt>
      <trkpt lat="42.64887237548828" lon="-7.888102054595947">
        <ele>981.0</ele>
        <time>2019-05-01T10:14:11.000Z</time>
      </trkpt>
      <trkpt lat="42.64889907836914" lon="-7.88812255859375">
        <ele>981.0</ele>
        <time>2019-05-01T10:14:27.000Z</time>
      </trkpt>
      <trkpt lat="42.64892578125" lon="-7.88814640045166">
        <ele>982.0</ele>
        <time>2019-05-01T10:14:43.000Z</time>
      </trkpt>
      <trkpt lat="42.6489372253418" lon="-7.888154983520508">
        <ele>982.0</ele>
        <time>2019-05-01T10:14:43.000Z</time>
      </trkpt>
      <trkpt lat="42.64894485473633" lon="-7.888161659240723">
        <ele>982.0</ele>
        <time>2019-05-01T10:14:43.000Z</time>
      </trkpt>
      <trkpt lat="42.64895248413086" lon="-7.8881659507751465">
        <ele>982.0</ele>
        <time>2019-05-01T10:14:44.000Z</time>
      </trkpt>
      <trkpt lat="42.648956298828125" lon="-7.888169765472412">
        <ele>982.0</ele>
        <time>2019-05-01T10:14:44.000Z</time>
      </trkpt>
      <trkpt lat="42.64898681640625" lon="-7.888189315795898">
        <ele>981.0</ele>
        <time>2019-05-01T10:14:47.000Z</time>
      </trkpt>
      <trkpt lat="42.649024963378906" lon="-7.888214588165283">
        <ele>981.0</ele>
        <time>2019-05-01T10:14:49.000Z</time>
      </trkpt>
      <trkpt lat="42.649070739746094" lon="-7.888244152069092">
        <ele>981.0</ele>
        <time>2019-05-01T10:14:52.000Z</time>
      </trkpt>
      <trkpt lat="42.64912033081055" lon="-7.888275623321533">
        <ele>980.0</ele>
        <time>2019-05-01T10:14:55.000Z</time>
      </trkpt>
      <trkpt lat="42.649208068847656" lon="-7.888288974761963">
        <ele>979.0</ele>
        <time>2019-05-01T10:15:02.000Z</time>
      </trkpt>
      <trkpt lat="42.64929962158203" lon="-7.888284683227539">
        <ele>977.0</ele>
        <time>2019-05-01T10:15:09.000Z</time>
      </trkpt>
      <trkpt lat="42.64934539794922" lon="-7.888282299041748">
        <ele>976.0</ele>
        <time>2019-05-01T10:15:12.000Z</time>
      </trkpt>
      <trkpt lat="42.649391174316406" lon="-7.888277530670166">
        <ele>975.0</ele>
        <time>2019-05-01T10:15:16.000Z</time>
      </trkpt>
      <trkpt lat="42.649436950683594" lon="-7.888272285461426">
        <ele>975.0</ele>
        <time>2019-05-01T10:15:19.000Z</time>
      </trkpt>
      <trkpt lat="42.64948654174805" lon="-7.888266086578369">
        <ele>974.0</ele>
        <time>2019-05-01T10:15:23.000Z</time>
      </trkpt>
      <trkpt lat="42.6495361328125" lon="-7.8882527351379395">
        <ele>974.0</ele>
        <time>2019-05-01T10:15:27.000Z</time>
      </trkpt>
      <trkpt lat="42.64958572387695" lon="-7.888235569000244">
        <ele>974.0</ele>
        <time>2019-05-01T10:15:31.000Z</time>
      </trkpt>
      <trkpt lat="42.649635314941406" lon="-7.888216495513916">
        <ele>975.0</ele>
        <time>2019-05-01T10:15:36.000Z</time>
      </trkpt>
      <trkpt lat="42.649688720703125" lon="-7.888195514678955">
        <ele>975.0</ele>
        <time>2019-05-01T10:15:40.000Z</time>
      </trkpt>
      <trkpt lat="42.64973831176758" lon="-7.888190269470215">
        <ele>975.0</ele>
        <time>2019-05-01T10:15:44.000Z</time>
      </trkpt>
      <trkpt lat="42.649784088134766" lon="-7.888190269470215">
        <ele>974.0</ele>
        <time>2019-05-01T10:15:47.000Z</time>
      </trkpt>
      <trkpt lat="42.64982986450195" lon="-7.8881940841674805">
        <ele>974.0</ele>
        <time>2019-05-01T10:15:51.000Z</time>
      </trkpt>
      <trkpt lat="42.649879455566406" lon="-7.8881988525390625">
        <ele>973.0</ele>
        <time>2019-05-01T10:15:55.000Z</time>
      </trkpt>
      <trkpt lat="42.649967193603516" lon="-7.888131618499756">
        <ele>973.0</ele>
        <time>2019-05-01T10:16:04.000Z</time>
      </trkpt>
      <trkpt lat="42.65005111694336" lon="-7.888031959533691">
        <ele>972.0</ele>
        <time>2019-05-01T10:16:13.000Z</time>
      </trkpt>
      <trkpt lat="42.650089263916016" lon="-7.887996673583984">
        <ele>972.0</ele>
        <time>2019-05-01T10:16:16.000Z</time>
      </trkpt>
      <trkpt lat="42.65013122558594" lon="-7.887964248657227">
        <ele>971.0</ele>
        <time>2019-05-01T10:16:20.000Z</time>
      </trkpt>
      <trkpt lat="42.650169372558594" lon="-7.887933254241943">
        <ele>971.0</ele>
        <time>2019-05-01T10:16:23.000Z</time>
      </trkpt>
      <trkpt lat="42.65020751953125" lon="-7.887903213500977">
        <ele>971.0</ele>
        <time>2019-05-01T10:16:27.000Z</time>
      </trkpt>
      <trkpt lat="42.65024948120117" lon="-7.887872695922852">
        <ele>970.0</ele>
        <time>2019-05-01T10:16:31.000Z</time>
      </trkpt>
      <trkpt lat="42.650291442871094" lon="-7.887842655181885">
        <ele>969.0</ele>
        <time>2019-05-01T10:16:35.000Z</time>
      </trkpt>
      <trkpt lat="42.650333404541016" lon="-7.887813091278076">
        <ele>967.0</ele>
        <time>2019-05-01T10:16:39.000Z</time>
      </trkpt>
      <trkpt lat="42.6503791809082" lon="-7.887783527374268">
        <ele>966.0</ele>
        <time>2019-05-01T10:16:43.000Z</time>
      </trkpt>
      <trkpt lat="42.650421142578125" lon="-7.887756824493408">
        <ele>965.0</ele>
        <time>2019-05-01T10:16:47.000Z</time>
      </trkpt>
      <trkpt lat="42.65046310424805" lon="-7.887732028961182">
        <ele>965.0</ele>
        <time>2019-05-01T10:16:51.000Z</time>
      </trkpt>
      <trkpt lat="42.65050506591797" lon="-7.887707710266113">
        <ele>965.0</ele>
        <time>2019-05-01T10:16:56.000Z</time>
      </trkpt>
      <trkpt lat="42.65054702758789" lon="-7.887683868408203">
        <ele>965.0</ele>
        <time>2019-05-01T10:17:00.000Z</time>
      </trkpt>
      <trkpt lat="42.65058898925781" lon="-7.887660503387451">
        <ele>965.0</ele>
        <time>2019-05-01T10:17:02.000Z</time>
      </trkpt>
      <trkpt lat="42.650630950927734" lon="-7.887637615203857">
        <ele>965.0</ele>
        <time>2019-05-01T10:17:05.000Z</time>
      </trkpt>
      <trkpt lat="42.650672912597656" lon="-7.887615203857422">
        <ele>965.0</ele>
        <time>2019-05-01T10:17:07.000Z</time>
      </trkpt>
      <trkpt lat="42.650718688964844" lon="-7.887592792510986">
        <ele>965.0</ele>
        <time>2019-05-01T10:17:10.000Z</time>
      </trkpt>
      <trkpt lat="42.650760650634766" lon="-7.887569427490234">
        <ele>965.0</ele>
        <time>2019-05-01T10:17:14.000Z</time>
      </trkpt>
      <trkpt lat="42.65080642700195" lon="-7.887546539306641">
        <ele>965.0</ele>
        <time>2019-05-01T10:17:18.000Z</time>
      </trkpt>
      <trkpt lat="42.650848388671875" lon="-7.887523174285889">
        <ele>965.0</ele>
        <time>2019-05-01T10:17:23.000Z</time>
      </trkpt>
      <trkpt lat="42.65089416503906" lon="-7.8874993324279785">
        <ele>965.0</ele>
        <time>2019-05-01T10:17:27.000Z</time>
      </trkpt>
      <trkpt lat="42.65106201171875" lon="-7.8873796463012695">
        <ele>960.0</ele>
        <time>2019-05-01T10:17:43.000Z</time>
      </trkpt>
      <trkpt lat="42.6512336730957" lon="-7.887283802032471">
        <ele>958.0</ele>
        <time>2019-05-01T10:18:03.000Z</time>
      </trkpt>
      <trkpt lat="42.65142059326172" lon="-7.887209892272949">
        <ele>953.0</ele>
        <time>2019-05-01T10:18:23.000Z</time>
      </trkpt>
      <trkpt lat="42.651756286621094" lon="-7.8870673179626465">
        <ele>949.0</ele>
        <time>2019-05-01T10:18:54.000Z</time>
      </trkpt>
      <trkpt lat="42.65209197998047" lon="-7.886917591094971">
        <ele>945.0</ele>
        <time>2019-05-01T10:19:25.000Z</time>
      </trkpt>
      <trkpt lat="42.65245056152344" lon="-7.886833190917969">
        <ele>943.0</ele>
        <time>2019-05-01T10:19:54.000Z</time>
      </trkpt>
      <trkpt lat="42.65280532836914" lon="-7.886736869812012">
        <ele>944.0</ele>
        <time>2019-05-01T10:20:24.000Z</time>
      </trkpt>
      <trkpt lat="42.65317153930664" lon="-7.886805534362793">
        <ele>947.0</ele>
        <time>2019-05-01T10:20:54.000Z</time>
      </trkpt>
      <trkpt lat="42.65351867675781" lon="-7.886928081512451">
        <ele>945.0</ele>
        <time>2019-05-01T10:21:24.000Z</time>
      </trkpt>
      <trkpt lat="42.65385437011719" lon="-7.887104034423828">
        <ele>943.0</ele>
        <time>2019-05-01T10:21:52.000Z</time>
      </trkpt>
      <trkpt lat="42.65419387817383" lon="-7.887191295623779">
        <ele>940.0</ele>
        <time>2019-05-01T10:22:21.000Z</time>
      </trkpt>
      <trkpt lat="42.654541015625" lon="-7.887200355529785">
        <ele>937.0</ele>
        <time>2019-05-01T10:22:49.000Z</time>
      </trkpt>
      <trkpt lat="42.654788970947266" lon="-7.887194633483887">
        <ele>935.0</ele>
        <time>2019-05-01T10:23:07.000Z</time>
      </trkpt>
      <trkpt lat="42.65485382080078" lon="-7.88715934753418">
        <ele>934.0</ele>
        <time>2019-05-01T10:23:13.000Z</time>
      </trkpt>
      <trkpt lat="42.65489196777344" lon="-7.887108325958252">
        <ele>933.0</ele>
        <time>2019-05-01T10:23:19.000Z</time>
      </trkpt>
      <trkpt lat="42.65504455566406" lon="-7.887118339538574">
        <ele>933.0</ele>
        <time>2019-05-01T10:23:34.000Z</time>
      </trkpt>
      <trkpt lat="42.65524673461914" lon="-7.887152671813965">
        <ele>934.0</ele>
        <time>2019-05-01T10:23:49.000Z</time>
      </trkpt>
      <trkpt lat="42.655338287353516" lon="-7.887178421020508">
        <ele>935.0</ele>
        <time>2019-05-01T10:23:56.000Z</time>
      </trkpt>
      <trkpt lat="42.65542221069336" lon="-7.887210369110107">
        <ele>935.0</ele>
        <time>2019-05-01T10:24:03.000Z</time>
      </trkpt>
      <trkpt lat="42.65550994873047" lon="-7.887246131896973">
        <ele>936.0</ele>
        <time>2019-05-01T10:24:11.000Z</time>
      </trkpt>
      <trkpt lat="42.65559768676758" lon="-7.887284278869629">
        <ele>938.0</ele>
        <time>2019-05-01T10:24:18.000Z</time>
      </trkpt>
      <trkpt lat="42.65568161010742" lon="-7.887322425842285">
        <ele>938.0</ele>
        <time>2019-05-01T10:24:25.000Z</time>
      </trkpt>
      <trkpt lat="42.65576934814453" lon="-7.887362957000732">
        <ele>939.0</ele>
        <time>2019-05-01T10:24:32.000Z</time>
      </trkpt>
      <trkpt lat="42.655853271484375" lon="-7.887404918670654">
        <ele>940.0</ele>
        <time>2019-05-01T10:24:40.000Z</time>
      </trkpt>
      <trkpt lat="42.65593719482422" lon="-7.887447357177734">
        <ele>940.0</ele>
        <time>2019-05-01T10:24:47.000Z</time>
      </trkpt>
      <trkpt lat="42.656002044677734" lon="-7.88747501373291">
        <ele>941.0</ele>
        <time>2019-05-01T10:24:52.000Z</time>
      </trkpt>
      <trkpt lat="42.65605926513672" lon="-7.8874969482421875">
        <ele>941.0</ele>
        <time>2019-05-01T10:24:58.000Z</time>
      </trkpt>
      <trkpt lat="42.65610885620117" lon="-7.887515068054199">
        <ele>941.0</ele>
        <time>2019-05-01T10:25:03.000Z</time>
      </trkpt>
      <trkpt lat="42.65615463256836" lon="-7.887531280517578">
        <ele>941.0</ele>
        <time>2019-05-01T10:25:09.000Z</time>
      </trkpt>
      <trkpt lat="42.65620040893555" lon="-7.88755464553833">
        <ele>942.0</ele>
        <time>2019-05-01T10:25:13.000Z</time>
      </trkpt>
      <trkpt lat="42.65624237060547" lon="-7.887578964233398">
        <ele>943.0</ele>
        <time>2019-05-01T10:25:16.000Z</time>
      </trkpt>
      <trkpt lat="42.65628433227539" lon="-7.887603759765625">
        <ele>944.0</ele>
        <time>2019-05-01T10:25:20.000Z</time>
      </trkpt>
      <trkpt lat="42.65632247924805" lon="-7.887629508972168">
        <ele>944.0</ele>
        <time>2019-05-01T10:25:24.000Z</time>
      </trkpt>
      <trkpt lat="42.656349182128906" lon="-7.887627124786377">
        <ele>945.0</ele>
        <time>2019-05-01T10:25:27.000Z</time>
      </trkpt>
      <trkpt lat="42.6563720703125" lon="-7.887613773345947">
        <ele>945.0</ele>
        <time>2019-05-01T10:25:30.000Z</time>
      </trkpt>
      <trkpt lat="42.65639114379883" lon="-7.887592792510986">
        <ele>946.0</ele>
        <time>2019-05-01T10:25:33.000Z</time>
      </trkpt>
      <trkpt lat="42.65640640258789" lon="-7.887568473815918">
        <ele>946.0</ele>
        <time>2019-05-01T10:25:36.000Z</time>
      </trkpt>
      <trkpt lat="42.65644836425781" lon="-7.887565612792969">
        <ele>946.0</ele>
        <time>2019-05-01T10:25:39.000Z</time>
      </trkpt>
      <trkpt lat="42.65648651123047" lon="-7.887575149536133">
        <ele>947.0</ele>
        <time>2019-05-01T10:25:42.000Z</time>
      </trkpt>
      <trkpt lat="42.656494140625" lon="-7.88758659362793">
        <ele>947.0</ele>
        <time>2019-05-01T10:25:44.000Z</time>
      </trkpt>
      <trkpt lat="42.656497955322266" lon="-7.88760232925415">
        <ele>946.0</ele>
        <time>2019-05-01T10:25:45.000Z</time>
      </trkpt>
      <trkpt lat="42.656497955322266" lon="-7.887620449066162">
        <ele>946.0</ele>
        <time>2019-05-01T10:25:47.000Z</time>
      </trkpt>
      <trkpt lat="42.656497955322266" lon="-7.887640476226807">
        <ele>946.0</ele>
        <time>2019-05-01T10:25:49.000Z</time>
      </trkpt>
      <trkpt lat="42.65650939941406" lon="-7.887653827667236">
        <ele>946.0</ele>
        <time>2019-05-01T10:25:51.000Z</time>
      </trkpt>
      <trkpt lat="42.65652847290039" lon="-7.88766622543335">
        <ele>947.0</ele>
        <time>2019-05-01T10:25:53.000Z</time>
      </trkpt>
      <trkpt lat="42.65654754638672" lon="-7.8876776695251465">
        <ele>948.0</ele>
        <time>2019-05-01T10:25:55.000Z</time>
      </trkpt>
      <trkpt lat="42.65656661987305" lon="-7.887689113616943">
        <ele>948.0</ele>
        <time>2019-05-01T10:25:57.000Z</time>
      </trkpt>
      <trkpt lat="42.65658187866211" lon="-7.88770055770874">
        <ele>949.0</ele>
        <time>2019-05-01T10:26:00.000Z</time>
      </trkpt>
      <trkpt lat="42.656593322753906" lon="-7.887712478637695">
        <ele>949.0</ele>
        <time>2019-05-01T10:26:04.000Z</time>
      </trkpt>
      <trkpt lat="42.65660095214844" lon="-7.887723922729492">
        <ele>950.0</ele>
        <time>2019-05-01T10:26:07.000Z</time>
      </trkpt>
      <trkpt lat="42.656612396240234" lon="-7.887735366821289">
        <ele>951.0</ele>
        <time>2019-05-01T10:26:11.000Z</time>
      </trkpt>
      <trkpt lat="42.656620025634766" lon="-7.8877434730529785">
        <ele>951.0</ele>
        <time>2019-05-01T10:26:11.000Z</time>
      </trkpt>
      <trkpt lat="42.6566276550293" lon="-7.887750625610352">
        <ele>951.0</ele>
        <time>2019-05-01T10:26:11.000Z</time>
      </trkpt>
      <trkpt lat="42.65663146972656" lon="-7.887756824493408">
        <ele>951.0</ele>
        <time>2019-05-01T10:26:12.000Z</time>
      </trkpt>
      <trkpt lat="42.656639099121094" lon="-7.887762546539307">
        <ele>951.0</ele>
        <time>2019-05-01T10:26:12.000Z</time>
      </trkpt>
      <trkpt lat="42.65669631958008" lon="-7.887800693511963">
        <ele>950.0</ele>
        <time>2019-05-01T10:26:17.000Z</time>
      </trkpt>
      <trkpt lat="42.65677261352539" lon="-7.887851715087891">
        <ele>949.0</ele>
        <time>2019-05-01T10:26:21.000Z</time>
      </trkpt>
      <trkpt lat="42.656864166259766" lon="-7.887911796569824">
        <ele>948.0</ele>
        <time>2019-05-01T10:26:26.000Z</time>
      </trkpt>
      <trkpt lat="42.65696334838867" lon="-7.887976169586182">
        <ele>947.0</ele>
        <time>2019-05-01T10:26:31.000Z</time>
      </trkpt>
      <trkpt lat="42.657047271728516" lon="-7.88802433013916">
        <ele>946.0</ele>
        <time>2019-05-01T10:26:39.000Z</time>
      </trkpt>
      <trkpt lat="42.65713119506836" lon="-7.888070583343506">
        <ele>946.0</ele>
        <time>2019-05-01T10:26:48.000Z</time>
      </trkpt>
      <trkpt lat="42.65721130371094" lon="-7.888115406036377">
        <ele>945.0</ele>
        <time>2019-05-01T10:26:56.000Z</time>
      </trkpt>
      <trkpt lat="42.65729522705078" lon="-7.88815975189209">
        <ele>945.0</ele>
        <time>2019-05-01T10:27:05.000Z</time>
      </trkpt>
      <trkpt lat="42.657371520996094" lon="-7.8882060050964355">
        <ele>945.0</ele>
        <time>2019-05-01T10:27:11.000Z</time>
      </trkpt>
      <trkpt lat="42.657440185546875" lon="-7.8882527351379395">
        <ele>945.0</ele>
        <time>2019-05-01T10:27:18.000Z</time>
      </trkpt>
      <trkpt lat="42.657508850097656" lon="-7.888299942016602">
        <ele>945.0</ele>
        <time>2019-05-01T10:27:24.000Z</time>
      </trkpt>
      <trkpt lat="42.65757751464844" lon="-7.8883466720581055">
        <ele>945.0</ele>
        <time>2019-05-01T10:27:31.000Z</time>
      </trkpt>
      <trkpt lat="42.657745361328125" lon="-7.888484001159668">
        <ele>945.0</ele>
        <time>2019-05-01T10:27:46.000Z</time>
      </trkpt>
      <trkpt lat="42.65779113769531" lon="-7.888525009155273">
        <ele>945.0</ele>
        <time>2019-05-01T10:27:49.000Z</time>
      </trkpt>
      <trkpt lat="42.65779495239258" lon="-7.888510704040527">
        <ele>945.0</ele>
        <time>2019-05-01T10:27:51.000Z</time>
      </trkpt>
      <trkpt lat="42.657798767089844" lon="-7.888486385345459">
        <ele>945.0</ele>
        <time>2019-05-01T10:27:52.000Z</time>
      </trkpt>
      <trkpt lat="42.657798767089844" lon="-7.888454437255859">
        <ele>946.0</ele>
        <time>2019-05-01T10:27:54.000Z</time>
      </trkpt>
      <trkpt lat="42.65780258178711" lon="-7.8884196281433105">
        <ele>946.0</ele>
        <time>2019-05-01T10:27:56.000Z</time>
      </trkpt>
      <trkpt lat="42.65782928466797" lon="-7.888391017913818">
        <ele>946.0</ele>
        <time>2019-05-01T10:27:58.000Z</time>
      </trkpt>
      <trkpt lat="42.65787124633789" lon="-7.888360977172852">
        <ele>946.0</ele>
        <time>2019-05-01T10:27:59.000Z</time>
      </trkpt>
      <trkpt lat="42.65791702270508" lon="-7.888330459594727">
        <ele>946.0</ele>
        <time>2019-05-01T10:28:01.000Z</time>
      </trkpt>
      <trkpt lat="42.6579704284668" lon="-7.888299465179443">
        <ele>946.0</ele>
        <time>2019-05-01T10:28:03.000Z</time>
      </trkpt>
      <trkpt lat="42.65800094604492" lon="-7.8882832527160645">
        <ele>946.0</ele>
        <time>2019-05-01T10:28:04.000Z</time>
      </trkpt>
      <trkpt lat="42.658023834228516" lon="-7.888272285461426">
        <ele>946.0</ele>
        <time>2019-05-01T10:28:05.000Z</time>
      </trkpt>
      <trkpt lat="42.65804672241211" lon="-7.888265132904053">
        <ele>946.0</ele>
        <time>2019-05-01T10:28:07.000Z</time>
      </trkpt>
      <trkpt lat="42.65806579589844" lon="-7.8882598876953125">
        <ele>947.0</ele>
        <time>2019-05-01T10:28:08.000Z</time>
      </trkpt>
      <trkpt lat="42.65813446044922" lon="-7.888274192810059">
        <ele>947.0</ele>
        <time>2019-05-01T10:28:21.000Z</time>
      </trkpt>
      <trkpt lat="42.65821075439453" lon="-7.888304710388184">
        <ele>947.0</ele>
        <time>2019-05-01T10:28:35.000Z</time>
      </trkpt>
      <trkpt lat="42.6583137512207" lon="-7.8882832527160645">
        <ele>947.0</ele>
        <time>2019-05-01T10:28:38.000Z</time>
      </trkpt>
      <trkpt lat="42.6584358215332" lon="-7.888241767883301">
        <ele>948.0</ele>
        <time>2019-05-01T10:28:42.000Z</time>
      </trkpt>
      <trkpt lat="42.65845489501953" lon="-7.8882246017456055">
        <ele>948.0</ele>
        <time>2019-05-01T10:28:44.000Z</time>
      </trkpt>
      <trkpt lat="42.65845489501953" lon="-7.888206481933594">
        <ele>948.0</ele>
        <time>2019-05-01T10:28:47.000Z</time>
      </trkpt>
      <trkpt lat="42.658447265625" lon="-7.888188362121582">
        <ele>949.0</ele>
        <time>2019-05-01T10:28:49.000Z</time>
      </trkpt>
      <trkpt lat="42.6584358215332" lon="-7.888169765472412">
        <ele>949.0</ele>
        <time>2019-05-01T10:28:52.000Z</time>
      </trkpt>
      <trkpt lat="42.658409118652344" lon="-7.888160705566406">
        <ele>949.0</ele>
        <time>2019-05-01T10:28:54.000Z</time>
      </trkpt>
      <trkpt lat="42.65836715698242" lon="-7.888155460357666">
        <ele>949.0</ele>
        <time>2019-05-01T10:28:56.000Z</time>
      </trkpt>
      <trkpt lat="42.6583137512207" lon="-7.888153076171875">
        <ele>950.0</ele>
        <time>2019-05-01T10:28:59.000Z</time>
      </trkpt>
      <trkpt lat="42.658260345458984" lon="-7.8881516456604">
        <ele>950.0</ele>
        <time>2019-05-01T10:29:01.000Z</time>
      </trkpt>
      <trkpt lat="42.65824890136719" lon="-7.888136863708496">
        <ele>950.0</ele>
        <time>2019-05-01T10:29:02.000Z</time>
      </trkpt>
      <trkpt lat="42.65824890136719" lon="-7.888118267059326">
        <ele>950.0</ele>
        <time>2019-05-01T10:29:04.000Z</time>
      </trkpt>
      <trkpt lat="42.65825653076172" lon="-7.888096809387207">
        <ele>950.0</ele>
        <time>2019-05-01T10:29:05.000Z</time>
      </trkpt>
      <trkpt lat="42.65827178955078" lon="-7.888073444366455">
        <ele>950.0</ele>
        <time>2019-05-01T10:29:07.000Z</time>
      </trkpt>
      <trkpt lat="42.658302307128906" lon="-7.8880743980407715">
        <ele>950.0</ele>
        <time>2019-05-01T10:29:08.000Z</time>
      </trkpt>
      <trkpt lat="42.65834045410156" lon="-7.888083457946777">
        <ele>950.0</ele>
        <time>2019-05-01T10:29:10.000Z</time>
      </trkpt>
      <trkpt lat="42.65838623046875" lon="-7.888097763061523">
        <ele>950.0</ele>
        <time>2019-05-01T10:29:11.000Z</time>
      </trkpt>
      <trkpt lat="42.65843963623047" lon="-7.888115406036377">
        <ele>950.0</ele>
        <time>2019-05-01T10:29:13.000Z</time>
      </trkpt>
      <trkpt lat="42.65846252441406" lon="-7.888123989105225">
        <ele>950.0</ele>
        <time>2019-05-01T10:29:15.000Z</time>
      </trkpt>
      <trkpt lat="42.65847396850586" lon="-7.888131618499756">
        <ele>951.0</ele>
        <time>2019-05-01T10:29:17.000Z</time>
      </trkpt>
      <trkpt lat="42.65848159790039" lon="-7.888139247894287">
        <ele>951.0</ele>
        <time>2019-05-01T10:29:19.000Z</time>
      </trkpt>
      <trkpt lat="42.65848922729492" lon="-7.88814640045166">
        <ele>951.0</ele>
        <time>2019-05-01T10:29:21.000Z</time>
      </trkpt>
      <trkpt lat="42.65848159790039" lon="-7.888142108917236">
        <ele>951.0</ele>
        <time>2019-05-01T10:29:23.000Z</time>
      </trkpt>
      <trkpt lat="42.65846252441406" lon="-7.888133525848389">
        <ele>950.0</ele>
        <time>2019-05-01T10:29:26.000Z</time>
      </trkpt>
      <trkpt lat="42.65843963623047" lon="-7.888121128082275">
        <ele>949.0</ele>
        <time>2019-05-01T10:29:28.000Z</time>
      </trkpt>
      <trkpt lat="42.65841293334961" lon="-7.8881072998046875">
        <ele>949.0</ele>
        <time>2019-05-01T10:29:31.000Z</time>
      </trkpt>
      <trkpt lat="42.65843200683594" lon="-7.88807487487793">
        <ele>949.0</ele>
        <time>2019-05-01T10:29:34.000Z</time>
      </trkpt>
      <trkpt lat="42.658470153808594" lon="-7.888032913208008">
        <ele>948.0</ele>
        <time>2019-05-01T10:29:37.000Z</time>
      </trkpt>
      <trkpt lat="42.65851974487305" lon="-7.887984752655029">
        <ele>948.0</ele>
        <time>2019-05-01T10:29:41.000Z</time>
      </trkpt>
      <trkpt lat="42.658573150634766" lon="-7.887933731079102">
        <ele>948.0</ele>
        <time>2019-05-01T10:29:44.000Z</time>
      </trkpt>
      <trkpt lat="42.65868377685547" lon="-7.887894153594971">
        <ele>949.0</ele>
        <time>2019-05-01T10:29:48.000Z</time>
      </trkpt>
      <trkpt lat="42.6588020324707" lon="-7.887876987457275">
        <ele>949.0</ele>
        <time>2019-05-01T10:29:53.000Z</time>
      </trkpt>
      <trkpt lat="42.658836364746094" lon="-7.887867450714111">
        <ele>950.0</ele>
        <time>2019-05-01T10:29:54.000Z</time>
      </trkpt>
      <trkpt lat="42.65886306762695" lon="-7.887860298156738">
        <ele>950.0</ele>
        <time>2019-05-01T10:29:55.000Z</time>
      </trkpt>
      <trkpt lat="42.65888595581055" lon="-7.887853622436523">
        <ele>950.0</ele>
        <time>2019-05-01T10:29:56.000Z</time>
      </trkpt>
      <trkpt lat="42.658905029296875" lon="-7.887847900390625">
        <ele>951.0</ele>
        <time>2019-05-01T10:29:57.000Z</time>
      </trkpt>
      <trkpt lat="42.658912658691406" lon="-7.887836456298828">
        <ele>951.0</ele>
        <time>2019-05-01T10:29:58.000Z</time>
      </trkpt>
      <trkpt lat="42.65890884399414" lon="-7.88782262802124">
        <ele>952.0</ele>
        <time>2019-05-01T10:29:59.000Z</time>
      </trkpt>
      <trkpt lat="42.65890121459961" lon="-7.887807369232178">
        <ele>952.0</ele>
        <time>2019-05-01T10:30:01.000Z</time>
      </trkpt>
      <trkpt lat="42.65889358520508" lon="-7.887792110443115">
        <ele>953.0</ele>
        <time>2019-05-01T10:30:02.000Z</time>
      </trkpt>
      <trkpt lat="42.65888214111328" lon="-7.887786865234375">
        <ele>953.0</ele>
        <time>2019-05-01T10:30:03.000Z</time>
      </trkpt>
      <trkpt lat="42.65886688232422" lon="-7.887784957885742">
        <ele>953.0</ele>
        <time>2019-05-01T10:30:04.000Z</time>
      </trkpt>
      <trkpt lat="42.658851623535156" lon="-7.887785911560059">
        <ele>953.0</ele>
        <time>2019-05-01T10:30:05.000Z</time>
      </trkpt>
      <trkpt lat="42.658836364746094" lon="-7.88778829574585">
        <ele>953.0</ele>
        <time>2019-05-01T10:30:06.000Z</time>
      </trkpt>
      <trkpt lat="42.65883255004883" lon="-7.887760639190674">
        <ele>953.0</ele>
        <time>2019-05-01T10:30:09.000Z</time>
      </trkpt>
      <trkpt lat="42.65883255004883" lon="-7.887722015380859">
        <ele>954.0</ele>
        <time>2019-05-01T10:30:12.000Z</time>
      </trkpt>
      <trkpt lat="42.658836364746094" lon="-7.887675762176514">
        <ele>954.0</ele>
        <time>2019-05-01T10:30:16.000Z</time>
      </trkpt>
      <trkpt lat="42.65884017944336" lon="-7.8876261711120605">
        <ele>955.0</ele>
        <time>2019-05-01T10:30:19.000Z</time>
      </trkpt>
      <trkpt lat="42.65884017944336" lon="-7.887610912322998">
        <ele>955.0</ele>
        <time>2019-05-01T10:30:19.000Z</time>
      </trkpt>
      <trkpt lat="42.658836364746094" lon="-7.887607097625732">
        <ele>955.0</ele>
        <time>2019-05-01T10:30:20.000Z</time>
      </trkpt>
      <trkpt lat="42.65883255004883" lon="-7.887609958648682">
        <ele>955.0</ele>
        <time>2019-05-01T10:30:20.000Z</time>
      </trkpt>
      <trkpt lat="42.65882873535156" lon="-7.887617111206055">
        <ele>955.0</ele>
        <time>2019-05-01T10:30:21.000Z</time>
      </trkpt>
      <trkpt lat="42.65882873535156" lon="-7.887619972229004">
        <ele>955.0</ele>
        <time>2019-05-01T10:30:22.000Z</time>
      </trkpt>
      <trkpt lat="42.65883255004883" lon="-7.887625694274902">
        <ele>955.0</ele>
        <time>2019-05-01T10:30:24.000Z</time>
      </trkpt>
      <trkpt lat="42.658836364746094" lon="-7.887632369995117">
        <ele>955.0</ele>
        <time>2019-05-01T10:30:25.000Z</time>
      </trkpt>
      <trkpt lat="42.65884017944336" lon="-7.887640476226807">
        <ele>955.0</ele>
        <time>2019-05-01T10:30:27.000Z</time>
      </trkpt>
      <trkpt lat="42.65884780883789" lon="-7.887639999389648">
        <ele>955.0</ele>
        <time>2019-05-01T10:30:40.000Z</time>
      </trkpt>
      <trkpt lat="42.65885543823242" lon="-7.887637615203857">
        <ele>954.0</ele>
        <time>2019-05-01T10:30:53.000Z</time>
      </trkpt>
      <trkpt lat="42.65886688232422" lon="-7.887632846832275">
        <ele>954.0</ele>
        <time>2019-05-01T10:31:06.000Z</time>
      </trkpt>
      <trkpt lat="42.658878326416016" lon="-7.887627601623535">
        <ele>953.0</ele>
        <time>2019-05-01T10:31:19.000Z</time>
      </trkpt>
      <trkpt lat="42.65888977050781" lon="-7.887625217437744">
        <ele>953.0</ele>
        <time>2019-05-01T10:31:19.000Z</time>
      </trkpt>
      <trkpt lat="42.65889358520508" lon="-7.887623310089111">
        <ele>953.0</ele>
        <time>2019-05-01T10:31:19.000Z</time>
      </trkpt>
      <trkpt lat="42.65890121459961" lon="-7.88762092590332">
        <ele>953.0</ele>
        <time>2019-05-01T10:31:20.000Z</time>
      </trkpt>
      <trkpt lat="42.65890884399414" lon="-7.8876190185546875">
        <ele>953.0</ele>
        <time>2019-05-01T10:31:20.000Z</time>
      </trkpt>
      <trkpt lat="42.65896987915039" lon="-7.887599468231201">
        <ele>952.0</ele>
        <time>2019-05-01T10:31:24.000Z</time>
      </trkpt>
      <trkpt lat="42.65904998779297" lon="-7.887572288513184">
        <ele>952.0</ele>
        <time>2019-05-01T10:31:28.000Z</time>
      </trkpt>
      <trkpt lat="42.659149169921875" lon="-7.887540340423584">
        <ele>951.0</ele>
        <time>2019-05-01T10:31:32.000Z</time>
      </trkpt>
      <trkpt lat="42.65925598144531" lon="-7.887505531311035">
        <ele>950.0</ele>
        <time>2019-05-01T10:31:36.000Z</time>
      </trkpt>
      <trkpt lat="42.6593132019043" lon="-7.887482643127441">
        <ele>950.0</ele>
        <time>2019-05-01T10:31:39.000Z</time>
      </trkpt>
      <trkpt lat="42.65936279296875" lon="-7.887462139129639">
        <ele>950.0</ele>
        <time>2019-05-01T10:31:43.000Z</time>
      </trkpt>
      <trkpt lat="42.659400939941406" lon="-7.887442588806152">
        <ele>950.0</ele>
        <time>2019-05-01T10:31:46.000Z</time>
      </trkpt>
      <trkpt lat="42.6594352722168" lon="-7.887424468994141">
        <ele>951.0</ele>
        <time>2019-05-01T10:31:50.000Z</time>
      </trkpt>
      <trkpt lat="42.659481048583984" lon="-7.887406349182129">
        <ele>950.0</ele>
        <time>2019-05-01T10:31:54.000Z</time>
      </trkpt>
      <trkpt lat="42.65953063964844" lon="-7.887389659881592">
        <ele>950.0</ele>
        <time>2019-05-01T10:31:58.000Z</time>
      </trkpt>
      <trkpt lat="42.659576416015625" lon="-7.887373924255371">
        <ele>949.0</ele>
        <time>2019-05-01T10:32:02.000Z</time>
      </trkpt>
      <trkpt lat="42.65962219238281" lon="-7.88735818862915">
        <ele>948.0</ele>
        <time>2019-05-01T10:32:06.000Z</time>
      </trkpt>
      <trkpt lat="42.65966796875" lon="-7.887340545654297">
        <ele>948.0</ele>
        <time>2019-05-01T10:32:10.000Z</time>
      </trkpt>
      <trkpt lat="42.65971374511719" lon="-7.887321949005127">
        <ele>947.0</ele>
        <time>2019-05-01T10:32:13.000Z</time>
      </trkpt>
      <trkpt lat="42.65976333618164" lon="-7.887303352355957">
        <ele>946.0</ele>
        <time>2019-05-01T10:32:17.000Z</time>
      </trkpt>
      <trkpt lat="42.65980911254883" lon="-7.887284278869629">
        <ele>946.0</ele>
        <time>2019-05-01T10:32:21.000Z</time>
      </trkpt>
      <trkpt lat="42.65999221801758" lon="-7.887203693389893">
        <ele>945.0</ele>
        <time>2019-05-01T10:32:36.000Z</time>
      </trkpt>
      <trkpt lat="42.66016387939453" lon="-7.887137413024902">
        <ele>944.0</ele>
        <time>2019-05-01T10:32:53.000Z</time>
      </trkpt>
      <trkpt lat="42.66032791137695" lon="-7.887014865875244">
        <ele>942.0</ele>
        <time>2019-05-01T10:33:07.000Z</time>
      </trkpt>
      <trkpt lat="42.66046142578125" lon="-7.886857509613037">
        <ele>939.0</ele>
        <time>2019-05-01T10:33:26.000Z</time>
      </trkpt>
      <trkpt lat="42.660640716552734" lon="-7.886756896972656">
        <ele>940.0</ele>
        <time>2019-05-01T10:33:38.000Z</time>
      </trkpt>
      <trkpt lat="42.66074752807617" lon="-7.886659622192383">
        <ele>940.0</ele>
        <time>2019-05-01T10:33:44.000Z</time>
      </trkpt>
      <trkpt lat="42.660762786865234" lon="-7.886655330657959">
        <ele>940.0</ele>
        <time>2019-05-01T10:33:47.000Z</time>
      </trkpt>
      <trkpt lat="42.66077423095703" lon="-7.886659145355225">
        <ele>940.0</ele>
        <time>2019-05-01T10:33:50.000Z</time>
      </trkpt>
      <trkpt lat="42.66078186035156" lon="-7.886668682098389">
        <ele>940.0</ele>
        <time>2019-05-01T10:33:54.000Z</time>
      </trkpt>
      <trkpt lat="42.66078567504883" lon="-7.886681079864502">
        <ele>941.0</ele>
        <time>2019-05-01T10:33:57.000Z</time>
      </trkpt>
      <trkpt lat="42.66080093383789" lon="-7.8866753578186035">
        <ele>942.0</ele>
        <time>2019-05-01T10:34:12.000Z</time>
      </trkpt>
      <trkpt lat="42.66081237792969" lon="-7.886665344238281">
        <ele>945.0</ele>
        <time>2019-05-01T10:34:27.000Z</time>
      </trkpt>
      <trkpt lat="42.66082763671875" lon="-7.886651992797852">
        <ele>947.0</ele>
        <time>2019-05-01T10:34:43.000Z</time>
      </trkpt>
      <trkpt lat="42.66084289550781" lon="-7.8866376876831055">
        <ele>950.0</ele>
        <time>2019-05-01T10:34:58.000Z</time>
      </trkpt>
      <trkpt lat="42.660850524902344" lon="-7.886629581451416">
        <ele>951.0</ele>
        <time>2019-05-01T10:34:58.000Z</time>
      </trkpt>
      <trkpt lat="42.66086196899414" lon="-7.886622428894043">
        <ele>951.0</ele>
        <time>2019-05-01T10:34:58.000Z</time>
      </trkpt>
      <trkpt lat="42.66086959838867" lon="-7.886616230010986">
        <ele>951.0</ele>
        <time>2019-05-01T10:34:59.000Z</time>
      </trkpt>
      <trkpt lat="42.6608772277832" lon="-7.88661003112793">
        <ele>950.0</ele>
        <time>2019-05-01T10:34:59.000Z</time>
      </trkpt>
      <trkpt lat="42.660919189453125" lon="-7.886585712432861">
        <ele>951.0</ele>
        <time>2019-05-01T10:35:01.000Z</time>
      </trkpt>
      <trkpt lat="42.660980224609375" lon="-7.88655424118042">
        <ele>952.0</ele>
        <time>2019-05-01T10:35:04.000Z</time>
      </trkpt>
      <trkpt lat="42.661048889160156" lon="-7.8865180015563965">
        <ele>953.0</ele>
        <time>2019-05-01T10:35:06.000Z</time>
      </trkpt>
      <trkpt lat="42.66112518310547" lon="-7.886478900909424">
        <ele>955.0</ele>
        <time>2019-05-01T10:35:09.000Z</time>
      </trkpt>
      <trkpt lat="42.661163330078125" lon="-7.886459827423096">
        <ele>956.0</ele>
        <time>2019-05-01T10:35:12.000Z</time>
      </trkpt>
      <trkpt lat="42.66119384765625" lon="-7.886445999145508">
        <ele>957.0</ele>
        <time>2019-05-01T10:35:15.000Z</time>
      </trkpt>
      <trkpt lat="42.66122055053711" lon="-7.886436462402344">
        <ele>957.0</ele>
        <time>2019-05-01T10:35:18.000Z</time>
      </trkpt>
      <trkpt lat="42.66123962402344" lon="-7.886428356170654">
        <ele>958.0</ele>
        <time>2019-05-01T10:35:21.000Z</time>
      </trkpt>
      <trkpt lat="42.6612548828125" lon="-7.8864216804504395">
        <ele>958.0</ele>
        <time>2019-05-01T10:35:21.000Z</time>
      </trkpt>
      <trkpt lat="42.6612663269043" lon="-7.886417865753174">
        <ele>959.0</ele>
        <time>2019-05-01T10:35:21.000Z</time>
      </trkpt>
      <trkpt lat="42.66127014160156" lon="-7.886415481567383">
        <ele>958.0</ele>
        <time>2019-05-01T10:35:22.000Z</time>
      </trkpt>
      <trkpt lat="42.66127395629883" lon="-7.88641357421875">
        <ele>958.0</ele>
        <time>2019-05-01T10:35:22.000Z</time>
      </trkpt>
      <trkpt lat="42.661338806152344" lon="-7.886405944824219">
        <ele>958.0</ele>
        <time>2019-05-01T10:35:28.000Z</time>
      </trkpt>
      <trkpt lat="42.66142654418945" lon="-7.8863959312438965">
        <ele>959.0</ele>
        <time>2019-05-01T10:35:34.000Z</time>
      </trkpt>
      <trkpt lat="42.66152572631836" lon="-7.886384963989258">
        <ele>959.0</ele>
        <time>2019-05-01T10:35:40.000Z</time>
      </trkpt>
      <trkpt lat="42.66163635253906" lon="-7.886373043060303">
        <ele>960.0</ele>
        <time>2019-05-01T10:35:46.000Z</time>
      </trkpt>
      <trkpt lat="42.661991119384766" lon="-7.8864850997924805">
        <ele>959.0</ele>
        <time>2019-05-01T10:36:17.000Z</time>
      </trkpt>
      <trkpt lat="42.66231918334961" lon="-7.8866095542907715">
        <ele>955.0</ele>
        <time>2019-05-01T10:36:41.000Z</time>
      </trkpt>
      <trkpt lat="42.66267395019531" lon="-7.886602401733398">
        <ele>956.0</ele>
        <time>2019-05-01T10:37:08.000Z</time>
      </trkpt>
      <trkpt lat="42.66303253173828" lon="-7.886559009552002">
        <ele>957.0</ele>
        <time>2019-05-01T10:37:36.000Z</time>
      </trkpt>
      <trkpt lat="42.66339111328125" lon="-7.886516571044922">
        <ele>956.0</ele>
        <time>2019-05-01T10:38:09.000Z</time>
      </trkpt>
      <trkpt lat="42.66355895996094" lon="-7.886516571044922">
        <ele>952.0</ele>
        <time>2019-05-01T10:38:21.000Z</time>
      </trkpt>
      <trkpt lat="42.66360092163086" lon="-7.8865461349487305">
        <ele>950.0</ele>
        <time>2019-05-01T10:38:26.000Z</time>
      </trkpt>
      <trkpt lat="42.663639068603516" lon="-7.886587619781494">
        <ele>949.0</ele>
        <time>2019-05-01T10:38:30.000Z</time>
      </trkpt>
      <trkpt lat="42.66368103027344" lon="-7.8866376876831055">
        <ele>948.0</ele>
        <time>2019-05-01T10:38:35.000Z</time>
      </trkpt>
      <trkpt lat="42.66372299194336" lon="-7.886691570281982">
        <ele>947.0</ele>
        <time>2019-05-01T10:38:40.000Z</time>
      </trkpt>
      <trkpt lat="42.66378402709961" lon="-7.886755466461182">
        <ele>944.0</ele>
        <time>2019-05-01T10:38:48.000Z</time>
      </trkpt>
      <trkpt lat="42.663848876953125" lon="-7.886826992034912">
        <ele>941.0</ele>
        <time>2019-05-01T10:38:56.000Z</time>
      </trkpt>
      <trkpt lat="42.66392135620117" lon="-7.886904239654541">
        <ele>938.0</ele>
        <time>2019-05-01T10:39:05.000Z</time>
      </trkpt>
      <trkpt lat="42.66399383544922" lon="-7.886984348297119">
        <ele>935.0</ele>
        <time>2019-05-01T10:39:13.000Z</time>
      </trkpt>
      <trkpt lat="42.66416549682617" lon="-7.887047290802002">
        <ele>931.0</ele>
        <time>2019-05-01T10:39:27.000Z</time>
      </trkpt>
      <trkpt lat="42.66435241699219" lon="-7.8870720863342285">
        <ele>929.0</ele>
        <time>2019-05-01T10:39:41.000Z</time>
      </trkpt>
      <trkpt lat="42.664527893066406" lon="-7.887032985687256">
        <ele>926.0</ele>
        <time>2019-05-01T10:39:58.000Z</time>
      </trkpt>
      <trkpt lat="42.66469955444336" lon="-7.886955738067627">
        <ele>923.0</ele>
        <time>2019-05-01T10:40:15.000Z</time>
      </trkpt>
      <trkpt lat="42.66476821899414" lon="-7.886931419372559">
        <ele>922.0</ele>
        <time>2019-05-01T10:40:21.000Z</time>
      </trkpt>
      <trkpt lat="42.664833068847656" lon="-7.886908531188965">
        <ele>921.0</ele>
        <time>2019-05-01T10:40:26.000Z</time>
      </trkpt>
      <trkpt lat="42.66489028930664" lon="-7.886887073516846">
        <ele>920.0</ele>
        <time>2019-05-01T10:40:32.000Z</time>
      </trkpt>
      <trkpt lat="42.664947509765625" lon="-7.886866092681885">
        <ele>919.0</ele>
        <time>2019-05-01T10:40:38.000Z</time>
      </trkpt>
      <trkpt lat="42.6650276184082" lon="-7.886837482452393">
        <ele>917.0</ele>
        <time>2019-05-01T10:40:46.000Z</time>
      </trkpt>
      <trkpt lat="42.66511154174805" lon="-7.886806011199951">
        <ele>916.0</ele>
        <time>2019-05-01T10:40:54.000Z</time>
      </trkpt>
      <trkpt lat="42.66520309448242" lon="-7.886772632598877">
        <ele>914.0</ele>
        <time>2019-05-01T10:41:03.000Z</time>
      </trkpt>
      <trkpt lat="42.6652946472168" lon="-7.8867387771606445">
        <ele>913.0</ele>
        <time>2019-05-01T10:41:11.000Z</time>
      </trkpt>
      <trkpt lat="42.66537857055664" lon="-7.8866987228393555">
        <ele>913.0</ele>
        <time>2019-05-01T10:41:18.000Z</time>
      </trkpt>
      <trkpt lat="42.665462493896484" lon="-7.886655330657959">
        <ele>912.0</ele>
        <time>2019-05-01T10:41:25.000Z</time>
      </trkpt>
      <trkpt lat="42.66554260253906" lon="-7.8866095542907715">
        <ele>912.0</ele>
        <time>2019-05-01T10:41:32.000Z</time>
      </trkpt>
      <trkpt lat="42.665626525878906" lon="-7.886562824249268">
        <ele>912.0</ele>
        <time>2019-05-01T10:41:39.000Z</time>
      </trkpt>
      <trkpt lat="42.66571044921875" lon="-7.886541366577148">
        <ele>912.0</ele>
        <time>2019-05-01T10:41:48.000Z</time>
      </trkpt>
      <trkpt lat="42.66579818725586" lon="-7.886529922485352">
        <ele>912.0</ele>
        <time>2019-05-01T10:41:57.000Z</time>
      </trkpt>
      <trkpt lat="42.66588592529297" lon="-7.886524200439453">
        <ele>912.0</ele>
        <time>2019-05-01T10:42:06.000Z</time>
      </trkpt>
      <trkpt lat="42.66597366333008" lon="-7.886521816253662">
        <ele>912.0</ele>
        <time>2019-05-01T10:42:15.000Z</time>
      </trkpt>
      <trkpt lat="42.6660270690918" lon="-7.886521816253662">
        <ele>912.0</ele>
        <time>2019-05-01T10:42:18.000Z</time>
      </trkpt>
      <trkpt lat="42.66606140136719" lon="-7.886525630950928">
        <ele>912.0</ele>
        <time>2019-05-01T10:42:21.000Z</time>
      </trkpt>
      <trkpt lat="42.66609191894531" lon="-7.886532306671143">
        <ele>911.0</ele>
        <time>2019-05-01T10:42:25.000Z</time>
      </trkpt>
      <trkpt lat="42.66611099243164" lon="-7.886540412902832">
        <ele>911.0</ele>
        <time>2019-05-01T10:42:28.000Z</time>
      </trkpt>
      <trkpt lat="42.66619873046875" lon="-7.886617660522461">
        <ele>911.0</ele>
        <time>2019-05-01T10:42:39.000Z</time>
      </trkpt>
      <trkpt lat="42.66629409790039" lon="-7.8867268562316895">
        <ele>910.0</ele>
        <time>2019-05-01T10:42:51.000Z</time>
      </trkpt>
      <trkpt lat="42.666343688964844" lon="-7.88680362701416">
        <ele>909.0</ele>
        <time>2019-05-01T10:42:59.000Z</time>
      </trkpt>
      <trkpt lat="42.66640090942383" lon="-7.886893272399902">
        <ele>908.0</ele>
        <time>2019-05-01T10:43:07.000Z</time>
      </trkpt>
      <trkpt lat="42.66645812988281" lon="-7.88699197769165">
        <ele>906.0</ele>
        <time>2019-05-01T10:43:15.000Z</time>
      </trkpt>
      <trkpt lat="42.6665153503418" lon="-7.887094497680664">
        <ele>904.0</ele>
        <time>2019-05-01T10:43:23.000Z</time>
      </trkpt>
      <trkpt lat="42.66655349731445" lon="-7.887320518493652">
        <ele>899.0</ele>
        <time>2019-05-01T10:43:39.000Z</time>
      </trkpt>
      <trkpt lat="42.66655731201172" lon="-7.887566566467285">
        <ele>895.0</ele>
        <time>2019-05-01T10:43:56.000Z</time>
      </trkpt>
      <trkpt lat="42.66655731201172" lon="-7.887685298919678">
        <ele>893.0</ele>
        <time>2019-05-01T10:44:04.000Z</time>
      </trkpt>
      <trkpt lat="42.66654968261719" lon="-7.8878045082092285">
        <ele>891.0</ele>
        <time>2019-05-01T10:44:11.000Z</time>
      </trkpt>
      <trkpt lat="42.666542053222656" lon="-7.887923717498779">
        <ele>889.0</ele>
        <time>2019-05-01T10:44:19.000Z</time>
      </trkpt>
      <trkpt lat="42.66653060913086" lon="-7.888043403625488">
        <ele>887.0</ele>
        <time>2019-05-01T10:44:27.000Z</time>
      </trkpt>
      <trkpt lat="42.666595458984375" lon="-7.888254165649414">
        <ele>886.0</ele>
        <time>2019-05-01T10:44:43.000Z</time>
      </trkpt>
      <trkpt lat="42.666690826416016" lon="-7.888452529907227">
        <ele>886.0</ele>
        <time>2019-05-01T10:45:00.000Z</time>
      </trkpt>
      <trkpt lat="42.666744232177734" lon="-7.8885498046875">
        <ele>886.0</ele>
        <time>2019-05-01T10:45:07.000Z</time>
      </trkpt>
      <trkpt lat="42.66680145263672" lon="-7.888644695281982">
        <ele>886.0</ele>
        <time>2019-05-01T10:45:14.000Z</time>
      </trkpt>
      <trkpt lat="42.66686248779297" lon="-7.88873815536499">
        <ele>886.0</ele>
        <time>2019-05-01T10:45:22.000Z</time>
      </trkpt>
      <trkpt lat="42.66692352294922" lon="-7.888830661773682">
        <ele>887.0</ele>
        <time>2019-05-01T10:45:29.000Z</time>
      </trkpt>
      <trkpt lat="42.666988372802734" lon="-7.888914585113525">
        <ele>887.0</ele>
        <time>2019-05-01T10:45:38.000Z</time>
      </trkpt>
      <trkpt lat="42.667057037353516" lon="-7.888994216918945">
        <ele>887.0</ele>
        <time>2019-05-01T10:45:46.000Z</time>
      </trkpt>
      <trkpt lat="42.66712951660156" lon="-7.889070510864258">
        <ele>888.0</ele>
        <time>2019-05-01T10:45:54.000Z</time>
      </trkpt>
      <trkpt lat="42.667198181152344" lon="-7.889145374298096">
        <ele>888.0</ele>
        <time>2019-05-01T10:46:02.000Z</time>
      </trkpt>
      <trkpt lat="42.667274475097656" lon="-7.889213562011719">
        <ele>887.0</ele>
        <time>2019-05-01T10:46:10.000Z</time>
      </trkpt>
      <trkpt lat="42.66735076904297" lon="-7.88927698135376">
        <ele>886.0</ele>
        <time>2019-05-01T10:46:17.000Z</time>
      </trkpt>
      <trkpt lat="42.66742706298828" lon="-7.889337539672852">
        <ele>885.0</ele>
        <time>2019-05-01T10:46:25.000Z</time>
      </trkpt>
      <trkpt lat="42.66750717163086" lon="-7.889396667480469">
        <ele>884.0</ele>
        <time>2019-05-01T10:46:33.000Z</time>
      </trkpt>
      <trkpt lat="42.66761779785156" lon="-7.889582633972168">
        <ele>881.0</ele>
        <time>2019-05-01T10:46:49.000Z</time>
      </trkpt>
      <trkpt lat="42.66770935058594" lon="-7.889796257019043">
        <ele>877.0</ele>
        <time>2019-05-01T10:47:06.000Z</time>
      </trkpt>
      <trkpt lat="42.66774368286133" lon="-7.890031337738037">
        <ele>875.0</ele>
        <time>2019-05-01T10:47:18.000Z</time>
      </trkpt>
      <trkpt lat="42.66775131225586" lon="-7.89028263092041">
        <ele>874.0</ele>
        <time>2019-05-01T10:47:31.000Z</time>
      </trkpt>
      <trkpt lat="42.66775894165039" lon="-7.8903656005859375">
        <ele>874.0</ele>
        <time>2019-05-01T10:47:35.000Z</time>
      </trkpt>
      <trkpt lat="42.66776657104492" lon="-7.890432357788086">
        <ele>875.0</ele>
        <time>2019-05-01T10:47:38.000Z</time>
      </trkpt>
      <trkpt lat="42.66777420043945" lon="-7.890488624572754">
        <ele>875.0</ele>
        <time>2019-05-01T10:47:42.000Z</time>
      </trkpt>
      <trkpt lat="42.66777801513672" lon="-7.890539169311523">
        <ele>876.0</ele>
        <time>2019-05-01T10:47:45.000Z</time>
      </trkpt>
      <trkpt lat="42.66778564453125" lon="-7.890638828277588">
        <ele>875.0</ele>
        <time>2019-05-01T10:47:53.000Z</time>
      </trkpt>
      <trkpt lat="42.66779708862305" lon="-7.890753269195557">
        <ele>874.0</ele>
        <time>2019-05-01T10:48:01.000Z</time>
      </trkpt>
      <trkpt lat="42.667808532714844" lon="-7.890877723693848">
        <ele>873.0</ele>
        <time>2019-05-01T10:48:08.000Z</time>
      </trkpt>
      <trkpt lat="42.66781997680664" lon="-7.891006946563721">
        <ele>872.0</ele>
        <time>2019-05-01T10:48:16.000Z</time>
      </trkpt>
      <trkpt lat="42.66783142089844" lon="-7.8911261558532715">
        <ele>870.0</ele>
        <time>2019-05-01T10:48:23.000Z</time>
      </trkpt>
      <trkpt lat="42.66783905029297" lon="-7.8912458419799805">
        <ele>869.0</ele>
        <time>2019-05-01T10:48:30.000Z</time>
      </trkpt>
      <trkpt lat="42.667850494384766" lon="-7.891366481781006">
        <ele>868.0</ele>
        <time>2019-05-01T10:48:36.000Z</time>
      </trkpt>
      <trkpt lat="42.6678581237793" lon="-7.891487121582031">
        <ele>867.0</ele>
        <time>2019-05-01T10:48:43.000Z</time>
      </trkpt>
      <trkpt lat="42.66787338256836" lon="-7.89158296585083">
        <ele>867.0</ele>
        <time>2019-05-01T10:48:49.000Z</time>
      </trkpt>
      <trkpt lat="42.66788864135742" lon="-7.891668796539307">
        <ele>868.0</ele>
        <time>2019-05-01T10:48:54.000Z</time>
      </trkpt>
      <trkpt lat="42.667903900146484" lon="-7.891747951507568">
        <ele>869.0</ele>
        <time>2019-05-01T10:49:00.000Z</time>
      </trkpt>
      <trkpt lat="42.66792297363281" lon="-7.8918232917785645">
        <ele>870.0</ele>
        <time>2019-05-01T10:49:05.000Z</time>
      </trkpt>
      <trkpt lat="42.667972564697266" lon="-7.891820430755615">
        <ele>871.0</ele>
        <time>2019-05-01T10:49:12.000Z</time>
      </trkpt>
      <trkpt lat="42.66804122924805" lon="-7.891780853271484">
        <ele>871.0</ele>
        <time>2019-05-01T10:49:18.000Z</time>
      </trkpt>
      <trkpt lat="42.66811752319336" lon="-7.891716957092285">
        <ele>872.0</ele>
        <time>2019-05-01T10:49:25.000Z</time>
      </trkpt>
      <trkpt lat="42.6682014465332" lon="-7.891641139984131">
        <ele>872.0</ele>
        <time>2019-05-01T10:49:31.000Z</time>
      </trkpt>
      <trkpt lat="42.668277740478516" lon="-7.891587257385254">
        <ele>873.0</ele>
        <time>2019-05-01T10:49:38.000Z</time>
      </trkpt>
      <trkpt lat="42.668357849121094" lon="-7.8915300369262695">
        <ele>873.0</ele>
        <time>2019-05-01T10:49:45.000Z</time>
      </trkpt>
      <trkpt lat="42.66843795776367" lon="-7.891470909118652">
        <ele>874.0</ele>
        <time>2019-05-01T10:49:52.000Z</time>
      </trkpt>
      <trkpt lat="42.66851806640625" lon="-7.8914103507995605">
        <ele>875.0</ele>
        <time>2019-05-01T10:49:59.000Z</time>
      </trkpt>
      <trkpt lat="42.66860580444336" lon="-7.891377925872803">
        <ele>876.0</ele>
        <time>2019-05-01T10:50:06.000Z</time>
      </trkpt>
      <trkpt lat="42.6686897277832" lon="-7.891355991363525">
        <ele>877.0</ele>
        <time>2019-05-01T10:50:13.000Z</time>
      </trkpt>
      <trkpt lat="42.66877746582031" lon="-7.891341209411621">
        <ele>879.0</ele>
        <time>2019-05-01T10:50:20.000Z</time>
      </trkpt>
      <trkpt lat="42.66886901855469" lon="-7.891329765319824">
        <ele>880.0</ele>
        <time>2019-05-01T10:50:27.000Z</time>
      </trkpt>
      <trkpt lat="42.669036865234375" lon="-7.8913774490356445">
        <ele>880.0</ele>
        <time>2019-05-01T10:50:42.000Z</time>
      </trkpt>
      <trkpt lat="42.6692008972168" lon="-7.891465663909912">
        <ele>880.0</ele>
        <time>2019-05-01T10:50:57.000Z</time>
      </trkpt>
      <trkpt lat="42.669281005859375" lon="-7.891519069671631">
        <ele>879.0</ele>
        <time>2019-05-01T10:51:05.000Z</time>
      </trkpt>
      <trkpt lat="42.66935729980469" lon="-7.891580104827881">
        <ele>878.0</ele>
        <time>2019-05-01T10:51:13.000Z</time>
      </trkpt>
      <trkpt lat="42.66943359375" lon="-7.891646385192871">
        <ele>877.0</ele>
        <time>2019-05-01T10:51:21.000Z</time>
      </trkpt>
      <trkpt lat="42.66950988769531" lon="-7.8917155265808105">
        <ele>876.0</ele>
        <time>2019-05-01T10:51:29.000Z</time>
      </trkpt>
      <trkpt lat="42.669586181640625" lon="-7.891778469085693">
        <ele>876.0</ele>
        <time>2019-05-01T10:51:37.000Z</time>
      </trkpt>
      <trkpt lat="42.66966247558594" lon="-7.891841411590576">
        <ele>876.0</ele>
        <time>2019-05-01T10:51:44.000Z</time>
      </trkpt>
      <trkpt lat="42.669734954833984" lon="-7.891904830932617">
        <ele>877.0</ele>
        <time>2019-05-01T10:51:52.000Z</time>
      </trkpt>
      <trkpt lat="42.6698112487793" lon="-7.891968250274658">
        <ele>877.0</ele>
        <time>2019-05-01T10:51:59.000Z</time>
      </trkpt>
      <trkpt lat="42.669891357421875" lon="-7.892016410827637">
        <ele>877.0</ele>
        <time>2019-05-01T10:52:07.000Z</time>
      </trkpt>
      <trkpt lat="42.66997528076172" lon="-7.892058849334717">
        <ele>877.0</ele>
        <time>2019-05-01T10:52:14.000Z</time>
      </trkpt>
      <trkpt lat="42.67005920410156" lon="-7.892096996307373">
        <ele>877.0</ele>
        <time>2019-05-01T10:52:22.000Z</time>
      </trkpt>
      <trkpt lat="42.67014694213867" lon="-7.8921332359313965">
        <ele>876.0</ele>
        <time>2019-05-01T10:52:29.000Z</time>
      </trkpt>
      <trkpt lat="42.670230865478516" lon="-7.892161846160889">
        <ele>877.0</ele>
        <time>2019-05-01T10:52:36.000Z</time>
      </trkpt>
      <trkpt lat="42.670318603515625" lon="-7.892184734344482">
        <ele>878.0</ele>
        <time>2019-05-01T10:52:43.000Z</time>
      </trkpt>
      <trkpt lat="42.670406341552734" lon="-7.8922038078308105">
        <ele>879.0</ele>
        <time>2019-05-01T10:52:50.000Z</time>
      </trkpt>
      <trkpt lat="42.670494079589844" lon="-7.892221450805664">
        <ele>880.0</ele>
        <time>2019-05-01T10:52:57.000Z</time>
      </trkpt>
      <trkpt lat="42.67058181762695" lon="-7.89223575592041">
        <ele>880.0</ele>
        <time>2019-05-01T10:53:05.000Z</time>
      </trkpt>
      <trkpt lat="42.67066955566406" lon="-7.892246723175049">
        <ele>879.0</ele>
        <time>2019-05-01T10:53:14.000Z</time>
      </trkpt>
      <trkpt lat="42.67075729370117" lon="-7.8922553062438965">
        <ele>878.0</ele>
        <time>2019-05-01T10:53:22.000Z</time>
      </trkpt>
      <trkpt lat="42.67084884643555" lon="-7.892262935638428">
        <ele>877.0</ele>
        <time>2019-05-01T10:53:30.000Z</time>
      </trkpt>
      <trkpt lat="42.67121124267578" lon="-7.892190933227539">
        <ele>874.0</ele>
        <time>2019-05-01T10:54:04.000Z</time>
      </trkpt>
      <trkpt lat="42.67130661010742" lon="-7.892195224761963">
        <ele>874.0</ele>
        <time>2019-05-01T10:54:21.000Z</time>
      </trkpt>
      <trkpt lat="42.671329498291016" lon="-7.892186164855957">
        <ele>873.0</ele>
        <time>2019-05-01T10:54:42.000Z</time>
      </trkpt>
      <trkpt lat="42.67134475708008" lon="-7.892172336578369">
        <ele>872.0</ele>
        <time>2019-05-01T10:55:03.000Z</time>
      </trkpt>
      <trkpt lat="42.67135238647461" lon="-7.892167568206787">
        <ele>872.0</ele>
        <time>2019-05-01T10:55:03.000Z</time>
      </trkpt>
      <trkpt lat="42.67136001586914" lon="-7.8921637535095215">
        <ele>872.0</ele>
        <time>2019-05-01T10:55:04.000Z</time>
      </trkpt>
      <trkpt lat="42.671363830566406" lon="-7.892160415649414">
        <ele>872.0</ele>
        <time>2019-05-01T10:55:04.000Z</time>
      </trkpt>
      <trkpt lat="42.67137145996094" lon="-7.892157077789307">
        <ele>872.0</ele>
        <time>2019-05-01T10:55:04.000Z</time>
      </trkpt>
      <trkpt lat="42.671390533447266" lon="-7.892141819000244">
        <ele>872.0</ele>
        <time>2019-05-01T10:55:06.000Z</time>
      </trkpt>
      <trkpt lat="42.67141342163086" lon="-7.892120838165283">
        <ele>872.0</ele>
        <time>2019-05-01T10:55:08.000Z</time>
      </trkpt>
      <trkpt lat="42.671443939208984" lon="-7.892096996307373">
        <ele>872.0</ele>
        <time>2019-05-01T10:55:10.000Z</time>
      </trkpt>
      <trkpt lat="42.67147445678711" lon="-7.89207124710083">
        <ele>873.0</ele>
        <time>2019-05-01T10:55:12.000Z</time>
      </trkpt>
      <trkpt lat="42.671485900878906" lon="-7.892069339752197">
        <ele>872.0</ele>
        <time>2019-05-01T10:55:26.000Z</time>
      </trkpt>
      <trkpt lat="42.67148971557617" lon="-7.892075538635254">
        <ele>872.0</ele>
        <time>2019-05-01T10:55:40.000Z</time>
      </trkpt>
      <trkpt lat="42.67148971557617" lon="-7.892087459564209">
        <ele>871.0</ele>
        <time>2019-05-01T10:55:54.000Z</time>
      </trkpt>
      <trkpt lat="42.671485900878906" lon="-7.892101764678955">
        <ele>871.0</ele>
        <time>2019-05-01T10:56:08.000Z</time>
      </trkpt>
      <trkpt lat="42.67148971557617" lon="-7.89210844039917">
        <ele>871.0</ele>
        <time>2019-05-01T10:56:08.000Z</time>
      </trkpt>
      <trkpt lat="42.67149353027344" lon="-7.892114162445068">
        <ele>871.0</ele>
        <time>2019-05-01T10:56:09.000Z</time>
      </trkpt>
      <trkpt lat="42.67149353027344" lon="-7.892119884490967">
        <ele>871.0</ele>
        <time>2019-05-01T10:56:09.000Z</time>
      </trkpt>
      <trkpt lat="42.6714973449707" lon="-7.892125606536865">
        <ele>871.0</ele>
        <time>2019-05-01T10:56:09.000Z</time>
      </trkpt>
      <trkpt lat="42.671531677246094" lon="-7.892190456390381">
        <ele>871.0</ele>
        <time>2019-05-01T10:56:13.000Z</time>
      </trkpt>
      <trkpt lat="42.67157745361328" lon="-7.892280101776123">
        <ele>870.0</ele>
        <time>2019-05-01T10:56:17.000Z</time>
      </trkpt>
      <trkpt lat="42.671634674072266" lon="-7.892386436462402">
        <ele>870.0</ele>
        <time>2019-05-01T10:56:21.000Z</time>
      </trkpt>
      <trkpt lat="42.671695709228516" lon="-7.892500400543213">
        <ele>869.0</ele>
        <time>2019-05-01T10:56:25.000Z</time>
      </trkpt>
      <trkpt lat="42.67174530029297" lon="-7.89259672164917">
        <ele>868.0</ele>
        <time>2019-05-01T10:56:32.000Z</time>
      </trkpt>
      <trkpt lat="42.67179870605469" lon="-7.892693519592285">
        <ele>868.0</ele>
        <time>2019-05-01T10:56:40.000Z</time>
      </trkpt>
      <trkpt lat="42.671852111816406" lon="-7.892790794372559">
        <ele>867.0</ele>
        <time>2019-05-01T10:56:47.000Z</time>
      </trkpt>
      <trkpt lat="42.671905517578125" lon="-7.892889022827148">
        <ele>866.0</ele>
        <time>2019-05-01T10:56:54.000Z</time>
      </trkpt>
      <trkpt lat="42.671966552734375" lon="-7.892971515655518">
        <ele>864.0</ele>
        <time>2019-05-01T10:57:02.000Z</time>
      </trkpt>
      <trkpt lat="42.672035217285156" lon="-7.893048286437988">
        <ele>861.0</ele>
        <time>2019-05-01T10:57:09.000Z</time>
      </trkpt>
      <trkpt lat="42.67210388183594" lon="-7.893121242523193">
        <ele>859.0</ele>
        <time>2019-05-01T10:57:17.000Z</time>
      </trkpt>
      <trkpt lat="42.67217254638672" lon="-7.893191814422607">
        <ele>856.0</ele>
        <time>2019-05-01T10:57:24.000Z</time>
      </trkpt>
      <trkpt lat="42.672210693359375" lon="-7.893256187438965">
        <ele>856.0</ele>
        <time>2019-05-01T10:57:28.000Z</time>
      </trkpt>
      <trkpt lat="42.672237396240234" lon="-7.89331579208374">
        <ele>856.0</ele>
        <time>2019-05-01T10:57:31.000Z</time>
      </trkpt>
      <trkpt lat="42.6722526550293" lon="-7.893372535705566">
        <ele>857.0</ele>
        <time>2019-05-01T10:57:35.000Z</time>
      </trkpt>
      <trkpt lat="42.67226791381836" lon="-7.89342737197876">
        <ele>858.0</ele>
        <time>2019-05-01T10:57:38.000Z</time>
      </trkpt>
      <trkpt lat="42.672306060791016" lon="-7.893899917602539">
        <ele>862.0</ele>
        <time>2019-05-01T10:58:07.000Z</time>
      </trkpt>
      <trkpt lat="42.672264099121094" lon="-7.894122123718262">
        <ele>860.0</ele>
        <time>2019-05-01T10:58:24.000Z</time>
      </trkpt>
      <trkpt lat="42.67219543457031" lon="-7.894338130950928">
        <ele>857.0</ele>
        <time>2019-05-01T10:58:40.000Z</time>
      </trkpt>
      <trkpt lat="42.672183990478516" lon="-7.894385814666748">
        <ele>856.0</ele>
        <time>2019-05-01T10:58:41.000Z</time>
      </trkpt>
      <trkpt lat="42.672176361083984" lon="-7.894407749176025">
        <ele>856.0</ele>
        <time>2019-05-01T10:58:42.000Z</time>
      </trkpt>
      <trkpt lat="42.672176361083984" lon="-7.894412040710449">
        <ele>856.0</ele>
        <time>2019-05-01T10:58:43.000Z</time>
      </trkpt>
      <trkpt lat="42.672176361083984" lon="-7.894407749176025">
        <ele>856.0</ele>
        <time>2019-05-01T10:58:44.000Z</time>
      </trkpt>
      <trkpt lat="42.672176361083984" lon="-7.894431114196777">
        <ele>856.0</ele>
        <time>2019-05-01T10:58:48.000Z</time>
      </trkpt>
      <trkpt lat="42.67217254638672" lon="-7.89445686340332">
        <ele>857.0</ele>
        <time>2019-05-01T10:58:52.000Z</time>
      </trkpt>
      <trkpt lat="42.67216873168945" lon="-7.894484043121338">
        <ele>857.0</ele>
        <time>2019-05-01T10:58:55.000Z</time>
      </trkpt>
      <trkpt lat="42.67216491699219" lon="-7.894512176513672">
        <ele>858.0</ele>
        <time>2019-05-01T10:58:59.000Z</time>
      </trkpt>
      <trkpt lat="42.67216110229492" lon="-7.894528865814209">
        <ele>858.0</ele>
        <time>2019-05-01T10:58:59.000Z</time>
      </trkpt>
      <trkpt lat="42.67216110229492" lon="-7.8945417404174805">
        <ele>858.0</ele>
        <time>2019-05-01T10:59:00.000Z</time>
      </trkpt>
      <trkpt lat="42.67216110229492" lon="-7.894551753997803">
        <ele>858.0</ele>
        <time>2019-05-01T10:59:00.000Z</time>
      </trkpt>
      <trkpt lat="42.672157287597656" lon="-7.894560813903809">
        <ele>858.0</ele>
        <time>2019-05-01T10:59:00.000Z</time>
      </trkpt>
      <trkpt lat="42.67215347290039" lon="-7.894646167755127">
        <ele>858.0</ele>
        <time>2019-05-01T10:59:06.000Z</time>
      </trkpt>
      <trkpt lat="42.672149658203125" lon="-7.894762992858887">
        <ele>859.0</ele>
        <time>2019-05-01T10:59:11.000Z</time>
      </trkpt>
      <trkpt lat="42.672142028808594" lon="-7.894899845123291">
        <ele>860.0</ele>
        <time>2019-05-01T10:59:17.000Z</time>
      </trkpt>
      <trkpt lat="42.67213439941406" lon="-7.895047187805176">
        <ele>861.0</ele>
        <time>2019-05-01T10:59:22.000Z</time>
      </trkpt>
      <trkpt lat="42.672122955322266" lon="-7.895167350769043">
        <ele>859.0</ele>
        <time>2019-05-01T10:59:30.000Z</time>
      </trkpt>
      <trkpt lat="42.67211151123047" lon="-7.89528751373291">
        <ele>857.0</ele>
        <time>2019-05-01T10:59:38.000Z</time>
      </trkpt>
      <trkpt lat="42.672096252441406" lon="-7.895407199859619">
        <ele>855.0</ele>
        <time>2019-05-01T10:59:45.000Z</time>
      </trkpt>
      <trkpt lat="42.672080993652344" lon="-7.895526885986328">
        <ele>852.0</ele>
        <time>2019-05-01T10:59:53.000Z</time>
      </trkpt>
      <trkpt lat="42.67197799682617" lon="-7.895716667175293">
        <ele>849.0</ele>
        <time>2019-05-01T11:00:08.000Z</time>
      </trkpt>
      <trkpt lat="42.67184066772461" lon="-7.895883560180664">
        <ele>847.0</ele>
        <time>2019-05-01T11:00:22.000Z</time>
      </trkpt>
      <trkpt lat="42.671817779541016" lon="-7.895994663238525">
        <ele>845.0</ele>
        <time>2019-05-01T11:00:29.000Z</time>
      </trkpt>
      <trkpt lat="42.671810150146484" lon="-7.896114349365234">
        <ele>844.0</ele>
        <time>2019-05-01T11:00:37.000Z</time>
      </trkpt>
      <trkpt lat="42.671810150146484" lon="-7.896240711212158">
        <ele>844.0</ele>
        <time>2019-05-01T11:00:44.000Z</time>
      </trkpt>
      <trkpt lat="42.671817779541016" lon="-7.896369934082031">
        <ele>843.0</ele>
        <time>2019-05-01T11:00:51.000Z</time>
      </trkpt>
      <trkpt lat="42.67181396484375" lon="-7.896489143371582">
        <ele>841.0</ele>
        <time>2019-05-01T11:00:59.000Z</time>
      </trkpt>
      <trkpt lat="42.67181396484375" lon="-7.896607875823975">
        <ele>840.0</ele>
        <time>2019-05-01T11:01:08.000Z</time>
      </trkpt>
      <trkpt lat="42.67181396484375" lon="-7.896726131439209">
        <ele>839.0</ele>
        <time>2019-05-01T11:01:16.000Z</time>
      </trkpt>
      <trkpt lat="42.67181396484375" lon="-7.896843910217285">
        <ele>838.0</ele>
        <time>2019-05-01T11:01:24.000Z</time>
      </trkpt>
      <trkpt lat="42.671817779541016" lon="-7.896963596343994">
        <ele>837.0</ele>
        <time>2019-05-01T11:01:31.000Z</time>
      </trkpt>
      <trkpt lat="42.67182540893555" lon="-7.897083282470703">
        <ele>835.0</ele>
        <time>2019-05-01T11:01:38.000Z</time>
      </trkpt>
      <trkpt lat="42.671836853027344" lon="-7.89720344543457">
        <ele>834.0</ele>
        <time>2019-05-01T11:01:45.000Z</time>
      </trkpt>
      <trkpt lat="42.67184829711914" lon="-7.897324085235596">
        <ele>832.0</ele>
        <time>2019-05-01T11:01:52.000Z</time>
      </trkpt>
      <trkpt lat="42.6718635559082" lon="-7.897441864013672">
        <ele>831.0</ele>
        <time>2019-05-01T11:01:59.000Z</time>
      </trkpt>
      <trkpt lat="42.67188262939453" lon="-7.897558689117432">
        <ele>830.0</ele>
        <time>2019-05-01T11:02:06.000Z</time>
      </trkpt>
      <trkpt lat="42.67190170288086" lon="-7.897675514221191">
        <ele>828.0</ele>
        <time>2019-05-01T11:02:13.000Z</time>
      </trkpt>
      <trkpt lat="42.67192459106445" lon="-7.897791385650635">
        <ele>827.0</ele>
        <time>2019-05-01T11:02:20.000Z</time>
      </trkpt>
      <trkpt lat="42.671932220458984" lon="-7.897912502288818">
        <ele>826.0</ele>
        <time>2019-05-01T11:02:26.000Z</time>
      </trkpt>
      <trkpt lat="42.671939849853516" lon="-7.898035049438477">
        <ele>825.0</ele>
        <time>2019-05-01T11:02:33.000Z</time>
      </trkpt>
      <trkpt lat="42.67194366455078" lon="-7.898158550262451">
        <ele>824.0</ele>
        <time>2019-05-01T11:02:39.000Z</time>
      </trkpt>
      <trkpt lat="42.67194366455078" lon="-7.898282527923584">
        <ele>823.0</ele>
        <time>2019-05-01T11:02:45.000Z</time>
      </trkpt>
      <trkpt lat="42.67197036743164" lon="-7.898397445678711">
        <ele>823.0</ele>
        <time>2019-05-01T11:02:53.000Z</time>
      </trkpt>
      <trkpt lat="42.67200469970703" lon="-7.8985090255737305">
        <ele>823.0</ele>
        <time>2019-05-01T11:03:00.000Z</time>
      </trkpt>
      <trkpt lat="42.67204666137695" lon="-7.898618221282959">
        <ele>823.0</ele>
        <time>2019-05-01T11:03:08.000Z</time>
      </trkpt>
      <trkpt lat="42.672088623046875" lon="-7.898726463317871">
        <ele>823.0</ele>
        <time>2019-05-01T11:03:15.000Z</time>
      </trkpt>
      <trkpt lat="42.67218017578125" lon="-7.899185657501221">
        <ele>824.0</ele>
        <time>2019-05-01T11:03:46.000Z</time>
      </trkpt>
      <trkpt lat="42.672176361083984" lon="-7.899434566497803">
        <ele>824.0</ele>
        <time>2019-05-01T11:04:01.000Z</time>
      </trkpt>
      <trkpt lat="42.672142028808594" lon="-7.899896621704102">
        <ele>823.0</ele>
        <time>2019-05-01T11:04:37.000Z</time>
      </trkpt>
      <trkpt lat="42.67214584350586" lon="-7.900348663330078">
        <ele>816.0</ele>
        <time>2019-05-01T11:05:17.000Z</time>
      </trkpt>
      <trkpt lat="42.67218780517578" lon="-7.900799751281738">
        <ele>809.0</ele>
        <time>2019-05-01T11:05:58.000Z</time>
      </trkpt>
      <trkpt lat="42.67222213745117" lon="-7.901042461395264">
        <ele>805.0</ele>
        <time>2019-05-01T11:06:23.000Z</time>
      </trkpt>
      <trkpt lat="42.672218322753906" lon="-7.901076316833496">
        <ele>803.0</ele>
        <time>2019-05-01T11:06:43.000Z</time>
      </trkpt>
      <trkpt lat="42.67221450805664" lon="-7.9011030197143555">
        <ele>803.0</ele>
        <time>2019-05-01T11:06:44.000Z</time>
      </trkpt>
      <trkpt lat="42.67223358154297" lon="-7.901535511016846">
        <ele>801.0</ele>
        <time>2019-05-01T11:07:08.000Z</time>
      </trkpt>
      <trkpt lat="42.6722526550293" lon="-7.9015960693359375">
        <ele>800.0</ele>
        <time>2019-05-01T11:07:13.000Z</time>
      </trkpt>
      <trkpt lat="42.672279357910156" lon="-7.901637077331543">
        <ele>799.0</ele>
        <time>2019-05-01T11:07:18.000Z</time>
      </trkpt>
      <trkpt lat="42.672306060791016" lon="-7.9016642570495605">
        <ele>799.0</ele>
        <time>2019-05-01T11:07:23.000Z</time>
      </trkpt>
      <trkpt lat="42.672340393066406" lon="-7.9016852378845215">
        <ele>798.0</ele>
        <time>2019-05-01T11:07:28.000Z</time>
      </trkpt>
      <trkpt lat="42.67234802246094" lon="-7.901722431182861">
        <ele>797.0</ele>
        <time>2019-05-01T11:07:39.000Z</time>
      </trkpt>
      <trkpt lat="42.672340393066406" lon="-7.901741981506348">
        <ele>796.0</ele>
        <time>2019-05-01T11:07:50.000Z</time>
      </trkpt>
      <trkpt lat="42.672340393066406" lon="-7.901752948760986">
        <ele>796.0</ele>
        <time>2019-05-01T11:07:50.000Z</time>
      </trkpt>
      <trkpt lat="42.672340393066406" lon="-7.901762008666992">
        <ele>796.0</ele>
        <time>2019-05-01T11:07:51.000Z</time>
      </trkpt>
      <trkpt lat="42.672340393066406" lon="-7.90177059173584">
        <ele>796.0</ele>
        <time>2019-05-01T11:07:51.000Z</time>
      </trkpt>
      <trkpt lat="42.672340393066406" lon="-7.901778697967529">
        <ele>796.0</ele>
        <time>2019-05-01T11:07:51.000Z</time>
      </trkpt>
      <trkpt lat="42.67234420776367" lon="-7.901790142059326">
        <ele>796.0</ele>
        <time>2019-05-01T11:07:52.000Z</time>
      </trkpt>
      <trkpt lat="42.67234420776367" lon="-7.901803016662598">
        <ele>796.0</ele>
        <time>2019-05-01T11:07:52.000Z</time>
      </trkpt>
      <trkpt lat="42.67234420776367" lon="-7.901816368103027">
        <ele>796.0</ele>
        <time>2019-05-01T11:07:53.000Z</time>
      </trkpt>
      <trkpt lat="42.67234420776367" lon="-7.901830196380615">
        <ele>796.0</ele>
        <time>2019-05-01T11:07:53.000Z</time>
      </trkpt>
      <trkpt lat="42.67234802246094" lon="-7.9018425941467285">
        <ele>796.0</ele>
        <time>2019-05-01T11:07:57.000Z</time>
      </trkpt>
      <trkpt lat="42.67234802246094" lon="-7.901854515075684">
        <ele>795.0</ele>
        <time>2019-05-01T11:08:02.000Z</time>
      </trkpt>
      <trkpt lat="42.6723518371582" lon="-7.9018659591674805">
        <ele>794.0</ele>
        <time>2019-05-01T11:08:06.000Z</time>
      </trkpt>
      <trkpt lat="42.67235565185547" lon="-7.9018778800964355">
        <ele>793.0</ele>
        <time>2019-05-01T11:08:10.000Z</time>
      </trkpt>
      <trkpt lat="42.67235565185547" lon="-7.9018874168396">
        <ele>793.0</ele>
        <time>2019-05-01T11:08:10.000Z</time>
      </trkpt>
      <trkpt lat="42.672359466552734" lon="-7.9018964767456055">
        <ele>793.0</ele>
        <time>2019-05-01T11:08:11.000Z</time>
      </trkpt>
      <trkpt lat="42.672359466552734" lon="-7.901905059814453">
        <ele>793.0</ele>
        <time>2019-05-01T11:08:11.000Z</time>
      </trkpt>
      <trkpt lat="42.67236328125" lon="-7.901913166046143">
        <ele>793.0</ele>
        <time>2019-05-01T11:08:11.000Z</time>
      </trkpt>
      <trkpt lat="42.672386169433594" lon="-7.9019880294799805">
        <ele>793.0</ele>
        <time>2019-05-01T11:08:18.000Z</time>
      </trkpt>
      <trkpt lat="42.672420501708984" lon="-7.902090072631836">
        <ele>793.0</ele>
        <time>2019-05-01T11:08:25.000Z</time>
      </trkpt>
      <trkpt lat="42.67245864868164" lon="-7.902210712432861">
        <ele>792.0</ele>
        <time>2019-05-01T11:08:31.000Z</time>
      </trkpt>
      <trkpt lat="42.67250442504883" lon="-7.902340888977051">
        <ele>792.0</ele>
        <time>2019-05-01T11:08:38.000Z</time>
      </trkpt>
      <trkpt lat="42.67268753051758" lon="-7.902750015258789">
        <ele>788.0</ele>
        <time>2019-05-01T11:09:21.000Z</time>
      </trkpt>
      <trkpt lat="42.672767639160156" lon="-7.902839660644531">
        <ele>786.0</ele>
        <time>2019-05-01T11:09:34.000Z</time>
      </trkpt>
      <trkpt lat="42.67284393310547" lon="-7.902875900268555">
        <ele>785.0</ele>
        <time>2019-05-01T11:09:46.000Z</time>
      </trkpt>
      <trkpt lat="42.67284393310547" lon="-7.902933597564697">
        <ele>785.0</ele>
        <time>2019-05-01T11:09:53.000Z</time>
      </trkpt>
      <trkpt lat="42.67283248901367" lon="-7.90300178527832">
        <ele>784.0</ele>
        <time>2019-05-01T11:09:59.000Z</time>
      </trkpt>
      <trkpt lat="42.67280960083008" lon="-7.903077125549316">
        <ele>784.0</ele>
        <time>2019-05-01T11:10:06.000Z</time>
      </trkpt>
      <trkpt lat="42.67277908325195" lon="-7.903156757354736">
        <ele>783.0</ele>
        <time>2019-05-01T11:10:12.000Z</time>
      </trkpt>
      <trkpt lat="42.67277526855469" lon="-7.9031829833984375">
        <ele>783.0</ele>
        <time>2019-05-01T11:10:15.000Z</time>
      </trkpt>
      <trkpt lat="42.67277145385742" lon="-7.903190612792969">
        <ele>783.0</ele>
        <time>2019-05-01T11:10:17.000Z</time>
      </trkpt>
      <trkpt lat="42.67277145385742" lon="-7.903186321258545">
        <ele>783.0</ele>
        <time>2019-05-01T11:10:20.000Z</time>
      </trkpt>
      <trkpt lat="42.67277145385742" lon="-7.903176307678223">
        <ele>783.0</ele>
        <time>2019-05-01T11:10:22.000Z</time>
      </trkpt>
      <trkpt lat="42.67277145385742" lon="-7.9031805992126465">
        <ele>783.0</ele>
        <time>2019-05-01T11:10:22.000Z</time>
      </trkpt>
      <trkpt lat="42.672767639160156" lon="-7.90318489074707">
        <ele>783.0</ele>
        <time>2019-05-01T11:10:23.000Z</time>
      </trkpt>
      <trkpt lat="42.672767639160156" lon="-7.903188705444336">
        <ele>783.0</ele>
        <time>2019-05-01T11:10:23.000Z</time>
      </trkpt>
      <trkpt lat="42.672767639160156" lon="-7.90319299697876">
        <ele>783.0</ele>
        <time>2019-05-01T11:10:23.000Z</time>
      </trkpt>
      <trkpt lat="42.67273712158203" lon="-7.903263092041016">
        <ele>782.0</ele>
        <time>2019-05-01T11:10:27.000Z</time>
      </trkpt>
      <trkpt lat="42.672698974609375" lon="-7.903360843658447">
        <ele>782.0</ele>
        <time>2019-05-01T11:10:30.000Z</time>
      </trkpt>
      <trkpt lat="42.67264938354492" lon="-7.903476715087891">
        <ele>781.0</ele>
        <time>2019-05-01T11:10:34.000Z</time>
      </trkpt>
      <trkpt lat="42.67259979248047" lon="-7.903602123260498">
        <ele>780.0</ele>
        <time>2019-05-01T11:10:37.000Z</time>
      </trkpt>
      <trkpt lat="42.67255783081055" lon="-7.903689384460449">
        <ele>778.0</ele>
        <time>2019-05-01T11:10:44.000Z</time>
      </trkpt>
      <trkpt lat="42.67251968383789" lon="-7.903770923614502">
        <ele>776.0</ele>
        <time>2019-05-01T11:10:51.000Z</time>
      </trkpt>
      <trkpt lat="42.672481536865234" lon="-7.903848171234131">
        <ele>774.0</ele>
        <time>2019-05-01T11:10:58.000Z</time>
      </trkpt>
      <trkpt lat="42.67244338989258" lon="-7.903923511505127">
        <ele>772.0</ele>
        <time>2019-05-01T11:11:05.000Z</time>
      </trkpt>
      <trkpt lat="42.67242431640625" lon="-7.903992176055908">
        <ele>772.0</ele>
        <time>2019-05-01T11:11:10.000Z</time>
      </trkpt>
      <trkpt lat="42.67240905761719" lon="-7.904055595397949">
        <ele>772.0</ele>
        <time>2019-05-01T11:11:14.000Z</time>
      </trkpt>
      <trkpt lat="42.67239761352539" lon="-7.904116153717041">
        <ele>772.0</ele>
        <time>2019-05-01T11:11:19.000Z</time>
      </trkpt>
      <trkpt lat="42.672393798828125" lon="-7.904175281524658">
        <ele>773.0</ele>
        <time>2019-05-01T11:11:23.000Z</time>
      </trkpt>
      <trkpt lat="42.67238998413086" lon="-7.90443229675293">
        <ele>769.0</ele>
        <time>2019-05-01T11:11:42.000Z</time>
      </trkpt>
      <trkpt lat="42.67231750488281" lon="-7.9046630859375">
        <ele>766.0</ele>
        <time>2019-05-01T11:12:01.000Z</time>
      </trkpt>
      <trkpt lat="42.67229461669922" lon="-7.904720306396484">
        <ele>765.0</ele>
        <time>2019-05-01T11:12:15.000Z</time>
      </trkpt>
      <trkpt lat="42.67228698730469" lon="-7.9047532081604">
        <ele>763.0</ele>
        <time>2019-05-01T11:12:42.000Z</time>
      </trkpt>
      <trkpt lat="42.67228698730469" lon="-7.904779434204102">
        <ele>763.0</ele>
        <time>2019-05-01T11:12:43.000Z</time>
      </trkpt>
      <trkpt lat="42.67222595214844" lon="-7.9050374031066895">
        <ele>763.0</ele>
        <time>2019-05-01T11:12:49.000Z</time>
      </trkpt>
      <trkpt lat="42.67219161987305" lon="-7.905072212219238">
        <ele>762.0</ele>
        <time>2019-05-01T11:12:53.000Z</time>
      </trkpt>
      <trkpt lat="42.672142028808594" lon="-7.905094146728516">
        <ele>762.0</ele>
        <time>2019-05-01T11:12:56.000Z</time>
      </trkpt>
      <trkpt lat="42.672088623046875" lon="-7.9051079750061035">
        <ele>761.0</ele>
        <time>2019-05-01T11:13:00.000Z</time>
      </trkpt>
      <trkpt lat="42.67203140258789" lon="-7.905117511749268">
        <ele>761.0</ele>
        <time>2019-05-01T11:13:03.000Z</time>
      </trkpt>
      <trkpt lat="42.671958923339844" lon="-7.905154705047607">
        <ele>760.0</ele>
        <time>2019-05-01T11:13:09.000Z</time>
      </trkpt>
      <trkpt lat="42.671875" lon="-7.90519905090332">
        <ele>759.0</ele>
        <time>2019-05-01T11:13:16.000Z</time>
      </trkpt>
      <trkpt lat="42.67178726196289" lon="-7.905248641967773">
        <ele>758.0</ele>
        <time>2019-05-01T11:13:22.000Z</time>
      </trkpt>
      <trkpt lat="42.671695709228516" lon="-7.905300617218018">
        <ele>757.0</ele>
        <time>2019-05-01T11:13:28.000Z</time>
      </trkpt>
      <trkpt lat="42.67164993286133" lon="-7.905326843261719">
        <ele>756.0</ele>
        <time>2019-05-01T11:13:37.000Z</time>
      </trkpt>
      <trkpt lat="42.67162322998047" lon="-7.9053449630737305">
        <ele>754.0</ele>
        <time>2019-05-01T11:13:45.000Z</time>
      </trkpt>
      <trkpt lat="42.671607971191406" lon="-7.905357360839844">
        <ele>752.0</ele>
        <time>2019-05-01T11:13:54.000Z</time>
      </trkpt>
      <trkpt lat="42.67159652709961" lon="-7.905367374420166">
        <ele>750.0</ele>
        <time>2019-05-01T11:14:02.000Z</time>
      </trkpt>
      <trkpt lat="42.67158508300781" lon="-7.905377388000488">
        <ele>750.0</ele>
        <time>2019-05-01T11:14:08.000Z</time>
      </trkpt>
      <trkpt lat="42.67158126831055" lon="-7.905384063720703">
        <ele>750.0</ele>
        <time>2019-05-01T11:14:15.000Z</time>
      </trkpt>
      <trkpt lat="42.67157745361328" lon="-7.905389308929443">
        <ele>750.0</ele>
        <time>2019-05-01T11:14:21.000Z</time>
      </trkpt>
      <trkpt lat="42.67158126831055" lon="-7.905393123626709">
        <ele>751.0</ele>
        <time>2019-05-01T11:14:27.000Z</time>
      </trkpt>
      <trkpt lat="42.67157745361328" lon="-7.905398845672607">
        <ele>751.0</ele>
        <time>2019-05-01T11:14:27.000Z</time>
      </trkpt>
      <trkpt lat="42.671573638916016" lon="-7.9054036140441895">
        <ele>751.0</ele>
        <time>2019-05-01T11:14:28.000Z</time>
      </trkpt>
      <trkpt lat="42.67156982421875" lon="-7.90540885925293">
        <ele>751.0</ele>
        <time>2019-05-01T11:14:28.000Z</time>
      </trkpt>
      <trkpt lat="42.67156982421875" lon="-7.905413627624512">
        <ele>751.0</ele>
        <time>2019-05-01T11:14:28.000Z</time>
      </trkpt>
      <trkpt lat="42.67155075073242" lon="-7.905451774597168">
        <ele>751.0</ele>
        <time>2019-05-01T11:14:29.000Z</time>
      </trkpt>
      <trkpt lat="42.67152404785156" lon="-7.90550422668457">
        <ele>751.0</ele>
        <time>2019-05-01T11:14:31.000Z</time>
      </trkpt>
      <trkpt lat="42.67149353027344" lon="-7.9055657386779785">
        <ele>751.0</ele>
        <time>2019-05-01T11:14:32.000Z</time>
      </trkpt>
      <trkpt lat="42.67146301269531" lon="-7.9056315422058105">
        <ele>751.0</ele>
        <time>2019-05-01T11:14:33.000Z</time>
      </trkpt>
      <trkpt lat="42.67145538330078" lon="-7.905692100524902">
        <ele>752.0</ele>
        <time>2019-05-01T11:14:37.000Z</time>
      </trkpt>
      <trkpt lat="42.67145919799805" lon="-7.905754566192627">
        <ele>753.0</ele>
        <time>2019-05-01T11:14:40.000Z</time>
      </trkpt>
      <trkpt lat="42.671470642089844" lon="-7.905818462371826">
        <ele>753.0</ele>
        <time>2019-05-01T11:14:44.000Z</time>
      </trkpt>
      <trkpt lat="42.67148208618164" lon="-7.9058837890625">
        <ele>754.0</ele>
        <time>2019-05-01T11:14:47.000Z</time>
      </trkpt>
      <trkpt lat="42.67149353027344" lon="-7.90598726272583">
        <ele>755.0</ele>
        <time>2019-05-01T11:14:54.000Z</time>
      </trkpt>
      <trkpt lat="42.671504974365234" lon="-7.906108379364014">
        <ele>755.0</ele>
        <time>2019-05-01T11:15:01.000Z</time>
      </trkpt>
      <trkpt lat="42.6715202331543" lon="-7.906240463256836">
        <ele>756.0</ele>
        <time>2019-05-01T11:15:08.000Z</time>
      </trkpt>
      <trkpt lat="42.67153549194336" lon="-7.906378269195557">
        <ele>756.0</ele>
        <time>2019-05-01T11:15:15.000Z</time>
      </trkpt>
      <trkpt lat="42.67156219482422" lon="-7.906497478485107">
        <ele>757.0</ele>
        <time>2019-05-01T11:15:22.000Z</time>
      </trkpt>
      <trkpt lat="42.67158889770508" lon="-7.906614780426025">
        <ele>758.0</ele>
        <time>2019-05-01T11:15:29.000Z</time>
      </trkpt>
      <trkpt lat="42.67162322998047" lon="-7.906731128692627">
        <ele>759.0</ele>
        <time>2019-05-01T11:15:36.000Z</time>
      </trkpt>
      <trkpt lat="42.67165756225586" lon="-7.906846523284912">
        <ele>759.0</ele>
        <time>2019-05-01T11:15:43.000Z</time>
      </trkpt>
      <trkpt lat="42.67169189453125" lon="-7.906960487365723">
        <ele>759.0</ele>
        <time>2019-05-01T11:15:50.000Z</time>
      </trkpt>
      <trkpt lat="42.67172622680664" lon="-7.907073020935059">
        <ele>758.0</ele>
        <time>2019-05-01T11:15:58.000Z</time>
      </trkpt>
      <trkpt lat="42.67176055908203" lon="-7.907185077667236">
        <ele>757.0</ele>
        <time>2019-05-01T11:16:05.000Z</time>
      </trkpt>
      <trkpt lat="42.67179489135742" lon="-7.907296180725098">
        <ele>755.0</ele>
        <time>2019-05-01T11:16:12.000Z</time>
      </trkpt>
      <trkpt lat="42.671791076660156" lon="-7.907412052154541">
        <ele>754.0</ele>
        <time>2019-05-01T11:16:20.000Z</time>
      </trkpt>
      <trkpt lat="42.67177200317383" lon="-7.907529354095459">
        <ele>753.0</ele>
        <time>2019-05-01T11:16:27.000Z</time>
      </trkpt>
      <trkpt lat="42.67173767089844" lon="-7.907647609710693">
        <ele>753.0</ele>
        <time>2019-05-01T11:16:34.000Z</time>
      </trkpt>
      <trkpt lat="42.67169952392578" lon="-7.907766342163086">
        <ele>752.0</ele>
        <time>2019-05-01T11:16:41.000Z</time>
      </trkpt>
      <trkpt lat="42.67168045043945" lon="-7.907885551452637">
        <ele>752.0</ele>
        <time>2019-05-01T11:16:48.000Z</time>
      </trkpt>
      <trkpt lat="42.67166519165039" lon="-7.908006191253662">
        <ele>752.0</ele>
        <time>2019-05-01T11:16:56.000Z</time>
      </trkpt>
      <trkpt lat="42.67164611816406" lon="-7.9081268310546875">
        <ele>752.0</ele>
        <time>2019-05-01T11:17:03.000Z</time>
      </trkpt>
      <trkpt lat="42.671630859375" lon="-7.908247947692871">
        <ele>753.0</ele>
        <time>2019-05-01T11:17:10.000Z</time>
      </trkpt>
      <trkpt lat="42.671607971191406" lon="-7.908366680145264">
        <ele>752.0</ele>
        <time>2019-05-01T11:17:17.000Z</time>
      </trkpt>
      <trkpt lat="42.67157745361328" lon="-7.908484935760498">
        <ele>752.0</ele>
        <time>2019-05-01T11:17:24.000Z</time>
      </trkpt>
      <trkpt lat="42.67155075073242" lon="-7.908602237701416">
        <ele>750.0</ele>
        <time>2019-05-01T11:17:31.000Z</time>
      </trkpt>
      <trkpt lat="42.6715202331543" lon="-7.908720016479492">
        <ele>749.0</ele>
        <time>2019-05-01T11:17:38.000Z</time>
      </trkpt>
      <trkpt lat="42.67150115966797" lon="-7.908840179443359">
        <ele>749.0</ele>
        <time>2019-05-01T11:17:45.000Z</time>
      </trkpt>
      <trkpt lat="42.67148208618164" lon="-7.908960819244385">
        <ele>750.0</ele>
        <time>2019-05-01T11:17:52.000Z</time>
      </trkpt>
      <trkpt lat="42.67146682739258" lon="-7.909082412719727">
        <ele>751.0</ele>
        <time>2019-05-01T11:17:59.000Z</time>
      </trkpt>
      <trkpt lat="42.671451568603516" lon="-7.909204006195068">
        <ele>753.0</ele>
        <time>2019-05-01T11:18:06.000Z</time>
      </trkpt>
      <trkpt lat="42.671424865722656" lon="-7.9093217849731445">
        <ele>752.0</ele>
        <time>2019-05-01T11:18:13.000Z</time>
      </trkpt>
      <trkpt lat="42.671390533447266" lon="-7.909438610076904">
        <ele>751.0</ele>
        <time>2019-05-01T11:18:20.000Z</time>
      </trkpt>
      <trkpt lat="42.671356201171875" lon="-7.9095540046691895">
        <ele>750.0</ele>
        <time>2019-05-01T11:18:27.000Z</time>
      </trkpt>
      <trkpt lat="42.671321868896484" lon="-7.909668922424316">
        <ele>748.0</ele>
        <time>2019-05-01T11:18:34.000Z</time>
      </trkpt>
      <trkpt lat="42.6712760925293" lon="-7.909775257110596">
        <ele>747.0</ele>
        <time>2019-05-01T11:18:41.000Z</time>
      </trkpt>
      <trkpt lat="42.671226501464844" lon="-7.909876823425293">
        <ele>746.0</ele>
        <time>2019-05-01T11:18:49.000Z</time>
      </trkpt>
      <trkpt lat="42.67116928100586" lon="-7.909975528717041">
        <ele>745.0</ele>
        <time>2019-05-01T11:18:56.000Z</time>
      </trkpt>
      <trkpt lat="42.67111587524414" lon="-7.910073280334473">
        <ele>744.0</ele>
        <time>2019-05-01T11:19:04.000Z</time>
      </trkpt>
      <trkpt lat="42.670936584472656" lon="-7.910499572753906">
        <ele>740.0</ele>
        <time>2019-05-01T11:19:33.000Z</time>
      </trkpt>
      <trkpt lat="42.6707878112793" lon="-7.910623073577881">
        <ele>738.0</ele>
        <time>2019-05-01T11:19:48.000Z</time>
      </trkpt>
      <trkpt lat="42.67060852050781" lon="-7.910705089569092">
        <ele>736.0</ele>
        <time>2019-05-01T11:20:03.000Z</time>
      </trkpt>
      <trkpt lat="42.6705207824707" lon="-7.910734176635742">
        <ele>735.0</ele>
        <time>2019-05-01T11:20:11.000Z</time>
      </trkpt>
      <trkpt lat="42.670433044433594" lon="-7.9107537269592285">
        <ele>735.0</ele>
        <time>2019-05-01T11:20:18.000Z</time>
      </trkpt>
      <trkpt lat="42.670345306396484" lon="-7.910767078399658">
        <ele>736.0</ele>
        <time>2019-05-01T11:20:26.000Z</time>
      </trkpt>
      <trkpt lat="42.67025375366211" lon="-7.910777568817139">
        <ele>736.0</ele>
        <time>2019-05-01T11:20:34.000Z</time>
      </trkpt>
      <trkpt lat="42.670188903808594" lon="-7.910799503326416">
        <ele>736.0</ele>
        <time>2019-05-01T11:20:38.000Z</time>
      </trkpt>
      <trkpt lat="42.670135498046875" lon="-7.91082239151001">
        <ele>736.0</ele>
        <time>2019-05-01T11:20:42.000Z</time>
      </trkpt>
      <trkpt lat="42.67008590698242" lon="-7.910846710205078">
        <ele>737.0</ele>
        <time>2019-05-01T11:20:47.000Z</time>
      </trkpt>
      <trkpt lat="42.670040130615234" lon="-7.910871505737305">
        <ele>737.0</ele>
        <time>2019-05-01T11:20:51.000Z</time>
      </trkpt>
      <trkpt lat="42.669986724853516" lon="-7.910948276519775">
        <ele>738.0</ele>
        <time>2019-05-01T11:21:00.000Z</time>
      </trkpt>
      <trkpt lat="42.669952392578125" lon="-7.911038875579834">
        <ele>739.0</ele>
        <time>2019-05-01T11:21:09.000Z</time>
      </trkpt>
      <trkpt lat="42.66995620727539" lon="-7.911134243011475">
        <ele>739.0</ele>
        <time>2019-05-01T11:21:18.000Z</time>
      </trkpt>
      <trkpt lat="42.66996765136719" lon="-7.911251544952393">
        <ele>739.0</ele>
        <time>2019-05-01T11:21:27.000Z</time>
      </trkpt>
      <trkpt lat="42.669986724853516" lon="-7.911384105682373">
        <ele>738.0</ele>
        <time>2019-05-01T11:21:36.000Z</time>
      </trkpt>
      <trkpt lat="42.670013427734375" lon="-7.911523818969727">
        <ele>738.0</ele>
        <time>2019-05-01T11:21:45.000Z</time>
      </trkpt>
      <trkpt lat="42.67002487182617" lon="-7.911618709564209">
        <ele>738.0</ele>
        <time>2019-05-01T11:21:52.000Z</time>
      </trkpt>
      <trkpt lat="42.67003631591797" lon="-7.9117021560668945">
        <ele>737.0</ele>
        <time>2019-05-01T11:21:59.000Z</time>
      </trkpt>
      <trkpt lat="42.670047760009766" lon="-7.911777973175049">
        <ele>737.0</ele>
        <time>2019-05-01T11:22:06.000Z</time>
      </trkpt>
      <trkpt lat="42.6700553894043" lon="-7.911850452423096">
        <ele>736.0</ele>
        <time>2019-05-01T11:22:13.000Z</time>
      </trkpt>
      <trkpt lat="42.67002868652344" lon="-7.911923885345459">
        <ele>735.0</ele>
        <time>2019-05-01T11:22:25.000Z</time>
      </trkpt>
      <trkpt lat="42.66999053955078" lon="-7.911993980407715">
        <ele>735.0</ele>
        <time>2019-05-01T11:22:37.000Z</time>
      </trkpt>
      <trkpt lat="42.66993713378906" lon="-7.91206169128418">
        <ele>734.0</ele>
        <time>2019-05-01T11:22:49.000Z</time>
      </trkpt>
      <trkpt lat="42.66987991333008" lon="-7.91212797164917">
        <ele>733.0</ele>
        <time>2019-05-01T11:23:01.000Z</time>
      </trkpt>
      <trkpt lat="42.669857025146484" lon="-7.912159442901611">
        <ele>731.0</ele>
        <time>2019-05-01T11:23:16.000Z</time>
      </trkpt>
      <trkpt lat="42.669837951660156" lon="-7.912175178527832">
        <ele>729.0</ele>
        <time>2019-05-01T11:23:30.000Z</time>
      </trkpt>
      <trkpt lat="42.669822692871094" lon="-7.912179946899414">
        <ele>727.0</ele>
        <time>2019-05-01T11:23:45.000Z</time>
      </trkpt>
      <trkpt lat="42.66981506347656" lon="-7.912179470062256">
        <ele>724.0</ele>
        <time>2019-05-01T11:23:59.000Z</time>
      </trkpt>
      <trkpt lat="42.669803619384766" lon="-7.912187099456787">
        <ele>724.0</ele>
        <time>2019-05-01T11:24:00.000Z</time>
      </trkpt>
      <trkpt lat="42.669795989990234" lon="-7.912193298339844">
        <ele>724.0</ele>
        <time>2019-05-01T11:24:00.000Z</time>
      </trkpt>
      <trkpt lat="42.6697883605957" lon="-7.912198543548584">
        <ele>724.0</ele>
        <time>2019-05-01T11:24:00.000Z</time>
      </trkpt>
      <trkpt lat="42.66978454589844" lon="-7.91220235824585">
        <ele>724.0</ele>
        <time>2019-05-01T11:24:00.000Z</time>
      </trkpt>
      <trkpt lat="42.66972732543945" lon="-7.912250518798828">
        <ele>724.0</ele>
        <time>2019-05-01T11:24:05.000Z</time>
      </trkpt>
      <trkpt lat="42.669654846191406" lon="-7.912316799163818">
        <ele>723.0</ele>
        <time>2019-05-01T11:24:10.000Z</time>
      </trkpt>
      <trkpt lat="42.6695671081543" lon="-7.9123945236206055">
        <ele>722.0</ele>
        <time>2019-05-01T11:24:14.000Z</time>
      </trkpt>
      <trkpt lat="42.669471740722656" lon="-7.912477970123291">
        <ele>720.0</ele>
        <time>2019-05-01T11:24:19.000Z</time>
      </trkpt>
      <trkpt lat="42.66941452026367" lon="-7.91256856918335">
        <ele>720.0</ele>
        <time>2019-05-01T11:24:26.000Z</time>
      </trkpt>
      <trkpt lat="42.66936111450195" lon="-7.912668228149414">
        <ele>720.0</ele>
        <time>2019-05-01T11:24:34.000Z</time>
      </trkpt>
      <trkpt lat="42.669315338134766" lon="-7.912774085998535">
        <ele>721.0</ele>
        <time>2019-05-01T11:24:41.000Z</time>
      </trkpt>
      <trkpt lat="42.66926956176758" lon="-7.912882328033447">
        <ele>721.0</ele>
        <time>2019-05-01T11:24:48.000Z</time>
      </trkpt>
      <trkpt lat="42.66923904418945" lon="-7.9129958152771">
        <ele>723.0</ele>
        <time>2019-05-01T11:24:56.000Z</time>
      </trkpt>
      <trkpt lat="42.66921615600586" lon="-7.913114547729492">
        <ele>724.0</ele>
        <time>2019-05-01T11:25:03.000Z</time>
      </trkpt>
      <trkpt lat="42.66919708251953" lon="-7.913236618041992">
        <ele>727.0</ele>
        <time>2019-05-01T11:25:11.000Z</time>
      </trkpt>
      <trkpt lat="42.66918182373047" lon="-7.913360118865967">
        <ele>729.0</ele>
        <time>2019-05-01T11:25:18.000Z</time>
      </trkpt>
      <trkpt lat="42.66908264160156" lon="-7.913811206817627">
        <ele>732.0</ele>
        <time>2019-05-01T11:25:49.000Z</time>
      </trkpt>
      <trkpt lat="42.66907501220703" lon="-7.913885593414307">
        <ele>732.0</ele>
        <time>2019-05-01T11:25:56.000Z</time>
      </trkpt>
      <trkpt lat="42.66905975341797" lon="-7.913933277130127">
        <ele>731.0</ele>
        <time>2019-05-01T11:26:09.000Z</time>
      </trkpt>
      <trkpt lat="42.669044494628906" lon="-7.913965702056885">
        <ele>731.0</ele>
        <time>2019-05-01T11:26:10.000Z</time>
      </trkpt>
      <trkpt lat="42.6689453125" lon="-7.914416313171387">
        <ele>726.0</ele>
        <time>2019-05-01T11:26:31.000Z</time>
      </trkpt>
      <trkpt lat="42.668949127197266" lon="-7.914597511291504">
        <ele>726.0</ele>
        <time>2019-05-01T11:26:42.000Z</time>
      </trkpt>
      <trkpt lat="42.66901397705078" lon="-7.914718151092529">
        <ele>725.0</ele>
        <time>2019-05-01T11:26:52.000Z</time>
      </trkpt>
      <trkpt lat="42.669105529785156" lon="-7.914853096008301">
        <ele>725.0</ele>
        <time>2019-05-01T11:27:01.000Z</time>
      </trkpt>
      <trkpt lat="42.669158935546875" lon="-7.9149370193481445">
        <ele>724.0</ele>
        <time>2019-05-01T11:27:09.000Z</time>
      </trkpt>
      <trkpt lat="42.66921615600586" lon="-7.915029048919678">
        <ele>722.0</ele>
        <time>2019-05-01T11:27:17.000Z</time>
      </trkpt>
      <trkpt lat="42.669281005859375" lon="-7.915126800537109">
        <ele>721.0</ele>
        <time>2019-05-01T11:27:25.000Z</time>
      </trkpt>
      <trkpt lat="42.66934585571289" lon="-7.91522741317749">
        <ele>719.0</ele>
        <time>2019-05-01T11:27:32.000Z</time>
      </trkpt>
      <trkpt lat="42.669376373291016" lon="-7.915293216705322">
        <ele>719.0</ele>
        <time>2019-05-01T11:27:37.000Z</time>
      </trkpt>
      <trkpt lat="42.669395446777344" lon="-7.915347576141357">
        <ele>720.0</ele>
        <time>2019-05-01T11:27:41.000Z</time>
      </trkpt>
      <trkpt lat="42.669410705566406" lon="-7.915393829345703">
        <ele>722.0</ele>
        <time>2019-05-01T11:27:46.000Z</time>
      </trkpt>
      <trkpt lat="42.66941833496094" lon="-7.915436744689941">
        <ele>723.0</ele>
        <time>2019-05-01T11:27:50.000Z</time>
      </trkpt>
      <trkpt lat="42.66949462890625" lon="-7.915521144866943">
        <ele>724.0</ele>
        <time>2019-05-01T11:27:58.000Z</time>
      </trkpt>
      <trkpt lat="42.669586181640625" lon="-7.915596008300781">
        <ele>724.0</ele>
        <time>2019-05-01T11:28:06.000Z</time>
      </trkpt>
      <trkpt lat="42.66963195800781" lon="-7.915642738342285">
        <ele>724.0</ele>
        <time>2019-05-01T11:28:11.000Z</time>
      </trkpt>
      <trkpt lat="42.669681549072266" lon="-7.9156928062438965">
        <ele>724.0</ele>
        <time>2019-05-01T11:28:16.000Z</time>
      </trkpt>
      <trkpt lat="42.66972732543945" lon="-7.915744781494141">
        <ele>724.0</ele>
        <time>2019-05-01T11:28:21.000Z</time>
      </trkpt>
      <trkpt lat="42.669776916503906" lon="-7.915797710418701">
        <ele>724.0</ele>
        <time>2019-05-01T11:28:26.000Z</time>
      </trkpt>
      <trkpt lat="42.66978454589844" lon="-7.915855407714844">
        <ele>724.0</ele>
        <time>2019-05-01T11:28:30.000Z</time>
      </trkpt>
      <trkpt lat="42.66977310180664" lon="-7.9159159660339355">
        <ele>724.0</ele>
        <time>2019-05-01T11:28:35.000Z</time>
      </trkpt>
      <trkpt lat="42.66975402832031" lon="-7.91597843170166">
        <ele>724.0</ele>
        <time>2019-05-01T11:28:39.000Z</time>
      </trkpt>
      <trkpt lat="42.66972732543945" lon="-7.916042327880859">
        <ele>724.0</ele>
        <time>2019-05-01T11:28:43.000Z</time>
      </trkpt>
      <trkpt lat="42.66969299316406" lon="-7.916131496429443">
        <ele>722.0</ele>
        <time>2019-05-01T11:28:49.000Z</time>
      </trkpt>
      <trkpt lat="42.66964340209961" lon="-7.916233062744141">
        <ele>721.0</ele>
        <time>2019-05-01T11:28:56.000Z</time>
      </trkpt>
      <trkpt lat="42.66958999633789" lon="-7.916342258453369">
        <ele>718.0</ele>
        <time>2019-05-01T11:29:02.000Z</time>
      </trkpt>
      <trkpt lat="42.669532775878906" lon="-7.9164557456970215">
        <ele>716.0</ele>
        <time>2019-05-01T11:29:08.000Z</time>
      </trkpt>
      <trkpt lat="42.66946792602539" lon="-7.916545391082764">
        <ele>716.0</ele>
        <time>2019-05-01T11:29:16.000Z</time>
      </trkpt>
      <trkpt lat="42.669403076171875" lon="-7.916629314422607">
        <ele>716.0</ele>
        <time>2019-05-01T11:29:23.000Z</time>
      </trkpt>
      <trkpt lat="42.669334411621094" lon="-7.916709899902344">
        <ele>716.0</ele>
        <time>2019-05-01T11:29:31.000Z</time>
      </trkpt>
      <trkpt lat="42.66926193237305" lon="-7.916788101196289">
        <ele>717.0</ele>
        <time>2019-05-01T11:29:38.000Z</time>
      </trkpt>
      <trkpt lat="42.669185638427734" lon="-7.916855335235596">
        <ele>717.0</ele>
        <time>2019-05-01T11:29:46.000Z</time>
      </trkpt>
      <trkpt lat="42.669105529785156" lon="-7.916915416717529">
        <ele>717.0</ele>
        <time>2019-05-01T11:29:54.000Z</time>
      </trkpt>
      <trkpt lat="42.66902542114258" lon="-7.916971206665039">
        <ele>717.0</ele>
        <time>2019-05-01T11:30:01.000Z</time>
      </trkpt>
      <trkpt lat="42.668941497802734" lon="-7.917025089263916">
        <ele>718.0</ele>
        <time>2019-05-01T11:30:09.000Z</time>
      </trkpt>
      <trkpt lat="42.66886520385742" lon="-7.917097091674805">
        <ele>719.0</ele>
        <time>2019-05-01T11:30:16.000Z</time>
      </trkpt>
      <trkpt lat="42.66879653930664" lon="-7.91717529296875">
        <ele>720.0</ele>
        <time>2019-05-01T11:30:23.000Z</time>
      </trkpt>
      <trkpt lat="42.66872787475586" lon="-7.917256832122803">
        <ele>721.0</ele>
        <time>2019-05-01T11:30:29.000Z</time>
      </trkpt>
      <trkpt lat="42.668663024902344" lon="-7.91733980178833">
        <ele>723.0</ele>
        <time>2019-05-01T11:30:36.000Z</time>
      </trkpt>
      <trkpt lat="42.66858673095703" lon="-7.91741418838501">
        <ele>722.0</ele>
        <time>2019-05-01T11:30:44.000Z</time>
      </trkpt>
      <trkpt lat="42.668514251708984" lon="-7.917486190795898">
        <ele>720.0</ele>
        <time>2019-05-01T11:30:51.000Z</time>
      </trkpt>
      <trkpt lat="42.66843795776367" lon="-7.917557239532471">
        <ele>718.0</ele>
        <time>2019-05-01T11:30:59.000Z</time>
      </trkpt>
      <trkpt lat="42.66836166381836" lon="-7.917627811431885">
        <ele>716.0</ele>
        <time>2019-05-01T11:31:06.000Z</time>
      </trkpt>
      <trkpt lat="42.6680793762207" lon="-7.917935848236084">
        <ele>717.0</ele>
        <time>2019-05-01T11:31:37.000Z</time>
      </trkpt>
      <trkpt lat="42.66789627075195" lon="-7.918353080749512">
        <ele>710.0</ele>
        <time>2019-05-01T11:32:04.000Z</time>
      </trkpt>
      <trkpt lat="42.66782760620117" lon="-7.918834209442139">
        <ele>712.0</ele>
        <time>2019-05-01T11:32:32.000Z</time>
      </trkpt>
      <trkpt lat="42.667659759521484" lon="-7.919264316558838">
        <ele>710.0</ele>
        <time>2019-05-01T11:33:00.000Z</time>
      </trkpt>
      <trkpt lat="42.66743087768555" lon="-7.919644355773926">
        <ele>713.0</ele>
        <time>2019-05-01T11:33:32.000Z</time>
      </trkpt>
      <trkpt lat="42.667232513427734" lon="-7.920060634613037">
        <ele>712.0</ele>
        <time>2019-05-01T11:34:01.000Z</time>
      </trkpt>
      <trkpt lat="42.66701889038086" lon="-7.920449733734131">
        <ele>715.0</ele>
        <time>2019-05-01T11:34:34.000Z</time>
      </trkpt>
      <trkpt lat="42.66679000854492" lon="-7.920821666717529">
        <ele>718.0</ele>
        <time>2019-05-01T11:35:02.000Z</time>
      </trkpt>
      <trkpt lat="42.666664123535156" lon="-7.9209370613098145">
        <ele>719.0</ele>
        <time>2019-05-01T11:35:16.000Z</time>
      </trkpt>
      <trkpt lat="42.666656494140625" lon="-7.920924186706543">
        <ele>720.0</ele>
        <time>2019-05-01T11:35:19.000Z</time>
      </trkpt>
      <trkpt lat="42.66666030883789" lon="-7.92089319229126">
        <ele>720.0</ele>
        <time>2019-05-01T11:35:22.000Z</time>
      </trkpt>
      <trkpt lat="42.66667175292969" lon="-7.92085075378418">
        <ele>721.0</ele>
        <time>2019-05-01T11:35:25.000Z</time>
      </trkpt>
      <trkpt lat="42.66668701171875" lon="-7.920802593231201">
        <ele>722.0</ele>
        <time>2019-05-01T11:35:28.000Z</time>
      </trkpt>
      <trkpt lat="42.666683197021484" lon="-7.920821189880371">
        <ele>722.0</ele>
        <time>2019-05-01T11:35:31.000Z</time>
      </trkpt>
      <trkpt lat="42.66667556762695" lon="-7.920861721038818">
        <ele>722.0</ele>
        <time>2019-05-01T11:35:34.000Z</time>
      </trkpt>
      <trkpt lat="42.666664123535156" lon="-7.920916557312012">
        <ele>722.0</ele>
        <time>2019-05-01T11:35:36.000Z</time>
      </trkpt>
      <trkpt lat="42.66665267944336" lon="-7.920979022979736">
        <ele>722.0</ele>
        <time>2019-05-01T11:35:39.000Z</time>
      </trkpt>
      <trkpt lat="42.666664123535156" lon="-7.920960426330566">
        <ele>722.0</ele>
        <time>2019-05-01T11:35:43.000Z</time>
      </trkpt>
      <trkpt lat="42.66668701171875" lon="-7.920915126800537">
        <ele>723.0</ele>
        <time>2019-05-01T11:35:47.000Z</time>
      </trkpt>
      <trkpt lat="42.666717529296875" lon="-7.9208526611328125">
        <ele>724.0</ele>
        <time>2019-05-01T11:35:50.000Z</time>
      </trkpt>
      <trkpt lat="42.666748046875" lon="-7.920781135559082">
        <ele>725.0</ele>
        <time>2019-05-01T11:35:54.000Z</time>
      </trkpt>
      <trkpt lat="42.66674041748047" lon="-7.920795917510986">
        <ele>725.0</ele>
        <time>2019-05-01T11:36:00.000Z</time>
      </trkpt>
      <trkpt lat="42.666717529296875" lon="-7.92083740234375">
        <ele>726.0</ele>
        <time>2019-05-01T11:36:06.000Z</time>
      </trkpt>
      <trkpt lat="42.666690826416016" lon="-7.920897006988525">
        <ele>726.0</ele>
        <time>2019-05-01T11:36:11.000Z</time>
      </trkpt>
      <trkpt lat="42.666656494140625" lon="-7.920965671539307">
        <ele>726.0</ele>
        <time>2019-05-01T11:36:17.000Z</time>
      </trkpt>
      <trkpt lat="42.66665267944336" lon="-7.920991897583008">
        <ele>724.0</ele>
        <time>2019-05-01T11:36:19.000Z</time>
      </trkpt>
      <trkpt lat="42.666664123535156" lon="-7.9210100173950195">
        <ele>722.0</ele>
        <time>2019-05-01T11:36:21.000Z</time>
      </trkpt>
      <trkpt lat="42.66667556762695" lon="-7.921022415161133">
        <ele>720.0</ele>
        <time>2019-05-01T11:36:23.000Z</time>
      </trkpt>
      <trkpt lat="42.66669464111328" lon="-7.921031951904297">
        <ele>717.0</ele>
        <time>2019-05-01T11:36:25.000Z</time>
      </trkpt>
      <trkpt lat="42.66670227050781" lon="-7.921043395996094">
        <ele>716.0</ele>
        <time>2019-05-01T11:36:25.000Z</time>
      </trkpt>
      <trkpt lat="42.66670608520508" lon="-7.9210524559021">
        <ele>716.0</ele>
        <time>2019-05-01T11:36:26.000Z</time>
      </trkpt>
      <trkpt lat="42.666709899902344" lon="-7.921059608459473">
        <ele>717.0</ele>
        <time>2019-05-01T11:36:26.000Z</time>
      </trkpt>
      <trkpt lat="42.66671371459961" lon="-7.921066761016846">
        <ele>717.0</ele>
        <time>2019-05-01T11:36:26.000Z</time>
      </trkpt>
      <trkpt lat="42.6667366027832" lon="-7.921126842498779">
        <ele>717.0</ele>
        <time>2019-05-01T11:36:30.000Z</time>
      </trkpt>
      <trkpt lat="42.66676330566406" lon="-7.92120885848999">
        <ele>716.0</ele>
        <time>2019-05-01T11:36:34.000Z</time>
      </trkpt>
      <trkpt lat="42.66679763793945" lon="-7.9213056564331055">
        <ele>716.0</ele>
        <time>2019-05-01T11:36:37.000Z</time>
      </trkpt>
      <trkpt lat="42.666831970214844" lon="-7.9214091300964355">
        <ele>715.0</ele>
        <time>2019-05-01T11:36:41.000Z</time>
      </trkpt>
      <trkpt lat="42.66684341430664" lon="-7.921444416046143">
        <ele>715.0</ele>
        <time>2019-05-01T11:36:42.000Z</time>
      </trkpt>
      <trkpt lat="42.66685485839844" lon="-7.9214582443237305">
        <ele>715.0</ele>
        <time>2019-05-01T11:36:43.000Z</time>
      </trkpt>
      <trkpt lat="42.6668586730957" lon="-7.9214582443237305">
        <ele>715.0</ele>
        <time>2019-05-01T11:36:44.000Z</time>
      </trkpt>
      <trkpt lat="42.66686248779297" lon="-7.921451091766357">
        <ele>715.0</ele>
        <time>2019-05-01T11:36:45.000Z</time>
      </trkpt>
      <trkpt lat="42.66691207885742" lon="-7.92141056060791">
        <ele>715.0</ele>
        <time>2019-05-01T11:36:53.000Z</time>
      </trkpt>
      <trkpt lat="42.6669807434082" lon="-7.9213480949401855">
        <ele>716.0</ele>
        <time>2019-05-01T11:37:02.000Z</time>
      </trkpt>
      <trkpt lat="42.66706085205078" lon="-7.921271800994873">
        <ele>716.0</ele>
        <time>2019-05-01T11:37:10.000Z</time>
      </trkpt>
      <trkpt lat="42.667144775390625" lon="-7.921187877655029">
        <ele>717.0</ele>
        <time>2019-05-01T11:37:19.000Z</time>
      </trkpt>
      <trkpt lat="42.66731643676758" lon="-7.921148777008057">
        <ele>720.0</ele>
        <time>2019-05-01T11:37:33.000Z</time>
      </trkpt>
      <trkpt lat="42.667503356933594" lon="-7.9211530685424805">
        <ele>723.0</ele>
        <time>2019-05-01T11:37:47.000Z</time>
      </trkpt>
      <trkpt lat="42.6675910949707" lon="-7.921160697937012">
        <ele>724.0</ele>
        <time>2019-05-01T11:37:58.000Z</time>
      </trkpt>
      <trkpt lat="42.66767883300781" lon="-7.921175956726074">
        <ele>726.0</ele>
        <time>2019-05-01T11:38:09.000Z</time>
      </trkpt>
      <trkpt lat="42.66776657104492" lon="-7.9211955070495605">
        <ele>728.0</ele>
        <time>2019-05-01T11:38:21.000Z</time>
      </trkpt>
      <trkpt lat="42.66785430908203" lon="-7.921217441558838">
        <ele>730.0</ele>
        <time>2019-05-01T11:38:32.000Z</time>
      </trkpt>
      <trkpt lat="42.66792297363281" lon="-7.921280860900879">
        <ele>731.0</ele>
        <time>2019-05-01T11:38:44.000Z</time>
      </trkpt>
      <trkpt lat="42.66798782348633" lon="-7.921364784240723">
        <ele>732.0</ele>
        <time>2019-05-01T11:38:56.000Z</time>
      </trkpt>
      <trkpt lat="42.66804504394531" lon="-7.921462059020996">
        <ele>733.0</ele>
        <time>2019-05-01T11:39:08.000Z</time>
      </trkpt>
      <trkpt lat="42.66809844970703" lon="-7.921565532684326">
        <ele>734.0</ele>
        <time>2019-05-01T11:39:20.000Z</time>
      </trkpt>
      <trkpt lat="42.66812515258789" lon="-7.9216203689575195">
        <ele>734.0</ele>
        <time>2019-05-01T11:39:24.000Z</time>
      </trkpt>
      <trkpt lat="42.66814041137695" lon="-7.921661376953125">
        <ele>734.0</ele>
        <time>2019-05-01T11:39:27.000Z</time>
      </trkpt>
      <trkpt lat="42.66814041137695" lon="-7.921693801879883">
        <ele>734.0</ele>
        <time>2019-05-01T11:39:31.000Z</time>
      </trkpt>
      <trkpt lat="42.66813659667969" lon="-7.921721458435059">
        <ele>733.0</ele>
        <time>2019-05-01T11:39:35.000Z</time>
      </trkpt>
      <trkpt lat="42.66811752319336" lon="-7.921785354614258">
        <ele>733.0</ele>
        <time>2019-05-01T11:39:41.000Z</time>
      </trkpt>
      <trkpt lat="42.668087005615234" lon="-7.9218597412109375">
        <ele>733.0</ele>
        <time>2019-05-01T11:39:46.000Z</time>
      </trkpt>
      <trkpt lat="42.66804885864258" lon="-7.921940803527832">
        <ele>733.0</ele>
        <time>2019-05-01T11:39:52.000Z</time>
      </trkpt>
      <trkpt lat="42.66800308227539" lon="-7.92202615737915">
        <ele>733.0</ele>
        <time>2019-05-01T11:39:58.000Z</time>
      </trkpt>
      <trkpt lat="42.667945861816406" lon="-7.92210054397583">
        <ele>732.0</ele>
        <time>2019-05-01T11:40:06.000Z</time>
      </trkpt>
      <trkpt lat="42.667877197265625" lon="-7.92217493057251">
        <ele>732.0</ele>
        <time>2019-05-01T11:40:15.000Z</time>
      </trkpt>
      <trkpt lat="42.66780090332031" lon="-7.922248840332031">
        <ele>732.0</ele>
        <time>2019-05-01T11:40:23.000Z</time>
      </trkpt>
      <trkpt lat="42.667724609375" lon="-7.9223222732543945">
        <ele>731.0</ele>
        <time>2019-05-01T11:40:31.000Z</time>
      </trkpt>
      <trkpt lat="42.667720794677734" lon="-7.922382354736328">
        <ele>731.0</ele>
        <time>2019-05-01T11:40:37.000Z</time>
      </trkpt>
      <trkpt lat="42.667747497558594" lon="-7.922436237335205">
        <ele>731.0</ele>
        <time>2019-05-01T11:40:42.000Z</time>
      </trkpt>
      <trkpt lat="42.66779327392578" lon="-7.922485828399658">
        <ele>730.0</ele>
        <time>2019-05-01T11:40:48.000Z</time>
      </trkpt>
      <trkpt lat="42.6678466796875" lon="-7.922533988952637">
        <ele>730.0</ele>
        <time>2019-05-01T11:40:53.000Z</time>
      </trkpt>
      <trkpt lat="42.66783905029297" lon="-7.9225969314575195">
        <ele>729.0</ele>
        <time>2019-05-01T11:40:58.000Z</time>
      </trkpt>
      <trkpt lat="42.667816162109375" lon="-7.922663688659668">
        <ele>729.0</ele>
        <time>2019-05-01T11:41:02.000Z</time>
      </trkpt>
      <trkpt lat="42.667781829833984" lon="-7.922733306884766">
        <ele>730.0</ele>
        <time>2019-05-01T11:41:07.000Z</time>
      </trkpt>
      <trkpt lat="42.66774368286133" lon="-7.922804355621338">
        <ele>730.0</ele>
        <time>2019-05-01T11:41:11.000Z</time>
      </trkpt>
      <trkpt lat="42.6677131652832" lon="-7.922900199890137">
        <ele>730.0</ele>
        <time>2019-05-01T11:41:20.000Z</time>
      </trkpt>
      <trkpt lat="42.66767883300781" lon="-7.923007965087891">
        <ele>730.0</ele>
        <time>2019-05-01T11:41:29.000Z</time>
      </trkpt>
      <trkpt lat="42.66764450073242" lon="-7.923123836517334">
        <ele>731.0</ele>
        <time>2019-05-01T11:41:38.000Z</time>
      </trkpt>
      <trkpt lat="42.667606353759766" lon="-7.923243045806885">
        <ele>731.0</ele>
        <time>2019-05-01T11:41:46.000Z</time>
      </trkpt>
      <trkpt lat="42.66758728027344" lon="-7.923356533050537">
        <ele>731.0</ele>
        <time>2019-05-01T11:41:57.000Z</time>
      </trkpt>
      <trkpt lat="42.66756820678711" lon="-7.923470973968506">
        <ele>731.0</ele>
        <time>2019-05-01T11:42:08.000Z</time>
      </trkpt>
      <trkpt lat="42.66755294799805" lon="-7.923586368560791">
        <ele>730.0</ele>
        <time>2019-05-01T11:42:19.000Z</time>
      </trkpt>
      <trkpt lat="42.66754150390625" lon="-7.923702239990234">
        <ele>730.0</ele>
        <time>2019-05-01T11:42:29.000Z</time>
      </trkpt>
      <trkpt lat="42.66752243041992" lon="-7.923818588256836">
        <ele>730.0</ele>
        <time>2019-05-01T11:42:37.000Z</time>
      </trkpt>
      <trkpt lat="42.66750717163086" lon="-7.923936367034912">
        <ele>730.0</ele>
        <time>2019-05-01T11:42:45.000Z</time>
      </trkpt>
      <trkpt lat="42.66748809814453" lon="-7.9240546226501465">
        <ele>730.0</ele>
        <time>2019-05-01T11:42:53.000Z</time>
      </trkpt>
      <trkpt lat="42.6674690246582" lon="-7.924173355102539">
        <ele>730.0</ele>
        <time>2019-05-01T11:43:01.000Z</time>
      </trkpt>
      <trkpt lat="42.66749572753906" lon="-7.924407482147217">
        <ele>731.0</ele>
        <time>2019-05-01T11:43:18.000Z</time>
      </trkpt>
      <trkpt lat="42.667545318603516" lon="-7.9246416091918945">
        <ele>731.0</ele>
        <time>2019-05-01T11:43:35.000Z</time>
      </trkpt>
      <trkpt lat="42.66755294799805" lon="-7.924686431884766">
        <ele>732.0</ele>
        <time>2019-05-01T11:43:36.000Z</time>
      </trkpt>
      <trkpt lat="42.66755294799805" lon="-7.924701690673828">
        <ele>732.0</ele>
        <time>2019-05-01T11:43:38.000Z</time>
      </trkpt>
      <trkpt lat="42.667545318603516" lon="-7.924696922302246">
        <ele>732.0</ele>
        <time>2019-05-01T11:43:40.000Z</time>
      </trkpt>
      <trkpt lat="42.66754150390625" lon="-7.924682140350342">
        <ele>732.0</ele>
        <time>2019-05-01T11:43:42.000Z</time>
      </trkpt>
      <trkpt lat="42.66754150390625" lon="-7.924696445465088">
        <ele>733.0</ele>
        <time>2019-05-01T11:44:15.000Z</time>
      </trkpt>
      <trkpt lat="42.66754150390625" lon="-7.924712181091309">
        <ele>734.0</ele>
        <time>2019-05-01T11:44:48.000Z</time>
      </trkpt>
      <trkpt lat="42.66754150390625" lon="-7.924728870391846">
        <ele>735.0</ele>
        <time>2019-05-01T11:45:21.000Z</time>
      </trkpt>
      <trkpt lat="42.667545318603516" lon="-7.924746513366699">
        <ele>736.0</ele>
        <time>2019-05-01T11:45:55.000Z</time>
      </trkpt>
      <trkpt lat="42.667545318603516" lon="-7.924758434295654">
        <ele>736.0</ele>
        <time>2019-05-01T11:45:55.000Z</time>
      </trkpt>
      <trkpt lat="42.667545318603516" lon="-7.924768924713135">
        <ele>736.0</ele>
        <time>2019-05-01T11:45:55.000Z</time>
      </trkpt>
      <trkpt lat="42.667545318603516" lon="-7.924777984619141">
        <ele>736.0</ele>
        <time>2019-05-01T11:45:55.000Z</time>
      </trkpt>
      <trkpt lat="42.667545318603516" lon="-7.924786567687988">
        <ele>736.0</ele>
        <time>2019-05-01T11:45:56.000Z</time>
      </trkpt>
      <trkpt lat="42.66755294799805" lon="-7.9248480796813965">
        <ele>736.0</ele>
        <time>2019-05-01T11:45:59.000Z</time>
      </trkpt>
      <trkpt lat="42.667564392089844" lon="-7.924931526184082">
        <ele>736.0</ele>
        <time>2019-05-01T11:46:02.000Z</time>
      </trkpt>
      <trkpt lat="42.66757583618164" lon="-7.9250288009643555">
        <ele>736.0</ele>
        <time>2019-05-01T11:46:05.000Z</time>
      </trkpt>
      <trkpt lat="42.6675910949707" lon="-7.925133228302002">
        <ele>737.0</ele>
        <time>2019-05-01T11:46:08.000Z</time>
      </trkpt>
      <trkpt lat="42.66762924194336" lon="-7.92520809173584">
        <ele>737.0</ele>
        <time>2019-05-01T11:46:11.000Z</time>
      </trkpt>
      <trkpt lat="42.66767120361328" lon="-7.925238132476807">
        <ele>737.0</ele>
        <time>2019-05-01T11:46:15.000Z</time>
      </trkpt>
      <trkpt lat="42.66767883300781" lon="-7.925327777862549">
        <ele>738.0</ele>
        <time>2019-05-01T11:46:22.000Z</time>
      </trkpt>
      <trkpt lat="42.66767501831055" lon="-7.92544412612915">
        <ele>739.0</ele>
        <time>2019-05-01T11:46:30.000Z</time>
      </trkpt>
      <trkpt lat="42.66767120361328" lon="-7.9255781173706055">
        <ele>741.0</ele>
        <time>2019-05-01T11:46:38.000Z</time>
      </trkpt>
      <trkpt lat="42.667667388916016" lon="-7.925720691680908">
        <ele>743.0</ele>
        <time>2019-05-01T11:46:45.000Z</time>
      </trkpt>
      <trkpt lat="42.66766357421875" lon="-7.925841331481934">
        <ele>744.0</ele>
        <time>2019-05-01T11:46:53.000Z</time>
      </trkpt>
      <trkpt lat="42.66766357421875" lon="-7.925961494445801">
        <ele>745.0</ele>
        <time>2019-05-01T11:47:00.000Z</time>
      </trkpt>
      <trkpt lat="42.667659759521484" lon="-7.92608118057251">
        <ele>745.0</ele>
        <time>2019-05-01T11:47:08.000Z</time>
      </trkpt>
      <trkpt lat="42.66765594482422" lon="-7.926201343536377">
        <ele>746.0</ele>
        <time>2019-05-01T11:47:15.000Z</time>
      </trkpt>
      <trkpt lat="42.667640686035156" lon="-7.926278591156006">
        <ele>746.0</ele>
        <time>2019-05-01T11:47:18.000Z</time>
      </trkpt>
      <trkpt lat="42.66762161254883" lon="-7.926338195800781">
        <ele>746.0</ele>
        <time>2019-05-01T11:47:21.000Z</time>
      </trkpt>
      <trkpt lat="42.6676025390625" lon="-7.926385879516602">
        <ele>747.0</ele>
        <time>2019-05-01T11:47:24.000Z</time>
      </trkpt>
      <trkpt lat="42.667579650878906" lon="-7.926427364349365">
        <ele>747.0</ele>
        <time>2019-05-01T11:47:27.000Z</time>
      </trkpt>
      <trkpt lat="42.667572021484375" lon="-7.926487922668457">
        <ele>747.0</ele>
        <time>2019-05-01T11:47:30.000Z</time>
      </trkpt>
      <trkpt lat="42.66758346557617" lon="-7.926524639129639">
        <ele>747.0</ele>
        <time>2019-05-01T11:47:32.000Z</time>
      </trkpt>
      <trkpt lat="42.667572021484375" lon="-7.926556587219238">
        <ele>747.0</ele>
        <time>2019-05-01T11:47:35.000Z</time>
      </trkpt>
      <trkpt lat="42.66754913330078" lon="-7.926591396331787">
        <ele>747.0</ele>
        <time>2019-05-01T11:47:37.000Z</time>
      </trkpt>
      <trkpt lat="42.66752624511719" lon="-7.926628589630127">
        <ele>747.0</ele>
        <time>2019-05-01T11:47:40.000Z</time>
      </trkpt>
      <trkpt lat="42.66749954223633" lon="-7.926666736602783">
        <ele>747.0</ele>
        <time>2019-05-01T11:47:42.000Z</time>
      </trkpt>
      <trkpt lat="42.66747283935547" lon="-7.9267144203186035">
        <ele>748.0</ele>
        <time>2019-05-01T11:47:49.000Z</time>
      </trkpt>
      <trkpt lat="42.667442321777344" lon="-7.926766872406006">
        <ele>749.0</ele>
        <time>2019-05-01T11:47:55.000Z</time>
      </trkpt>
      <trkpt lat="42.66741180419922" lon="-7.926823139190674">
        <ele>750.0</ele>
        <time>2019-05-01T11:48:02.000Z</time>
      </trkpt>
      <trkpt lat="42.66737747192383" lon="-7.926881313323975">
        <ele>751.0</ele>
        <time>2019-05-01T11:48:08.000Z</time>
      </trkpt>
      <trkpt lat="42.66733932495117" lon="-7.9269208908081055">
        <ele>750.0</ele>
        <time>2019-05-01T11:48:12.000Z</time>
      </trkpt>
      <trkpt lat="42.667301177978516" lon="-7.926955223083496">
        <ele>749.0</ele>
        <time>2019-05-01T11:48:15.000Z</time>
      </trkpt>
      <trkpt lat="42.667259216308594" lon="-7.926985740661621">
        <ele>747.0</ele>
        <time>2019-05-01T11:48:19.000Z</time>
      </trkpt>
      <trkpt lat="42.667213439941406" lon="-7.927014350891113">
        <ele>745.0</ele>
        <time>2019-05-01T11:48:22.000Z</time>
      </trkpt>
      <trkpt lat="42.66716766357422" lon="-7.9270429611206055">
        <ele>744.0</ele>
        <time>2019-05-01T11:48:26.000Z</time>
      </trkpt>
      <trkpt lat="42.66712188720703" lon="-7.927070140838623">
        <ele>742.0</ele>
        <time>2019-05-01T11:48:30.000Z</time>
      </trkpt>
      <trkpt lat="42.667076110839844" lon="-7.927096366882324">
        <ele>740.0</ele>
        <time>2019-05-01T11:48:34.000Z</time>
      </trkpt>
      <trkpt lat="42.66702651977539" lon="-7.927121639251709">
        <ele>738.0</ele>
        <time>2019-05-01T11:48:37.000Z</time>
      </trkpt>
      <trkpt lat="42.666988372802734" lon="-7.927156925201416">
        <ele>738.0</ele>
        <time>2019-05-01T11:48:41.000Z</time>
      </trkpt>
      <trkpt lat="42.66695022583008" lon="-7.927195072174072">
        <ele>738.0</ele>
        <time>2019-05-01T11:48:45.000Z</time>
      </trkpt>
      <trkpt lat="42.66691970825195" lon="-7.9272356033325195">
        <ele>738.0</ele>
        <time>2019-05-01T11:48:49.000Z</time>
      </trkpt>
      <trkpt lat="42.66688537597656" lon="-7.927277088165283">
        <ele>738.0</ele>
        <time>2019-05-01T11:48:53.000Z</time>
      </trkpt>
      <trkpt lat="42.66681671142578" lon="-7.927464962005615">
        <ele>735.0</ele>
        <time>2019-05-01T11:49:07.000Z</time>
      </trkpt>
      <trkpt lat="42.666744232177734" lon="-7.927703380584717">
        <ele>730.0</ele>
        <time>2019-05-01T11:49:20.000Z</time>
      </trkpt>
      <trkpt lat="42.66672134399414" lon="-7.927818298339844">
        <ele>729.0</ele>
        <time>2019-05-01T11:49:28.000Z</time>
      </trkpt>
      <trkpt lat="42.66669845581055" lon="-7.927937030792236">
        <ele>727.0</ele>
        <time>2019-05-01T11:49:36.000Z</time>
      </trkpt>
      <trkpt lat="42.66667938232422" lon="-7.92805814743042">
        <ele>725.0</ele>
        <time>2019-05-01T11:49:44.000Z</time>
      </trkpt>
      <trkpt lat="42.66666030883789" lon="-7.92818021774292">
        <ele>724.0</ele>
        <time>2019-05-01T11:49:52.000Z</time>
      </trkpt>
      <trkpt lat="42.666568756103516" lon="-7.928381443023682">
        <ele>723.0</ele>
        <time>2019-05-01T11:50:08.000Z</time>
      </trkpt>
      <trkpt lat="42.66645050048828" lon="-7.92856502532959">
        <ele>724.0</ele>
        <time>2019-05-01T11:50:23.000Z</time>
      </trkpt>
      <trkpt lat="42.66638946533203" lon="-7.928651809692383">
        <ele>725.0</ele>
        <time>2019-05-01T11:50:30.000Z</time>
      </trkpt>
      <trkpt lat="42.666324615478516" lon="-7.92873477935791">
        <ele>725.0</ele>
        <time>2019-05-01T11:50:37.000Z</time>
      </trkpt>
      <trkpt lat="42.666259765625" lon="-7.928814888000488">
        <ele>726.0</ele>
        <time>2019-05-01T11:50:44.000Z</time>
      </trkpt>
      <trkpt lat="42.66619110107422" lon="-7.92889404296875">
        <ele>727.0</ele>
        <time>2019-05-01T11:50:51.000Z</time>
      </trkpt>
      <trkpt lat="42.6661376953125" lon="-7.928988456726074">
        <ele>728.0</ele>
        <time>2019-05-01T11:50:59.000Z</time>
      </trkpt>
      <trkpt lat="42.66609191894531" lon="-7.929088115692139">
        <ele>728.0</ele>
        <time>2019-05-01T11:51:06.000Z</time>
      </trkpt>
      <trkpt lat="42.666046142578125" lon="-7.9291911125183105">
        <ele>729.0</ele>
        <time>2019-05-01T11:51:14.000Z</time>
      </trkpt>
      <trkpt lat="42.66600036621094" lon="-7.929296016693115">
        <ele>730.0</ele>
        <time>2019-05-01T11:51:21.000Z</time>
      </trkpt>
      <trkpt lat="42.665958404541016" lon="-7.929400444030762">
        <ele>731.0</ele>
        <time>2019-05-01T11:51:29.000Z</time>
      </trkpt>
      <trkpt lat="42.66592025756836" lon="-7.929506301879883">
        <ele>732.0</ele>
        <time>2019-05-01T11:51:36.000Z</time>
      </trkpt>
      <trkpt lat="42.6658821105957" lon="-7.9296135902404785">
        <ele>733.0</ele>
        <time>2019-05-01T11:51:44.000Z</time>
      </trkpt>
      <trkpt lat="42.66584396362305" lon="-7.929721355438232">
        <ele>734.0</ele>
        <time>2019-05-01T11:51:51.000Z</time>
      </trkpt>
      <trkpt lat="42.66581726074219" lon="-7.929778099060059">
        <ele>735.0</ele>
        <time>2019-05-01T11:51:55.000Z</time>
      </trkpt>
      <trkpt lat="42.665802001953125" lon="-7.929814338684082">
        <ele>735.0</ele>
        <time>2019-05-01T11:51:58.000Z</time>
      </trkpt>
      <trkpt lat="42.66579055786133" lon="-7.929836750030518">
        <ele>736.0</ele>
        <time>2019-05-01T11:52:02.000Z</time>
      </trkpt>
      <trkpt lat="42.66577911376953" lon="-7.929852485656738">
        <ele>737.0</ele>
        <time>2019-05-01T11:52:05.000Z</time>
      </trkpt>
      <trkpt lat="42.665767669677734" lon="-7.929867267608643">
        <ele>737.0</ele>
        <time>2019-05-01T11:52:09.000Z</time>
      </trkpt>
      <trkpt lat="42.66576385498047" lon="-7.929874420166016">
        <ele>738.0</ele>
        <time>2019-05-01T11:52:13.000Z</time>
      </trkpt>
      <trkpt lat="42.66575622558594" lon="-7.929876804351807">
        <ele>738.0</ele>
        <time>2019-05-01T11:52:17.000Z</time>
      </trkpt>
      <trkpt lat="42.66575241088867" lon="-7.929876327514648">
        <ele>739.0</ele>
        <time>2019-05-01T11:52:20.000Z</time>
      </trkpt>
      <trkpt lat="42.665733337402344" lon="-7.929895401000977">
        <ele>739.0</ele>
        <time>2019-05-01T11:52:21.000Z</time>
      </trkpt>
      <trkpt lat="42.66543197631836" lon="-7.930140018463135">
        <ele>740.0</ele>
        <time>2019-05-01T11:52:33.000Z</time>
      </trkpt>
      <trkpt lat="42.66536331176758" lon="-7.930190563201904">
        <ele>740.0</ele>
        <time>2019-05-01T11:52:41.000Z</time>
      </trkpt>
      <trkpt lat="42.665306091308594" lon="-7.930219650268555">
        <ele>741.0</ele>
        <time>2019-05-01T11:53:00.000Z</time>
      </trkpt>
      <trkpt lat="42.66527557373047" lon="-7.930235862731934">
        <ele>741.0</ele>
        <time>2019-05-01T11:53:01.000Z</time>
      </trkpt>
      <trkpt lat="42.66495895385742" lon="-7.9304399490356445">
        <ele>740.0</ele>
        <time>2019-05-01T11:53:14.000Z</time>
      </trkpt>
      <trkpt lat="42.66470718383789" lon="-7.930783748626709">
        <ele>739.0</ele>
        <time>2019-05-01T11:53:40.000Z</time>
      </trkpt>
      <trkpt lat="42.664451599121094" lon="-7.9311203956604">
        <ele>738.0</ele>
        <time>2019-05-01T11:54:06.000Z</time>
      </trkpt>
      <trkpt lat="42.664363861083984" lon="-7.931349754333496">
        <ele>737.0</ele>
        <time>2019-05-01T11:54:22.000Z</time>
      </trkpt>
      <trkpt lat="42.66423034667969" lon="-7.931528568267822">
        <ele>735.0</ele>
        <time>2019-05-01T11:54:37.000Z</time>
      </trkpt>
      <trkpt lat="42.6639289855957" lon="-7.931760787963867">
        <ele>726.0</ele>
        <time>2019-05-01T11:55:07.000Z</time>
      </trkpt>
      <trkpt lat="42.663612365722656" lon="-7.931987762451172">
        <ele>721.0</ele>
        <time>2019-05-01T11:55:35.000Z</time>
      </trkpt>
      <trkpt lat="42.66334533691406" lon="-7.932107448577881">
        <ele>723.0</ele>
        <time>2019-05-01T11:56:01.000Z</time>
      </trkpt>
      <trkpt lat="42.66331100463867" lon="-7.932098865509033">
        <ele>724.0</ele>
        <time>2019-05-01T11:56:05.000Z</time>
      </trkpt>
      <trkpt lat="42.66328430175781" lon="-7.932074069976807">
        <ele>724.0</ele>
        <time>2019-05-01T11:56:08.000Z</time>
      </trkpt>
      <trkpt lat="42.66326904296875" lon="-7.9320387840271">
        <ele>724.0</ele>
        <time>2019-05-01T11:56:12.000Z</time>
      </trkpt>
      <trkpt lat="42.66325378417969" lon="-7.931998252868652">
        <ele>725.0</ele>
        <time>2019-05-01T11:56:15.000Z</time>
      </trkpt>
      <trkpt lat="42.66319274902344" lon="-7.931957721710205">
        <ele>726.0</ele>
        <time>2019-05-01T11:56:23.000Z</time>
      </trkpt>
      <trkpt lat="42.66311264038086" lon="-7.931911468505859">
        <ele>729.0</ele>
        <time>2019-05-01T11:56:30.000Z</time>
      </trkpt>
      <trkpt lat="42.66302490234375" lon="-7.93186092376709">
        <ele>731.0</ele>
        <time>2019-05-01T11:56:37.000Z</time>
      </trkpt>
      <trkpt lat="42.66292953491211" lon="-7.931808948516846">
        <ele>734.0</ele>
        <time>2019-05-01T11:56:44.000Z</time>
      </trkpt>
      <trkpt lat="42.66289138793945" lon="-7.931790828704834">
        <ele>735.0</ele>
        <time>2019-05-01T11:56:47.000Z</time>
      </trkpt>
      <trkpt lat="42.66286849975586" lon="-7.931784152984619">
        <ele>735.0</ele>
        <time>2019-05-01T11:56:49.000Z</time>
      </trkpt>
      <trkpt lat="42.66286087036133" lon="-7.931786060333252">
        <ele>735.0</ele>
        <time>2019-05-01T11:56:51.000Z</time>
      </trkpt>
      <trkpt lat="42.66285705566406" lon="-7.93179178237915">
        <ele>735.0</ele>
        <time>2019-05-01T11:56:53.000Z</time>
      </trkpt>
      <trkpt lat="42.662845611572266" lon="-7.931789398193359">
        <ele>736.0</ele>
        <time>2019-05-01T11:56:57.000Z</time>
      </trkpt>
      <trkpt lat="42.66283416748047" lon="-7.931787490844727">
        <ele>737.0</ele>
        <time>2019-05-01T11:57:00.000Z</time>
      </trkpt>
      <trkpt lat="42.6628303527832" lon="-7.93178653717041">
        <ele>738.0</ele>
        <time>2019-05-01T11:57:04.000Z</time>
      </trkpt>
      <trkpt lat="42.66282272338867" lon="-7.931785583496094">
        <ele>739.0</ele>
        <time>2019-05-01T11:57:07.000Z</time>
      </trkpt>
      <trkpt lat="42.662818908691406" lon="-7.931784152984619">
        <ele>739.0</ele>
        <time>2019-05-01T11:57:08.000Z</time>
      </trkpt>
      <trkpt lat="42.662811279296875" lon="-7.931783199310303">
        <ele>739.0</ele>
        <time>2019-05-01T11:57:08.000Z</time>
      </trkpt>
      <trkpt lat="42.66280746459961" lon="-7.931781768798828">
        <ele>739.0</ele>
        <time>2019-05-01T11:57:08.000Z</time>
      </trkpt>
      <trkpt lat="42.66279983520508" lon="-7.931780815124512">
        <ele>739.0</ele>
        <time>2019-05-01T11:57:08.000Z</time>
      </trkpt>
      <trkpt lat="42.662776947021484" lon="-7.931775093078613">
        <ele>739.0</ele>
        <time>2019-05-01T11:57:09.000Z</time>
      </trkpt>
      <trkpt lat="42.662742614746094" lon="-7.931766986846924">
        <ele>739.0</ele>
        <time>2019-05-01T11:57:10.000Z</time>
      </trkpt>
      <trkpt lat="42.66270065307617" lon="-7.931757926940918">
        <ele>739.0</ele>
        <time>2019-05-01T11:57:11.000Z</time>
      </trkpt>
      <trkpt lat="42.66265869140625" lon="-7.931748390197754">
        <ele>739.0</ele>
        <time>2019-05-01T11:57:11.000Z</time>
      </trkpt>
      <trkpt lat="42.662471771240234" lon="-7.931756019592285">
        <ele>739.0</ele>
        <time>2019-05-01T11:57:23.000Z</time>
      </trkpt>
      <trkpt lat="42.66227340698242" lon="-7.931750774383545">
        <ele>736.0</ele>
        <time>2019-05-01T11:57:39.000Z</time>
      </trkpt>
      <trkpt lat="42.66208267211914" lon="-7.931772232055664">
        <ele>733.0</ele>
        <time>2019-05-01T11:57:55.000Z</time>
      </trkpt>
      <trkpt lat="42.661888122558594" lon="-7.931796073913574">
        <ele>731.0</ele>
        <time>2019-05-01T11:58:12.000Z</time>
      </trkpt>
      <trkpt lat="42.66170120239258" lon="-7.931816577911377">
        <ele>729.0</ele>
        <time>2019-05-01T11:58:27.000Z</time>
      </trkpt>
      <trkpt lat="42.66150665283203" lon="-7.931802272796631">
        <ele>731.0</ele>
        <time>2019-05-01T11:58:46.000Z</time>
      </trkpt>
      <trkpt lat="42.661190032958984" lon="-7.931596755981445">
        <ele>725.0</ele>
        <time>2019-05-01T11:59:22.000Z</time>
      </trkpt>
      <trkpt lat="42.66087341308594" lon="-7.931446075439453">
        <ele>714.0</ele>
        <time>2019-05-01T11:59:48.000Z</time>
      </trkpt>
      <trkpt lat="42.6605224609375" lon="-7.931381702423096">
        <ele>709.0</ele>
        <time>2019-05-01T12:00:17.000Z</time>
      </trkpt>
      <trkpt lat="42.6601676940918" lon="-7.931427955627441">
        <ele>709.0</ele>
        <time>2019-05-01T12:00:48.000Z</time>
      </trkpt>
      <trkpt lat="42.66007995605469" lon="-7.931453704833984">
        <ele>710.0</ele>
        <time>2019-05-01T12:00:57.000Z</time>
      </trkpt>
      <trkpt lat="42.66006088256836" lon="-7.931453704833984">
        <ele>710.0</ele>
        <time>2019-05-01T12:01:11.000Z</time>
      </trkpt>
      <trkpt lat="42.66004180908203" lon="-7.931453227996826">
        <ele>710.0</ele>
        <time>2019-05-01T12:01:12.000Z</time>
      </trkpt>
      <trkpt lat="42.65979766845703" lon="-7.931430816650391">
        <ele>711.0</ele>
        <time>2019-05-01T12:01:22.000Z</time>
      </trkpt>
      <trkpt lat="42.65972900390625" lon="-7.931423187255859">
        <ele>715.0</ele>
        <time>2019-05-01T12:01:33.000Z</time>
      </trkpt>
      <trkpt lat="42.65969467163086" lon="-7.931419372558594">
        <ele>715.0</ele>
        <time>2019-05-01T12:01:34.000Z</time>
      </trkpt>
      <trkpt lat="42.65934371948242" lon="-7.931357383728027">
        <ele>725.0</ele>
        <time>2019-05-01T12:01:55.000Z</time>
      </trkpt>
      <trkpt lat="42.659236907958984" lon="-7.931253433227539">
        <ele>730.0</ele>
        <time>2019-05-01T12:02:06.000Z</time>
      </trkpt>
      <trkpt lat="42.659156799316406" lon="-7.931115627288818">
        <ele>736.0</ele>
        <time>2019-05-01T12:02:16.000Z</time>
      </trkpt>
      <trkpt lat="42.65911102294922" lon="-7.931129455566406">
        <ele>736.0</ele>
        <time>2019-05-01T12:02:21.000Z</time>
      </trkpt>
      <trkpt lat="42.65907287597656" lon="-7.931173801422119">
        <ele>736.0</ele>
        <time>2019-05-01T12:02:26.000Z</time>
      </trkpt>
      <trkpt lat="42.65903091430664" lon="-7.931238651275635">
        <ele>735.0</ele>
        <time>2019-05-01T12:02:31.000Z</time>
      </trkpt>
      <trkpt lat="42.658992767333984" lon="-7.931313991546631">
        <ele>733.0</ele>
        <time>2019-05-01T12:02:35.000Z</time>
      </trkpt>
      <trkpt lat="42.6589469909668" lon="-7.931447982788086">
        <ele>732.0</ele>
        <time>2019-05-01T12:02:46.000Z</time>
      </trkpt>
      <trkpt lat="42.6589241027832" lon="-7.93159818649292">
        <ele>732.0</ele>
        <time>2019-05-01T12:02:56.000Z</time>
      </trkpt>
      <trkpt lat="42.658912658691406" lon="-7.931621551513672">
        <ele>732.0</ele>
        <time>2019-05-01T12:02:58.000Z</time>
      </trkpt>
      <trkpt lat="42.658905029296875" lon="-7.931624889373779">
        <ele>732.0</ele>
        <time>2019-05-01T12:02:59.000Z</time>
      </trkpt>
      <trkpt lat="42.658897399902344" lon="-7.931615352630615">
        <ele>732.0</ele>
        <time>2019-05-01T12:03:00.000Z</time>
      </trkpt>
      <trkpt lat="42.65889358520508" lon="-7.931599140167236">
        <ele>732.0</ele>
        <time>2019-05-01T12:03:01.000Z</time>
      </trkpt>
      <trkpt lat="42.65888214111328" lon="-7.931611061096191">
        <ele>731.0</ele>
        <time>2019-05-01T12:03:06.000Z</time>
      </trkpt>
      <trkpt lat="42.65886688232422" lon="-7.931628227233887">
        <ele>729.0</ele>
        <time>2019-05-01T12:03:10.000Z</time>
      </trkpt>
      <trkpt lat="42.65885543823242" lon="-7.931648254394531">
        <ele>727.0</ele>
        <time>2019-05-01T12:03:15.000Z</time>
      </trkpt>
      <trkpt lat="42.65884017944336" lon="-7.931670188903809">
        <ele>726.0</ele>
        <time>2019-05-01T12:03:19.000Z</time>
      </trkpt>
      <trkpt lat="42.65883255004883" lon="-7.931681156158447">
        <ele>725.0</ele>
        <time>2019-05-01T12:03:20.000Z</time>
      </trkpt>
      <trkpt lat="42.6588249206543" lon="-7.931689262390137">
        <ele>725.0</ele>
        <time>2019-05-01T12:03:20.000Z</time>
      </trkpt>
      <trkpt lat="42.65882110595703" lon="-7.931695461273193">
        <ele>725.0</ele>
        <time>2019-05-01T12:03:20.000Z</time>
      </trkpt>
      <trkpt lat="42.658817291259766" lon="-7.931700229644775">
        <ele>726.0</ele>
        <time>2019-05-01T12:03:20.000Z</time>
      </trkpt>
      <trkpt lat="42.6588020324707" lon="-7.9317145347595215">
        <ele>725.0</ele>
        <time>2019-05-01T12:03:22.000Z</time>
      </trkpt>
      <trkpt lat="42.658782958984375" lon="-7.9317307472229">
        <ele>725.0</ele>
        <time>2019-05-01T12:03:23.000Z</time>
      </trkpt>
      <trkpt lat="42.65876388549805" lon="-7.931748867034912">
        <ele>724.0</ele>
        <time>2019-05-01T12:03:25.000Z</time>
      </trkpt>
      <trkpt lat="42.65874099731445" lon="-7.931768417358398">
        <ele>723.0</ele>
        <time>2019-05-01T12:03:26.000Z</time>
      </trkpt>
      <trkpt lat="42.658729553222656" lon="-7.931783676147461">
        <ele>721.0</ele>
        <time>2019-05-01T12:03:37.000Z</time>
      </trkpt>
      <trkpt lat="42.65873336791992" lon="-7.931790351867676">
        <ele>717.0</ele>
        <time>2019-05-01T12:03:47.000Z</time>
      </trkpt>
      <trkpt lat="42.65873336791992" lon="-7.931795120239258">
        <ele>717.0</ele>
        <time>2019-05-01T12:03:48.000Z</time>
      </trkpt>
      <trkpt lat="42.658729553222656" lon="-7.93179988861084">
        <ele>717.0</ele>
        <time>2019-05-01T12:03:48.000Z</time>
      </trkpt>
      <trkpt lat="42.658729553222656" lon="-7.931804180145264">
        <ele>717.0</ele>
        <time>2019-05-01T12:03:48.000Z</time>
      </trkpt>
      <trkpt lat="42.658729553222656" lon="-7.931808948516846">
        <ele>717.0</ele>
        <time>2019-05-01T12:03:48.000Z</time>
      </trkpt>
      <trkpt lat="42.65871810913086" lon="-7.931858062744141">
        <ele>717.0</ele>
        <time>2019-05-01T12:03:50.000Z</time>
      </trkpt>
      <trkpt lat="42.6587028503418" lon="-7.931925296783447">
        <ele>717.0</ele>
        <time>2019-05-01T12:03:52.000Z</time>
      </trkpt>
      <trkpt lat="42.658687591552734" lon="-7.932005405426025">
        <ele>716.0</ele>
        <time>2019-05-01T12:03:54.000Z</time>
      </trkpt>
      <trkpt lat="42.65867233276367" lon="-7.93209171295166">
        <ele>716.0</ele>
        <time>2019-05-01T12:03:56.000Z</time>
      </trkpt>
      <trkpt lat="42.658660888671875" lon="-7.9321184158325195">
        <ele>714.0</ele>
        <time>2019-05-01T12:04:19.000Z</time>
      </trkpt>
      <trkpt lat="42.658660888671875" lon="-7.932092189788818">
        <ele>710.0</ele>
        <time>2019-05-01T12:04:42.000Z</time>
      </trkpt>
      <trkpt lat="42.65865707397461" lon="-7.932092189788818">
        <ele>710.0</ele>
        <time>2019-05-01T12:04:43.000Z</time>
      </trkpt>
      <trkpt lat="42.65865707397461" lon="-7.932092666625977">
        <ele>710.0</ele>
        <time>2019-05-01T12:04:43.000Z</time>
      </trkpt>
      <trkpt lat="42.658653259277344" lon="-7.932092666625977">
        <ele>710.0</ele>
        <time>2019-05-01T12:04:43.000Z</time>
      </trkpt>
      <trkpt lat="42.65864944458008" lon="-7.932092666625977">
        <ele>710.0</ele>
        <time>2019-05-01T12:04:43.000Z</time>
      </trkpt>
      <trkpt lat="42.658660888671875" lon="-7.932115077972412">
        <ele>710.0</ele>
        <time>2019-05-01T12:04:46.000Z</time>
      </trkpt>
      <trkpt lat="42.65867233276367" lon="-7.932146072387695">
        <ele>710.0</ele>
        <time>2019-05-01T12:04:48.000Z</time>
      </trkpt>
      <trkpt lat="42.65869140625" lon="-7.932183742523193">
        <ele>709.0</ele>
        <time>2019-05-01T12:04:50.000Z</time>
      </trkpt>
      <trkpt lat="42.65871047973633" lon="-7.932224273681641">
        <ele>709.0</ele>
        <time>2019-05-01T12:04:52.000Z</time>
      </trkpt>
      <trkpt lat="42.65869140625" lon="-7.932264804840088">
        <ele>708.0</ele>
        <time>2019-05-01T12:04:58.000Z</time>
      </trkpt>
      <trkpt lat="42.658660888671875" lon="-7.932308673858643">
        <ele>706.0</ele>
        <time>2019-05-01T12:05:04.000Z</time>
      </trkpt>
      <trkpt lat="42.65862274169922" lon="-7.932354927062988">
        <ele>705.0</ele>
        <time>2019-05-01T12:05:10.000Z</time>
      </trkpt>
      <trkpt lat="42.65857696533203" lon="-7.93240213394165">
        <ele>703.0</ele>
        <time>2019-05-01T12:05:16.000Z</time>
      </trkpt>
      <trkpt lat="42.65858840942383" lon="-7.932467937469482">
        <ele>703.0</ele>
        <time>2019-05-01T12:05:21.000Z</time>
      </trkpt>
      <trkpt lat="42.65862274169922" lon="-7.93254280090332">
        <ele>702.0</ele>
        <time>2019-05-01T12:05:25.000Z</time>
      </trkpt>
      <trkpt lat="42.658668518066406" lon="-7.932623386383057">
        <ele>702.0</ele>
        <time>2019-05-01T12:05:30.000Z</time>
      </trkpt>
      <trkpt lat="42.65871810913086" lon="-7.932706832885742">
        <ele>702.0</ele>
        <time>2019-05-01T12:05:34.000Z</time>
      </trkpt>
      <trkpt lat="42.65874481201172" lon="-7.932808876037598">
        <ele>702.0</ele>
        <time>2019-05-01T12:05:43.000Z</time>
      </trkpt>
      <trkpt lat="42.65876388549805" lon="-7.932921409606934">
        <ele>703.0</ele>
        <time>2019-05-01T12:05:52.000Z</time>
      </trkpt>
      <trkpt lat="42.658782958984375" lon="-7.933041572570801">
        <ele>703.0</ele>
        <time>2019-05-01T12:06:01.000Z</time>
      </trkpt>
      <trkpt lat="42.65879821777344" lon="-7.933165073394775">
        <ele>704.0</ele>
        <time>2019-05-01T12:06:09.000Z</time>
      </trkpt>
      <trkpt lat="42.6588249206543" lon="-7.933277606964111">
        <ele>704.0</ele>
        <time>2019-05-01T12:06:19.000Z</time>
      </trkpt>
      <trkpt lat="42.658851623535156" lon="-7.933388710021973">
        <ele>704.0</ele>
        <time>2019-05-01T12:06:28.000Z</time>
      </trkpt>
      <trkpt lat="42.65888214111328" lon="-7.933499336242676">
        <ele>705.0</ele>
        <time>2019-05-01T12:06:37.000Z</time>
      </trkpt>
      <trkpt lat="42.658912658691406" lon="-7.933609962463379">
        <ele>705.0</ele>
        <time>2019-05-01T12:06:46.000Z</time>
      </trkpt>
      <trkpt lat="42.65892028808594" lon="-7.933662414550781">
        <ele>706.0</ele>
        <time>2019-05-01T12:06:49.000Z</time>
      </trkpt>
      <trkpt lat="42.65892028808594" lon="-7.933690547943115">
        <ele>706.0</ele>
        <time>2019-05-01T12:06:52.000Z</time>
      </trkpt>
      <trkpt lat="42.65892028808594" lon="-7.933701992034912">
        <ele>706.0</ele>
        <time>2019-05-01T12:06:55.000Z</time>
      </trkpt>
      <trkpt lat="42.658912658691406" lon="-7.933705806732178">
        <ele>706.0</ele>
        <time>2019-05-01T12:06:58.000Z</time>
      </trkpt>
      <trkpt lat="42.65891647338867" lon="-7.933720111846924">
        <ele>706.0</ele>
        <time>2019-05-01T12:07:03.000Z</time>
      </trkpt>
      <trkpt lat="42.65891647338867" lon="-7.9337310791015625">
        <ele>706.0</ele>
        <time>2019-05-01T12:07:08.000Z</time>
      </trkpt>
      <trkpt lat="42.65892028808594" lon="-7.933739185333252">
        <ele>706.0</ele>
        <time>2019-05-01T12:07:13.000Z</time>
      </trkpt>
      <trkpt lat="42.6589241027832" lon="-7.933745861053467">
        <ele>706.0</ele>
        <time>2019-05-01T12:07:17.000Z</time>
      </trkpt>
      <trkpt lat="42.65892791748047" lon="-7.933753967285156">
        <ele>706.0</ele>
        <time>2019-05-01T12:07:18.000Z</time>
      </trkpt>
      <trkpt lat="42.658931732177734" lon="-7.9337615966796875">
        <ele>706.0</ele>
        <time>2019-05-01T12:07:18.000Z</time>
      </trkpt>
      <trkpt lat="42.658931732177734" lon="-7.933768272399902">
        <ele>706.0</ele>
        <time>2019-05-01T12:07:18.000Z</time>
      </trkpt>
      <trkpt lat="42.658935546875" lon="-7.933775424957275">
        <ele>706.0</ele>
        <time>2019-05-01T12:07:18.000Z</time>
      </trkpt>
      <trkpt lat="42.65907669067383" lon="-7.934177875518799">
        <ele>705.0</ele>
        <time>2019-05-01T12:07:41.000Z</time>
      </trkpt>
      <trkpt lat="42.65909194946289" lon="-7.934249401092529">
        <ele>705.0</ele>
        <time>2019-05-01T12:07:48.000Z</time>
      </trkpt>
      <trkpt lat="42.659114837646484" lon="-7.93435001373291">
        <ele>704.0</ele>
        <time>2019-05-01T12:08:04.000Z</time>
      </trkpt>
      <trkpt lat="42.659122467041016" lon="-7.934393405914307">
        <ele>704.0</ele>
        <time>2019-05-01T12:08:05.000Z</time>
      </trkpt>
      <trkpt lat="42.65914535522461" lon="-7.934551239013672">
        <ele>705.0</ele>
        <time>2019-05-01T12:08:12.000Z</time>
      </trkpt>
      <trkpt lat="42.65911102294922" lon="-7.934586524963379">
        <ele>705.0</ele>
        <time>2019-05-01T12:08:17.000Z</time>
      </trkpt>
      <trkpt lat="42.659061431884766" lon="-7.934619903564453">
        <ele>706.0</ele>
        <time>2019-05-01T12:08:22.000Z</time>
      </trkpt>
      <trkpt lat="42.659000396728516" lon="-7.934652328491211">
        <ele>706.0</ele>
        <time>2019-05-01T12:08:27.000Z</time>
      </trkpt>
      <trkpt lat="42.658931732177734" lon="-7.934683799743652">
        <ele>707.0</ele>
        <time>2019-05-01T12:08:32.000Z</time>
      </trkpt>
      <trkpt lat="42.65891647338867" lon="-7.934717655181885">
        <ele>707.0</ele>
        <time>2019-05-01T12:08:35.000Z</time>
      </trkpt>
      <trkpt lat="42.65892028808594" lon="-7.934751987457275">
        <ele>707.0</ele>
        <time>2019-05-01T12:08:37.000Z</time>
      </trkpt>
      <trkpt lat="42.658935546875" lon="-7.934786319732666">
        <ele>707.0</ele>
        <time>2019-05-01T12:08:40.000Z</time>
      </trkpt>
      <trkpt lat="42.65895462036133" lon="-7.934821128845215">
        <ele>707.0</ele>
        <time>2019-05-01T12:08:42.000Z</time>
      </trkpt>
      <trkpt lat="42.65896987915039" lon="-7.934879779815674">
        <ele>707.0</ele>
        <time>2019-05-01T12:08:47.000Z</time>
      </trkpt>
      <trkpt lat="42.658992767333984" lon="-7.934948444366455">
        <ele>707.0</ele>
        <time>2019-05-01T12:08:52.000Z</time>
      </trkpt>
      <trkpt lat="42.65901565551758" lon="-7.935023784637451">
        <ele>707.0</ele>
        <time>2019-05-01T12:08:57.000Z</time>
      </trkpt>
      <trkpt lat="42.65903854370117" lon="-7.935102939605713">
        <ele>707.0</ele>
        <time>2019-05-01T12:09:01.000Z</time>
      </trkpt>
      <trkpt lat="42.659027099609375" lon="-7.935157299041748">
        <ele>707.0</ele>
        <time>2019-05-01T12:09:06.000Z</time>
      </trkpt>
      <trkpt lat="42.65900421142578" lon="-7.935205459594727">
        <ele>707.0</ele>
        <time>2019-05-01T12:09:10.000Z</time>
      </trkpt>
      <trkpt lat="42.658973693847656" lon="-7.935248851776123">
        <ele>707.0</ele>
        <time>2019-05-01T12:09:15.000Z</time>
      </trkpt>
      <trkpt lat="42.658935546875" lon="-7.935290336608887">
        <ele>707.0</ele>
        <time>2019-05-01T12:09:19.000Z</time>
      </trkpt>
      <trkpt lat="42.658905029296875" lon="-7.935336589813232">
        <ele>706.0</ele>
        <time>2019-05-01T12:09:24.000Z</time>
      </trkpt>
      <trkpt lat="42.65887451171875" lon="-7.93538236618042">
        <ele>705.0</ele>
        <time>2019-05-01T12:09:28.000Z</time>
      </trkpt>
      <trkpt lat="42.65884017944336" lon="-7.935427665710449">
        <ele>704.0</ele>
        <time>2019-05-01T12:09:33.000Z</time>
      </trkpt>
      <trkpt lat="42.658809661865234" lon="-7.935473442077637">
        <ele>703.0</ele>
        <time>2019-05-01T12:09:37.000Z</time>
      </trkpt>
      <trkpt lat="42.658790588378906" lon="-7.935492992401123">
        <ele>702.0</ele>
        <time>2019-05-01T12:09:39.000Z</time>
      </trkpt>
      <trkpt lat="42.658782958984375" lon="-7.935502052307129">
        <ele>702.0</ele>
        <time>2019-05-01T12:09:40.000Z</time>
      </trkpt>
      <trkpt lat="42.658775329589844" lon="-7.9355034828186035">
        <ele>702.0</ele>
        <time>2019-05-01T12:09:42.000Z</time>
      </trkpt>
      <trkpt lat="42.65877151489258" lon="-7.935501575469971">
        <ele>703.0</ele>
        <time>2019-05-01T12:09:43.000Z</time>
      </trkpt>
      <trkpt lat="42.658756256103516" lon="-7.9355268478393555">
        <ele>703.0</ele>
        <time>2019-05-01T12:09:52.000Z</time>
      </trkpt>
      <trkpt lat="42.65874099731445" lon="-7.9355573654174805">
        <ele>703.0</ele>
        <time>2019-05-01T12:10:01.000Z</time>
      </trkpt>
      <trkpt lat="42.65873718261719" lon="-7.935567378997803">
        <ele>703.0</ele>
        <time>2019-05-01T12:10:02.000Z</time>
      </trkpt>
      <trkpt lat="42.65873336791992" lon="-7.935576438903809">
        <ele>703.0</ele>
        <time>2019-05-01T12:10:02.000Z</time>
      </trkpt>
      <trkpt lat="42.658729553222656" lon="-7.93558406829834">
        <ele>703.0</ele>
        <time>2019-05-01T12:10:02.000Z</time>
      </trkpt>
      <trkpt lat="42.65872573852539" lon="-7.935591220855713">
        <ele>703.0</ele>
        <time>2019-05-01T12:10:02.000Z</time>
      </trkpt>
      <trkpt lat="42.65871047973633" lon="-7.935631275177002">
        <ele>702.0</ele>
        <time>2019-05-01T12:10:05.000Z</time>
      </trkpt>
      <trkpt lat="42.65869140625" lon="-7.935685157775879">
        <ele>702.0</ele>
        <time>2019-05-01T12:10:07.000Z</time>
      </trkpt>
      <trkpt lat="42.65867233276367" lon="-7.9357476234436035">
        <ele>701.0</ele>
        <time>2019-05-01T12:10:09.000Z</time>
      </trkpt>
      <trkpt lat="42.658653259277344" lon="-7.93581485748291">
        <ele>701.0</ele>
        <time>2019-05-01T12:10:11.000Z</time>
      </trkpt>
      <trkpt lat="42.658634185791016" lon="-7.93587589263916">
        <ele>700.0</ele>
        <time>2019-05-01T12:10:16.000Z</time>
      </trkpt>
      <trkpt lat="42.65861892700195" lon="-7.935938835144043">
        <ele>700.0</ele>
        <time>2019-05-01T12:10:20.000Z</time>
      </trkpt>
      <trkpt lat="42.65860366821289" lon="-7.936003684997559">
        <ele>699.0</ele>
        <time>2019-05-01T12:10:24.000Z</time>
      </trkpt>
      <trkpt lat="42.658592224121094" lon="-7.936069011688232">
        <ele>698.0</ele>
        <time>2019-05-01T12:10:28.000Z</time>
      </trkpt>
      <trkpt lat="42.6585693359375" lon="-7.936122894287109">
        <ele>697.0</ele>
        <time>2019-05-01T12:10:32.000Z</time>
      </trkpt>
      <trkpt lat="42.65854263305664" lon="-7.936172008514404">
        <ele>696.0</ele>
        <time>2019-05-01T12:10:35.000Z</time>
      </trkpt>
      <trkpt lat="42.658512115478516" lon="-7.936218738555908">
        <ele>695.0</ele>
        <time>2019-05-01T12:10:38.000Z</time>
      </trkpt>
      <trkpt lat="42.65848159790039" lon="-7.9362640380859375">
        <ele>694.0</ele>
        <time>2019-05-01T12:10:41.000Z</time>
      </trkpt>
      <trkpt lat="42.65846252441406" lon="-7.9363179206848145">
        <ele>693.0</ele>
        <time>2019-05-01T12:10:45.000Z</time>
      </trkpt>
      <trkpt lat="42.658443450927734" lon="-7.936373710632324">
        <ele>692.0</ele>
        <time>2019-05-01T12:10:49.000Z</time>
      </trkpt>
      <trkpt lat="42.658424377441406" lon="-7.93643045425415">
        <ele>692.0</ele>
        <time>2019-05-01T12:10:53.000Z</time>
      </trkpt>
      <trkpt lat="42.658409118652344" lon="-7.936488151550293">
        <ele>691.0</ele>
        <time>2019-05-01T12:10:57.000Z</time>
      </trkpt>
      <trkpt lat="42.65837860107422" lon="-7.936738967895508">
        <ele>690.0</ele>
        <time>2019-05-01T12:11:13.000Z</time>
      </trkpt>
      <trkpt lat="42.6582145690918" lon="-7.937146186828613">
        <ele>687.0</ele>
        <time>2019-05-01T12:11:46.000Z</time>
      </trkpt>
      <trkpt lat="42.658103942871094" lon="-7.937609672546387">
        <ele>688.0</ele>
        <time>2019-05-01T12:12:11.000Z</time>
      </trkpt>
      <trkpt lat="42.65804672241211" lon="-7.937759876251221">
        <ele>691.0</ele>
        <time>2019-05-01T12:12:28.000Z</time>
      </trkpt>
      <trkpt lat="42.65802001953125" lon="-7.937839984893799">
        <ele>691.0</ele>
        <time>2019-05-01T12:12:47.000Z</time>
      </trkpt>
      <trkpt lat="42.65800476074219" lon="-7.937881946563721">
        <ele>691.0</ele>
        <time>2019-05-01T12:12:48.000Z</time>
      </trkpt>
      <trkpt lat="42.65796661376953" lon="-7.938032150268555">
        <ele>692.0</ele>
        <time>2019-05-01T12:13:00.000Z</time>
      </trkpt>
      <trkpt lat="42.65795135498047" lon="-7.9380998611450195">
        <ele>692.0</ele>
        <time>2019-05-01T12:13:45.000Z</time>
      </trkpt>
      <trkpt lat="42.65794372558594" lon="-7.938138961791992">
        <ele>692.0</ele>
        <time>2019-05-01T12:13:46.000Z</time>
      </trkpt>
      <trkpt lat="42.65793991088867" lon="-7.938143253326416">
        <ele>692.0</ele>
        <time>2019-05-01T12:13:47.000Z</time>
      </trkpt>
      <trkpt lat="42.65793991088867" lon="-7.938150882720947">
        <ele>693.0</ele>
        <time>2019-05-01T12:14:03.000Z</time>
      </trkpt>
      <trkpt lat="42.657936096191406" lon="-7.93815803527832">
        <ele>693.0</ele>
        <time>2019-05-01T12:14:04.000Z</time>
      </trkpt>
      <trkpt lat="42.65771484375" lon="-7.938512802124023">
        <ele>691.0</ele>
        <time>2019-05-01T12:14:17.000Z</time>
      </trkpt>
      <trkpt lat="42.65766143798828" lon="-7.938740253448486">
        <ele>690.0</ele>
        <time>2019-05-01T12:14:29.000Z</time>
      </trkpt>
      <trkpt lat="42.657630920410156" lon="-7.938990592956543">
        <ele>689.0</ele>
        <time>2019-05-01T12:14:41.000Z</time>
      </trkpt>
      <trkpt lat="42.65761184692383" lon="-7.93905782699585">
        <ele>689.0</ele>
        <time>2019-05-01T12:14:44.000Z</time>
      </trkpt>
      <trkpt lat="42.657588958740234" lon="-7.939103126525879">
        <ele>689.0</ele>
        <time>2019-05-01T12:14:47.000Z</time>
      </trkpt>
      <trkpt lat="42.65756607055664" lon="-7.939133644104004">
        <ele>689.0</ele>
        <time>2019-05-01T12:14:50.000Z</time>
      </trkpt>
      <trkpt lat="42.65754318237305" lon="-7.939157485961914">
        <ele>689.0</ele>
        <time>2019-05-01T12:14:53.000Z</time>
      </trkpt>
      <trkpt lat="42.65745162963867" lon="-7.939219951629639">
        <ele>688.0</ele>
        <time>2019-05-01T12:15:02.000Z</time>
      </trkpt>
      <trkpt lat="42.657344818115234" lon="-7.939272403717041">
        <ele>687.0</ele>
        <time>2019-05-01T12:15:11.000Z</time>
      </trkpt>
      <trkpt lat="42.65727233886719" lon="-7.939321041107178">
        <ele>688.0</ele>
        <time>2019-05-01T12:15:18.000Z</time>
      </trkpt>
      <trkpt lat="42.657196044921875" lon="-7.939377784729004">
        <ele>689.0</ele>
        <time>2019-05-01T12:15:25.000Z</time>
      </trkpt>
      <trkpt lat="42.65711212158203" lon="-7.9394402503967285">
        <ele>690.0</ele>
        <time>2019-05-01T12:15:32.000Z</time>
      </trkpt>
      <trkpt lat="42.65702438354492" lon="-7.939505100250244">
        <ele>692.0</ele>
        <time>2019-05-01T12:15:38.000Z</time>
      </trkpt>
      <trkpt lat="42.65694046020508" lon="-7.939548969268799">
        <ele>692.0</ele>
        <time>2019-05-01T12:15:46.000Z</time>
      </trkpt>
      <trkpt lat="42.656856536865234" lon="-7.939586162567139">
        <ele>692.0</ele>
        <time>2019-05-01T12:15:53.000Z</time>
      </trkpt>
      <trkpt lat="42.65677261352539" lon="-7.939619541168213">
        <ele>692.0</ele>
        <time>2019-05-01T12:16:00.000Z</time>
      </trkpt>
      <trkpt lat="42.65668487548828" lon="-7.939651012420654">
        <ele>692.0</ele>
        <time>2019-05-01T12:16:07.000Z</time>
      </trkpt>
      <trkpt lat="42.65660095214844" lon="-7.939688205718994">
        <ele>691.0</ele>
        <time>2019-05-01T12:16:15.000Z</time>
      </trkpt>
      <trkpt lat="42.65651321411133" lon="-7.939725875854492">
        <ele>690.0</ele>
        <time>2019-05-01T12:16:22.000Z</time>
      </trkpt>
      <trkpt lat="42.656429290771484" lon="-7.93976354598999">
        <ele>688.0</ele>
        <time>2019-05-01T12:16:29.000Z</time>
      </trkpt>
      <trkpt lat="42.65634536743164" lon="-7.9398016929626465">
        <ele>687.0</ele>
        <time>2019-05-01T12:16:36.000Z</time>
      </trkpt>
      <trkpt lat="42.65628433227539" lon="-7.939840316772461">
        <ele>687.0</ele>
        <time>2019-05-01T12:16:41.000Z</time>
      </trkpt>
      <trkpt lat="42.65623092651367" lon="-7.939878940582275">
        <ele>687.0</ele>
        <time>2019-05-01T12:16:45.000Z</time>
      </trkpt>
      <trkpt lat="42.656185150146484" lon="-7.93991756439209">
        <ele>688.0</ele>
        <time>2019-05-01T12:16:49.000Z</time>
      </trkpt>
      <trkpt lat="42.65614318847656" lon="-7.9399566650390625">
        <ele>688.0</ele>
        <time>2019-05-01T12:16:53.000Z</time>
      </trkpt>
      <trkpt lat="42.65606689453125" lon="-7.939966201782227">
        <ele>688.0</ele>
        <time>2019-05-01T12:16:59.000Z</time>
      </trkpt>
      <trkpt lat="42.656002044677734" lon="-7.939945220947266">
        <ele>688.0</ele>
        <time>2019-05-01T12:17:04.000Z</time>
      </trkpt>
      <trkpt lat="42.65592956542969" lon="-7.939947128295898">
        <ele>688.0</ele>
        <time>2019-05-01T12:17:12.000Z</time>
      </trkpt>
      <trkpt lat="42.655845642089844" lon="-7.9399518966674805">
        <ele>688.0</ele>
        <time>2019-05-01T12:17:19.000Z</time>
      </trkpt>
      <trkpt lat="42.6557502746582" lon="-7.939957618713379">
        <ele>688.0</ele>
        <time>2019-05-01T12:17:26.000Z</time>
      </trkpt>
      <trkpt lat="42.65564727783203" lon="-7.939964294433594">
        <ele>688.0</ele>
        <time>2019-05-01T12:17:33.000Z</time>
      </trkpt>
      <trkpt lat="42.65549087524414" lon="-7.940052032470703">
        <ele>686.0</ele>
        <time>2019-05-01T12:17:48.000Z</time>
      </trkpt>
      <trkpt lat="42.655338287353516" lon="-7.940176486968994">
        <ele>684.0</ele>
        <time>2019-05-01T12:18:03.000Z</time>
      </trkpt>
      <trkpt lat="42.6552734375" lon="-7.9402546882629395">
        <ele>682.0</ele>
        <time>2019-05-01T12:18:11.000Z</time>
      </trkpt>
      <trkpt lat="42.65521240234375" lon="-7.940342903137207">
        <ele>680.0</ele>
        <time>2019-05-01T12:18:19.000Z</time>
      </trkpt>
      <trkpt lat="42.65515899658203" lon="-7.9404377937316895">
        <ele>677.0</ele>
        <time>2019-05-01T12:18:27.000Z</time>
      </trkpt>
      <trkpt lat="42.65510559082031" lon="-7.9405364990234375">
        <ele>675.0</ele>
        <time>2019-05-01T12:18:34.000Z</time>
      </trkpt>
      <trkpt lat="42.65506362915039" lon="-7.940602779388428">
        <ele>673.0</ele>
        <time>2019-05-01T12:18:38.000Z</time>
      </trkpt>
      <trkpt lat="42.655033111572266" lon="-7.940659046173096">
        <ele>672.0</ele>
        <time>2019-05-01T12:18:42.000Z</time>
      </trkpt>
      <trkpt lat="42.655006408691406" lon="-7.940708160400391">
        <ele>671.0</ele>
        <time>2019-05-01T12:18:46.000Z</time>
      </trkpt>
      <trkpt lat="42.65498352050781" lon="-7.940754413604736">
        <ele>670.0</ele>
        <time>2019-05-01T12:18:50.000Z</time>
      </trkpt>
      <trkpt lat="42.654945373535156" lon="-7.940779685974121">
        <ele>669.0</ele>
        <time>2019-05-01T12:18:55.000Z</time>
      </trkpt>
      <trkpt lat="42.654903411865234" lon="-7.940793514251709">
        <ele>668.0</ele>
        <time>2019-05-01T12:18:59.000Z</time>
      </trkpt>
      <trkpt lat="42.65485763549805" lon="-7.940798759460449">
        <ele>667.0</ele>
        <time>2019-05-01T12:19:04.000Z</time>
      </trkpt>
      <trkpt lat="42.65481185913086" lon="-7.940799713134766">
        <ele>666.0</ele>
        <time>2019-05-01T12:19:08.000Z</time>
      </trkpt>
      <trkpt lat="42.65473937988281" lon="-7.940828323364258">
        <ele>665.0</ele>
        <time>2019-05-01T12:19:16.000Z</time>
      </trkpt>
      <trkpt lat="42.654659271240234" lon="-7.940864086151123">
        <ele>664.0</ele>
        <time>2019-05-01T12:19:23.000Z</time>
      </trkpt>
      <trkpt lat="42.65456771850586" lon="-7.94090461730957">
        <ele>663.0</ele>
        <time>2019-05-01T12:19:31.000Z</time>
      </trkpt>
      <trkpt lat="42.654476165771484" lon="-7.940947532653809">
        <ele>662.0</ele>
        <time>2019-05-01T12:19:39.000Z</time>
      </trkpt>
      <trkpt lat="42.65444564819336" lon="-7.940977096557617">
        <ele>662.0</ele>
        <time>2019-05-01T12:19:41.000Z</time>
      </trkpt>
      <trkpt lat="42.654441833496094" lon="-7.941003799438477">
        <ele>662.0</ele>
        <time>2019-05-01T12:19:43.000Z</time>
      </trkpt>
      <trkpt lat="42.654449462890625" lon="-7.941028118133545">
        <ele>662.0</ele>
        <time>2019-05-01T12:19:45.000Z</time>
      </trkpt>
      <trkpt lat="42.65446853637695" lon="-7.941051483154297">
        <ele>663.0</ele>
        <time>2019-05-01T12:19:47.000Z</time>
      </trkpt>
      <trkpt lat="42.65445327758789" lon="-7.941065311431885">
        <ele>664.0</ele>
        <time>2019-05-01T12:19:57.000Z</time>
      </trkpt>
      <trkpt lat="42.65443420410156" lon="-7.941074371337891">
        <ele>665.0</ele>
        <time>2019-05-01T12:20:07.000Z</time>
      </trkpt>
      <trkpt lat="42.654415130615234" lon="-7.941080570220947">
        <ele>667.0</ele>
        <time>2019-05-01T12:20:17.000Z</time>
      </trkpt>
      <trkpt lat="42.654388427734375" lon="-7.941084384918213">
        <ele>669.0</ele>
        <time>2019-05-01T12:20:26.000Z</time>
      </trkpt>
      <trkpt lat="42.65437698364258" lon="-7.941089630126953">
        <ele>669.0</ele>
        <time>2019-05-01T12:20:27.000Z</time>
      </trkpt>
      <trkpt lat="42.65436935424805" lon="-7.941093444824219">
        <ele>669.0</ele>
        <time>2019-05-01T12:20:27.000Z</time>
      </trkpt>
      <trkpt lat="42.654361724853516" lon="-7.941096305847168">
        <ele>669.0</ele>
        <time>2019-05-01T12:20:27.000Z</time>
      </trkpt>
      <trkpt lat="42.654354095458984" lon="-7.941098690032959">
        <ele>669.0</ele>
        <time>2019-05-01T12:20:27.000Z</time>
      </trkpt>
      <trkpt lat="42.654319763183594" lon="-7.941105365753174">
        <ele>669.0</ele>
        <time>2019-05-01T12:20:29.000Z</time>
      </trkpt>
      <trkpt lat="42.654273986816406" lon="-7.941112518310547">
        <ele>669.0</ele>
        <time>2019-05-01T12:20:31.000Z</time>
      </trkpt>
      <trkpt lat="42.65422058105469" lon="-7.941120624542236">
        <ele>670.0</ele>
        <time>2019-05-01T12:20:33.000Z</time>
      </trkpt>
      <trkpt lat="42.65415954589844" lon="-7.941129207611084">
        <ele>671.0</ele>
        <time>2019-05-01T12:20:34.000Z</time>
      </trkpt>
      <trkpt lat="42.654090881347656" lon="-7.941169738769531">
        <ele>672.0</ele>
        <time>2019-05-01T12:20:43.000Z</time>
      </trkpt>
      <trkpt lat="42.654014587402344" lon="-7.941223621368408">
        <ele>674.0</ele>
        <time>2019-05-01T12:20:51.000Z</time>
      </trkpt>
      <trkpt lat="42.653926849365234" lon="-7.941286563873291">
        <ele>676.0</ele>
        <time>2019-05-01T12:20:59.000Z</time>
      </trkpt>
      <trkpt lat="42.65384292602539" lon="-7.941354274749756">
        <ele>678.0</ele>
        <time>2019-05-01T12:21:07.000Z</time>
      </trkpt>
      <trkpt lat="42.65379333496094" lon="-7.94138240814209">
        <ele>678.0</ele>
        <time>2019-05-01T12:21:10.000Z</time>
      </trkpt>
      <trkpt lat="42.65376281738281" lon="-7.941399574279785">
        <ele>678.0</ele>
        <time>2019-05-01T12:21:12.000Z</time>
      </trkpt>
      <trkpt lat="42.65373992919922" lon="-7.941408634185791">
        <ele>677.0</ele>
        <time>2019-05-01T12:21:14.000Z</time>
      </trkpt>
      <trkpt lat="42.65372085571289" lon="-7.941413879394531">
        <ele>676.0</ele>
        <time>2019-05-01T12:21:16.000Z</time>
      </trkpt>
      <trkpt lat="42.65364074707031" lon="-7.941519737243652">
        <ele>673.0</ele>
        <time>2019-05-01T12:21:26.000Z</time>
      </trkpt>
      <trkpt lat="42.6535530090332" lon="-7.941660404205322">
        <ele>670.0</ele>
        <time>2019-05-01T12:21:35.000Z</time>
      </trkpt>
      <trkpt lat="42.65349578857422" lon="-7.94173526763916">
        <ele>669.0</ele>
        <time>2019-05-01T12:21:43.000Z</time>
      </trkpt>
      <trkpt lat="42.65342712402344" lon="-7.941815376281738">
        <ele>668.0</ele>
        <time>2019-05-01T12:21:51.000Z</time>
      </trkpt>
      <trkpt lat="42.65335464477539" lon="-7.94189977645874">
        <ele>668.0</ele>
        <time>2019-05-01T12:21:59.000Z</time>
      </trkpt>
      <trkpt lat="42.653282165527344" lon="-7.941985607147217">
        <ele>667.0</ele>
        <time>2019-05-01T12:22:06.000Z</time>
      </trkpt>
      <trkpt lat="42.653175354003906" lon="-7.94204568862915">
        <ele>667.0</ele>
        <time>2019-05-01T12:22:14.000Z</time>
      </trkpt>
      <trkpt lat="42.65308380126953" lon="-7.942059516906738">
        <ele>667.0</ele>
        <time>2019-05-01T12:22:22.000Z</time>
      </trkpt>
      <trkpt lat="42.65304183959961" lon="-7.942047119140625">
        <ele>667.0</ele>
        <time>2019-05-01T12:22:26.000Z</time>
      </trkpt>
      <trkpt lat="42.653011322021484" lon="-7.942022323608398">
        <ele>668.0</ele>
        <time>2019-05-01T12:22:30.000Z</time>
      </trkpt>
      <trkpt lat="42.652976989746094" lon="-7.941989421844482">
        <ele>668.0</ele>
        <time>2019-05-01T12:22:34.000Z</time>
      </trkpt>
      <trkpt lat="42.652950286865234" lon="-7.941951751708984">
        <ele>668.0</ele>
        <time>2019-05-01T12:22:37.000Z</time>
      </trkpt>
      <trkpt lat="42.65291213989258" lon="-7.941927433013916">
        <ele>668.0</ele>
        <time>2019-05-01T12:22:43.000Z</time>
      </trkpt>
      <trkpt lat="42.65287399291992" lon="-7.941904544830322">
        <ele>667.0</ele>
        <time>2019-05-01T12:22:48.000Z</time>
      </trkpt>
      <trkpt lat="42.65283203125" lon="-7.941882133483887">
        <ele>666.0</ele>
        <time>2019-05-01T12:22:53.000Z</time>
      </trkpt>
      <trkpt lat="42.65279006958008" lon="-7.941860198974609">
        <ele>665.0</ele>
        <time>2019-05-01T12:22:58.000Z</time>
      </trkpt>
      <trkpt lat="42.652748107910156" lon="-7.941845417022705">
        <ele>664.0</ele>
        <time>2019-05-01T12:23:02.000Z</time>
      </trkpt>
      <trkpt lat="42.652706146240234" lon="-7.94183349609375">
        <ele>664.0</ele>
        <time>2019-05-01T12:23:05.000Z</time>
      </trkpt>
      <trkpt lat="42.65266418457031" lon="-7.941823482513428">
        <ele>663.0</ele>
        <time>2019-05-01T12:23:09.000Z</time>
      </trkpt>
      <trkpt lat="42.65262222290039" lon="-7.94181489944458">
        <ele>662.0</ele>
        <time>2019-05-01T12:23:12.000Z</time>
      </trkpt>
      <trkpt lat="42.65258026123047" lon="-7.941812515258789">
        <ele>661.0</ele>
        <time>2019-05-01T12:23:16.000Z</time>
      </trkpt>
      <trkpt lat="42.65253829956055" lon="-7.941813945770264">
        <ele>661.0</ele>
        <time>2019-05-01T12:23:19.000Z</time>
      </trkpt>
      <trkpt lat="42.65249252319336" lon="-7.941817760467529">
        <ele>660.0</ele>
        <time>2019-05-01T12:23:22.000Z</time>
      </trkpt>
      <trkpt lat="42.65245056152344" lon="-7.941822528839111">
        <ele>660.0</ele>
        <time>2019-05-01T12:23:25.000Z</time>
      </trkpt>
      <trkpt lat="42.65241241455078" lon="-7.941849231719971">
        <ele>658.0</ele>
        <time>2019-05-01T12:23:29.000Z</time>
      </trkpt>
      <trkpt lat="42.65237808227539" lon="-7.941885471343994">
        <ele>657.0</ele>
        <time>2019-05-01T12:23:33.000Z</time>
      </trkpt>
      <trkpt lat="42.65234375" lon="-7.941929340362549">
        <ele>655.0</ele>
        <time>2019-05-01T12:23:37.000Z</time>
      </trkpt>
      <trkpt lat="42.652313232421875" lon="-7.941976070404053">
        <ele>654.0</ele>
        <time>2019-05-01T12:23:40.000Z</time>
      </trkpt>
      <trkpt lat="42.65228271484375" lon="-7.94202184677124">
        <ele>651.0</ele>
        <time>2019-05-01T12:23:45.000Z</time>
      </trkpt>
      <trkpt lat="42.652252197265625" lon="-7.942070960998535">
        <ele>648.0</ele>
        <time>2019-05-01T12:23:49.000Z</time>
      </trkpt>
      <trkpt lat="42.652225494384766" lon="-7.942121982574463">
        <ele>645.0</ele>
        <time>2019-05-01T12:23:53.000Z</time>
      </trkpt>
      <trkpt lat="42.652198791503906" lon="-7.942174434661865">
        <ele>641.0</ele>
        <time>2019-05-01T12:23:57.000Z</time>
      </trkpt>
      <trkpt lat="42.65217208862305" lon="-7.9422221183776855">
        <ele>639.0</ele>
        <time>2019-05-01T12:24:01.000Z</time>
      </trkpt>
      <trkpt lat="42.65214157104492" lon="-7.9422688484191895">
        <ele>638.0</ele>
        <time>2019-05-01T12:24:04.000Z</time>
      </trkpt>
      <trkpt lat="42.65211486816406" lon="-7.942315578460693">
        <ele>637.0</ele>
        <time>2019-05-01T12:24:08.000Z</time>
      </trkpt>
      <trkpt lat="42.65208435058594" lon="-7.942361354827881">
        <ele>636.0</ele>
        <time>2019-05-01T12:24:11.000Z</time>
      </trkpt>
      <trkpt lat="42.65207290649414" lon="-7.942434310913086">
        <ele>635.0</ele>
        <time>2019-05-01T12:24:19.000Z</time>
      </trkpt>
      <trkpt lat="42.65208053588867" lon="-7.942497253417969">
        <ele>634.0</ele>
        <time>2019-05-01T12:24:26.000Z</time>
      </trkpt>
      <trkpt lat="42.65208435058594" lon="-7.942516326904297">
        <ele>634.0</ele>
        <time>2019-05-01T12:24:30.000Z</time>
      </trkpt>
      <trkpt lat="42.65208435058594" lon="-7.94252872467041">
        <ele>634.0</ele>
        <time>2019-05-01T12:24:34.000Z</time>
      </trkpt>
      <trkpt lat="42.6520881652832" lon="-7.942537307739258">
        <ele>635.0</ele>
        <time>2019-05-01T12:24:38.000Z</time>
      </trkpt>
      <trkpt lat="42.6520881652832" lon="-7.9425435066223145">
        <ele>635.0</ele>
        <time>2019-05-01T12:24:42.000Z</time>
      </trkpt>
      <trkpt lat="42.65209197998047" lon="-7.9425530433654785">
        <ele>635.0</ele>
        <time>2019-05-01T12:24:43.000Z</time>
      </trkpt>
      <trkpt lat="42.65209197998047" lon="-7.942561626434326">
        <ele>635.0</ele>
        <time>2019-05-01T12:24:43.000Z</time>
      </trkpt>
      <trkpt lat="42.652095794677734" lon="-7.942569255828857">
        <ele>635.0</ele>
        <time>2019-05-01T12:24:43.000Z</time>
      </trkpt>
      <trkpt lat="42.652095794677734" lon="-7.942576885223389">
        <ele>635.0</ele>
        <time>2019-05-01T12:24:43.000Z</time>
      </trkpt>
      <trkpt lat="42.652099609375" lon="-7.942615985870361">
        <ele>635.0</ele>
        <time>2019-05-01T12:24:44.000Z</time>
      </trkpt>
      <trkpt lat="42.65210723876953" lon="-7.942668437957764">
        <ele>635.0</ele>
        <time>2019-05-01T12:24:45.000Z</time>
      </trkpt>
      <trkpt lat="42.65211486816406" lon="-7.9427289962768555">
        <ele>635.0</ele>
        <time>2019-05-01T12:24:46.000Z</time>
      </trkpt>
      <trkpt lat="42.652122497558594" lon="-7.942794322967529">
        <ele>635.0</ele>
        <time>2019-05-01T12:24:47.000Z</time>
      </trkpt>
      <trkpt lat="42.652122497558594" lon="-7.942852020263672">
        <ele>635.0</ele>
        <time>2019-05-01T12:24:51.000Z</time>
      </trkpt>
      <trkpt lat="42.652122497558594" lon="-7.9429121017456055">
        <ele>635.0</ele>
        <time>2019-05-01T12:24:54.000Z</time>
      </trkpt>
      <trkpt lat="42.65211868286133" lon="-7.942972660064697">
        <ele>635.0</ele>
        <time>2019-05-01T12:24:57.000Z</time>
      </trkpt>
      <trkpt lat="42.65211486816406" lon="-7.9430341720581055">
        <ele>635.0</ele>
        <time>2019-05-01T12:25:00.000Z</time>
      </trkpt>
      <trkpt lat="42.652103424072266" lon="-7.943095684051514">
        <ele>635.0</ele>
        <time>2019-05-01T12:25:04.000Z</time>
      </trkpt>
      <trkpt lat="42.65209197998047" lon="-7.943158149719238">
        <ele>634.0</ele>
        <time>2019-05-01T12:25:08.000Z</time>
      </trkpt>
      <trkpt lat="42.65207290649414" lon="-7.943220615386963">
        <ele>633.0</ele>
        <time>2019-05-01T12:25:12.000Z</time>
      </trkpt>
      <trkpt lat="42.65205764770508" lon="-7.943283557891846">
        <ele>632.0</ele>
        <time>2019-05-01T12:25:16.000Z</time>
      </trkpt>
      <trkpt lat="42.65202713012695" lon="-7.943537712097168">
        <ele>632.0</ele>
        <time>2019-05-01T12:25:29.000Z</time>
      </trkpt>
      <trkpt lat="42.651939392089844" lon="-7.9437713623046875">
        <ele>634.0</ele>
        <time>2019-05-01T12:25:41.000Z</time>
      </trkpt>
      <trkpt lat="42.65182113647461" lon="-7.944231033325195">
        <ele>643.0</ele>
        <time>2019-05-01T12:26:12.000Z</time>
      </trkpt>
      <trkpt lat="42.65166091918945" lon="-7.944666385650635">
        <ele>646.0</ele>
        <time>2019-05-01T12:26:41.000Z</time>
      </trkpt>
      <trkpt lat="42.651634216308594" lon="-7.945004463195801">
        <ele>647.0</ele>
        <time>2019-05-01T12:27:01.000Z</time>
      </trkpt>
      <trkpt lat="42.65158462524414" lon="-7.945120334625244">
        <ele>647.0</ele>
        <time>2019-05-01T12:27:07.000Z</time>
      </trkpt>
      <trkpt lat="42.65152359008789" lon="-7.945211410522461">
        <ele>648.0</ele>
        <time>2019-05-01T12:27:13.000Z</time>
      </trkpt>
      <trkpt lat="42.65149688720703" lon="-7.945267677307129">
        <ele>648.0</ele>
        <time>2019-05-01T12:27:17.000Z</time>
      </trkpt>
      <trkpt lat="42.6514778137207" lon="-7.94532585144043">
        <ele>648.0</ele>
        <time>2019-05-01T12:27:21.000Z</time>
      </trkpt>
      <trkpt lat="42.65145492553711" lon="-7.945385456085205">
        <ele>647.0</ele>
        <time>2019-05-01T12:27:25.000Z</time>
      </trkpt>
      <trkpt lat="42.65143585205078" lon="-7.945445537567139">
        <ele>647.0</ele>
        <time>2019-05-01T12:27:29.000Z</time>
      </trkpt>
      <trkpt lat="42.651405334472656" lon="-7.945541858673096">
        <ele>646.0</ele>
        <time>2019-05-01T12:27:37.000Z</time>
      </trkpt>
      <trkpt lat="42.65137481689453" lon="-7.945653915405273">
        <ele>645.0</ele>
        <time>2019-05-01T12:27:45.000Z</time>
      </trkpt>
      <trkpt lat="42.651344299316406" lon="-7.94577693939209">
        <ele>644.0</ele>
        <time>2019-05-01T12:27:53.000Z</time>
      </trkpt>
      <trkpt lat="42.651309967041016" lon="-7.9459052085876465">
        <ele>643.0</ele>
        <time>2019-05-01T12:28:00.000Z</time>
      </trkpt>
      <trkpt lat="42.651275634765625" lon="-7.945993423461914">
        <ele>642.0</ele>
        <time>2019-05-01T12:28:06.000Z</time>
      </trkpt>
      <trkpt lat="42.6512451171875" lon="-7.946070671081543">
        <ele>641.0</ele>
        <time>2019-05-01T12:28:12.000Z</time>
      </trkpt>
      <trkpt lat="42.651214599609375" lon="-7.946140289306641">
        <ele>639.0</ele>
        <time>2019-05-01T12:28:18.000Z</time>
      </trkpt>
      <trkpt lat="42.651180267333984" lon="-7.946206569671631">
        <ele>638.0</ele>
        <time>2019-05-01T12:28:23.000Z</time>
      </trkpt>
      <trkpt lat="42.65114974975586" lon="-7.9463043212890625">
        <ele>637.0</ele>
        <time>2019-05-01T12:28:30.000Z</time>
      </trkpt>
      <trkpt lat="42.65111541748047" lon="-7.9464111328125">
        <ele>636.0</ele>
        <time>2019-05-01T12:28:37.000Z</time>
      </trkpt>
      <trkpt lat="42.65107727050781" lon="-7.946524620056152">
        <ele>634.0</ele>
        <time>2019-05-01T12:28:44.000Z</time>
      </trkpt>
      <trkpt lat="42.65104293823242" lon="-7.946640968322754">
        <ele>633.0</ele>
        <time>2019-05-01T12:28:50.000Z</time>
      </trkpt>
      <trkpt lat="42.651031494140625" lon="-7.946758270263672">
        <ele>632.0</ele>
        <time>2019-05-01T12:28:58.000Z</time>
      </trkpt>
      <trkpt lat="42.651023864746094" lon="-7.9468793869018555">
        <ele>633.0</ele>
        <time>2019-05-01T12:29:05.000Z</time>
      </trkpt>
      <trkpt lat="42.65102767944336" lon="-7.947002410888672">
        <ele>634.0</ele>
        <time>2019-05-01T12:29:12.000Z</time>
      </trkpt>
      <trkpt lat="42.651031494140625" lon="-7.947127342224121">
        <ele>635.0</ele>
        <time>2019-05-01T12:29:19.000Z</time>
      </trkpt>
      <trkpt lat="42.651084899902344" lon="-7.947580337524414">
        <ele>632.0</ele>
        <time>2019-05-01T12:29:49.000Z</time>
      </trkpt>
      <trkpt lat="42.65107345581055" lon="-7.947622776031494">
        <ele>632.0</ele>
        <time>2019-05-01T12:29:52.000Z</time>
      </trkpt>
      <trkpt lat="42.651058197021484" lon="-7.947635173797607">
        <ele>631.0</ele>
        <time>2019-05-01T12:29:55.000Z</time>
      </trkpt>
      <trkpt lat="42.651031494140625" lon="-7.947628021240234">
        <ele>632.0</ele>
        <time>2019-05-01T12:29:58.000Z</time>
      </trkpt>
      <trkpt lat="42.651004791259766" lon="-7.947610855102539">
        <ele>632.0</ele>
        <time>2019-05-01T12:30:01.000Z</time>
      </trkpt>
      <trkpt lat="42.65094757080078" lon="-7.94760799407959">
        <ele>631.0</ele>
        <time>2019-05-01T12:30:06.000Z</time>
      </trkpt>
      <trkpt lat="42.650875091552734" lon="-7.947600841522217">
        <ele>631.0</ele>
        <time>2019-05-01T12:30:11.000Z</time>
      </trkpt>
      <trkpt lat="42.65079116821289" lon="-7.947591304779053">
        <ele>630.0</ele>
        <time>2019-05-01T12:30:17.000Z</time>
      </trkpt>
      <trkpt lat="42.650699615478516" lon="-7.947579860687256">
        <ele>630.0</ele>
        <time>2019-05-01T12:30:22.000Z</time>
      </trkpt>
      <trkpt lat="42.6506462097168" lon="-7.947574138641357">
        <ele>629.0</ele>
        <time>2019-05-01T12:30:25.000Z</time>
      </trkpt>
      <trkpt lat="42.650596618652344" lon="-7.947568893432617">
        <ele>629.0</ele>
        <time>2019-05-01T12:30:29.000Z</time>
      </trkpt>
      <trkpt lat="42.65055847167969" lon="-7.947564601898193">
        <ele>629.0</ele>
        <time>2019-05-01T12:30:33.000Z</time>
      </trkpt>
      <trkpt lat="42.65052032470703" lon="-7.9475603103637695">
        <ele>629.0</ele>
        <time>2019-05-01T12:30:36.000Z</time>
      </trkpt>
      <trkpt lat="42.65044403076172" lon="-7.947554588317871">
        <ele>628.0</ele>
        <time>2019-05-01T12:30:44.000Z</time>
      </trkpt>
      <trkpt lat="42.65035629272461" lon="-7.9475483894348145">
        <ele>628.0</ele>
        <time>2019-05-01T12:30:51.000Z</time>
      </trkpt>
      <trkpt lat="42.65026092529297" lon="-7.9475417137146">
        <ele>627.0</ele>
        <time>2019-05-01T12:30:59.000Z</time>
      </trkpt>
      <trkpt lat="42.6501579284668" lon="-7.947535037994385">
        <ele>627.0</ele>
        <time>2019-05-01T12:31:06.000Z</time>
      </trkpt>
      <trkpt lat="42.65009689331055" lon="-7.947533130645752">
        <ele>627.0</ele>
        <time>2019-05-01T12:31:11.000Z</time>
      </trkpt>
      <trkpt lat="42.65005111694336" lon="-7.9475321769714355">
        <ele>627.0</ele>
        <time>2019-05-01T12:31:15.000Z</time>
      </trkpt>
      <trkpt lat="42.65000915527344" lon="-7.947532653808594">
        <ele>627.0</ele>
        <time>2019-05-01T12:31:19.000Z</time>
      </trkpt>
      <trkpt lat="42.64997482299805" lon="-7.94753360748291">
        <ele>627.0</ele>
        <time>2019-05-01T12:31:23.000Z</time>
      </trkpt>
      <trkpt lat="42.64992904663086" lon="-7.947538375854492">
        <ele>627.0</ele>
        <time>2019-05-01T12:31:26.000Z</time>
      </trkpt>
      <trkpt lat="42.64988327026367" lon="-7.947545051574707">
        <ele>627.0</ele>
        <time>2019-05-01T12:31:28.000Z</time>
      </trkpt>
      <trkpt lat="42.649837493896484" lon="-7.9475531578063965">
        <ele>627.0</ele>
        <time>2019-05-01T12:31:31.000Z</time>
      </trkpt>
      <trkpt lat="42.6497917175293" lon="-7.947562217712402">
        <ele>627.0</ele>
        <time>2019-05-01T12:31:33.000Z</time>
      </trkpt>
      <trkpt lat="42.64946746826172" lon="-7.9477386474609375">
        <ele>630.0</ele>
        <time>2019-05-01T12:32:09.000Z</time>
      </trkpt>
      <trkpt lat="42.6492805480957" lon="-7.947831630706787">
        <ele>635.0</ele>
        <time>2019-05-01T12:32:27.000Z</time>
      </trkpt>
      <trkpt lat="42.649105072021484" lon="-7.9478912353515625">
        <ele>635.0</ele>
        <time>2019-05-01T12:32:47.000Z</time>
      </trkpt>
      <trkpt lat="42.649009704589844" lon="-7.947872161865234">
        <ele>636.0</ele>
        <time>2019-05-01T12:32:56.000Z</time>
      </trkpt>
      <trkpt lat="42.6489143371582" lon="-7.9478302001953125">
        <ele>639.0</ele>
        <time>2019-05-01T12:33:05.000Z</time>
      </trkpt>
      <trkpt lat="42.648895263671875" lon="-7.947812080383301">
        <ele>639.0</ele>
        <time>2019-05-01T12:33:07.000Z</time>
      </trkpt>
      <trkpt lat="42.64889144897461" lon="-7.9477925300598145">
        <ele>639.0</ele>
        <time>2019-05-01T12:33:09.000Z</time>
      </trkpt>
      <trkpt lat="42.64889907836914" lon="-7.94777250289917">
        <ele>638.0</ele>
        <time>2019-05-01T12:33:11.000Z</time>
      </trkpt>
      <trkpt lat="42.64890670776367" lon="-7.947751522064209">
        <ele>638.0</ele>
        <time>2019-05-01T12:33:12.000Z</time>
      </trkpt>
      <trkpt lat="42.64891815185547" lon="-7.947719097137451">
        <ele>637.0</ele>
        <time>2019-05-01T12:33:22.000Z</time>
      </trkpt>
      <trkpt lat="42.64893341064453" lon="-7.947689533233643">
        <ele>637.0</ele>
        <time>2019-05-01T12:33:31.000Z</time>
      </trkpt>
      <trkpt lat="42.6489372253418" lon="-7.947678089141846">
        <ele>637.0</ele>
        <time>2019-05-01T12:33:32.000Z</time>
      </trkpt>
      <trkpt lat="42.64894104003906" lon="-7.947668075561523">
        <ele>637.0</ele>
        <time>2019-05-01T12:33:32.000Z</time>
      </trkpt>
      <trkpt lat="42.64894485473633" lon="-7.947659969329834">
        <ele>637.0</ele>
        <time>2019-05-01T12:33:32.000Z</time>
      </trkpt>
      <trkpt lat="42.64894485473633" lon="-7.9476518630981445">
        <ele>637.0</ele>
        <time>2019-05-01T12:33:32.000Z</time>
      </trkpt>
      <trkpt lat="42.64896011352539" lon="-7.947615623474121">
        <ele>637.0</ele>
        <time>2019-05-01T12:33:33.000Z</time>
      </trkpt>
      <trkpt lat="42.64902114868164" lon="-7.947456359863281">
        <ele>636.0</ele>
        <time>2019-05-01T12:33:35.000Z</time>
      </trkpt>
      <trkpt lat="42.649009704589844" lon="-7.947481155395508">
        <ele>636.0</ele>
        <time>2019-05-01T12:33:35.000Z</time>
      </trkpt>
      <trkpt lat="42.64899444580078" lon="-7.947520732879639">
        <ele>636.0</ele>
        <time>2019-05-01T12:33:34.000Z</time>
      </trkpt>
      <trkpt lat="42.64897918701172" lon="-7.947567939758301">
        <ele>637.0</ele>
        <time>2019-05-01T12:33:34.000Z</time>
      </trkpt>
      <trkpt lat="42.64897918701172" lon="-7.947567939758301">
        <ele>637.0</ele>
        <time>2019-05-01T12:33:34.000Z</time>
      </trkpt>
      <trkpt lat="42.648983001708984" lon="-7.947556018829346">
        <ele>637.0</ele>
        <time>2019-05-01T12:33:34.000Z</time>
      </trkpt>
      <trkpt lat="42.648990631103516" lon="-7.947535991668701">
        <ele>636.0</ele>
        <time>2019-05-01T12:33:35.000Z</time>
      </trkpt>
      <trkpt lat="42.64899826049805" lon="-7.947512626647949">
        <ele>636.0</ele>
        <time>2019-05-01T12:33:35.000Z</time>
      </trkpt>
      <trkpt lat="42.64900588989258" lon="-7.947497844696045">
        <ele>636.0</ele>
        <time>2019-05-01T12:33:35.000Z</time>
      </trkpt>
      <trkpt lat="42.649009704589844" lon="-7.947483062744141">
        <ele>636.0</ele>
        <time>2019-05-01T12:33:35.000Z</time>
      </trkpt>
      <trkpt lat="42.649017333984375" lon="-7.947468280792236">
        <ele>636.0</ele>
        <time>2019-05-01T12:33:35.000Z</time>
      </trkpt>
      <trkpt lat="42.64902114868164" lon="-7.947453498840332">
        <ele>636.0</ele>
        <time>2019-05-01T12:33:36.000Z</time>
      </trkpt>
      <trkpt lat="42.64902114868164" lon="-7.947453498840332">
        <ele>636.0</ele>
        <time>2019-05-01T12:33:36.000Z</time>
      </trkpt>
      <trkpt lat="42.649044036865234" lon="-7.948681831359863">
        <ele>645.0</ele>
        <time>2019-05-02T05:54:21.000Z</time>
      </trkpt>
      <trkpt lat="42.64906692504883" lon="-7.948846817016602">
        <ele>641.0</ele>
        <time>2019-05-02T05:54:36.000Z</time>
      </trkpt>
      <trkpt lat="42.649078369140625" lon="-7.948896408081055">
        <ele>642.0</ele>
        <time>2019-05-02T05:54:49.000Z</time>
      </trkpt>
      <trkpt lat="42.64908981323242" lon="-7.9489312171936035">
        <ele>642.0</ele>
        <time>2019-05-02T05:54:50.000Z</time>
      </trkpt>
      <trkpt lat="42.64921188354492" lon="-7.9492950439453125">
        <ele>642.0</ele>
        <time>2019-05-02T05:55:03.000Z</time>
      </trkpt>
      <trkpt lat="42.64921188354492" lon="-7.949343681335449">
        <ele>641.0</ele>
        <time>2019-05-02T05:55:07.000Z</time>
      </trkpt>
      <trkpt lat="42.64919662475586" lon="-7.949373722076416">
        <ele>641.0</ele>
        <time>2019-05-02T05:55:10.000Z</time>
      </trkpt>
      <trkpt lat="42.649173736572266" lon="-7.949392318725586">
        <ele>640.0</ele>
        <time>2019-05-02T05:55:14.000Z</time>
      </trkpt>
      <trkpt lat="42.64914321899414" lon="-7.949405193328857">
        <ele>639.0</ele>
        <time>2019-05-02T05:55:17.000Z</time>
      </trkpt>
      <trkpt lat="42.649139404296875" lon="-7.949610233306885">
        <ele>638.0</ele>
        <time>2019-05-02T05:55:27.000Z</time>
      </trkpt>
      <trkpt lat="42.64915084838867" lon="-7.949885368347168">
        <ele>637.0</ele>
        <time>2019-05-02T05:55:37.000Z</time>
      </trkpt>
      <trkpt lat="42.649147033691406" lon="-7.949952602386475">
        <ele>637.0</ele>
        <time>2019-05-02T05:55:42.000Z</time>
      </trkpt>
      <trkpt lat="42.649139404296875" lon="-7.949997425079346">
        <ele>636.0</ele>
        <time>2019-05-02T05:55:46.000Z</time>
      </trkpt>
      <trkpt lat="42.649131774902344" lon="-7.950027942657471">
        <ele>636.0</ele>
        <time>2019-05-02T05:55:50.000Z</time>
      </trkpt>
      <trkpt lat="42.64912414550781" lon="-7.9500508308410645">
        <ele>636.0</ele>
        <time>2019-05-02T05:55:54.000Z</time>
      </trkpt>
      <trkpt lat="42.64912414550781" lon="-7.950067043304443">
        <ele>635.0</ele>
        <time>2019-05-02T05:56:01.000Z</time>
      </trkpt>
      <trkpt lat="42.64912414550781" lon="-7.9500732421875">
        <ele>635.0</ele>
        <time>2019-05-02T05:56:08.000Z</time>
      </trkpt>
      <trkpt lat="42.64912414550781" lon="-7.950072288513184">
        <ele>635.0</ele>
        <time>2019-05-02T05:56:15.000Z</time>
      </trkpt>
      <trkpt lat="42.64912414550781" lon="-7.950068473815918">
        <ele>635.0</ele>
        <time>2019-05-02T05:56:21.000Z</time>
      </trkpt>
      <trkpt lat="42.64912796020508" lon="-7.950072288513184">
        <ele>635.0</ele>
        <time>2019-05-02T05:56:22.000Z</time>
      </trkpt>
      <trkpt lat="42.64912796020508" lon="-7.950076103210449">
        <ele>635.0</ele>
        <time>2019-05-02T05:56:22.000Z</time>
      </trkpt>
      <trkpt lat="42.64912796020508" lon="-7.950079917907715">
        <ele>635.0</ele>
        <time>2019-05-02T05:56:22.000Z</time>
      </trkpt>
      <trkpt lat="42.64912796020508" lon="-7.9500837326049805">
        <ele>635.0</ele>
        <time>2019-05-02T05:56:22.000Z</time>
      </trkpt>
      <trkpt lat="42.649131774902344" lon="-7.950164794921875">
        <ele>635.0</ele>
        <time>2019-05-02T05:56:27.000Z</time>
      </trkpt>
      <trkpt lat="42.649139404296875" lon="-7.950278282165527">
        <ele>635.0</ele>
        <time>2019-05-02T05:56:31.000Z</time>
      </trkpt>
      <trkpt lat="42.649147033691406" lon="-7.950413227081299">
        <ele>636.0</ele>
        <time>2019-05-02T05:56:35.000Z</time>
      </trkpt>
      <trkpt lat="42.6491584777832" lon="-7.950559139251709">
        <ele>636.0</ele>
        <time>2019-05-02T05:56:39.000Z</time>
      </trkpt>
      <trkpt lat="42.64915466308594" lon="-7.950672626495361">
        <ele>637.0</ele>
        <time>2019-05-02T05:56:47.000Z</time>
      </trkpt>
      <trkpt lat="42.649147033691406" lon="-7.950784206390381">
        <ele>638.0</ele>
        <time>2019-05-02T05:56:54.000Z</time>
      </trkpt>
      <trkpt lat="42.64913558959961" lon="-7.950894355773926">
        <ele>639.0</ele>
        <time>2019-05-02T05:57:01.000Z</time>
      </trkpt>
      <trkpt lat="42.64912033081055" lon="-7.951003551483154">
        <ele>640.0</ele>
        <time>2019-05-02T05:57:08.000Z</time>
      </trkpt>
      <trkpt lat="42.649147033691406" lon="-7.951137542724609">
        <ele>642.0</ele>
        <time>2019-05-02T05:57:15.000Z</time>
      </trkpt>
      <trkpt lat="42.649192810058594" lon="-7.951230049133301">
        <ele>644.0</ele>
        <time>2019-05-02T05:57:22.000Z</time>
      </trkpt>
      <trkpt lat="42.64918518066406" lon="-7.951286792755127">
        <ele>643.0</ele>
        <time>2019-05-02T05:57:26.000Z</time>
      </trkpt>
      <trkpt lat="42.649169921875" lon="-7.951343059539795">
        <ele>643.0</ele>
        <time>2019-05-02T05:57:29.000Z</time>
      </trkpt>
      <trkpt lat="42.64914321899414" lon="-7.951399326324463">
        <ele>642.0</ele>
        <time>2019-05-02T05:57:33.000Z</time>
      </trkpt>
      <trkpt lat="42.64911651611328" lon="-7.951455116271973">
        <ele>641.0</ele>
        <time>2019-05-02T05:57:36.000Z</time>
      </trkpt>
      <trkpt lat="42.64910125732422" lon="-7.951492786407471">
        <ele>641.0</ele>
        <time>2019-05-02T05:57:38.000Z</time>
      </trkpt>
      <trkpt lat="42.649085998535156" lon="-7.9515228271484375">
        <ele>641.0</ele>
        <time>2019-05-02T05:57:39.000Z</time>
      </trkpt>
      <trkpt lat="42.64906692504883" lon="-7.951547622680664">
        <ele>641.0</ele>
        <time>2019-05-02T05:57:40.000Z</time>
      </trkpt>
      <trkpt lat="42.649051666259766" lon="-7.9515700340271">
        <ele>641.0</ele>
        <time>2019-05-02T05:57:41.000Z</time>
      </trkpt>
      <trkpt lat="42.649070739746094" lon="-7.951582908630371">
        <ele>641.0</ele>
        <time>2019-05-02T05:57:44.000Z</time>
      </trkpt>
      <trkpt lat="42.64910125732422" lon="-7.951589107513428">
        <ele>640.0</ele>
        <time>2019-05-02T05:57:46.000Z</time>
      </trkpt>
      <trkpt lat="42.649139404296875" lon="-7.951590538024902">
        <ele>640.0</ele>
        <time>2019-05-02T05:57:49.000Z</time>
      </trkpt>
      <trkpt lat="42.6491813659668" lon="-7.951590061187744">
        <ele>639.0</ele>
        <time>2019-05-02T05:57:51.000Z</time>
      </trkpt>
      <trkpt lat="42.64921569824219" lon="-7.951634883880615">
        <ele>641.0</ele>
        <time>2019-05-02T05:57:57.000Z</time>
      </trkpt>
      <trkpt lat="42.64925003051758" lon="-7.951696395874023">
        <ele>643.0</ele>
        <time>2019-05-02T05:58:02.000Z</time>
      </trkpt>
      <trkpt lat="42.64928436279297" lon="-7.9517693519592285">
        <ele>646.0</ele>
        <time>2019-05-02T05:58:07.000Z</time>
      </trkpt>
      <trkpt lat="42.649322509765625" lon="-7.951847076416016">
        <ele>649.0</ele>
        <time>2019-05-02T05:58:12.000Z</time>
      </trkpt>
      <trkpt lat="42.64935302734375" lon="-7.951944351196289">
        <ele>649.0</ele>
        <time>2019-05-02T05:58:19.000Z</time>
      </trkpt>
      <trkpt lat="42.64938735961914" lon="-7.95205545425415">
        <ele>648.0</ele>
        <time>2019-05-02T05:58:25.000Z</time>
      </trkpt>
      <trkpt lat="42.649417877197266" lon="-7.952176094055176">
        <ele>646.0</ele>
        <time>2019-05-02T05:58:31.000Z</time>
      </trkpt>
      <trkpt lat="42.64944839477539" lon="-7.952301025390625">
        <ele>643.0</ele>
        <time>2019-05-02T05:58:37.000Z</time>
      </trkpt>
      <trkpt lat="42.64948272705078" lon="-7.952408313751221">
        <ele>643.0</ele>
        <time>2019-05-02T05:58:46.000Z</time>
      </trkpt>
      <trkpt lat="42.64952087402344" lon="-7.952513217926025">
        <ele>642.0</ele>
        <time>2019-05-02T05:58:54.000Z</time>
      </trkpt>
      <trkpt lat="42.64956283569336" lon="-7.952616214752197">
        <ele>642.0</ele>
        <time>2019-05-02T05:59:02.000Z</time>
      </trkpt>
      <trkpt lat="42.64960479736328" lon="-7.952718734741211">
        <ele>642.0</ele>
        <time>2019-05-02T05:59:10.000Z</time>
      </trkpt>
      <trkpt lat="42.649620056152344" lon="-7.952831745147705">
        <ele>642.0</ele>
        <time>2019-05-02T05:59:17.000Z</time>
      </trkpt>
      <trkpt lat="42.64963150024414" lon="-7.952948570251465">
        <ele>642.0</ele>
        <time>2019-05-02T05:59:24.000Z</time>
      </trkpt>
      <trkpt lat="42.64963150024414" lon="-7.953067779541016">
        <ele>641.0</ele>
        <time>2019-05-02T05:59:31.000Z</time>
      </trkpt>
      <trkpt lat="42.64963150024414" lon="-7.953187942504883">
        <ele>641.0</ele>
        <time>2019-05-02T05:59:37.000Z</time>
      </trkpt>
      <trkpt lat="42.64962387084961" lon="-7.953305244445801">
        <ele>640.0</ele>
        <time>2019-05-02T05:59:45.000Z</time>
      </trkpt>
      <trkpt lat="42.64960479736328" lon="-7.953423023223877">
        <ele>640.0</ele>
        <time>2019-05-02T05:59:53.000Z</time>
      </trkpt>
      <trkpt lat="42.64958190917969" lon="-7.953540325164795">
        <ele>639.0</ele>
        <time>2019-05-02T06:00:01.000Z</time>
      </trkpt>
      <trkpt lat="42.649559020996094" lon="-7.953658103942871">
        <ele>639.0</ele>
        <time>2019-05-02T06:00:09.000Z</time>
      </trkpt>
      <trkpt lat="42.649539947509766" lon="-7.953776836395264">
        <ele>637.0</ele>
        <time>2019-05-02T06:00:18.000Z</time>
      </trkpt>
      <trkpt lat="42.6495246887207" lon="-7.953896999359131">
        <ele>636.0</ele>
        <time>2019-05-02T06:00:27.000Z</time>
      </trkpt>
      <trkpt lat="42.649505615234375" lon="-7.954017162322998">
        <ele>634.0</ele>
        <time>2019-05-02T06:00:36.000Z</time>
      </trkpt>
      <trkpt lat="42.64949035644531" lon="-7.954137802124023">
        <ele>633.0</ele>
        <time>2019-05-02T06:00:44.000Z</time>
      </trkpt>
      <trkpt lat="42.64933776855469" lon="-7.954553604125977">
        <ele>637.0</ele>
        <time>2019-05-02T06:01:12.000Z</time>
      </trkpt>
      <trkpt lat="42.64910125732422" lon="-7.9549102783203125">
        <ele>638.0</ele>
        <time>2019-05-02T06:01:40.000Z</time>
      </trkpt>
      <trkpt lat="42.64903259277344" lon="-7.955123424530029">
        <ele>637.0</ele>
        <time>2019-05-02T06:01:54.000Z</time>
      </trkpt>
      <trkpt lat="42.64898681640625" lon="-7.955352306365967">
        <ele>637.0</ele>
        <time>2019-05-02T06:02:07.000Z</time>
      </trkpt>
      <trkpt lat="42.64896011352539" lon="-7.955459117889404">
        <ele>637.0</ele>
        <time>2019-05-02T06:02:14.000Z</time>
      </trkpt>
      <trkpt lat="42.64892578125" lon="-7.955564498901367">
        <ele>636.0</ele>
        <time>2019-05-02T06:02:20.000Z</time>
      </trkpt>
      <trkpt lat="42.648895263671875" lon="-7.955668926239014">
        <ele>636.0</ele>
        <time>2019-05-02T06:02:27.000Z</time>
      </trkpt>
      <trkpt lat="42.64886474609375" lon="-7.95577335357666">
        <ele>636.0</ele>
        <time>2019-05-02T06:02:33.000Z</time>
      </trkpt>
      <trkpt lat="42.64883804321289" lon="-7.955885410308838">
        <ele>635.0</ele>
        <time>2019-05-02T06:02:41.000Z</time>
      </trkpt>
      <trkpt lat="42.64881896972656" lon="-7.956000804901123">
        <ele>634.0</ele>
        <time>2019-05-02T06:02:48.000Z</time>
      </trkpt>
      <trkpt lat="42.6488037109375" lon="-7.956117630004883">
        <ele>632.0</ele>
        <time>2019-05-02T06:02:56.000Z</time>
      </trkpt>
      <trkpt lat="42.64878463745117" lon="-7.956235885620117">
        <ele>631.0</ele>
        <time>2019-05-02T06:03:03.000Z</time>
      </trkpt>
      <trkpt lat="42.64875793457031" lon="-7.956352233886719">
        <ele>630.0</ele>
        <time>2019-05-02T06:03:11.000Z</time>
      </trkpt>
      <trkpt lat="42.64873123168945" lon="-7.9564690589904785">
        <ele>629.0</ele>
        <time>2019-05-02T06:03:18.000Z</time>
      </trkpt>
      <trkpt lat="42.64870071411133" lon="-7.956585884094238">
        <ele>629.0</ele>
        <time>2019-05-02T06:03:26.000Z</time>
      </trkpt>
      <trkpt lat="42.6486701965332" lon="-7.956702709197998">
        <ele>628.0</ele>
        <time>2019-05-02T06:03:33.000Z</time>
      </trkpt>
      <trkpt lat="42.64866638183594" lon="-7.9567999839782715">
        <ele>628.0</ele>
        <time>2019-05-02T06:03:37.000Z</time>
      </trkpt>
      <trkpt lat="42.648685455322266" lon="-7.956834316253662">
        <ele>628.0</ele>
        <time>2019-05-02T06:03:41.000Z</time>
      </trkpt>
      <trkpt lat="42.648677825927734" lon="-7.956855773925781">
        <ele>628.0</ele>
        <time>2019-05-02T06:03:43.000Z</time>
      </trkpt>
      <trkpt lat="42.64866638183594" lon="-7.956872940063477">
        <ele>628.0</ele>
        <time>2019-05-02T06:03:44.000Z</time>
      </trkpt>
      <trkpt lat="42.64865493774414" lon="-7.956886291503906">
        <ele>628.0</ele>
        <time>2019-05-02T06:03:45.000Z</time>
      </trkpt>
      <trkpt lat="42.64863967895508" lon="-7.9568986892700195">
        <ele>628.0</ele>
        <time>2019-05-02T06:03:46.000Z</time>
      </trkpt>
      <trkpt lat="42.648643493652344" lon="-7.956904411315918">
        <ele>628.0</ele>
        <time>2019-05-02T06:03:48.000Z</time>
      </trkpt>
      <trkpt lat="42.648658752441406" lon="-7.956905841827393">
        <ele>628.0</ele>
        <time>2019-05-02T06:03:49.000Z</time>
      </trkpt>
      <trkpt lat="42.64867401123047" lon="-7.956904888153076">
        <ele>628.0</ele>
        <time>2019-05-02T06:03:50.000Z</time>
      </trkpt>
      <trkpt lat="42.64869689941406" lon="-7.956902027130127">
        <ele>628.0</ele>
        <time>2019-05-02T06:03:51.000Z</time>
      </trkpt>
      <trkpt lat="42.64870834350586" lon="-7.956915855407715">
        <ele>628.0</ele>
        <time>2019-05-02T06:03:53.000Z</time>
      </trkpt>
      <trkpt lat="42.648719787597656" lon="-7.956935405731201">
        <ele>628.0</ele>
        <time>2019-05-02T06:03:54.000Z</time>
      </trkpt>
      <trkpt lat="42.64873123168945" lon="-7.956958770751953">
        <ele>628.0</ele>
        <time>2019-05-02T06:03:55.000Z</time>
      </trkpt>
      <trkpt lat="42.64874267578125" lon="-7.956984043121338">
        <ele>628.0</ele>
        <time>2019-05-02T06:03:57.000Z</time>
      </trkpt>
      <trkpt lat="42.648746490478516" lon="-7.9570231437683105">
        <ele>628.0</ele>
        <time>2019-05-02T06:03:59.000Z</time>
      </trkpt>
      <trkpt lat="42.648746490478516" lon="-7.957070350646973">
        <ele>628.0</ele>
        <time>2019-05-02T06:04:01.000Z</time>
      </trkpt>
      <trkpt lat="42.64874267578125" lon="-7.957122325897217">
        <ele>629.0</ele>
        <time>2019-05-02T06:04:03.000Z</time>
      </trkpt>
      <trkpt lat="42.648738861083984" lon="-7.95717716217041">
        <ele>629.0</ele>
        <time>2019-05-02T06:04:05.000Z</time>
      </trkpt>
      <trkpt lat="42.64875411987305" lon="-7.95721960067749">
        <ele>629.0</ele>
        <time>2019-05-02T06:04:07.000Z</time>
      </trkpt>
      <trkpt lat="42.648780822753906" lon="-7.957259654998779">
        <ele>629.0</ele>
        <time>2019-05-02T06:04:09.000Z</time>
      </trkpt>
      <trkpt lat="42.64881134033203" lon="-7.957298278808594">
        <ele>630.0</ele>
        <time>2019-05-02T06:04:11.000Z</time>
      </trkpt>
      <trkpt lat="42.64884567260742" lon="-7.957335948944092">
        <ele>630.0</ele>
        <time>2019-05-02T06:04:12.000Z</time>
      </trkpt>
      <trkpt lat="42.648826599121094" lon="-7.957401275634766">
        <ele>630.0</ele>
        <time>2019-05-02T06:04:17.000Z</time>
      </trkpt>
      <trkpt lat="42.64878463745117" lon="-7.95747709274292">
        <ele>630.0</ele>
        <time>2019-05-02T06:04:21.000Z</time>
      </trkpt>
      <trkpt lat="42.64872741699219" lon="-7.957560062408447">
        <ele>630.0</ele>
        <time>2019-05-02T06:04:25.000Z</time>
      </trkpt>
      <trkpt lat="42.64866638183594" lon="-7.957646369934082">
        <ele>630.0</ele>
        <time>2019-05-02T06:04:29.000Z</time>
      </trkpt>
      <trkpt lat="42.64861297607422" lon="-7.957726955413818">
        <ele>630.0</ele>
        <time>2019-05-02T06:04:36.000Z</time>
      </trkpt>
      <trkpt lat="42.648555755615234" lon="-7.957808971405029">
        <ele>630.0</ele>
        <time>2019-05-02T06:04:43.000Z</time>
      </trkpt>
      <trkpt lat="42.64849090576172" lon="-7.957891464233398">
        <ele>631.0</ele>
        <time>2019-05-02T06:04:50.000Z</time>
      </trkpt>
      <trkpt lat="42.64842987060547" lon="-7.957974433898926">
        <ele>631.0</ele>
        <time>2019-05-02T06:04:56.000Z</time>
      </trkpt>
      <trkpt lat="42.64839553833008" lon="-7.958025932312012">
        <ele>631.0</ele>
        <time>2019-05-02T06:04:58.000Z</time>
      </trkpt>
      <trkpt lat="42.64836883544922" lon="-7.958064079284668">
        <ele>631.0</ele>
        <time>2019-05-02T06:05:00.000Z</time>
      </trkpt>
      <trkpt lat="42.64834976196289" lon="-7.958094120025635">
        <ele>630.0</ele>
        <time>2019-05-02T06:05:02.000Z</time>
      </trkpt>
      <trkpt lat="42.64833450317383" lon="-7.958119869232178">
        <ele>630.0</ele>
        <time>2019-05-02T06:05:04.000Z</time>
      </trkpt>
      <trkpt lat="42.64832305908203" lon="-7.958182334899902">
        <ele>630.0</ele>
        <time>2019-05-02T06:05:09.000Z</time>
      </trkpt>
      <trkpt lat="42.648319244384766" lon="-7.958255767822266">
        <ele>630.0</ele>
        <time>2019-05-02T06:05:13.000Z</time>
      </trkpt>
      <trkpt lat="42.648319244384766" lon="-7.95833683013916">
        <ele>631.0</ele>
        <time>2019-05-02T06:05:18.000Z</time>
      </trkpt>
      <trkpt lat="42.64832305908203" lon="-7.958421230316162">
        <ele>631.0</ele>
        <time>2019-05-02T06:05:22.000Z</time>
      </trkpt>
      <trkpt lat="42.6483039855957" lon="-7.958518981933594">
        <ele>630.0</ele>
        <time>2019-05-02T06:05:30.000Z</time>
      </trkpt>
      <trkpt lat="42.648277282714844" lon="-7.958625316619873">
        <ele>630.0</ele>
        <time>2019-05-02T06:05:38.000Z</time>
      </trkpt>
      <trkpt lat="42.64824676513672" lon="-7.958738327026367">
        <ele>630.0</ele>
        <time>2019-05-02T06:05:46.000Z</time>
      </trkpt>
      <trkpt lat="42.64821243286133" lon="-7.9588541984558105">
        <ele>629.0</ele>
        <time>2019-05-02T06:05:54.000Z</time>
      </trkpt>
      <trkpt lat="42.648231506347656" lon="-7.959085464477539">
        <ele>628.0</ele>
        <time>2019-05-02T06:06:08.000Z</time>
      </trkpt>
      <trkpt lat="42.648284912109375" lon="-7.959323406219482">
        <ele>628.0</ele>
        <time>2019-05-02T06:06:22.000Z</time>
      </trkpt>
      <trkpt lat="42.648284912109375" lon="-7.959442615509033">
        <ele>628.0</ele>
        <time>2019-05-02T06:06:31.000Z</time>
      </trkpt>
      <trkpt lat="42.648277282714844" lon="-7.9595627784729">
        <ele>628.0</ele>
        <time>2019-05-02T06:06:40.000Z</time>
      </trkpt>
      <trkpt lat="42.64826583862305" lon="-7.959683418273926">
        <ele>628.0</ele>
        <time>2019-05-02T06:06:49.000Z</time>
      </trkpt>
      <trkpt lat="42.648250579833984" lon="-7.959804534912109">
        <ele>629.0</ele>
        <time>2019-05-02T06:06:57.000Z</time>
      </trkpt>
      <trkpt lat="42.64824676513672" lon="-7.959925651550293">
        <ele>629.0</ele>
        <time>2019-05-02T06:07:03.000Z</time>
      </trkpt>
      <trkpt lat="42.64824295043945" lon="-7.960046768188477">
        <ele>629.0</ele>
        <time>2019-05-02T06:07:09.000Z</time>
      </trkpt>
      <trkpt lat="42.64824295043945" lon="-7.960168361663818">
        <ele>629.0</ele>
        <time>2019-05-02T06:07:15.000Z</time>
      </trkpt>
      <trkpt lat="42.64824295043945" lon="-7.96028995513916">
        <ele>629.0</ele>
        <time>2019-05-02T06:07:21.000Z</time>
      </trkpt>
      <trkpt lat="42.64823913574219" lon="-7.960407733917236">
        <ele>629.0</ele>
        <time>2019-05-02T06:07:30.000Z</time>
      </trkpt>
      <trkpt lat="42.64823913574219" lon="-7.960524559020996">
        <ele>628.0</ele>
        <time>2019-05-02T06:07:39.000Z</time>
      </trkpt>
      <trkpt lat="42.64823532104492" lon="-7.9606404304504395">
        <ele>627.0</ele>
        <time>2019-05-02T06:07:47.000Z</time>
      </trkpt>
      <trkpt lat="42.64823532104492" lon="-7.960755825042725">
        <ele>627.0</ele>
        <time>2019-05-02T06:07:56.000Z</time>
      </trkpt>
      <trkpt lat="42.64821243286133" lon="-7.960864543914795">
        <ele>627.0</ele>
        <time>2019-05-02T06:08:00.000Z</time>
      </trkpt>
      <trkpt lat="42.6481819152832" lon="-7.960969924926758">
        <ele>627.0</ele>
        <time>2019-05-02T06:08:05.000Z</time>
      </trkpt>
      <trkpt lat="42.64814758300781" lon="-7.961073398590088">
        <ele>628.0</ele>
        <time>2019-05-02T06:08:10.000Z</time>
      </trkpt>
      <trkpt lat="42.648109436035156" lon="-7.961175441741943">
        <ele>628.0</ele>
        <time>2019-05-02T06:08:14.000Z</time>
      </trkpt>
      <trkpt lat="42.648094177246094" lon="-7.96128511428833">
        <ele>629.0</ele>
        <time>2019-05-02T06:08:21.000Z</time>
      </trkpt>
      <trkpt lat="42.64809036254883" lon="-7.961397171020508">
        <ele>629.0</ele>
        <time>2019-05-02T06:08:28.000Z</time>
      </trkpt>
      <trkpt lat="42.648094177246094" lon="-7.96151065826416">
        <ele>630.0</ele>
        <time>2019-05-02T06:08:35.000Z</time>
      </trkpt>
      <trkpt lat="42.64809799194336" lon="-7.961624622344971">
        <ele>630.0</ele>
        <time>2019-05-02T06:08:42.000Z</time>
      </trkpt>
      <trkpt lat="42.64802932739258" lon="-7.961882591247559">
        <ele>630.0</ele>
        <time>2019-05-02T06:08:53.000Z</time>
      </trkpt>
      <trkpt lat="42.647987365722656" lon="-7.962131023406982">
        <ele>630.0</ele>
        <time>2019-05-02T06:09:11.000Z</time>
      </trkpt>
      <trkpt lat="42.64787673950195" lon="-7.962576389312744">
        <ele>609.0</ele>
        <time>2019-05-02T06:09:45.000Z</time>
      </trkpt>
      <trkpt lat="42.64788055419922" lon="-7.962848663330078">
        <ele>605.0</ele>
        <time>2019-05-02T06:10:00.000Z</time>
      </trkpt>
      <trkpt lat="42.64786148071289" lon="-7.962902069091797">
        <ele>605.0</ele>
        <time>2019-05-02T06:10:04.000Z</time>
      </trkpt>
      <trkpt lat="42.64783477783203" lon="-7.962949752807617">
        <ele>604.0</ele>
        <time>2019-05-02T06:10:08.000Z</time>
      </trkpt>
      <trkpt lat="42.64780044555664" lon="-7.962993144989014">
        <ele>603.0</ele>
        <time>2019-05-02T06:10:12.000Z</time>
      </trkpt>
      <trkpt lat="42.64776611328125" lon="-7.963034152984619">
        <ele>603.0</ele>
        <time>2019-05-02T06:10:15.000Z</time>
      </trkpt>
      <trkpt lat="42.64772033691406" lon="-7.963235855102539">
        <ele>601.0</ele>
        <time>2019-05-02T06:10:29.000Z</time>
      </trkpt>
      <trkpt lat="42.647682189941406" lon="-7.96348762512207">
        <ele>600.0</ele>
        <time>2019-05-02T06:10:42.000Z</time>
      </trkpt>
      <trkpt lat="42.64765548706055" lon="-7.963597774505615">
        <ele>600.0</ele>
        <time>2019-05-02T06:10:50.000Z</time>
      </trkpt>
      <trkpt lat="42.64762496948242" lon="-7.963706970214844">
        <ele>600.0</ele>
        <time>2019-05-02T06:10:58.000Z</time>
      </trkpt>
      <trkpt lat="42.64759063720703" lon="-7.963815212249756">
        <ele>600.0</ele>
        <time>2019-05-02T06:11:06.000Z</time>
      </trkpt>
      <trkpt lat="42.64755630493164" lon="-7.96392297744751">
        <ele>601.0</ele>
        <time>2019-05-02T06:11:14.000Z</time>
      </trkpt>
      <trkpt lat="42.64753341674805" lon="-7.964035511016846">
        <ele>601.0</ele>
        <time>2019-05-02T06:11:20.000Z</time>
      </trkpt>
      <trkpt lat="42.647518157958984" lon="-7.964149475097656">
        <ele>602.0</ele>
        <time>2019-05-02T06:11:26.000Z</time>
      </trkpt>
      <trkpt lat="42.64750289916992" lon="-7.964264869689941">
        <ele>603.0</ele>
        <time>2019-05-02T06:11:32.000Z</time>
      </trkpt>
      <trkpt lat="42.647491455078125" lon="-7.964380741119385">
        <ele>604.0</ele>
        <time>2019-05-02T06:11:38.000Z</time>
      </trkpt>
      <trkpt lat="42.6474609375" lon="-7.964493274688721">
        <ele>605.0</ele>
        <time>2019-05-02T06:11:45.000Z</time>
      </trkpt>
      <trkpt lat="42.64742660522461" lon="-7.964605331420898">
        <ele>605.0</ele>
        <time>2019-05-02T06:11:52.000Z</time>
      </trkpt>
      <trkpt lat="42.64738845825195" lon="-7.96471643447876">
        <ele>606.0</ele>
        <time>2019-05-02T06:11:59.000Z</time>
      </trkpt>
      <trkpt lat="42.6473503112793" lon="-7.964827537536621">
        <ele>607.0</ele>
        <time>2019-05-02T06:12:05.000Z</time>
      </trkpt>
      <trkpt lat="42.6473503112793" lon="-7.964899063110352">
        <ele>608.0</ele>
        <time>2019-05-02T06:12:09.000Z</time>
      </trkpt>
      <trkpt lat="42.64736557006836" lon="-7.964953899383545">
        <ele>608.0</ele>
        <time>2019-05-02T06:12:13.000Z</time>
      </trkpt>
      <trkpt lat="42.64739227294922" lon="-7.964997291564941">
        <ele>608.0</ele>
        <time>2019-05-02T06:12:17.000Z</time>
      </trkpt>
      <trkpt lat="42.647422790527344" lon="-7.965035438537598">
        <ele>608.0</ele>
        <time>2019-05-02T06:12:20.000Z</time>
      </trkpt>
      <trkpt lat="42.64741134643555" lon="-7.965097427368164">
        <ele>608.0</ele>
        <time>2019-05-02T06:12:25.000Z</time>
      </trkpt>
      <trkpt lat="42.64738845825195" lon="-7.9651641845703125">
        <ele>608.0</ele>
        <time>2019-05-02T06:12:29.000Z</time>
      </trkpt>
      <trkpt lat="42.64735794067383" lon="-7.96523380279541">
        <ele>609.0</ele>
        <time>2019-05-02T06:12:34.000Z</time>
      </trkpt>
      <trkpt lat="42.64732360839844" lon="-7.965304851531982">
        <ele>609.0</ele>
        <time>2019-05-02T06:12:38.000Z</time>
      </trkpt>
      <trkpt lat="42.647281646728516" lon="-7.965395927429199">
        <ele>609.0</ele>
        <time>2019-05-02T06:12:45.000Z</time>
      </trkpt>
      <trkpt lat="42.64723587036133" lon="-7.965497970581055">
        <ele>609.0</ele>
        <time>2019-05-02T06:12:51.000Z</time>
      </trkpt>
      <trkpt lat="42.647186279296875" lon="-7.965606212615967">
        <ele>609.0</ele>
        <time>2019-05-02T06:12:58.000Z</time>
      </trkpt>
      <trkpt lat="42.64713668823242" lon="-7.965717792510986">
        <ele>610.0</ele>
        <time>2019-05-02T06:13:04.000Z</time>
      </trkpt>
      <trkpt lat="42.6470947265625" lon="-7.965824127197266">
        <ele>610.0</ele>
        <time>2019-05-02T06:13:11.000Z</time>
      </trkpt>
      <trkpt lat="42.64706039428711" lon="-7.965931415557861">
        <ele>611.0</ele>
        <time>2019-05-02T06:13:18.000Z</time>
      </trkpt>
      <trkpt lat="42.64702224731445" lon="-7.966039657592773">
        <ele>611.0</ele>
        <time>2019-05-02T06:13:25.000Z</time>
      </trkpt>
      <trkpt lat="42.64698791503906" lon="-7.966148376464844">
        <ele>612.0</ele>
        <time>2019-05-02T06:13:32.000Z</time>
      </trkpt>
      <trkpt lat="42.64695358276367" lon="-7.966254711151123">
        <ele>612.0</ele>
        <time>2019-05-02T06:13:40.000Z</time>
      </trkpt>
      <trkpt lat="42.646915435791016" lon="-7.966361045837402">
        <ele>612.0</ele>
        <time>2019-05-02T06:13:48.000Z</time>
      </trkpt>
      <trkpt lat="42.646881103515625" lon="-7.966466426849365">
        <ele>612.0</ele>
        <time>2019-05-02T06:13:56.000Z</time>
      </trkpt>
      <trkpt lat="42.646846771240234" lon="-7.966572284698486">
        <ele>612.0</ele>
        <time>2019-05-02T06:14:03.000Z</time>
      </trkpt>
      <trkpt lat="42.64679718017578" lon="-7.966667652130127">
        <ele>612.0</ele>
        <time>2019-05-02T06:14:10.000Z</time>
      </trkpt>
      <trkpt lat="42.6467399597168" lon="-7.966758728027344">
        <ele>611.0</ele>
        <time>2019-05-02T06:14:16.000Z</time>
      </trkpt>
      <trkpt lat="42.64668273925781" lon="-7.966846466064453">
        <ele>610.0</ele>
        <time>2019-05-02T06:14:23.000Z</time>
      </trkpt>
      <trkpt lat="42.64662170410156" lon="-7.966932773590088">
        <ele>608.0</ele>
        <time>2019-05-02T06:14:29.000Z</time>
      </trkpt>
      <trkpt lat="42.64655685424805" lon="-7.967017650604248">
        <ele>608.0</ele>
        <time>2019-05-02T06:14:36.000Z</time>
      </trkpt>
      <trkpt lat="42.64649200439453" lon="-7.967100620269775">
        <ele>608.0</ele>
        <time>2019-05-02T06:14:43.000Z</time>
      </trkpt>
      <trkpt lat="42.64642333984375" lon="-7.967182159423828">
        <ele>608.0</ele>
        <time>2019-05-02T06:14:50.000Z</time>
      </trkpt>
      <trkpt lat="42.64635467529297" lon="-7.967263221740723">
        <ele>608.0</ele>
        <time>2019-05-02T06:14:57.000Z</time>
      </trkpt>
      <trkpt lat="42.646278381347656" lon="-7.9674835205078125">
        <ele>610.0</ele>
        <time>2019-05-02T06:15:12.000Z</time>
      </trkpt>
      <trkpt lat="42.6462516784668" lon="-7.967519760131836">
        <ele>610.0</ele>
        <time>2019-05-02T06:15:22.000Z</time>
      </trkpt>
      <trkpt lat="42.64619445800781" lon="-7.967584609985352">
        <ele>610.0</ele>
        <time>2019-05-02T06:15:37.000Z</time>
      </trkpt>
      <trkpt lat="42.64616775512695" lon="-7.967613697052002">
        <ele>610.0</ele>
        <time>2019-05-02T06:15:38.000Z</time>
      </trkpt>
      <trkpt lat="42.64601135253906" lon="-7.967792987823486">
        <ele>609.0</ele>
        <time>2019-05-02T06:15:50.000Z</time>
      </trkpt>
      <trkpt lat="42.64579772949219" lon="-7.968194961547852">
        <ele>609.0</ele>
        <time>2019-05-02T06:16:17.000Z</time>
      </trkpt>
      <trkpt lat="42.64551544189453" lon="-7.968483924865723">
        <ele>611.0</ele>
        <time>2019-05-02T06:16:49.000Z</time>
      </trkpt>
      <trkpt lat="42.64531326293945" lon="-7.968880653381348">
        <ele>610.0</ele>
        <time>2019-05-02T06:17:19.000Z</time>
      </trkpt>
      <trkpt lat="42.64515686035156" lon="-7.96898889541626">
        <ele>610.0</ele>
        <time>2019-05-02T06:17:32.000Z</time>
      </trkpt>
      <trkpt lat="42.644981384277344" lon="-7.969055652618408">
        <ele>610.0</ele>
        <time>2019-05-02T06:17:45.000Z</time>
      </trkpt>
      <trkpt lat="42.644901275634766" lon="-7.969113349914551">
        <ele>610.0</ele>
        <time>2019-05-02T06:17:55.000Z</time>
      </trkpt>
      <trkpt lat="42.64482879638672" lon="-7.969177722930908">
        <ele>610.0</ele>
        <time>2019-05-02T06:18:04.000Z</time>
      </trkpt>
      <trkpt lat="42.64475631713867" lon="-7.969245433807373">
        <ele>611.0</ele>
        <time>2019-05-02T06:18:14.000Z</time>
      </trkpt>
      <trkpt lat="42.644683837890625" lon="-7.969315528869629">
        <ele>611.0</ele>
        <time>2019-05-02T06:18:23.000Z</time>
      </trkpt>
      <trkpt lat="42.644596099853516" lon="-7.9694623947143555">
        <ele>612.0</ele>
        <time>2019-05-02T06:18:33.000Z</time>
      </trkpt>
      <trkpt lat="42.64453887939453" lon="-7.9696173667907715">
        <ele>612.0</ele>
        <time>2019-05-02T06:18:42.000Z</time>
      </trkpt>
      <trkpt lat="42.644535064697266" lon="-7.969668865203857">
        <ele>612.0</ele>
        <time>2019-05-02T06:18:45.000Z</time>
      </trkpt>
      <trkpt lat="42.6445426940918" lon="-7.969710826873779">
        <ele>612.0</ele>
        <time>2019-05-02T06:18:48.000Z</time>
      </trkpt>
      <trkpt lat="42.64455795288086" lon="-7.969746112823486">
        <ele>612.0</ele>
        <time>2019-05-02T06:18:51.000Z</time>
      </trkpt>
      <trkpt lat="42.64457702636719" lon="-7.969777584075928">
        <ele>612.0</ele>
        <time>2019-05-02T06:18:54.000Z</time>
      </trkpt>
      <trkpt lat="42.64460754394531" lon="-7.969812393188477">
        <ele>612.0</ele>
        <time>2019-05-02T06:18:57.000Z</time>
      </trkpt>
      <trkpt lat="42.64464569091797" lon="-7.969844818115234">
        <ele>612.0</ele>
        <time>2019-05-02T06:19:00.000Z</time>
      </trkpt>
      <trkpt lat="42.644691467285156" lon="-7.969875812530518">
        <ele>612.0</ele>
        <time>2019-05-02T06:19:03.000Z</time>
      </trkpt>
      <trkpt lat="42.644737243652344" lon="-7.969905853271484">
        <ele>612.0</ele>
        <time>2019-05-02T06:19:06.000Z</time>
      </trkpt>
      <trkpt lat="42.644779205322266" lon="-7.969938278198242">
        <ele>613.0</ele>
        <time>2019-05-02T06:19:10.000Z</time>
      </trkpt>
      <trkpt lat="42.64482116699219" lon="-7.969971179962158">
        <ele>613.0</ele>
        <time>2019-05-02T06:19:14.000Z</time>
      </trkpt>
      <trkpt lat="42.64486312866211" lon="-7.970004081726074">
        <ele>613.0</ele>
        <time>2019-05-02T06:19:18.000Z</time>
      </trkpt>
      <trkpt lat="42.64490509033203" lon="-7.97003698348999">
        <ele>613.0</ele>
        <time>2019-05-02T06:19:22.000Z</time>
      </trkpt>
      <trkpt lat="42.64495849609375" lon="-7.970100402832031">
        <ele>613.0</ele>
        <time>2019-05-02T06:19:29.000Z</time>
      </trkpt>
      <trkpt lat="42.64501953125" lon="-7.970176696777344">
        <ele>613.0</ele>
        <time>2019-05-02T06:19:36.000Z</time>
      </trkpt>
      <trkpt lat="42.645084381103516" lon="-7.970261573791504">
        <ele>613.0</ele>
        <time>2019-05-02T06:19:44.000Z</time>
      </trkpt>
      <trkpt lat="42.6451530456543" lon="-7.970350742340088">
        <ele>614.0</ele>
        <time>2019-05-02T06:19:51.000Z</time>
      </trkpt>
      <trkpt lat="42.64532470703125" lon="-7.970428943634033">
        <ele>614.0</ele>
        <time>2019-05-02T06:20:07.000Z</time>
      </trkpt>
      <trkpt lat="42.64551544189453" lon="-7.970471382141113">
        <ele>615.0</ele>
        <time>2019-05-02T06:20:23.000Z</time>
      </trkpt>
      <trkpt lat="42.64558029174805" lon="-7.970505237579346">
        <ele>614.0</ele>
        <time>2019-05-02T06:20:26.000Z</time>
      </trkpt>
      <trkpt lat="42.64563751220703" lon="-7.9705400466918945">
        <ele>614.0</ele>
        <time>2019-05-02T06:20:28.000Z</time>
      </trkpt>
      <trkpt lat="42.64568328857422" lon="-7.970576286315918">
        <ele>613.0</ele>
        <time>2019-05-02T06:20:31.000Z</time>
      </trkpt>
      <trkpt lat="42.64572525024414" lon="-7.9706130027771">
        <ele>613.0</ele>
        <time>2019-05-02T06:20:33.000Z</time>
      </trkpt>
      <trkpt lat="42.6457633972168" lon="-7.970610618591309">
        <ele>612.0</ele>
        <time>2019-05-02T06:20:38.000Z</time>
      </trkpt>
      <trkpt lat="42.64579772949219" lon="-7.970592498779297">
        <ele>612.0</ele>
        <time>2019-05-02T06:20:43.000Z</time>
      </trkpt>
      <trkpt lat="42.64582443237305" lon="-7.970563888549805">
        <ele>613.0</ele>
        <time>2019-05-02T06:20:48.000Z</time>
      </trkpt>
      <trkpt lat="42.645851135253906" lon="-7.970529556274414">
        <ele>613.0</ele>
        <time>2019-05-02T06:20:53.000Z</time>
      </trkpt>
      <trkpt lat="42.64601135253906" lon="-7.970527648925781">
        <ele>614.0</ele>
        <time>2019-05-02T06:21:05.000Z</time>
      </trkpt>
      <trkpt lat="42.64621353149414" lon="-7.970543384552002">
        <ele>615.0</ele>
        <time>2019-05-02T06:21:17.000Z</time>
      </trkpt>
      <trkpt lat="42.646297454833984" lon="-7.970571041107178">
        <ele>616.0</ele>
        <time>2019-05-02T06:21:25.000Z</time>
      </trkpt>
      <trkpt lat="42.646385192871094" lon="-7.970608234405518">
        <ele>618.0</ele>
        <time>2019-05-02T06:21:32.000Z</time>
      </trkpt>
      <trkpt lat="42.64646911621094" lon="-7.970651626586914">
        <ele>619.0</ele>
        <time>2019-05-02T06:21:39.000Z</time>
      </trkpt>
      <trkpt lat="42.64655303955078" lon="-7.970698833465576">
        <ele>621.0</ele>
        <time>2019-05-02T06:21:46.000Z</time>
      </trkpt>
      <trkpt lat="42.646636962890625" lon="-7.970729351043701">
        <ele>622.0</ele>
        <time>2019-05-02T06:21:53.000Z</time>
      </trkpt>
      <trkpt lat="42.64672088623047" lon="-7.9707560539245605">
        <ele>622.0</ele>
        <time>2019-05-02T06:21:59.000Z</time>
      </trkpt>
      <trkpt lat="42.64680480957031" lon="-7.970779895782471">
        <ele>621.0</ele>
        <time>2019-05-02T06:22:06.000Z</time>
      </trkpt>
      <trkpt lat="42.646888732910156" lon="-7.970803260803223">
        <ele>620.0</ele>
        <time>2019-05-02T06:22:12.000Z</time>
      </trkpt>
      <trkpt lat="42.646934509277344" lon="-7.970811367034912">
        <ele>620.0</ele>
        <time>2019-05-02T06:22:16.000Z</time>
      </trkpt>
      <trkpt lat="42.64696502685547" lon="-7.9708123207092285">
        <ele>620.0</ele>
        <time>2019-05-02T06:22:19.000Z</time>
      </trkpt>
      <trkpt lat="42.6469841003418" lon="-7.970808506011963">
        <ele>619.0</ele>
        <time>2019-05-02T06:22:22.000Z</time>
      </trkpt>
      <trkpt lat="42.646995544433594" lon="-7.970802307128906">
        <ele>619.0</ele>
        <time>2019-05-02T06:22:25.000Z</time>
      </trkpt>
      <trkpt lat="42.64701843261719" lon="-7.970798492431641">
        <ele>619.0</ele>
        <time>2019-05-02T06:22:28.000Z</time>
      </trkpt>
      <trkpt lat="42.647037506103516" lon="-7.9707932472229">
        <ele>619.0</ele>
        <time>2019-05-02T06:22:31.000Z</time>
      </trkpt>
      <trkpt lat="42.647056579589844" lon="-7.970787525177002">
        <ele>619.0</ele>
        <time>2019-05-02T06:22:34.000Z</time>
      </trkpt>
      <trkpt lat="42.64707565307617" lon="-7.970780849456787">
        <ele>619.0</ele>
        <time>2019-05-02T06:22:37.000Z</time>
      </trkpt>
      <trkpt lat="42.64708709716797" lon="-7.97077751159668">
        <ele>619.0</ele>
        <time>2019-05-02T06:22:38.000Z</time>
      </trkpt>
      <trkpt lat="42.647098541259766" lon="-7.970775127410889">
        <ele>619.0</ele>
        <time>2019-05-02T06:22:38.000Z</time>
      </trkpt>
      <trkpt lat="42.6471061706543" lon="-7.970773220062256">
        <ele>619.0</ele>
        <time>2019-05-02T06:22:38.000Z</time>
      </trkpt>
      <trkpt lat="42.64710998535156" lon="-7.970771789550781">
        <ele>619.0</ele>
        <time>2019-05-02T06:22:38.000Z</time>
      </trkpt>
      <trkpt lat="42.6474609375" lon="-7.970730781555176">
        <ele>620.0</ele>
        <time>2019-05-02T06:22:57.000Z</time>
      </trkpt>
      <trkpt lat="42.6478157043457" lon="-7.970826625823975">
        <ele>615.0</ele>
        <time>2019-05-02T06:23:27.000Z</time>
      </trkpt>
      <trkpt lat="42.64795684814453" lon="-7.97091817855835">
        <ele>615.0</ele>
        <time>2019-05-02T06:23:44.000Z</time>
      </trkpt>
      <trkpt lat="42.647987365722656" lon="-7.970921993255615">
        <ele>616.0</ele>
        <time>2019-05-02T06:23:52.000Z</time>
      </trkpt>
      <trkpt lat="42.64799499511719" lon="-7.970906734466553">
        <ele>618.0</ele>
        <time>2019-05-02T06:23:59.000Z</time>
      </trkpt>
      <trkpt lat="42.64800262451172" lon="-7.970904350280762">
        <ele>618.0</ele>
        <time>2019-05-02T06:24:00.000Z</time>
      </trkpt>
      <trkpt lat="42.64801025390625" lon="-7.970902442932129">
        <ele>618.0</ele>
        <time>2019-05-02T06:24:00.000Z</time>
      </trkpt>
      <trkpt lat="42.64801788330078" lon="-7.970900535583496">
        <ele>618.0</ele>
        <time>2019-05-02T06:24:00.000Z</time>
      </trkpt>
      <trkpt lat="42.64802169799805" lon="-7.9708991050720215">
        <ele>618.0</ele>
        <time>2019-05-02T06:24:00.000Z</time>
      </trkpt>
      <trkpt lat="42.6480827331543" lon="-7.970881938934326">
        <ele>618.0</ele>
        <time>2019-05-02T06:24:06.000Z</time>
      </trkpt>
      <trkpt lat="42.64816665649414" lon="-7.970858573913574">
        <ele>618.0</ele>
        <time>2019-05-02T06:24:11.000Z</time>
      </trkpt>
      <trkpt lat="42.64826583862305" lon="-7.970830917358398">
        <ele>619.0</ele>
        <time>2019-05-02T06:24:16.000Z</time>
      </trkpt>
      <trkpt lat="42.64836883544922" lon="-7.97080135345459">
        <ele>619.0</ele>
        <time>2019-05-02T06:24:21.000Z</time>
      </trkpt>
      <trkpt lat="42.6484489440918" lon="-7.970794200897217">
        <ele>619.0</ele>
        <time>2019-05-02T06:24:28.000Z</time>
      </trkpt>
      <trkpt lat="42.64852523803711" lon="-7.970794677734375">
        <ele>618.0</ele>
        <time>2019-05-02T06:24:34.000Z</time>
      </trkpt>
      <trkpt lat="42.64860153198242" lon="-7.970799922943115">
        <ele>617.0</ele>
        <time>2019-05-02T06:24:40.000Z</time>
      </trkpt>
      <trkpt lat="42.648677825927734" lon="-7.9708075523376465">
        <ele>615.0</ele>
        <time>2019-05-02T06:24:46.000Z</time>
      </trkpt>
      <trkpt lat="42.64870834350586" lon="-7.970795631408691">
        <ele>615.0</ele>
        <time>2019-05-02T06:24:49.000Z</time>
      </trkpt>
      <trkpt lat="42.648719787597656" lon="-7.970777988433838">
        <ele>615.0</ele>
        <time>2019-05-02T06:24:51.000Z</time>
      </trkpt>
      <trkpt lat="42.64872360229492" lon="-7.970756530761719">
        <ele>614.0</ele>
        <time>2019-05-02T06:24:53.000Z</time>
      </trkpt>
      <trkpt lat="42.64871597290039" lon="-7.970733642578125">
        <ele>614.0</ele>
        <time>2019-05-02T06:24:55.000Z</time>
      </trkpt>
      <trkpt lat="42.64884948730469" lon="-7.970681667327881">
        <ele>613.0</ele>
        <time>2019-05-02T06:25:15.000Z</time>
      </trkpt>
      <trkpt lat="42.64904022216797" lon="-7.97062349319458">
        <ele>611.0</ele>
        <time>2019-05-02T06:25:35.000Z</time>
      </trkpt>
      <trkpt lat="42.649085998535156" lon="-7.9706130027771">
        <ele>611.0</ele>
        <time>2019-05-02T06:25:38.000Z</time>
      </trkpt>
      <trkpt lat="42.64911651611328" lon="-7.970609664916992">
        <ele>611.0</ele>
        <time>2019-05-02T06:25:40.000Z</time>
      </trkpt>
      <trkpt lat="42.649139404296875" lon="-7.970611572265625">
        <ele>611.0</ele>
        <time>2019-05-02T06:25:42.000Z</time>
      </trkpt>
      <trkpt lat="42.6491584777832" lon="-7.970615863800049">
        <ele>611.0</ele>
        <time>2019-05-02T06:25:44.000Z</time>
      </trkpt>
      <trkpt lat="42.649173736572266" lon="-7.970617771148682">
        <ele>611.0</ele>
        <time>2019-05-02T06:25:48.000Z</time>
      </trkpt>
      <trkpt lat="42.64918518066406" lon="-7.970621109008789">
        <ele>611.0</ele>
        <time>2019-05-02T06:25:51.000Z</time>
      </trkpt>
      <trkpt lat="42.649192810058594" lon="-7.970625400543213">
        <ele>611.0</ele>
        <time>2019-05-02T06:25:54.000Z</time>
      </trkpt>
      <trkpt lat="42.649200439453125" lon="-7.970630645751953">
        <ele>611.0</ele>
        <time>2019-05-02T06:25:57.000Z</time>
      </trkpt>
      <trkpt lat="42.649208068847656" lon="-7.970633506774902">
        <ele>611.0</ele>
        <time>2019-05-02T06:25:58.000Z</time>
      </trkpt>
      <trkpt lat="42.64921569824219" lon="-7.970635890960693">
        <ele>611.0</ele>
        <time>2019-05-02T06:25:58.000Z</time>
      </trkpt>
      <trkpt lat="42.64922332763672" lon="-7.970638275146484">
        <ele>611.0</ele>
        <time>2019-05-02T06:25:58.000Z</time>
      </trkpt>
      <trkpt lat="42.649227142333984" lon="-7.970640182495117">
        <ele>611.0</ele>
        <time>2019-05-02T06:25:58.000Z</time>
      </trkpt>
      <trkpt lat="42.649261474609375" lon="-7.970654010772705">
        <ele>611.0</ele>
        <time>2019-05-02T06:25:59.000Z</time>
      </trkpt>
      <trkpt lat="42.6493034362793" lon="-7.970672607421875">
        <ele>611.0</ele>
        <time>2019-05-02T06:26:00.000Z</time>
      </trkpt>
      <trkpt lat="42.64935302734375" lon="-7.970694541931152">
        <ele>611.0</ele>
        <time>2019-05-02T06:26:00.000Z</time>
      </trkpt>
      <trkpt lat="42.64940643310547" lon="-7.970717906951904">
        <ele>611.0</ele>
        <time>2019-05-02T06:26:01.000Z</time>
      </trkpt>
      <trkpt lat="42.64948272705078" lon="-7.9708027839660645">
        <ele>611.0</ele>
        <time>2019-05-02T06:26:11.000Z</time>
      </trkpt>
      <trkpt lat="42.64955139160156" lon="-7.9709086418151855">
        <ele>611.0</ele>
        <time>2019-05-02T06:26:21.000Z</time>
      </trkpt>
      <trkpt lat="42.649559020996094" lon="-7.970956325531006">
        <ele>611.0</ele>
        <time>2019-05-02T06:26:25.000Z</time>
      </trkpt>
      <trkpt lat="42.649559020996094" lon="-7.971004486083984">
        <ele>611.0</ele>
        <time>2019-05-02T06:26:28.000Z</time>
      </trkpt>
      <trkpt lat="42.6495475769043" lon="-7.971052169799805">
        <ele>611.0</ele>
        <time>2019-05-02T06:26:31.000Z</time>
      </trkpt>
      <trkpt lat="42.6495361328125" lon="-7.971099853515625">
        <ele>611.0</ele>
        <time>2019-05-02T06:26:34.000Z</time>
      </trkpt>
      <trkpt lat="42.64950942993164" lon="-7.971192836761475">
        <ele>610.0</ele>
        <time>2019-05-02T06:26:43.000Z</time>
      </trkpt>
      <trkpt lat="42.64947509765625" lon="-7.971304416656494">
        <ele>609.0</ele>
        <time>2019-05-02T06:26:52.000Z</time>
      </trkpt>
      <trkpt lat="42.64943313598633" lon="-7.971429347991943">
        <ele>607.0</ele>
        <time>2019-05-02T06:27:01.000Z</time>
      </trkpt>
      <trkpt lat="42.649391174316406" lon="-7.971560001373291">
        <ele>606.0</ele>
        <time>2019-05-02T06:27:09.000Z</time>
      </trkpt>
      <trkpt lat="42.649375915527344" lon="-7.971624374389648">
        <ele>605.0</ele>
        <time>2019-05-02T06:27:13.000Z</time>
      </trkpt>
      <trkpt lat="42.64937210083008" lon="-7.971667289733887">
        <ele>604.0</ele>
        <time>2019-05-02T06:27:16.000Z</time>
      </trkpt>
      <trkpt lat="42.64937210083008" lon="-7.971696376800537">
        <ele>603.0</ele>
        <time>2019-05-02T06:27:19.000Z</time>
      </trkpt>
      <trkpt lat="42.649375915527344" lon="-7.971717834472656">
        <ele>603.0</ele>
        <time>2019-05-02T06:27:22.000Z</time>
      </trkpt>
      <trkpt lat="42.64937210083008" lon="-7.971738815307617">
        <ele>602.0</ele>
        <time>2019-05-02T06:27:24.000Z</time>
      </trkpt>
      <trkpt lat="42.64936828613281" lon="-7.971751689910889">
        <ele>602.0</ele>
        <time>2019-05-02T06:27:26.000Z</time>
      </trkpt>
      <trkpt lat="42.64936447143555" lon="-7.971759796142578">
        <ele>601.0</ele>
        <time>2019-05-02T06:27:28.000Z</time>
      </trkpt>
      <trkpt lat="42.64936065673828" lon="-7.971765041351318">
        <ele>601.0</ele>
        <time>2019-05-02T06:27:30.000Z</time>
      </trkpt>
      <trkpt lat="42.649356842041016" lon="-7.971774578094482">
        <ele>601.0</ele>
        <time>2019-05-02T06:27:31.000Z</time>
      </trkpt>
      <trkpt lat="42.64935302734375" lon="-7.971782684326172">
        <ele>601.0</ele>
        <time>2019-05-02T06:27:31.000Z</time>
      </trkpt>
      <trkpt lat="42.649349212646484" lon="-7.971790790557861">
        <ele>601.0</ele>
        <time>2019-05-02T06:27:31.000Z</time>
      </trkpt>
      <trkpt lat="42.64934539794922" lon="-7.971797943115234">
        <ele>601.0</ele>
        <time>2019-05-02T06:27:31.000Z</time>
      </trkpt>
      <trkpt lat="42.64932632446289" lon="-7.971851348876953">
        <ele>601.0</ele>
        <time>2019-05-02T06:27:33.000Z</time>
      </trkpt>
      <trkpt lat="42.6493034362793" lon="-7.971922874450684">
        <ele>601.0</ele>
        <time>2019-05-02T06:27:35.000Z</time>
      </trkpt>
      <trkpt lat="42.64927291870117" lon="-7.9720072746276855">
        <ele>600.0</ele>
        <time>2019-05-02T06:27:37.000Z</time>
      </trkpt>
      <trkpt lat="42.64924240112305" lon="-7.972097873687744">
        <ele>600.0</ele>
        <time>2019-05-02T06:27:39.000Z</time>
      </trkpt>
      <trkpt lat="42.649227142333984" lon="-7.972196102142334">
        <ele>600.0</ele>
        <time>2019-05-02T06:27:39.000Z</time>
      </trkpt>
      <trkpt lat="42.649208068847656" lon="-7.972205638885498">
        <ele>600.0</ele>
        <time>2019-05-02T06:27:40.000Z</time>
      </trkpt>
      <trkpt lat="42.64918518066406" lon="-7.972209453582764">
        <ele>600.0</ele>
        <time>2019-05-02T06:27:40.000Z</time>
      </trkpt>
      <trkpt lat="42.64915466308594" lon="-7.972208499908447">
        <ele>600.0</ele>
        <time>2019-05-02T06:27:41.000Z</time>
      </trkpt>
      <trkpt lat="42.64912414550781" lon="-7.972206115722656">
        <ele>600.0</ele>
        <time>2019-05-02T06:27:41.000Z</time>
      </trkpt>
      <trkpt lat="42.649105072021484" lon="-7.972219467163086">
        <ele>600.0</ele>
        <time>2019-05-02T06:27:42.000Z</time>
      </trkpt>
      <trkpt lat="42.649085998535156" lon="-7.972238063812256">
        <ele>599.0</ele>
        <time>2019-05-02T06:27:43.000Z</time>
      </trkpt>
      <trkpt lat="42.64907455444336" lon="-7.972259044647217">
        <ele>599.0</ele>
        <time>2019-05-02T06:27:44.000Z</time>
      </trkpt>
      <trkpt lat="42.6490592956543" lon="-7.9722819328308105">
        <ele>599.0</ele>
        <time>2019-05-02T06:27:44.000Z</time>
      </trkpt>
      <trkpt lat="42.6490478515625" lon="-7.9723052978515625">
        <ele>599.0</ele>
        <time>2019-05-02T06:27:47.000Z</time>
      </trkpt>
      <trkpt lat="42.6490364074707" lon="-7.972330093383789">
        <ele>599.0</ele>
        <time>2019-05-02T06:27:49.000Z</time>
      </trkpt>
      <trkpt lat="42.64902877807617" lon="-7.972355842590332">
        <ele>599.0</ele>
        <time>2019-05-02T06:27:52.000Z</time>
      </trkpt>
      <trkpt lat="42.64902114868164" lon="-7.972382545471191">
        <ele>599.0</ele>
        <time>2019-05-02T06:27:54.000Z</time>
      </trkpt>
      <trkpt lat="42.649024963378906" lon="-7.972390174865723">
        <ele>599.0</ele>
        <time>2019-05-02T06:27:55.000Z</time>
      </trkpt>
      <trkpt lat="42.6490364074707" lon="-7.972390174865723">
        <ele>599.0</ele>
        <time>2019-05-02T06:27:56.000Z</time>
      </trkpt>
      <trkpt lat="42.649051666259766" lon="-7.972385883331299">
        <ele>598.0</ele>
        <time>2019-05-02T06:27:57.000Z</time>
      </trkpt>
      <trkpt lat="42.64906692504883" lon="-7.972379207611084">
        <ele>598.0</ele>
        <time>2019-05-02T06:27:58.000Z</time>
      </trkpt>
      <trkpt lat="42.6490592956543" lon="-7.972391128540039">
        <ele>598.0</ele>
        <time>2019-05-02T06:28:03.000Z</time>
      </trkpt>
      <trkpt lat="42.6490478515625" lon="-7.972408294677734">
        <ele>598.0</ele>
        <time>2019-05-02T06:28:07.000Z</time>
      </trkpt>
      <trkpt lat="42.64903259277344" lon="-7.972429275512695">
        <ele>598.0</ele>
        <time>2019-05-02T06:28:12.000Z</time>
      </trkpt>
      <trkpt lat="42.649009704589844" lon="-7.972452163696289">
        <ele>598.0</ele>
        <time>2019-05-02T06:28:16.000Z</time>
      </trkpt>
      <trkpt lat="42.64900588989258" lon="-7.972466468811035">
        <ele>598.0</ele>
        <time>2019-05-02T06:28:24.000Z</time>
      </trkpt>
      <trkpt lat="42.64899826049805" lon="-7.972479343414307">
        <ele>597.0</ele>
        <time>2019-05-02T06:28:32.000Z</time>
      </trkpt>
      <trkpt lat="42.64899826049805" lon="-7.972491264343262">
        <ele>597.0</ele>
        <time>2019-05-02T06:28:40.000Z</time>
      </trkpt>
      <trkpt lat="42.64899444580078" lon="-7.9725022315979">
        <ele>597.0</ele>
        <time>2019-05-02T06:28:47.000Z</time>
      </trkpt>
      <trkpt lat="42.648990631103516" lon="-7.972512722015381">
        <ele>597.0</ele>
        <time>2019-05-02T06:28:48.000Z</time>
      </trkpt>
      <trkpt lat="42.648990631103516" lon="-7.972521781921387">
        <ele>597.0</ele>
        <time>2019-05-02T06:28:48.000Z</time>
      </trkpt>
      <trkpt lat="42.64898681640625" lon="-7.972529888153076">
        <ele>597.0</ele>
        <time>2019-05-02T06:28:48.000Z</time>
      </trkpt>
      <trkpt lat="42.648983001708984" lon="-7.972537994384766">
        <ele>597.0</ele>
        <time>2019-05-02T06:28:48.000Z</time>
      </trkpt>
      <trkpt lat="42.64897155761719" lon="-7.972569465637207">
        <ele>597.0</ele>
        <time>2019-05-02T06:28:50.000Z</time>
      </trkpt>
      <trkpt lat="42.648956298828125" lon="-7.9726104736328125">
        <ele>597.0</ele>
        <time>2019-05-02T06:28:51.000Z</time>
      </trkpt>
      <trkpt lat="42.6489372253418" lon="-7.972657203674316">
        <ele>597.0</ele>
        <time>2019-05-02T06:28:52.000Z</time>
      </trkpt>
      <trkpt lat="42.64891815185547" lon="-7.972707271575928">
        <ele>597.0</ele>
        <time>2019-05-02T06:28:53.000Z</time>
      </trkpt>
      <trkpt lat="42.64891052246094" lon="-7.9727253913879395">
        <ele>597.0</ele>
        <time>2019-05-02T06:28:58.000Z</time>
      </trkpt>
      <trkpt lat="42.64890670776367" lon="-7.972733497619629">
        <ele>597.0</ele>
        <time>2019-05-02T06:29:02.000Z</time>
      </trkpt>
      <trkpt lat="42.648902893066406" lon="-7.972734451293945">
        <ele>598.0</ele>
        <time>2019-05-02T06:29:07.000Z</time>
      </trkpt>
      <trkpt lat="42.64889907836914" lon="-7.972732067108154">
        <ele>598.0</ele>
        <time>2019-05-02T06:29:11.000Z</time>
      </trkpt>
      <trkpt lat="42.648895263671875" lon="-7.972737789154053">
        <ele>598.0</ele>
        <time>2019-05-02T06:29:12.000Z</time>
      </trkpt>
      <trkpt lat="42.64889144897461" lon="-7.972742557525635">
        <ele>598.0</ele>
        <time>2019-05-02T06:29:12.000Z</time>
      </trkpt>
      <trkpt lat="42.648887634277344" lon="-7.972747325897217">
        <ele>598.0</ele>
        <time>2019-05-02T06:29:12.000Z</time>
      </trkpt>
      <trkpt lat="42.648887634277344" lon="-7.972751617431641">
        <ele>598.0</ele>
        <time>2019-05-02T06:29:12.000Z</time>
      </trkpt>
      <trkpt lat="42.648807525634766" lon="-7.972842693328857">
        <ele>599.0</ele>
        <time>2019-05-02T06:29:15.000Z</time>
      </trkpt>
      <trkpt lat="42.64878845214844" lon="-7.972841739654541">
        <ele>599.0</ele>
        <time>2019-05-02T06:29:16.000Z</time>
      </trkpt>
      <trkpt lat="42.648773193359375" lon="-7.9728312492370605">
        <ele>599.0</ele>
        <time>2019-05-02T06:29:17.000Z</time>
      </trkpt>
      <trkpt lat="42.64875793457031" lon="-7.972814559936523">
        <ele>599.0</ele>
        <time>2019-05-02T06:29:18.000Z</time>
      </trkpt>
      <trkpt lat="42.648746490478516" lon="-7.972794055938721">
        <ele>599.0</ele>
        <time>2019-05-02T06:29:19.000Z</time>
      </trkpt>
      <trkpt lat="42.648738861083984" lon="-7.97283935546875">
        <ele>599.0</ele>
        <time>2019-05-02T06:29:20.000Z</time>
      </trkpt>
      <trkpt lat="42.64873504638672" lon="-7.972908973693848">
        <ele>599.0</ele>
        <time>2019-05-02T06:29:21.000Z</time>
      </trkpt>
      <trkpt lat="42.64873123168945" lon="-7.972994804382324">
        <ele>598.0</ele>
        <time>2019-05-02T06:29:22.000Z</time>
      </trkpt>
      <trkpt lat="42.64873123168945" lon="-7.973088264465332">
        <ele>598.0</ele>
        <time>2019-05-02T06:29:23.000Z</time>
      </trkpt>
      <trkpt lat="42.648677825927734" lon="-7.973254203796387">
        <ele>598.0</ele>
        <time>2019-05-02T06:29:26.000Z</time>
      </trkpt>
      <trkpt lat="42.648597717285156" lon="-7.973429203033447">
        <ele>598.0</ele>
        <time>2019-05-02T06:29:28.000Z</time>
      </trkpt>
      <trkpt lat="42.648582458496094" lon="-7.97349739074707">
        <ele>598.0</ele>
        <time>2019-05-02T06:29:33.000Z</time>
      </trkpt>
      <trkpt lat="42.6485710144043" lon="-7.97355842590332">
        <ele>598.0</ele>
        <time>2019-05-02T06:29:38.000Z</time>
      </trkpt>
      <trkpt lat="42.64856719970703" lon="-7.973614692687988">
        <ele>598.0</ele>
        <time>2019-05-02T06:29:43.000Z</time>
      </trkpt>
      <trkpt lat="42.648563385009766" lon="-7.973668575286865">
        <ele>599.0</ele>
        <time>2019-05-02T06:29:47.000Z</time>
      </trkpt>
      <trkpt lat="42.648555755615234" lon="-7.973690032958984">
        <ele>599.0</ele>
        <time>2019-05-02T06:29:50.000Z</time>
      </trkpt>
      <trkpt lat="42.6485481262207" lon="-7.973695278167725">
        <ele>599.0</ele>
        <time>2019-05-02T06:29:52.000Z</time>
      </trkpt>
      <trkpt lat="42.64854049682617" lon="-7.973690032958984">
        <ele>599.0</ele>
        <time>2019-05-02T06:29:55.000Z</time>
      </trkpt>
      <trkpt lat="42.648536682128906" lon="-7.973679542541504">
        <ele>599.0</ele>
        <time>2019-05-02T06:29:57.000Z</time>
      </trkpt>
      <trkpt lat="42.648529052734375" lon="-7.973691940307617">
        <ele>598.0</ele>
        <time>2019-05-02T06:30:06.000Z</time>
      </trkpt>
      <trkpt lat="42.64852523803711" lon="-7.973707675933838">
        <ele>597.0</ele>
        <time>2019-05-02T06:30:14.000Z</time>
      </trkpt>
      <trkpt lat="42.648521423339844" lon="-7.97372579574585">
        <ele>597.0</ele>
        <time>2019-05-02T06:30:22.000Z</time>
      </trkpt>
      <trkpt lat="42.64851760864258" lon="-7.973745822906494">
        <ele>596.0</ele>
        <time>2019-05-02T06:30:30.000Z</time>
      </trkpt>
      <trkpt lat="42.64851379394531" lon="-7.973758697509766">
        <ele>595.0</ele>
        <time>2019-05-02T06:30:31.000Z</time>
      </trkpt>
      <trkpt lat="42.64850997924805" lon="-7.973770618438721">
        <ele>595.0</ele>
        <time>2019-05-02T06:30:31.000Z</time>
      </trkpt>
      <trkpt lat="42.64850616455078" lon="-7.973781585693359">
        <ele>595.0</ele>
        <time>2019-05-02T06:30:31.000Z</time>
      </trkpt>
      <trkpt lat="42.64850616455078" lon="-7.97379207611084">
        <ele>596.0</ele>
        <time>2019-05-02T06:30:31.000Z</time>
      </trkpt>
      <trkpt lat="42.64849853515625" lon="-7.973824977874756">
        <ele>596.0</ele>
        <time>2019-05-02T06:30:32.000Z</time>
      </trkpt>
      <trkpt lat="42.64849090576172" lon="-7.9738664627075195">
        <ele>596.0</ele>
        <time>2019-05-02T06:30:33.000Z</time>
      </trkpt>
      <trkpt lat="42.64847946166992" lon="-7.973913669586182">
        <ele>595.0</ele>
        <time>2019-05-02T06:30:33.000Z</time>
      </trkpt>
      <trkpt lat="42.64847183227539" lon="-7.973964214324951">
        <ele>595.0</ele>
        <time>2019-05-02T06:30:34.000Z</time>
      </trkpt>
      <trkpt lat="42.64846420288086" lon="-7.974025726318359">
        <ele>595.0</ele>
        <time>2019-05-02T06:30:36.000Z</time>
      </trkpt>
      <trkpt lat="42.648460388183594" lon="-7.974094867706299">
        <ele>595.0</ele>
        <time>2019-05-02T06:30:38.000Z</time>
      </trkpt>
      <trkpt lat="42.64845275878906" lon="-7.9741692543029785">
        <ele>595.0</ele>
        <time>2019-05-02T06:30:40.000Z</time>
      </trkpt>
      <trkpt lat="42.6484489440918" lon="-7.974246501922607">
        <ele>595.0</ele>
        <time>2019-05-02T06:30:42.000Z</time>
      </trkpt>
      <trkpt lat="42.6484489440918" lon="-7.974277973175049">
        <ele>595.0</ele>
        <time>2019-05-02T06:30:43.000Z</time>
      </trkpt>
      <trkpt lat="42.6484489440918" lon="-7.974292755126953">
        <ele>595.0</ele>
        <time>2019-05-02T06:30:43.000Z</time>
      </trkpt>
      <trkpt lat="42.64845275878906" lon="-7.974297046661377">
        <ele>595.0</ele>
        <time>2019-05-02T06:30:44.000Z</time>
      </trkpt>
      <trkpt lat="42.64845275878906" lon="-7.974295616149902">
        <ele>595.0</ele>
        <time>2019-05-02T06:30:44.000Z</time>
      </trkpt>
      <trkpt lat="42.64842987060547" lon="-7.974318027496338">
        <ele>596.0</ele>
        <time>2019-05-02T06:30:48.000Z</time>
      </trkpt>
      <trkpt lat="42.64839553833008" lon="-7.974344730377197">
        <ele>596.0</ele>
        <time>2019-05-02T06:30:52.000Z</time>
      </trkpt>
      <trkpt lat="42.648353576660156" lon="-7.974374771118164">
        <ele>597.0</ele>
        <time>2019-05-02T06:30:56.000Z</time>
      </trkpt>
      <trkpt lat="42.64830780029297" lon="-7.974405765533447">
        <ele>598.0</ele>
        <time>2019-05-02T06:30:59.000Z</time>
      </trkpt>
      <trkpt lat="42.64827346801758" lon="-7.974464416503906">
        <ele>599.0</ele>
        <time>2019-05-02T06:31:05.000Z</time>
      </trkpt>
      <trkpt lat="42.648258209228516" lon="-7.974524021148682">
        <ele>600.0</ele>
        <time>2019-05-02T06:31:10.000Z</time>
      </trkpt>
      <trkpt lat="42.64826202392578" lon="-7.9745192527771">
        <ele>600.0</ele>
        <time>2019-05-02T06:31:12.000Z</time>
      </trkpt>
      <trkpt lat="42.64826583862305" lon="-7.97450065612793">
        <ele>600.0</ele>
        <time>2019-05-02T06:31:14.000Z</time>
      </trkpt>
      <trkpt lat="42.648277282714844" lon="-7.974472522735596">
        <ele>600.0</ele>
        <time>2019-05-02T06:31:16.000Z</time>
      </trkpt>
      <trkpt lat="42.64828872680664" lon="-7.974440097808838">
        <ele>600.0</ele>
        <time>2019-05-02T06:31:18.000Z</time>
      </trkpt>
      <trkpt lat="42.648292541503906" lon="-7.974440097808838">
        <ele>599.0</ele>
        <time>2019-05-02T06:31:23.000Z</time>
      </trkpt>
      <trkpt lat="42.648292541503906" lon="-7.9744486808776855">
        <ele>599.0</ele>
        <time>2019-05-02T06:31:28.000Z</time>
      </trkpt>
      <trkpt lat="42.64828872680664" lon="-7.97446346282959">
        <ele>599.0</ele>
        <time>2019-05-02T06:31:33.000Z</time>
      </trkpt>
      <trkpt lat="42.64828872680664" lon="-7.974481105804443">
        <ele>599.0</ele>
        <time>2019-05-02T06:31:38.000Z</time>
      </trkpt>
      <trkpt lat="42.64828872680664" lon="-7.974489688873291">
        <ele>599.0</ele>
        <time>2019-05-02T06:31:38.000Z</time>
      </trkpt>
      <trkpt lat="42.64828872680664" lon="-7.974498271942139">
        <ele>599.0</ele>
        <time>2019-05-02T06:31:38.000Z</time>
      </trkpt>
      <trkpt lat="42.648284912109375" lon="-7.974506378173828">
        <ele>599.0</ele>
        <time>2019-05-02T06:31:38.000Z</time>
      </trkpt>
      <trkpt lat="42.648284912109375" lon="-7.974514007568359">
        <ele>599.0</ele>
        <time>2019-05-02T06:31:39.000Z</time>
      </trkpt>
      <trkpt lat="42.64828109741211" lon="-7.974576473236084">
        <ele>599.0</ele>
        <time>2019-05-02T06:31:41.000Z</time>
      </trkpt>
      <trkpt lat="42.648277282714844" lon="-7.974661350250244">
        <ele>598.0</ele>
        <time>2019-05-02T06:31:43.000Z</time>
      </trkpt>
      <trkpt lat="42.64826965332031" lon="-7.974761009216309">
        <ele>598.0</ele>
        <time>2019-05-02T06:31:45.000Z</time>
      </trkpt>
      <trkpt lat="42.64826202392578" lon="-7.974868297576904">
        <ele>598.0</ele>
        <time>2019-05-02T06:31:47.000Z</time>
      </trkpt>
      <trkpt lat="42.64825439453125" lon="-7.974907398223877">
        <ele>598.0</ele>
        <time>2019-05-02T06:31:49.000Z</time>
      </trkpt>
      <trkpt lat="42.64824676513672" lon="-7.974925518035889">
        <ele>598.0</ele>
        <time>2019-05-02T06:31:51.000Z</time>
      </trkpt>
      <trkpt lat="42.64824295043945" lon="-7.9749298095703125">
        <ele>598.0</ele>
        <time>2019-05-02T06:31:53.000Z</time>
      </trkpt>
      <trkpt lat="42.64823532104492" lon="-7.9749274253845215">
        <ele>598.0</ele>
        <time>2019-05-02T06:31:55.000Z</time>
      </trkpt>
      <trkpt lat="42.648231506347656" lon="-7.97493839263916">
        <ele>598.0</ele>
        <time>2019-05-02T06:31:56.000Z</time>
      </trkpt>
      <trkpt lat="42.64822769165039" lon="-7.974947929382324">
        <ele>598.0</ele>
        <time>2019-05-02T06:31:56.000Z</time>
      </trkpt>
      <trkpt lat="42.648223876953125" lon="-7.974956035614014">
        <ele>598.0</ele>
        <time>2019-05-02T06:31:56.000Z</time>
      </trkpt>
      <trkpt lat="42.64822006225586" lon="-7.974964141845703">
        <ele>598.0</ele>
        <time>2019-05-02T06:31:56.000Z</time>
      </trkpt>
      <trkpt lat="42.64820098876953" lon="-7.975040435791016">
        <ele>598.0</ele>
        <time>2019-05-02T06:32:01.000Z</time>
      </trkpt>
      <trkpt lat="42.64817428588867" lon="-7.975144863128662">
        <ele>598.0</ele>
        <time>2019-05-02T06:32:06.000Z</time>
      </trkpt>
      <trkpt lat="42.64813995361328" lon="-7.975268363952637">
        <ele>598.0</ele>
        <time>2019-05-02T06:32:11.000Z</time>
      </trkpt>
      <trkpt lat="42.64810562133789" lon="-7.975401401519775">
        <ele>598.0</ele>
        <time>2019-05-02T06:32:16.000Z</time>
      </trkpt>
      <trkpt lat="42.64805603027344" lon="-7.975502014160156">
        <ele>600.0</ele>
        <time>2019-05-02T06:32:32.000Z</time>
      </trkpt>
      <trkpt lat="42.648033142089844" lon="-7.975543022155762">
        <ele>600.0</ele>
        <time>2019-05-02T06:32:33.000Z</time>
      </trkpt>
      <trkpt lat="42.647945404052734" lon="-7.97573709487915">
        <ele>601.0</ele>
        <time>2019-05-02T06:32:43.000Z</time>
      </trkpt>
      <trkpt lat="42.64790344238281" lon="-7.9758830070495605">
        <ele>602.0</ele>
        <time>2019-05-02T06:32:52.000Z</time>
      </trkpt>
      <trkpt lat="42.647891998291016" lon="-7.975924491882324">
        <ele>602.0</ele>
        <time>2019-05-02T06:32:53.000Z</time>
      </trkpt>
      <trkpt lat="42.647796630859375" lon="-7.976376056671143">
        <ele>608.0</ele>
        <time>2019-05-02T06:33:16.000Z</time>
      </trkpt>
      <trkpt lat="42.647674560546875" lon="-7.97683048248291">
        <ele>603.0</ele>
        <time>2019-05-02T06:33:43.000Z</time>
      </trkpt>
      <trkpt lat="42.64763259887695" lon="-7.977054119110107">
        <ele>600.0</ele>
        <time>2019-05-02T06:34:06.000Z</time>
      </trkpt>
      <trkpt lat="42.64760971069336" lon="-7.977169990539551">
        <ele>601.0</ele>
        <time>2019-05-02T06:34:20.000Z</time>
      </trkpt>
      <trkpt lat="42.64760208129883" lon="-7.977219104766846">
        <ele>601.0</ele>
        <time>2019-05-02T06:34:21.000Z</time>
      </trkpt>
      <trkpt lat="42.64753341674805" lon="-7.977694511413574">
        <ele>601.0</ele>
        <time>2019-05-02T06:34:45.000Z</time>
      </trkpt>
      <trkpt lat="42.64752197265625" lon="-7.977761268615723">
        <ele>600.0</ele>
        <time>2019-05-02T06:34:51.000Z</time>
      </trkpt>
      <trkpt lat="42.64752197265625" lon="-7.97780179977417">
        <ele>598.0</ele>
        <time>2019-05-02T06:35:09.000Z</time>
      </trkpt>
      <trkpt lat="42.647518157958984" lon="-7.9778313636779785">
        <ele>598.0</ele>
        <time>2019-05-02T06:35:10.000Z</time>
      </trkpt>
      <trkpt lat="42.64748001098633" lon="-7.978312969207764">
        <ele>598.0</ele>
        <time>2019-05-02T06:35:33.000Z</time>
      </trkpt>
      <trkpt lat="42.6474723815918" lon="-7.978798866271973">
        <ele>599.0</ele>
        <time>2019-05-02T06:36:09.000Z</time>
      </trkpt>
      <trkpt lat="42.647457122802734" lon="-7.979286193847656">
        <ele>601.0</ele>
        <time>2019-05-02T06:36:37.000Z</time>
      </trkpt>
      <trkpt lat="42.64743423461914" lon="-7.979770183563232">
        <ele>598.0</ele>
        <time>2019-05-02T06:37:10.000Z</time>
      </trkpt>
      <trkpt lat="42.64742660522461" lon="-7.980251312255859">
        <ele>601.0</ele>
        <time>2019-05-02T06:37:44.000Z</time>
      </trkpt>
      <trkpt lat="42.647438049316406" lon="-7.98030424118042">
        <ele>602.0</ele>
        <time>2019-05-02T06:37:47.000Z</time>
      </trkpt>
      <trkpt lat="42.64745330810547" lon="-7.9803290367126465">
        <ele>603.0</ele>
        <time>2019-05-02T06:37:50.000Z</time>
      </trkpt>
      <trkpt lat="42.64746856689453" lon="-7.980335235595703">
        <ele>604.0</ele>
        <time>2019-05-02T06:37:53.000Z</time>
      </trkpt>
      <trkpt lat="42.647491455078125" lon="-7.980331897735596">
        <ele>605.0</ele>
        <time>2019-05-02T06:37:56.000Z</time>
      </trkpt>
      <trkpt lat="42.64754104614258" lon="-7.980335712432861">
        <ele>606.0</ele>
        <time>2019-05-02T06:38:02.000Z</time>
      </trkpt>
      <trkpt lat="42.64760971069336" lon="-7.98033332824707">
        <ele>607.0</ele>
        <time>2019-05-02T06:38:08.000Z</time>
      </trkpt>
      <trkpt lat="42.64768981933594" lon="-7.9803266525268555">
        <ele>609.0</ele>
        <time>2019-05-02T06:38:14.000Z</time>
      </trkpt>
      <trkpt lat="42.647769927978516" lon="-7.98031759262085">
        <ele>610.0</ele>
        <time>2019-05-02T06:38:19.000Z</time>
      </trkpt>
      <trkpt lat="42.64785385131836" lon="-7.980325698852539">
        <ele>611.0</ele>
        <time>2019-05-02T06:38:29.000Z</time>
      </trkpt>
      <trkpt lat="42.64794158935547" lon="-7.9803385734558105">
        <ele>612.0</ele>
        <time>2019-05-02T06:38:38.000Z</time>
      </trkpt>
      <trkpt lat="42.648033142089844" lon="-7.9803547859191895">
        <ele>613.0</ele>
        <time>2019-05-02T06:38:47.000Z</time>
      </trkpt>
      <trkpt lat="42.648128509521484" lon="-7.980372428894043">
        <ele>613.0</ele>
        <time>2019-05-02T06:38:56.000Z</time>
      </trkpt>
      <trkpt lat="42.64818572998047" lon="-7.980379104614258">
        <ele>614.0</ele>
        <time>2019-05-02T06:39:01.000Z</time>
      </trkpt>
      <trkpt lat="42.648231506347656" lon="-7.980382919311523">
        <ele>614.0</ele>
        <time>2019-05-02T06:39:05.000Z</time>
      </trkpt>
      <trkpt lat="42.64826965332031" lon="-7.980384826660156">
        <ele>614.0</ele>
        <time>2019-05-02T06:39:09.000Z</time>
      </trkpt>
      <trkpt lat="42.64830017089844" lon="-7.980385780334473">
        <ele>615.0</ele>
        <time>2019-05-02T06:39:13.000Z</time>
      </trkpt>
      <trkpt lat="42.648319244384766" lon="-7.9803853034973145">
        <ele>615.0</ele>
        <time>2019-05-02T06:39:16.000Z</time>
      </trkpt>
      <trkpt lat="42.64833068847656" lon="-7.980383396148682">
        <ele>615.0</ele>
        <time>2019-05-02T06:39:19.000Z</time>
      </trkpt>
      <trkpt lat="42.648338317871094" lon="-7.980380535125732">
        <ele>615.0</ele>
        <time>2019-05-02T06:39:22.000Z</time>
      </trkpt>
      <trkpt lat="42.648338317871094" lon="-7.980376720428467">
        <ele>614.0</ele>
        <time>2019-05-02T06:39:25.000Z</time>
      </trkpt>
      <trkpt lat="42.648345947265625" lon="-7.980375289916992">
        <ele>614.0</ele>
        <time>2019-05-02T06:39:26.000Z</time>
      </trkpt>
      <trkpt lat="42.648353576660156" lon="-7.980373859405518">
        <ele>614.0</ele>
        <time>2019-05-02T06:39:26.000Z</time>
      </trkpt>
      <trkpt lat="42.64836120605469" lon="-7.980372428894043">
        <ele>614.0</ele>
        <time>2019-05-02T06:39:26.000Z</time>
      </trkpt>
      <trkpt lat="42.64836502075195" lon="-7.980370998382568">
        <ele>614.0</ele>
        <time>2019-05-02T06:39:26.000Z</time>
      </trkpt>
      <trkpt lat="42.6484260559082" lon="-7.980362892150879">
        <ele>615.0</ele>
        <time>2019-05-02T06:39:31.000Z</time>
      </trkpt>
      <trkpt lat="42.64850616455078" lon="-7.98035192489624">
        <ele>615.0</ele>
        <time>2019-05-02T06:39:36.000Z</time>
      </trkpt>
      <trkpt lat="42.64860153198242" lon="-7.9803385734558105">
        <ele>615.0</ele>
        <time>2019-05-02T06:39:41.000Z</time>
      </trkpt>
      <trkpt lat="42.648704528808594" lon="-7.980324745178223">
        <ele>616.0</ele>
        <time>2019-05-02T06:39:45.000Z</time>
      </trkpt>
      <trkpt lat="42.648868560791016" lon="-7.980397701263428">
        <ele>617.0</ele>
        <time>2019-05-02T06:39:57.000Z</time>
      </trkpt>
      <trkpt lat="42.64903259277344" lon="-7.980515480041504">
        <ele>618.0</ele>
        <time>2019-05-02T06:40:09.000Z</time>
      </trkpt>
      <trkpt lat="42.649085998535156" lon="-7.98054313659668">
        <ele>619.0</ele>
        <time>2019-05-02T06:40:16.000Z</time>
      </trkpt>
      <trkpt lat="42.64912414550781" lon="-7.980562210083008">
        <ele>619.0</ele>
        <time>2019-05-02T06:40:22.000Z</time>
      </trkpt>
      <trkpt lat="42.6491584777832" lon="-7.9805755615234375">
        <ele>620.0</ele>
        <time>2019-05-02T06:40:28.000Z</time>
      </trkpt>
      <trkpt lat="42.64918518066406" lon="-7.980586051940918">
        <ele>620.0</ele>
        <time>2019-05-02T06:40:34.000Z</time>
      </trkpt>
      <trkpt lat="42.64920425415039" lon="-7.980594635009766">
        <ele>621.0</ele>
        <time>2019-05-02T06:40:36.000Z</time>
      </trkpt>
      <trkpt lat="42.64921188354492" lon="-7.980599880218506">
        <ele>621.0</ele>
        <time>2019-05-02T06:40:37.000Z</time>
      </trkpt>
      <trkpt lat="42.64921569824219" lon="-7.980602264404297">
        <ele>621.0</ele>
        <time>2019-05-02T06:40:39.000Z</time>
      </trkpt>
      <trkpt lat="42.64921569824219" lon="-7.9806036949157715">
        <ele>620.0</ele>
        <time>2019-05-02T06:40:40.000Z</time>
      </trkpt>
      <trkpt lat="42.64919662475586" lon="-7.980656623840332">
        <ele>623.0</ele>
        <time>2019-05-02T06:41:42.000Z</time>
      </trkpt>
      <trkpt lat="42.64939498901367" lon="-7.980679988861084">
        <ele>623.0</ele>
        <time>2019-05-02T06:42:04.000Z</time>
      </trkpt>
      <trkpt lat="42.64939498901367" lon="-7.980679988861084">
        <ele>623.0</ele>
        <time>2019-05-02T06:42:05.000Z</time>
      </trkpt>
      <trkpt lat="42.64959716796875" lon="-7.980691432952881">
        <ele>622.0</ele>
        <time>2019-05-02T06:42:21.000Z</time>
      </trkpt>
      <trkpt lat="42.649620056152344" lon="-7.980703830718994">
        <ele>622.0</ele>
        <time>2019-05-02T06:42:23.000Z</time>
      </trkpt>
      <trkpt lat="42.64963150024414" lon="-7.980720520019531">
        <ele>622.0</ele>
        <time>2019-05-02T06:42:24.000Z</time>
      </trkpt>
      <trkpt lat="42.649635314941406" lon="-7.980740070343018">
        <ele>622.0</ele>
        <time>2019-05-02T06:42:26.000Z</time>
      </trkpt>
      <trkpt lat="42.649635314941406" lon="-7.98076057434082">
        <ele>622.0</ele>
        <time>2019-05-02T06:42:27.000Z</time>
      </trkpt>
      <trkpt lat="42.649658203125" lon="-7.9807586669921875">
        <ele>622.0</ele>
        <time>2019-05-02T06:42:30.000Z</time>
      </trkpt>
      <trkpt lat="42.649688720703125" lon="-7.980749130249023">
        <ele>622.0</ele>
        <time>2019-05-02T06:42:32.000Z</time>
      </trkpt>
      <trkpt lat="42.64972686767578" lon="-7.980734348297119">
        <ele>621.0</ele>
        <time>2019-05-02T06:42:34.000Z</time>
      </trkpt>
      <trkpt lat="42.64976119995117" lon="-7.980716705322266">
        <ele>621.0</ele>
        <time>2019-05-02T06:42:36.000Z</time>
      </trkpt>
      <trkpt lat="42.64979934692383" lon="-7.980742931365967">
        <ele>621.0</ele>
        <time>2019-05-02T06:42:40.000Z</time>
      </trkpt>
      <trkpt lat="42.649837493896484" lon="-7.9807844161987305">
        <ele>620.0</ele>
        <time>2019-05-02T06:42:44.000Z</time>
      </trkpt>
      <trkpt lat="42.649879455566406" lon="-7.980836391448975">
        <ele>620.0</ele>
        <time>2019-05-02T06:42:48.000Z</time>
      </trkpt>
      <trkpt lat="42.64992141723633" lon="-7.980893135070801">
        <ele>620.0</ele>
        <time>2019-05-02T06:42:51.000Z</time>
      </trkpt>
      <trkpt lat="42.649940490722656" lon="-7.9809136390686035">
        <ele>620.0</ele>
        <time>2019-05-02T06:42:53.000Z</time>
      </trkpt>
      <trkpt lat="42.64994812011719" lon="-7.980923652648926">
        <ele>620.0</ele>
        <time>2019-05-02T06:42:55.000Z</time>
      </trkpt>
      <trkpt lat="42.64995574951172" lon="-7.980926990509033">
        <ele>619.0</ele>
        <time>2019-05-02T06:42:57.000Z</time>
      </trkpt>
      <trkpt lat="42.64995574951172" lon="-7.980926990509033">
        <ele>619.0</ele>
        <time>2019-05-02T06:42:58.000Z</time>
      </trkpt>
      <trkpt lat="42.64996337890625" lon="-7.980932712554932">
        <ele>619.0</ele>
        <time>2019-05-02T06:43:03.000Z</time>
      </trkpt>
      <trkpt lat="42.649967193603516" lon="-7.980937480926514">
        <ele>619.0</ele>
        <time>2019-05-02T06:43:07.000Z</time>
      </trkpt>
      <trkpt lat="42.64997100830078" lon="-7.980940818786621">
        <ele>618.0</ele>
        <time>2019-05-02T06:43:11.000Z</time>
      </trkpt>
      <trkpt lat="42.64997482299805" lon="-7.980944633483887">
        <ele>618.0</ele>
        <time>2019-05-02T06:43:15.000Z</time>
      </trkpt>
      <trkpt lat="42.64998245239258" lon="-7.980947971343994">
        <ele>617.0</ele>
        <time>2019-05-02T06:43:16.000Z</time>
      </trkpt>
      <trkpt lat="42.649986267089844" lon="-7.98095178604126">
        <ele>617.0</ele>
        <time>2019-05-02T06:43:16.000Z</time>
      </trkpt>
      <trkpt lat="42.64999008178711" lon="-7.980955123901367">
        <ele>617.0</ele>
        <time>2019-05-02T06:43:16.000Z</time>
      </trkpt>
      <trkpt lat="42.649993896484375" lon="-7.980957984924316">
        <ele>618.0</ele>
        <time>2019-05-02T06:43:16.000Z</time>
      </trkpt>
      <trkpt lat="42.650047302246094" lon="-7.98099422454834">
        <ele>617.0</ele>
        <time>2019-05-02T06:43:19.000Z</time>
      </trkpt>
      <trkpt lat="42.650123596191406" lon="-7.981044292449951">
        <ele>617.0</ele>
        <time>2019-05-02T06:43:22.000Z</time>
      </trkpt>
      <trkpt lat="42.65021514892578" lon="-7.98110294342041">
        <ele>616.0</ele>
        <time>2019-05-02T06:43:25.000Z</time>
      </trkpt>
      <trkpt lat="42.65031051635742" lon="-7.981166839599609">
        <ele>616.0</ele>
        <time>2019-05-02T06:43:27.000Z</time>
      </trkpt>
      <trkpt lat="42.65047073364258" lon="-7.981156826019287">
        <ele>615.0</ele>
        <time>2019-05-02T06:43:43.000Z</time>
      </trkpt>
      <trkpt lat="42.65062713623047" lon="-7.9810943603515625">
        <ele>613.0</ele>
        <time>2019-05-02T06:43:58.000Z</time>
      </trkpt>
      <trkpt lat="42.65066146850586" lon="-7.981086730957031">
        <ele>613.0</ele>
        <time>2019-05-02T06:44:02.000Z</time>
      </trkpt>
      <trkpt lat="42.65068054199219" lon="-7.981083869934082">
        <ele>612.0</ele>
        <time>2019-05-02T06:44:05.000Z</time>
      </trkpt>
      <trkpt lat="42.65068435668945" lon="-7.981083869934082">
        <ele>612.0</ele>
        <time>2019-05-02T06:44:08.000Z</time>
      </trkpt>
      <trkpt lat="42.65068054199219" lon="-7.981085300445557">
        <ele>612.0</ele>
        <time>2019-05-02T06:44:12.000Z</time>
      </trkpt>
      <trkpt lat="42.650691986083984" lon="-7.981083393096924">
        <ele>611.0</ele>
        <time>2019-05-02T06:44:12.000Z</time>
      </trkpt>
      <trkpt lat="42.650699615478516" lon="-7.981081962585449">
        <ele>611.0</ele>
        <time>2019-05-02T06:44:12.000Z</time>
      </trkpt>
      <trkpt lat="42.65070724487305" lon="-7.981080532073975">
        <ele>612.0</ele>
        <time>2019-05-02T06:44:12.000Z</time>
      </trkpt>
      <trkpt lat="42.65071487426758" lon="-7.981079578399658">
        <ele>612.0</ele>
        <time>2019-05-02T06:44:13.000Z</time>
      </trkpt>
      <trkpt lat="42.65077590942383" lon="-7.981062412261963">
        <ele>612.0</ele>
        <time>2019-05-02T06:44:19.000Z</time>
      </trkpt>
      <trkpt lat="42.65085983276367" lon="-7.981039047241211">
        <ele>612.0</ele>
        <time>2019-05-02T06:44:25.000Z</time>
      </trkpt>
      <trkpt lat="42.65095520019531" lon="-7.981011390686035">
        <ele>612.0</ele>
        <time>2019-05-02T06:44:30.000Z</time>
      </trkpt>
      <trkpt lat="42.65106201171875" lon="-7.980981349945068">
        <ele>612.0</ele>
        <time>2019-05-02T06:44:36.000Z</time>
      </trkpt>
      <trkpt lat="42.65111541748047" lon="-7.980971813201904">
        <ele>612.0</ele>
        <time>2019-05-02T06:44:39.000Z</time>
      </trkpt>
      <trkpt lat="42.651161193847656" lon="-7.980968952178955">
        <ele>612.0</ele>
        <time>2019-05-02T06:44:42.000Z</time>
      </trkpt>
      <trkpt lat="42.65119552612305" lon="-7.9809699058532715">
        <ele>612.0</ele>
        <time>2019-05-02T06:44:46.000Z</time>
      </trkpt>
      <trkpt lat="42.65122604370117" lon="-7.980973243713379">
        <ele>611.0</ele>
        <time>2019-05-02T06:44:49.000Z</time>
      </trkpt>
      <trkpt lat="42.651268005371094" lon="-7.980981826782227">
        <ele>611.0</ele>
        <time>2019-05-02T06:44:51.000Z</time>
      </trkpt>
      <trkpt lat="42.651309967041016" lon="-7.980995178222656">
        <ele>611.0</ele>
        <time>2019-05-02T06:44:54.000Z</time>
      </trkpt>
      <trkpt lat="42.6513557434082" lon="-7.981011867523193">
        <ele>611.0</ele>
        <time>2019-05-02T06:44:57.000Z</time>
      </trkpt>
      <trkpt lat="42.651397705078125" lon="-7.981029987335205">
        <ele>610.0</ele>
        <time>2019-05-02T06:44:59.000Z</time>
      </trkpt>
      <trkpt lat="42.651451110839844" lon="-7.981017589569092">
        <ele>610.0</ele>
        <time>2019-05-02T06:45:05.000Z</time>
      </trkpt>
      <trkpt lat="42.651485443115234" lon="-7.98098611831665">
        <ele>611.0</ele>
        <time>2019-05-02T06:45:10.000Z</time>
      </trkpt>
      <trkpt lat="42.651485443115234" lon="-7.98096227645874">
        <ele>611.0</ele>
        <time>2019-05-02T06:45:13.000Z</time>
      </trkpt>
      <trkpt lat="42.6514778137207" lon="-7.98093318939209">
        <ele>611.0</ele>
        <time>2019-05-02T06:45:15.000Z</time>
      </trkpt>
      <trkpt lat="42.651466369628906" lon="-7.980900287628174">
        <ele>611.0</ele>
        <time>2019-05-02T06:45:17.000Z</time>
      </trkpt>
      <trkpt lat="42.651451110839844" lon="-7.980865478515625">
        <ele>611.0</ele>
        <time>2019-05-02T06:45:19.000Z</time>
      </trkpt>
      <trkpt lat="42.65149688720703" lon="-7.9808759689331055">
        <ele>611.0</ele>
        <time>2019-05-02T06:45:23.000Z</time>
      </trkpt>
      <trkpt lat="42.65156555175781" lon="-7.980903625488281">
        <ele>611.0</ele>
        <time>2019-05-02T06:45:27.000Z</time>
      </trkpt>
      <trkpt lat="42.65165328979492" lon="-7.980942249298096">
        <ele>611.0</ele>
        <time>2019-05-02T06:45:31.000Z</time>
      </trkpt>
      <trkpt lat="42.6517448425293" lon="-7.980986595153809">
        <ele>611.0</ele>
        <time>2019-05-02T06:45:35.000Z</time>
      </trkpt>
      <trkpt lat="42.65182876586914" lon="-7.980997562408447">
        <ele>611.0</ele>
        <time>2019-05-02T06:45:42.000Z</time>
      </trkpt>
      <trkpt lat="42.651920318603516" lon="-7.981000900268555">
        <ele>611.0</ele>
        <time>2019-05-02T06:45:49.000Z</time>
      </trkpt>
      <trkpt lat="42.65201187133789" lon="-7.980998516082764">
        <ele>612.0</ele>
        <time>2019-05-02T06:45:56.000Z</time>
      </trkpt>
      <trkpt lat="42.65210723876953" lon="-7.980993270874023">
        <ele>613.0</ele>
        <time>2019-05-02T06:46:03.000Z</time>
      </trkpt>
      <trkpt lat="42.65219497680664" lon="-7.980981826782227">
        <ele>613.0</ele>
        <time>2019-05-02T06:46:11.000Z</time>
      </trkpt>
      <trkpt lat="42.65228271484375" lon="-7.980965614318848">
        <ele>612.0</ele>
        <time>2019-05-02T06:46:18.000Z</time>
      </trkpt>
      <trkpt lat="42.65237045288086" lon="-7.980945110321045">
        <ele>612.0</ele>
        <time>2019-05-02T06:46:25.000Z</time>
      </trkpt>
      <trkpt lat="42.6524543762207" lon="-7.980923175811768">
        <ele>612.0</ele>
        <time>2019-05-02T06:46:32.000Z</time>
      </trkpt>
      <trkpt lat="42.65254592895508" lon="-7.980933666229248">
        <ele>612.0</ele>
        <time>2019-05-02T06:46:40.000Z</time>
      </trkpt>
      <trkpt lat="42.65263366699219" lon="-7.980956077575684">
        <ele>612.0</ele>
        <time>2019-05-02T06:46:48.000Z</time>
      </trkpt>
      <trkpt lat="42.6527214050293" lon="-7.98098611831665">
        <ele>611.0</ele>
        <time>2019-05-02T06:46:56.000Z</time>
      </trkpt>
      <trkpt lat="42.652809143066406" lon="-7.981019973754883">
        <ele>611.0</ele>
        <time>2019-05-02T06:47:03.000Z</time>
      </trkpt>
      <trkpt lat="42.65288543701172" lon="-7.981040954589844">
        <ele>611.0</ele>
        <time>2019-05-02T06:47:10.000Z</time>
      </trkpt>
      <trkpt lat="42.652950286865234" lon="-7.981060981750488">
        <ele>610.0</ele>
        <time>2019-05-02T06:47:17.000Z</time>
      </trkpt>
      <trkpt lat="42.653011322021484" lon="-7.981080055236816">
        <ele>609.0</ele>
        <time>2019-05-02T06:47:24.000Z</time>
      </trkpt>
      <trkpt lat="42.653072357177734" lon="-7.981098651885986">
        <ele>608.0</ele>
        <time>2019-05-02T06:47:30.000Z</time>
      </trkpt>
      <trkpt lat="42.65315628051758" lon="-7.981108665466309">
        <ele>607.0</ele>
        <time>2019-05-02T06:47:34.000Z</time>
      </trkpt>
      <trkpt lat="42.65325164794922" lon="-7.981113910675049">
        <ele>607.0</ele>
        <time>2019-05-02T06:47:37.000Z</time>
      </trkpt>
      <trkpt lat="42.653350830078125" lon="-7.981116771697998">
        <ele>607.0</ele>
        <time>2019-05-02T06:47:41.000Z</time>
      </trkpt>
      <trkpt lat="42.65345001220703" lon="-7.9811177253723145">
        <ele>607.0</ele>
        <time>2019-05-02T06:47:44.000Z</time>
      </trkpt>
      <trkpt lat="42.653804779052734" lon="-7.9809746742248535">
        <ele>607.0</ele>
        <time>2019-05-02T06:47:49.000Z</time>
      </trkpt>
      <trkpt lat="42.65380859375" lon="-7.98099422454834">
        <ele>607.0</ele>
        <time>2019-05-02T06:47:52.000Z</time>
      </trkpt>
      <trkpt lat="42.65377426147461" lon="-7.981037616729736">
        <ele>607.0</ele>
        <time>2019-05-02T06:47:55.000Z</time>
      </trkpt>
      <trkpt lat="42.65371322631836" lon="-7.981096267700195">
        <ele>608.0</ele>
        <time>2019-05-02T06:47:57.000Z</time>
      </trkpt>
      <trkpt lat="42.65364456176758" lon="-7.9811625480651855">
        <ele>608.0</ele>
        <time>2019-05-02T06:48:00.000Z</time>
      </trkpt>
      <trkpt lat="42.65363311767578" lon="-7.981205940246582">
        <ele>608.0</ele>
        <time>2019-05-02T06:48:02.000Z</time>
      </trkpt>
      <trkpt lat="42.65363311767578" lon="-7.981247901916504">
        <ele>608.0</ele>
        <time>2019-05-02T06:48:05.000Z</time>
      </trkpt>
      <trkpt lat="42.65364074707031" lon="-7.981289386749268">
        <ele>608.0</ele>
        <time>2019-05-02T06:48:08.000Z</time>
      </trkpt>
      <trkpt lat="42.653656005859375" lon="-7.981329917907715">
        <ele>608.0</ele>
        <time>2019-05-02T06:48:10.000Z</time>
      </trkpt>
      <trkpt lat="42.653438568115234" lon="-7.981110095977783">
        <ele>596.0</ele>
        <time>2019-05-02T06:49:46.000Z</time>
      </trkpt>
      <trkpt lat="42.65351486206055" lon="-7.981386661529541">
        <ele>598.0</ele>
        <time>2019-05-02T06:50:53.000Z</time>
      </trkpt>
      <trkpt lat="42.65351486206055" lon="-7.981386661529541">
        <ele>598.0</ele>
        <time>2019-05-02T06:50:54.000Z</time>
      </trkpt>
      <trkpt lat="42.65358352661133" lon="-7.981490612030029">
        <ele>598.0</ele>
        <time>2019-05-02T06:51:05.000Z</time>
      </trkpt>
      <trkpt lat="42.653602600097656" lon="-7.981520652770996">
        <ele>598.0</ele>
        <time>2019-05-02T06:51:28.000Z</time>
      </trkpt>
      <trkpt lat="42.65361404418945" lon="-7.981544494628906">
        <ele>598.0</ele>
        <time>2019-05-02T06:51:29.000Z</time>
      </trkpt>
      <trkpt lat="42.653831481933594" lon="-7.9818830490112305">
        <ele>598.0</ele>
        <time>2019-05-02T06:51:38.000Z</time>
      </trkpt>
      <trkpt lat="42.653873443603516" lon="-7.981922149658203">
        <ele>598.0</ele>
        <time>2019-05-02T06:51:39.000Z</time>
      </trkpt>
      <trkpt lat="42.65388488769531" lon="-7.9819016456604">
        <ele>598.0</ele>
        <time>2019-05-02T06:51:40.000Z</time>
      </trkpt>
      <trkpt lat="42.65394592285156" lon="-7.98193359375">
        <ele>598.0</ele>
        <time>2019-05-02T06:51:47.000Z</time>
      </trkpt>
      <trkpt lat="42.65402603149414" lon="-7.9819769859313965">
        <ele>598.0</ele>
        <time>2019-05-02T06:51:54.000Z</time>
      </trkpt>
      <trkpt lat="42.654117584228516" lon="-7.982027530670166">
        <ele>599.0</ele>
        <time>2019-05-02T06:52:01.000Z</time>
      </trkpt>
      <trkpt lat="42.65422058105469" lon="-7.982082366943359">
        <ele>599.0</ele>
        <time>2019-05-02T06:52:07.000Z</time>
      </trkpt>
      <trkpt lat="42.65425109863281" lon="-7.9820990562438965">
        <ele>599.0</ele>
        <time>2019-05-02T06:52:08.000Z</time>
      </trkpt>
      <trkpt lat="42.654258728027344" lon="-7.982104301452637">
        <ele>599.0</ele>
        <time>2019-05-02T06:52:09.000Z</time>
      </trkpt>
      <trkpt lat="42.65425491333008" lon="-7.982100963592529">
        <ele>599.0</ele>
        <time>2019-05-02T06:52:10.000Z</time>
      </trkpt>
      <trkpt lat="42.65424346923828" lon="-7.9820942878723145">
        <ele>599.0</ele>
        <time>2019-05-02T06:52:11.000Z</time>
      </trkpt>
      <trkpt lat="42.65424728393555" lon="-7.9820966720581055">
        <ele>599.0</ele>
        <time>2019-05-02T06:52:15.000Z</time>
      </trkpt>
      <trkpt lat="42.65424728393555" lon="-7.982098579406738">
        <ele>600.0</ele>
        <time>2019-05-02T06:52:19.000Z</time>
      </trkpt>
      <trkpt lat="42.65425109863281" lon="-7.982100486755371">
        <ele>600.0</ele>
        <time>2019-05-02T06:52:23.000Z</time>
      </trkpt>
      <trkpt lat="42.65425109863281" lon="-7.982102394104004">
        <ele>600.0</ele>
        <time>2019-05-02T06:52:27.000Z</time>
      </trkpt>
      <trkpt lat="42.65425491333008" lon="-7.982104301452637">
        <ele>601.0</ele>
        <time>2019-05-02T06:52:28.000Z</time>
      </trkpt>
      <trkpt lat="42.65425491333008" lon="-7.9821062088012695">
        <ele>601.0</ele>
        <time>2019-05-02T06:52:28.000Z</time>
      </trkpt>
      <trkpt lat="42.654258728027344" lon="-7.982108116149902">
        <ele>600.0</ele>
        <time>2019-05-02T06:52:28.000Z</time>
      </trkpt>
      <trkpt lat="42.65426254272461" lon="-7.982110023498535">
        <ele>600.0</ele>
        <time>2019-05-02T06:52:28.000Z</time>
      </trkpt>
      <trkpt lat="42.654296875" lon="-7.9821367263793945">
        <ele>601.0</ele>
        <time>2019-05-02T06:52:30.000Z</time>
      </trkpt>
      <trkpt lat="42.65434265136719" lon="-7.982173919677734">
        <ele>601.0</ele>
        <time>2019-05-02T06:52:32.000Z</time>
      </trkpt>
      <trkpt lat="42.65439987182617" lon="-7.982217788696289">
        <ele>601.0</ele>
        <time>2019-05-02T06:52:34.000Z</time>
      </trkpt>
      <trkpt lat="42.65446090698242" lon="-7.982265472412109">
        <ele>602.0</ele>
        <time>2019-05-02T06:52:36.000Z</time>
      </trkpt>
      <trkpt lat="42.654544830322266" lon="-7.982310771942139">
        <ele>602.0</ele>
        <time>2019-05-02T06:54:05.000Z</time>
      </trkpt>
      <trkpt lat="42.654605865478516" lon="-7.982344150543213">
        <ele>602.0</ele>
        <time>2019-05-02T06:54:06.000Z</time>
      </trkpt>
      <trkpt lat="42.654903411865234" lon="-7.982494831085205">
        <ele>602.0</ele>
        <time>2019-05-02T06:54:08.000Z</time>
      </trkpt>
      <trkpt lat="42.65496063232422" lon="-7.982538223266602">
        <ele>565.0</ele>
        <time>2019-05-02T06:54:33.000Z</time>
      </trkpt>
      <trkpt lat="42.65518569946289" lon="-7.9826555252075195">
        <ele>605.0</ele>
        <time>2019-05-02T06:56:53.000Z</time>
      </trkpt>
      <trkpt lat="42.65521240234375" lon="-7.982670307159424">
        <ele>605.0</ele>
        <time>2019-05-02T06:56:54.000Z</time>
      </trkpt>
      <trkpt lat="42.65556716918945" lon="-7.98286771774292">
        <ele>606.0</ele>
        <time>2019-05-02T06:57:26.000Z</time>
      </trkpt>
      <trkpt lat="42.65570068359375" lon="-7.982946395874023">
        <ele>606.0</ele>
        <time>2019-05-02T06:57:47.000Z</time>
      </trkpt>
      <trkpt lat="42.6557731628418" lon="-7.982964038848877">
        <ele>605.0</ele>
        <time>2019-05-02T07:00:41.000Z</time>
      </trkpt>
      <trkpt lat="42.655818939208984" lon="-7.982975482940674">
        <ele>605.0</ele>
        <time>2019-05-02T07:00:42.000Z</time>
      </trkpt>
      <trkpt lat="42.6559944152832" lon="-7.983000755310059">
        <ele>606.0</ele>
        <time>2019-05-02T07:00:47.000Z</time>
      </trkpt>
      <trkpt lat="42.656028747558594" lon="-7.982931137084961">
        <ele>606.0</ele>
        <time>2019-05-02T07:01:32.000Z</time>
      </trkpt>
      <trkpt lat="42.65605545043945" lon="-7.982830047607422">
        <ele>606.0</ele>
        <time>2019-05-02T07:02:16.000Z</time>
      </trkpt>
      <trkpt lat="42.65608215332031" lon="-7.982707500457764">
        <ele>606.0</ele>
        <time>2019-05-02T07:03:01.000Z</time>
      </trkpt>
      <trkpt lat="42.656105041503906" lon="-7.982574939727783">
        <ele>606.0</ele>
        <time>2019-05-02T07:03:45.000Z</time>
      </trkpt>
      <trkpt lat="42.65611267089844" lon="-7.982536792755127">
        <ele>606.0</ele>
        <time>2019-05-02T07:03:46.000Z</time>
      </trkpt>
      <trkpt lat="42.6561164855957" lon="-7.982527256011963">
        <ele>606.0</ele>
        <time>2019-05-02T07:03:46.000Z</time>
      </trkpt>
      <trkpt lat="42.65611267089844" lon="-7.982537269592285">
        <ele>606.0</ele>
        <time>2019-05-02T07:03:46.000Z</time>
      </trkpt>
      <trkpt lat="42.65610885620117" lon="-7.982556343078613">
        <ele>606.0</ele>
        <time>2019-05-02T07:03:46.000Z</time>
      </trkpt>
      <trkpt lat="42.65610885620117" lon="-7.982553958892822">
        <ele>606.0</ele>
        <time>2019-05-02T07:03:47.000Z</time>
      </trkpt>
      <trkpt lat="42.65610885620117" lon="-7.982553005218506">
        <ele>606.0</ele>
        <time>2019-05-02T07:03:47.000Z</time>
      </trkpt>
      <trkpt lat="42.65610885620117" lon="-7.9825520515441895">
        <ele>606.0</ele>
        <time>2019-05-02T07:03:47.000Z</time>
      </trkpt>
      <trkpt lat="42.65610885620117" lon="-7.982551574707031">
        <ele>606.0</ele>
        <time>2019-05-02T07:03:47.000Z</time>
      </trkpt>
      <trkpt lat="42.65610885620117" lon="-7.982551097869873">
        <ele>606.0</ele>
        <time>2019-05-02T07:04:07.000Z</time>
      </trkpt>
      <trkpt lat="42.65610885620117" lon="-7.982550621032715">
        <ele>605.0</ele>
        <time>2019-05-02T07:04:27.000Z</time>
      </trkpt>
      <trkpt lat="42.65610885620117" lon="-7.982550621032715">
        <ele>604.0</ele>
        <time>2019-05-02T07:04:47.000Z</time>
      </trkpt>
      <trkpt lat="42.65610885620117" lon="-7.982550621032715">
        <ele>603.0</ele>
        <time>2019-05-02T07:05:06.000Z</time>
      </trkpt>
      <trkpt lat="42.65610885620117" lon="-7.982550621032715">
        <ele>603.0</ele>
        <time>2019-05-02T07:05:07.000Z</time>
      </trkpt>
      <trkpt lat="42.65610885620117" lon="-7.982550144195557">
        <ele>603.0</ele>
        <time>2019-05-02T07:05:07.000Z</time>
      </trkpt>
      <trkpt lat="42.65610885620117" lon="-7.982550144195557">
        <ele>603.0</ele>
        <time>2019-05-02T07:05:07.000Z</time>
      </trkpt>
      <trkpt lat="42.65610885620117" lon="-7.982549667358398">
        <ele>603.0</ele>
        <time>2019-05-02T07:05:07.000Z</time>
      </trkpt>
      <trkpt lat="42.6561164855957" lon="-7.9824700355529785">
        <ele>603.0</ele>
        <time>2019-05-02T07:05:10.000Z</time>
      </trkpt>
      <trkpt lat="42.656131744384766" lon="-7.982356548309326">
        <ele>603.0</ele>
        <time>2019-05-02T07:05:13.000Z</time>
      </trkpt>
      <trkpt lat="42.65614318847656" lon="-7.9822211265563965">
        <ele>602.0</ele>
        <time>2019-05-02T07:05:16.000Z</time>
      </trkpt>
      <trkpt lat="42.65616226196289" lon="-7.982074737548828">
        <ele>602.0</ele>
        <time>2019-05-02T07:05:19.000Z</time>
      </trkpt>
      <trkpt lat="42.656219482421875" lon="-7.981925010681152">
        <ele>601.0</ele>
        <time>2019-05-02T07:05:26.000Z</time>
      </trkpt>
      <trkpt lat="42.65629196166992" lon="-7.981816291809082">
        <ele>600.0</ele>
        <time>2019-05-02T07:05:32.000Z</time>
      </trkpt>
      <trkpt lat="42.65632629394531" lon="-7.981791019439697">
        <ele>599.0</ele>
        <time>2019-05-02T07:05:38.000Z</time>
      </trkpt>
      <trkpt lat="42.65636444091797" lon="-7.981781959533691">
        <ele>598.0</ele>
        <time>2019-05-02T07:05:44.000Z</time>
      </trkpt>
      <trkpt lat="42.656402587890625" lon="-7.981784343719482">
        <ele>597.0</ele>
        <time>2019-05-02T07:05:50.000Z</time>
      </trkpt>
      <trkpt lat="42.656436920166016" lon="-7.981791973114014">
        <ele>597.0</ele>
        <time>2019-05-02T07:05:55.000Z</time>
      </trkpt>
      <trkpt lat="42.65650939941406" lon="-7.9817705154418945">
        <ele>596.0</ele>
        <time>2019-05-02T07:06:00.000Z</time>
      </trkpt>
      <trkpt lat="42.656593322753906" lon="-7.9817423820495605">
        <ele>595.0</ele>
        <time>2019-05-02T07:06:05.000Z</time>
      </trkpt>
      <trkpt lat="42.65668869018555" lon="-7.981709957122803">
        <ele>594.0</ele>
        <time>2019-05-02T07:06:10.000Z</time>
      </trkpt>
      <trkpt lat="42.65678787231445" lon="-7.981675148010254">
        <ele>594.0</ele>
        <time>2019-05-02T07:06:15.000Z</time>
      </trkpt>
      <trkpt lat="42.65684127807617" lon="-7.981671333312988">
        <ele>594.0</ele>
        <time>2019-05-02T07:06:22.000Z</time>
      </trkpt>
      <trkpt lat="42.656883239746094" lon="-7.981678009033203">
        <ele>593.0</ele>
        <time>2019-05-02T07:06:28.000Z</time>
      </trkpt>
      <trkpt lat="42.656917572021484" lon="-7.981691360473633">
        <ele>594.0</ele>
        <time>2019-05-02T07:06:35.000Z</time>
      </trkpt>
      <trkpt lat="42.656944274902344" lon="-7.981708526611328">
        <ele>594.0</ele>
        <time>2019-05-02T07:06:41.000Z</time>
      </trkpt>
      <trkpt lat="42.65696334838867" lon="-7.98171329498291">
        <ele>594.0</ele>
        <time>2019-05-02T07:06:49.000Z</time>
      </trkpt>
      <trkpt lat="42.6569709777832" lon="-7.981716156005859">
        <ele>595.0</ele>
        <time>2019-05-02T07:06:57.000Z</time>
      </trkpt>
      <trkpt lat="42.65697479248047" lon="-7.981718063354492">
        <ele>596.0</ele>
        <time>2019-05-02T07:07:05.000Z</time>
      </trkpt>
      <trkpt lat="42.65697479248047" lon="-7.981719493865967">
        <ele>596.0</ele>
        <time>2019-05-02T07:07:12.000Z</time>
      </trkpt>
      <trkpt lat="42.656982421875" lon="-7.981721878051758">
        <ele>597.0</ele>
        <time>2019-05-02T07:07:13.000Z</time>
      </trkpt>
      <trkpt lat="42.656986236572266" lon="-7.981724262237549">
        <ele>597.0</ele>
        <time>2019-05-02T07:07:13.000Z</time>
      </trkpt>
      <trkpt lat="42.6569938659668" lon="-7.98172664642334">
        <ele>597.0</ele>
        <time>2019-05-02T07:07:13.000Z</time>
      </trkpt>
      <trkpt lat="42.65699768066406" lon="-7.981728553771973">
        <ele>596.0</ele>
        <time>2019-05-02T07:07:13.000Z</time>
      </trkpt>
      <trkpt lat="42.65705871582031" lon="-7.981744289398193">
        <ele>597.0</ele>
        <time>2019-05-02T07:07:16.000Z</time>
      </trkpt>
      <trkpt lat="42.65713882446289" lon="-7.9817657470703125">
        <ele>597.0</ele>
        <time>2019-05-02T07:07:18.000Z</time>
      </trkpt>
      <trkpt lat="42.65723419189453" lon="-7.981791019439697">
        <ele>597.0</ele>
        <time>2019-05-02T07:07:20.000Z</time>
      </trkpt>
      <trkpt lat="42.6573371887207" lon="-7.981817722320557">
        <ele>597.0</ele>
        <time>2019-05-02T07:07:22.000Z</time>
      </trkpt>
      <trkpt lat="42.657371520996094" lon="-7.981811046600342">
        <ele>597.0</ele>
        <time>2019-05-02T07:07:23.000Z</time>
      </trkpt>
      <trkpt lat="42.657386779785156" lon="-7.9817914962768555">
        <ele>597.0</ele>
        <time>2019-05-02T07:07:24.000Z</time>
      </trkpt>
      <trkpt lat="42.65739059448242" lon="-7.981764316558838">
        <ele>597.0</ele>
        <time>2019-05-02T07:07:25.000Z</time>
      </trkpt>
      <trkpt lat="42.65738296508789" lon="-7.981733322143555">
        <ele>598.0</ele>
        <time>2019-05-02T07:07:26.000Z</time>
      </trkpt>
      <trkpt lat="42.65738296508789" lon="-7.981729507446289">
        <ele>598.0</ele>
        <time>2019-05-02T07:07:27.000Z</time>
      </trkpt>
      <trkpt lat="42.65737533569336" lon="-7.981733322143555">
        <ele>598.0</ele>
        <time>2019-05-02T07:07:28.000Z</time>
      </trkpt>
      <trkpt lat="42.6573600769043" lon="-7.9817423820495605">
        <ele>598.0</ele>
        <time>2019-05-02T07:07:29.000Z</time>
      </trkpt>
      <trkpt lat="42.6573486328125" lon="-7.981753349304199">
        <ele>598.0</ele>
        <time>2019-05-02T07:07:29.000Z</time>
      </trkpt>
      <trkpt lat="42.657371520996094" lon="-7.981740474700928">
        <ele>598.0</ele>
        <time>2019-05-02T07:07:32.000Z</time>
      </trkpt>
      <trkpt lat="42.65740966796875" lon="-7.981720447540283">
        <ele>599.0</ele>
        <time>2019-05-02T07:07:34.000Z</time>
      </trkpt>
      <trkpt lat="42.65745544433594" lon="-7.981695652008057">
        <ele>599.0</ele>
        <time>2019-05-02T07:07:36.000Z</time>
      </trkpt>
      <trkpt lat="42.657508850097656" lon="-7.981667995452881">
        <ele>599.0</ele>
        <time>2019-05-02T07:07:38.000Z</time>
      </trkpt>
      <trkpt lat="42.65753936767578" lon="-7.981649875640869">
        <ele>599.0</ele>
        <time>2019-05-02T07:07:58.000Z</time>
      </trkpt>
      <trkpt lat="42.65756607055664" lon="-7.981633186340332">
        <ele>598.0</ele>
        <time>2019-05-02T07:08:18.000Z</time>
      </trkpt>
      <trkpt lat="42.657588958740234" lon="-7.9816179275512695">
        <ele>597.0</ele>
        <time>2019-05-02T07:08:38.000Z</time>
      </trkpt>
      <trkpt lat="42.65761184692383" lon="-7.981602668762207">
        <ele>596.0</ele>
        <time>2019-05-02T07:08:57.000Z</time>
      </trkpt>
      <trkpt lat="42.65762710571289" lon="-7.981592178344727">
        <ele>596.0</ele>
        <time>2019-05-02T07:08:58.000Z</time>
      </trkpt>
      <trkpt lat="42.65764236450195" lon="-7.981584072113037">
        <ele>596.0</ele>
        <time>2019-05-02T07:08:58.000Z</time>
      </trkpt>
      <trkpt lat="42.65765380859375" lon="-7.9815778732299805">
        <ele>596.0</ele>
        <time>2019-05-02T07:08:58.000Z</time>
      </trkpt>
      <trkpt lat="42.65766143798828" lon="-7.981572151184082">
        <ele>596.0</ele>
        <time>2019-05-02T07:08:58.000Z</time>
      </trkpt>
      <trkpt lat="42.65771484375" lon="-7.98153829574585">
        <ele>596.0</ele>
        <time>2019-05-02T07:09:02.000Z</time>
      </trkpt>
      <trkpt lat="42.65778732299805" lon="-7.981493949890137">
        <ele>595.0</ele>
        <time>2019-05-02T07:09:06.000Z</time>
      </trkpt>
      <trkpt lat="42.65787124633789" lon="-7.981441974639893">
        <ele>595.0</ele>
        <time>2019-05-02T07:09:10.000Z</time>
      </trkpt>
      <trkpt lat="42.657962799072266" lon="-7.981386661529541">
        <ele>594.0</ele>
        <time>2019-05-02T07:09:13.000Z</time>
      </trkpt>
      <trkpt lat="42.65805435180664" lon="-7.98137092590332">
        <ele>594.0</ele>
        <time>2019-05-02T07:09:21.000Z</time>
      </trkpt>
      <trkpt lat="42.658119201660156" lon="-7.981391429901123">
        <ele>594.0</ele>
        <time>2019-05-02T07:09:29.000Z</time>
      </trkpt>
      <trkpt lat="42.65813446044922" lon="-7.981391906738281">
        <ele>594.0</ele>
        <time>2019-05-02T07:09:30.000Z</time>
      </trkpt>
      <trkpt lat="42.65814208984375" lon="-7.9813923835754395">
        <ele>594.0</ele>
        <time>2019-05-02T07:09:30.000Z</time>
      </trkpt>
      <trkpt lat="42.658145904541016" lon="-7.9813923835754395">
        <ele>594.0</ele>
        <time>2019-05-02T07:09:30.000Z</time>
      </trkpt>
      <trkpt lat="42.658145904541016" lon="-7.9813923835754395">
        <ele>594.0</ele>
        <time>2019-05-02T07:09:30.000Z</time>
      </trkpt>
      <trkpt lat="42.65817642211914" lon="-7.981400489807129">
        <ele>594.0</ele>
        <time>2019-05-02T07:09:33.000Z</time>
      </trkpt>
      <trkpt lat="42.65821838378906" lon="-7.981412410736084">
        <ele>594.0</ele>
        <time>2019-05-02T07:09:35.000Z</time>
      </trkpt>
      <trkpt lat="42.65827178955078" lon="-7.981426239013672">
        <ele>594.0</ele>
        <time>2019-05-02T07:09:38.000Z</time>
      </trkpt>
      <trkpt lat="42.6583251953125" lon="-7.981441497802734">
        <ele>595.0</ele>
        <time>2019-05-02T07:09:40.000Z</time>
      </trkpt>
      <trkpt lat="42.65835189819336" lon="-7.9814534187316895">
        <ele>595.0</ele>
        <time>2019-05-02T07:09:42.000Z</time>
      </trkpt>
      <trkpt lat="42.65837097167969" lon="-7.981464862823486">
        <ele>595.0</ele>
        <time>2019-05-02T07:09:44.000Z</time>
      </trkpt>
      <trkpt lat="42.658382415771484" lon="-7.981475830078125">
        <ele>595.0</ele>
        <time>2019-05-02T07:09:46.000Z</time>
      </trkpt>
      <trkpt lat="42.65839385986328" lon="-7.981487274169922">
        <ele>595.0</ele>
        <time>2019-05-02T07:09:47.000Z</time>
      </trkpt>
      <trkpt lat="42.65839385986328" lon="-7.9815263748168945">
        <ele>595.0</ele>
        <time>2019-05-02T07:09:50.000Z</time>
      </trkpt>
      <trkpt lat="42.658382415771484" lon="-7.981576919555664">
        <ele>595.0</ele>
        <time>2019-05-02T07:09:52.000Z</time>
      </trkpt>
      <trkpt lat="42.65836715698242" lon="-7.981635570526123">
        <ele>595.0</ele>
        <time>2019-05-02T07:09:54.000Z</time>
      </trkpt>
      <trkpt lat="42.658348083496094" lon="-7.9816975593566895">
        <ele>595.0</ele>
        <time>2019-05-02T07:09:56.000Z</time>
      </trkpt>
      <trkpt lat="42.6583366394043" lon="-7.981754779815674">
        <ele>595.0</ele>
        <time>2019-05-02T07:09:58.000Z</time>
      </trkpt>
      <trkpt lat="42.6583251953125" lon="-7.981813430786133">
        <ele>595.0</ele>
        <time>2019-05-02T07:10:00.000Z</time>
      </trkpt>
      <trkpt lat="42.65830993652344" lon="-7.981873512268066">
        <ele>595.0</ele>
        <time>2019-05-02T07:10:02.000Z</time>
      </trkpt>
      <trkpt lat="42.65829849243164" lon="-7.981934070587158">
        <ele>596.0</ele>
        <time>2019-05-02T07:10:04.000Z</time>
      </trkpt>
      <trkpt lat="42.65827560424805" lon="-7.981960773468018">
        <ele>596.0</ele>
        <time>2019-05-02T07:10:06.000Z</time>
      </trkpt>
      <trkpt lat="42.65825271606445" lon="-7.981974124908447">
        <ele>596.0</ele>
        <time>2019-05-02T07:10:08.000Z</time>
      </trkpt>
      <trkpt lat="42.65822982788086" lon="-7.981978416442871">
        <ele>597.0</ele>
        <time>2019-05-02T07:10:10.000Z</time>
      </trkpt>
      <trkpt lat="42.658203125" lon="-7.981978416442871">
        <ele>597.0</ele>
        <time>2019-05-02T07:10:12.000Z</time>
      </trkpt>
      <trkpt lat="42.6582145690918" lon="-7.981949329376221">
        <ele>597.0</ele>
        <time>2019-05-02T07:10:17.000Z</time>
      </trkpt>
      <trkpt lat="42.65823745727539" lon="-7.981904029846191">
        <ele>597.0</ele>
        <time>2019-05-02T07:10:21.000Z</time>
      </trkpt>
      <trkpt lat="42.65827178955078" lon="-7.981847286224365">
        <ele>597.0</ele>
        <time>2019-05-02T07:10:25.000Z</time>
      </trkpt>
      <trkpt lat="42.65830993652344" lon="-7.981785297393799">
        <ele>596.0</ele>
        <time>2019-05-02T07:10:29.000Z</time>
      </trkpt>
      <trkpt lat="42.6583251953125" lon="-7.9817914962768555">
        <ele>596.0</ele>
        <time>2019-05-02T07:10:31.000Z</time>
      </trkpt>
      <trkpt lat="42.65833282470703" lon="-7.981820106506348">
        <ele>596.0</ele>
        <time>2019-05-02T07:10:32.000Z</time>
      </trkpt>
      <trkpt lat="42.6583366394043" lon="-7.9818644523620605">
        <ele>595.0</ele>
        <time>2019-05-02T07:10:33.000Z</time>
      </trkpt>
      <trkpt lat="42.6583366394043" lon="-7.981916427612305">
        <ele>595.0</ele>
        <time>2019-05-02T07:10:34.000Z</time>
      </trkpt>
      <trkpt lat="42.65837478637695" lon="-7.981931209564209">
        <ele>595.0</ele>
        <time>2019-05-02T07:10:37.000Z</time>
      </trkpt>
      <trkpt lat="42.65842819213867" lon="-7.98193883895874">
        <ele>595.0</ele>
        <time>2019-05-02T07:10:39.000Z</time>
      </trkpt>
      <trkpt lat="42.658485412597656" lon="-7.981941223144531">
        <ele>595.0</ele>
        <time>2019-05-02T07:10:42.000Z</time>
      </trkpt>
      <trkpt lat="42.65855026245117" lon="-7.981941223144531">
        <ele>595.0</ele>
        <time>2019-05-02T07:10:44.000Z</time>
      </trkpt>
      <trkpt lat="42.65858459472656" lon="-7.981950283050537">
        <ele>595.0</ele>
        <time>2019-05-02T07:10:46.000Z</time>
      </trkpt>
      <trkpt lat="42.65861511230469" lon="-7.981959819793701">
        <ele>595.0</ele>
        <time>2019-05-02T07:10:47.000Z</time>
      </trkpt>
      <trkpt lat="42.65864181518555" lon="-7.98197078704834">
        <ele>595.0</ele>
        <time>2019-05-02T07:10:48.000Z</time>
      </trkpt>
      <trkpt lat="42.65866470336914" lon="-7.9819817543029785">
        <ele>595.0</ele>
        <time>2019-05-02T07:10:49.000Z</time>
      </trkpt>
      <trkpt lat="42.658653259277344" lon="-7.981986999511719">
        <ele>595.0</ele>
        <time>2019-05-02T07:10:51.000Z</time>
      </trkpt>
      <trkpt lat="42.65862274169922" lon="-7.98198938369751">
        <ele>595.0</ele>
        <time>2019-05-02T07:10:52.000Z</time>
      </trkpt>
      <trkpt lat="42.65858459472656" lon="-7.981990814208984">
        <ele>595.0</ele>
        <time>2019-05-02T07:10:54.000Z</time>
      </trkpt>
      <trkpt lat="42.658538818359375" lon="-7.981991291046143">
        <ele>595.0</ele>
        <time>2019-05-02T07:10:55.000Z</time>
      </trkpt>
      <trkpt lat="42.658546447753906" lon="-7.982027530670166">
        <ele>596.0</ele>
        <time>2019-05-02T07:11:02.000Z</time>
      </trkpt>
      <trkpt lat="42.658565521240234" lon="-7.982077121734619">
        <ele>596.0</ele>
        <time>2019-05-02T07:11:09.000Z</time>
      </trkpt>
      <trkpt lat="42.65859603881836" lon="-7.9821367263793945">
        <ele>597.0</ele>
        <time>2019-05-02T07:11:16.000Z</time>
      </trkpt>
      <trkpt lat="42.658634185791016" lon="-7.982200622558594">
        <ele>598.0</ele>
        <time>2019-05-02T07:11:22.000Z</time>
      </trkpt>
      <trkpt lat="42.65864181518555" lon="-7.982221603393555">
        <ele>598.0</ele>
        <time>2019-05-02T07:11:23.000Z</time>
      </trkpt>
      <trkpt lat="42.65864562988281" lon="-7.982229709625244">
        <ele>598.0</ele>
        <time>2019-05-02T07:11:23.000Z</time>
      </trkpt>
      <trkpt lat="42.65864562988281" lon="-7.982228755950928">
        <ele>598.0</ele>
        <time>2019-05-02T07:11:23.000Z</time>
      </trkpt>
      <trkpt lat="42.65864562988281" lon="-7.9822235107421875">
        <ele>598.0</ele>
        <time>2019-05-02T07:11:23.000Z</time>
      </trkpt>
      <trkpt lat="42.658668518066406" lon="-7.982245922088623">
        <ele>598.0</ele>
        <time>2019-05-02T07:11:26.000Z</time>
      </trkpt>
      <trkpt lat="42.65869903564453" lon="-7.982275009155273">
        <ele>598.0</ele>
        <time>2019-05-02T07:11:29.000Z</time>
      </trkpt>
      <trkpt lat="42.65874099731445" lon="-7.982308864593506">
        <ele>598.0</ele>
        <time>2019-05-02T07:11:32.000Z</time>
      </trkpt>
      <trkpt lat="42.658782958984375" lon="-7.982345104217529">
        <ele>598.0</ele>
        <time>2019-05-02T07:11:35.000Z</time>
      </trkpt>
      <trkpt lat="42.6588249206543" lon="-7.982336044311523">
        <ele>597.0</ele>
        <time>2019-05-02T07:11:40.000Z</time>
      </trkpt>
      <trkpt lat="42.65886688232422" lon="-7.9823102951049805">
        <ele>597.0</ele>
        <time>2019-05-02T07:11:45.000Z</time>
      </trkpt>
      <trkpt lat="42.658912658691406" lon="-7.982274055480957">
        <ele>597.0</ele>
        <time>2019-05-02T07:11:50.000Z</time>
      </trkpt>
      <trkpt lat="42.65896224975586" lon="-7.982231616973877">
        <ele>597.0</ele>
        <time>2019-05-02T07:11:54.000Z</time>
      </trkpt>
      <trkpt lat="42.65899658203125" lon="-7.982207298278809">
        <ele>597.0</ele>
        <time>2019-05-02T07:12:02.000Z</time>
      </trkpt>
      <trkpt lat="42.659027099609375" lon="-7.982184410095215">
        <ele>597.0</ele>
        <time>2019-05-02T07:12:09.000Z</time>
      </trkpt>
      <trkpt lat="42.659053802490234" lon="-7.9821624755859375">
        <ele>596.0</ele>
        <time>2019-05-02T07:12:16.000Z</time>
      </trkpt>
      <trkpt lat="42.659080505371094" lon="-7.982141017913818">
        <ele>596.0</ele>
        <time>2019-05-02T07:12:24.000Z</time>
      </trkpt>
      <trkpt lat="42.659095764160156" lon="-7.982128620147705">
        <ele>596.0</ele>
        <time>2019-05-02T07:12:24.000Z</time>
      </trkpt>
      <trkpt lat="42.65910720825195" lon="-7.982120513916016">
        <ele>596.0</ele>
        <time>2019-05-02T07:12:24.000Z</time>
      </trkpt>
      <trkpt lat="42.659114837646484" lon="-7.982115268707275">
        <ele>596.0</ele>
        <time>2019-05-02T07:12:24.000Z</time>
      </trkpt>
      <trkpt lat="42.65911865234375" lon="-7.98211145401001">
        <ele>596.0</ele>
        <time>2019-05-02T07:12:25.000Z</time>
      </trkpt>
      <trkpt lat="42.65913009643555" lon="-7.982105255126953">
        <ele>596.0</ele>
        <time>2019-05-02T07:12:27.000Z</time>
      </trkpt>
      <trkpt lat="42.65913772583008" lon="-7.982099533081055">
        <ele>596.0</ele>
        <time>2019-05-02T07:12:30.000Z</time>
      </trkpt>
      <trkpt lat="42.659149169921875" lon="-7.982093811035156">
        <ele>596.0</ele>
        <time>2019-05-02T07:12:33.000Z</time>
      </trkpt>
      <trkpt lat="42.65916061401367" lon="-7.982088565826416">
        <ele>596.0</ele>
        <time>2019-05-02T07:12:36.000Z</time>
      </trkpt>
      <trkpt lat="42.659175872802734" lon="-7.982080936431885">
        <ele>596.0</ele>
        <time>2019-05-02T07:12:46.000Z</time>
      </trkpt>
      <trkpt lat="42.65919494628906" lon="-7.982072353363037">
        <ele>597.0</ele>
        <time>2019-05-02T07:12:56.000Z</time>
      </trkpt>
      <trkpt lat="42.659217834472656" lon="-7.982063293457031">
        <ele>598.0</ele>
        <time>2019-05-02T07:13:06.000Z</time>
      </trkpt>
      <trkpt lat="42.65924072265625" lon="-7.982054233551025">
        <ele>599.0</ele>
        <time>2019-05-02T07:13:16.000Z</time>
      </trkpt>
      <trkpt lat="42.65925598144531" lon="-7.982047080993652">
        <ele>599.0</ele>
        <time>2019-05-02T07:13:16.000Z</time>
      </trkpt>
      <trkpt lat="42.659271240234375" lon="-7.982040882110596">
        <ele>599.0</ele>
        <time>2019-05-02T07:13:16.000Z</time>
      </trkpt>
      <trkpt lat="42.65928268432617" lon="-7.982035160064697">
        <ele>599.0</ele>
        <time>2019-05-02T07:13:16.000Z</time>
      </trkpt>
      <trkpt lat="42.65929412841797" lon="-7.982029914855957">
        <ele>599.0</ele>
        <time>2019-05-02T07:13:17.000Z</time>
      </trkpt>
      <trkpt lat="42.65960693359375" lon="-7.981872081756592">
        <ele>599.0</ele>
        <time>2019-05-02T07:13:20.000Z</time>
      </trkpt>
      <trkpt lat="42.659793853759766" lon="-7.981800079345703">
        <ele>600.0</ele>
        <time>2019-05-02T07:13:33.000Z</time>
      </trkpt>
      <trkpt lat="42.65983963012695" lon="-7.981785297393799">
        <ele>604.0</ele>
        <time>2019-05-02T07:13:59.000Z</time>
      </trkpt>
      <trkpt lat="42.65987014770508" lon="-7.981774806976318">
        <ele>604.0</ele>
        <time>2019-05-02T07:14:00.000Z</time>
      </trkpt>
      <trkpt lat="42.66019821166992" lon="-7.98167610168457">
        <ele>606.0</ele>
        <time>2019-05-02T07:14:24.000Z</time>
      </trkpt>
      <trkpt lat="42.66023254394531" lon="-7.9816575050354">
        <ele>606.0</ele>
        <time>2019-05-02T07:14:25.000Z</time>
      </trkpt>
      <trkpt lat="42.6603889465332" lon="-7.981457710266113">
        <ele>608.0</ele>
        <time>2019-05-02T07:14:55.000Z</time>
      </trkpt>
      <trkpt lat="42.66040802001953" lon="-7.98143196105957">
        <ele>608.0</ele>
        <time>2019-05-02T07:14:56.000Z</time>
      </trkpt>
      <trkpt lat="42.66044235229492" lon="-7.981371879577637">
        <ele>607.0</ele>
        <time>2019-05-02T07:14:58.000Z</time>
      </trkpt>
      <trkpt lat="42.66057586669922" lon="-7.981338024139404">
        <ele>607.0</ele>
        <time>2019-05-02T07:15:07.000Z</time>
      </trkpt>
      <trkpt lat="42.66075897216797" lon="-7.981302738189697">
        <ele>606.0</ele>
        <time>2019-05-02T07:15:17.000Z</time>
      </trkpt>
      <trkpt lat="42.66084671020508" lon="-7.981292724609375">
        <ele>606.0</ele>
        <time>2019-05-02T07:15:22.000Z</time>
      </trkpt>
      <trkpt lat="42.66093444824219" lon="-7.981285572052002">
        <ele>607.0</ele>
        <time>2019-05-02T07:15:28.000Z</time>
      </trkpt>
      <trkpt lat="42.66102600097656" lon="-7.98128080368042">
        <ele>608.0</ele>
        <time>2019-05-02T07:15:33.000Z</time>
      </trkpt>
      <trkpt lat="42.66111373901367" lon="-7.981276512145996">
        <ele>609.0</ele>
        <time>2019-05-02T07:15:39.000Z</time>
      </trkpt>
      <trkpt lat="42.66115188598633" lon="-7.981271743774414">
        <ele>609.0</ele>
        <time>2019-05-02T07:15:40.000Z</time>
      </trkpt>
      <trkpt lat="42.661163330078125" lon="-7.98126745223999">
        <ele>609.0</ele>
        <time>2019-05-02T07:15:42.000Z</time>
      </trkpt>
      <trkpt lat="42.661163330078125" lon="-7.981264114379883">
        <ele>608.0</ele>
        <time>2019-05-02T07:15:43.000Z</time>
      </trkpt>
      <trkpt lat="42.661155700683594" lon="-7.981260299682617">
        <ele>608.0</ele>
        <time>2019-05-02T07:15:45.000Z</time>
      </trkpt>
      <trkpt lat="42.66116714477539" lon="-7.981258869171143">
        <ele>608.0</ele>
        <time>2019-05-02T07:15:49.000Z</time>
      </trkpt>
      <trkpt lat="42.66118621826172" lon="-7.981258392333984">
        <ele>607.0</ele>
        <time>2019-05-02T07:15:53.000Z</time>
      </trkpt>
      <trkpt lat="42.66120147705078" lon="-7.981258869171143">
        <ele>607.0</ele>
        <time>2019-05-02T07:15:57.000Z</time>
      </trkpt>
      <trkpt lat="42.66122055053711" lon="-7.981259822845459">
        <ele>607.0</ele>
        <time>2019-05-02T07:16:01.000Z</time>
      </trkpt>
      <trkpt lat="42.661231994628906" lon="-7.981259822845459">
        <ele>607.0</ele>
        <time>2019-05-02T07:16:01.000Z</time>
      </trkpt>
      <trkpt lat="42.66123962402344" lon="-7.981259346008301">
        <ele>607.0</ele>
        <time>2019-05-02T07:16:01.000Z</time>
      </trkpt>
      <trkpt lat="42.66124725341797" lon="-7.981259346008301">
        <ele>607.0</ele>
        <time>2019-05-02T07:16:01.000Z</time>
      </trkpt>
      <trkpt lat="42.6612548828125" lon="-7.981259346008301">
        <ele>607.0</ele>
        <time>2019-05-02T07:16:02.000Z</time>
      </trkpt>
      <trkpt lat="42.661258697509766" lon="-7.981259346008301">
        <ele>607.0</ele>
        <time>2019-05-02T07:16:02.000Z</time>
      </trkpt>
      <trkpt lat="42.6612663269043" lon="-7.981259346008301">
        <ele>607.0</ele>
        <time>2019-05-02T07:16:02.000Z</time>
      </trkpt>
      <trkpt lat="42.6612663269043" lon="-7.981258869171143">
        <ele>607.0</ele>
        <time>2019-05-02T07:16:02.000Z</time>
      </trkpt>
      <trkpt lat="42.66127014160156" lon="-7.981258869171143">
        <ele>607.0</ele>
        <time>2019-05-02T07:16:03.000Z</time>
      </trkpt>
      <trkpt lat="42.661319732666016" lon="-7.981261253356934">
        <ele>607.0</ele>
        <time>2019-05-02T07:16:11.000Z</time>
      </trkpt>
      <trkpt lat="42.661346435546875" lon="-7.981263160705566">
        <ele>607.0</ele>
        <time>2019-05-02T07:16:12.000Z</time>
      </trkpt>
      <trkpt lat="42.661521911621094" lon="-7.981290340423584">
        <ele>606.0</ele>
        <time>2019-05-02T07:16:18.000Z</time>
      </trkpt>
      <trkpt lat="42.66154098510742" lon="-7.981298923492432">
        <ele>609.0</ele>
        <time>2019-05-02T07:16:42.000Z</time>
      </trkpt>
      <trkpt lat="42.661556243896484" lon="-7.981306552886963">
        <ele>609.0</ele>
        <time>2019-05-02T07:16:43.000Z</time>
      </trkpt>
      <trkpt lat="42.66192626953125" lon="-7.981412887573242">
        <ele>607.0</ele>
        <time>2019-05-02T07:16:53.000Z</time>
      </trkpt>
      <trkpt lat="42.66202163696289" lon="-7.981433868408203">
        <ele>606.0</ele>
        <time>2019-05-02T07:17:00.000Z</time>
      </trkpt>
      <trkpt lat="42.66205596923828" lon="-7.981386661529541">
        <ele>606.0</ele>
        <time>2019-05-02T07:17:08.000Z</time>
      </trkpt>
      <trkpt lat="42.66209411621094" lon="-7.98131799697876">
        <ele>607.0</ele>
        <time>2019-05-02T07:17:15.000Z</time>
      </trkpt>
      <trkpt lat="42.66213607788086" lon="-7.981234073638916">
        <ele>607.0</ele>
        <time>2019-05-02T07:17:23.000Z</time>
      </trkpt>
      <trkpt lat="42.66217803955078" lon="-7.981143474578857">
        <ele>608.0</ele>
        <time>2019-05-02T07:17:30.000Z</time>
      </trkpt>
      <trkpt lat="42.662208557128906" lon="-7.981114387512207">
        <ele>609.0</ele>
        <time>2019-05-02T07:17:33.000Z</time>
      </trkpt>
      <trkpt lat="42.66223907470703" lon="-7.981103420257568">
        <ele>609.0</ele>
        <time>2019-05-02T07:17:35.000Z</time>
      </trkpt>
      <trkpt lat="42.662261962890625" lon="-7.981104373931885">
        <ele>609.0</ele>
        <time>2019-05-02T07:17:37.000Z</time>
      </trkpt>
      <trkpt lat="42.662288665771484" lon="-7.981111526489258">
        <ele>609.0</ele>
        <time>2019-05-02T07:17:39.000Z</time>
      </trkpt>
      <trkpt lat="42.662353515625" lon="-7.981078624725342">
        <ele>609.0</ele>
        <time>2019-05-02T07:17:45.000Z</time>
      </trkpt>
      <trkpt lat="42.66243362426758" lon="-7.981034278869629">
        <ele>609.0</ele>
        <time>2019-05-02T07:17:51.000Z</time>
      </trkpt>
      <trkpt lat="42.66252517700195" lon="-7.980983257293701">
        <ele>609.0</ele>
        <time>2019-05-02T07:17:57.000Z</time>
      </trkpt>
      <trkpt lat="42.662620544433594" lon="-7.980928897857666">
        <ele>609.0</ele>
        <time>2019-05-02T07:18:03.000Z</time>
      </trkpt>
      <trkpt lat="42.66271209716797" lon="-7.980902194976807">
        <ele>609.0</ele>
        <time>2019-05-02T07:18:10.000Z</time>
      </trkpt>
      <trkpt lat="42.66279983520508" lon="-7.9808831214904785">
        <ele>610.0</ele>
        <time>2019-05-02T07:18:18.000Z</time>
      </trkpt>
      <trkpt lat="42.66289138793945" lon="-7.980869770050049">
        <ele>611.0</ele>
        <time>2019-05-02T07:18:25.000Z</time>
      </trkpt>
      <trkpt lat="42.66298294067383" lon="-7.980859279632568">
        <ele>612.0</ele>
        <time>2019-05-02T07:18:33.000Z</time>
      </trkpt>
      <trkpt lat="42.66305923461914" lon="-7.980844497680664">
        <ele>612.0</ele>
        <time>2019-05-02T07:18:39.000Z</time>
      </trkpt>
      <trkpt lat="42.663124084472656" lon="-7.980831146240234">
        <ele>612.0</ele>
        <time>2019-05-02T07:18:45.000Z</time>
      </trkpt>
      <trkpt lat="42.663185119628906" lon="-7.980818748474121">
        <ele>613.0</ele>
        <time>2019-05-02T07:18:51.000Z</time>
      </trkpt>
      <trkpt lat="42.663246154785156" lon="-7.980806350708008">
        <ele>613.0</ele>
        <time>2019-05-02T07:18:57.000Z</time>
      </trkpt>
      <trkpt lat="42.66327667236328" lon="-7.980781078338623">
        <ele>613.0</ele>
        <time>2019-05-02T07:19:01.000Z</time>
      </trkpt>
      <trkpt lat="42.66329574584961" lon="-7.980751037597656">
        <ele>613.0</ele>
        <time>2019-05-02T07:19:05.000Z</time>
      </trkpt>
      <trkpt lat="42.66330337524414" lon="-7.980717182159424">
        <ele>614.0</ele>
        <time>2019-05-02T07:19:10.000Z</time>
      </trkpt>
      <trkpt lat="42.663307189941406" lon="-7.980681896209717">
        <ele>614.0</ele>
        <time>2019-05-02T07:19:14.000Z</time>
      </trkpt>
      <trkpt lat="42.66337585449219" lon="-7.9806318283081055">
        <ele>614.0</ele>
        <time>2019-05-02T07:19:18.000Z</time>
      </trkpt>
      <trkpt lat="42.66346740722656" lon="-7.980587482452393">
        <ele>615.0</ele>
        <time>2019-05-02T07:19:22.000Z</time>
      </trkpt>
      <trkpt lat="42.66346740722656" lon="-7.980612277984619">
        <ele>615.0</ele>
        <time>2019-05-02T07:19:26.000Z</time>
      </trkpt>
      <trkpt lat="42.6634521484375" lon="-7.98065710067749">
        <ele>615.0</ele>
        <time>2019-05-02T07:19:31.000Z</time>
      </trkpt>
      <trkpt lat="42.663429260253906" lon="-7.980715274810791">
        <ele>616.0</ele>
        <time>2019-05-02T07:19:35.000Z</time>
      </trkpt>
      <trkpt lat="42.66339874267578" lon="-7.980780601501465">
        <ele>616.0</ele>
        <time>2019-05-02T07:19:40.000Z</time>
      </trkpt>
      <trkpt lat="42.663368225097656" lon="-7.980802059173584">
        <ele>616.0</ele>
        <time>2019-05-02T07:19:42.000Z</time>
      </trkpt>
      <trkpt lat="42.663326263427734" lon="-7.9808125495910645">
        <ele>616.0</ele>
        <time>2019-05-02T07:19:44.000Z</time>
      </trkpt>
      <trkpt lat="42.66328430175781" lon="-7.980815410614014">
        <ele>616.0</ele>
        <time>2019-05-02T07:19:46.000Z</time>
      </trkpt>
      <trkpt lat="42.663238525390625" lon="-7.9808149337768555">
        <ele>616.0</ele>
        <time>2019-05-02T07:19:48.000Z</time>
      </trkpt>
      <trkpt lat="42.663291931152344" lon="-7.9807658195495605">
        <ele>616.0</ele>
        <time>2019-05-02T07:19:58.000Z</time>
      </trkpt>
      <trkpt lat="42.66338348388672" lon="-7.9806928634643555">
        <ele>615.0</ele>
        <time>2019-05-02T07:20:07.000Z</time>
      </trkpt>
      <trkpt lat="42.66350555419922" lon="-7.9806036949157715">
        <ele>615.0</ele>
        <time>2019-05-02T07:20:17.000Z</time>
      </trkpt>
      <trkpt lat="42.66363525390625" lon="-7.980506420135498">
        <ele>614.0</ele>
        <time>2019-05-02T07:20:27.000Z</time>
      </trkpt>
      <trkpt lat="42.6636848449707" lon="-7.980472087860107">
        <ele>614.0</ele>
        <time>2019-05-02T07:20:29.000Z</time>
      </trkpt>
      <trkpt lat="42.6637077331543" lon="-7.98045539855957">
        <ele>614.0</ele>
        <time>2019-05-02T07:20:31.000Z</time>
      </trkpt>
      <trkpt lat="42.663719177246094" lon="-7.9804511070251465">
        <ele>614.0</ele>
        <time>2019-05-02T07:20:33.000Z</time>
      </trkpt>
      <trkpt lat="42.663719177246094" lon="-7.980452537536621">
        <ele>613.0</ele>
        <time>2019-05-02T07:20:35.000Z</time>
      </trkpt>
      <trkpt lat="42.66373825073242" lon="-7.980438709259033">
        <ele>613.0</ele>
        <time>2019-05-02T07:20:38.000Z</time>
      </trkpt>
      <trkpt lat="42.66375732421875" lon="-7.9804253578186035">
        <ele>613.0</ele>
        <time>2019-05-02T07:20:40.000Z</time>
      </trkpt>
      <trkpt lat="42.66377639770508" lon="-7.980411529541016">
        <ele>613.0</ele>
        <time>2019-05-02T07:20:43.000Z</time>
      </trkpt>
      <trkpt lat="42.663795471191406" lon="-7.980398178100586">
        <ele>613.0</ele>
        <time>2019-05-02T07:20:46.000Z</time>
      </trkpt>
      <trkpt lat="42.6638069152832" lon="-7.980389595031738">
        <ele>613.0</ele>
        <time>2019-05-02T07:20:46.000Z</time>
      </trkpt>
      <trkpt lat="42.663818359375" lon="-7.98038387298584">
        <ele>613.0</ele>
        <time>2019-05-02T07:20:46.000Z</time>
      </trkpt>
      <trkpt lat="42.663822174072266" lon="-7.980379104614258">
        <ele>613.0</ele>
        <time>2019-05-02T07:20:47.000Z</time>
      </trkpt>
      <trkpt lat="42.6638298034668" lon="-7.980375289916992">
        <ele>613.0</ele>
        <time>2019-05-02T07:20:47.000Z</time>
      </trkpt>
      <trkpt lat="42.663856506347656" lon="-7.980352878570557">
        <ele>613.0</ele>
        <time>2019-05-02T07:20:49.000Z</time>
      </trkpt>
      <trkpt lat="42.66388702392578" lon="-7.980323314666748">
        <ele>614.0</ele>
        <time>2019-05-02T07:20:50.000Z</time>
      </trkpt>
      <trkpt lat="42.66392517089844" lon="-7.980288982391357">
        <ele>614.0</ele>
        <time>2019-05-02T07:20:52.000Z</time>
      </trkpt>
      <trkpt lat="42.66396713256836" lon="-7.980252265930176">
        <ele>615.0</ele>
        <time>2019-05-02T07:20:54.000Z</time>
      </trkpt>
      <trkpt lat="42.66398239135742" lon="-7.980238437652588">
        <ele>615.0</ele>
        <time>2019-05-02T07:20:58.000Z</time>
      </trkpt>
      <trkpt lat="42.66399002075195" lon="-7.980231761932373">
        <ele>615.0</ele>
        <time>2019-05-02T07:21:02.000Z</time>
      </trkpt>
      <trkpt lat="42.66399383544922" lon="-7.98022985458374">
        <ele>615.0</ele>
        <time>2019-05-02T07:21:07.000Z</time>
      </trkpt>
      <trkpt lat="42.66399383544922" lon="-7.980230331420898">
        <ele>615.0</ele>
        <time>2019-05-02T07:21:11.000Z</time>
      </trkpt>
      <trkpt lat="42.66400909423828" lon="-7.980213642120361">
        <ele>615.0</ele>
        <time>2019-05-02T07:21:12.000Z</time>
      </trkpt>
      <trkpt lat="42.66432189941406" lon="-7.979991912841797">
        <ele>617.0</ele>
        <time>2019-05-02T07:21:28.000Z</time>
      </trkpt>
      <trkpt lat="42.66448211669922" lon="-7.979811191558838">
        <ele>617.0</ele>
        <time>2019-05-02T07:21:48.000Z</time>
      </trkpt>
      <trkpt lat="42.6645393371582" lon="-7.979750156402588">
        <ele>615.0</ele>
        <time>2019-05-02T07:22:06.000Z</time>
      </trkpt>
      <trkpt lat="42.66456604003906" lon="-7.9797186851501465">
        <ele>615.0</ele>
        <time>2019-05-02T07:22:07.000Z</time>
      </trkpt>
      <trkpt lat="42.66485595703125" lon="-7.9794087409973145">
        <ele>616.0</ele>
        <time>2019-05-02T07:22:26.000Z</time>
      </trkpt>
      <trkpt lat="42.66516876220703" lon="-7.979192733764648">
        <ele>616.0</ele>
        <time>2019-05-02T07:22:58.000Z</time>
      </trkpt>
      <trkpt lat="42.66531753540039" lon="-7.979061603546143">
        <ele>613.0</ele>
        <time>2019-05-02T07:23:15.000Z</time>
      </trkpt>
      <trkpt lat="42.665367126464844" lon="-7.979036808013916">
        <ele>610.0</ele>
        <time>2019-05-02T07:23:32.000Z</time>
      </trkpt>
      <trkpt lat="42.66539764404297" lon="-7.979022026062012">
        <ele>610.0</ele>
        <time>2019-05-02T07:23:33.000Z</time>
      </trkpt>
      <trkpt lat="42.665748596191406" lon="-7.978919506072998">
        <ele>605.0</ele>
        <time>2019-05-02T07:23:56.000Z</time>
      </trkpt>
      <trkpt lat="42.665863037109375" lon="-7.97890043258667">
        <ele>599.0</ele>
        <time>2019-05-02T07:24:18.000Z</time>
      </trkpt>
      <trkpt lat="42.66592025756836" lon="-7.978917121887207">
        <ele>597.0</ele>
        <time>2019-05-02T07:24:45.000Z</time>
      </trkpt>
      <trkpt lat="42.66597366333008" lon="-7.978946208953857">
        <ele>596.0</ele>
        <time>2019-05-02T07:25:12.000Z</time>
      </trkpt>
      <trkpt lat="42.66599655151367" lon="-7.978954315185547">
        <ele>595.0</ele>
        <time>2019-05-02T07:25:12.000Z</time>
      </trkpt>
      <trkpt lat="42.666011810302734" lon="-7.97896146774292">
        <ele>595.0</ele>
        <time>2019-05-02T07:25:12.000Z</time>
      </trkpt>
      <trkpt lat="42.6660270690918" lon="-7.978967666625977">
        <ele>595.0</ele>
        <time>2019-05-02T07:25:13.000Z</time>
      </trkpt>
      <trkpt lat="42.66604232788086" lon="-7.978973865509033">
        <ele>596.0</ele>
        <time>2019-05-02T07:25:13.000Z</time>
      </trkpt>
      <trkpt lat="42.666107177734375" lon="-7.979002475738525">
        <ele>596.0</ele>
        <time>2019-05-02T07:25:14.000Z</time>
      </trkpt>
      <trkpt lat="42.66619110107422" lon="-7.97904109954834">
        <ele>595.0</ele>
        <time>2019-05-02T07:25:15.000Z</time>
      </trkpt>
      <trkpt lat="42.666290283203125" lon="-7.979085445404053">
        <ele>595.0</ele>
        <time>2019-05-02T07:25:16.000Z</time>
      </trkpt>
      <trkpt lat="42.66639709472656" lon="-7.979133129119873">
        <ele>595.0</ele>
        <time>2019-05-02T07:25:17.000Z</time>
      </trkpt>
      <trkpt lat="42.66647720336914" lon="-7.979189395904541">
        <ele>595.0</ele>
        <time>2019-05-02T07:25:25.000Z</time>
      </trkpt>
      <trkpt lat="42.66655349731445" lon="-7.979252815246582">
        <ele>594.0</ele>
        <time>2019-05-02T07:25:32.000Z</time>
      </trkpt>
      <trkpt lat="42.666629791259766" lon="-7.979321002960205">
        <ele>593.0</ele>
        <time>2019-05-02T07:25:40.000Z</time>
      </trkpt>
      <trkpt lat="42.66670227050781" lon="-7.979391098022461">
        <ele>593.0</ele>
        <time>2019-05-02T07:25:48.000Z</time>
      </trkpt>
      <trkpt lat="42.66688919067383" lon="-7.979445457458496">
        <ele>591.0</ele>
        <time>2019-05-02T07:26:04.000Z</time>
      </trkpt>
      <trkpt lat="42.66708755493164" lon="-7.979465007781982">
        <ele>588.0</ele>
        <time>2019-05-02T07:26:20.000Z</time>
      </trkpt>
      <trkpt lat="42.667152404785156" lon="-7.979482173919678">
        <ele>588.0</ele>
        <time>2019-05-02T07:26:24.000Z</time>
      </trkpt>
      <trkpt lat="42.66720199584961" lon="-7.979498863220215">
        <ele>587.0</ele>
        <time>2019-05-02T07:26:28.000Z</time>
      </trkpt>
      <trkpt lat="42.667240142822266" lon="-7.979515075683594">
        <ele>587.0</ele>
        <time>2019-05-02T07:26:33.000Z</time>
      </trkpt>
      <trkpt lat="42.66727828979492" lon="-7.9795308113098145">
        <ele>586.0</ele>
        <time>2019-05-02T07:26:37.000Z</time>
      </trkpt>
      <trkpt lat="42.66729736328125" lon="-7.979538440704346">
        <ele>585.0</ele>
        <time>2019-05-02T07:26:44.000Z</time>
      </trkpt>
      <trkpt lat="42.66730880737305" lon="-7.979542255401611">
        <ele>584.0</ele>
        <time>2019-05-02T07:26:50.000Z</time>
      </trkpt>
      <trkpt lat="42.66731262207031" lon="-7.979543209075928">
        <ele>582.0</ele>
        <time>2019-05-02T07:26:57.000Z</time>
      </trkpt>
      <trkpt lat="42.66731262207031" lon="-7.979543209075928">
        <ele>580.0</ele>
        <time>2019-05-02T07:27:04.000Z</time>
      </trkpt>
      <trkpt lat="42.667320251464844" lon="-7.979546070098877">
        <ele>580.0</ele>
        <time>2019-05-02T07:27:04.000Z</time>
      </trkpt>
      <trkpt lat="42.667327880859375" lon="-7.979548454284668">
        <ele>580.0</ele>
        <time>2019-05-02T07:27:04.000Z</time>
      </trkpt>
      <trkpt lat="42.667335510253906" lon="-7.979550838470459">
        <ele>580.0</ele>
        <time>2019-05-02T07:27:05.000Z</time>
      </trkpt>
      <trkpt lat="42.66733932495117" lon="-7.979552745819092">
        <ele>580.0</ele>
        <time>2019-05-02T07:27:05.000Z</time>
      </trkpt>
      <trkpt lat="42.66740036010742" lon="-7.979565143585205">
        <ele>580.0</ele>
        <time>2019-05-02T07:27:07.000Z</time>
      </trkpt>
      <trkpt lat="42.667484283447266" lon="-7.979581832885742">
        <ele>580.0</ele>
        <time>2019-05-02T07:27:09.000Z</time>
      </trkpt>
      <trkpt lat="42.66758346557617" lon="-7.9796013832092285">
        <ele>580.0</ele>
        <time>2019-05-02T07:27:11.000Z</time>
      </trkpt>
      <trkpt lat="42.667686462402344" lon="-7.9796223640441895">
        <ele>580.0</ele>
        <time>2019-05-02T07:27:13.000Z</time>
      </trkpt>
      <trkpt lat="42.66777420043945" lon="-7.979619979858398">
        <ele>581.0</ele>
        <time>2019-05-02T07:27:19.000Z</time>
      </trkpt>
      <trkpt lat="42.66786193847656" lon="-7.979609489440918">
        <ele>581.0</ele>
        <time>2019-05-02T07:27:26.000Z</time>
      </trkpt>
      <trkpt lat="42.66795349121094" lon="-7.979593753814697">
        <ele>582.0</ele>
        <time>2019-05-02T07:27:32.000Z</time>
      </trkpt>
      <trkpt lat="42.66804122924805" lon="-7.979575157165527">
        <ele>582.0</ele>
        <time>2019-05-02T07:27:39.000Z</time>
      </trkpt>
      <trkpt lat="42.66839599609375" lon="-7.979447364807129">
        <ele>579.0</ele>
        <time>2019-05-02T07:28:13.000Z</time>
      </trkpt>
      <trkpt lat="42.668785095214844" lon="-7.979315280914307">
        <ele>579.0</ele>
        <time>2019-05-02T07:28:41.000Z</time>
      </trkpt>
      <trkpt lat="42.66913604736328" lon="-7.979275226593018">
        <ele>581.0</ele>
        <time>2019-05-02T07:29:12.000Z</time>
      </trkpt>
      <trkpt lat="42.66921615600586" lon="-7.979277610778809">
        <ele>580.0</ele>
        <time>2019-05-02T07:29:19.000Z</time>
      </trkpt>
      <trkpt lat="42.669219970703125" lon="-7.979291915893555">
        <ele>580.0</ele>
        <time>2019-05-02T07:29:21.000Z</time>
      </trkpt>
      <trkpt lat="42.669219970703125" lon="-7.979311943054199">
        <ele>580.0</ele>
        <time>2019-05-02T07:29:23.000Z</time>
      </trkpt>
      <trkpt lat="42.669212341308594" lon="-7.979335784912109">
        <ele>580.0</ele>
        <time>2019-05-02T07:29:25.000Z</time>
      </trkpt>
      <trkpt lat="42.66920852661133" lon="-7.979361534118652">
        <ele>579.0</ele>
        <time>2019-05-02T07:29:27.000Z</time>
      </trkpt>
      <trkpt lat="42.66920471191406" lon="-7.979379177093506">
        <ele>579.0</ele>
        <time>2019-05-02T07:29:38.000Z</time>
      </trkpt>
      <trkpt lat="42.66919708251953" lon="-7.979395389556885">
        <ele>578.0</ele>
        <time>2019-05-02T07:29:48.000Z</time>
      </trkpt>
      <trkpt lat="42.669193267822266" lon="-7.979410648345947">
        <ele>578.0</ele>
        <time>2019-05-02T07:29:59.000Z</time>
      </trkpt>
      <trkpt lat="42.669185638427734" lon="-7.979424953460693">
        <ele>577.0</ele>
        <time>2019-05-02T07:30:10.000Z</time>
      </trkpt>
      <trkpt lat="42.66918182373047" lon="-7.979438304901123">
        <ele>577.0</ele>
        <time>2019-05-02T07:30:10.000Z</time>
      </trkpt>
      <trkpt lat="42.6691780090332" lon="-7.979450225830078">
        <ele>577.0</ele>
        <time>2019-05-02T07:30:10.000Z</time>
      </trkpt>
      <trkpt lat="42.66917419433594" lon="-7.979461669921875">
        <ele>577.0</ele>
        <time>2019-05-02T07:30:11.000Z</time>
      </trkpt>
      <trkpt lat="42.66917419433594" lon="-7.9794721603393555">
        <ele>577.0</ele>
        <time>2019-05-02T07:30:11.000Z</time>
      </trkpt>
      <trkpt lat="42.66915512084961" lon="-7.979553699493408">
        <ele>577.0</ele>
        <time>2019-05-02T07:30:14.000Z</time>
      </trkpt>
      <trkpt lat="42.669132232666016" lon="-7.979664325714111">
        <ele>577.0</ele>
        <time>2019-05-02T07:30:17.000Z</time>
      </trkpt>
      <trkpt lat="42.669105529785156" lon="-7.979794502258301">
        <ele>578.0</ele>
        <time>2019-05-02T07:30:20.000Z</time>
      </trkpt>
      <trkpt lat="42.6690788269043" lon="-7.9799346923828125">
        <ele>578.0</ele>
        <time>2019-05-02T07:30:23.000Z</time>
      </trkpt>
      <trkpt lat="42.669071197509766" lon="-7.980001449584961">
        <ele>579.0</ele>
        <time>2019-05-02T07:30:26.000Z</time>
      </trkpt>
      <trkpt lat="42.6690673828125" lon="-7.980047702789307">
        <ele>579.0</ele>
        <time>2019-05-02T07:30:29.000Z</time>
      </trkpt>
      <trkpt lat="42.669063568115234" lon="-7.980080604553223">
        <ele>580.0</ele>
        <time>2019-05-02T07:30:32.000Z</time>
      </trkpt>
      <trkpt lat="42.6690673828125" lon="-7.980106353759766">
        <ele>580.0</ele>
        <time>2019-05-02T07:30:35.000Z</time>
      </trkpt>
      <trkpt lat="42.66905975341797" lon="-7.98014497756958">
        <ele>581.0</ele>
        <time>2019-05-02T07:30:42.000Z</time>
      </trkpt>
      <trkpt lat="42.66905212402344" lon="-7.98018217086792">
        <ele>581.0</ele>
        <time>2019-05-02T07:30:48.000Z</time>
      </trkpt>
      <trkpt lat="42.66904067993164" lon="-7.980217456817627">
        <ele>581.0</ele>
        <time>2019-05-02T07:30:55.000Z</time>
      </trkpt>
      <trkpt lat="42.669029235839844" lon="-7.980252742767334">
        <ele>581.0</ele>
        <time>2019-05-02T07:31:02.000Z</time>
      </trkpt>
      <trkpt lat="42.66901397705078" lon="-7.980313301086426">
        <ele>581.0</ele>
        <time>2019-05-02T07:31:03.000Z</time>
      </trkpt>
      <trkpt lat="42.66889953613281" lon="-7.980778694152832">
        <ele>588.0</ele>
        <time>2019-05-02T07:31:23.000Z</time>
      </trkpt>
      <trkpt lat="42.668888092041016" lon="-7.980807304382324">
        <ele>589.0</ele>
        <time>2019-05-02T07:31:27.000Z</time>
      </trkpt>
      <trkpt lat="42.66887283325195" lon="-7.980851173400879">
        <ele>593.0</ele>
        <time>2019-05-02T07:31:46.000Z</time>
      </trkpt>
      <trkpt lat="42.66886520385742" lon="-7.980882167816162">
        <ele>593.0</ele>
        <time>2019-05-02T07:31:47.000Z</time>
      </trkpt>
      <trkpt lat="42.66881561279297" lon="-7.98104190826416">
        <ele>594.0</ele>
        <time>2019-05-02T07:31:51.000Z</time>
      </trkpt>
      <trkpt lat="42.668785095214844" lon="-7.981151103973389">
        <ele>599.0</ele>
        <time>2019-05-02T07:32:16.000Z</time>
      </trkpt>
      <trkpt lat="42.66876983642578" lon="-7.981203556060791">
        <ele>599.0</ele>
        <time>2019-05-02T07:32:17.000Z</time>
      </trkpt>
      <trkpt lat="42.6687126159668" lon="-7.981428623199463">
        <ele>601.0</ele>
        <time>2019-05-02T07:32:34.000Z</time>
      </trkpt>
      <trkpt lat="42.668704986572266" lon="-7.981450080871582">
        <ele>603.0</ele>
        <time>2019-05-02T07:32:46.000Z</time>
      </trkpt>
      <trkpt lat="42.668701171875" lon="-7.981468200683594">
        <ele>603.0</ele>
        <time>2019-05-02T07:32:47.000Z</time>
      </trkpt>
      <trkpt lat="42.66863250732422" lon="-7.981828689575195">
        <ele>605.0</ele>
        <time>2019-05-02T07:33:01.000Z</time>
      </trkpt>
      <trkpt lat="42.66862869262695" lon="-7.981863975524902">
        <ele>609.0</ele>
        <time>2019-05-02T07:33:29.000Z</time>
      </trkpt>
      <trkpt lat="42.66862106323242" lon="-7.9818925857543945">
        <ele>609.0</ele>
        <time>2019-05-02T07:33:30.000Z</time>
      </trkpt>
      <trkpt lat="42.668514251708984" lon="-7.982338905334473">
        <ele>610.0</ele>
        <time>2019-05-02T07:33:43.000Z</time>
      </trkpt>
      <trkpt lat="42.668453216552734" lon="-7.982537269592285">
        <ele>611.0</ele>
        <time>2019-05-02T07:33:58.000Z</time>
      </trkpt>
      <trkpt lat="42.66841506958008" lon="-7.982667922973633">
        <ele>613.0</ele>
        <time>2019-05-02T07:34:16.000Z</time>
      </trkpt>
      <trkpt lat="42.66840362548828" lon="-7.982711315155029">
        <ele>613.0</ele>
        <time>2019-05-02T07:34:17.000Z</time>
      </trkpt>
      <trkpt lat="42.668357849121094" lon="-7.9828972816467285">
        <ele>614.0</ele>
        <time>2019-05-02T07:34:28.000Z</time>
      </trkpt>
      <trkpt lat="42.668357849121094" lon="-7.98291540145874">
        <ele>615.0</ele>
        <time>2019-05-02T07:34:48.000Z</time>
      </trkpt>
      <trkpt lat="42.66836166381836" lon="-7.982931613922119">
        <ele>615.0</ele>
        <time>2019-05-02T07:34:49.000Z</time>
      </trkpt>
      <trkpt lat="42.668392181396484" lon="-7.98339319229126">
        <ele>614.0</ele>
        <time>2019-05-02T07:35:02.000Z</time>
      </trkpt>
      <trkpt lat="42.66849136352539" lon="-7.983846664428711">
        <ele>613.0</ele>
        <time>2019-05-02T07:35:31.000Z</time>
      </trkpt>
      <trkpt lat="42.66861343383789" lon="-7.984304428100586">
        <ele>608.0</ele>
        <time>2019-05-02T07:36:00.000Z</time>
      </trkpt>
      <trkpt lat="42.668617248535156" lon="-7.984785556793213">
        <ele>606.0</ele>
        <time>2019-05-02T07:36:31.000Z</time>
      </trkpt>
      <trkpt lat="42.6685905456543" lon="-7.984872341156006">
        <ele>606.0</ele>
        <time>2019-05-02T07:36:39.000Z</time>
      </trkpt>
      <trkpt lat="42.6685905456543" lon="-7.984900951385498">
        <ele>605.0</ele>
        <time>2019-05-02T07:36:56.000Z</time>
      </trkpt>
      <trkpt lat="42.66858673095703" lon="-7.984923839569092">
        <ele>605.0</ele>
        <time>2019-05-02T07:36:57.000Z</time>
      </trkpt>
      <trkpt lat="42.66862869262695" lon="-7.985400199890137">
        <ele>602.0</ele>
        <time>2019-05-02T07:37:18.000Z</time>
      </trkpt>
      <trkpt lat="42.668739318847656" lon="-7.985866546630859">
        <ele>601.0</ele>
        <time>2019-05-02T07:37:47.000Z</time>
      </trkpt>
      <trkpt lat="42.668861389160156" lon="-7.986311912536621">
        <ele>597.0</ele>
        <time>2019-05-02T07:38:18.000Z</time>
      </trkpt>
      <trkpt lat="42.66886520385742" lon="-7.986347675323486">
        <ele>596.0</ele>
        <time>2019-05-02T07:38:23.000Z</time>
      </trkpt>
      <trkpt lat="42.66889572143555" lon="-7.986425876617432">
        <ele>592.0</ele>
        <time>2019-05-02T07:38:48.000Z</time>
      </trkpt>
      <trkpt lat="42.668914794921875" lon="-7.986474514007568">
        <ele>592.0</ele>
        <time>2019-05-02T07:38:49.000Z</time>
      </trkpt>
      <trkpt lat="42.66891860961914" lon="-7.9864888191223145">
        <ele>591.0</ele>
        <time>2019-05-02T07:38:50.000Z</time>
      </trkpt>
      <trkpt lat="42.66891860961914" lon="-7.986499786376953">
        <ele>590.0</ele>
        <time>2019-05-02T07:39:01.000Z</time>
      </trkpt>
      <trkpt lat="42.668922424316406" lon="-7.986510276794434">
        <ele>590.0</ele>
        <time>2019-05-02T07:39:02.000Z</time>
      </trkpt>
      <trkpt lat="42.668922424316406" lon="-7.986700534820557">
        <ele>588.0</ele>
        <time>2019-05-02T07:39:14.000Z</time>
      </trkpt>
      <trkpt lat="42.66891860961914" lon="-7.986789226531982">
        <ele>587.0</ele>
        <time>2019-05-02T07:39:15.000Z</time>
      </trkpt>
      <trkpt lat="42.668907165527344" lon="-7.986862659454346">
        <ele>584.0</ele>
        <time>2019-05-02T07:39:47.000Z</time>
      </trkpt>
      <trkpt lat="42.66889572143555" lon="-7.986917972564697">
        <ele>584.0</ele>
        <time>2019-05-02T07:39:48.000Z</time>
      </trkpt>
      <trkpt lat="42.668800354003906" lon="-7.987279415130615">
        <ele>584.0</ele>
        <time>2019-05-02T07:39:53.000Z</time>
      </trkpt>
      <trkpt lat="42.66869354248047" lon="-7.987705707550049">
        <ele>583.0</ele>
        <time>2019-05-02T07:40:23.000Z</time>
      </trkpt>
      <trkpt lat="42.66862487792969" lon="-7.988183975219727">
        <ele>577.0</ele>
        <time>2019-05-02T07:40:43.000Z</time>
      </trkpt>
      <trkpt lat="42.668636322021484" lon="-7.9885077476501465">
        <ele>573.0</ele>
        <time>2019-05-02T07:41:04.000Z</time>
      </trkpt>
      <trkpt lat="42.66865539550781" lon="-7.988557815551758">
        <ele>572.0</ele>
        <time>2019-05-02T07:41:06.000Z</time>
      </trkpt>
      <trkpt lat="42.668678283691406" lon="-7.9885945320129395">
        <ele>571.0</ele>
        <time>2019-05-02T07:41:08.000Z</time>
      </trkpt>
      <trkpt lat="42.668701171875" lon="-7.988622665405273">
        <ele>571.0</ele>
        <time>2019-05-02T07:41:10.000Z</time>
      </trkpt>
      <trkpt lat="42.668731689453125" lon="-7.988646507263184">
        <ele>570.0</ele>
        <time>2019-05-02T07:41:12.000Z</time>
      </trkpt>
      <trkpt lat="42.66874694824219" lon="-7.988677501678467">
        <ele>570.0</ele>
        <time>2019-05-02T07:41:15.000Z</time>
      </trkpt>
      <trkpt lat="42.668766021728516" lon="-7.988707065582275">
        <ele>569.0</ele>
        <time>2019-05-02T07:41:18.000Z</time>
      </trkpt>
      <trkpt lat="42.66877746582031" lon="-7.988735675811768">
        <ele>568.0</ele>
        <time>2019-05-02T07:41:21.000Z</time>
      </trkpt>
      <trkpt lat="42.668792724609375" lon="-7.988763809204102">
        <ele>567.0</ele>
        <time>2019-05-02T07:41:24.000Z</time>
      </trkpt>
      <trkpt lat="42.66880416870117" lon="-7.988778591156006">
        <ele>567.0</ele>
        <time>2019-05-02T07:41:27.000Z</time>
      </trkpt>
      <trkpt lat="42.66881561279297" lon="-7.988786697387695">
        <ele>567.0</ele>
        <time>2019-05-02T07:41:30.000Z</time>
      </trkpt>
      <trkpt lat="42.6688232421875" lon="-7.988790988922119">
        <ele>567.0</ele>
        <time>2019-05-02T07:41:33.000Z</time>
      </trkpt>
      <trkpt lat="42.66883087158203" lon="-7.98879337310791">
        <ele>567.0</ele>
        <time>2019-05-02T07:41:36.000Z</time>
      </trkpt>
      <trkpt lat="42.66883850097656" lon="-7.988799095153809">
        <ele>567.0</ele>
        <time>2019-05-02T07:41:36.000Z</time>
      </trkpt>
      <trkpt lat="42.668846130371094" lon="-7.988803863525391">
        <ele>567.0</ele>
        <time>2019-05-02T07:41:36.000Z</time>
      </trkpt>
      <trkpt lat="42.66884994506836" lon="-7.988808631896973">
        <ele>567.0</ele>
        <time>2019-05-02T07:41:37.000Z</time>
      </trkpt>
      <trkpt lat="42.66885757446289" lon="-7.9888129234313965">
        <ele>567.0</ele>
        <time>2019-05-02T07:41:37.000Z</time>
      </trkpt>
      <trkpt lat="42.66890335083008" lon="-7.988865852355957">
        <ele>566.0</ele>
        <time>2019-05-02T07:41:42.000Z</time>
      </trkpt>
      <trkpt lat="42.668968200683594" lon="-7.988938331604004">
        <ele>566.0</ele>
        <time>2019-05-02T07:41:46.000Z</time>
      </trkpt>
      <trkpt lat="42.669044494628906" lon="-7.989024639129639">
        <ele>566.0</ele>
        <time>2019-05-02T07:41:51.000Z</time>
      </trkpt>
      <trkpt lat="42.66912841796875" lon="-7.989117622375488">
        <ele>565.0</ele>
        <time>2019-05-02T07:41:56.000Z</time>
      </trkpt>
      <trkpt lat="42.66919708251953" lon="-7.989336013793945">
        <ele>566.0</ele>
        <time>2019-05-02T07:42:11.000Z</time>
      </trkpt>
      <trkpt lat="42.66923522949219" lon="-7.9895853996276855">
        <ele>568.0</ele>
        <time>2019-05-02T07:42:26.000Z</time>
      </trkpt>
      <trkpt lat="42.66926193237305" lon="-7.9897003173828125">
        <ele>568.0</ele>
        <time>2019-05-02T07:42:35.000Z</time>
      </trkpt>
      <trkpt lat="42.66928482055664" lon="-7.989814758300781">
        <ele>568.0</ele>
        <time>2019-05-02T07:42:44.000Z</time>
      </trkpt>
      <trkpt lat="42.669307708740234" lon="-7.989928245544434">
        <ele>567.0</ele>
        <time>2019-05-02T07:42:53.000Z</time>
      </trkpt>
      <trkpt lat="42.66933059692383" lon="-7.990041732788086">
        <ele>567.0</ele>
        <time>2019-05-02T07:43:02.000Z</time>
      </trkpt>
      <trkpt lat="42.669342041015625" lon="-7.990100383758545">
        <ele>567.0</ele>
        <time>2019-05-02T07:43:04.000Z</time>
      </trkpt>
      <trkpt lat="42.669342041015625" lon="-7.990135669708252">
        <ele>567.0</ele>
        <time>2019-05-02T07:43:06.000Z</time>
      </trkpt>
      <trkpt lat="42.669342041015625" lon="-7.990155220031738">
        <ele>567.0</ele>
        <time>2019-05-02T07:43:09.000Z</time>
      </trkpt>
      <trkpt lat="42.66933822631836" lon="-7.990167617797852">
        <ele>568.0</ele>
        <time>2019-05-02T07:43:11.000Z</time>
      </trkpt>
      <trkpt lat="42.66933822631836" lon="-7.990187644958496">
        <ele>568.0</ele>
        <time>2019-05-02T07:43:18.000Z</time>
      </trkpt>
      <trkpt lat="42.66933822631836" lon="-7.990202903747559">
        <ele>568.0</ele>
        <time>2019-05-02T07:43:25.000Z</time>
      </trkpt>
      <trkpt lat="42.66933822631836" lon="-7.990215301513672">
        <ele>568.0</ele>
        <time>2019-05-02T07:43:32.000Z</time>
      </trkpt>
      <trkpt lat="42.66933822631836" lon="-7.9902262687683105">
        <ele>568.0</ele>
        <time>2019-05-02T07:43:39.000Z</time>
      </trkpt>
      <trkpt lat="42.66933822631836" lon="-7.990238189697266">
        <ele>568.0</ele>
        <time>2019-05-02T07:43:39.000Z</time>
      </trkpt>
      <trkpt lat="42.66933822631836" lon="-7.990249156951904">
        <ele>568.0</ele>
        <time>2019-05-02T07:43:39.000Z</time>
      </trkpt>
      <trkpt lat="42.669342041015625" lon="-7.990259170532227">
        <ele>568.0</ele>
        <time>2019-05-02T07:43:40.000Z</time>
      </trkpt>
      <trkpt lat="42.669342041015625" lon="-7.990269184112549">
        <ele>568.0</ele>
        <time>2019-05-02T07:43:40.000Z</time>
      </trkpt>
      <trkpt lat="42.66933822631836" lon="-7.990279674530029">
        <ele>568.0</ele>
        <time>2019-05-02T07:43:43.000Z</time>
      </trkpt>
      <trkpt lat="42.66933822631836" lon="-7.990289211273193">
        <ele>568.0</ele>
        <time>2019-05-02T07:43:45.000Z</time>
      </trkpt>
      <trkpt lat="42.66933822631836" lon="-7.990298748016357">
        <ele>568.0</ele>
        <time>2019-05-02T07:43:48.000Z</time>
      </trkpt>
      <trkpt lat="42.66933822631836" lon="-7.99030876159668">
        <ele>567.0</ele>
        <time>2019-05-02T07:43:51.000Z</time>
      </trkpt>
      <trkpt lat="42.6693229675293" lon="-7.990359783172607">
        <ele>567.0</ele>
        <time>2019-05-02T07:44:03.000Z</time>
      </trkpt>
      <trkpt lat="42.6693115234375" lon="-7.990401268005371">
        <ele>567.0</ele>
        <time>2019-05-02T07:44:04.000Z</time>
      </trkpt>
      <trkpt lat="42.66915512084961" lon="-7.990936279296875">
        <ele>568.0</ele>
        <time>2019-05-02T07:44:31.000Z</time>
      </trkpt>
      <trkpt lat="42.66910934448242" lon="-7.990999698638916">
        <ele>568.0</ele>
        <time>2019-05-02T07:44:33.000Z</time>
      </trkpt>
      <trkpt lat="42.669063568115234" lon="-7.991034030914307">
        <ele>568.0</ele>
        <time>2019-05-02T07:44:34.000Z</time>
      </trkpt>
      <trkpt lat="42.66901779174805" lon="-7.991048336029053">
        <ele>568.0</ele>
        <time>2019-05-02T07:44:36.000Z</time>
      </trkpt>
      <trkpt lat="42.668968200683594" lon="-7.991052627563477">
        <ele>568.0</ele>
        <time>2019-05-02T07:44:38.000Z</time>
      </trkpt>
      <trkpt lat="42.6689453125" lon="-7.991055965423584">
        <ele>568.0</ele>
        <time>2019-05-02T07:44:39.000Z</time>
      </trkpt>
      <trkpt lat="42.66892623901367" lon="-7.991048812866211">
        <ele>569.0</ele>
        <time>2019-05-02T07:44:40.000Z</time>
      </trkpt>
      <trkpt lat="42.668914794921875" lon="-7.991034030914307">
        <ele>569.0</ele>
        <time>2019-05-02T07:44:42.000Z</time>
      </trkpt>
      <trkpt lat="42.668907165527344" lon="-7.991015911102295">
        <ele>569.0</ele>
        <time>2019-05-02T07:44:43.000Z</time>
      </trkpt>
      <trkpt lat="42.668914794921875" lon="-7.991003513336182">
        <ele>569.0</ele>
        <time>2019-05-02T07:44:45.000Z</time>
      </trkpt>
      <trkpt lat="42.66893768310547" lon="-7.990990161895752">
        <ele>569.0</ele>
        <time>2019-05-02T07:44:46.000Z</time>
      </trkpt>
      <trkpt lat="42.668968200683594" lon="-7.990975856781006">
        <ele>569.0</ele>
        <time>2019-05-02T07:44:48.000Z</time>
      </trkpt>
      <trkpt lat="42.669002532958984" lon="-7.99096155166626">
        <ele>569.0</ele>
        <time>2019-05-02T07:44:49.000Z</time>
      </trkpt>
      <trkpt lat="42.66899490356445" lon="-7.990971088409424">
        <ele>569.0</ele>
        <time>2019-05-02T07:44:57.000Z</time>
      </trkpt>
      <trkpt lat="42.66897201538086" lon="-7.99099063873291">
        <ele>569.0</ele>
        <time>2019-05-02T07:45:06.000Z</time>
      </trkpt>
      <trkpt lat="42.668941497802734" lon="-7.991016387939453">
        <ele>569.0</ele>
        <time>2019-05-02T07:45:14.000Z</time>
      </trkpt>
      <trkpt lat="42.668907165527344" lon="-7.991045951843262">
        <ele>569.0</ele>
        <time>2019-05-02T07:45:22.000Z</time>
      </trkpt>
      <trkpt lat="42.66889572143555" lon="-7.991057872772217">
        <ele>569.0</ele>
        <time>2019-05-02T07:45:22.000Z</time>
      </trkpt>
      <trkpt lat="42.66888427734375" lon="-7.991065979003906">
        <ele>569.0</ele>
        <time>2019-05-02T07:45:23.000Z</time>
      </trkpt>
      <trkpt lat="42.66887664794922" lon="-7.991071701049805">
        <ele>569.0</ele>
        <time>2019-05-02T07:45:23.000Z</time>
      </trkpt>
      <trkpt lat="42.66887283325195" lon="-7.9910759925842285">
        <ele>569.0</ele>
        <time>2019-05-02T07:45:23.000Z</time>
      </trkpt>
      <trkpt lat="42.66885757446289" lon="-7.991088390350342">
        <ele>569.0</ele>
        <time>2019-05-02T07:45:24.000Z</time>
      </trkpt>
      <trkpt lat="42.66884231567383" lon="-7.99110221862793">
        <ele>569.0</ele>
        <time>2019-05-02T07:45:26.000Z</time>
      </trkpt>
      <trkpt lat="42.6688232421875" lon="-7.991117477416992">
        <ele>569.0</ele>
        <time>2019-05-02T07:45:27.000Z</time>
      </trkpt>
      <trkpt lat="42.66880416870117" lon="-7.991133213043213">
        <ele>568.0</ele>
        <time>2019-05-02T07:45:28.000Z</time>
      </trkpt>
      <trkpt lat="42.66880798339844" lon="-7.991153240203857">
        <ele>568.0</ele>
        <time>2019-05-02T07:45:33.000Z</time>
      </trkpt>
      <trkpt lat="42.6688232421875" lon="-7.991175651550293">
        <ele>568.0</ele>
        <time>2019-05-02T07:45:39.000Z</time>
      </trkpt>
      <trkpt lat="42.668846130371094" lon="-7.991199970245361">
        <ele>567.0</ele>
        <time>2019-05-02T07:45:44.000Z</time>
      </trkpt>
      <trkpt lat="42.66886901855469" lon="-7.991224765777588">
        <ele>567.0</ele>
        <time>2019-05-02T07:45:49.000Z</time>
      </trkpt>
      <trkpt lat="42.668846130371094" lon="-7.991223335266113">
        <ele>566.0</ele>
        <time>2019-05-02T07:46:06.000Z</time>
      </trkpt>
      <trkpt lat="42.668800354003906" lon="-7.991211891174316">
        <ele>566.0</ele>
        <time>2019-05-02T07:46:24.000Z</time>
      </trkpt>
      <trkpt lat="42.66874694824219" lon="-7.9911932945251465">
        <ele>565.0</ele>
        <time>2019-05-02T07:46:41.000Z</time>
      </trkpt>
      <trkpt lat="42.66868591308594" lon="-7.991171360015869">
        <ele>565.0</ele>
        <time>2019-05-02T07:46:58.000Z</time>
      </trkpt>
      <trkpt lat="42.668663024902344" lon="-7.991164684295654">
        <ele>564.0</ele>
        <time>2019-05-02T07:46:58.000Z</time>
      </trkpt>
      <trkpt lat="42.66864776611328" lon="-7.991160869598389">
        <ele>564.0</ele>
        <time>2019-05-02T07:46:59.000Z</time>
      </trkpt>
      <trkpt lat="42.668643951416016" lon="-7.991158962249756">
        <ele>564.0</ele>
        <time>2019-05-02T07:46:59.000Z</time>
      </trkpt>
      <trkpt lat="42.66864013671875" lon="-7.9911580085754395">
        <ele>565.0</ele>
        <time>2019-05-02T07:46:59.000Z</time>
      </trkpt>
      <trkpt lat="42.668601989746094" lon="-7.991146087646484">
        <ele>566.0</ele>
        <time>2019-05-02T07:47:03.000Z</time>
      </trkpt>
      <trkpt lat="42.66855239868164" lon="-7.991130828857422">
        <ele>569.0</ele>
        <time>2019-05-02T07:47:08.000Z</time>
      </trkpt>
      <trkpt lat="42.66849899291992" lon="-7.991113185882568">
        <ele>573.0</ele>
        <time>2019-05-02T07:47:12.000Z</time>
      </trkpt>
      <trkpt lat="42.66843795776367" lon="-7.991094589233398">
        <ele>576.0</ele>
        <time>2019-05-02T07:47:16.000Z</time>
      </trkpt>
      <trkpt lat="42.668399810791016" lon="-7.991085529327393">
        <ele>577.0</ele>
        <time>2019-05-02T07:47:22.000Z</time>
      </trkpt>
      <trkpt lat="42.66836929321289" lon="-7.991079330444336">
        <ele>577.0</ele>
        <time>2019-05-02T07:47:27.000Z</time>
      </trkpt>
      <trkpt lat="42.66834259033203" lon="-7.991075038909912">
        <ele>576.0</ele>
        <time>2019-05-02T07:47:32.000Z</time>
      </trkpt>
      <trkpt lat="42.66831588745117" lon="-7.991071701049805">
        <ele>575.0</ele>
        <time>2019-05-02T07:47:37.000Z</time>
      </trkpt>
      <trkpt lat="42.668304443359375" lon="-7.9910807609558105">
        <ele>574.0</ele>
        <time>2019-05-02T07:47:46.000Z</time>
      </trkpt>
      <trkpt lat="42.668296813964844" lon="-7.991096019744873">
        <ele>572.0</ele>
        <time>2019-05-02T07:47:54.000Z</time>
      </trkpt>
      <trkpt lat="42.66829299926758" lon="-7.991115570068359">
        <ele>569.0</ele>
        <time>2019-05-02T07:48:02.000Z</time>
      </trkpt>
      <trkpt lat="42.66828918457031" lon="-7.9911370277404785">
        <ele>567.0</ele>
        <time>2019-05-02T07:48:10.000Z</time>
      </trkpt>
      <trkpt lat="42.66828536987305" lon="-7.991149425506592">
        <ele>566.0</ele>
        <time>2019-05-02T07:48:10.000Z</time>
      </trkpt>
      <trkpt lat="42.66828155517578" lon="-7.991159915924072">
        <ele>566.0</ele>
        <time>2019-05-02T07:48:11.000Z</time>
      </trkpt>
      <trkpt lat="42.668277740478516" lon="-7.9911699295043945">
        <ele>566.0</ele>
        <time>2019-05-02T07:48:11.000Z</time>
      </trkpt>
      <trkpt lat="42.66827392578125" lon="-7.9911789894104">
        <ele>567.0</ele>
        <time>2019-05-02T07:48:11.000Z</time>
      </trkpt>
      <trkpt lat="42.66825866699219" lon="-7.991237640380859">
        <ele>566.0</ele>
        <time>2019-05-02T07:48:12.000Z</time>
      </trkpt>
      <trkpt lat="42.66823959350586" lon="-7.991316318511963">
        <ele>566.0</ele>
        <time>2019-05-02T07:48:14.000Z</time>
      </trkpt>
      <trkpt lat="42.668216705322266" lon="-7.991408348083496">
        <ele>565.0</ele>
        <time>2019-05-02T07:48:15.000Z</time>
      </trkpt>
      <trkpt lat="42.66819381713867" lon="-7.991507053375244">
        <ele>565.0</ele>
        <time>2019-05-02T07:48:16.000Z</time>
      </trkpt>
      <trkpt lat="42.66818618774414" lon="-7.991550445556641">
        <ele>564.0</ele>
        <time>2019-05-02T07:48:18.000Z</time>
      </trkpt>
      <trkpt lat="42.66818618774414" lon="-7.991578102111816">
        <ele>564.0</ele>
        <time>2019-05-02T07:48:19.000Z</time>
      </trkpt>
      <trkpt lat="42.66818618774414" lon="-7.991595268249512">
        <ele>564.0</ele>
        <time>2019-05-02T07:48:20.000Z</time>
      </trkpt>
      <trkpt lat="42.66818618774414" lon="-7.991607189178467">
        <ele>563.0</ele>
        <time>2019-05-02T07:48:21.000Z</time>
      </trkpt>
      <trkpt lat="42.668174743652344" lon="-7.991570472717285">
        <ele>563.0</ele>
        <time>2019-05-02T07:48:27.000Z</time>
      </trkpt>
      <trkpt lat="42.66815948486328" lon="-7.991508483886719">
        <ele>562.0</ele>
        <time>2019-05-02T07:48:33.000Z</time>
      </trkpt>
      <trkpt lat="42.66814041137695" lon="-7.991429328918457">
        <ele>562.0</ele>
        <time>2019-05-02T07:48:39.000Z</time>
      </trkpt>
      <trkpt lat="42.66811752319336" lon="-7.991341590881348">
        <ele>562.0</ele>
        <time>2019-05-02T07:48:45.000Z</time>
      </trkpt>
      <trkpt lat="42.668121337890625" lon="-7.991334438323975">
        <ele>561.0</ele>
        <time>2019-05-02T07:48:48.000Z</time>
      </trkpt>
      <trkpt lat="42.66813659667969" lon="-7.991352081298828">
        <ele>559.0</ele>
        <time>2019-05-02T07:48:52.000Z</time>
      </trkpt>
      <trkpt lat="42.66815948486328" lon="-7.9913859367370605">
        <ele>558.0</ele>
        <time>2019-05-02T07:48:55.000Z</time>
      </trkpt>
      <trkpt lat="42.668182373046875" lon="-7.991428375244141">
        <ele>556.0</ele>
        <time>2019-05-02T07:48:58.000Z</time>
      </trkpt>
      <trkpt lat="42.668190002441406" lon="-7.9914422035217285">
        <ele>556.0</ele>
        <time>2019-05-02T07:48:58.000Z</time>
      </trkpt>
      <trkpt lat="42.6682014465332" lon="-7.991453170776367">
        <ele>555.0</ele>
        <time>2019-05-02T07:48:59.000Z</time>
      </trkpt>
      <trkpt lat="42.66820526123047" lon="-7.991461753845215">
        <ele>556.0</ele>
        <time>2019-05-02T07:48:59.000Z</time>
      </trkpt>
      <trkpt lat="42.668212890625" lon="-7.991469383239746">
        <ele>556.0</ele>
        <time>2019-05-02T07:48:59.000Z</time>
      </trkpt>
      <trkpt lat="42.66824722290039" lon="-7.991547584533691">
        <ele>555.0</ele>
        <time>2019-05-02T07:49:13.000Z</time>
      </trkpt>
      <trkpt lat="42.66828918457031" lon="-7.991653919219971">
        <ele>553.0</ele>
        <time>2019-05-02T07:49:27.000Z</time>
      </trkpt>
      <trkpt lat="42.66834259033203" lon="-7.99177885055542">
        <ele>551.0</ele>
        <time>2019-05-02T07:49:41.000Z</time>
      </trkpt>
      <trkpt lat="42.66839599609375" lon="-7.991913795471191">
        <ele>549.0</ele>
        <time>2019-05-02T07:49:54.000Z</time>
      </trkpt>
      <trkpt lat="42.66838073730469" lon="-7.991948127746582">
        <ele>548.0</ele>
        <time>2019-05-02T07:50:02.000Z</time>
      </trkpt>
      <trkpt lat="42.668338775634766" lon="-7.991950035095215">
        <ele>548.0</ele>
        <time>2019-05-02T07:50:10.000Z</time>
      </trkpt>
      <trkpt lat="42.668277740478516" lon="-7.991930961608887">
        <ele>548.0</ele>
        <time>2019-05-02T07:50:17.000Z</time>
      </trkpt>
      <trkpt lat="42.668209075927734" lon="-7.99190092086792">
        <ele>549.0</ele>
        <time>2019-05-02T07:50:25.000Z</time>
      </trkpt>
      <trkpt lat="42.66816711425781" lon="-7.991917133331299">
        <ele>549.0</ele>
        <time>2019-05-02T07:50:31.000Z</time>
      </trkpt>
      <trkpt lat="42.668155670166016" lon="-7.991943836212158">
        <ele>549.0</ele>
        <time>2019-05-02T07:50:37.000Z</time>
      </trkpt>
      <trkpt lat="42.668155670166016" lon="-7.9919891357421875">
        <ele>549.0</ele>
        <time>2019-05-02T07:50:48.000Z</time>
      </trkpt>
      <trkpt lat="42.66816329956055" lon="-7.992048740386963">
        <ele>549.0</ele>
        <time>2019-05-02T07:50:58.000Z</time>
      </trkpt>
      <trkpt lat="42.668174743652344" lon="-7.992117881774902">
        <ele>549.0</ele>
        <time>2019-05-02T07:51:09.000Z</time>
      </trkpt>
      <trkpt lat="42.668190002441406" lon="-7.992191791534424">
        <ele>549.0</ele>
        <time>2019-05-02T07:51:19.000Z</time>
      </trkpt>
      <trkpt lat="42.66819381713867" lon="-7.992227554321289">
        <ele>549.0</ele>
        <time>2019-05-02T07:51:19.000Z</time>
      </trkpt>
      <trkpt lat="42.66819763183594" lon="-7.992252826690674">
        <ele>549.0</ele>
        <time>2019-05-02T07:51:20.000Z</time>
      </trkpt>
      <trkpt lat="42.6682014465332" lon="-7.992270469665527">
        <ele>549.0</ele>
        <time>2019-05-02T07:51:20.000Z</time>
      </trkpt>
      <trkpt lat="42.6682014465332" lon="-7.992284774780273">
        <ele>549.0</ele>
        <time>2019-05-02T07:51:20.000Z</time>
      </trkpt>
      <trkpt lat="42.668212890625" lon="-7.992337226867676">
        <ele>549.0</ele>
        <time>2019-05-02T07:51:21.000Z</time>
      </trkpt>
      <trkpt lat="42.6682243347168" lon="-7.992402076721191">
        <ele>549.0</ele>
        <time>2019-05-02T07:51:22.000Z</time>
      </trkpt>
      <trkpt lat="42.668243408203125" lon="-7.9924750328063965">
        <ele>549.0</ele>
        <time>2019-05-02T07:51:22.000Z</time>
      </trkpt>
      <trkpt lat="42.66825866699219" lon="-7.992551803588867">
        <ele>549.0</ele>
        <time>2019-05-02T07:51:23.000Z</time>
      </trkpt>
      <trkpt lat="42.668270111083984" lon="-7.992597579956055">
        <ele>549.0</ele>
        <time>2019-05-02T07:51:26.000Z</time>
      </trkpt>
      <trkpt lat="42.668277740478516" lon="-7.992633819580078">
        <ele>550.0</ele>
        <time>2019-05-02T07:51:29.000Z</time>
      </trkpt>
      <trkpt lat="42.66828155517578" lon="-7.992664337158203">
        <ele>551.0</ele>
        <time>2019-05-02T07:51:31.000Z</time>
      </trkpt>
      <trkpt lat="42.66828918457031" lon="-7.992691993713379">
        <ele>552.0</ele>
        <time>2019-05-02T07:51:34.000Z</time>
      </trkpt>
      <trkpt lat="42.66830825805664" lon="-7.9927144050598145">
        <ele>552.0</ele>
        <time>2019-05-02T07:51:36.000Z</time>
      </trkpt>
      <trkpt lat="42.6683349609375" lon="-7.992731094360352">
        <ele>552.0</ele>
        <time>2019-05-02T07:51:39.000Z</time>
      </trkpt>
      <trkpt lat="42.66836166381836" lon="-7.992744445800781">
        <ele>553.0</ele>
        <time>2019-05-02T07:51:41.000Z</time>
      </trkpt>
      <trkpt lat="42.66838836669922" lon="-7.992756366729736">
        <ele>553.0</ele>
        <time>2019-05-02T07:51:43.000Z</time>
      </trkpt>
      <trkpt lat="42.668453216552734" lon="-7.992753982543945">
        <ele>553.0</ele>
        <time>2019-05-02T07:51:48.000Z</time>
      </trkpt>
      <trkpt lat="42.66852569580078" lon="-7.992736339569092">
        <ele>554.0</ele>
        <time>2019-05-02T07:51:52.000Z</time>
      </trkpt>
      <trkpt lat="42.668521881103516" lon="-7.992755889892578">
        <ele>554.0</ele>
        <time>2019-05-02T07:51:56.000Z</time>
      </trkpt>
      <trkpt lat="42.66850280761719" lon="-7.992786407470703">
        <ele>554.0</ele>
        <time>2019-05-02T07:52:01.000Z</time>
      </trkpt>
      <trkpt lat="42.66847229003906" lon="-7.992824077606201">
        <ele>554.0</ele>
        <time>2019-05-02T07:52:05.000Z</time>
      </trkpt>
      <trkpt lat="42.668434143066406" lon="-7.992865085601807">
        <ele>554.0</ele>
        <time>2019-05-02T07:52:09.000Z</time>
      </trkpt>
      <trkpt lat="42.66843032836914" lon="-7.9928998947143555">
        <ele>554.0</ele>
        <time>2019-05-02T07:52:11.000Z</time>
      </trkpt>
      <trkpt lat="42.668434143066406" lon="-7.992936611175537">
        <ele>554.0</ele>
        <time>2019-05-02T07:52:14.000Z</time>
      </trkpt>
      <trkpt lat="42.66844177246094" lon="-7.992973804473877">
        <ele>554.0</ele>
        <time>2019-05-02T07:52:16.000Z</time>
      </trkpt>
      <trkpt lat="42.668453216552734" lon="-7.993011474609375">
        <ele>554.0</ele>
        <time>2019-05-02T07:52:18.000Z</time>
      </trkpt>
      <trkpt lat="42.668418884277344" lon="-7.9931464195251465">
        <ele>554.0</ele>
        <time>2019-05-02T07:52:23.000Z</time>
      </trkpt>
      <trkpt lat="42.668365478515625" lon="-7.993310451507568">
        <ele>555.0</ele>
        <time>2019-05-02T07:52:27.000Z</time>
      </trkpt>
      <trkpt lat="42.66837692260742" lon="-7.993338584899902">
        <ele>555.0</ele>
        <time>2019-05-02T07:52:32.000Z</time>
      </trkpt>
      <trkpt lat="42.66840362548828" lon="-7.99334716796875">
        <ele>556.0</ele>
        <time>2019-05-02T07:52:37.000Z</time>
      </trkpt>
      <trkpt lat="42.66843795776367" lon="-7.993342399597168">
        <ele>556.0</ele>
        <time>2019-05-02T07:52:42.000Z</time>
      </trkpt>
      <trkpt lat="42.668479919433594" lon="-7.9933319091796875">
        <ele>557.0</ele>
        <time>2019-05-02T07:52:47.000Z</time>
      </trkpt>
      <trkpt lat="42.668487548828125" lon="-7.99335241317749">
        <ele>558.0</ele>
        <time>2019-05-02T07:52:53.000Z</time>
      </trkpt>
      <trkpt lat="42.66849136352539" lon="-7.99337911605835">
        <ele>558.0</ele>
        <time>2019-05-02T07:52:59.000Z</time>
      </trkpt>
      <trkpt lat="42.668487548828125" lon="-7.993410110473633">
        <ele>558.0</ele>
        <time>2019-05-02T07:53:04.000Z</time>
      </trkpt>
      <trkpt lat="42.668479919433594" lon="-7.993443489074707">
        <ele>558.0</ele>
        <time>2019-05-02T07:53:10.000Z</time>
      </trkpt>
      <trkpt lat="42.668479919433594" lon="-7.9934611320495605">
        <ele>558.0</ele>
        <time>2019-05-02T07:53:10.000Z</time>
      </trkpt>
      <trkpt lat="42.668479919433594" lon="-7.993474960327148">
        <ele>558.0</ele>
        <time>2019-05-02T07:53:11.000Z</time>
      </trkpt>
      <trkpt lat="42.668479919433594" lon="-7.993485927581787">
        <ele>558.0</ele>
        <time>2019-05-02T07:53:11.000Z</time>
      </trkpt>
      <trkpt lat="42.668479919433594" lon="-7.993494987487793">
        <ele>558.0</ele>
        <time>2019-05-02T07:53:11.000Z</time>
      </trkpt>
      <trkpt lat="42.66848373413086" lon="-7.993523597717285">
        <ele>558.0</ele>
        <time>2019-05-02T07:53:12.000Z</time>
      </trkpt>
      <trkpt lat="42.66849136352539" lon="-7.993558883666992">
        <ele>558.0</ele>
        <time>2019-05-02T07:53:13.000Z</time>
      </trkpt>
      <trkpt lat="42.66849899291992" lon="-7.993598461151123">
        <ele>558.0</ele>
        <time>2019-05-02T07:53:14.000Z</time>
      </trkpt>
      <trkpt lat="42.66850662231445" lon="-7.993639945983887">
        <ele>558.0</ele>
        <time>2019-05-02T07:53:15.000Z</time>
      </trkpt>
      <trkpt lat="42.66853332519531" lon="-7.993646621704102">
        <ele>558.0</ele>
        <time>2019-05-02T07:53:16.000Z</time>
      </trkpt>
      <trkpt lat="42.66857147216797" lon="-7.993640899658203">
        <ele>558.0</ele>
        <time>2019-05-02T07:53:18.000Z</time>
      </trkpt>
      <trkpt lat="42.668617248535156" lon="-7.993626594543457">
        <ele>559.0</ele>
        <time>2019-05-02T07:53:19.000Z</time>
      </trkpt>
      <trkpt lat="42.668663024902344" lon="-7.993608474731445">
        <ele>559.0</ele>
        <time>2019-05-02T07:53:20.000Z</time>
      </trkpt>
      <trkpt lat="42.66868209838867" lon="-7.993600368499756">
        <ele>559.0</ele>
        <time>2019-05-02T07:53:21.000Z</time>
      </trkpt>
      <trkpt lat="42.6686897277832" lon="-7.993592262268066">
        <ele>559.0</ele>
        <time>2019-05-02T07:53:22.000Z</time>
      </trkpt>
      <trkpt lat="42.668697357177734" lon="-7.993583679199219">
        <ele>560.0</ele>
        <time>2019-05-02T07:53:22.000Z</time>
      </trkpt>
      <trkpt lat="42.668697357177734" lon="-7.993575572967529">
        <ele>560.0</ele>
        <time>2019-05-02T07:53:23.000Z</time>
      </trkpt>
      <trkpt lat="42.66871643066406" lon="-7.993582725524902">
        <ele>560.0</ele>
        <time>2019-05-02T07:53:25.000Z</time>
      </trkpt>
      <trkpt lat="42.668739318847656" lon="-7.99359655380249">
        <ele>561.0</ele>
        <time>2019-05-02T07:53:26.000Z</time>
      </trkpt>
      <trkpt lat="42.66876220703125" lon="-7.993614196777344">
        <ele>561.0</ele>
        <time>2019-05-02T07:53:28.000Z</time>
      </trkpt>
      <trkpt lat="42.66878890991211" lon="-7.9936347007751465">
        <ele>562.0</ele>
        <time>2019-05-02T07:53:29.000Z</time>
      </trkpt>
      <trkpt lat="42.66883087158203" lon="-7.99363374710083">
        <ele>562.0</ele>
        <time>2019-05-02T07:53:31.000Z</time>
      </trkpt>
      <trkpt lat="42.66886901855469" lon="-7.993618488311768">
        <ele>563.0</ele>
        <time>2019-05-02T07:53:33.000Z</time>
      </trkpt>
      <trkpt lat="42.668880462646484" lon="-7.993619441986084">
        <ele>563.0</ele>
        <time>2019-05-02T07:53:34.000Z</time>
      </trkpt>
      <trkpt lat="42.668888092041016" lon="-7.993621826171875">
        <ele>564.0</ele>
        <time>2019-05-02T07:53:35.000Z</time>
      </trkpt>
      <trkpt lat="42.66889190673828" lon="-7.993625640869141">
        <ele>564.0</ele>
        <time>2019-05-02T07:53:36.000Z</time>
      </trkpt>
      <trkpt lat="42.66889572143555" lon="-7.9936299324035645">
        <ele>564.0</ele>
        <time>2019-05-02T07:53:37.000Z</time>
      </trkpt>
      <trkpt lat="42.668914794921875" lon="-7.993624687194824">
        <ele>566.0</ele>
        <time>2019-05-02T07:53:46.000Z</time>
      </trkpt>
      <trkpt lat="42.6689338684082" lon="-7.993614196777344">
        <ele>568.0</ele>
        <time>2019-05-02T07:53:54.000Z</time>
      </trkpt>
      <trkpt lat="42.668941497802734" lon="-7.993610858917236">
        <ele>569.0</ele>
        <time>2019-05-02T07:53:55.000Z</time>
      </trkpt>
      <trkpt lat="42.668949127197266" lon="-7.993607997894287">
        <ele>569.0</ele>
        <time>2019-05-02T07:53:55.000Z</time>
      </trkpt>
      <trkpt lat="42.66895294189453" lon="-7.993605613708496">
        <ele>568.0</ele>
        <time>2019-05-02T07:53:55.000Z</time>
      </trkpt>
      <trkpt lat="42.66896057128906" lon="-7.993603229522705">
        <ele>568.0</ele>
        <time>2019-05-02T07:53:55.000Z</time>
      </trkpt>
      <trkpt lat="42.668983459472656" lon="-7.993591785430908">
        <ele>568.0</ele>
        <time>2019-05-02T07:53:56.000Z</time>
      </trkpt>
      <trkpt lat="42.66901397705078" lon="-7.993577003479004">
        <ele>569.0</ele>
        <time>2019-05-02T07:53:57.000Z</time>
      </trkpt>
      <trkpt lat="42.66904830932617" lon="-7.993559837341309">
        <ele>569.0</ele>
        <time>2019-05-02T07:53:58.000Z</time>
      </trkpt>
      <trkpt lat="42.66908645629883" lon="-7.993541717529297">
        <ele>569.0</ele>
        <time>2019-05-02T07:53:59.000Z</time>
      </trkpt>
      <trkpt lat="42.66912078857422" lon="-7.993524551391602">
        <ele>570.0</ele>
        <time>2019-05-02T07:54:03.000Z</time>
      </trkpt>
      <trkpt lat="42.66915512084961" lon="-7.993506908416748">
        <ele>572.0</ele>
        <time>2019-05-02T07:54:07.000Z</time>
      </trkpt>
      <trkpt lat="42.669193267822266" lon="-7.9934892654418945">
        <ele>573.0</ele>
        <time>2019-05-02T07:54:11.000Z</time>
      </trkpt>
      <trkpt lat="42.66923141479492" lon="-7.993470668792725">
        <ele>575.0</ele>
        <time>2019-05-02T07:54:16.000Z</time>
      </trkpt>
      <trkpt lat="42.669254302978516" lon="-7.993462562561035">
        <ele>576.0</ele>
        <time>2019-05-02T07:54:18.000Z</time>
      </trkpt>
      <trkpt lat="42.669273376464844" lon="-7.9934587478637695">
        <ele>577.0</ele>
        <time>2019-05-02T07:54:21.000Z</time>
      </trkpt>
      <trkpt lat="42.669288635253906" lon="-7.993457317352295">
        <ele>577.0</ele>
        <time>2019-05-02T07:54:23.000Z</time>
      </trkpt>
      <trkpt lat="42.6693000793457" lon="-7.993457317352295">
        <ele>578.0</ele>
        <time>2019-05-02T07:54:26.000Z</time>
      </trkpt>
      <trkpt lat="42.6693115234375" lon="-7.993454933166504">
        <ele>578.0</ele>
        <time>2019-05-02T07:54:26.000Z</time>
      </trkpt>
      <trkpt lat="42.6693229675293" lon="-7.993453502655029">
        <ele>578.0</ele>
        <time>2019-05-02T07:54:26.000Z</time>
      </trkpt>
      <trkpt lat="42.66933059692383" lon="-7.993452072143555">
        <ele>578.0</ele>
        <time>2019-05-02T07:54:26.000Z</time>
      </trkpt>
      <trkpt lat="42.669334411621094" lon="-7.99345064163208">
        <ele>578.0</ele>
        <time>2019-05-02T07:54:27.000Z</time>
      </trkpt>
      <trkpt lat="42.669708251953125" lon="-7.9933552742004395">
        <ele>584.0</ele>
        <time>2019-05-02T07:54:50.000Z</time>
      </trkpt>
      <trkpt lat="42.66987228393555" lon="-7.99323844909668">
        <ele>590.0</ele>
        <time>2019-05-02T07:55:05.000Z</time>
      </trkpt>
      <trkpt lat="42.67007064819336" lon="-7.99315071105957">
        <ele>592.0</ele>
        <time>2019-05-02T07:55:23.000Z</time>
      </trkpt>
      <trkpt lat="42.670108795166016" lon="-7.993152141571045">
        <ele>592.0</ele>
        <time>2019-05-02T07:55:30.000Z</time>
      </trkpt>
      <trkpt lat="42.670166015625" lon="-7.993147373199463">
        <ele>595.0</ele>
        <time>2019-05-02T07:55:42.000Z</time>
      </trkpt>
      <trkpt lat="42.670196533203125" lon="-7.993144512176514">
        <ele>595.0</ele>
        <time>2019-05-02T07:55:43.000Z</time>
      </trkpt>
      <trkpt lat="42.67032241821289" lon="-7.993130207061768">
        <ele>597.0</ele>
        <time>2019-05-02T07:55:47.000Z</time>
      </trkpt>
      <trkpt lat="42.67033767700195" lon="-7.993124008178711">
        <ele>597.0</ele>
        <time>2019-05-02T07:55:59.000Z</time>
      </trkpt>
      <trkpt lat="42.670352935791016" lon="-7.993118762969971">
        <ele>597.0</ele>
        <time>2019-05-02T07:56:00.000Z</time>
      </trkpt>
      <trkpt lat="42.6704216003418" lon="-7.993098735809326">
        <ele>597.0</ele>
        <time>2019-05-02T07:56:02.000Z</time>
      </trkpt>
      <trkpt lat="42.67053985595703" lon="-7.9930620193481445">
        <ele>595.0</ele>
        <time>2019-05-02T07:56:13.000Z</time>
      </trkpt>
      <trkpt lat="42.67057800292969" lon="-7.9930500984191895">
        <ele>595.0</ele>
        <time>2019-05-02T07:56:14.000Z</time>
      </trkpt>
      <trkpt lat="42.67083740234375" lon="-7.9930315017700195">
        <ele>593.0</ele>
        <time>2019-05-02T07:56:35.000Z</time>
      </trkpt>
      <trkpt lat="42.6709098815918" lon="-7.992992401123047">
        <ele>591.0</ele>
        <time>2019-05-02T07:57:01.000Z</time>
      </trkpt>
      <trkpt lat="42.67095184326172" lon="-7.9929704666137695">
        <ele>591.0</ele>
        <time>2019-05-02T07:57:02.000Z</time>
      </trkpt>
      <trkpt lat="42.671024322509766" lon="-7.992927074432373">
        <ele>591.0</ele>
        <time>2019-05-02T07:57:13.000Z</time>
      </trkpt>
      <trkpt lat="42.67110061645508" lon="-7.992876052856445">
        <ele>591.0</ele>
        <time>2019-05-02T07:57:27.000Z</time>
      </trkpt>
      <trkpt lat="42.671142578125" lon="-7.9928460121154785">
        <ele>591.0</ele>
        <time>2019-05-02T07:57:28.000Z</time>
      </trkpt>
      <trkpt lat="42.67139434814453" lon="-7.992651462554932">
        <ele>593.0</ele>
        <time>2019-05-02T07:57:41.000Z</time>
      </trkpt>
      <trkpt lat="42.67142105102539" lon="-7.992618560791016">
        <ele>595.0</ele>
        <time>2019-05-02T07:58:22.000Z</time>
      </trkpt>
      <trkpt lat="42.67144012451172" lon="-7.992591857910156">
        <ele>595.0</ele>
        <time>2019-05-02T07:58:23.000Z</time>
      </trkpt>
      <trkpt lat="42.67155838012695" lon="-7.992453575134277">
        <ele>595.0</ele>
        <time>2019-05-02T07:58:40.000Z</time>
      </trkpt>
      <trkpt lat="42.671653747558594" lon="-7.9922871589660645">
        <ele>599.0</ele>
        <time>2019-05-02T08:01:51.000Z</time>
      </trkpt>
      <trkpt lat="42.67167282104492" lon="-7.992251396179199">
        <ele>599.0</ele>
        <time>2019-05-02T08:01:52.000Z</time>
      </trkpt>
      <trkpt lat="42.67184066772461" lon="-7.992138862609863">
        <ele>602.0</ele>
        <time>2019-05-02T08:02:07.000Z</time>
      </trkpt>
      <trkpt lat="42.67184829711914" lon="-7.992129802703857">
        <ele>601.0</ele>
        <time>2019-05-02T08:02:20.000Z</time>
      </trkpt>
      <trkpt lat="42.67185974121094" lon="-7.992121696472168">
        <ele>601.0</ele>
        <time>2019-05-02T08:02:21.000Z</time>
      </trkpt>
      <trkpt lat="42.67215347290039" lon="-7.991849899291992">
        <ele>597.0</ele>
        <time>2019-05-02T08:02:42.000Z</time>
      </trkpt>
      <trkpt lat="42.672237396240234" lon="-7.991696357727051">
        <ele>592.0</ele>
        <time>2019-05-02T08:02:53.000Z</time>
      </trkpt>
      <trkpt lat="42.672298431396484" lon="-7.991658687591553">
        <ele>591.0</ele>
        <time>2019-05-02T08:02:57.000Z</time>
      </trkpt>
      <trkpt lat="42.672367095947266" lon="-7.991638660430908">
        <ele>590.0</ele>
        <time>2019-05-02T08:03:01.000Z</time>
      </trkpt>
      <trkpt lat="42.67240905761719" lon="-7.991589546203613">
        <ele>590.0</ele>
        <time>2019-05-02T08:03:21.000Z</time>
      </trkpt>
      <trkpt lat="42.67244338989258" lon="-7.991530895233154">
        <ele>590.0</ele>
        <time>2019-05-02T08:03:40.000Z</time>
      </trkpt>
      <trkpt lat="42.67245101928711" lon="-7.991477966308594">
        <ele>591.0</ele>
        <time>2019-05-02T08:03:45.000Z</time>
      </trkpt>
      <trkpt lat="42.672454833984375" lon="-7.991414546966553">
        <ele>592.0</ele>
        <time>2019-05-02T08:03:49.000Z</time>
      </trkpt>
      <trkpt lat="42.672454833984375" lon="-7.991343975067139">
        <ele>592.0</ele>
        <time>2019-05-02T08:03:54.000Z</time>
      </trkpt>
      <trkpt lat="42.672454833984375" lon="-7.991269588470459">
        <ele>593.0</ele>
        <time>2019-05-02T08:03:58.000Z</time>
      </trkpt>
      <trkpt lat="42.67250061035156" lon="-7.991151332855225">
        <ele>593.0</ele>
        <time>2019-05-02T08:04:09.000Z</time>
      </trkpt>
      <trkpt lat="42.672569274902344" lon="-7.9910383224487305">
        <ele>593.0</ele>
        <time>2019-05-02T08:04:20.000Z</time>
      </trkpt>
      <trkpt lat="42.672603607177734" lon="-7.990996837615967">
        <ele>592.0</ele>
        <time>2019-05-02T08:04:22.000Z</time>
      </trkpt>
      <trkpt lat="42.672637939453125" lon="-7.990962028503418">
        <ele>592.0</ele>
        <time>2019-05-02T08:04:24.000Z</time>
      </trkpt>
      <trkpt lat="42.672672271728516" lon="-7.990931510925293">
        <ele>591.0</ele>
        <time>2019-05-02T08:04:26.000Z</time>
      </trkpt>
      <trkpt lat="42.672706604003906" lon="-7.990903377532959">
        <ele>591.0</ele>
        <time>2019-05-02T08:04:29.000Z</time>
      </trkpt>
      <trkpt lat="42.672794342041016" lon="-7.990878105163574">
        <ele>590.0</ele>
        <time>2019-05-02T08:04:36.000Z</time>
      </trkpt>
      <trkpt lat="42.67288589477539" lon="-7.990871906280518">
        <ele>590.0</ele>
        <time>2019-05-02T08:04:44.000Z</time>
      </trkpt>
      <trkpt lat="42.672916412353516" lon="-7.990869045257568">
        <ele>590.0</ele>
        <time>2019-05-02T08:04:48.000Z</time>
      </trkpt>
      <trkpt lat="42.672943115234375" lon="-7.99086856842041">
        <ele>589.0</ele>
        <time>2019-05-02T08:04:53.000Z</time>
      </trkpt>
      <trkpt lat="42.67296600341797" lon="-7.990869045257568">
        <ele>589.0</ele>
        <time>2019-05-02T08:04:58.000Z</time>
      </trkpt>
      <trkpt lat="42.6729850769043" lon="-7.990870475769043">
        <ele>588.0</ele>
        <time>2019-05-02T08:05:03.000Z</time>
      </trkpt>
      <trkpt lat="42.67300033569336" lon="-7.990869998931885">
        <ele>588.0</ele>
        <time>2019-05-02T08:05:03.000Z</time>
      </trkpt>
      <trkpt lat="42.673011779785156" lon="-7.990869998931885">
        <ele>588.0</ele>
        <time>2019-05-02T08:05:03.000Z</time>
      </trkpt>
      <trkpt lat="42.67301940917969" lon="-7.990869998931885">
        <ele>588.0</ele>
        <time>2019-05-02T08:05:04.000Z</time>
      </trkpt>
      <trkpt lat="42.67302703857422" lon="-7.990869998931885">
        <ele>588.0</ele>
        <time>2019-05-02T08:05:04.000Z</time>
      </trkpt>
      <trkpt lat="42.673065185546875" lon="-7.990865707397461">
        <ele>588.0</ele>
        <time>2019-05-02T08:05:07.000Z</time>
      </trkpt>
      <trkpt lat="42.673118591308594" lon="-7.990859508514404">
        <ele>588.0</ele>
        <time>2019-05-02T08:05:10.000Z</time>
      </trkpt>
      <trkpt lat="42.67318344116211" lon="-7.9908528327941895">
        <ele>587.0</ele>
        <time>2019-05-02T08:05:13.000Z</time>
      </trkpt>
      <trkpt lat="42.673248291015625" lon="-7.990845203399658">
        <ele>587.0</ele>
        <time>2019-05-02T08:05:17.000Z</time>
      </trkpt>
      <trkpt lat="42.67327880859375" lon="-7.990843772888184">
        <ele>587.0</ele>
        <time>2019-05-02T08:05:21.000Z</time>
      </trkpt>
      <trkpt lat="42.67329788208008" lon="-7.990843772888184">
        <ele>587.0</ele>
        <time>2019-05-02T08:05:26.000Z</time>
      </trkpt>
      <trkpt lat="42.673309326171875" lon="-7.990845680236816">
        <ele>587.0</ele>
        <time>2019-05-02T08:05:31.000Z</time>
      </trkpt>
      <trkpt lat="42.673316955566406" lon="-7.990848064422607">
        <ele>587.0</ele>
        <time>2019-05-02T08:05:36.000Z</time>
      </trkpt>
      <trkpt lat="42.6733283996582" lon="-7.990848064422607">
        <ele>587.0</ele>
        <time>2019-05-02T08:05:36.000Z</time>
      </trkpt>
      <trkpt lat="42.67333984375" lon="-7.990848541259766">
        <ele>587.0</ele>
        <time>2019-05-02T08:05:36.000Z</time>
      </trkpt>
      <trkpt lat="42.67334747314453" lon="-7.990849018096924">
        <ele>587.0</ele>
        <time>2019-05-02T08:05:36.000Z</time>
      </trkpt>
      <trkpt lat="42.67335510253906" lon="-7.990849494934082">
        <ele>587.0</ele>
        <time>2019-05-02T08:05:37.000Z</time>
      </trkpt>
      <trkpt lat="42.673709869384766" lon="-7.990839958190918">
        <ele>587.0</ele>
        <time>2019-05-02T08:05:56.000Z</time>
      </trkpt>
      <trkpt lat="42.673885345458984" lon="-7.990868091583252">
        <ele>586.0</ele>
        <time>2019-05-02T08:06:11.000Z</time>
      </trkpt>
      <trkpt lat="42.67390823364258" lon="-7.990861892700195">
        <ele>586.0</ele>
        <time>2019-05-02T08:06:17.000Z</time>
      </trkpt>
      <trkpt lat="42.67392349243164" lon="-7.990850448608398">
        <ele>586.0</ele>
        <time>2019-05-02T08:06:23.000Z</time>
      </trkpt>
      <trkpt lat="42.67393112182617" lon="-7.990835189819336">
        <ele>585.0</ele>
        <time>2019-05-02T08:06:29.000Z</time>
      </trkpt>
      <trkpt lat="42.67393493652344" lon="-7.990818500518799">
        <ele>585.0</ele>
        <time>2019-05-02T08:06:35.000Z</time>
      </trkpt>
      <trkpt lat="42.67394256591797" lon="-7.990808963775635">
        <ele>585.0</ele>
        <time>2019-05-02T08:06:35.000Z</time>
      </trkpt>
      <trkpt lat="42.673954010009766" lon="-7.9908013343811035">
        <ele>585.0</ele>
        <time>2019-05-02T08:06:35.000Z</time>
      </trkpt>
      <trkpt lat="42.67395782470703" lon="-7.9907941818237305">
        <ele>585.0</ele>
        <time>2019-05-02T08:06:36.000Z</time>
      </trkpt>
      <trkpt lat="42.67396545410156" lon="-7.990787982940674">
        <ele>585.0</ele>
        <time>2019-05-02T08:06:36.000Z</time>
      </trkpt>
      <trkpt lat="42.67401123046875" lon="-7.9907026290893555">
        <ele>585.0</ele>
        <time>2019-05-02T08:06:44.000Z</time>
      </trkpt>
      <trkpt lat="42.674076080322266" lon="-7.990584373474121">
        <ele>586.0</ele>
        <time>2019-05-02T08:06:51.000Z</time>
      </trkpt>
      <trkpt lat="42.67414855957031" lon="-7.990444660186768">
        <ele>586.0</ele>
        <time>2019-05-02T08:06:59.000Z</time>
      </trkpt>
      <trkpt lat="42.674224853515625" lon="-7.990293979644775">
        <ele>586.0</ele>
        <time>2019-05-02T08:07:07.000Z</time>
      </trkpt>
      <trkpt lat="42.67427444458008" lon="-7.9901957511901855">
        <ele>586.0</ele>
        <time>2019-05-02T08:07:14.000Z</time>
      </trkpt>
      <trkpt lat="42.674312591552734" lon="-7.990108013153076">
        <ele>586.0</ele>
        <time>2019-05-02T08:07:21.000Z</time>
      </trkpt>
      <trkpt lat="42.674346923828125" lon="-7.990026950836182">
        <ele>587.0</ele>
        <time>2019-05-02T08:07:28.000Z</time>
      </trkpt>
      <trkpt lat="42.67437744140625" lon="-7.9899492263793945">
        <ele>587.0</ele>
        <time>2019-05-02T08:07:35.000Z</time>
      </trkpt>
      <trkpt lat="42.67439270019531" lon="-7.9898762702941895">
        <ele>588.0</ele>
        <time>2019-05-02T08:07:45.000Z</time>
      </trkpt>
      <trkpt lat="42.674373626708984" lon="-7.989848613739014">
        <ele>590.0</ele>
        <time>2019-05-02T08:07:55.000Z</time>
      </trkpt>
      <trkpt lat="42.674373626708984" lon="-7.989832401275635">
        <ele>590.0</ele>
        <time>2019-05-02T08:07:55.000Z</time>
      </trkpt>
      <trkpt lat="42.674373626708984" lon="-7.989819526672363">
        <ele>590.0</ele>
        <time>2019-05-02T08:07:55.000Z</time>
      </trkpt>
      <trkpt lat="42.674373626708984" lon="-7.989809513092041">
        <ele>590.0</ele>
        <time>2019-05-02T08:07:56.000Z</time>
      </trkpt>
      <trkpt lat="42.674373626708984" lon="-7.989800453186035">
        <ele>590.0</ele>
        <time>2019-05-02T08:07:56.000Z</time>
      </trkpt>
      <trkpt lat="42.674354553222656" lon="-7.989724159240723">
        <ele>590.0</ele>
        <time>2019-05-02T08:08:02.000Z</time>
      </trkpt>
      <trkpt lat="42.6743278503418" lon="-7.989621162414551">
        <ele>592.0</ele>
        <time>2019-05-02T08:08:07.000Z</time>
      </trkpt>
      <trkpt lat="42.674293518066406" lon="-7.989500522613525">
        <ele>593.0</ele>
        <time>2019-05-02T08:08:13.000Z</time>
      </trkpt>
      <trkpt lat="42.674259185791016" lon="-7.989370822906494">
        <ele>594.0</ele>
        <time>2019-05-02T08:08:19.000Z</time>
      </trkpt>
      <trkpt lat="42.67424392700195" lon="-7.989314556121826">
        <ele>595.0</ele>
        <time>2019-05-02T08:08:22.000Z</time>
      </trkpt>
      <trkpt lat="42.674232482910156" lon="-7.989279270172119">
        <ele>595.0</ele>
        <time>2019-05-02T08:08:25.000Z</time>
      </trkpt>
      <trkpt lat="42.674224853515625" lon="-7.989258766174316">
        <ele>595.0</ele>
        <time>2019-05-02T08:08:29.000Z</time>
      </trkpt>
      <trkpt lat="42.67422103881836" lon="-7.9892449378967285">
        <ele>595.0</ele>
        <time>2019-05-02T08:08:32.000Z</time>
      </trkpt>
      <trkpt lat="42.67420196533203" lon="-7.989205837249756">
        <ele>595.0</ele>
        <time>2019-05-02T08:08:36.000Z</time>
      </trkpt>
      <trkpt lat="42.67417907714844" lon="-7.989163398742676">
        <ele>595.0</ele>
        <time>2019-05-02T08:08:39.000Z</time>
      </trkpt>
      <trkpt lat="42.674156188964844" lon="-7.989118576049805">
        <ele>596.0</ele>
        <time>2019-05-02T08:08:43.000Z</time>
      </trkpt>
      <trkpt lat="42.674129486083984" lon="-7.989072799682617">
        <ele>596.0</ele>
        <time>2019-05-02T08:08:47.000Z</time>
      </trkpt>
      <trkpt lat="42.67411804199219" lon="-7.9890546798706055">
        <ele>596.0</ele>
        <time>2019-05-02T08:08:47.000Z</time>
      </trkpt>
      <trkpt lat="42.67411422729492" lon="-7.989046573638916">
        <ele>596.0</ele>
        <time>2019-05-02T08:08:47.000Z</time>
      </trkpt>
      <trkpt lat="42.67411422729492" lon="-7.989045143127441">
        <ele>596.0</ele>
        <time>2019-05-02T08:08:48.000Z</time>
      </trkpt>
      <trkpt lat="42.67411804199219" lon="-7.989047527313232">
        <ele>596.0</ele>
        <time>2019-05-02T08:08:48.000Z</time>
      </trkpt>
      <trkpt lat="42.67396545410156" lon="-7.98853874206543">
        <ele>598.0</ele>
        <time>2019-05-02T08:09:23.000Z</time>
      </trkpt>
      <trkpt lat="42.673919677734375" lon="-7.988397598266602">
        <ele>599.0</ele>
        <time>2019-05-02T08:09:40.000Z</time>
      </trkpt>
      <trkpt lat="42.67389678955078" lon="-7.98834228515625">
        <ele>599.0</ele>
        <time>2019-05-02T08:09:51.000Z</time>
      </trkpt>
      <trkpt lat="42.673885345458984" lon="-7.988306522369385">
        <ele>599.0</ele>
        <time>2019-05-02T08:09:52.000Z</time>
      </trkpt>
      <trkpt lat="42.673789978027344" lon="-7.988032341003418">
        <ele>599.0</ele>
        <time>2019-05-02T08:10:00.000Z</time>
      </trkpt>
      <trkpt lat="42.67374801635742" lon="-7.987907886505127">
        <ele>598.0</ele>
        <time>2019-05-02T08:10:14.000Z</time>
      </trkpt>
      <trkpt lat="42.67373275756836" lon="-7.987861156463623">
        <ele>598.0</ele>
        <time>2019-05-02T08:10:15.000Z</time>
      </trkpt>
      <trkpt lat="42.67365264892578" lon="-7.987429141998291">
        <ele>598.0</ele>
        <time>2019-05-02T08:10:38.000Z</time>
      </trkpt>
      <trkpt lat="42.673641204833984" lon="-7.987383842468262">
        <ele>598.0</ele>
        <time>2019-05-02T08:10:51.000Z</time>
      </trkpt>
      <trkpt lat="42.67363739013672" lon="-7.987350940704346">
        <ele>598.0</ele>
        <time>2019-05-02T08:10:52.000Z</time>
      </trkpt>
      <trkpt lat="42.673606872558594" lon="-7.9871673583984375">
        <ele>599.0</ele>
        <time>2019-05-02T08:10:56.000Z</time>
      </trkpt>
      <trkpt lat="42.67359924316406" lon="-7.987102031707764">
        <ele>598.0</ele>
        <time>2019-05-02T08:11:10.000Z</time>
      </trkpt>
      <trkpt lat="42.6735954284668" lon="-7.987060546875">
        <ele>598.0</ele>
        <time>2019-05-02T08:11:11.000Z</time>
      </trkpt>
      <trkpt lat="42.67365264892578" lon="-7.98679780960083">
        <ele>598.0</ele>
        <time>2019-05-02T08:11:25.000Z</time>
      </trkpt>
      <trkpt lat="42.6736946105957" lon="-7.986758232116699">
        <ele>597.0</ele>
        <time>2019-05-02T08:11:30.000Z</time>
      </trkpt>
      <trkpt lat="42.67374801635742" lon="-7.986729621887207">
        <ele>597.0</ele>
        <time>2019-05-02T08:11:36.000Z</time>
      </trkpt>
      <trkpt lat="42.67380905151367" lon="-7.986708164215088">
        <ele>596.0</ele>
        <time>2019-05-02T08:11:41.000Z</time>
      </trkpt>
      <trkpt lat="42.67387390136719" lon="-7.986690521240234">
        <ele>596.0</ele>
        <time>2019-05-02T08:11:47.000Z</time>
      </trkpt>
      <trkpt lat="42.673892974853516" lon="-7.986680507659912">
        <ele>596.0</ele>
        <time>2019-05-02T08:11:47.000Z</time>
      </trkpt>
      <trkpt lat="42.67390060424805" lon="-7.986678123474121">
        <ele>596.0</ele>
        <time>2019-05-02T08:11:47.000Z</time>
      </trkpt>
      <trkpt lat="42.67389678955078" lon="-7.986680030822754">
        <ele>596.0</ele>
        <time>2019-05-02T08:11:48.000Z</time>
      </trkpt>
      <trkpt lat="42.67388916015625" lon="-7.986684322357178">
        <ele>596.0</ele>
        <time>2019-05-02T08:11:48.000Z</time>
      </trkpt>
      <trkpt lat="42.67391586303711" lon="-7.986668109893799">
        <ele>595.0</ele>
        <time>2019-05-02T08:11:54.000Z</time>
      </trkpt>
      <trkpt lat="42.673954010009766" lon="-7.986645698547363">
        <ele>595.0</ele>
        <time>2019-05-02T08:12:00.000Z</time>
      </trkpt>
      <trkpt lat="42.67399978637695" lon="-7.986618995666504">
        <ele>594.0</ele>
        <time>2019-05-02T08:12:07.000Z</time>
      </trkpt>
      <trkpt lat="42.67404556274414" lon="-7.986590385437012">
        <ele>594.0</ele>
        <time>2019-05-02T08:12:13.000Z</time>
      </trkpt>
      <trkpt lat="42.674068450927734" lon="-7.986578941345215">
        <ele>594.0</ele>
        <time>2019-05-02T08:12:13.000Z</time>
      </trkpt>
      <trkpt lat="42.67407989501953" lon="-7.986572265625">
        <ele>594.0</ele>
        <time>2019-05-02T08:12:13.000Z</time>
      </trkpt>
      <trkpt lat="42.6740837097168" lon="-7.986568450927734">
        <ele>594.0</ele>
        <time>2019-05-02T08:12:14.000Z</time>
      </trkpt>
      <trkpt lat="42.67408752441406" lon="-7.986566543579102">
        <ele>594.0</ele>
        <time>2019-05-02T08:12:14.000Z</time>
      </trkpt>
      <trkpt lat="42.674129486083984" lon="-7.986525058746338">
        <ele>594.0</ele>
        <time>2019-05-02T08:12:18.000Z</time>
      </trkpt>
      <trkpt lat="42.6741828918457" lon="-7.98646879196167">
        <ele>593.0</ele>
        <time>2019-05-02T08:12:22.000Z</time>
      </trkpt>
      <trkpt lat="42.67424392700195" lon="-7.9864020347595215">
        <ele>593.0</ele>
        <time>2019-05-02T08:12:27.000Z</time>
      </trkpt>
      <trkpt lat="42.67430877685547" lon="-7.986330986022949">
        <ele>593.0</ele>
        <time>2019-05-02T08:12:31.000Z</time>
      </trkpt>
      <trkpt lat="42.674346923828125" lon="-7.9863152503967285">
        <ele>593.0</ele>
        <time>2019-05-02T08:12:34.000Z</time>
      </trkpt>
      <trkpt lat="42.67437744140625" lon="-7.986318111419678">
        <ele>593.0</ele>
        <time>2019-05-02T08:12:37.000Z</time>
      </trkpt>
      <trkpt lat="42.67440414428711" lon="-7.986332893371582">
        <ele>592.0</ele>
        <time>2019-05-02T08:12:41.000Z</time>
      </trkpt>
      <trkpt lat="42.6744270324707" lon="-7.986353874206543">
        <ele>592.0</ele>
        <time>2019-05-02T08:12:44.000Z</time>
      </trkpt>
      <trkpt lat="42.674495697021484" lon="-7.9863667488098145">
        <ele>593.0</ele>
        <time>2019-05-02T08:12:51.000Z</time>
      </trkpt>
      <trkpt lat="42.67457962036133" lon="-7.986382961273193">
        <ele>594.0</ele>
        <time>2019-05-02T08:12:58.000Z</time>
      </trkpt>
      <trkpt lat="42.674678802490234" lon="-7.986401081085205">
        <ele>594.0</ele>
        <time>2019-05-02T08:13:05.000Z</time>
      </trkpt>
      <trkpt lat="42.674781799316406" lon="-7.986419677734375">
        <ele>596.0</ele>
        <time>2019-05-02T08:13:12.000Z</time>
      </trkpt>
      <trkpt lat="42.674957275390625" lon="-7.9863600730896">
        <ele>596.0</ele>
        <time>2019-05-02T08:13:29.000Z</time>
      </trkpt>
      <trkpt lat="42.67513656616211" lon="-7.986258029937744">
        <ele>597.0</ele>
        <time>2019-05-02T08:13:46.000Z</time>
      </trkpt>
      <trkpt lat="42.67517852783203" lon="-7.986164569854736">
        <ele>597.0</ele>
        <time>2019-05-02T08:13:53.000Z</time>
      </trkpt>
      <trkpt lat="42.675201416015625" lon="-7.986049652099609">
        <ele>598.0</ele>
        <time>2019-05-02T08:14:00.000Z</time>
      </trkpt>
      <trkpt lat="42.67521286010742" lon="-7.985919952392578">
        <ele>598.0</ele>
        <time>2019-05-02T08:14:08.000Z</time>
      </trkpt>
      <trkpt lat="42.67521667480469" lon="-7.985782623291016">
        <ele>599.0</ele>
        <time>2019-05-02T08:14:15.000Z</time>
      </trkpt>
      <trkpt lat="42.67524719238281" lon="-7.985720634460449">
        <ele>599.0</ele>
        <time>2019-05-02T08:14:20.000Z</time>
      </trkpt>
      <trkpt lat="42.6752815246582" lon="-7.985682964324951">
        <ele>599.0</ele>
        <time>2019-05-02T08:14:24.000Z</time>
      </trkpt>
      <trkpt lat="42.67531967163086" lon="-7.985660552978516">
        <ele>600.0</ele>
        <time>2019-05-02T08:14:29.000Z</time>
      </trkpt>
      <trkpt lat="42.675357818603516" lon="-7.9856462478637695">
        <ele>600.0</ele>
        <time>2019-05-02T08:14:34.000Z</time>
      </trkpt>
      <trkpt lat="42.675411224365234" lon="-7.985633373260498">
        <ele>601.0</ele>
        <time>2019-05-02T08:14:44.000Z</time>
      </trkpt>
      <trkpt lat="42.67546081542969" lon="-7.985645771026611">
        <ele>601.0</ele>
        <time>2019-05-02T08:14:55.000Z</time>
      </trkpt>
      <trkpt lat="42.67547607421875" lon="-7.985645771026611">
        <ele>601.0</ele>
        <time>2019-05-02T08:14:55.000Z</time>
      </trkpt>
      <trkpt lat="42.67548751831055" lon="-7.985645771026611">
        <ele>601.0</ele>
        <time>2019-05-02T08:14:55.000Z</time>
      </trkpt>
      <trkpt lat="42.67549133300781" lon="-7.985645771026611">
        <ele>601.0</ele>
        <time>2019-05-02T08:14:56.000Z</time>
      </trkpt>
      <trkpt lat="42.675498962402344" lon="-7.985645294189453">
        <ele>601.0</ele>
        <time>2019-05-02T08:14:56.000Z</time>
      </trkpt>
      <trkpt lat="42.67552947998047" lon="-7.985646724700928">
        <ele>601.0</ele>
        <time>2019-05-02T08:14:58.000Z</time>
      </trkpt>
      <trkpt lat="42.675567626953125" lon="-7.985648155212402">
        <ele>602.0</ele>
        <time>2019-05-02T08:15:00.000Z</time>
      </trkpt>
      <trkpt lat="42.67561340332031" lon="-7.985650539398193">
        <ele>602.0</ele>
        <time>2019-05-02T08:15:03.000Z</time>
      </trkpt>
      <trkpt lat="42.675662994384766" lon="-7.985652446746826">
        <ele>602.0</ele>
        <time>2019-05-02T08:15:05.000Z</time>
      </trkpt>
      <trkpt lat="42.675682067871094" lon="-7.985651969909668">
        <ele>602.0</ele>
        <time>2019-05-02T08:15:09.000Z</time>
      </trkpt>
      <trkpt lat="42.675697326660156" lon="-7.985650062561035">
        <ele>603.0</ele>
        <time>2019-05-02T08:15:13.000Z</time>
      </trkpt>
      <trkpt lat="42.67570495605469" lon="-7.985647678375244">
        <ele>603.0</ele>
        <time>2019-05-02T08:15:17.000Z</time>
      </trkpt>
      <trkpt lat="42.67570877075195" lon="-7.985645294189453">
        <ele>604.0</ele>
        <time>2019-05-02T08:15:21.000Z</time>
      </trkpt>
      <trkpt lat="42.675716400146484" lon="-7.9856438636779785">
        <ele>604.0</ele>
        <time>2019-05-02T08:15:21.000Z</time>
      </trkpt>
      <trkpt lat="42.675724029541016" lon="-7.985642433166504">
        <ele>604.0</ele>
        <time>2019-05-02T08:15:21.000Z</time>
      </trkpt>
      <trkpt lat="42.67573165893555" lon="-7.9856414794921875">
        <ele>604.0</ele>
        <time>2019-05-02T08:15:22.000Z</time>
      </trkpt>
      <trkpt lat="42.67573928833008" lon="-7.985640525817871">
        <ele>604.0</ele>
        <time>2019-05-02T08:15:22.000Z</time>
      </trkpt>
      <trkpt lat="42.67580032348633" lon="-7.9856367111206055">
        <ele>604.0</ele>
        <time>2019-05-02T08:15:27.000Z</time>
      </trkpt>
      <trkpt lat="42.67588806152344" lon="-7.985632419586182">
        <ele>605.0</ele>
        <time>2019-05-02T08:15:33.000Z</time>
      </trkpt>
      <trkpt lat="42.675987243652344" lon="-7.9856276512146">
        <ele>605.0</ele>
        <time>2019-05-02T08:15:38.000Z</time>
      </trkpt>
      <trkpt lat="42.67609786987305" lon="-7.985621929168701">
        <ele>606.0</ele>
        <time>2019-05-02T08:15:44.000Z</time>
      </trkpt>
      <trkpt lat="42.6761360168457" lon="-7.985621452331543">
        <ele>606.0</ele>
        <time>2019-05-02T08:15:50.000Z</time>
      </trkpt>
      <trkpt lat="42.67623519897461" lon="-7.985611438751221">
        <ele>608.0</ele>
        <time>2019-05-02T08:16:13.000Z</time>
      </trkpt>
      <trkpt lat="42.6762809753418" lon="-7.985606670379639">
        <ele>608.0</ele>
        <time>2019-05-02T08:16:14.000Z</time>
      </trkpt>
      <trkpt lat="42.676326751708984" lon="-7.985602378845215">
        <ele>608.0</ele>
        <time>2019-05-02T08:16:16.000Z</time>
      </trkpt>
      <trkpt lat="42.6764030456543" lon="-7.9856085777282715">
        <ele>608.0</ele>
        <time>2019-05-02T08:16:31.000Z</time>
      </trkpt>
      <trkpt lat="42.67643737792969" lon="-7.985611915588379">
        <ele>608.0</ele>
        <time>2019-05-02T08:16:32.000Z</time>
      </trkpt>
      <trkpt lat="42.676658630371094" lon="-7.985616683959961">
        <ele>607.0</ele>
        <time>2019-05-02T08:16:46.000Z</time>
      </trkpt>
      <trkpt lat="42.67668533325195" lon="-7.9856276512146">
        <ele>607.0</ele>
        <time>2019-05-02T08:16:57.000Z</time>
      </trkpt>
      <trkpt lat="42.67667770385742" lon="-7.985642433166504">
        <ele>607.0</ele>
        <time>2019-05-02T08:17:08.000Z</time>
      </trkpt>
      <trkpt lat="42.67668151855469" lon="-7.985647678375244">
        <ele>607.0</ele>
        <time>2019-05-02T08:17:08.000Z</time>
      </trkpt>
      <trkpt lat="42.67668533325195" lon="-7.985652923583984">
        <ele>607.0</ele>
        <time>2019-05-02T08:17:09.000Z</time>
      </trkpt>
      <trkpt lat="42.67668914794922" lon="-7.985657691955566">
        <ele>607.0</ele>
        <time>2019-05-02T08:17:09.000Z</time>
      </trkpt>
      <trkpt lat="42.676692962646484" lon="-7.985662460327148">
        <ele>607.0</ele>
        <time>2019-05-02T08:17:09.000Z</time>
      </trkpt>
      <trkpt lat="42.67670440673828" lon="-7.985681056976318">
        <ele>608.0</ele>
        <time>2019-05-02T08:17:10.000Z</time>
      </trkpt>
      <trkpt lat="42.676719665527344" lon="-7.985705375671387">
        <ele>608.0</ele>
        <time>2019-05-02T08:17:10.000Z</time>
      </trkpt>
      <trkpt lat="42.67673873901367" lon="-7.985733985900879">
        <ele>608.0</ele>
        <time>2019-05-02T08:17:10.000Z</time>
      </trkpt>
      <trkpt lat="42.676761627197266" lon="-7.985764026641846">
        <ele>608.0</ele>
        <time>2019-05-02T08:17:11.000Z</time>
      </trkpt>
      <trkpt lat="42.67679214477539" lon="-7.985794544219971">
        <ele>609.0</ele>
        <time>2019-05-02T08:17:13.000Z</time>
      </trkpt>
      <trkpt lat="42.67683410644531" lon="-7.985827445983887">
        <ele>610.0</ele>
        <time>2019-05-02T08:17:15.000Z</time>
      </trkpt>
      <trkpt lat="42.6768798828125" lon="-7.985861778259277">
        <ele>610.0</ele>
        <time>2019-05-02T08:17:18.000Z</time>
      </trkpt>
      <trkpt lat="42.67692565917969" lon="-7.985897064208984">
        <ele>611.0</ele>
        <time>2019-05-02T08:17:20.000Z</time>
      </trkpt>
      <trkpt lat="42.676963806152344" lon="-7.985933780670166">
        <ele>612.0</ele>
        <time>2019-05-02T08:17:24.000Z</time>
      </trkpt>
      <trkpt lat="42.677001953125" lon="-7.985971450805664">
        <ele>612.0</ele>
        <time>2019-05-02T08:17:29.000Z</time>
      </trkpt>
      <trkpt lat="42.677040100097656" lon="-7.9860100746154785">
        <ele>612.0</ele>
        <time>2019-05-02T08:17:33.000Z</time>
      </trkpt>
      <trkpt lat="42.67707824707031" lon="-7.986049175262451">
        <ele>613.0</ele>
        <time>2019-05-02T08:17:38.000Z</time>
      </trkpt>
      <trkpt lat="42.67709732055664" lon="-7.986100673675537">
        <ele>613.0</ele>
        <time>2019-05-02T08:17:42.000Z</time>
      </trkpt>
      <trkpt lat="42.6771125793457" lon="-7.9861578941345215">
        <ele>614.0</ele>
        <time>2019-05-02T08:17:46.000Z</time>
      </trkpt>
      <trkpt lat="42.677120208740234" lon="-7.986218452453613">
        <ele>614.0</ele>
        <time>2019-05-02T08:17:50.000Z</time>
      </trkpt>
      <trkpt lat="42.6771240234375" lon="-7.986281394958496">
        <ele>615.0</ele>
        <time>2019-05-02T08:17:55.000Z</time>
      </trkpt>
      <trkpt lat="42.67713165283203" lon="-7.986300468444824">
        <ele>615.0</ele>
        <time>2019-05-02T08:17:56.000Z</time>
      </trkpt>
      <trkpt lat="42.6771354675293" lon="-7.986302852630615">
        <ele>615.0</ele>
        <time>2019-05-02T08:17:56.000Z</time>
      </trkpt>
      <trkpt lat="42.6771354675293" lon="-7.986294746398926">
        <ele>615.0</ele>
        <time>2019-05-02T08:17:57.000Z</time>
      </trkpt>
      <trkpt lat="42.67713928222656" lon="-7.986281394958496">
        <ele>615.0</ele>
        <time>2019-05-02T08:17:58.000Z</time>
      </trkpt>
      <trkpt lat="42.677146911621094" lon="-7.986292362213135">
        <ele>615.0</ele>
        <time>2019-05-02T08:18:02.000Z</time>
      </trkpt>
      <trkpt lat="42.67715072631836" lon="-7.986308574676514">
        <ele>616.0</ele>
        <time>2019-05-02T08:18:06.000Z</time>
      </trkpt>
      <trkpt lat="42.67715835571289" lon="-7.986328125">
        <ele>617.0</ele>
        <time>2019-05-02T08:18:11.000Z</time>
      </trkpt>
      <trkpt lat="42.67716598510742" lon="-7.986348628997803">
        <ele>618.0</ele>
        <time>2019-05-02T08:18:15.000Z</time>
      </trkpt>
      <trkpt lat="42.67717361450195" lon="-7.986361026763916">
        <ele>618.0</ele>
        <time>2019-05-02T08:18:15.000Z</time>
      </trkpt>
      <trkpt lat="42.67717742919922" lon="-7.986371040344238">
        <ele>618.0</ele>
        <time>2019-05-02T08:18:15.000Z</time>
      </trkpt>
      <trkpt lat="42.677181243896484" lon="-7.986379623413086">
        <ele>618.0</ele>
        <time>2019-05-02T08:18:16.000Z</time>
      </trkpt>
      <trkpt lat="42.67718505859375" lon="-7.986387729644775">
        <ele>618.0</ele>
        <time>2019-05-02T08:18:16.000Z</time>
      </trkpt>
      <trkpt lat="42.677215576171875" lon="-7.986461639404297">
        <ele>618.0</ele>
        <time>2019-05-02T08:18:21.000Z</time>
      </trkpt>
      <trkpt lat="42.6772575378418" lon="-7.986562252044678">
        <ele>618.0</ele>
        <time>2019-05-02T08:18:26.000Z</time>
      </trkpt>
      <trkpt lat="42.67730712890625" lon="-7.986680507659912">
        <ele>619.0</ele>
        <time>2019-05-02T08:18:32.000Z</time>
      </trkpt>
      <trkpt lat="42.67736053466797" lon="-7.986807823181152">
        <ele>619.0</ele>
        <time>2019-05-02T08:18:37.000Z</time>
      </trkpt>
      <trkpt lat="42.67741012573242" lon="-7.9869065284729">
        <ele>619.0</ele>
        <time>2019-05-02T08:18:45.000Z</time>
      </trkpt>
      <trkpt lat="42.677459716796875" lon="-7.987003326416016">
        <ele>619.0</ele>
        <time>2019-05-02T08:18:53.000Z</time>
      </trkpt>
      <trkpt lat="42.67751693725586" lon="-7.987098217010498">
        <ele>620.0</ele>
        <time>2019-05-02T08:19:01.000Z</time>
      </trkpt>
      <trkpt lat="42.67757034301758" lon="-7.987192153930664">
        <ele>620.0</ele>
        <time>2019-05-02T08:19:09.000Z</time>
      </trkpt>
      <trkpt lat="42.67763137817383" lon="-7.987295627593994">
        <ele>620.0</ele>
        <time>2019-05-02T08:19:18.000Z</time>
      </trkpt>
      <trkpt lat="42.67770004272461" lon="-7.987401962280273">
        <ele>621.0</ele>
        <time>2019-05-02T08:19:27.000Z</time>
      </trkpt>
      <trkpt lat="42.67776870727539" lon="-7.987510681152344">
        <ele>621.0</ele>
        <time>2019-05-02T08:19:36.000Z</time>
      </trkpt>
      <trkpt lat="42.67783737182617" lon="-7.9876203536987305">
        <ele>622.0</ele>
        <time>2019-05-02T08:19:45.000Z</time>
      </trkpt>
      <trkpt lat="42.67790603637695" lon="-7.987709999084473">
        <ele>623.0</ele>
        <time>2019-05-02T08:19:52.000Z</time>
      </trkpt>
      <trkpt lat="42.67797088623047" lon="-7.987792015075684">
        <ele>623.0</ele>
        <time>2019-05-02T08:20:00.000Z</time>
      </trkpt>
      <trkpt lat="42.67803955078125" lon="-7.9878692626953125">
        <ele>623.0</ele>
        <time>2019-05-02T08:20:08.000Z</time>
      </trkpt>
      <trkpt lat="42.678104400634766" lon="-7.98794412612915">
        <ele>624.0</ele>
        <time>2019-05-02T08:20:16.000Z</time>
      </trkpt>
      <trkpt lat="42.678375244140625" lon="-7.98826789855957">
        <ele>626.0</ele>
        <time>2019-05-02T08:20:50.000Z</time>
      </trkpt>
      <trkpt lat="42.678401947021484" lon="-7.988333225250244">
        <ele>627.0</ele>
        <time>2019-05-02T08:20:58.000Z</time>
      </trkpt>
      <trkpt lat="42.678401947021484" lon="-7.988340377807617">
        <ele>627.0</ele>
        <time>2019-05-02T08:21:04.000Z</time>
      </trkpt>
      <trkpt lat="42.678401947021484" lon="-7.988344192504883">
        <ele>627.0</ele>
        <time>2019-05-02T08:21:10.000Z</time>
      </trkpt>
      <trkpt lat="42.678401947021484" lon="-7.988345623016357">
        <ele>628.0</ele>
        <time>2019-05-02T08:21:16.000Z</time>
      </trkpt>
      <trkpt lat="42.67839813232422" lon="-7.988345623016357">
        <ele>628.0</ele>
        <time>2019-05-02T08:21:22.000Z</time>
      </trkpt>
      <trkpt lat="42.67839813232422" lon="-7.988348484039307">
        <ele>629.0</ele>
        <time>2019-05-02T08:21:22.000Z</time>
      </trkpt>
      <trkpt lat="42.67839431762695" lon="-7.988351345062256">
        <ele>629.0</ele>
        <time>2019-05-02T08:21:22.000Z</time>
      </trkpt>
      <trkpt lat="42.67839431762695" lon="-7.988354206085205">
        <ele>628.0</ele>
        <time>2019-05-02T08:21:22.000Z</time>
      </trkpt>
      <trkpt lat="42.67839431762695" lon="-7.988357067108154">
        <ele>628.0</ele>
        <time>2019-05-02T08:21:23.000Z</time>
      </trkpt>
      <trkpt lat="42.67837905883789" lon="-7.988413333892822">
        <ele>628.0</ele>
        <time>2019-05-02T08:21:24.000Z</time>
      </trkpt>
      <trkpt lat="42.67835998535156" lon="-7.988491535186768">
        <ele>628.0</ele>
        <time>2019-05-02T08:21:25.000Z</time>
      </trkpt>
      <trkpt lat="42.67833709716797" lon="-7.988584518432617">
        <ele>628.0</ele>
        <time>2019-05-02T08:21:26.000Z</time>
      </trkpt>
      <trkpt lat="42.67831039428711" lon="-7.988685131072998">
        <ele>628.0</ele>
        <time>2019-05-02T08:21:28.000Z</time>
      </trkpt>
      <trkpt lat="42.678314208984375" lon="-7.988736152648926">
        <ele>627.0</ele>
        <time>2019-05-02T08:21:31.000Z</time>
      </trkpt>
      <trkpt lat="42.67832946777344" lon="-7.988773822784424">
        <ele>627.0</ele>
        <time>2019-05-02T08:21:34.000Z</time>
      </trkpt>
      <trkpt lat="42.6783561706543" lon="-7.988802909851074">
        <ele>626.0</ele>
        <time>2019-05-02T08:21:37.000Z</time>
      </trkpt>
      <trkpt lat="42.678382873535156" lon="-7.988827228546143">
        <ele>625.0</ele>
        <time>2019-05-02T08:21:40.000Z</time>
      </trkpt>
      <trkpt lat="42.67840576171875" lon="-7.988867282867432">
        <ele>624.0</ele>
        <time>2019-05-02T08:21:43.000Z</time>
      </trkpt>
      <trkpt lat="42.67843246459961" lon="-7.9889092445373535">
        <ele>622.0</ele>
        <time>2019-05-02T08:21:47.000Z</time>
      </trkpt>
      <trkpt lat="42.678462982177734" lon="-7.98895263671875">
        <ele>620.0</ele>
        <time>2019-05-02T08:21:50.000Z</time>
      </trkpt>
      <trkpt lat="42.67849349975586" lon="-7.9889960289001465">
        <ele>618.0</ele>
        <time>2019-05-02T08:21:54.000Z</time>
      </trkpt>
      <trkpt lat="42.67851257324219" lon="-7.989025592803955">
        <ele>617.0</ele>
        <time>2019-05-02T08:21:59.000Z</time>
      </trkpt>
      <trkpt lat="42.67852783203125" lon="-7.989050388336182">
        <ele>615.0</ele>
        <time>2019-05-02T08:22:04.000Z</time>
      </trkpt>
      <trkpt lat="42.67854309082031" lon="-7.989070892333984">
        <ele>614.0</ele>
        <time>2019-05-02T08:22:09.000Z</time>
      </trkpt>
      <trkpt lat="42.67855453491211" lon="-7.9890899658203125">
        <ele>612.0</ele>
        <time>2019-05-02T08:22:15.000Z</time>
      </trkpt>
      <trkpt lat="42.678565979003906" lon="-7.989104747772217">
        <ele>612.0</ele>
        <time>2019-05-02T08:22:15.000Z</time>
      </trkpt>
      <trkpt lat="42.67857360839844" lon="-7.989116191864014">
        <ele>612.0</ele>
        <time>2019-05-02T08:22:15.000Z</time>
      </trkpt>
      <trkpt lat="42.6785774230957" lon="-7.9891252517700195">
        <ele>612.0</ele>
        <time>2019-05-02T08:22:15.000Z</time>
      </trkpt>
      <trkpt lat="42.678585052490234" lon="-7.989132881164551">
        <ele>612.0</ele>
        <time>2019-05-02T08:22:16.000Z</time>
      </trkpt>
      <trkpt lat="42.67860412597656" lon="-7.98917293548584">
        <ele>612.0</ele>
        <time>2019-05-02T08:22:19.000Z</time>
      </trkpt>
      <trkpt lat="42.678627014160156" lon="-7.989225387573242">
        <ele>611.0</ele>
        <time>2019-05-02T08:22:22.000Z</time>
      </trkpt>
      <trkpt lat="42.67865753173828" lon="-7.989285945892334">
        <ele>610.0</ele>
        <time>2019-05-02T08:22:25.000Z</time>
      </trkpt>
      <trkpt lat="42.678688049316406" lon="-7.989350318908691">
        <ele>609.0</ele>
        <time>2019-05-02T08:22:28.000Z</time>
      </trkpt>
      <trkpt lat="42.6786994934082" lon="-7.989372730255127">
        <ele>608.0</ele>
        <time>2019-05-02T08:22:33.000Z</time>
      </trkpt>
      <trkpt lat="42.678707122802734" lon="-7.989381313323975">
        <ele>607.0</ele>
        <time>2019-05-02T08:22:38.000Z</time>
      </trkpt>
      <trkpt lat="42.6787109375" lon="-7.989380836486816">
        <ele>607.0</ele>
        <time>2019-05-02T08:22:43.000Z</time>
      </trkpt>
      <trkpt lat="42.678714752197266" lon="-7.989376068115234">
        <ele>606.0</ele>
        <time>2019-05-02T08:22:49.000Z</time>
      </trkpt>
      <trkpt lat="42.678733825683594" lon="-7.989396095275879">
        <ele>606.0</ele>
        <time>2019-05-02T08:22:50.000Z</time>
      </trkpt>
      <trkpt lat="42.679019927978516" lon="-7.989683151245117">
        <ele>602.0</ele>
        <time>2019-05-02T08:23:08.000Z</time>
      </trkpt>
      <trkpt lat="42.6793212890625" lon="-7.989920616149902">
        <ele>600.0</ele>
        <time>2019-05-02T08:23:42.000Z</time>
      </trkpt>
      <trkpt lat="42.67961883544922" lon="-7.990171909332275">
        <ele>600.0</ele>
        <time>2019-05-02T08:24:51.000Z</time>
      </trkpt>
      <trkpt lat="42.67992401123047" lon="-7.990431785583496">
        <ele>603.0</ele>
        <time>2019-05-02T08:25:19.000Z</time>
      </trkpt>
      <trkpt lat="42.68022918701172" lon="-7.990664005279541">
        <ele>606.0</ele>
        <time>2019-05-02T08:25:47.000Z</time>
      </trkpt>
      <trkpt lat="42.68046188354492" lon="-7.99092960357666">
        <ele>605.0</ele>
        <time>2019-05-02T08:26:12.000Z</time>
      </trkpt>
      <trkpt lat="42.6805419921875" lon="-7.990976810455322">
        <ele>606.0</ele>
        <time>2019-05-02T08:26:16.000Z</time>
      </trkpt>
      <trkpt lat="42.680606842041016" lon="-7.9909844398498535">
        <ele>608.0</ele>
        <time>2019-05-02T08:26:21.000Z</time>
      </trkpt>
      <trkpt lat="42.6806640625" lon="-7.99105167388916">
        <ele>610.0</ele>
        <time>2019-05-02T08:26:54.000Z</time>
      </trkpt>
      <trkpt lat="42.68071746826172" lon="-7.9911370277404785">
        <ele>612.0</ele>
        <time>2019-05-02T08:27:28.000Z</time>
      </trkpt>
      <trkpt lat="42.68073272705078" lon="-7.991155624389648">
        <ele>613.0</ele>
        <time>2019-05-02T08:27:28.000Z</time>
      </trkpt>
      <trkpt lat="42.68074035644531" lon="-7.991165637969971">
        <ele>613.0</ele>
        <time>2019-05-02T08:27:28.000Z</time>
      </trkpt>
      <trkpt lat="42.68074417114258" lon="-7.991170406341553">
        <ele>613.0</ele>
        <time>2019-05-02T08:27:28.000Z</time>
      </trkpt>
      <trkpt lat="42.68074417114258" lon="-7.991172790527344">
        <ele>612.0</ele>
        <time>2019-05-02T08:27:29.000Z</time>
      </trkpt>
      <trkpt lat="42.680755615234375" lon="-7.991190433502197">
        <ele>612.0</ele>
        <time>2019-05-02T08:27:30.000Z</time>
      </trkpt>
      <trkpt lat="42.68076705932617" lon="-7.991211414337158">
        <ele>613.0</ele>
        <time>2019-05-02T08:27:31.000Z</time>
      </trkpt>
      <trkpt lat="42.680782318115234" lon="-7.991235256195068">
        <ele>613.0</ele>
        <time>2019-05-02T08:27:32.000Z</time>
      </trkpt>
      <trkpt lat="42.6807975769043" lon="-7.991260051727295">
        <ele>613.0</ele>
        <time>2019-05-02T08:27:34.000Z</time>
      </trkpt>
      <trkpt lat="42.68080520629883" lon="-7.991270542144775">
        <ele>613.0</ele>
        <time>2019-05-02T08:27:38.000Z</time>
      </trkpt>
      <trkpt lat="42.68081283569336" lon="-7.991276264190674">
        <ele>612.0</ele>
        <time>2019-05-02T08:27:43.000Z</time>
      </trkpt>
      <trkpt lat="42.680816650390625" lon="-7.991278648376465">
        <ele>612.0</ele>
        <time>2019-05-02T08:27:48.000Z</time>
      </trkpt>
      <trkpt lat="42.68082046508789" lon="-7.991279602050781">
        <ele>611.0</ele>
        <time>2019-05-02T08:27:53.000Z</time>
      </trkpt>
      <trkpt lat="42.680824279785156" lon="-7.991283893585205">
        <ele>611.0</ele>
        <time>2019-05-02T08:27:53.000Z</time>
      </trkpt>
      <trkpt lat="42.68083190917969" lon="-7.991287708282471">
        <ele>611.0</ele>
        <time>2019-05-02T08:27:53.000Z</time>
      </trkpt>
      <trkpt lat="42.68083572387695" lon="-7.991291046142578">
        <ele>611.0</ele>
        <time>2019-05-02T08:27:53.000Z</time>
      </trkpt>
      <trkpt lat="42.68083953857422" lon="-7.9912943840026855">
        <ele>611.0</ele>
        <time>2019-05-02T08:27:54.000Z</time>
      </trkpt>
      <trkpt lat="42.68084716796875" lon="-7.991300582885742">
        <ele>611.0</ele>
        <time>2019-05-02T08:27:54.000Z</time>
      </trkpt>
      <trkpt lat="42.68085479736328" lon="-7.991307258605957">
        <ele>611.0</ele>
        <time>2019-05-02T08:27:55.000Z</time>
      </trkpt>
      <trkpt lat="42.68086624145508" lon="-7.991314888000488">
        <ele>611.0</ele>
        <time>2019-05-02T08:27:55.000Z</time>
      </trkpt>
      <trkpt lat="42.68087387084961" lon="-7.9913225173950195">
        <ele>612.0</ele>
        <time>2019-05-02T08:27:56.000Z</time>
      </trkpt>
      <trkpt lat="42.680904388427734" lon="-7.991337776184082">
        <ele>612.0</ele>
        <time>2019-05-02T08:28:03.000Z</time>
      </trkpt>
      <trkpt lat="42.68092346191406" lon="-7.991349220275879">
        <ele>612.0</ele>
        <time>2019-05-02T08:28:04.000Z</time>
      </trkpt>
      <trkpt lat="42.68118667602539" lon="-7.991463661193848">
        <ele>611.0</ele>
        <time>2019-05-02T08:28:18.000Z</time>
      </trkpt>
      <trkpt lat="42.681209564208984" lon="-7.991471767425537">
        <ele>608.0</ele>
        <time>2019-05-02T08:28:36.000Z</time>
      </trkpt>
      <trkpt lat="42.68122863769531" lon="-7.9914774894714355">
        <ele>608.0</ele>
        <time>2019-05-02T08:28:37.000Z</time>
      </trkpt>
      <trkpt lat="42.68157958984375" lon="-7.991596698760986">
        <ele>604.0</ele>
        <time>2019-05-02T08:28:58.000Z</time>
      </trkpt>
      <trkpt lat="42.68173599243164" lon="-7.99158239364624">
        <ele>603.0</ele>
        <time>2019-05-02T08:29:15.000Z</time>
      </trkpt>
      <trkpt lat="42.68178939819336" lon="-7.991562843322754">
        <ele>600.0</ele>
        <time>2019-05-02T08:29:31.000Z</time>
      </trkpt>
      <trkpt lat="42.681819915771484" lon="-7.991551876068115">
        <ele>600.0</ele>
        <time>2019-05-02T08:29:32.000Z</time>
      </trkpt>
      <trkpt lat="42.68199157714844" lon="-7.991468906402588">
        <ele>599.0</ele>
        <time>2019-05-02T08:29:43.000Z</time>
      </trkpt>
      <trkpt lat="42.68201446533203" lon="-7.991458415985107">
        <ele>597.0</ele>
        <time>2019-05-02T08:29:58.000Z</time>
      </trkpt>
      <trkpt lat="42.68203353881836" lon="-7.991450309753418">
        <ele>597.0</ele>
        <time>2019-05-02T08:29:59.000Z</time>
      </trkpt>
      <trkpt lat="42.682228088378906" lon="-7.991331100463867">
        <ele>596.0</ele>
        <time>2019-05-02T08:30:07.000Z</time>
      </trkpt>
      <trkpt lat="42.682281494140625" lon="-7.991311550140381">
        <ele>595.0</ele>
        <time>2019-05-02T08:30:25.000Z</time>
      </trkpt>
      <trkpt lat="42.68231201171875" lon="-7.991300106048584">
        <ele>595.0</ele>
        <time>2019-05-02T08:30:26.000Z</time>
      </trkpt>
      <trkpt lat="42.68236541748047" lon="-7.991278171539307">
        <ele>594.0</ele>
        <time>2019-05-02T08:30:29.000Z</time>
      </trkpt>
      <trkpt lat="42.68244171142578" lon="-7.99125337600708">
        <ele>595.0</ele>
        <time>2019-05-02T08:30:43.000Z</time>
      </trkpt>
      <trkpt lat="42.68247604370117" lon="-7.991241931915283">
        <ele>595.0</ele>
        <time>2019-05-02T08:30:44.000Z</time>
      </trkpt>
      <trkpt lat="42.68281173706055" lon="-7.9910783767700195">
        <ele>597.0</ele>
        <time>2019-05-02T08:31:09.000Z</time>
      </trkpt>
      <trkpt lat="42.683170318603516" lon="-7.9909796714782715">
        <ele>600.0</ele>
        <time>2019-05-02T08:31:40.000Z</time>
      </trkpt>
      <trkpt lat="42.683189392089844" lon="-7.990980625152588">
        <ele>600.0</ele>
        <time>2019-05-02T08:31:43.000Z</time>
      </trkpt>
      <trkpt lat="42.6832160949707" lon="-7.991003036499023">
        <ele>599.0</ele>
        <time>2019-05-02T08:31:51.000Z</time>
      </trkpt>
      <trkpt lat="42.683250427246094" lon="-7.991035461425781">
        <ele>597.0</ele>
        <time>2019-05-02T08:32:00.000Z</time>
      </trkpt>
      <trkpt lat="42.68326187133789" lon="-7.991044044494629">
        <ele>597.0</ele>
        <time>2019-05-02T08:32:00.000Z</time>
      </trkpt>
      <trkpt lat="42.68326950073242" lon="-7.991050720214844">
        <ele>597.0</ele>
        <time>2019-05-02T08:32:00.000Z</time>
      </trkpt>
      <trkpt lat="42.68327331542969" lon="-7.991056442260742">
        <ele>597.0</ele>
        <time>2019-05-02T08:32:00.000Z</time>
      </trkpt>
      <trkpt lat="42.68327713012695" lon="-7.991061210632324">
        <ele>597.0</ele>
        <time>2019-05-02T08:32:01.000Z</time>
      </trkpt>
      <trkpt lat="42.68332290649414" lon="-7.991108417510986">
        <ele>596.0</ele>
        <time>2019-05-02T08:32:07.000Z</time>
      </trkpt>
      <trkpt lat="42.68338394165039" lon="-7.991172790527344">
        <ele>595.0</ele>
        <time>2019-05-02T08:32:13.000Z</time>
      </trkpt>
      <trkpt lat="42.68345260620117" lon="-7.991248607635498">
        <ele>594.0</ele>
        <time>2019-05-02T08:32:19.000Z</time>
      </trkpt>
      <trkpt lat="42.683528900146484" lon="-7.991330146789551">
        <ele>592.0</ele>
        <time>2019-05-02T08:32:26.000Z</time>
      </trkpt>
      <trkpt lat="42.683555603027344" lon="-7.991363048553467">
        <ele>591.0</ele>
        <time>2019-05-02T08:32:30.000Z</time>
      </trkpt>
      <trkpt lat="42.683570861816406" lon="-7.9913811683654785">
        <ele>591.0</ele>
        <time>2019-05-02T08:32:34.000Z</time>
      </trkpt>
      <trkpt lat="42.68357849121094" lon="-7.991390228271484">
        <ele>591.0</ele>
        <time>2019-05-02T08:32:38.000Z</time>
      </trkpt>
      <trkpt lat="42.68357849121094" lon="-7.99139404296875">
        <ele>590.0</ele>
        <time>2019-05-02T08:32:43.000Z</time>
      </trkpt>
      <trkpt lat="42.683589935302734" lon="-7.9914045333862305">
        <ele>590.0</ele>
        <time>2019-05-02T08:32:43.000Z</time>
      </trkpt>
      <trkpt lat="42.68359375" lon="-7.99141263961792">
        <ele>590.0</ele>
        <time>2019-05-02T08:32:43.000Z</time>
      </trkpt>
      <trkpt lat="42.68360137939453" lon="-7.991419315338135">
        <ele>590.0</ele>
        <time>2019-05-02T08:32:43.000Z</time>
      </trkpt>
      <trkpt lat="42.6836051940918" lon="-7.991425037384033">
        <ele>590.0</ele>
        <time>2019-05-02T08:32:44.000Z</time>
      </trkpt>
      <trkpt lat="42.68364334106445" lon="-7.991469383239746">
        <ele>590.0</ele>
        <time>2019-05-02T08:32:49.000Z</time>
      </trkpt>
      <trkpt lat="42.68368911743164" lon="-7.9915289878845215">
        <ele>590.0</ele>
        <time>2019-05-02T08:32:55.000Z</time>
      </trkpt>
      <trkpt lat="42.68375015258789" lon="-7.991598129272461">
        <ele>590.0</ele>
        <time>2019-05-02T08:33:00.000Z</time>
      </trkpt>
      <trkpt lat="42.68381118774414" lon="-7.991672992706299">
        <ele>590.0</ele>
        <time>2019-05-02T08:33:06.000Z</time>
      </trkpt>
      <trkpt lat="42.683876037597656" lon="-7.991820335388184">
        <ele>587.0</ele>
        <time>2019-05-02T08:33:31.000Z</time>
      </trkpt>
      <trkpt lat="42.68389892578125" lon="-7.991867542266846">
        <ele>587.0</ele>
        <time>2019-05-02T08:33:32.000Z</time>
      </trkpt>
      <trkpt lat="42.68396759033203" lon="-7.9920878410339355">
        <ele>585.0</ele>
        <time>2019-05-02T08:33:44.000Z</time>
      </trkpt>
      <trkpt lat="42.68397521972656" lon="-7.992130756378174">
        <ele>581.0</ele>
        <time>2019-05-02T08:34:04.000Z</time>
      </trkpt>
      <trkpt lat="42.68397903442383" lon="-7.992162227630615">
        <ele>581.0</ele>
        <time>2019-05-02T08:34:05.000Z</time>
      </trkpt>
      <trkpt lat="42.683998107910156" lon="-7.992637634277344">
        <ele>579.0</ele>
        <time>2019-05-02T08:34:27.000Z</time>
      </trkpt>
      <trkpt lat="42.68398666381836" lon="-7.992969989776611">
        <ele>581.0</ele>
        <time>2019-05-02T08:45:30.000Z</time>
      </trkpt>
      <trkpt lat="42.68418884277344" lon="-7.993011474609375">
        <ele>581.0</ele>
        <time>2019-05-02T08:45:44.000Z</time>
      </trkpt>
      <trkpt lat="42.68418884277344" lon="-7.993011474609375">
        <ele>581.0</ele>
        <time>2019-05-02T08:45:45.000Z</time>
      </trkpt>
      <trkpt lat="42.68453598022461" lon="-7.993169784545898">
        <ele>578.0</ele>
        <time>2019-05-02T08:46:14.000Z</time>
      </trkpt>
      <trkpt lat="42.68463897705078" lon="-7.993182182312012">
        <ele>580.0</ele>
        <time>2019-05-02T08:46:27.000Z</time>
      </trkpt>
      <trkpt lat="42.68467712402344" lon="-7.993200302124023">
        <ele>583.0</ele>
        <time>2019-05-02T08:47:31.000Z</time>
      </trkpt>
      <trkpt lat="42.6847038269043" lon="-7.993213176727295">
        <ele>583.0</ele>
        <time>2019-05-02T08:47:32.000Z</time>
      </trkpt>
      <trkpt lat="42.684844970703125" lon="-7.993391990661621">
        <ele>583.0</ele>
        <time>2019-05-02T08:47:37.000Z</time>
      </trkpt>
      <trkpt lat="42.68486022949219" lon="-7.993401050567627">
        <ele>583.0</ele>
        <time>2019-05-02T08:47:39.000Z</time>
      </trkpt>
      <trkpt lat="42.684871673583984" lon="-7.993395805358887">
        <ele>583.0</ele>
        <time>2019-05-02T08:47:42.000Z</time>
      </trkpt>
      <trkpt lat="42.684879302978516" lon="-7.993380069732666">
        <ele>582.0</ele>
        <time>2019-05-02T08:47:44.000Z</time>
      </trkpt>
      <trkpt lat="42.684879302978516" lon="-7.9933600425720215">
        <ele>582.0</ele>
        <time>2019-05-02T08:47:47.000Z</time>
      </trkpt>
      <trkpt lat="42.68489456176758" lon="-7.9933857917785645">
        <ele>582.0</ele>
        <time>2019-05-02T08:47:53.000Z</time>
      </trkpt>
      <trkpt lat="42.68490982055664" lon="-7.993426322937012">
        <ele>581.0</ele>
        <time>2019-05-02T08:47:59.000Z</time>
      </trkpt>
      <trkpt lat="42.6849250793457" lon="-7.993476390838623">
        <ele>581.0</ele>
        <time>2019-05-02T08:48:06.000Z</time>
      </trkpt>
      <trkpt lat="42.68494415283203" lon="-7.993530750274658">
        <ele>580.0</ele>
        <time>2019-05-02T08:48:12.000Z</time>
      </trkpt>
      <trkpt lat="42.68495178222656" lon="-7.993550777435303">
        <ele>580.0</ele>
        <time>2019-05-02T08:48:12.000Z</time>
      </trkpt>
      <trkpt lat="42.68495559692383" lon="-7.993561267852783">
        <ele>580.0</ele>
        <time>2019-05-02T08:48:12.000Z</time>
      </trkpt>
      <trkpt lat="42.68495559692383" lon="-7.993565559387207">
        <ele>580.0</ele>
        <time>2019-05-02T08:48:13.000Z</time>
      </trkpt>
      <trkpt lat="42.684959411621094" lon="-7.993566513061523">
        <ele>580.0</ele>
        <time>2019-05-02T08:48:13.000Z</time>
      </trkpt>
      <trkpt lat="42.68495178222656" lon="-7.993648052215576">
        <ele>580.0</ele>
        <time>2019-05-02T08:48:15.000Z</time>
      </trkpt>
      <trkpt lat="42.684940338134766" lon="-7.993758678436279">
        <ele>580.0</ele>
        <time>2019-05-02T08:48:18.000Z</time>
      </trkpt>
      <trkpt lat="42.68495559692383" lon="-7.993775844573975">
        <ele>580.0</ele>
        <time>2019-05-02T08:48:19.000Z</time>
      </trkpt>
      <trkpt lat="42.68497848510742" lon="-7.993780136108398">
        <ele>580.0</ele>
        <time>2019-05-02T08:48:20.000Z</time>
      </trkpt>
      <trkpt lat="42.68500900268555" lon="-7.993775844573975">
        <ele>579.0</ele>
        <time>2019-05-02T08:48:21.000Z</time>
      </trkpt>
      <trkpt lat="42.68504333496094" lon="-7.993767261505127">
        <ele>578.0</ele>
        <time>2019-05-02T08:48:22.000Z</time>
      </trkpt>
      <trkpt lat="42.6850471496582" lon="-7.993776798248291">
        <ele>578.0</ele>
        <time>2019-05-02T08:48:24.000Z</time>
      </trkpt>
      <trkpt lat="42.6850471496582" lon="-7.993789196014404">
        <ele>578.0</ele>
        <time>2019-05-02T08:48:26.000Z</time>
      </trkpt>
      <trkpt lat="42.685035705566406" lon="-7.99380350112915">
        <ele>578.0</ele>
        <time>2019-05-02T08:48:27.000Z</time>
      </trkpt>
      <trkpt lat="42.685028076171875" lon="-7.993818759918213">
        <ele>578.0</ele>
        <time>2019-05-02T08:48:29.000Z</time>
      </trkpt>
      <trkpt lat="42.685028076171875" lon="-7.993834495544434">
        <ele>577.0</ele>
        <time>2019-05-02T08:48:35.000Z</time>
      </trkpt>
      <trkpt lat="42.68503189086914" lon="-7.993851184844971">
        <ele>575.0</ele>
        <time>2019-05-02T08:48:40.000Z</time>
      </trkpt>
      <trkpt lat="42.685035705566406" lon="-7.993868350982666">
        <ele>573.0</ele>
        <time>2019-05-02T08:48:45.000Z</time>
      </trkpt>
      <trkpt lat="42.68504333496094" lon="-7.9938859939575195">
        <ele>572.0</ele>
        <time>2019-05-02T08:48:51.000Z</time>
      </trkpt>
      <trkpt lat="42.6850471496582" lon="-7.993898868560791">
        <ele>571.0</ele>
        <time>2019-05-02T08:48:51.000Z</time>
      </trkpt>
      <trkpt lat="42.6850471496582" lon="-7.993910312652588">
        <ele>571.0</ele>
        <time>2019-05-02T08:48:51.000Z</time>
      </trkpt>
      <trkpt lat="42.68505096435547" lon="-7.99392032623291">
        <ele>571.0</ele>
        <time>2019-05-02T08:48:52.000Z</time>
      </trkpt>
      <trkpt lat="42.685054779052734" lon="-7.993929862976074">
        <ele>572.0</ele>
        <time>2019-05-02T08:48:52.000Z</time>
      </trkpt>
      <trkpt lat="42.685062408447266" lon="-7.99401330947876">
        <ele>572.0</ele>
        <time>2019-05-02T08:48:56.000Z</time>
      </trkpt>
      <trkpt lat="42.6850700378418" lon="-7.99412727355957">
        <ele>572.0</ele>
        <time>2019-05-02T08:49:01.000Z</time>
      </trkpt>
      <trkpt lat="42.685081481933594" lon="-7.994261741638184">
        <ele>572.0</ele>
        <time>2019-05-02T08:49:05.000Z</time>
      </trkpt>
      <trkpt lat="42.68509292602539" lon="-7.994406223297119">
        <ele>573.0</ele>
        <time>2019-05-02T08:49:10.000Z</time>
      </trkpt>
      <trkpt lat="42.68510818481445" lon="-7.994500637054443">
        <ele>573.0</ele>
        <time>2019-05-02T08:49:15.000Z</time>
      </trkpt>
      <trkpt lat="42.68512725830078" lon="-7.994585037231445">
        <ele>574.0</ele>
        <time>2019-05-02T08:49:20.000Z</time>
      </trkpt>
      <trkpt lat="42.68514633178711" lon="-7.994662761688232">
        <ele>574.0</ele>
        <time>2019-05-02T08:49:26.000Z</time>
      </trkpt>
      <trkpt lat="42.68516540527344" lon="-7.994736671447754">
        <ele>574.0</ele>
        <time>2019-05-02T08:49:31.000Z</time>
      </trkpt>
      <trkpt lat="42.685176849365234" lon="-7.994771480560303">
        <ele>575.0</ele>
        <time>2019-05-02T08:49:35.000Z</time>
      </trkpt>
      <trkpt lat="42.685184478759766" lon="-7.994785785675049">
        <ele>575.0</ele>
        <time>2019-05-02T08:49:39.000Z</time>
      </trkpt>
      <trkpt lat="42.6851921081543" lon="-7.994787216186523">
        <ele>575.0</ele>
        <time>2019-05-02T08:49:43.000Z</time>
      </trkpt>
      <trkpt lat="42.68519592285156" lon="-7.994781970977783">
        <ele>576.0</ele>
        <time>2019-05-02T08:49:48.000Z</time>
      </trkpt>
      <trkpt lat="42.68519973754883" lon="-7.994790554046631">
        <ele>576.0</ele>
        <time>2019-05-02T08:49:48.000Z</time>
      </trkpt>
      <trkpt lat="42.68520736694336" lon="-7.994798183441162">
        <ele>576.0</ele>
        <time>2019-05-02T08:49:48.000Z</time>
      </trkpt>
      <trkpt lat="42.685211181640625" lon="-7.994804859161377">
        <ele>576.0</ele>
        <time>2019-05-02T08:49:48.000Z</time>
      </trkpt>
      <trkpt lat="42.68521499633789" lon="-7.994811534881592">
        <ele>576.0</ele>
        <time>2019-05-02T08:49:49.000Z</time>
      </trkpt>
      <trkpt lat="42.68545913696289" lon="-7.995171070098877">
        <ele>576.0</ele>
        <time>2019-05-02T08:50:08.000Z</time>
      </trkpt>
      <trkpt lat="42.68564987182617" lon="-7.995490550994873">
        <ele>573.0</ele>
        <time>2019-05-02T08:50:36.000Z</time>
      </trkpt>
      <trkpt lat="42.68570327758789" lon="-7.995626926422119">
        <ele>576.0</ele>
        <time>2019-05-02T08:50:51.000Z</time>
      </trkpt>
      <trkpt lat="42.68571853637695" lon="-7.995666027069092">
        <ele>576.0</ele>
        <time>2019-05-02T08:50:52.000Z</time>
      </trkpt>
      <trkpt lat="42.68581008911133" lon="-7.996099472045898">
        <ele>573.0</ele>
        <time>2019-05-02T08:51:17.000Z</time>
      </trkpt>
      <trkpt lat="42.68584060668945" lon="-7.996232509613037">
        <ele>573.0</ele>
        <time>2019-05-02T08:51:26.000Z</time>
      </trkpt>
      <trkpt lat="42.68584060668945" lon="-7.996259689331055">
        <ele>574.0</ele>
        <time>2019-05-02T08:51:41.000Z</time>
      </trkpt>
      <trkpt lat="42.68584060668945" lon="-7.99628210067749">
        <ele>574.0</ele>
        <time>2019-05-02T08:51:42.000Z</time>
      </trkpt>
      <trkpt lat="42.68584442138672" lon="-7.996322154998779">
        <ele>574.0</ele>
        <time>2019-05-02T08:51:44.000Z</time>
      </trkpt>
      <trkpt lat="42.68584442138672" lon="-7.996368885040283">
        <ele>574.0</ele>
        <time>2019-05-02T08:51:47.000Z</time>
      </trkpt>
      <trkpt lat="42.685848236083984" lon="-7.996401786804199">
        <ele>574.0</ele>
        <time>2019-05-02T08:51:48.000Z</time>
      </trkpt>
      <trkpt lat="42.685848236083984" lon="-7.996426105499268">
        <ele>574.0</ele>
        <time>2019-05-02T08:51:50.000Z</time>
      </trkpt>
      <trkpt lat="42.68585205078125" lon="-7.996466159820557">
        <ele>574.0</ele>
        <time>2019-05-02T08:51:54.000Z</time>
      </trkpt>
      <trkpt lat="42.685855865478516" lon="-7.996496200561523">
        <ele>574.0</ele>
        <time>2019-05-02T08:51:55.000Z</time>
      </trkpt>
      <trkpt lat="42.685882568359375" lon="-7.996968746185303">
        <ele>577.0</ele>
        <time>2019-05-02T08:52:12.000Z</time>
      </trkpt>
      <trkpt lat="42.68597412109375" lon="-7.997450828552246">
        <ele>580.0</ele>
        <time>2019-05-02T08:52:43.000Z</time>
      </trkpt>
      <trkpt lat="42.686058044433594" lon="-7.997933387756348">
        <ele>583.0</ele>
        <time>2019-05-02T08:53:14.000Z</time>
      </trkpt>
      <trkpt lat="42.68610382080078" lon="-7.998413562774658">
        <ele>582.0</ele>
        <time>2019-05-02T08:53:45.000Z</time>
      </trkpt>
      <trkpt lat="42.68620300292969" lon="-7.998829364776611">
        <ele>577.0</ele>
        <time>2019-05-02T08:54:12.000Z</time>
      </trkpt>
      <trkpt lat="42.68618392944336" lon="-7.999078750610352">
        <ele>579.0</ele>
        <time>2019-05-02T08:54:30.000Z</time>
      </trkpt>
      <trkpt lat="42.68622589111328" lon="-7.9993367195129395">
        <ele>578.0</ele>
        <time>2019-05-02T08:54:48.000Z</time>
      </trkpt>
      <trkpt lat="42.68623733520508" lon="-7.999593257904053">
        <ele>577.0</ele>
        <time>2019-05-02T08:55:03.000Z</time>
      </trkpt>
      <trkpt lat="42.686336517333984" lon="-8.000065803527832">
        <ele>568.0</ele>
        <time>2019-05-02T08:55:34.000Z</time>
      </trkpt>
      <trkpt lat="42.68645477294922" lon="-8.000523567199707">
        <ele>563.0</ele>
        <time>2019-05-02T08:56:05.000Z</time>
      </trkpt>
      <trkpt lat="42.686641693115234" lon="-8.000935554504395">
        <ele>565.0</ele>
        <time>2019-05-02T08:56:34.000Z</time>
      </trkpt>
      <trkpt lat="42.68681716918945" lon="-8.001352310180664">
        <ele>563.0</ele>
        <time>2019-05-02T08:57:04.000Z</time>
      </trkpt>
      <trkpt lat="42.686893463134766" lon="-8.00146484375">
        <ele>565.0</ele>
        <time>2019-05-02T08:57:15.000Z</time>
      </trkpt>
      <trkpt lat="42.68691635131836" lon="-8.001555442810059">
        <ele>565.0</ele>
        <time>2019-05-02T08:57:28.000Z</time>
      </trkpt>
      <trkpt lat="42.686927795410156" lon="-8.00160026550293">
        <ele>565.0</ele>
        <time>2019-05-02T08:57:29.000Z</time>
      </trkpt>
      <trkpt lat="42.687007904052734" lon="-8.00208854675293">
        <ele>566.0</ele>
        <time>2019-05-02T08:57:49.000Z</time>
      </trkpt>
      <trkpt lat="42.68703079223633" lon="-8.00257682800293">
        <ele>566.0</ele>
        <time>2019-05-02T08:58:20.000Z</time>
      </trkpt>
      <trkpt lat="42.68706130981445" lon="-8.003050804138184">
        <ele>563.0</ele>
        <time>2019-05-02T08:58:47.000Z</time>
      </trkpt>
      <trkpt lat="42.68706512451172" lon="-8.003146171569824">
        <ele>562.0</ele>
        <time>2019-05-02T08:58:54.000Z</time>
      </trkpt>
      <trkpt lat="42.68707275390625" lon="-8.00323486328125">
        <ele>562.0</ele>
        <time>2019-05-02T08:59:08.000Z</time>
      </trkpt>
      <trkpt lat="42.687076568603516" lon="-8.003280639648438">
        <ele>562.0</ele>
        <time>2019-05-02T08:59:09.000Z</time>
      </trkpt>
      <trkpt lat="42.687110900878906" lon="-8.003775596618652">
        <ele>563.0</ele>
        <time>2019-05-02T08:59:30.000Z</time>
      </trkpt>
      <trkpt lat="42.687076568603516" lon="-8.004033088684082">
        <ele>565.0</ele>
        <time>2019-05-02T08:59:47.000Z</time>
      </trkpt>
      <trkpt lat="42.687049865722656" lon="-8.004082679748535">
        <ele>566.0</ele>
        <time>2019-05-02T08:59:51.000Z</time>
      </trkpt>
      <trkpt lat="42.68701171875" lon="-8.004125595092773">
        <ele>566.0</ele>
        <time>2019-05-02T08:59:55.000Z</time>
      </trkpt>
      <trkpt lat="42.68696975708008" lon="-8.004164695739746">
        <ele>567.0</ele>
        <time>2019-05-02T08:59:59.000Z</time>
      </trkpt>
      <trkpt lat="42.68692398071289" lon="-8.004201889038086">
        <ele>568.0</ele>
        <time>2019-05-02T09:00:02.000Z</time>
      </trkpt>
      <trkpt lat="42.68688201904297" lon="-8.004240036010742">
        <ele>569.0</ele>
        <time>2019-05-02T09:00:06.000Z</time>
      </trkpt>
      <trkpt lat="42.68684005737305" lon="-8.004276275634766">
        <ele>570.0</ele>
        <time>2019-05-02T09:00:10.000Z</time>
      </trkpt>
      <trkpt lat="42.68679428100586" lon="-8.004311561584473">
        <ele>572.0</ele>
        <time>2019-05-02T09:00:14.000Z</time>
      </trkpt>
      <trkpt lat="42.68675231933594" lon="-8.00434684753418">
        <ele>573.0</ele>
        <time>2019-05-02T09:00:17.000Z</time>
      </trkpt>
      <trkpt lat="42.686729431152344" lon="-8.004399299621582">
        <ele>572.0</ele>
        <time>2019-05-02T09:00:21.000Z</time>
      </trkpt>
      <trkpt lat="42.68671417236328" lon="-8.0044584274292">
        <ele>571.0</ele>
        <time>2019-05-02T09:00:25.000Z</time>
      </trkpt>
      <trkpt lat="42.68670654296875" lon="-8.004521369934082">
        <ele>569.0</ele>
        <time>2019-05-02T09:00:29.000Z</time>
      </trkpt>
      <trkpt lat="42.686702728271484" lon="-8.00458812713623">
        <ele>567.0</ele>
        <time>2019-05-02T09:00:32.000Z</time>
      </trkpt>
      <trkpt lat="42.68666458129883" lon="-8.004642486572266">
        <ele>566.0</ele>
        <time>2019-05-02T09:00:38.000Z</time>
      </trkpt>
      <trkpt lat="42.686614990234375" lon="-8.004695892333984">
        <ele>566.0</ele>
        <time>2019-05-02T09:00:43.000Z</time>
      </trkpt>
      <trkpt lat="42.686561584472656" lon="-8.00474739074707">
        <ele>565.0</ele>
        <time>2019-05-02T09:00:48.000Z</time>
      </trkpt>
      <trkpt lat="42.686500549316406" lon="-8.00479793548584">
        <ele>565.0</ele>
        <time>2019-05-02T09:00:53.000Z</time>
      </trkpt>
      <trkpt lat="42.68648147583008" lon="-8.004817962646484">
        <ele>564.0</ele>
        <time>2019-05-02T09:00:58.000Z</time>
      </trkpt>
      <trkpt lat="42.68647384643555" lon="-8.004822731018066">
        <ele>563.0</ele>
        <time>2019-05-02T09:01:02.000Z</time>
      </trkpt>
      <trkpt lat="42.68647003173828" lon="-8.0048189163208">
        <ele>563.0</ele>
        <time>2019-05-02T09:01:07.000Z</time>
      </trkpt>
      <trkpt lat="42.68647384643555" lon="-8.004810333251953">
        <ele>562.0</ele>
        <time>2019-05-02T09:01:11.000Z</time>
      </trkpt>
      <trkpt lat="42.68647003173828" lon="-8.004813194274902">
        <ele>562.0</ele>
        <time>2019-05-02T09:01:12.000Z</time>
      </trkpt>
      <trkpt lat="42.68646240234375" lon="-8.004816055297852">
        <ele>562.0</ele>
        <time>2019-05-02T09:01:12.000Z</time>
      </trkpt>
      <trkpt lat="42.686458587646484" lon="-8.004817962646484">
        <ele>562.0</ele>
        <time>2019-05-02T09:01:12.000Z</time>
      </trkpt>
      <trkpt lat="42.68645477294922" lon="-8.004819869995117">
        <ele>562.0</ele>
        <time>2019-05-02T09:01:12.000Z</time>
      </trkpt>
      <trkpt lat="42.6864013671875" lon="-8.00485897064209">
        <ele>562.0</ele>
        <time>2019-05-02T09:01:16.000Z</time>
      </trkpt>
      <trkpt lat="42.68632888793945" lon="-8.004912376403809">
        <ele>561.0</ele>
        <time>2019-05-02T09:01:20.000Z</time>
      </trkpt>
      <trkpt lat="42.686241149902344" lon="-8.004976272583008">
        <ele>561.0</ele>
        <time>2019-05-02T09:01:24.000Z</time>
      </trkpt>
      <trkpt lat="42.68614959716797" lon="-8.005045890808105">
        <ele>560.0</ele>
        <time>2019-05-02T09:01:28.000Z</time>
      </trkpt>
      <trkpt lat="42.686119079589844" lon="-8.005146026611328">
        <ele>560.0</ele>
        <time>2019-05-02T09:01:37.000Z</time>
      </trkpt>
      <trkpt lat="42.68611145019531" lon="-8.005265235900879">
        <ele>558.0</ele>
        <time>2019-05-02T09:01:45.000Z</time>
      </trkpt>
      <trkpt lat="42.68611145019531" lon="-8.005395889282227">
        <ele>557.0</ele>
        <time>2019-05-02T09:01:54.000Z</time>
      </trkpt>
      <trkpt lat="42.68612289428711" lon="-8.005533218383789">
        <ele>556.0</ele>
        <time>2019-05-02T09:02:02.000Z</time>
      </trkpt>
      <trkpt lat="42.686134338378906" lon="-8.005653381347656">
        <ele>556.0</ele>
        <time>2019-05-02T09:02:10.000Z</time>
      </trkpt>
      <trkpt lat="42.68614959716797" lon="-8.005772590637207">
        <ele>555.0</ele>
        <time>2019-05-02T09:02:17.000Z</time>
      </trkpt>
      <trkpt lat="42.6861686706543" lon="-8.005891799926758">
        <ele>555.0</ele>
        <time>2019-05-02T09:02:25.000Z</time>
      </trkpt>
      <trkpt lat="42.686187744140625" lon="-8.006010055541992">
        <ele>556.0</ele>
        <time>2019-05-02T09:02:32.000Z</time>
      </trkpt>
      <trkpt lat="42.6861572265625" lon="-8.006250381469727">
        <ele>555.0</ele>
        <time>2019-05-02T09:02:47.000Z</time>
      </trkpt>
      <trkpt lat="42.68609619140625" lon="-8.006491661071777">
        <ele>555.0</ele>
        <time>2019-05-02T09:03:02.000Z</time>
      </trkpt>
      <trkpt lat="42.68607711791992" lon="-8.00655746459961">
        <ele>555.0</ele>
        <time>2019-05-02T09:03:06.000Z</time>
      </trkpt>
      <trkpt lat="42.68605422973633" lon="-8.006600379943848">
        <ele>555.0</ele>
        <time>2019-05-02T09:03:09.000Z</time>
      </trkpt>
      <trkpt lat="42.68603515625" lon="-8.006628036499023">
        <ele>555.0</ele>
        <time>2019-05-02T09:03:12.000Z</time>
      </trkpt>
      <trkpt lat="42.68601608276367" lon="-8.006649017333984">
        <ele>555.0</ele>
        <time>2019-05-02T09:03:15.000Z</time>
      </trkpt>
      <trkpt lat="42.686004638671875" lon="-8.00667953491211">
        <ele>555.0</ele>
        <time>2019-05-02T09:03:19.000Z</time>
      </trkpt>
      <trkpt lat="42.68599319458008" lon="-8.006705284118652">
        <ele>555.0</ele>
        <time>2019-05-02T09:03:22.000Z</time>
      </trkpt>
      <trkpt lat="42.68598937988281" lon="-8.006730079650879">
        <ele>555.0</ele>
        <time>2019-05-02T09:03:26.000Z</time>
      </trkpt>
      <trkpt lat="42.68598175048828" lon="-8.006752967834473">
        <ele>555.0</ele>
        <time>2019-05-02T09:03:29.000Z</time>
      </trkpt>
      <trkpt lat="42.685977935791016" lon="-8.006768226623535">
        <ele>555.0</ele>
        <time>2019-05-02T09:03:30.000Z</time>
      </trkpt>
      <trkpt lat="42.68597412109375" lon="-8.006780624389648">
        <ele>555.0</ele>
        <time>2019-05-02T09:03:30.000Z</time>
      </trkpt>
      <trkpt lat="42.685970306396484" lon="-8.006789207458496">
        <ele>555.0</ele>
        <time>2019-05-02T09:03:30.000Z</time>
      </trkpt>
      <trkpt lat="42.68596649169922" lon="-8.006796836853027">
        <ele>555.0</ele>
        <time>2019-05-02T09:03:30.000Z</time>
      </trkpt>
      <trkpt lat="42.68596649169922" lon="-8.006880760192871">
        <ele>556.0</ele>
        <time>2019-05-02T09:03:36.000Z</time>
      </trkpt>
      <trkpt lat="42.685970306396484" lon="-8.00699520111084">
        <ele>556.0</ele>
        <time>2019-05-02T09:03:42.000Z</time>
      </trkpt>
      <trkpt lat="42.68597412109375" lon="-8.007129669189453">
        <ele>557.0</ele>
        <time>2019-05-02T09:03:48.000Z</time>
      </trkpt>
      <trkpt lat="42.685977935791016" lon="-8.00727367401123">
        <ele>557.0</ele>
        <time>2019-05-02T09:03:54.000Z</time>
      </trkpt>
      <trkpt lat="42.68598556518555" lon="-8.007392883300781">
        <ele>557.0</ele>
        <time>2019-05-02T09:04:03.000Z</time>
      </trkpt>
      <trkpt lat="42.68599319458008" lon="-8.007512092590332">
        <ele>555.0</ele>
        <time>2019-05-02T09:04:11.000Z</time>
      </trkpt>
      <trkpt lat="42.68600082397461" lon="-8.0076322555542">
        <ele>554.0</ele>
        <time>2019-05-02T09:04:20.000Z</time>
      </trkpt>
      <trkpt lat="42.686012268066406" lon="-8.00775146484375">
        <ele>552.0</ele>
        <time>2019-05-02T09:04:28.000Z</time>
      </trkpt>
      <trkpt lat="42.68598937988281" lon="-8.007847785949707">
        <ele>550.0</ele>
        <time>2019-05-02T09:04:45.000Z</time>
      </trkpt>
      <trkpt lat="42.68598175048828" lon="-8.007892608642578">
        <ele>550.0</ele>
        <time>2019-05-02T09:04:46.000Z</time>
      </trkpt>
      <trkpt lat="42.68592071533203" lon="-8.008058547973633">
        <ele>550.0</ele>
        <time>2019-05-02T09:04:52.000Z</time>
      </trkpt>
      <trkpt lat="42.685916900634766" lon="-8.008077621459961">
        <ele>549.0</ele>
        <time>2019-05-02T09:05:33.000Z</time>
      </trkpt>
      <trkpt lat="42.6859130859375" lon="-8.00809383392334">
        <ele>549.0</ele>
        <time>2019-05-02T09:05:34.000Z</time>
      </trkpt>
      <trkpt lat="42.68586349487305" lon="-8.008499145507812">
        <ele>550.0</ele>
        <time>2019-05-02T09:05:46.000Z</time>
      </trkpt>
      <trkpt lat="42.685821533203125" lon="-8.00857162475586">
        <ele>550.0</ele>
        <time>2019-05-02T09:05:52.000Z</time>
      </trkpt>
      <trkpt lat="42.68581771850586" lon="-8.008639335632324">
        <ele>550.0</ele>
        <time>2019-05-02T09:06:05.000Z</time>
      </trkpt>
      <trkpt lat="42.68581771850586" lon="-8.008722305297852">
        <ele>549.0</ele>
        <time>2019-05-02T09:06:18.000Z</time>
      </trkpt>
      <trkpt lat="42.68581771850586" lon="-8.008742332458496">
        <ele>549.0</ele>
        <time>2019-05-02T09:06:19.000Z</time>
      </trkpt>
      <trkpt lat="42.685813903808594" lon="-8.00875473022461">
        <ele>549.0</ele>
        <time>2019-05-02T09:06:19.000Z</time>
      </trkpt>
      <trkpt lat="42.685813903808594" lon="-8.00876235961914">
        <ele>549.0</ele>
        <time>2019-05-02T09:06:19.000Z</time>
      </trkpt>
      <trkpt lat="42.685813903808594" lon="-8.008768081665039">
        <ele>549.0</ele>
        <time>2019-05-02T09:06:19.000Z</time>
      </trkpt>
      <trkpt lat="42.68583679199219" lon="-8.0088472366333">
        <ele>550.0</ele>
        <time>2019-05-02T09:06:25.000Z</time>
      </trkpt>
      <trkpt lat="42.68586349487305" lon="-8.008955955505371">
        <ele>550.0</ele>
        <time>2019-05-02T09:06:31.000Z</time>
      </trkpt>
      <trkpt lat="42.6859016418457" lon="-8.00908374786377">
        <ele>551.0</ele>
        <time>2019-05-02T09:06:37.000Z</time>
      </trkpt>
      <trkpt lat="42.68593978881836" lon="-8.009221076965332">
        <ele>552.0</ele>
        <time>2019-05-02T09:06:43.000Z</time>
      </trkpt>
      <trkpt lat="42.68594741821289" lon="-8.009258270263672">
        <ele>552.0</ele>
        <time>2019-05-02T09:06:44.000Z</time>
      </trkpt>
      <trkpt lat="42.685951232910156" lon="-8.00926399230957">
        <ele>552.0</ele>
        <time>2019-05-02T09:06:44.000Z</time>
      </trkpt>
      <trkpt lat="42.68594741821289" lon="-8.009248733520508">
        <ele>552.0</ele>
        <time>2019-05-02T09:06:44.000Z</time>
      </trkpt>
      <trkpt lat="42.68593978881836" lon="-8.009222984313965">
        <ele>552.0</ele>
        <time>2019-05-02T09:06:44.000Z</time>
      </trkpt>
      <trkpt lat="42.6859245300293" lon="-8.009245872497559">
        <ele>552.0</ele>
        <time>2019-05-02T09:06:48.000Z</time>
      </trkpt>
      <trkpt lat="42.68590545654297" lon="-8.009279251098633">
        <ele>553.0</ele>
        <time>2019-05-02T09:06:52.000Z</time>
      </trkpt>
      <trkpt lat="42.68587875366211" lon="-8.009318351745605">
        <ele>554.0</ele>
        <time>2019-05-02T09:06:56.000Z</time>
      </trkpt>
      <trkpt lat="42.68585205078125" lon="-8.009361267089844">
        <ele>554.0</ele>
        <time>2019-05-02T09:06:59.000Z</time>
      </trkpt>
      <trkpt lat="42.68584442138672" lon="-8.009379386901855">
        <ele>554.0</ele>
        <time>2019-05-02T09:07:00.000Z</time>
      </trkpt>
      <trkpt lat="42.68583679199219" lon="-8.00938892364502">
        <ele>554.0</ele>
        <time>2019-05-02T09:07:00.000Z</time>
      </trkpt>
      <trkpt lat="42.68583297729492" lon="-8.009394645690918">
        <ele>554.0</ele>
        <time>2019-05-02T09:07:00.000Z</time>
      </trkpt>
      <trkpt lat="42.685829162597656" lon="-8.009398460388184">
        <ele>554.0</ele>
        <time>2019-05-02T09:07:00.000Z</time>
      </trkpt>
      <trkpt lat="42.685672760009766" lon="-8.009839057922363">
        <ele>548.0</ele>
        <time>2019-05-02T09:07:24.000Z</time>
      </trkpt>
      <trkpt lat="42.68567657470703" lon="-8.009982109069824">
        <ele>547.0</ele>
        <time>2019-05-02T09:07:34.000Z</time>
      </trkpt>
      <trkpt lat="42.6856689453125" lon="-8.01005744934082">
        <ele>550.0</ele>
        <time>2019-05-02T09:07:49.000Z</time>
      </trkpt>
      <trkpt lat="42.6856689453125" lon="-8.010101318359375">
        <ele>550.0</ele>
        <time>2019-05-02T09:07:50.000Z</time>
      </trkpt>
      <trkpt lat="42.68568801879883" lon="-8.010441780090332">
        <ele>551.0</ele>
        <time>2019-05-02T09:08:02.000Z</time>
      </trkpt>
      <trkpt lat="42.68570327758789" lon="-8.010490417480469">
        <ele>550.0</ele>
        <time>2019-05-02T09:08:05.000Z</time>
      </trkpt>
      <trkpt lat="42.685726165771484" lon="-8.010523796081543">
        <ele>549.0</ele>
        <time>2019-05-02T09:08:08.000Z</time>
      </trkpt>
      <trkpt lat="42.685752868652344" lon="-8.010546684265137">
        <ele>548.0</ele>
        <time>2019-05-02T09:08:11.000Z</time>
      </trkpt>
      <trkpt lat="42.68578338623047" lon="-8.010564804077148">
        <ele>547.0</ele>
        <time>2019-05-02T09:08:14.000Z</time>
      </trkpt>
      <trkpt lat="42.68581771850586" lon="-8.010648727416992">
        <ele>547.0</ele>
        <time>2019-05-02T09:08:22.000Z</time>
      </trkpt>
      <trkpt lat="42.685855865478516" lon="-8.010754585266113">
        <ele>548.0</ele>
        <time>2019-05-02T09:08:29.000Z</time>
      </trkpt>
      <trkpt lat="42.6859016418457" lon="-8.010875701904297">
        <ele>549.0</ele>
        <time>2019-05-02T09:08:36.000Z</time>
      </trkpt>
      <trkpt lat="42.68594741821289" lon="-8.011003494262695">
        <ele>551.0</ele>
        <time>2019-05-02T09:08:43.000Z</time>
      </trkpt>
      <trkpt lat="42.685970306396484" lon="-8.011120796203613">
        <ele>551.0</ele>
        <time>2019-05-02T09:08:51.000Z</time>
      </trkpt>
      <trkpt lat="42.68598556518555" lon="-8.011240005493164">
        <ele>552.0</ele>
        <time>2019-05-02T09:08:58.000Z</time>
      </trkpt>
      <trkpt lat="42.68599319458008" lon="-8.011361122131348">
        <ele>553.0</ele>
        <time>2019-05-02T09:09:06.000Z</time>
      </trkpt>
      <trkpt lat="42.68600082397461" lon="-8.011483192443848">
        <ele>554.0</ele>
        <time>2019-05-02T09:09:13.000Z</time>
      </trkpt>
      <trkpt lat="42.68597412109375" lon="-8.011703491210938">
        <ele>555.0</ele>
        <time>2019-05-02T09:09:29.000Z</time>
      </trkpt>
      <trkpt lat="42.685916900634766" lon="-8.01191520690918">
        <ele>555.0</ele>
        <time>2019-05-02T09:09:45.000Z</time>
      </trkpt>
      <trkpt lat="42.685909271240234" lon="-8.011960983276367">
        <ele>555.0</ele>
        <time>2019-05-02T09:09:49.000Z</time>
      </trkpt>
      <trkpt lat="42.6859016418457" lon="-8.011981964111328">
        <ele>556.0</ele>
        <time>2019-05-02T09:09:53.000Z</time>
      </trkpt>
      <trkpt lat="42.6859016418457" lon="-8.01198673248291">
        <ele>556.0</ele>
        <time>2019-05-02T09:09:57.000Z</time>
      </trkpt>
      <trkpt lat="42.6859016418457" lon="-8.011981964111328">
        <ele>556.0</ele>
        <time>2019-05-02T09:10:02.000Z</time>
      </trkpt>
      <trkpt lat="42.68589782714844" lon="-8.011994361877441">
        <ele>556.0</ele>
        <time>2019-05-02T09:10:02.000Z</time>
      </trkpt>
      <trkpt lat="42.68589401245117" lon="-8.012004852294922">
        <ele>556.0</ele>
        <time>2019-05-02T09:10:02.000Z</time>
      </trkpt>
      <trkpt lat="42.68589401245117" lon="-8.01201343536377">
        <ele>556.0</ele>
        <time>2019-05-02T09:10:02.000Z</time>
      </trkpt>
      <trkpt lat="42.685890197753906" lon="-8.012022972106934">
        <ele>556.0</ele>
        <time>2019-05-02T09:10:03.000Z</time>
      </trkpt>
      <trkpt lat="42.685882568359375" lon="-8.012097358703613">
        <ele>556.0</ele>
        <time>2019-05-02T09:10:07.000Z</time>
      </trkpt>
      <trkpt lat="42.68586730957031" lon="-8.012199401855469">
        <ele>557.0</ele>
        <time>2019-05-02T09:10:12.000Z</time>
      </trkpt>
      <trkpt lat="42.68585205078125" lon="-8.01231861114502">
        <ele>558.0</ele>
        <time>2019-05-02T09:10:17.000Z</time>
      </trkpt>
      <trkpt lat="42.68583679199219" lon="-8.012447357177734">
        <ele>558.0</ele>
        <time>2019-05-02T09:10:22.000Z</time>
      </trkpt>
      <trkpt lat="42.68583297729492" lon="-8.01249885559082">
        <ele>559.0</ele>
        <time>2019-05-02T09:10:26.000Z</time>
      </trkpt>
      <trkpt lat="42.68583297729492" lon="-8.012526512145996">
        <ele>559.0</ele>
        <time>2019-05-02T09:10:30.000Z</time>
      </trkpt>
      <trkpt lat="42.68583679199219" lon="-8.012539863586426">
        <ele>559.0</ele>
        <time>2019-05-02T09:10:34.000Z</time>
      </trkpt>
      <trkpt lat="42.68584060668945" lon="-8.012545585632324">
        <ele>559.0</ele>
        <time>2019-05-02T09:10:38.000Z</time>
      </trkpt>
      <trkpt lat="42.68584060668945" lon="-8.012561798095703">
        <ele>559.0</ele>
        <time>2019-05-02T09:10:38.000Z</time>
      </trkpt>
      <trkpt lat="42.68584060668945" lon="-8.012574195861816">
        <ele>559.0</ele>
        <time>2019-05-02T09:10:38.000Z</time>
      </trkpt>
      <trkpt lat="42.68584060668945" lon="-8.012584686279297">
        <ele>559.0</ele>
        <time>2019-05-02T09:10:38.000Z</time>
      </trkpt>
      <trkpt lat="42.68584442138672" lon="-8.012594223022461">
        <ele>559.0</ele>
        <time>2019-05-02T09:10:39.000Z</time>
      </trkpt>
      <trkpt lat="42.68584060668945" lon="-8.013038635253906">
        <ele>558.0</ele>
        <time>2019-05-02T09:11:00.000Z</time>
      </trkpt>
      <trkpt lat="42.685821533203125" lon="-8.013090133666992">
        <ele>556.0</ele>
        <time>2019-05-02T09:11:17.000Z</time>
      </trkpt>
      <trkpt lat="42.685813903808594" lon="-8.013124465942383">
        <ele>556.0</ele>
        <time>2019-05-02T09:11:18.000Z</time>
      </trkpt>
      <trkpt lat="42.6856689453125" lon="-8.01356029510498">
        <ele>554.0</ele>
        <time>2019-05-02T09:11:37.000Z</time>
      </trkpt>
      <trkpt lat="42.68547821044922" lon="-8.013906478881836">
        <ele>556.0</ele>
        <time>2019-05-02T09:12:33.000Z</time>
      </trkpt>
      <trkpt lat="42.685482025146484" lon="-8.013903617858887">
        <ele>556.0</ele>
        <time>2019-05-02T09:12:34.000Z</time>
      </trkpt>
      <trkpt lat="42.68547058105469" lon="-8.013916015625">
        <ele>557.0</ele>
        <time>2019-05-02T09:12:43.000Z</time>
      </trkpt>
      <trkpt lat="42.68545913696289" lon="-8.013935089111328">
        <ele>558.0</ele>
        <time>2019-05-02T09:12:51.000Z</time>
      </trkpt>
      <trkpt lat="42.68544006347656" lon="-8.013957023620605">
        <ele>559.0</ele>
        <time>2019-05-02T09:13:00.000Z</time>
      </trkpt>
      <trkpt lat="42.685420989990234" lon="-8.013981819152832">
        <ele>561.0</ele>
        <time>2019-05-02T09:13:09.000Z</time>
      </trkpt>
      <trkpt lat="42.6854133605957" lon="-8.013994216918945">
        <ele>561.0</ele>
        <time>2019-05-02T09:13:09.000Z</time>
      </trkpt>
      <trkpt lat="42.68540573120117" lon="-8.014002799987793">
        <ele>561.0</ele>
        <time>2019-05-02T09:13:09.000Z</time>
      </trkpt>
      <trkpt lat="42.68539810180664" lon="-8.014010429382324">
        <ele>561.0</ele>
        <time>2019-05-02T09:13:10.000Z</time>
      </trkpt>
      <trkpt lat="42.685394287109375" lon="-8.014016151428223">
        <ele>561.0</ele>
        <time>2019-05-02T09:13:10.000Z</time>
      </trkpt>
      <trkpt lat="42.68537139892578" lon="-8.014046669006348">
        <ele>561.0</ele>
        <time>2019-05-02T09:13:12.000Z</time>
      </trkpt>
      <trkpt lat="42.68533706665039" lon="-8.014084815979004">
        <ele>561.0</ele>
        <time>2019-05-02T09:13:13.000Z</time>
      </trkpt>
      <trkpt lat="42.685302734375" lon="-8.014129638671875">
        <ele>562.0</ele>
        <time>2019-05-02T09:13:15.000Z</time>
      </trkpt>
      <trkpt lat="42.685264587402344" lon="-8.014177322387695">
        <ele>563.0</ele>
        <time>2019-05-02T09:13:17.000Z</time>
      </trkpt>
      <trkpt lat="42.685237884521484" lon="-8.014227867126465">
        <ele>563.0</ele>
        <time>2019-05-02T09:13:20.000Z</time>
      </trkpt>
      <trkpt lat="42.68521499633789" lon="-8.0142822265625">
        <ele>564.0</ele>
        <time>2019-05-02T09:13:23.000Z</time>
      </trkpt>
      <trkpt lat="42.68519592285156" lon="-8.0143404006958">
        <ele>565.0</ele>
        <time>2019-05-02T09:13:27.000Z</time>
      </trkpt>
      <trkpt lat="42.685176849365234" lon="-8.014398574829102">
        <ele>566.0</ele>
        <time>2019-05-02T09:13:30.000Z</time>
      </trkpt>
      <trkpt lat="42.685142517089844" lon="-8.014412879943848">
        <ele>566.0</ele>
        <time>2019-05-02T09:13:33.000Z</time>
      </trkpt>
      <trkpt lat="42.68510818481445" lon="-8.014410972595215">
        <ele>567.0</ele>
        <time>2019-05-02T09:13:36.000Z</time>
      </trkpt>
      <trkpt lat="42.68506622314453" lon="-8.014396667480469">
        <ele>568.0</ele>
        <time>2019-05-02T09:13:39.000Z</time>
      </trkpt>
      <trkpt lat="42.68502426147461" lon="-8.014376640319824">
        <ele>568.0</ele>
        <time>2019-05-02T09:13:42.000Z</time>
      </trkpt>
      <trkpt lat="42.68500518798828" lon="-8.014387130737305">
        <ele>568.0</ele>
        <time>2019-05-02T09:13:43.000Z</time>
      </trkpt>
      <trkpt lat="42.68499755859375" lon="-8.014404296875">
        <ele>569.0</ele>
        <time>2019-05-02T09:13:45.000Z</time>
      </trkpt>
      <trkpt lat="42.68499755859375" lon="-8.014425277709961">
        <ele>569.0</ele>
        <time>2019-05-02T09:13:46.000Z</time>
      </trkpt>
      <trkpt lat="42.68499755859375" lon="-8.014449119567871">
        <ele>569.0</ele>
        <time>2019-05-02T09:13:48.000Z</time>
      </trkpt>
      <trkpt lat="42.684993743896484" lon="-8.014458656311035">
        <ele>569.0</ele>
        <time>2019-05-02T09:13:49.000Z</time>
      </trkpt>
      <trkpt lat="42.68498992919922" lon="-8.014464378356934">
        <ele>569.0</ele>
        <time>2019-05-02T09:13:50.000Z</time>
      </trkpt>
      <trkpt lat="42.68498611450195" lon="-8.0144681930542">
        <ele>569.0</ele>
        <time>2019-05-02T09:13:51.000Z</time>
      </trkpt>
      <trkpt lat="42.68498229980469" lon="-8.014471054077148">
        <ele>569.0</ele>
        <time>2019-05-02T09:13:52.000Z</time>
      </trkpt>
      <trkpt lat="42.68497085571289" lon="-8.014481544494629">
        <ele>570.0</ele>
        <time>2019-05-02T09:13:58.000Z</time>
      </trkpt>
      <trkpt lat="42.68495559692383" lon="-8.014495849609375">
        <ele>570.0</ele>
        <time>2019-05-02T09:14:04.000Z</time>
      </trkpt>
      <trkpt lat="42.6849365234375" lon="-8.014510154724121">
        <ele>571.0</ele>
        <time>2019-05-02T09:14:11.000Z</time>
      </trkpt>
      <trkpt lat="42.68492126464844" lon="-8.0145263671875">
        <ele>572.0</ele>
        <time>2019-05-02T09:14:17.000Z</time>
      </trkpt>
      <trkpt lat="42.68490982055664" lon="-8.014535903930664">
        <ele>572.0</ele>
        <time>2019-05-02T09:14:17.000Z</time>
      </trkpt>
      <trkpt lat="42.68490219116211" lon="-8.014543533325195">
        <ele>572.0</ele>
        <time>2019-05-02T09:14:17.000Z</time>
      </trkpt>
      <trkpt lat="42.68489456176758" lon="-8.014549255371094">
        <ele>572.0</ele>
        <time>2019-05-02T09:14:18.000Z</time>
      </trkpt>
      <trkpt lat="42.68489074707031" lon="-8.014555931091309">
        <ele>572.0</ele>
        <time>2019-05-02T09:14:18.000Z</time>
      </trkpt>
      <trkpt lat="42.68486022949219" lon="-8.014580726623535">
        <ele>572.0</ele>
        <time>2019-05-02T09:14:22.000Z</time>
      </trkpt>
      <trkpt lat="42.68482208251953" lon="-8.01461410522461">
        <ele>572.0</ele>
        <time>2019-05-02T09:14:25.000Z</time>
      </trkpt>
      <trkpt lat="42.68478012084961" lon="-8.014652252197266">
        <ele>573.0</ele>
        <time>2019-05-02T09:14:29.000Z</time>
      </trkpt>
      <trkpt lat="42.684730529785156" lon="-8.014692306518555">
        <ele>573.0</ele>
        <time>2019-05-02T09:14:33.000Z</time>
      </trkpt>
      <trkpt lat="42.684715270996094" lon="-8.014705657958984">
        <ele>573.0</ele>
        <time>2019-05-02T09:14:36.000Z</time>
      </trkpt>
      <trkpt lat="42.68471145629883" lon="-8.01470947265625">
        <ele>573.0</ele>
        <time>2019-05-02T09:14:39.000Z</time>
      </trkpt>
      <trkpt lat="42.684715270996094" lon="-8.014707565307617">
        <ele>573.0</ele>
        <time>2019-05-02T09:14:42.000Z</time>
      </trkpt>
      <trkpt lat="42.68471908569336" lon="-8.014701843261719">
        <ele>573.0</ele>
        <time>2019-05-02T09:14:45.000Z</time>
      </trkpt>
      <trkpt lat="42.68470764160156" lon="-8.014710426330566">
        <ele>573.0</ele>
        <time>2019-05-02T09:14:46.000Z</time>
      </trkpt>
      <trkpt lat="42.68464279174805" lon="-8.014756202697754">
        <ele>572.0</ele>
        <time>2019-05-02T09:14:49.000Z</time>
      </trkpt>
      <trkpt lat="42.684513092041016" lon="-8.01484203338623">
        <ele>571.0</ele>
        <time>2019-05-02T09:14:55.000Z</time>
      </trkpt>
      <trkpt lat="42.68437576293945" lon="-8.015036582946777">
        <ele>571.0</ele>
        <time>2019-05-02T09:15:12.000Z</time>
      </trkpt>
      <trkpt lat="42.68434143066406" lon="-8.015159606933594">
        <ele>569.0</ele>
        <time>2019-05-02T09:15:46.000Z</time>
      </trkpt>
      <trkpt lat="42.68431854248047" lon="-8.015295028686523">
        <ele>566.0</ele>
        <time>2019-05-02T09:16:20.000Z</time>
      </trkpt>
      <trkpt lat="42.68431091308594" lon="-8.015326499938965">
        <ele>566.0</ele>
        <time>2019-05-02T09:16:20.000Z</time>
      </trkpt>
      <trkpt lat="42.68430709838867" lon="-8.015344619750977">
        <ele>566.0</ele>
        <time>2019-05-02T09:16:20.000Z</time>
      </trkpt>
      <trkpt lat="42.68430709838867" lon="-8.015353202819824">
        <ele>566.0</ele>
        <time>2019-05-02T09:16:21.000Z</time>
      </trkpt>
      <trkpt lat="42.68430709838867" lon="-8.01535701751709">
        <ele>566.0</ele>
        <time>2019-05-02T09:16:21.000Z</time>
      </trkpt>
      <trkpt lat="42.68429946899414" lon="-8.01538372039795">
        <ele>566.0</ele>
        <time>2019-05-02T09:16:21.000Z</time>
      </trkpt>
      <trkpt lat="42.684295654296875" lon="-8.015416145324707">
        <ele>567.0</ele>
        <time>2019-05-02T09:16:21.000Z</time>
      </trkpt>
      <trkpt lat="42.684288024902344" lon="-8.015450477600098">
        <ele>567.0</ele>
        <time>2019-05-02T09:16:22.000Z</time>
      </trkpt>
      <trkpt lat="42.68428421020508" lon="-8.015487670898438">
        <ele>567.0</ele>
        <time>2019-05-02T09:16:22.000Z</time>
      </trkpt>
      <trkpt lat="42.684288024902344" lon="-8.01551342010498">
        <ele>567.0</ele>
        <time>2019-05-02T09:16:24.000Z</time>
      </trkpt>
      <trkpt lat="42.68429946899414" lon="-8.015536308288574">
        <ele>568.0</ele>
        <time>2019-05-02T09:16:25.000Z</time>
      </trkpt>
      <trkpt lat="42.6843147277832" lon="-8.015557289123535">
        <ele>568.0</ele>
        <time>2019-05-02T09:16:27.000Z</time>
      </trkpt>
      <trkpt lat="42.684329986572266" lon="-8.01557731628418">
        <ele>569.0</ele>
        <time>2019-05-02T09:16:29.000Z</time>
      </trkpt>
      <trkpt lat="42.684329986572266" lon="-8.015586853027344">
        <ele>570.0</ele>
        <time>2019-05-02T09:16:35.000Z</time>
      </trkpt>
      <trkpt lat="42.684322357177734" lon="-8.015592575073242">
        <ele>570.0</ele>
        <time>2019-05-02T09:16:40.000Z</time>
      </trkpt>
      <trkpt lat="42.6843147277832" lon="-8.015593528747559">
        <ele>571.0</ele>
        <time>2019-05-02T09:16:46.000Z</time>
      </trkpt>
      <trkpt lat="42.68429946899414" lon="-8.015593528747559">
        <ele>571.0</ele>
        <time>2019-05-02T09:16:52.000Z</time>
      </trkpt>
      <trkpt lat="42.684295654296875" lon="-8.015597343444824">
        <ele>572.0</ele>
        <time>2019-05-02T09:16:52.000Z</time>
      </trkpt>
      <trkpt lat="42.684288024902344" lon="-8.015600204467773">
        <ele>572.0</ele>
        <time>2019-05-02T09:16:52.000Z</time>
      </trkpt>
      <trkpt lat="42.68428421020508" lon="-8.015603065490723">
        <ele>572.0</ele>
        <time>2019-05-02T09:16:53.000Z</time>
      </trkpt>
      <trkpt lat="42.68428039550781" lon="-8.015605926513672">
        <ele>571.0</ele>
        <time>2019-05-02T09:16:53.000Z</time>
      </trkpt>
      <trkpt lat="42.684261322021484" lon="-8.015616416931152">
        <ele>571.0</ele>
        <time>2019-05-02T09:16:54.000Z</time>
      </trkpt>
      <trkpt lat="42.68423843383789" lon="-8.015630722045898">
        <ele>571.0</ele>
        <time>2019-05-02T09:16:54.000Z</time>
      </trkpt>
      <trkpt lat="42.68421173095703" lon="-8.015645980834961">
        <ele>571.0</ele>
        <time>2019-05-02T09:16:55.000Z</time>
      </trkpt>
      <trkpt lat="42.68418502807617" lon="-8.01566219329834">
        <ele>571.0</ele>
        <time>2019-05-02T09:16:56.000Z</time>
      </trkpt>
      <trkpt lat="42.684173583984375" lon="-8.015706062316895">
        <ele>571.0</ele>
        <time>2019-05-02T09:17:00.000Z</time>
      </trkpt>
      <trkpt lat="42.684165954589844" lon="-8.015762329101562">
        <ele>571.0</ele>
        <time>2019-05-02T09:17:04.000Z</time>
      </trkpt>
      <trkpt lat="42.68416213989258" lon="-8.015826225280762">
        <ele>571.0</ele>
        <time>2019-05-02T09:17:09.000Z</time>
      </trkpt>
      <trkpt lat="42.68415832519531" lon="-8.015894889831543">
        <ele>571.0</ele>
        <time>2019-05-02T09:17:13.000Z</time>
      </trkpt>
      <trkpt lat="42.68415069580078" lon="-8.015931129455566">
        <ele>571.0</ele>
        <time>2019-05-02T09:17:17.000Z</time>
      </trkpt>
      <trkpt lat="42.684146881103516" lon="-8.015957832336426">
        <ele>571.0</ele>
        <time>2019-05-02T09:17:21.000Z</time>
      </trkpt>
      <trkpt lat="42.684139251708984" lon="-8.015978813171387">
        <ele>571.0</ele>
        <time>2019-05-02T09:17:25.000Z</time>
      </trkpt>
      <trkpt lat="42.68413162231445" lon="-8.015995979309082">
        <ele>571.0</ele>
        <time>2019-05-02T09:17:29.000Z</time>
      </trkpt>
      <trkpt lat="42.68412399291992" lon="-8.01603889465332">
        <ele>570.0</ele>
        <time>2019-05-02T09:17:34.000Z</time>
      </trkpt>
      <trkpt lat="42.684112548828125" lon="-8.01608943939209">
        <ele>570.0</ele>
        <time>2019-05-02T09:17:39.000Z</time>
      </trkpt>
      <trkpt lat="42.684104919433594" lon="-8.016143798828125">
        <ele>570.0</ele>
        <time>2019-05-02T09:17:45.000Z</time>
      </trkpt>
      <trkpt lat="42.6840934753418" lon="-8.016201972961426">
        <ele>570.0</ele>
        <time>2019-05-02T09:17:50.000Z</time>
      </trkpt>
      <trkpt lat="42.68408966064453" lon="-8.01622486114502">
        <ele>570.0</ele>
        <time>2019-05-02T09:17:50.000Z</time>
      </trkpt>
      <trkpt lat="42.684085845947266" lon="-8.0162353515625">
        <ele>570.0</ele>
        <time>2019-05-02T09:17:50.000Z</time>
      </trkpt>
      <trkpt lat="42.684085845947266" lon="-8.016239166259766">
        <ele>570.0</ele>
        <time>2019-05-02T09:17:51.000Z</time>
      </trkpt>
      <trkpt lat="42.684085845947266" lon="-8.01623821258545">
        <ele>570.0</ele>
        <time>2019-05-02T09:17:51.000Z</time>
      </trkpt>
      <trkpt lat="42.68407440185547" lon="-8.016278266906738">
        <ele>570.0</ele>
        <time>2019-05-02T09:17:54.000Z</time>
      </trkpt>
      <trkpt lat="42.684059143066406" lon="-8.01633071899414">
        <ele>570.0</ele>
        <time>2019-05-02T09:17:57.000Z</time>
      </trkpt>
      <trkpt lat="42.684043884277344" lon="-8.016392707824707">
        <ele>570.0</ele>
        <time>2019-05-02T09:18:00.000Z</time>
      </trkpt>
      <trkpt lat="42.684024810791016" lon="-8.016458511352539">
        <ele>570.0</ele>
        <time>2019-05-02T09:18:03.000Z</time>
      </trkpt>
      <trkpt lat="42.68400955200195" lon="-8.016524314880371">
        <ele>569.0</ele>
        <time>2019-05-02T09:18:08.000Z</time>
      </trkpt>
      <trkpt lat="42.683990478515625" lon="-8.016594886779785">
        <ele>567.0</ele>
        <time>2019-05-02T09:18:14.000Z</time>
      </trkpt>
      <trkpt lat="42.68397521972656" lon="-8.016668319702148">
        <ele>566.0</ele>
        <time>2019-05-02T09:18:19.000Z</time>
      </trkpt>
      <trkpt lat="42.6839599609375" lon="-8.016743659973145">
        <ele>564.0</ele>
        <time>2019-05-02T09:18:25.000Z</time>
      </trkpt>
      <trkpt lat="42.68394470214844" lon="-8.016985893249512">
        <ele>560.0</ele>
        <time>2019-05-02T09:18:42.000Z</time>
      </trkpt>
      <trkpt lat="42.683895111083984" lon="-8.017084121704102">
        <ele>558.0</ele>
        <time>2019-05-02T09:18:51.000Z</time>
      </trkpt>
      <trkpt lat="42.68383026123047" lon="-8.017170906066895">
        <ele>556.0</ele>
        <time>2019-05-02T09:19:00.000Z</time>
      </trkpt>
      <trkpt lat="42.683837890625" lon="-8.01724624633789">
        <ele>555.0</ele>
        <time>2019-05-02T09:19:06.000Z</time>
      </trkpt>
      <trkpt lat="42.68386459350586" lon="-8.017333030700684">
        <ele>553.0</ele>
        <time>2019-05-02T09:19:13.000Z</time>
      </trkpt>
      <trkpt lat="42.683902740478516" lon="-8.017427444458008">
        <ele>551.0</ele>
        <time>2019-05-02T09:19:19.000Z</time>
      </trkpt>
      <trkpt lat="42.6839485168457" lon="-8.017525672912598">
        <ele>549.0</ele>
        <time>2019-05-02T09:19:26.000Z</time>
      </trkpt>
      <trkpt lat="42.68400192260742" lon="-8.017611503601074">
        <ele>547.0</ele>
        <time>2019-05-02T09:19:32.000Z</time>
      </trkpt>
      <trkpt lat="42.68406295776367" lon="-8.017695426940918">
        <ele>547.0</ele>
        <time>2019-05-02T09:19:38.000Z</time>
      </trkpt>
      <trkpt lat="42.68413162231445" lon="-8.017778396606445">
        <ele>546.0</ele>
        <time>2019-05-02T09:19:45.000Z</time>
      </trkpt>
      <trkpt lat="42.684207916259766" lon="-8.017861366271973">
        <ele>545.0</ele>
        <time>2019-05-02T09:19:51.000Z</time>
      </trkpt>
      <trkpt lat="42.68425750732422" lon="-8.01795768737793">
        <ele>545.0</ele>
        <time>2019-05-02T09:19:58.000Z</time>
      </trkpt>
      <trkpt lat="42.684303283691406" lon="-8.018058776855469">
        <ele>544.0</ele>
        <time>2019-05-02T09:20:04.000Z</time>
      </trkpt>
      <trkpt lat="42.68434524536133" lon="-8.018162727355957">
        <ele>543.0</ele>
        <time>2019-05-02T09:20:11.000Z</time>
      </trkpt>
      <trkpt lat="42.68438720703125" lon="-8.018268585205078">
        <ele>543.0</ele>
        <time>2019-05-02T09:20:18.000Z</time>
      </trkpt>
      <trkpt lat="42.684425354003906" lon="-8.0183744430542">
        <ele>543.0</ele>
        <time>2019-05-02T09:20:25.000Z</time>
      </trkpt>
      <trkpt lat="42.68446350097656" lon="-8.018482208251953">
        <ele>542.0</ele>
        <time>2019-05-02T09:20:32.000Z</time>
      </trkpt>
      <trkpt lat="42.68450164794922" lon="-8.018589973449707">
        <ele>543.0</ele>
        <time>2019-05-02T09:20:39.000Z</time>
      </trkpt>
      <trkpt lat="42.684539794921875" lon="-8.018699645996094">
        <ele>543.0</ele>
        <time>2019-05-02T09:20:46.000Z</time>
      </trkpt>
      <trkpt lat="42.68455123901367" lon="-8.018745422363281">
        <ele>542.0</ele>
        <time>2019-05-02T09:20:47.000Z</time>
      </trkpt>
      <trkpt lat="42.68455123901367" lon="-8.01876449584961">
        <ele>542.0</ele>
        <time>2019-05-02T09:20:49.000Z</time>
      </trkpt>
      <trkpt lat="42.68454360961914" lon="-8.018767356872559">
        <ele>542.0</ele>
        <time>2019-05-02T09:20:50.000Z</time>
      </trkpt>
      <trkpt lat="42.684532165527344" lon="-8.018760681152344">
        <ele>542.0</ele>
        <time>2019-05-02T09:20:52.000Z</time>
      </trkpt>
      <trkpt lat="42.684532165527344" lon="-8.018774032592773">
        <ele>542.0</ele>
        <time>2019-05-02T09:20:56.000Z</time>
      </trkpt>
      <trkpt lat="42.68453598022461" lon="-8.018786430358887">
        <ele>542.0</ele>
        <time>2019-05-02T09:21:00.000Z</time>
      </trkpt>
      <trkpt lat="42.684539794921875" lon="-8.018797874450684">
        <ele>542.0</ele>
        <time>2019-05-02T09:21:05.000Z</time>
      </trkpt>
      <trkpt lat="42.684539794921875" lon="-8.01880931854248">
        <ele>542.0</ele>
        <time>2019-05-02T09:21:09.000Z</time>
      </trkpt>
      <trkpt lat="42.684547424316406" lon="-8.018843650817871">
        <ele>542.0</ele>
        <time>2019-05-02T09:21:10.000Z</time>
      </trkpt>
      <trkpt lat="42.68464660644531" lon="-8.01930046081543">
        <ele>543.0</ele>
        <time>2019-05-02T09:21:25.000Z</time>
      </trkpt>
      <trkpt lat="42.6846809387207" lon="-8.019718170166016">
        <ele>553.0</ele>
        <time>2019-05-02T09:21:53.000Z</time>
      </trkpt>
      <trkpt lat="42.68466567993164" lon="-8.01980209350586">
        <ele>555.0</ele>
        <time>2019-05-02T09:22:05.000Z</time>
      </trkpt>
      <trkpt lat="42.684635162353516" lon="-8.019827842712402">
        <ele>556.0</ele>
        <time>2019-05-02T09:22:17.000Z</time>
      </trkpt>
      <trkpt lat="42.684627532958984" lon="-8.01984691619873">
        <ele>557.0</ele>
        <time>2019-05-02T09:22:17.000Z</time>
      </trkpt>
      <trkpt lat="42.68461990356445" lon="-8.019861221313477">
        <ele>557.0</ele>
        <time>2019-05-02T09:22:17.000Z</time>
      </trkpt>
      <trkpt lat="42.68461608886719" lon="-8.01987361907959">
        <ele>557.0</ele>
        <time>2019-05-02T09:22:18.000Z</time>
      </trkpt>
      <trkpt lat="42.684608459472656" lon="-8.01988410949707">
        <ele>556.0</ele>
        <time>2019-05-02T09:22:18.000Z</time>
      </trkpt>
      <trkpt lat="42.684574127197266" lon="-8.0199556350708">
        <ele>557.0</ele>
        <time>2019-05-02T09:22:22.000Z</time>
      </trkpt>
      <trkpt lat="42.68452835083008" lon="-8.020051956176758">
        <ele>557.0</ele>
        <time>2019-05-02T09:22:26.000Z</time>
      </trkpt>
      <trkpt lat="42.684471130371094" lon="-8.020163536071777">
        <ele>558.0</ele>
        <time>2019-05-02T09:22:30.000Z</time>
      </trkpt>
      <trkpt lat="42.684410095214844" lon="-8.020283699035645">
        <ele>559.0</ele>
        <time>2019-05-02T09:22:34.000Z</time>
      </trkpt>
      <trkpt lat="42.68439483642578" lon="-8.020413398742676">
        <ele>561.0</ele>
        <time>2019-05-02T09:22:43.000Z</time>
      </trkpt>
      <trkpt lat="42.68441390991211" lon="-8.02051067352295">
        <ele>564.0</ele>
        <time>2019-05-02T09:22:53.000Z</time>
      </trkpt>
      <trkpt lat="42.68439865112305" lon="-8.020574569702148">
        <ele>567.0</ele>
        <time>2019-05-02T09:23:03.000Z</time>
      </trkpt>
      <trkpt lat="42.68437194824219" lon="-8.02061653137207">
        <ele>569.0</ele>
        <time>2019-05-02T09:23:13.000Z</time>
      </trkpt>
      <trkpt lat="42.68436813354492" lon="-8.02063274383545">
        <ele>569.0</ele>
        <time>2019-05-02T09:23:13.000Z</time>
      </trkpt>
      <trkpt lat="42.68436050415039" lon="-8.020645141601562">
        <ele>569.0</ele>
        <time>2019-05-02T09:23:13.000Z</time>
      </trkpt>
      <trkpt lat="42.684356689453125" lon="-8.020654678344727">
        <ele>569.0</ele>
        <time>2019-05-02T09:23:14.000Z</time>
      </trkpt>
      <trkpt lat="42.684356689453125" lon="-8.020663261413574">
        <ele>569.0</ele>
        <time>2019-05-02T09:23:14.000Z</time>
      </trkpt>
      <trkpt lat="42.68433380126953" lon="-8.020740509033203">
        <ele>569.0</ele>
        <time>2019-05-02T09:23:21.000Z</time>
      </trkpt>
      <trkpt lat="42.68431091308594" lon="-8.020845413208008">
        <ele>570.0</ele>
        <time>2019-05-02T09:23:27.000Z</time>
      </trkpt>
      <trkpt lat="42.68428039550781" lon="-8.02096939086914">
        <ele>571.0</ele>
        <time>2019-05-02T09:23:34.000Z</time>
      </trkpt>
      <trkpt lat="42.68424606323242" lon="-8.021101951599121">
        <ele>571.0</ele>
        <time>2019-05-02T09:23:41.000Z</time>
      </trkpt>
      <trkpt lat="42.68423843383789" lon="-8.021153450012207">
        <ele>571.0</ele>
        <time>2019-05-02T09:23:42.000Z</time>
      </trkpt>
      <trkpt lat="42.68423080444336" lon="-8.021181106567383">
        <ele>571.0</ele>
        <time>2019-05-02T09:23:44.000Z</time>
      </trkpt>
      <trkpt lat="42.68423080444336" lon="-8.02119255065918">
        <ele>571.0</ele>
        <time>2019-05-02T09:23:45.000Z</time>
      </trkpt>
      <trkpt lat="42.684234619140625" lon="-8.021196365356445">
        <ele>571.0</ele>
        <time>2019-05-02T09:23:47.000Z</time>
      </trkpt>
      <trkpt lat="42.684226989746094" lon="-8.02125072479248">
        <ele>571.0</ele>
        <time>2019-05-02T09:23:53.000Z</time>
      </trkpt>
      <trkpt lat="42.68422317504883" lon="-8.021318435668945">
        <ele>571.0</ele>
        <time>2019-05-02T09:23:59.000Z</time>
      </trkpt>
      <trkpt lat="42.6842155456543" lon="-8.021395683288574">
        <ele>572.0</ele>
        <time>2019-05-02T09:24:05.000Z</time>
      </trkpt>
      <trkpt lat="42.68421173095703" lon="-8.021475791931152">
        <ele>572.0</ele>
        <time>2019-05-02T09:24:11.000Z</time>
      </trkpt>
      <trkpt lat="42.684207916259766" lon="-8.021506309509277">
        <ele>572.0</ele>
        <time>2019-05-02T09:24:11.000Z</time>
      </trkpt>
      <trkpt lat="42.684207916259766" lon="-8.021519660949707">
        <ele>572.0</ele>
        <time>2019-05-02T09:24:11.000Z</time>
      </trkpt>
      <trkpt lat="42.684207916259766" lon="-8.02152156829834">
        <ele>572.0</ele>
        <time>2019-05-02T09:24:12.000Z</time>
      </trkpt>
      <trkpt lat="42.684207916259766" lon="-8.021517753601074">
        <ele>572.0</ele>
        <time>2019-05-02T09:24:12.000Z</time>
      </trkpt>
      <trkpt lat="42.6841926574707" lon="-8.02171516418457">
        <ele>571.0</ele>
        <time>2019-05-02T09:24:25.000Z</time>
      </trkpt>
      <trkpt lat="42.6841926574707" lon="-8.021746635437012">
        <ele>570.0</ele>
        <time>2019-05-02T09:24:42.000Z</time>
      </trkpt>
      <trkpt lat="42.68418884277344" lon="-8.021771430969238">
        <ele>570.0</ele>
        <time>2019-05-02T09:24:43.000Z</time>
      </trkpt>
      <trkpt lat="42.684139251708984" lon="-8.022218704223633">
        <ele>568.0</ele>
        <time>2019-05-02T09:24:59.000Z</time>
      </trkpt>
      <trkpt lat="42.68412780761719" lon="-8.022329330444336">
        <ele>569.0</ele>
        <time>2019-05-02T09:25:16.000Z</time>
      </trkpt>
      <trkpt lat="42.68412399291992" lon="-8.022377014160156">
        <ele>569.0</ele>
        <time>2019-05-02T09:25:17.000Z</time>
      </trkpt>
      <trkpt lat="42.684120178222656" lon="-8.02242660522461">
        <ele>570.0</ele>
        <time>2019-05-02T09:25:19.000Z</time>
      </trkpt>
      <trkpt lat="42.68410873413086" lon="-8.022472381591797">
        <ele>569.0</ele>
        <time>2019-05-02T09:25:36.000Z</time>
      </trkpt>
      <trkpt lat="42.68410110473633" lon="-8.022506713867188">
        <ele>569.0</ele>
        <time>2019-05-02T09:25:37.000Z</time>
      </trkpt>
      <trkpt lat="42.684059143066406" lon="-8.02271556854248">
        <ele>570.0</ele>
        <time>2019-05-02T09:25:41.000Z</time>
      </trkpt>
      <trkpt lat="42.68405532836914" lon="-8.022745132446289">
        <ele>569.0</ele>
        <time>2019-05-02T09:25:51.000Z</time>
      </trkpt>
      <trkpt lat="42.68405532836914" lon="-8.022769927978516">
        <ele>569.0</ele>
        <time>2019-05-02T09:25:52.000Z</time>
      </trkpt>
      <trkpt lat="42.68397521972656" lon="-8.0232515335083">
        <ele>568.0</ele>
        <time>2019-05-02T09:26:07.000Z</time>
      </trkpt>
      <trkpt lat="42.68384552001953" lon="-8.023715019226074">
        <ele>567.0</ele>
        <time>2019-05-02T09:26:36.000Z</time>
      </trkpt>
      <trkpt lat="42.683746337890625" lon="-8.024171829223633">
        <ele>565.0</ele>
        <time>2019-05-02T09:27:07.000Z</time>
      </trkpt>
      <trkpt lat="42.68374252319336" lon="-8.02419376373291">
        <ele>565.0</ele>
        <time>2019-05-02T09:27:10.000Z</time>
      </trkpt>
      <trkpt lat="42.68373489379883" lon="-8.02424144744873">
        <ele>566.0</ele>
        <time>2019-05-02T09:27:25.000Z</time>
      </trkpt>
      <trkpt lat="42.6837272644043" lon="-8.024274826049805">
        <ele>566.0</ele>
        <time>2019-05-02T09:27:26.000Z</time>
      </trkpt>
      <trkpt lat="42.68364715576172" lon="-8.02475643157959">
        <ele>566.0</ele>
        <time>2019-05-02T09:27:47.000Z</time>
      </trkpt>
      <trkpt lat="42.683570861816406" lon="-8.02507209777832">
        <ele>572.0</ele>
        <time>2019-05-02T09:28:10.000Z</time>
      </trkpt>
      <trkpt lat="42.6835823059082" lon="-8.02529239654541">
        <ele>577.0</ele>
        <time>2019-05-02T09:28:22.000Z</time>
      </trkpt>
      <trkpt lat="42.68358612060547" lon="-8.025322914123535">
        <ele>577.0</ele>
        <time>2019-05-02T09:28:23.000Z</time>
      </trkpt>
      <trkpt lat="42.68355941772461" lon="-8.025803565979004">
        <ele>579.0</ele>
        <time>2019-05-02T09:28:53.000Z</time>
      </trkpt>
      <trkpt lat="42.68351364135742" lon="-8.026291847229004">
        <ele>576.0</ele>
        <time>2019-05-02T09:29:23.000Z</time>
      </trkpt>
      <trkpt lat="42.683380126953125" lon="-8.026750564575195">
        <ele>574.0</ele>
        <time>2019-05-02T09:29:52.000Z</time>
      </trkpt>
      <trkpt lat="42.68326950073242" lon="-8.027169227600098">
        <ele>573.0</ele>
        <time>2019-05-02T09:30:23.000Z</time>
      </trkpt>
      <trkpt lat="42.683265686035156" lon="-8.02719497680664">
        <ele>575.0</ele>
        <time>2019-05-02T09:30:45.000Z</time>
      </trkpt>
      <trkpt lat="42.68326187133789" lon="-8.027217864990234">
        <ele>575.0</ele>
        <time>2019-05-02T09:30:46.000Z</time>
      </trkpt>
      <trkpt lat="42.68321990966797" lon="-8.027673721313477">
        <ele>577.0</ele>
        <time>2019-05-02T09:31:00.000Z</time>
      </trkpt>
      <trkpt lat="42.68323516845703" lon="-8.027767181396484">
        <ele>578.0</ele>
        <time>2019-05-02T09:31:06.000Z</time>
      </trkpt>
      <trkpt lat="42.6832389831543" lon="-8.027803421020508">
        <ele>579.0</ele>
        <time>2019-05-02T09:31:20.000Z</time>
      </trkpt>
      <trkpt lat="42.68324661254883" lon="-8.027831077575684">
        <ele>579.0</ele>
        <time>2019-05-02T09:31:21.000Z</time>
      </trkpt>
      <trkpt lat="42.6833381652832" lon="-8.028299331665039">
        <ele>579.0</ele>
        <time>2019-05-02T09:31:40.000Z</time>
      </trkpt>
      <trkpt lat="42.68333053588867" lon="-8.028786659240723">
        <ele>580.0</ele>
        <time>2019-05-02T09:32:11.000Z</time>
      </trkpt>
      <trkpt lat="42.683319091796875" lon="-8.02927303314209">
        <ele>580.0</ele>
        <time>2019-05-02T09:32:39.000Z</time>
      </trkpt>
      <trkpt lat="42.683326721191406" lon="-8.02975845336914">
        <ele>583.0</ele>
        <time>2019-05-02T09:33:10.000Z</time>
      </trkpt>
      <trkpt lat="42.68327331542969" lon="-8.030231475830078">
        <ele>586.0</ele>
        <time>2019-05-02T09:33:41.000Z</time>
      </trkpt>
      <trkpt lat="42.68315887451172" lon="-8.030696868896484">
        <ele>583.0</ele>
        <time>2019-05-02T09:34:10.000Z</time>
      </trkpt>
      <trkpt lat="42.68312454223633" lon="-8.031179428100586">
        <ele>586.0</ele>
        <time>2019-05-02T09:34:43.000Z</time>
      </trkpt>
      <trkpt lat="42.68311309814453" lon="-8.031628608703613">
        <ele>589.0</ele>
        <time>2019-05-02T09:35:14.000Z</time>
      </trkpt>
      <trkpt lat="42.6830940246582" lon="-8.031964302062988">
        <ele>592.0</ele>
        <time>2019-05-02T09:35:32.000Z</time>
      </trkpt>
      <trkpt lat="42.68307876586914" lon="-8.032010078430176">
        <ele>592.0</ele>
        <time>2019-05-02T09:35:40.000Z</time>
      </trkpt>
      <trkpt lat="42.68305969238281" lon="-8.031998634338379">
        <ele>591.0</ele>
        <time>2019-05-02T09:35:48.000Z</time>
      </trkpt>
      <trkpt lat="42.68305206298828" lon="-8.032005310058594">
        <ele>591.0</ele>
        <time>2019-05-02T09:35:48.000Z</time>
      </trkpt>
      <trkpt lat="42.683048248291016" lon="-8.032011032104492">
        <ele>591.0</ele>
        <time>2019-05-02T09:35:48.000Z</time>
      </trkpt>
      <trkpt lat="42.68304443359375" lon="-8.032015800476074">
        <ele>591.0</ele>
        <time>2019-05-02T09:35:49.000Z</time>
      </trkpt>
      <trkpt lat="42.68303680419922" lon="-8.032021522521973">
        <ele>591.0</ele>
        <time>2019-05-02T09:35:49.000Z</time>
      </trkpt>
      <trkpt lat="42.682987213134766" lon="-8.032073020935059">
        <ele>591.0</ele>
        <time>2019-05-02T09:35:55.000Z</time>
      </trkpt>
      <trkpt lat="42.682918548583984" lon="-8.032142639160156">
        <ele>591.0</ele>
        <time>2019-05-02T09:36:00.000Z</time>
      </trkpt>
      <trkpt lat="42.68283462524414" lon="-8.032225608825684">
        <ele>591.0</ele>
        <time>2019-05-02T09:36:06.000Z</time>
      </trkpt>
      <trkpt lat="42.68274688720703" lon="-8.032315254211426">
        <ele>592.0</ele>
        <time>2019-05-02T09:36:12.000Z</time>
      </trkpt>
      <trkpt lat="42.68268966674805" lon="-8.03238296508789">
        <ele>591.0</ele>
        <time>2019-05-02T09:36:17.000Z</time>
      </trkpt>
      <trkpt lat="42.68263626098633" lon="-8.032447814941406">
        <ele>590.0</ele>
        <time>2019-05-02T09:36:22.000Z</time>
      </trkpt>
      <trkpt lat="42.68259048461914" lon="-8.032510757446289">
        <ele>590.0</ele>
        <time>2019-05-02T09:36:28.000Z</time>
      </trkpt>
      <trkpt lat="42.68254470825195" lon="-8.032572746276855">
        <ele>589.0</ele>
        <time>2019-05-02T09:36:33.000Z</time>
      </trkpt>
      <trkpt lat="42.682518005371094" lon="-8.032608032226562">
        <ele>588.0</ele>
        <time>2019-05-02T09:36:41.000Z</time>
      </trkpt>
      <trkpt lat="42.682498931884766" lon="-8.032630920410156">
        <ele>588.0</ele>
        <time>2019-05-02T09:36:49.000Z</time>
      </trkpt>
      <trkpt lat="42.68248748779297" lon="-8.032646179199219">
        <ele>587.0</ele>
        <time>2019-05-02T09:36:58.000Z</time>
      </trkpt>
      <trkpt lat="42.68247985839844" lon="-8.032657623291016">
        <ele>587.0</ele>
        <time>2019-05-02T09:37:06.000Z</time>
      </trkpt>
      <trkpt lat="42.68246841430664" lon="-8.032671928405762">
        <ele>587.0</ele>
        <time>2019-05-02T09:37:06.000Z</time>
      </trkpt>
      <trkpt lat="42.68246078491211" lon="-8.032683372497559">
        <ele>587.0</ele>
        <time>2019-05-02T09:37:06.000Z</time>
      </trkpt>
      <trkpt lat="42.68245315551758" lon="-8.032693862915039">
        <ele>587.0</ele>
        <time>2019-05-02T09:37:07.000Z</time>
      </trkpt>
      <trkpt lat="42.68244552612305" lon="-8.032702445983887">
        <ele>587.0</ele>
        <time>2019-05-02T09:37:07.000Z</time>
      </trkpt>
      <trkpt lat="42.682193756103516" lon="-8.033058166503906">
        <ele>585.0</ele>
        <time>2019-05-02T09:37:25.000Z</time>
      </trkpt>
      <trkpt lat="42.68206024169922" lon="-8.03325366973877">
        <ele>585.0</ele>
        <time>2019-05-02T09:37:35.000Z</time>
      </trkpt>
      <trkpt lat="42.68196487426758" lon="-8.03331470489502">
        <ele>584.0</ele>
        <time>2019-05-02T09:37:47.000Z</time>
      </trkpt>
      <trkpt lat="42.681854248046875" lon="-8.03335952758789">
        <ele>583.0</ele>
        <time>2019-05-02T09:38:00.000Z</time>
      </trkpt>
      <trkpt lat="42.681819915771484" lon="-8.033379554748535">
        <ele>582.0</ele>
        <time>2019-05-02T09:38:04.000Z</time>
      </trkpt>
      <trkpt lat="42.68179702758789" lon="-8.033395767211914">
        <ele>582.0</ele>
        <time>2019-05-02T09:38:08.000Z</time>
      </trkpt>
      <trkpt lat="42.68177795410156" lon="-8.033411026000977">
        <ele>582.0</ele>
        <time>2019-05-02T09:38:12.000Z</time>
      </trkpt>
      <trkpt lat="42.6817626953125" lon="-8.033424377441406">
        <ele>582.0</ele>
        <time>2019-05-02T09:38:16.000Z</time>
      </trkpt>
      <trkpt lat="42.6817512512207" lon="-8.033435821533203">
        <ele>582.0</ele>
        <time>2019-05-02T09:38:23.000Z</time>
      </trkpt>
      <trkpt lat="42.68174362182617" lon="-8.033445358276367">
        <ele>582.0</ele>
        <time>2019-05-02T09:38:30.000Z</time>
      </trkpt>
      <trkpt lat="42.68173599243164" lon="-8.033452987670898">
        <ele>583.0</ele>
        <time>2019-05-02T09:38:37.000Z</time>
      </trkpt>
      <trkpt lat="42.68173599243164" lon="-8.03346061706543">
        <ele>583.0</ele>
        <time>2019-05-02T09:38:44.000Z</time>
      </trkpt>
      <trkpt lat="42.68172836303711" lon="-8.033468246459961">
        <ele>583.0</ele>
        <time>2019-05-02T09:38:44.000Z</time>
      </trkpt>
      <trkpt lat="42.681724548339844" lon="-8.033474922180176">
        <ele>583.0</ele>
        <time>2019-05-02T09:38:44.000Z</time>
      </trkpt>
      <trkpt lat="42.68171691894531" lon="-8.03348159790039">
        <ele>583.0</ele>
        <time>2019-05-02T09:38:45.000Z</time>
      </trkpt>
      <trkpt lat="42.68171310424805" lon="-8.033488273620605">
        <ele>583.0</ele>
        <time>2019-05-02T09:38:45.000Z</time>
      </trkpt>
      <trkpt lat="42.68167495727539" lon="-8.033537864685059">
        <ele>583.0</ele>
        <time>2019-05-02T09:38:48.000Z</time>
      </trkpt>
      <trkpt lat="42.68162155151367" lon="-8.033604621887207">
        <ele>583.0</ele>
        <time>2019-05-02T09:38:50.000Z</time>
      </trkpt>
      <trkpt lat="42.681556701660156" lon="-8.033684730529785">
        <ele>584.0</ele>
        <time>2019-05-02T09:38:53.000Z</time>
      </trkpt>
      <trkpt lat="42.681488037109375" lon="-8.033769607543945">
        <ele>584.0</ele>
        <time>2019-05-02T09:38:56.000Z</time>
      </trkpt>
      <trkpt lat="42.68143844604492" lon="-8.033831596374512">
        <ele>584.0</ele>
        <time>2019-05-02T09:39:03.000Z</time>
      </trkpt>
      <trkpt lat="42.6813850402832" lon="-8.033890724182129">
        <ele>585.0</ele>
        <time>2019-05-02T09:39:11.000Z</time>
      </trkpt>
      <trkpt lat="42.68133544921875" lon="-8.033946990966797">
        <ele>585.0</ele>
        <time>2019-05-02T09:39:18.000Z</time>
      </trkpt>
      <trkpt lat="42.68128204345703" lon="-8.034002304077148">
        <ele>586.0</ele>
        <time>2019-05-02T09:39:26.000Z</time>
      </trkpt>
      <trkpt lat="42.681095123291016" lon="-8.034236907958984">
        <ele>592.0</ele>
        <time>2019-05-02T09:40:35.000Z</time>
      </trkpt>
      <trkpt lat="42.6810417175293" lon="-8.034307479858398">
        <ele>592.0</ele>
        <time>2019-05-02T09:40:36.000Z</time>
      </trkpt>
      <trkpt lat="42.6810188293457" lon="-8.034335136413574">
        <ele>592.0</ele>
        <time>2019-05-02T09:40:37.000Z</time>
      </trkpt>
      <trkpt lat="42.68095779418945" lon="-8.034520149230957">
        <ele>597.0</ele>
        <time>2019-05-02T09:41:24.000Z</time>
      </trkpt>
      <trkpt lat="42.68092727661133" lon="-8.034610748291016">
        <ele>597.0</ele>
        <time>2019-05-02T09:41:25.000Z</time>
      </trkpt>
      <trkpt lat="42.680912017822266" lon="-8.03465747833252">
        <ele>597.0</ele>
        <time>2019-05-02T09:41:26.000Z</time>
      </trkpt>
      <trkpt lat="42.68089294433594" lon="-8.034736633300781">
        <ele>601.0</ele>
        <time>2019-05-02T09:41:57.000Z</time>
      </trkpt>
      <trkpt lat="42.68088150024414" lon="-8.034795761108398">
        <ele>601.0</ele>
        <time>2019-05-02T09:41:58.000Z</time>
      </trkpt>
      <trkpt lat="42.680870056152344" lon="-8.034836769104004">
        <ele>601.0</ele>
        <time>2019-05-02T09:41:59.000Z</time>
      </trkpt>
      <trkpt lat="42.68086242675781" lon="-8.03488540649414">
        <ele>603.0</ele>
        <time>2019-05-02T09:42:13.000Z</time>
      </trkpt>
      <trkpt lat="42.680850982666016" lon="-8.03492546081543">
        <ele>603.0</ele>
        <time>2019-05-02T09:42:14.000Z</time>
      </trkpt>
      <trkpt lat="42.680728912353516" lon="-8.035459518432617">
        <ele>604.0</ele>
        <time>2019-05-02T09:42:27.000Z</time>
      </trkpt>
      <trkpt lat="42.68072509765625" lon="-8.035472869873047">
        <ele>604.0</ele>
        <time>2019-05-02T09:42:28.000Z</time>
      </trkpt>
      <trkpt lat="42.68070983886719" lon="-8.035552978515625">
        <ele>608.0</ele>
        <time>2019-05-02T09:42:57.000Z</time>
      </trkpt>
      <trkpt lat="42.680702209472656" lon="-8.035604476928711">
        <ele>608.0</ele>
        <time>2019-05-02T09:42:58.000Z</time>
      </trkpt>
      <trkpt lat="42.68064880371094" lon="-8.035829544067383">
        <ele>610.0</ele>
        <time>2019-05-02T09:43:13.000Z</time>
      </trkpt>
      <trkpt lat="42.680641174316406" lon="-8.03586196899414">
        <ele>611.0</ele>
        <time>2019-05-02T09:43:22.000Z</time>
      </trkpt>
      <trkpt lat="42.68063735961914" lon="-8.035887718200684">
        <ele>611.0</ele>
        <time>2019-05-02T09:43:23.000Z</time>
      </trkpt>
      <trkpt lat="42.68058776855469" lon="-8.036128044128418">
        <ele>611.0</ele>
        <time>2019-05-02T09:43:29.000Z</time>
      </trkpt>
      <trkpt lat="42.680580139160156" lon="-8.036163330078125">
        <ele>614.0</ele>
        <time>2019-05-02T09:43:52.000Z</time>
      </trkpt>
      <trkpt lat="42.68057632446289" lon="-8.0361909866333">
        <ele>614.0</ele>
        <time>2019-05-02T09:43:53.000Z</time>
      </trkpt>
      <trkpt lat="42.68057632446289" lon="-8.036213874816895">
        <ele>614.0</ele>
        <time>2019-05-02T09:43:54.000Z</time>
      </trkpt>
      <trkpt lat="42.68056106567383" lon="-8.036365509033203">
        <ele>615.0</ele>
        <time>2019-05-02T09:43:58.000Z</time>
      </trkpt>
      <trkpt lat="42.6805534362793" lon="-8.036420822143555">
        <ele>615.0</ele>
        <time>2019-05-02T09:43:59.000Z</time>
      </trkpt>
      <trkpt lat="42.6805305480957" lon="-8.036639213562012">
        <ele>616.0</ele>
        <time>2019-05-02T09:44:09.000Z</time>
      </trkpt>
      <trkpt lat="42.68052291870117" lon="-8.036678314208984">
        <ele>618.0</ele>
        <time>2019-05-02T09:44:29.000Z</time>
      </trkpt>
      <trkpt lat="42.68051528930664" lon="-8.036706924438477">
        <ele>618.0</ele>
        <time>2019-05-02T09:44:30.000Z</time>
      </trkpt>
      <trkpt lat="42.68047332763672" lon="-8.03717041015625">
        <ele>622.0</ele>
        <time>2019-05-02T09:44:50.000Z</time>
      </trkpt>
      <trkpt lat="42.68044662475586" lon="-8.037297248840332">
        <ele>623.0</ele>
        <time>2019-05-02T09:45:05.000Z</time>
      </trkpt>
      <trkpt lat="42.68043899536133" lon="-8.03734302520752">
        <ele>623.0</ele>
        <time>2019-05-02T09:45:06.000Z</time>
      </trkpt>
      <trkpt lat="42.68035888671875" lon="-8.037660598754883">
        <ele>624.0</ele>
        <time>2019-05-02T09:45:23.000Z</time>
      </trkpt>
      <trkpt lat="42.680328369140625" lon="-8.037696838378906">
        <ele>624.0</ele>
        <time>2019-05-02T09:45:26.000Z</time>
      </trkpt>
      <trkpt lat="42.68029022216797" lon="-8.037714004516602">
        <ele>624.0</ele>
        <time>2019-05-02T09:45:30.000Z</time>
      </trkpt>
      <trkpt lat="42.68024826049805" lon="-8.0377197265625">
        <ele>624.0</ele>
        <time>2019-05-02T09:45:33.000Z</time>
      </trkpt>
      <trkpt lat="42.68020248413086" lon="-8.0377197265625">
        <ele>624.0</ele>
        <time>2019-05-02T09:45:37.000Z</time>
      </trkpt>
      <trkpt lat="42.680137634277344" lon="-8.037751197814941">
        <ele>624.0</ele>
        <time>2019-05-02T09:45:47.000Z</time>
      </trkpt>
      <trkpt lat="42.6800651550293" lon="-8.037789344787598">
        <ele>624.0</ele>
        <time>2019-05-02T09:45:57.000Z</time>
      </trkpt>
      <trkpt lat="42.67998123168945" lon="-8.037832260131836">
        <ele>624.0</ele>
        <time>2019-05-02T09:46:08.000Z</time>
      </trkpt>
      <trkpt lat="42.67989730834961" lon="-8.037878036499023">
        <ele>624.0</ele>
        <time>2019-05-02T09:46:18.000Z</time>
      </trkpt>
      <trkpt lat="42.67986297607422" lon="-8.037894248962402">
        <ele>624.0</ele>
        <time>2019-05-02T09:46:24.000Z</time>
      </trkpt>
      <trkpt lat="42.679847717285156" lon="-8.0378999710083">
        <ele>624.0</ele>
        <time>2019-05-02T09:46:31.000Z</time>
      </trkpt>
      <trkpt lat="42.679847717285156" lon="-8.0378999710083">
        <ele>624.0</ele>
        <time>2019-05-02T09:46:37.000Z</time>
      </trkpt>
      <trkpt lat="42.67985153198242" lon="-8.037896156311035">
        <ele>625.0</ele>
        <time>2019-05-02T09:46:44.000Z</time>
      </trkpt>
      <trkpt lat="42.679840087890625" lon="-8.0378999710083">
        <ele>625.0</ele>
        <time>2019-05-02T09:46:44.000Z</time>
      </trkpt>
      <trkpt lat="42.679832458496094" lon="-8.03790283203125">
        <ele>625.0</ele>
        <time>2019-05-02T09:46:44.000Z</time>
      </trkpt>
      <trkpt lat="42.67982482910156" lon="-8.0379056930542">
        <ele>625.0</ele>
        <time>2019-05-02T09:46:45.000Z</time>
      </trkpt>
      <trkpt lat="42.6798210144043" lon="-8.037908554077148">
        <ele>625.0</ele>
        <time>2019-05-02T09:46:45.000Z</time>
      </trkpt>
      <trkpt lat="42.67976379394531" lon="-8.037947654724121">
        <ele>625.0</ele>
        <time>2019-05-02T09:46:51.000Z</time>
      </trkpt>
      <trkpt lat="42.679683685302734" lon="-8.038002014160156">
        <ele>625.0</ele>
        <time>2019-05-02T09:46:58.000Z</time>
      </trkpt>
      <trkpt lat="42.67959213256836" lon="-8.038065910339355">
        <ele>626.0</ele>
        <time>2019-05-02T09:47:04.000Z</time>
      </trkpt>
      <trkpt lat="42.67949295043945" lon="-8.038135528564453">
        <ele>627.0</ele>
        <time>2019-05-02T09:47:10.000Z</time>
      </trkpt>
      <trkpt lat="42.67945861816406" lon="-8.03817367553711">
        <ele>628.0</ele>
        <time>2019-05-02T09:47:13.000Z</time>
      </trkpt>
      <trkpt lat="42.67943572998047" lon="-8.038206100463867">
        <ele>630.0</ele>
        <time>2019-05-02T09:47:16.000Z</time>
      </trkpt>
      <trkpt lat="42.67942810058594" lon="-8.038232803344727">
        <ele>631.0</ele>
        <time>2019-05-02T09:47:18.000Z</time>
      </trkpt>
      <trkpt lat="42.67942810058594" lon="-8.038256645202637">
        <ele>633.0</ele>
        <time>2019-05-02T09:47:21.000Z</time>
      </trkpt>
      <trkpt lat="42.679412841796875" lon="-8.038291931152344">
        <ele>637.0</ele>
        <time>2019-05-02T09:47:39.000Z</time>
      </trkpt>
      <trkpt lat="42.67940139770508" lon="-8.038318634033203">
        <ele>637.0</ele>
        <time>2019-05-02T09:47:40.000Z</time>
      </trkpt>
      <trkpt lat="42.679237365722656" lon="-8.038738250732422">
        <ele>631.0</ele>
        <time>2019-05-02T09:47:58.000Z</time>
      </trkpt>
      <trkpt lat="42.67921447753906" lon="-8.039047241210938">
        <ele>625.0</ele>
        <time>2019-05-02T09:48:32.000Z</time>
      </trkpt>
      <trkpt lat="42.6792106628418" lon="-8.039080619812012">
        <ele>624.0</ele>
        <time>2019-05-02T09:49:08.000Z</time>
      </trkpt>
      <trkpt lat="42.67920684814453" lon="-8.039106369018555">
        <ele>624.0</ele>
        <time>2019-05-02T09:49:09.000Z</time>
      </trkpt>
      <trkpt lat="42.67918014526367" lon="-8.039310455322266">
        <ele>625.0</ele>
        <time>2019-05-02T09:49:51.000Z</time>
      </trkpt>
      <trkpt lat="42.67914962768555" lon="-8.039527893066406">
        <ele>625.0</ele>
        <time>2019-05-02T09:50:04.000Z</time>
      </trkpt>
      <trkpt lat="42.679141998291016" lon="-8.039565086364746">
        <ele>625.0</ele>
        <time>2019-05-02T09:50:05.000Z</time>
      </trkpt>
      <trkpt lat="42.67909622192383" lon="-8.03979778289795">
        <ele>626.0</ele>
        <time>2019-05-02T09:50:20.000Z</time>
      </trkpt>
      <trkpt lat="42.6790771484375" lon="-8.039918899536133">
        <ele>629.0</ele>
        <time>2019-05-02T09:50:34.000Z</time>
      </trkpt>
      <trkpt lat="42.67906951904297" lon="-8.039965629577637">
        <ele>629.0</ele>
        <time>2019-05-02T09:50:35.000Z</time>
      </trkpt>
      <trkpt lat="42.67897415161133" lon="-8.040428161621094">
        <ele>631.0</ele>
        <time>2019-05-02T09:51:00.000Z</time>
      </trkpt>
      <trkpt lat="42.67896270751953" lon="-8.040475845336914">
        <ele>631.0</ele>
        <time>2019-05-02T09:51:05.000Z</time>
      </trkpt>
      <trkpt lat="42.67894744873047" lon="-8.040568351745605">
        <ele>633.0</ele>
        <time>2019-05-02T09:51:20.000Z</time>
      </trkpt>
      <trkpt lat="42.67893600463867" lon="-8.040614128112793">
        <ele>633.0</ele>
        <time>2019-05-02T09:51:21.000Z</time>
      </trkpt>
      <trkpt lat="42.678916931152344" lon="-8.041109085083008">
        <ele>633.0</ele>
        <time>2019-05-02T09:51:44.000Z</time>
      </trkpt>
      <trkpt lat="42.67888641357422" lon="-8.041504859924316">
        <ele>635.0</ele>
        <time>2019-05-02T09:52:18.000Z</time>
      </trkpt>
      <trkpt lat="42.67888641357422" lon="-8.041545867919922">
        <ele>638.0</ele>
        <time>2019-05-02T09:52:44.000Z</time>
      </trkpt>
      <trkpt lat="42.678890228271484" lon="-8.041577339172363">
        <ele>638.0</ele>
        <time>2019-05-02T09:52:45.000Z</time>
      </trkpt>
      <trkpt lat="42.67890930175781" lon="-8.041837692260742">
        <ele>639.0</ele>
        <time>2019-05-02T09:52:50.000Z</time>
      </trkpt>
      <trkpt lat="42.67891311645508" lon="-8.041977882385254">
        <ele>640.0</ele>
        <time>2019-05-02T09:53:10.000Z</time>
      </trkpt>
      <trkpt lat="42.678916931152344" lon="-8.042035102844238">
        <ele>640.0</ele>
        <time>2019-05-02T09:53:11.000Z</time>
      </trkpt>
      <trkpt lat="42.678932189941406" lon="-8.04230785369873">
        <ele>642.0</ele>
        <time>2019-05-02T09:53:22.000Z</time>
      </trkpt>
      <trkpt lat="42.678924560546875" lon="-8.042329788208008">
        <ele>645.0</ele>
        <time>2019-05-02T09:53:42.000Z</time>
      </trkpt>
      <trkpt lat="42.67892074584961" lon="-8.042346954345703">
        <ele>645.0</ele>
        <time>2019-05-02T09:53:43.000Z</time>
      </trkpt>
      <trkpt lat="42.678810119628906" lon="-8.042793273925781">
        <ele>646.0</ele>
        <time>2019-05-02T09:54:00.000Z</time>
      </trkpt>
      <trkpt lat="42.67862319946289" lon="-8.043194770812988">
        <ele>649.0</ele>
        <time>2019-05-02T09:54:36.000Z</time>
      </trkpt>
      <trkpt lat="42.6784782409668" lon="-8.043633460998535">
        <ele>649.0</ele>
        <time>2019-05-02T09:55:08.000Z</time>
      </trkpt>
      <trkpt lat="42.67845916748047" lon="-8.043874740600586">
        <ele>654.0</ele>
        <time>2019-05-02T09:55:24.000Z</time>
      </trkpt>
      <trkpt lat="42.678436279296875" lon="-8.044029235839844">
        <ele>658.0</ele>
        <time>2019-05-02T09:55:55.000Z</time>
      </trkpt>
      <trkpt lat="42.67842483520508" lon="-8.044098854064941">
        <ele>658.0</ele>
        <time>2019-05-02T09:55:56.000Z</time>
      </trkpt>
      <trkpt lat="42.67838668823242" lon="-8.044360160827637">
        <ele>657.0</ele>
        <time>2019-05-02T09:56:02.000Z</time>
      </trkpt>
      <trkpt lat="42.67838668823242" lon="-8.044622421264648">
        <ele>657.0</ele>
        <time>2019-05-02T09:56:17.000Z</time>
      </trkpt>
      <trkpt lat="42.67837905883789" lon="-8.044694900512695">
        <ele>656.0</ele>
        <time>2019-05-02T09:56:24.000Z</time>
      </trkpt>
      <trkpt lat="42.67836380004883" lon="-8.044830322265625">
        <ele>652.0</ele>
        <time>2019-05-02T09:56:40.000Z</time>
      </trkpt>
      <trkpt lat="42.67835998535156" lon="-8.044878005981445">
        <ele>652.0</ele>
        <time>2019-05-02T09:56:41.000Z</time>
      </trkpt>
      <trkpt lat="42.678306579589844" lon="-8.045084953308105">
        <ele>654.0</ele>
        <time>2019-05-02T09:56:51.000Z</time>
      </trkpt>
      <trkpt lat="42.67826461791992" lon="-8.04511833190918">
        <ele>655.0</ele>
        <time>2019-05-02T09:56:57.000Z</time>
      </trkpt>
      <trkpt lat="42.67820739746094" lon="-8.045143127441406">
        <ele>654.0</ele>
        <time>2019-05-02T09:57:02.000Z</time>
      </trkpt>
      <trkpt lat="42.67814254760742" lon="-8.04516315460205">
        <ele>654.0</ele>
        <time>2019-05-02T09:57:08.000Z</time>
      </trkpt>
      <trkpt lat="42.67807388305664" lon="-8.045180320739746">
        <ele>654.0</ele>
        <time>2019-05-02T09:57:14.000Z</time>
      </trkpt>
      <trkpt lat="42.67799377441406" lon="-8.045184135437012">
        <ele>655.0</ele>
        <time>2019-05-02T09:57:22.000Z</time>
      </trkpt>
      <trkpt lat="42.67790603637695" lon="-8.04517936706543">
        <ele>655.0</ele>
        <time>2019-05-02T09:57:29.000Z</time>
      </trkpt>
      <trkpt lat="42.67781066894531" lon="-8.04516887664795">
        <ele>656.0</ele>
        <time>2019-05-02T09:57:37.000Z</time>
      </trkpt>
      <trkpt lat="42.67771530151367" lon="-8.045156478881836">
        <ele>657.0</ele>
        <time>2019-05-02T09:57:45.000Z</time>
      </trkpt>
      <trkpt lat="42.67765808105469" lon="-8.045186042785645">
        <ele>658.0</ele>
        <time>2019-05-02T09:57:49.000Z</time>
      </trkpt>
      <trkpt lat="42.67761993408203" lon="-8.045230865478516">
        <ele>658.0</ele>
        <time>2019-05-02T09:57:54.000Z</time>
      </trkpt>
      <trkpt lat="42.67759323120117" lon="-8.04528522491455">
        <ele>659.0</ele>
        <time>2019-05-02T09:57:58.000Z</time>
      </trkpt>
      <trkpt lat="42.67757034301758" lon="-8.045345306396484">
        <ele>659.0</ele>
        <time>2019-05-02T09:58:03.000Z</time>
      </trkpt>
      <trkpt lat="42.67755126953125" lon="-8.04537582397461">
        <ele>659.0</ele>
        <time>2019-05-02T09:58:08.000Z</time>
      </trkpt>
      <trkpt lat="42.67754364013672" lon="-8.045398712158203">
        <ele>659.0</ele>
        <time>2019-05-02T09:58:12.000Z</time>
      </trkpt>
      <trkpt lat="42.67754364013672" lon="-8.045416831970215">
        <ele>658.0</ele>
        <time>2019-05-02T09:58:17.000Z</time>
      </trkpt>
      <trkpt lat="42.67754364013672" lon="-8.045432090759277">
        <ele>658.0</ele>
        <time>2019-05-02T09:58:22.000Z</time>
      </trkpt>
      <trkpt lat="42.67753982543945" lon="-8.045446395874023">
        <ele>657.0</ele>
        <time>2019-05-02T09:58:22.000Z</time>
      </trkpt>
      <trkpt lat="42.67753601074219" lon="-8.04545783996582">
        <ele>657.0</ele>
        <time>2019-05-02T09:58:22.000Z</time>
      </trkpt>
      <trkpt lat="42.67753219604492" lon="-8.045467376708984">
        <ele>657.0</ele>
        <time>2019-05-02T09:58:23.000Z</time>
      </trkpt>
      <trkpt lat="42.677528381347656" lon="-8.045475959777832">
        <ele>658.0</ele>
        <time>2019-05-02T09:58:23.000Z</time>
      </trkpt>
      <trkpt lat="42.677513122558594" lon="-8.04555606842041">
        <ele>657.0</ele>
        <time>2019-05-02T09:58:29.000Z</time>
      </trkpt>
      <trkpt lat="42.677486419677734" lon="-8.045665740966797">
        <ele>656.0</ele>
        <time>2019-05-02T09:58:35.000Z</time>
      </trkpt>
      <trkpt lat="42.677459716796875" lon="-8.045793533325195">
        <ele>655.0</ele>
        <time>2019-05-02T09:58:41.000Z</time>
      </trkpt>
      <trkpt lat="42.67742919921875" lon="-8.045931816101074">
        <ele>654.0</ele>
        <time>2019-05-02T09:58:47.000Z</time>
      </trkpt>
      <trkpt lat="42.677398681640625" lon="-8.04604434967041">
        <ele>653.0</ele>
        <time>2019-05-02T09:58:56.000Z</time>
      </trkpt>
      <trkpt lat="42.6773681640625" lon="-8.046154975891113">
        <ele>652.0</ele>
        <time>2019-05-02T09:59:05.000Z</time>
      </trkpt>
      <trkpt lat="42.67733383178711" lon="-8.046265602111816">
        <ele>651.0</ele>
        <time>2019-05-02T09:59:14.000Z</time>
      </trkpt>
      <trkpt lat="42.67729949951172" lon="-8.04637622833252">
        <ele>649.0</ele>
        <time>2019-05-02T09:59:23.000Z</time>
      </trkpt>
      <trkpt lat="42.67728805541992" lon="-8.04642105102539">
        <ele>649.0</ele>
        <time>2019-05-02T09:59:24.000Z</time>
      </trkpt>
      <trkpt lat="42.677284240722656" lon="-8.046439170837402">
        <ele>649.0</ele>
        <time>2019-05-02T09:59:26.000Z</time>
      </trkpt>
      <trkpt lat="42.677284240722656" lon="-8.046438217163086">
        <ele>649.0</ele>
        <time>2019-05-02T09:59:27.000Z</time>
      </trkpt>
      <trkpt lat="42.67728805541992" lon="-8.046428680419922">
        <ele>649.0</ele>
        <time>2019-05-02T09:59:29.000Z</time>
      </trkpt>
      <trkpt lat="42.67726516723633" lon="-8.046510696411133">
        <ele>644.0</ele>
        <time>2019-05-02T10:00:09.000Z</time>
      </trkpt>
      <trkpt lat="42.67724609375" lon="-8.046568870544434">
        <ele>644.0</ele>
        <time>2019-05-02T10:00:10.000Z</time>
      </trkpt>
      <trkpt lat="42.67723846435547" lon="-8.046606063842773">
        <ele>644.0</ele>
        <time>2019-05-02T10:00:11.000Z</time>
      </trkpt>
      <trkpt lat="42.677215576171875" lon="-8.046844482421875">
        <ele>643.0</ele>
        <time>2019-05-02T10:00:36.000Z</time>
      </trkpt>
      <trkpt lat="42.677207946777344" lon="-8.046954154968262">
        <ele>643.0</ele>
        <time>2019-05-02T10:00:37.000Z</time>
      </trkpt>
      <trkpt lat="42.67720031738281" lon="-8.047425270080566">
        <ele>642.0</ele>
        <time>2019-05-02T10:00:50.000Z</time>
      </trkpt>
      <trkpt lat="42.67722702026367" lon="-8.04751205444336">
        <ele>642.0</ele>
        <time>2019-05-02T10:00:53.000Z</time>
      </trkpt>
      <trkpt lat="42.67726516723633" lon="-8.047530174255371">
        <ele>642.0</ele>
        <time>2019-05-02T10:00:57.000Z</time>
      </trkpt>
      <trkpt lat="42.67726516723633" lon="-8.047601699829102">
        <ele>641.0</ele>
        <time>2019-05-02T10:01:04.000Z</time>
      </trkpt>
      <trkpt lat="42.67726516723633" lon="-8.04769229888916">
        <ele>640.0</ele>
        <time>2019-05-02T10:01:11.000Z</time>
      </trkpt>
      <trkpt lat="42.6772575378418" lon="-8.047795295715332">
        <ele>639.0</ele>
        <time>2019-05-02T10:01:18.000Z</time>
      </trkpt>
      <trkpt lat="42.677249908447266" lon="-8.047904968261719">
        <ele>638.0</ele>
        <time>2019-05-02T10:01:25.000Z</time>
      </trkpt>
      <trkpt lat="42.67725372314453" lon="-8.048002243041992">
        <ele>637.0</ele>
        <time>2019-05-02T10:01:33.000Z</time>
      </trkpt>
      <trkpt lat="42.67726135253906" lon="-8.048101425170898">
        <ele>635.0</ele>
        <time>2019-05-02T10:01:40.000Z</time>
      </trkpt>
      <trkpt lat="42.67727279663086" lon="-8.048201560974121">
        <ele>634.0</ele>
        <time>2019-05-02T10:01:48.000Z</time>
      </trkpt>
      <trkpt lat="42.677284240722656" lon="-8.04830265045166">
        <ele>633.0</ele>
        <time>2019-05-02T10:01:55.000Z</time>
      </trkpt>
      <trkpt lat="42.67729187011719" lon="-8.048365592956543">
        <ele>632.0</ele>
        <time>2019-05-02T10:02:02.000Z</time>
      </trkpt>
      <trkpt lat="42.67729949951172" lon="-8.048412322998047">
        <ele>631.0</ele>
        <time>2019-05-02T10:02:08.000Z</time>
      </trkpt>
      <trkpt lat="42.677303314208984" lon="-8.04844856262207">
        <ele>630.0</ele>
        <time>2019-05-02T10:02:15.000Z</time>
      </trkpt>
      <trkpt lat="42.677310943603516" lon="-8.048480033874512">
        <ele>629.0</ele>
        <time>2019-05-02T10:02:21.000Z</time>
      </trkpt>
      <trkpt lat="42.67731475830078" lon="-8.048503875732422">
        <ele>629.0</ele>
        <time>2019-05-02T10:02:21.000Z</time>
      </trkpt>
      <trkpt lat="42.67731857299805" lon="-8.048519134521484">
        <ele>629.0</ele>
        <time>2019-05-02T10:02:22.000Z</time>
      </trkpt>
      <trkpt lat="42.67731857299805" lon="-8.048528671264648">
        <ele>629.0</ele>
        <time>2019-05-02T10:02:22.000Z</time>
      </trkpt>
      <trkpt lat="42.67732238769531" lon="-8.048534393310547">
        <ele>629.0</ele>
        <time>2019-05-02T10:02:22.000Z</time>
      </trkpt>
      <trkpt lat="42.677337646484375" lon="-8.04861831665039">
        <ele>628.0</ele>
        <time>2019-05-02T10:02:29.000Z</time>
      </trkpt>
      <trkpt lat="42.677364349365234" lon="-8.04873275756836">
        <ele>628.0</ele>
        <time>2019-05-02T10:02:35.000Z</time>
      </trkpt>
      <trkpt lat="42.67739486694336" lon="-8.048866271972656">
        <ele>627.0</ele>
        <time>2019-05-02T10:02:42.000Z</time>
      </trkpt>
      <trkpt lat="42.677425384521484" lon="-8.049009323120117">
        <ele>626.0</ele>
        <time>2019-05-02T10:02:48.000Z</time>
      </trkpt>
      <trkpt lat="42.67747116088867" lon="-8.04911994934082">
        <ele>625.0</ele>
        <time>2019-05-02T10:02:57.000Z</time>
      </trkpt>
      <trkpt lat="42.677520751953125" lon="-8.049226760864258">
        <ele>625.0</ele>
        <time>2019-05-02T10:03:07.000Z</time>
      </trkpt>
      <trkpt lat="42.67757797241211" lon="-8.049331665039062">
        <ele>624.0</ele>
        <time>2019-05-02T10:03:16.000Z</time>
      </trkpt>
      <trkpt lat="42.677635192871094" lon="-8.04943561553955">
        <ele>624.0</ele>
        <time>2019-05-02T10:03:25.000Z</time>
      </trkpt>
      <trkpt lat="42.67765426635742" lon="-8.049671173095703">
        <ele>624.0</ele>
        <time>2019-05-02T10:03:41.000Z</time>
      </trkpt>
      <trkpt lat="42.67763137817383" lon="-8.049915313720703">
        <ele>625.0</ele>
        <time>2019-05-02T10:03:56.000Z</time>
      </trkpt>
      <trkpt lat="42.677635192871094" lon="-8.050037384033203">
        <ele>625.0</ele>
        <time>2019-05-02T10:04:04.000Z</time>
      </trkpt>
      <trkpt lat="42.67763900756836" lon="-8.05016040802002">
        <ele>625.0</ele>
        <time>2019-05-02T10:04:12.000Z</time>
      </trkpt>
      <trkpt lat="42.677642822265625" lon="-8.050283432006836">
        <ele>624.0</ele>
        <time>2019-05-02T10:04:20.000Z</time>
      </trkpt>
      <trkpt lat="42.67764663696289" lon="-8.050407409667969">
        <ele>624.0</ele>
        <time>2019-05-02T10:04:28.000Z</time>
      </trkpt>
      <trkpt lat="42.677650451660156" lon="-8.050482749938965">
        <ele>624.0</ele>
        <time>2019-05-02T10:04:32.000Z</time>
      </trkpt>
      <trkpt lat="42.677650451660156" lon="-8.050538063049316">
        <ele>624.0</ele>
        <time>2019-05-02T10:04:36.000Z</time>
      </trkpt>
      <trkpt lat="42.67765426635742" lon="-8.050580978393555">
        <ele>624.0</ele>
        <time>2019-05-02T10:04:40.000Z</time>
      </trkpt>
      <trkpt lat="42.67765426635742" lon="-8.050616264343262">
        <ele>624.0</ele>
        <time>2019-05-02T10:04:44.000Z</time>
      </trkpt>
      <trkpt lat="42.67765426635742" lon="-8.05064868927002">
        <ele>625.0</ele>
        <time>2019-05-02T10:04:52.000Z</time>
      </trkpt>
      <trkpt lat="42.67765426635742" lon="-8.050671577453613">
        <ele>625.0</ele>
        <time>2019-05-02T10:04:59.000Z</time>
      </trkpt>
      <trkpt lat="42.67765426635742" lon="-8.050689697265625">
        <ele>626.0</ele>
        <time>2019-05-02T10:05:07.000Z</time>
      </trkpt>
      <trkpt lat="42.677650451660156" lon="-8.050704002380371">
        <ele>626.0</ele>
        <time>2019-05-02T10:05:14.000Z</time>
      </trkpt>
      <trkpt lat="42.677650451660156" lon="-8.05072021484375">
        <ele>626.0</ele>
        <time>2019-05-02T10:05:14.000Z</time>
      </trkpt>
      <trkpt lat="42.677650451660156" lon="-8.05073356628418">
        <ele>626.0</ele>
        <time>2019-05-02T10:05:15.000Z</time>
      </trkpt>
      <trkpt lat="42.677650451660156" lon="-8.050745964050293">
        <ele>626.0</ele>
        <time>2019-05-02T10:05:15.000Z</time>
      </trkpt>
      <trkpt lat="42.67764663696289" lon="-8.05075740814209">
        <ele>626.0</ele>
        <time>2019-05-02T10:05:15.000Z</time>
      </trkpt>
      <trkpt lat="42.67763900756836" lon="-8.050841331481934">
        <ele>626.0</ele>
        <time>2019-05-02T10:05:21.000Z</time>
      </trkpt>
      <trkpt lat="42.67762756347656" lon="-8.050954818725586">
        <ele>627.0</ele>
        <time>2019-05-02T10:05:26.000Z</time>
      </trkpt>
      <trkpt lat="42.677616119384766" lon="-8.051087379455566">
        <ele>628.0</ele>
        <time>2019-05-02T10:05:32.000Z</time>
      </trkpt>
      <trkpt lat="42.6776008605957" lon="-8.051231384277344">
        <ele>629.0</ele>
        <time>2019-05-02T10:05:37.000Z</time>
      </trkpt>
      <trkpt lat="42.67755126953125" lon="-8.051380157470703">
        <ele>630.0</ele>
        <time>2019-05-02T10:05:51.000Z</time>
      </trkpt>
      <trkpt lat="42.67754364013672" lon="-8.051459312438965">
        <ele>635.0</ele>
        <time>2019-05-02T10:06:11.000Z</time>
      </trkpt>
      <trkpt lat="42.67753601074219" lon="-8.051505088806152">
        <ele>635.0</ele>
        <time>2019-05-02T10:06:12.000Z</time>
      </trkpt>
      <trkpt lat="42.677513122558594" lon="-8.051695823669434">
        <ele>636.0</ele>
        <time>2019-05-02T10:06:18.000Z</time>
      </trkpt>
      <trkpt lat="42.6774787902832" lon="-8.051798820495605">
        <ele>640.0</ele>
        <time>2019-05-02T10:06:36.000Z</time>
      </trkpt>
      <trkpt lat="42.677467346191406" lon="-8.051841735839844">
        <ele>640.0</ele>
        <time>2019-05-02T10:06:37.000Z</time>
      </trkpt>
      <trkpt lat="42.67741394042969" lon="-8.052061080932617">
        <ele>643.0</ele>
        <time>2019-05-02T10:06:47.000Z</time>
      </trkpt>
      <trkpt lat="42.677406311035156" lon="-8.05213451385498">
        <ele>647.0</ele>
        <time>2019-05-02T10:07:07.000Z</time>
      </trkpt>
      <trkpt lat="42.67740249633789" lon="-8.052177429199219">
        <ele>647.0</ele>
        <time>2019-05-02T10:07:08.000Z</time>
      </trkpt>
      <trkpt lat="42.67734146118164" lon="-8.052664756774902">
        <ele>648.0</ele>
        <time>2019-05-02T10:07:29.000Z</time>
      </trkpt>
      <trkpt lat="42.67730712890625" lon="-8.052874565124512">
        <ele>649.0</ele>
        <time>2019-05-02T10:07:44.000Z</time>
      </trkpt>
      <trkpt lat="42.677303314208984" lon="-8.052921295166016">
        <ele>652.0</ele>
        <time>2019-05-02T10:08:02.000Z</time>
      </trkpt>
      <trkpt lat="42.67729568481445" lon="-8.052953720092773">
        <ele>652.0</ele>
        <time>2019-05-02T10:08:03.000Z</time>
      </trkpt>
      <trkpt lat="42.677276611328125" lon="-8.053077697753906">
        <ele>652.0</ele>
        <time>2019-05-02T10:08:06.000Z</time>
      </trkpt>
      <trkpt lat="42.677249908447266" lon="-8.053176879882812">
        <ele>653.0</ele>
        <time>2019-05-02T10:08:20.000Z</time>
      </trkpt>
      <trkpt lat="42.6772346496582" lon="-8.053226470947266">
        <ele>653.0</ele>
        <time>2019-05-02T10:08:21.000Z</time>
      </trkpt>
      <trkpt lat="42.67713928222656" lon="-8.053702354431152">
        <ele>654.0</ele>
        <time>2019-05-02T10:08:41.000Z</time>
      </trkpt>
      <trkpt lat="42.6771354675293" lon="-8.053744316101074">
        <ele>654.0</ele>
        <time>2019-05-02T10:08:46.000Z</time>
      </trkpt>
      <trkpt lat="42.677127838134766" lon="-8.053764343261719">
        <ele>653.0</ele>
        <time>2019-05-02T10:08:55.000Z</time>
      </trkpt>
      <trkpt lat="42.677120208740234" lon="-8.053783416748047">
        <ele>652.0</ele>
        <time>2019-05-02T10:09:05.000Z</time>
      </trkpt>
      <trkpt lat="42.67711639404297" lon="-8.053791046142578">
        <ele>652.0</ele>
        <time>2019-05-02T10:09:05.000Z</time>
      </trkpt>
      <trkpt lat="42.6771125793457" lon="-8.05379867553711">
        <ele>652.0</ele>
        <time>2019-05-02T10:09:05.000Z</time>
      </trkpt>
      <trkpt lat="42.67710876464844" lon="-8.053805351257324">
        <ele>652.0</ele>
        <time>2019-05-02T10:09:05.000Z</time>
      </trkpt>
      <trkpt lat="42.67710494995117" lon="-8.053811073303223">
        <ele>652.0</ele>
        <time>2019-05-02T10:09:06.000Z</time>
      </trkpt>
      <trkpt lat="42.677101135253906" lon="-8.053821563720703">
        <ele>652.0</ele>
        <time>2019-05-02T10:09:06.000Z</time>
      </trkpt>
      <trkpt lat="42.67709732055664" lon="-8.0538330078125">
        <ele>652.0</ele>
        <time>2019-05-02T10:09:07.000Z</time>
      </trkpt>
      <trkpt lat="42.67708969116211" lon="-8.053845405578613">
        <ele>652.0</ele>
        <time>2019-05-02T10:09:07.000Z</time>
      </trkpt>
      <trkpt lat="42.677085876464844" lon="-8.053858757019043">
        <ele>652.0</ele>
        <time>2019-05-02T10:09:08.000Z</time>
      </trkpt>
      <trkpt lat="42.67707443237305" lon="-8.053885459899902">
        <ele>652.0</ele>
        <time>2019-05-02T10:09:10.000Z</time>
      </trkpt>
      <trkpt lat="42.67706298828125" lon="-8.053918838500977">
        <ele>652.0</ele>
        <time>2019-05-02T10:09:12.000Z</time>
      </trkpt>
      <trkpt lat="42.67705154418945" lon="-8.053956031799316">
        <ele>652.0</ele>
        <time>2019-05-02T10:09:14.000Z</time>
      </trkpt>
      <trkpt lat="42.67703628540039" lon="-8.053996086120605">
        <ele>652.0</ele>
        <time>2019-05-02T10:09:16.000Z</time>
      </trkpt>
      <trkpt lat="42.677032470703125" lon="-8.054015159606934">
        <ele>652.0</ele>
        <time>2019-05-02T10:09:16.000Z</time>
      </trkpt>
      <trkpt lat="42.677024841308594" lon="-8.054028511047363">
        <ele>652.0</ele>
        <time>2019-05-02T10:09:16.000Z</time>
      </trkpt>
      <trkpt lat="42.677024841308594" lon="-8.054037094116211">
        <ele>652.0</ele>
        <time>2019-05-02T10:09:16.000Z</time>
      </trkpt>
      <trkpt lat="42.67702102661133" lon="-8.054043769836426">
        <ele>652.0</ele>
        <time>2019-05-02T10:09:17.000Z</time>
      </trkpt>
      <trkpt lat="42.676998138427734" lon="-8.054091453552246">
        <ele>651.0</ele>
        <time>2019-05-02T10:09:21.000Z</time>
      </trkpt>
      <trkpt lat="42.67696762084961" lon="-8.054155349731445">
        <ele>651.0</ele>
        <time>2019-05-02T10:09:25.000Z</time>
      </trkpt>
      <trkpt lat="42.67692947387695" lon="-8.054228782653809">
        <ele>651.0</ele>
        <time>2019-05-02T10:09:29.000Z</time>
      </trkpt>
      <trkpt lat="42.6768913269043" lon="-8.05430793762207">
        <ele>650.0</ele>
        <time>2019-05-02T10:09:33.000Z</time>
      </trkpt>
      <trkpt lat="42.67674255371094" lon="-8.054289817810059">
        <ele>646.0</ele>
        <time>2019-05-02T10:17:53.000Z</time>
      </trkpt>
      <trkpt lat="42.676658630371094" lon="-8.05457878112793">
        <ele>647.0</ele>
        <time>2019-05-02T10:18:11.000Z</time>
      </trkpt>
      <trkpt lat="42.676658630371094" lon="-8.05457878112793">
        <ele>647.0</ele>
        <time>2019-05-02T10:18:12.000Z</time>
      </trkpt>
      <trkpt lat="42.67665100097656" lon="-8.054635047912598">
        <ele>647.0</ele>
        <time>2019-05-02T10:18:18.000Z</time>
      </trkpt>
      <trkpt lat="42.676631927490234" lon="-8.054731369018555">
        <ele>650.0</ele>
        <time>2019-05-02T10:18:54.000Z</time>
      </trkpt>
      <trkpt lat="42.67662048339844" lon="-8.054795265197754">
        <ele>650.0</ele>
        <time>2019-05-02T10:18:55.000Z</time>
      </trkpt>
      <trkpt lat="42.676536560058594" lon="-8.055252075195312">
        <ele>651.0</ele>
        <time>2019-05-02T10:19:10.000Z</time>
      </trkpt>
      <trkpt lat="42.676517486572266" lon="-8.055424690246582">
        <ele>653.0</ele>
        <time>2019-05-02T10:19:44.000Z</time>
      </trkpt>
      <trkpt lat="42.676513671875" lon="-8.055487632751465">
        <ele>653.0</ele>
        <time>2019-05-02T10:19:45.000Z</time>
      </trkpt>
      <trkpt lat="42.67646789550781" lon="-8.055855751037598">
        <ele>655.0</ele>
        <time>2019-05-02T10:20:00.000Z</time>
      </trkpt>
      <trkpt lat="42.676475524902344" lon="-8.055925369262695">
        <ele>657.0</ele>
        <time>2019-05-02T10:20:17.000Z</time>
      </trkpt>
      <trkpt lat="42.67647933959961" lon="-8.055968284606934">
        <ele>657.0</ele>
        <time>2019-05-02T10:20:18.000Z</time>
      </trkpt>
      <trkpt lat="42.67648696899414" lon="-8.056198120117188">
        <ele>658.0</ele>
        <time>2019-05-02T10:20:25.000Z</time>
      </trkpt>
      <trkpt lat="42.676490783691406" lon="-8.05629825592041">
        <ele>661.0</ele>
        <time>2019-05-02T10:20:43.000Z</time>
      </trkpt>
      <trkpt lat="42.676490783691406" lon="-8.056344985961914">
        <ele>661.0</ele>
        <time>2019-05-02T10:20:44.000Z</time>
      </trkpt>
      <trkpt lat="42.67652893066406" lon="-8.0568208694458">
        <ele>665.0</ele>
        <time>2019-05-02T10:21:08.000Z</time>
      </trkpt>
      <trkpt lat="42.67653274536133" lon="-8.057307243347168">
        <ele>668.0</ele>
        <time>2019-05-02T10:21:41.000Z</time>
      </trkpt>
      <trkpt lat="42.676536560058594" lon="-8.0577974319458">
        <ele>665.0</ele>
        <time>2019-05-02T10:22:12.000Z</time>
      </trkpt>
      <trkpt lat="42.676597595214844" lon="-8.058268547058105">
        <ele>666.0</ele>
        <time>2019-05-02T10:22:45.000Z</time>
      </trkpt>
      <trkpt lat="42.67658996582031" lon="-8.058757781982422">
        <ele>668.0</ele>
        <time>2019-05-02T10:23:15.000Z</time>
      </trkpt>
      <trkpt lat="42.67657470703125" lon="-8.059003829956055">
        <ele>670.0</ele>
        <time>2019-05-02T10:23:30.000Z</time>
      </trkpt>
      <trkpt lat="42.67658615112305" lon="-8.05906867980957">
        <ele>673.0</ele>
        <time>2019-05-02T10:23:37.000Z</time>
      </trkpt>
      <trkpt lat="42.676578521728516" lon="-8.059083938598633">
        <ele>673.0</ele>
        <time>2019-05-02T10:23:41.000Z</time>
      </trkpt>
      <trkpt lat="42.67656326293945" lon="-8.059099197387695">
        <ele>673.0</ele>
        <time>2019-05-02T10:23:44.000Z</time>
      </trkpt>
      <trkpt lat="42.676544189453125" lon="-8.059115409851074">
        <ele>673.0</ele>
        <time>2019-05-02T10:23:47.000Z</time>
      </trkpt>
      <trkpt lat="42.6765251159668" lon="-8.059130668640137">
        <ele>673.0</ele>
        <time>2019-05-02T10:23:50.000Z</time>
      </trkpt>
      <trkpt lat="42.676517486572266" lon="-8.059141159057617">
        <ele>673.0</ele>
        <time>2019-05-02T10:23:51.000Z</time>
      </trkpt>
      <trkpt lat="42.676509857177734" lon="-8.059148788452148">
        <ele>673.0</ele>
        <time>2019-05-02T10:23:51.000Z</time>
      </trkpt>
      <trkpt lat="42.6765022277832" lon="-8.059155464172363">
        <ele>673.0</ele>
        <time>2019-05-02T10:23:51.000Z</time>
      </trkpt>
      <trkpt lat="42.67649841308594" lon="-8.059161186218262">
        <ele>673.0</ele>
        <time>2019-05-02T10:23:51.000Z</time>
      </trkpt>
      <trkpt lat="42.676483154296875" lon="-8.05919361114502">
        <ele>672.0</ele>
        <time>2019-05-02T10:24:06.000Z</time>
      </trkpt>
      <trkpt lat="42.67646408081055" lon="-8.059237480163574">
        <ele>672.0</ele>
        <time>2019-05-02T10:24:20.000Z</time>
      </trkpt>
      <trkpt lat="42.67644500732422" lon="-8.059287071228027">
        <ele>671.0</ele>
        <time>2019-05-02T10:24:35.000Z</time>
      </trkpt>
      <trkpt lat="42.676422119140625" lon="-8.059340476989746">
        <ele>670.0</ele>
        <time>2019-05-02T10:24:49.000Z</time>
      </trkpt>
      <trkpt lat="42.6764030456543" lon="-8.059383392333984">
        <ele>670.0</ele>
        <time>2019-05-02T10:24:51.000Z</time>
      </trkpt>
      <trkpt lat="42.6763801574707" lon="-8.05942440032959">
        <ele>670.0</ele>
        <time>2019-05-02T10:24:53.000Z</time>
      </trkpt>
      <trkpt lat="42.676361083984375" lon="-8.059464454650879">
        <ele>669.0</ele>
        <time>2019-05-02T10:24:55.000Z</time>
      </trkpt>
      <trkpt lat="42.67633819580078" lon="-8.059504508972168">
        <ele>669.0</ele>
        <time>2019-05-02T10:24:56.000Z</time>
      </trkpt>
      <trkpt lat="42.676326751708984" lon="-8.059523582458496">
        <ele>669.0</ele>
        <time>2019-05-02T10:24:57.000Z</time>
      </trkpt>
      <trkpt lat="42.67632293701172" lon="-8.059534072875977">
        <ele>669.0</ele>
        <time>2019-05-02T10:24:57.000Z</time>
      </trkpt>
      <trkpt lat="42.67631912231445" lon="-8.059537887573242">
        <ele>669.0</ele>
        <time>2019-05-02T10:24:57.000Z</time>
      </trkpt>
      <trkpt lat="42.67631912231445" lon="-8.059538841247559">
        <ele>669.0</ele>
        <time>2019-05-02T10:24:57.000Z</time>
      </trkpt>
      <trkpt lat="42.676307678222656" lon="-8.059574127197266">
        <ele>669.0</ele>
        <time>2019-05-02T10:25:00.000Z</time>
      </trkpt>
      <trkpt lat="42.676292419433594" lon="-8.059621810913086">
        <ele>668.0</ele>
        <time>2019-05-02T10:25:03.000Z</time>
      </trkpt>
      <trkpt lat="42.676273345947266" lon="-8.059676170349121">
        <ele>667.0</ele>
        <time>2019-05-02T10:25:06.000Z</time>
      </trkpt>
      <trkpt lat="42.67625427246094" lon="-8.059734344482422">
        <ele>666.0</ele>
        <time>2019-05-02T10:25:08.000Z</time>
      </trkpt>
      <trkpt lat="42.676246643066406" lon="-8.059779167175293">
        <ele>663.0</ele>
        <time>2019-05-02T10:25:25.000Z</time>
      </trkpt>
      <trkpt lat="42.676239013671875" lon="-8.059810638427734">
        <ele>663.0</ele>
        <time>2019-05-02T10:25:26.000Z</time>
      </trkpt>
      <trkpt lat="42.676151275634766" lon="-8.060287475585938">
        <ele>662.0</ele>
        <time>2019-05-02T10:25:46.000Z</time>
      </trkpt>
      <trkpt lat="42.6761360168457" lon="-8.060380935668945">
        <ele>661.0</ele>
        <time>2019-05-02T10:25:53.000Z</time>
      </trkpt>
      <trkpt lat="42.676124572753906" lon="-8.060444831848145">
        <ele>660.0</ele>
        <time>2019-05-02T10:26:09.000Z</time>
      </trkpt>
      <trkpt lat="42.67612075805664" lon="-8.0604829788208">
        <ele>660.0</ele>
        <time>2019-05-02T10:26:10.000Z</time>
      </trkpt>
      <trkpt lat="42.676116943359375" lon="-8.060495376586914">
        <ele>659.0</ele>
        <time>2019-05-02T10:26:11.000Z</time>
      </trkpt>
      <trkpt lat="42.67608642578125" lon="-8.060620307922363">
        <ele>659.0</ele>
        <time>2019-05-02T10:26:18.000Z</time>
      </trkpt>
      <trkpt lat="42.67607498168945" lon="-8.06066608428955">
        <ele>659.0</ele>
        <time>2019-05-02T10:26:19.000Z</time>
      </trkpt>
      <trkpt lat="42.6760139465332" lon="-8.06088924407959">
        <ele>658.0</ele>
        <time>2019-05-02T10:26:30.000Z</time>
      </trkpt>
      <trkpt lat="42.6760139465332" lon="-8.060969352722168">
        <ele>653.0</ele>
        <time>2019-05-02T10:26:55.000Z</time>
      </trkpt>
      <trkpt lat="42.67601013183594" lon="-8.06102180480957">
        <ele>653.0</ele>
        <time>2019-05-02T10:26:56.000Z</time>
      </trkpt>
      <trkpt lat="42.67601013183594" lon="-8.061055183410645">
        <ele>653.0</ele>
        <time>2019-05-02T10:26:57.000Z</time>
      </trkpt>
      <trkpt lat="42.67600631713867" lon="-8.061142921447754">
        <ele>652.0</ele>
        <time>2019-05-02T10:27:08.000Z</time>
      </trkpt>
      <trkpt lat="42.67600631713867" lon="-8.061197280883789">
        <ele>652.0</ele>
        <time>2019-05-02T10:27:09.000Z</time>
      </trkpt>
      <trkpt lat="42.67600631713867" lon="-8.061555862426758">
        <ele>650.0</ele>
        <time>2019-05-02T10:27:19.000Z</time>
      </trkpt>
      <trkpt lat="42.6760368347168" lon="-8.061654090881348">
        <ele>649.0</ele>
        <time>2019-05-02T10:27:25.000Z</time>
      </trkpt>
      <trkpt lat="42.67607879638672" lon="-8.061714172363281">
        <ele>648.0</ele>
        <time>2019-05-02T10:27:30.000Z</time>
      </trkpt>
      <trkpt lat="42.67609405517578" lon="-8.061820030212402">
        <ele>647.0</ele>
        <time>2019-05-02T10:27:39.000Z</time>
      </trkpt>
      <trkpt lat="42.676109313964844" lon="-8.061952590942383">
        <ele>647.0</ele>
        <time>2019-05-02T10:27:48.000Z</time>
      </trkpt>
      <trkpt lat="42.676124572753906" lon="-8.062104225158691">
        <ele>646.0</ele>
        <time>2019-05-02T10:27:56.000Z</time>
      </trkpt>
      <trkpt lat="42.676143646240234" lon="-8.062264442443848">
        <ele>645.0</ele>
        <time>2019-05-02T10:28:05.000Z</time>
      </trkpt>
      <trkpt lat="42.6761589050293" lon="-8.062368392944336">
        <ele>644.0</ele>
        <time>2019-05-02T10:28:10.000Z</time>
      </trkpt>
      <trkpt lat="42.676177978515625" lon="-8.062458038330078">
        <ele>644.0</ele>
        <time>2019-05-02T10:28:16.000Z</time>
      </trkpt>
      <trkpt lat="42.67619705200195" lon="-8.062539100646973">
        <ele>644.0</ele>
        <time>2019-05-02T10:28:21.000Z</time>
      </trkpt>
      <trkpt lat="42.67621994018555" lon="-8.062614440917969">
        <ele>644.0</ele>
        <time>2019-05-02T10:28:27.000Z</time>
      </trkpt>
      <trkpt lat="42.67622375488281" lon="-8.062647819519043">
        <ele>644.0</ele>
        <time>2019-05-02T10:28:30.000Z</time>
      </trkpt>
      <trkpt lat="42.67622375488281" lon="-8.062658309936523">
        <ele>643.0</ele>
        <time>2019-05-02T10:28:34.000Z</time>
      </trkpt>
      <trkpt lat="42.67622375488281" lon="-8.062653541564941">
        <ele>643.0</ele>
        <time>2019-05-02T10:28:37.000Z</time>
      </trkpt>
      <trkpt lat="42.67621612548828" lon="-8.062641143798828">
        <ele>644.0</ele>
        <time>2019-05-02T10:28:41.000Z</time>
      </trkpt>
      <trkpt lat="42.67621612548828" lon="-8.062647819519043">
        <ele>643.0</ele>
        <time>2019-05-02T10:28:41.000Z</time>
      </trkpt>
      <trkpt lat="42.67621612548828" lon="-8.062652587890625">
        <ele>643.0</ele>
        <time>2019-05-02T10:28:41.000Z</time>
      </trkpt>
      <trkpt lat="42.67621612548828" lon="-8.062658309936523">
        <ele>643.0</ele>
        <time>2019-05-02T10:28:41.000Z</time>
      </trkpt>
      <trkpt lat="42.67621612548828" lon="-8.062664031982422">
        <ele>644.0</ele>
        <time>2019-05-02T10:28:42.000Z</time>
      </trkpt>
      <trkpt lat="42.67621994018555" lon="-8.062748908996582">
        <ele>643.0</ele>
        <time>2019-05-02T10:28:48.000Z</time>
      </trkpt>
      <trkpt lat="42.67622756958008" lon="-8.062868118286133">
        <ele>643.0</ele>
        <time>2019-05-02T10:28:55.000Z</time>
      </trkpt>
      <trkpt lat="42.67623519897461" lon="-8.063009262084961">
        <ele>642.0</ele>
        <time>2019-05-02T10:29:02.000Z</time>
      </trkpt>
      <trkpt lat="42.67624282836914" lon="-8.063161849975586">
        <ele>642.0</ele>
        <time>2019-05-02T10:29:09.000Z</time>
      </trkpt>
      <trkpt lat="42.676246643066406" lon="-8.063183784484863">
        <ele>642.0</ele>
        <time>2019-05-02T10:29:10.000Z</time>
      </trkpt>
      <trkpt lat="42.67624282836914" lon="-8.063311576843262">
        <ele>640.0</ele>
        <time>2019-05-02T10:29:25.000Z</time>
      </trkpt>
      <trkpt lat="42.676239013671875" lon="-8.063363075256348">
        <ele>640.0</ele>
        <time>2019-05-02T10:29:26.000Z</time>
      </trkpt>
      <trkpt lat="42.67622375488281" lon="-8.063577651977539">
        <ele>639.0</ele>
        <time>2019-05-02T10:29:32.000Z</time>
      </trkpt>
      <trkpt lat="42.67624282836914" lon="-8.06363582611084">
        <ele>638.0</ele>
        <time>2019-05-02T10:29:36.000Z</time>
      </trkpt>
      <trkpt lat="42.676273345947266" lon="-8.063694953918457">
        <ele>636.0</ele>
        <time>2019-05-02T10:29:41.000Z</time>
      </trkpt>
      <trkpt lat="42.676307678222656" lon="-8.063755989074707">
        <ele>635.0</ele>
        <time>2019-05-02T10:29:45.000Z</time>
      </trkpt>
      <trkpt lat="42.67634582519531" lon="-8.063817977905273">
        <ele>633.0</ele>
        <time>2019-05-02T10:29:49.000Z</time>
      </trkpt>
      <trkpt lat="42.676395416259766" lon="-8.063899040222168">
        <ele>632.0</ele>
        <time>2019-05-02T10:29:56.000Z</time>
      </trkpt>
      <trkpt lat="42.67645263671875" lon="-8.06398868560791">
        <ele>630.0</ele>
        <time>2019-05-02T10:30:04.000Z</time>
      </trkpt>
      <trkpt lat="42.676517486572266" lon="-8.064085006713867">
        <ele>628.0</ele>
        <time>2019-05-02T10:30:11.000Z</time>
      </trkpt>
      <trkpt lat="42.67658233642578" lon="-8.064183235168457">
        <ele>627.0</ele>
        <time>2019-05-02T10:30:18.000Z</time>
      </trkpt>
      <trkpt lat="42.67662048339844" lon="-8.064253807067871">
        <ele>625.0</ele>
        <time>2019-05-02T10:30:22.000Z</time>
      </trkpt>
      <trkpt lat="42.6766471862793" lon="-8.064315795898438">
        <ele>625.0</ele>
        <time>2019-05-02T10:30:27.000Z</time>
      </trkpt>
      <trkpt lat="42.67667007446289" lon="-8.064372062683105">
        <ele>624.0</ele>
        <time>2019-05-02T10:30:31.000Z</time>
      </trkpt>
      <trkpt lat="42.67668914794922" lon="-8.064425468444824">
        <ele>623.0</ele>
        <time>2019-05-02T10:30:35.000Z</time>
      </trkpt>
      <trkpt lat="42.676700592041016" lon="-8.064451217651367">
        <ele>623.0</ele>
        <time>2019-05-02T10:30:39.000Z</time>
      </trkpt>
      <trkpt lat="42.67670440673828" lon="-8.064461708068848">
        <ele>622.0</ele>
        <time>2019-05-02T10:30:43.000Z</time>
      </trkpt>
      <trkpt lat="42.676700592041016" lon="-8.064461708068848">
        <ele>622.0</ele>
        <time>2019-05-02T10:30:47.000Z</time>
      </trkpt>
      <trkpt lat="42.676700592041016" lon="-8.064457893371582">
        <ele>622.0</ele>
        <time>2019-05-02T10:30:51.000Z</time>
      </trkpt>
      <trkpt lat="42.676700592041016" lon="-8.064464569091797">
        <ele>622.0</ele>
        <time>2019-05-02T10:30:51.000Z</time>
      </trkpt>
      <trkpt lat="42.67670440673828" lon="-8.064471244812012">
        <ele>622.0</ele>
        <time>2019-05-02T10:30:52.000Z</time>
      </trkpt>
      <trkpt lat="42.67670440673828" lon="-8.06447696685791">
        <ele>622.0</ele>
        <time>2019-05-02T10:30:52.000Z</time>
      </trkpt>
      <trkpt lat="42.67670822143555" lon="-8.064482688903809">
        <ele>622.0</ele>
        <time>2019-05-02T10:30:52.000Z</time>
      </trkpt>
      <trkpt lat="42.67672348022461" lon="-8.064563751220703">
        <ele>623.0</ele>
        <time>2019-05-02T10:30:57.000Z</time>
      </trkpt>
      <trkpt lat="42.6767463684082" lon="-8.064675331115723">
        <ele>623.0</ele>
        <time>2019-05-02T10:31:03.000Z</time>
      </trkpt>
      <trkpt lat="42.67677688598633" lon="-8.064807891845703">
        <ele>624.0</ele>
        <time>2019-05-02T10:31:08.000Z</time>
      </trkpt>
      <trkpt lat="42.67680740356445" lon="-8.064949989318848">
        <ele>625.0</ele>
        <time>2019-05-02T10:31:13.000Z</time>
      </trkpt>
      <trkpt lat="42.67679214477539" lon="-8.065054893493652">
        <ele>625.0</ele>
        <time>2019-05-02T10:31:18.000Z</time>
      </trkpt>
      <trkpt lat="42.67679214477539" lon="-8.065114974975586">
        <ele>626.0</ele>
        <time>2019-05-02T10:31:33.000Z</time>
      </trkpt>
      <trkpt lat="42.676795959472656" lon="-8.065154075622559">
        <ele>626.0</ele>
        <time>2019-05-02T10:31:34.000Z</time>
      </trkpt>
      <trkpt lat="42.676780700683594" lon="-8.06551456451416">
        <ele>625.0</ele>
        <time>2019-05-02T10:31:51.000Z</time>
      </trkpt>
      <trkpt lat="42.676780700683594" lon="-8.065539360046387">
        <ele>623.0</ele>
        <time>2019-05-02T10:32:14.000Z</time>
      </trkpt>
      <trkpt lat="42.67677688598633" lon="-8.065559387207031">
        <ele>623.0</ele>
        <time>2019-05-02T10:32:15.000Z</time>
      </trkpt>
      <trkpt lat="42.67681121826172" lon="-8.066020011901855">
        <ele>619.0</ele>
        <time>2019-05-02T10:32:28.000Z</time>
      </trkpt>
      <trkpt lat="42.67681121826172" lon="-8.06604290008545">
        <ele>619.0</ele>
        <time>2019-05-02T10:32:30.000Z</time>
      </trkpt>
      <trkpt lat="42.67680740356445" lon="-8.066118240356445">
        <ele>610.0</ele>
        <time>2019-05-02T10:33:25.000Z</time>
      </trkpt>
      <trkpt lat="42.67680740356445" lon="-8.066178321838379">
        <ele>610.0</ele>
        <time>2019-05-02T10:33:26.000Z</time>
      </trkpt>
      <trkpt lat="42.67680358886719" lon="-8.066222190856934">
        <ele>610.0</ele>
        <time>2019-05-02T10:33:27.000Z</time>
      </trkpt>
      <trkpt lat="42.67679214477539" lon="-8.066571235656738">
        <ele>607.0</ele>
        <time>2019-05-02T10:33:40.000Z</time>
      </trkpt>
      <trkpt lat="42.676788330078125" lon="-8.06667423248291">
        <ele>607.0</ele>
        <time>2019-05-02T10:33:41.000Z</time>
      </trkpt>
      <trkpt lat="42.676727294921875" lon="-8.06697940826416">
        <ele>606.0</ele>
        <time>2019-05-02T10:33:52.000Z</time>
      </trkpt>
      <trkpt lat="42.676719665527344" lon="-8.06704330444336">
        <ele>605.0</ele>
        <time>2019-05-02T10:33:54.000Z</time>
      </trkpt>
      <trkpt lat="42.67671203613281" lon="-8.067066192626953">
        <ele>605.0</ele>
        <time>2019-05-02T10:33:55.000Z</time>
      </trkpt>
      <trkpt lat="42.67669677734375" lon="-8.067111015319824">
        <ele>604.0</ele>
        <time>2019-05-02T10:33:57.000Z</time>
      </trkpt>
      <trkpt lat="42.676692962646484" lon="-8.067112922668457">
        <ele>604.0</ele>
        <time>2019-05-02T10:33:58.000Z</time>
      </trkpt>
      <trkpt lat="42.676673889160156" lon="-8.067150115966797">
        <ele>603.0</ele>
        <time>2019-05-02T10:34:00.000Z</time>
      </trkpt>
      <trkpt lat="42.67666244506836" lon="-8.06734848022461">
        <ele>602.0</ele>
        <time>2019-05-02T10:34:13.000Z</time>
      </trkpt>
      <trkpt lat="42.67668151855469" lon="-8.067408561706543">
        <ele>601.0</ele>
        <time>2019-05-02T10:34:19.000Z</time>
      </trkpt>
      <trkpt lat="42.67671203613281" lon="-8.067474365234375">
        <ele>600.0</ele>
        <time>2019-05-02T10:34:24.000Z</time>
      </trkpt>
      <trkpt lat="42.67675018310547" lon="-8.067543029785156">
        <ele>599.0</ele>
        <time>2019-05-02T10:34:30.000Z</time>
      </trkpt>
      <trkpt lat="42.676788330078125" lon="-8.06761360168457">
        <ele>598.0</ele>
        <time>2019-05-02T10:34:35.000Z</time>
      </trkpt>
      <trkpt lat="42.67681884765625" lon="-8.06771183013916">
        <ele>598.0</ele>
        <time>2019-05-02T10:34:42.000Z</time>
      </trkpt>
      <trkpt lat="42.676849365234375" lon="-8.06782341003418">
        <ele>599.0</ele>
        <time>2019-05-02T10:34:49.000Z</time>
      </trkpt>
      <trkpt lat="42.676876068115234" lon="-8.067944526672363">
        <ele>601.0</ele>
        <time>2019-05-02T10:34:56.000Z</time>
      </trkpt>
      <trkpt lat="42.67690658569336" lon="-8.068070411682129">
        <ele>602.0</ele>
        <time>2019-05-02T10:35:03.000Z</time>
      </trkpt>
      <trkpt lat="42.67692565917969" lon="-8.068185806274414">
        <ele>603.0</ele>
        <time>2019-05-02T10:35:11.000Z</time>
      </trkpt>
      <trkpt lat="42.676937103271484" lon="-8.0683012008667">
        <ele>603.0</ele>
        <time>2019-05-02T10:35:18.000Z</time>
      </trkpt>
      <trkpt lat="42.67694854736328" lon="-8.068416595458984">
        <ele>603.0</ele>
        <time>2019-05-02T10:35:26.000Z</time>
      </trkpt>
      <trkpt lat="42.67695617675781" lon="-8.06853199005127">
        <ele>604.0</ele>
        <time>2019-05-02T10:35:33.000Z</time>
      </trkpt>
      <trkpt lat="42.67695999145508" lon="-8.068582534790039">
        <ele>604.0</ele>
        <time>2019-05-02T10:35:35.000Z</time>
      </trkpt>
      <trkpt lat="42.67695999145508" lon="-8.068605422973633">
        <ele>604.0</ele>
        <time>2019-05-02T10:35:36.000Z</time>
      </trkpt>
      <trkpt lat="42.67695617675781" lon="-8.068609237670898">
        <ele>604.0</ele>
        <time>2019-05-02T10:35:37.000Z</time>
      </trkpt>
      <trkpt lat="42.67695236206055" lon="-8.068605422973633">
        <ele>604.0</ele>
        <time>2019-05-02T10:35:38.000Z</time>
      </trkpt>
      <trkpt lat="42.67695617675781" lon="-8.06864070892334">
        <ele>604.0</ele>
        <time>2019-05-02T10:35:45.000Z</time>
      </trkpt>
      <trkpt lat="42.67695617675781" lon="-8.068684577941895">
        <ele>605.0</ele>
        <time>2019-05-02T10:35:52.000Z</time>
      </trkpt>
      <trkpt lat="42.67695999145508" lon="-8.068733215332031">
        <ele>605.0</ele>
        <time>2019-05-02T10:35:59.000Z</time>
      </trkpt>
      <trkpt lat="42.676963806152344" lon="-8.0687837600708">
        <ele>606.0</ele>
        <time>2019-05-02T10:36:06.000Z</time>
      </trkpt>
      <trkpt lat="42.67696762084961" lon="-8.068809509277344">
        <ele>606.0</ele>
        <time>2019-05-02T10:36:07.000Z</time>
      </trkpt>
      <trkpt lat="42.67696762084961" lon="-8.068827629089355">
        <ele>606.0</ele>
        <time>2019-05-02T10:36:07.000Z</time>
      </trkpt>
      <trkpt lat="42.67696762084961" lon="-8.068840026855469">
        <ele>606.0</ele>
        <time>2019-05-02T10:36:07.000Z</time>
      </trkpt>
      <trkpt lat="42.676971435546875" lon="-8.06885051727295">
        <ele>606.0</ele>
        <time>2019-05-02T10:36:07.000Z</time>
      </trkpt>
      <trkpt lat="42.676971435546875" lon="-8.069318771362305">
        <ele>607.0</ele>
        <time>2019-05-02T10:36:32.000Z</time>
      </trkpt>
      <trkpt lat="42.67695617675781" lon="-8.06979751586914">
        <ele>611.0</ele>
        <time>2019-05-02T10:36:56.000Z</time>
      </trkpt>
      <trkpt lat="42.67694854736328" lon="-8.070280075073242">
        <ele>611.0</ele>
        <time>2019-05-02T10:37:34.000Z</time>
      </trkpt>
      <trkpt lat="42.676876068115234" lon="-8.070759773254395">
        <ele>611.0</ele>
        <time>2019-05-02T10:38:03.000Z</time>
      </trkpt>
      <trkpt lat="42.676753997802734" lon="-8.07111930847168">
        <ele>607.0</ele>
        <time>2019-05-02T10:38:30.000Z</time>
      </trkpt>
      <trkpt lat="42.67674255371094" lon="-8.071167945861816">
        <ele>608.0</ele>
        <time>2019-05-02T10:38:49.000Z</time>
      </trkpt>
      <trkpt lat="42.67673110961914" lon="-8.07120132446289">
        <ele>608.0</ele>
        <time>2019-05-02T10:38:50.000Z</time>
      </trkpt>
      <trkpt lat="42.67658233642578" lon="-8.071640968322754">
        <ele>607.0</ele>
        <time>2019-05-02T10:39:09.000Z</time>
      </trkpt>
      <trkpt lat="42.676544189453125" lon="-8.071704864501953">
        <ele>607.0</ele>
        <time>2019-05-02T10:39:17.000Z</time>
      </trkpt>
      <trkpt lat="42.676517486572266" lon="-8.071763038635254">
        <ele>606.0</ele>
        <time>2019-05-02T10:39:58.000Z</time>
      </trkpt>
      <trkpt lat="42.67649459838867" lon="-8.071806907653809">
        <ele>606.0</ele>
        <time>2019-05-02T10:39:59.000Z</time>
      </trkpt>
      <trkpt lat="42.676334381103516" lon="-8.072247505187988">
        <ele>604.0</ele>
        <time>2019-05-02T10:40:07.000Z</time>
      </trkpt>
      <trkpt lat="42.67620086669922" lon="-8.07270622253418">
        <ele>600.0</ele>
        <time>2019-05-02T10:40:38.000Z</time>
      </trkpt>
      <trkpt lat="42.67617416381836" lon="-8.072782516479492">
        <ele>600.0</ele>
        <time>2019-05-02T10:40:46.000Z</time>
      </trkpt>
      <trkpt lat="42.676170349121094" lon="-8.072803497314453">
        <ele>599.0</ele>
        <time>2019-05-02T10:40:56.000Z</time>
      </trkpt>
      <trkpt lat="42.67617416381836" lon="-8.0728178024292">
        <ele>599.0</ele>
        <time>2019-05-02T10:41:06.000Z</time>
      </trkpt>
      <trkpt lat="42.67617416381836" lon="-8.07282543182373">
        <ele>599.0</ele>
        <time>2019-05-02T10:41:06.000Z</time>
      </trkpt>
      <trkpt lat="42.67617416381836" lon="-8.072832107543945">
        <ele>599.0</ele>
        <time>2019-05-02T10:41:07.000Z</time>
      </trkpt>
      <trkpt lat="42.67617416381836" lon="-8.07283878326416">
        <ele>599.0</ele>
        <time>2019-05-02T10:41:07.000Z</time>
      </trkpt>
      <trkpt lat="42.67617416381836" lon="-8.072846412658691">
        <ele>599.0</ele>
        <time>2019-05-02T10:41:07.000Z</time>
      </trkpt>
      <trkpt lat="42.676185607910156" lon="-8.072929382324219">
        <ele>599.0</ele>
        <time>2019-05-02T10:41:11.000Z</time>
      </trkpt>
      <trkpt lat="42.67620086669922" lon="-8.073044776916504">
        <ele>599.0</ele>
        <time>2019-05-02T10:41:14.000Z</time>
      </trkpt>
      <trkpt lat="42.67621994018555" lon="-8.07318115234375">
        <ele>599.0</ele>
        <time>2019-05-02T10:41:18.000Z</time>
      </trkpt>
      <trkpt lat="42.676239013671875" lon="-8.073328018188477">
        <ele>599.0</ele>
        <time>2019-05-02T10:41:21.000Z</time>
      </trkpt>
      <trkpt lat="42.67623519897461" lon="-8.073443412780762">
        <ele>599.0</ele>
        <time>2019-05-02T10:41:31.000Z</time>
      </trkpt>
      <trkpt lat="42.67622756958008" lon="-8.073556900024414">
        <ele>599.0</ele>
        <time>2019-05-02T10:41:40.000Z</time>
      </trkpt>
      <trkpt lat="42.67621612548828" lon="-8.07366943359375">
        <ele>599.0</ele>
        <time>2019-05-02T10:41:50.000Z</time>
      </trkpt>
      <trkpt lat="42.67619705200195" lon="-8.07378101348877">
        <ele>599.0</ele>
        <time>2019-05-02T10:41:59.000Z</time>
      </trkpt>
      <trkpt lat="42.6761360168457" lon="-8.073934555053711">
        <ele>599.0</ele>
        <time>2019-05-02T10:42:08.000Z</time>
      </trkpt>
      <trkpt lat="42.676055908203125" lon="-8.074053764343262">
        <ele>600.0</ele>
        <time>2019-05-02T10:42:16.000Z</time>
      </trkpt>
      <trkpt lat="42.67603302001953" lon="-8.07408618927002">
        <ele>600.0</ele>
        <time>2019-05-02T10:42:20.000Z</time>
      </trkpt>
      <trkpt lat="42.67601776123047" lon="-8.074103355407715">
        <ele>600.0</ele>
        <time>2019-05-02T10:42:24.000Z</time>
      </trkpt>
      <trkpt lat="42.676002502441406" lon="-8.074111938476562">
        <ele>600.0</ele>
        <time>2019-05-02T10:42:28.000Z</time>
      </trkpt>
      <trkpt lat="42.675994873046875" lon="-8.074114799499512">
        <ele>599.0</ele>
        <time>2019-05-02T10:42:33.000Z</time>
      </trkpt>
      <trkpt lat="42.67598342895508" lon="-8.074124336242676">
        <ele>599.0</ele>
        <time>2019-05-02T10:42:33.000Z</time>
      </trkpt>
      <trkpt lat="42.67597579956055" lon="-8.074131965637207">
        <ele>599.0</ele>
        <time>2019-05-02T10:42:33.000Z</time>
      </trkpt>
      <trkpt lat="42.67597198486328" lon="-8.074137687683105">
        <ele>599.0</ele>
        <time>2019-05-02T10:42:33.000Z</time>
      </trkpt>
      <trkpt lat="42.67596435546875" lon="-8.074143409729004">
        <ele>599.0</ele>
        <time>2019-05-02T10:42:34.000Z</time>
      </trkpt>
      <trkpt lat="42.67592239379883" lon="-8.074200630187988">
        <ele>600.0</ele>
        <time>2019-05-02T10:42:40.000Z</time>
      </trkpt>
      <trkpt lat="42.675865173339844" lon="-8.074277877807617">
        <ele>600.0</ele>
        <time>2019-05-02T10:42:46.000Z</time>
      </trkpt>
      <trkpt lat="42.67579650878906" lon="-8.074369430541992">
        <ele>601.0</ele>
        <time>2019-05-02T10:42:52.000Z</time>
      </trkpt>
      <trkpt lat="42.67572021484375" lon="-8.074467658996582">
        <ele>601.0</ele>
        <time>2019-05-02T10:42:59.000Z</time>
      </trkpt>
      <trkpt lat="42.675697326660156" lon="-8.07450008392334">
        <ele>602.0</ele>
        <time>2019-05-02T10:43:03.000Z</time>
      </trkpt>
      <trkpt lat="42.675689697265625" lon="-8.074511528015137">
        <ele>602.0</ele>
        <time>2019-05-02T10:43:07.000Z</time>
      </trkpt>
      <trkpt lat="42.675689697265625" lon="-8.074509620666504">
        <ele>602.0</ele>
        <time>2019-05-02T10:43:11.000Z</time>
      </trkpt>
      <trkpt lat="42.675697326660156" lon="-8.074501037597656">
        <ele>602.0</ele>
        <time>2019-05-02T10:43:16.000Z</time>
      </trkpt>
      <trkpt lat="42.67569351196289" lon="-8.074507713317871">
        <ele>602.0</ele>
        <time>2019-05-02T10:43:16.000Z</time>
      </trkpt>
      <trkpt lat="42.675689697265625" lon="-8.074514389038086">
        <ele>602.0</ele>
        <time>2019-05-02T10:43:16.000Z</time>
      </trkpt>
      <trkpt lat="42.67568588256836" lon="-8.074519157409668">
        <ele>602.0</ele>
        <time>2019-05-02T10:43:16.000Z</time>
      </trkpt>
      <trkpt lat="42.675682067871094" lon="-8.074524879455566">
        <ele>602.0</ele>
        <time>2019-05-02T10:43:17.000Z</time>
      </trkpt>
      <trkpt lat="42.67546463012695" lon="-8.07485294342041">
        <ele>602.0</ele>
        <time>2019-05-02T10:43:33.000Z</time>
      </trkpt>
      <trkpt lat="42.6754150390625" lon="-8.074936866760254">
        <ele>605.0</ele>
        <time>2019-05-02T10:43:58.000Z</time>
      </trkpt>
      <trkpt lat="42.675392150878906" lon="-8.07497787475586">
        <ele>605.0</ele>
        <time>2019-05-02T10:43:59.000Z</time>
      </trkpt>
      <trkpt lat="42.6752815246582" lon="-8.075438499450684">
        <ele>607.0</ele>
        <time>2019-05-02T10:44:23.000Z</time>
      </trkpt>
      <trkpt lat="42.675174713134766" lon="-8.075628280639648">
        <ele>608.0</ele>
        <time>2019-05-02T10:44:36.000Z</time>
      </trkpt>
      <trkpt lat="42.675045013427734" lon="-8.075799942016602">
        <ele>610.0</ele>
        <time>2019-05-02T10:44:50.000Z</time>
      </trkpt>
      <trkpt lat="42.674991607666016" lon="-8.075834274291992">
        <ele>610.0</ele>
        <time>2019-05-02T10:44:54.000Z</time>
      </trkpt>
      <trkpt lat="42.67494201660156" lon="-8.075845718383789">
        <ele>610.0</ele>
        <time>2019-05-02T10:44:59.000Z</time>
      </trkpt>
      <trkpt lat="42.67489242553711" lon="-8.075840950012207">
        <ele>610.0</ele>
        <time>2019-05-02T10:45:04.000Z</time>
      </trkpt>
      <trkpt lat="42.67484664916992" lon="-8.075828552246094">
        <ele>610.0</ele>
        <time>2019-05-02T10:45:08.000Z</time>
      </trkpt>
      <trkpt lat="42.674808502197266" lon="-8.075837135314941">
        <ele>610.0</ele>
        <time>2019-05-02T10:45:14.000Z</time>
      </trkpt>
      <trkpt lat="42.67477798461914" lon="-8.075844764709473">
        <ele>611.0</ele>
        <time>2019-05-02T10:45:19.000Z</time>
      </trkpt>
      <trkpt lat="42.67475128173828" lon="-8.07585334777832">
        <ele>611.0</ele>
        <time>2019-05-02T10:45:25.000Z</time>
      </trkpt>
      <trkpt lat="42.67472457885742" lon="-8.075861930847168">
        <ele>612.0</ele>
        <time>2019-05-02T10:45:31.000Z</time>
      </trkpt>
      <trkpt lat="42.67470932006836" lon="-8.07586669921875">
        <ele>612.0</ele>
        <time>2019-05-02T10:45:31.000Z</time>
      </trkpt>
      <trkpt lat="42.67469787597656" lon="-8.0758695602417">
        <ele>612.0</ele>
        <time>2019-05-02T10:45:31.000Z</time>
      </trkpt>
      <trkpt lat="42.67469024658203" lon="-8.075871467590332">
        <ele>612.0</ele>
        <time>2019-05-02T10:45:31.000Z</time>
      </trkpt>
      <trkpt lat="42.674686431884766" lon="-8.075872421264648">
        <ele>612.0</ele>
        <time>2019-05-02T10:45:32.000Z</time>
      </trkpt>
      <trkpt lat="42.674644470214844" lon="-8.075904846191406">
        <ele>612.0</ele>
        <time>2019-05-02T10:45:36.000Z</time>
      </trkpt>
      <trkpt lat="42.67458724975586" lon="-8.075947761535645">
        <ele>613.0</ele>
        <time>2019-05-02T10:45:41.000Z</time>
      </trkpt>
      <trkpt lat="42.674522399902344" lon="-8.07599925994873">
        <ele>614.0</ele>
        <time>2019-05-02T10:45:46.000Z</time>
      </trkpt>
      <trkpt lat="42.67445373535156" lon="-8.076054573059082">
        <ele>615.0</ele>
        <time>2019-05-02T10:45:51.000Z</time>
      </trkpt>
      <trkpt lat="42.674434661865234" lon="-8.076074600219727">
        <ele>616.0</ele>
        <time>2019-05-02T10:46:00.000Z</time>
      </trkpt>
      <trkpt lat="42.67443084716797" lon="-8.076082229614258">
        <ele>617.0</ele>
        <time>2019-05-02T10:46:08.000Z</time>
      </trkpt>
      <trkpt lat="42.674434661865234" lon="-8.076083183288574">
        <ele>618.0</ele>
        <time>2019-05-02T10:46:16.000Z</time>
      </trkpt>
      <trkpt lat="42.674442291259766" lon="-8.076079368591309">
        <ele>619.0</ele>
        <time>2019-05-02T10:46:24.000Z</time>
      </trkpt>
      <trkpt lat="42.6744384765625" lon="-8.076085090637207">
        <ele>619.0</ele>
        <time>2019-05-02T10:46:25.000Z</time>
      </trkpt>
      <trkpt lat="42.6744384765625" lon="-8.076089859008789">
        <ele>619.0</ele>
        <time>2019-05-02T10:46:25.000Z</time>
      </trkpt>
      <trkpt lat="42.674434661865234" lon="-8.076094627380371">
        <ele>619.0</ele>
        <time>2019-05-02T10:46:25.000Z</time>
      </trkpt>
      <trkpt lat="42.674434661865234" lon="-8.076099395751953">
        <ele>619.0</ele>
        <time>2019-05-02T10:46:25.000Z</time>
      </trkpt>
      <trkpt lat="42.67426681518555" lon="-8.076433181762695">
        <ele>620.0</ele>
        <time>2019-05-02T10:46:38.000Z</time>
      </trkpt>
      <trkpt lat="42.674259185791016" lon="-8.076469421386719">
        <ele>619.0</ele>
        <time>2019-05-02T10:46:52.000Z</time>
      </trkpt>
      <trkpt lat="42.67425537109375" lon="-8.076498031616211">
        <ele>619.0</ele>
        <time>2019-05-02T10:46:53.000Z</time>
      </trkpt>
      <trkpt lat="42.674190521240234" lon="-8.076980590820312">
        <ele>620.0</ele>
        <time>2019-05-02T10:47:13.000Z</time>
      </trkpt>
      <trkpt lat="42.674190521240234" lon="-8.077508926391602">
        <ele>623.0</ele>
        <time>2019-05-02T10:47:49.000Z</time>
      </trkpt>
      <trkpt lat="42.67422103881836" lon="-8.077733993530273">
        <ele>624.0</ele>
        <time>2019-05-02T10:48:11.000Z</time>
      </trkpt>
      <trkpt lat="42.674224853515625" lon="-8.07780647277832">
        <ele>623.0</ele>
        <time>2019-05-02T10:48:23.000Z</time>
      </trkpt>
      <trkpt lat="42.67422866821289" lon="-8.077853202819824">
        <ele>623.0</ele>
        <time>2019-05-02T10:48:24.000Z</time>
      </trkpt>
      <trkpt lat="42.674224853515625" lon="-8.078152656555176">
        <ele>623.0</ele>
        <time>2019-05-02T10:48:32.000Z</time>
      </trkpt>
      <trkpt lat="42.674217224121094" lon="-8.078320503234863">
        <ele>625.0</ele>
        <time>2019-05-02T10:48:54.000Z</time>
      </trkpt>
      <trkpt lat="42.67421340942383" lon="-8.078386306762695">
        <ele>625.0</ele>
        <time>2019-05-02T10:48:55.000Z</time>
      </trkpt>
      <trkpt lat="42.674171447753906" lon="-8.078855514526367">
        <ele>624.0</ele>
        <time>2019-05-02T10:49:14.000Z</time>
      </trkpt>
      <trkpt lat="42.67414474487305" lon="-8.079275131225586">
        <ele>624.0</ele>
        <time>2019-05-02T10:49:41.000Z</time>
      </trkpt>
      <trkpt lat="42.67414093017578" lon="-8.079383850097656">
        <ele>626.0</ele>
        <time>2019-05-02T10:50:01.000Z</time>
      </trkpt>
      <trkpt lat="42.67414093017578" lon="-8.079440116882324">
        <ele>626.0</ele>
        <time>2019-05-02T10:50:02.000Z</time>
      </trkpt>
      <trkpt lat="42.67410659790039" lon="-8.079954147338867">
        <ele>627.0</ele>
        <time>2019-05-02T10:50:23.000Z</time>
      </trkpt>
      <trkpt lat="42.67403793334961" lon="-8.080432891845703">
        <ele>625.0</ele>
        <time>2019-05-02T10:50:50.000Z</time>
      </trkpt>
      <trkpt lat="42.6739501953125" lon="-8.080764770507812">
        <ele>624.0</ele>
        <time>2019-05-02T10:51:10.000Z</time>
      </trkpt>
      <trkpt lat="42.673919677734375" lon="-8.08098030090332">
        <ele>625.0</ele>
        <time>2019-05-02T10:51:26.000Z</time>
      </trkpt>
      <trkpt lat="42.67390441894531" lon="-8.081007957458496">
        <ele>624.0</ele>
        <time>2019-05-02T10:51:40.000Z</time>
      </trkpt>
      <trkpt lat="42.67388916015625" lon="-8.081029891967773">
        <ele>624.0</ele>
        <time>2019-05-02T10:51:41.000Z</time>
      </trkpt>
      <trkpt lat="42.67369842529297" lon="-8.0814208984375">
        <ele>625.0</ele>
        <time>2019-05-02T10:51:59.000Z</time>
      </trkpt>
      <trkpt lat="42.67344284057617" lon="-8.081756591796875">
        <ele>622.0</ele>
        <time>2019-05-02T10:52:28.000Z</time>
      </trkpt>
      <trkpt lat="42.67314910888672" lon="-8.082040786743164">
        <ele>620.0</ele>
        <time>2019-05-02T10:53:01.000Z</time>
      </trkpt>
      <trkpt lat="42.67282485961914" lon="-8.082255363464355">
        <ele>619.0</ele>
        <time>2019-05-02T10:53:30.000Z</time>
      </trkpt>
      <trkpt lat="42.67246627807617" lon="-8.0823392868042">
        <ele>615.0</ele>
        <time>2019-05-02T10:54:03.000Z</time>
      </trkpt>
      <trkpt lat="42.67218780517578" lon="-8.082518577575684">
        <ele>613.0</ele>
        <time>2019-05-02T10:54:28.000Z</time>
      </trkpt>
      <trkpt lat="42.67217254638672" lon="-8.082531929016113">
        <ele>613.0</ele>
        <time>2019-05-02T10:54:43.000Z</time>
      </trkpt>
      <trkpt lat="42.67216110229492" lon="-8.08254337310791">
        <ele>613.0</ele>
        <time>2019-05-02T10:54:44.000Z</time>
      </trkpt>
      <trkpt lat="42.672061920166016" lon="-8.0826416015625">
        <ele>612.0</ele>
        <time>2019-05-02T10:54:48.000Z</time>
      </trkpt>
      <trkpt lat="42.67195510864258" lon="-8.082761764526367">
        <ele>612.0</ele>
        <time>2019-05-02T10:54:55.000Z</time>
      </trkpt>
      <trkpt lat="42.671932220458984" lon="-8.08278751373291">
        <ele>612.0</ele>
        <time>2019-05-02T10:54:56.000Z</time>
      </trkpt>
      <trkpt lat="42.67183303833008" lon="-8.082871437072754">
        <ele>611.0</ele>
        <time>2019-05-02T10:55:11.000Z</time>
      </trkpt>
      <trkpt lat="42.67176055908203" lon="-8.082907676696777">
        <ele>610.0</ele>
        <time>2019-05-02T10:55:21.000Z</time>
      </trkpt>
      <trkpt lat="42.67172622680664" lon="-8.082924842834473">
        <ele>610.0</ele>
        <time>2019-05-02T10:55:22.000Z</time>
      </trkpt>
      <trkpt lat="42.67157745361328" lon="-8.083039283752441">
        <ele>610.0</ele>
        <time>2019-05-02T10:55:33.000Z</time>
      </trkpt>
      <trkpt lat="42.67152786254883" lon="-8.083072662353516">
        <ele>611.0</ele>
        <time>2019-05-02T10:55:46.000Z</time>
      </trkpt>
      <trkpt lat="42.67150115966797" lon="-8.083090782165527">
        <ele>611.0</ele>
        <time>2019-05-02T10:55:47.000Z</time>
      </trkpt>
      <trkpt lat="42.671443939208984" lon="-8.083130836486816">
        <ele>612.0</ele>
        <time>2019-05-02T10:55:50.000Z</time>
      </trkpt>
      <trkpt lat="42.6713752746582" lon="-8.0831937789917">
        <ele>611.0</ele>
        <time>2019-05-02T10:56:04.000Z</time>
      </trkpt>
      <trkpt lat="42.67134094238281" lon="-8.083222389221191">
        <ele>611.0</ele>
        <time>2019-05-02T10:56:05.000Z</time>
      </trkpt>
      <trkpt lat="42.671199798583984" lon="-8.08338451385498">
        <ele>612.0</ele>
        <time>2019-05-02T10:56:14.000Z</time>
      </trkpt>
      <trkpt lat="42.67096710205078" lon="-8.083611488342285">
        <ele>612.0</ele>
        <time>2019-05-02T10:56:39.000Z</time>
      </trkpt>
      <trkpt lat="42.67088317871094" lon="-8.083717346191406">
        <ele>609.0</ele>
        <time>2019-05-02T10:56:55.000Z</time>
      </trkpt>
      <trkpt lat="42.67085647583008" lon="-8.083752632141113">
        <ele>609.0</ele>
        <time>2019-05-02T10:56:56.000Z</time>
      </trkpt>
      <trkpt lat="42.67076873779297" lon="-8.083857536315918">
        <ele>608.0</ele>
        <time>2019-05-02T10:57:02.000Z</time>
      </trkpt>
      <trkpt lat="42.67076110839844" lon="-8.083868026733398">
        <ele>605.0</ele>
        <time>2019-05-02T10:57:22.000Z</time>
      </trkpt>
      <trkpt lat="42.67075729370117" lon="-8.083877563476562">
        <ele>605.0</ele>
        <time>2019-05-02T10:57:23.000Z</time>
      </trkpt>
      <trkpt lat="42.67053985595703" lon="-8.084237098693848">
        <ele>605.0</ele>
        <time>2019-05-02T10:57:36.000Z</time>
      </trkpt>
      <trkpt lat="42.67049789428711" lon="-8.084402084350586">
        <ele>604.0</ele>
        <time>2019-05-02T10:57:49.000Z</time>
      </trkpt>
      <trkpt lat="42.67049026489258" lon="-8.08456039428711">
        <ele>603.0</ele>
        <time>2019-05-02T10:58:03.000Z</time>
      </trkpt>
      <trkpt lat="42.67048645019531" lon="-8.084600448608398">
        <ele>602.0</ele>
        <time>2019-05-02T10:58:09.000Z</time>
      </trkpt>
      <trkpt lat="42.67048263549805" lon="-8.084623336791992">
        <ele>602.0</ele>
        <time>2019-05-02T10:58:14.000Z</time>
      </trkpt>
      <trkpt lat="42.67048263549805" lon="-8.084634780883789">
        <ele>601.0</ele>
        <time>2019-05-02T10:58:20.000Z</time>
      </trkpt>
      <trkpt lat="42.67047882080078" lon="-8.084640502929688">
        <ele>601.0</ele>
        <time>2019-05-02T10:58:26.000Z</time>
      </trkpt>
      <trkpt lat="42.67047882080078" lon="-8.084654808044434">
        <ele>600.0</ele>
        <time>2019-05-02T10:58:26.000Z</time>
      </trkpt>
      <trkpt lat="42.670475006103516" lon="-8.084667205810547">
        <ele>600.0</ele>
        <time>2019-05-02T10:58:26.000Z</time>
      </trkpt>
      <trkpt lat="42.670475006103516" lon="-8.084677696228027">
        <ele>600.0</ele>
        <time>2019-05-02T10:58:27.000Z</time>
      </trkpt>
      <trkpt lat="42.670475006103516" lon="-8.084688186645508">
        <ele>601.0</ele>
        <time>2019-05-02T10:58:27.000Z</time>
      </trkpt>
      <trkpt lat="42.67047119140625" lon="-8.084774017333984">
        <ele>600.0</ele>
        <time>2019-05-02T10:58:32.000Z</time>
      </trkpt>
      <trkpt lat="42.67046356201172" lon="-8.084891319274902">
        <ele>600.0</ele>
        <time>2019-05-02T10:58:36.000Z</time>
      </trkpt>
      <trkpt lat="42.67045593261719" lon="-8.085029602050781">
        <ele>600.0</ele>
        <time>2019-05-02T10:58:41.000Z</time>
      </trkpt>
      <trkpt lat="42.67045211791992" lon="-8.085177421569824">
        <ele>599.0</ele>
        <time>2019-05-02T10:58:46.000Z</time>
      </trkpt>
      <trkpt lat="42.67043685913086" lon="-8.085269927978516">
        <ele>599.0</ele>
        <time>2019-05-02T10:58:52.000Z</time>
      </trkpt>
      <trkpt lat="42.6704216003418" lon="-8.085350036621094">
        <ele>598.0</ele>
        <time>2019-05-02T10:58:57.000Z</time>
      </trkpt>
      <trkpt lat="42.67040252685547" lon="-8.08542251586914">
        <ele>597.0</ele>
        <time>2019-05-02T10:59:03.000Z</time>
      </trkpt>
      <trkpt lat="42.67038345336914" lon="-8.085490226745605">
        <ele>597.0</ele>
        <time>2019-05-02T10:59:09.000Z</time>
      </trkpt>
      <trkpt lat="42.67039108276367" lon="-8.085545539855957">
        <ele>597.0</ele>
        <time>2019-05-02T10:59:12.000Z</time>
      </trkpt>
      <trkpt lat="42.67041015625" lon="-8.085589408874512">
        <ele>597.0</ele>
        <time>2019-05-02T10:59:15.000Z</time>
      </trkpt>
      <trkpt lat="42.670433044433594" lon="-8.085627555847168">
        <ele>597.0</ele>
        <time>2019-05-02T10:59:19.000Z</time>
      </trkpt>
      <trkpt lat="42.67045974731445" lon="-8.085662841796875">
        <ele>597.0</ele>
        <time>2019-05-02T10:59:22.000Z</time>
      </trkpt>
      <trkpt lat="42.67045974731445" lon="-8.085875511169434">
        <ele>596.0</ele>
        <time>2019-05-02T10:59:36.000Z</time>
      </trkpt>
      <trkpt lat="42.670440673828125" lon="-8.08614730834961">
        <ele>594.0</ele>
        <time>2019-05-02T10:59:50.000Z</time>
      </trkpt>
      <trkpt lat="42.67041778564453" lon="-8.086248397827148">
        <ele>593.0</ele>
        <time>2019-05-02T11:00:00.000Z</time>
      </trkpt>
      <trkpt lat="42.67038345336914" lon="-8.086283683776855">
        <ele>592.0</ele>
        <time>2019-05-02T11:00:11.000Z</time>
      </trkpt>
      <trkpt lat="42.67037582397461" lon="-8.086301803588867">
        <ele>592.0</ele>
        <time>2019-05-02T11:00:14.000Z</time>
      </trkpt>
      <trkpt lat="42.67036819458008" lon="-8.086313247680664">
        <ele>591.0</ele>
        <time>2019-05-02T11:00:17.000Z</time>
      </trkpt>
      <trkpt lat="42.67036437988281" lon="-8.086319923400879">
        <ele>591.0</ele>
        <time>2019-05-02T11:00:21.000Z</time>
      </trkpt>
      <trkpt lat="42.67036437988281" lon="-8.086324691772461">
        <ele>591.0</ele>
        <time>2019-05-02T11:00:24.000Z</time>
      </trkpt>
      <trkpt lat="42.67035675048828" lon="-8.086332321166992">
        <ele>590.0</ele>
        <time>2019-05-02T11:00:24.000Z</time>
      </trkpt>
      <trkpt lat="42.670352935791016" lon="-8.086339950561523">
        <ele>590.0</ele>
        <time>2019-05-02T11:00:24.000Z</time>
      </trkpt>
      <trkpt lat="42.670352935791016" lon="-8.086346626281738">
        <ele>591.0</ele>
        <time>2019-05-02T11:00:25.000Z</time>
      </trkpt>
      <trkpt lat="42.67034912109375" lon="-8.086353302001953">
        <ele>591.0</ele>
        <time>2019-05-02T11:00:25.000Z</time>
      </trkpt>
      <trkpt lat="42.67030715942383" lon="-8.086411476135254">
        <ele>590.0</ele>
        <time>2019-05-02T11:00:31.000Z</time>
      </trkpt>
      <trkpt lat="42.670249938964844" lon="-8.086490631103516">
        <ele>590.0</ele>
        <time>2019-05-02T11:00:36.000Z</time>
      </trkpt>
      <trkpt lat="42.67018127441406" lon="-8.08658504486084">
        <ele>589.0</ele>
        <time>2019-05-02T11:00:42.000Z</time>
      </trkpt>
      <trkpt lat="42.670108795166016" lon="-8.086686134338379">
        <ele>589.0</ele>
        <time>2019-05-02T11:00:48.000Z</time>
      </trkpt>
      <trkpt lat="42.669952392578125" lon="-8.08677864074707">
        <ele>590.0</ele>
        <time>2019-05-02T11:01:00.000Z</time>
      </trkpt>
      <trkpt lat="42.669776916503906" lon="-8.086836814880371">
        <ele>591.0</ele>
        <time>2019-05-02T11:01:13.000Z</time>
      </trkpt>
      <trkpt lat="42.669734954833984" lon="-8.086854934692383">
        <ele>591.0</ele>
        <time>2019-05-02T11:01:15.000Z</time>
      </trkpt>
      <trkpt lat="42.66971206665039" lon="-8.086864471435547">
        <ele>591.0</ele>
        <time>2019-05-02T11:01:17.000Z</time>
      </trkpt>
      <trkpt lat="42.66969680786133" lon="-8.086869239807129">
        <ele>591.0</ele>
        <time>2019-05-02T11:01:20.000Z</time>
      </trkpt>
      <trkpt lat="42.6696891784668" lon="-8.086871147155762">
        <ele>591.0</ele>
        <time>2019-05-02T11:01:22.000Z</time>
      </trkpt>
      <trkpt lat="42.66965103149414" lon="-8.08691692352295">
        <ele>591.0</ele>
        <time>2019-05-02T11:01:37.000Z</time>
      </trkpt>
      <trkpt lat="42.669620513916016" lon="-8.086974143981934">
        <ele>592.0</ele>
        <time>2019-05-02T11:01:53.000Z</time>
      </trkpt>
      <trkpt lat="42.66960906982422" lon="-8.086990356445312">
        <ele>592.0</ele>
        <time>2019-05-02T11:01:53.000Z</time>
      </trkpt>
      <trkpt lat="42.66960144042969" lon="-8.087002754211426">
        <ele>592.0</ele>
        <time>2019-05-02T11:01:53.000Z</time>
      </trkpt>
      <trkpt lat="42.66959762573242" lon="-8.08701229095459">
        <ele>592.0</ele>
        <time>2019-05-02T11:01:54.000Z</time>
      </trkpt>
      <trkpt lat="42.66958999633789" lon="-8.087019920349121">
        <ele>592.0</ele>
        <time>2019-05-02T11:01:54.000Z</time>
      </trkpt>
      <trkpt lat="42.6695671081543" lon="-8.0871000289917">
        <ele>593.0</ele>
        <time>2019-05-02T11:02:00.000Z</time>
      </trkpt>
      <trkpt lat="42.66954040527344" lon="-8.087209701538086">
        <ele>594.0</ele>
        <time>2019-05-02T11:02:06.000Z</time>
      </trkpt>
      <trkpt lat="42.66950607299805" lon="-8.0873384475708">
        <ele>595.0</ele>
        <time>2019-05-02T11:02:12.000Z</time>
      </trkpt>
      <trkpt lat="42.669471740722656" lon="-8.08747673034668">
        <ele>596.0</ele>
        <time>2019-05-02T11:02:18.000Z</time>
      </trkpt>
      <trkpt lat="42.66946029663086" lon="-8.087532997131348">
        <ele>596.0</ele>
        <time>2019-05-02T11:02:20.000Z</time>
      </trkpt>
      <trkpt lat="42.66946029663086" lon="-8.087566375732422">
        <ele>597.0</ele>
        <time>2019-05-02T11:02:22.000Z</time>
      </trkpt>
      <trkpt lat="42.669464111328125" lon="-8.0875825881958">
        <ele>597.0</ele>
        <time>2019-05-02T11:02:25.000Z</time>
      </trkpt>
      <trkpt lat="42.669471740722656" lon="-8.087592124938965">
        <ele>597.0</ele>
        <time>2019-05-02T11:02:27.000Z</time>
      </trkpt>
      <trkpt lat="42.66946792602539" lon="-8.087625503540039">
        <ele>597.0</ele>
        <time>2019-05-02T11:02:31.000Z</time>
      </trkpt>
      <trkpt lat="42.669464111328125" lon="-8.087660789489746">
        <ele>597.0</ele>
        <time>2019-05-02T11:02:35.000Z</time>
      </trkpt>
      <trkpt lat="42.66946029663086" lon="-8.08769702911377">
        <ele>596.0</ele>
        <time>2019-05-02T11:02:39.000Z</time>
      </trkpt>
      <trkpt lat="42.669456481933594" lon="-8.087735176086426">
        <ele>596.0</ele>
        <time>2019-05-02T11:02:43.000Z</time>
      </trkpt>
      <trkpt lat="42.66945266723633" lon="-8.087754249572754">
        <ele>596.0</ele>
        <time>2019-05-02T11:02:43.000Z</time>
      </trkpt>
      <trkpt lat="42.66945266723633" lon="-8.087766647338867">
        <ele>596.0</ele>
        <time>2019-05-02T11:02:43.000Z</time>
      </trkpt>
      <trkpt lat="42.66945266723633" lon="-8.087775230407715">
        <ele>596.0</ele>
        <time>2019-05-02T11:02:44.000Z</time>
      </trkpt>
      <trkpt lat="42.66944885253906" lon="-8.087780952453613">
        <ele>596.0</ele>
        <time>2019-05-02T11:02:44.000Z</time>
      </trkpt>
      <trkpt lat="42.669437408447266" lon="-8.087929725646973">
        <ele>596.0</ele>
        <time>2019-05-02T11:02:51.000Z</time>
      </trkpt>
      <trkpt lat="42.66944885253906" lon="-8.087983131408691">
        <ele>596.0</ele>
        <time>2019-05-02T11:03:10.000Z</time>
      </trkpt>
      <trkpt lat="42.669456481933594" lon="-8.088020324707031">
        <ele>596.0</ele>
        <time>2019-05-02T11:03:11.000Z</time>
      </trkpt>
      <trkpt lat="42.669437408447266" lon="-8.08851146697998">
        <ele>595.0</ele>
        <time>2019-05-02T11:03:30.000Z</time>
      </trkpt>
      <trkpt lat="42.66939926147461" lon="-8.088983535766602">
        <ele>592.0</ele>
        <time>2019-05-02T11:04:09.000Z</time>
      </trkpt>
      <trkpt lat="42.66942596435547" lon="-8.089093208312988">
        <ele>591.0</ele>
        <time>2019-05-02T11:04:18.000Z</time>
      </trkpt>
      <trkpt lat="42.66946792602539" lon="-8.089200019836426">
        <ele>589.0</ele>
        <time>2019-05-02T11:04:27.000Z</time>
      </trkpt>
      <trkpt lat="42.66952133178711" lon="-8.08930492401123">
        <ele>587.0</ele>
        <time>2019-05-02T11:04:36.000Z</time>
      </trkpt>
      <trkpt lat="42.669578552246094" lon="-8.089408874511719">
        <ele>585.0</ele>
        <time>2019-05-02T11:04:45.000Z</time>
      </trkpt>
      <trkpt lat="42.66962814331055" lon="-8.089495658874512">
        <ele>584.0</ele>
        <time>2019-05-02T11:04:52.000Z</time>
      </trkpt>
      <trkpt lat="42.669681549072266" lon="-8.089574813842773">
        <ele>582.0</ele>
        <time>2019-05-02T11:05:00.000Z</time>
      </trkpt>
      <trkpt lat="42.669734954833984" lon="-8.089648246765137">
        <ele>581.0</ele>
        <time>2019-05-02T11:05:07.000Z</time>
      </trkpt>
      <trkpt lat="42.6697883605957" lon="-8.089719772338867">
        <ele>580.0</ele>
        <time>2019-05-02T11:05:15.000Z</time>
      </trkpt>
      <trkpt lat="42.6698112487793" lon="-8.08974838256836">
        <ele>580.0</ele>
        <time>2019-05-02T11:05:19.000Z</time>
      </trkpt>
      <trkpt lat="42.66981887817383" lon="-8.089756965637207">
        <ele>579.0</ele>
        <time>2019-05-02T11:05:23.000Z</time>
      </trkpt>
      <trkpt lat="42.66981506347656" lon="-8.089752197265625">
        <ele>579.0</ele>
        <time>2019-05-02T11:05:28.000Z</time>
      </trkpt>
      <trkpt lat="42.6698112487793" lon="-8.089739799499512">
        <ele>579.0</ele>
        <time>2019-05-02T11:05:32.000Z</time>
      </trkpt>
      <trkpt lat="42.66981506347656" lon="-8.089744567871094">
        <ele>579.0</ele>
        <time>2019-05-02T11:05:32.000Z</time>
      </trkpt>
      <trkpt lat="42.66981887817383" lon="-8.08974838256836">
        <ele>579.0</ele>
        <time>2019-05-02T11:05:32.000Z</time>
      </trkpt>
      <trkpt lat="42.669822692871094" lon="-8.089752197265625">
        <ele>579.0</ele>
        <time>2019-05-02T11:05:33.000Z</time>
      </trkpt>
      <trkpt lat="42.66982650756836" lon="-8.08975601196289">
        <ele>579.0</ele>
        <time>2019-05-02T11:05:33.000Z</time>
      </trkpt>
      <trkpt lat="42.66987228393555" lon="-8.089807510375977">
        <ele>579.0</ele>
        <time>2019-05-02T11:05:37.000Z</time>
      </trkpt>
      <trkpt lat="42.66993713378906" lon="-8.089879035949707">
        <ele>579.0</ele>
        <time>2019-05-02T11:05:41.000Z</time>
      </trkpt>
      <trkpt lat="42.670013427734375" lon="-8.089963912963867">
        <ele>578.0</ele>
        <time>2019-05-02T11:05:46.000Z</time>
      </trkpt>
      <trkpt lat="42.67009353637695" lon="-8.090055465698242">
        <ele>578.0</ele>
        <time>2019-05-02T11:05:50.000Z</time>
      </trkpt>
      <trkpt lat="42.67009735107422" lon="-8.090158462524414">
        <ele>578.0</ele>
        <time>2019-05-02T11:05:57.000Z</time>
      </trkpt>
      <trkpt lat="42.67007827758789" lon="-8.090272903442383">
        <ele>578.0</ele>
        <time>2019-05-02T11:06:04.000Z</time>
      </trkpt>
      <trkpt lat="42.670040130615234" lon="-8.090394973754883">
        <ele>578.0</ele>
        <time>2019-05-02T11:06:12.000Z</time>
      </trkpt>
      <trkpt lat="42.66999435424805" lon="-8.090520858764648">
        <ele>579.0</ele>
        <time>2019-05-02T11:06:19.000Z</time>
      </trkpt>
      <trkpt lat="42.669960021972656" lon="-8.090628623962402">
        <ele>578.0</ele>
        <time>2019-05-02T11:06:26.000Z</time>
      </trkpt>
      <trkpt lat="42.669918060302734" lon="-8.090733528137207">
        <ele>578.0</ele>
        <time>2019-05-02T11:06:33.000Z</time>
      </trkpt>
      <trkpt lat="42.66987228393555" lon="-8.090835571289062">
        <ele>576.0</ele>
        <time>2019-05-02T11:06:40.000Z</time>
      </trkpt>
      <trkpt lat="42.669822692871094" lon="-8.090937614440918">
        <ele>575.0</ele>
        <time>2019-05-02T11:06:47.000Z</time>
      </trkpt>
      <trkpt lat="42.66977310180664" lon="-8.091036796569824">
        <ele>575.0</ele>
        <time>2019-05-02T11:06:54.000Z</time>
      </trkpt>
      <trkpt lat="42.669715881347656" lon="-8.091135025024414">
        <ele>575.0</ele>
        <time>2019-05-02T11:07:01.000Z</time>
      </trkpt>
      <trkpt lat="42.669654846191406" lon="-8.091232299804688">
        <ele>576.0</ele>
        <time>2019-05-02T11:07:09.000Z</time>
      </trkpt>
      <trkpt lat="42.66959762573242" lon="-8.091328620910645">
        <ele>576.0</ele>
        <time>2019-05-02T11:07:16.000Z</time>
      </trkpt>
      <trkpt lat="42.66957092285156" lon="-8.091379165649414">
        <ele>577.0</ele>
        <time>2019-05-02T11:07:19.000Z</time>
      </trkpt>
      <trkpt lat="42.66956329345703" lon="-8.091410636901855">
        <ele>577.0</ele>
        <time>2019-05-02T11:07:21.000Z</time>
      </trkpt>
      <trkpt lat="42.66956329345703" lon="-8.09142780303955">
        <ele>578.0</ele>
        <time>2019-05-02T11:07:24.000Z</time>
      </trkpt>
      <trkpt lat="42.6695671081543" lon="-8.091439247131348">
        <ele>578.0</ele>
        <time>2019-05-02T11:07:27.000Z</time>
      </trkpt>
      <trkpt lat="42.66956329345703" lon="-8.091455459594727">
        <ele>579.0</ele>
        <time>2019-05-02T11:07:31.000Z</time>
      </trkpt>
      <trkpt lat="42.669559478759766" lon="-8.091465950012207">
        <ele>579.0</ele>
        <time>2019-05-02T11:07:34.000Z</time>
      </trkpt>
      <trkpt lat="42.6695556640625" lon="-8.091473579406738">
        <ele>580.0</ele>
        <time>2019-05-02T11:07:38.000Z</time>
      </trkpt>
      <trkpt lat="42.669551849365234" lon="-8.091479301452637">
        <ele>580.0</ele>
        <time>2019-05-02T11:07:42.000Z</time>
      </trkpt>
      <trkpt lat="42.669551849365234" lon="-8.091486930847168">
        <ele>580.0</ele>
        <time>2019-05-02T11:07:42.000Z</time>
      </trkpt>
      <trkpt lat="42.66954803466797" lon="-8.0914945602417">
        <ele>580.0</ele>
        <time>2019-05-02T11:07:42.000Z</time>
      </trkpt>
      <trkpt lat="42.6695442199707" lon="-8.091501235961914">
        <ele>580.0</ele>
        <time>2019-05-02T11:07:43.000Z</time>
      </trkpt>
      <trkpt lat="42.6695442199707" lon="-8.091507911682129">
        <ele>580.0</ele>
        <time>2019-05-02T11:07:43.000Z</time>
      </trkpt>
      <trkpt lat="42.669395446777344" lon="-8.091925621032715">
        <ele>582.0</ele>
        <time>2019-05-02T11:08:03.000Z</time>
      </trkpt>
      <trkpt lat="42.669219970703125" lon="-8.092353820800781">
        <ele>588.0</ele>
        <time>2019-05-02T11:08:36.000Z</time>
      </trkpt>
      <trkpt lat="42.66920852661133" lon="-8.09237289428711">
        <ele>588.0</ele>
        <time>2019-05-02T11:08:40.000Z</time>
      </trkpt>
      <trkpt lat="42.669166564941406" lon="-8.092467308044434">
        <ele>590.0</ele>
        <time>2019-05-02T11:09:02.000Z</time>
      </trkpt>
      <trkpt lat="42.66914367675781" lon="-8.09251880645752">
        <ele>590.0</ele>
        <time>2019-05-02T11:09:03.000Z</time>
      </trkpt>
      <trkpt lat="42.66895294189453" lon="-8.092916488647461">
        <ele>591.0</ele>
        <time>2019-05-02T11:09:21.000Z</time>
      </trkpt>
      <trkpt lat="42.66886520385742" lon="-8.093036651611328">
        <ele>592.0</ele>
        <time>2019-05-02T11:09:31.000Z</time>
      </trkpt>
      <trkpt lat="42.668819427490234" lon="-8.0930814743042">
        <ele>591.0</ele>
        <time>2019-05-02T11:10:11.000Z</time>
      </trkpt>
      <trkpt lat="42.668792724609375" lon="-8.093109130859375">
        <ele>591.0</ele>
        <time>2019-05-02T11:10:12.000Z</time>
      </trkpt>
      <trkpt lat="42.66852569580078" lon="-8.093429565429688">
        <ele>587.0</ele>
        <time>2019-05-02T11:10:31.000Z</time>
      </trkpt>
      <trkpt lat="42.66840744018555" lon="-8.09349250793457">
        <ele>586.0</ele>
        <time>2019-05-02T11:10:41.000Z</time>
      </trkpt>
      <trkpt lat="42.66828918457031" lon="-8.093512535095215">
        <ele>584.0</ele>
        <time>2019-05-02T11:10:51.000Z</time>
      </trkpt>
      <trkpt lat="42.66825485229492" lon="-8.093518257141113">
        <ele>583.0</ele>
        <time>2019-05-02T11:10:55.000Z</time>
      </trkpt>
      <trkpt lat="42.66823196411133" lon="-8.093517303466797">
        <ele>583.0</ele>
        <time>2019-05-02T11:10:58.000Z</time>
      </trkpt>
      <trkpt lat="42.668212890625" lon="-8.093513488769531">
        <ele>582.0</ele>
        <time>2019-05-02T11:11:02.000Z</time>
      </trkpt>
      <trkpt lat="42.66819763183594" lon="-8.093506813049316">
        <ele>582.0</ele>
        <time>2019-05-02T11:11:06.000Z</time>
      </trkpt>
      <trkpt lat="42.668182373046875" lon="-8.093505859375">
        <ele>582.0</ele>
        <time>2019-05-02T11:11:06.000Z</time>
      </trkpt>
      <trkpt lat="42.668174743652344" lon="-8.093504905700684">
        <ele>582.0</ele>
        <time>2019-05-02T11:11:06.000Z</time>
      </trkpt>
      <trkpt lat="42.66816711425781" lon="-8.093504905700684">
        <ele>582.0</ele>
        <time>2019-05-02T11:11:07.000Z</time>
      </trkpt>
      <trkpt lat="42.66816329956055" lon="-8.093503952026367">
        <ele>582.0</ele>
        <time>2019-05-02T11:11:07.000Z</time>
      </trkpt>
      <trkpt lat="42.668113708496094" lon="-8.093505859375">
        <ele>581.0</ele>
        <time>2019-05-02T11:11:12.000Z</time>
      </trkpt>
      <trkpt lat="42.66804504394531" lon="-8.09350872039795">
        <ele>581.0</ele>
        <time>2019-05-02T11:11:16.000Z</time>
      </trkpt>
      <trkpt lat="42.667964935302734" lon="-8.093512535095215">
        <ele>580.0</ele>
        <time>2019-05-02T11:11:21.000Z</time>
      </trkpt>
      <trkpt lat="42.667877197265625" lon="-8.09351634979248">
        <ele>579.0</ele>
        <time>2019-05-02T11:11:26.000Z</time>
      </trkpt>
      <trkpt lat="42.667850494384766" lon="-8.093518257141113">
        <ele>578.0</ele>
        <time>2019-05-02T11:11:29.000Z</time>
      </trkpt>
      <trkpt lat="42.66783905029297" lon="-8.093521118164062">
        <ele>577.0</ele>
        <time>2019-05-02T11:11:32.000Z</time>
      </trkpt>
      <trkpt lat="42.667842864990234" lon="-8.093523025512695">
        <ele>577.0</ele>
        <time>2019-05-02T11:11:35.000Z</time>
      </trkpt>
      <trkpt lat="42.66785430908203" lon="-8.093525886535645">
        <ele>576.0</ele>
        <time>2019-05-02T11:11:38.000Z</time>
      </trkpt>
      <trkpt lat="42.6678466796875" lon="-8.093527793884277">
        <ele>576.0</ele>
        <time>2019-05-02T11:11:38.000Z</time>
      </trkpt>
      <trkpt lat="42.667842864990234" lon="-8.09352970123291">
        <ele>576.0</ele>
        <time>2019-05-02T11:11:38.000Z</time>
      </trkpt>
      <trkpt lat="42.66783905029297" lon="-8.093531608581543">
        <ele>576.0</ele>
        <time>2019-05-02T11:11:39.000Z</time>
      </trkpt>
      <trkpt lat="42.6678352355957" lon="-8.093533515930176">
        <ele>576.0</ele>
        <time>2019-05-02T11:11:39.000Z</time>
      </trkpt>
      <trkpt lat="42.66750717163086" lon="-8.093642234802246">
        <ele>573.0</ele>
        <time>2019-05-02T11:11:55.000Z</time>
      </trkpt>
      <trkpt lat="42.66718673706055" lon="-8.093880653381348">
        <ele>576.0</ele>
        <time>2019-05-02T11:12:24.000Z</time>
      </trkpt>
      <trkpt lat="42.667015075683594" lon="-8.093989372253418">
        <ele>576.0</ele>
        <time>2019-05-02T11:12:38.000Z</time>
      </trkpt>
      <trkpt lat="42.66695785522461" lon="-8.09401798248291">
        <ele>573.0</ele>
        <time>2019-05-02T11:13:02.000Z</time>
      </trkpt>
      <trkpt lat="42.666927337646484" lon="-8.094033241271973">
        <ele>573.0</ele>
        <time>2019-05-02T11:13:03.000Z</time>
      </trkpt>
      <trkpt lat="42.666709899902344" lon="-8.094148635864258">
        <ele>572.0</ele>
        <time>2019-05-02T11:13:13.000Z</time>
      </trkpt>
      <trkpt lat="42.666526794433594" lon="-8.094278335571289">
        <ele>568.0</ele>
        <time>2019-05-02T11:13:28.000Z</time>
      </trkpt>
      <trkpt lat="42.66643524169922" lon="-8.094348907470703">
        <ele>569.0</ele>
        <time>2019-05-02T11:13:38.000Z</time>
      </trkpt>
      <trkpt lat="42.66635513305664" lon="-8.094453811645508">
        <ele>569.0</ele>
        <time>2019-05-02T11:13:56.000Z</time>
      </trkpt>
      <trkpt lat="42.666324615478516" lon="-8.094491958618164">
        <ele>569.0</ele>
        <time>2019-05-02T11:13:57.000Z</time>
      </trkpt>
      <trkpt lat="42.66631317138672" lon="-8.094508171081543">
        <ele>569.0</ele>
        <time>2019-05-02T11:13:58.000Z</time>
      </trkpt>
      <trkpt lat="42.666290283203125" lon="-8.094565391540527">
        <ele>570.0</ele>
        <time>2019-05-02T11:14:07.000Z</time>
      </trkpt>
      <trkpt lat="42.66627502441406" lon="-8.094600677490234">
        <ele>570.0</ele>
        <time>2019-05-02T11:14:08.000Z</time>
      </trkpt>
      <trkpt lat="42.66619873046875" lon="-8.094772338867188">
        <ele>572.0</ele>
        <time>2019-05-02T11:14:12.000Z</time>
      </trkpt>
      <trkpt lat="42.666141510009766" lon="-8.094867706298828">
        <ele>573.0</ele>
        <time>2019-05-02T11:14:17.000Z</time>
      </trkpt>
      <trkpt lat="42.666072845458984" lon="-8.09494686126709">
        <ele>570.0</ele>
        <time>2019-05-02T11:14:35.000Z</time>
      </trkpt>
      <trkpt lat="42.666046142578125" lon="-8.094980239868164">
        <ele>570.0</ele>
        <time>2019-05-02T11:14:36.000Z</time>
      </trkpt>
      <trkpt lat="42.6659049987793" lon="-8.095149993896484">
        <ele>571.0</ele>
        <time>2019-05-02T11:14:48.000Z</time>
      </trkpt>
      <trkpt lat="42.66588592529297" lon="-8.095197677612305">
        <ele>571.0</ele>
        <time>2019-05-02T11:14:54.000Z</time>
      </trkpt>
      <trkpt lat="42.665855407714844" lon="-8.095232963562012">
        <ele>570.0</ele>
        <time>2019-05-02T11:15:08.000Z</time>
      </trkpt>
      <trkpt lat="42.665836334228516" lon="-8.095257759094238">
        <ele>570.0</ele>
        <time>2019-05-02T11:15:09.000Z</time>
      </trkpt>
      <trkpt lat="42.665584564208984" lon="-8.095606803894043">
        <ele>566.0</ele>
        <time>2019-05-02T11:15:29.000Z</time>
      </trkpt>
      <trkpt lat="42.665496826171875" lon="-8.09570026397705">
        <ele>562.0</ele>
        <time>2019-05-02T11:15:44.000Z</time>
      </trkpt>
      <trkpt lat="42.665470123291016" lon="-8.09572982788086">
        <ele>562.0</ele>
        <time>2019-05-02T11:15:45.000Z</time>
      </trkpt>
      <trkpt lat="42.66517639160156" lon="-8.096017837524414">
        <ele>560.0</ele>
        <time>2019-05-02T11:16:06.000Z</time>
      </trkpt>
      <trkpt lat="42.66487503051758" lon="-8.09628677368164">
        <ele>561.0</ele>
        <time>2019-05-02T11:16:41.000Z</time>
      </trkpt>
      <trkpt lat="42.66476058959961" lon="-8.096402168273926">
        <ele>561.0</ele>
        <time>2019-05-02T11:17:01.000Z</time>
      </trkpt>
      <trkpt lat="42.664695739746094" lon="-8.096464157104492">
        <ele>564.0</ele>
        <time>2019-05-02T11:17:35.000Z</time>
      </trkpt>
      <trkpt lat="42.6646614074707" lon="-8.096494674682617">
        <ele>564.0</ele>
        <time>2019-05-02T11:17:36.000Z</time>
      </trkpt>
      <trkpt lat="42.66436767578125" lon="-8.096739768981934">
        <ele>568.0</ele>
        <time>2019-05-02T11:18:07.000Z</time>
      </trkpt>
      <trkpt lat="42.664344787597656" lon="-8.096763610839844">
        <ele>573.0</ele>
        <time>2019-05-02T11:18:54.000Z</time>
      </trkpt>
      <trkpt lat="42.66432571411133" lon="-8.096784591674805">
        <ele>573.0</ele>
        <time>2019-05-02T11:18:55.000Z</time>
      </trkpt>
      <trkpt lat="42.664283752441406" lon="-8.096826553344727">
        <ele>574.0</ele>
        <time>2019-05-02T11:18:57.000Z</time>
      </trkpt>
      <trkpt lat="42.66399002075195" lon="-8.097277641296387">
        <ele>575.0</ele>
        <time>2019-05-02T11:19:17.000Z</time>
      </trkpt>
      <trkpt lat="42.66389846801758" lon="-8.0974760055542">
        <ele>578.0</ele>
        <time>2019-05-02T11:19:50.000Z</time>
      </trkpt>
      <trkpt lat="42.66389465332031" lon="-8.09749698638916">
        <ele>582.0</ele>
        <time>2019-05-02T11:20:16.000Z</time>
      </trkpt>
      <trkpt lat="42.66389083862305" lon="-8.097515106201172">
        <ele>582.0</ele>
        <time>2019-05-02T11:20:17.000Z</time>
      </trkpt>
      <trkpt lat="42.6638298034668" lon="-8.097723007202148">
        <ele>583.0</ele>
        <time>2019-05-02T11:20:29.000Z</time>
      </trkpt>
      <trkpt lat="42.663726806640625" lon="-8.097996711730957">
        <ele>585.0</ele>
        <time>2019-05-02T11:20:46.000Z</time>
      </trkpt>
      <trkpt lat="42.66360855102539" lon="-8.09815788269043">
        <ele>587.0</ele>
        <time>2019-05-02T11:21:00.000Z</time>
      </trkpt>
      <trkpt lat="42.6635856628418" lon="-8.098185539245605">
        <ele>587.0</ele>
        <time>2019-05-02T11:21:01.000Z</time>
      </trkpt>
      <trkpt lat="42.663429260253906" lon="-8.098331451416016">
        <ele>589.0</ele>
        <time>2019-05-02T11:21:11.000Z</time>
      </trkpt>
      <trkpt lat="42.66332244873047" lon="-8.098506927490234">
        <ele>593.0</ele>
        <time>2019-05-02T11:21:28.000Z</time>
      </trkpt>
      <trkpt lat="42.66328048706055" lon="-8.098649024963379">
        <ele>599.0</ele>
        <time>2019-05-02T11:22:30.000Z</time>
      </trkpt>
      <trkpt lat="42.663265228271484" lon="-8.098708152770996">
        <ele>599.0</ele>
        <time>2019-05-02T11:22:31.000Z</time>
      </trkpt>
      <trkpt lat="42.663211822509766" lon="-8.098876953125">
        <ele>599.0</ele>
        <time>2019-05-02T11:22:37.000Z</time>
      </trkpt>
      <trkpt lat="42.66318130493164" lon="-8.09896469116211">
        <ele>596.0</ele>
        <time>2019-05-02T11:22:53.000Z</time>
      </trkpt>
      <trkpt lat="42.66316604614258" lon="-8.099011421203613">
        <ele>596.0</ele>
        <time>2019-05-02T11:22:54.000Z</time>
      </trkpt>
      <trkpt lat="42.66312026977539" lon="-8.0991792678833">
        <ele>596.0</ele>
        <time>2019-05-02T11:22:59.000Z</time>
      </trkpt>
      <trkpt lat="42.663089752197266" lon="-8.099249839782715">
        <ele>592.0</ele>
        <time>2019-05-02T11:23:12.000Z</time>
      </trkpt>
      <trkpt lat="42.6630744934082" lon="-8.09929084777832">
        <ele>592.0</ele>
        <time>2019-05-02T11:23:13.000Z</time>
      </trkpt>
      <trkpt lat="42.66294479370117" lon="-8.099593162536621">
        <ele>588.0</ele>
        <time>2019-05-02T11:23:24.000Z</time>
      </trkpt>
      <trkpt lat="42.66292953491211" lon="-8.09963321685791">
        <ele>585.0</ele>
        <time>2019-05-02T11:23:43.000Z</time>
      </trkpt>
      <trkpt lat="42.66291809082031" lon="-8.099663734436035">
        <ele>585.0</ele>
        <time>2019-05-02T11:23:44.000Z</time>
      </trkpt>
      <trkpt lat="42.66276931762695" lon="-8.100085258483887">
        <ele>580.0</ele>
        <time>2019-05-02T11:23:57.000Z</time>
      </trkpt>
      <trkpt lat="42.66273880004883" lon="-8.100142478942871">
        <ele>579.0</ele>
        <time>2019-05-02T11:24:10.000Z</time>
      </trkpt>
      <trkpt lat="42.662715911865234" lon="-8.100177764892578">
        <ele>579.0</ele>
        <time>2019-05-02T11:24:11.000Z</time>
      </trkpt>
      <trkpt lat="42.66252899169922" lon="-8.100587844848633">
        <ele>584.0</ele>
        <time>2019-05-02T11:24:30.000Z</time>
      </trkpt>
      <trkpt lat="42.66242599487305" lon="-8.100722312927246">
        <ele>587.0</ele>
        <time>2019-05-02T11:24:43.000Z</time>
      </trkpt>
      <trkpt lat="42.66236877441406" lon="-8.100798606872559">
        <ele>590.0</ele>
        <time>2019-05-02T11:24:59.000Z</time>
      </trkpt>
      <trkpt lat="42.6623420715332" lon="-8.100834846496582">
        <ele>590.0</ele>
        <time>2019-05-02T11:25:00.000Z</time>
      </trkpt>
      <trkpt lat="42.662208557128906" lon="-8.100970268249512">
        <ele>590.0</ele>
        <time>2019-05-02T11:25:08.000Z</time>
      </trkpt>
      <trkpt lat="42.662174224853516" lon="-8.100987434387207">
        <ele>591.0</ele>
        <time>2019-05-02T11:25:23.000Z</time>
      </trkpt>
      <trkpt lat="42.66215133666992" lon="-8.10099983215332">
        <ele>591.0</ele>
        <time>2019-05-02T11:25:24.000Z</time>
      </trkpt>
      <trkpt lat="42.66181182861328" lon="-8.101157188415527">
        <ele>590.0</ele>
        <time>2019-05-02T11:25:42.000Z</time>
      </trkpt>
      <trkpt lat="42.661502838134766" lon="-8.101385116577148">
        <ele>585.0</ele>
        <time>2019-05-02T11:26:10.000Z</time>
      </trkpt>
      <trkpt lat="42.66143035888672" lon="-8.101490020751953">
        <ele>584.0</ele>
        <time>2019-05-02T11:26:17.000Z</time>
      </trkpt>
      <trkpt lat="42.66139602661133" lon="-8.10158920288086">
        <ele>583.0</ele>
        <time>2019-05-02T11:26:25.000Z</time>
      </trkpt>
      <trkpt lat="42.66139221191406" lon="-8.101651191711426">
        <ele>583.0</ele>
        <time>2019-05-02T11:26:29.000Z</time>
      </trkpt>
      <trkpt lat="42.661399841308594" lon="-8.101717948913574">
        <ele>582.0</ele>
        <time>2019-05-02T11:26:34.000Z</time>
      </trkpt>
      <trkpt lat="42.66141128540039" lon="-8.101787567138672">
        <ele>582.0</ele>
        <time>2019-05-02T11:26:38.000Z</time>
      </trkpt>
      <trkpt lat="42.66142654418945" lon="-8.101858139038086">
        <ele>582.0</ele>
        <time>2019-05-02T11:26:43.000Z</time>
      </trkpt>
      <trkpt lat="42.66145706176758" lon="-8.101936340332031">
        <ele>581.0</ele>
        <time>2019-05-02T11:26:48.000Z</time>
      </trkpt>
      <trkpt lat="42.66149139404297" lon="-8.101988792419434">
        <ele>580.0</ele>
        <time>2019-05-02T11:26:53.000Z</time>
      </trkpt>
      <trkpt lat="42.661502838134766" lon="-8.10203742980957">
        <ele>579.0</ele>
        <time>2019-05-02T11:27:01.000Z</time>
      </trkpt>
      <trkpt lat="42.661502838134766" lon="-8.102079391479492">
        <ele>579.0</ele>
        <time>2019-05-02T11:27:10.000Z</time>
      </trkpt>
      <trkpt lat="42.661502838134766" lon="-8.102094650268555">
        <ele>579.0</ele>
        <time>2019-05-02T11:27:10.000Z</time>
      </trkpt>
      <trkpt lat="42.661502838134766" lon="-8.102107048034668">
        <ele>579.0</ele>
        <time>2019-05-02T11:27:10.000Z</time>
      </trkpt>
      <trkpt lat="42.661502838134766" lon="-8.102116584777832">
        <ele>579.0</ele>
        <time>2019-05-02T11:27:10.000Z</time>
      </trkpt>
      <trkpt lat="42.66150665283203" lon="-8.102126121520996">
        <ele>579.0</ele>
        <time>2019-05-02T11:27:11.000Z</time>
      </trkpt>
      <trkpt lat="42.66151428222656" lon="-8.102174758911133">
        <ele>579.0</ele>
        <time>2019-05-02T11:27:13.000Z</time>
      </trkpt>
      <trkpt lat="42.66152572631836" lon="-8.102239608764648">
        <ele>578.0</ele>
        <time>2019-05-02T11:27:16.000Z</time>
      </trkpt>
      <trkpt lat="42.66154098510742" lon="-8.102314949035645">
        <ele>578.0</ele>
        <time>2019-05-02T11:27:19.000Z</time>
      </trkpt>
      <trkpt lat="42.66155242919922" lon="-8.102395057678223">
        <ele>578.0</ele>
        <time>2019-05-02T11:27:22.000Z</time>
      </trkpt>
      <trkpt lat="42.66156005859375" lon="-8.102428436279297">
        <ele>578.0</ele>
        <time>2019-05-02T11:27:25.000Z</time>
      </trkpt>
      <trkpt lat="42.66156005859375" lon="-8.102447509765625">
        <ele>578.0</ele>
        <time>2019-05-02T11:27:29.000Z</time>
      </trkpt>
      <trkpt lat="42.661556243896484" lon="-8.102456092834473">
        <ele>579.0</ele>
        <time>2019-05-02T11:27:32.000Z</time>
      </trkpt>
      <trkpt lat="42.661556243896484" lon="-8.102460861206055">
        <ele>579.0</ele>
        <time>2019-05-02T11:27:36.000Z</time>
      </trkpt>
      <trkpt lat="42.661556243896484" lon="-8.102473258972168">
        <ele>580.0</ele>
        <time>2019-05-02T11:27:36.000Z</time>
      </trkpt>
      <trkpt lat="42.661556243896484" lon="-8.102484703063965">
        <ele>580.0</ele>
        <time>2019-05-02T11:27:36.000Z</time>
      </trkpt>
      <trkpt lat="42.661556243896484" lon="-8.102495193481445">
        <ele>579.0</ele>
        <time>2019-05-02T11:27:36.000Z</time>
      </trkpt>
      <trkpt lat="42.661556243896484" lon="-8.10250473022461">
        <ele>579.0</ele>
        <time>2019-05-02T11:27:37.000Z</time>
      </trkpt>
      <trkpt lat="42.66155242919922" lon="-8.102557182312012">
        <ele>579.0</ele>
        <time>2019-05-02T11:27:38.000Z</time>
      </trkpt>
      <trkpt lat="42.66155242919922" lon="-8.10262680053711">
        <ele>579.0</ele>
        <time>2019-05-02T11:27:40.000Z</time>
      </trkpt>
      <trkpt lat="42.66154861450195" lon="-8.102706909179688">
        <ele>579.0</ele>
        <time>2019-05-02T11:27:42.000Z</time>
      </trkpt>
      <trkpt lat="42.66154861450195" lon="-8.10279369354248">
        <ele>579.0</ele>
        <time>2019-05-02T11:27:44.000Z</time>
      </trkpt>
      <trkpt lat="42.66156768798828" lon="-8.10285472869873">
        <ele>579.0</ele>
        <time>2019-05-02T11:27:58.000Z</time>
      </trkpt>
      <trkpt lat="42.661582946777344" lon="-8.102893829345703">
        <ele>579.0</ele>
        <time>2019-05-02T11:27:59.000Z</time>
      </trkpt>
      <trkpt lat="42.6617317199707" lon="-8.103330612182617">
        <ele>579.0</ele>
        <time>2019-05-02T11:28:16.000Z</time>
      </trkpt>
      <trkpt lat="42.661800384521484" lon="-8.103809356689453">
        <ele>579.0</ele>
        <time>2019-05-02T11:28:47.000Z</time>
      </trkpt>
      <trkpt lat="42.661895751953125" lon="-8.104276657104492">
        <ele>573.0</ele>
        <time>2019-05-02T11:29:16.000Z</time>
      </trkpt>
      <trkpt lat="42.6618766784668" lon="-8.10445785522461">
        <ele>569.0</ele>
        <time>2019-05-02T11:29:29.000Z</time>
      </trkpt>
      <trkpt lat="42.66188049316406" lon="-8.104562759399414">
        <ele>568.0</ele>
        <time>2019-05-02T11:29:43.000Z</time>
      </trkpt>
      <trkpt lat="42.66188430786133" lon="-8.104613304138184">
        <ele>568.0</ele>
        <time>2019-05-02T11:29:44.000Z</time>
      </trkpt>
      <trkpt lat="42.661865234375" lon="-8.105088233947754">
        <ele>571.0</ele>
        <time>2019-05-02T11:30:09.000Z</time>
      </trkpt>
      <trkpt lat="42.661895751953125" lon="-8.105229377746582">
        <ele>567.0</ele>
        <time>2019-05-02T11:30:28.000Z</time>
      </trkpt>
      <trkpt lat="42.66190719604492" lon="-8.105295181274414">
        <ele>567.0</ele>
        <time>2019-05-02T11:30:29.000Z</time>
      </trkpt>
      <trkpt lat="42.66192626953125" lon="-8.105460166931152">
        <ele>566.0</ele>
        <time>2019-05-02T11:30:32.000Z</time>
      </trkpt>
      <trkpt lat="42.66191864013672" lon="-8.105472564697266">
        <ele>567.0</ele>
        <time>2019-05-02T11:30:53.000Z</time>
      </trkpt>
      <trkpt lat="42.66191482543945" lon="-8.105484008789062">
        <ele>567.0</ele>
        <time>2019-05-02T11:30:54.000Z</time>
      </trkpt>
      <trkpt lat="42.66183090209961" lon="-8.105700492858887">
        <ele>568.0</ele>
        <time>2019-05-02T11:30:57.000Z</time>
      </trkpt>
      <trkpt lat="42.661808013916016" lon="-8.105766296386719">
        <ele>568.0</ele>
        <time>2019-05-02T11:30:58.000Z</time>
      </trkpt>
      <trkpt lat="42.66180419921875" lon="-8.105770111083984">
        <ele>569.0</ele>
        <time>2019-05-02T11:31:11.000Z</time>
      </trkpt>
      <trkpt lat="42.661800384521484" lon="-8.105774879455566">
        <ele>569.0</ele>
        <time>2019-05-02T11:31:12.000Z</time>
      </trkpt>
      <trkpt lat="42.66165542602539" lon="-8.10599422454834">
        <ele>569.0</ele>
        <time>2019-05-02T11:31:16.000Z</time>
      </trkpt>
      <trkpt lat="42.6616325378418" lon="-8.106097221374512">
        <ele>570.0</ele>
        <time>2019-05-02T11:31:18.000Z</time>
      </trkpt>
      <trkpt lat="42.66162872314453" lon="-8.106197357177734">
        <ele>570.0</ele>
        <time>2019-05-02T11:31:21.000Z</time>
      </trkpt>
      <trkpt lat="42.661651611328125" lon="-8.106254577636719">
        <ele>570.0</ele>
        <time>2019-05-02T11:31:25.000Z</time>
      </trkpt>
      <trkpt lat="42.66168975830078" lon="-8.106313705444336">
        <ele>571.0</ele>
        <time>2019-05-02T11:31:30.000Z</time>
      </trkpt>
      <trkpt lat="42.66173553466797" lon="-8.106374740600586">
        <ele>571.0</ele>
        <time>2019-05-02T11:31:35.000Z</time>
      </trkpt>
      <trkpt lat="42.66178512573242" lon="-8.106436729431152">
        <ele>572.0</ele>
        <time>2019-05-02T11:31:40.000Z</time>
      </trkpt>
      <trkpt lat="42.66175842285156" lon="-8.106491088867188">
        <ele>572.0</ele>
        <time>2019-05-02T11:31:41.000Z</time>
      </trkpt>
      <trkpt lat="42.66170120239258" lon="-8.106544494628906">
        <ele>571.0</ele>
        <time>2019-05-02T11:31:43.000Z</time>
      </trkpt>
      <trkpt lat="42.661624908447266" lon="-8.106595993041992">
        <ele>571.0</ele>
        <time>2019-05-02T11:31:45.000Z</time>
      </trkpt>
      <trkpt lat="42.66154098510742" lon="-8.106647491455078">
        <ele>571.0</ele>
        <time>2019-05-02T11:31:47.000Z</time>
      </trkpt>
      <trkpt lat="42.661476135253906" lon="-8.106708526611328">
        <ele>570.0</ele>
        <time>2019-05-02T11:31:49.000Z</time>
      </trkpt>
      <trkpt lat="42.66141128540039" lon="-8.106773376464844">
        <ele>569.0</ele>
        <time>2019-05-02T11:31:52.000Z</time>
      </trkpt>
      <trkpt lat="42.661346435546875" lon="-8.106840133666992">
        <ele>569.0</ele>
        <time>2019-05-02T11:31:54.000Z</time>
      </trkpt>
      <trkpt lat="42.66128158569336" lon="-8.106908798217773">
        <ele>568.0</ele>
        <time>2019-05-02T11:31:57.000Z</time>
      </trkpt>
      <trkpt lat="42.66129684448242" lon="-8.106942176818848">
        <ele>566.0</ele>
        <time>2019-05-02T11:31:59.000Z</time>
      </trkpt>
      <trkpt lat="42.661346435546875" lon="-8.106961250305176">
        <ele>564.0</ele>
        <time>2019-05-02T11:32:01.000Z</time>
      </trkpt>
      <trkpt lat="42.66142272949219" lon="-8.106971740722656">
        <ele>562.0</ele>
        <time>2019-05-02T11:32:03.000Z</time>
      </trkpt>
      <trkpt lat="42.66150665283203" lon="-8.106977462768555">
        <ele>559.0</ele>
        <time>2019-05-02T11:32:06.000Z</time>
      </trkpt>
      <trkpt lat="42.66156005859375" lon="-8.107009887695312">
        <ele>558.0</ele>
        <time>2019-05-02T11:32:09.000Z</time>
      </trkpt>
      <trkpt lat="42.6616096496582" lon="-8.107049942016602">
        <ele>557.0</ele>
        <time>2019-05-02T11:32:13.000Z</time>
      </trkpt>
      <trkpt lat="42.661659240722656" lon="-8.10709285736084">
        <ele>557.0</ele>
        <time>2019-05-02T11:32:16.000Z</time>
      </trkpt>
      <trkpt lat="42.661705017089844" lon="-8.107139587402344">
        <ele>556.0</ele>
        <time>2019-05-02T11:32:20.000Z</time>
      </trkpt>
      <trkpt lat="42.66172409057617" lon="-8.107154846191406">
        <ele>556.0</ele>
        <time>2019-05-02T11:32:20.000Z</time>
      </trkpt>
      <trkpt lat="42.6617317199707" lon="-8.107159614562988">
        <ele>556.0</ele>
        <time>2019-05-02T11:32:20.000Z</time>
      </trkpt>
      <trkpt lat="42.66172790527344" lon="-8.107156753540039">
        <ele>556.0</ele>
        <time>2019-05-02T11:32:20.000Z</time>
      </trkpt>
      <trkpt lat="42.661720275878906" lon="-8.10715103149414">
        <ele>556.0</ele>
        <time>2019-05-02T11:32:21.000Z</time>
      </trkpt>
      <trkpt lat="42.6617317199707" lon="-8.107172012329102">
        <ele>557.0</ele>
        <time>2019-05-02T11:32:23.000Z</time>
      </trkpt>
      <trkpt lat="42.661739349365234" lon="-8.107199668884277">
        <ele>557.0</ele>
        <time>2019-05-02T11:32:25.000Z</time>
      </trkpt>
      <trkpt lat="42.661739349365234" lon="-8.10721206665039">
        <ele>558.0</ele>
        <time>2019-05-02T11:32:34.000Z</time>
      </trkpt>
      <trkpt lat="42.661739349365234" lon="-8.107218742370605">
        <ele>559.0</ele>
        <time>2019-05-02T11:32:43.000Z</time>
      </trkpt>
      <trkpt lat="42.66173553466797" lon="-8.107223510742188">
        <ele>559.0</ele>
        <time>2019-05-02T11:32:43.000Z</time>
      </trkpt>
      <trkpt lat="42.66173553466797" lon="-8.10722827911377">
        <ele>559.0</ele>
        <time>2019-05-02T11:32:43.000Z</time>
      </trkpt>
      <trkpt lat="42.66173553466797" lon="-8.107232093811035">
        <ele>559.0</ele>
        <time>2019-05-02T11:32:43.000Z</time>
      </trkpt>
      <trkpt lat="42.66173553466797" lon="-8.107236862182617">
        <ele>559.0</ele>
        <time>2019-05-02T11:32:44.000Z</time>
      </trkpt>
      <trkpt lat="42.661720275878906" lon="-8.10731029510498">
        <ele>560.0</ele>
        <time>2019-05-02T11:32:47.000Z</time>
      </trkpt>
      <trkpt lat="42.66169738769531" lon="-8.107412338256836">
        <ele>560.0</ele>
        <time>2019-05-02T11:32:51.000Z</time>
      </trkpt>
      <trkpt lat="42.66166687011719" lon="-8.107534408569336">
        <ele>561.0</ele>
        <time>2019-05-02T11:32:54.000Z</time>
      </trkpt>
      <trkpt lat="42.66164016723633" lon="-8.107666015625">
        <ele>562.0</ele>
        <time>2019-05-02T11:32:58.000Z</time>
      </trkpt>
      <trkpt lat="42.66162109375" lon="-8.107719421386719">
        <ele>562.0</ele>
        <time>2019-05-02T11:32:59.000Z</time>
      </trkpt>
      <trkpt lat="42.66160583496094" lon="-8.10775089263916">
        <ele>562.0</ele>
        <time>2019-05-02T11:33:00.000Z</time>
      </trkpt>
      <trkpt lat="42.661590576171875" lon="-8.107766151428223">
        <ele>562.0</ele>
        <time>2019-05-02T11:33:01.000Z</time>
      </trkpt>
      <trkpt lat="42.66157913208008" lon="-8.10777473449707">
        <ele>562.0</ele>
        <time>2019-05-02T11:33:02.000Z</time>
      </trkpt>
      <trkpt lat="42.661582946777344" lon="-8.107804298400879">
        <ele>563.0</ele>
        <time>2019-05-02T11:33:04.000Z</time>
      </trkpt>
      <trkpt lat="42.66159439086914" lon="-8.107834815979004">
        <ele>563.0</ele>
        <time>2019-05-02T11:33:07.000Z</time>
      </trkpt>
      <trkpt lat="42.66161346435547" lon="-8.107866287231445">
        <ele>563.0</ele>
        <time>2019-05-02T11:33:09.000Z</time>
      </trkpt>
      <trkpt lat="42.6616325378418" lon="-8.107897758483887">
        <ele>563.0</ele>
        <time>2019-05-02T11:33:12.000Z</time>
      </trkpt>
      <trkpt lat="42.66163635253906" lon="-8.107925415039062">
        <ele>564.0</ele>
        <time>2019-05-02T11:33:19.000Z</time>
      </trkpt>
      <trkpt lat="42.661624908447266" lon="-8.10793685913086">
        <ele>565.0</ele>
        <time>2019-05-02T11:33:27.000Z</time>
      </trkpt>
      <trkpt lat="42.661624908447266" lon="-8.10794448852539">
        <ele>565.0</ele>
        <time>2019-05-02T11:33:27.000Z</time>
      </trkpt>
      <trkpt lat="42.661624908447266" lon="-8.107952117919922">
        <ele>565.0</ele>
        <time>2019-05-02T11:33:27.000Z</time>
      </trkpt>
      <trkpt lat="42.66162109375" lon="-8.107958793640137">
        <ele>565.0</ele>
        <time>2019-05-02T11:33:27.000Z</time>
      </trkpt>
      <trkpt lat="42.66162109375" lon="-8.107965469360352">
        <ele>565.0</ele>
        <time>2019-05-02T11:33:28.000Z</time>
      </trkpt>
      <trkpt lat="42.661617279052734" lon="-8.108017921447754">
        <ele>565.0</ele>
        <time>2019-05-02T11:33:32.000Z</time>
      </trkpt>
      <trkpt lat="42.66160583496094" lon="-8.108088493347168">
        <ele>565.0</ele>
        <time>2019-05-02T11:33:37.000Z</time>
      </trkpt>
      <trkpt lat="42.661598205566406" lon="-8.108171463012695">
        <ele>566.0</ele>
        <time>2019-05-02T11:33:42.000Z</time>
      </trkpt>
      <trkpt lat="42.66158676147461" lon="-8.108260154724121">
        <ele>566.0</ele>
        <time>2019-05-02T11:33:47.000Z</time>
      </trkpt>
      <trkpt lat="42.661582946777344" lon="-8.108284950256348">
        <ele>566.0</ele>
        <time>2019-05-02T11:33:52.000Z</time>
      </trkpt>
      <trkpt lat="42.661582946777344" lon="-8.108288764953613">
        <ele>566.0</ele>
        <time>2019-05-02T11:33:57.000Z</time>
      </trkpt>
      <trkpt lat="42.661582946777344" lon="-8.108280181884766">
        <ele>566.0</ele>
        <time>2019-05-02T11:34:02.000Z</time>
      </trkpt>
      <trkpt lat="42.66158676147461" lon="-8.10826301574707">
        <ele>566.0</ele>
        <time>2019-05-02T11:34:07.000Z</time>
      </trkpt>
      <trkpt lat="42.66158676147461" lon="-8.108263969421387">
        <ele>566.0</ele>
        <time>2019-05-02T11:34:07.000Z</time>
      </trkpt>
      <trkpt lat="42.66158676147461" lon="-8.108264923095703">
        <ele>566.0</ele>
        <time>2019-05-02T11:34:07.000Z</time>
      </trkpt>
      <trkpt lat="42.661582946777344" lon="-8.10826587677002">
        <ele>566.0</ele>
        <time>2019-05-02T11:34:07.000Z</time>
      </trkpt>
      <trkpt lat="42.661582946777344" lon="-8.108266830444336">
        <ele>566.0</ele>
        <time>2019-05-02T11:34:08.000Z</time>
      </trkpt>
      <trkpt lat="42.66156005859375" lon="-8.108349800109863">
        <ele>566.0</ele>
        <time>2019-05-02T11:34:09.000Z</time>
      </trkpt>
      <trkpt lat="42.661529541015625" lon="-8.108467102050781">
        <ele>566.0</ele>
        <time>2019-05-02T11:34:11.000Z</time>
      </trkpt>
      <trkpt lat="42.66149139404297" lon="-8.108607292175293">
        <ele>566.0</ele>
        <time>2019-05-02T11:34:12.000Z</time>
      </trkpt>
      <trkpt lat="42.66144943237305" lon="-8.108758926391602">
        <ele>565.0</ele>
        <time>2019-05-02T11:34:14.000Z</time>
      </trkpt>
      <trkpt lat="42.66135787963867" lon="-8.109033584594727">
        <ele>567.0</ele>
        <time>2019-05-02T11:34:25.000Z</time>
      </trkpt>
      <trkpt lat="42.6613655090332" lon="-8.1090669631958">
        <ele>567.0</ele>
        <time>2019-05-02T11:34:26.000Z</time>
      </trkpt>
      <trkpt lat="42.6613883972168" lon="-8.109086036682129">
        <ele>567.0</ele>
        <time>2019-05-02T11:34:28.000Z</time>
      </trkpt>
      <trkpt lat="42.66142272949219" lon="-8.109095573425293">
        <ele>567.0</ele>
        <time>2019-05-02T11:34:30.000Z</time>
      </trkpt>
      <trkpt lat="42.66145706176758" lon="-8.109100341796875">
        <ele>567.0</ele>
        <time>2019-05-02T11:34:32.000Z</time>
      </trkpt>
      <trkpt lat="42.661476135253906" lon="-8.109130859375">
        <ele>567.0</ele>
        <time>2019-05-02T11:34:35.000Z</time>
      </trkpt>
      <trkpt lat="42.6614875793457" lon="-8.109167098999023">
        <ele>568.0</ele>
        <time>2019-05-02T11:34:38.000Z</time>
      </trkpt>
      <trkpt lat="42.6614990234375" lon="-8.109208106994629">
        <ele>568.0</ele>
        <time>2019-05-02T11:34:41.000Z</time>
      </trkpt>
      <trkpt lat="42.66150665283203" lon="-8.10925006866455">
        <ele>569.0</ele>
        <time>2019-05-02T11:34:44.000Z</time>
      </trkpt>
      <trkpt lat="42.66150665283203" lon="-8.109301567077637">
        <ele>569.0</ele>
        <time>2019-05-02T11:34:46.000Z</time>
      </trkpt>
      <trkpt lat="42.661495208740234" lon="-8.109343528747559">
        <ele>569.0</ele>
        <time>2019-05-02T11:34:49.000Z</time>
      </trkpt>
      <trkpt lat="42.66149139404297" lon="-8.109363555908203">
        <ele>568.0</ele>
        <time>2019-05-02T11:34:51.000Z</time>
      </trkpt>
      <trkpt lat="42.66148376464844" lon="-8.109381675720215">
        <ele>568.0</ele>
        <time>2019-05-02T11:34:53.000Z</time>
      </trkpt>
      <trkpt lat="42.66147994995117" lon="-8.10939884185791">
        <ele>567.0</ele>
        <time>2019-05-02T11:34:55.000Z</time>
      </trkpt>
      <trkpt lat="42.66147232055664" lon="-8.109415054321289">
        <ele>567.0</ele>
        <time>2019-05-02T11:34:58.000Z</time>
      </trkpt>
      <trkpt lat="42.661468505859375" lon="-8.109428405761719">
        <ele>567.0</ele>
        <time>2019-05-02T11:34:58.000Z</time>
      </trkpt>
      <trkpt lat="42.66146469116211" lon="-8.1094388961792">
        <ele>567.0</ele>
        <time>2019-05-02T11:34:58.000Z</time>
      </trkpt>
      <trkpt lat="42.66146469116211" lon="-8.109448432922363">
        <ele>567.0</ele>
        <time>2019-05-02T11:34:58.000Z</time>
      </trkpt>
      <trkpt lat="42.661460876464844" lon="-8.109456062316895">
        <ele>567.0</ele>
        <time>2019-05-02T11:34:59.000Z</time>
      </trkpt>
      <trkpt lat="42.66144561767578" lon="-8.109519004821777">
        <ele>567.0</ele>
        <time>2019-05-02T11:35:03.000Z</time>
      </trkpt>
      <trkpt lat="42.66142654418945" lon="-8.109602928161621">
        <ele>567.0</ele>
        <time>2019-05-02T11:35:08.000Z</time>
      </trkpt>
      <trkpt lat="42.661407470703125" lon="-8.109702110290527">
        <ele>568.0</ele>
        <time>2019-05-02T11:35:12.000Z</time>
      </trkpt>
      <trkpt lat="42.661380767822266" lon="-8.109807968139648">
        <ele>569.0</ele>
        <time>2019-05-02T11:35:17.000Z</time>
      </trkpt>
      <trkpt lat="42.66139221191406" lon="-8.109875679016113">
        <ele>569.0</ele>
        <time>2019-05-02T11:35:23.000Z</time>
      </trkpt>
      <trkpt lat="42.66141128540039" lon="-8.10993480682373">
        <ele>570.0</ele>
        <time>2019-05-02T11:35:29.000Z</time>
      </trkpt>
      <trkpt lat="42.661441802978516" lon="-8.109987258911133">
        <ele>570.0</ele>
        <time>2019-05-02T11:35:35.000Z</time>
      </trkpt>
      <trkpt lat="42.66147232055664" lon="-8.110037803649902">
        <ele>571.0</ele>
        <time>2019-05-02T11:35:42.000Z</time>
      </trkpt>
      <trkpt lat="42.66148376464844" lon="-8.110062599182129">
        <ele>571.0</ele>
        <time>2019-05-02T11:35:42.000Z</time>
      </trkpt>
      <trkpt lat="42.6614875793457" lon="-8.110074996948242">
        <ele>571.0</ele>
        <time>2019-05-02T11:35:42.000Z</time>
      </trkpt>
      <trkpt lat="42.66149139404297" lon="-8.110077857971191">
        <ele>571.0</ele>
        <time>2019-05-02T11:35:42.000Z</time>
      </trkpt>
      <trkpt lat="42.66149139404297" lon="-8.110076904296875">
        <ele>571.0</ele>
        <time>2019-05-02T11:35:43.000Z</time>
      </trkpt>
      <trkpt lat="42.6614990234375" lon="-8.110095977783203">
        <ele>571.0</ele>
        <time>2019-05-02T11:35:43.000Z</time>
      </trkpt>
      <trkpt lat="42.6615104675293" lon="-8.110119819641113">
        <ele>571.0</ele>
        <time>2019-05-02T11:35:44.000Z</time>
      </trkpt>
      <trkpt lat="42.661521911621094" lon="-8.110145568847656">
        <ele>572.0</ele>
        <time>2019-05-02T11:35:45.000Z</time>
      </trkpt>
      <trkpt lat="42.661537170410156" lon="-8.110173225402832">
        <ele>572.0</ele>
        <time>2019-05-02T11:35:46.000Z</time>
      </trkpt>
      <trkpt lat="42.66153335571289" lon="-8.110215187072754">
        <ele>572.0</ele>
        <time>2019-05-02T11:35:48.000Z</time>
      </trkpt>
      <trkpt lat="42.661521911621094" lon="-8.110265731811523">
        <ele>572.0</ele>
        <time>2019-05-02T11:35:51.000Z</time>
      </trkpt>
      <trkpt lat="42.66150665283203" lon="-8.110320091247559">
        <ele>572.0</ele>
        <time>2019-05-02T11:35:53.000Z</time>
      </trkpt>
      <trkpt lat="42.66149139404297" lon="-8.110377311706543">
        <ele>573.0</ele>
        <time>2019-05-02T11:35:56.000Z</time>
      </trkpt>
      <trkpt lat="42.6614990234375" lon="-8.1104097366333">
        <ele>572.0</ele>
        <time>2019-05-02T11:35:59.000Z</time>
      </trkpt>
      <trkpt lat="42.66151428222656" lon="-8.110434532165527">
        <ele>572.0</ele>
        <time>2019-05-02T11:36:03.000Z</time>
      </trkpt>
      <trkpt lat="42.66153335571289" lon="-8.110454559326172">
        <ele>571.0</ele>
        <time>2019-05-02T11:36:06.000Z</time>
      </trkpt>
      <trkpt lat="42.66155242919922" lon="-8.110471725463867">
        <ele>570.0</ele>
        <time>2019-05-02T11:36:10.000Z</time>
      </trkpt>
      <trkpt lat="42.66155242919922" lon="-8.110511779785156">
        <ele>569.0</ele>
        <time>2019-05-02T11:36:11.000Z</time>
      </trkpt>
      <trkpt lat="42.66154861450195" lon="-8.110559463500977">
        <ele>568.0</ele>
        <time>2019-05-02T11:36:13.000Z</time>
      </trkpt>
      <trkpt lat="42.66154098510742" lon="-8.110611915588379">
        <ele>568.0</ele>
        <time>2019-05-02T11:36:15.000Z</time>
      </trkpt>
      <trkpt lat="42.661529541015625" lon="-8.110666275024414">
        <ele>567.0</ele>
        <time>2019-05-02T11:36:17.000Z</time>
      </trkpt>
      <trkpt lat="42.66154861450195" lon="-8.110657691955566">
        <ele>566.0</ele>
        <time>2019-05-02T11:36:20.000Z</time>
      </trkpt>
      <trkpt lat="42.66157531738281" lon="-8.110625267028809">
        <ele>564.0</ele>
        <time>2019-05-02T11:36:23.000Z</time>
      </trkpt>
      <trkpt lat="42.6616096496582" lon="-8.110577583312988">
        <ele>563.0</ele>
        <time>2019-05-02T11:36:26.000Z</time>
      </trkpt>
      <trkpt lat="42.661643981933594" lon="-8.110520362854004">
        <ele>561.0</ele>
        <time>2019-05-02T11:36:30.000Z</time>
      </trkpt>
      <trkpt lat="42.661659240722656" lon="-8.110523223876953">
        <ele>560.0</ele>
        <time>2019-05-02T11:36:38.000Z</time>
      </trkpt>
      <trkpt lat="42.66166687011719" lon="-8.110543251037598">
        <ele>559.0</ele>
        <time>2019-05-02T11:36:47.000Z</time>
      </trkpt>
      <trkpt lat="42.66166687011719" lon="-8.110572814941406">
        <ele>558.0</ele>
        <time>2019-05-02T11:36:56.000Z</time>
      </trkpt>
      <trkpt lat="42.66166687011719" lon="-8.11060905456543">
        <ele>557.0</ele>
        <time>2019-05-02T11:37:05.000Z</time>
      </trkpt>
      <trkpt lat="42.66167068481445" lon="-8.110623359680176">
        <ele>557.0</ele>
        <time>2019-05-02T11:37:05.000Z</time>
      </trkpt>
      <trkpt lat="42.66167449951172" lon="-8.110634803771973">
        <ele>557.0</ele>
        <time>2019-05-02T11:37:05.000Z</time>
      </trkpt>
      <trkpt lat="42.661678314208984" lon="-8.110644340515137">
        <ele>557.0</ele>
        <time>2019-05-02T11:37:06.000Z</time>
      </trkpt>
      <trkpt lat="42.661678314208984" lon="-8.110652923583984">
        <ele>557.0</ele>
        <time>2019-05-02T11:37:06.000Z</time>
      </trkpt>
      <trkpt lat="42.66168975830078" lon="-8.110679626464844">
        <ele>557.0</ele>
        <time>2019-05-02T11:37:07.000Z</time>
      </trkpt>
      <trkpt lat="42.661705017089844" lon="-8.110712051391602">
        <ele>557.0</ele>
        <time>2019-05-02T11:37:08.000Z</time>
      </trkpt>
      <trkpt lat="42.661720275878906" lon="-8.110749244689941">
        <ele>556.0</ele>
        <time>2019-05-02T11:37:09.000Z</time>
      </trkpt>
      <trkpt lat="42.661739349365234" lon="-8.110788345336914">
        <ele>556.0</ele>
        <time>2019-05-02T11:37:11.000Z</time>
      </trkpt>
      <trkpt lat="42.66172409057617" lon="-8.110821723937988">
        <ele>555.0</ele>
        <time>2019-05-02T11:37:13.000Z</time>
      </trkpt>
      <trkpt lat="42.66169357299805" lon="-8.11085319519043">
        <ele>554.0</ele>
        <time>2019-05-02T11:37:15.000Z</time>
      </trkpt>
      <trkpt lat="42.66165542602539" lon="-8.110885620117188">
        <ele>554.0</ele>
        <time>2019-05-02T11:37:17.000Z</time>
      </trkpt>
      <trkpt lat="42.66161346435547" lon="-8.110917091369629">
        <ele>553.0</ele>
        <time>2019-05-02T11:37:19.000Z</time>
      </trkpt>
      <trkpt lat="42.661617279052734" lon="-8.110941886901855">
        <ele>553.0</ele>
        <time>2019-05-02T11:37:21.000Z</time>
      </trkpt>
      <trkpt lat="42.66163635253906" lon="-8.110962867736816">
        <ele>552.0</ele>
        <time>2019-05-02T11:37:24.000Z</time>
      </trkpt>
      <trkpt lat="42.66166687011719" lon="-8.110982894897461">
        <ele>552.0</ele>
        <time>2019-05-02T11:37:26.000Z</time>
      </trkpt>
      <trkpt lat="42.66169738769531" lon="-8.111001968383789">
        <ele>552.0</ele>
        <time>2019-05-02T11:37:29.000Z</time>
      </trkpt>
      <trkpt lat="42.66184616088867" lon="-8.11099910736084">
        <ele>551.0</ele>
        <time>2019-05-02T11:37:32.000Z</time>
      </trkpt>
      <trkpt lat="42.662044525146484" lon="-8.11097526550293">
        <ele>551.0</ele>
        <time>2019-05-02T11:37:35.000Z</time>
      </trkpt>
      <trkpt lat="42.66205978393555" lon="-8.111015319824219">
        <ele>551.0</ele>
        <time>2019-05-02T11:37:37.000Z</time>
      </trkpt>
      <trkpt lat="42.66204833984375" lon="-8.111074447631836">
        <ele>550.0</ele>
        <time>2019-05-02T11:37:39.000Z</time>
      </trkpt>
      <trkpt lat="42.662017822265625" lon="-8.111145973205566">
        <ele>550.0</ele>
        <time>2019-05-02T11:37:41.000Z</time>
      </trkpt>
      <trkpt lat="42.6619758605957" lon="-8.111224174499512">
        <ele>550.0</ele>
        <time>2019-05-02T11:37:43.000Z</time>
      </trkpt>
      <trkpt lat="42.661956787109375" lon="-8.111285209655762">
        <ele>549.0</ele>
        <time>2019-05-02T11:37:45.000Z</time>
      </trkpt>
      <trkpt lat="42.66193389892578" lon="-8.111344337463379">
        <ele>548.0</ele>
        <time>2019-05-02T11:37:47.000Z</time>
      </trkpt>
      <trkpt lat="42.66191101074219" lon="-8.111404418945312">
        <ele>547.0</ele>
        <time>2019-05-02T11:37:49.000Z</time>
      </trkpt>
      <trkpt lat="42.66188430786133" lon="-8.111462593078613">
        <ele>546.0</ele>
        <time>2019-05-02T11:37:52.000Z</time>
      </trkpt>
      <trkpt lat="42.6618766784668" lon="-8.111494064331055">
        <ele>546.0</ele>
        <time>2019-05-02T11:37:54.000Z</time>
      </trkpt>
      <trkpt lat="42.66187286376953" lon="-8.1115140914917">
        <ele>545.0</ele>
        <time>2019-05-02T11:37:56.000Z</time>
      </trkpt>
      <trkpt lat="42.66187286376953" lon="-8.111526489257812">
        <ele>545.0</ele>
        <time>2019-05-02T11:37:58.000Z</time>
      </trkpt>
      <trkpt lat="42.6618766784668" lon="-8.11153507232666">
        <ele>545.0</ele>
        <time>2019-05-02T11:38:00.000Z</time>
      </trkpt>
      <trkpt lat="42.66188049316406" lon="-8.111543655395508">
        <ele>545.0</ele>
        <time>2019-05-02T11:38:04.000Z</time>
      </trkpt>
      <trkpt lat="42.661888122558594" lon="-8.111547470092773">
        <ele>544.0</ele>
        <time>2019-05-02T11:38:08.000Z</time>
      </trkpt>
      <trkpt lat="42.661895751953125" lon="-8.111549377441406">
        <ele>544.0</ele>
        <time>2019-05-02T11:38:12.000Z</time>
      </trkpt>
      <trkpt lat="42.66190719604492" lon="-8.111550331115723">
        <ele>543.0</ele>
        <time>2019-05-02T11:38:17.000Z</time>
      </trkpt>
      <trkpt lat="42.66191101074219" lon="-8.111553192138672">
        <ele>543.0</ele>
        <time>2019-05-02T11:38:17.000Z</time>
      </trkpt>
      <trkpt lat="42.66191864013672" lon="-8.111556053161621">
        <ele>543.0</ele>
        <time>2019-05-02T11:38:17.000Z</time>
      </trkpt>
      <trkpt lat="42.661922454833984" lon="-8.11155891418457">
        <ele>543.0</ele>
        <time>2019-05-02T11:38:17.000Z</time>
      </trkpt>
      <trkpt lat="42.661930084228516" lon="-8.11156177520752">
        <ele>543.0</ele>
        <time>2019-05-02T11:38:18.000Z</time>
      </trkpt>
      <trkpt lat="42.661949157714844" lon="-8.11158275604248">
        <ele>543.0</ele>
        <time>2019-05-02T11:38:19.000Z</time>
      </trkpt>
      <trkpt lat="42.66197204589844" lon="-8.111611366271973">
        <ele>543.0</ele>
        <time>2019-05-02T11:38:20.000Z</time>
      </trkpt>
      <trkpt lat="42.66200256347656" lon="-8.111644744873047">
        <ele>543.0</ele>
        <time>2019-05-02T11:38:21.000Z</time>
      </trkpt>
      <trkpt lat="42.66203308105469" lon="-8.111680030822754">
        <ele>543.0</ele>
        <time>2019-05-02T11:38:23.000Z</time>
      </trkpt>
      <trkpt lat="42.662109375" lon="-8.11170482635498">
        <ele>544.0</ele>
        <time>2019-05-02T11:38:28.000Z</time>
      </trkpt>
      <trkpt lat="42.66219711303711" lon="-8.111712455749512">
        <ele>546.0</ele>
        <time>2019-05-02T11:38:34.000Z</time>
      </trkpt>
      <trkpt lat="42.66221618652344" lon="-8.111715316772461">
        <ele>547.0</ele>
        <time>2019-05-02T11:38:34.000Z</time>
      </trkpt>
      <trkpt lat="42.66222381591797" lon="-8.111717224121094">
        <ele>547.0</ele>
        <time>2019-05-02T11:38:34.000Z</time>
      </trkpt>
      <trkpt lat="42.662227630615234" lon="-8.111717224121094">
        <ele>546.0</ele>
        <time>2019-05-02T11:38:34.000Z</time>
      </trkpt>
      <trkpt lat="42.662227630615234" lon="-8.111717224121094">
        <ele>546.0</ele>
        <time>2019-05-02T11:38:35.000Z</time>
      </trkpt>
      <trkpt lat="42.6622428894043" lon="-8.11171817779541">
        <ele>547.0</ele>
        <time>2019-05-02T11:38:36.000Z</time>
      </trkpt>
      <trkpt lat="42.662261962890625" lon="-8.111719131469727">
        <ele>548.0</ele>
        <time>2019-05-02T11:38:37.000Z</time>
      </trkpt>
      <trkpt lat="42.66228485107422" lon="-8.111720085144043">
        <ele>548.0</ele>
        <time>2019-05-02T11:38:38.000Z</time>
      </trkpt>
      <trkpt lat="42.66230773925781" lon="-8.11172103881836">
        <ele>550.0</ele>
        <time>2019-05-02T11:38:40.000Z</time>
      </trkpt>
      <trkpt lat="42.66231918334961" lon="-8.111720085144043">
        <ele>550.0</ele>
        <time>2019-05-02T11:38:46.000Z</time>
      </trkpt>
      <trkpt lat="42.66232681274414" lon="-8.111719131469727">
        <ele>550.0</ele>
        <time>2019-05-02T11:38:53.000Z</time>
      </trkpt>
      <trkpt lat="42.66233444213867" lon="-8.111717224121094">
        <ele>550.0</ele>
        <time>2019-05-02T11:38:59.000Z</time>
      </trkpt>
      <trkpt lat="42.66233825683594" lon="-8.111715316772461">
        <ele>550.0</ele>
        <time>2019-05-02T11:39:06.000Z</time>
      </trkpt>
      <trkpt lat="42.66234588623047" lon="-8.111714363098145">
        <ele>550.0</ele>
        <time>2019-05-02T11:39:06.000Z</time>
      </trkpt>
      <trkpt lat="42.662349700927734" lon="-8.111712455749512">
        <ele>550.0</ele>
        <time>2019-05-02T11:39:06.000Z</time>
      </trkpt>
      <trkpt lat="42.662357330322266" lon="-8.111711502075195">
        <ele>550.0</ele>
        <time>2019-05-02T11:39:06.000Z</time>
      </trkpt>
      <trkpt lat="42.66236114501953" lon="-8.111710548400879">
        <ele>550.0</ele>
        <time>2019-05-02T11:39:07.000Z</time>
      </trkpt>
      <trkpt lat="42.66240692138672" lon="-8.111699104309082">
        <ele>550.0</ele>
        <time>2019-05-02T11:39:07.000Z</time>
      </trkpt>
      <trkpt lat="42.66246795654297" lon="-8.11168384552002">
        <ele>550.0</ele>
        <time>2019-05-02T11:39:08.000Z</time>
      </trkpt>
      <trkpt lat="42.662540435791016" lon="-8.111666679382324">
        <ele>549.0</ele>
        <time>2019-05-02T11:39:08.000Z</time>
      </trkpt>
      <trkpt lat="42.662620544433594" lon="-8.11164665222168">
        <ele>549.0</ele>
        <time>2019-05-02T11:39:09.000Z</time>
      </trkpt>
      <trkpt lat="42.662837982177734" lon="-8.111578941345215">
        <ele>549.0</ele>
        <time>2019-05-02T11:39:16.000Z</time>
      </trkpt>
      <trkpt lat="42.66284942626953" lon="-8.11154842376709">
        <ele>549.0</ele>
        <time>2019-05-02T11:39:18.000Z</time>
      </trkpt>
      <trkpt lat="42.662845611572266" lon="-8.111513137817383">
        <ele>550.0</ele>
        <time>2019-05-02T11:39:21.000Z</time>
      </trkpt>
      <trkpt lat="42.66282653808594" lon="-8.111473083496094">
        <ele>551.0</ele>
        <time>2019-05-02T11:39:23.000Z</time>
      </trkpt>
      <trkpt lat="42.662803649902344" lon="-8.111431121826172">
        <ele>552.0</ele>
        <time>2019-05-02T11:39:26.000Z</time>
      </trkpt>
      <trkpt lat="42.66284942626953" lon="-8.111413955688477">
        <ele>553.0</ele>
        <time>2019-05-02T11:39:31.000Z</time>
      </trkpt>
      <trkpt lat="42.66291809082031" lon="-8.111404418945312">
        <ele>553.0</ele>
        <time>2019-05-02T11:39:36.000Z</time>
      </trkpt>
      <trkpt lat="42.66299819946289" lon="-8.111400604248047">
        <ele>554.0</ele>
        <time>2019-05-02T11:39:41.000Z</time>
      </trkpt>
      <trkpt lat="42.6630859375" lon="-8.11139965057373">
        <ele>554.0</ele>
        <time>2019-05-02T11:39:47.000Z</time>
      </trkpt>
      <trkpt lat="42.66312026977539" lon="-8.11138916015625">
        <ele>554.0</ele>
        <time>2019-05-02T11:39:48.000Z</time>
      </trkpt>
      <trkpt lat="42.663143157958984" lon="-8.111377716064453">
        <ele>554.0</ele>
        <time>2019-05-02T11:39:50.000Z</time>
      </trkpt>
      <trkpt lat="42.663150787353516" lon="-8.111366271972656">
        <ele>554.0</ele>
        <time>2019-05-02T11:39:51.000Z</time>
      </trkpt>
      <trkpt lat="42.66315841674805" lon="-8.111353874206543">
        <ele>554.0</ele>
        <time>2019-05-02T11:39:53.000Z</time>
      </trkpt>
      <trkpt lat="42.66318893432617" lon="-8.111311912536621">
        <ele>553.0</ele>
        <time>2019-05-02T11:39:56.000Z</time>
      </trkpt>
      <trkpt lat="42.663230895996094" lon="-8.11125659942627">
        <ele>552.0</ele>
        <time>2019-05-02T11:39:59.000Z</time>
      </trkpt>
      <trkpt lat="42.663272857666016" lon="-8.11119270324707">
        <ele>550.0</ele>
        <time>2019-05-02T11:40:02.000Z</time>
      </trkpt>
      <trkpt lat="42.6633186340332" lon="-8.111124038696289">
        <ele>549.0</ele>
        <time>2019-05-02T11:40:06.000Z</time>
      </trkpt>
      <trkpt lat="42.663333892822266" lon="-8.111101150512695">
        <ele>548.0</ele>
        <time>2019-05-02T11:40:06.000Z</time>
      </trkpt>
      <trkpt lat="42.6633415222168" lon="-8.111091613769531">
        <ele>548.0</ele>
        <time>2019-05-02T11:40:06.000Z</time>
      </trkpt>
      <trkpt lat="42.6633415222168" lon="-8.111092567443848">
        <ele>548.0</ele>
        <time>2019-05-02T11:40:06.000Z</time>
      </trkpt>
      <trkpt lat="42.66333770751953" lon="-8.11109733581543">
        <ele>549.0</ele>
        <time>2019-05-02T11:40:07.000Z</time>
      </trkpt>
      <trkpt lat="42.66334533691406" lon="-8.11108684539795">
        <ele>548.0</ele>
        <time>2019-05-02T11:40:07.000Z</time>
      </trkpt>
      <trkpt lat="42.66335678100586" lon="-8.111075401306152">
        <ele>548.0</ele>
        <time>2019-05-02T11:40:07.000Z</time>
      </trkpt>
      <trkpt lat="42.663368225097656" lon="-8.111062049865723">
        <ele>548.0</ele>
        <time>2019-05-02T11:40:07.000Z</time>
      </trkpt>
      <trkpt lat="42.66337966918945" lon="-8.111048698425293">
        <ele>547.0</ele>
        <time>2019-05-02T11:40:08.000Z</time>
      </trkpt>
      <trkpt lat="42.66337966918945" lon="-8.111039161682129">
        <ele>547.0</ele>
        <time>2019-05-02T11:40:08.000Z</time>
      </trkpt>
      <trkpt lat="42.66337966918945" lon="-8.111031532287598">
        <ele>546.0</ele>
        <time>2019-05-02T11:40:09.000Z</time>
      </trkpt>
      <trkpt lat="42.66337966918945" lon="-8.111024856567383">
        <ele>545.0</ele>
        <time>2019-05-02T11:40:09.000Z</time>
      </trkpt>
      <trkpt lat="42.66337585449219" lon="-8.111019134521484">
        <ele>544.0</ele>
        <time>2019-05-02T11:40:10.000Z</time>
      </trkpt>
      <trkpt lat="42.66337203979492" lon="-8.111015319824219">
        <ele>544.0</ele>
        <time>2019-05-02T11:40:10.000Z</time>
      </trkpt>
      <trkpt lat="42.66336441040039" lon="-8.111011505126953">
        <ele>544.0</ele>
        <time>2019-05-02T11:40:11.000Z</time>
      </trkpt>
      <trkpt lat="42.663360595703125" lon="-8.11100959777832">
        <ele>544.0</ele>
        <time>2019-05-02T11:40:11.000Z</time>
      </trkpt>
      <trkpt lat="42.663352966308594" lon="-8.111007690429688">
        <ele>544.0</ele>
        <time>2019-05-02T11:40:12.000Z</time>
      </trkpt>
      <trkpt lat="42.66335678100586" lon="-8.11100959777832">
        <ele>544.0</ele>
        <time>2019-05-02T11:40:13.000Z</time>
      </trkpt>
      <trkpt lat="42.663360595703125" lon="-8.11101245880127">
        <ele>543.0</ele>
        <time>2019-05-02T11:40:14.000Z</time>
      </trkpt>
      <trkpt lat="42.663368225097656" lon="-8.111017227172852">
        <ele>543.0</ele>
        <time>2019-05-02T11:40:15.000Z</time>
      </trkpt>
      <trkpt lat="42.66337966918945" lon="-8.111021995544434">
        <ele>543.0</ele>
        <time>2019-05-02T11:40:17.000Z</time>
      </trkpt>
      <trkpt lat="42.663387298583984" lon="-8.111030578613281">
        <ele>543.0</ele>
        <time>2019-05-02T11:40:22.000Z</time>
      </trkpt>
      <trkpt lat="42.66339874267578" lon="-8.111040115356445">
        <ele>543.0</ele>
        <time>2019-05-02T11:40:28.000Z</time>
      </trkpt>
      <trkpt lat="42.66341018676758" lon="-8.111050605773926">
        <ele>543.0</ele>
        <time>2019-05-02T11:40:33.000Z</time>
      </trkpt>
      <trkpt lat="42.663421630859375" lon="-8.111062049865723">
        <ele>543.0</ele>
        <time>2019-05-02T11:40:39.000Z</time>
      </trkpt>
      <trkpt lat="42.66343307495117" lon="-8.111069679260254">
        <ele>543.0</ele>
        <time>2019-05-02T11:40:39.000Z</time>
      </trkpt>
      <trkpt lat="42.6634407043457" lon="-8.111075401306152">
        <ele>543.0</ele>
        <time>2019-05-02T11:40:39.000Z</time>
      </trkpt>
      <trkpt lat="42.66344451904297" lon="-8.11108112335205">
        <ele>543.0</ele>
        <time>2019-05-02T11:40:39.000Z</time>
      </trkpt>
      <trkpt lat="42.6634521484375" lon="-8.111085891723633">
        <ele>543.0</ele>
        <time>2019-05-02T11:40:40.000Z</time>
      </trkpt>
      <trkpt lat="42.663482666015625" lon="-8.111113548278809">
        <ele>543.0</ele>
        <time>2019-05-02T11:40:42.000Z</time>
      </trkpt>
      <trkpt lat="42.66352844238281" lon="-8.111148834228516">
        <ele>543.0</ele>
        <time>2019-05-02T11:40:44.000Z</time>
      </trkpt>
      <trkpt lat="42.663578033447266" lon="-8.111190795898438">
        <ele>543.0</ele>
        <time>2019-05-02T11:40:46.000Z</time>
      </trkpt>
      <trkpt lat="42.663631439208984" lon="-8.111235618591309">
        <ele>544.0</ele>
        <time>2019-05-02T11:40:48.000Z</time>
      </trkpt>
      <trkpt lat="42.66364669799805" lon="-8.111249923706055">
        <ele>544.0</ele>
        <time>2019-05-02T11:40:48.000Z</time>
      </trkpt>
      <trkpt lat="42.66365051269531" lon="-8.111254692077637">
        <ele>544.0</ele>
        <time>2019-05-02T11:40:49.000Z</time>
      </trkpt>
      <trkpt lat="42.66364669799805" lon="-8.11125373840332">
        <ele>544.0</ele>
        <time>2019-05-02T11:40:50.000Z</time>
      </trkpt>
      <trkpt lat="42.66363525390625" lon="-8.111248970031738">
        <ele>544.0</ele>
        <time>2019-05-02T11:40:51.000Z</time>
      </trkpt>
      <trkpt lat="42.663639068603516" lon="-8.111250877380371">
        <ele>543.0</ele>
        <time>2019-05-02T11:40:53.000Z</time>
      </trkpt>
      <trkpt lat="42.663639068603516" lon="-8.111252784729004">
        <ele>543.0</ele>
        <time>2019-05-02T11:40:56.000Z</time>
      </trkpt>
      <trkpt lat="42.66364288330078" lon="-8.111254692077637">
        <ele>543.0</ele>
        <time>2019-05-02T11:40:58.000Z</time>
      </trkpt>
      <trkpt lat="42.66364288330078" lon="-8.111255645751953">
        <ele>543.0</ele>
        <time>2019-05-02T11:41:01.000Z</time>
      </trkpt>
      <trkpt lat="42.66365051269531" lon="-8.111261367797852">
        <ele>543.0</ele>
        <time>2019-05-02T11:41:02.000Z</time>
      </trkpt>
      <trkpt lat="42.66371154785156" lon="-8.111322402954102">
        <ele>543.0</ele>
        <time>2019-05-02T11:41:04.000Z</time>
      </trkpt>
      <trkpt lat="42.663902282714844" lon="-8.111471176147461">
        <ele>544.0</ele>
        <time>2019-05-02T11:41:12.000Z</time>
      </trkpt>
      <trkpt lat="42.66398620605469" lon="-8.111586570739746">
        <ele>541.0</ele>
        <time>2019-05-02T11:41:21.000Z</time>
      </trkpt>
      <trkpt lat="42.66399002075195" lon="-8.111617088317871">
        <ele>541.0</ele>
        <time>2019-05-02T11:41:22.000Z</time>
      </trkpt>
      <trkpt lat="42.66398239135742" lon="-8.111647605895996">
        <ele>540.0</ele>
        <time>2019-05-02T11:41:24.000Z</time>
      </trkpt>
      <trkpt lat="42.66397476196289" lon="-8.111679077148438">
        <ele>539.0</ele>
        <time>2019-05-02T11:41:25.000Z</time>
      </trkpt>
      <trkpt lat="42.66395950317383" lon="-8.111710548400879">
        <ele>539.0</ele>
        <time>2019-05-02T11:41:27.000Z</time>
      </trkpt>
      <trkpt lat="42.663970947265625" lon="-8.111759185791016">
        <ele>538.0</ele>
        <time>2019-05-02T11:41:30.000Z</time>
      </trkpt>
      <trkpt lat="42.66399002075195" lon="-8.11181354522705">
        <ele>537.0</ele>
        <time>2019-05-02T11:41:34.000Z</time>
      </trkpt>
      <trkpt lat="42.66401672363281" lon="-8.111872673034668">
        <ele>536.0</ele>
        <time>2019-05-02T11:41:37.000Z</time>
      </trkpt>
      <trkpt lat="42.66404342651367" lon="-8.111934661865234">
        <ele>535.0</ele>
        <time>2019-05-02T11:41:41.000Z</time>
      </trkpt>
      <trkpt lat="42.66407775878906" lon="-8.111943244934082">
        <ele>534.0</ele>
        <time>2019-05-02T11:41:44.000Z</time>
      </trkpt>
      <trkpt lat="42.664119720458984" lon="-8.111931800842285">
        <ele>533.0</ele>
        <time>2019-05-02T11:41:47.000Z</time>
      </trkpt>
      <trkpt lat="42.66416549682617" lon="-8.111907958984375">
        <ele>532.0</ele>
        <time>2019-05-02T11:41:50.000Z</time>
      </trkpt>
      <trkpt lat="42.664215087890625" lon="-8.11187744140625">
        <ele>530.0</ele>
        <time>2019-05-02T11:41:54.000Z</time>
      </trkpt>
      <trkpt lat="42.66423797607422" lon="-8.111893653869629">
        <ele>529.0</ele>
        <time>2019-05-02T11:41:57.000Z</time>
      </trkpt>
      <trkpt lat="42.664249420166016" lon="-8.111922264099121">
        <ele>527.0</ele>
        <time>2019-05-02T11:42:00.000Z</time>
      </trkpt>
      <trkpt lat="42.66425704956055" lon="-8.111959457397461">
        <ele>526.0</ele>
        <time>2019-05-02T11:42:03.000Z</time>
      </trkpt>
      <trkpt lat="42.66426086425781" lon="-8.112001419067383">
        <ele>524.0</ele>
        <time>2019-05-02T11:42:07.000Z</time>
      </trkpt>
      <trkpt lat="42.66426467895508" lon="-8.112013816833496">
        <ele>523.0</ele>
        <time>2019-05-02T11:42:09.000Z</time>
      </trkpt>
      <trkpt lat="42.664268493652344" lon="-8.112019538879395">
        <ele>522.0</ele>
        <time>2019-05-02T11:42:12.000Z</time>
      </trkpt>
      <trkpt lat="42.664268493652344" lon="-8.112019538879395">
        <ele>522.0</ele>
        <time>2019-05-02T11:42:15.000Z</time>
      </trkpt>
      <trkpt lat="42.66426467895508" lon="-8.112016677856445">
        <ele>521.0</ele>
        <time>2019-05-02T11:42:18.000Z</time>
      </trkpt>
      <trkpt lat="42.664268493652344" lon="-8.112020492553711">
        <ele>521.0</ele>
        <time>2019-05-02T11:42:18.000Z</time>
      </trkpt>
      <trkpt lat="42.664268493652344" lon="-8.11202335357666">
        <ele>521.0</ele>
        <time>2019-05-02T11:42:18.000Z</time>
      </trkpt>
      <trkpt lat="42.664268493652344" lon="-8.112027168273926">
        <ele>521.0</ele>
        <time>2019-05-02T11:42:18.000Z</time>
      </trkpt>
      <trkpt lat="42.664268493652344" lon="-8.112030029296875">
        <ele>521.0</ele>
        <time>2019-05-02T11:42:19.000Z</time>
      </trkpt>
      <trkpt lat="42.664276123046875" lon="-8.112051963806152">
        <ele>521.0</ele>
        <time>2019-05-02T11:42:19.000Z</time>
      </trkpt>
      <trkpt lat="42.664283752441406" lon="-8.112081527709961">
        <ele>521.0</ele>
        <time>2019-05-02T11:42:20.000Z</time>
      </trkpt>
      <trkpt lat="42.6642951965332" lon="-8.112115859985352">
        <ele>520.0</ele>
        <time>2019-05-02T11:42:20.000Z</time>
      </trkpt>
      <trkpt lat="42.664302825927734" lon="-8.112153053283691">
        <ele>520.0</ele>
        <time>2019-05-02T11:42:21.000Z</time>
      </trkpt>
      <trkpt lat="42.66432189941406" lon="-8.112201690673828">
        <ele>520.0</ele>
        <time>2019-05-02T11:42:22.000Z</time>
      </trkpt>
      <trkpt lat="42.66434097290039" lon="-8.112258911132812">
        <ele>520.0</ele>
        <time>2019-05-02T11:42:24.000Z</time>
      </trkpt>
      <trkpt lat="42.664363861083984" lon="-8.112320899963379">
        <ele>519.0</ele>
        <time>2019-05-02T11:42:25.000Z</time>
      </trkpt>
      <trkpt lat="42.66438674926758" lon="-8.112384796142578">
        <ele>519.0</ele>
        <time>2019-05-02T11:42:27.000Z</time>
      </trkpt>
      <trkpt lat="42.664405822753906" lon="-8.112415313720703">
        <ele>518.0</ele>
        <time>2019-05-02T11:42:29.000Z</time>
      </trkpt>
      <trkpt lat="42.6644172668457" lon="-8.112406730651855">
        <ele>517.0</ele>
        <time>2019-05-02T11:42:32.000Z</time>
      </trkpt>
      <trkpt lat="42.6644287109375" lon="-8.112419128417969">
        <ele>518.0</ele>
        <time>2019-05-02T11:42:36.000Z</time>
      </trkpt>
      <trkpt lat="42.66444778442383" lon="-8.112434387207031">
        <ele>520.0</ele>
        <time>2019-05-02T11:42:41.000Z</time>
      </trkpt>
      <trkpt lat="42.664466857910156" lon="-8.11245059967041">
        <ele>522.0</ele>
        <time>2019-05-02T11:42:46.000Z</time>
      </trkpt>
      <trkpt lat="42.664485931396484" lon="-8.112467765808105">
        <ele>524.0</ele>
        <time>2019-05-02T11:42:51.000Z</time>
      </trkpt>
      <trkpt lat="42.66449737548828" lon="-8.11247730255127">
        <ele>524.0</ele>
        <time>2019-05-02T11:42:51.000Z</time>
      </trkpt>
      <trkpt lat="42.66450500488281" lon="-8.1124849319458">
        <ele>525.0</ele>
        <time>2019-05-02T11:42:51.000Z</time>
      </trkpt>
      <trkpt lat="42.66450881958008" lon="-8.1124906539917">
        <ele>524.0</ele>
        <time>2019-05-02T11:42:51.000Z</time>
      </trkpt>
      <trkpt lat="42.66451644897461" lon="-8.112495422363281">
        <ele>524.0</ele>
        <time>2019-05-02T11:42:52.000Z</time>
      </trkpt>
      <trkpt lat="42.66455078125" lon="-8.112578392028809">
        <ele>523.0</ele>
        <time>2019-05-02T11:42:55.000Z</time>
      </trkpt>
      <trkpt lat="42.664588928222656" lon="-8.112693786621094">
        <ele>523.0</ele>
        <time>2019-05-02T11:42:59.000Z</time>
      </trkpt>
      <trkpt lat="42.66460418701172" lon="-8.112728118896484">
        <ele>523.0</ele>
        <time>2019-05-02T11:43:03.000Z</time>
      </trkpt>
      <trkpt lat="42.66461944580078" lon="-8.112756729125977">
        <ele>523.0</ele>
        <time>2019-05-02T11:43:08.000Z</time>
      </trkpt>
      <trkpt lat="42.664634704589844" lon="-8.112781524658203">
        <ele>523.0</ele>
        <time>2019-05-02T11:43:12.000Z</time>
      </trkpt>
      <trkpt lat="42.66464614868164" lon="-8.112804412841797">
        <ele>524.0</ele>
        <time>2019-05-02T11:43:17.000Z</time>
      </trkpt>
      <trkpt lat="42.66465759277344" lon="-8.112820625305176">
        <ele>524.0</ele>
        <time>2019-05-02T11:43:17.000Z</time>
      </trkpt>
      <trkpt lat="42.6646614074707" lon="-8.112832069396973">
        <ele>524.0</ele>
        <time>2019-05-02T11:43:17.000Z</time>
      </trkpt>
      <trkpt lat="42.66466522216797" lon="-8.11284065246582">
        <ele>524.0</ele>
        <time>2019-05-02T11:43:17.000Z</time>
      </trkpt>
      <trkpt lat="42.664669036865234" lon="-8.112847328186035">
        <ele>524.0</ele>
        <time>2019-05-02T11:43:18.000Z</time>
      </trkpt>
      <trkpt lat="42.66469192504883" lon="-8.112885475158691">
        <ele>524.0</ele>
        <time>2019-05-02T11:43:20.000Z</time>
      </trkpt>
      <trkpt lat="42.66471862792969" lon="-8.112936019897461">
        <ele>525.0</ele>
        <time>2019-05-02T11:43:22.000Z</time>
      </trkpt>
      <trkpt lat="42.66474914550781" lon="-8.112994194030762">
        <ele>526.0</ele>
        <time>2019-05-02T11:43:24.000Z</time>
      </trkpt>
      <trkpt lat="42.6647834777832" lon="-8.113056182861328">
        <ele>526.0</ele>
        <time>2019-05-02T11:43:27.000Z</time>
      </trkpt>
      <trkpt lat="42.66481018066406" lon="-8.113073348999023">
        <ele>527.0</ele>
        <time>2019-05-02T11:43:28.000Z</time>
      </trkpt>
      <trkpt lat="42.66483688354492" lon="-8.113075256347656">
        <ele>527.0</ele>
        <time>2019-05-02T11:43:30.000Z</time>
      </trkpt>
      <trkpt lat="42.66486358642578" lon="-8.113067626953125">
        <ele>526.0</ele>
        <time>2019-05-02T11:43:32.000Z</time>
      </trkpt>
      <trkpt lat="42.664886474609375" lon="-8.113055229187012">
        <ele>526.0</ele>
        <time>2019-05-02T11:43:34.000Z</time>
      </trkpt>
      <trkpt lat="42.664886474609375" lon="-8.113080024719238">
        <ele>527.0</ele>
        <time>2019-05-02T11:43:36.000Z</time>
      </trkpt>
      <trkpt lat="42.66487121582031" lon="-8.113117218017578">
        <ele>527.0</ele>
        <time>2019-05-02T11:43:39.000Z</time>
      </trkpt>
      <trkpt lat="42.664852142333984" lon="-8.113161087036133">
        <ele>528.0</ele>
        <time>2019-05-02T11:43:41.000Z</time>
      </trkpt>
      <trkpt lat="42.664825439453125" lon="-8.113208770751953">
        <ele>528.0</ele>
        <time>2019-05-02T11:43:44.000Z</time>
      </trkpt>
      <trkpt lat="42.66482925415039" lon="-8.113235473632812">
        <ele>529.0</ele>
        <time>2019-05-02T11:43:45.000Z</time>
      </trkpt>
      <trkpt lat="42.66483688354492" lon="-8.11325740814209">
        <ele>529.0</ele>
        <time>2019-05-02T11:43:46.000Z</time>
      </trkpt>
      <trkpt lat="42.664852142333984" lon="-8.113276481628418">
        <ele>529.0</ele>
        <time>2019-05-02T11:43:47.000Z</time>
      </trkpt>
      <trkpt lat="42.66486740112305" lon="-8.11329460144043">
        <ele>530.0</ele>
        <time>2019-05-02T11:43:48.000Z</time>
      </trkpt>
      <trkpt lat="42.66489028930664" lon="-8.113333702087402">
        <ele>530.0</ele>
        <time>2019-05-02T11:43:51.000Z</time>
      </trkpt>
      <trkpt lat="42.664913177490234" lon="-8.113380432128906">
        <ele>531.0</ele>
        <time>2019-05-02T11:43:55.000Z</time>
      </trkpt>
      <trkpt lat="42.664939880371094" lon="-8.113431930541992">
        <ele>531.0</ele>
        <time>2019-05-02T11:43:58.000Z</time>
      </trkpt>
      <trkpt lat="42.66496658325195" lon="-8.113486289978027">
        <ele>532.0</ele>
        <time>2019-05-02T11:44:02.000Z</time>
      </trkpt>
      <trkpt lat="42.664981842041016" lon="-8.113582611083984">
        <ele>532.0</ele>
        <time>2019-05-02T11:44:10.000Z</time>
      </trkpt>
      <trkpt lat="42.66498565673828" lon="-8.113679885864258">
        <ele>532.0</ele>
        <time>2019-05-02T11:44:19.000Z</time>
      </trkpt>
      <trkpt lat="42.66502380371094" lon="-8.113755226135254">
        <ele>532.0</ele>
        <time>2019-05-02T11:44:23.000Z</time>
      </trkpt>
      <trkpt lat="42.665077209472656" lon="-8.113821029663086">
        <ele>533.0</ele>
        <time>2019-05-02T11:44:27.000Z</time>
      </trkpt>
      <trkpt lat="42.66509246826172" lon="-8.113887786865234">
        <ele>533.0</ele>
        <time>2019-05-02T11:44:33.000Z</time>
      </trkpt>
      <trkpt lat="42.665096282958984" lon="-8.11395263671875">
        <ele>533.0</ele>
        <time>2019-05-02T11:44:40.000Z</time>
      </trkpt>
      <trkpt lat="42.66510009765625" lon="-8.113970756530762">
        <ele>533.0</ele>
        <time>2019-05-02T11:44:40.000Z</time>
      </trkpt>
      <trkpt lat="42.665103912353516" lon="-8.113984107971191">
        <ele>533.0</ele>
        <time>2019-05-02T11:44:40.000Z</time>
      </trkpt>
      <trkpt lat="42.665103912353516" lon="-8.113993644714355">
        <ele>533.0</ele>
        <time>2019-05-02T11:44:40.000Z</time>
      </trkpt>
      <trkpt lat="42.66510772705078" lon="-8.11400032043457">
        <ele>533.0</ele>
        <time>2019-05-02T11:44:41.000Z</time>
      </trkpt>
      <trkpt lat="42.66511917114258" lon="-8.114043235778809">
        <ele>533.0</ele>
        <time>2019-05-02T11:44:43.000Z</time>
      </trkpt>
      <trkpt lat="42.66513442993164" lon="-8.11409854888916">
        <ele>533.0</ele>
        <time>2019-05-02T11:44:45.000Z</time>
      </trkpt>
      <trkpt lat="42.66515350341797" lon="-8.11416244506836">
        <ele>534.0</ele>
        <time>2019-05-02T11:44:47.000Z</time>
      </trkpt>
      <trkpt lat="42.66517639160156" lon="-8.11423110961914">
        <ele>534.0</ele>
        <time>2019-05-02T11:44:49.000Z</time>
      </trkpt>
      <trkpt lat="42.665184020996094" lon="-8.114274978637695">
        <ele>535.0</ele>
        <time>2019-05-02T11:44:51.000Z</time>
      </trkpt>
      <trkpt lat="42.665184020996094" lon="-8.114313125610352">
        <ele>535.0</ele>
        <time>2019-05-02T11:44:54.000Z</time>
      </trkpt>
      <trkpt lat="42.665184020996094" lon="-8.114347457885742">
        <ele>535.0</ele>
        <time>2019-05-02T11:44:57.000Z</time>
      </trkpt>
      <trkpt lat="42.665184020996094" lon="-8.1143798828125">
        <ele>535.0</ele>
        <time>2019-05-02T11:45:00.000Z</time>
      </trkpt>
      <trkpt lat="42.66520690917969" lon="-8.11441707611084">
        <ele>535.0</ele>
        <time>2019-05-02T11:45:02.000Z</time>
      </trkpt>
      <trkpt lat="42.66523742675781" lon="-8.11445426940918">
        <ele>534.0</ele>
        <time>2019-05-02T11:45:05.000Z</time>
      </trkpt>
      <trkpt lat="42.66527557373047" lon="-8.114492416381836">
        <ele>533.0</ele>
        <time>2019-05-02T11:45:08.000Z</time>
      </trkpt>
      <trkpt lat="42.66531753540039" lon="-8.114529609680176">
        <ele>532.0</ele>
        <time>2019-05-02T11:45:11.000Z</time>
      </trkpt>
      <trkpt lat="42.66534423828125" lon="-8.114579200744629">
        <ele>532.0</ele>
        <time>2019-05-02T11:45:15.000Z</time>
      </trkpt>
      <trkpt lat="42.665367126464844" lon="-8.114632606506348">
        <ele>531.0</ele>
        <time>2019-05-02T11:45:20.000Z</time>
      </trkpt>
      <trkpt lat="42.66539001464844" lon="-8.114689826965332">
        <ele>530.0</ele>
        <time>2019-05-02T11:45:24.000Z</time>
      </trkpt>
      <trkpt lat="42.665409088134766" lon="-8.11474895477295">
        <ele>529.0</ele>
        <time>2019-05-02T11:45:29.000Z</time>
      </trkpt>
      <trkpt lat="42.66542434692383" lon="-8.114768981933594">
        <ele>528.0</ele>
        <time>2019-05-02T11:45:30.000Z</time>
      </trkpt>
      <trkpt lat="42.66542053222656" lon="-8.11474895477295">
        <ele>529.0</ele>
        <time>2019-05-02T11:45:32.000Z</time>
      </trkpt>
      <trkpt lat="42.6654167175293" lon="-8.114758491516113">
        <ele>529.0</ele>
        <time>2019-05-02T11:45:35.000Z</time>
      </trkpt>
      <trkpt lat="42.665409088134766" lon="-8.11477279663086">
        <ele>529.0</ele>
        <time>2019-05-02T11:45:38.000Z</time>
      </trkpt>
      <trkpt lat="42.665401458740234" lon="-8.114789962768555">
        <ele>529.0</ele>
        <time>2019-05-02T11:45:41.000Z</time>
      </trkpt>
      <trkpt lat="42.66539001464844" lon="-8.114808082580566">
        <ele>530.0</ele>
        <time>2019-05-02T11:45:45.000Z</time>
      </trkpt>
      <trkpt lat="42.66538619995117" lon="-8.114819526672363">
        <ele>530.0</ele>
        <time>2019-05-02T11:45:45.000Z</time>
      </trkpt>
      <trkpt lat="42.665382385253906" lon="-8.114829063415527">
        <ele>530.0</ele>
        <time>2019-05-02T11:45:45.000Z</time>
      </trkpt>
      <trkpt lat="42.66537857055664" lon="-8.114837646484375">
        <ele>530.0</ele>
        <time>2019-05-02T11:45:45.000Z</time>
      </trkpt>
      <trkpt lat="42.665374755859375" lon="-8.114846229553223">
        <ele>530.0</ele>
        <time>2019-05-02T11:45:46.000Z</time>
      </trkpt>
      <trkpt lat="42.66536331176758" lon="-8.11487865447998">
        <ele>530.0</ele>
        <time>2019-05-02T11:45:46.000Z</time>
      </trkpt>
      <trkpt lat="42.66535568237305" lon="-8.114921569824219">
        <ele>530.0</ele>
        <time>2019-05-02T11:45:47.000Z</time>
      </trkpt>
      <trkpt lat="42.66534423828125" lon="-8.114971160888672">
        <ele>530.0</ele>
        <time>2019-05-02T11:45:47.000Z</time>
      </trkpt>
      <trkpt lat="42.66533660888672" lon="-8.115023612976074">
        <ele>531.0</ele>
        <time>2019-05-02T11:45:48.000Z</time>
      </trkpt>
      <trkpt lat="42.665348052978516" lon="-8.11505126953125">
        <ele>531.0</ele>
        <time>2019-05-02T11:45:50.000Z</time>
      </trkpt>
      <trkpt lat="42.665367126464844" lon="-8.115070343017578">
        <ele>531.0</ele>
        <time>2019-05-02T11:45:52.000Z</time>
      </trkpt>
      <trkpt lat="42.6653938293457" lon="-8.11508560180664">
        <ele>532.0</ele>
        <time>2019-05-02T11:45:54.000Z</time>
      </trkpt>
      <trkpt lat="42.66542434692383" lon="-8.115097999572754">
        <ele>532.0</ele>
        <time>2019-05-02T11:45:57.000Z</time>
      </trkpt>
      <trkpt lat="42.665443420410156" lon="-8.11510944366455">
        <ele>532.0</ele>
        <time>2019-05-02T11:45:58.000Z</time>
      </trkpt>
      <trkpt lat="42.665462493896484" lon="-8.115118026733398">
        <ele>532.0</ele>
        <time>2019-05-02T11:46:00.000Z</time>
      </trkpt>
      <trkpt lat="42.66547775268555" lon="-8.115124702453613">
        <ele>531.0</ele>
        <time>2019-05-02T11:46:01.000Z</time>
      </trkpt>
      <trkpt lat="42.665496826171875" lon="-8.115130424499512">
        <ele>531.0</ele>
        <time>2019-05-02T11:46:03.000Z</time>
      </trkpt>
      <trkpt lat="42.66550827026367" lon="-8.115152359008789">
        <ele>531.0</ele>
        <time>2019-05-02T11:46:06.000Z</time>
      </trkpt>
      <trkpt lat="42.665523529052734" lon="-8.115180015563965">
        <ele>530.0</ele>
        <time>2019-05-02T11:46:10.000Z</time>
      </trkpt>
      <trkpt lat="42.665531158447266" lon="-8.115211486816406">
        <ele>530.0</ele>
        <time>2019-05-02T11:46:13.000Z</time>
      </trkpt>
      <trkpt lat="42.66554260253906" lon="-8.11524486541748">
        <ele>529.0</ele>
        <time>2019-05-02T11:46:17.000Z</time>
      </trkpt>
      <trkpt lat="42.66554641723633" lon="-8.11526107788086">
        <ele>529.0</ele>
        <time>2019-05-02T11:46:20.000Z</time>
      </trkpt>
      <trkpt lat="42.665550231933594" lon="-8.115270614624023">
        <ele>528.0</ele>
        <time>2019-05-02T11:46:24.000Z</time>
      </trkpt>
      <trkpt lat="42.665550231933594" lon="-8.115276336669922">
        <ele>527.0</ele>
        <time>2019-05-02T11:46:28.000Z</time>
      </trkpt>
      <trkpt lat="42.665550231933594" lon="-8.115281105041504">
        <ele>527.0</ele>
        <time>2019-05-02T11:46:32.000Z</time>
      </trkpt>
      <trkpt lat="42.665550231933594" lon="-8.115288734436035">
        <ele>526.0</ele>
        <time>2019-05-02T11:46:32.000Z</time>
      </trkpt>
      <trkpt lat="42.665550231933594" lon="-8.11529541015625">
        <ele>526.0</ele>
        <time>2019-05-02T11:46:32.000Z</time>
      </trkpt>
      <trkpt lat="42.66555404663086" lon="-8.115302085876465">
        <ele>527.0</ele>
        <time>2019-05-02T11:46:32.000Z</time>
      </trkpt>
      <trkpt lat="42.66555404663086" lon="-8.11530876159668">
        <ele>527.0</ele>
        <time>2019-05-02T11:46:33.000Z</time>
      </trkpt>
      <trkpt lat="42.665557861328125" lon="-8.115326881408691">
        <ele>527.0</ele>
        <time>2019-05-02T11:46:33.000Z</time>
      </trkpt>
      <trkpt lat="42.665557861328125" lon="-8.115349769592285">
        <ele>526.0</ele>
        <time>2019-05-02T11:46:34.000Z</time>
      </trkpt>
      <trkpt lat="42.66556167602539" lon="-8.115376472473145">
        <ele>526.0</ele>
        <time>2019-05-02T11:46:34.000Z</time>
      </trkpt>
      <trkpt lat="42.665565490722656" lon="-8.11540412902832">
        <ele>526.0</ele>
        <time>2019-05-02T11:46:35.000Z</time>
      </trkpt>
      <trkpt lat="42.665565490722656" lon="-8.115452766418457">
        <ele>526.0</ele>
        <time>2019-05-02T11:46:36.000Z</time>
      </trkpt>
      <trkpt lat="42.66556930541992" lon="-8.115511894226074">
        <ele>526.0</ele>
        <time>2019-05-02T11:46:37.000Z</time>
      </trkpt>
      <trkpt lat="42.66557312011719" lon="-8.115577697753906">
        <ele>525.0</ele>
        <time>2019-05-02T11:46:38.000Z</time>
      </trkpt>
      <trkpt lat="42.66557693481445" lon="-8.115646362304688">
        <ele>525.0</ele>
        <time>2019-05-02T11:46:39.000Z</time>
      </trkpt>
      <trkpt lat="42.665592193603516" lon="-8.115700721740723">
        <ele>524.0</ele>
        <time>2019-05-02T11:46:42.000Z</time>
      </trkpt>
      <trkpt lat="42.66561508178711" lon="-8.11572265625">
        <ele>523.0</ele>
        <time>2019-05-02T11:46:45.000Z</time>
      </trkpt>
      <trkpt lat="42.66559600830078" lon="-8.115741729736328">
        <ele>523.0</ele>
        <time>2019-05-02T11:46:49.000Z</time>
      </trkpt>
      <trkpt lat="42.66556167602539" lon="-8.115758895874023">
        <ele>523.0</ele>
        <time>2019-05-02T11:46:54.000Z</time>
      </trkpt>
      <trkpt lat="42.66551971435547" lon="-8.115777015686035">
        <ele>523.0</ele>
        <time>2019-05-02T11:46:58.000Z</time>
      </trkpt>
      <trkpt lat="42.665470123291016" lon="-8.115795135498047">
        <ele>524.0</ele>
        <time>2019-05-02T11:47:03.000Z</time>
      </trkpt>
      <trkpt lat="42.66510009765625" lon="-8.11758041381836">
        <ele>558.0</ele>
        <time>2019-05-03T06:26:52.000Z</time>
      </trkpt>
      <trkpt lat="42.66508102416992" lon="-8.117979049682617">
        <ele>551.0</ele>
        <time>2019-05-03T06:27:21.000Z</time>
      </trkpt>
      <trkpt lat="42.6650505065918" lon="-8.118003845214844">
        <ele>549.0</ele>
        <time>2019-05-03T06:27:25.000Z</time>
      </trkpt>
      <trkpt lat="42.66501235961914" lon="-8.117997169494629">
        <ele>547.0</ele>
        <time>2019-05-03T06:27:28.000Z</time>
      </trkpt>
      <trkpt lat="42.66496658325195" lon="-8.117969512939453">
        <ele>545.0</ele>
        <time>2019-05-03T06:27:32.000Z</time>
      </trkpt>
      <trkpt lat="42.6649169921875" lon="-8.117931365966797">
        <ele>543.0</ele>
        <time>2019-05-03T06:27:36.000Z</time>
      </trkpt>
      <trkpt lat="42.664894104003906" lon="-8.117936134338379">
        <ele>542.0</ele>
        <time>2019-05-03T06:27:41.000Z</time>
      </trkpt>
      <trkpt lat="42.664878845214844" lon="-8.117947578430176">
        <ele>542.0</ele>
        <time>2019-05-03T06:27:46.000Z</time>
      </trkpt>
      <trkpt lat="42.66486740112305" lon="-8.117964744567871">
        <ele>542.0</ele>
        <time>2019-05-03T06:27:52.000Z</time>
      </trkpt>
      <trkpt lat="42.66486358642578" lon="-8.1179838180542">
        <ele>542.0</ele>
        <time>2019-05-03T06:27:57.000Z</time>
      </trkpt>
      <trkpt lat="42.664852142333984" lon="-8.117992401123047">
        <ele>542.0</ele>
        <time>2019-05-03T06:27:57.000Z</time>
      </trkpt>
      <trkpt lat="42.66484451293945" lon="-8.117999076843262">
        <ele>542.0</ele>
        <time>2019-05-03T06:27:57.000Z</time>
      </trkpt>
      <trkpt lat="42.66484069824219" lon="-8.11800479888916">
        <ele>542.0</ele>
        <time>2019-05-03T06:27:58.000Z</time>
      </trkpt>
      <trkpt lat="42.664833068847656" lon="-8.118010520935059">
        <ele>542.0</ele>
        <time>2019-05-03T06:27:58.000Z</time>
      </trkpt>
      <trkpt lat="42.66477584838867" lon="-8.118038177490234">
        <ele>542.0</ele>
        <time>2019-05-03T06:28:04.000Z</time>
      </trkpt>
      <trkpt lat="42.664695739746094" lon="-8.118075370788574">
        <ele>542.0</ele>
        <time>2019-05-03T06:28:09.000Z</time>
      </trkpt>
      <trkpt lat="42.66460037231445" lon="-8.118118286132812">
        <ele>542.0</ele>
        <time>2019-05-03T06:28:15.000Z</time>
      </trkpt>
      <trkpt lat="42.66449737548828" lon="-8.1181640625">
        <ele>542.0</ele>
        <time>2019-05-03T06:28:21.000Z</time>
      </trkpt>
      <trkpt lat="42.6644401550293" lon="-8.11816120147705">
        <ele>542.0</ele>
        <time>2019-05-03T06:28:24.000Z</time>
      </trkpt>
      <trkpt lat="42.66439437866211" lon="-8.118141174316406">
        <ele>542.0</ele>
        <time>2019-05-03T06:28:28.000Z</time>
      </trkpt>
      <trkpt lat="42.66435623168945" lon="-8.118109703063965">
        <ele>541.0</ele>
        <time>2019-05-03T06:28:31.000Z</time>
      </trkpt>
      <trkpt lat="42.66432189941406" lon="-8.118072509765625">
        <ele>541.0</ele>
        <time>2019-05-03T06:28:35.000Z</time>
      </trkpt>
      <trkpt lat="42.664302825927734" lon="-8.118078231811523">
        <ele>541.0</ele>
        <time>2019-05-03T06:28:37.000Z</time>
      </trkpt>
      <trkpt lat="42.66429138183594" lon="-8.118097305297852">
        <ele>541.0</ele>
        <time>2019-05-03T06:28:40.000Z</time>
      </trkpt>
      <trkpt lat="42.66428756713867" lon="-8.118124961853027">
        <ele>541.0</ele>
        <time>2019-05-03T06:28:42.000Z</time>
      </trkpt>
      <trkpt lat="42.66428756713867" lon="-8.118155479431152">
        <ele>541.0</ele>
        <time>2019-05-03T06:28:45.000Z</time>
      </trkpt>
      <trkpt lat="42.66427993774414" lon="-8.118163108825684">
        <ele>541.0</ele>
        <time>2019-05-03T06:28:50.000Z</time>
      </trkpt>
      <trkpt lat="42.664268493652344" lon="-8.1181640625">
        <ele>541.0</ele>
        <time>2019-05-03T06:28:55.000Z</time>
      </trkpt>
      <trkpt lat="42.66426086425781" lon="-8.11816120147705">
        <ele>541.0</ele>
        <time>2019-05-03T06:29:01.000Z</time>
      </trkpt>
      <trkpt lat="42.664249420166016" lon="-8.118156433105469">
        <ele>541.0</ele>
        <time>2019-05-03T06:29:06.000Z</time>
      </trkpt>
      <trkpt lat="42.664241790771484" lon="-8.118156433105469">
        <ele>541.0</ele>
        <time>2019-05-03T06:29:06.000Z</time>
      </trkpt>
      <trkpt lat="42.66423416137695" lon="-8.118156433105469">
        <ele>541.0</ele>
        <time>2019-05-03T06:29:06.000Z</time>
      </trkpt>
      <trkpt lat="42.66423034667969" lon="-8.118156433105469">
        <ele>541.0</ele>
        <time>2019-05-03T06:29:07.000Z</time>
      </trkpt>
      <trkpt lat="42.664222717285156" lon="-8.118157386779785">
        <ele>541.0</ele>
        <time>2019-05-03T06:29:07.000Z</time>
      </trkpt>
      <trkpt lat="42.66416549682617" lon="-8.11816120147705">
        <ele>541.0</ele>
        <time>2019-05-03T06:29:13.000Z</time>
      </trkpt>
      <trkpt lat="42.66408157348633" lon="-8.118165969848633">
        <ele>541.0</ele>
        <time>2019-05-03T06:29:18.000Z</time>
      </trkpt>
      <trkpt lat="42.66398620605469" lon="-8.118171691894531">
        <ele>541.0</ele>
        <time>2019-05-03T06:29:24.000Z</time>
      </trkpt>
      <trkpt lat="42.663883209228516" lon="-8.118178367614746">
        <ele>541.0</ele>
        <time>2019-05-03T06:29:30.000Z</time>
      </trkpt>
      <trkpt lat="42.66377639770508" lon="-8.118127822875977">
        <ele>541.0</ele>
        <time>2019-05-03T06:29:36.000Z</time>
      </trkpt>
      <trkpt lat="42.663692474365234" lon="-8.118048667907715">
        <ele>541.0</ele>
        <time>2019-05-03T06:29:43.000Z</time>
      </trkpt>
      <trkpt lat="42.66365051269531" lon="-8.11805248260498">
        <ele>541.0</ele>
        <time>2019-05-03T06:29:47.000Z</time>
      </trkpt>
      <trkpt lat="42.66361618041992" lon="-8.118071556091309">
        <ele>540.0</ele>
        <time>2019-05-03T06:29:51.000Z</time>
      </trkpt>
      <trkpt lat="42.66358184814453" lon="-8.1181001663208">
        <ele>540.0</ele>
        <time>2019-05-03T06:29:56.000Z</time>
      </trkpt>
      <trkpt lat="42.663551330566406" lon="-8.118133544921875">
        <ele>539.0</ele>
        <time>2019-05-03T06:30:00.000Z</time>
      </trkpt>
      <trkpt lat="42.66352844238281" lon="-8.118142127990723">
        <ele>539.0</ele>
        <time>2019-05-03T06:30:01.000Z</time>
      </trkpt>
      <trkpt lat="42.66351318359375" lon="-8.118145942687988">
        <ele>538.0</ele>
        <time>2019-05-03T06:30:03.000Z</time>
      </trkpt>
      <trkpt lat="42.66350555419922" lon="-8.118144989013672">
        <ele>538.0</ele>
        <time>2019-05-03T06:30:04.000Z</time>
      </trkpt>
      <trkpt lat="42.66349411010742" lon="-8.118143081665039">
        <ele>538.0</ele>
        <time>2019-05-03T06:30:06.000Z</time>
      </trkpt>
      <trkpt lat="42.663482666015625" lon="-8.118143081665039">
        <ele>538.0</ele>
        <time>2019-05-03T06:30:14.000Z</time>
      </trkpt>
      <trkpt lat="42.663475036621094" lon="-8.118142127990723">
        <ele>537.0</ele>
        <time>2019-05-03T06:30:21.000Z</time>
      </trkpt>
      <trkpt lat="42.66346740722656" lon="-8.118141174316406">
        <ele>536.0</ele>
        <time>2019-05-03T06:30:29.000Z</time>
      </trkpt>
      <trkpt lat="42.66345977783203" lon="-8.118139266967773">
        <ele>536.0</ele>
        <time>2019-05-03T06:30:37.000Z</time>
      </trkpt>
      <trkpt lat="42.6634521484375" lon="-8.118138313293457">
        <ele>536.0</ele>
        <time>2019-05-03T06:30:37.000Z</time>
      </trkpt>
      <trkpt lat="42.66344451904297" lon="-8.118138313293457">
        <ele>536.0</ele>
        <time>2019-05-03T06:30:37.000Z</time>
      </trkpt>
      <trkpt lat="42.66343688964844" lon="-8.11813735961914">
        <ele>536.0</ele>
        <time>2019-05-03T06:30:38.000Z</time>
      </trkpt>
      <trkpt lat="42.66343307495117" lon="-8.118136405944824">
        <ele>536.0</ele>
        <time>2019-05-03T06:30:38.000Z</time>
      </trkpt>
      <trkpt lat="42.663368225097656" lon="-8.118131637573242">
        <ele>535.0</ele>
        <time>2019-05-03T06:30:42.000Z</time>
      </trkpt>
      <trkpt lat="42.66328430175781" lon="-8.118124008178711">
        <ele>534.0</ele>
        <time>2019-05-03T06:30:46.000Z</time>
      </trkpt>
      <trkpt lat="42.663185119628906" lon="-8.11811637878418">
        <ele>532.0</ele>
        <time>2019-05-03T06:30:51.000Z</time>
      </trkpt>
      <trkpt lat="42.66307830810547" lon="-8.118106842041016">
        <ele>531.0</ele>
        <time>2019-05-03T06:30:55.000Z</time>
      </trkpt>
      <trkpt lat="42.66303253173828" lon="-8.1181058883667">
        <ele>530.0</ele>
        <time>2019-05-03T06:30:57.000Z</time>
      </trkpt>
      <trkpt lat="42.66300582885742" lon="-8.118106842041016">
        <ele>529.0</ele>
        <time>2019-05-03T06:30:59.000Z</time>
      </trkpt>
      <trkpt lat="42.66299057006836" lon="-8.118110656738281">
        <ele>528.0</ele>
        <time>2019-05-03T06:31:02.000Z</time>
      </trkpt>
      <trkpt lat="42.66298294067383" lon="-8.118114471435547">
        <ele>528.0</ele>
        <time>2019-05-03T06:31:04.000Z</time>
      </trkpt>
      <trkpt lat="42.66300964355469" lon="-8.118112564086914">
        <ele>526.0</ele>
        <time>2019-05-03T06:31:11.000Z</time>
      </trkpt>
      <trkpt lat="42.663055419921875" lon="-8.118108749389648">
        <ele>524.0</ele>
        <time>2019-05-03T06:31:19.000Z</time>
      </trkpt>
      <trkpt lat="42.66312026977539" lon="-8.118103981018066">
        <ele>522.0</ele>
        <time>2019-05-03T06:31:26.000Z</time>
      </trkpt>
      <trkpt lat="42.66318893432617" lon="-8.118099212646484">
        <ele>519.0</ele>
        <time>2019-05-03T06:31:34.000Z</time>
      </trkpt>
      <trkpt lat="42.66320037841797" lon="-8.118097305297852">
        <ele>518.0</ele>
        <time>2019-05-03T06:31:41.000Z</time>
      </trkpt>
      <trkpt lat="42.66320037841797" lon="-8.118095397949219">
        <ele>518.0</ele>
        <time>2019-05-03T06:31:48.000Z</time>
      </trkpt>
      <trkpt lat="42.66318893432617" lon="-8.118094444274902">
        <ele>517.0</ele>
        <time>2019-05-03T06:31:55.000Z</time>
      </trkpt>
      <trkpt lat="42.663169860839844" lon="-8.118093490600586">
        <ele>517.0</ele>
        <time>2019-05-03T06:32:02.000Z</time>
      </trkpt>
      <trkpt lat="42.66316604614258" lon="-8.11809253692627">
        <ele>517.0</ele>
        <time>2019-05-03T06:32:02.000Z</time>
      </trkpt>
      <trkpt lat="42.66316223144531" lon="-8.118091583251953">
        <ele>517.0</ele>
        <time>2019-05-03T06:32:02.000Z</time>
      </trkpt>
      <trkpt lat="42.66315841674805" lon="-8.118090629577637">
        <ele>517.0</ele>
        <time>2019-05-03T06:32:03.000Z</time>
      </trkpt>
      <trkpt lat="42.66315460205078" lon="-8.11808967590332">
        <ele>517.0</ele>
        <time>2019-05-03T06:32:03.000Z</time>
      </trkpt>
      <trkpt lat="42.6630973815918" lon="-8.118081092834473">
        <ele>518.0</ele>
        <time>2019-05-03T06:32:09.000Z</time>
      </trkpt>
      <trkpt lat="42.66301345825195" lon="-8.11806869506836">
        <ele>520.0</ele>
        <time>2019-05-03T06:32:15.000Z</time>
      </trkpt>
      <trkpt lat="42.66291427612305" lon="-8.118054389953613">
        <ele>521.0</ele>
        <time>2019-05-03T06:32:22.000Z</time>
      </trkpt>
      <trkpt lat="42.662811279296875" lon="-8.11803913116455">
        <ele>523.0</ele>
        <time>2019-05-03T06:32:28.000Z</time>
      </trkpt>
      <trkpt lat="42.66277313232422" lon="-8.118035316467285">
        <ele>523.0</ele>
        <time>2019-05-03T06:32:35.000Z</time>
      </trkpt>
      <trkpt lat="42.662757873535156" lon="-8.118036270141602">
        <ele>523.0</ele>
        <time>2019-05-03T06:32:42.000Z</time>
      </trkpt>
      <trkpt lat="42.662757873535156" lon="-8.118038177490234">
        <ele>522.0</ele>
        <time>2019-05-03T06:32:49.000Z</time>
      </trkpt>
      <trkpt lat="42.66276168823242" lon="-8.118042945861816">
        <ele>522.0</ele>
        <time>2019-05-03T06:32:56.000Z</time>
      </trkpt>
      <trkpt lat="42.66275405883789" lon="-8.118042945861816">
        <ele>522.0</ele>
        <time>2019-05-03T06:32:56.000Z</time>
      </trkpt>
      <trkpt lat="42.66274642944336" lon="-8.118043899536133">
        <ele>522.0</ele>
        <time>2019-05-03T06:32:56.000Z</time>
      </trkpt>
      <trkpt lat="42.66273880004883" lon="-8.118043899536133">
        <ele>522.0</ele>
        <time>2019-05-03T06:32:57.000Z</time>
      </trkpt>
      <trkpt lat="42.66273498535156" lon="-8.11804485321045">
        <ele>522.0</ele>
        <time>2019-05-03T06:32:57.000Z</time>
      </trkpt>
      <trkpt lat="42.66270446777344" lon="-8.118045806884766">
        <ele>522.0</ele>
        <time>2019-05-03T06:32:59.000Z</time>
      </trkpt>
      <trkpt lat="42.66267013549805" lon="-8.118047714233398">
        <ele>522.0</ele>
        <time>2019-05-03T06:33:00.000Z</time>
      </trkpt>
      <trkpt lat="42.66262435913086" lon="-8.118049621582031">
        <ele>522.0</ele>
        <time>2019-05-03T06:33:02.000Z</time>
      </trkpt>
      <trkpt lat="42.66258239746094" lon="-8.118051528930664">
        <ele>522.0</ele>
        <time>2019-05-03T06:33:04.000Z</time>
      </trkpt>
      <trkpt lat="42.662567138671875" lon="-8.118049621582031">
        <ele>522.0</ele>
        <time>2019-05-03T06:33:12.000Z</time>
      </trkpt>
      <trkpt lat="42.66256332397461" lon="-8.118045806884766">
        <ele>522.0</ele>
        <time>2019-05-03T06:33:20.000Z</time>
      </trkpt>
      <trkpt lat="42.662567138671875" lon="-8.118040084838867">
        <ele>521.0</ele>
        <time>2019-05-03T06:33:28.000Z</time>
      </trkpt>
      <trkpt lat="42.662574768066406" lon="-8.118034362792969">
        <ele>521.0</ele>
        <time>2019-05-03T06:33:36.000Z</time>
      </trkpt>
      <trkpt lat="42.662574768066406" lon="-8.118029594421387">
        <ele>521.0</ele>
        <time>2019-05-03T06:33:36.000Z</time>
      </trkpt>
      <trkpt lat="42.66257095336914" lon="-8.118025779724121">
        <ele>521.0</ele>
        <time>2019-05-03T06:33:36.000Z</time>
      </trkpt>
      <trkpt lat="42.66257095336914" lon="-8.118021965026855">
        <ele>521.0</ele>
        <time>2019-05-03T06:33:37.000Z</time>
      </trkpt>
      <trkpt lat="42.66257095336914" lon="-8.11801815032959">
        <ele>521.0</ele>
        <time>2019-05-03T06:33:37.000Z</time>
      </trkpt>
      <trkpt lat="42.66256332397461" lon="-8.117952346801758">
        <ele>521.0</ele>
        <time>2019-05-03T06:33:42.000Z</time>
      </trkpt>
      <trkpt lat="42.66255569458008" lon="-8.117859840393066">
        <ele>521.0</ele>
        <time>2019-05-03T06:33:46.000Z</time>
      </trkpt>
      <trkpt lat="42.66254425048828" lon="-8.117749214172363">
        <ele>520.0</ele>
        <time>2019-05-03T06:33:51.000Z</time>
      </trkpt>
      <trkpt lat="42.66253662109375" lon="-8.117630004882812">
        <ele>520.0</ele>
        <time>2019-05-03T06:33:56.000Z</time>
      </trkpt>
      <trkpt lat="42.66253662109375" lon="-8.117592811584473">
        <ele>520.0</ele>
        <time>2019-05-03T06:33:57.000Z</time>
      </trkpt>
      <trkpt lat="42.66254425048828" lon="-8.11762809753418">
        <ele>520.0</ele>
        <time>2019-05-03T06:33:58.000Z</time>
      </trkpt>
      <trkpt lat="42.66253662109375" lon="-8.117635726928711">
        <ele>520.0</ele>
        <time>2019-05-03T06:34:15.000Z</time>
      </trkpt>
      <trkpt lat="42.662532806396484" lon="-8.117646217346191">
        <ele>520.0</ele>
        <time>2019-05-03T06:34:33.000Z</time>
      </trkpt>
      <trkpt lat="42.66252136230469" lon="-8.117659568786621">
        <ele>519.0</ele>
        <time>2019-05-03T06:34:50.000Z</time>
      </trkpt>
      <trkpt lat="42.662513732910156" lon="-8.11767292022705">
        <ele>519.0</ele>
        <time>2019-05-03T06:35:08.000Z</time>
      </trkpt>
      <trkpt lat="42.662506103515625" lon="-8.117681503295898">
        <ele>518.0</ele>
        <time>2019-05-03T06:35:08.000Z</time>
      </trkpt>
      <trkpt lat="42.66250228881836" lon="-8.11768913269043">
        <ele>518.0</ele>
        <time>2019-05-03T06:35:08.000Z</time>
      </trkpt>
      <trkpt lat="42.662498474121094" lon="-8.117695808410645">
        <ele>519.0</ele>
        <time>2019-05-03T06:35:09.000Z</time>
      </trkpt>
      <trkpt lat="42.66249465942383" lon="-8.11770248413086">
        <ele>519.0</ele>
        <time>2019-05-03T06:35:09.000Z</time>
      </trkpt>
      <trkpt lat="42.662452697753906" lon="-8.117749214172363">
        <ele>518.0</ele>
        <time>2019-05-03T06:35:13.000Z</time>
      </trkpt>
      <trkpt lat="42.662391662597656" lon="-8.11781120300293">
        <ele>518.0</ele>
        <time>2019-05-03T06:35:17.000Z</time>
      </trkpt>
      <trkpt lat="42.66231918334961" lon="-8.117884635925293">
        <ele>517.0</ele>
        <time>2019-05-03T06:35:22.000Z</time>
      </trkpt>
      <trkpt lat="42.66224670410156" lon="-8.117963790893555">
        <ele>517.0</ele>
        <time>2019-05-03T06:35:26.000Z</time>
      </trkpt>
      <trkpt lat="42.662208557128906" lon="-8.118009567260742">
        <ele>517.0</ele>
        <time>2019-05-03T06:35:29.000Z</time>
      </trkpt>
      <trkpt lat="42.66217803955078" lon="-8.118048667907715">
        <ele>516.0</ele>
        <time>2019-05-03T06:35:32.000Z</time>
      </trkpt>
      <trkpt lat="42.66215896606445" lon="-8.118082046508789">
        <ele>516.0</ele>
        <time>2019-05-03T06:35:35.000Z</time>
      </trkpt>
      <trkpt lat="42.662139892578125" lon="-8.118112564086914">
        <ele>517.0</ele>
        <time>2019-05-03T06:35:38.000Z</time>
      </trkpt>
      <trkpt lat="42.66212844848633" lon="-8.118135452270508">
        <ele>516.0</ele>
        <time>2019-05-03T06:35:41.000Z</time>
      </trkpt>
      <trkpt lat="42.6621208190918" lon="-8.11815071105957">
        <ele>516.0</ele>
        <time>2019-05-03T06:35:44.000Z</time>
      </trkpt>
      <trkpt lat="42.66211700439453" lon="-8.118162155151367">
        <ele>516.0</ele>
        <time>2019-05-03T06:35:48.000Z</time>
      </trkpt>
      <trkpt lat="42.662113189697266" lon="-8.118171691894531">
        <ele>516.0</ele>
        <time>2019-05-03T06:35:51.000Z</time>
      </trkpt>
      <trkpt lat="42.662109375" lon="-8.118182182312012">
        <ele>516.0</ele>
        <time>2019-05-03T06:35:51.000Z</time>
      </trkpt>
      <trkpt lat="42.662105560302734" lon="-8.118191719055176">
        <ele>516.0</ele>
        <time>2019-05-03T06:35:51.000Z</time>
      </trkpt>
      <trkpt lat="42.66210174560547" lon="-8.118200302124023">
        <ele>516.0</ele>
        <time>2019-05-03T06:35:52.000Z</time>
      </trkpt>
      <trkpt lat="42.6620979309082" lon="-8.118207931518555">
        <ele>516.0</ele>
        <time>2019-05-03T06:35:52.000Z</time>
      </trkpt>
      <trkpt lat="42.662017822265625" lon="-8.118414878845215">
        <ele>516.0</ele>
        <time>2019-05-03T06:36:00.000Z</time>
      </trkpt>
      <trkpt lat="42.6619987487793" lon="-8.118510246276855">
        <ele>514.0</ele>
        <time>2019-05-03T06:36:13.000Z</time>
      </trkpt>
      <trkpt lat="42.661991119384766" lon="-8.118555068969727">
        <ele>514.0</ele>
        <time>2019-05-03T06:36:14.000Z</time>
      </trkpt>
      <trkpt lat="42.66189193725586" lon="-8.11895751953125">
        <ele>512.0</ele>
        <time>2019-05-03T06:36:40.000Z</time>
      </trkpt>
      <trkpt lat="42.66191101074219" lon="-8.119215965270996">
        <ele>511.0</ele>
        <time>2019-05-03T06:36:55.000Z</time>
      </trkpt>
      <trkpt lat="42.661991119384766" lon="-8.119495391845703">
        <ele>511.0</ele>
        <time>2019-05-03T06:37:07.000Z</time>
      </trkpt>
      <trkpt lat="42.66197967529297" lon="-8.119550704956055">
        <ele>511.0</ele>
        <time>2019-05-03T06:37:12.000Z</time>
      </trkpt>
      <trkpt lat="42.66195297241211" lon="-8.119601249694824">
        <ele>511.0</ele>
        <time>2019-05-03T06:37:18.000Z</time>
      </trkpt>
      <trkpt lat="42.66191864013672" lon="-8.119647026062012">
        <ele>512.0</ele>
        <time>2019-05-03T06:37:23.000Z</time>
      </trkpt>
      <trkpt lat="42.66188049316406" lon="-8.119690895080566">
        <ele>513.0</ele>
        <time>2019-05-03T06:37:29.000Z</time>
      </trkpt>
      <trkpt lat="42.66187286376953" lon="-8.119709014892578">
        <ele>513.0</ele>
        <time>2019-05-03T06:37:29.000Z</time>
      </trkpt>
      <trkpt lat="42.661869049072266" lon="-8.11971378326416">
        <ele>513.0</ele>
        <time>2019-05-03T06:37:30.000Z</time>
      </trkpt>
      <trkpt lat="42.66187286376953" lon="-8.119709968566895">
        <ele>513.0</ele>
        <time>2019-05-03T06:37:30.000Z</time>
      </trkpt>
      <trkpt lat="42.6618766784668" lon="-8.119701385498047">
        <ele>513.0</ele>
        <time>2019-05-03T06:37:31.000Z</time>
      </trkpt>
      <trkpt lat="42.6618766784668" lon="-8.119711875915527">
        <ele>512.0</ele>
        <time>2019-05-03T06:37:42.000Z</time>
      </trkpt>
      <trkpt lat="42.6618766784668" lon="-8.119725227355957">
        <ele>510.0</ele>
        <time>2019-05-03T06:37:53.000Z</time>
      </trkpt>
      <trkpt lat="42.6618766784668" lon="-8.119729995727539">
        <ele>510.0</ele>
        <time>2019-05-03T06:37:53.000Z</time>
      </trkpt>
      <trkpt lat="42.6618766784668" lon="-8.119734764099121">
        <ele>510.0</ele>
        <time>2019-05-03T06:37:53.000Z</time>
      </trkpt>
      <trkpt lat="42.6618766784668" lon="-8.119739532470703">
        <ele>510.0</ele>
        <time>2019-05-03T06:37:54.000Z</time>
      </trkpt>
      <trkpt lat="42.6618766784668" lon="-8.119744300842285">
        <ele>510.0</ele>
        <time>2019-05-03T06:37:54.000Z</time>
      </trkpt>
      <trkpt lat="42.66187286376953" lon="-8.119821548461914">
        <ele>510.0</ele>
        <time>2019-05-03T06:37:58.000Z</time>
      </trkpt>
      <trkpt lat="42.66187286376953" lon="-8.119929313659668">
        <ele>509.0</ele>
        <time>2019-05-03T06:38:02.000Z</time>
      </trkpt>
      <trkpt lat="42.66187286376953" lon="-8.12005615234375">
        <ele>509.0</ele>
        <time>2019-05-03T06:38:07.000Z</time>
      </trkpt>
      <trkpt lat="42.66187286376953" lon="-8.120194435119629">
        <ele>508.0</ele>
        <time>2019-05-03T06:38:11.000Z</time>
      </trkpt>
      <trkpt lat="42.66181182861328" lon="-8.12041187286377">
        <ele>506.0</ele>
        <time>2019-05-03T06:38:24.000Z</time>
      </trkpt>
      <trkpt lat="42.66171646118164" lon="-8.120626449584961">
        <ele>503.0</ele>
        <time>2019-05-03T06:38:38.000Z</time>
      </trkpt>
      <trkpt lat="42.66169357299805" lon="-8.120697975158691">
        <ele>502.0</ele>
        <time>2019-05-03T06:38:42.000Z</time>
      </trkpt>
      <trkpt lat="42.661678314208984" lon="-8.12075424194336">
        <ele>502.0</ele>
        <time>2019-05-03T06:38:46.000Z</time>
      </trkpt>
      <trkpt lat="42.66166687011719" lon="-8.120800018310547">
        <ele>501.0</ele>
        <time>2019-05-03T06:38:51.000Z</time>
      </trkpt>
      <trkpt lat="42.66165542602539" lon="-8.120841026306152">
        <ele>500.0</ele>
        <time>2019-05-03T06:38:55.000Z</time>
      </trkpt>
      <trkpt lat="42.66164779663086" lon="-8.12086296081543">
        <ele>499.0</ele>
        <time>2019-05-03T06:38:59.000Z</time>
      </trkpt>
      <trkpt lat="42.66164779663086" lon="-8.120872497558594">
        <ele>498.0</ele>
        <time>2019-05-03T06:39:03.000Z</time>
      </trkpt>
      <trkpt lat="42.66164779663086" lon="-8.120872497558594">
        <ele>498.0</ele>
        <time>2019-05-03T06:39:07.000Z</time>
      </trkpt>
      <trkpt lat="42.661651611328125" lon="-8.120867729187012">
        <ele>497.0</ele>
        <time>2019-05-03T06:39:11.000Z</time>
      </trkpt>
      <trkpt lat="42.66164779663086" lon="-8.12087345123291">
        <ele>497.0</ele>
        <time>2019-05-03T06:39:11.000Z</time>
      </trkpt>
      <trkpt lat="42.66164779663086" lon="-8.120879173278809">
        <ele>497.0</ele>
        <time>2019-05-03T06:39:11.000Z</time>
      </trkpt>
      <trkpt lat="42.66164779663086" lon="-8.120884895324707">
        <ele>497.0</ele>
        <time>2019-05-03T06:39:12.000Z</time>
      </trkpt>
      <trkpt lat="42.66164779663086" lon="-8.120889663696289">
        <ele>497.0</ele>
        <time>2019-05-03T06:39:12.000Z</time>
      </trkpt>
      <trkpt lat="42.661643981933594" lon="-8.120895385742188">
        <ele>497.0</ele>
        <time>2019-05-03T06:39:12.000Z</time>
      </trkpt>
      <trkpt lat="42.661643981933594" lon="-8.120901107788086">
        <ele>497.0</ele>
        <time>2019-05-03T06:39:12.000Z</time>
      </trkpt>
      <trkpt lat="42.661643981933594" lon="-8.120906829833984">
        <ele>497.0</ele>
        <time>2019-05-03T06:39:13.000Z</time>
      </trkpt>
      <trkpt lat="42.66164016723633" lon="-8.120912551879883">
        <ele>497.0</ele>
        <time>2019-05-03T06:39:13.000Z</time>
      </trkpt>
      <trkpt lat="42.66163635253906" lon="-8.120932579040527">
        <ele>497.0</ele>
        <time>2019-05-03T06:39:14.000Z</time>
      </trkpt>
      <trkpt lat="42.6616325378418" lon="-8.12095832824707">
        <ele>497.0</ele>
        <time>2019-05-03T06:39:14.000Z</time>
      </trkpt>
      <trkpt lat="42.661624908447266" lon="-8.120986938476562">
        <ele>497.0</ele>
        <time>2019-05-03T06:39:15.000Z</time>
      </trkpt>
      <trkpt lat="42.661617279052734" lon="-8.121018409729004">
        <ele>497.0</ele>
        <time>2019-05-03T06:39:16.000Z</time>
      </trkpt>
      <trkpt lat="42.66160583496094" lon="-8.121065139770508">
        <ele>497.0</ele>
        <time>2019-05-03T06:39:17.000Z</time>
      </trkpt>
      <trkpt lat="42.661407470703125" lon="-8.121463775634766">
        <ele>493.0</ele>
        <time>2019-05-03T06:39:40.000Z</time>
      </trkpt>
      <trkpt lat="42.661380767822266" lon="-8.121511459350586">
        <ele>493.0</ele>
        <time>2019-05-03T06:39:47.000Z</time>
      </trkpt>
      <trkpt lat="42.661354064941406" lon="-8.121562957763672">
        <ele>491.0</ele>
        <time>2019-05-03T06:40:02.000Z</time>
      </trkpt>
      <trkpt lat="42.66133499145508" lon="-8.12159538269043">
        <ele>491.0</ele>
        <time>2019-05-03T06:40:03.000Z</time>
      </trkpt>
      <trkpt lat="42.66114044189453" lon="-8.121984481811523">
        <ele>490.0</ele>
        <time>2019-05-03T06:40:22.000Z</time>
      </trkpt>
      <trkpt lat="42.661041259765625" lon="-8.122445106506348">
        <ele>489.0</ele>
        <time>2019-05-03T06:40:54.000Z</time>
      </trkpt>
      <trkpt lat="42.66092300415039" lon="-8.12260627746582">
        <ele>487.0</ele>
        <time>2019-05-03T06:41:11.000Z</time>
      </trkpt>
      <trkpt lat="42.660770416259766" lon="-8.122736930847168">
        <ele>486.0</ele>
        <time>2019-05-03T06:41:28.000Z</time>
      </trkpt>
      <trkpt lat="42.66071319580078" lon="-8.122823715209961">
        <ele>485.0</ele>
        <time>2019-05-03T06:41:37.000Z</time>
      </trkpt>
      <trkpt lat="42.66066360473633" lon="-8.122916221618652">
        <ele>484.0</ele>
        <time>2019-05-03T06:41:46.000Z</time>
      </trkpt>
      <trkpt lat="42.660614013671875" lon="-8.123013496398926">
        <ele>484.0</ele>
        <time>2019-05-03T06:41:55.000Z</time>
      </trkpt>
      <trkpt lat="42.66056823730469" lon="-8.123112678527832">
        <ele>483.0</ele>
        <time>2019-05-03T06:42:04.000Z</time>
      </trkpt>
      <trkpt lat="42.660545349121094" lon="-8.123290061950684">
        <ele>483.0</ele>
        <time>2019-05-03T06:42:14.000Z</time>
      </trkpt>
      <trkpt lat="42.66056442260742" lon="-8.12346363067627">
        <ele>483.0</ele>
        <time>2019-05-03T06:42:24.000Z</time>
      </trkpt>
      <trkpt lat="42.66056442260742" lon="-8.123503684997559">
        <ele>483.0</ele>
        <time>2019-05-03T06:42:25.000Z</time>
      </trkpt>
      <trkpt lat="42.66056442260742" lon="-8.123523712158203">
        <ele>483.0</ele>
        <time>2019-05-03T06:42:26.000Z</time>
      </trkpt>
      <trkpt lat="42.66056442260742" lon="-8.123530387878418">
        <ele>483.0</ele>
        <time>2019-05-03T06:42:28.000Z</time>
      </trkpt>
      <trkpt lat="42.66056442260742" lon="-8.123530387878418">
        <ele>483.0</ele>
        <time>2019-05-03T06:42:29.000Z</time>
      </trkpt>
      <trkpt lat="42.66055679321289" lon="-8.123539924621582">
        <ele>483.0</ele>
        <time>2019-05-03T06:42:36.000Z</time>
      </trkpt>
      <trkpt lat="42.66054916381836" lon="-8.123544692993164">
        <ele>483.0</ele>
        <time>2019-05-03T06:42:43.000Z</time>
      </trkpt>
      <trkpt lat="42.66054153442383" lon="-8.12354850769043">
        <ele>483.0</ele>
        <time>2019-05-03T06:42:51.000Z</time>
      </trkpt>
      <trkpt lat="42.6605339050293" lon="-8.123550415039062">
        <ele>483.0</ele>
        <time>2019-05-03T06:42:58.000Z</time>
      </trkpt>
      <trkpt lat="42.660526275634766" lon="-8.123554229736328">
        <ele>483.0</ele>
        <time>2019-05-03T06:42:58.000Z</time>
      </trkpt>
      <trkpt lat="42.6605224609375" lon="-8.123558044433594">
        <ele>483.0</ele>
        <time>2019-05-03T06:42:58.000Z</time>
      </trkpt>
      <trkpt lat="42.66051483154297" lon="-8.12356185913086">
        <ele>483.0</ele>
        <time>2019-05-03T06:42:59.000Z</time>
      </trkpt>
      <trkpt lat="42.6605110168457" lon="-8.123565673828125">
        <ele>483.0</ele>
        <time>2019-05-03T06:42:59.000Z</time>
      </trkpt>
      <trkpt lat="42.660518646240234" lon="-8.123608589172363">
        <ele>488.0</ele>
        <time>2019-05-03T06:43:00.000Z</time>
      </trkpt>
      <trkpt lat="42.6605339050293" lon="-8.123668670654297">
        <ele>495.0</ele>
        <time>2019-05-03T06:43:01.000Z</time>
      </trkpt>
      <trkpt lat="42.660552978515625" lon="-8.123740196228027">
        <ele>503.0</ele>
        <time>2019-05-03T06:43:03.000Z</time>
      </trkpt>
      <trkpt lat="42.66057586669922" lon="-8.12381649017334">
        <ele>512.0</ele>
        <time>2019-05-03T06:43:04.000Z</time>
      </trkpt>
      <trkpt lat="42.660606384277344" lon="-8.123861312866211">
        <ele>512.0</ele>
        <time>2019-05-03T06:43:13.000Z</time>
      </trkpt>
      <trkpt lat="42.66064453125" lon="-8.123899459838867">
        <ele>508.0</ele>
        <time>2019-05-03T06:43:22.000Z</time>
      </trkpt>
      <trkpt lat="42.66068649291992" lon="-8.123931884765625">
        <ele>503.0</ele>
        <time>2019-05-03T06:43:32.000Z</time>
      </trkpt>
      <trkpt lat="42.66073226928711" lon="-8.123961448669434">
        <ele>497.0</ele>
        <time>2019-05-03T06:43:41.000Z</time>
      </trkpt>
      <trkpt lat="42.660762786865234" lon="-8.124000549316406">
        <ele>495.0</ele>
        <time>2019-05-03T06:43:42.000Z</time>
      </trkpt>
      <trkpt lat="42.66078567504883" lon="-8.124041557312012">
        <ele>494.0</ele>
        <time>2019-05-03T06:43:42.000Z</time>
      </trkpt>
      <trkpt lat="42.66080856323242" lon="-8.124083518981934">
        <ele>493.0</ele>
        <time>2019-05-03T06:43:43.000Z</time>
      </trkpt>
      <trkpt lat="42.66082763671875" lon="-8.124125480651855">
        <ele>492.0</ele>
        <time>2019-05-03T06:43:44.000Z</time>
      </trkpt>
      <trkpt lat="42.66083908081055" lon="-8.124144554138184">
        <ele>492.0</ele>
        <time>2019-05-03T06:43:44.000Z</time>
      </trkpt>
      <trkpt lat="42.66084289550781" lon="-8.124153137207031">
        <ele>492.0</ele>
        <time>2019-05-03T06:43:44.000Z</time>
      </trkpt>
      <trkpt lat="42.66084289550781" lon="-8.124155044555664">
        <ele>492.0</ele>
        <time>2019-05-03T06:43:45.000Z</time>
      </trkpt>
      <trkpt lat="42.66084289550781" lon="-8.124154090881348">
        <ele>492.0</ele>
        <time>2019-05-03T06:43:45.000Z</time>
      </trkpt>
      <trkpt lat="42.660831451416016" lon="-8.12418270111084">
        <ele>492.0</ele>
        <time>2019-05-03T06:43:47.000Z</time>
      </trkpt>
      <trkpt lat="42.66081237792969" lon="-8.124218940734863">
        <ele>491.0</ele>
        <time>2019-05-03T06:43:48.000Z</time>
      </trkpt>
      <trkpt lat="42.66078567504883" lon="-8.124261856079102">
        <ele>491.0</ele>
        <time>2019-05-03T06:43:50.000Z</time>
      </trkpt>
      <trkpt lat="42.66075897216797" lon="-8.124306678771973">
        <ele>491.0</ele>
        <time>2019-05-03T06:43:52.000Z</time>
      </trkpt>
      <trkpt lat="42.66073989868164" lon="-8.124322891235352">
        <ele>491.0</ele>
        <time>2019-05-03T06:43:55.000Z</time>
      </trkpt>
      <trkpt lat="42.66071701049805" lon="-8.124329566955566">
        <ele>492.0</ele>
        <time>2019-05-03T06:43:58.000Z</time>
      </trkpt>
      <trkpt lat="42.66069412231445" lon="-8.124329566955566">
        <ele>493.0</ele>
        <time>2019-05-03T06:44:02.000Z</time>
      </trkpt>
      <trkpt lat="42.66067123413086" lon="-8.124326705932617">
        <ele>495.0</ele>
        <time>2019-05-03T06:44:05.000Z</time>
      </trkpt>
      <trkpt lat="42.6606559753418" lon="-8.124329566955566">
        <ele>495.0</ele>
        <time>2019-05-03T06:44:05.000Z</time>
      </trkpt>
      <trkpt lat="42.66064453125" lon="-8.124332427978516">
        <ele>495.0</ele>
        <time>2019-05-03T06:44:05.000Z</time>
      </trkpt>
      <trkpt lat="42.66063690185547" lon="-8.124335289001465">
        <ele>495.0</ele>
        <time>2019-05-03T06:44:06.000Z</time>
      </trkpt>
      <trkpt lat="42.66062545776367" lon="-8.124337196350098">
        <ele>495.0</ele>
        <time>2019-05-03T06:44:06.000Z</time>
      </trkpt>
      <trkpt lat="42.66059494018555" lon="-8.124368667602539">
        <ele>494.0</ele>
        <time>2019-05-03T06:44:08.000Z</time>
      </trkpt>
      <trkpt lat="42.660552978515625" lon="-8.124411582946777">
        <ele>494.0</ele>
        <time>2019-05-03T06:44:10.000Z</time>
      </trkpt>
      <trkpt lat="42.66050720214844" lon="-8.124463081359863">
        <ele>493.0</ele>
        <time>2019-05-03T06:44:12.000Z</time>
      </trkpt>
      <trkpt lat="42.660457611083984" lon="-8.124519348144531">
        <ele>492.0</ele>
        <time>2019-05-03T06:44:14.000Z</time>
      </trkpt>
      <trkpt lat="42.660457611083984" lon="-8.124576568603516">
        <ele>493.0</ele>
        <time>2019-05-03T06:44:19.000Z</time>
      </trkpt>
      <trkpt lat="42.66047286987305" lon="-8.124640464782715">
        <ele>495.0</ele>
        <time>2019-05-03T06:44:23.000Z</time>
      </trkpt>
      <trkpt lat="42.66050338745117" lon="-8.124707221984863">
        <ele>497.0</ele>
        <time>2019-05-03T06:44:28.000Z</time>
      </trkpt>
      <trkpt lat="42.66053771972656" lon="-8.124774932861328">
        <ele>500.0</ele>
        <time>2019-05-03T06:44:33.000Z</time>
      </trkpt>
      <trkpt lat="42.660552978515625" lon="-8.124815940856934">
        <ele>500.0</ele>
        <time>2019-05-03T06:44:35.000Z</time>
      </trkpt>
      <trkpt lat="42.66056442260742" lon="-8.124847412109375">
        <ele>501.0</ele>
        <time>2019-05-03T06:44:37.000Z</time>
      </trkpt>
      <trkpt lat="42.66057205200195" lon="-8.124871253967285">
        <ele>500.0</ele>
        <time>2019-05-03T06:44:39.000Z</time>
      </trkpt>
      <trkpt lat="42.66058349609375" lon="-8.124892234802246">
        <ele>500.0</ele>
        <time>2019-05-03T06:44:41.000Z</time>
      </trkpt>
      <trkpt lat="42.66061782836914" lon="-8.12492561340332">
        <ele>500.0</ele>
        <time>2019-05-03T06:44:49.000Z</time>
      </trkpt>
      <trkpt lat="42.6606559753418" lon="-8.124945640563965">
        <ele>500.0</ele>
        <time>2019-05-03T06:44:58.000Z</time>
      </trkpt>
      <trkpt lat="42.660667419433594" lon="-8.124955177307129">
        <ele>500.0</ele>
        <time>2019-05-03T06:44:58.000Z</time>
      </trkpt>
      <trkpt lat="42.660675048828125" lon="-8.124961853027344">
        <ele>500.0</ele>
        <time>2019-05-03T06:44:58.000Z</time>
      </trkpt>
      <trkpt lat="42.660682678222656" lon="-8.124967575073242">
        <ele>500.0</ele>
        <time>2019-05-03T06:44:59.000Z</time>
      </trkpt>
      <trkpt lat="42.66069030761719" lon="-8.12497329711914">
        <ele>500.0</ele>
        <time>2019-05-03T06:44:59.000Z</time>
      </trkpt>
      <trkpt lat="42.66074752807617" lon="-8.124999046325684">
        <ele>500.0</ele>
        <time>2019-05-03T06:45:04.000Z</time>
      </trkpt>
      <trkpt lat="42.660823822021484" lon="-8.125033378601074">
        <ele>500.0</ele>
        <time>2019-05-03T06:45:08.000Z</time>
      </trkpt>
      <trkpt lat="42.66091537475586" lon="-8.12507438659668">
        <ele>500.0</ele>
        <time>2019-05-03T06:45:13.000Z</time>
      </trkpt>
      <trkpt lat="42.6610107421875" lon="-8.125116348266602">
        <ele>501.0</ele>
        <time>2019-05-03T06:45:18.000Z</time>
      </trkpt>
      <trkpt lat="42.66108322143555" lon="-8.125173568725586">
        <ele>501.0</ele>
        <time>2019-05-03T06:45:24.000Z</time>
      </trkpt>
      <trkpt lat="42.661155700683594" lon="-8.125240325927734">
        <ele>501.0</ele>
        <time>2019-05-03T06:45:31.000Z</time>
      </trkpt>
      <trkpt lat="42.661224365234375" lon="-8.125311851501465">
        <ele>502.0</ele>
        <time>2019-05-03T06:45:37.000Z</time>
      </trkpt>
      <trkpt lat="42.661293029785156" lon="-8.125387191772461">
        <ele>502.0</ele>
        <time>2019-05-03T06:45:44.000Z</time>
      </trkpt>
      <trkpt lat="42.66132736206055" lon="-8.125429153442383">
        <ele>502.0</ele>
        <time>2019-05-03T06:45:47.000Z</time>
      </trkpt>
      <trkpt lat="42.66135025024414" lon="-8.125460624694824">
        <ele>501.0</ele>
        <time>2019-05-03T06:45:51.000Z</time>
      </trkpt>
      <trkpt lat="42.6613655090332" lon="-8.125484466552734">
        <ele>501.0</ele>
        <time>2019-05-03T06:45:54.000Z</time>
      </trkpt>
      <trkpt lat="42.661376953125" lon="-8.125505447387695">
        <ele>501.0</ele>
        <time>2019-05-03T06:45:58.000Z</time>
      </trkpt>
      <trkpt lat="42.66138458251953" lon="-8.125521659851074">
        <ele>500.0</ele>
        <time>2019-05-03T06:46:02.000Z</time>
      </trkpt>
      <trkpt lat="42.6613883972168" lon="-8.125531196594238">
        <ele>500.0</ele>
        <time>2019-05-03T06:46:05.000Z</time>
      </trkpt>
      <trkpt lat="42.6613883972168" lon="-8.125537872314453">
        <ele>499.0</ele>
        <time>2019-05-03T06:46:09.000Z</time>
      </trkpt>
      <trkpt lat="42.6613883972168" lon="-8.125542640686035">
        <ele>499.0</ele>
        <time>2019-05-03T06:46:13.000Z</time>
      </trkpt>
      <trkpt lat="42.66139602661133" lon="-8.125571250915527">
        <ele>499.0</ele>
        <time>2019-05-03T06:46:14.000Z</time>
      </trkpt>
      <trkpt lat="42.66158676147461" lon="-8.125935554504395">
        <ele>497.0</ele>
        <time>2019-05-03T06:46:32.000Z</time>
      </trkpt>
      <trkpt lat="42.66159439086914" lon="-8.12594223022461">
        <ele>497.0</ele>
        <time>2019-05-03T06:46:34.000Z</time>
      </trkpt>
      <trkpt lat="42.661739349365234" lon="-8.126001358032227">
        <ele>497.0</ele>
        <time>2019-05-03T06:46:50.000Z</time>
      </trkpt>
      <trkpt lat="42.661766052246094" lon="-8.126011848449707">
        <ele>497.0</ele>
        <time>2019-05-03T06:46:51.000Z</time>
      </trkpt>
      <trkpt lat="42.66210174560547" lon="-8.126038551330566">
        <ele>495.0</ele>
        <time>2019-05-03T06:47:12.000Z</time>
      </trkpt>
      <trkpt lat="42.66246032714844" lon="-8.126018524169922">
        <ele>495.0</ele>
        <time>2019-05-03T06:47:39.000Z</time>
      </trkpt>
      <trkpt lat="42.66252899169922" lon="-8.12598705291748">
        <ele>495.0</ele>
        <time>2019-05-03T06:47:44.000Z</time>
      </trkpt>
      <trkpt lat="42.66255187988281" lon="-8.125946044921875">
        <ele>494.0</ele>
        <time>2019-05-03T06:47:50.000Z</time>
      </trkpt>
      <trkpt lat="42.662567138671875" lon="-8.12594223022461">
        <ele>494.0</ele>
        <time>2019-05-03T06:47:55.000Z</time>
      </trkpt>
      <trkpt lat="42.66257858276367" lon="-8.125944137573242">
        <ele>494.0</ele>
        <time>2019-05-03T06:48:00.000Z</time>
      </trkpt>
      <trkpt lat="42.6625862121582" lon="-8.12594985961914">
        <ele>494.0</ele>
        <time>2019-05-03T06:48:06.000Z</time>
      </trkpt>
      <trkpt lat="42.662593841552734" lon="-8.125958442687988">
        <ele>494.0</ele>
        <time>2019-05-03T06:48:11.000Z</time>
      </trkpt>
      <trkpt lat="42.662601470947266" lon="-8.125960350036621">
        <ele>494.0</ele>
        <time>2019-05-03T06:48:11.000Z</time>
      </trkpt>
      <trkpt lat="42.66260528564453" lon="-8.125962257385254">
        <ele>494.0</ele>
        <time>2019-05-03T06:48:11.000Z</time>
      </trkpt>
      <trkpt lat="42.66261291503906" lon="-8.125964164733887">
        <ele>494.0</ele>
        <time>2019-05-03T06:48:12.000Z</time>
      </trkpt>
      <trkpt lat="42.662620544433594" lon="-8.12596607208252">
        <ele>494.0</ele>
        <time>2019-05-03T06:48:12.000Z</time>
      </trkpt>
      <trkpt lat="42.662662506103516" lon="-8.125980377197266">
        <ele>494.0</ele>
        <time>2019-05-03T06:48:14.000Z</time>
      </trkpt>
      <trkpt lat="42.662723541259766" lon="-8.125998497009277">
        <ele>494.0</ele>
        <time>2019-05-03T06:48:16.000Z</time>
      </trkpt>
      <trkpt lat="42.66279220581055" lon="-8.126019477844238">
        <ele>494.0</ele>
        <time>2019-05-03T06:48:18.000Z</time>
      </trkpt>
      <trkpt lat="42.66286849975586" lon="-8.126043319702148">
        <ele>495.0</ele>
        <time>2019-05-03T06:48:20.000Z</time>
      </trkpt>
      <trkpt lat="42.66289520263672" lon="-8.12605094909668">
        <ele>495.0</ele>
        <time>2019-05-03T06:48:23.000Z</time>
      </trkpt>
      <trkpt lat="42.662906646728516" lon="-8.126053810119629">
        <ele>495.0</ele>
        <time>2019-05-03T06:48:27.000Z</time>
      </trkpt>
      <trkpt lat="42.66291046142578" lon="-8.126053810119629">
        <ele>495.0</ele>
        <time>2019-05-03T06:48:30.000Z</time>
      </trkpt>
      <trkpt lat="42.66291046142578" lon="-8.126052856445312">
        <ele>495.0</ele>
        <time>2019-05-03T06:48:34.000Z</time>
      </trkpt>
      <trkpt lat="42.66291809082031" lon="-8.126054763793945">
        <ele>495.0</ele>
        <time>2019-05-03T06:48:34.000Z</time>
      </trkpt>
      <trkpt lat="42.662925720214844" lon="-8.126055717468262">
        <ele>495.0</ele>
        <time>2019-05-03T06:48:34.000Z</time>
      </trkpt>
      <trkpt lat="42.662933349609375" lon="-8.126057624816895">
        <ele>495.0</ele>
        <time>2019-05-03T06:48:35.000Z</time>
      </trkpt>
      <trkpt lat="42.66293716430664" lon="-8.126058578491211">
        <ele>495.0</ele>
        <time>2019-05-03T06:48:35.000Z</time>
      </trkpt>
      <trkpt lat="42.662994384765625" lon="-8.126080513000488">
        <ele>495.0</ele>
        <time>2019-05-03T06:48:40.000Z</time>
      </trkpt>
      <trkpt lat="42.6630744934082" lon="-8.12611198425293">
        <ele>496.0</ele>
        <time>2019-05-03T06:48:45.000Z</time>
      </trkpt>
      <trkpt lat="42.663169860839844" lon="-8.12614917755127">
        <ele>496.0</ele>
        <time>2019-05-03T06:48:50.000Z</time>
      </trkpt>
      <trkpt lat="42.663272857666016" lon="-8.126188278198242">
        <ele>496.0</ele>
        <time>2019-05-03T06:48:55.000Z</time>
      </trkpt>
      <trkpt lat="42.66328048706055" lon="-8.126198768615723">
        <ele>496.0</ele>
        <time>2019-05-03T06:48:57.000Z</time>
      </trkpt>
      <trkpt lat="42.66328430175781" lon="-8.126239776611328">
        <ele>496.0</ele>
        <time>2019-05-03T06:49:07.000Z</time>
      </trkpt>
      <trkpt lat="42.66328430175781" lon="-8.126296043395996">
        <ele>497.0</ele>
        <time>2019-05-03T06:49:18.000Z</time>
      </trkpt>
      <trkpt lat="42.66328811645508" lon="-8.126313209533691">
        <ele>497.0</ele>
        <time>2019-05-03T06:49:18.000Z</time>
      </trkpt>
      <trkpt lat="42.66328811645508" lon="-8.126326560974121">
        <ele>497.0</ele>
        <time>2019-05-03T06:49:18.000Z</time>
      </trkpt>
      <trkpt lat="42.66328811645508" lon="-8.126338958740234">
        <ele>497.0</ele>
        <time>2019-05-03T06:49:19.000Z</time>
      </trkpt>
      <trkpt lat="42.66328811645508" lon="-8.126349449157715">
        <ele>497.0</ele>
        <time>2019-05-03T06:49:19.000Z</time>
      </trkpt>
      <trkpt lat="42.66329574584961" lon="-8.126426696777344">
        <ele>496.0</ele>
        <time>2019-05-03T06:49:23.000Z</time>
      </trkpt>
      <trkpt lat="42.663307189941406" lon="-8.126529693603516">
        <ele>495.0</ele>
        <time>2019-05-03T06:49:27.000Z</time>
      </trkpt>
      <trkpt lat="42.6633186340332" lon="-8.126651763916016">
        <ele>495.0</ele>
        <time>2019-05-03T06:49:31.000Z</time>
      </trkpt>
      <trkpt lat="42.663333892822266" lon="-8.126782417297363">
        <ele>494.0</ele>
        <time>2019-05-03T06:49:35.000Z</time>
      </trkpt>
      <trkpt lat="42.66333770751953" lon="-8.126819610595703">
        <ele>493.0</ele>
        <time>2019-05-03T06:49:39.000Z</time>
      </trkpt>
      <trkpt lat="42.66333770751953" lon="-8.126827239990234">
        <ele>493.0</ele>
        <time>2019-05-03T06:49:43.000Z</time>
      </trkpt>
      <trkpt lat="42.663333892822266" lon="-8.126814842224121">
        <ele>492.0</ele>
        <time>2019-05-03T06:49:48.000Z</time>
      </trkpt>
      <trkpt lat="42.663330078125" lon="-8.126792907714844">
        <ele>492.0</ele>
        <time>2019-05-03T06:49:52.000Z</time>
      </trkpt>
      <trkpt lat="42.663330078125" lon="-8.126795768737793">
        <ele>492.0</ele>
        <time>2019-05-03T06:49:52.000Z</time>
      </trkpt>
      <trkpt lat="42.663330078125" lon="-8.126797676086426">
        <ele>492.0</ele>
        <time>2019-05-03T06:49:52.000Z</time>
      </trkpt>
      <trkpt lat="42.663330078125" lon="-8.126800537109375">
        <ele>492.0</ele>
        <time>2019-05-03T06:49:53.000Z</time>
      </trkpt>
      <trkpt lat="42.663330078125" lon="-8.126802444458008">
        <ele>492.0</ele>
        <time>2019-05-03T06:49:53.000Z</time>
      </trkpt>
      <trkpt lat="42.66331481933594" lon="-8.126871109008789">
        <ele>492.0</ele>
        <time>2019-05-03T06:49:57.000Z</time>
      </trkpt>
      <trkpt lat="42.663299560546875" lon="-8.126967430114746">
        <ele>492.0</ele>
        <time>2019-05-03T06:50:01.000Z</time>
      </trkpt>
      <trkpt lat="42.66327667236328" lon="-8.127082824707031">
        <ele>491.0</ele>
        <time>2019-05-03T06:50:06.000Z</time>
      </trkpt>
      <trkpt lat="42.66325378417969" lon="-8.127206802368164">
        <ele>491.0</ele>
        <time>2019-05-03T06:50:10.000Z</time>
      </trkpt>
      <trkpt lat="42.66325759887695" lon="-8.127501487731934">
        <ele>491.0</ele>
        <time>2019-05-03T06:50:24.000Z</time>
      </trkpt>
      <trkpt lat="42.6632080078125" lon="-8.127755165100098">
        <ele>490.0</ele>
        <time>2019-05-03T06:50:34.000Z</time>
      </trkpt>
      <trkpt lat="42.66322326660156" lon="-8.127827644348145">
        <ele>490.0</ele>
        <time>2019-05-03T06:50:38.000Z</time>
      </trkpt>
      <trkpt lat="42.66324996948242" lon="-8.127903938293457">
        <ele>490.0</ele>
        <time>2019-05-03T06:50:42.000Z</time>
      </trkpt>
      <trkpt lat="42.66328430175781" lon="-8.127982139587402">
        <ele>491.0</ele>
        <time>2019-05-03T06:50:46.000Z</time>
      </trkpt>
      <trkpt lat="42.66332244873047" lon="-8.12806224822998">
        <ele>491.0</ele>
        <time>2019-05-03T06:50:50.000Z</time>
      </trkpt>
      <trkpt lat="42.66333770751953" lon="-8.12811279296875">
        <ele>491.0</ele>
        <time>2019-05-03T06:50:51.000Z</time>
      </trkpt>
      <trkpt lat="42.66334915161133" lon="-8.128151893615723">
        <ele>491.0</ele>
        <time>2019-05-03T06:50:53.000Z</time>
      </trkpt>
      <trkpt lat="42.66335678100586" lon="-8.12818431854248">
        <ele>491.0</ele>
        <time>2019-05-03T06:50:54.000Z</time>
      </trkpt>
      <trkpt lat="42.663360595703125" lon="-8.128211975097656">
        <ele>491.0</ele>
        <time>2019-05-03T06:50:55.000Z</time>
      </trkpt>
      <trkpt lat="42.66342544555664" lon="-8.12826156616211">
        <ele>491.0</ele>
        <time>2019-05-03T06:50:57.000Z</time>
      </trkpt>
      <trkpt lat="42.663509368896484" lon="-8.128314971923828">
        <ele>492.0</ele>
        <time>2019-05-03T06:50:58.000Z</time>
      </trkpt>
      <trkpt lat="42.663612365722656" lon="-8.128372192382812">
        <ele>492.0</ele>
        <time>2019-05-03T06:51:00.000Z</time>
      </trkpt>
      <trkpt lat="42.663719177246094" lon="-8.12843132019043">
        <ele>492.0</ele>
        <time>2019-05-03T06:51:01.000Z</time>
      </trkpt>
      <trkpt lat="42.66377258300781" lon="-8.128470420837402">
        <ele>492.0</ele>
        <time>2019-05-03T06:51:02.000Z</time>
      </trkpt>
      <trkpt lat="42.6638069152832" lon="-8.128503799438477">
        <ele>492.0</ele>
        <time>2019-05-03T06:51:03.000Z</time>
      </trkpt>
      <trkpt lat="42.66383361816406" lon="-8.128532409667969">
        <ele>492.0</ele>
        <time>2019-05-03T06:51:03.000Z</time>
      </trkpt>
      <trkpt lat="42.663856506347656" lon="-8.128559112548828">
        <ele>492.0</ele>
        <time>2019-05-03T06:51:04.000Z</time>
      </trkpt>
      <trkpt lat="42.66385269165039" lon="-8.128564834594727">
        <ele>492.0</ele>
        <time>2019-05-03T06:51:05.000Z</time>
      </trkpt>
      <trkpt lat="42.66383361816406" lon="-8.128560066223145">
        <ele>493.0</ele>
        <time>2019-05-03T06:51:06.000Z</time>
      </trkpt>
      <trkpt lat="42.6638069152832" lon="-8.128547668457031">
        <ele>493.0</ele>
        <time>2019-05-03T06:51:06.000Z</time>
      </trkpt>
      <trkpt lat="42.66377639770508" lon="-8.128531455993652">
        <ele>493.0</ele>
        <time>2019-05-03T06:51:07.000Z</time>
      </trkpt>
      <trkpt lat="42.66377258300781" lon="-8.128535270690918">
        <ele>493.0</ele>
        <time>2019-05-03T06:51:08.000Z</time>
      </trkpt>
      <trkpt lat="42.66377639770508" lon="-8.128543853759766">
        <ele>493.0</ele>
        <time>2019-05-03T06:51:08.000Z</time>
      </trkpt>
      <trkpt lat="42.663787841796875" lon="-8.128554344177246">
        <ele>493.0</ele>
        <time>2019-05-03T06:51:09.000Z</time>
      </trkpt>
      <trkpt lat="42.66379928588867" lon="-8.12856674194336">
        <ele>493.0</ele>
        <time>2019-05-03T06:51:09.000Z</time>
      </trkpt>
      <trkpt lat="42.66374969482422" lon="-8.128558158874512">
        <ele>494.0</ele>
        <time>2019-05-03T06:51:12.000Z</time>
      </trkpt>
      <trkpt lat="42.66367721557617" lon="-8.12854290008545">
        <ele>496.0</ele>
        <time>2019-05-03T06:51:14.000Z</time>
      </trkpt>
      <trkpt lat="42.66358947753906" lon="-8.128521919250488">
        <ele>498.0</ele>
        <time>2019-05-03T06:51:16.000Z</time>
      </trkpt>
      <trkpt lat="42.66349411010742" lon="-8.128499031066895">
        <ele>500.0</ele>
        <time>2019-05-03T06:51:19.000Z</time>
      </trkpt>
      <trkpt lat="42.663448333740234" lon="-8.128490447998047">
        <ele>500.0</ele>
        <time>2019-05-03T06:51:21.000Z</time>
      </trkpt>
      <trkpt lat="42.663414001464844" lon="-8.128485679626465">
        <ele>499.0</ele>
        <time>2019-05-03T06:51:23.000Z</time>
      </trkpt>
      <trkpt lat="42.663387298583984" lon="-8.128482818603516">
        <ele>498.0</ele>
        <time>2019-05-03T06:51:25.000Z</time>
      </trkpt>
      <trkpt lat="42.66336441040039" lon="-8.1284818649292">
        <ele>496.0</ele>
        <time>2019-05-03T06:51:27.000Z</time>
      </trkpt>
      <trkpt lat="42.66337966918945" lon="-8.128504753112793">
        <ele>497.0</ele>
        <time>2019-05-03T06:51:30.000Z</time>
      </trkpt>
      <trkpt lat="42.66341781616211" lon="-8.1285400390625">
        <ele>499.0</ele>
        <time>2019-05-03T06:51:33.000Z</time>
      </trkpt>
      <trkpt lat="42.6634635925293" lon="-8.128582000732422">
        <ele>502.0</ele>
        <time>2019-05-03T06:51:37.000Z</time>
      </trkpt>
      <trkpt lat="42.66352081298828" lon="-8.12862777709961">
        <ele>505.0</ele>
        <time>2019-05-03T06:51:40.000Z</time>
      </trkpt>
      <trkpt lat="42.663543701171875" lon="-8.128658294677734">
        <ele>505.0</ele>
        <time>2019-05-03T06:51:43.000Z</time>
      </trkpt>
      <trkpt lat="42.66355895996094" lon="-8.128684997558594">
        <ele>505.0</ele>
        <time>2019-05-03T06:51:47.000Z</time>
      </trkpt>
      <trkpt lat="42.66356658935547" lon="-8.12870979309082">
        <ele>505.0</ele>
        <time>2019-05-03T06:51:50.000Z</time>
      </trkpt>
      <trkpt lat="42.66357421875" lon="-8.12873363494873">
        <ele>504.0</ele>
        <time>2019-05-03T06:51:54.000Z</time>
      </trkpt>
      <trkpt lat="42.66360092163086" lon="-8.128767013549805">
        <ele>503.0</ele>
        <time>2019-05-03T06:51:57.000Z</time>
      </trkpt>
      <trkpt lat="42.66362762451172" lon="-8.128803253173828">
        <ele>503.0</ele>
        <time>2019-05-03T06:52:00.000Z</time>
      </trkpt>
      <trkpt lat="42.663658142089844" lon="-8.1288423538208">
        <ele>502.0</ele>
        <time>2019-05-03T06:52:03.000Z</time>
      </trkpt>
      <trkpt lat="42.66368865966797" lon="-8.128881454467773">
        <ele>501.0</ele>
        <time>2019-05-03T06:52:06.000Z</time>
      </trkpt>
      <trkpt lat="42.663780212402344" lon="-8.12891674041748">
        <ele>499.0</ele>
        <time>2019-05-03T06:52:13.000Z</time>
      </trkpt>
      <trkpt lat="42.66389083862305" lon="-8.12893295288086">
        <ele>498.0</ele>
        <time>2019-05-03T06:52:20.000Z</time>
      </trkpt>
      <trkpt lat="42.6639404296875" lon="-8.128998756408691">
        <ele>496.0</ele>
        <time>2019-05-03T06:52:29.000Z</time>
      </trkpt>
      <trkpt lat="42.66399383544922" lon="-8.129087448120117">
        <ele>493.0</ele>
        <time>2019-05-03T06:52:38.000Z</time>
      </trkpt>
      <trkpt lat="42.66404342651367" lon="-8.129190444946289">
        <ele>490.0</ele>
        <time>2019-05-03T06:52:47.000Z</time>
      </trkpt>
      <trkpt lat="42.664093017578125" lon="-8.129300117492676">
        <ele>487.0</ele>
        <time>2019-05-03T06:52:56.000Z</time>
      </trkpt>
      <trkpt lat="42.66415023803711" lon="-8.129389762878418">
        <ele>485.0</ele>
        <time>2019-05-03T06:53:02.000Z</time>
      </trkpt>
      <trkpt lat="42.664207458496094" lon="-8.129478454589844">
        <ele>483.0</ele>
        <time>2019-05-03T06:53:08.000Z</time>
      </trkpt>
      <trkpt lat="42.664268493652344" lon="-8.12956714630127">
        <ele>481.0</ele>
        <time>2019-05-03T06:53:14.000Z</time>
      </trkpt>
      <trkpt lat="42.664329528808594" lon="-8.129654884338379">
        <ele>480.0</ele>
        <time>2019-05-03T06:53:20.000Z</time>
      </trkpt>
      <trkpt lat="42.66439437866211" lon="-8.129733085632324">
        <ele>478.0</ele>
        <time>2019-05-03T06:53:28.000Z</time>
      </trkpt>
      <trkpt lat="42.664459228515625" lon="-8.129806518554688">
        <ele>477.0</ele>
        <time>2019-05-03T06:53:36.000Z</time>
      </trkpt>
      <trkpt lat="42.664527893066406" lon="-8.129877090454102">
        <ele>475.0</ele>
        <time>2019-05-03T06:53:45.000Z</time>
      </trkpt>
      <trkpt lat="42.66459274291992" lon="-8.1299467086792">
        <ele>474.0</ele>
        <time>2019-05-03T06:53:53.000Z</time>
      </trkpt>
      <trkpt lat="42.664669036865234" lon="-8.129997253417969">
        <ele>473.0</ele>
        <time>2019-05-03T06:53:59.000Z</time>
      </trkpt>
      <trkpt lat="42.66474914550781" lon="-8.130038261413574">
        <ele>473.0</ele>
        <time>2019-05-03T06:54:05.000Z</time>
      </trkpt>
      <trkpt lat="42.664833068847656" lon="-8.130072593688965">
        <ele>473.0</ele>
        <time>2019-05-03T06:54:12.000Z</time>
      </trkpt>
      <trkpt lat="42.6649169921875" lon="-8.130104064941406">
        <ele>474.0</ele>
        <time>2019-05-03T06:54:18.000Z</time>
      </trkpt>
      <trkpt lat="42.66499710083008" lon="-8.130145072937012">
        <ele>473.0</ele>
        <time>2019-05-03T06:54:25.000Z</time>
      </trkpt>
      <trkpt lat="42.66508102416992" lon="-8.130186080932617">
        <ele>473.0</ele>
        <time>2019-05-03T06:54:33.000Z</time>
      </trkpt>
      <trkpt lat="42.6651611328125" lon="-8.130227088928223">
        <ele>472.0</ele>
        <time>2019-05-03T06:54:40.000Z</time>
      </trkpt>
      <trkpt lat="42.66524124145508" lon="-8.130268096923828">
        <ele>472.0</ele>
        <time>2019-05-03T06:54:48.000Z</time>
      </trkpt>
      <trkpt lat="42.66530227661133" lon="-8.13029956817627">
        <ele>471.0</ele>
        <time>2019-05-03T06:54:52.000Z</time>
      </trkpt>
      <trkpt lat="42.66535186767578" lon="-8.130326271057129">
        <ele>471.0</ele>
        <time>2019-05-03T06:54:57.000Z</time>
      </trkpt>
      <trkpt lat="42.66539764404297" lon="-8.130350112915039">
        <ele>471.0</ele>
        <time>2019-05-03T06:55:01.000Z</time>
      </trkpt>
      <trkpt lat="42.665435791015625" lon="-8.130372047424316">
        <ele>470.0</ele>
        <time>2019-05-03T06:55:06.000Z</time>
      </trkpt>
      <trkpt lat="42.665775299072266" lon="-8.1305513381958">
        <ele>471.0</ele>
        <time>2019-05-03T06:55:32.000Z</time>
      </trkpt>
      <trkpt lat="42.66583251953125" lon="-8.1305513381958">
        <ele>472.0</ele>
        <time>2019-05-03T06:55:36.000Z</time>
      </trkpt>
      <trkpt lat="42.66588592529297" lon="-8.130534172058105">
        <ele>474.0</ele>
        <time>2019-05-03T06:55:41.000Z</time>
      </trkpt>
      <trkpt lat="42.66592788696289" lon="-8.13050365447998">
        <ele>475.0</ele>
        <time>2019-05-03T06:55:45.000Z</time>
      </trkpt>
      <trkpt lat="42.66596984863281" lon="-8.13046646118164">
        <ele>477.0</ele>
        <time>2019-05-03T06:55:50.000Z</time>
      </trkpt>
      <trkpt lat="42.66605758666992" lon="-8.130477905273438">
        <ele>480.0</ele>
        <time>2019-05-03T06:55:57.000Z</time>
      </trkpt>
      <trkpt lat="42.666141510009766" lon="-8.130515098571777">
        <ele>484.0</ele>
        <time>2019-05-03T06:56:04.000Z</time>
      </trkpt>
      <trkpt lat="42.66617965698242" lon="-8.130522727966309">
        <ele>484.0</ele>
        <time>2019-05-03T06:56:08.000Z</time>
      </trkpt>
      <trkpt lat="42.66621780395508" lon="-8.130529403686523">
        <ele>485.0</ele>
        <time>2019-05-03T06:56:11.000Z</time>
      </trkpt>
      <trkpt lat="42.666259765625" lon="-8.130534172058105">
        <ele>485.0</ele>
        <time>2019-05-03T06:56:15.000Z</time>
      </trkpt>
      <trkpt lat="42.666297912597656" lon="-8.130538940429688">
        <ele>485.0</ele>
        <time>2019-05-03T06:56:19.000Z</time>
      </trkpt>
      <trkpt lat="42.66633987426758" lon="-8.130514144897461">
        <ele>486.0</ele>
        <time>2019-05-03T06:56:23.000Z</time>
      </trkpt>
      <trkpt lat="42.66638946533203" lon="-8.130475997924805">
        <ele>486.0</ele>
        <time>2019-05-03T06:56:28.000Z</time>
      </trkpt>
      <trkpt lat="42.666439056396484" lon="-8.1304292678833">
        <ele>486.0</ele>
        <time>2019-05-03T06:56:32.000Z</time>
      </trkpt>
      <trkpt lat="42.66648483276367" lon="-8.130378723144531">
        <ele>486.0</ele>
        <time>2019-05-03T06:56:37.000Z</time>
      </trkpt>
      <trkpt lat="42.66653060913086" lon="-8.130358695983887">
        <ele>487.0</ele>
        <time>2019-05-03T06:56:40.000Z</time>
      </trkpt>
      <trkpt lat="42.666568756103516" lon="-8.13034725189209">
        <ele>487.0</ele>
        <time>2019-05-03T06:56:43.000Z</time>
      </trkpt>
      <trkpt lat="42.66661071777344" lon="-8.130340576171875">
        <ele>487.0</ele>
        <time>2019-05-03T06:56:47.000Z</time>
      </trkpt>
      <trkpt lat="42.666648864746094" lon="-8.13033676147461">
        <ele>487.0</ele>
        <time>2019-05-03T06:56:50.000Z</time>
      </trkpt>
      <trkpt lat="42.66674041748047" lon="-8.130373001098633">
        <ele>488.0</ele>
        <time>2019-05-03T06:56:57.000Z</time>
      </trkpt>
      <trkpt lat="42.66684341430664" lon="-8.130435943603516">
        <ele>488.0</ele>
        <time>2019-05-03T06:57:04.000Z</time>
      </trkpt>
      <trkpt lat="42.666866302490234" lon="-8.130488395690918">
        <ele>488.0</ele>
        <time>2019-05-03T06:57:08.000Z</time>
      </trkpt>
      <trkpt lat="42.6668815612793" lon="-8.130552291870117">
        <ele>488.0</ele>
        <time>2019-05-03T06:57:12.000Z</time>
      </trkpt>
      <trkpt lat="42.66688919067383" lon="-8.130623817443848">
        <ele>488.0</ele>
        <time>2019-05-03T06:57:17.000Z</time>
      </trkpt>
      <trkpt lat="42.66689682006836" lon="-8.130699157714844">
        <ele>488.0</ele>
        <time>2019-05-03T06:57:21.000Z</time>
      </trkpt>
      <trkpt lat="42.66688919067383" lon="-8.130755424499512">
        <ele>487.0</ele>
        <time>2019-05-03T06:57:25.000Z</time>
      </trkpt>
      <trkpt lat="42.6668701171875" lon="-8.13080883026123">
        <ele>487.0</ele>
        <time>2019-05-03T06:57:29.000Z</time>
      </trkpt>
      <trkpt lat="42.666847229003906" lon="-8.130858421325684">
        <ele>486.0</ele>
        <time>2019-05-03T06:57:34.000Z</time>
      </trkpt>
      <trkpt lat="42.66682052612305" lon="-8.13090705871582">
        <ele>485.0</ele>
        <time>2019-05-03T06:57:38.000Z</time>
      </trkpt>
      <trkpt lat="42.666805267333984" lon="-8.131003379821777">
        <ele>484.0</ele>
        <time>2019-05-03T06:57:45.000Z</time>
      </trkpt>
      <trkpt lat="42.66679000854492" lon="-8.131118774414062">
        <ele>483.0</ele>
        <time>2019-05-03T06:57:52.000Z</time>
      </trkpt>
      <trkpt lat="42.666778564453125" lon="-8.131245613098145">
        <ele>483.0</ele>
        <time>2019-05-03T06:58:00.000Z</time>
      </trkpt>
      <trkpt lat="42.66676330566406" lon="-8.131379127502441">
        <ele>482.0</ele>
        <time>2019-05-03T06:58:07.000Z</time>
      </trkpt>
      <trkpt lat="42.666751861572266" lon="-8.131500244140625">
        <ele>482.0</ele>
        <time>2019-05-03T06:58:14.000Z</time>
      </trkpt>
      <trkpt lat="42.6667366027832" lon="-8.131621360778809">
        <ele>481.0</ele>
        <time>2019-05-03T06:58:21.000Z</time>
      </trkpt>
      <trkpt lat="42.666725158691406" lon="-8.131743431091309">
        <ele>481.0</ele>
        <time>2019-05-03T06:58:28.000Z</time>
      </trkpt>
      <trkpt lat="42.666709899902344" lon="-8.131866455078125">
        <ele>481.0</ele>
        <time>2019-05-03T06:58:35.000Z</time>
      </trkpt>
      <trkpt lat="42.6667366027832" lon="-8.131990432739258">
        <ele>482.0</ele>
        <time>2019-05-03T06:58:41.000Z</time>
      </trkpt>
      <trkpt lat="42.66678237915039" lon="-8.132060050964355">
        <ele>483.0</ele>
        <time>2019-05-03T06:58:47.000Z</time>
      </trkpt>
      <trkpt lat="42.66686248779297" lon="-8.132135391235352">
        <ele>484.0</ele>
        <time>2019-05-03T06:58:55.000Z</time>
      </trkpt>
      <trkpt lat="42.66695785522461" lon="-8.132201194763184">
        <ele>485.0</ele>
        <time>2019-05-03T06:59:03.000Z</time>
      </trkpt>
      <trkpt lat="42.667030334472656" lon="-8.132246017456055">
        <ele>486.0</ele>
        <time>2019-05-03T06:59:10.000Z</time>
      </trkpt>
      <trkpt lat="42.667110443115234" lon="-8.132294654846191">
        <ele>486.0</ele>
        <time>2019-05-03T06:59:18.000Z</time>
      </trkpt>
      <trkpt lat="42.667198181152344" lon="-8.132345199584961">
        <ele>486.0</ele>
        <time>2019-05-03T06:59:25.000Z</time>
      </trkpt>
      <trkpt lat="42.66728973388672" lon="-8.132397651672363">
        <ele>487.0</ele>
        <time>2019-05-03T06:59:33.000Z</time>
      </trkpt>
      <trkpt lat="42.6673698425293" lon="-8.13244915008545">
        <ele>487.0</ele>
        <time>2019-05-03T06:59:40.000Z</time>
      </trkpt>
      <trkpt lat="42.667449951171875" lon="-8.132501602172852">
        <ele>487.0</ele>
        <time>2019-05-03T06:59:46.000Z</time>
      </trkpt>
      <trkpt lat="42.66753005981445" lon="-8.13255500793457">
        <ele>487.0</ele>
        <time>2019-05-03T06:59:53.000Z</time>
      </trkpt>
      <trkpt lat="42.66761016845703" lon="-8.132609367370605">
        <ele>487.0</ele>
        <time>2019-05-03T07:00:00.000Z</time>
      </trkpt>
      <trkpt lat="42.66764450073242" lon="-8.13266372680664">
        <ele>487.0</ele>
        <time>2019-05-03T07:00:04.000Z</time>
      </trkpt>
      <trkpt lat="42.667659759521484" lon="-8.132719993591309">
        <ele>487.0</ele>
        <time>2019-05-03T07:00:09.000Z</time>
      </trkpt>
      <trkpt lat="42.667659759521484" lon="-8.132776260375977">
        <ele>487.0</ele>
        <time>2019-05-03T07:00:13.000Z</time>
      </trkpt>
      <trkpt lat="42.66765594482422" lon="-8.132832527160645">
        <ele>487.0</ele>
        <time>2019-05-03T07:00:18.000Z</time>
      </trkpt>
      <trkpt lat="42.66764450073242" lon="-8.132893562316895">
        <ele>487.0</ele>
        <time>2019-05-03T07:00:22.000Z</time>
      </trkpt>
      <trkpt lat="42.66762161254883" lon="-8.132957458496094">
        <ele>486.0</ele>
        <time>2019-05-03T07:00:26.000Z</time>
      </trkpt>
      <trkpt lat="42.6675910949707" lon="-8.13302230834961">
        <ele>486.0</ele>
        <time>2019-05-03T07:00:30.000Z</time>
      </trkpt>
      <trkpt lat="42.66756057739258" lon="-8.133089065551758">
        <ele>485.0</ele>
        <time>2019-05-03T07:00:34.000Z</time>
      </trkpt>
      <trkpt lat="42.66750717163086" lon="-8.133162498474121">
        <ele>484.0</ele>
        <time>2019-05-03T07:00:41.000Z</time>
      </trkpt>
      <trkpt lat="42.66743850708008" lon="-8.13323974609375">
        <ele>484.0</ele>
        <time>2019-05-03T07:00:48.000Z</time>
      </trkpt>
      <trkpt lat="42.66736602783203" lon="-8.133319854736328">
        <ele>483.0</ele>
        <time>2019-05-03T07:00:55.000Z</time>
      </trkpt>
      <trkpt lat="42.66728973388672" lon="-8.133401870727539">
        <ele>483.0</ele>
        <time>2019-05-03T07:01:02.000Z</time>
      </trkpt>
      <trkpt lat="42.66722106933594" lon="-8.133618354797363">
        <ele>480.0</ele>
        <time>2019-05-03T07:01:17.000Z</time>
      </trkpt>
      <trkpt lat="42.66718292236328" lon="-8.133862495422363">
        <ele>477.0</ele>
        <time>2019-05-03T07:01:33.000Z</time>
      </trkpt>
      <trkpt lat="42.66718292236328" lon="-8.133980751037598">
        <ele>476.0</ele>
        <time>2019-05-03T07:01:41.000Z</time>
      </trkpt>
      <trkpt lat="42.66718673706055" lon="-8.134100914001465">
        <ele>475.0</ele>
        <time>2019-05-03T07:01:48.000Z</time>
      </trkpt>
      <trkpt lat="42.66720199584961" lon="-8.134222030639648">
        <ele>475.0</ele>
        <time>2019-05-03T07:01:56.000Z</time>
      </trkpt>
      <trkpt lat="42.66721725463867" lon="-8.134343147277832">
        <ele>475.0</ele>
        <time>2019-05-03T07:02:04.000Z</time>
      </trkpt>
      <trkpt lat="42.66722106933594" lon="-8.134462356567383">
        <ele>474.0</ele>
        <time>2019-05-03T07:02:12.000Z</time>
      </trkpt>
      <trkpt lat="42.6672248840332" lon="-8.134581565856934">
        <ele>473.0</ele>
        <time>2019-05-03T07:02:19.000Z</time>
      </trkpt>
      <trkpt lat="42.6672248840332" lon="-8.134699821472168">
        <ele>471.0</ele>
        <time>2019-05-03T07:02:27.000Z</time>
      </trkpt>
      <trkpt lat="42.66722869873047" lon="-8.134818077087402">
        <ele>470.0</ele>
        <time>2019-05-03T07:02:35.000Z</time>
      </trkpt>
      <trkpt lat="42.667236328125" lon="-8.134934425354004">
        <ele>469.0</ele>
        <time>2019-05-03T07:02:42.000Z</time>
      </trkpt>
      <trkpt lat="42.66724395751953" lon="-8.135050773620605">
        <ele>469.0</ele>
        <time>2019-05-03T07:02:49.000Z</time>
      </trkpt>
      <trkpt lat="42.66725540161133" lon="-8.135165214538574">
        <ele>468.0</ele>
        <time>2019-05-03T07:02:56.000Z</time>
      </trkpt>
      <trkpt lat="42.667266845703125" lon="-8.13528060913086">
        <ele>467.0</ele>
        <time>2019-05-03T07:03:03.000Z</time>
      </trkpt>
      <trkpt lat="42.667274475097656" lon="-8.135401725769043">
        <ele>467.0</ele>
        <time>2019-05-03T07:03:09.000Z</time>
      </trkpt>
      <trkpt lat="42.66728210449219" lon="-8.13552474975586">
        <ele>467.0</ele>
        <time>2019-05-03T07:03:16.000Z</time>
      </trkpt>
      <trkpt lat="42.66728973388672" lon="-8.135649681091309">
        <ele>467.0</ele>
        <time>2019-05-03T07:03:22.000Z</time>
      </trkpt>
      <trkpt lat="42.66729736328125" lon="-8.135775566101074">
        <ele>467.0</ele>
        <time>2019-05-03T07:03:29.000Z</time>
      </trkpt>
      <trkpt lat="42.667293548583984" lon="-8.135896682739258">
        <ele>467.0</ele>
        <time>2019-05-03T07:03:36.000Z</time>
      </trkpt>
      <trkpt lat="42.66728973388672" lon="-8.136016845703125">
        <ele>467.0</ele>
        <time>2019-05-03T07:03:43.000Z</time>
      </trkpt>
      <trkpt lat="42.66727828979492" lon="-8.136136054992676">
        <ele>467.0</ele>
        <time>2019-05-03T07:03:50.000Z</time>
      </trkpt>
      <trkpt lat="42.66727066040039" lon="-8.136255264282227">
        <ele>467.0</ele>
        <time>2019-05-03T07:03:57.000Z</time>
      </trkpt>
      <trkpt lat="42.66733932495117" lon="-8.13646411895752">
        <ele>466.0</ele>
        <time>2019-05-03T07:04:11.000Z</time>
      </trkpt>
      <trkpt lat="42.66744613647461" lon="-8.13665771484375">
        <ele>465.0</ele>
        <time>2019-05-03T07:04:26.000Z</time>
      </trkpt>
      <trkpt lat="42.66748809814453" lon="-8.136723518371582">
        <ele>465.0</ele>
        <time>2019-05-03T07:04:29.000Z</time>
      </trkpt>
      <trkpt lat="42.66753387451172" lon="-8.136775016784668">
        <ele>466.0</ele>
        <time>2019-05-03T07:04:33.000Z</time>
      </trkpt>
      <trkpt lat="42.66757583618164" lon="-8.136816024780273">
        <ele>467.0</ele>
        <time>2019-05-03T07:04:36.000Z</time>
      </trkpt>
      <trkpt lat="42.66762161254883" lon="-8.136852264404297">
        <ele>469.0</ele>
        <time>2019-05-03T07:04:39.000Z</time>
      </trkpt>
      <trkpt lat="42.66763687133789" lon="-8.136907577514648">
        <ele>469.0</ele>
        <time>2019-05-03T07:04:43.000Z</time>
      </trkpt>
      <trkpt lat="42.667640686035156" lon="-8.136964797973633">
        <ele>470.0</ele>
        <time>2019-05-03T07:04:46.000Z</time>
      </trkpt>
      <trkpt lat="42.66763687133789" lon="-8.13702392578125">
        <ele>471.0</ele>
        <time>2019-05-03T07:04:50.000Z</time>
      </trkpt>
      <trkpt lat="42.66762924194336" lon="-8.1370849609375">
        <ele>472.0</ele>
        <time>2019-05-03T07:04:53.000Z</time>
      </trkpt>
      <trkpt lat="42.667625427246094" lon="-8.137138366699219">
        <ele>473.0</ele>
        <time>2019-05-03T07:04:57.000Z</time>
      </trkpt>
      <trkpt lat="42.66761779785156" lon="-8.137191772460938">
        <ele>473.0</ele>
        <time>2019-05-03T07:05:02.000Z</time>
      </trkpt>
      <trkpt lat="42.66761016845703" lon="-8.137243270874023">
        <ele>474.0</ele>
        <time>2019-05-03T07:05:06.000Z</time>
      </trkpt>
      <trkpt lat="42.6676025390625" lon="-8.137293815612793">
        <ele>475.0</ele>
        <time>2019-05-03T07:05:10.000Z</time>
      </trkpt>
      <trkpt lat="42.667606353759766" lon="-8.137316703796387">
        <ele>476.0</ele>
        <time>2019-05-03T07:05:31.000Z</time>
      </trkpt>
      <trkpt lat="42.6676139831543" lon="-8.137325286865234">
        <ele>477.0</ele>
        <time>2019-05-03T07:05:52.000Z</time>
      </trkpt>
      <trkpt lat="42.667625427246094" lon="-8.137327194213867">
        <ele>478.0</ele>
        <time>2019-05-03T07:06:13.000Z</time>
      </trkpt>
      <trkpt lat="42.66763687133789" lon="-8.137323379516602">
        <ele>479.0</ele>
        <time>2019-05-03T07:06:34.000Z</time>
      </trkpt>
      <trkpt lat="42.66764450073242" lon="-8.1373291015625">
        <ele>479.0</ele>
        <time>2019-05-03T07:06:34.000Z</time>
      </trkpt>
      <trkpt lat="42.66765213012695" lon="-8.137333869934082">
        <ele>479.0</ele>
        <time>2019-05-03T07:06:35.000Z</time>
      </trkpt>
      <trkpt lat="42.66765594482422" lon="-8.137338638305664">
        <ele>479.0</ele>
        <time>2019-05-03T07:06:35.000Z</time>
      </trkpt>
      <trkpt lat="42.66766357421875" lon="-8.13734245300293">
        <ele>479.0</ele>
        <time>2019-05-03T07:06:35.000Z</time>
      </trkpt>
      <trkpt lat="42.667720794677734" lon="-8.137365341186523">
        <ele>479.0</ele>
        <time>2019-05-03T07:06:41.000Z</time>
      </trkpt>
      <trkpt lat="42.66780090332031" lon="-8.137394905090332">
        <ele>478.0</ele>
        <time>2019-05-03T07:06:48.000Z</time>
      </trkpt>
      <trkpt lat="42.66789627075195" lon="-8.137429237365723">
        <ele>478.0</ele>
        <time>2019-05-03T07:06:54.000Z</time>
      </trkpt>
      <trkpt lat="42.667999267578125" lon="-8.137466430664062">
        <ele>478.0</ele>
        <time>2019-05-03T07:07:00.000Z</time>
      </trkpt>
      <trkpt lat="42.66804122924805" lon="-8.13748550415039">
        <ele>478.0</ele>
        <time>2019-05-03T07:07:03.000Z</time>
      </trkpt>
      <trkpt lat="42.668067932128906" lon="-8.137499809265137">
        <ele>478.0</ele>
        <time>2019-05-03T07:07:05.000Z</time>
      </trkpt>
      <trkpt lat="42.6680793762207" lon="-8.137511253356934">
        <ele>478.0</ele>
        <time>2019-05-03T07:07:08.000Z</time>
      </trkpt>
      <trkpt lat="42.668087005615234" lon="-8.137520790100098">
        <ele>478.0</ele>
        <time>2019-05-03T07:07:10.000Z</time>
      </trkpt>
      <trkpt lat="42.66810607910156" lon="-8.137530326843262">
        <ele>478.0</ele>
        <time>2019-05-03T07:07:15.000Z</time>
      </trkpt>
      <trkpt lat="42.668128967285156" lon="-8.137537956237793">
        <ele>478.0</ele>
        <time>2019-05-03T07:07:20.000Z</time>
      </trkpt>
      <trkpt lat="42.668148040771484" lon="-8.137543678283691">
        <ele>478.0</ele>
        <time>2019-05-03T07:07:25.000Z</time>
      </trkpt>
      <trkpt lat="42.66816711425781" lon="-8.13754940032959">
        <ele>479.0</ele>
        <time>2019-05-03T07:07:30.000Z</time>
      </trkpt>
      <trkpt lat="42.668182373046875" lon="-8.137553215026855">
        <ele>479.0</ele>
        <time>2019-05-03T07:07:30.000Z</time>
      </trkpt>
      <trkpt lat="42.668190002441406" lon="-8.137557029724121">
        <ele>479.0</ele>
        <time>2019-05-03T07:07:31.000Z</time>
      </trkpt>
      <trkpt lat="42.66819763183594" lon="-8.137558937072754">
        <ele>479.0</ele>
        <time>2019-05-03T07:07:31.000Z</time>
      </trkpt>
      <trkpt lat="42.66820526123047" lon="-8.137561798095703">
        <ele>479.0</ele>
        <time>2019-05-03T07:07:31.000Z</time>
      </trkpt>
      <trkpt lat="42.6683235168457" lon="-8.137567520141602">
        <ele>479.0</ele>
        <time>2019-05-03T07:07:36.000Z</time>
      </trkpt>
      <trkpt lat="42.668426513671875" lon="-8.137506484985352">
        <ele>480.0</ele>
        <time>2019-05-03T07:07:47.000Z</time>
      </trkpt>
      <trkpt lat="42.668548583984375" lon="-8.137415885925293">
        <ele>482.0</ele>
        <time>2019-05-03T07:07:58.000Z</time>
      </trkpt>
      <trkpt lat="42.66861343383789" lon="-8.137356758117676">
        <ele>482.0</ele>
        <time>2019-05-03T07:08:06.000Z</time>
      </trkpt>
      <trkpt lat="42.66868591308594" lon="-8.137289047241211">
        <ele>483.0</ele>
        <time>2019-05-03T07:08:14.000Z</time>
      </trkpt>
      <trkpt lat="42.668758392333984" lon="-8.137214660644531">
        <ele>484.0</ele>
        <time>2019-05-03T07:08:22.000Z</time>
      </trkpt>
      <trkpt lat="42.6688346862793" lon="-8.137138366699219">
        <ele>485.0</ele>
        <time>2019-05-03T07:08:30.000Z</time>
      </trkpt>
      <trkpt lat="42.66889953613281" lon="-8.13706111907959">
        <ele>486.0</ele>
        <time>2019-05-03T07:08:39.000Z</time>
      </trkpt>
      <trkpt lat="42.66896438598633" lon="-8.136980056762695">
        <ele>486.0</ele>
        <time>2019-05-03T07:08:47.000Z</time>
      </trkpt>
      <trkpt lat="42.669029235839844" lon="-8.136898040771484">
        <ele>486.0</ele>
        <time>2019-05-03T07:08:56.000Z</time>
      </trkpt>
      <trkpt lat="42.669090270996094" lon="-8.13681411743164">
        <ele>487.0</ele>
        <time>2019-05-03T07:09:04.000Z</time>
      </trkpt>
      <trkpt lat="42.669151306152344" lon="-8.136725425720215">
        <ele>487.0</ele>
        <time>2019-05-03T07:09:11.000Z</time>
      </trkpt>
      <trkpt lat="42.669212341308594" lon="-8.136634826660156">
        <ele>487.0</ele>
        <time>2019-05-03T07:09:18.000Z</time>
      </trkpt>
      <trkpt lat="42.66926956176758" lon="-8.136542320251465">
        <ele>486.0</ele>
        <time>2019-05-03T07:09:25.000Z</time>
      </trkpt>
      <trkpt lat="42.66932678222656" lon="-8.13644790649414">
        <ele>486.0</ele>
        <time>2019-05-03T07:09:31.000Z</time>
      </trkpt>
      <trkpt lat="42.66938781738281" lon="-8.136358261108398">
        <ele>487.0</ele>
        <time>2019-05-03T07:09:40.000Z</time>
      </trkpt>
      <trkpt lat="42.66944885253906" lon="-8.136270523071289">
        <ele>487.0</ele>
        <time>2019-05-03T07:09:48.000Z</time>
      </trkpt>
      <trkpt lat="42.66950988769531" lon="-8.136181831359863">
        <ele>488.0</ele>
        <time>2019-05-03T07:09:56.000Z</time>
      </trkpt>
      <trkpt lat="42.66957092285156" lon="-8.136094093322754">
        <ele>489.0</ele>
        <time>2019-05-03T07:10:04.000Z</time>
      </trkpt>
      <trkpt lat="42.669647216796875" lon="-8.136066436767578">
        <ele>489.0</ele>
        <time>2019-05-03T07:10:13.000Z</time>
      </trkpt>
      <trkpt lat="42.66972351074219" lon="-8.136062622070312">
        <ele>490.0</ele>
        <time>2019-05-03T07:10:21.000Z</time>
      </trkpt>
      <trkpt lat="42.66980743408203" lon="-8.136075973510742">
        <ele>490.0</ele>
        <time>2019-05-03T07:10:29.000Z</time>
      </trkpt>
      <trkpt lat="42.669891357421875" lon="-8.13609790802002">
        <ele>491.0</ele>
        <time>2019-05-03T07:10:37.000Z</time>
      </trkpt>
      <trkpt lat="42.66991424560547" lon="-8.13614559173584">
        <ele>491.0</ele>
        <time>2019-05-03T07:10:43.000Z</time>
      </trkpt>
      <trkpt lat="42.66990661621094" lon="-8.136212348937988">
        <ele>491.0</ele>
        <time>2019-05-03T07:10:48.000Z</time>
      </trkpt>
      <trkpt lat="42.66988754272461" lon="-8.136292457580566">
        <ele>490.0</ele>
        <time>2019-05-03T07:10:53.000Z</time>
      </trkpt>
      <trkpt lat="42.66986083984375" lon="-8.13637924194336">
        <ele>490.0</ele>
        <time>2019-05-03T07:10:58.000Z</time>
      </trkpt>
      <trkpt lat="42.66984176635742" lon="-8.136480331420898">
        <ele>490.0</ele>
        <time>2019-05-03T07:11:07.000Z</time>
      </trkpt>
      <trkpt lat="42.66981887817383" lon="-8.13659381866455">
        <ele>490.0</ele>
        <time>2019-05-03T07:11:15.000Z</time>
      </trkpt>
      <trkpt lat="42.66979217529297" lon="-8.136714935302734">
        <ele>489.0</ele>
        <time>2019-05-03T07:11:23.000Z</time>
      </trkpt>
      <trkpt lat="42.66976547241211" lon="-8.1368408203125">
        <ele>489.0</ele>
        <time>2019-05-03T07:11:31.000Z</time>
      </trkpt>
      <trkpt lat="42.66973876953125" lon="-8.136955261230469">
        <ele>489.0</ele>
        <time>2019-05-03T07:11:39.000Z</time>
      </trkpt>
      <trkpt lat="42.669708251953125" lon="-8.137070655822754">
        <ele>490.0</ele>
        <time>2019-05-03T07:11:46.000Z</time>
      </trkpt>
      <trkpt lat="42.669681549072266" lon="-8.137186050415039">
        <ele>490.0</ele>
        <time>2019-05-03T07:11:53.000Z</time>
      </trkpt>
      <trkpt lat="42.66965103149414" lon="-8.137300491333008">
        <ele>491.0</ele>
        <time>2019-05-03T07:12:00.000Z</time>
      </trkpt>
      <trkpt lat="42.669639587402344" lon="-8.137417793273926">
        <ele>492.0</ele>
        <time>2019-05-03T07:12:08.000Z</time>
      </trkpt>
      <trkpt lat="42.66963577270508" lon="-8.137537002563477">
        <ele>493.0</ele>
        <time>2019-05-03T07:12:16.000Z</time>
      </trkpt>
      <trkpt lat="42.66963577270508" lon="-8.137656211853027">
        <ele>494.0</ele>
        <time>2019-05-03T07:12:24.000Z</time>
      </trkpt>
      <trkpt lat="42.66963577270508" lon="-8.137776374816895">
        <ele>495.0</ele>
        <time>2019-05-03T07:12:31.000Z</time>
      </trkpt>
      <trkpt lat="42.66963577270508" lon="-8.137829780578613">
        <ele>495.0</ele>
        <time>2019-05-03T07:12:34.000Z</time>
      </trkpt>
      <trkpt lat="42.66963577270508" lon="-8.137856483459473">
        <ele>495.0</ele>
        <time>2019-05-03T07:12:36.000Z</time>
      </trkpt>
      <trkpt lat="42.669639587402344" lon="-8.13786506652832">
        <ele>495.0</ele>
        <time>2019-05-03T07:12:39.000Z</time>
      </trkpt>
      <trkpt lat="42.669639587402344" lon="-8.137864112854004">
        <ele>495.0</ele>
        <time>2019-05-03T07:12:41.000Z</time>
      </trkpt>
      <trkpt lat="42.66964340209961" lon="-8.137886047363281">
        <ele>495.0</ele>
        <time>2019-05-03T07:12:57.000Z</time>
      </trkpt>
      <trkpt lat="42.66964340209961" lon="-8.137907981872559">
        <ele>496.0</ele>
        <time>2019-05-03T07:13:13.000Z</time>
      </trkpt>
      <trkpt lat="42.669647216796875" lon="-8.137930870056152">
        <ele>496.0</ele>
        <time>2019-05-03T07:13:29.000Z</time>
      </trkpt>
      <trkpt lat="42.669647216796875" lon="-8.13795280456543">
        <ele>497.0</ele>
        <time>2019-05-03T07:13:44.000Z</time>
      </trkpt>
      <trkpt lat="42.669654846191406" lon="-8.138009071350098">
        <ele>497.0</ele>
        <time>2019-05-03T07:13:45.000Z</time>
      </trkpt>
      <trkpt lat="42.6696662902832" lon="-8.13835620880127">
        <ele>497.0</ele>
        <time>2019-05-03T07:13:53.000Z</time>
      </trkpt>
      <trkpt lat="42.66965103149414" lon="-8.138404846191406">
        <ele>497.0</ele>
        <time>2019-05-03T07:13:56.000Z</time>
      </trkpt>
      <trkpt lat="42.66963195800781" lon="-8.138437271118164">
        <ele>497.0</ele>
        <time>2019-05-03T07:13:59.000Z</time>
      </trkpt>
      <trkpt lat="42.66960525512695" lon="-8.138460159301758">
        <ele>497.0</ele>
        <time>2019-05-03T07:14:02.000Z</time>
      </trkpt>
      <trkpt lat="42.669578552246094" lon="-8.138477325439453">
        <ele>497.0</ele>
        <time>2019-05-03T07:14:04.000Z</time>
      </trkpt>
      <trkpt lat="42.6695442199707" lon="-8.138531684875488">
        <ele>497.0</ele>
        <time>2019-05-03T07:14:09.000Z</time>
      </trkpt>
      <trkpt lat="42.66950225830078" lon="-8.138595581054688">
        <ele>497.0</ele>
        <time>2019-05-03T07:14:14.000Z</time>
      </trkpt>
      <trkpt lat="42.669456481933594" lon="-8.138666152954102">
        <ele>497.0</ele>
        <time>2019-05-03T07:14:19.000Z</time>
      </trkpt>
      <trkpt lat="42.669410705566406" lon="-8.138740539550781">
        <ele>498.0</ele>
        <time>2019-05-03T07:14:24.000Z</time>
      </trkpt>
      <trkpt lat="42.66941452026367" lon="-8.138795852661133">
        <ele>498.0</ele>
        <time>2019-05-03T07:14:30.000Z</time>
      </trkpt>
      <trkpt lat="42.669437408447266" lon="-8.138845443725586">
        <ele>498.0</ele>
        <time>2019-05-03T07:14:35.000Z</time>
      </trkpt>
      <trkpt lat="42.669471740722656" lon="-8.13889217376709">
        <ele>498.0</ele>
        <time>2019-05-03T07:14:41.000Z</time>
      </trkpt>
      <trkpt lat="42.66951370239258" lon="-8.138937950134277">
        <ele>498.0</ele>
        <time>2019-05-03T07:14:46.000Z</time>
      </trkpt>
      <trkpt lat="42.66953659057617" lon="-8.139144897460938">
        <ele>500.0</ele>
        <time>2019-05-03T07:15:01.000Z</time>
      </trkpt>
      <trkpt lat="42.6695442199707" lon="-8.139400482177734">
        <ele>502.0</ele>
        <time>2019-05-03T07:15:16.000Z</time>
      </trkpt>
      <trkpt lat="42.66954803466797" lon="-8.139439582824707">
        <ele>503.0</ele>
        <time>2019-05-03T07:15:17.000Z</time>
      </trkpt>
      <trkpt lat="42.66954803466797" lon="-8.139446258544922">
        <ele>503.0</ele>
        <time>2019-05-03T07:15:17.000Z</time>
      </trkpt>
      <trkpt lat="42.66954803466797" lon="-8.139431953430176">
        <ele>503.0</ele>
        <time>2019-05-03T07:15:17.000Z</time>
      </trkpt>
      <trkpt lat="42.6695442199707" lon="-8.13940715789795">
        <ele>502.0</ele>
        <time>2019-05-03T07:15:17.000Z</time>
      </trkpt>
      <trkpt lat="42.6695442199707" lon="-8.139415740966797">
        <ele>503.0</ele>
        <time>2019-05-03T07:15:22.000Z</time>
      </trkpt>
      <trkpt lat="42.6695442199707" lon="-8.139429092407227">
        <ele>503.0</ele>
        <time>2019-05-03T07:15:26.000Z</time>
      </trkpt>
      <trkpt lat="42.6695442199707" lon="-8.139443397521973">
        <ele>504.0</ele>
        <time>2019-05-03T07:15:30.000Z</time>
      </trkpt>
      <trkpt lat="42.66954040527344" lon="-8.139458656311035">
        <ele>505.0</ele>
        <time>2019-05-03T07:15:34.000Z</time>
      </trkpt>
      <trkpt lat="42.66954040527344" lon="-8.139469146728516">
        <ele>505.0</ele>
        <time>2019-05-03T07:15:35.000Z</time>
      </trkpt>
      <trkpt lat="42.66954040527344" lon="-8.13947868347168">
        <ele>505.0</ele>
        <time>2019-05-03T07:15:35.000Z</time>
      </trkpt>
      <trkpt lat="42.66954040527344" lon="-8.139487266540527">
        <ele>505.0</ele>
        <time>2019-05-03T07:15:35.000Z</time>
      </trkpt>
      <trkpt lat="42.66954040527344" lon="-8.139495849609375">
        <ele>505.0</ele>
        <time>2019-05-03T07:15:35.000Z</time>
      </trkpt>
      <trkpt lat="42.66954040527344" lon="-8.139509201049805">
        <ele>505.0</ele>
        <time>2019-05-03T07:15:36.000Z</time>
      </trkpt>
      <trkpt lat="42.66954040527344" lon="-8.139525413513184">
        <ele>505.0</ele>
        <time>2019-05-03T07:15:36.000Z</time>
      </trkpt>
      <trkpt lat="42.66953659057617" lon="-8.139543533325195">
        <ele>505.0</ele>
        <time>2019-05-03T07:15:37.000Z</time>
      </trkpt>
      <trkpt lat="42.66953659057617" lon="-8.139561653137207">
        <ele>505.0</ele>
        <time>2019-05-03T07:15:37.000Z</time>
      </trkpt>
      <trkpt lat="42.66953659057617" lon="-8.139570236206055">
        <ele>505.0</ele>
        <time>2019-05-03T07:15:39.000Z</time>
      </trkpt>
      <trkpt lat="42.66953659057617" lon="-8.139575004577637">
        <ele>505.0</ele>
        <time>2019-05-03T07:15:41.000Z</time>
      </trkpt>
      <trkpt lat="42.66953659057617" lon="-8.139578819274902">
        <ele>506.0</ele>
        <time>2019-05-03T07:15:43.000Z</time>
      </trkpt>
      <trkpt lat="42.66953659057617" lon="-8.139580726623535">
        <ele>506.0</ele>
        <time>2019-05-03T07:15:45.000Z</time>
      </trkpt>
      <trkpt lat="42.66953659057617" lon="-8.139596939086914">
        <ele>506.0</ele>
        <time>2019-05-03T07:15:46.000Z</time>
      </trkpt>
      <trkpt lat="42.66951370239258" lon="-8.140067100524902">
        <ele>507.0</ele>
        <time>2019-05-03T07:16:00.000Z</time>
      </trkpt>
      <trkpt lat="42.66944122314453" lon="-8.140528678894043">
        <ele>510.0</ele>
        <time>2019-05-03T07:16:33.000Z</time>
      </trkpt>
      <trkpt lat="42.669334411621094" lon="-8.140974998474121">
        <ele>509.0</ele>
        <time>2019-05-03T07:17:05.000Z</time>
      </trkpt>
      <trkpt lat="42.66928482055664" lon="-8.141451835632324">
        <ele>510.0</ele>
        <time>2019-05-03T07:17:36.000Z</time>
      </trkpt>
      <trkpt lat="42.66926574707031" lon="-8.14183235168457">
        <ele>516.0</ele>
        <time>2019-05-03T07:18:03.000Z</time>
      </trkpt>
      <trkpt lat="42.66926574707031" lon="-8.141907691955566">
        <ele>515.0</ele>
        <time>2019-05-03T07:18:21.000Z</time>
      </trkpt>
      <trkpt lat="42.66926574707031" lon="-8.141953468322754">
        <ele>515.0</ele>
        <time>2019-05-03T07:18:22.000Z</time>
      </trkpt>
      <trkpt lat="42.66930389404297" lon="-8.142433166503906">
        <ele>518.0</ele>
        <time>2019-05-03T07:18:42.000Z</time>
      </trkpt>
      <trkpt lat="42.66938781738281" lon="-8.14289379119873">
        <ele>522.0</ele>
        <time>2019-05-03T07:19:10.000Z</time>
      </trkpt>
      <trkpt lat="42.66940689086914" lon="-8.143363952636719">
        <ele>519.0</ele>
        <time>2019-05-03T07:19:40.000Z</time>
      </trkpt>
      <trkpt lat="42.66946029663086" lon="-8.143513679504395">
        <ele>520.0</ele>
        <time>2019-05-03T07:19:52.000Z</time>
      </trkpt>
      <trkpt lat="42.66954040527344" lon="-8.143624305725098">
        <ele>522.0</ele>
        <time>2019-05-03T07:20:03.000Z</time>
      </trkpt>
      <trkpt lat="42.6695556640625" lon="-8.143655776977539">
        <ele>523.0</ele>
        <time>2019-05-03T07:20:06.000Z</time>
      </trkpt>
      <trkpt lat="42.669559478759766" lon="-8.143671989440918">
        <ele>524.0</ele>
        <time>2019-05-03T07:20:09.000Z</time>
      </trkpt>
      <trkpt lat="42.669559478759766" lon="-8.143678665161133">
        <ele>524.0</ele>
        <time>2019-05-03T07:20:12.000Z</time>
      </trkpt>
      <trkpt lat="42.669559478759766" lon="-8.143681526184082">
        <ele>525.0</ele>
        <time>2019-05-03T07:20:15.000Z</time>
      </trkpt>
      <trkpt lat="42.66956329345703" lon="-8.143692016601562">
        <ele>525.0</ele>
        <time>2019-05-03T07:20:16.000Z</time>
      </trkpt>
      <trkpt lat="42.6695671081543" lon="-8.143701553344727">
        <ele>525.0</ele>
        <time>2019-05-03T07:20:16.000Z</time>
      </trkpt>
      <trkpt lat="42.6695671081543" lon="-8.143709182739258">
        <ele>525.0</ele>
        <time>2019-05-03T07:20:16.000Z</time>
      </trkpt>
      <trkpt lat="42.66957092285156" lon="-8.143716812133789">
        <ele>525.0</ele>
        <time>2019-05-03T07:20:16.000Z</time>
      </trkpt>
      <trkpt lat="42.66960525512695" lon="-8.143784523010254">
        <ele>525.0</ele>
        <time>2019-05-03T07:20:21.000Z</time>
      </trkpt>
      <trkpt lat="42.66965103149414" lon="-8.143877029418945">
        <ele>525.0</ele>
        <time>2019-05-03T07:20:26.000Z</time>
      </trkpt>
      <trkpt lat="42.66970443725586" lon="-8.143986701965332">
        <ele>525.0</ele>
        <time>2019-05-03T07:20:31.000Z</time>
      </trkpt>
      <trkpt lat="42.669761657714844" lon="-8.144103050231934">
        <ele>525.0</ele>
        <time>2019-05-03T07:20:36.000Z</time>
      </trkpt>
      <trkpt lat="42.66979217529297" lon="-8.144205093383789">
        <ele>524.0</ele>
        <time>2019-05-03T07:20:43.000Z</time>
      </trkpt>
      <trkpt lat="42.66981506347656" lon="-8.144308090209961">
        <ele>522.0</ele>
        <time>2019-05-03T07:20:49.000Z</time>
      </trkpt>
      <trkpt lat="42.66983413696289" lon="-8.144412994384766">
        <ele>520.0</ele>
        <time>2019-05-03T07:20:56.000Z</time>
      </trkpt>
      <trkpt lat="42.66984939575195" lon="-8.144518852233887">
        <ele>518.0</ele>
        <time>2019-05-03T07:21:02.000Z</time>
      </trkpt>
      <trkpt lat="42.66987609863281" lon="-8.144585609436035">
        <ele>518.0</ele>
        <time>2019-05-03T07:21:06.000Z</time>
      </trkpt>
      <trkpt lat="42.66990280151367" lon="-8.144637107849121">
        <ele>518.0</ele>
        <time>2019-05-03T07:21:09.000Z</time>
      </trkpt>
      <trkpt lat="42.66992950439453" lon="-8.14467716217041">
        <ele>518.0</ele>
        <time>2019-05-03T07:21:13.000Z</time>
      </trkpt>
      <trkpt lat="42.669960021972656" lon="-8.144713401794434">
        <ele>518.0</ele>
        <time>2019-05-03T07:21:16.000Z</time>
      </trkpt>
      <trkpt lat="42.67008590698242" lon="-8.14488697052002">
        <ele>516.0</ele>
        <time>2019-05-03T07:21:31.000Z</time>
      </trkpt>
      <trkpt lat="42.67027282714844" lon="-8.145284652709961">
        <ele>504.0</ele>
        <time>2019-05-03T07:22:02.000Z</time>
      </trkpt>
      <trkpt lat="42.67049026489258" lon="-8.145671844482422">
        <ele>502.0</ele>
        <time>2019-05-03T07:22:33.000Z</time>
      </trkpt>
      <trkpt lat="42.67059326171875" lon="-8.146119117736816">
        <ele>503.0</ele>
        <time>2019-05-03T07:23:11.000Z</time>
      </trkpt>
      <trkpt lat="42.67070388793945" lon="-8.146296501159668">
        <ele>502.0</ele>
        <time>2019-05-03T07:23:23.000Z</time>
      </trkpt>
      <trkpt lat="42.670841217041016" lon="-8.146453857421875">
        <ele>502.0</ele>
        <time>2019-05-03T07:23:34.000Z</time>
      </trkpt>
      <trkpt lat="42.6708869934082" lon="-8.146512985229492">
        <ele>501.0</ele>
        <time>2019-05-03T07:23:40.000Z</time>
      </trkpt>
      <trkpt lat="42.67091751098633" lon="-8.146562576293945">
        <ele>501.0</ele>
        <time>2019-05-03T07:23:45.000Z</time>
      </trkpt>
      <trkpt lat="42.67094802856445" lon="-8.146604537963867">
        <ele>501.0</ele>
        <time>2019-05-03T07:23:51.000Z</time>
      </trkpt>
      <trkpt lat="42.67097091674805" lon="-8.14664363861084">
        <ele>501.0</ele>
        <time>2019-05-03T07:23:56.000Z</time>
      </trkpt>
      <trkpt lat="42.67099380493164" lon="-8.146707534790039">
        <ele>501.0</ele>
        <time>2019-05-03T07:24:05.000Z</time>
      </trkpt>
      <trkpt lat="42.67099380493164" lon="-8.146756172180176">
        <ele>501.0</ele>
        <time>2019-05-03T07:24:13.000Z</time>
      </trkpt>
      <trkpt lat="42.670997619628906" lon="-8.146773338317871">
        <ele>501.0</ele>
        <time>2019-05-03T07:24:14.000Z</time>
      </trkpt>
      <trkpt lat="42.67100143432617" lon="-8.146785736083984">
        <ele>501.0</ele>
        <time>2019-05-03T07:24:14.000Z</time>
      </trkpt>
      <trkpt lat="42.67100143432617" lon="-8.146795272827148">
        <ele>501.0</ele>
        <time>2019-05-03T07:24:14.000Z</time>
      </trkpt>
      <trkpt lat="42.67100524902344" lon="-8.14680290222168">
        <ele>501.0</ele>
        <time>2019-05-03T07:24:14.000Z</time>
      </trkpt>
      <trkpt lat="42.671016693115234" lon="-8.14688777923584">
        <ele>501.0</ele>
        <time>2019-05-03T07:24:21.000Z</time>
      </trkpt>
      <trkpt lat="42.6710319519043" lon="-8.147002220153809">
        <ele>500.0</ele>
        <time>2019-05-03T07:24:27.000Z</time>
      </trkpt>
      <trkpt lat="42.671051025390625" lon="-8.147136688232422">
        <ele>499.0</ele>
        <time>2019-05-03T07:24:33.000Z</time>
      </trkpt>
      <trkpt lat="42.67107391357422" lon="-8.147281646728516">
        <ele>499.0</ele>
        <time>2019-05-03T07:24:39.000Z</time>
      </trkpt>
      <trkpt lat="42.671051025390625" lon="-8.147421836853027">
        <ele>498.0</ele>
        <time>2019-05-03T07:24:53.000Z</time>
      </trkpt>
      <trkpt lat="42.670997619628906" lon="-8.147517204284668">
        <ele>497.0</ele>
        <time>2019-05-03T07:25:06.000Z</time>
      </trkpt>
      <trkpt lat="42.670997619628906" lon="-8.147552490234375">
        <ele>496.0</ele>
        <time>2019-05-03T07:25:10.000Z</time>
      </trkpt>
      <trkpt lat="42.67100524902344" lon="-8.147577285766602">
        <ele>496.0</ele>
        <time>2019-05-03T07:25:13.000Z</time>
      </trkpt>
      <trkpt lat="42.671016693115234" lon="-8.14759635925293">
        <ele>496.0</ele>
        <time>2019-05-03T07:25:16.000Z</time>
      </trkpt>
      <trkpt lat="42.67102813720703" lon="-8.147610664367676">
        <ele>496.0</ele>
        <time>2019-05-03T07:25:19.000Z</time>
      </trkpt>
      <trkpt lat="42.6710319519043" lon="-8.147625923156738">
        <ele>496.0</ele>
        <time>2019-05-03T07:25:20.000Z</time>
      </trkpt>
      <trkpt lat="42.67103576660156" lon="-8.147637367248535">
        <ele>496.0</ele>
        <time>2019-05-03T07:25:20.000Z</time>
      </trkpt>
      <trkpt lat="42.67103958129883" lon="-8.147645950317383">
        <ele>496.0</ele>
        <time>2019-05-03T07:25:20.000Z</time>
      </trkpt>
      <trkpt lat="42.671043395996094" lon="-8.147653579711914">
        <ele>496.0</ele>
        <time>2019-05-03T07:25:20.000Z</time>
      </trkpt>
      <trkpt lat="42.671058654785156" lon="-8.147683143615723">
        <ele>496.0</ele>
        <time>2019-05-03T07:25:22.000Z</time>
      </trkpt>
      <trkpt lat="42.671085357666016" lon="-8.147721290588379">
        <ele>495.0</ele>
        <time>2019-05-03T07:25:24.000Z</time>
      </trkpt>
      <trkpt lat="42.671112060546875" lon="-8.147764205932617">
        <ele>495.0</ele>
        <time>2019-05-03T07:25:26.000Z</time>
      </trkpt>
      <trkpt lat="42.671142578125" lon="-8.147809982299805">
        <ele>495.0</ele>
        <time>2019-05-03T07:25:27.000Z</time>
      </trkpt>
      <trkpt lat="42.67123794555664" lon="-8.14786434173584">
        <ele>493.0</ele>
        <time>2019-05-03T07:25:36.000Z</time>
      </trkpt>
      <trkpt lat="42.67135238647461" lon="-8.147908210754395">
        <ele>490.0</ele>
        <time>2019-05-03T07:25:45.000Z</time>
      </trkpt>
      <trkpt lat="42.6713981628418" lon="-8.147930145263672">
        <ele>491.0</ele>
        <time>2019-05-03T07:25:50.000Z</time>
      </trkpt>
      <trkpt lat="42.671443939208984" lon="-8.147951126098633">
        <ele>492.0</ele>
        <time>2019-05-03T07:25:54.000Z</time>
      </trkpt>
      <trkpt lat="42.67148971557617" lon="-8.147970199584961">
        <ele>493.0</ele>
        <time>2019-05-03T07:25:58.000Z</time>
      </trkpt>
      <trkpt lat="42.671531677246094" lon="-8.147990226745605">
        <ele>495.0</ele>
        <time>2019-05-03T07:26:02.000Z</time>
      </trkpt>
      <trkpt lat="42.67157745361328" lon="-8.14801025390625">
        <ele>495.0</ele>
        <time>2019-05-03T07:26:06.000Z</time>
      </trkpt>
      <trkpt lat="42.67162322998047" lon="-8.148031234741211">
        <ele>496.0</ele>
        <time>2019-05-03T07:26:10.000Z</time>
      </trkpt>
      <trkpt lat="42.67166519165039" lon="-8.148051261901855">
        <ele>496.0</ele>
        <time>2019-05-03T07:26:14.000Z</time>
      </trkpt>
      <trkpt lat="42.67171096801758" lon="-8.1480712890625">
        <ele>496.0</ele>
        <time>2019-05-03T07:26:18.000Z</time>
      </trkpt>
      <trkpt lat="42.6717529296875" lon="-8.148099899291992">
        <ele>496.0</ele>
        <time>2019-05-03T07:26:22.000Z</time>
      </trkpt>
      <trkpt lat="42.67179489135742" lon="-8.148131370544434">
        <ele>496.0</ele>
        <time>2019-05-03T07:26:26.000Z</time>
      </trkpt>
      <trkpt lat="42.671836853027344" lon="-8.148165702819824">
        <ele>496.0</ele>
        <time>2019-05-03T07:26:30.000Z</time>
      </trkpt>
      <trkpt lat="42.671875" lon="-8.148200988769531">
        <ele>496.0</ele>
        <time>2019-05-03T07:26:33.000Z</time>
      </trkpt>
      <trkpt lat="42.67192077636719" lon="-8.14830207824707">
        <ele>496.0</ele>
        <time>2019-05-03T07:26:43.000Z</time>
      </trkpt>
      <trkpt lat="42.67195129394531" lon="-8.148419380187988">
        <ele>496.0</ele>
        <time>2019-05-03T07:26:53.000Z</time>
      </trkpt>
      <trkpt lat="42.671974182128906" lon="-8.148468971252441">
        <ele>495.0</ele>
        <time>2019-05-03T07:26:59.000Z</time>
      </trkpt>
      <trkpt lat="42.672000885009766" lon="-8.148516654968262">
        <ele>494.0</ele>
        <time>2019-05-03T07:27:04.000Z</time>
      </trkpt>
      <trkpt lat="42.67203140258789" lon="-8.14856243133545">
        <ele>494.0</ele>
        <time>2019-05-03T07:27:09.000Z</time>
      </trkpt>
      <trkpt lat="42.672061920166016" lon="-8.148608207702637">
        <ele>493.0</ele>
        <time>2019-05-03T07:27:14.000Z</time>
      </trkpt>
      <trkpt lat="42.672080993652344" lon="-8.148625373840332">
        <ele>493.0</ele>
        <time>2019-05-03T07:27:17.000Z</time>
      </trkpt>
      <trkpt lat="42.67209243774414" lon="-8.148629188537598">
        <ele>492.0</ele>
        <time>2019-05-03T07:27:20.000Z</time>
      </trkpt>
      <trkpt lat="42.67210388183594" lon="-8.148624420166016">
        <ele>492.0</ele>
        <time>2019-05-03T07:27:23.000Z</time>
      </trkpt>
      <trkpt lat="42.672115325927734" lon="-8.148614883422852">
        <ele>492.0</ele>
        <time>2019-05-03T07:27:25.000Z</time>
      </trkpt>
      <trkpt lat="42.67212677001953" lon="-8.148615837097168">
        <ele>492.0</ele>
        <time>2019-05-03T07:27:26.000Z</time>
      </trkpt>
      <trkpt lat="42.67213439941406" lon="-8.148616790771484">
        <ele>492.0</ele>
        <time>2019-05-03T07:27:26.000Z</time>
      </trkpt>
      <trkpt lat="42.672142028808594" lon="-8.1486177444458">
        <ele>492.0</ele>
        <time>2019-05-03T07:27:26.000Z</time>
      </trkpt>
      <trkpt lat="42.672149658203125" lon="-8.148618698120117">
        <ele>492.0</ele>
        <time>2019-05-03T07:27:26.000Z</time>
      </trkpt>
      <trkpt lat="42.672176361083984" lon="-8.14862060546875">
        <ele>493.0</ele>
        <time>2019-05-03T07:27:28.000Z</time>
      </trkpt>
      <trkpt lat="42.67221450805664" lon="-8.148622512817383">
        <ele>493.0</ele>
        <time>2019-05-03T07:27:30.000Z</time>
      </trkpt>
      <trkpt lat="42.67226028442383" lon="-8.148624420166016">
        <ele>493.0</ele>
        <time>2019-05-03T07:27:32.000Z</time>
      </trkpt>
      <trkpt lat="42.672306060791016" lon="-8.148627281188965">
        <ele>493.0</ele>
        <time>2019-05-03T07:27:33.000Z</time>
      </trkpt>
      <trkpt lat="42.67232894897461" lon="-8.148628234863281">
        <ele>493.0</ele>
        <time>2019-05-03T07:27:36.000Z</time>
      </trkpt>
      <trkpt lat="42.67234420776367" lon="-8.148629188537598">
        <ele>494.0</ele>
        <time>2019-05-03T07:27:38.000Z</time>
      </trkpt>
      <trkpt lat="42.67235565185547" lon="-8.148630142211914">
        <ele>494.0</ele>
        <time>2019-05-03T07:27:40.000Z</time>
      </trkpt>
      <trkpt lat="42.672367095947266" lon="-8.148630142211914">
        <ele>495.0</ele>
        <time>2019-05-03T07:27:42.000Z</time>
      </trkpt>
      <trkpt lat="42.6723747253418" lon="-8.148632049560547">
        <ele>496.0</ele>
        <time>2019-05-03T07:28:12.000Z</time>
      </trkpt>
      <trkpt lat="42.67238235473633" lon="-8.148633003234863">
        <ele>497.0</ele>
        <time>2019-05-03T07:28:42.000Z</time>
      </trkpt>
      <trkpt lat="42.672386169433594" lon="-8.148634910583496">
        <ele>499.0</ele>
        <time>2019-05-03T07:29:12.000Z</time>
      </trkpt>
      <trkpt lat="42.67238998413086" lon="-8.148636817932129">
        <ele>500.0</ele>
        <time>2019-05-03T07:29:41.000Z</time>
      </trkpt>
      <trkpt lat="42.672393798828125" lon="-8.148638725280762">
        <ele>501.0</ele>
        <time>2019-05-03T07:29:42.000Z</time>
      </trkpt>
      <trkpt lat="42.67239761352539" lon="-8.148639678955078">
        <ele>501.0</ele>
        <time>2019-05-03T07:29:42.000Z</time>
      </trkpt>
      <trkpt lat="42.672401428222656" lon="-8.148640632629395">
        <ele>501.0</ele>
        <time>2019-05-03T07:29:42.000Z</time>
      </trkpt>
      <trkpt lat="42.67240524291992" lon="-8.148641586303711">
        <ele>500.0</ele>
        <time>2019-05-03T07:29:42.000Z</time>
      </trkpt>
      <trkpt lat="42.6724967956543" lon="-8.148670196533203">
        <ele>502.0</ele>
        <time>2019-05-03T07:29:45.000Z</time>
      </trkpt>
      <trkpt lat="42.67252731323242" lon="-8.148687362670898">
        <ele>504.0</ele>
        <time>2019-05-03T07:29:54.000Z</time>
      </trkpt>
      <trkpt lat="42.67255401611328" lon="-8.148699760437012">
        <ele>504.0</ele>
        <time>2019-05-03T07:29:55.000Z</time>
      </trkpt>
      <trkpt lat="42.67290115356445" lon="-8.148834228515625">
        <ele>505.0</ele>
        <time>2019-05-03T07:30:14.000Z</time>
      </trkpt>
      <trkpt lat="42.67325210571289" lon="-8.148807525634766">
        <ele>506.0</ele>
        <time>2019-05-03T07:30:44.000Z</time>
      </trkpt>
      <trkpt lat="42.673282623291016" lon="-8.148834228515625">
        <ele>506.0</ele>
        <time>2019-05-03T07:30:48.000Z</time>
      </trkpt>
      <trkpt lat="42.67329406738281" lon="-8.14887523651123">
        <ele>507.0</ele>
        <time>2019-05-03T07:30:51.000Z</time>
      </trkpt>
      <trkpt lat="42.67329025268555" lon="-8.14892578125">
        <ele>507.0</ele>
        <time>2019-05-03T07:30:55.000Z</time>
      </trkpt>
      <trkpt lat="42.67327880859375" lon="-8.148981094360352">
        <ele>507.0</ele>
        <time>2019-05-03T07:30:58.000Z</time>
      </trkpt>
      <trkpt lat="42.673282623291016" lon="-8.14900016784668">
        <ele>507.0</ele>
        <time>2019-05-03T07:31:03.000Z</time>
      </trkpt>
      <trkpt lat="42.673282623291016" lon="-8.149009704589844">
        <ele>507.0</ele>
        <time>2019-05-03T07:31:08.000Z</time>
      </trkpt>
      <trkpt lat="42.673282623291016" lon="-8.149012565612793">
        <ele>507.0</ele>
        <time>2019-05-03T07:31:13.000Z</time>
      </trkpt>
      <trkpt lat="42.673282623291016" lon="-8.149012565612793">
        <ele>507.0</ele>
        <time>2019-05-03T07:31:17.000Z</time>
      </trkpt>
      <trkpt lat="42.67328643798828" lon="-8.149019241333008">
        <ele>507.0</ele>
        <time>2019-05-03T07:31:18.000Z</time>
      </trkpt>
      <trkpt lat="42.67328643798828" lon="-8.149024963378906">
        <ele>507.0</ele>
        <time>2019-05-03T07:31:18.000Z</time>
      </trkpt>
      <trkpt lat="42.67328643798828" lon="-8.149031639099121">
        <ele>507.0</ele>
        <time>2019-05-03T07:31:18.000Z</time>
      </trkpt>
      <trkpt lat="42.67329025268555" lon="-8.14903736114502">
        <ele>507.0</ele>
        <time>2019-05-03T07:31:18.000Z</time>
      </trkpt>
      <trkpt lat="42.67329025268555" lon="-8.149051666259766">
        <ele>507.0</ele>
        <time>2019-05-03T07:31:19.000Z</time>
      </trkpt>
      <trkpt lat="42.67329406738281" lon="-8.149070739746094">
        <ele>507.0</ele>
        <time>2019-05-03T07:31:19.000Z</time>
      </trkpt>
      <trkpt lat="42.67329788208008" lon="-8.149092674255371">
        <ele>507.0</ele>
        <time>2019-05-03T07:31:20.000Z</time>
      </trkpt>
      <trkpt lat="42.673301696777344" lon="-8.149115562438965">
        <ele>507.0</ele>
        <time>2019-05-03T07:31:20.000Z</time>
      </trkpt>
      <trkpt lat="42.67330551147461" lon="-8.149123191833496">
        <ele>507.0</ele>
        <time>2019-05-03T07:31:24.000Z</time>
      </trkpt>
      <trkpt lat="42.67330551147461" lon="-8.149126052856445">
        <ele>506.0</ele>
        <time>2019-05-03T07:31:27.000Z</time>
      </trkpt>
      <trkpt lat="42.673301696777344" lon="-8.149125099182129">
        <ele>506.0</ele>
        <time>2019-05-03T07:31:30.000Z</time>
      </trkpt>
      <trkpt lat="42.673301696777344" lon="-8.149123191833496">
        <ele>506.0</ele>
        <time>2019-05-03T07:31:33.000Z</time>
      </trkpt>
      <trkpt lat="42.673301696777344" lon="-8.149125099182129">
        <ele>506.0</ele>
        <time>2019-05-03T07:31:34.000Z</time>
      </trkpt>
      <trkpt lat="42.673301696777344" lon="-8.149127960205078">
        <ele>506.0</ele>
        <time>2019-05-03T07:31:34.000Z</time>
      </trkpt>
      <trkpt lat="42.673301696777344" lon="-8.149129867553711">
        <ele>506.0</ele>
        <time>2019-05-03T07:31:34.000Z</time>
      </trkpt>
      <trkpt lat="42.673301696777344" lon="-8.149131774902344">
        <ele>506.0</ele>
        <time>2019-05-03T07:31:34.000Z</time>
      </trkpt>
      <trkpt lat="42.67320251464844" lon="-8.149598121643066">
        <ele>505.0</ele>
        <time>2019-05-03T07:31:45.000Z</time>
      </trkpt>
      <trkpt lat="42.673213958740234" lon="-8.149667739868164">
        <ele>506.0</ele>
        <time>2019-05-03T07:31:53.000Z</time>
      </trkpt>
      <trkpt lat="42.673240661621094" lon="-8.149717330932617">
        <ele>507.0</ele>
        <time>2019-05-03T07:32:00.000Z</time>
      </trkpt>
      <trkpt lat="42.67327880859375" lon="-8.149754524230957">
        <ele>508.0</ele>
        <time>2019-05-03T07:32:07.000Z</time>
      </trkpt>
      <trkpt lat="42.67332077026367" lon="-8.149784088134766">
        <ele>510.0</ele>
        <time>2019-05-03T07:32:14.000Z</time>
      </trkpt>
      <trkpt lat="42.67330551147461" lon="-8.149826049804688">
        <ele>510.0</ele>
        <time>2019-05-03T07:32:20.000Z</time>
      </trkpt>
      <trkpt lat="42.67327117919922" lon="-8.149866104125977">
        <ele>509.0</ele>
        <time>2019-05-03T07:32:25.000Z</time>
      </trkpt>
      <trkpt lat="42.67322540283203" lon="-8.149904251098633">
        <ele>509.0</ele>
        <time>2019-05-03T07:32:30.000Z</time>
      </trkpt>
      <trkpt lat="42.67317199707031" lon="-8.149942398071289">
        <ele>508.0</ele>
        <time>2019-05-03T07:32:35.000Z</time>
      </trkpt>
      <trkpt lat="42.67316436767578" lon="-8.149962425231934">
        <ele>508.0</ele>
        <time>2019-05-03T07:32:43.000Z</time>
      </trkpt>
      <trkpt lat="42.67316436767578" lon="-8.149974822998047">
        <ele>508.0</ele>
        <time>2019-05-03T07:32:51.000Z</time>
      </trkpt>
      <trkpt lat="42.67317581176758" lon="-8.149982452392578">
        <ele>508.0</ele>
        <time>2019-05-03T07:32:59.000Z</time>
      </trkpt>
      <trkpt lat="42.67319107055664" lon="-8.14998722076416">
        <ele>508.0</ele>
        <time>2019-05-03T07:33:06.000Z</time>
      </trkpt>
      <trkpt lat="42.673194885253906" lon="-8.149996757507324">
        <ele>508.0</ele>
        <time>2019-05-03T07:33:07.000Z</time>
      </trkpt>
      <trkpt lat="42.67319869995117" lon="-8.150004386901855">
        <ele>508.0</ele>
        <time>2019-05-03T07:33:07.000Z</time>
      </trkpt>
      <trkpt lat="42.67320251464844" lon="-8.150012969970703">
        <ele>508.0</ele>
        <time>2019-05-03T07:33:07.000Z</time>
      </trkpt>
      <trkpt lat="42.67320251464844" lon="-8.150020599365234">
        <ele>508.0</ele>
        <time>2019-05-03T07:33:07.000Z</time>
      </trkpt>
      <trkpt lat="42.67322540283203" lon="-8.150071144104004">
        <ele>508.0</ele>
        <time>2019-05-03T07:33:09.000Z</time>
      </trkpt>
      <trkpt lat="42.67325210571289" lon="-8.150139808654785">
        <ele>508.0</ele>
        <time>2019-05-03T07:33:11.000Z</time>
      </trkpt>
      <trkpt lat="42.67328643798828" lon="-8.15022087097168">
        <ele>509.0</ele>
        <time>2019-05-03T07:33:13.000Z</time>
      </trkpt>
      <trkpt lat="42.67332458496094" lon="-8.150307655334473">
        <ele>509.0</ele>
        <time>2019-05-03T07:33:15.000Z</time>
      </trkpt>
      <trkpt lat="42.67333221435547" lon="-8.15034294128418">
        <ele>509.0</ele>
        <time>2019-05-03T07:33:20.000Z</time>
      </trkpt>
      <trkpt lat="42.673336029052734" lon="-8.150364875793457">
        <ele>510.0</ele>
        <time>2019-05-03T07:33:24.000Z</time>
      </trkpt>
      <trkpt lat="42.673336029052734" lon="-8.150375366210938">
        <ele>510.0</ele>
        <time>2019-05-03T07:33:29.000Z</time>
      </trkpt>
      <trkpt lat="42.67333221435547" lon="-8.150381088256836">
        <ele>511.0</ele>
        <time>2019-05-03T07:33:33.000Z</time>
      </trkpt>
      <trkpt lat="42.67333221435547" lon="-8.150394439697266">
        <ele>511.0</ele>
        <time>2019-05-03T07:33:34.000Z</time>
      </trkpt>
      <trkpt lat="42.673336029052734" lon="-8.150405883789062">
        <ele>511.0</ele>
        <time>2019-05-03T07:33:34.000Z</time>
      </trkpt>
      <trkpt lat="42.673336029052734" lon="-8.150416374206543">
        <ele>511.0</ele>
        <time>2019-05-03T07:33:34.000Z</time>
      </trkpt>
      <trkpt lat="42.673336029052734" lon="-8.15042495727539">
        <ele>511.0</ele>
        <time>2019-05-03T07:33:34.000Z</time>
      </trkpt>
      <trkpt lat="42.67334747314453" lon="-8.150506973266602">
        <ele>511.0</ele>
        <time>2019-05-03T07:33:42.000Z</time>
      </trkpt>
      <trkpt lat="42.67336654663086" lon="-8.150619506835938">
        <ele>511.0</ele>
        <time>2019-05-03T07:33:49.000Z</time>
      </trkpt>
      <trkpt lat="42.67338562011719" lon="-8.150751113891602">
        <ele>511.0</ele>
        <time>2019-05-03T07:33:57.000Z</time>
      </trkpt>
      <trkpt lat="42.67340850830078" lon="-8.150893211364746">
        <ele>511.0</ele>
        <time>2019-05-03T07:34:04.000Z</time>
      </trkpt>
      <trkpt lat="42.67357635498047" lon="-8.151317596435547">
        <ele>514.0</ele>
        <time>2019-05-03T07:34:39.000Z</time>
      </trkpt>
      <trkpt lat="42.67374801635742" lon="-8.151741027832031">
        <ele>514.0</ele>
        <time>2019-05-03T07:35:09.000Z</time>
      </trkpt>
      <trkpt lat="42.67396545410156" lon="-8.15211296081543">
        <ele>517.0</ele>
        <time>2019-05-03T07:35:37.000Z</time>
      </trkpt>
      <trkpt lat="42.67406463623047" lon="-8.152209281921387">
        <ele>518.0</ele>
        <time>2019-05-03T07:35:44.000Z</time>
      </trkpt>
      <trkpt lat="42.674076080322266" lon="-8.152276992797852">
        <ele>519.0</ele>
        <time>2019-05-03T07:35:50.000Z</time>
      </trkpt>
      <trkpt lat="42.6740837097168" lon="-8.152362823486328">
        <ele>521.0</ele>
        <time>2019-05-03T07:35:56.000Z</time>
      </trkpt>
      <trkpt lat="42.67408752441406" lon="-8.152460098266602">
        <ele>523.0</ele>
        <time>2019-05-03T07:36:02.000Z</time>
      </trkpt>
      <trkpt lat="42.67409133911133" lon="-8.15256404876709">
        <ele>526.0</ele>
        <time>2019-05-03T07:36:08.000Z</time>
      </trkpt>
      <trkpt lat="42.67408752441406" lon="-8.152674674987793">
        <ele>525.0</ele>
        <time>2019-05-03T07:36:16.000Z</time>
      </trkpt>
      <trkpt lat="42.674076080322266" lon="-8.152793884277344">
        <ele>523.0</ele>
        <time>2019-05-03T07:36:23.000Z</time>
      </trkpt>
      <trkpt lat="42.67406463623047" lon="-8.15291976928711">
        <ele>519.0</ele>
        <time>2019-05-03T07:36:31.000Z</time>
      </trkpt>
      <trkpt lat="42.67405319213867" lon="-8.153048515319824">
        <ele>516.0</ele>
        <time>2019-05-03T07:36:38.000Z</time>
      </trkpt>
      <trkpt lat="42.674102783203125" lon="-8.153273582458496">
        <ele>512.0</ele>
        <time>2019-05-03T07:36:54.000Z</time>
      </trkpt>
      <trkpt lat="42.6741828918457" lon="-8.153491020202637">
        <ele>509.0</ele>
        <time>2019-05-03T07:37:10.000Z</time>
      </trkpt>
      <trkpt lat="42.67422866821289" lon="-8.153594017028809">
        <ele>508.0</ele>
        <time>2019-05-03T07:37:18.000Z</time>
      </trkpt>
      <trkpt lat="42.674278259277344" lon="-8.153693199157715">
        <ele>509.0</ele>
        <time>2019-05-03T07:37:25.000Z</time>
      </trkpt>
      <trkpt lat="42.67433547973633" lon="-8.153790473937988">
        <ele>509.0</ele>
        <time>2019-05-03T07:37:32.000Z</time>
      </trkpt>
      <trkpt lat="42.67438888549805" lon="-8.153887748718262">
        <ele>510.0</ele>
        <time>2019-05-03T07:37:39.000Z</time>
      </trkpt>
      <trkpt lat="42.67443084716797" lon="-8.154121398925781">
        <ele>510.0</ele>
        <time>2019-05-03T07:37:56.000Z</time>
      </trkpt>
      <trkpt lat="42.67444610595703" lon="-8.154373168945312">
        <ele>509.0</ele>
        <time>2019-05-03T07:38:13.000Z</time>
      </trkpt>
      <trkpt lat="42.67446517944336" lon="-8.154491424560547">
        <ele>508.0</ele>
        <time>2019-05-03T07:38:23.000Z</time>
      </trkpt>
      <trkpt lat="42.67448806762695" lon="-8.154609680175781">
        <ele>507.0</ele>
        <time>2019-05-03T07:38:32.000Z</time>
      </trkpt>
      <trkpt lat="42.67451095581055" lon="-8.1547269821167">
        <ele>506.0</ele>
        <time>2019-05-03T07:38:42.000Z</time>
      </trkpt>
      <trkpt lat="42.67453384399414" lon="-8.154844284057617">
        <ele>505.0</ele>
        <time>2019-05-03T07:38:51.000Z</time>
      </trkpt>
      <trkpt lat="42.674495697021484" lon="-8.154930114746094">
        <ele>504.0</ele>
        <time>2019-05-03T07:38:57.000Z</time>
      </trkpt>
      <trkpt lat="42.67443084716797" lon="-8.155003547668457">
        <ele>503.0</ele>
        <time>2019-05-03T07:39:03.000Z</time>
      </trkpt>
      <trkpt lat="42.674346923828125" lon="-8.155068397521973">
        <ele>502.0</ele>
        <time>2019-05-03T07:39:09.000Z</time>
      </trkpt>
      <trkpt lat="42.67425537109375" lon="-8.155128479003906">
        <ele>500.0</ele>
        <time>2019-05-03T07:39:15.000Z</time>
      </trkpt>
      <trkpt lat="42.674198150634766" lon="-8.15517807006836">
        <ele>500.0</ele>
        <time>2019-05-03T07:39:20.000Z</time>
      </trkpt>
      <trkpt lat="42.67414474487305" lon="-8.155220031738281">
        <ele>499.0</ele>
        <time>2019-05-03T07:39:24.000Z</time>
      </trkpt>
      <trkpt lat="42.674095153808594" lon="-8.155255317687988">
        <ele>498.0</ele>
        <time>2019-05-03T07:39:28.000Z</time>
      </trkpt>
      <trkpt lat="42.67404556274414" lon="-8.155288696289062">
        <ele>498.0</ele>
        <time>2019-05-03T07:39:32.000Z</time>
      </trkpt>
      <trkpt lat="42.67402267456055" lon="-8.155328750610352">
        <ele>497.0</ele>
        <time>2019-05-03T07:39:36.000Z</time>
      </trkpt>
      <trkpt lat="42.67401123046875" lon="-8.15536880493164">
        <ele>496.0</ele>
        <time>2019-05-03T07:39:40.000Z</time>
      </trkpt>
      <trkpt lat="42.67400360107422" lon="-8.15540885925293">
        <ele>496.0</ele>
        <time>2019-05-03T07:39:44.000Z</time>
      </trkpt>
      <trkpt lat="42.67400360107422" lon="-8.155448913574219">
        <ele>495.0</ele>
        <time>2019-05-03T07:39:48.000Z</time>
      </trkpt>
      <trkpt lat="42.673988342285156" lon="-8.155542373657227">
        <ele>493.0</ele>
        <time>2019-05-03T07:39:57.000Z</time>
      </trkpt>
      <trkpt lat="42.673973083496094" lon="-8.155657768249512">
        <ele>492.0</ele>
        <time>2019-05-03T07:40:06.000Z</time>
      </trkpt>
      <trkpt lat="42.67395782470703" lon="-8.155787467956543">
        <ele>490.0</ele>
        <time>2019-05-03T07:40:15.000Z</time>
      </trkpt>
      <trkpt lat="42.6739387512207" lon="-8.155924797058105">
        <ele>488.0</ele>
        <time>2019-05-03T07:40:23.000Z</time>
      </trkpt>
      <trkpt lat="42.67393493652344" lon="-8.156044960021973">
        <ele>487.0</ele>
        <time>2019-05-03T07:40:31.000Z</time>
      </trkpt>
      <trkpt lat="42.67393493652344" lon="-8.156164169311523">
        <ele>488.0</ele>
        <time>2019-05-03T07:40:38.000Z</time>
      </trkpt>
      <trkpt lat="42.6739387512207" lon="-8.15628433227539">
        <ele>488.0</ele>
        <time>2019-05-03T07:40:46.000Z</time>
      </trkpt>
      <trkpt lat="42.673946380615234" lon="-8.156404495239258">
        <ele>489.0</ele>
        <time>2019-05-03T07:40:53.000Z</time>
      </trkpt>
      <trkpt lat="42.6739501953125" lon="-8.156523704528809">
        <ele>491.0</ele>
        <time>2019-05-03T07:41:02.000Z</time>
      </trkpt>
      <trkpt lat="42.6739616394043" lon="-8.156641960144043">
        <ele>494.0</ele>
        <time>2019-05-03T07:41:10.000Z</time>
      </trkpt>
      <trkpt lat="42.67396926879883" lon="-8.156760215759277">
        <ele>497.0</ele>
        <time>2019-05-03T07:41:18.000Z</time>
      </trkpt>
      <trkpt lat="42.673980712890625" lon="-8.156878471374512">
        <ele>500.0</ele>
        <time>2019-05-03T07:41:26.000Z</time>
      </trkpt>
      <trkpt lat="42.67397689819336" lon="-8.156997680664062">
        <ele>502.0</ele>
        <time>2019-05-03T07:41:34.000Z</time>
      </trkpt>
      <trkpt lat="42.67396926879883" lon="-8.15711784362793">
        <ele>505.0</ele>
        <time>2019-05-03T07:41:42.000Z</time>
      </trkpt>
      <trkpt lat="42.67395782470703" lon="-8.157238006591797">
        <ele>507.0</ele>
        <time>2019-05-03T07:41:50.000Z</time>
      </trkpt>
      <trkpt lat="42.67394256591797" lon="-8.15735912322998">
        <ele>510.0</ele>
        <time>2019-05-03T07:41:57.000Z</time>
      </trkpt>
      <trkpt lat="42.6739501953125" lon="-8.157441139221191">
        <ele>511.0</ele>
        <time>2019-05-03T07:42:01.000Z</time>
      </trkpt>
      <trkpt lat="42.6739616394043" lon="-8.157506942749023">
        <ele>511.0</ele>
        <time>2019-05-03T07:42:05.000Z</time>
      </trkpt>
      <trkpt lat="42.67397689819336" lon="-8.157562255859375">
        <ele>511.0</ele>
        <time>2019-05-03T07:42:09.000Z</time>
      </trkpt>
      <trkpt lat="42.67399597167969" lon="-8.157612800598145">
        <ele>511.0</ele>
        <time>2019-05-03T07:42:12.000Z</time>
      </trkpt>
      <trkpt lat="42.67397689819336" lon="-8.157731056213379">
        <ele>509.0</ele>
        <time>2019-05-03T07:42:18.000Z</time>
      </trkpt>
      <trkpt lat="42.67393493652344" lon="-8.157844543457031">
        <ele>506.0</ele>
        <time>2019-05-03T07:42:24.000Z</time>
      </trkpt>
      <trkpt lat="42.67392349243164" lon="-8.157944679260254">
        <ele>505.0</ele>
        <time>2019-05-03T07:42:31.000Z</time>
      </trkpt>
      <trkpt lat="42.67390823364258" lon="-8.158061027526855">
        <ele>503.0</ele>
        <time>2019-05-03T07:42:37.000Z</time>
      </trkpt>
      <trkpt lat="42.67389678955078" lon="-8.15818977355957">
        <ele>501.0</ele>
        <time>2019-05-03T07:42:43.000Z</time>
      </trkpt>
      <trkpt lat="42.673885345458984" lon="-8.158324241638184">
        <ele>500.0</ele>
        <time>2019-05-03T07:42:49.000Z</time>
      </trkpt>
      <trkpt lat="42.67387008666992" lon="-8.158445358276367">
        <ele>497.0</ele>
        <time>2019-05-03T07:42:57.000Z</time>
      </trkpt>
      <trkpt lat="42.67385482788086" lon="-8.15856647491455">
        <ele>493.0</ele>
        <time>2019-05-03T07:43:04.000Z</time>
      </trkpt>
      <trkpt lat="42.6738395690918" lon="-8.158689498901367">
        <ele>490.0</ele>
        <time>2019-05-03T07:43:12.000Z</time>
      </trkpt>
      <trkpt lat="42.67382049560547" lon="-8.158811569213867">
        <ele>486.0</ele>
        <time>2019-05-03T07:43:19.000Z</time>
      </trkpt>
      <trkpt lat="42.673824310302734" lon="-8.15893268585205">
        <ele>484.0</ele>
        <time>2019-05-03T07:43:27.000Z</time>
      </trkpt>
      <trkpt lat="42.673831939697266" lon="-8.159053802490234">
        <ele>484.0</ele>
        <time>2019-05-03T07:43:35.000Z</time>
      </trkpt>
      <trkpt lat="42.67384719848633" lon="-8.159173965454102">
        <ele>483.0</ele>
        <time>2019-05-03T07:43:43.000Z</time>
      </trkpt>
      <trkpt lat="42.673866271972656" lon="-8.159294128417969">
        <ele>483.0</ele>
        <time>2019-05-03T07:43:51.000Z</time>
      </trkpt>
      <trkpt lat="42.673866271972656" lon="-8.159368515014648">
        <ele>483.0</ele>
        <time>2019-05-03T07:43:56.000Z</time>
      </trkpt>
      <trkpt lat="42.67386245727539" lon="-8.159424781799316">
        <ele>484.0</ele>
        <time>2019-05-03T07:44:00.000Z</time>
      </trkpt>
      <trkpt lat="42.673858642578125" lon="-8.159468650817871">
        <ele>485.0</ele>
        <time>2019-05-03T07:44:04.000Z</time>
      </trkpt>
      <trkpt lat="42.673851013183594" lon="-8.159504890441895">
        <ele>486.0</ele>
        <time>2019-05-03T07:44:08.000Z</time>
      </trkpt>
      <trkpt lat="42.67387390136719" lon="-8.159563064575195">
        <ele>486.0</ele>
        <time>2019-05-03T07:44:12.000Z</time>
      </trkpt>
      <trkpt lat="42.67390441894531" lon="-8.159623146057129">
        <ele>486.0</ele>
        <time>2019-05-03T07:44:16.000Z</time>
      </trkpt>
      <trkpt lat="42.67394256591797" lon="-8.159685134887695">
        <ele>486.0</ele>
        <time>2019-05-03T07:44:20.000Z</time>
      </trkpt>
      <trkpt lat="42.67398452758789" lon="-8.159747123718262">
        <ele>486.0</ele>
        <time>2019-05-03T07:44:23.000Z</time>
      </trkpt>
      <trkpt lat="42.67401885986328" lon="-8.159828186035156">
        <ele>485.0</ele>
        <time>2019-05-03T07:44:30.000Z</time>
      </trkpt>
      <trkpt lat="42.67405319213867" lon="-8.159917831420898">
        <ele>484.0</ele>
        <time>2019-05-03T07:44:36.000Z</time>
      </trkpt>
      <trkpt lat="42.67409133911133" lon="-8.160013198852539">
        <ele>483.0</ele>
        <time>2019-05-03T07:44:43.000Z</time>
      </trkpt>
      <trkpt lat="42.674129486083984" lon="-8.160111427307129">
        <ele>481.0</ele>
        <time>2019-05-03T07:44:49.000Z</time>
      </trkpt>
      <trkpt lat="42.674156188964844" lon="-8.160177230834961">
        <ele>480.0</ele>
        <time>2019-05-03T07:44:54.000Z</time>
      </trkpt>
      <trkpt lat="42.6741828918457" lon="-8.160232543945312">
        <ele>479.0</ele>
        <time>2019-05-03T07:44:58.000Z</time>
      </trkpt>
      <trkpt lat="42.6742057800293" lon="-8.160280227661133">
        <ele>479.0</ele>
        <time>2019-05-03T07:45:02.000Z</time>
      </trkpt>
      <trkpt lat="42.67422866821289" lon="-8.160325050354004">
        <ele>478.0</ele>
        <time>2019-05-03T07:45:06.000Z</time>
      </trkpt>
      <trkpt lat="42.67425537109375" lon="-8.160374641418457">
        <ele>478.0</ele>
        <time>2019-05-03T07:45:11.000Z</time>
      </trkpt>
      <trkpt lat="42.674285888671875" lon="-8.160423278808594">
        <ele>478.0</ele>
        <time>2019-05-03T07:45:15.000Z</time>
      </trkpt>
      <trkpt lat="42.674320220947266" lon="-8.160470962524414">
        <ele>479.0</ele>
        <time>2019-05-03T07:45:20.000Z</time>
      </trkpt>
      <trkpt lat="42.67435073852539" lon="-8.160517692565918">
        <ele>480.0</ele>
        <time>2019-05-03T07:45:24.000Z</time>
      </trkpt>
      <trkpt lat="42.67436981201172" lon="-8.160536766052246">
        <ele>480.0</ele>
        <time>2019-05-03T07:45:30.000Z</time>
      </trkpt>
      <trkpt lat="42.67436981201172" lon="-8.16051959991455">
        <ele>480.0</ele>
        <time>2019-05-03T07:45:35.000Z</time>
      </trkpt>
      <trkpt lat="42.67437744140625" lon="-8.160529136657715">
        <ele>480.0</ele>
        <time>2019-05-03T07:45:46.000Z</time>
      </trkpt>
      <trkpt lat="42.67438888549805" lon="-8.160541534423828">
        <ele>479.0</ele>
        <time>2019-05-03T07:45:56.000Z</time>
      </trkpt>
      <trkpt lat="42.67439651489258" lon="-8.16055679321289">
        <ele>479.0</ele>
        <time>2019-05-03T07:46:07.000Z</time>
      </trkpt>
      <trkpt lat="42.674407958984375" lon="-8.160573959350586">
        <ele>479.0</ele>
        <time>2019-05-03T07:46:17.000Z</time>
      </trkpt>
      <trkpt lat="42.674415588378906" lon="-8.16058349609375">
        <ele>479.0</ele>
        <time>2019-05-03T07:46:18.000Z</time>
      </trkpt>
      <trkpt lat="42.67441940307617" lon="-8.160591125488281">
        <ele>479.0</ele>
        <time>2019-05-03T07:46:18.000Z</time>
      </trkpt>
      <trkpt lat="42.67442321777344" lon="-8.160598754882812">
        <ele>479.0</ele>
        <time>2019-05-03T07:46:18.000Z</time>
      </trkpt>
      <trkpt lat="42.6744270324707" lon="-8.160604476928711">
        <ele>479.0</ele>
        <time>2019-05-03T07:46:18.000Z</time>
      </trkpt>
      <trkpt lat="42.6744499206543" lon="-8.160639762878418">
        <ele>479.0</ele>
        <time>2019-05-03T07:46:21.000Z</time>
      </trkpt>
      <trkpt lat="42.674476623535156" lon="-8.160686492919922">
        <ele>479.0</ele>
        <time>2019-05-03T07:46:23.000Z</time>
      </trkpt>
      <trkpt lat="42.67451095581055" lon="-8.160740852355957">
        <ele>478.0</ele>
        <time>2019-05-03T07:46:25.000Z</time>
      </trkpt>
      <trkpt lat="42.67454528808594" lon="-8.160799026489258">
        <ele>478.0</ele>
        <time>2019-05-03T07:46:27.000Z</time>
      </trkpt>
      <trkpt lat="42.67457580566406" lon="-8.160845756530762">
        <ele>478.0</ele>
        <time>2019-05-03T07:46:32.000Z</time>
      </trkpt>
      <trkpt lat="42.67461013793945" lon="-8.160892486572266">
        <ele>477.0</ele>
        <time>2019-05-03T07:46:37.000Z</time>
      </trkpt>
      <trkpt lat="42.67464065551758" lon="-8.160937309265137">
        <ele>477.0</ele>
        <time>2019-05-03T07:46:42.000Z</time>
      </trkpt>
      <trkpt lat="42.6746711730957" lon="-8.160983085632324">
        <ele>476.0</ele>
        <time>2019-05-03T07:46:47.000Z</time>
      </trkpt>
      <trkpt lat="42.67470932006836" lon="-8.161020278930664">
        <ele>476.0</ele>
        <time>2019-05-03T07:46:53.000Z</time>
      </trkpt>
      <trkpt lat="42.67475128173828" lon="-8.161054611206055">
        <ele>475.0</ele>
        <time>2019-05-03T07:46:58.000Z</time>
      </trkpt>
      <trkpt lat="42.6747932434082" lon="-8.161086082458496">
        <ele>475.0</ele>
        <time>2019-05-03T07:47:03.000Z</time>
      </trkpt>
      <trkpt lat="42.674835205078125" lon="-8.161115646362305">
        <ele>475.0</ele>
        <time>2019-05-03T07:47:08.000Z</time>
      </trkpt>
      <trkpt lat="42.67487716674805" lon="-8.161138534545898">
        <ele>474.0</ele>
        <time>2019-05-03T07:47:14.000Z</time>
      </trkpt>
      <trkpt lat="42.674922943115234" lon="-8.161157608032227">
        <ele>474.0</ele>
        <time>2019-05-03T07:47:19.000Z</time>
      </trkpt>
      <trkpt lat="42.674964904785156" lon="-8.161172866821289">
        <ele>473.0</ele>
        <time>2019-05-03T07:47:24.000Z</time>
      </trkpt>
      <trkpt lat="42.675010681152344" lon="-8.161187171936035">
        <ele>473.0</ele>
        <time>2019-05-03T07:47:29.000Z</time>
      </trkpt>
      <trkpt lat="42.675113677978516" lon="-8.161221504211426">
        <ele>471.0</ele>
        <time>2019-05-03T07:47:46.000Z</time>
      </trkpt>
      <trkpt lat="42.67515563964844" lon="-8.161235809326172">
        <ele>469.0</ele>
        <time>2019-05-03T07:48:22.000Z</time>
      </trkpt>
      <trkpt lat="42.67518615722656" lon="-8.16124439239502">
        <ele>469.0</ele>
        <time>2019-05-03T07:48:23.000Z</time>
      </trkpt>
      <trkpt lat="42.6755256652832" lon="-8.16135311126709">
        <ele>467.0</ele>
        <time>2019-05-03T07:48:42.000Z</time>
      </trkpt>
      <trkpt lat="42.675872802734375" lon="-8.161470413208008">
        <ele>467.0</ele>
        <time>2019-05-03T07:49:12.000Z</time>
      </trkpt>
      <trkpt lat="42.676231384277344" lon="-8.161561965942383">
        <ele>467.0</ele>
        <time>2019-05-03T07:49:39.000Z</time>
      </trkpt>
      <trkpt lat="42.67657470703125" lon="-8.161724090576172">
        <ele>465.0</ele>
        <time>2019-05-03T07:50:09.000Z</time>
      </trkpt>
      <trkpt lat="42.676910400390625" lon="-8.161863327026367">
        <ele>465.0</ele>
        <time>2019-05-03T07:50:45.000Z</time>
      </trkpt>
      <trkpt lat="42.6772575378418" lon="-8.161953926086426">
        <ele>468.0</ele>
        <time>2019-05-03T07:51:28.000Z</time>
      </trkpt>
      <trkpt lat="42.677371978759766" lon="-8.161959648132324">
        <ele>470.0</ele>
        <time>2019-05-03T07:51:44.000Z</time>
      </trkpt>
      <trkpt lat="42.67738723754883" lon="-8.161988258361816">
        <ele>471.0</ele>
        <time>2019-05-03T07:51:48.000Z</time>
      </trkpt>
      <trkpt lat="42.67739486694336" lon="-8.162029266357422">
        <ele>471.0</ele>
        <time>2019-05-03T07:51:51.000Z</time>
      </trkpt>
      <trkpt lat="42.677398681640625" lon="-8.162076950073242">
        <ele>471.0</ele>
        <time>2019-05-03T07:51:54.000Z</time>
      </trkpt>
      <trkpt lat="42.677406311035156" lon="-8.162129402160645">
        <ele>471.0</ele>
        <time>2019-05-03T07:51:57.000Z</time>
      </trkpt>
      <trkpt lat="42.677406311035156" lon="-8.162151336669922">
        <ele>471.0</ele>
        <time>2019-05-03T07:52:02.000Z</time>
      </trkpt>
      <trkpt lat="42.677406311035156" lon="-8.162164688110352">
        <ele>471.0</ele>
        <time>2019-05-03T07:52:07.000Z</time>
      </trkpt>
      <trkpt lat="42.677406311035156" lon="-8.1621732711792">
        <ele>471.0</ele>
        <time>2019-05-03T07:52:12.000Z</time>
      </trkpt>
      <trkpt lat="42.677406311035156" lon="-8.162178039550781">
        <ele>471.0</ele>
        <time>2019-05-03T07:52:17.000Z</time>
      </trkpt>
      <trkpt lat="42.677406311035156" lon="-8.162189483642578">
        <ele>471.0</ele>
        <time>2019-05-03T07:52:18.000Z</time>
      </trkpt>
      <trkpt lat="42.677406311035156" lon="-8.162199020385742">
        <ele>471.0</ele>
        <time>2019-05-03T07:52:18.000Z</time>
      </trkpt>
      <trkpt lat="42.677406311035156" lon="-8.162208557128906">
        <ele>471.0</ele>
        <time>2019-05-03T07:52:18.000Z</time>
      </trkpt>
      <trkpt lat="42.677406311035156" lon="-8.162217140197754">
        <ele>471.0</ele>
        <time>2019-05-03T07:52:18.000Z</time>
      </trkpt>
      <trkpt lat="42.67741394042969" lon="-8.162301063537598">
        <ele>471.0</ele>
        <time>2019-05-03T07:52:22.000Z</time>
      </trkpt>
      <trkpt lat="42.67742156982422" lon="-8.162416458129883">
        <ele>471.0</ele>
        <time>2019-05-03T07:52:26.000Z</time>
      </trkpt>
      <trkpt lat="42.677433013916016" lon="-8.162552833557129">
        <ele>471.0</ele>
        <time>2019-05-03T07:52:30.000Z</time>
      </trkpt>
      <trkpt lat="42.67744445800781" lon="-8.162699699401855">
        <ele>471.0</ele>
        <time>2019-05-03T07:52:33.000Z</time>
      </trkpt>
      <trkpt lat="42.67744827270508" lon="-8.162784576416016">
        <ele>472.0</ele>
        <time>2019-05-03T07:52:40.000Z</time>
      </trkpt>
      <trkpt lat="42.67745590209961" lon="-8.162856101989746">
        <ele>473.0</ele>
        <time>2019-05-03T07:52:47.000Z</time>
      </trkpt>
      <trkpt lat="42.677459716796875" lon="-8.162917137145996">
        <ele>474.0</ele>
        <time>2019-05-03T07:52:54.000Z</time>
      </trkpt>
      <trkpt lat="42.67746353149414" lon="-8.162972450256348">
        <ele>476.0</ele>
        <time>2019-05-03T07:53:00.000Z</time>
      </trkpt>
      <trkpt lat="42.67746353149414" lon="-8.163002014160156">
        <ele>476.0</ele>
        <time>2019-05-03T07:53:08.000Z</time>
      </trkpt>
      <trkpt lat="42.677467346191406" lon="-8.163013458251953">
        <ele>477.0</ele>
        <time>2019-05-03T07:53:16.000Z</time>
      </trkpt>
      <trkpt lat="42.677467346191406" lon="-8.16301441192627">
        <ele>477.0</ele>
        <time>2019-05-03T07:53:24.000Z</time>
      </trkpt>
      <trkpt lat="42.67746353149414" lon="-8.163010597229004">
        <ele>477.0</ele>
        <time>2019-05-03T07:53:32.000Z</time>
      </trkpt>
      <trkpt lat="42.677467346191406" lon="-8.163039207458496">
        <ele>477.0</ele>
        <time>2019-05-03T07:53:33.000Z</time>
      </trkpt>
      <trkpt lat="42.67743682861328" lon="-8.16330623626709">
        <ele>476.0</ele>
        <time>2019-05-03T07:53:41.000Z</time>
      </trkpt>
      <trkpt lat="42.677406311035156" lon="-8.163350105285645">
        <ele>475.0</ele>
        <time>2019-05-03T07:53:45.000Z</time>
      </trkpt>
      <trkpt lat="42.6773681640625" lon="-8.163385391235352">
        <ele>474.0</ele>
        <time>2019-05-03T07:53:48.000Z</time>
      </trkpt>
      <trkpt lat="42.67732620239258" lon="-8.163414001464844">
        <ele>474.0</ele>
        <time>2019-05-03T07:53:51.000Z</time>
      </trkpt>
      <trkpt lat="42.677276611328125" lon="-8.163439750671387">
        <ele>473.0</ele>
        <time>2019-05-03T07:53:54.000Z</time>
      </trkpt>
      <trkpt lat="42.67723083496094" lon="-8.163445472717285">
        <ele>473.0</ele>
        <time>2019-05-03T07:53:58.000Z</time>
      </trkpt>
      <trkpt lat="42.67717742919922" lon="-8.16343879699707">
        <ele>472.0</ele>
        <time>2019-05-03T07:54:02.000Z</time>
      </trkpt>
      <trkpt lat="42.6771240234375" lon="-8.163423538208008">
        <ele>471.0</ele>
        <time>2019-05-03T07:54:06.000Z</time>
      </trkpt>
      <trkpt lat="42.67707061767578" lon="-8.163405418395996">
        <ele>470.0</ele>
        <time>2019-05-03T07:54:10.000Z</time>
      </trkpt>
      <trkpt lat="42.67699432373047" lon="-8.163396835327148">
        <ele>470.0</ele>
        <time>2019-05-03T07:54:18.000Z</time>
      </trkpt>
      <trkpt lat="42.67690658569336" lon="-8.163389205932617">
        <ele>469.0</ele>
        <time>2019-05-03T07:54:25.000Z</time>
      </trkpt>
      <trkpt lat="42.676815032958984" lon="-8.16338062286377">
        <ele>468.0</ele>
        <time>2019-05-03T07:54:32.000Z</time>
      </trkpt>
      <trkpt lat="42.67671585083008" lon="-8.163372993469238">
        <ele>467.0</ele>
        <time>2019-05-03T07:54:39.000Z</time>
      </trkpt>
      <trkpt lat="42.676631927490234" lon="-8.16337776184082">
        <ele>467.0</ele>
        <time>2019-05-03T07:54:49.000Z</time>
      </trkpt>
      <trkpt lat="42.676551818847656" lon="-8.163387298583984">
        <ele>467.0</ele>
        <time>2019-05-03T07:54:58.000Z</time>
      </trkpt>
      <trkpt lat="42.67646789550781" lon="-8.163400650024414">
        <ele>468.0</ele>
        <time>2019-05-03T07:55:08.000Z</time>
      </trkpt>
      <trkpt lat="42.676387786865234" lon="-8.163416862487793">
        <ele>469.0</ele>
        <time>2019-05-03T07:55:17.000Z</time>
      </trkpt>
      <trkpt lat="42.67634582519531" lon="-8.163423538208008">
        <ele>469.0</ele>
        <time>2019-05-03T07:55:25.000Z</time>
      </trkpt>
      <trkpt lat="42.67631912231445" lon="-8.163430213928223">
        <ele>469.0</ele>
        <time>2019-05-03T07:55:33.000Z</time>
      </trkpt>
      <trkpt lat="42.67630386352539" lon="-8.163434982299805">
        <ele>470.0</ele>
        <time>2019-05-03T07:55:41.000Z</time>
      </trkpt>
      <trkpt lat="42.67629623413086" lon="-8.16343879699707">
        <ele>470.0</ele>
        <time>2019-05-03T07:55:49.000Z</time>
      </trkpt>
      <trkpt lat="42.67628479003906" lon="-8.16344165802002">
        <ele>470.0</ele>
        <time>2019-05-03T07:55:50.000Z</time>
      </trkpt>
      <trkpt lat="42.67627716064453" lon="-8.163443565368652">
        <ele>470.0</ele>
        <time>2019-05-03T07:55:50.000Z</time>
      </trkpt>
      <trkpt lat="42.67626953125" lon="-8.163445472717285">
        <ele>470.0</ele>
        <time>2019-05-03T07:55:50.000Z</time>
      </trkpt>
      <trkpt lat="42.676265716552734" lon="-8.163446426391602">
        <ele>470.0</ele>
        <time>2019-05-03T07:55:50.000Z</time>
      </trkpt>
      <trkpt lat="42.67626190185547" lon="-8.163446426391602">
        <ele>470.0</ele>
        <time>2019-05-03T07:55:51.000Z</time>
      </trkpt>
      <trkpt lat="42.67626190185547" lon="-8.163447380065918">
        <ele>470.0</ele>
        <time>2019-05-03T07:55:51.000Z</time>
      </trkpt>
      <trkpt lat="42.6762580871582" lon="-8.163447380065918">
        <ele>470.0</ele>
        <time>2019-05-03T07:55:51.000Z</time>
      </trkpt>
      <trkpt lat="42.6762580871582" lon="-8.163446426391602">
        <ele>470.0</ele>
        <time>2019-05-03T07:55:51.000Z</time>
      </trkpt>
      <trkpt lat="42.67626190185547" lon="-8.163446426391602">
        <ele>469.0</ele>
        <time>2019-05-03T07:56:32.000Z</time>
      </trkpt>
      <trkpt lat="42.676265716552734" lon="-8.163445472717285">
        <ele>469.0</ele>
        <time>2019-05-03T07:57:12.000Z</time>
      </trkpt>
      <trkpt lat="42.676273345947266" lon="-8.163444519042969">
        <ele>468.0</ele>
        <time>2019-05-03T07:57:52.000Z</time>
      </trkpt>
      <trkpt lat="42.6762809753418" lon="-8.163442611694336">
        <ele>467.0</ele>
        <time>2019-05-03T07:58:32.000Z</time>
      </trkpt>
      <trkpt lat="42.67628860473633" lon="-8.16344165802002">
        <ele>467.0</ele>
        <time>2019-05-03T07:58:33.000Z</time>
      </trkpt>
      <trkpt lat="42.676292419433594" lon="-8.163440704345703">
        <ele>467.0</ele>
        <time>2019-05-03T07:58:33.000Z</time>
      </trkpt>
      <trkpt lat="42.67629623413086" lon="-8.163440704345703">
        <ele>467.0</ele>
        <time>2019-05-03T07:58:33.000Z</time>
      </trkpt>
      <trkpt lat="42.67630386352539" lon="-8.163439750671387">
        <ele>467.0</ele>
        <time>2019-05-03T07:58:33.000Z</time>
      </trkpt>
      <trkpt lat="42.67631149291992" lon="-8.163437843322754">
        <ele>467.0</ele>
        <time>2019-05-03T07:58:34.000Z</time>
      </trkpt>
      <trkpt lat="42.676326751708984" lon="-8.163435935974121">
        <ele>467.0</ele>
        <time>2019-05-03T07:58:35.000Z</time>
      </trkpt>
      <trkpt lat="42.67633819580078" lon="-8.163434028625488">
        <ele>467.0</ele>
        <time>2019-05-03T07:58:36.000Z</time>
      </trkpt>
      <trkpt lat="42.676353454589844" lon="-8.163431167602539">
        <ele>467.0</ele>
        <time>2019-05-03T07:58:36.000Z</time>
      </trkpt>
      <trkpt lat="42.676361083984375" lon="-8.163434028625488">
        <ele>465.0</ele>
        <time>2019-05-03T07:58:59.000Z</time>
      </trkpt>
      <trkpt lat="42.676361083984375" lon="-8.16343879699707">
        <ele>463.0</ele>
        <time>2019-05-03T07:59:21.000Z</time>
      </trkpt>
      <trkpt lat="42.67636489868164" lon="-8.163445472717285">
        <ele>461.0</ele>
        <time>2019-05-03T07:59:43.000Z</time>
      </trkpt>
      <trkpt lat="42.67636489868164" lon="-8.1634521484375">
        <ele>459.0</ele>
        <time>2019-05-03T08:00:05.000Z</time>
      </trkpt>
      <trkpt lat="42.67636489868164" lon="-8.163456916809082">
        <ele>458.0</ele>
        <time>2019-05-03T08:00:06.000Z</time>
      </trkpt>
      <trkpt lat="42.676368713378906" lon="-8.163461685180664">
        <ele>458.0</ele>
        <time>2019-05-03T08:00:06.000Z</time>
      </trkpt>
      <trkpt lat="42.676368713378906" lon="-8.16346549987793">
        <ele>458.0</ele>
        <time>2019-05-03T08:00:06.000Z</time>
      </trkpt>
      <trkpt lat="42.67637252807617" lon="-8.163470268249512">
        <ele>459.0</ele>
        <time>2019-05-03T08:00:06.000Z</time>
      </trkpt>
      <trkpt lat="42.67641067504883" lon="-8.163482666015625">
        <ele>459.0</ele>
        <time>2019-05-03T08:00:09.000Z</time>
      </trkpt>
      <trkpt lat="42.67646408081055" lon="-8.16349983215332">
        <ele>458.0</ele>
        <time>2019-05-03T08:00:11.000Z</time>
      </trkpt>
      <trkpt lat="42.6765251159668" lon="-8.163517951965332">
        <ele>458.0</ele>
        <time>2019-05-03T08:00:14.000Z</time>
      </trkpt>
      <trkpt lat="42.67659378051758" lon="-8.163538932800293">
        <ele>458.0</ele>
        <time>2019-05-03T08:00:16.000Z</time>
      </trkpt>
      <trkpt lat="42.676605224609375" lon="-8.163521766662598">
        <ele>461.0</ele>
        <time>2019-05-03T08:00:36.000Z</time>
      </trkpt>
      <trkpt lat="42.67659378051758" lon="-8.163491249084473">
        <ele>464.0</ele>
        <time>2019-05-03T08:00:56.000Z</time>
      </trkpt>
      <trkpt lat="42.67656707763672" lon="-8.163451194763184">
        <ele>469.0</ele>
        <time>2019-05-03T08:01:16.000Z</time>
      </trkpt>
      <trkpt lat="42.676536560058594" lon="-8.163405418395996">
        <ele>474.0</ele>
        <time>2019-05-03T08:01:36.000Z</time>
      </trkpt>
      <trkpt lat="42.67652893066406" lon="-8.163386344909668">
        <ele>475.0</ele>
        <time>2019-05-03T08:01:37.000Z</time>
      </trkpt>
      <trkpt lat="42.67652130126953" lon="-8.163372993469238">
        <ele>475.0</ele>
        <time>2019-05-03T08:01:37.000Z</time>
      </trkpt>
      <trkpt lat="42.676517486572266" lon="-8.163363456726074">
        <ele>475.0</ele>
        <time>2019-05-03T08:01:37.000Z</time>
      </trkpt>
      <trkpt lat="42.676513671875" lon="-8.16335678100586">
        <ele>474.0</ele>
        <time>2019-05-03T08:01:37.000Z</time>
      </trkpt>
      <trkpt lat="42.6765022277832" lon="-8.163338661193848">
        <ele>474.0</ele>
        <time>2019-05-03T08:01:39.000Z</time>
      </trkpt>
      <trkpt lat="42.67648696899414" lon="-8.163318634033203">
        <ele>474.0</ele>
        <time>2019-05-03T08:01:41.000Z</time>
      </trkpt>
      <trkpt lat="42.67646789550781" lon="-8.163296699523926">
        <ele>474.0</ele>
        <time>2019-05-03T08:01:43.000Z</time>
      </trkpt>
      <trkpt lat="42.67645263671875" lon="-8.163274765014648">
        <ele>474.0</ele>
        <time>2019-05-03T08:01:44.000Z</time>
      </trkpt>
      <trkpt lat="42.67645263671875" lon="-8.163272857666016">
        <ele>474.0</ele>
        <time>2019-05-03T08:01:48.000Z</time>
      </trkpt>
      <trkpt lat="42.67646026611328" lon="-8.163278579711914">
        <ele>474.0</ele>
        <time>2019-05-03T08:01:51.000Z</time>
      </trkpt>
      <trkpt lat="42.67647171020508" lon="-8.163289070129395">
        <ele>474.0</ele>
        <time>2019-05-03T08:01:54.000Z</time>
      </trkpt>
      <trkpt lat="42.67648696899414" lon="-8.16330337524414">
        <ele>473.0</ele>
        <time>2019-05-03T08:01:57.000Z</time>
      </trkpt>
      <trkpt lat="42.676490783691406" lon="-8.163309097290039">
        <ele>473.0</ele>
        <time>2019-05-03T08:01:58.000Z</time>
      </trkpt>
      <trkpt lat="42.67649841308594" lon="-8.163313865661621">
        <ele>473.0</ele>
        <time>2019-05-03T08:01:58.000Z</time>
      </trkpt>
      <trkpt lat="42.6765022277832" lon="-8.163317680358887">
        <ele>473.0</ele>
        <time>2019-05-03T08:01:58.000Z</time>
      </trkpt>
      <trkpt lat="42.676509857177734" lon="-8.163322448730469">
        <ele>473.0</ele>
        <time>2019-05-03T08:01:58.000Z</time>
      </trkpt>
      <trkpt lat="42.676513671875" lon="-8.16332721710205">
        <ele>473.0</ele>
        <time>2019-05-03T08:01:59.000Z</time>
      </trkpt>
      <trkpt lat="42.67652130126953" lon="-8.16333293914795">
        <ele>473.0</ele>
        <time>2019-05-03T08:01:59.000Z</time>
      </trkpt>
      <trkpt lat="42.67652893066406" lon="-8.163339614868164">
        <ele>473.0</ele>
        <time>2019-05-03T08:02:00.000Z</time>
      </trkpt>
      <trkpt lat="42.676536560058594" lon="-8.163345336914062">
        <ele>473.0</ele>
        <time>2019-05-03T08:02:00.000Z</time>
      </trkpt>
      <trkpt lat="42.676536560058594" lon="-8.163351058959961">
        <ele>474.0</ele>
        <time>2019-05-03T08:02:10.000Z</time>
      </trkpt>
      <trkpt lat="42.67653274536133" lon="-8.16335678100586">
        <ele>474.0</ele>
        <time>2019-05-03T08:02:19.000Z</time>
      </trkpt>
      <trkpt lat="42.67652893066406" lon="-8.163362503051758">
        <ele>475.0</ele>
        <time>2019-05-03T08:02:28.000Z</time>
      </trkpt>
      <trkpt lat="42.67652130126953" lon="-8.16336727142334">
        <ele>476.0</ele>
        <time>2019-05-03T08:02:37.000Z</time>
      </trkpt>
      <trkpt lat="42.676517486572266" lon="-8.163372039794922">
        <ele>477.0</ele>
        <time>2019-05-03T08:02:38.000Z</time>
      </trkpt>
      <trkpt lat="42.676517486572266" lon="-8.163376808166504">
        <ele>477.0</ele>
        <time>2019-05-03T08:02:38.000Z</time>
      </trkpt>
      <trkpt lat="42.676513671875" lon="-8.163381576538086">
        <ele>476.0</ele>
        <time>2019-05-03T08:02:38.000Z</time>
      </trkpt>
      <trkpt lat="42.676509857177734" lon="-8.163385391235352">
        <ele>476.0</ele>
        <time>2019-05-03T08:02:38.000Z</time>
      </trkpt>
      <trkpt lat="42.676490783691406" lon="-8.163407325744629">
        <ele>477.0</ele>
        <time>2019-05-03T08:02:40.000Z</time>
      </trkpt>
      <trkpt lat="42.67646408081055" lon="-8.163436889648438">
        <ele>477.0</ele>
        <time>2019-05-03T08:02:42.000Z</time>
      </trkpt>
      <trkpt lat="42.67643356323242" lon="-8.163472175598145">
        <ele>477.0</ele>
        <time>2019-05-03T08:02:44.000Z</time>
      </trkpt>
      <trkpt lat="42.67639923095703" lon="-8.163508415222168">
        <ele>478.0</ele>
        <time>2019-05-03T08:02:46.000Z</time>
      </trkpt>
      <trkpt lat="42.67637634277344" lon="-8.163538932800293">
        <ele>476.0</ele>
        <time>2019-05-03T08:02:55.000Z</time>
      </trkpt>
      <trkpt lat="42.67634963989258" lon="-8.163568496704102">
        <ele>473.0</ele>
        <time>2019-05-03T08:03:03.000Z</time>
      </trkpt>
      <trkpt lat="42.676326751708984" lon="-8.16359806060791">
        <ele>469.0</ele>
        <time>2019-05-03T08:03:11.000Z</time>
      </trkpt>
      <trkpt lat="42.67630386352539" lon="-8.163627624511719">
        <ele>465.0</ele>
        <time>2019-05-03T08:03:19.000Z</time>
      </trkpt>
      <trkpt lat="42.676292419433594" lon="-8.163640975952148">
        <ele>464.0</ele>
        <time>2019-05-03T08:03:20.000Z</time>
      </trkpt>
      <trkpt lat="42.67628479003906" lon="-8.163646697998047">
        <ele>463.0</ele>
        <time>2019-05-03T08:03:20.000Z</time>
      </trkpt>
      <trkpt lat="42.67628479003906" lon="-8.16364860534668">
        <ele>464.0</ele>
        <time>2019-05-03T08:03:20.000Z</time>
      </trkpt>
      <trkpt lat="42.67628479003906" lon="-8.16364860534668">
        <ele>465.0</ele>
        <time>2019-05-03T08:03:20.000Z</time>
      </trkpt>
      <trkpt lat="42.6762809753418" lon="-8.163653373718262">
        <ele>465.0</ele>
        <time>2019-05-03T08:03:21.000Z</time>
      </trkpt>
      <trkpt lat="42.67627716064453" lon="-8.16365909576416">
        <ele>465.0</ele>
        <time>2019-05-03T08:03:21.000Z</time>
      </trkpt>
      <trkpt lat="42.67627716064453" lon="-8.163664817810059">
        <ele>465.0</ele>
        <time>2019-05-03T08:03:22.000Z</time>
      </trkpt>
      <trkpt lat="42.676273345947266" lon="-8.163670539855957">
        <ele>465.0</ele>
        <time>2019-05-03T08:03:22.000Z</time>
      </trkpt>
      <trkpt lat="42.676273345947266" lon="-8.163678169250488">
        <ele>464.0</ele>
        <time>2019-05-03T08:03:27.000Z</time>
      </trkpt>
      <trkpt lat="42.676273345947266" lon="-8.163686752319336">
        <ele>464.0</ele>
        <time>2019-05-03T08:03:31.000Z</time>
      </trkpt>
      <trkpt lat="42.67627716064453" lon="-8.1636962890625">
        <ele>463.0</ele>
        <time>2019-05-03T08:03:35.000Z</time>
      </trkpt>
      <trkpt lat="42.67627716064453" lon="-8.163705825805664">
        <ele>462.0</ele>
        <time>2019-05-03T08:03:39.000Z</time>
      </trkpt>
      <trkpt lat="42.67627716064453" lon="-8.163713455200195">
        <ele>462.0</ele>
        <time>2019-05-03T08:03:40.000Z</time>
      </trkpt>
      <trkpt lat="42.6762809753418" lon="-8.163721084594727">
        <ele>462.0</ele>
        <time>2019-05-03T08:03:40.000Z</time>
      </trkpt>
      <trkpt lat="42.6762809753418" lon="-8.163727760314941">
        <ele>462.0</ele>
        <time>2019-05-03T08:03:40.000Z</time>
      </trkpt>
      <trkpt lat="42.6762809753418" lon="-8.163734436035156">
        <ele>462.0</ele>
        <time>2019-05-03T08:03:40.000Z</time>
      </trkpt>
      <trkpt lat="42.67628479003906" lon="-8.163817405700684">
        <ele>462.0</ele>
        <time>2019-05-03T08:03:45.000Z</time>
      </trkpt>
      <trkpt lat="42.67628860473633" lon="-8.163933753967285">
        <ele>462.0</ele>
        <time>2019-05-03T08:03:49.000Z</time>
      </trkpt>
      <trkpt lat="42.676292419433594" lon="-8.164071083068848">
        <ele>462.0</ele>
        <time>2019-05-03T08:03:54.000Z</time>
      </trkpt>
      <trkpt lat="42.67629623413086" lon="-8.16421890258789">
        <ele>462.0</ele>
        <time>2019-05-03T08:03:58.000Z</time>
      </trkpt>
      <trkpt lat="42.676361083984375" lon="-8.164434432983398">
        <ele>462.0</ele>
        <time>2019-05-03T08:04:16.000Z</time>
      </trkpt>
      <trkpt lat="42.67645263671875" lon="-8.16463851928711">
        <ele>461.0</ele>
        <time>2019-05-03T08:04:33.000Z</time>
      </trkpt>
      <trkpt lat="42.67658996582031" lon="-8.164766311645508">
        <ele>462.0</ele>
        <time>2019-05-03T08:04:51.000Z</time>
      </trkpt>
      <trkpt lat="42.676753997802734" lon="-8.164857864379883">
        <ele>463.0</ele>
        <time>2019-05-03T08:05:09.000Z</time>
      </trkpt>
      <trkpt lat="42.67683410644531" lon="-8.164891242980957">
        <ele>464.0</ele>
        <time>2019-05-03T08:05:17.000Z</time>
      </trkpt>
      <trkpt lat="42.676918029785156" lon="-8.1649169921875">
        <ele>466.0</ele>
        <time>2019-05-03T08:05:25.000Z</time>
      </trkpt>
      <trkpt lat="42.676998138427734" lon="-8.164936065673828">
        <ele>467.0</ele>
        <time>2019-05-03T08:05:33.000Z</time>
      </trkpt>
      <trkpt lat="42.67708206176758" lon="-8.164952278137207">
        <ele>468.0</ele>
        <time>2019-05-03T08:05:40.000Z</time>
      </trkpt>
      <trkpt lat="42.677127838134766" lon="-8.16499137878418">
        <ele>472.0</ele>
        <time>2019-05-03T08:06:03.000Z</time>
      </trkpt>
      <trkpt lat="42.67711639404297" lon="-8.165026664733887">
        <ele>476.0</ele>
        <time>2019-05-03T08:06:25.000Z</time>
      </trkpt>
      <trkpt lat="42.6771240234375" lon="-8.165040969848633">
        <ele>477.0</ele>
        <time>2019-05-03T08:06:26.000Z</time>
      </trkpt>
      <trkpt lat="42.67713165283203" lon="-8.165053367614746">
        <ele>477.0</ele>
        <time>2019-05-03T08:06:26.000Z</time>
      </trkpt>
      <trkpt lat="42.6771354675293" lon="-8.165063858032227">
        <ele>476.0</ele>
        <time>2019-05-03T08:06:26.000Z</time>
      </trkpt>
      <trkpt lat="42.67713928222656" lon="-8.165074348449707">
        <ele>476.0</ele>
        <time>2019-05-03T08:06:26.000Z</time>
      </trkpt>
      <trkpt lat="42.677162170410156" lon="-8.165109634399414">
        <ele>476.0</ele>
        <time>2019-05-03T08:06:27.000Z</time>
      </trkpt>
      <trkpt lat="42.677188873291016" lon="-8.165155410766602">
        <ele>476.0</ele>
        <time>2019-05-03T08:06:28.000Z</time>
      </trkpt>
      <trkpt lat="42.677223205566406" lon="-8.165206909179688">
        <ele>476.0</ele>
        <time>2019-05-03T08:06:29.000Z</time>
      </trkpt>
      <trkpt lat="42.6772575378418" lon="-8.165262222290039">
        <ele>477.0</ele>
        <time>2019-05-03T08:06:30.000Z</time>
      </trkpt>
      <trkpt lat="42.67734146118164" lon="-8.165312767028809">
        <ele>478.0</ele>
        <time>2019-05-03T08:06:38.000Z</time>
      </trkpt>
      <trkpt lat="42.67744445800781" lon="-8.165343284606934">
        <ele>480.0</ele>
        <time>2019-05-03T08:06:46.000Z</time>
      </trkpt>
      <trkpt lat="42.67751693725586" lon="-8.165369987487793">
        <ele>481.0</ele>
        <time>2019-05-03T08:06:56.000Z</time>
      </trkpt>
      <trkpt lat="42.67759704589844" lon="-8.165399551391602">
        <ele>482.0</ele>
        <time>2019-05-03T08:07:06.000Z</time>
      </trkpt>
      <trkpt lat="42.67768859863281" lon="-8.165430068969727">
        <ele>484.0</ele>
        <time>2019-05-03T08:07:16.000Z</time>
      </trkpt>
      <trkpt lat="42.67778396606445" lon="-8.165462493896484">
        <ele>486.0</ele>
        <time>2019-05-03T08:07:25.000Z</time>
      </trkpt>
      <trkpt lat="42.6778678894043" lon="-8.165493965148926">
        <ele>486.0</ele>
        <time>2019-05-03T08:07:32.000Z</time>
      </trkpt>
      <trkpt lat="42.67795944213867" lon="-8.165526390075684">
        <ele>487.0</ele>
        <time>2019-05-03T08:07:38.000Z</time>
      </trkpt>
      <trkpt lat="42.67804718017578" lon="-8.165558815002441">
        <ele>487.0</ele>
        <time>2019-05-03T08:07:44.000Z</time>
      </trkpt>
      <trkpt lat="42.67813491821289" lon="-8.165592193603516">
        <ele>487.0</ele>
        <time>2019-05-03T08:07:50.000Z</time>
      </trkpt>
      <trkpt lat="42.67819595336914" lon="-8.165629386901855">
        <ele>487.0</ele>
        <time>2019-05-03T08:08:01.000Z</time>
      </trkpt>
      <trkpt lat="42.678245544433594" lon="-8.165668487548828">
        <ele>488.0</ele>
        <time>2019-05-03T08:08:12.000Z</time>
      </trkpt>
      <trkpt lat="42.678287506103516" lon="-8.165708541870117">
        <ele>488.0</ele>
        <time>2019-05-03T08:08:23.000Z</time>
      </trkpt>
      <trkpt lat="42.67832946777344" lon="-8.165749549865723">
        <ele>489.0</ele>
        <time>2019-05-03T08:08:33.000Z</time>
      </trkpt>
      <trkpt lat="42.678348541259766" lon="-8.165765762329102">
        <ele>489.0</ele>
        <time>2019-05-03T08:08:38.000Z</time>
      </trkpt>
      <trkpt lat="42.6783561706543" lon="-8.165773391723633">
        <ele>489.0</ele>
        <time>2019-05-03T08:08:42.000Z</time>
      </trkpt>
      <trkpt lat="42.6783561706543" lon="-8.165775299072266">
        <ele>490.0</ele>
        <time>2019-05-03T08:08:47.000Z</time>
      </trkpt>
      <trkpt lat="42.6783561706543" lon="-8.165773391723633">
        <ele>490.0</ele>
        <time>2019-05-03T08:08:51.000Z</time>
      </trkpt>
      <trkpt lat="42.67835998535156" lon="-8.165778160095215">
        <ele>490.0</ele>
        <time>2019-05-03T08:08:52.000Z</time>
      </trkpt>
      <trkpt lat="42.67836380004883" lon="-8.165782928466797">
        <ele>490.0</ele>
        <time>2019-05-03T08:08:52.000Z</time>
      </trkpt>
      <trkpt lat="42.67837142944336" lon="-8.165786743164062">
        <ele>490.0</ele>
        <time>2019-05-03T08:08:52.000Z</time>
      </trkpt>
      <trkpt lat="42.678375244140625" lon="-8.165791511535645">
        <ele>490.0</ele>
        <time>2019-05-03T08:08:52.000Z</time>
      </trkpt>
      <trkpt lat="42.67857360839844" lon="-8.16594409942627">
        <ele>488.0</ele>
        <time>2019-05-03T08:09:02.000Z</time>
      </trkpt>
      <trkpt lat="42.67857360839844" lon="-8.1659517288208">
        <ele>489.0</ele>
        <time>2019-05-03T08:09:24.000Z</time>
      </trkpt>
      <trkpt lat="42.67856979370117" lon="-8.165958404541016">
        <ele>489.0</ele>
        <time>2019-05-03T08:09:25.000Z</time>
      </trkpt>
      <trkpt lat="42.67890167236328" lon="-8.166236877441406">
        <ele>485.0</ele>
        <time>2019-05-03T08:23:18.000Z</time>
      </trkpt>
      <trkpt lat="42.67889404296875" lon="-8.166239738464355">
        <ele>485.0</ele>
        <time>2019-05-03T08:23:19.000Z</time>
      </trkpt>
      <trkpt lat="42.67890167236328" lon="-8.166250228881836">
        <ele>485.0</ele>
        <time>2019-05-03T08:23:28.000Z</time>
      </trkpt>
      <trkpt lat="42.67890930175781" lon="-8.166263580322266">
        <ele>485.0</ele>
        <time>2019-05-03T08:23:36.000Z</time>
      </trkpt>
      <trkpt lat="42.67892074584961" lon="-8.166280746459961">
        <ele>484.0</ele>
        <time>2019-05-03T08:23:45.000Z</time>
      </trkpt>
      <trkpt lat="42.678932189941406" lon="-8.166297912597656">
        <ele>484.0</ele>
        <time>2019-05-03T08:23:53.000Z</time>
      </trkpt>
      <trkpt lat="42.67893600463867" lon="-8.166308403015137">
        <ele>484.0</ele>
        <time>2019-05-03T08:23:54.000Z</time>
      </trkpt>
      <trkpt lat="42.6789436340332" lon="-8.1663179397583">
        <ele>484.0</ele>
        <time>2019-05-03T08:23:54.000Z</time>
      </trkpt>
      <trkpt lat="42.67894744873047" lon="-8.166325569152832">
        <ele>484.0</ele>
        <time>2019-05-03T08:23:54.000Z</time>
      </trkpt>
      <trkpt lat="42.678951263427734" lon="-8.166333198547363">
        <ele>484.0</ele>
        <time>2019-05-03T08:23:54.000Z</time>
      </trkpt>
      <trkpt lat="42.67898941040039" lon="-8.166369438171387">
        <ele>484.0</ele>
        <time>2019-05-03T08:23:57.000Z</time>
      </trkpt>
      <trkpt lat="42.679039001464844" lon="-8.166418075561523">
        <ele>484.0</ele>
        <time>2019-05-03T08:23:59.000Z</time>
      </trkpt>
      <trkpt lat="42.67909622192383" lon="-8.166474342346191">
        <ele>483.0</ele>
        <time>2019-05-03T08:24:02.000Z</time>
      </trkpt>
      <trkpt lat="42.67915725708008" lon="-8.166534423828125">
        <ele>483.0</ele>
        <time>2019-05-03T08:24:04.000Z</time>
      </trkpt>
      <trkpt lat="42.679176330566406" lon="-8.166552543640137">
        <ele>483.0</ele>
        <time>2019-05-03T08:24:09.000Z</time>
      </trkpt>
      <trkpt lat="42.67918014526367" lon="-8.166557312011719">
        <ele>483.0</ele>
        <time>2019-05-03T08:24:14.000Z</time>
      </trkpt>
      <trkpt lat="42.679176330566406" lon="-8.166552543640137">
        <ele>483.0</ele>
        <time>2019-05-03T08:24:19.000Z</time>
      </trkpt>
      <trkpt lat="42.679168701171875" lon="-8.166543006896973">
        <ele>483.0</ele>
        <time>2019-05-03T08:24:23.000Z</time>
      </trkpt>
      <trkpt lat="42.679168701171875" lon="-8.166544914245605">
        <ele>483.0</ele>
        <time>2019-05-03T08:24:24.000Z</time>
      </trkpt>
      <trkpt lat="42.67917251586914" lon="-8.166546821594238">
        <ele>483.0</ele>
        <time>2019-05-03T08:24:24.000Z</time>
      </trkpt>
      <trkpt lat="42.67917251586914" lon="-8.166548728942871">
        <ele>483.0</ele>
        <time>2019-05-03T08:24:24.000Z</time>
      </trkpt>
      <trkpt lat="42.679176330566406" lon="-8.166550636291504">
        <ele>483.0</ele>
        <time>2019-05-03T08:24:24.000Z</time>
      </trkpt>
      <trkpt lat="42.67921829223633" lon="-8.166595458984375">
        <ele>483.0</ele>
        <time>2019-05-03T08:24:26.000Z</time>
      </trkpt>
      <trkpt lat="42.67927551269531" lon="-8.166657447814941">
        <ele>482.0</ele>
        <time>2019-05-03T08:24:28.000Z</time>
      </trkpt>
      <trkpt lat="42.67934799194336" lon="-8.166731834411621">
        <ele>482.0</ele>
        <time>2019-05-03T08:24:30.000Z</time>
      </trkpt>
      <trkpt lat="42.67942428588867" lon="-8.1668119430542">
        <ele>482.0</ele>
        <time>2019-05-03T08:24:32.000Z</time>
      </trkpt>
      <trkpt lat="42.6795654296875" lon="-8.16697883605957">
        <ele>477.0</ele>
        <time>2019-05-03T08:24:49.000Z</time>
      </trkpt>
      <trkpt lat="42.67975616455078" lon="-8.167394638061523">
        <ele>479.0</ele>
        <time>2019-05-03T08:25:18.000Z</time>
      </trkpt>
      <trkpt lat="42.67983627319336" lon="-8.167864799499512">
        <ele>480.0</ele>
        <time>2019-05-03T08:25:54.000Z</time>
      </trkpt>
      <trkpt lat="42.67988204956055" lon="-8.168112754821777">
        <ele>481.0</ele>
        <time>2019-05-03T08:26:16.000Z</time>
      </trkpt>
      <trkpt lat="42.679901123046875" lon="-8.168193817138672">
        <ele>481.0</ele>
        <time>2019-05-03T08:26:35.000Z</time>
      </trkpt>
      <trkpt lat="42.67991256713867" lon="-8.16823673248291">
        <ele>481.0</ele>
        <time>2019-05-03T08:26:36.000Z</time>
      </trkpt>
      <trkpt lat="42.6799430847168" lon="-8.168375015258789">
        <ele>480.0</ele>
        <time>2019-05-03T08:26:40.000Z</time>
      </trkpt>
      <trkpt lat="42.679954528808594" lon="-8.168420791625977">
        <ele>480.0</ele>
        <time>2019-05-03T08:26:53.000Z</time>
      </trkpt>
      <trkpt lat="42.679962158203125" lon="-8.168453216552734">
        <ele>480.0</ele>
        <time>2019-05-03T08:26:54.000Z</time>
      </trkpt>
      <trkpt lat="42.680110931396484" lon="-8.168889999389648">
        <ele>478.0</ele>
        <time>2019-05-03T08:27:17.000Z</time>
      </trkpt>
      <trkpt lat="42.68030548095703" lon="-8.169212341308594">
        <ele>476.0</ele>
        <time>2019-05-03T08:27:51.000Z</time>
      </trkpt>
      <trkpt lat="42.68031311035156" lon="-8.16922378540039">
        <ele>474.0</ele>
        <time>2019-05-03T08:28:09.000Z</time>
      </trkpt>
      <trkpt lat="42.680320739746094" lon="-8.169234275817871">
        <ele>474.0</ele>
        <time>2019-05-03T08:28:10.000Z</time>
      </trkpt>
      <trkpt lat="42.68036651611328" lon="-8.169282913208008">
        <ele>474.0</ele>
        <time>2019-05-03T08:28:12.000Z</time>
      </trkpt>
      <trkpt lat="42.680416107177734" lon="-8.16933536529541">
        <ele>474.0</ele>
        <time>2019-05-03T08:28:15.000Z</time>
      </trkpt>
      <trkpt lat="42.68060302734375" lon="-8.169404983520508">
        <ele>463.0</ele>
        <time>2019-05-03T08:29:07.000Z</time>
      </trkpt>
      <trkpt lat="42.680789947509766" lon="-8.169487953186035">
        <ele>478.0</ele>
        <time>2019-05-03T08:29:11.000Z</time>
      </trkpt>
      <trkpt lat="42.680931091308594" lon="-8.169624328613281">
        <ele>473.0</ele>
        <time>2019-05-03T08:29:15.000Z</time>
      </trkpt>
      <trkpt lat="42.68095016479492" lon="-8.16964340209961">
        <ele>473.0</ele>
        <time>2019-05-03T08:29:16.000Z</time>
      </trkpt>
      <trkpt lat="42.68101119995117" lon="-8.169966697692871">
        <ele>469.0</ele>
        <time>2019-05-03T08:29:36.000Z</time>
      </trkpt>
      <trkpt lat="42.681007385253906" lon="-8.169999122619629">
        <ele>469.0</ele>
        <time>2019-05-03T08:29:54.000Z</time>
      </trkpt>
      <trkpt lat="42.68100357055664" lon="-8.170023918151855">
        <ele>469.0</ele>
        <time>2019-05-03T08:29:55.000Z</time>
      </trkpt>
      <trkpt lat="42.68083190917969" lon="-8.170442581176758">
        <ele>464.0</ele>
        <time>2019-05-03T08:30:13.000Z</time>
      </trkpt>
      <trkpt lat="42.68073272705078" lon="-8.170910835266113">
        <ele>461.0</ele>
        <time>2019-05-03T08:30:43.000Z</time>
      </trkpt>
      <trkpt lat="42.680747985839844" lon="-8.170994758605957">
        <ele>460.0</ele>
        <time>2019-05-03T08:30:51.000Z</time>
      </trkpt>
      <trkpt lat="42.68075180053711" lon="-8.171015739440918">
        <ele>459.0</ele>
        <time>2019-05-03T08:31:09.000Z</time>
      </trkpt>
      <trkpt lat="42.680755615234375" lon="-8.171032905578613">
        <ele>459.0</ele>
        <time>2019-05-03T08:31:10.000Z</time>
      </trkpt>
      <trkpt lat="42.68079376220703" lon="-8.171332359313965">
        <ele>459.0</ele>
        <time>2019-05-03T08:31:17.000Z</time>
      </trkpt>
      <trkpt lat="42.68080139160156" lon="-8.171396255493164">
        <ele>458.0</ele>
        <time>2019-05-03T08:31:33.000Z</time>
      </trkpt>
      <trkpt lat="42.68080520629883" lon="-8.17143726348877">
        <ele>458.0</ele>
        <time>2019-05-03T08:31:34.000Z</time>
      </trkpt>
      <trkpt lat="42.68083572387695" lon="-8.171693801879883">
        <ele>458.0</ele>
        <time>2019-05-03T08:31:41.000Z</time>
      </trkpt>
      <trkpt lat="42.680850982666016" lon="-8.171749114990234">
        <ele>459.0</ele>
        <time>2019-05-03T08:31:48.000Z</time>
      </trkpt>
      <trkpt lat="42.68087387084961" lon="-8.171771049499512">
        <ele>461.0</ele>
        <time>2019-05-03T08:31:54.000Z</time>
      </trkpt>
      <trkpt lat="42.68088150024414" lon="-8.171783447265625">
        <ele>461.0</ele>
        <time>2019-05-03T08:31:55.000Z</time>
      </trkpt>
      <trkpt lat="42.680885314941406" lon="-8.171793937683105">
        <ele>461.0</ele>
        <time>2019-05-03T08:31:55.000Z</time>
      </trkpt>
      <trkpt lat="42.68088912963867" lon="-8.171802520751953">
        <ele>461.0</ele>
        <time>2019-05-03T08:31:55.000Z</time>
      </trkpt>
      <trkpt lat="42.68089294433594" lon="-8.171810150146484">
        <ele>461.0</ele>
        <time>2019-05-03T08:31:55.000Z</time>
      </trkpt>
      <trkpt lat="42.680938720703125" lon="-8.171870231628418">
        <ele>461.0</ele>
        <time>2019-05-03T08:32:00.000Z</time>
      </trkpt>
      <trkpt lat="42.68099594116211" lon="-8.171952247619629">
        <ele>462.0</ele>
        <time>2019-05-03T08:32:05.000Z</time>
      </trkpt>
      <trkpt lat="42.681068420410156" lon="-8.172048568725586">
        <ele>463.0</ele>
        <time>2019-05-03T08:32:10.000Z</time>
      </trkpt>
      <trkpt lat="42.68114471435547" lon="-8.172152519226074">
        <ele>464.0</ele>
        <time>2019-05-03T08:32:14.000Z</time>
      </trkpt>
      <trkpt lat="42.68119812011719" lon="-8.172231674194336">
        <ele>464.0</ele>
        <time>2019-05-03T08:32:22.000Z</time>
      </trkpt>
      <trkpt lat="42.681251525878906" lon="-8.172308921813965">
        <ele>464.0</ele>
        <time>2019-05-03T08:32:29.000Z</time>
      </trkpt>
      <trkpt lat="42.681297302246094" lon="-8.172385215759277">
        <ele>463.0</ele>
        <time>2019-05-03T08:32:37.000Z</time>
      </trkpt>
      <trkpt lat="42.68134307861328" lon="-8.172459602355957">
        <ele>463.0</ele>
        <time>2019-05-03T08:32:44.000Z</time>
      </trkpt>
      <trkpt lat="42.6813850402832" lon="-8.172572135925293">
        <ele>465.0</ele>
        <time>2019-05-03T08:32:57.000Z</time>
      </trkpt>
      <trkpt lat="42.68142318725586" lon="-8.172699928283691">
        <ele>468.0</ele>
        <time>2019-05-03T08:33:09.000Z</time>
      </trkpt>
      <trkpt lat="42.68145751953125" lon="-8.17283821105957">
        <ele>472.0</ele>
        <time>2019-05-03T08:33:21.000Z</time>
      </trkpt>
      <trkpt lat="42.68149185180664" lon="-8.172981262207031">
        <ele>476.0</ele>
        <time>2019-05-03T08:33:33.000Z</time>
      </trkpt>
      <trkpt lat="42.68151092529297" lon="-8.17306137084961">
        <ele>476.0</ele>
        <time>2019-05-03T08:33:36.000Z</time>
      </trkpt>
      <trkpt lat="42.6815185546875" lon="-8.17312240600586">
        <ele>476.0</ele>
        <time>2019-05-03T08:33:38.000Z</time>
      </trkpt>
      <trkpt lat="42.68152618408203" lon="-8.173168182373047">
        <ele>474.0</ele>
        <time>2019-05-03T08:33:40.000Z</time>
      </trkpt>
      <trkpt lat="42.68152618408203" lon="-8.173208236694336">
        <ele>472.0</ele>
        <time>2019-05-03T08:33:42.000Z</time>
      </trkpt>
      <trkpt lat="42.68153381347656" lon="-8.173224449157715">
        <ele>472.0</ele>
        <time>2019-05-03T08:33:43.000Z</time>
      </trkpt>
      <trkpt lat="42.681541442871094" lon="-8.173224449157715">
        <ele>471.0</ele>
        <time>2019-05-03T08:33:43.000Z</time>
      </trkpt>
      <trkpt lat="42.681549072265625" lon="-8.173213005065918">
        <ele>471.0</ele>
        <time>2019-05-03T08:33:44.000Z</time>
      </trkpt>
      <trkpt lat="42.68155288696289" lon="-8.173196792602539">
        <ele>470.0</ele>
        <time>2019-05-03T08:33:44.000Z</time>
      </trkpt>
      <trkpt lat="42.681556701660156" lon="-8.17320442199707">
        <ele>469.0</ele>
        <time>2019-05-03T08:33:45.000Z</time>
      </trkpt>
      <trkpt lat="42.68156051635742" lon="-8.173216819763184">
        <ele>468.0</ele>
        <time>2019-05-03T08:33:46.000Z</time>
      </trkpt>
      <trkpt lat="42.68156051635742" lon="-8.173232078552246">
        <ele>467.0</ele>
        <time>2019-05-03T08:33:47.000Z</time>
      </trkpt>
      <trkpt lat="42.68156051635742" lon="-8.173248291015625">
        <ele>466.0</ele>
        <time>2019-05-03T08:33:47.000Z</time>
      </trkpt>
      <trkpt lat="42.681556701660156" lon="-8.173253059387207">
        <ele>466.0</ele>
        <time>2019-05-03T08:33:50.000Z</time>
      </trkpt>
      <trkpt lat="42.68154525756836" lon="-8.173254013061523">
        <ele>466.0</ele>
        <time>2019-05-03T08:33:52.000Z</time>
      </trkpt>
      <trkpt lat="42.68153381347656" lon="-8.173253059387207">
        <ele>467.0</ele>
        <time>2019-05-03T08:33:54.000Z</time>
      </trkpt>
      <trkpt lat="42.681522369384766" lon="-8.173250198364258">
        <ele>468.0</ele>
        <time>2019-05-03T08:33:56.000Z</time>
      </trkpt>
      <trkpt lat="42.68151092529297" lon="-8.173283576965332">
        <ele>468.0</ele>
        <time>2019-05-03T08:34:01.000Z</time>
      </trkpt>
      <trkpt lat="42.68149948120117" lon="-8.17332935333252">
        <ele>468.0</ele>
        <time>2019-05-03T08:34:06.000Z</time>
      </trkpt>
      <trkpt lat="42.681488037109375" lon="-8.173385620117188">
        <ele>467.0</ele>
        <time>2019-05-03T08:34:11.000Z</time>
      </trkpt>
      <trkpt lat="42.68147659301758" lon="-8.173445701599121">
        <ele>466.0</ele>
        <time>2019-05-03T08:34:15.000Z</time>
      </trkpt>
      <trkpt lat="42.68147277832031" lon="-8.173465728759766">
        <ele>466.0</ele>
        <time>2019-05-03T08:34:16.000Z</time>
      </trkpt>
      <trkpt lat="42.68146896362305" lon="-8.173474311828613">
        <ele>466.0</ele>
        <time>2019-05-03T08:34:16.000Z</time>
      </trkpt>
      <trkpt lat="42.68146896362305" lon="-8.173474311828613">
        <ele>466.0</ele>
        <time>2019-05-03T08:34:16.000Z</time>
      </trkpt>
      <trkpt lat="42.68146896362305" lon="-8.173470497131348">
        <ele>466.0</ele>
        <time>2019-05-03T08:34:16.000Z</time>
      </trkpt>
      <trkpt lat="42.68146896362305" lon="-8.173484802246094">
        <ele>466.0</ele>
        <time>2019-05-03T08:34:17.000Z</time>
      </trkpt>
      <trkpt lat="42.68146896362305" lon="-8.173501014709473">
        <ele>467.0</ele>
        <time>2019-05-03T08:34:18.000Z</time>
      </trkpt>
      <trkpt lat="42.68146514892578" lon="-8.1735200881958">
        <ele>467.0</ele>
        <time>2019-05-03T08:34:19.000Z</time>
      </trkpt>
      <trkpt lat="42.68146514892578" lon="-8.173540115356445">
        <ele>468.0</ele>
        <time>2019-05-03T08:34:20.000Z</time>
      </trkpt>
      <trkpt lat="42.68146514892578" lon="-8.173547744750977">
        <ele>468.0</ele>
        <time>2019-05-03T08:34:25.000Z</time>
      </trkpt>
      <trkpt lat="42.68146514892578" lon="-8.173551559448242">
        <ele>468.0</ele>
        <time>2019-05-03T08:34:29.000Z</time>
      </trkpt>
      <trkpt lat="42.68146514892578" lon="-8.173552513122559">
        <ele>468.0</ele>
        <time>2019-05-03T08:34:33.000Z</time>
      </trkpt>
      <trkpt lat="42.68146514892578" lon="-8.173551559448242">
        <ele>468.0</ele>
        <time>2019-05-03T08:34:37.000Z</time>
      </trkpt>
      <trkpt lat="42.681461334228516" lon="-8.173554420471191">
        <ele>467.0</ele>
        <time>2019-05-03T08:34:38.000Z</time>
      </trkpt>
      <trkpt lat="42.681461334228516" lon="-8.17355728149414">
        <ele>467.0</ele>
        <time>2019-05-03T08:34:38.000Z</time>
      </trkpt>
      <trkpt lat="42.681461334228516" lon="-8.17356014251709">
        <ele>467.0</ele>
        <time>2019-05-03T08:34:38.000Z</time>
      </trkpt>
      <trkpt lat="42.681461334228516" lon="-8.173562049865723">
        <ele>468.0</ele>
        <time>2019-05-03T08:34:38.000Z</time>
      </trkpt>
      <trkpt lat="42.68144607543945" lon="-8.173639297485352">
        <ele>467.0</ele>
        <time>2019-05-03T08:34:42.000Z</time>
      </trkpt>
      <trkpt lat="42.68142318725586" lon="-8.173747062683105">
        <ele>467.0</ele>
        <time>2019-05-03T08:34:45.000Z</time>
      </trkpt>
      <trkpt lat="42.681400299072266" lon="-8.17387580871582">
        <ele>467.0</ele>
        <time>2019-05-03T08:34:49.000Z</time>
      </trkpt>
      <trkpt lat="42.68136978149414" lon="-8.174015045166016">
        <ele>467.0</ele>
        <time>2019-05-03T08:34:52.000Z</time>
      </trkpt>
      <trkpt lat="42.68122482299805" lon="-8.17446231842041">
        <ele>463.0</ele>
        <time>2019-05-03T08:35:23.000Z</time>
      </trkpt>
      <trkpt lat="42.681007385253906" lon="-8.174838066101074">
        <ele>459.0</ele>
        <time>2019-05-03T08:35:52.000Z</time>
      </trkpt>
      <trkpt lat="42.68076705932617" lon="-8.17519474029541">
        <ele>458.0</ele>
        <time>2019-05-03T08:36:23.000Z</time>
      </trkpt>
      <trkpt lat="42.68062210083008" lon="-8.175637245178223">
        <ele>460.0</ele>
        <time>2019-05-03T08:36:52.000Z</time>
      </trkpt>
      <trkpt lat="42.680625915527344" lon="-8.175753593444824">
        <ele>460.0</ele>
        <time>2019-05-03T08:37:01.000Z</time>
      </trkpt>
      <trkpt lat="42.680641174316406" lon="-8.175871849060059">
        <ele>460.0</ele>
        <time>2019-05-03T08:37:09.000Z</time>
      </trkpt>
      <trkpt lat="42.680667877197266" lon="-8.17599105834961">
        <ele>460.0</ele>
        <time>2019-05-03T08:37:18.000Z</time>
      </trkpt>
      <trkpt lat="42.680702209472656" lon="-8.176111221313477">
        <ele>459.0</ele>
        <time>2019-05-03T08:37:26.000Z</time>
      </trkpt>
      <trkpt lat="42.68080520629883" lon="-8.176301956176758">
        <ele>460.0</ele>
        <time>2019-05-03T08:37:41.000Z</time>
      </trkpt>
      <trkpt lat="42.68093490600586" lon="-8.176469802856445">
        <ele>461.0</ele>
        <time>2019-05-03T08:37:56.000Z</time>
      </trkpt>
      <trkpt lat="42.68098831176758" lon="-8.176695823669434">
        <ele>464.0</ele>
        <time>2019-05-03T08:38:12.000Z</time>
      </trkpt>
      <trkpt lat="42.68101119995117" lon="-8.1769437789917">
        <ele>467.0</ele>
        <time>2019-05-03T08:38:28.000Z</time>
      </trkpt>
      <trkpt lat="42.68102264404297" lon="-8.177063941955566">
        <ele>468.0</ele>
        <time>2019-05-03T08:38:36.000Z</time>
      </trkpt>
      <trkpt lat="42.6810302734375" lon="-8.177184104919434">
        <ele>468.0</ele>
        <time>2019-05-03T08:38:43.000Z</time>
      </trkpt>
      <trkpt lat="42.681034088134766" lon="-8.1773042678833">
        <ele>468.0</ele>
        <time>2019-05-03T08:38:51.000Z</time>
      </trkpt>
      <trkpt lat="42.6810417175293" lon="-8.177424430847168">
        <ele>468.0</ele>
        <time>2019-05-03T08:38:58.000Z</time>
      </trkpt>
      <trkpt lat="42.68105697631836" lon="-8.177544593811035">
        <ele>468.0</ele>
        <time>2019-05-03T08:39:06.000Z</time>
      </trkpt>
      <trkpt lat="42.68107986450195" lon="-8.177663803100586">
        <ele>469.0</ele>
        <time>2019-05-03T08:39:13.000Z</time>
      </trkpt>
      <trkpt lat="42.68110656738281" lon="-8.177783966064453">
        <ele>469.0</ele>
        <time>2019-05-03T08:39:21.000Z</time>
      </trkpt>
      <trkpt lat="42.68113327026367" lon="-8.177903175354004">
        <ele>469.0</ele>
        <time>2019-05-03T08:39:28.000Z</time>
      </trkpt>
      <trkpt lat="42.68115997314453" lon="-8.178022384643555">
        <ele>469.0</ele>
        <time>2019-05-03T08:39:36.000Z</time>
      </trkpt>
      <trkpt lat="42.681182861328125" lon="-8.178139686584473">
        <ele>468.0</ele>
        <time>2019-05-03T08:39:43.000Z</time>
      </trkpt>
      <trkpt lat="42.681209564208984" lon="-8.17825698852539">
        <ele>468.0</ele>
        <time>2019-05-03T08:39:50.000Z</time>
      </trkpt>
      <trkpt lat="42.681236267089844" lon="-8.178374290466309">
        <ele>467.0</ele>
        <time>2019-05-03T08:39:57.000Z</time>
      </trkpt>
      <trkpt lat="42.681251525878906" lon="-8.178492546081543">
        <ele>466.0</ele>
        <time>2019-05-03T08:40:05.000Z</time>
      </trkpt>
      <trkpt lat="42.6812629699707" lon="-8.178609848022461">
        <ele>466.0</ele>
        <time>2019-05-03T08:40:12.000Z</time>
      </trkpt>
      <trkpt lat="42.6812744140625" lon="-8.178728103637695">
        <ele>466.0</ele>
        <time>2019-05-03T08:40:20.000Z</time>
      </trkpt>
      <trkpt lat="42.68128204345703" lon="-8.178845405578613">
        <ele>466.0</ele>
        <time>2019-05-03T08:40:27.000Z</time>
      </trkpt>
      <trkpt lat="42.681304931640625" lon="-8.178960800170898">
        <ele>465.0</ele>
        <time>2019-05-03T08:40:36.000Z</time>
      </trkpt>
      <trkpt lat="42.68132781982422" lon="-8.179075241088867">
        <ele>464.0</ele>
        <time>2019-05-03T08:40:45.000Z</time>
      </trkpt>
      <trkpt lat="42.68135070800781" lon="-8.179187774658203">
        <ele>463.0</ele>
        <time>2019-05-03T08:40:54.000Z</time>
      </trkpt>
      <trkpt lat="42.68137741088867" lon="-8.179301261901855">
        <ele>462.0</ele>
        <time>2019-05-03T08:41:02.000Z</time>
      </trkpt>
      <trkpt lat="42.68135070800781" lon="-8.179612159729004">
        <ele>461.0</ele>
        <time>2019-05-03T08:41:31.000Z</time>
      </trkpt>
      <trkpt lat="42.68135452270508" lon="-8.179634094238281">
        <ele>461.0</ele>
        <time>2019-05-03T08:41:33.000Z</time>
      </trkpt>
      <trkpt lat="42.68136978149414" lon="-8.179634094238281">
        <ele>461.0</ele>
        <time>2019-05-03T08:41:34.000Z</time>
      </trkpt>
      <trkpt lat="42.6813850402832" lon="-8.179617881774902">
        <ele>461.0</ele>
        <time>2019-05-03T08:41:36.000Z</time>
      </trkpt>
      <trkpt lat="42.681400299072266" lon="-8.179594993591309">
        <ele>461.0</ele>
        <time>2019-05-03T08:41:37.000Z</time>
      </trkpt>
      <trkpt lat="42.681392669677734" lon="-8.179586410522461">
        <ele>461.0</ele>
        <time>2019-05-03T08:41:39.000Z</time>
      </trkpt>
      <trkpt lat="42.681373596191406" lon="-8.17957592010498">
        <ele>461.0</ele>
        <time>2019-05-03T08:41:41.000Z</time>
      </trkpt>
      <trkpt lat="42.68135070800781" lon="-8.1795654296875">
        <ele>461.0</ele>
        <time>2019-05-03T08:41:43.000Z</time>
      </trkpt>
      <trkpt lat="42.68132019042969" lon="-8.179553031921387">
        <ele>461.0</ele>
        <time>2019-05-03T08:41:44.000Z</time>
      </trkpt>
      <trkpt lat="42.68134689331055" lon="-8.179628372192383">
        <ele>461.0</ele>
        <time>2019-05-03T08:41:52.000Z</time>
      </trkpt>
      <trkpt lat="42.681396484375" lon="-8.179739952087402">
        <ele>461.0</ele>
        <time>2019-05-03T08:41:59.000Z</time>
      </trkpt>
      <trkpt lat="42.68145751953125" lon="-8.179875373840332">
        <ele>461.0</ele>
        <time>2019-05-03T08:42:06.000Z</time>
      </trkpt>
      <trkpt lat="42.68152618408203" lon="-8.180023193359375">
        <ele>462.0</ele>
        <time>2019-05-03T08:42:13.000Z</time>
      </trkpt>
      <trkpt lat="42.68157958984375" lon="-8.180126190185547">
        <ele>461.0</ele>
        <time>2019-05-03T08:42:22.000Z</time>
      </trkpt>
      <trkpt lat="42.681636810302734" lon="-8.18022346496582">
        <ele>460.0</ele>
        <time>2019-05-03T08:42:30.000Z</time>
      </trkpt>
      <trkpt lat="42.68169021606445" lon="-8.180316925048828">
        <ele>459.0</ele>
        <time>2019-05-03T08:42:38.000Z</time>
      </trkpt>
      <trkpt lat="42.68174743652344" lon="-8.180407524108887">
        <ele>457.0</ele>
        <time>2019-05-03T08:42:46.000Z</time>
      </trkpt>
      <trkpt lat="42.6817741394043" lon="-8.180447578430176">
        <ele>457.0</ele>
        <time>2019-05-03T08:42:49.000Z</time>
      </trkpt>
      <trkpt lat="42.68178939819336" lon="-8.180462837219238">
        <ele>457.0</ele>
        <time>2019-05-03T08:42:52.000Z</time>
      </trkpt>
      <trkpt lat="42.68179702758789" lon="-8.180461883544922">
        <ele>456.0</ele>
        <time>2019-05-03T08:42:55.000Z</time>
      </trkpt>
      <trkpt lat="42.68180465698242" lon="-8.180453300476074">
        <ele>456.0</ele>
        <time>2019-05-03T08:42:58.000Z</time>
      </trkpt>
      <trkpt lat="42.68180847167969" lon="-8.180459976196289">
        <ele>456.0</ele>
        <time>2019-05-03T08:43:02.000Z</time>
      </trkpt>
      <trkpt lat="42.68181610107422" lon="-8.180464744567871">
        <ele>456.0</ele>
        <time>2019-05-03T08:43:06.000Z</time>
      </trkpt>
      <trkpt lat="42.68181610107422" lon="-8.180468559265137">
        <ele>456.0</ele>
        <time>2019-05-03T08:43:10.000Z</time>
      </trkpt>
      <trkpt lat="42.68181610107422" lon="-8.180471420288086">
        <ele>455.0</ele>
        <time>2019-05-03T08:43:14.000Z</time>
      </trkpt>
      <trkpt lat="42.681819915771484" lon="-8.180475234985352">
        <ele>455.0</ele>
        <time>2019-05-03T08:43:15.000Z</time>
      </trkpt>
      <trkpt lat="42.68182373046875" lon="-8.180479049682617">
        <ele>455.0</ele>
        <time>2019-05-03T08:43:15.000Z</time>
      </trkpt>
      <trkpt lat="42.681827545166016" lon="-8.180482864379883">
        <ele>455.0</ele>
        <time>2019-05-03T08:43:15.000Z</time>
      </trkpt>
      <trkpt lat="42.68183135986328" lon="-8.180485725402832">
        <ele>455.0</ele>
        <time>2019-05-03T08:43:15.000Z</time>
      </trkpt>
      <trkpt lat="42.68187713623047" lon="-8.180538177490234">
        <ele>455.0</ele>
        <time>2019-05-03T08:43:19.000Z</time>
      </trkpt>
      <trkpt lat="42.681941986083984" lon="-8.180610656738281">
        <ele>455.0</ele>
        <time>2019-05-03T08:43:22.000Z</time>
      </trkpt>
      <trkpt lat="42.6820182800293" lon="-8.180696487426758">
        <ele>455.0</ele>
        <time>2019-05-03T08:43:26.000Z</time>
      </trkpt>
      <trkpt lat="42.682098388671875" lon="-8.18078899383545">
        <ele>455.0</ele>
        <time>2019-05-03T08:43:29.000Z</time>
      </trkpt>
      <trkpt lat="42.6822509765625" lon="-8.180869102478027">
        <ele>453.0</ele>
        <time>2019-05-03T08:43:45.000Z</time>
      </trkpt>
      <trkpt lat="42.68227767944336" lon="-8.18091869354248">
        <ele>453.0</ele>
        <time>2019-05-03T08:43:50.000Z</time>
      </trkpt>
      <trkpt lat="42.68230438232422" lon="-8.180980682373047">
        <ele>454.0</ele>
        <time>2019-05-03T08:43:54.000Z</time>
      </trkpt>
      <trkpt lat="42.68232345581055" lon="-8.181051254272461">
        <ele>454.0</ele>
        <time>2019-05-03T08:43:58.000Z</time>
      </trkpt>
      <trkpt lat="42.682342529296875" lon="-8.181124687194824">
        <ele>454.0</ele>
        <time>2019-05-03T08:44:02.000Z</time>
      </trkpt>
      <trkpt lat="42.682376861572266" lon="-8.181190490722656">
        <ele>454.0</ele>
        <time>2019-05-03T08:44:07.000Z</time>
      </trkpt>
      <trkpt lat="42.682411193847656" lon="-8.181255340576172">
        <ele>454.0</ele>
        <time>2019-05-03T08:44:11.000Z</time>
      </trkpt>
      <trkpt lat="42.68244934082031" lon="-8.181321144104004">
        <ele>454.0</ele>
        <time>2019-05-03T08:44:16.000Z</time>
      </trkpt>
      <trkpt lat="42.68248748779297" lon="-8.181386947631836">
        <ele>453.0</ele>
        <time>2019-05-03T08:44:20.000Z</time>
      </trkpt>
      <trkpt lat="42.682498931884766" lon="-8.181438446044922">
        <ele>453.0</ele>
        <time>2019-05-03T08:44:23.000Z</time>
      </trkpt>
      <trkpt lat="42.6824951171875" lon="-8.181483268737793">
        <ele>453.0</ele>
        <time>2019-05-03T08:44:26.000Z</time>
      </trkpt>
      <trkpt lat="42.68248748779297" lon="-8.181524276733398">
        <ele>453.0</ele>
        <time>2019-05-03T08:44:29.000Z</time>
      </trkpt>
      <trkpt lat="42.682472229003906" lon="-8.181563377380371">
        <ele>453.0</ele>
        <time>2019-05-03T08:44:31.000Z</time>
      </trkpt>
      <trkpt lat="42.68248748779297" lon="-8.181656837463379">
        <ele>452.0</ele>
        <time>2019-05-03T08:44:39.000Z</time>
      </trkpt>
      <trkpt lat="42.68251419067383" lon="-8.181770324707031">
        <ele>451.0</ele>
        <time>2019-05-03T08:44:46.000Z</time>
      </trkpt>
      <trkpt lat="42.68254470825195" lon="-8.18189811706543">
        <ele>449.0</ele>
        <time>2019-05-03T08:44:54.000Z</time>
      </trkpt>
      <trkpt lat="42.682579040527344" lon="-8.182031631469727">
        <ele>448.0</ele>
        <time>2019-05-03T08:45:01.000Z</time>
      </trkpt>
      <trkpt lat="42.682594299316406" lon="-8.182111740112305">
        <ele>447.0</ele>
        <time>2019-05-03T08:45:05.000Z</time>
      </trkpt>
      <trkpt lat="42.6826057434082" lon="-8.182175636291504">
        <ele>446.0</ele>
        <time>2019-05-03T08:45:09.000Z</time>
      </trkpt>
      <trkpt lat="42.6826171875" lon="-8.182229042053223">
        <ele>446.0</ele>
        <time>2019-05-03T08:45:13.000Z</time>
      </trkpt>
      <trkpt lat="42.68262481689453" lon="-8.18227767944336">
        <ele>446.0</ele>
        <time>2019-05-03T08:45:16.000Z</time>
      </trkpt>
      <trkpt lat="42.682647705078125" lon="-8.182372093200684">
        <ele>445.0</ele>
        <time>2019-05-03T08:45:24.000Z</time>
      </trkpt>
      <trkpt lat="42.682682037353516" lon="-8.18248176574707">
        <ele>444.0</ele>
        <time>2019-05-03T08:45:31.000Z</time>
      </trkpt>
      <trkpt lat="42.682716369628906" lon="-8.182600021362305">
        <ele>443.0</ele>
        <time>2019-05-03T08:45:39.000Z</time>
      </trkpt>
      <trkpt lat="42.68275451660156" lon="-8.182723045349121">
        <ele>441.0</ele>
        <time>2019-05-03T08:45:46.000Z</time>
      </trkpt>
      <trkpt lat="42.68278503417969" lon="-8.182836532592773">
        <ele>441.0</ele>
        <time>2019-05-03T08:45:55.000Z</time>
      </trkpt>
      <trkpt lat="42.68281936645508" lon="-8.182950973510742">
        <ele>440.0</ele>
        <time>2019-05-03T08:46:03.000Z</time>
      </trkpt>
      <trkpt lat="42.6828498840332" lon="-8.183065414428711">
        <ele>439.0</ele>
        <time>2019-05-03T08:46:11.000Z</time>
      </trkpt>
      <trkpt lat="42.682884216308594" lon="-8.183180809020996">
        <ele>439.0</ele>
        <time>2019-05-03T08:46:19.000Z</time>
      </trkpt>
      <trkpt lat="42.68291473388672" lon="-8.183295249938965">
        <ele>438.0</ele>
        <time>2019-05-03T08:46:27.000Z</time>
      </trkpt>
      <trkpt lat="42.682945251464844" lon="-8.183409690856934">
        <ele>438.0</ele>
        <time>2019-05-03T08:46:35.000Z</time>
      </trkpt>
      <trkpt lat="42.6829719543457" lon="-8.183524131774902">
        <ele>438.0</ele>
        <time>2019-05-03T08:46:43.000Z</time>
      </trkpt>
      <trkpt lat="42.68300247192383" lon="-8.183638572692871">
        <ele>439.0</ele>
        <time>2019-05-03T08:46:50.000Z</time>
      </trkpt>
      <trkpt lat="42.6831169128418" lon="-8.183916091918945">
        <ele>441.0</ele>
        <time>2019-05-03T08:47:13.000Z</time>
      </trkpt>
      <trkpt lat="42.68311309814453" lon="-8.183971405029297">
        <ele>442.0</ele>
        <time>2019-05-03T08:47:17.000Z</time>
      </trkpt>
      <trkpt lat="42.683101654052734" lon="-8.184020042419434">
        <ele>443.0</ele>
        <time>2019-05-03T08:47:21.000Z</time>
      </trkpt>
      <trkpt lat="42.683074951171875" lon="-8.184064865112305">
        <ele>444.0</ele>
        <time>2019-05-03T08:47:25.000Z</time>
      </trkpt>
      <trkpt lat="42.683048248291016" lon="-8.184106826782227">
        <ele>445.0</ele>
        <time>2019-05-03T08:47:29.000Z</time>
      </trkpt>
      <trkpt lat="42.68304443359375" lon="-8.1841459274292">
        <ele>446.0</ele>
        <time>2019-05-03T08:47:32.000Z</time>
      </trkpt>
      <trkpt lat="42.68305587768555" lon="-8.184158325195312">
        <ele>445.0</ele>
        <time>2019-05-03T08:47:34.000Z</time>
      </trkpt>
      <trkpt lat="42.68305587768555" lon="-8.18416690826416">
        <ele>445.0</ele>
        <time>2019-05-03T08:47:39.000Z</time>
      </trkpt>
      <trkpt lat="42.68305587768555" lon="-8.184172630310059">
        <ele>445.0</ele>
        <time>2019-05-03T08:47:43.000Z</time>
      </trkpt>
      <trkpt lat="42.68305587768555" lon="-8.18417739868164">
        <ele>445.0</ele>
        <time>2019-05-03T08:47:47.000Z</time>
      </trkpt>
      <trkpt lat="42.68305587768555" lon="-8.184182167053223">
        <ele>444.0</ele>
        <time>2019-05-03T08:47:51.000Z</time>
      </trkpt>
      <trkpt lat="42.68305969238281" lon="-8.184186935424805">
        <ele>444.0</ele>
        <time>2019-05-03T08:47:52.000Z</time>
      </trkpt>
      <trkpt lat="42.68305969238281" lon="-8.184191703796387">
        <ele>444.0</ele>
        <time>2019-05-03T08:47:52.000Z</time>
      </trkpt>
      <trkpt lat="42.68305969238281" lon="-8.184196472167969">
        <ele>444.0</ele>
        <time>2019-05-03T08:47:52.000Z</time>
      </trkpt>
      <trkpt lat="42.68305969238281" lon="-8.18420124053955">
        <ele>444.0</ele>
        <time>2019-05-03T08:47:52.000Z</time>
      </trkpt>
      <trkpt lat="42.68306350708008" lon="-8.184212684631348">
        <ele>444.0</ele>
        <time>2019-05-03T08:47:53.000Z</time>
      </trkpt>
      <trkpt lat="42.68306350708008" lon="-8.184226036071777">
        <ele>444.0</ele>
        <time>2019-05-03T08:47:54.000Z</time>
      </trkpt>
      <trkpt lat="42.683067321777344" lon="-8.18424129486084">
        <ele>444.0</ele>
        <time>2019-05-03T08:47:55.000Z</time>
      </trkpt>
      <trkpt lat="42.683067321777344" lon="-8.184258460998535">
        <ele>444.0</ele>
        <time>2019-05-03T08:47:55.000Z</time>
      </trkpt>
      <trkpt lat="42.683067321777344" lon="-8.184293746948242">
        <ele>444.0</ele>
        <time>2019-05-03T08:47:57.000Z</time>
      </trkpt>
      <trkpt lat="42.683067321777344" lon="-8.184338569641113">
        <ele>444.0</ele>
        <time>2019-05-03T08:47:58.000Z</time>
      </trkpt>
      <trkpt lat="42.683067321777344" lon="-8.1843900680542">
        <ele>444.0</ele>
        <time>2019-05-03T08:48:00.000Z</time>
      </trkpt>
      <trkpt lat="42.683067321777344" lon="-8.184443473815918">
        <ele>444.0</ele>
        <time>2019-05-03T08:48:01.000Z</time>
      </trkpt>
      <trkpt lat="42.68307113647461" lon="-8.184467315673828">
        <ele>443.0</ele>
        <time>2019-05-03T08:48:02.000Z</time>
      </trkpt>
      <trkpt lat="42.68307113647461" lon="-8.184480667114258">
        <ele>443.0</ele>
        <time>2019-05-03T08:48:02.000Z</time>
      </trkpt>
      <trkpt lat="42.68307113647461" lon="-8.184487342834473">
        <ele>443.0</ele>
        <time>2019-05-03T08:48:02.000Z</time>
      </trkpt>
      <trkpt lat="42.68307113647461" lon="-8.184491157531738">
        <ele>444.0</ele>
        <time>2019-05-03T08:48:02.000Z</time>
      </trkpt>
      <trkpt lat="42.68305969238281" lon="-8.184629440307617">
        <ele>442.0</ele>
        <time>2019-05-03T08:48:09.000Z</time>
      </trkpt>
      <trkpt lat="42.68306350708008" lon="-8.18464469909668">
        <ele>441.0</ele>
        <time>2019-05-03T08:48:30.000Z</time>
      </trkpt>
      <trkpt lat="42.683067321777344" lon="-8.18465805053711">
        <ele>441.0</ele>
        <time>2019-05-03T08:48:31.000Z</time>
      </trkpt>
      <trkpt lat="42.683109283447266" lon="-8.185086250305176">
        <ele>441.0</ele>
        <time>2019-05-03T08:48:46.000Z</time>
      </trkpt>
      <trkpt lat="42.68311309814453" lon="-8.185148239135742">
        <ele>441.0</ele>
        <time>2019-05-03T08:49:04.000Z</time>
      </trkpt>
      <trkpt lat="42.6831169128418" lon="-8.185190200805664">
        <ele>441.0</ele>
        <time>2019-05-03T08:49:05.000Z</time>
      </trkpt>
      <trkpt lat="42.683128356933594" lon="-8.185647010803223">
        <ele>442.0</ele>
        <time>2019-05-03T08:49:23.000Z</time>
      </trkpt>
      <trkpt lat="42.68312454223633" lon="-8.185677528381348">
        <ele>440.0</ele>
        <time>2019-05-03T08:49:26.000Z</time>
      </trkpt>
      <trkpt lat="42.6831169128418" lon="-8.185747146606445">
        <ele>433.0</ele>
        <time>2019-05-03T08:49:43.000Z</time>
      </trkpt>
      <trkpt lat="42.683109283447266" lon="-8.185789108276367">
        <ele>433.0</ele>
        <time>2019-05-03T08:49:44.000Z</time>
      </trkpt>
      <trkpt lat="42.68312454223633" lon="-8.18626594543457">
        <ele>433.0</ele>
        <time>2019-05-03T08:50:04.000Z</time>
      </trkpt>
      <trkpt lat="42.68315887451172" lon="-8.186742782592773">
        <ele>432.0</ele>
        <time>2019-05-03T08:50:35.000Z</time>
      </trkpt>
      <trkpt lat="42.68319320678711" lon="-8.187225341796875">
        <ele>432.0</ele>
        <time>2019-05-03T08:51:07.000Z</time>
      </trkpt>
      <trkpt lat="42.68315505981445" lon="-8.187457084655762">
        <ele>431.0</ele>
        <time>2019-05-03T08:51:23.000Z</time>
      </trkpt>
      <trkpt lat="42.68309020996094" lon="-8.187684059143066">
        <ele>431.0</ele>
        <time>2019-05-03T08:51:39.000Z</time>
      </trkpt>
      <trkpt lat="42.683074951171875" lon="-8.18780517578125">
        <ele>430.0</ele>
        <time>2019-05-03T08:51:46.000Z</time>
      </trkpt>
      <trkpt lat="42.68306350708008" lon="-8.18792724609375">
        <ele>429.0</ele>
        <time>2019-05-03T08:51:54.000Z</time>
      </trkpt>
      <trkpt lat="42.68305587768555" lon="-8.188051223754883">
        <ele>427.0</ele>
        <time>2019-05-03T08:52:01.000Z</time>
      </trkpt>
      <trkpt lat="42.68305206298828" lon="-8.188176155090332">
        <ele>426.0</ele>
        <time>2019-05-03T08:52:09.000Z</time>
      </trkpt>
      <trkpt lat="42.68305206298828" lon="-8.188268661499023">
        <ele>426.0</ele>
        <time>2019-05-03T08:52:15.000Z</time>
      </trkpt>
      <trkpt lat="42.68305969238281" lon="-8.188347816467285">
        <ele>426.0</ele>
        <time>2019-05-03T08:52:21.000Z</time>
      </trkpt>
      <trkpt lat="42.68307113647461" lon="-8.1884183883667">
        <ele>426.0</ele>
        <time>2019-05-03T08:52:28.000Z</time>
      </trkpt>
      <trkpt lat="42.683082580566406" lon="-8.188485145568848">
        <ele>427.0</ele>
        <time>2019-05-03T08:52:34.000Z</time>
      </trkpt>
      <trkpt lat="42.68308639526367" lon="-8.188520431518555">
        <ele>427.0</ele>
        <time>2019-05-03T08:52:40.000Z</time>
      </trkpt>
      <trkpt lat="42.68308639526367" lon="-8.188539505004883">
        <ele>427.0</ele>
        <time>2019-05-03T08:52:46.000Z</time>
      </trkpt>
      <trkpt lat="42.683082580566406" lon="-8.188547134399414">
        <ele>428.0</ele>
        <time>2019-05-03T08:52:52.000Z</time>
      </trkpt>
      <trkpt lat="42.683082580566406" lon="-8.18854808807373">
        <ele>428.0</ele>
        <time>2019-05-03T08:52:58.000Z</time>
      </trkpt>
      <trkpt lat="42.683082580566406" lon="-8.188560485839844">
        <ele>428.0</ele>
        <time>2019-05-03T08:52:58.000Z</time>
      </trkpt>
      <trkpt lat="42.68307876586914" lon="-8.188570976257324">
        <ele>428.0</ele>
        <time>2019-05-03T08:52:58.000Z</time>
      </trkpt>
      <trkpt lat="42.68307876586914" lon="-8.188580513000488">
        <ele>428.0</ele>
        <time>2019-05-03T08:52:59.000Z</time>
      </trkpt>
      <trkpt lat="42.68307876586914" lon="-8.188589096069336">
        <ele>428.0</ele>
        <time>2019-05-03T08:52:59.000Z</time>
      </trkpt>
      <trkpt lat="42.68307113647461" lon="-8.188673973083496">
        <ele>428.0</ele>
        <time>2019-05-03T08:53:03.000Z</time>
      </trkpt>
      <trkpt lat="42.68305969238281" lon="-8.188789367675781">
        <ele>429.0</ele>
        <time>2019-05-03T08:53:08.000Z</time>
      </trkpt>
      <trkpt lat="42.68304443359375" lon="-8.188925743103027">
        <ele>429.0</ele>
        <time>2019-05-03T08:53:12.000Z</time>
      </trkpt>
      <trkpt lat="42.68302917480469" lon="-8.18907356262207">
        <ele>429.0</ele>
        <time>2019-05-03T08:53:17.000Z</time>
      </trkpt>
      <trkpt lat="42.682960510253906" lon="-8.18954849243164">
        <ele>423.0</ele>
        <time>2019-05-03T08:53:49.000Z</time>
      </trkpt>
      <trkpt lat="42.68293380737305" lon="-8.190032958984375">
        <ele>424.0</ele>
        <time>2019-05-03T08:54:19.000Z</time>
      </trkpt>
      <trkpt lat="42.6828727722168" lon="-8.190524101257324">
        <ele>422.0</ele>
        <time>2019-05-03T08:54:47.000Z</time>
      </trkpt>
      <trkpt lat="42.68272018432617" lon="-8.190974235534668">
        <ele>424.0</ele>
        <time>2019-05-03T08:55:17.000Z</time>
      </trkpt>
      <trkpt lat="42.68256759643555" lon="-8.191418647766113">
        <ele>427.0</ele>
        <time>2019-05-03T08:55:45.000Z</time>
      </trkpt>
      <trkpt lat="42.68241882324219" lon="-8.191863059997559">
        <ele>423.0</ele>
        <time>2019-05-03T08:56:16.000Z</time>
      </trkpt>
      <trkpt lat="42.68232727050781" lon="-8.192222595214844">
        <ele>426.0</ele>
        <time>2019-05-03T08:56:43.000Z</time>
      </trkpt>
      <trkpt lat="42.68224334716797" lon="-8.192442893981934">
        <ele>425.0</ele>
        <time>2019-05-03T08:57:04.000Z</time>
      </trkpt>
      <trkpt lat="42.682220458984375" lon="-8.19253158569336">
        <ele>423.0</ele>
        <time>2019-05-03T08:57:19.000Z</time>
      </trkpt>
      <trkpt lat="42.682193756103516" lon="-8.19267749786377">
        <ele>425.0</ele>
        <time>2019-05-03T08:57:40.000Z</time>
      </trkpt>
      <trkpt lat="42.682186126708984" lon="-8.192721366882324">
        <ele>425.0</ele>
        <time>2019-05-03T08:57:41.000Z</time>
      </trkpt>
      <trkpt lat="42.682151794433594" lon="-8.192971229553223">
        <ele>425.0</ele>
        <time>2019-05-03T08:57:52.000Z</time>
      </trkpt>
      <trkpt lat="42.68205642700195" lon="-8.193449020385742">
        <ele>425.0</ele>
        <time>2019-05-03T08:58:26.000Z</time>
      </trkpt>
      <trkpt lat="42.68199157714844" lon="-8.193930625915527">
        <ele>424.0</ele>
        <time>2019-05-03T08:58:58.000Z</time>
      </trkpt>
      <trkpt lat="42.68193817138672" lon="-8.194416999816895">
        <ele>430.0</ele>
        <time>2019-05-03T08:59:26.000Z</time>
      </trkpt>
      <trkpt lat="42.68180465698242" lon="-8.194876670837402">
        <ele>429.0</ele>
        <time>2019-05-03T08:59:54.000Z</time>
      </trkpt>
      <trkpt lat="42.68168258666992" lon="-8.195344924926758">
        <ele>424.0</ele>
        <time>2019-05-03T09:00:23.000Z</time>
      </trkpt>
      <trkpt lat="42.681636810302734" lon="-8.19563102722168">
        <ele>423.0</ele>
        <time>2019-05-03T09:00:42.000Z</time>
      </trkpt>
      <trkpt lat="42.681671142578125" lon="-8.195677757263184">
        <ele>423.0</ele>
        <time>2019-05-03T09:00:47.000Z</time>
      </trkpt>
      <trkpt lat="42.681724548339844" lon="-8.195713996887207">
        <ele>422.0</ele>
        <time>2019-05-03T09:00:52.000Z</time>
      </trkpt>
      <trkpt lat="42.68178939819336" lon="-8.1957426071167">
        <ele>421.0</ele>
        <time>2019-05-03T09:00:57.000Z</time>
      </trkpt>
      <trkpt lat="42.681861877441406" lon="-8.195769309997559">
        <ele>421.0</ele>
        <time>2019-05-03T09:01:02.000Z</time>
      </trkpt>
      <trkpt lat="42.68191146850586" lon="-8.195789337158203">
        <ele>420.0</ele>
        <time>2019-05-03T09:01:06.000Z</time>
      </trkpt>
      <trkpt lat="42.68196105957031" lon="-8.19580364227295">
        <ele>420.0</ele>
        <time>2019-05-03T09:01:09.000Z</time>
      </trkpt>
      <trkpt lat="42.6820068359375" lon="-8.19581413269043">
        <ele>420.0</ele>
        <time>2019-05-03T09:01:13.000Z</time>
      </trkpt>
      <trkpt lat="42.68205261230469" lon="-8.195822715759277">
        <ele>419.0</ele>
        <time>2019-05-03T09:01:17.000Z</time>
      </trkpt>
      <trkpt lat="42.682098388671875" lon="-8.195840835571289">
        <ele>420.0</ele>
        <time>2019-05-03T09:01:21.000Z</time>
      </trkpt>
      <trkpt lat="42.6821403503418" lon="-8.195860862731934">
        <ele>420.0</ele>
        <time>2019-05-03T09:01:24.000Z</time>
      </trkpt>
      <trkpt lat="42.68218231201172" lon="-8.195881843566895">
        <ele>421.0</ele>
        <time>2019-05-03T09:01:28.000Z</time>
      </trkpt>
      <trkpt lat="42.68222427368164" lon="-8.195904731750488">
        <ele>422.0</ele>
        <time>2019-05-03T09:01:32.000Z</time>
      </trkpt>
      <trkpt lat="42.68227005004883" lon="-8.195920944213867">
        <ele>423.0</ele>
        <time>2019-05-03T09:01:37.000Z</time>
      </trkpt>
      <trkpt lat="42.682315826416016" lon="-8.19593620300293">
        <ele>424.0</ele>
        <time>2019-05-03T09:01:42.000Z</time>
      </trkpt>
      <trkpt lat="42.68235778808594" lon="-8.19594955444336">
        <ele>424.0</ele>
        <time>2019-05-03T09:01:48.000Z</time>
      </trkpt>
      <trkpt lat="42.682403564453125" lon="-8.195962905883789">
        <ele>425.0</ele>
        <time>2019-05-03T09:01:53.000Z</time>
      </trkpt>
      <trkpt lat="42.68247985839844" lon="-8.195978164672852">
        <ele>426.0</ele>
        <time>2019-05-03T09:02:02.000Z</time>
      </trkpt>
      <trkpt lat="42.68256759643555" lon="-8.19599437713623">
        <ele>426.0</ele>
        <time>2019-05-03T09:02:11.000Z</time>
      </trkpt>
      <trkpt lat="42.68266296386719" lon="-8.19601058959961">
        <ele>426.0</ele>
        <time>2019-05-03T09:02:20.000Z</time>
      </trkpt>
      <trkpt lat="42.68276596069336" lon="-8.196027755737305">
        <ele>427.0</ele>
        <time>2019-05-03T09:02:29.000Z</time>
      </trkpt>
      <trkpt lat="42.68285369873047" lon="-8.196051597595215">
        <ele>426.0</ele>
        <time>2019-05-03T09:02:38.000Z</time>
      </trkpt>
      <trkpt lat="42.68294143676758" lon="-8.19607925415039">
        <ele>425.0</ele>
        <time>2019-05-03T09:02:47.000Z</time>
      </trkpt>
      <trkpt lat="42.68302917480469" lon="-8.196107864379883">
        <ele>424.0</ele>
        <time>2019-05-03T09:02:56.000Z</time>
      </trkpt>
      <trkpt lat="42.6831169128418" lon="-8.196138381958008">
        <ele>423.0</ele>
        <time>2019-05-03T09:03:05.000Z</time>
      </trkpt>
      <trkpt lat="42.68315887451172" lon="-8.196183204650879">
        <ele>422.0</ele>
        <time>2019-05-03T09:03:08.000Z</time>
      </trkpt>
      <trkpt lat="42.68317794799805" lon="-8.196234703063965">
        <ele>421.0</ele>
        <time>2019-05-03T09:03:12.000Z</time>
      </trkpt>
      <trkpt lat="42.68318557739258" lon="-8.196290969848633">
        <ele>421.0</ele>
        <time>2019-05-03T09:03:15.000Z</time>
      </trkpt>
      <trkpt lat="42.683189392089844" lon="-8.196349143981934">
        <ele>420.0</ele>
        <time>2019-05-03T09:03:19.000Z</time>
      </trkpt>
      <trkpt lat="42.68318176269531" lon="-8.196478843688965">
        <ele>418.0</ele>
        <time>2019-05-03T09:03:28.000Z</time>
      </trkpt>
      <trkpt lat="42.68315124511719" lon="-8.196619033813477">
        <ele>416.0</ele>
        <time>2019-05-03T09:03:38.000Z</time>
      </trkpt>
      <trkpt lat="42.68312072753906" lon="-8.1967134475708">
        <ele>415.0</ele>
        <time>2019-05-03T09:03:47.000Z</time>
      </trkpt>
      <trkpt lat="42.68308639526367" lon="-8.196820259094238">
        <ele>413.0</ele>
        <time>2019-05-03T09:03:55.000Z</time>
      </trkpt>
      <trkpt lat="42.683040618896484" lon="-8.196932792663574">
        <ele>412.0</ele>
        <time>2019-05-03T09:04:04.000Z</time>
      </trkpt>
      <trkpt lat="42.6829948425293" lon="-8.197050094604492">
        <ele>410.0</ele>
        <time>2019-05-03T09:04:13.000Z</time>
      </trkpt>
      <trkpt lat="42.682952880859375" lon="-8.197157859802246">
        <ele>409.0</ele>
        <time>2019-05-03T09:04:21.000Z</time>
      </trkpt>
      <trkpt lat="42.68290710449219" lon="-8.197263717651367">
        <ele>408.0</ele>
        <time>2019-05-03T09:04:29.000Z</time>
      </trkpt>
      <trkpt lat="42.682861328125" lon="-8.197370529174805">
        <ele>407.0</ele>
        <time>2019-05-03T09:04:37.000Z</time>
      </trkpt>
      <trkpt lat="42.68281555175781" lon="-8.197477340698242">
        <ele>406.0</ele>
        <time>2019-05-03T09:04:45.000Z</time>
      </trkpt>
      <trkpt lat="42.68278121948242" lon="-8.197588920593262">
        <ele>405.0</ele>
        <time>2019-05-03T09:04:53.000Z</time>
      </trkpt>
      <trkpt lat="42.68274688720703" lon="-8.19770336151123">
        <ele>404.0</ele>
        <time>2019-05-03T09:05:02.000Z</time>
      </trkpt>
      <trkpt lat="42.682716369628906" lon="-8.197819709777832">
        <ele>404.0</ele>
        <time>2019-05-03T09:05:10.000Z</time>
      </trkpt>
      <trkpt lat="42.68268585205078" lon="-8.197936058044434">
        <ele>403.0</ele>
        <time>2019-05-03T09:05:19.000Z</time>
      </trkpt>
      <trkpt lat="42.68265151977539" lon="-8.198046684265137">
        <ele>403.0</ele>
        <time>2019-05-03T09:05:26.000Z</time>
      </trkpt>
      <trkpt lat="42.68260955810547" lon="-8.19815444946289">
        <ele>403.0</ele>
        <time>2019-05-03T09:05:33.000Z</time>
      </trkpt>
      <trkpt lat="42.68257141113281" lon="-8.198261260986328">
        <ele>403.0</ele>
        <time>2019-05-03T09:05:40.000Z</time>
      </trkpt>
      <trkpt lat="42.682533264160156" lon="-8.198368072509766">
        <ele>403.0</ele>
        <time>2019-05-03T09:05:47.000Z</time>
      </trkpt>
      <trkpt lat="42.6824951171875" lon="-8.198477745056152">
        <ele>403.0</ele>
        <time>2019-05-03T09:05:55.000Z</time>
      </trkpt>
      <trkpt lat="42.682456970214844" lon="-8.198589324951172">
        <ele>404.0</ele>
        <time>2019-05-03T09:06:03.000Z</time>
      </trkpt>
      <trkpt lat="42.68241882324219" lon="-8.198700904846191">
        <ele>405.0</ele>
        <time>2019-05-03T09:06:11.000Z</time>
      </trkpt>
      <trkpt lat="42.68238067626953" lon="-8.198812484741211">
        <ele>406.0</ele>
        <time>2019-05-03T09:06:19.000Z</time>
      </trkpt>
      <trkpt lat="42.68223190307617" lon="-8.19925594329834">
        <ele>403.0</ele>
        <time>2019-05-03T09:06:50.000Z</time>
      </trkpt>
      <trkpt lat="42.68212127685547" lon="-8.199708938598633">
        <ele>401.0</ele>
        <time>2019-05-03T09:07:20.000Z</time>
      </trkpt>
      <trkpt lat="42.682071685791016" lon="-8.200196266174316">
        <ele>394.0</ele>
        <time>2019-05-03T09:07:50.000Z</time>
      </trkpt>
      <trkpt lat="42.682159423828125" lon="-8.200672149658203">
        <ele>389.0</ele>
        <time>2019-05-03T09:08:23.000Z</time>
      </trkpt>
      <trkpt lat="42.68214797973633" lon="-8.200777053833008">
        <ele>388.0</ele>
        <time>2019-05-03T09:08:33.000Z</time>
      </trkpt>
      <trkpt lat="42.682151794433594" lon="-8.200798988342285">
        <ele>387.0</ele>
        <time>2019-05-03T09:08:50.000Z</time>
      </trkpt>
      <trkpt lat="42.68215560913086" lon="-8.200817108154297">
        <ele>387.0</ele>
        <time>2019-05-03T09:08:51.000Z</time>
      </trkpt>
      <trkpt lat="42.682220458984375" lon="-8.201299667358398">
        <ele>391.0</ele>
        <time>2019-05-03T09:09:10.000Z</time>
      </trkpt>
      <trkpt lat="42.682350158691406" lon="-8.201753616333008">
        <ele>390.0</ele>
        <time>2019-05-03T09:09:36.000Z</time>
      </trkpt>
      <trkpt lat="42.68238830566406" lon="-8.202034950256348">
        <ele>392.0</ele>
        <time>2019-05-03T09:09:54.000Z</time>
      </trkpt>
      <trkpt lat="42.68238830566406" lon="-8.202068328857422">
        <ele>390.0</ele>
        <time>2019-05-03T09:10:08.000Z</time>
      </trkpt>
      <trkpt lat="42.68238830566406" lon="-8.202094078063965">
        <ele>390.0</ele>
        <time>2019-05-03T09:10:09.000Z</time>
      </trkpt>
      <trkpt lat="42.68235778808594" lon="-8.2025728225708">
        <ele>390.0</ele>
        <time>2019-05-03T09:10:29.000Z</time>
      </trkpt>
      <trkpt lat="42.6823616027832" lon="-8.20302963256836">
        <ele>387.0</ele>
        <time>2019-05-03T09:10:56.000Z</time>
      </trkpt>
      <trkpt lat="42.68230056762695" lon="-8.20349407196045">
        <ele>381.0</ele>
        <time>2019-05-03T09:11:23.000Z</time>
      </trkpt>
      <trkpt lat="42.682315826416016" lon="-8.203975677490234">
        <ele>379.0</ele>
        <time>2019-05-03T09:11:55.000Z</time>
      </trkpt>
      <trkpt lat="42.68246841430664" lon="-8.204419136047363">
        <ele>376.0</ele>
        <time>2019-05-03T09:12:23.000Z</time>
      </trkpt>
      <trkpt lat="42.68250274658203" lon="-8.204680442810059">
        <ele>384.0</ele>
        <time>2019-05-03T09:12:40.000Z</time>
      </trkpt>
      <trkpt lat="42.68267059326172" lon="-8.20510482788086">
        <ele>390.0</ele>
        <time>2019-05-03T09:13:08.000Z</time>
      </trkpt>
      <trkpt lat="42.68268966674805" lon="-8.205232620239258">
        <ele>391.0</ele>
        <time>2019-05-03T09:13:15.000Z</time>
      </trkpt>
      <trkpt lat="42.682674407958984" lon="-8.205321311950684">
        <ele>391.0</ele>
        <time>2019-05-03T09:13:22.000Z</time>
      </trkpt>
      <trkpt lat="42.68265151977539" lon="-8.205375671386719">
        <ele>391.0</ele>
        <time>2019-05-03T09:13:27.000Z</time>
      </trkpt>
      <trkpt lat="42.6826171875" lon="-8.205431938171387">
        <ele>391.0</ele>
        <time>2019-05-03T09:13:31.000Z</time>
      </trkpt>
      <trkpt lat="42.682579040527344" lon="-8.205487251281738">
        <ele>391.0</ele>
        <time>2019-05-03T09:13:35.000Z</time>
      </trkpt>
      <trkpt lat="42.682533264160156" lon="-8.205543518066406">
        <ele>391.0</ele>
        <time>2019-05-03T09:13:39.000Z</time>
      </trkpt>
      <trkpt lat="42.68239212036133" lon="-8.205648422241211">
        <ele>390.0</ele>
        <time>2019-05-03T09:13:54.000Z</time>
      </trkpt>
      <trkpt lat="42.68221664428711" lon="-8.20574951171875">
        <ele>390.0</ele>
        <time>2019-05-03T09:14:08.000Z</time>
      </trkpt>
      <trkpt lat="42.682132720947266" lon="-8.20578670501709">
        <ele>390.0</ele>
        <time>2019-05-03T09:14:16.000Z</time>
      </trkpt>
      <trkpt lat="42.682044982910156" lon="-8.205817222595215">
        <ele>390.0</ele>
        <time>2019-05-03T09:14:23.000Z</time>
      </trkpt>
      <trkpt lat="42.68195724487305" lon="-8.205842971801758">
        <ele>390.0</ele>
        <time>2019-05-03T09:14:31.000Z</time>
      </trkpt>
      <trkpt lat="42.68186950683594" lon="-8.205866813659668">
        <ele>390.0</ele>
        <time>2019-05-03T09:14:38.000Z</time>
      </trkpt>
      <trkpt lat="42.68169403076172" lon="-8.205839157104492">
        <ele>388.0</ele>
        <time>2019-05-03T09:14:55.000Z</time>
      </trkpt>
      <trkpt lat="42.6815185546875" lon="-8.205771446228027">
        <ele>387.0</ele>
        <time>2019-05-03T09:15:11.000Z</time>
      </trkpt>
      <trkpt lat="42.68148422241211" lon="-8.205766677856445">
        <ele>386.0</ele>
        <time>2019-05-03T09:15:14.000Z</time>
      </trkpt>
      <trkpt lat="42.68147277832031" lon="-8.205769538879395">
        <ele>386.0</ele>
        <time>2019-05-03T09:15:16.000Z</time>
      </trkpt>
      <trkpt lat="42.68147277832031" lon="-8.205778121948242">
        <ele>386.0</ele>
        <time>2019-05-03T09:15:18.000Z</time>
      </trkpt>
      <trkpt lat="42.68148422241211" lon="-8.205789566040039">
        <ele>386.0</ele>
        <time>2019-05-03T09:15:20.000Z</time>
      </trkpt>
      <trkpt lat="42.68147277832031" lon="-8.205793380737305">
        <ele>386.0</ele>
        <time>2019-05-03T09:15:51.000Z</time>
      </trkpt>
      <trkpt lat="42.681461334228516" lon="-8.205798149108887">
        <ele>385.0</ele>
        <time>2019-05-03T09:16:21.000Z</time>
      </trkpt>
      <trkpt lat="42.68144989013672" lon="-8.205801963806152">
        <ele>384.0</ele>
        <time>2019-05-03T09:16:51.000Z</time>
      </trkpt>
      <trkpt lat="42.681434631347656" lon="-8.205805778503418">
        <ele>384.0</ele>
        <time>2019-05-03T09:17:21.000Z</time>
      </trkpt>
      <trkpt lat="42.681427001953125" lon="-8.205808639526367">
        <ele>383.0</ele>
        <time>2019-05-03T09:17:22.000Z</time>
      </trkpt>
      <trkpt lat="42.681419372558594" lon="-8.205811500549316">
        <ele>383.0</ele>
        <time>2019-05-03T09:17:22.000Z</time>
      </trkpt>
      <trkpt lat="42.68141174316406" lon="-8.205814361572266">
        <ele>383.0</ele>
        <time>2019-05-03T09:17:22.000Z</time>
      </trkpt>
      <trkpt lat="42.6814079284668" lon="-8.205816268920898">
        <ele>384.0</ele>
        <time>2019-05-03T09:17:22.000Z</time>
      </trkpt>
      <trkpt lat="42.681373596191406" lon="-8.205828666687012">
        <ele>383.0</ele>
        <time>2019-05-03T09:17:24.000Z</time>
      </trkpt>
      <trkpt lat="42.681331634521484" lon="-8.20584487915039">
        <ele>383.0</ele>
        <time>2019-05-03T09:17:25.000Z</time>
      </trkpt>
      <trkpt lat="42.6812858581543" lon="-8.205863952636719">
        <ele>383.0</ele>
        <time>2019-05-03T09:17:27.000Z</time>
      </trkpt>
      <trkpt lat="42.68123245239258" lon="-8.20588493347168">
        <ele>383.0</ele>
        <time>2019-05-03T09:17:28.000Z</time>
      </trkpt>
      <trkpt lat="42.68120193481445" lon="-8.205934524536133">
        <ele>383.0</ele>
        <time>2019-05-03T09:17:33.000Z</time>
      </trkpt>
      <trkpt lat="42.68117904663086" lon="-8.205998420715332">
        <ele>383.0</ele>
        <time>2019-05-03T09:17:37.000Z</time>
      </trkpt>
      <trkpt lat="42.68115997314453" lon="-8.206070899963379">
        <ele>383.0</ele>
        <time>2019-05-03T09:17:41.000Z</time>
      </trkpt>
      <trkpt lat="42.68114471435547" lon="-8.206148147583008">
        <ele>382.0</ele>
        <time>2019-05-03T09:17:45.000Z</time>
      </trkpt>
      <trkpt lat="42.68112564086914" lon="-8.20617961883545">
        <ele>382.0</ele>
        <time>2019-05-03T09:17:49.000Z</time>
      </trkpt>
      <trkpt lat="42.681114196777344" lon="-8.206196784973145">
        <ele>382.0</ele>
        <time>2019-05-03T09:17:52.000Z</time>
      </trkpt>
      <trkpt lat="42.68110275268555" lon="-8.206204414367676">
        <ele>381.0</ele>
        <time>2019-05-03T09:17:55.000Z</time>
      </trkpt>
      <trkpt lat="42.68109130859375" lon="-8.206207275390625">
        <ele>381.0</ele>
        <time>2019-05-03T09:17:58.000Z</time>
      </trkpt>
      <trkpt lat="42.68108367919922" lon="-8.206214904785156">
        <ele>380.0</ele>
        <time>2019-05-03T09:18:05.000Z</time>
      </trkpt>
      <trkpt lat="42.68107604980469" lon="-8.206219673156738">
        <ele>379.0</ele>
        <time>2019-05-03T09:18:12.000Z</time>
      </trkpt>
      <trkpt lat="42.68107223510742" lon="-8.206221580505371">
        <ele>378.0</ele>
        <time>2019-05-03T09:18:19.000Z</time>
      </trkpt>
      <trkpt lat="42.681068420410156" lon="-8.206222534179688">
        <ele>376.0</ele>
        <time>2019-05-03T09:18:26.000Z</time>
      </trkpt>
      <trkpt lat="42.681060791015625" lon="-8.206225395202637">
        <ele>376.0</ele>
        <time>2019-05-03T09:18:26.000Z</time>
      </trkpt>
      <trkpt lat="42.68105697631836" lon="-8.206229209899902">
        <ele>376.0</ele>
        <time>2019-05-03T09:18:26.000Z</time>
      </trkpt>
      <trkpt lat="42.681053161621094" lon="-8.206232070922852">
        <ele>376.0</ele>
        <time>2019-05-03T09:18:27.000Z</time>
      </trkpt>
      <trkpt lat="42.68104553222656" lon="-8.2062349319458">
        <ele>376.0</ele>
        <time>2019-05-03T09:18:27.000Z</time>
      </trkpt>
      <trkpt lat="42.6810302734375" lon="-8.20624828338623">
        <ele>376.0</ele>
        <time>2019-05-03T09:18:28.000Z</time>
      </trkpt>
      <trkpt lat="42.681007385253906" lon="-8.206266403198242">
        <ele>376.0</ele>
        <time>2019-05-03T09:18:28.000Z</time>
      </trkpt>
      <trkpt lat="42.68098068237305" lon="-8.206287384033203">
        <ele>376.0</ele>
        <time>2019-05-03T09:18:29.000Z</time>
      </trkpt>
      <trkpt lat="42.68095397949219" lon="-8.206310272216797">
        <ele>376.0</ele>
        <time>2019-05-03T09:18:30.000Z</time>
      </trkpt>
      <trkpt lat="42.680938720703125" lon="-8.206324577331543">
        <ele>376.0</ele>
        <time>2019-05-03T09:18:30.000Z</time>
      </trkpt>
      <trkpt lat="42.68092346191406" lon="-8.206336975097656">
        <ele>376.0</ele>
        <time>2019-05-03T09:18:30.000Z</time>
      </trkpt>
      <trkpt lat="42.680912017822266" lon="-8.206348419189453">
        <ele>376.0</ele>
        <time>2019-05-03T09:18:31.000Z</time>
      </trkpt>
      <trkpt lat="42.68090057373047" lon="-8.206358909606934">
        <ele>376.0</ele>
        <time>2019-05-03T09:18:31.000Z</time>
      </trkpt>
      <trkpt lat="42.68082809448242" lon="-8.206355094909668">
        <ele>376.0</ele>
        <time>2019-05-03T09:18:39.000Z</time>
      </trkpt>
      <trkpt lat="42.68073272705078" lon="-8.206339836120605">
        <ele>375.0</ele>
        <time>2019-05-03T09:18:46.000Z</time>
      </trkpt>
      <trkpt lat="42.680721282958984" lon="-8.206353187561035">
        <ele>375.0</ele>
        <time>2019-05-03T09:18:49.000Z</time>
      </trkpt>
      <trkpt lat="42.68072509765625" lon="-8.206374168395996">
        <ele>376.0</ele>
        <time>2019-05-03T09:18:52.000Z</time>
      </trkpt>
      <trkpt lat="42.68074035644531" lon="-8.206399917602539">
        <ele>377.0</ele>
        <time>2019-05-03T09:18:54.000Z</time>
      </trkpt>
      <trkpt lat="42.680755615234375" lon="-8.206428527832031">
        <ele>379.0</ele>
        <time>2019-05-03T09:18:57.000Z</time>
      </trkpt>
      <trkpt lat="42.680755615234375" lon="-8.206438064575195">
        <ele>379.0</ele>
        <time>2019-05-03T09:19:01.000Z</time>
      </trkpt>
      <trkpt lat="42.68075180053711" lon="-8.206442832946777">
        <ele>378.0</ele>
        <time>2019-05-03T09:19:04.000Z</time>
      </trkpt>
      <trkpt lat="42.68074417114258" lon="-8.206443786621094">
        <ele>377.0</ele>
        <time>2019-05-03T09:19:08.000Z</time>
      </trkpt>
      <trkpt lat="42.68073654174805" lon="-8.206442832946777">
        <ele>377.0</ele>
        <time>2019-05-03T09:19:11.000Z</time>
      </trkpt>
      <trkpt lat="42.68073272705078" lon="-8.206445693969727">
        <ele>376.0</ele>
        <time>2019-05-03T09:19:11.000Z</time>
      </trkpt>
      <trkpt lat="42.680728912353516" lon="-8.206448554992676">
        <ele>376.0</ele>
        <time>2019-05-03T09:19:12.000Z</time>
      </trkpt>
      <trkpt lat="42.680721282958984" lon="-8.206450462341309">
        <ele>376.0</ele>
        <time>2019-05-03T09:19:12.000Z</time>
      </trkpt>
      <trkpt lat="42.68071746826172" lon="-8.206453323364258">
        <ele>377.0</ele>
        <time>2019-05-03T09:19:12.000Z</time>
      </trkpt>
      <trkpt lat="42.680667877197266" lon="-8.206504821777344">
        <ele>378.0</ele>
        <time>2019-05-03T09:19:16.000Z</time>
      </trkpt>
      <trkpt lat="42.68059539794922" lon="-8.206575393676758">
        <ele>380.0</ele>
        <time>2019-05-03T09:19:21.000Z</time>
      </trkpt>
      <trkpt lat="42.68050765991211" lon="-8.206660270690918">
        <ele>382.0</ele>
        <time>2019-05-03T09:19:25.000Z</time>
      </trkpt>
      <trkpt lat="42.680416107177734" lon="-8.206751823425293">
        <ele>384.0</ele>
        <time>2019-05-03T09:19:29.000Z</time>
      </trkpt>
      <trkpt lat="42.68033981323242" lon="-8.206816673278809">
        <ele>384.0</ele>
        <time>2019-05-03T09:19:37.000Z</time>
      </trkpt>
      <trkpt lat="42.680267333984375" lon="-8.206876754760742">
        <ele>382.0</ele>
        <time>2019-05-03T09:19:45.000Z</time>
      </trkpt>
      <trkpt lat="42.68019485473633" lon="-8.206933975219727">
        <ele>379.0</ele>
        <time>2019-05-03T09:19:53.000Z</time>
      </trkpt>
      <trkpt lat="42.68012237548828" lon="-8.206990242004395">
        <ele>376.0</ele>
        <time>2019-05-03T09:20:02.000Z</time>
      </trkpt>
      <trkpt lat="42.68008041381836" lon="-8.20703125">
        <ele>374.0</ele>
        <time>2019-05-03T09:20:07.000Z</time>
      </trkpt>
      <trkpt lat="42.680057525634766" lon="-8.20706558227539">
        <ele>371.0</ele>
        <time>2019-05-03T09:20:13.000Z</time>
      </trkpt>
      <trkpt lat="42.68003845214844" lon="-8.207094192504883">
        <ele>368.0</ele>
        <time>2019-05-03T09:20:18.000Z</time>
      </trkpt>
      <trkpt lat="42.68002700805664" lon="-8.207120895385742">
        <ele>365.0</ele>
        <time>2019-05-03T09:20:24.000Z</time>
      </trkpt>
      <trkpt lat="42.680015563964844" lon="-8.207137107849121">
        <ele>364.0</ele>
        <time>2019-05-03T09:20:24.000Z</time>
      </trkpt>
      <trkpt lat="42.68001174926758" lon="-8.207145690917969">
        <ele>364.0</ele>
        <time>2019-05-03T09:20:24.000Z</time>
      </trkpt>
      <trkpt lat="42.68000793457031" lon="-8.20715045928955">
        <ele>365.0</ele>
        <time>2019-05-03T09:20:24.000Z</time>
      </trkpt>
      <trkpt lat="42.68000411987305" lon="-8.2071533203125">
        <ele>365.0</ele>
        <time>2019-05-03T09:20:25.000Z</time>
      </trkpt>
      <trkpt lat="42.679927825927734" lon="-8.207432746887207">
        <ele>364.0</ele>
        <time>2019-05-03T09:20:41.000Z</time>
      </trkpt>
      <trkpt lat="42.679771423339844" lon="-8.207612037658691">
        <ele>364.0</ele>
        <time>2019-05-03T09:21:10.000Z</time>
      </trkpt>
      <trkpt lat="42.67955780029297" lon="-8.207808494567871">
        <ele>366.0</ele>
        <time>2019-05-03T09:21:39.000Z</time>
      </trkpt>
      <trkpt lat="42.67952346801758" lon="-8.207877159118652">
        <ele>366.0</ele>
        <time>2019-05-03T09:21:43.000Z</time>
      </trkpt>
      <trkpt lat="42.67951583862305" lon="-8.207935333251953">
        <ele>366.0</ele>
        <time>2019-05-03T09:21:47.000Z</time>
      </trkpt>
      <trkpt lat="42.67951965332031" lon="-8.207987785339355">
        <ele>365.0</ele>
        <time>2019-05-03T09:21:51.000Z</time>
      </trkpt>
      <trkpt lat="42.679534912109375" lon="-8.208035469055176">
        <ele>364.0</ele>
        <time>2019-05-03T09:21:55.000Z</time>
      </trkpt>
      <trkpt lat="42.67953109741211" lon="-8.208135604858398">
        <ele>362.0</ele>
        <time>2019-05-03T09:22:07.000Z</time>
      </trkpt>
      <trkpt lat="42.679527282714844" lon="-8.208252906799316">
        <ele>358.0</ele>
        <time>2019-05-03T09:22:20.000Z</time>
      </trkpt>
      <trkpt lat="42.679527282714844" lon="-8.208382606506348">
        <ele>355.0</ele>
        <time>2019-05-03T09:22:32.000Z</time>
      </trkpt>
      <trkpt lat="42.67952346801758" lon="-8.208518981933594">
        <ele>351.0</ele>
        <time>2019-05-03T09:22:45.000Z</time>
      </trkpt>
      <trkpt lat="42.67953109741211" lon="-8.208590507507324">
        <ele>349.0</ele>
        <time>2019-05-03T09:22:46.000Z</time>
      </trkpt>
      <trkpt lat="42.67953872680664" lon="-8.208641052246094">
        <ele>347.0</ele>
        <time>2019-05-03T09:22:48.000Z</time>
      </trkpt>
      <trkpt lat="42.67955017089844" lon="-8.208678245544434">
        <ele>346.0</ele>
        <time>2019-05-03T09:22:50.000Z</time>
      </trkpt>
      <trkpt lat="42.679561614990234" lon="-8.208708763122559">
        <ele>345.0</ele>
        <time>2019-05-03T09:22:52.000Z</time>
      </trkpt>
      <trkpt lat="42.67959213256836" lon="-8.20877456665039">
        <ele>345.0</ele>
        <time>2019-05-03T09:22:59.000Z</time>
      </trkpt>
      <trkpt lat="42.67962646484375" lon="-8.208846092224121">
        <ele>345.0</ele>
        <time>2019-05-03T09:23:06.000Z</time>
      </trkpt>
      <trkpt lat="42.67966842651367" lon="-8.20892333984375">
        <ele>346.0</ele>
        <time>2019-05-03T09:23:13.000Z</time>
      </trkpt>
      <trkpt lat="42.679710388183594" lon="-8.209003448486328">
        <ele>348.0</ele>
        <time>2019-05-03T09:23:20.000Z</time>
      </trkpt>
      <trkpt lat="42.67973327636719" lon="-8.20908260345459">
        <ele>348.0</ele>
        <time>2019-05-03T09:23:21.000Z</time>
      </trkpt>
      <trkpt lat="42.679752349853516" lon="-8.209163665771484">
        <ele>347.0</ele>
        <time>2019-05-03T09:23:22.000Z</time>
      </trkpt>
      <trkpt lat="42.67976379394531" lon="-8.209245681762695">
        <ele>347.0</ele>
        <time>2019-05-03T09:23:23.000Z</time>
      </trkpt>
      <trkpt lat="42.679779052734375" lon="-8.209329605102539">
        <ele>346.0</ele>
        <time>2019-05-03T09:23:25.000Z</time>
      </trkpt>
      <trkpt lat="42.67975997924805" lon="-8.20936393737793">
        <ele>346.0</ele>
        <time>2019-05-03T09:23:26.000Z</time>
      </trkpt>
      <trkpt lat="42.67972946166992" lon="-8.209379196166992">
        <ele>346.0</ele>
        <time>2019-05-03T09:23:28.000Z</time>
      </trkpt>
      <trkpt lat="42.679691314697266" lon="-8.209380149841309">
        <ele>346.0</ele>
        <time>2019-05-03T09:23:29.000Z</time>
      </trkpt>
      <trkpt lat="42.679649353027344" lon="-8.209375381469727">
        <ele>346.0</ele>
        <time>2019-05-03T09:23:31.000Z</time>
      </trkpt>
      <trkpt lat="42.67963409423828" lon="-8.209391593933105">
        <ele>346.0</ele>
        <time>2019-05-03T09:23:32.000Z</time>
      </trkpt>
      <trkpt lat="42.679630279541016" lon="-8.2094087600708">
        <ele>346.0</ele>
        <time>2019-05-03T09:23:33.000Z</time>
      </trkpt>
      <trkpt lat="42.679630279541016" lon="-8.209426879882812">
        <ele>346.0</ele>
        <time>2019-05-03T09:23:34.000Z</time>
      </trkpt>
      <trkpt lat="42.679630279541016" lon="-8.20944595336914">
        <ele>347.0</ele>
        <time>2019-05-03T09:23:36.000Z</time>
      </trkpt>
      <trkpt lat="42.67964172363281" lon="-8.20946216583252">
        <ele>347.0</ele>
        <time>2019-05-03T09:23:39.000Z</time>
      </trkpt>
      <trkpt lat="42.679656982421875" lon="-8.209477424621582">
        <ele>346.0</ele>
        <time>2019-05-03T09:23:42.000Z</time>
      </trkpt>
      <trkpt lat="42.6796760559082" lon="-8.209491729736328">
        <ele>346.0</ele>
        <time>2019-05-03T09:23:45.000Z</time>
      </trkpt>
      <trkpt lat="42.6796989440918" lon="-8.20950698852539">
        <ele>346.0</ele>
        <time>2019-05-03T09:23:48.000Z</time>
      </trkpt>
      <trkpt lat="42.6796989440918" lon="-8.209522247314453">
        <ele>346.0</ele>
        <time>2019-05-03T09:23:49.000Z</time>
      </trkpt>
      <trkpt lat="42.6796875" lon="-8.209538459777832">
        <ele>347.0</ele>
        <time>2019-05-03T09:23:51.000Z</time>
      </trkpt>
      <trkpt lat="42.6796760559082" lon="-8.209554672241211">
        <ele>347.0</ele>
        <time>2019-05-03T09:23:53.000Z</time>
      </trkpt>
      <trkpt lat="42.679656982421875" lon="-8.209571838378906">
        <ele>348.0</ele>
        <time>2019-05-03T09:23:55.000Z</time>
      </trkpt>
      <trkpt lat="42.67965316772461" lon="-8.209576606750488">
        <ele>348.0</ele>
        <time>2019-05-03T09:23:55.000Z</time>
      </trkpt>
      <trkpt lat="42.67965316772461" lon="-8.209578514099121">
        <ele>348.0</ele>
        <time>2019-05-03T09:23:55.000Z</time>
      </trkpt>
      <trkpt lat="42.679656982421875" lon="-8.209576606750488">
        <ele>348.0</ele>
        <time>2019-05-03T09:23:55.000Z</time>
      </trkpt>
      <trkpt lat="42.679656982421875" lon="-8.209572792053223">
        <ele>348.0</ele>
        <time>2019-05-03T09:23:56.000Z</time>
      </trkpt>
      <trkpt lat="42.679649353027344" lon="-8.209578514099121">
        <ele>349.0</ele>
        <time>2019-05-03T09:24:08.000Z</time>
      </trkpt>
      <trkpt lat="42.67963790893555" lon="-8.209585189819336">
        <ele>350.0</ele>
        <time>2019-05-03T09:24:20.000Z</time>
      </trkpt>
      <trkpt lat="42.67962646484375" lon="-8.209592819213867">
        <ele>352.0</ele>
        <time>2019-05-03T09:24:32.000Z</time>
      </trkpt>
      <trkpt lat="42.67961120605469" lon="-8.209601402282715">
        <ele>353.0</ele>
        <time>2019-05-03T09:24:44.000Z</time>
      </trkpt>
      <trkpt lat="42.679603576660156" lon="-8.209607124328613">
        <ele>354.0</ele>
        <time>2019-05-03T09:24:44.000Z</time>
      </trkpt>
      <trkpt lat="42.679595947265625" lon="-8.209611892700195">
        <ele>354.0</ele>
        <time>2019-05-03T09:24:44.000Z</time>
      </trkpt>
      <trkpt lat="42.679588317871094" lon="-8.209616661071777">
        <ele>354.0</ele>
        <time>2019-05-03T09:24:44.000Z</time>
      </trkpt>
      <trkpt lat="42.67958068847656" lon="-8.209620475769043">
        <ele>353.0</ele>
        <time>2019-05-03T09:24:45.000Z</time>
      </trkpt>
      <trkpt lat="42.679561614990234" lon="-8.209625244140625">
        <ele>354.0</ele>
        <time>2019-05-03T09:24:50.000Z</time>
      </trkpt>
      <trkpt lat="42.679534912109375" lon="-8.209630012512207">
        <ele>355.0</ele>
        <time>2019-05-03T09:24:55.000Z</time>
      </trkpt>
      <trkpt lat="42.67950439453125" lon="-8.209635734558105">
        <ele>356.0</ele>
        <time>2019-05-03T09:25:00.000Z</time>
      </trkpt>
      <trkpt lat="42.67947006225586" lon="-8.209640502929688">
        <ele>358.0</ele>
        <time>2019-05-03T09:25:05.000Z</time>
      </trkpt>
      <trkpt lat="42.679466247558594" lon="-8.209673881530762">
        <ele>358.0</ele>
        <time>2019-05-03T09:25:09.000Z</time>
      </trkpt>
      <trkpt lat="42.679466247558594" lon="-8.20971965789795">
        <ele>359.0</ele>
        <time>2019-05-03T09:25:14.000Z</time>
      </trkpt>
      <trkpt lat="42.679473876953125" lon="-8.209773063659668">
        <ele>359.0</ele>
        <time>2019-05-03T09:25:18.000Z</time>
      </trkpt>
      <trkpt lat="42.67948532104492" lon="-8.209830284118652">
        <ele>360.0</ele>
        <time>2019-05-03T09:25:23.000Z</time>
      </trkpt>
      <trkpt lat="42.67949295043945" lon="-8.209871292114258">
        <ele>360.0</ele>
        <time>2019-05-03T09:25:28.000Z</time>
      </trkpt>
      <trkpt lat="42.67949676513672" lon="-8.209908485412598">
        <ele>360.0</ele>
        <time>2019-05-03T09:25:34.000Z</time>
      </trkpt>
      <trkpt lat="42.679500579833984" lon="-8.209942817687988">
        <ele>360.0</ele>
        <time>2019-05-03T09:25:39.000Z</time>
      </trkpt>
      <trkpt lat="42.67950439453125" lon="-8.209977149963379">
        <ele>360.0</ele>
        <time>2019-05-03T09:25:45.000Z</time>
      </trkpt>
      <trkpt lat="42.67952346801758" lon="-8.209993362426758">
        <ele>360.0</ele>
        <time>2019-05-03T09:25:56.000Z</time>
      </trkpt>
      <trkpt lat="42.67954635620117" lon="-8.210000038146973">
        <ele>358.0</ele>
        <time>2019-05-03T09:26:07.000Z</time>
      </trkpt>
      <trkpt lat="42.67957305908203" lon="-8.210000991821289">
        <ele>357.0</ele>
        <time>2019-05-03T09:26:18.000Z</time>
      </trkpt>
      <trkpt lat="42.679603576660156" lon="-8.210000038146973">
        <ele>356.0</ele>
        <time>2019-05-03T09:26:30.000Z</time>
      </trkpt>
      <trkpt lat="42.67961883544922" lon="-8.210002899169922">
        <ele>355.0</ele>
        <time>2019-05-03T09:26:30.000Z</time>
      </trkpt>
      <trkpt lat="42.679630279541016" lon="-8.210005760192871">
        <ele>355.0</ele>
        <time>2019-05-03T09:26:30.000Z</time>
      </trkpt>
      <trkpt lat="42.67963790893555" lon="-8.210007667541504">
        <ele>355.0</ele>
        <time>2019-05-03T09:26:30.000Z</time>
      </trkpt>
      <trkpt lat="42.67964553833008" lon="-8.21000862121582">
        <ele>356.0</ele>
        <time>2019-05-03T09:26:31.000Z</time>
      </trkpt>
      <trkpt lat="42.679649353027344" lon="-8.210010528564453">
        <ele>356.0</ele>
        <time>2019-05-03T09:26:31.000Z</time>
      </trkpt>
      <trkpt lat="42.679656982421875" lon="-8.21001148223877">
        <ele>356.0</ele>
        <time>2019-05-03T09:26:31.000Z</time>
      </trkpt>
      <trkpt lat="42.679656982421875" lon="-8.210012435913086">
        <ele>356.0</ele>
        <time>2019-05-03T09:26:31.000Z</time>
      </trkpt>
      <trkpt lat="42.67966079711914" lon="-8.210013389587402">
        <ele>356.0</ele>
        <time>2019-05-03T09:26:32.000Z</time>
      </trkpt>
      <trkpt lat="42.67966842651367" lon="-8.210015296936035">
        <ele>356.0</ele>
        <time>2019-05-03T09:26:36.000Z</time>
      </trkpt>
      <trkpt lat="42.67967987060547" lon="-8.210018157958984">
        <ele>356.0</ele>
        <time>2019-05-03T09:26:41.000Z</time>
      </trkpt>
      <trkpt lat="42.679691314697266" lon="-8.210021018981934">
        <ele>357.0</ele>
        <time>2019-05-03T09:26:45.000Z</time>
      </trkpt>
      <trkpt lat="42.67970275878906" lon="-8.210023880004883">
        <ele>358.0</ele>
        <time>2019-05-03T09:26:50.000Z</time>
      </trkpt>
      <trkpt lat="42.679710388183594" lon="-8.210025787353516">
        <ele>358.0</ele>
        <time>2019-05-03T09:26:50.000Z</time>
      </trkpt>
      <trkpt lat="42.679718017578125" lon="-8.210027694702148">
        <ele>358.0</ele>
        <time>2019-05-03T09:26:50.000Z</time>
      </trkpt>
      <trkpt lat="42.67972183227539" lon="-8.210029602050781">
        <ele>358.0</ele>
        <time>2019-05-03T09:26:50.000Z</time>
      </trkpt>
      <trkpt lat="42.67972946166992" lon="-8.210030555725098">
        <ele>358.0</ele>
        <time>2019-05-03T09:26:51.000Z</time>
      </trkpt>
      <trkpt lat="42.679771423339844" lon="-8.210049629211426">
        <ele>358.0</ele>
        <time>2019-05-03T09:26:54.000Z</time>
      </trkpt>
      <trkpt lat="42.67982864379883" lon="-8.210075378417969">
        <ele>358.0</ele>
        <time>2019-05-03T09:26:58.000Z</time>
      </trkpt>
      <trkpt lat="42.67989730834961" lon="-8.21010684967041">
        <ele>359.0</ele>
        <time>2019-05-03T09:27:02.000Z</time>
      </trkpt>
      <trkpt lat="42.679969787597656" lon="-8.210139274597168">
        <ele>359.0</ele>
        <time>2019-05-03T09:27:06.000Z</time>
      </trkpt>
      <trkpt lat="42.68008804321289" lon="-8.210131645202637">
        <ele>360.0</ele>
        <time>2019-05-03T09:27:20.000Z</time>
      </trkpt>
      <trkpt lat="42.680152893066406" lon="-8.210158348083496">
        <ele>360.0</ele>
        <time>2019-05-03T09:27:30.000Z</time>
      </trkpt>
      <trkpt lat="42.680213928222656" lon="-8.210198402404785">
        <ele>360.0</ele>
        <time>2019-05-03T09:27:40.000Z</time>
      </trkpt>
      <trkpt lat="42.68026351928711" lon="-8.210224151611328">
        <ele>359.0</ele>
        <time>2019-05-03T09:27:57.000Z</time>
      </trkpt>
      <trkpt lat="42.68031692504883" lon="-8.210253715515137">
        <ele>359.0</ele>
        <time>2019-05-03T09:28:15.000Z</time>
      </trkpt>
      <trkpt lat="42.68037033081055" lon="-8.210286140441895">
        <ele>359.0</ele>
        <time>2019-05-03T09:28:33.000Z</time>
      </trkpt>
      <trkpt lat="42.6804313659668" lon="-8.210319519042969">
        <ele>359.0</ele>
        <time>2019-05-03T09:28:51.000Z</time>
      </trkpt>
      <trkpt lat="42.68045425415039" lon="-8.210333824157715">
        <ele>359.0</ele>
        <time>2019-05-03T09:28:51.000Z</time>
      </trkpt>
      <trkpt lat="42.68046951293945" lon="-8.21034049987793">
        <ele>359.0</ele>
        <time>2019-05-03T09:28:51.000Z</time>
      </trkpt>
      <trkpt lat="42.68047332763672" lon="-8.210343360900879">
        <ele>359.0</ele>
        <time>2019-05-03T09:28:51.000Z</time>
      </trkpt>
      <trkpt lat="42.68047332763672" lon="-8.210343360900879">
        <ele>359.0</ele>
        <time>2019-05-03T09:28:52.000Z</time>
      </trkpt>
      <trkpt lat="42.680477142333984" lon="-8.210346221923828">
        <ele>359.0</ele>
        <time>2019-05-03T09:28:52.000Z</time>
      </trkpt>
      <trkpt lat="42.680477142333984" lon="-8.210346221923828">
        <ele>359.0</ele>
        <time>2019-05-03T09:28:52.000Z</time>
      </trkpt>
      <trkpt lat="42.680477142333984" lon="-8.210346221923828">
        <ele>359.0</ele>
        <time>2019-05-03T09:28:52.000Z</time>
      </trkpt>
      <trkpt lat="42.680477142333984" lon="-8.210345268249512">
        <ele>359.0</ele>
        <time>2019-05-03T09:28:53.000Z</time>
      </trkpt>
      <trkpt lat="42.680477142333984" lon="-8.210346221923828">
        <ele>359.0</ele>
        <time>2019-05-03T09:29:00.000Z</time>
      </trkpt>
      <trkpt lat="42.680477142333984" lon="-8.210346221923828">
        <ele>359.0</ele>
        <time>2019-05-03T09:29:07.000Z</time>
      </trkpt>
      <trkpt lat="42.68048095703125" lon="-8.210347175598145">
        <ele>359.0</ele>
        <time>2019-05-03T09:29:14.000Z</time>
      </trkpt>
      <trkpt lat="42.68048095703125" lon="-8.210347175598145">
        <ele>359.0</ele>
        <time>2019-05-03T09:29:22.000Z</time>
      </trkpt>
      <trkpt lat="42.68048095703125" lon="-8.210348129272461">
        <ele>359.0</ele>
        <time>2019-05-03T09:29:22.000Z</time>
      </trkpt>
      <trkpt lat="42.68048095703125" lon="-8.210348129272461">
        <ele>359.0</ele>
        <time>2019-05-03T09:29:22.000Z</time>
      </trkpt>
      <trkpt lat="42.680484771728516" lon="-8.210349082946777">
        <ele>359.0</ele>
        <time>2019-05-03T09:29:22.000Z</time>
      </trkpt>
      <trkpt lat="42.680484771728516" lon="-8.210349082946777">
        <ele>359.0</ele>
        <time>2019-05-03T09:29:23.000Z</time>
      </trkpt>
      <trkpt lat="42.68079376220703" lon="-8.210502624511719">
        <ele>360.0</ele>
        <time>2019-05-03T09:29:33.000Z</time>
      </trkpt>
      <trkpt lat="42.68091583251953" lon="-8.21055793762207">
        <ele>361.0</ele>
        <time>2019-05-03T09:29:53.000Z</time>
      </trkpt>
      <trkpt lat="42.68094253540039" lon="-8.210570335388184">
        <ele>361.0</ele>
        <time>2019-05-03T09:29:54.000Z</time>
      </trkpt>
      <trkpt lat="42.680965423583984" lon="-8.210572242736816">
        <ele>361.0</ele>
        <time>2019-05-03T09:29:55.000Z</time>
      </trkpt>
      <trkpt lat="42.68104934692383" lon="-8.210543632507324">
        <ele>361.0</ele>
        <time>2019-05-03T09:30:01.000Z</time>
      </trkpt>
      <trkpt lat="42.681068420410156" lon="-8.210525512695312">
        <ele>362.0</ele>
        <time>2019-05-03T09:30:05.000Z</time>
      </trkpt>
      <trkpt lat="42.68126678466797" lon="-8.210418701171875">
        <ele>371.0</ele>
        <time>2019-05-03T09:40:07.000Z</time>
      </trkpt>
      <trkpt lat="42.68144989013672" lon="-8.210273742675781">
        <ele>368.0</ele>
        <time>2019-05-03T09:40:32.000Z</time>
      </trkpt>
      <trkpt lat="42.68144989013672" lon="-8.210273742675781">
        <ele>368.0</ele>
        <time>2019-05-03T09:40:33.000Z</time>
      </trkpt>
      <trkpt lat="42.681705474853516" lon="-8.21039867401123">
        <ele>368.0</ele>
        <time>2019-05-03T09:41:15.000Z</time>
      </trkpt>
      <trkpt lat="42.681827545166016" lon="-8.210528373718262">
        <ele>368.0</ele>
        <time>2019-05-03T09:41:39.000Z</time>
      </trkpt>
      <trkpt lat="42.681846618652344" lon="-8.210548400878906">
        <ele>368.0</ele>
        <time>2019-05-03T09:41:40.000Z</time>
      </trkpt>
      <trkpt lat="42.68187713623047" lon="-8.210612297058105">
        <ele>368.0</ele>
        <time>2019-05-03T09:41:44.000Z</time>
      </trkpt>
      <trkpt lat="42.68190383911133" lon="-8.210607528686523">
        <ele>368.0</ele>
        <time>2019-05-03T09:41:52.000Z</time>
      </trkpt>
      <trkpt lat="42.68193817138672" lon="-8.210593223571777">
        <ele>369.0</ele>
        <time>2019-05-03T09:41:59.000Z</time>
      </trkpt>
      <trkpt lat="42.681976318359375" lon="-8.210573196411133">
        <ele>369.0</ele>
        <time>2019-05-03T09:42:07.000Z</time>
      </trkpt>
      <trkpt lat="42.68201446533203" lon="-8.210549354553223">
        <ele>370.0</ele>
        <time>2019-05-03T09:42:14.000Z</time>
      </trkpt>
      <trkpt lat="42.682044982910156" lon="-8.210537910461426">
        <ele>371.0</ele>
        <time>2019-05-03T09:42:27.000Z</time>
      </trkpt>
      <trkpt lat="42.682071685791016" lon="-8.210528373718262">
        <ele>373.0</ele>
        <time>2019-05-03T09:42:40.000Z</time>
      </trkpt>
      <trkpt lat="42.682098388671875" lon="-8.210519790649414">
        <ele>375.0</ele>
        <time>2019-05-03T09:42:52.000Z</time>
      </trkpt>
      <trkpt lat="42.68212127685547" lon="-8.210512161254883">
        <ele>377.0</ele>
        <time>2019-05-03T09:43:05.000Z</time>
      </trkpt>
      <trkpt lat="42.6821403503418" lon="-8.210505485534668">
        <ele>378.0</ele>
        <time>2019-05-03T09:43:05.000Z</time>
      </trkpt>
      <trkpt lat="42.68215560913086" lon="-8.21049976348877">
        <ele>378.0</ele>
        <time>2019-05-03T09:43:05.000Z</time>
      </trkpt>
      <trkpt lat="42.68217086791992" lon="-8.210494995117188">
        <ele>378.0</ele>
        <time>2019-05-03T09:43:06.000Z</time>
      </trkpt>
      <trkpt lat="42.68218231201172" lon="-8.210490226745605">
        <ele>377.0</ele>
        <time>2019-05-03T09:43:06.000Z</time>
      </trkpt>
      <trkpt lat="42.68218994140625" lon="-8.210487365722656">
        <ele>377.0</ele>
        <time>2019-05-03T09:43:06.000Z</time>
      </trkpt>
      <trkpt lat="42.682193756103516" lon="-8.21048641204834">
        <ele>378.0</ele>
        <time>2019-05-03T09:43:07.000Z</time>
      </trkpt>
      <trkpt lat="42.68219757080078" lon="-8.210485458374023">
        <ele>378.0</ele>
        <time>2019-05-03T09:43:07.000Z</time>
      </trkpt>
      <trkpt lat="42.68219757080078" lon="-8.210484504699707">
        <ele>378.0</ele>
        <time>2019-05-03T09:43:08.000Z</time>
      </trkpt>
      <trkpt lat="42.68224334716797" lon="-8.210468292236328">
        <ele>378.0</ele>
        <time>2019-05-03T09:43:09.000Z</time>
      </trkpt>
      <trkpt lat="42.68230438232422" lon="-8.210444450378418">
        <ele>379.0</ele>
        <time>2019-05-03T09:43:11.000Z</time>
      </trkpt>
      <trkpt lat="42.682373046875" lon="-8.210416793823242">
        <ele>379.0</ele>
        <time>2019-05-03T09:43:12.000Z</time>
      </trkpt>
      <trkpt lat="42.68244934082031" lon="-8.210387229919434">
        <ele>380.0</ele>
        <time>2019-05-03T09:43:14.000Z</time>
      </trkpt>
      <trkpt lat="42.682491302490234" lon="-8.210371971130371">
        <ele>381.0</ele>
        <time>2019-05-03T09:43:17.000Z</time>
      </trkpt>
      <trkpt lat="42.68252182006836" lon="-8.210360527038574">
        <ele>382.0</ele>
        <time>2019-05-03T09:43:20.000Z</time>
      </trkpt>
      <trkpt lat="42.68254470825195" lon="-8.210351943969727">
        <ele>383.0</ele>
        <time>2019-05-03T09:43:24.000Z</time>
      </trkpt>
      <trkpt lat="42.68256378173828" lon="-8.210345268249512">
        <ele>384.0</ele>
        <time>2019-05-03T09:43:27.000Z</time>
      </trkpt>
      <trkpt lat="42.68258285522461" lon="-8.210347175598145">
        <ele>384.0</ele>
        <time>2019-05-03T09:43:51.000Z</time>
      </trkpt>
      <trkpt lat="42.68259811401367" lon="-8.210350036621094">
        <ele>384.0</ele>
        <time>2019-05-03T09:43:52.000Z</time>
      </trkpt>
      <trkpt lat="42.682762145996094" lon="-8.2103853225708">
        <ele>384.0</ele>
        <time>2019-05-03T09:43:54.000Z</time>
      </trkpt>
      <trkpt lat="42.68294906616211" lon="-8.210375785827637">
        <ele>388.0</ele>
        <time>2019-05-03T09:44:04.000Z</time>
      </trkpt>
      <trkpt lat="42.68295669555664" lon="-8.21037769317627">
        <ele>388.0</ele>
        <time>2019-05-03T09:44:06.000Z</time>
      </trkpt>
      <trkpt lat="42.68305587768555" lon="-8.210444450378418">
        <ele>397.0</ele>
        <time>2019-05-03T09:44:25.000Z</time>
      </trkpt>
      <trkpt lat="42.68308639526367" lon="-8.210465431213379">
        <ele>397.0</ele>
        <time>2019-05-03T09:44:26.000Z</time>
      </trkpt>
      <trkpt lat="42.68320846557617" lon="-8.210655212402344">
        <ele>403.0</ele>
        <time>2019-05-03T09:44:42.000Z</time>
      </trkpt>
      <trkpt lat="42.68323516845703" lon="-8.21069049835205">
        <ele>404.0</ele>
        <time>2019-05-03T09:44:47.000Z</time>
      </trkpt>
      <trkpt lat="42.683292388916016" lon="-8.21076774597168">
        <ele>407.0</ele>
        <time>2019-05-03T09:45:03.000Z</time>
      </trkpt>
      <trkpt lat="42.683319091796875" lon="-8.210803031921387">
        <ele>407.0</ele>
        <time>2019-05-03T09:45:04.000Z</time>
      </trkpt>
      <trkpt lat="42.68349075317383" lon="-8.211054801940918">
        <ele>408.0</ele>
        <time>2019-05-03T09:45:15.000Z</time>
      </trkpt>
      <trkpt lat="42.68358612060547" lon="-8.211261749267578">
        <ele>410.0</ele>
        <time>2019-05-03T09:45:34.000Z</time>
      </trkpt>
      <trkpt lat="42.683624267578125" lon="-8.211294174194336">
        <ele>410.0</ele>
        <time>2019-05-03T09:45:39.000Z</time>
      </trkpt>
      <trkpt lat="42.68365478515625" lon="-8.21129322052002">
        <ele>409.0</ele>
        <time>2019-05-03T09:45:44.000Z</time>
      </trkpt>
      <trkpt lat="42.68368148803711" lon="-8.211324691772461">
        <ele>409.0</ele>
        <time>2019-05-03T09:45:53.000Z</time>
      </trkpt>
      <trkpt lat="42.6837043762207" lon="-8.211363792419434">
        <ele>409.0</ele>
        <time>2019-05-03T09:46:01.000Z</time>
      </trkpt>
      <trkpt lat="42.683712005615234" lon="-8.21137523651123">
        <ele>409.0</ele>
        <time>2019-05-03T09:46:01.000Z</time>
      </trkpt>
      <trkpt lat="42.683719635009766" lon="-8.211384773254395">
        <ele>409.0</ele>
        <time>2019-05-03T09:46:02.000Z</time>
      </trkpt>
      <trkpt lat="42.68372344970703" lon="-8.21139144897461">
        <ele>409.0</ele>
        <time>2019-05-03T09:46:02.000Z</time>
      </trkpt>
      <trkpt lat="42.6837272644043" lon="-8.211398124694824">
        <ele>409.0</ele>
        <time>2019-05-03T09:46:02.000Z</time>
      </trkpt>
      <trkpt lat="42.683746337890625" lon="-8.211427688598633">
        <ele>409.0</ele>
        <time>2019-05-03T09:46:04.000Z</time>
      </trkpt>
      <trkpt lat="42.68376541137695" lon="-8.211466789245605">
        <ele>409.0</ele>
        <time>2019-05-03T09:46:05.000Z</time>
      </trkpt>
      <trkpt lat="42.68378829956055" lon="-8.211511611938477">
        <ele>409.0</ele>
        <time>2019-05-03T09:46:06.000Z</time>
      </trkpt>
      <trkpt lat="42.683815002441406" lon="-8.211560249328613">
        <ele>409.0</ele>
        <time>2019-05-03T09:46:08.000Z</time>
      </trkpt>
      <trkpt lat="42.68380355834961" lon="-8.211626052856445">
        <ele>409.0</ele>
        <time>2019-05-03T09:46:12.000Z</time>
      </trkpt>
      <trkpt lat="42.683780670166016" lon="-8.211703300476074">
        <ele>409.0</ele>
        <time>2019-05-03T09:46:16.000Z</time>
      </trkpt>
      <trkpt lat="42.68375015258789" lon="-8.211787223815918">
        <ele>409.0</ele>
        <time>2019-05-03T09:46:20.000Z</time>
      </trkpt>
      <trkpt lat="42.6837158203125" lon="-8.211874961853027">
        <ele>408.0</ele>
        <time>2019-05-03T09:46:24.000Z</time>
      </trkpt>
      <trkpt lat="42.68369674682617" lon="-8.211934089660645">
        <ele>408.0</ele>
        <time>2019-05-03T09:46:27.000Z</time>
      </trkpt>
      <trkpt lat="42.68367385864258" lon="-8.211986541748047">
        <ele>408.0</ele>
        <time>2019-05-03T09:46:31.000Z</time>
      </trkpt>
      <trkpt lat="42.68365478515625" lon="-8.212032318115234">
        <ele>408.0</ele>
        <time>2019-05-03T09:46:35.000Z</time>
      </trkpt>
      <trkpt lat="42.683631896972656" lon="-8.212076187133789">
        <ele>409.0</ele>
        <time>2019-05-03T09:46:39.000Z</time>
      </trkpt>
      <trkpt lat="42.68362808227539" lon="-8.212093353271484">
        <ele>409.0</ele>
        <time>2019-05-03T09:46:39.000Z</time>
      </trkpt>
      <trkpt lat="42.683624267578125" lon="-8.21209716796875">
        <ele>409.0</ele>
        <time>2019-05-03T09:46:40.000Z</time>
      </trkpt>
      <trkpt lat="42.68362808227539" lon="-8.212090492248535">
        <ele>409.0</ele>
        <time>2019-05-03T09:46:40.000Z</time>
      </trkpt>
      <trkpt lat="42.683631896972656" lon="-8.212080001831055">
        <ele>409.0</ele>
        <time>2019-05-03T09:46:41.000Z</time>
      </trkpt>
      <trkpt lat="42.68362808227539" lon="-8.212092399597168">
        <ele>409.0</ele>
        <time>2019-05-03T09:46:47.000Z</time>
      </trkpt>
      <trkpt lat="42.683624267578125" lon="-8.212109565734863">
        <ele>409.0</ele>
        <time>2019-05-03T09:46:53.000Z</time>
      </trkpt>
      <trkpt lat="42.683616638183594" lon="-8.212129592895508">
        <ele>410.0</ele>
        <time>2019-05-03T09:46:59.000Z</time>
      </trkpt>
      <trkpt lat="42.68361282348633" lon="-8.212151527404785">
        <ele>410.0</ele>
        <time>2019-05-03T09:47:06.000Z</time>
      </trkpt>
      <trkpt lat="42.68360900878906" lon="-8.212164878845215">
        <ele>410.0</ele>
        <time>2019-05-03T09:47:06.000Z</time>
      </trkpt>
      <trkpt lat="42.6836051940918" lon="-8.212176322937012">
        <ele>410.0</ele>
        <time>2019-05-03T09:47:06.000Z</time>
      </trkpt>
      <trkpt lat="42.68360137939453" lon="-8.212185859680176">
        <ele>410.0</ele>
        <time>2019-05-03T09:47:06.000Z</time>
      </trkpt>
      <trkpt lat="42.683597564697266" lon="-8.21219539642334">
        <ele>410.0</ele>
        <time>2019-05-03T09:47:07.000Z</time>
      </trkpt>
      <trkpt lat="42.68357849121094" lon="-8.212246894836426">
        <ele>409.0</ele>
        <time>2019-05-03T09:47:11.000Z</time>
      </trkpt>
      <trkpt lat="42.683555603027344" lon="-8.212315559387207">
        <ele>409.0</ele>
        <time>2019-05-03T09:47:16.000Z</time>
      </trkpt>
      <trkpt lat="42.68352508544922" lon="-8.212396621704102">
        <ele>408.0</ele>
        <time>2019-05-03T09:47:20.000Z</time>
      </trkpt>
      <trkpt lat="42.68349075317383" lon="-8.212482452392578">
        <ele>407.0</ele>
        <time>2019-05-03T09:47:25.000Z</time>
      </trkpt>
      <trkpt lat="42.68349075317383" lon="-8.212538719177246">
        <ele>405.0</ele>
        <time>2019-05-03T09:47:42.000Z</time>
      </trkpt>
      <trkpt lat="42.68348693847656" lon="-8.212577819824219">
        <ele>405.0</ele>
        <time>2019-05-03T09:47:43.000Z</time>
      </trkpt>
      <trkpt lat="42.68347930908203" lon="-8.21281623840332">
        <ele>404.0</ele>
        <time>2019-05-03T09:47:47.000Z</time>
      </trkpt>
      <trkpt lat="42.68350601196289" lon="-8.212868690490723">
        <ele>404.0</ele>
        <time>2019-05-03T09:47:55.000Z</time>
      </trkpt>
      <trkpt lat="42.68354415893555" lon="-8.21291732788086">
        <ele>405.0</ele>
        <time>2019-05-03T09:48:03.000Z</time>
      </trkpt>
      <trkpt lat="42.68359375" lon="-8.212964057922363">
        <ele>405.0</ele>
        <time>2019-05-03T09:48:11.000Z</time>
      </trkpt>
      <trkpt lat="42.68364715576172" lon="-8.213008880615234">
        <ele>405.0</ele>
        <time>2019-05-03T09:48:19.000Z</time>
      </trkpt>
      <trkpt lat="42.683685302734375" lon="-8.213051795959473">
        <ele>405.0</ele>
        <time>2019-05-03T09:48:24.000Z</time>
      </trkpt>
      <trkpt lat="42.68372344970703" lon="-8.213092803955078">
        <ele>406.0</ele>
        <time>2019-05-03T09:48:30.000Z</time>
      </trkpt>
      <trkpt lat="42.68376541137695" lon="-8.213130950927734">
        <ele>406.0</ele>
        <time>2019-05-03T09:48:35.000Z</time>
      </trkpt>
      <trkpt lat="42.68380355834961" lon="-8.21316909790039">
        <ele>407.0</ele>
        <time>2019-05-03T09:48:41.000Z</time>
      </trkpt>
      <trkpt lat="42.68382263183594" lon="-8.213190078735352">
        <ele>407.0</ele>
        <time>2019-05-03T09:48:44.000Z</time>
      </trkpt>
      <trkpt lat="42.683834075927734" lon="-8.213201522827148">
        <ele>408.0</ele>
        <time>2019-05-03T09:48:48.000Z</time>
      </trkpt>
      <trkpt lat="42.683837890625" lon="-8.213208198547363">
        <ele>408.0</ele>
        <time>2019-05-03T09:48:51.000Z</time>
      </trkpt>
      <trkpt lat="42.683837890625" lon="-8.213212013244629">
        <ele>408.0</ele>
        <time>2019-05-03T09:48:55.000Z</time>
      </trkpt>
      <trkpt lat="42.68384552001953" lon="-8.213220596313477">
        <ele>408.0</ele>
        <time>2019-05-03T09:48:55.000Z</time>
      </trkpt>
      <trkpt lat="42.68385314941406" lon="-8.213227272033691">
        <ele>408.0</ele>
        <time>2019-05-03T09:48:55.000Z</time>
      </trkpt>
      <trkpt lat="42.68385696411133" lon="-8.21323299407959">
        <ele>408.0</ele>
        <time>2019-05-03T09:48:55.000Z</time>
      </trkpt>
      <trkpt lat="42.683860778808594" lon="-8.213238716125488">
        <ele>408.0</ele>
        <time>2019-05-03T09:48:56.000Z</time>
      </trkpt>
      <trkpt lat="42.68391799926758" lon="-8.213276863098145">
        <ele>408.0</ele>
        <time>2019-05-03T09:49:01.000Z</time>
      </trkpt>
      <trkpt lat="42.68399429321289" lon="-8.21332836151123">
        <ele>408.0</ele>
        <time>2019-05-03T09:49:07.000Z</time>
      </trkpt>
      <trkpt lat="42.68408203125" lon="-8.213387489318848">
        <ele>408.0</ele>
        <time>2019-05-03T09:49:12.000Z</time>
      </trkpt>
      <trkpt lat="42.684181213378906" lon="-8.213452339172363">
        <ele>408.0</ele>
        <time>2019-05-03T09:49:18.000Z</time>
      </trkpt>
      <trkpt lat="42.68429946899414" lon="-8.213631629943848">
        <ele>410.0</ele>
        <time>2019-05-03T09:49:31.000Z</time>
      </trkpt>
      <trkpt lat="42.68439865112305" lon="-8.213844299316406">
        <ele>413.0</ele>
        <time>2019-05-03T09:49:44.000Z</time>
      </trkpt>
      <trkpt lat="42.6844596862793" lon="-8.213930130004883">
        <ele>414.0</ele>
        <time>2019-05-03T09:49:52.000Z</time>
      </trkpt>
      <trkpt lat="42.68452453613281" lon="-8.214009284973145">
        <ele>415.0</ele>
        <time>2019-05-03T09:49:59.000Z</time>
      </trkpt>
      <trkpt lat="42.68459701538086" lon="-8.214085578918457">
        <ele>417.0</ele>
        <time>2019-05-03T09:50:07.000Z</time>
      </trkpt>
      <trkpt lat="42.68466567993164" lon="-8.21415901184082">
        <ele>418.0</ele>
        <time>2019-05-03T09:50:14.000Z</time>
      </trkpt>
      <trkpt lat="42.684730529785156" lon="-8.214240074157715">
        <ele>419.0</ele>
        <time>2019-05-03T09:50:22.000Z</time>
      </trkpt>
      <trkpt lat="42.68479537963867" lon="-8.214322090148926">
        <ele>419.0</ele>
        <time>2019-05-03T09:50:30.000Z</time>
      </trkpt>
      <trkpt lat="42.68486022949219" lon="-8.214404106140137">
        <ele>420.0</ele>
        <time>2019-05-03T09:50:38.000Z</time>
      </trkpt>
      <trkpt lat="42.6849250793457" lon="-8.214487075805664">
        <ele>421.0</ele>
        <time>2019-05-03T09:50:46.000Z</time>
      </trkpt>
      <trkpt lat="42.68498611450195" lon="-8.21457290649414">
        <ele>421.0</ele>
        <time>2019-05-03T09:50:54.000Z</time>
      </trkpt>
      <trkpt lat="42.6850471496582" lon="-8.21466064453125">
        <ele>420.0</ele>
        <time>2019-05-03T09:51:02.000Z</time>
      </trkpt>
      <trkpt lat="42.68510818481445" lon="-8.214749336242676">
        <ele>420.0</ele>
        <time>2019-05-03T09:51:10.000Z</time>
      </trkpt>
      <trkpt lat="42.68516540527344" lon="-8.214838027954102">
        <ele>420.0</ele>
        <time>2019-05-03T09:51:18.000Z</time>
      </trkpt>
      <trkpt lat="42.685237884521484" lon="-8.215067863464355">
        <ele>421.0</ele>
        <time>2019-05-03T09:51:37.000Z</time>
      </trkpt>
      <trkpt lat="42.68528747558594" lon="-8.215322494506836">
        <ele>422.0</ele>
        <time>2019-05-03T09:51:55.000Z</time>
      </trkpt>
      <trkpt lat="42.685298919677734" lon="-8.215362548828125">
        <ele>422.0</ele>
        <time>2019-05-03T09:51:56.000Z</time>
      </trkpt>
      <trkpt lat="42.685298919677734" lon="-8.21536922454834">
        <ele>422.0</ele>
        <time>2019-05-03T09:51:56.000Z</time>
      </trkpt>
      <trkpt lat="42.68529510498047" lon="-8.215352058410645">
        <ele>422.0</ele>
        <time>2019-05-03T09:51:56.000Z</time>
      </trkpt>
      <trkpt lat="42.68528747558594" lon="-8.215324401855469">
        <ele>422.0</ele>
        <time>2019-05-03T09:51:56.000Z</time>
      </trkpt>
      <trkpt lat="42.6852912902832" lon="-8.215330123901367">
        <ele>422.0</ele>
        <time>2019-05-03T09:52:02.000Z</time>
      </trkpt>
      <trkpt lat="42.6852912902832" lon="-8.215337753295898">
        <ele>422.0</ele>
        <time>2019-05-03T09:52:07.000Z</time>
      </trkpt>
      <trkpt lat="42.68529510498047" lon="-8.215347290039062">
        <ele>423.0</ele>
        <time>2019-05-03T09:52:13.000Z</time>
      </trkpt>
      <trkpt lat="42.68529510498047" lon="-8.215357780456543">
        <ele>423.0</ele>
        <time>2019-05-03T09:52:18.000Z</time>
      </trkpt>
      <trkpt lat="42.68529510498047" lon="-8.215365409851074">
        <ele>423.0</ele>
        <time>2019-05-03T09:52:19.000Z</time>
      </trkpt>
      <trkpt lat="42.685298919677734" lon="-8.215372085571289">
        <ele>423.0</ele>
        <time>2019-05-03T09:52:19.000Z</time>
      </trkpt>
      <trkpt lat="42.685298919677734" lon="-8.215377807617188">
        <ele>423.0</ele>
        <time>2019-05-03T09:52:19.000Z</time>
      </trkpt>
      <trkpt lat="42.685298919677734" lon="-8.215384483337402">
        <ele>423.0</ele>
        <time>2019-05-03T09:52:19.000Z</time>
      </trkpt>
      <trkpt lat="42.6853141784668" lon="-8.215446472167969">
        <ele>423.0</ele>
        <time>2019-05-03T09:52:23.000Z</time>
      </trkpt>
      <trkpt lat="42.685333251953125" lon="-8.215532302856445">
        <ele>423.0</ele>
        <time>2019-05-03T09:52:26.000Z</time>
      </trkpt>
      <trkpt lat="42.68535232543945" lon="-8.2156343460083">
        <ele>424.0</ele>
        <time>2019-05-03T09:52:30.000Z</time>
      </trkpt>
      <trkpt lat="42.68537902832031" lon="-8.215743064880371">
        <ele>424.0</ele>
        <time>2019-05-03T09:52:33.000Z</time>
      </trkpt>
      <trkpt lat="42.685386657714844" lon="-8.215791702270508">
        <ele>424.0</ele>
        <time>2019-05-03T09:52:37.000Z</time>
      </trkpt>
      <trkpt lat="42.68539047241211" lon="-8.215824127197266">
        <ele>424.0</ele>
        <time>2019-05-03T09:52:40.000Z</time>
      </trkpt>
      <trkpt lat="42.685394287109375" lon="-8.21584415435791">
        <ele>424.0</ele>
        <time>2019-05-03T09:52:43.000Z</time>
      </trkpt>
      <trkpt lat="42.68539810180664" lon="-8.215859413146973">
        <ele>424.0</ele>
        <time>2019-05-03T09:52:46.000Z</time>
      </trkpt>
      <trkpt lat="42.68540573120117" lon="-8.215906143188477">
        <ele>424.0</ele>
        <time>2019-05-03T09:52:47.000Z</time>
      </trkpt>
      <trkpt lat="42.6854362487793" lon="-8.216227531433105">
        <ele>424.0</ele>
        <time>2019-05-03T09:53:05.000Z</time>
      </trkpt>
      <trkpt lat="42.68544006347656" lon="-8.2162504196167">
        <ele>424.0</ele>
        <time>2019-05-03T09:53:23.000Z</time>
      </trkpt>
      <trkpt lat="42.68544006347656" lon="-8.216270446777344">
        <ele>424.0</ele>
        <time>2019-05-03T09:53:24.000Z</time>
      </trkpt>
      <trkpt lat="42.68549346923828" lon="-8.216742515563965">
        <ele>425.0</ele>
        <time>2019-05-03T09:53:38.000Z</time>
      </trkpt>
      <trkpt lat="42.685482025146484" lon="-8.21707534790039">
        <ele>425.0</ele>
        <time>2019-05-03T09:53:58.000Z</time>
      </trkpt>
      <trkpt lat="42.68547058105469" lon="-8.217228889465332">
        <ele>425.0</ele>
        <time>2019-05-03T09:54:24.000Z</time>
      </trkpt>
      <trkpt lat="42.685462951660156" lon="-8.21727466583252">
        <ele>425.0</ele>
        <time>2019-05-03T09:54:25.000Z</time>
      </trkpt>
      <trkpt lat="42.68544006347656" lon="-8.217442512512207">
        <ele>424.0</ele>
        <time>2019-05-03T09:54:43.000Z</time>
      </trkpt>
      <trkpt lat="42.68544387817383" lon="-8.217466354370117">
        <ele>425.0</ele>
        <time>2019-05-03T09:55:02.000Z</time>
      </trkpt>
      <trkpt lat="42.68545913696289" lon="-8.21748161315918">
        <ele>426.0</ele>
        <time>2019-05-03T09:55:20.000Z</time>
      </trkpt>
      <trkpt lat="42.68547439575195" lon="-8.217493057250977">
        <ele>427.0</ele>
        <time>2019-05-03T09:55:38.000Z</time>
      </trkpt>
      <trkpt lat="42.68549346923828" lon="-8.217500686645508">
        <ele>428.0</ele>
        <time>2019-05-03T09:55:56.000Z</time>
      </trkpt>
      <trkpt lat="42.68550109863281" lon="-8.217511177062988">
        <ele>428.0</ele>
        <time>2019-05-03T09:55:57.000Z</time>
      </trkpt>
      <trkpt lat="42.68551254272461" lon="-8.217520713806152">
        <ele>428.0</ele>
        <time>2019-05-03T09:55:57.000Z</time>
      </trkpt>
      <trkpt lat="42.685516357421875" lon="-8.217528343200684">
        <ele>428.0</ele>
        <time>2019-05-03T09:55:57.000Z</time>
      </trkpt>
      <trkpt lat="42.685523986816406" lon="-8.217535972595215">
        <ele>428.0</ele>
        <time>2019-05-03T09:55:57.000Z</time>
      </trkpt>
      <trkpt lat="42.685550689697266" lon="-8.217560768127441">
        <ele>428.0</ele>
        <time>2019-05-03T09:55:58.000Z</time>
      </trkpt>
      <trkpt lat="42.685585021972656" lon="-8.217591285705566">
        <ele>428.0</ele>
        <time>2019-05-03T09:55:58.000Z</time>
      </trkpt>
      <trkpt lat="42.68561935424805" lon="-8.21762752532959">
        <ele>428.0</ele>
        <time>2019-05-03T09:55:58.000Z</time>
      </trkpt>
      <trkpt lat="42.68566131591797" lon="-8.21766471862793">
        <ele>428.0</ele>
        <time>2019-05-03T09:55:58.000Z</time>
      </trkpt>
      <trkpt lat="42.68568801879883" lon="-8.217676162719727">
        <ele>428.0</ele>
        <time>2019-05-03T09:55:59.000Z</time>
      </trkpt>
      <trkpt lat="42.685699462890625" lon="-8.217663764953613">
        <ele>428.0</ele>
        <time>2019-05-03T09:56:00.000Z</time>
      </trkpt>
      <trkpt lat="42.685707092285156" lon="-8.21766471862793">
        <ele>428.0</ele>
        <time>2019-05-03T09:56:01.000Z</time>
      </trkpt>
      <trkpt lat="42.68571472167969" lon="-8.217665672302246">
        <ele>428.0</ele>
        <time>2019-05-03T09:56:02.000Z</time>
      </trkpt>
      <trkpt lat="42.68572235107422" lon="-8.217667579650879">
        <ele>428.0</ele>
        <time>2019-05-03T09:56:03.000Z</time>
      </trkpt>
      <trkpt lat="42.68572998046875" lon="-8.217669486999512">
        <ele>428.0</ele>
        <time>2019-05-03T09:56:04.000Z</time>
      </trkpt>
      <trkpt lat="42.68574142456055" lon="-8.21767807006836">
        <ele>429.0</ele>
        <time>2019-05-03T09:56:15.000Z</time>
      </trkpt>
      <trkpt lat="42.68574905395508" lon="-8.217689514160156">
        <ele>430.0</ele>
        <time>2019-05-03T09:56:26.000Z</time>
      </trkpt>
      <trkpt lat="42.68575668334961" lon="-8.217703819274902">
        <ele>431.0</ele>
        <time>2019-05-03T09:56:37.000Z</time>
      </trkpt>
      <trkpt lat="42.685768127441406" lon="-8.217719078063965">
        <ele>432.0</ele>
        <time>2019-05-03T09:56:48.000Z</time>
      </trkpt>
      <trkpt lat="42.68577194213867" lon="-8.217728614807129">
        <ele>432.0</ele>
        <time>2019-05-03T09:56:49.000Z</time>
      </trkpt>
      <trkpt lat="42.6857795715332" lon="-8.21773624420166">
        <ele>432.0</ele>
        <time>2019-05-03T09:56:49.000Z</time>
      </trkpt>
      <trkpt lat="42.68578338623047" lon="-8.217742919921875">
        <ele>432.0</ele>
        <time>2019-05-03T09:56:49.000Z</time>
      </trkpt>
      <trkpt lat="42.685787200927734" lon="-8.217748641967773">
        <ele>432.0</ele>
        <time>2019-05-03T09:56:49.000Z</time>
      </trkpt>
      <trkpt lat="42.68581771850586" lon="-8.21778392791748">
        <ele>432.0</ele>
        <time>2019-05-03T09:56:53.000Z</time>
      </trkpt>
      <trkpt lat="42.68585968017578" lon="-8.217829704284668">
        <ele>433.0</ele>
        <time>2019-05-03T09:56:56.000Z</time>
      </trkpt>
      <trkpt lat="42.68590545654297" lon="-8.217883110046387">
        <ele>433.0</ele>
        <time>2019-05-03T09:57:00.000Z</time>
      </trkpt>
      <trkpt lat="42.68595504760742" lon="-8.217941284179688">
        <ele>434.0</ele>
        <time>2019-05-03T09:57:03.000Z</time>
      </trkpt>
      <trkpt lat="42.685970306396484" lon="-8.217960357666016">
        <ele>434.0</ele>
        <time>2019-05-03T09:57:07.000Z</time>
      </trkpt>
      <trkpt lat="42.685977935791016" lon="-8.217968940734863">
        <ele>434.0</ele>
        <time>2019-05-03T09:57:11.000Z</time>
      </trkpt>
      <trkpt lat="42.685977935791016" lon="-8.21796989440918">
        <ele>435.0</ele>
        <time>2019-05-03T09:57:15.000Z</time>
      </trkpt>
      <trkpt lat="42.68597412109375" lon="-8.217966079711914">
        <ele>435.0</ele>
        <time>2019-05-03T09:57:18.000Z</time>
      </trkpt>
      <trkpt lat="42.68598175048828" lon="-8.217971801757812">
        <ele>435.0</ele>
        <time>2019-05-03T09:57:19.000Z</time>
      </trkpt>
      <trkpt lat="42.68598556518555" lon="-8.217976570129395">
        <ele>435.0</ele>
        <time>2019-05-03T09:57:19.000Z</time>
      </trkpt>
      <trkpt lat="42.68598937988281" lon="-8.217981338500977">
        <ele>435.0</ele>
        <time>2019-05-03T09:57:19.000Z</time>
      </trkpt>
      <trkpt lat="42.68599319458008" lon="-8.217985153198242">
        <ele>435.0</ele>
        <time>2019-05-03T09:57:19.000Z</time>
      </trkpt>
      <trkpt lat="42.68602752685547" lon="-8.218021392822266">
        <ele>436.0</ele>
        <time>2019-05-03T09:57:22.000Z</time>
      </trkpt>
      <trkpt lat="42.68607711791992" lon="-8.218070983886719">
        <ele>436.0</ele>
        <time>2019-05-03T09:57:25.000Z</time>
      </trkpt>
      <trkpt lat="42.68613815307617" lon="-8.21812915802002">
        <ele>437.0</ele>
        <time>2019-05-03T09:57:28.000Z</time>
      </trkpt>
      <trkpt lat="42.68619918823242" lon="-8.218192100524902">
        <ele>437.0</ele>
        <time>2019-05-03T09:57:31.000Z</time>
      </trkpt>
      <trkpt lat="42.686222076416016" lon="-8.218214988708496">
        <ele>440.0</ele>
        <time>2019-05-03T09:57:45.000Z</time>
      </trkpt>
      <trkpt lat="42.68623733520508" lon="-8.218233108520508">
        <ele>440.0</ele>
        <time>2019-05-03T09:57:46.000Z</time>
      </trkpt>
      <trkpt lat="42.686492919921875" lon="-8.218544960021973">
        <ele>442.0</ele>
        <time>2019-05-03T09:58:06.000Z</time>
      </trkpt>
      <trkpt lat="42.68669128417969" lon="-8.21893310546875">
        <ele>446.0</ele>
        <time>2019-05-03T09:58:37.000Z</time>
      </trkpt>
      <trkpt lat="42.686973571777344" lon="-8.219255447387695">
        <ele>449.0</ele>
        <time>2019-05-03T09:59:04.000Z</time>
      </trkpt>
      <trkpt lat="42.68693542480469" lon="-8.219308853149414">
        <ele>450.0</ele>
        <time>2019-05-03T09:59:11.000Z</time>
      </trkpt>
      <trkpt lat="42.686851501464844" lon="-8.219350814819336">
        <ele>452.0</ele>
        <time>2019-05-03T09:59:18.000Z</time>
      </trkpt>
      <trkpt lat="42.68674087524414" lon="-8.219385147094727">
        <ele>453.0</ele>
        <time>2019-05-03T09:59:25.000Z</time>
      </trkpt>
      <trkpt lat="42.68661117553711" lon="-8.219415664672852">
        <ele>454.0</ele>
        <time>2019-05-03T09:59:31.000Z</time>
      </trkpt>
      <trkpt lat="42.686580657958984" lon="-8.219447135925293">
        <ele>455.0</ele>
        <time>2019-05-03T09:59:35.000Z</time>
      </trkpt>
      <trkpt lat="42.68657302856445" lon="-8.219475746154785">
        <ele>455.0</ele>
        <time>2019-05-03T09:59:38.000Z</time>
      </trkpt>
      <trkpt lat="42.68658447265625" lon="-8.219500541687012">
        <ele>455.0</ele>
        <time>2019-05-03T09:59:41.000Z</time>
      </trkpt>
      <trkpt lat="42.68659973144531" lon="-8.219525337219238">
        <ele>454.0</ele>
        <time>2019-05-03T09:59:44.000Z</time>
      </trkpt>
      <trkpt lat="42.68658447265625" lon="-8.219564437866211">
        <ele>455.0</ele>
        <time>2019-05-03T09:59:49.000Z</time>
      </trkpt>
      <trkpt lat="42.68656539916992" lon="-8.219596862792969">
        <ele>455.0</ele>
        <time>2019-05-03T09:59:55.000Z</time>
      </trkpt>
      <trkpt lat="42.686561584472656" lon="-8.219610214233398">
        <ele>455.0</ele>
        <time>2019-05-03T09:59:55.000Z</time>
      </trkpt>
      <trkpt lat="42.686553955078125" lon="-8.219621658325195">
        <ele>455.0</ele>
        <time>2019-05-03T09:59:55.000Z</time>
      </trkpt>
      <trkpt lat="42.68655014038086" lon="-8.219632148742676">
        <ele>455.0</ele>
        <time>2019-05-03T09:59:55.000Z</time>
      </trkpt>
      <trkpt lat="42.686546325683594" lon="-8.219640731811523">
        <ele>455.0</ele>
        <time>2019-05-03T09:59:56.000Z</time>
      </trkpt>
      <trkpt lat="42.686527252197266" lon="-8.219697952270508">
        <ele>456.0</ele>
        <time>2019-05-03T09:59:58.000Z</time>
      </trkpt>
      <trkpt lat="42.686500549316406" lon="-8.21977424621582">
        <ele>456.0</ele>
        <time>2019-05-03T10:00:00.000Z</time>
      </trkpt>
      <trkpt lat="42.68647003173828" lon="-8.219863891601562">
        <ele>456.0</ele>
        <time>2019-05-03T10:00:02.000Z</time>
      </trkpt>
      <trkpt lat="42.68643569946289" lon="-8.219959259033203">
        <ele>457.0</ele>
        <time>2019-05-03T10:00:04.000Z</time>
      </trkpt>
      <trkpt lat="42.68645477294922" lon="-8.220011711120605">
        <ele>457.0</ele>
        <time>2019-05-03T10:00:07.000Z</time>
      </trkpt>
      <trkpt lat="42.68648910522461" lon="-8.220052719116211">
        <ele>458.0</ele>
        <time>2019-05-03T10:00:11.000Z</time>
      </trkpt>
      <trkpt lat="42.6865348815918" lon="-8.220085144042969">
        <ele>458.0</ele>
        <time>2019-05-03T10:00:15.000Z</time>
      </trkpt>
      <trkpt lat="42.686588287353516" lon="-8.220114707946777">
        <ele>459.0</ele>
        <time>2019-05-03T10:00:19.000Z</time>
      </trkpt>
      <trkpt lat="42.68667221069336" lon="-8.220301628112793">
        <ele>459.0</ele>
        <time>2019-05-03T10:00:35.000Z</time>
      </trkpt>
      <trkpt lat="42.6867561340332" lon="-8.220537185668945">
        <ele>458.0</ele>
        <time>2019-05-03T10:00:51.000Z</time>
      </trkpt>
      <trkpt lat="42.68680191040039" lon="-8.22057056427002">
        <ele>458.0</ele>
        <time>2019-05-03T10:00:53.000Z</time>
      </trkpt>
      <trkpt lat="42.686851501464844" lon="-8.220573425292969">
        <ele>458.0</ele>
        <time>2019-05-03T10:00:56.000Z</time>
      </trkpt>
      <trkpt lat="42.6869010925293" lon="-8.220556259155273">
        <ele>458.0</ele>
        <time>2019-05-03T10:00:58.000Z</time>
      </trkpt>
      <trkpt lat="42.68695068359375" lon="-8.220528602600098">
        <ele>458.0</ele>
        <time>2019-05-03T10:01:01.000Z</time>
      </trkpt>
      <trkpt lat="42.686988830566406" lon="-8.220582962036133">
        <ele>459.0</ele>
        <time>2019-05-03T10:01:06.000Z</time>
      </trkpt>
      <trkpt lat="42.68702697753906" lon="-8.220661163330078">
        <ele>459.0</ele>
        <time>2019-05-03T10:01:11.000Z</time>
      </trkpt>
      <trkpt lat="42.68706130981445" lon="-8.220755577087402">
        <ele>460.0</ele>
        <time>2019-05-03T10:01:17.000Z</time>
      </trkpt>
      <trkpt lat="42.687095642089844" lon="-8.220857620239258">
        <ele>461.0</ele>
        <time>2019-05-03T10:01:22.000Z</time>
      </trkpt>
      <trkpt lat="42.687110900878906" lon="-8.220890998840332">
        <ele>462.0</ele>
        <time>2019-05-03T10:01:27.000Z</time>
      </trkpt>
      <trkpt lat="42.68711853027344" lon="-8.220903396606445">
        <ele>462.0</ele>
        <time>2019-05-03T10:01:33.000Z</time>
      </trkpt>
      <trkpt lat="42.6871223449707" lon="-8.220902442932129">
        <ele>463.0</ele>
        <time>2019-05-03T10:01:38.000Z</time>
      </trkpt>
      <trkpt lat="42.6871223449707" lon="-8.220894813537598">
        <ele>463.0</ele>
        <time>2019-05-03T10:01:43.000Z</time>
      </trkpt>
      <trkpt lat="42.687129974365234" lon="-8.220902442932129">
        <ele>463.0</ele>
        <time>2019-05-03T10:01:43.000Z</time>
      </trkpt>
      <trkpt lat="42.6871337890625" lon="-8.220909118652344">
        <ele>463.0</ele>
        <time>2019-05-03T10:01:44.000Z</time>
      </trkpt>
      <trkpt lat="42.687137603759766" lon="-8.220914840698242">
        <ele>463.0</ele>
        <time>2019-05-03T10:01:44.000Z</time>
      </trkpt>
      <trkpt lat="42.68714141845703" lon="-8.22092056274414">
        <ele>463.0</ele>
        <time>2019-05-03T10:01:44.000Z</time>
      </trkpt>
      <trkpt lat="42.68717956542969" lon="-8.220983505249023">
        <ele>463.0</ele>
        <time>2019-05-03T10:01:47.000Z</time>
      </trkpt>
      <trkpt lat="42.687232971191406" lon="-8.2210693359375">
        <ele>463.0</ele>
        <time>2019-05-03T10:01:49.000Z</time>
      </trkpt>
      <trkpt lat="42.68729782104492" lon="-8.221171379089355">
        <ele>464.0</ele>
        <time>2019-05-03T10:01:52.000Z</time>
      </trkpt>
      <trkpt lat="42.68736267089844" lon="-8.221281051635742">
        <ele>464.0</ele>
        <time>2019-05-03T10:01:54.000Z</time>
      </trkpt>
      <trkpt lat="42.687408447265625" lon="-8.221333503723145">
        <ele>464.0</ele>
        <time>2019-05-03T10:02:02.000Z</time>
      </trkpt>
      <trkpt lat="42.68745422363281" lon="-8.221369743347168">
        <ele>465.0</ele>
        <time>2019-05-03T10:02:09.000Z</time>
      </trkpt>
      <trkpt lat="42.68749237060547" lon="-8.221395492553711">
        <ele>465.0</ele>
        <time>2019-05-03T10:02:17.000Z</time>
      </trkpt>
      <trkpt lat="42.68753433227539" lon="-8.221415519714355">
        <ele>465.0</ele>
        <time>2019-05-03T10:02:24.000Z</time>
      </trkpt>
      <trkpt lat="42.68754959106445" lon="-8.221427917480469">
        <ele>465.0</ele>
        <time>2019-05-03T10:02:26.000Z</time>
      </trkpt>
      <trkpt lat="42.68755340576172" lon="-8.221430778503418">
        <ele>465.0</ele>
        <time>2019-05-03T10:02:28.000Z</time>
      </trkpt>
      <trkpt lat="42.68754959106445" lon="-8.221428871154785">
        <ele>464.0</ele>
        <time>2019-05-03T10:02:30.000Z</time>
      </trkpt>
      <trkpt lat="42.68754196166992" lon="-8.221423149108887">
        <ele>464.0</ele>
        <time>2019-05-03T10:02:32.000Z</time>
      </trkpt>
      <trkpt lat="42.68755340576172" lon="-8.221429824829102">
        <ele>464.0</ele>
        <time>2019-05-03T10:02:33.000Z</time>
      </trkpt>
      <trkpt lat="42.68790817260742" lon="-8.221691131591797">
        <ele>464.0</ele>
        <time>2019-05-03T10:02:57.000Z</time>
      </trkpt>
      <trkpt lat="42.688087463378906" lon="-8.221783638000488">
        <ele>464.0</ele>
        <time>2019-05-03T10:03:10.000Z</time>
      </trkpt>
      <trkpt lat="42.68809127807617" lon="-8.221796035766602">
        <ele>464.0</ele>
        <time>2019-05-03T10:03:13.000Z</time>
      </trkpt>
      <trkpt lat="42.68814468383789" lon="-8.221837043762207">
        <ele>466.0</ele>
        <time>2019-05-03T10:03:33.000Z</time>
      </trkpt>
      <trkpt lat="42.68817901611328" lon="-8.221864700317383">
        <ele>466.0</ele>
        <time>2019-05-03T10:03:34.000Z</time>
      </trkpt>
      <trkpt lat="42.6883544921875" lon="-8.222002029418945">
        <ele>466.0</ele>
        <time>2019-05-03T10:03:36.000Z</time>
      </trkpt>
      <trkpt lat="42.68840026855469" lon="-8.222064018249512">
        <ele>466.0</ele>
        <time>2019-05-03T10:03:41.000Z</time>
      </trkpt>
      <trkpt lat="42.68840789794922" lon="-8.22208023071289">
        <ele>467.0</ele>
        <time>2019-05-03T10:04:06.000Z</time>
      </trkpt>
      <trkpt lat="42.68841552734375" lon="-8.222095489501953">
        <ele>467.0</ele>
        <time>2019-05-03T10:04:07.000Z</time>
      </trkpt>
      <trkpt lat="42.68842697143555" lon="-8.222108840942383">
        <ele>467.0</ele>
        <time>2019-05-03T10:04:12.000Z</time>
      </trkpt>
      <trkpt lat="42.688480377197266" lon="-8.222152709960938">
        <ele>467.0</ele>
        <time>2019-05-03T10:04:24.000Z</time>
      </trkpt>
      <trkpt lat="42.68851852416992" lon="-8.222185134887695">
        <ele>467.0</ele>
        <time>2019-05-03T10:04:25.000Z</time>
      </trkpt>
      <trkpt lat="42.688846588134766" lon="-8.222461700439453">
        <ele>467.0</ele>
        <time>2019-05-03T10:04:29.000Z</time>
      </trkpt>
      <trkpt lat="42.68889236450195" lon="-8.222503662109375">
        <ele>469.0</ele>
        <time>2019-05-03T10:04:37.000Z</time>
      </trkpt>
      <trkpt lat="42.68891143798828" lon="-8.22253131866455">
        <ele>503.0</ele>
        <time>2019-05-03T10:05:03.000Z</time>
      </trkpt>
      <trkpt lat="42.68893051147461" lon="-8.222555160522461">
        <ele>503.0</ele>
        <time>2019-05-03T10:05:04.000Z</time>
      </trkpt>
      <trkpt lat="42.68913650512695" lon="-8.222911834716797">
        <ele>501.0</ele>
        <time>2019-05-03T10:05:08.000Z</time>
      </trkpt>
      <trkpt lat="42.689144134521484" lon="-8.22293758392334">
        <ele>497.0</ele>
        <time>2019-05-03T10:05:09.000Z</time>
      </trkpt>
      <trkpt lat="42.68913269042969" lon="-8.22293758392334">
        <ele>493.0</ele>
        <time>2019-05-03T10:05:11.000Z</time>
      </trkpt>
      <trkpt lat="42.68911361694336" lon="-8.222919464111328">
        <ele>489.0</ele>
        <time>2019-05-03T10:05:12.000Z</time>
      </trkpt>
      <trkpt lat="42.6890869140625" lon="-8.222892761230469">
        <ele>483.0</ele>
        <time>2019-05-03T10:05:13.000Z</time>
      </trkpt>
      <trkpt lat="42.689090728759766" lon="-8.22290325164795">
        <ele>480.0</ele>
        <time>2019-05-03T10:05:20.000Z</time>
      </trkpt>
      <trkpt lat="42.68910217285156" lon="-8.222920417785645">
        <ele>477.0</ele>
        <time>2019-05-03T10:05:27.000Z</time>
      </trkpt>
      <trkpt lat="42.68912124633789" lon="-8.222942352294922">
        <ele>475.0</ele>
        <time>2019-05-03T10:05:34.000Z</time>
      </trkpt>
      <trkpt lat="42.68914031982422" lon="-8.222966194152832">
        <ele>472.0</ele>
        <time>2019-05-03T10:05:41.000Z</time>
      </trkpt>
      <trkpt lat="42.68914794921875" lon="-8.222978591918945">
        <ele>471.0</ele>
        <time>2019-05-03T10:05:41.000Z</time>
      </trkpt>
      <trkpt lat="42.68915557861328" lon="-8.222989082336426">
        <ele>471.0</ele>
        <time>2019-05-03T10:05:42.000Z</time>
      </trkpt>
      <trkpt lat="42.68916320800781" lon="-8.22299861907959">
        <ele>472.0</ele>
        <time>2019-05-03T10:05:42.000Z</time>
      </trkpt>
      <trkpt lat="42.689170837402344" lon="-8.223007202148438">
        <ele>472.0</ele>
        <time>2019-05-03T10:05:42.000Z</time>
      </trkpt>
      <trkpt lat="42.689205169677734" lon="-8.223057746887207">
        <ele>472.0</ele>
        <time>2019-05-03T10:05:45.000Z</time>
      </trkpt>
      <trkpt lat="42.68925094604492" lon="-8.223125457763672">
        <ele>473.0</ele>
        <time>2019-05-03T10:05:48.000Z</time>
      </trkpt>
      <trkpt lat="42.689308166503906" lon="-8.223204612731934">
        <ele>473.0</ele>
        <time>2019-05-03T10:05:51.000Z</time>
      </trkpt>
      <trkpt lat="42.68936538696289" lon="-8.223289489746094">
        <ele>473.0</ele>
        <time>2019-05-03T10:05:54.000Z</time>
      </trkpt>
      <trkpt lat="42.689388275146484" lon="-8.223325729370117">
        <ele>473.0</ele>
        <time>2019-05-03T10:05:58.000Z</time>
      </trkpt>
      <trkpt lat="42.68940353393555" lon="-8.223347663879395">
        <ele>473.0</ele>
        <time>2019-05-03T10:06:02.000Z</time>
      </trkpt>
      <trkpt lat="42.68940734863281" lon="-8.223360061645508">
        <ele>473.0</ele>
        <time>2019-05-03T10:06:05.000Z</time>
      </trkpt>
      <trkpt lat="42.68940734863281" lon="-8.223367691040039">
        <ele>473.0</ele>
        <time>2019-05-03T10:06:09.000Z</time>
      </trkpt>
      <trkpt lat="42.689414978027344" lon="-8.223381042480469">
        <ele>473.0</ele>
        <time>2019-05-03T10:06:09.000Z</time>
      </trkpt>
      <trkpt lat="42.68941879272461" lon="-8.22339153289795">
        <ele>473.0</ele>
        <time>2019-05-03T10:06:10.000Z</time>
      </trkpt>
      <trkpt lat="42.68942642211914" lon="-8.223400115966797">
        <ele>473.0</ele>
        <time>2019-05-03T10:06:10.000Z</time>
      </trkpt>
      <trkpt lat="42.689430236816406" lon="-8.223407745361328">
        <ele>473.0</ele>
        <time>2019-05-03T10:06:10.000Z</time>
      </trkpt>
      <trkpt lat="42.6894645690918" lon="-8.223477363586426">
        <ele>473.0</ele>
        <time>2019-05-03T10:06:16.000Z</time>
      </trkpt>
      <trkpt lat="42.68951416015625" lon="-8.223570823669434">
        <ele>472.0</ele>
        <time>2019-05-03T10:06:21.000Z</time>
      </trkpt>
      <trkpt lat="42.689571380615234" lon="-8.223681449890137">
        <ele>471.0</ele>
        <time>2019-05-03T10:06:27.000Z</time>
      </trkpt>
      <trkpt lat="42.689632415771484" lon="-8.223799705505371">
        <ele>471.0</ele>
        <time>2019-05-03T10:06:32.000Z</time>
      </trkpt>
      <trkpt lat="42.68972396850586" lon="-8.224265098571777">
        <ele>472.0</ele>
        <time>2019-05-03T10:07:03.000Z</time>
      </trkpt>
      <trkpt lat="42.68984603881836" lon="-8.224677085876465">
        <ele>474.0</ele>
        <time>2019-05-03T10:07:32.000Z</time>
      </trkpt>
      <trkpt lat="42.689849853515625" lon="-8.224736213684082">
        <ele>474.0</ele>
        <time>2019-05-03T10:07:46.000Z</time>
      </trkpt>
      <trkpt lat="42.68985366821289" lon="-8.224774360656738">
        <ele>474.0</ele>
        <time>2019-05-03T10:07:47.000Z</time>
      </trkpt>
      <trkpt lat="42.68992614746094" lon="-8.225116729736328">
        <ele>477.0</ele>
        <time>2019-05-03T10:07:58.000Z</time>
      </trkpt>
      <trkpt lat="42.689945220947266" lon="-8.225152969360352">
        <ele>479.0</ele>
        <time>2019-05-03T10:08:12.000Z</time>
      </trkpt>
      <trkpt lat="42.68995666503906" lon="-8.225179672241211">
        <ele>479.0</ele>
        <time>2019-05-03T10:08:13.000Z</time>
      </trkpt>
      <trkpt lat="42.690006256103516" lon="-8.22548770904541">
        <ele>478.0</ele>
        <time>2019-05-03T10:08:25.000Z</time>
      </trkpt>
      <trkpt lat="42.68999099731445" lon="-8.2255220413208">
        <ele>478.0</ele>
        <time>2019-05-03T10:08:34.000Z</time>
      </trkpt>
      <trkpt lat="42.689964294433594" lon="-8.22553825378418">
        <ele>479.0</ele>
        <time>2019-05-03T10:08:44.000Z</time>
      </trkpt>
      <trkpt lat="42.6899299621582" lon="-8.225543022155762">
        <ele>480.0</ele>
        <time>2019-05-03T10:08:53.000Z</time>
      </trkpt>
      <trkpt lat="42.68989181518555" lon="-8.225542068481445">
        <ele>482.0</ele>
        <time>2019-05-03T10:09:02.000Z</time>
      </trkpt>
      <trkpt lat="42.689876556396484" lon="-8.225550651550293">
        <ele>482.0</ele>
        <time>2019-05-03T10:09:02.000Z</time>
      </trkpt>
      <trkpt lat="42.68986129760742" lon="-8.225557327270508">
        <ele>482.0</ele>
        <time>2019-05-03T10:09:03.000Z</time>
      </trkpt>
      <trkpt lat="42.689849853515625" lon="-8.22556209564209">
        <ele>482.0</ele>
        <time>2019-05-03T10:09:03.000Z</time>
      </trkpt>
      <trkpt lat="42.68983840942383" lon="-8.225566864013672">
        <ele>482.0</ele>
        <time>2019-05-03T10:09:03.000Z</time>
      </trkpt>
      <trkpt lat="42.689781188964844" lon="-8.225602149963379">
        <ele>481.0</ele>
        <time>2019-05-03T10:09:07.000Z</time>
      </trkpt>
      <trkpt lat="42.689701080322266" lon="-8.225648880004883">
        <ele>481.0</ele>
        <time>2019-05-03T10:09:12.000Z</time>
      </trkpt>
      <trkpt lat="42.68960952758789" lon="-8.225703239440918">
        <ele>480.0</ele>
        <time>2019-05-03T10:09:16.000Z</time>
      </trkpt>
      <trkpt lat="42.68951416015625" lon="-8.225761413574219">
        <ele>479.0</ele>
        <time>2019-05-03T10:09:20.000Z</time>
      </trkpt>
      <trkpt lat="42.68943405151367" lon="-8.225802421569824">
        <ele>479.0</ele>
        <time>2019-05-03T10:09:27.000Z</time>
      </trkpt>
      <trkpt lat="42.689361572265625" lon="-8.22584056854248">
        <ele>480.0</ele>
        <time>2019-05-03T10:09:35.000Z</time>
      </trkpt>
      <trkpt lat="42.68928527832031" lon="-8.225876808166504">
        <ele>480.0</ele>
        <time>2019-05-03T10:09:42.000Z</time>
      </trkpt>
      <trkpt lat="42.689212799072266" lon="-8.225912094116211">
        <ele>480.0</ele>
        <time>2019-05-03T10:09:49.000Z</time>
      </trkpt>
      <trkpt lat="42.689186096191406" lon="-8.225924491882324">
        <ele>480.0</ele>
        <time>2019-05-03T10:09:51.000Z</time>
      </trkpt>
      <trkpt lat="42.68917465209961" lon="-8.225926399230957">
        <ele>480.0</ele>
        <time>2019-05-03T10:09:53.000Z</time>
      </trkpt>
      <trkpt lat="42.68918228149414" lon="-8.225921630859375">
        <ele>480.0</ele>
        <time>2019-05-03T10:09:55.000Z</time>
      </trkpt>
      <trkpt lat="42.68919372558594" lon="-8.225913047790527">
        <ele>480.0</ele>
        <time>2019-05-03T10:09:57.000Z</time>
      </trkpt>
      <trkpt lat="42.68918991088867" lon="-8.225913047790527">
        <ele>480.0</ele>
        <time>2019-05-03T10:09:57.000Z</time>
      </trkpt>
      <trkpt lat="42.689186096191406" lon="-8.225914001464844">
        <ele>480.0</ele>
        <time>2019-05-03T10:09:58.000Z</time>
      </trkpt>
      <trkpt lat="42.689178466796875" lon="-8.225914001464844">
        <ele>480.0</ele>
        <time>2019-05-03T10:09:58.000Z</time>
      </trkpt>
      <trkpt lat="42.68917465209961" lon="-8.225914001464844">
        <ele>480.0</ele>
        <time>2019-05-03T10:09:58.000Z</time>
      </trkpt>
      <trkpt lat="42.689002990722656" lon="-8.22607421875">
        <ele>480.0</ele>
        <time>2019-05-03T10:10:09.000Z</time>
      </trkpt>
      <trkpt lat="42.688987731933594" lon="-8.226099014282227">
        <ele>480.0</ele>
        <time>2019-05-03T10:10:16.000Z</time>
      </trkpt>
      <trkpt lat="42.688987731933594" lon="-8.226117134094238">
        <ele>480.0</ele>
        <time>2019-05-03T10:10:22.000Z</time>
      </trkpt>
      <trkpt lat="42.68899154663086" lon="-8.226130485534668">
        <ele>481.0</ele>
        <time>2019-05-03T10:10:29.000Z</time>
      </trkpt>
      <trkpt lat="42.68899917602539" lon="-8.226141929626465">
        <ele>481.0</ele>
        <time>2019-05-03T10:10:35.000Z</time>
      </trkpt>
      <trkpt lat="42.68899917602539" lon="-8.226155281066895">
        <ele>481.0</ele>
        <time>2019-05-03T10:10:35.000Z</time>
      </trkpt>
      <trkpt lat="42.68899917602539" lon="-8.226165771484375">
        <ele>481.0</ele>
        <time>2019-05-03T10:10:36.000Z</time>
      </trkpt>
      <trkpt lat="42.68899917602539" lon="-8.226176261901855">
        <ele>481.0</ele>
        <time>2019-05-03T10:10:36.000Z</time>
      </trkpt>
      <trkpt lat="42.68899917602539" lon="-8.22618579864502">
        <ele>481.0</ele>
        <time>2019-05-03T10:10:36.000Z</time>
      </trkpt>
      <trkpt lat="42.68898391723633" lon="-8.2262601852417">
        <ele>481.0</ele>
        <time>2019-05-03T10:10:40.000Z</time>
      </trkpt>
      <trkpt lat="42.688961029052734" lon="-8.226360321044922">
        <ele>481.0</ele>
        <time>2019-05-03T10:10:44.000Z</time>
      </trkpt>
      <trkpt lat="42.688934326171875" lon="-8.226479530334473">
        <ele>481.0</ele>
        <time>2019-05-03T10:10:47.000Z</time>
      </trkpt>
      <trkpt lat="42.688907623291016" lon="-8.226606369018555">
        <ele>482.0</ele>
        <time>2019-05-03T10:10:51.000Z</time>
      </trkpt>
      <trkpt lat="42.68887710571289" lon="-8.22671127319336">
        <ele>482.0</ele>
        <time>2019-05-03T10:10:59.000Z</time>
      </trkpt>
      <trkpt lat="42.68885040283203" lon="-8.226816177368164">
        <ele>483.0</ele>
        <time>2019-05-03T10:11:08.000Z</time>
      </trkpt>
      <trkpt lat="42.688819885253906" lon="-8.226920127868652">
        <ele>484.0</ele>
        <time>2019-05-03T10:11:16.000Z</time>
      </trkpt>
      <trkpt lat="42.688785552978516" lon="-8.227025032043457">
        <ele>485.0</ele>
        <time>2019-05-03T10:11:24.000Z</time>
      </trkpt>
      <trkpt lat="42.68875503540039" lon="-8.227132797241211">
        <ele>486.0</ele>
        <time>2019-05-03T10:11:31.000Z</time>
      </trkpt>
      <trkpt lat="42.688720703125" lon="-8.227241516113281">
        <ele>487.0</ele>
        <time>2019-05-03T10:11:37.000Z</time>
      </trkpt>
      <trkpt lat="42.688690185546875" lon="-8.227352142333984">
        <ele>488.0</ele>
        <time>2019-05-03T10:11:44.000Z</time>
      </trkpt>
      <trkpt lat="42.688655853271484" lon="-8.227461814880371">
        <ele>488.0</ele>
        <time>2019-05-03T10:11:50.000Z</time>
      </trkpt>
      <trkpt lat="42.688636779785156" lon="-8.227517127990723">
        <ele>489.0</ele>
        <time>2019-05-03T10:11:52.000Z</time>
      </trkpt>
      <trkpt lat="42.688621520996094" lon="-8.227548599243164">
        <ele>489.0</ele>
        <time>2019-05-03T10:11:55.000Z</time>
      </trkpt>
      <trkpt lat="42.68861389160156" lon="-8.227564811706543">
        <ele>489.0</ele>
        <time>2019-05-03T10:11:57.000Z</time>
      </trkpt>
      <trkpt lat="42.68860626220703" lon="-8.22757339477539">
        <ele>489.0</ele>
        <time>2019-05-03T10:11:59.000Z</time>
      </trkpt>
      <trkpt lat="42.6885871887207" lon="-8.22765064239502">
        <ele>494.0</ele>
        <time>2019-05-03T10:12:16.000Z</time>
      </trkpt>
      <trkpt lat="42.688575744628906" lon="-8.227693557739258">
        <ele>494.0</ele>
        <time>2019-05-03T10:12:17.000Z</time>
      </trkpt>
      <trkpt lat="42.688438415527344" lon="-8.228076934814453">
        <ele>496.0</ele>
        <time>2019-05-03T10:12:31.000Z</time>
      </trkpt>
      <trkpt lat="42.68842315673828" lon="-8.228113174438477">
        <ele>494.0</ele>
        <time>2019-05-03T10:12:47.000Z</time>
      </trkpt>
      <trkpt lat="42.688411712646484" lon="-8.228139877319336">
        <ele>494.0</ele>
        <time>2019-05-03T10:12:48.000Z</time>
      </trkpt>
      <trkpt lat="42.688289642333984" lon="-8.228503227233887">
        <ele>493.0</ele>
        <time>2019-05-03T10:13:03.000Z</time>
      </trkpt>
      <trkpt lat="42.68825149536133" lon="-8.228545188903809">
        <ele>493.0</ele>
        <time>2019-05-03T10:13:26.000Z</time>
      </trkpt>
      <trkpt lat="42.6882209777832" lon="-8.228575706481934">
        <ele>493.0</ele>
        <time>2019-05-03T10:13:27.000Z</time>
      </trkpt>
      <trkpt lat="42.68803024291992" lon="-8.228981018066406">
        <ele>492.0</ele>
        <time>2019-05-03T10:13:45.000Z</time>
      </trkpt>
      <trkpt lat="42.687931060791016" lon="-8.229093551635742">
        <ele>491.0</ele>
        <time>2019-05-03T10:13:54.000Z</time>
      </trkpt>
      <trkpt lat="42.687931060791016" lon="-8.229120254516602">
        <ele>491.0</ele>
        <time>2019-05-03T10:13:56.000Z</time>
      </trkpt>
      <trkpt lat="42.68794631958008" lon="-8.229146957397461">
        <ele>491.0</ele>
        <time>2019-05-03T10:13:59.000Z</time>
      </trkpt>
      <trkpt lat="42.687965393066406" lon="-8.229172706604004">
        <ele>491.0</ele>
        <time>2019-05-03T10:14:01.000Z</time>
      </trkpt>
      <trkpt lat="42.68798828125" lon="-8.229198455810547">
        <ele>491.0</ele>
        <time>2019-05-03T10:14:03.000Z</time>
      </trkpt>
      <trkpt lat="42.687992095947266" lon="-8.229216575622559">
        <ele>492.0</ele>
        <time>2019-05-03T10:14:09.000Z</time>
      </trkpt>
      <trkpt lat="42.687992095947266" lon="-8.229231834411621">
        <ele>492.0</ele>
        <time>2019-05-03T10:14:15.000Z</time>
      </trkpt>
      <trkpt lat="42.687984466552734" lon="-8.229244232177734">
        <ele>493.0</ele>
        <time>2019-05-03T10:14:20.000Z</time>
      </trkpt>
      <trkpt lat="42.6879768371582" lon="-8.229255676269531">
        <ele>494.0</ele>
        <time>2019-05-03T10:14:26.000Z</time>
      </trkpt>
      <trkpt lat="42.6879768371582" lon="-8.229269027709961">
        <ele>495.0</ele>
        <time>2019-05-03T10:14:26.000Z</time>
      </trkpt>
      <trkpt lat="42.68797302246094" lon="-8.229280471801758">
        <ele>495.0</ele>
        <time>2019-05-03T10:14:27.000Z</time>
      </trkpt>
      <trkpt lat="42.68796920776367" lon="-8.229290962219238">
        <ele>494.0</ele>
        <time>2019-05-03T10:14:27.000Z</time>
      </trkpt>
      <trkpt lat="42.68796920776367" lon="-8.229302406311035">
        <ele>494.0</ele>
        <time>2019-05-03T10:14:27.000Z</time>
      </trkpt>
      <trkpt lat="42.68794631958008" lon="-8.229368209838867">
        <ele>494.0</ele>
        <time>2019-05-03T10:14:28.000Z</time>
      </trkpt>
      <trkpt lat="42.68791961669922" lon="-8.22945785522461">
        <ele>494.0</ele>
        <time>2019-05-03T10:14:29.000Z</time>
      </trkpt>
      <trkpt lat="42.68788528442383" lon="-8.229561805725098">
        <ele>494.0</ele>
        <time>2019-05-03T10:14:29.000Z</time>
      </trkpt>
      <trkpt lat="42.68785095214844" lon="-8.229673385620117">
        <ele>494.0</ele>
        <time>2019-05-03T10:14:30.000Z</time>
      </trkpt>
      <trkpt lat="42.687774658203125" lon="-8.22977352142334">
        <ele>495.0</ele>
        <time>2019-05-03T10:14:37.000Z</time>
      </trkpt>
      <trkpt lat="42.68769073486328" lon="-8.229833602905273">
        <ele>495.0</ele>
        <time>2019-05-03T10:14:44.000Z</time>
      </trkpt>
      <trkpt lat="42.687686920166016" lon="-8.22985553741455">
        <ele>495.0</ele>
        <time>2019-05-03T10:14:46.000Z</time>
      </trkpt>
      <trkpt lat="42.68769836425781" lon="-8.229869842529297">
        <ele>495.0</ele>
        <time>2019-05-03T10:14:47.000Z</time>
      </trkpt>
      <trkpt lat="42.68771743774414" lon="-8.229878425598145">
        <ele>495.0</ele>
        <time>2019-05-03T10:14:49.000Z</time>
      </trkpt>
      <trkpt lat="42.687744140625" lon="-8.22988510131836">
        <ele>495.0</ele>
        <time>2019-05-03T10:14:50.000Z</time>
      </trkpt>
      <trkpt lat="42.687744140625" lon="-8.229894638061523">
        <ele>495.0</ele>
        <time>2019-05-03T10:14:52.000Z</time>
      </trkpt>
      <trkpt lat="42.687740325927734" lon="-8.229901313781738">
        <ele>494.0</ele>
        <time>2019-05-03T10:14:55.000Z</time>
      </trkpt>
      <trkpt lat="42.68773651123047" lon="-8.229907989501953">
        <ele>494.0</ele>
        <time>2019-05-03T10:14:57.000Z</time>
      </trkpt>
      <trkpt lat="42.68772888183594" lon="-8.229913711547852">
        <ele>494.0</ele>
        <time>2019-05-03T10:14:59.000Z</time>
      </trkpt>
      <trkpt lat="42.68772506713867" lon="-8.22991943359375">
        <ele>493.0</ele>
        <time>2019-05-03T10:14:59.000Z</time>
      </trkpt>
      <trkpt lat="42.687721252441406" lon="-8.229926109313965">
        <ele>493.0</ele>
        <time>2019-05-03T10:15:00.000Z</time>
      </trkpt>
      <trkpt lat="42.68771743774414" lon="-8.229931831359863">
        <ele>494.0</ele>
        <time>2019-05-03T10:15:00.000Z</time>
      </trkpt>
      <trkpt lat="42.68771743774414" lon="-8.229936599731445">
        <ele>494.0</ele>
        <time>2019-05-03T10:15:00.000Z</time>
      </trkpt>
      <trkpt lat="42.68772506713867" lon="-8.230015754699707">
        <ele>493.0</ele>
        <time>2019-05-03T10:15:05.000Z</time>
      </trkpt>
      <trkpt lat="42.68773651123047" lon="-8.230124473571777">
        <ele>491.0</ele>
        <time>2019-05-03T10:15:11.000Z</time>
      </trkpt>
      <trkpt lat="42.68775177001953" lon="-8.230253219604492">
        <ele>489.0</ele>
        <time>2019-05-03T10:15:16.000Z</time>
      </trkpt>
      <trkpt lat="42.68777084350586" lon="-8.230392456054688">
        <ele>487.0</ele>
        <time>2019-05-03T10:15:21.000Z</time>
      </trkpt>
      <trkpt lat="42.687782287597656" lon="-8.230464935302734">
        <ele>487.0</ele>
        <time>2019-05-03T10:15:24.000Z</time>
      </trkpt>
      <trkpt lat="42.68779373168945" lon="-8.230520248413086">
        <ele>486.0</ele>
        <time>2019-05-03T10:15:27.000Z</time>
      </trkpt>
      <trkpt lat="42.687801361083984" lon="-8.23056411743164">
        <ele>486.0</ele>
        <time>2019-05-03T10:15:29.000Z</time>
      </trkpt>
      <trkpt lat="42.68781280517578" lon="-8.230602264404297">
        <ele>486.0</ele>
        <time>2019-05-03T10:15:32.000Z</time>
      </trkpt>
      <trkpt lat="42.687801361083984" lon="-8.23064136505127">
        <ele>487.0</ele>
        <time>2019-05-03T10:15:35.000Z</time>
      </trkpt>
      <trkpt lat="42.687782287597656" lon="-8.230674743652344">
        <ele>487.0</ele>
        <time>2019-05-03T10:15:37.000Z</time>
      </trkpt>
      <trkpt lat="42.68775939941406" lon="-8.230703353881836">
        <ele>487.0</ele>
        <time>2019-05-03T10:15:40.000Z</time>
      </trkpt>
      <trkpt lat="42.68772888183594" lon="-8.230731010437012">
        <ele>488.0</ele>
        <time>2019-05-03T10:15:42.000Z</time>
      </trkpt>
      <trkpt lat="42.6877326965332" lon="-8.230768203735352">
        <ele>488.0</ele>
        <time>2019-05-03T10:15:45.000Z</time>
      </trkpt>
      <trkpt lat="42.687744140625" lon="-8.23080825805664">
        <ele>488.0</ele>
        <time>2019-05-03T10:15:49.000Z</time>
      </trkpt>
      <trkpt lat="42.687767028808594" lon="-8.230850219726562">
        <ele>489.0</ele>
        <time>2019-05-03T10:15:52.000Z</time>
      </trkpt>
      <trkpt lat="42.68778991699219" lon="-8.2308931350708">
        <ele>489.0</ele>
        <time>2019-05-03T10:15:55.000Z</time>
      </trkpt>
      <trkpt lat="42.687774658203125" lon="-8.230956077575684">
        <ele>489.0</ele>
        <time>2019-05-03T10:15:59.000Z</time>
      </trkpt>
      <trkpt lat="42.68775177001953" lon="-8.23102855682373">
        <ele>489.0</ele>
        <time>2019-05-03T10:16:03.000Z</time>
      </trkpt>
      <trkpt lat="42.68771743774414" lon="-8.231107711791992">
        <ele>489.0</ele>
        <time>2019-05-03T10:16:06.000Z</time>
      </trkpt>
      <trkpt lat="42.68768310546875" lon="-8.231189727783203">
        <ele>489.0</ele>
        <time>2019-05-03T10:16:10.000Z</time>
      </trkpt>
      <trkpt lat="42.68767547607422" lon="-8.231283187866211">
        <ele>489.0</ele>
        <time>2019-05-03T10:16:16.000Z</time>
      </trkpt>
      <trkpt lat="42.68769073486328" lon="-8.23134994506836">
        <ele>489.0</ele>
        <time>2019-05-03T10:16:21.000Z</time>
      </trkpt>
      <trkpt lat="42.68709182739258" lon="-8.232912063598633">
        <ele>477.0</ele>
        <time>2019-05-03T10:22:25.000Z</time>
      </trkpt>
      <trkpt lat="42.687095642089844" lon="-8.232916831970215">
        <ele>475.0</ele>
        <time>2019-05-03T10:22:26.000Z</time>
      </trkpt>
      <trkpt lat="42.68709182739258" lon="-8.23298454284668">
        <ele>475.0</ele>
        <time>2019-05-03T10:23:21.000Z</time>
      </trkpt>
      <trkpt lat="42.68708801269531" lon="-8.233025550842285">
        <ele>475.0</ele>
        <time>2019-05-03T10:23:22.000Z</time>
      </trkpt>
      <trkpt lat="42.68711853027344" lon="-8.233497619628906">
        <ele>476.0</ele>
        <time>2019-05-03T10:23:47.000Z</time>
      </trkpt>
      <trkpt lat="42.687171936035156" lon="-8.233662605285645">
        <ele>476.0</ele>
        <time>2019-05-03T10:24:07.000Z</time>
      </trkpt>
      <trkpt lat="42.68724060058594" lon="-8.233793258666992">
        <ele>476.0</ele>
        <time>2019-05-03T10:24:28.000Z</time>
      </trkpt>
      <trkpt lat="42.687252044677734" lon="-8.2338285446167">
        <ele>475.0</ele>
        <time>2019-05-03T10:24:37.000Z</time>
      </trkpt>
      <trkpt lat="42.687255859375" lon="-8.233846664428711">
        <ele>473.0</ele>
        <time>2019-05-03T10:24:47.000Z</time>
      </trkpt>
      <trkpt lat="42.687252044677734" lon="-8.233855247497559">
        <ele>471.0</ele>
        <time>2019-05-03T10:24:56.000Z</time>
      </trkpt>
      <trkpt lat="42.68724822998047" lon="-8.233857154846191">
        <ele>469.0</ele>
        <time>2019-05-03T10:25:06.000Z</time>
      </trkpt>
      <trkpt lat="42.68724822998047" lon="-8.233868598937988">
        <ele>468.0</ele>
        <time>2019-05-03T10:25:06.000Z</time>
      </trkpt>
      <trkpt lat="42.68724822998047" lon="-8.233879089355469">
        <ele>468.0</ele>
        <time>2019-05-03T10:25:06.000Z</time>
      </trkpt>
      <trkpt lat="42.687252044677734" lon="-8.233887672424316">
        <ele>468.0</ele>
        <time>2019-05-03T10:25:07.000Z</time>
      </trkpt>
      <trkpt lat="42.687252044677734" lon="-8.233895301818848">
        <ele>469.0</ele>
        <time>2019-05-03T10:25:07.000Z</time>
      </trkpt>
      <trkpt lat="42.68726348876953" lon="-8.233965873718262">
        <ele>468.0</ele>
        <time>2019-05-03T10:25:12.000Z</time>
      </trkpt>
      <trkpt lat="42.687278747558594" lon="-8.234062194824219">
        <ele>468.0</ele>
        <time>2019-05-03T10:25:16.000Z</time>
      </trkpt>
      <trkpt lat="42.68729782104492" lon="-8.234174728393555">
        <ele>467.0</ele>
        <time>2019-05-03T10:25:21.000Z</time>
      </trkpt>
      <trkpt lat="42.68731689453125" lon="-8.234296798706055">
        <ele>466.0</ele>
        <time>2019-05-03T10:25:26.000Z</time>
      </trkpt>
      <trkpt lat="42.68732833862305" lon="-8.23432731628418">
        <ele>466.0</ele>
        <time>2019-05-03T10:25:34.000Z</time>
      </trkpt>
      <trkpt lat="42.68734359741211" lon="-8.234328269958496">
        <ele>467.0</ele>
        <time>2019-05-03T10:25:41.000Z</time>
      </trkpt>
      <trkpt lat="42.687355041503906" lon="-8.234310150146484">
        <ele>468.0</ele>
        <time>2019-05-03T10:25:49.000Z</time>
      </trkpt>
      <trkpt lat="42.6873664855957" lon="-8.234282493591309">
        <ele>469.0</ele>
        <time>2019-05-03T10:25:57.000Z</time>
      </trkpt>
      <trkpt lat="42.687374114990234" lon="-8.23427963256836">
        <ele>469.0</ele>
        <time>2019-05-03T10:25:57.000Z</time>
      </trkpt>
      <trkpt lat="42.68738555908203" lon="-8.23427677154541">
        <ele>469.0</ele>
        <time>2019-05-03T10:25:57.000Z</time>
      </trkpt>
      <trkpt lat="42.68739318847656" lon="-8.234274864196777">
        <ele>469.0</ele>
        <time>2019-05-03T10:25:58.000Z</time>
      </trkpt>
      <trkpt lat="42.687400817871094" lon="-8.234272003173828">
        <ele>469.0</ele>
        <time>2019-05-03T10:25:58.000Z</time>
      </trkpt>
      <trkpt lat="42.68741226196289" lon="-8.234270095825195">
        <ele>468.0</ele>
        <time>2019-05-03T10:25:59.000Z</time>
      </trkpt>
      <trkpt lat="42.68742752075195" lon="-8.234267234802246">
        <ele>468.0</ele>
        <time>2019-05-03T10:26:00.000Z</time>
      </trkpt>
      <trkpt lat="42.687442779541016" lon="-8.234265327453613">
        <ele>468.0</ele>
        <time>2019-05-03T10:26:01.000Z</time>
      </trkpt>
      <trkpt lat="42.68745803833008" lon="-8.234262466430664">
        <ele>468.0</ele>
        <time>2019-05-03T10:26:02.000Z</time>
      </trkpt>
      <trkpt lat="42.68746566772461" lon="-8.234261512756348">
        <ele>468.0</ele>
        <time>2019-05-03T10:26:03.000Z</time>
      </trkpt>
      <trkpt lat="42.687469482421875" lon="-8.234261512756348">
        <ele>468.0</ele>
        <time>2019-05-03T10:26:04.000Z</time>
      </trkpt>
      <trkpt lat="42.687469482421875" lon="-8.234262466430664">
        <ele>468.0</ele>
        <time>2019-05-03T10:26:05.000Z</time>
      </trkpt>
      <trkpt lat="42.687469482421875" lon="-8.23426342010498">
        <ele>468.0</ele>
        <time>2019-05-03T10:26:06.000Z</time>
      </trkpt>
      <trkpt lat="42.68747329711914" lon="-8.23426342010498">
        <ele>468.0</ele>
        <time>2019-05-03T10:26:06.000Z</time>
      </trkpt>
      <trkpt lat="42.68747329711914" lon="-8.23426342010498">
        <ele>468.0</ele>
        <time>2019-05-03T10:26:06.000Z</time>
      </trkpt>
      <trkpt lat="42.687477111816406" lon="-8.23426342010498">
        <ele>468.0</ele>
        <time>2019-05-03T10:26:07.000Z</time>
      </trkpt>
      <trkpt lat="42.68748092651367" lon="-8.23426342010498">
        <ele>468.0</ele>
        <time>2019-05-03T10:26:07.000Z</time>
      </trkpt>
      <trkpt lat="42.6874885559082" lon="-8.234264373779297">
        <ele>468.0</ele>
        <time>2019-05-03T10:26:07.000Z</time>
      </trkpt>
      <trkpt lat="42.6875" lon="-8.234265327453613">
        <ele>468.0</ele>
        <time>2019-05-03T10:26:07.000Z</time>
      </trkpt>
      <trkpt lat="42.68751525878906" lon="-8.234267234802246">
        <ele>468.0</ele>
        <time>2019-05-03T10:26:08.000Z</time>
      </trkpt>
      <trkpt lat="42.687530517578125" lon="-8.234268188476562">
        <ele>468.0</ele>
        <time>2019-05-03T10:26:08.000Z</time>
      </trkpt>
      <trkpt lat="42.687557220458984" lon="-8.234288215637207">
        <ele>467.0</ele>
        <time>2019-05-03T10:26:16.000Z</time>
      </trkpt>
      <trkpt lat="42.687591552734375" lon="-8.2343168258667">
        <ele>466.0</ele>
        <time>2019-05-03T10:26:24.000Z</time>
      </trkpt>
      <trkpt lat="42.68760299682617" lon="-8.234325408935547">
        <ele>466.0</ele>
        <time>2019-05-03T10:26:24.000Z</time>
      </trkpt>
      <trkpt lat="42.6876106262207" lon="-8.234332084655762">
        <ele>466.0</ele>
        <time>2019-05-03T10:26:24.000Z</time>
      </trkpt>
      <trkpt lat="42.687618255615234" lon="-8.23433780670166">
        <ele>466.0</ele>
        <time>2019-05-03T10:26:25.000Z</time>
      </trkpt>
      <trkpt lat="42.6876220703125" lon="-8.234343528747559">
        <ele>466.0</ele>
        <time>2019-05-03T10:26:25.000Z</time>
      </trkpt>
      <trkpt lat="42.687652587890625" lon="-8.234363555908203">
        <ele>465.0</ele>
        <time>2019-05-03T10:26:27.000Z</time>
      </trkpt>
      <trkpt lat="42.68769454956055" lon="-8.234390258789062">
        <ele>465.0</ele>
        <time>2019-05-03T10:26:29.000Z</time>
      </trkpt>
      <trkpt lat="42.687740325927734" lon="-8.234419822692871">
        <ele>464.0</ele>
        <time>2019-05-03T10:26:31.000Z</time>
      </trkpt>
      <trkpt lat="42.68778610229492" lon="-8.234452247619629">
        <ele>463.0</ele>
        <time>2019-05-03T10:26:33.000Z</time>
      </trkpt>
      <trkpt lat="42.68780517578125" lon="-8.234463691711426">
        <ele>463.0</ele>
        <time>2019-05-03T10:26:40.000Z</time>
      </trkpt>
      <trkpt lat="42.687808990478516" lon="-8.234469413757324">
        <ele>462.0</ele>
        <time>2019-05-03T10:26:47.000Z</time>
      </trkpt>
      <trkpt lat="42.687808990478516" lon="-8.23447036743164">
        <ele>462.0</ele>
        <time>2019-05-03T10:26:55.000Z</time>
      </trkpt>
      <trkpt lat="42.68780517578125" lon="-8.234469413757324">
        <ele>462.0</ele>
        <time>2019-05-03T10:27:02.000Z</time>
      </trkpt>
      <trkpt lat="42.687808990478516" lon="-8.23447322845459">
        <ele>462.0</ele>
        <time>2019-05-03T10:27:02.000Z</time>
      </trkpt>
      <trkpt lat="42.68781280517578" lon="-8.234477043151855">
        <ele>462.0</ele>
        <time>2019-05-03T10:27:02.000Z</time>
      </trkpt>
      <trkpt lat="42.68781661987305" lon="-8.234480857849121">
        <ele>462.0</ele>
        <time>2019-05-03T10:27:03.000Z</time>
      </trkpt>
      <trkpt lat="42.68782043457031" lon="-8.23448371887207">
        <ele>462.0</ele>
        <time>2019-05-03T10:27:03.000Z</time>
      </trkpt>
      <trkpt lat="42.68783187866211" lon="-8.234496116638184">
        <ele>462.0</ele>
        <time>2019-05-03T10:27:05.000Z</time>
      </trkpt>
      <trkpt lat="42.687843322753906" lon="-8.234511375427246">
        <ele>462.0</ele>
        <time>2019-05-03T10:27:06.000Z</time>
      </trkpt>
      <trkpt lat="42.68785858154297" lon="-8.234529495239258">
        <ele>461.0</ele>
        <time>2019-05-03T10:27:08.000Z</time>
      </trkpt>
      <trkpt lat="42.6878776550293" lon="-8.234549522399902">
        <ele>461.0</ele>
        <time>2019-05-03T10:27:10.000Z</time>
      </trkpt>
      <trkpt lat="42.68789291381836" lon="-8.234579086303711">
        <ele>457.0</ele>
        <time>2019-05-03T10:27:35.000Z</time>
      </trkpt>
      <trkpt lat="42.687904357910156" lon="-8.234601974487305">
        <ele>457.0</ele>
        <time>2019-05-03T10:27:36.000Z</time>
      </trkpt>
      <trkpt lat="42.68791580200195" lon="-8.23462200164795">
        <ele>456.0</ele>
        <time>2019-05-03T10:27:38.000Z</time>
      </trkpt>
      <trkpt lat="42.68794631958008" lon="-8.234674453735352">
        <ele>456.0</ele>
        <time>2019-05-03T10:27:57.000Z</time>
      </trkpt>
      <trkpt lat="42.68796920776367" lon="-8.234713554382324">
        <ele>456.0</ele>
        <time>2019-05-03T10:27:58.000Z</time>
      </trkpt>
      <trkpt lat="42.68808364868164" lon="-8.23497486114502">
        <ele>456.0</ele>
        <time>2019-05-03T10:28:04.000Z</time>
      </trkpt>
      <trkpt lat="42.688087463378906" lon="-8.23498821258545">
        <ele>455.0</ele>
        <time>2019-05-03T10:28:29.000Z</time>
      </trkpt>
      <trkpt lat="42.68809127807617" lon="-8.235000610351562">
        <ele>455.0</ele>
        <time>2019-05-03T10:28:30.000Z</time>
      </trkpt>
      <trkpt lat="42.688106536865234" lon="-8.235051155090332">
        <ele>455.0</ele>
        <time>2019-05-03T10:28:34.000Z</time>
      </trkpt>
      <trkpt lat="42.6881217956543" lon="-8.235058784484863">
        <ele>455.0</ele>
        <time>2019-05-03T10:28:36.000Z</time>
      </trkpt>
      <trkpt lat="42.688148498535156" lon="-8.235063552856445">
        <ele>455.0</ele>
        <time>2019-05-03T10:28:37.000Z</time>
      </trkpt>
      <trkpt lat="42.688175201416016" lon="-8.235066413879395">
        <ele>454.0</ele>
        <time>2019-05-03T10:28:39.000Z</time>
      </trkpt>
      <trkpt lat="42.68820571899414" lon="-8.235069274902344">
        <ele>454.0</ele>
        <time>2019-05-03T10:28:41.000Z</time>
      </trkpt>
      <trkpt lat="42.6882209777832" lon="-8.23507308959961">
        <ele>454.0</ele>
        <time>2019-05-03T10:28:41.000Z</time>
      </trkpt>
      <trkpt lat="42.688232421875" lon="-8.235074996948242">
        <ele>454.0</ele>
        <time>2019-05-03T10:28:41.000Z</time>
      </trkpt>
      <trkpt lat="42.6882438659668" lon="-8.235076904296875">
        <ele>454.0</ele>
        <time>2019-05-03T10:28:42.000Z</time>
      </trkpt>
      <trkpt lat="42.688255310058594" lon="-8.235078811645508">
        <ele>454.0</ele>
        <time>2019-05-03T10:28:42.000Z</time>
      </trkpt>
      <trkpt lat="42.68828201293945" lon="-8.235084533691406">
        <ele>454.0</ele>
        <time>2019-05-03T10:28:42.000Z</time>
      </trkpt>
      <trkpt lat="42.688316345214844" lon="-8.235091209411621">
        <ele>454.0</ele>
        <time>2019-05-03T10:28:43.000Z</time>
      </trkpt>
      <trkpt lat="42.688358306884766" lon="-8.235098838806152">
        <ele>454.0</ele>
        <time>2019-05-03T10:28:43.000Z</time>
      </trkpt>
      <trkpt lat="42.68840026855469" lon="-8.235106468200684">
        <ele>454.0</ele>
        <time>2019-05-03T10:28:44.000Z</time>
      </trkpt>
      <trkpt lat="42.68841552734375" lon="-8.235109329223633">
        <ele>453.0</ele>
        <time>2019-05-03T10:28:52.000Z</time>
      </trkpt>
      <trkpt lat="42.68842697143555" lon="-8.235109329223633">
        <ele>453.0</ele>
        <time>2019-05-03T10:28:59.000Z</time>
      </trkpt>
      <trkpt lat="42.68843078613281" lon="-8.235109329223633">
        <ele>453.0</ele>
        <time>2019-05-03T10:29:07.000Z</time>
      </trkpt>
      <trkpt lat="42.68843078613281" lon="-8.235107421875">
        <ele>452.0</ele>
        <time>2019-05-03T10:29:15.000Z</time>
      </trkpt>
      <trkpt lat="42.688438415527344" lon="-8.235107421875">
        <ele>452.0</ele>
        <time>2019-05-03T10:29:15.000Z</time>
      </trkpt>
      <trkpt lat="42.68844223022461" lon="-8.235107421875">
        <ele>452.0</ele>
        <time>2019-05-03T10:29:15.000Z</time>
      </trkpt>
      <trkpt lat="42.68844985961914" lon="-8.235107421875">
        <ele>452.0</ele>
        <time>2019-05-03T10:29:16.000Z</time>
      </trkpt>
      <trkpt lat="42.688453674316406" lon="-8.235107421875">
        <ele>452.0</ele>
        <time>2019-05-03T10:29:16.000Z</time>
      </trkpt>
      <trkpt lat="42.68846130371094" lon="-8.235108375549316">
        <ele>452.0</ele>
        <time>2019-05-03T10:29:16.000Z</time>
      </trkpt>
      <trkpt lat="42.68846893310547" lon="-8.235109329223633">
        <ele>452.0</ele>
        <time>2019-05-03T10:29:17.000Z</time>
      </trkpt>
      <trkpt lat="42.6884765625" lon="-8.23511028289795">
        <ele>452.0</ele>
        <time>2019-05-03T10:29:17.000Z</time>
      </trkpt>
      <trkpt lat="42.68848419189453" lon="-8.23511028289795">
        <ele>452.0</ele>
        <time>2019-05-03T10:29:18.000Z</time>
      </trkpt>
      <trkpt lat="42.68854522705078" lon="-8.235106468200684">
        <ele>447.0</ele>
        <time>2019-05-03T10:29:48.000Z</time>
      </trkpt>
      <trkpt lat="42.68859100341797" lon="-8.235102653503418">
        <ele>447.0</ele>
        <time>2019-05-03T10:29:49.000Z</time>
      </trkpt>
      <trkpt lat="42.688743591308594" lon="-8.235101699829102">
        <ele>447.0</ele>
        <time>2019-05-03T10:29:52.000Z</time>
      </trkpt>
      <trkpt lat="42.688751220703125" lon="-8.235103607177734">
        <ele>445.0</ele>
        <time>2019-05-03T10:30:08.000Z</time>
      </trkpt>
      <trkpt lat="42.68876266479492" lon="-8.235105514526367">
        <ele>445.0</ele>
        <time>2019-05-03T10:30:09.000Z</time>
      </trkpt>
      <trkpt lat="42.68877029418945" lon="-8.235107421875">
        <ele>445.0</ele>
        <time>2019-05-03T10:30:10.000Z</time>
      </trkpt>
      <trkpt lat="42.688804626464844" lon="-8.235114097595215">
        <ele>444.0</ele>
        <time>2019-05-03T10:30:26.000Z</time>
      </trkpt>
      <trkpt lat="42.6888313293457" lon="-8.235119819641113">
        <ele>444.0</ele>
        <time>2019-05-03T10:30:27.000Z</time>
      </trkpt>
      <trkpt lat="42.68889236450195" lon="-8.235135078430176">
        <ele>444.0</ele>
        <time>2019-05-03T10:30:29.000Z</time>
      </trkpt>
      <trkpt lat="42.688941955566406" lon="-8.235147476196289">
        <ele>444.0</ele>
        <time>2019-05-03T10:30:30.000Z</time>
      </trkpt>
      <trkpt lat="42.68897247314453" lon="-8.235162734985352">
        <ele>440.0</ele>
        <time>2019-05-03T10:31:28.000Z</time>
      </trkpt>
      <trkpt lat="42.688995361328125" lon="-8.235174179077148">
        <ele>440.0</ele>
        <time>2019-05-03T10:31:29.000Z</time>
      </trkpt>
      <trkpt lat="42.68919372558594" lon="-8.235301971435547">
        <ele>440.0</ele>
        <time>2019-05-03T10:31:35.000Z</time>
      </trkpt>
      <trkpt lat="42.68922805786133" lon="-8.235297203063965">
        <ele>442.0</ele>
        <time>2019-05-03T10:32:04.000Z</time>
      </trkpt>
      <trkpt lat="42.68925476074219" lon="-8.2352933883667">
        <ele>442.0</ele>
        <time>2019-05-03T10:32:05.000Z</time>
      </trkpt>
      <trkpt lat="42.689300537109375" lon="-8.235286712646484">
        <ele>442.0</ele>
        <time>2019-05-03T10:32:07.000Z</time>
      </trkpt>
      <trkpt lat="42.68934631347656" lon="-8.235275268554688">
        <ele>441.0</ele>
        <time>2019-05-03T10:32:15.000Z</time>
      </trkpt>
      <trkpt lat="42.68937683105469" lon="-8.235267639160156">
        <ele>441.0</ele>
        <time>2019-05-03T10:32:16.000Z</time>
      </trkpt>
      <trkpt lat="42.68939208984375" lon="-8.235262870788574">
        <ele>441.0</ele>
        <time>2019-05-03T10:32:17.000Z</time>
      </trkpt>
      <trkpt lat="42.68941879272461" lon="-8.235258102416992">
        <ele>440.0</ele>
        <time>2019-05-03T10:32:42.000Z</time>
      </trkpt>
      <trkpt lat="42.6894416809082" lon="-8.235255241394043">
        <ele>440.0</ele>
        <time>2019-05-03T10:32:43.000Z</time>
      </trkpt>
      <trkpt lat="42.689720153808594" lon="-8.2352294921875">
        <ele>440.0</ele>
        <time>2019-05-03T10:32:48.000Z</time>
      </trkpt>
      <trkpt lat="42.68977737426758" lon="-8.235251426696777">
        <ele>440.0</ele>
        <time>2019-05-03T10:32:50.000Z</time>
      </trkpt>
      <trkpt lat="42.689796447753906" lon="-8.23529052734375">
        <ele>440.0</ele>
        <time>2019-05-03T10:32:52.000Z</time>
      </trkpt>
      <trkpt lat="42.68982696533203" lon="-8.235332489013672">
        <ele>440.0</ele>
        <time>2019-05-03T10:32:56.000Z</time>
      </trkpt>
      <trkpt lat="42.68986511230469" lon="-8.235386848449707">
        <ele>440.0</ele>
        <time>2019-05-03T10:33:01.000Z</time>
      </trkpt>
      <trkpt lat="42.689903259277344" lon="-8.23544979095459">
        <ele>441.0</ele>
        <time>2019-05-03T10:33:05.000Z</time>
      </trkpt>
      <trkpt lat="42.689945220947266" lon="-8.235515594482422">
        <ele>442.0</ele>
        <time>2019-05-03T10:33:10.000Z</time>
      </trkpt>
      <trkpt lat="42.68996047973633" lon="-8.235570907592773">
        <ele>442.0</ele>
        <time>2019-05-03T10:33:13.000Z</time>
      </trkpt>
      <trkpt lat="42.68996047973633" lon="-8.235626220703125">
        <ele>442.0</ele>
        <time>2019-05-03T10:33:16.000Z</time>
      </trkpt>
      <trkpt lat="42.68995666503906" lon="-8.235681533813477">
        <ele>443.0</ele>
        <time>2019-05-03T10:33:19.000Z</time>
      </trkpt>
      <trkpt lat="42.68994903564453" lon="-8.235736846923828">
        <ele>443.0</ele>
        <time>2019-05-03T10:33:23.000Z</time>
      </trkpt>
      <trkpt lat="42.68996810913086" lon="-8.235791206359863">
        <ele>443.0</ele>
        <time>2019-05-03T10:33:28.000Z</time>
      </trkpt>
      <trkpt lat="42.689998626708984" lon="-8.235846519470215">
        <ele>444.0</ele>
        <time>2019-05-03T10:33:34.000Z</time>
      </trkpt>
      <trkpt lat="42.69003677368164" lon="-8.23590087890625">
        <ele>445.0</ele>
        <time>2019-05-03T10:33:39.000Z</time>
      </trkpt>
      <trkpt lat="42.6900749206543" lon="-8.235956192016602">
        <ele>446.0</ele>
        <time>2019-05-03T10:33:45.000Z</time>
      </trkpt>
      <trkpt lat="42.69009017944336" lon="-8.235978126525879">
        <ele>446.0</ele>
        <time>2019-05-03T10:33:49.000Z</time>
      </trkpt>
      <trkpt lat="42.69009780883789" lon="-8.235986709594727">
        <ele>446.0</ele>
        <time>2019-05-03T10:33:53.000Z</time>
      </trkpt>
      <trkpt lat="42.69010543823242" lon="-8.235986709594727">
        <ele>446.0</ele>
        <time>2019-05-03T10:33:57.000Z</time>
      </trkpt>
      <trkpt lat="42.69010925292969" lon="-8.235981941223145">
        <ele>447.0</ele>
        <time>2019-05-03T10:34:01.000Z</time>
      </trkpt>
      <trkpt lat="42.69011306762695" lon="-8.235987663269043">
        <ele>447.0</ele>
        <time>2019-05-03T10:34:01.000Z</time>
      </trkpt>
      <trkpt lat="42.690120697021484" lon="-8.235992431640625">
        <ele>447.0</ele>
        <time>2019-05-03T10:34:01.000Z</time>
      </trkpt>
      <trkpt lat="42.69012451171875" lon="-8.23599624633789">
        <ele>447.0</ele>
        <time>2019-05-03T10:34:01.000Z</time>
      </trkpt>
      <trkpt lat="42.69013214111328" lon="-8.236000061035156">
        <ele>447.0</ele>
        <time>2019-05-03T10:34:02.000Z</time>
      </trkpt>
      <trkpt lat="42.69014358520508" lon="-8.236010551452637">
        <ele>446.0</ele>
        <time>2019-05-03T10:34:02.000Z</time>
      </trkpt>
      <trkpt lat="42.690162658691406" lon="-8.23602294921875">
        <ele>446.0</ele>
        <time>2019-05-03T10:34:03.000Z</time>
      </trkpt>
      <trkpt lat="42.690181732177734" lon="-8.236037254333496">
        <ele>446.0</ele>
        <time>2019-05-03T10:34:04.000Z</time>
      </trkpt>
      <trkpt lat="42.69020462036133" lon="-8.236052513122559">
        <ele>446.0</ele>
        <time>2019-05-03T10:34:05.000Z</time>
      </trkpt>
      <trkpt lat="42.69021224975586" lon="-8.236059188842773">
        <ele>446.0</ele>
        <time>2019-05-03T10:34:09.000Z</time>
      </trkpt>
      <trkpt lat="42.69021987915039" lon="-8.236064910888672">
        <ele>446.0</ele>
        <time>2019-05-03T10:34:13.000Z</time>
      </trkpt>
      <trkpt lat="42.690223693847656" lon="-8.236068725585938">
        <ele>446.0</ele>
        <time>2019-05-03T10:34:17.000Z</time>
      </trkpt>
      <trkpt lat="42.69022750854492" lon="-8.236071586608887">
        <ele>446.0</ele>
        <time>2019-05-03T10:34:21.000Z</time>
      </trkpt>
      <trkpt lat="42.69023513793945" lon="-8.236075401306152">
        <ele>446.0</ele>
        <time>2019-05-03T10:34:21.000Z</time>
      </trkpt>
      <trkpt lat="42.69023895263672" lon="-8.236079216003418">
        <ele>446.0</ele>
        <time>2019-05-03T10:34:21.000Z</time>
      </trkpt>
      <trkpt lat="42.690242767333984" lon="-8.236082077026367">
        <ele>446.0</ele>
        <time>2019-05-03T10:34:21.000Z</time>
      </trkpt>
      <trkpt lat="42.690250396728516" lon="-8.236085891723633">
        <ele>446.0</ele>
        <time>2019-05-03T10:34:22.000Z</time>
      </trkpt>
      <trkpt lat="42.69025421142578" lon="-8.236091613769531">
        <ele>446.0</ele>
        <time>2019-05-03T10:34:23.000Z</time>
      </trkpt>
      <trkpt lat="42.6903190612793" lon="-8.23614501953125">
        <ele>446.0</ele>
        <time>2019-05-03T10:34:26.000Z</time>
      </trkpt>
      <trkpt lat="42.690345764160156" lon="-8.236169815063477">
        <ele>446.0</ele>
        <time>2019-05-03T10:34:27.000Z</time>
      </trkpt>
      <trkpt lat="42.69044494628906" lon="-8.236245155334473">
        <ele>447.0</ele>
        <time>2019-05-03T10:34:31.000Z</time>
      </trkpt>
      <trkpt lat="42.690460205078125" lon="-8.236263275146484">
        <ele>448.0</ele>
        <time>2019-05-03T10:35:04.000Z</time>
      </trkpt>
      <trkpt lat="42.690452575683594" lon="-8.236271858215332">
        <ele>450.0</ele>
        <time>2019-05-03T10:35:38.000Z</time>
      </trkpt>
      <trkpt lat="42.69045639038086" lon="-8.23627758026123">
        <ele>450.0</ele>
        <time>2019-05-03T10:35:38.000Z</time>
      </trkpt>
      <trkpt lat="42.69045639038086" lon="-8.236283302307129">
        <ele>450.0</ele>
        <time>2019-05-03T10:35:38.000Z</time>
      </trkpt>
      <trkpt lat="42.690460205078125" lon="-8.236289024353027">
        <ele>450.0</ele>
        <time>2019-05-03T10:35:38.000Z</time>
      </trkpt>
      <trkpt lat="42.690460205078125" lon="-8.23629379272461">
        <ele>450.0</ele>
        <time>2019-05-03T10:35:39.000Z</time>
      </trkpt>
      <trkpt lat="42.69046401977539" lon="-8.236298561096191">
        <ele>450.0</ele>
        <time>2019-05-03T10:35:39.000Z</time>
      </trkpt>
      <trkpt lat="42.69046401977539" lon="-8.236302375793457">
        <ele>450.0</ele>
        <time>2019-05-03T10:35:39.000Z</time>
      </trkpt>
      <trkpt lat="42.69046401977539" lon="-8.236306190490723">
        <ele>450.0</ele>
        <time>2019-05-03T10:35:39.000Z</time>
      </trkpt>
      <trkpt lat="42.690467834472656" lon="-8.236310958862305">
        <ele>450.0</ele>
        <time>2019-05-03T10:35:40.000Z</time>
      </trkpt>
      <trkpt lat="42.69047164916992" lon="-8.236318588256836">
        <ele>449.0</ele>
        <time>2019-05-03T10:35:41.000Z</time>
      </trkpt>
      <trkpt lat="42.69047546386719" lon="-8.236329078674316">
        <ele>449.0</ele>
        <time>2019-05-03T10:35:43.000Z</time>
      </trkpt>
      <trkpt lat="42.69048309326172" lon="-8.236340522766113">
        <ele>449.0</ele>
        <time>2019-05-03T10:35:45.000Z</time>
      </trkpt>
      <trkpt lat="42.69049072265625" lon="-8.23635196685791">
        <ele>449.0</ele>
        <time>2019-05-03T10:35:47.000Z</time>
      </trkpt>
      <trkpt lat="42.690494537353516" lon="-8.236359596252441">
        <ele>449.0</ele>
        <time>2019-05-03T10:35:47.000Z</time>
      </trkpt>
      <trkpt lat="42.69049835205078" lon="-8.236367225646973">
        <ele>449.0</ele>
        <time>2019-05-03T10:35:47.000Z</time>
      </trkpt>
      <trkpt lat="42.69050216674805" lon="-8.236373901367188">
        <ele>449.0</ele>
        <time>2019-05-03T10:35:47.000Z</time>
      </trkpt>
      <trkpt lat="42.69050598144531" lon="-8.236380577087402">
        <ele>449.0</ele>
        <time>2019-05-03T10:35:48.000Z</time>
      </trkpt>
      <trkpt lat="42.69054412841797" lon="-8.236440658569336">
        <ele>449.0</ele>
        <time>2019-05-03T10:35:53.000Z</time>
      </trkpt>
      <trkpt lat="42.69060134887695" lon="-8.236522674560547">
        <ele>449.0</ele>
        <time>2019-05-03T10:35:58.000Z</time>
      </trkpt>
      <trkpt lat="42.69066619873047" lon="-8.23661994934082">
        <ele>449.0</ele>
        <time>2019-05-03T10:36:03.000Z</time>
      </trkpt>
      <trkpt lat="42.690738677978516" lon="-8.236723899841309">
        <ele>449.0</ele>
        <time>2019-05-03T10:36:09.000Z</time>
      </trkpt>
      <trkpt lat="42.69075393676758" lon="-8.236747741699219">
        <ele>449.0</ele>
        <time>2019-05-03T10:36:13.000Z</time>
      </trkpt>
      <trkpt lat="42.69078826904297" lon="-8.236798286437988">
        <ele>449.0</ele>
        <time>2019-05-03T10:36:38.000Z</time>
      </trkpt>
      <trkpt lat="42.69081115722656" lon="-8.236831665039062">
        <ele>449.0</ele>
        <time>2019-05-03T10:36:39.000Z</time>
      </trkpt>
      <trkpt lat="42.69108200073242" lon="-8.237029075622559">
        <ele>450.0</ele>
        <time>2019-05-03T10:36:53.000Z</time>
      </trkpt>
      <trkpt lat="42.691162109375" lon="-8.237107276916504">
        <ele>451.0</ele>
        <time>2019-05-03T10:37:15.000Z</time>
      </trkpt>
      <trkpt lat="42.69118881225586" lon="-8.237133026123047">
        <ele>451.0</ele>
        <time>2019-05-03T10:37:16.000Z</time>
      </trkpt>
      <trkpt lat="42.691192626953125" lon="-8.237135887145996">
        <ele>451.0</ele>
        <time>2019-05-03T10:37:17.000Z</time>
      </trkpt>
      <trkpt lat="42.69120407104492" lon="-8.237153053283691">
        <ele>451.0</ele>
        <time>2019-05-03T10:37:28.000Z</time>
      </trkpt>
      <trkpt lat="42.69121551513672" lon="-8.237167358398438">
        <ele>451.0</ele>
        <time>2019-05-03T10:37:29.000Z</time>
      </trkpt>
      <trkpt lat="42.69121551513672" lon="-8.237171173095703">
        <ele>455.0</ele>
        <time>2019-05-03T10:38:24.000Z</time>
      </trkpt>
      <trkpt lat="42.69126892089844" lon="-8.237262725830078">
        <ele>440.0</ele>
        <time>2019-05-03T10:38:29.000Z</time>
      </trkpt>
      <trkpt lat="42.691307067871094" lon="-8.23733139038086">
        <ele>440.0</ele>
        <time>2019-05-03T10:38:30.000Z</time>
      </trkpt>
      <trkpt lat="42.69148635864258" lon="-8.237756729125977">
        <ele>443.0</ele>
        <time>2019-05-03T10:38:34.000Z</time>
      </trkpt>
      <trkpt lat="42.691551208496094" lon="-8.23791790008545">
        <ele>445.0</ele>
        <time>2019-05-03T10:38:39.000Z</time>
      </trkpt>
      <trkpt lat="42.69157028198242" lon="-8.237955093383789">
        <ele>458.0</ele>
        <time>2019-05-03T10:39:01.000Z</time>
      </trkpt>
      <trkpt lat="42.69158172607422" lon="-8.237980842590332">
        <ele>458.0</ele>
        <time>2019-05-03T10:39:02.000Z</time>
      </trkpt>
      <trkpt lat="42.69178771972656" lon="-8.238375663757324">
        <ele>451.0</ele>
        <time>2019-05-03T10:39:20.000Z</time>
      </trkpt>
      <trkpt lat="42.69184494018555" lon="-8.23857593536377">
        <ele>453.0</ele>
        <time>2019-05-03T10:39:38.000Z</time>
      </trkpt>
      <trkpt lat="42.691837310791016" lon="-8.238645553588867">
        <ele>455.0</ele>
        <time>2019-05-03T10:39:58.000Z</time>
      </trkpt>
      <trkpt lat="42.69183349609375" lon="-8.238690376281738">
        <ele>455.0</ele>
        <time>2019-05-03T10:39:59.000Z</time>
      </trkpt>
      <trkpt lat="42.691673278808594" lon="-8.23909854888916">
        <ele>458.0</ele>
        <time>2019-05-03T10:40:20.000Z</time>
      </trkpt>
      <trkpt lat="42.69166564941406" lon="-8.239147186279297">
        <ele>460.0</ele>
        <time>2019-05-03T10:40:27.000Z</time>
      </trkpt>
      <trkpt lat="42.691650390625" lon="-8.239238739013672">
        <ele>463.0</ele>
        <time>2019-05-03T10:40:42.000Z</time>
      </trkpt>
      <trkpt lat="42.69164276123047" lon="-8.23928451538086">
        <ele>463.0</ele>
        <time>2019-05-03T10:40:43.000Z</time>
      </trkpt>
      <trkpt lat="42.691551208496094" lon="-8.239730834960938">
        <ele>470.0</ele>
        <time>2019-05-03T10:41:06.000Z</time>
      </trkpt>
      <trkpt lat="42.69157409667969" lon="-8.23995304107666">
        <ele>471.0</ele>
        <time>2019-05-03T10:41:21.000Z</time>
      </trkpt>
      <trkpt lat="42.691627502441406" lon="-8.240175247192383">
        <ele>471.0</ele>
        <time>2019-05-03T10:41:35.000Z</time>
      </trkpt>
      <trkpt lat="42.69158172607422" lon="-8.24039363861084">
        <ele>471.0</ele>
        <time>2019-05-03T10:41:47.000Z</time>
      </trkpt>
      <trkpt lat="42.69150161743164" lon="-8.24061107635498">
        <ele>471.0</ele>
        <time>2019-05-03T10:41:59.000Z</time>
      </trkpt>
      <trkpt lat="42.691497802734375" lon="-8.240775108337402">
        <ele>472.0</ele>
        <time>2019-05-03T10:42:12.000Z</time>
      </trkpt>
      <trkpt lat="42.6915168762207" lon="-8.240914344787598">
        <ele>473.0</ele>
        <time>2019-05-03T10:42:25.000Z</time>
      </trkpt>
      <trkpt lat="42.69152069091797" lon="-8.240950584411621">
        <ele>473.0</ele>
        <time>2019-05-03T10:42:29.000Z</time>
      </trkpt>
      <trkpt lat="42.69152069091797" lon="-8.240968704223633">
        <ele>473.0</ele>
        <time>2019-05-03T10:42:33.000Z</time>
      </trkpt>
      <trkpt lat="42.69152069091797" lon="-8.240976333618164">
        <ele>473.0</ele>
        <time>2019-05-03T10:42:37.000Z</time>
      </trkpt>
      <trkpt lat="42.69152069091797" lon="-8.240978240966797">
        <ele>473.0</ele>
        <time>2019-05-03T10:42:41.000Z</time>
      </trkpt>
      <trkpt lat="42.69152069091797" lon="-8.240989685058594">
        <ele>473.0</ele>
        <time>2019-05-03T10:42:41.000Z</time>
      </trkpt>
      <trkpt lat="42.69152069091797" lon="-8.24100112915039">
        <ele>473.0</ele>
        <time>2019-05-03T10:42:41.000Z</time>
      </trkpt>
      <trkpt lat="42.69152069091797" lon="-8.241010665893555">
        <ele>473.0</ele>
        <time>2019-05-03T10:42:42.000Z</time>
      </trkpt>
      <trkpt lat="42.69152069091797" lon="-8.241019248962402">
        <ele>473.0</ele>
        <time>2019-05-03T10:42:42.000Z</time>
      </trkpt>
      <trkpt lat="42.69153594970703" lon="-8.241067886352539">
        <ele>473.0</ele>
        <time>2019-05-03T10:42:45.000Z</time>
      </trkpt>
      <trkpt lat="42.69155502319336" lon="-8.241131782531738">
        <ele>472.0</ele>
        <time>2019-05-03T10:42:48.000Z</time>
      </trkpt>
      <trkpt lat="42.69157791137695" lon="-8.241206169128418">
        <ele>472.0</ele>
        <time>2019-05-03T10:42:51.000Z</time>
      </trkpt>
      <trkpt lat="42.69160461425781" lon="-8.241286277770996">
        <ele>471.0</ele>
        <time>2019-05-03T10:42:54.000Z</time>
      </trkpt>
      <trkpt lat="42.691593170166016" lon="-8.241333961486816">
        <ele>471.0</ele>
        <time>2019-05-03T10:42:56.000Z</time>
      </trkpt>
      <trkpt lat="42.69157409667969" lon="-8.241374969482422">
        <ele>471.0</ele>
        <time>2019-05-03T10:42:59.000Z</time>
      </trkpt>
      <trkpt lat="42.69154357910156" lon="-8.241410255432129">
        <ele>471.0</ele>
        <time>2019-05-03T10:43:01.000Z</time>
      </trkpt>
      <trkpt lat="42.69150924682617" lon="-8.241442680358887">
        <ele>471.0</ele>
        <time>2019-05-03T10:43:04.000Z</time>
      </trkpt>
      <trkpt lat="42.69150924682617" lon="-8.24146842956543">
        <ele>471.0</ele>
        <time>2019-05-03T10:43:10.000Z</time>
      </trkpt>
      <trkpt lat="42.69151306152344" lon="-8.241488456726074">
        <ele>472.0</ele>
        <time>2019-05-03T10:43:16.000Z</time>
      </trkpt>
      <trkpt lat="42.6915283203125" lon="-8.241504669189453">
        <ele>473.0</ele>
        <time>2019-05-03T10:43:22.000Z</time>
      </trkpt>
      <trkpt lat="42.69154357910156" lon="-8.2415189743042">
        <ele>474.0</ele>
        <time>2019-05-03T10:43:28.000Z</time>
      </trkpt>
      <trkpt lat="42.69154739379883" lon="-8.241531372070312">
        <ele>474.0</ele>
        <time>2019-05-03T10:43:28.000Z</time>
      </trkpt>
      <trkpt lat="42.691551208496094" lon="-8.241541862487793">
        <ele>474.0</ele>
        <time>2019-05-03T10:43:28.000Z</time>
      </trkpt>
      <trkpt lat="42.69155502319336" lon="-8.24155044555664">
        <ele>474.0</ele>
        <time>2019-05-03T10:43:29.000Z</time>
      </trkpt>
      <trkpt lat="42.691558837890625" lon="-8.241558074951172">
        <ele>474.0</ele>
        <time>2019-05-03T10:43:29.000Z</time>
      </trkpt>
      <trkpt lat="42.69156265258789" lon="-8.241568565368652">
        <ele>474.0</ele>
        <time>2019-05-03T10:43:29.000Z</time>
      </trkpt>
      <trkpt lat="42.691566467285156" lon="-8.241579055786133">
        <ele>474.0</ele>
        <time>2019-05-03T10:43:30.000Z</time>
      </trkpt>
      <trkpt lat="42.69157409667969" lon="-8.24159049987793">
        <ele>474.0</ele>
        <time>2019-05-03T10:43:30.000Z</time>
      </trkpt>
      <trkpt lat="42.69157791137695" lon="-8.241601943969727">
        <ele>474.0</ele>
        <time>2019-05-03T10:43:31.000Z</time>
      </trkpt>
      <trkpt lat="42.69157791137695" lon="-8.241626739501953">
        <ele>476.0</ele>
        <time>2019-05-03T10:43:37.000Z</time>
      </trkpt>
      <trkpt lat="42.69157791137695" lon="-8.241652488708496">
        <ele>477.0</ele>
        <time>2019-05-03T10:43:43.000Z</time>
      </trkpt>
      <trkpt lat="42.69157791137695" lon="-8.24166202545166">
        <ele>478.0</ele>
        <time>2019-05-03T10:43:43.000Z</time>
      </trkpt>
      <trkpt lat="42.69157791137695" lon="-8.241670608520508">
        <ele>478.0</ele>
        <time>2019-05-03T10:43:43.000Z</time>
      </trkpt>
      <trkpt lat="42.69157791137695" lon="-8.241679191589355">
        <ele>478.0</ele>
        <time>2019-05-03T10:43:44.000Z</time>
      </trkpt>
      <trkpt lat="42.69157791137695" lon="-8.24168586730957">
        <ele>477.0</ele>
        <time>2019-05-03T10:43:44.000Z</time>
      </trkpt>
      <trkpt lat="42.69157791137695" lon="-8.241692543029785">
        <ele>477.0</ele>
        <time>2019-05-03T10:43:44.000Z</time>
      </trkpt>
      <trkpt lat="42.69157791137695" lon="-8.241698265075684">
        <ele>478.0</ele>
        <time>2019-05-03T10:43:44.000Z</time>
      </trkpt>
      <trkpt lat="42.69157791137695" lon="-8.241703987121582">
        <ele>478.0</ele>
        <time>2019-05-03T10:43:45.000Z</time>
      </trkpt>
      <trkpt lat="42.69157791137695" lon="-8.241708755493164">
        <ele>478.0</ele>
        <time>2019-05-03T10:43:45.000Z</time>
      </trkpt>
      <trkpt lat="42.69157791137695" lon="-8.241714477539062">
        <ele>478.0</ele>
        <time>2019-05-03T10:43:49.000Z</time>
      </trkpt>
      <trkpt lat="42.69158172607422" lon="-8.241722106933594">
        <ele>479.0</ele>
        <time>2019-05-03T10:43:53.000Z</time>
      </trkpt>
      <trkpt lat="42.69158172607422" lon="-8.241728782653809">
        <ele>480.0</ele>
        <time>2019-05-03T10:43:58.000Z</time>
      </trkpt>
      <trkpt lat="42.691585540771484" lon="-8.241735458374023">
        <ele>482.0</ele>
        <time>2019-05-03T10:44:02.000Z</time>
      </trkpt>
      <trkpt lat="42.69158935546875" lon="-8.241742134094238">
        <ele>482.0</ele>
        <time>2019-05-03T10:44:02.000Z</time>
      </trkpt>
      <trkpt lat="42.69158935546875" lon="-8.241747856140137">
        <ele>482.0</ele>
        <time>2019-05-03T10:44:02.000Z</time>
      </trkpt>
      <trkpt lat="42.69158935546875" lon="-8.241753578186035">
        <ele>482.0</ele>
        <time>2019-05-03T10:44:03.000Z</time>
      </trkpt>
      <trkpt lat="42.691593170166016" lon="-8.241759300231934">
        <ele>482.0</ele>
        <time>2019-05-03T10:44:03.000Z</time>
      </trkpt>
      <trkpt lat="42.691619873046875" lon="-8.241820335388184">
        <ele>482.0</ele>
        <time>2019-05-03T10:44:06.000Z</time>
      </trkpt>
      <trkpt lat="42.6916618347168" lon="-8.241905212402344">
        <ele>482.0</ele>
        <time>2019-05-03T10:44:10.000Z</time>
      </trkpt>
      <trkpt lat="42.691707611083984" lon="-8.242005348205566">
        <ele>483.0</ele>
        <time>2019-05-03T10:44:13.000Z</time>
      </trkpt>
      <trkpt lat="42.6917610168457" lon="-8.24211311340332">
        <ele>483.0</ele>
        <time>2019-05-03T10:44:17.000Z</time>
      </trkpt>
      <trkpt lat="42.691837310791016" lon="-8.24224853515625">
        <ele>488.0</ele>
        <time>2019-05-03T10:44:40.000Z</time>
      </trkpt>
      <trkpt lat="42.69185256958008" lon="-8.242279052734375">
        <ele>488.0</ele>
        <time>2019-05-03T10:44:41.000Z</time>
      </trkpt>
      <trkpt lat="42.692134857177734" lon="-8.242582321166992">
        <ele>489.0</ele>
        <time>2019-05-03T10:45:01.000Z</time>
      </trkpt>
      <trkpt lat="42.69223403930664" lon="-8.242684364318848">
        <ele>489.0</ele>
        <time>2019-05-03T10:45:08.000Z</time>
      </trkpt>
      <trkpt lat="42.692283630371094" lon="-8.242826461791992">
        <ele>489.0</ele>
        <time>2019-05-03T10:45:20.000Z</time>
      </trkpt>
      <trkpt lat="42.692325592041016" lon="-8.243009567260742">
        <ele>490.0</ele>
        <time>2019-05-03T10:45:32.000Z</time>
      </trkpt>
      <trkpt lat="42.69234848022461" lon="-8.243073463439941">
        <ele>490.0</ele>
        <time>2019-05-03T10:45:37.000Z</time>
      </trkpt>
      <trkpt lat="42.6923713684082" lon="-8.243130683898926">
        <ele>489.0</ele>
        <time>2019-05-03T10:45:42.000Z</time>
      </trkpt>
      <trkpt lat="42.6923942565918" lon="-8.243184089660645">
        <ele>488.0</ele>
        <time>2019-05-03T10:45:48.000Z</time>
      </trkpt>
      <trkpt lat="42.69241714477539" lon="-8.243233680725098">
        <ele>487.0</ele>
        <time>2019-05-03T10:45:53.000Z</time>
      </trkpt>
      <trkpt lat="42.692440032958984" lon="-8.243287086486816">
        <ele>487.0</ele>
        <time>2019-05-03T10:45:58.000Z</time>
      </trkpt>
      <trkpt lat="42.69246292114258" lon="-8.243338584899902">
        <ele>487.0</ele>
        <time>2019-05-03T10:46:03.000Z</time>
      </trkpt>
      <trkpt lat="42.692481994628906" lon="-8.243390083312988">
        <ele>487.0</ele>
        <time>2019-05-03T10:46:09.000Z</time>
      </trkpt>
      <trkpt lat="42.6925048828125" lon="-8.243439674377441">
        <ele>488.0</ele>
        <time>2019-05-03T10:46:14.000Z</time>
      </trkpt>
      <trkpt lat="42.69251251220703" lon="-8.243457794189453">
        <ele>488.0</ele>
        <time>2019-05-03T10:46:14.000Z</time>
      </trkpt>
      <trkpt lat="42.69251251220703" lon="-8.243461608886719">
        <ele>488.0</ele>
        <time>2019-05-03T10:46:14.000Z</time>
      </trkpt>
      <trkpt lat="42.692508697509766" lon="-8.24345588684082">
        <ele>488.0</ele>
        <time>2019-05-03T10:46:15.000Z</time>
      </trkpt>
      <trkpt lat="42.6925048828125" lon="-8.24344539642334">
        <ele>488.0</ele>
        <time>2019-05-03T10:46:15.000Z</time>
      </trkpt>
      <trkpt lat="42.692508697509766" lon="-8.243456840515137">
        <ele>488.0</ele>
        <time>2019-05-03T10:46:19.000Z</time>
      </trkpt>
      <trkpt lat="42.6925163269043" lon="-8.243471145629883">
        <ele>488.0</ele>
        <time>2019-05-03T10:46:23.000Z</time>
      </trkpt>
      <trkpt lat="42.69252014160156" lon="-8.243489265441895">
        <ele>487.0</ele>
        <time>2019-05-03T10:46:28.000Z</time>
      </trkpt>
      <trkpt lat="42.692527770996094" lon="-8.243508338928223">
        <ele>487.0</ele>
        <time>2019-05-03T10:46:32.000Z</time>
      </trkpt>
      <trkpt lat="42.69253158569336" lon="-8.24351978302002">
        <ele>487.0</ele>
        <time>2019-05-03T10:46:32.000Z</time>
      </trkpt>
      <trkpt lat="42.692535400390625" lon="-8.2435302734375">
        <ele>487.0</ele>
        <time>2019-05-03T10:46:32.000Z</time>
      </trkpt>
      <trkpt lat="42.69253921508789" lon="-8.243538856506348">
        <ele>487.0</ele>
        <time>2019-05-03T10:46:33.000Z</time>
      </trkpt>
      <trkpt lat="42.692543029785156" lon="-8.243546485900879">
        <ele>487.0</ele>
        <time>2019-05-03T10:46:33.000Z</time>
      </trkpt>
      <trkpt lat="42.69272994995117" lon="-8.243885040283203">
        <ele>483.0</ele>
        <time>2019-05-03T10:46:51.000Z</time>
      </trkpt>
      <trkpt lat="42.69285583496094" lon="-8.24423599243164">
        <ele>474.0</ele>
        <time>2019-05-03T10:47:22.000Z</time>
      </trkpt>
      <trkpt lat="42.6928596496582" lon="-8.24427604675293">
        <ele>473.0</ele>
        <time>2019-05-03T10:47:39.000Z</time>
      </trkpt>
      <trkpt lat="42.6928596496582" lon="-8.244307518005371">
        <ele>473.0</ele>
        <time>2019-05-03T10:47:40.000Z</time>
      </trkpt>
      <trkpt lat="42.69289016723633" lon="-8.244514465332031">
        <ele>472.0</ele>
        <time>2019-05-03T10:47:43.000Z</time>
      </trkpt>
      <trkpt lat="42.69291305541992" lon="-8.244548797607422">
        <ele>472.0</ele>
        <time>2019-05-03T10:47:45.000Z</time>
      </trkpt>
      <trkpt lat="42.69293975830078" lon="-8.244577407836914">
        <ele>472.0</ele>
        <time>2019-05-03T10:47:46.000Z</time>
      </trkpt>
      <trkpt lat="42.692970275878906" lon="-8.244600296020508">
        <ele>472.0</ele>
        <time>2019-05-03T10:47:48.000Z</time>
      </trkpt>
      <trkpt lat="42.6930046081543" lon="-8.244622230529785">
        <ele>472.0</ele>
        <time>2019-05-03T10:47:50.000Z</time>
      </trkpt>
      <trkpt lat="42.693031311035156" lon="-8.244637489318848">
        <ele>472.0</ele>
        <time>2019-05-03T10:47:51.000Z</time>
      </trkpt>
      <trkpt lat="42.69306182861328" lon="-8.244648933410645">
        <ele>472.0</ele>
        <time>2019-05-03T10:47:52.000Z</time>
      </trkpt>
      <trkpt lat="42.693092346191406" lon="-8.244657516479492">
        <ele>472.0</ele>
        <time>2019-05-03T10:47:54.000Z</time>
      </trkpt>
      <trkpt lat="42.69312286376953" lon="-8.244665145874023">
        <ele>472.0</ele>
        <time>2019-05-03T10:47:55.000Z</time>
      </trkpt>
      <trkpt lat="42.693138122558594" lon="-8.244680404663086">
        <ele>472.0</ele>
        <time>2019-05-03T10:47:56.000Z</time>
      </trkpt>
      <trkpt lat="42.693145751953125" lon="-8.244699478149414">
        <ele>472.0</ele>
        <time>2019-05-03T10:47:57.000Z</time>
      </trkpt>
      <trkpt lat="42.69314956665039" lon="-8.244718551635742">
        <ele>472.0</ele>
        <time>2019-05-03T10:47:59.000Z</time>
      </trkpt>
      <trkpt lat="42.693153381347656" lon="-8.244739532470703">
        <ele>471.0</ele>
        <time>2019-05-03T10:48:00.000Z</time>
      </trkpt>
      <trkpt lat="42.69314956665039" lon="-8.244769096374512">
        <ele>471.0</ele>
        <time>2019-05-03T10:48:04.000Z</time>
      </trkpt>
      <trkpt lat="42.693138122558594" lon="-8.244804382324219">
        <ele>470.0</ele>
        <time>2019-05-03T10:48:08.000Z</time>
      </trkpt>
      <trkpt lat="42.6931266784668" lon="-8.244842529296875">
        <ele>470.0</ele>
        <time>2019-05-03T10:48:12.000Z</time>
      </trkpt>
      <trkpt lat="42.693115234375" lon="-8.244882583618164">
        <ele>469.0</ele>
        <time>2019-05-03T10:48:16.000Z</time>
      </trkpt>
      <trkpt lat="42.69313049316406" lon="-8.244906425476074">
        <ele>469.0</ele>
        <time>2019-05-03T10:48:18.000Z</time>
      </trkpt>
      <trkpt lat="42.69316101074219" lon="-8.244925498962402">
        <ele>469.0</ele>
        <time>2019-05-03T10:48:20.000Z</time>
      </trkpt>
      <trkpt lat="42.693199157714844" lon="-8.244940757751465">
        <ele>469.0</ele>
        <time>2019-05-03T10:48:23.000Z</time>
      </trkpt>
      <trkpt lat="42.6932373046875" lon="-8.244955062866211">
        <ele>470.0</ele>
        <time>2019-05-03T10:48:25.000Z</time>
      </trkpt>
      <trkpt lat="42.69327926635742" lon="-8.244976043701172">
        <ele>470.0</ele>
        <time>2019-05-03T10:48:28.000Z</time>
      </trkpt>
      <trkpt lat="42.693321228027344" lon="-8.244998931884766">
        <ele>470.0</ele>
        <time>2019-05-03T10:48:31.000Z</time>
      </trkpt>
      <trkpt lat="42.69336700439453" lon="-8.24502182006836">
        <ele>471.0</ele>
        <time>2019-05-03T10:48:34.000Z</time>
      </trkpt>
      <trkpt lat="42.693416595458984" lon="-8.24504566192627">
        <ele>471.0</ele>
        <time>2019-05-03T10:48:37.000Z</time>
      </trkpt>
      <trkpt lat="42.693450927734375" lon="-8.245075225830078">
        <ele>472.0</ele>
        <time>2019-05-03T10:48:40.000Z</time>
      </trkpt>
      <trkpt lat="42.69348907470703" lon="-8.245107650756836">
        <ele>472.0</ele>
        <time>2019-05-03T10:48:44.000Z</time>
      </trkpt>
      <trkpt lat="42.693519592285156" lon="-8.24514102935791">
        <ele>473.0</ele>
        <time>2019-05-03T10:48:47.000Z</time>
      </trkpt>
      <trkpt lat="42.69355392456055" lon="-8.245176315307617">
        <ele>474.0</ele>
        <time>2019-05-03T10:48:51.000Z</time>
      </trkpt>
      <trkpt lat="42.69355773925781" lon="-8.245201110839844">
        <ele>475.0</ele>
        <time>2019-05-03T10:48:54.000Z</time>
      </trkpt>
      <trkpt lat="42.69355392456055" lon="-8.245222091674805">
        <ele>476.0</ele>
        <time>2019-05-03T10:48:58.000Z</time>
      </trkpt>
      <trkpt lat="42.693538665771484" lon="-8.245240211486816">
        <ele>478.0</ele>
        <time>2019-05-03T10:49:01.000Z</time>
      </trkpt>
      <trkpt lat="42.693519592285156" lon="-8.245258331298828">
        <ele>479.0</ele>
        <time>2019-05-03T10:49:05.000Z</time>
      </trkpt>
      <trkpt lat="42.69352340698242" lon="-8.245266914367676">
        <ele>480.0</ele>
        <time>2019-05-03T10:49:10.000Z</time>
      </trkpt>
      <trkpt lat="42.69353485107422" lon="-8.245270729064941">
        <ele>481.0</ele>
        <time>2019-05-03T10:49:14.000Z</time>
      </trkpt>
      <trkpt lat="42.69355392456055" lon="-8.245271682739258">
        <ele>482.0</ele>
        <time>2019-05-03T10:49:19.000Z</time>
      </trkpt>
      <trkpt lat="42.69356918334961" lon="-8.245270729064941">
        <ele>483.0</ele>
        <time>2019-05-03T10:49:24.000Z</time>
      </trkpt>
      <trkpt lat="42.693580627441406" lon="-8.24527359008789">
        <ele>483.0</ele>
        <time>2019-05-03T10:49:24.000Z</time>
      </trkpt>
      <trkpt lat="42.69358825683594" lon="-8.245275497436523">
        <ele>483.0</ele>
        <time>2019-05-03T10:49:24.000Z</time>
      </trkpt>
      <trkpt lat="42.69359588623047" lon="-8.245277404785156">
        <ele>483.0</ele>
        <time>2019-05-03T10:49:25.000Z</time>
      </trkpt>
      <trkpt lat="42.693603515625" lon="-8.245278358459473">
        <ele>483.0</ele>
        <time>2019-05-03T10:49:25.000Z</time>
      </trkpt>
      <trkpt lat="42.69363784790039" lon="-8.245290756225586">
        <ele>483.0</ele>
        <time>2019-05-03T10:49:27.000Z</time>
      </trkpt>
      <trkpt lat="42.69367980957031" lon="-8.245306968688965">
        <ele>483.0</ele>
        <time>2019-05-03T10:49:28.000Z</time>
      </trkpt>
      <trkpt lat="42.69373321533203" lon="-8.245326042175293">
        <ele>483.0</ele>
        <time>2019-05-03T10:49:30.000Z</time>
      </trkpt>
      <trkpt lat="42.69378662109375" lon="-8.245347023010254">
        <ele>483.0</ele>
        <time>2019-05-03T10:49:32.000Z</time>
      </trkpt>
      <trkpt lat="42.693843841552734" lon="-8.245359420776367">
        <ele>483.0</ele>
        <time>2019-05-03T10:49:37.000Z</time>
      </trkpt>
      <trkpt lat="42.69390106201172" lon="-8.245368957519531">
        <ele>484.0</ele>
        <time>2019-05-03T10:49:42.000Z</time>
      </trkpt>
      <trkpt lat="42.693965911865234" lon="-8.245377540588379">
        <ele>484.0</ele>
        <time>2019-05-03T10:49:48.000Z</time>
      </trkpt>
      <trkpt lat="42.69403076171875" lon="-8.24538516998291">
        <ele>484.0</ele>
        <time>2019-05-03T10:49:53.000Z</time>
      </trkpt>
      <trkpt lat="42.69411087036133" lon="-8.24537181854248">
        <ele>485.0</ele>
        <time>2019-05-03T10:50:01.000Z</time>
      </trkpt>
      <trkpt lat="42.69419479370117" lon="-8.245348930358887">
        <ele>486.0</ele>
        <time>2019-05-03T10:50:10.000Z</time>
      </trkpt>
      <trkpt lat="42.69429016113281" lon="-8.245319366455078">
        <ele>488.0</ele>
        <time>2019-05-03T10:50:18.000Z</time>
      </trkpt>
      <trkpt lat="42.69438552856445" lon="-8.24528694152832">
        <ele>489.0</ele>
        <time>2019-05-03T10:50:27.000Z</time>
      </trkpt>
      <trkpt lat="42.6944694519043" lon="-8.245248794555664">
        <ele>490.0</ele>
        <time>2019-05-03T10:50:35.000Z</time>
      </trkpt>
      <trkpt lat="42.69455337524414" lon="-8.245205879211426">
        <ele>491.0</ele>
        <time>2019-05-03T10:50:43.000Z</time>
      </trkpt>
      <trkpt lat="42.69463348388672" lon="-8.245160102844238">
        <ele>492.0</ele>
        <time>2019-05-03T10:50:52.000Z</time>
      </trkpt>
      <trkpt lat="42.69471740722656" lon="-8.245111465454102">
        <ele>493.0</ele>
        <time>2019-05-03T10:51:00.000Z</time>
      </trkpt>
      <trkpt lat="42.69489669799805" lon="-8.245010375976562">
        <ele>493.0</ele>
        <time>2019-05-03T10:51:15.000Z</time>
      </trkpt>
      <trkpt lat="42.69508743286133" lon="-8.24485969543457">
        <ele>492.0</ele>
        <time>2019-05-03T10:51:35.000Z</time>
      </trkpt>
      <trkpt lat="42.695167541503906" lon="-8.244843482971191">
        <ele>491.0</ele>
        <time>2019-05-03T10:51:41.000Z</time>
      </trkpt>
      <trkpt lat="42.69523620605469" lon="-8.244854927062988">
        <ele>491.0</ele>
        <time>2019-05-03T10:51:47.000Z</time>
      </trkpt>
      <trkpt lat="42.69528579711914" lon="-8.24483871459961">
        <ele>490.0</ele>
        <time>2019-05-03T10:51:55.000Z</time>
      </trkpt>
      <trkpt lat="42.695343017578125" lon="-8.244815826416016">
        <ele>489.0</ele>
        <time>2019-05-03T10:52:02.000Z</time>
      </trkpt>
      <trkpt lat="42.69540786743164" lon="-8.244789123535156">
        <ele>487.0</ele>
        <time>2019-05-03T10:52:10.000Z</time>
      </trkpt>
      <trkpt lat="42.695472717285156" lon="-8.244759559631348">
        <ele>486.0</ele>
        <time>2019-05-03T10:52:18.000Z</time>
      </trkpt>
      <trkpt lat="42.69550323486328" lon="-8.244736671447754">
        <ele>486.0</ele>
        <time>2019-05-03T10:52:22.000Z</time>
      </trkpt>
      <trkpt lat="42.695526123046875" lon="-8.24471378326416">
        <ele>485.0</ele>
        <time>2019-05-03T10:52:25.000Z</time>
      </trkpt>
      <trkpt lat="42.69554138183594" lon="-8.244690895080566">
        <ele>485.0</ele>
        <time>2019-05-03T10:52:29.000Z</time>
      </trkpt>
      <trkpt lat="42.695552825927734" lon="-8.244668960571289">
        <ele>485.0</ele>
        <time>2019-05-03T10:52:33.000Z</time>
      </trkpt>
      <trkpt lat="42.69556427001953" lon="-8.24465560913086">
        <ele>485.0</ele>
        <time>2019-05-03T10:52:33.000Z</time>
      </trkpt>
      <trkpt lat="42.69557571411133" lon="-8.244646072387695">
        <ele>485.0</ele>
        <time>2019-05-03T10:52:33.000Z</time>
      </trkpt>
      <trkpt lat="42.695579528808594" lon="-8.24463939666748">
        <ele>485.0</ele>
        <time>2019-05-03T10:52:34.000Z</time>
      </trkpt>
      <trkpt lat="42.695587158203125" lon="-8.244633674621582">
        <ele>485.0</ele>
        <time>2019-05-03T10:52:34.000Z</time>
      </trkpt>
      <trkpt lat="42.69560623168945" lon="-8.24460506439209">
        <ele>485.0</ele>
        <time>2019-05-03T10:52:36.000Z</time>
      </trkpt>
      <trkpt lat="42.69562911987305" lon="-8.244568824768066">
        <ele>485.0</ele>
        <time>2019-05-03T10:52:38.000Z</time>
      </trkpt>
      <trkpt lat="42.695655822753906" lon="-8.244526863098145">
        <ele>485.0</ele>
        <time>2019-05-03T10:52:41.000Z</time>
      </trkpt>
      <trkpt lat="42.695682525634766" lon="-8.244482040405273">
        <ele>484.0</ele>
        <time>2019-05-03T10:52:43.000Z</time>
      </trkpt>
      <trkpt lat="42.695709228515625" lon="-8.244373321533203">
        <ele>484.0</ele>
        <time>2019-05-03T10:52:50.000Z</time>
      </trkpt>
      <trkpt lat="42.69572448730469" lon="-8.24424934387207">
        <ele>484.0</ele>
        <time>2019-05-03T10:52:58.000Z</time>
      </trkpt>
      <trkpt lat="42.69573974609375" lon="-8.244160652160645">
        <ele>484.0</ele>
        <time>2019-05-03T10:53:05.000Z</time>
      </trkpt>
      <trkpt lat="42.69575119018555" lon="-8.244059562683105">
        <ele>484.0</ele>
        <time>2019-05-03T10:53:12.000Z</time>
      </trkpt>
      <trkpt lat="42.69576644897461" lon="-8.243950843811035">
        <ele>483.0</ele>
        <time>2019-05-03T10:53:20.000Z</time>
      </trkpt>
      <trkpt lat="42.69578170776367" lon="-8.243837356567383">
        <ele>483.0</ele>
        <time>2019-05-03T10:53:27.000Z</time>
      </trkpt>
      <trkpt lat="42.69575881958008" lon="-8.243796348571777">
        <ele>483.0</ele>
        <time>2019-05-03T10:53:29.000Z</time>
      </trkpt>
      <trkpt lat="42.69572448730469" lon="-8.243782043457031">
        <ele>483.0</ele>
        <time>2019-05-03T10:53:32.000Z</time>
      </trkpt>
      <trkpt lat="42.6956787109375" lon="-8.243785858154297">
        <ele>483.0</ele>
        <time>2019-05-03T10:53:34.000Z</time>
      </trkpt>
      <trkpt lat="42.69562911987305" lon="-8.24379825592041">
        <ele>483.0</ele>
        <time>2019-05-03T10:53:37.000Z</time>
      </trkpt>
      <trkpt lat="42.695613861083984" lon="-8.243789672851562">
        <ele>483.0</ele>
        <time>2019-05-03T10:53:38.000Z</time>
      </trkpt>
      <trkpt lat="42.695613861083984" lon="-8.243781089782715">
        <ele>483.0</ele>
        <time>2019-05-03T10:53:39.000Z</time>
      </trkpt>
      <trkpt lat="42.69561767578125" lon="-8.243773460388184">
        <ele>482.0</ele>
        <time>2019-05-03T10:53:41.000Z</time>
      </trkpt>
      <trkpt lat="42.69562530517578" lon="-8.243765830993652">
        <ele>482.0</ele>
        <time>2019-05-03T10:53:42.000Z</time>
      </trkpt>
      <trkpt lat="42.695621490478516" lon="-8.243758201599121">
        <ele>482.0</ele>
        <time>2019-05-03T10:53:45.000Z</time>
      </trkpt>
      <trkpt lat="42.69562530517578" lon="-8.243751525878906">
        <ele>482.0</ele>
        <time>2019-05-03T10:53:48.000Z</time>
      </trkpt>
      <trkpt lat="42.69562530517578" lon="-8.243744850158691">
        <ele>482.0</ele>
        <time>2019-05-03T10:53:52.000Z</time>
      </trkpt>
      <trkpt lat="42.69562530517578" lon="-8.243738174438477">
        <ele>482.0</ele>
        <time>2019-05-03T10:53:55.000Z</time>
      </trkpt>
      <trkpt lat="42.69562530517578" lon="-8.243731498718262">
        <ele>482.0</ele>
        <time>2019-05-03T10:53:55.000Z</time>
      </trkpt>
      <trkpt lat="42.69562530517578" lon="-8.243725776672363">
        <ele>482.0</ele>
        <time>2019-05-03T10:53:55.000Z</time>
      </trkpt>
      <trkpt lat="42.69562530517578" lon="-8.243720054626465">
        <ele>482.0</ele>
        <time>2019-05-03T10:53:56.000Z</time>
      </trkpt>
      <trkpt lat="42.69562530517578" lon="-8.243714332580566">
        <ele>482.0</ele>
        <time>2019-05-03T10:53:56.000Z</time>
      </trkpt>
      <trkpt lat="42.69563293457031" lon="-8.243632316589355">
        <ele>482.0</ele>
        <time>2019-05-03T10:54:01.000Z</time>
      </trkpt>
      <trkpt lat="42.69564437866211" lon="-8.24351978302002">
        <ele>481.0</ele>
        <time>2019-05-03T10:54:06.000Z</time>
      </trkpt>
      <trkpt lat="42.695655822753906" lon="-8.243385314941406">
        <ele>481.0</ele>
        <time>2019-05-03T10:54:11.000Z</time>
      </trkpt>
      <trkpt lat="42.6956672668457" lon="-8.243240356445312">
        <ele>481.0</ele>
        <time>2019-05-03T10:54:16.000Z</time>
      </trkpt>
      <trkpt lat="42.6956672668457" lon="-8.243144035339355">
        <ele>481.0</ele>
        <time>2019-05-03T10:54:22.000Z</time>
      </trkpt>
      <trkpt lat="42.69565963745117" lon="-8.243057250976562">
        <ele>482.0</ele>
        <time>2019-05-03T10:54:29.000Z</time>
      </trkpt>
      <trkpt lat="42.695648193359375" lon="-8.242976188659668">
        <ele>482.0</ele>
        <time>2019-05-03T10:54:35.000Z</time>
      </trkpt>
      <trkpt lat="42.69563674926758" lon="-8.242898941040039">
        <ele>483.0</ele>
        <time>2019-05-03T10:54:42.000Z</time>
      </trkpt>
      <trkpt lat="42.695648193359375" lon="-8.242849349975586">
        <ele>483.0</ele>
        <time>2019-05-03T10:54:46.000Z</time>
      </trkpt>
      <trkpt lat="42.69567108154297" lon="-8.242814064025879">
        <ele>482.0</ele>
        <time>2019-05-03T10:54:50.000Z</time>
      </trkpt>
      <trkpt lat="42.695701599121094" lon="-8.242788314819336">
        <ele>482.0</ele>
        <time>2019-05-03T10:54:54.000Z</time>
      </trkpt>
      <trkpt lat="42.69573211669922" lon="-8.242768287658691">
        <ele>482.0</ele>
        <time>2019-05-03T10:54:58.000Z</time>
      </trkpt>
      <trkpt lat="42.69575500488281" lon="-8.242719650268555">
        <ele>481.0</ele>
        <time>2019-05-03T10:55:03.000Z</time>
      </trkpt>
      <trkpt lat="42.69577407836914" lon="-8.242663383483887">
        <ele>481.0</ele>
        <time>2019-05-03T10:55:07.000Z</time>
      </trkpt>
      <trkpt lat="42.695796966552734" lon="-8.242603302001953">
        <ele>481.0</ele>
        <time>2019-05-03T10:55:12.000Z</time>
      </trkpt>
      <trkpt lat="42.69581604003906" lon="-8.242541313171387">
        <ele>481.0</ele>
        <time>2019-05-03T10:55:17.000Z</time>
      </trkpt>
      <trkpt lat="42.695823669433594" lon="-8.242406845092773">
        <ele>479.0</ele>
        <time>2019-05-03T10:55:31.000Z</time>
      </trkpt>
      <trkpt lat="42.6958122253418" lon="-8.242262840270996">
        <ele>476.0</ele>
        <time>2019-05-03T10:55:45.000Z</time>
      </trkpt>
      <trkpt lat="42.69581985473633" lon="-8.242234230041504">
        <ele>476.0</ele>
        <time>2019-05-03T10:55:49.000Z</time>
      </trkpt>
      <trkpt lat="42.69582748413086" lon="-8.24222183227539">
        <ele>476.0</ele>
        <time>2019-05-03T10:55:52.000Z</time>
      </trkpt>
      <trkpt lat="42.69584274291992" lon="-8.242220878601074">
        <ele>476.0</ele>
        <time>2019-05-03T10:55:56.000Z</time>
      </trkpt>
      <trkpt lat="42.69585418701172" lon="-8.242225646972656">
        <ele>476.0</ele>
        <time>2019-05-03T10:56:00.000Z</time>
      </trkpt>
      <trkpt lat="42.69586181640625" lon="-8.242218971252441">
        <ele>476.0</ele>
        <time>2019-05-03T10:56:00.000Z</time>
      </trkpt>
      <trkpt lat="42.69586944580078" lon="-8.242213249206543">
        <ele>476.0</ele>
        <time>2019-05-03T10:56:00.000Z</time>
      </trkpt>
      <trkpt lat="42.69587707519531" lon="-8.242208480834961">
        <ele>476.0</ele>
        <time>2019-05-03T10:56:01.000Z</time>
      </trkpt>
      <trkpt lat="42.69588088989258" lon="-8.242203712463379">
        <ele>476.0</ele>
        <time>2019-05-03T10:56:01.000Z</time>
      </trkpt>
      <trkpt lat="42.69589614868164" lon="-8.24219036102295">
        <ele>476.0</ele>
        <time>2019-05-03T10:56:02.000Z</time>
      </trkpt>
      <trkpt lat="42.6959114074707" lon="-8.242175102233887">
        <ele>476.0</ele>
        <time>2019-05-03T10:56:02.000Z</time>
      </trkpt>
      <trkpt lat="42.69593048095703" lon="-8.242157936096191">
        <ele>476.0</ele>
        <time>2019-05-03T10:56:03.000Z</time>
      </trkpt>
      <trkpt lat="42.695945739746094" lon="-8.24213981628418">
        <ele>476.0</ele>
        <time>2019-05-03T10:56:04.000Z</time>
      </trkpt>
      <trkpt lat="42.69596481323242" lon="-8.24213695526123">
        <ele>476.0</ele>
        <time>2019-05-03T10:56:13.000Z</time>
      </trkpt>
      <trkpt lat="42.69602966308594" lon="-8.242154121398926">
        <ele>475.0</ele>
        <time>2019-05-03T10:56:35.000Z</time>
      </trkpt>
      <trkpt lat="42.696022033691406" lon="-8.24215030670166">
        <ele>475.0</ele>
        <time>2019-05-03T10:56:31.000Z</time>
      </trkpt>
      <trkpt lat="42.696006774902344" lon="-8.242145538330078">
        <ele>475.0</ele>
        <time>2019-05-03T10:56:26.000Z</time>
      </trkpt>
      <trkpt lat="42.696006774902344" lon="-8.242145538330078">
        <ele>475.0</ele>
        <time>2019-05-03T10:56:47.000Z</time>
      </trkpt>
      <trkpt lat="42.69602966308594" lon="-8.242199897766113">
        <ele>463.0</ele>
        <time>2019-05-04T05:44:13.000Z</time>
      </trkpt>
      <trkpt lat="42.69599914550781" lon="-8.242325782775879">
        <ele>493.0</ele>
        <time>2019-05-04T05:44:21.000Z</time>
      </trkpt>
      <trkpt lat="42.69600296020508" lon="-8.24236011505127">
        <ele>497.0</ele>
        <time>2019-05-04T05:44:27.000Z</time>
      </trkpt>
      <trkpt lat="42.69601058959961" lon="-8.242395401000977">
        <ele>499.0</ele>
        <time>2019-05-04T05:44:32.000Z</time>
      </trkpt>
      <trkpt lat="42.696022033691406" lon="-8.242431640625">
        <ele>501.0</ele>
        <time>2019-05-04T05:44:38.000Z</time>
      </trkpt>
      <trkpt lat="42.69603729248047" lon="-8.24246883392334">
        <ele>502.0</ele>
        <time>2019-05-04T05:44:44.000Z</time>
      </trkpt>
      <trkpt lat="42.696041107177734" lon="-8.2424898147583">
        <ele>503.0</ele>
        <time>2019-05-04T05:44:44.000Z</time>
      </trkpt>
      <trkpt lat="42.696044921875" lon="-8.242504119873047">
        <ele>503.0</ele>
        <time>2019-05-04T05:44:44.000Z</time>
      </trkpt>
      <trkpt lat="42.696048736572266" lon="-8.242514610290527">
        <ele>502.0</ele>
        <time>2019-05-04T05:44:45.000Z</time>
      </trkpt>
      <trkpt lat="42.69605255126953" lon="-8.242523193359375">
        <ele>502.0</ele>
        <time>2019-05-04T05:44:45.000Z</time>
      </trkpt>
      <trkpt lat="42.69606018066406" lon="-8.242566108703613">
        <ele>501.0</ele>
        <time>2019-05-04T05:44:47.000Z</time>
      </trkpt>
      <trkpt lat="42.696075439453125" lon="-8.242619514465332">
        <ele>499.0</ele>
        <time>2019-05-04T05:44:49.000Z</time>
      </trkpt>
      <trkpt lat="42.69609069824219" lon="-8.242681503295898">
        <ele>497.0</ele>
        <time>2019-05-04T05:44:51.000Z</time>
      </trkpt>
      <trkpt lat="42.696109771728516" lon="-8.242748260498047">
        <ele>495.0</ele>
        <time>2019-05-04T05:44:53.000Z</time>
      </trkpt>
      <trkpt lat="42.696128845214844" lon="-8.242802619934082">
        <ele>494.0</ele>
        <time>2019-05-04T05:44:57.000Z</time>
      </trkpt>
      <trkpt lat="42.69615173339844" lon="-8.2428560256958">
        <ele>492.0</ele>
        <time>2019-05-04T05:45:01.000Z</time>
      </trkpt>
      <trkpt lat="42.69617462158203" lon="-8.24290943145752">
        <ele>491.0</ele>
        <time>2019-05-04T05:45:06.000Z</time>
      </trkpt>
      <trkpt lat="42.69620132446289" lon="-8.242961883544922">
        <ele>490.0</ele>
        <time>2019-05-04T05:45:10.000Z</time>
      </trkpt>
      <trkpt lat="42.696224212646484" lon="-8.243013381958008">
        <ele>488.0</ele>
        <time>2019-05-04T05:45:16.000Z</time>
      </trkpt>
      <trkpt lat="42.69624710083008" lon="-8.243063926696777">
        <ele>487.0</ele>
        <time>2019-05-04T05:45:21.000Z</time>
      </trkpt>
      <trkpt lat="42.696266174316406" lon="-8.24311351776123">
        <ele>486.0</ele>
        <time>2019-05-04T05:45:27.000Z</time>
      </trkpt>
      <trkpt lat="42.6962890625" lon="-8.243162155151367">
        <ele>485.0</ele>
        <time>2019-05-04T05:45:32.000Z</time>
      </trkpt>
      <trkpt lat="42.69629669189453" lon="-8.243183135986328">
        <ele>484.0</ele>
        <time>2019-05-04T05:45:39.000Z</time>
      </trkpt>
      <trkpt lat="42.6963005065918" lon="-8.243191719055176">
        <ele>484.0</ele>
        <time>2019-05-04T05:45:46.000Z</time>
      </trkpt>
      <trkpt lat="42.6963005065918" lon="-8.243192672729492">
        <ele>483.0</ele>
        <time>2019-05-04T05:45:53.000Z</time>
      </trkpt>
      <trkpt lat="42.69629669189453" lon="-8.243188858032227">
        <ele>483.0</ele>
        <time>2019-05-04T05:46:00.000Z</time>
      </trkpt>
      <trkpt lat="42.69630432128906" lon="-8.243209838867188">
        <ele>483.0</ele>
        <time>2019-05-04T05:46:01.000Z</time>
      </trkpt>
      <trkpt lat="42.696495056152344" lon="-8.24357795715332">
        <ele>481.0</ele>
        <time>2019-05-04T05:46:24.000Z</time>
      </trkpt>
      <trkpt lat="42.6965217590332" lon="-8.243593215942383">
        <ele>482.0</ele>
        <time>2019-05-04T05:46:39.000Z</time>
      </trkpt>
      <trkpt lat="42.69654083251953" lon="-8.24360466003418">
        <ele>482.0</ele>
        <time>2019-05-04T05:46:40.000Z</time>
      </trkpt>
      <trkpt lat="42.696800231933594" lon="-8.24376392364502">
        <ele>485.0</ele>
        <time>2019-05-04T05:47:00.000Z</time>
      </trkpt>
      <trkpt lat="42.69682312011719" lon="-8.243799209594727">
        <ele>485.0</ele>
        <time>2019-05-04T05:47:03.000Z</time>
      </trkpt>
      <trkpt lat="42.69682693481445" lon="-8.2438325881958">
        <ele>485.0</ele>
        <time>2019-05-04T05:47:06.000Z</time>
      </trkpt>
      <trkpt lat="42.69682312011719" lon="-8.243865966796875">
        <ele>486.0</ele>
        <time>2019-05-04T05:47:09.000Z</time>
      </trkpt>
      <trkpt lat="42.696807861328125" lon="-8.243897438049316">
        <ele>486.0</ele>
        <time>2019-05-04T05:47:12.000Z</time>
      </trkpt>
      <trkpt lat="42.6968879699707" lon="-8.244071006774902">
        <ele>487.0</ele>
        <time>2019-05-04T05:47:33.000Z</time>
      </trkpt>
      <trkpt lat="42.69700241088867" lon="-8.244294166564941">
        <ele>488.0</ele>
        <time>2019-05-04T05:47:54.000Z</time>
      </trkpt>
      <trkpt lat="42.697044372558594" lon="-8.244394302368164">
        <ele>488.0</ele>
        <time>2019-05-04T05:48:01.000Z</time>
      </trkpt>
      <trkpt lat="42.69709014892578" lon="-8.244494438171387">
        <ele>488.0</ele>
        <time>2019-05-04T05:48:08.000Z</time>
      </trkpt>
      <trkpt lat="42.6971321105957" lon="-8.24459457397461">
        <ele>488.0</ele>
        <time>2019-05-04T05:48:16.000Z</time>
      </trkpt>
      <trkpt lat="42.697174072265625" lon="-8.244694709777832">
        <ele>488.0</ele>
        <time>2019-05-04T05:48:23.000Z</time>
      </trkpt>
      <trkpt lat="42.69721603393555" lon="-8.244797706604004">
        <ele>489.0</ele>
        <time>2019-05-04T05:48:31.000Z</time>
      </trkpt>
      <trkpt lat="42.6972541809082" lon="-8.244901657104492">
        <ele>489.0</ele>
        <time>2019-05-04T05:48:39.000Z</time>
      </trkpt>
      <trkpt lat="42.697296142578125" lon="-8.245006561279297">
        <ele>490.0</ele>
        <time>2019-05-04T05:48:48.000Z</time>
      </trkpt>
      <trkpt lat="42.69733428955078" lon="-8.245111465454102">
        <ele>491.0</ele>
        <time>2019-05-04T05:48:56.000Z</time>
      </trkpt>
      <trkpt lat="42.697357177734375" lon="-8.245171546936035">
        <ele>491.0</ele>
        <time>2019-05-04T05:49:00.000Z</time>
      </trkpt>
      <trkpt lat="42.69736862182617" lon="-8.24521255493164">
        <ele>491.0</ele>
        <time>2019-05-04T05:49:04.000Z</time>
      </trkpt>
      <trkpt lat="42.6973762512207" lon="-8.245241165161133">
        <ele>492.0</ele>
        <time>2019-05-04T05:49:08.000Z</time>
      </trkpt>
      <trkpt lat="42.69738006591797" lon="-8.245264053344727">
        <ele>492.0</ele>
        <time>2019-05-04T05:49:12.000Z</time>
      </trkpt>
      <trkpt lat="42.6973876953125" lon="-8.24530029296875">
        <ele>493.0</ele>
        <time>2019-05-04T05:49:23.000Z</time>
      </trkpt>
      <trkpt lat="42.697391510009766" lon="-8.24533462524414">
        <ele>496.0</ele>
        <time>2019-05-04T05:49:35.000Z</time>
      </trkpt>
      <trkpt lat="42.6973991394043" lon="-8.245368957519531">
        <ele>498.0</ele>
        <time>2019-05-04T05:49:46.000Z</time>
      </trkpt>
      <trkpt lat="42.69740295410156" lon="-8.245402336120605">
        <ele>501.0</ele>
        <time>2019-05-04T05:49:58.000Z</time>
      </trkpt>
      <trkpt lat="42.69740676879883" lon="-8.245426177978516">
        <ele>502.0</ele>
        <time>2019-05-04T05:49:58.000Z</time>
      </trkpt>
      <trkpt lat="42.69740676879883" lon="-8.245444297790527">
        <ele>502.0</ele>
        <time>2019-05-04T05:49:58.000Z</time>
      </trkpt>
      <trkpt lat="42.697410583496094" lon="-8.245460510253906">
        <ele>502.0</ele>
        <time>2019-05-04T05:49:59.000Z</time>
      </trkpt>
      <trkpt lat="42.69741439819336" lon="-8.245473861694336">
        <ele>501.0</ele>
        <time>2019-05-04T05:49:59.000Z</time>
      </trkpt>
      <trkpt lat="42.69740676879883" lon="-8.245930671691895">
        <ele>503.0</ele>
        <time>2019-05-04T05:50:18.000Z</time>
      </trkpt>
      <trkpt lat="42.69744110107422" lon="-8.246049880981445">
        <ele>503.0</ele>
        <time>2019-05-04T05:50:25.000Z</time>
      </trkpt>
      <trkpt lat="42.697486877441406" lon="-8.246119499206543">
        <ele>503.0</ele>
        <time>2019-05-04T05:50:32.000Z</time>
      </trkpt>
      <trkpt lat="42.69749069213867" lon="-8.246140480041504">
        <ele>503.0</ele>
        <time>2019-05-04T05:50:37.000Z</time>
      </trkpt>
      <trkpt lat="42.69749069213867" lon="-8.246150970458984">
        <ele>502.0</ele>
        <time>2019-05-04T05:50:42.000Z</time>
      </trkpt>
      <trkpt lat="42.69749069213867" lon="-8.246153831481934">
        <ele>502.0</ele>
        <time>2019-05-04T05:50:48.000Z</time>
      </trkpt>
      <trkpt lat="42.69748306274414" lon="-8.246152877807617">
        <ele>501.0</ele>
        <time>2019-05-04T05:50:53.000Z</time>
      </trkpt>
      <trkpt lat="42.69748306274414" lon="-8.246159553527832">
        <ele>501.0</ele>
        <time>2019-05-04T05:50:53.000Z</time>
      </trkpt>
      <trkpt lat="42.69748306274414" lon="-8.246166229248047">
        <ele>501.0</ele>
        <time>2019-05-04T05:50:53.000Z</time>
      </trkpt>
      <trkpt lat="42.69748306274414" lon="-8.246172904968262">
        <ele>501.0</ele>
        <time>2019-05-04T05:50:54.000Z</time>
      </trkpt>
      <trkpt lat="42.69748306274414" lon="-8.246179580688477">
        <ele>501.0</ele>
        <time>2019-05-04T05:50:54.000Z</time>
      </trkpt>
      <trkpt lat="42.697479248046875" lon="-8.246254920959473">
        <ele>501.0</ele>
        <time>2019-05-04T05:50:57.000Z</time>
      </trkpt>
      <trkpt lat="42.69747543334961" lon="-8.246360778808594">
        <ele>501.0</ele>
        <time>2019-05-04T05:51:01.000Z</time>
      </trkpt>
      <trkpt lat="42.697471618652344" lon="-8.246484756469727">
        <ele>501.0</ele>
        <time>2019-05-04T05:51:04.000Z</time>
      </trkpt>
      <trkpt lat="42.69746398925781" lon="-8.24661922454834">
        <ele>501.0</ele>
        <time>2019-05-04T05:51:08.000Z</time>
      </trkpt>
      <trkpt lat="42.69749450683594" lon="-8.246747016906738">
        <ele>500.0</ele>
        <time>2019-05-04T05:51:16.000Z</time>
      </trkpt>
      <trkpt lat="42.69754409790039" lon="-8.246831893920898">
        <ele>498.0</ele>
        <time>2019-05-04T05:51:25.000Z</time>
      </trkpt>
      <trkpt lat="42.697532653808594" lon="-8.246889114379883">
        <ele>498.0</ele>
        <time>2019-05-04T05:51:29.000Z</time>
      </trkpt>
      <trkpt lat="42.697513580322266" lon="-8.2469482421875">
        <ele>497.0</ele>
        <time>2019-05-04T05:51:33.000Z</time>
      </trkpt>
      <trkpt lat="42.697486877441406" lon="-8.247007369995117">
        <ele>497.0</ele>
        <time>2019-05-04T05:51:38.000Z</time>
      </trkpt>
      <trkpt lat="42.69745635986328" lon="-8.24706745147705">
        <ele>496.0</ele>
        <time>2019-05-04T05:51:42.000Z</time>
      </trkpt>
      <trkpt lat="42.69744873046875" lon="-8.24714183807373">
        <ele>495.0</ele>
        <time>2019-05-04T05:51:49.000Z</time>
      </trkpt>
      <trkpt lat="42.69746398925781" lon="-8.24719524383545">
        <ele>495.0</ele>
        <time>2019-05-04T05:51:57.000Z</time>
      </trkpt>
      <trkpt lat="42.69746780395508" lon="-8.247209548950195">
        <ele>494.0</ele>
        <time>2019-05-04T05:52:01.000Z</time>
      </trkpt>
      <trkpt lat="42.69746780395508" lon="-8.24721622467041">
        <ele>494.0</ele>
        <time>2019-05-04T05:52:05.000Z</time>
      </trkpt>
      <trkpt lat="42.697471618652344" lon="-8.247218132019043">
        <ele>494.0</ele>
        <time>2019-05-04T05:52:09.000Z</time>
      </trkpt>
      <trkpt lat="42.697471618652344" lon="-8.247218132019043">
        <ele>494.0</ele>
        <time>2019-05-04T05:52:13.000Z</time>
      </trkpt>
      <trkpt lat="42.697471618652344" lon="-8.247222900390625">
        <ele>494.0</ele>
        <time>2019-05-04T05:52:13.000Z</time>
      </trkpt>
      <trkpt lat="42.69747543334961" lon="-8.247227668762207">
        <ele>494.0</ele>
        <time>2019-05-04T05:52:13.000Z</time>
      </trkpt>
      <trkpt lat="42.69747543334961" lon="-8.247232437133789">
        <ele>494.0</ele>
        <time>2019-05-04T05:52:14.000Z</time>
      </trkpt>
      <trkpt lat="42.69747543334961" lon="-8.247237205505371">
        <ele>494.0</ele>
        <time>2019-05-04T05:52:14.000Z</time>
      </trkpt>
      <trkpt lat="42.697486877441406" lon="-8.247310638427734">
        <ele>493.0</ele>
        <time>2019-05-04T05:52:18.000Z</time>
      </trkpt>
      <trkpt lat="42.69749450683594" lon="-8.24741268157959">
        <ele>493.0</ele>
        <time>2019-05-04T05:52:22.000Z</time>
      </trkpt>
      <trkpt lat="42.697509765625" lon="-8.247533798217773">
        <ele>493.0</ele>
        <time>2019-05-04T05:52:26.000Z</time>
      </trkpt>
      <trkpt lat="42.6975212097168" lon="-8.247664451599121">
        <ele>492.0</ele>
        <time>2019-05-04T05:52:30.000Z</time>
      </trkpt>
      <trkpt lat="42.6975212097168" lon="-8.247773170471191">
        <ele>492.0</ele>
        <time>2019-05-04T05:52:37.000Z</time>
      </trkpt>
      <trkpt lat="42.697513580322266" lon="-8.247884750366211">
        <ele>491.0</ele>
        <time>2019-05-04T05:52:44.000Z</time>
      </trkpt>
      <trkpt lat="42.69750213623047" lon="-8.24799633026123">
        <ele>491.0</ele>
        <time>2019-05-04T05:52:51.000Z</time>
      </trkpt>
      <trkpt lat="42.69749069213867" lon="-8.24810791015625">
        <ele>490.0</ele>
        <time>2019-05-04T05:52:58.000Z</time>
      </trkpt>
      <trkpt lat="42.69753646850586" lon="-8.248265266418457">
        <ele>490.0</ele>
        <time>2019-05-04T05:53:12.000Z</time>
      </trkpt>
      <trkpt lat="42.69761276245117" lon="-8.248391151428223">
        <ele>490.0</ele>
        <time>2019-05-04T05:53:27.000Z</time>
      </trkpt>
      <trkpt lat="42.69765090942383" lon="-8.248433113098145">
        <ele>492.0</ele>
        <time>2019-05-04T05:53:38.000Z</time>
      </trkpt>
      <trkpt lat="42.69767379760742" lon="-8.248429298400879">
        <ele>494.0</ele>
        <time>2019-05-04T05:53:50.000Z</time>
      </trkpt>
      <trkpt lat="42.69768524169922" lon="-8.248435974121094">
        <ele>495.0</ele>
        <time>2019-05-04T05:53:50.000Z</time>
      </trkpt>
      <trkpt lat="42.69769287109375" lon="-8.248440742492676">
        <ele>495.0</ele>
        <time>2019-05-04T05:53:50.000Z</time>
      </trkpt>
      <trkpt lat="42.69770050048828" lon="-8.248445510864258">
        <ele>494.0</ele>
        <time>2019-05-04T05:53:51.000Z</time>
      </trkpt>
      <trkpt lat="42.69770431518555" lon="-8.248449325561523">
        <ele>494.0</ele>
        <time>2019-05-04T05:53:51.000Z</time>
      </trkpt>
      <trkpt lat="42.697715759277344" lon="-8.248455047607422">
        <ele>494.0</ele>
        <time>2019-05-04T05:53:51.000Z</time>
      </trkpt>
      <trkpt lat="42.697723388671875" lon="-8.24846076965332">
        <ele>494.0</ele>
        <time>2019-05-04T05:53:52.000Z</time>
      </trkpt>
      <trkpt lat="42.69773483276367" lon="-8.248466491699219">
        <ele>494.0</ele>
        <time>2019-05-04T05:53:52.000Z</time>
      </trkpt>
      <trkpt lat="42.6977424621582" lon="-8.248473167419434">
        <ele>494.0</ele>
        <time>2019-05-04T05:53:53.000Z</time>
      </trkpt>
      <trkpt lat="42.69774627685547" lon="-8.2484769821167">
        <ele>495.0</ele>
        <time>2019-05-04T05:54:00.000Z</time>
      </trkpt>
      <trkpt lat="42.697750091552734" lon="-8.248478889465332">
        <ele>496.0</ele>
        <time>2019-05-04T05:54:06.000Z</time>
      </trkpt>
      <trkpt lat="42.69775390625" lon="-8.248481750488281">
        <ele>497.0</ele>
        <time>2019-05-04T05:54:13.000Z</time>
      </trkpt>
      <trkpt lat="42.697757720947266" lon="-8.248483657836914">
        <ele>498.0</ele>
        <time>2019-05-04T05:54:20.000Z</time>
      </trkpt>
      <trkpt lat="42.697757720947266" lon="-8.248485565185547">
        <ele>498.0</ele>
        <time>2019-05-04T05:54:20.000Z</time>
      </trkpt>
      <trkpt lat="42.69776153564453" lon="-8.24848747253418">
        <ele>498.0</ele>
        <time>2019-05-04T05:54:20.000Z</time>
      </trkpt>
      <trkpt lat="42.6977653503418" lon="-8.248490333557129">
        <ele>498.0</ele>
        <time>2019-05-04T05:54:21.000Z</time>
      </trkpt>
      <trkpt lat="42.69776916503906" lon="-8.248492240905762">
        <ele>498.0</ele>
        <time>2019-05-04T05:54:21.000Z</time>
      </trkpt>
      <trkpt lat="42.697811126708984" lon="-8.248523712158203">
        <ele>498.0</ele>
        <time>2019-05-04T05:54:23.000Z</time>
      </trkpt>
      <trkpt lat="42.69786834716797" lon="-8.248566627502441">
        <ele>498.0</ele>
        <time>2019-05-04T05:54:24.000Z</time>
      </trkpt>
      <trkpt lat="42.697940826416016" lon="-8.248617172241211">
        <ele>498.0</ele>
        <time>2019-05-04T05:54:26.000Z</time>
      </trkpt>
      <trkpt lat="42.69801712036133" lon="-8.248672485351562">
        <ele>498.0</ele>
        <time>2019-05-04T05:54:28.000Z</time>
      </trkpt>
      <trkpt lat="42.69830322265625" lon="-8.24882698059082">
        <ele>500.0</ele>
        <time>2019-05-04T05:54:39.000Z</time>
      </trkpt>
      <trkpt lat="42.698524475097656" lon="-8.24896240234375">
        <ele>502.0</ele>
        <time>2019-05-04T05:55:04.000Z</time>
      </trkpt>
      <trkpt lat="42.69853591918945" lon="-8.248990058898926">
        <ele>502.0</ele>
        <time>2019-05-04T05:55:10.000Z</time>
      </trkpt>
      <trkpt lat="42.698524475097656" lon="-8.249015808105469">
        <ele>502.0</ele>
        <time>2019-05-04T05:55:15.000Z</time>
      </trkpt>
      <trkpt lat="42.69850158691406" lon="-8.249039649963379">
        <ele>502.0</ele>
        <time>2019-05-04T05:55:21.000Z</time>
      </trkpt>
      <trkpt lat="42.69847106933594" lon="-8.249062538146973">
        <ele>502.0</ele>
        <time>2019-05-04T05:55:27.000Z</time>
      </trkpt>
      <trkpt lat="42.69845962524414" lon="-8.249076843261719">
        <ele>502.0</ele>
        <time>2019-05-04T05:55:27.000Z</time>
      </trkpt>
      <trkpt lat="42.698455810546875" lon="-8.2490873336792">
        <ele>502.0</ele>
        <time>2019-05-04T05:55:27.000Z</time>
      </trkpt>
      <trkpt lat="42.69845199584961" lon="-8.24909496307373">
        <ele>502.0</ele>
        <time>2019-05-04T05:55:28.000Z</time>
      </trkpt>
      <trkpt lat="42.698448181152344" lon="-8.249101638793945">
        <ele>502.0</ele>
        <time>2019-05-04T05:55:28.000Z</time>
      </trkpt>
      <trkpt lat="42.69841766357422" lon="-8.249144554138184">
        <ele>502.0</ele>
        <time>2019-05-04T05:55:31.000Z</time>
      </trkpt>
      <trkpt lat="42.6983757019043" lon="-8.249200820922852">
        <ele>502.0</ele>
        <time>2019-05-04T05:55:34.000Z</time>
      </trkpt>
      <trkpt lat="42.698326110839844" lon="-8.249266624450684">
        <ele>502.0</ele>
        <time>2019-05-04T05:55:38.000Z</time>
      </trkpt>
      <trkpt lat="42.698272705078125" lon="-8.249336242675781">
        <ele>502.0</ele>
        <time>2019-05-04T05:55:41.000Z</time>
      </trkpt>
      <trkpt lat="42.698265075683594" lon="-8.249388694763184">
        <ele>502.0</ele>
        <time>2019-05-04T05:55:44.000Z</time>
      </trkpt>
      <trkpt lat="42.698272705078125" lon="-8.249438285827637">
        <ele>502.0</ele>
        <time>2019-05-04T05:55:47.000Z</time>
      </trkpt>
      <trkpt lat="42.69829177856445" lon="-8.24948501586914">
        <ele>501.0</ele>
        <time>2019-05-04T05:55:51.000Z</time>
      </trkpt>
      <trkpt lat="42.69831466674805" lon="-8.249531745910645">
        <ele>501.0</ele>
        <time>2019-05-04T05:55:54.000Z</time>
      </trkpt>
      <trkpt lat="42.698326110839844" lon="-8.249560356140137">
        <ele>501.0</ele>
        <time>2019-05-04T05:55:56.000Z</time>
      </trkpt>
      <trkpt lat="42.698333740234375" lon="-8.249581336975098">
        <ele>501.0</ele>
        <time>2019-05-04T05:55:58.000Z</time>
      </trkpt>
      <trkpt lat="42.698341369628906" lon="-8.24959659576416">
        <ele>501.0</ele>
        <time>2019-05-04T05:56:00.000Z</time>
      </trkpt>
      <trkpt lat="42.69834899902344" lon="-8.24960994720459">
        <ele>501.0</ele>
        <time>2019-05-04T05:56:02.000Z</time>
      </trkpt>
      <trkpt lat="42.6983642578125" lon="-8.24963665008545">
        <ele>500.0</ele>
        <time>2019-05-04T05:56:06.000Z</time>
      </trkpt>
      <trkpt lat="42.69837951660156" lon="-8.249667167663574">
        <ele>500.0</ele>
        <time>2019-05-04T05:56:09.000Z</time>
      </trkpt>
      <trkpt lat="42.69839859008789" lon="-8.249699592590332">
        <ele>499.0</ele>
        <time>2019-05-04T05:56:13.000Z</time>
      </trkpt>
      <trkpt lat="42.69841766357422" lon="-8.249733924865723">
        <ele>499.0</ele>
        <time>2019-05-04T05:56:17.000Z</time>
      </trkpt>
      <trkpt lat="42.69842529296875" lon="-8.249750137329102">
        <ele>499.0</ele>
        <time>2019-05-04T05:56:17.000Z</time>
      </trkpt>
      <trkpt lat="42.69843292236328" lon="-8.249759674072266">
        <ele>499.0</ele>
        <time>2019-05-04T05:56:17.000Z</time>
      </trkpt>
      <trkpt lat="42.69843292236328" lon="-8.249765396118164">
        <ele>499.0</ele>
        <time>2019-05-04T05:56:18.000Z</time>
      </trkpt>
      <trkpt lat="42.69843673706055" lon="-8.249768257141113">
        <ele>499.0</ele>
        <time>2019-05-04T05:56:18.000Z</time>
      </trkpt>
      <trkpt lat="42.69847869873047" lon="-8.249825477600098">
        <ele>498.0</ele>
        <time>2019-05-04T05:56:26.000Z</time>
      </trkpt>
      <trkpt lat="42.69853973388672" lon="-8.24990177154541">
        <ele>497.0</ele>
        <time>2019-05-04T05:56:33.000Z</time>
      </trkpt>
      <trkpt lat="42.698612213134766" lon="-8.249992370605469">
        <ele>495.0</ele>
        <time>2019-05-04T05:56:41.000Z</time>
      </trkpt>
      <trkpt lat="42.69868850708008" lon="-8.250088691711426">
        <ele>494.0</ele>
        <time>2019-05-04T05:56:49.000Z</time>
      </trkpt>
      <trkpt lat="42.69873046875" lon="-8.250138282775879">
        <ele>492.0</ele>
        <time>2019-05-04T05:56:51.000Z</time>
      </trkpt>
      <trkpt lat="42.698760986328125" lon="-8.250175476074219">
        <ele>491.0</ele>
        <time>2019-05-04T05:56:54.000Z</time>
      </trkpt>
      <trkpt lat="42.698787689208984" lon="-8.250204086303711">
        <ele>489.0</ele>
        <time>2019-05-04T05:56:56.000Z</time>
      </trkpt>
      <trkpt lat="42.69881057739258" lon="-8.250227928161621">
        <ele>488.0</ele>
        <time>2019-05-04T05:56:59.000Z</time>
      </trkpt>
      <trkpt lat="42.69881820678711" lon="-8.250265121459961">
        <ele>486.0</ele>
        <time>2019-05-04T05:57:02.000Z</time>
      </trkpt>
      <trkpt lat="42.69881820678711" lon="-8.250304222106934">
        <ele>483.0</ele>
        <time>2019-05-04T05:57:05.000Z</time>
      </trkpt>
      <trkpt lat="42.698814392089844" lon="-8.250343322753906">
        <ele>481.0</ele>
        <time>2019-05-04T05:57:09.000Z</time>
      </trkpt>
      <trkpt lat="42.69880676269531" lon="-8.250382423400879">
        <ele>478.0</ele>
        <time>2019-05-04T05:57:12.000Z</time>
      </trkpt>
      <trkpt lat="42.69880676269531" lon="-8.250401496887207">
        <ele>477.0</ele>
        <time>2019-05-04T05:57:17.000Z</time>
      </trkpt>
      <trkpt lat="42.69880676269531" lon="-8.250411033630371">
        <ele>475.0</ele>
        <time>2019-05-04T05:57:22.000Z</time>
      </trkpt>
      <trkpt lat="42.69881057739258" lon="-8.250414848327637">
        <ele>474.0</ele>
        <time>2019-05-04T05:57:27.000Z</time>
      </trkpt>
      <trkpt lat="42.69881057739258" lon="-8.250414848327637">
        <ele>473.0</ele>
        <time>2019-05-04T05:57:32.000Z</time>
      </trkpt>
      <trkpt lat="42.69881057739258" lon="-8.250422477722168">
        <ele>472.0</ele>
        <time>2019-05-04T05:57:32.000Z</time>
      </trkpt>
      <trkpt lat="42.69881057739258" lon="-8.250429153442383">
        <ele>472.0</ele>
        <time>2019-05-04T05:57:32.000Z</time>
      </trkpt>
      <trkpt lat="42.698814392089844" lon="-8.250434875488281">
        <ele>473.0</ele>
        <time>2019-05-04T05:57:33.000Z</time>
      </trkpt>
      <trkpt lat="42.698814392089844" lon="-8.25044059753418">
        <ele>473.0</ele>
        <time>2019-05-04T05:57:33.000Z</time>
      </trkpt>
      <trkpt lat="42.698822021484375" lon="-8.250519752502441">
        <ele>472.0</ele>
        <time>2019-05-04T05:57:37.000Z</time>
      </trkpt>
      <trkpt lat="42.69883728027344" lon="-8.250629425048828">
        <ele>471.0</ele>
        <time>2019-05-04T05:57:42.000Z</time>
      </trkpt>
      <trkpt lat="42.6988525390625" lon="-8.250758171081543">
        <ele>470.0</ele>
        <time>2019-05-04T05:57:46.000Z</time>
      </trkpt>
      <trkpt lat="42.69886779785156" lon="-8.250898361206055">
        <ele>469.0</ele>
        <time>2019-05-04T05:57:51.000Z</time>
      </trkpt>
      <trkpt lat="42.698875427246094" lon="-8.250951766967773">
        <ele>468.0</ele>
        <time>2019-05-04T05:57:53.000Z</time>
      </trkpt>
      <trkpt lat="42.698883056640625" lon="-8.25097942352295">
        <ele>468.0</ele>
        <time>2019-05-04T05:57:54.000Z</time>
      </trkpt>
      <trkpt lat="42.698890686035156" lon="-8.250990867614746">
        <ele>468.0</ele>
        <time>2019-05-04T05:57:56.000Z</time>
      </trkpt>
      <trkpt lat="42.69889831542969" lon="-8.250993728637695">
        <ele>468.0</ele>
        <time>2019-05-04T05:57:58.000Z</time>
      </trkpt>
      <trkpt lat="42.69890213012695" lon="-8.251008987426758">
        <ele>468.0</ele>
        <time>2019-05-04T05:58:02.000Z</time>
      </trkpt>
      <trkpt lat="42.698909759521484" lon="-8.251019477844238">
        <ele>467.0</ele>
        <time>2019-05-04T05:58:06.000Z</time>
      </trkpt>
      <trkpt lat="42.69891357421875" lon="-8.251028060913086">
        <ele>466.0</ele>
        <time>2019-05-04T05:58:10.000Z</time>
      </trkpt>
      <trkpt lat="42.698917388916016" lon="-8.251035690307617">
        <ele>466.0</ele>
        <time>2019-05-04T05:58:14.000Z</time>
      </trkpt>
      <trkpt lat="42.69893264770508" lon="-8.251066207885742">
        <ele>466.0</ele>
        <time>2019-05-04T05:58:15.000Z</time>
      </trkpt>
      <trkpt lat="42.69905090332031" lon="-8.251233100891113">
        <ele>465.0</ele>
        <time>2019-05-04T05:58:19.000Z</time>
      </trkpt>
      <trkpt lat="42.699073791503906" lon="-8.251354217529297">
        <ele>464.0</ele>
        <time>2019-05-04T05:58:28.000Z</time>
      </trkpt>
      <trkpt lat="42.69908142089844" lon="-8.251492500305176">
        <ele>464.0</ele>
        <time>2019-05-04T05:58:37.000Z</time>
      </trkpt>
      <trkpt lat="42.6990852355957" lon="-8.251516342163086">
        <ele>463.0</ele>
        <time>2019-05-04T05:58:38.000Z</time>
      </trkpt>
      <trkpt lat="42.6990852355957" lon="-8.251523971557617">
        <ele>463.0</ele>
        <time>2019-05-04T05:58:38.000Z</time>
      </trkpt>
      <trkpt lat="42.6990852355957" lon="-8.251519203186035">
        <ele>463.0</ele>
        <time>2019-05-04T05:58:39.000Z</time>
      </trkpt>
      <trkpt lat="42.6990852355957" lon="-8.251508712768555">
        <ele>463.0</ele>
        <time>2019-05-04T05:58:40.000Z</time>
      </trkpt>
      <trkpt lat="42.69908905029297" lon="-8.2515230178833">
        <ele>463.0</ele>
        <time>2019-05-04T05:58:46.000Z</time>
      </trkpt>
      <trkpt lat="42.699092864990234" lon="-8.251542091369629">
        <ele>463.0</ele>
        <time>2019-05-04T05:58:51.000Z</time>
      </trkpt>
      <trkpt lat="42.6990966796875" lon="-8.251564979553223">
        <ele>463.0</ele>
        <time>2019-05-04T05:58:57.000Z</time>
      </trkpt>
      <trkpt lat="42.699100494384766" lon="-8.251588821411133">
        <ele>462.0</ele>
        <time>2019-05-04T05:59:03.000Z</time>
      </trkpt>
      <trkpt lat="42.699100494384766" lon="-8.251603126525879">
        <ele>462.0</ele>
        <time>2019-05-04T05:59:03.000Z</time>
      </trkpt>
      <trkpt lat="42.69910430908203" lon="-8.251614570617676">
        <ele>462.0</ele>
        <time>2019-05-04T05:59:03.000Z</time>
      </trkpt>
      <trkpt lat="42.69910430908203" lon="-8.251625061035156">
        <ele>462.0</ele>
        <time>2019-05-04T05:59:04.000Z</time>
      </trkpt>
      <trkpt lat="42.6991081237793" lon="-8.251635551452637">
        <ele>462.0</ele>
        <time>2019-05-04T05:59:04.000Z</time>
      </trkpt>
      <trkpt lat="42.69911575317383" lon="-8.251713752746582">
        <ele>462.0</ele>
        <time>2019-05-04T05:59:07.000Z</time>
      </trkpt>
      <trkpt lat="42.69913101196289" lon="-8.251819610595703">
        <ele>463.0</ele>
        <time>2019-05-04T05:59:11.000Z</time>
      </trkpt>
      <trkpt lat="42.69914627075195" lon="-8.251944541931152">
        <ele>463.0</ele>
        <time>2019-05-04T05:59:14.000Z</time>
      </trkpt>
      <trkpt lat="42.69916534423828" lon="-8.252079010009766">
        <ele>463.0</ele>
        <time>2019-05-04T05:59:18.000Z</time>
      </trkpt>
      <trkpt lat="42.69917678833008" lon="-8.252192497253418">
        <ele>464.0</ele>
        <time>2019-05-04T05:59:25.000Z</time>
      </trkpt>
      <trkpt lat="42.69919204711914" lon="-8.252306938171387">
        <ele>465.0</ele>
        <time>2019-05-04T05:59:32.000Z</time>
      </trkpt>
      <trkpt lat="42.6992073059082" lon="-8.252422332763672">
        <ele>466.0</ele>
        <time>2019-05-04T05:59:40.000Z</time>
      </trkpt>
      <trkpt lat="42.699222564697266" lon="-8.252537727355957">
        <ele>468.0</ele>
        <time>2019-05-04T05:59:47.000Z</time>
      </trkpt>
      <trkpt lat="42.69921112060547" lon="-8.252799987792969">
        <ele>471.0</ele>
        <time>2019-05-04T06:00:09.000Z</time>
      </trkpt>
      <trkpt lat="42.699214935302734" lon="-8.252893447875977">
        <ele>473.0</ele>
        <time>2019-05-04T06:00:50.000Z</time>
      </trkpt>
      <trkpt lat="42.699214935302734" lon="-8.252951622009277">
        <ele>473.0</ele>
        <time>2019-05-04T06:00:51.000Z</time>
      </trkpt>
      <trkpt lat="42.69921875" lon="-8.25311279296875">
        <ele>474.0</ele>
        <time>2019-05-04T06:00:56.000Z</time>
      </trkpt>
      <trkpt lat="42.69923400878906" lon="-8.253341674804688">
        <ele>472.0</ele>
        <time>2019-05-04T06:01:03.000Z</time>
      </trkpt>
      <trkpt lat="42.69923782348633" lon="-8.253377914428711">
        <ele>472.0</ele>
        <time>2019-05-04T06:01:04.000Z</time>
      </trkpt>
      <trkpt lat="42.69942855834961" lon="-8.253788948059082">
        <ele>466.0</ele>
        <time>2019-05-04T06:01:35.000Z</time>
      </trkpt>
      <trkpt lat="42.699703216552734" lon="-8.254084587097168">
        <ele>470.0</ele>
        <time>2019-05-04T06:02:07.000Z</time>
      </trkpt>
      <trkpt lat="42.699951171875" lon="-8.254430770874023">
        <ele>472.0</ele>
        <time>2019-05-04T06:02:39.000Z</time>
      </trkpt>
      <trkpt lat="42.700157165527344" lon="-8.254714965820312">
        <ele>471.0</ele>
        <time>2019-05-04T06:03:14.000Z</time>
      </trkpt>
      <trkpt lat="42.7001838684082" lon="-8.25478458404541">
        <ele>470.0</ele>
        <time>2019-05-04T06:03:40.000Z</time>
      </trkpt>
      <trkpt lat="42.70016860961914" lon="-8.254819869995117">
        <ele>469.0</ele>
        <time>2019-05-04T06:04:07.000Z</time>
      </trkpt>
      <trkpt lat="42.700172424316406" lon="-8.254840850830078">
        <ele>468.0</ele>
        <time>2019-05-04T06:04:07.000Z</time>
      </trkpt>
      <trkpt lat="42.700172424316406" lon="-8.25485897064209">
        <ele>468.0</ele>
        <time>2019-05-04T06:04:07.000Z</time>
      </trkpt>
      <trkpt lat="42.700172424316406" lon="-8.254875183105469">
        <ele>468.0</ele>
        <time>2019-05-04T06:04:08.000Z</time>
      </trkpt>
      <trkpt lat="42.70017623901367" lon="-8.254891395568848">
        <ele>469.0</ele>
        <time>2019-05-04T06:04:08.000Z</time>
      </trkpt>
      <trkpt lat="42.7001838684082" lon="-8.254956245422363">
        <ele>468.0</ele>
        <time>2019-05-04T06:04:09.000Z</time>
      </trkpt>
      <trkpt lat="42.700191497802734" lon="-8.255040168762207">
        <ele>468.0</ele>
        <time>2019-05-04T06:04:10.000Z</time>
      </trkpt>
      <trkpt lat="42.700199127197266" lon="-8.25513744354248">
        <ele>467.0</ele>
        <time>2019-05-04T06:04:12.000Z</time>
      </trkpt>
      <trkpt lat="42.70021057128906" lon="-8.255242347717285">
        <ele>467.0</ele>
        <time>2019-05-04T06:04:13.000Z</time>
      </trkpt>
      <trkpt lat="42.70023727416992" lon="-8.255282402038574">
        <ele>467.0</ele>
        <time>2019-05-04T06:04:17.000Z</time>
      </trkpt>
      <trkpt lat="42.70026779174805" lon="-8.255303382873535">
        <ele>466.0</ele>
        <time>2019-05-04T06:04:21.000Z</time>
      </trkpt>
      <trkpt lat="42.70030212402344" lon="-8.255311012268066">
        <ele>465.0</ele>
        <time>2019-05-04T06:04:26.000Z</time>
      </trkpt>
      <trkpt lat="42.70033645629883" lon="-8.255311965942383">
        <ele>465.0</ele>
        <time>2019-05-04T06:04:30.000Z</time>
      </trkpt>
      <trkpt lat="42.70039749145508" lon="-8.255364418029785">
        <ele>464.0</ele>
        <time>2019-05-04T06:04:38.000Z</time>
      </trkpt>
      <trkpt lat="42.700469970703125" lon="-8.255431175231934">
        <ele>464.0</ele>
        <time>2019-05-04T06:04:47.000Z</time>
      </trkpt>
      <trkpt lat="42.7005500793457" lon="-8.255507469177246">
        <ele>464.0</ele>
        <time>2019-05-04T06:04:55.000Z</time>
      </trkpt>
      <trkpt lat="42.70063400268555" lon="-8.255589485168457">
        <ele>463.0</ele>
        <time>2019-05-04T06:05:04.000Z</time>
      </trkpt>
      <trkpt lat="42.700706481933594" lon="-8.25565242767334">
        <ele>462.0</ele>
        <time>2019-05-04T06:05:12.000Z</time>
      </trkpt>
      <trkpt lat="42.700782775878906" lon="-8.25571346282959">
        <ele>461.0</ele>
        <time>2019-05-04T06:05:21.000Z</time>
      </trkpt>
      <trkpt lat="42.70085906982422" lon="-8.255773544311523">
        <ele>460.0</ele>
        <time>2019-05-04T06:05:29.000Z</time>
      </trkpt>
      <trkpt lat="42.70093536376953" lon="-8.255831718444824">
        <ele>458.0</ele>
        <time>2019-05-04T06:05:38.000Z</time>
      </trkpt>
      <trkpt lat="42.70098114013672" lon="-8.255865097045898">
        <ele>458.0</ele>
        <time>2019-05-04T06:05:40.000Z</time>
      </trkpt>
      <trkpt lat="42.70101547241211" lon="-8.255887985229492">
        <ele>457.0</ele>
        <time>2019-05-04T06:05:42.000Z</time>
      </trkpt>
      <trkpt lat="42.7010383605957" lon="-8.255902290344238">
        <ele>457.0</ele>
        <time>2019-05-04T06:05:45.000Z</time>
      </trkpt>
      <trkpt lat="42.70105743408203" lon="-8.255912780761719">
        <ele>458.0</ele>
        <time>2019-05-04T06:05:47.000Z</time>
      </trkpt>
      <trkpt lat="42.70108413696289" lon="-8.255969047546387">
        <ele>457.0</ele>
        <time>2019-05-04T06:05:54.000Z</time>
      </trkpt>
      <trkpt lat="42.70111083984375" lon="-8.256038665771484">
        <ele>456.0</ele>
        <time>2019-05-04T06:06:00.000Z</time>
      </trkpt>
      <trkpt lat="42.70113754272461" lon="-8.256118774414062">
        <ele>455.0</ele>
        <time>2019-05-04T06:06:07.000Z</time>
      </trkpt>
      <trkpt lat="42.7011604309082" lon="-8.256204605102539">
        <ele>453.0</ele>
        <time>2019-05-04T06:06:14.000Z</time>
      </trkpt>
      <trkpt lat="42.70118713378906" lon="-8.256278038024902">
        <ele>452.0</ele>
        <time>2019-05-04T06:06:20.000Z</time>
      </trkpt>
      <trkpt lat="42.701210021972656" lon="-8.256351470947266">
        <ele>451.0</ele>
        <time>2019-05-04T06:06:25.000Z</time>
      </trkpt>
      <trkpt lat="42.701236724853516" lon="-8.256424903869629">
        <ele>450.0</ele>
        <time>2019-05-04T06:06:31.000Z</time>
      </trkpt>
      <trkpt lat="42.701263427734375" lon="-8.256499290466309">
        <ele>450.0</ele>
        <time>2019-05-04T06:06:37.000Z</time>
      </trkpt>
      <trkpt lat="42.701271057128906" lon="-8.256545066833496">
        <ele>449.0</ele>
        <time>2019-05-04T06:06:41.000Z</time>
      </trkpt>
      <trkpt lat="42.70127487182617" lon="-8.256579399108887">
        <ele>448.0</ele>
        <time>2019-05-04T06:06:45.000Z</time>
      </trkpt>
      <trkpt lat="42.70127487182617" lon="-8.256606101989746">
        <ele>448.0</ele>
        <time>2019-05-04T06:06:49.000Z</time>
      </trkpt>
      <trkpt lat="42.701271057128906" lon="-8.256628036499023">
        <ele>448.0</ele>
        <time>2019-05-04T06:06:53.000Z</time>
      </trkpt>
      <trkpt lat="42.701271057128906" lon="-8.256647109985352">
        <ele>448.0</ele>
        <time>2019-05-04T06:06:53.000Z</time>
      </trkpt>
      <trkpt lat="42.70127487182617" lon="-8.256660461425781">
        <ele>448.0</ele>
        <time>2019-05-04T06:06:53.000Z</time>
      </trkpt>
      <trkpt lat="42.70127487182617" lon="-8.256669998168945">
        <ele>448.0</ele>
        <time>2019-05-04T06:06:54.000Z</time>
      </trkpt>
      <trkpt lat="42.70127487182617" lon="-8.256677627563477">
        <ele>448.0</ele>
        <time>2019-05-04T06:06:54.000Z</time>
      </trkpt>
      <trkpt lat="42.70127487182617" lon="-8.256714820861816">
        <ele>448.0</ele>
        <time>2019-05-04T06:06:56.000Z</time>
      </trkpt>
      <trkpt lat="42.70127868652344" lon="-8.25676155090332">
        <ele>447.0</ele>
        <time>2019-05-04T06:06:58.000Z</time>
      </trkpt>
      <trkpt lat="42.70127868652344" lon="-8.256815910339355">
        <ele>447.0</ele>
        <time>2019-05-04T06:07:00.000Z</time>
      </trkpt>
      <trkpt lat="42.70127868652344" lon="-8.256874084472656">
        <ele>447.0</ele>
        <time>2019-05-04T06:07:02.000Z</time>
      </trkpt>
      <trkpt lat="42.70127868652344" lon="-8.2568998336792">
        <ele>447.0</ele>
        <time>2019-05-04T06:07:07.000Z</time>
      </trkpt>
      <trkpt lat="42.70127868652344" lon="-8.256916046142578">
        <ele>447.0</ele>
        <time>2019-05-04T06:07:11.000Z</time>
      </trkpt>
      <trkpt lat="42.70127868652344" lon="-8.256926536560059">
        <ele>446.0</ele>
        <time>2019-05-04T06:07:16.000Z</time>
      </trkpt>
      <trkpt lat="42.70127487182617" lon="-8.256933212280273">
        <ele>446.0</ele>
        <time>2019-05-04T06:07:21.000Z</time>
      </trkpt>
      <trkpt lat="42.701271057128906" lon="-8.256972312927246">
        <ele>446.0</ele>
        <time>2019-05-04T06:07:22.000Z</time>
      </trkpt>
      <trkpt lat="42.701290130615234" lon="-8.257453918457031">
        <ele>444.0</ele>
        <time>2019-05-04T06:07:42.000Z</time>
      </trkpt>
      <trkpt lat="42.70138168334961" lon="-8.257925987243652">
        <ele>442.0</ele>
        <time>2019-05-04T06:08:13.000Z</time>
      </trkpt>
      <trkpt lat="42.70147705078125" lon="-8.258123397827148">
        <ele>439.0</ele>
        <time>2019-05-04T06:08:30.000Z</time>
      </trkpt>
      <trkpt lat="42.70159912109375" lon="-8.258301734924316">
        <ele>434.0</ele>
        <time>2019-05-04T06:08:47.000Z</time>
      </trkpt>
      <trkpt lat="42.70174026489258" lon="-8.258410453796387">
        <ele>434.0</ele>
        <time>2019-05-04T06:09:02.000Z</time>
      </trkpt>
      <trkpt lat="42.701900482177734" lon="-8.258481979370117">
        <ele>435.0</ele>
        <time>2019-05-04T06:09:18.000Z</time>
      </trkpt>
      <trkpt lat="42.701934814453125" lon="-8.258502960205078">
        <ele>435.0</ele>
        <time>2019-05-04T06:09:24.000Z</time>
      </trkpt>
      <trkpt lat="42.70195770263672" lon="-8.258514404296875">
        <ele>435.0</ele>
        <time>2019-05-04T06:09:30.000Z</time>
      </trkpt>
      <trkpt lat="42.70196533203125" lon="-8.25851821899414">
        <ele>436.0</ele>
        <time>2019-05-04T06:09:37.000Z</time>
      </trkpt>
      <trkpt lat="42.701969146728516" lon="-8.258520126342773">
        <ele>437.0</ele>
        <time>2019-05-04T06:09:43.000Z</time>
      </trkpt>
      <trkpt lat="42.70198059082031" lon="-8.258525848388672">
        <ele>437.0</ele>
        <time>2019-05-04T06:09:43.000Z</time>
      </trkpt>
      <trkpt lat="42.70199203491211" lon="-8.258530616760254">
        <ele>437.0</ele>
        <time>2019-05-04T06:09:43.000Z</time>
      </trkpt>
      <trkpt lat="42.70199966430664" lon="-8.25853443145752">
        <ele>437.0</ele>
        <time>2019-05-04T06:09:44.000Z</time>
      </trkpt>
      <trkpt lat="42.702003479003906" lon="-8.258538246154785">
        <ele>437.0</ele>
        <time>2019-05-04T06:09:44.000Z</time>
      </trkpt>
      <trkpt lat="42.702056884765625" lon="-8.258574485778809">
        <ele>438.0</ele>
        <time>2019-05-04T06:09:48.000Z</time>
      </trkpt>
      <trkpt lat="42.70212936401367" lon="-8.258624076843262">
        <ele>439.0</ele>
        <time>2019-05-04T06:09:52.000Z</time>
      </trkpt>
      <trkpt lat="42.70221710205078" lon="-8.258682250976562">
        <ele>441.0</ele>
        <time>2019-05-04T06:09:57.000Z</time>
      </trkpt>
      <trkpt lat="42.702308654785156" lon="-8.258745193481445">
        <ele>443.0</ele>
        <time>2019-05-04T06:10:01.000Z</time>
      </trkpt>
      <trkpt lat="42.70237731933594" lon="-8.25881576538086">
        <ele>444.0</ele>
        <time>2019-05-04T06:10:08.000Z</time>
      </trkpt>
      <trkpt lat="42.70244216918945" lon="-8.258893966674805">
        <ele>445.0</ele>
        <time>2019-05-04T06:10:16.000Z</time>
      </trkpt>
      <trkpt lat="42.7025032043457" lon="-8.258976936340332">
        <ele>445.0</ele>
        <time>2019-05-04T06:10:23.000Z</time>
      </trkpt>
      <trkpt lat="42.70256423950195" lon="-8.259063720703125">
        <ele>445.0</ele>
        <time>2019-05-04T06:10:31.000Z</time>
      </trkpt>
      <trkpt lat="42.70260238647461" lon="-8.259108543395996">
        <ele>445.0</ele>
        <time>2019-05-04T06:10:34.000Z</time>
      </trkpt>
      <trkpt lat="42.70263671875" lon="-8.259140014648438">
        <ele>445.0</ele>
        <time>2019-05-04T06:10:37.000Z</time>
      </trkpt>
      <trkpt lat="42.70266342163086" lon="-8.259161949157715">
        <ele>445.0</ele>
        <time>2019-05-04T06:10:41.000Z</time>
      </trkpt>
      <trkpt lat="42.70268630981445" lon="-8.25917911529541">
        <ele>446.0</ele>
        <time>2019-05-04T06:10:44.000Z</time>
      </trkpt>
      <trkpt lat="42.702720642089844" lon="-8.259190559387207">
        <ele>447.0</ele>
        <time>2019-05-04T06:10:55.000Z</time>
      </trkpt>
      <trkpt lat="42.70274353027344" lon="-8.259181022644043">
        <ele>450.0</ele>
        <time>2019-05-04T06:11:06.000Z</time>
      </trkpt>
      <trkpt lat="42.702754974365234" lon="-8.259181022644043">
        <ele>450.0</ele>
        <time>2019-05-04T06:11:06.000Z</time>
      </trkpt>
      <trkpt lat="42.702762603759766" lon="-8.259181022644043">
        <ele>450.0</ele>
        <time>2019-05-04T06:11:06.000Z</time>
      </trkpt>
      <trkpt lat="42.7027702331543" lon="-8.259181022644043">
        <ele>450.0</ele>
        <time>2019-05-04T06:11:07.000Z</time>
      </trkpt>
      <trkpt lat="42.70277786254883" lon="-8.259181022644043">
        <ele>450.0</ele>
        <time>2019-05-04T06:11:07.000Z</time>
      </trkpt>
      <trkpt lat="42.702823638916016" lon="-8.259183883666992">
        <ele>450.0</ele>
        <time>2019-05-04T06:11:09.000Z</time>
      </trkpt>
      <trkpt lat="42.702880859375" lon="-8.259188652038574">
        <ele>450.0</ele>
        <time>2019-05-04T06:11:10.000Z</time>
      </trkpt>
      <trkpt lat="42.70294952392578" lon="-8.25919246673584">
        <ele>450.0</ele>
        <time>2019-05-04T06:11:12.000Z</time>
      </trkpt>
      <trkpt lat="42.70301818847656" lon="-8.259198188781738">
        <ele>450.0</ele>
        <time>2019-05-04T06:11:14.000Z</time>
      </trkpt>
      <trkpt lat="42.70304489135742" lon="-8.259200096130371">
        <ele>450.0</ele>
        <time>2019-05-04T06:11:19.000Z</time>
      </trkpt>
      <trkpt lat="42.70305252075195" lon="-8.259201049804688">
        <ele>450.0</ele>
        <time>2019-05-04T06:11:23.000Z</time>
      </trkpt>
      <trkpt lat="42.70304870605469" lon="-8.259202003479004">
        <ele>449.0</ele>
        <time>2019-05-04T06:11:28.000Z</time>
      </trkpt>
      <trkpt lat="42.703041076660156" lon="-8.25920295715332">
        <ele>449.0</ele>
        <time>2019-05-04T06:11:33.000Z</time>
      </trkpt>
      <trkpt lat="42.70304489135742" lon="-8.259203910827637">
        <ele>449.0</ele>
        <time>2019-05-04T06:11:33.000Z</time>
      </trkpt>
      <trkpt lat="42.70305252075195" lon="-8.259204864501953">
        <ele>449.0</ele>
        <time>2019-05-04T06:11:33.000Z</time>
      </trkpt>
      <trkpt lat="42.70305633544922" lon="-8.25920581817627">
        <ele>449.0</ele>
        <time>2019-05-04T06:11:34.000Z</time>
      </trkpt>
      <trkpt lat="42.703060150146484" lon="-8.259206771850586">
        <ele>449.0</ele>
        <time>2019-05-04T06:11:34.000Z</time>
      </trkpt>
      <trkpt lat="42.7031135559082" lon="-8.259202003479004">
        <ele>449.0</ele>
        <time>2019-05-04T06:11:38.000Z</time>
      </trkpt>
      <trkpt lat="42.70318603515625" lon="-8.259194374084473">
        <ele>449.0</ele>
        <time>2019-05-04T06:11:41.000Z</time>
      </trkpt>
      <trkpt lat="42.70327377319336" lon="-8.259184837341309">
        <ele>450.0</ele>
        <time>2019-05-04T06:11:45.000Z</time>
      </trkpt>
      <trkpt lat="42.703369140625" lon="-8.259174346923828">
        <ele>450.0</ele>
        <time>2019-05-04T06:11:49.000Z</time>
      </trkpt>
      <trkpt lat="42.7033805847168" lon="-8.259174346923828">
        <ele>449.0</ele>
        <time>2019-05-04T06:11:59.000Z</time>
      </trkpt>
      <trkpt lat="42.703392028808594" lon="-8.259175300598145">
        <ele>449.0</ele>
        <time>2019-05-04T06:12:00.000Z</time>
      </trkpt>
      <trkpt lat="42.70359802246094" lon="-8.25919246673584">
        <ele>449.0</ele>
        <time>2019-05-04T06:12:06.000Z</time>
      </trkpt>
      <trkpt lat="42.70365905761719" lon="-8.259160041809082">
        <ele>450.0</ele>
        <time>2019-05-04T06:12:13.000Z</time>
      </trkpt>
      <trkpt lat="42.703704833984375" lon="-8.25910758972168">
        <ele>451.0</ele>
        <time>2019-05-04T06:12:20.000Z</time>
      </trkpt>
      <trkpt lat="42.70371627807617" lon="-8.2590970993042">
        <ele>451.0</ele>
        <time>2019-05-04T06:12:20.000Z</time>
      </trkpt>
      <trkpt lat="42.70372772216797" lon="-8.259089469909668">
        <ele>451.0</ele>
        <time>2019-05-04T06:12:20.000Z</time>
      </trkpt>
      <trkpt lat="42.703731536865234" lon="-8.259085655212402">
        <ele>451.0</ele>
        <time>2019-05-04T06:12:21.000Z</time>
      </trkpt>
      <trkpt lat="42.7037353515625" lon="-8.259082794189453">
        <ele>451.0</ele>
        <time>2019-05-04T06:12:21.000Z</time>
      </trkpt>
      <trkpt lat="42.703758239746094" lon="-8.259061813354492">
        <ele>451.0</ele>
        <time>2019-05-04T06:12:24.000Z</time>
      </trkpt>
      <trkpt lat="42.70378875732422" lon="-8.259035110473633">
        <ele>451.0</ele>
        <time>2019-05-04T06:12:26.000Z</time>
      </trkpt>
      <trkpt lat="42.70382308959961" lon="-8.259003639221191">
        <ele>452.0</ele>
        <time>2019-05-04T06:12:29.000Z</time>
      </trkpt>
      <trkpt lat="42.703861236572266" lon="-8.258970260620117">
        <ele>452.0</ele>
        <time>2019-05-04T06:12:32.000Z</time>
      </trkpt>
      <trkpt lat="42.703948974609375" lon="-8.25894832611084">
        <ele>452.0</ele>
        <time>2019-05-04T06:12:39.000Z</time>
      </trkpt>
      <trkpt lat="42.70404815673828" lon="-8.258941650390625">
        <ele>452.0</ele>
        <time>2019-05-04T06:12:46.000Z</time>
      </trkpt>
      <trkpt lat="42.7041015625" lon="-8.258926391601562">
        <ele>452.0</ele>
        <time>2019-05-04T06:12:50.000Z</time>
      </trkpt>
      <trkpt lat="42.704158782958984" lon="-8.258907318115234">
        <ele>452.0</ele>
        <time>2019-05-04T06:12:54.000Z</time>
      </trkpt>
      <trkpt lat="42.70421600341797" lon="-8.258886337280273">
        <ele>452.0</ele>
        <time>2019-05-04T06:12:59.000Z</time>
      </trkpt>
      <trkpt lat="42.70427703857422" lon="-8.25886344909668">
        <ele>452.0</ele>
        <time>2019-05-04T06:13:03.000Z</time>
      </trkpt>
      <trkpt lat="42.704307556152344" lon="-8.258880615234375">
        <ele>452.0</ele>
        <time>2019-05-04T06:13:08.000Z</time>
      </trkpt>
      <trkpt lat="42.70433044433594" lon="-8.258913040161133">
        <ele>452.0</ele>
        <time>2019-05-04T06:13:12.000Z</time>
      </trkpt>
      <trkpt lat="42.704349517822266" lon="-8.258955001831055">
        <ele>452.0</ele>
        <time>2019-05-04T06:13:17.000Z</time>
      </trkpt>
      <trkpt lat="42.70436096191406" lon="-8.259002685546875">
        <ele>452.0</ele>
        <time>2019-05-04T06:13:22.000Z</time>
      </trkpt>
      <trkpt lat="42.70436096191406" lon="-8.25903606414795">
        <ele>451.0</ele>
        <time>2019-05-04T06:13:25.000Z</time>
      </trkpt>
      <trkpt lat="42.70435333251953" lon="-8.259068489074707">
        <ele>451.0</ele>
        <time>2019-05-04T06:13:28.000Z</time>
      </trkpt>
      <trkpt lat="42.70433807373047" lon="-8.259100914001465">
        <ele>451.0</ele>
        <time>2019-05-04T06:13:31.000Z</time>
      </trkpt>
      <trkpt lat="42.704322814941406" lon="-8.259133338928223">
        <ele>451.0</ele>
        <time>2019-05-04T06:13:34.000Z</time>
      </trkpt>
      <trkpt lat="42.704315185546875" lon="-8.259150505065918">
        <ele>450.0</ele>
        <time>2019-05-04T06:13:34.000Z</time>
      </trkpt>
      <trkpt lat="42.70431137084961" lon="-8.259162902832031">
        <ele>450.0</ele>
        <time>2019-05-04T06:13:34.000Z</time>
      </trkpt>
      <trkpt lat="42.70431137084961" lon="-8.259170532226562">
        <ele>450.0</ele>
        <time>2019-05-04T06:13:35.000Z</time>
      </trkpt>
      <trkpt lat="42.704307556152344" lon="-8.259175300598145">
        <ele>451.0</ele>
        <time>2019-05-04T06:13:35.000Z</time>
      </trkpt>
      <trkpt lat="42.704307556152344" lon="-8.259260177612305">
        <ele>450.0</ele>
        <time>2019-05-04T06:13:41.000Z</time>
      </trkpt>
      <trkpt lat="42.70430374145508" lon="-8.25937557220459">
        <ele>450.0</ele>
        <time>2019-05-04T06:13:47.000Z</time>
      </trkpt>
      <trkpt lat="42.70429992675781" lon="-8.25951099395752">
        <ele>450.0</ele>
        <time>2019-05-04T06:13:54.000Z</time>
      </trkpt>
      <trkpt lat="42.70429992675781" lon="-8.25965690612793">
        <ele>450.0</ele>
        <time>2019-05-04T06:14:00.000Z</time>
      </trkpt>
      <trkpt lat="42.70429611206055" lon="-8.25971508026123">
        <ele>449.0</ele>
        <time>2019-05-04T06:14:02.000Z</time>
      </trkpt>
      <trkpt lat="42.70429611206055" lon="-8.259746551513672">
        <ele>449.0</ele>
        <time>2019-05-04T06:14:04.000Z</time>
      </trkpt>
      <trkpt lat="42.70429229736328" lon="-8.259760856628418">
        <ele>449.0</ele>
        <time>2019-05-04T06:14:07.000Z</time>
      </trkpt>
      <trkpt lat="42.70429229736328" lon="-8.259766578674316">
        <ele>449.0</ele>
        <time>2019-05-04T06:14:09.000Z</time>
      </trkpt>
      <trkpt lat="42.704280853271484" lon="-8.259785652160645">
        <ele>448.0</ele>
        <time>2019-05-04T06:14:13.000Z</time>
      </trkpt>
      <trkpt lat="42.70426940917969" lon="-8.259801864624023">
        <ele>448.0</ele>
        <time>2019-05-04T06:14:17.000Z</time>
      </trkpt>
      <trkpt lat="42.70425796508789" lon="-8.259815216064453">
        <ele>448.0</ele>
        <time>2019-05-04T06:14:22.000Z</time>
      </trkpt>
      <trkpt lat="42.70424270629883" lon="-8.259827613830566">
        <ele>447.0</ele>
        <time>2019-05-04T06:14:26.000Z</time>
      </trkpt>
      <trkpt lat="42.7042350769043" lon="-8.259838104248047">
        <ele>447.0</ele>
        <time>2019-05-04T06:14:26.000Z</time>
      </trkpt>
      <trkpt lat="42.704227447509766" lon="-8.259845733642578">
        <ele>447.0</ele>
        <time>2019-05-04T06:14:26.000Z</time>
      </trkpt>
      <trkpt lat="42.704219818115234" lon="-8.25985336303711">
        <ele>447.0</ele>
        <time>2019-05-04T06:14:27.000Z</time>
      </trkpt>
      <trkpt lat="42.70421600341797" lon="-8.259859085083008">
        <ele>447.0</ele>
        <time>2019-05-04T06:14:27.000Z</time>
      </trkpt>
      <trkpt lat="42.704193115234375" lon="-8.259903907775879">
        <ele>447.0</ele>
        <time>2019-05-04T06:14:30.000Z</time>
      </trkpt>
      <trkpt lat="42.704166412353516" lon="-8.259964942932129">
        <ele>447.0</ele>
        <time>2019-05-04T06:14:33.000Z</time>
      </trkpt>
      <trkpt lat="42.704132080078125" lon="-8.26003646850586">
        <ele>446.0</ele>
        <time>2019-05-04T06:14:36.000Z</time>
      </trkpt>
      <trkpt lat="42.70409393310547" lon="-8.260113716125488">
        <ele>446.0</ele>
        <time>2019-05-04T06:14:39.000Z</time>
      </trkpt>
      <trkpt lat="42.70408630371094" lon="-8.260208129882812">
        <ele>445.0</ele>
        <time>2019-05-04T06:14:47.000Z</time>
      </trkpt>
      <trkpt lat="42.7041015625" lon="-8.260289192199707">
        <ele>443.0</ele>
        <time>2019-05-04T06:14:55.000Z</time>
      </trkpt>
      <trkpt lat="42.7041015625" lon="-8.260310173034668">
        <ele>441.0</ele>
        <time>2019-05-04T06:15:02.000Z</time>
      </trkpt>
      <trkpt lat="42.7041015625" lon="-8.260321617126465">
        <ele>440.0</ele>
        <time>2019-05-04T06:15:08.000Z</time>
      </trkpt>
      <trkpt lat="42.704097747802734" lon="-8.260326385498047">
        <ele>438.0</ele>
        <time>2019-05-04T06:15:15.000Z</time>
      </trkpt>
      <trkpt lat="42.70409393310547" lon="-8.260329246520996">
        <ele>437.0</ele>
        <time>2019-05-04T06:15:22.000Z</time>
      </trkpt>
      <trkpt lat="42.7040901184082" lon="-8.260336875915527">
        <ele>436.0</ele>
        <time>2019-05-04T06:15:22.000Z</time>
      </trkpt>
      <trkpt lat="42.7040901184082" lon="-8.260345458984375">
        <ele>436.0</ele>
        <time>2019-05-04T06:15:22.000Z</time>
      </trkpt>
      <trkpt lat="42.7040901184082" lon="-8.26035213470459">
        <ele>436.0</ele>
        <time>2019-05-04T06:15:23.000Z</time>
      </trkpt>
      <trkpt lat="42.70408630371094" lon="-8.260359764099121">
        <ele>437.0</ele>
        <time>2019-05-04T06:15:23.000Z</time>
      </trkpt>
      <trkpt lat="42.70406723022461" lon="-8.26043701171875">
        <ele>436.0</ele>
        <time>2019-05-04T06:15:27.000Z</time>
      </trkpt>
      <trkpt lat="42.704036712646484" lon="-8.260542869567871">
        <ele>435.0</ele>
        <time>2019-05-04T06:15:31.000Z</time>
      </trkpt>
      <trkpt lat="42.70399856567383" lon="-8.26066780090332">
        <ele>435.0</ele>
        <time>2019-05-04T06:15:36.000Z</time>
      </trkpt>
      <trkpt lat="42.70396041870117" lon="-8.26080322265625">
        <ele>434.0</ele>
        <time>2019-05-04T06:15:40.000Z</time>
      </trkpt>
      <trkpt lat="42.70394515991211" lon="-8.260894775390625">
        <ele>433.0</ele>
        <time>2019-05-04T06:15:46.000Z</time>
      </trkpt>
      <trkpt lat="42.70393371582031" lon="-8.260977745056152">
        <ele>433.0</ele>
        <time>2019-05-04T06:15:51.000Z</time>
      </trkpt>
      <trkpt lat="42.70392608642578" lon="-8.261054992675781">
        <ele>433.0</ele>
        <time>2019-05-04T06:15:57.000Z</time>
      </trkpt>
      <trkpt lat="42.703922271728516" lon="-8.261130332946777">
        <ele>432.0</ele>
        <time>2019-05-04T06:16:03.000Z</time>
      </trkpt>
      <trkpt lat="42.70391845703125" lon="-8.2611722946167">
        <ele>431.0</ele>
        <time>2019-05-04T06:16:12.000Z</time>
      </trkpt>
      <trkpt lat="42.703914642333984" lon="-8.261198997497559">
        <ele>430.0</ele>
        <time>2019-05-04T06:16:21.000Z</time>
      </trkpt>
      <trkpt lat="42.703914642333984" lon="-8.261214256286621">
        <ele>429.0</ele>
        <time>2019-05-04T06:16:31.000Z</time>
      </trkpt>
      <trkpt lat="42.70391845703125" lon="-8.261223793029785">
        <ele>428.0</ele>
        <time>2019-05-04T06:16:40.000Z</time>
      </trkpt>
      <trkpt lat="42.703914642333984" lon="-8.261283874511719">
        <ele>428.0</ele>
        <time>2019-05-04T06:16:41.000Z</time>
      </trkpt>
      <trkpt lat="42.7038459777832" lon="-8.26173210144043">
        <ele>427.0</ele>
        <time>2019-05-04T06:16:54.000Z</time>
      </trkpt>
      <trkpt lat="42.70380401611328" lon="-8.262188911437988">
        <ele>424.0</ele>
        <time>2019-05-04T06:17:25.000Z</time>
      </trkpt>
      <trkpt lat="42.703853607177734" lon="-8.262663841247559">
        <ele>418.0</ele>
        <time>2019-05-04T06:17:56.000Z</time>
      </trkpt>
      <trkpt lat="42.70391082763672" lon="-8.263127326965332">
        <ele>413.0</ele>
        <time>2019-05-04T06:18:26.000Z</time>
      </trkpt>
      <trkpt lat="42.703941345214844" lon="-8.26361083984375">
        <ele>406.0</ele>
        <time>2019-05-04T06:18:56.000Z</time>
      </trkpt>
      <trkpt lat="42.70392608642578" lon="-8.264095306396484">
        <ele>399.0</ele>
        <time>2019-05-04T06:19:27.000Z</time>
      </trkpt>
      <trkpt lat="42.703861236572266" lon="-8.264564514160156">
        <ele>400.0</ele>
        <time>2019-05-04T06:19:54.000Z</time>
      </trkpt>
      <trkpt lat="42.70380783081055" lon="-8.265048027038574">
        <ele>407.0</ele>
        <time>2019-05-04T06:20:22.000Z</time>
      </trkpt>
      <trkpt lat="42.70380401611328" lon="-8.265547752380371">
        <ele>412.0</ele>
        <time>2019-05-04T06:20:50.000Z</time>
      </trkpt>
      <trkpt lat="42.70388412475586" lon="-8.266010284423828">
        <ele>414.0</ele>
        <time>2019-05-04T06:21:20.000Z</time>
      </trkpt>
      <trkpt lat="42.70396423339844" lon="-8.266487121582031">
        <ele>414.0</ele>
        <time>2019-05-04T06:21:43.000Z</time>
      </trkpt>
      <trkpt lat="42.70402526855469" lon="-8.266974449157715">
        <ele>409.0</ele>
        <time>2019-05-04T06:22:12.000Z</time>
      </trkpt>
      <trkpt lat="42.704139709472656" lon="-8.267448425292969">
        <ele>412.0</ele>
        <time>2019-05-04T06:22:41.000Z</time>
      </trkpt>
      <trkpt lat="42.70426940917969" lon="-8.267913818359375">
        <ele>413.0</ele>
        <time>2019-05-04T06:23:10.000Z</time>
      </trkpt>
      <trkpt lat="42.70444869995117" lon="-8.26833438873291">
        <ele>411.0</ele>
        <time>2019-05-04T06:23:40.000Z</time>
      </trkpt>
      <trkpt lat="42.70460891723633" lon="-8.268768310546875">
        <ele>414.0</ele>
        <time>2019-05-04T06:24:08.000Z</time>
      </trkpt>
      <trkpt lat="42.70481491088867" lon="-8.269158363342285">
        <ele>415.0</ele>
        <time>2019-05-04T06:24:46.000Z</time>
      </trkpt>
      <trkpt lat="42.704830169677734" lon="-8.269169807434082">
        <ele>415.0</ele>
        <time>2019-05-04T06:24:50.000Z</time>
      </trkpt>
      <trkpt lat="42.70485305786133" lon="-8.269183158874512">
        <ele>414.0</ele>
        <time>2019-05-04T06:25:08.000Z</time>
      </trkpt>
      <trkpt lat="42.704872131347656" lon="-8.269194602966309">
        <ele>414.0</ele>
        <time>2019-05-04T06:25:09.000Z</time>
      </trkpt>
      <trkpt lat="42.70509338378906" lon="-8.269319534301758">
        <ele>414.0</ele>
        <time>2019-05-04T06:25:14.000Z</time>
      </trkpt>
      <trkpt lat="42.70511245727539" lon="-8.269342422485352">
        <ele>413.0</ele>
        <time>2019-05-04T06:25:28.000Z</time>
      </trkpt>
      <trkpt lat="42.70512771606445" lon="-8.269360542297363">
        <ele>413.0</ele>
        <time>2019-05-04T06:25:29.000Z</time>
      </trkpt>
      <trkpt lat="42.7051887512207" lon="-8.269428253173828">
        <ele>413.0</ele>
        <time>2019-05-04T06:25:31.000Z</time>
      </trkpt>
      <trkpt lat="42.70537567138672" lon="-8.269609451293945">
        <ele>414.0</ele>
        <time>2019-05-04T06:25:38.000Z</time>
      </trkpt>
      <trkpt lat="42.70543670654297" lon="-8.269658088684082">
        <ele>415.0</ele>
        <time>2019-05-04T06:25:43.000Z</time>
      </trkpt>
      <trkpt lat="42.70556640625" lon="-8.269829750061035">
        <ele>417.0</ele>
        <time>2019-05-04T06:26:18.000Z</time>
      </trkpt>
      <trkpt lat="42.70560073852539" lon="-8.269875526428223">
        <ele>417.0</ele>
        <time>2019-05-04T06:26:19.000Z</time>
      </trkpt>
      <trkpt lat="42.70566177368164" lon="-8.269956588745117">
        <ele>416.0</ele>
        <time>2019-05-04T06:26:21.000Z</time>
      </trkpt>
      <trkpt lat="42.70566177368164" lon="-8.269991874694824">
        <ele>416.0</ele>
        <time>2019-05-04T06:26:23.000Z</time>
      </trkpt>
      <trkpt lat="42.70565414428711" lon="-8.270034790039062">
        <ele>416.0</ele>
        <time>2019-05-04T06:26:25.000Z</time>
      </trkpt>
      <trkpt lat="42.70564270019531" lon="-8.270081520080566">
        <ele>416.0</ele>
        <time>2019-05-04T06:26:27.000Z</time>
      </trkpt>
      <trkpt lat="42.70562744140625" lon="-8.270130157470703">
        <ele>416.0</ele>
        <time>2019-05-04T06:26:29.000Z</time>
      </trkpt>
      <trkpt lat="42.70563507080078" lon="-8.270164489746094">
        <ele>415.0</ele>
        <time>2019-05-04T06:26:32.000Z</time>
      </trkpt>
      <trkpt lat="42.70564651489258" lon="-8.270195007324219">
        <ele>415.0</ele>
        <time>2019-05-04T06:26:35.000Z</time>
      </trkpt>
      <trkpt lat="42.705665588378906" lon="-8.270223617553711">
        <ele>415.0</ele>
        <time>2019-05-04T06:26:39.000Z</time>
      </trkpt>
      <trkpt lat="42.705684661865234" lon="-8.27025032043457">
        <ele>415.0</ele>
        <time>2019-05-04T06:26:42.000Z</time>
      </trkpt>
      <trkpt lat="42.70569610595703" lon="-8.27027416229248">
        <ele>413.0</ele>
        <time>2019-05-04T06:26:49.000Z</time>
      </trkpt>
      <trkpt lat="42.70570755004883" lon="-8.270295143127441">
        <ele>412.0</ele>
        <time>2019-05-04T06:26:55.000Z</time>
      </trkpt>
      <trkpt lat="42.70571517944336" lon="-8.270315170288086">
        <ele>410.0</ele>
        <time>2019-05-04T06:27:02.000Z</time>
      </trkpt>
      <trkpt lat="42.705726623535156" lon="-8.270333290100098">
        <ele>409.0</ele>
        <time>2019-05-04T06:27:09.000Z</time>
      </trkpt>
      <trkpt lat="42.70573425292969" lon="-8.27034854888916">
        <ele>408.0</ele>
        <time>2019-05-04T06:27:09.000Z</time>
      </trkpt>
      <trkpt lat="42.70574188232422" lon="-8.27036190032959">
        <ele>408.0</ele>
        <time>2019-05-04T06:27:09.000Z</time>
      </trkpt>
      <trkpt lat="42.705745697021484" lon="-8.270373344421387">
        <ele>408.0</ele>
        <time>2019-05-04T06:27:10.000Z</time>
      </trkpt>
      <trkpt lat="42.70574951171875" lon="-8.270383834838867">
        <ele>409.0</ele>
        <time>2019-05-04T06:27:10.000Z</time>
      </trkpt>
      <trkpt lat="42.70575714111328" lon="-8.270393371582031">
        <ele>409.0</ele>
        <time>2019-05-04T06:27:10.000Z</time>
      </trkpt>
      <trkpt lat="42.70576095581055" lon="-8.270401000976562">
        <ele>409.0</ele>
        <time>2019-05-04T06:27:10.000Z</time>
      </trkpt>
      <trkpt lat="42.70576095581055" lon="-8.270407676696777">
        <ele>409.0</ele>
        <time>2019-05-04T06:27:11.000Z</time>
      </trkpt>
      <trkpt lat="42.70576477050781" lon="-8.270414352416992">
        <ele>409.0</ele>
        <time>2019-05-04T06:27:11.000Z</time>
      </trkpt>
      <trkpt lat="42.70576858520508" lon="-8.270426750183105">
        <ele>409.0</ele>
        <time>2019-05-04T06:27:12.000Z</time>
      </trkpt>
      <trkpt lat="42.705772399902344" lon="-8.270440101623535">
        <ele>409.0</ele>
        <time>2019-05-04T06:27:13.000Z</time>
      </trkpt>
      <trkpt lat="42.705780029296875" lon="-8.270455360412598">
        <ele>409.0</ele>
        <time>2019-05-04T06:27:15.000Z</time>
      </trkpt>
      <trkpt lat="42.70578384399414" lon="-8.270471572875977">
        <ele>409.0</ele>
        <time>2019-05-04T06:27:16.000Z</time>
      </trkpt>
      <trkpt lat="42.705787658691406" lon="-8.270482063293457">
        <ele>409.0</ele>
        <time>2019-05-04T06:27:16.000Z</time>
      </trkpt>
      <trkpt lat="42.705787658691406" lon="-8.270491600036621">
        <ele>409.0</ele>
        <time>2019-05-04T06:27:16.000Z</time>
      </trkpt>
      <trkpt lat="42.70579147338867" lon="-8.270500183105469">
        <ele>409.0</ele>
        <time>2019-05-04T06:27:17.000Z</time>
      </trkpt>
      <trkpt lat="42.70579528808594" lon="-8.2705078125">
        <ele>409.0</ele>
        <time>2019-05-04T06:27:17.000Z</time>
      </trkpt>
      <trkpt lat="42.705833435058594" lon="-8.270637512207031">
        <ele>410.0</ele>
        <time>2019-05-04T06:27:22.000Z</time>
      </trkpt>
      <trkpt lat="42.70583724975586" lon="-8.270651817321777">
        <ele>410.0</ele>
        <time>2019-05-04T06:27:31.000Z</time>
      </trkpt>
      <trkpt lat="42.70584487915039" lon="-8.27066421508789">
        <ele>410.0</ele>
        <time>2019-05-04T06:27:32.000Z</time>
      </trkpt>
      <trkpt lat="42.705848693847656" lon="-8.270674705505371">
        <ele>410.0</ele>
        <time>2019-05-04T06:27:33.000Z</time>
      </trkpt>
      <trkpt lat="42.70588684082031" lon="-8.270771980285645">
        <ele>409.0</ele>
        <time>2019-05-04T06:27:35.000Z</time>
      </trkpt>
      <trkpt lat="42.705902099609375" lon="-8.270816802978516">
        <ele>409.0</ele>
        <time>2019-05-04T06:27:36.000Z</time>
      </trkpt>
      <trkpt lat="42.706016540527344" lon="-8.271072387695312">
        <ele>406.0</ele>
        <time>2019-05-04T06:27:43.000Z</time>
      </trkpt>
      <trkpt lat="42.70602798461914" lon="-8.271265983581543">
        <ele>402.0</ele>
        <time>2019-05-04T06:27:58.000Z</time>
      </trkpt>
      <trkpt lat="42.706024169921875" lon="-8.271490097045898">
        <ele>397.0</ele>
        <time>2019-05-04T06:28:14.000Z</time>
      </trkpt>
      <trkpt lat="42.70602035522461" lon="-8.271536827087402">
        <ele>396.0</ele>
        <time>2019-05-04T06:28:19.000Z</time>
      </trkpt>
      <trkpt lat="42.706016540527344" lon="-8.271560668945312">
        <ele>395.0</ele>
        <time>2019-05-04T06:28:23.000Z</time>
      </trkpt>
      <trkpt lat="42.70600891113281" lon="-8.271567344665527">
        <ele>394.0</ele>
        <time>2019-05-04T06:28:28.000Z</time>
      </trkpt>
      <trkpt lat="42.70600509643555" lon="-8.271566390991211">
        <ele>394.0</ele>
        <time>2019-05-04T06:28:33.000Z</time>
      </trkpt>
      <trkpt lat="42.70600128173828" lon="-8.27157974243164">
        <ele>394.0</ele>
        <time>2019-05-04T06:28:33.000Z</time>
      </trkpt>
      <trkpt lat="42.705997467041016" lon="-8.271591186523438">
        <ele>394.0</ele>
        <time>2019-05-04T06:28:33.000Z</time>
      </trkpt>
      <trkpt lat="42.70599365234375" lon="-8.271600723266602">
        <ele>394.0</ele>
        <time>2019-05-04T06:28:34.000Z</time>
      </trkpt>
      <trkpt lat="42.70599365234375" lon="-8.27160930633545">
        <ele>394.0</ele>
        <time>2019-05-04T06:28:34.000Z</time>
      </trkpt>
      <trkpt lat="42.70598602294922" lon="-8.271688461303711">
        <ele>394.0</ele>
        <time>2019-05-04T06:28:39.000Z</time>
      </trkpt>
      <trkpt lat="42.70597457885742" lon="-8.271796226501465">
        <ele>394.0</ele>
        <time>2019-05-04T06:28:43.000Z</time>
      </trkpt>
      <trkpt lat="42.705963134765625" lon="-8.271923065185547">
        <ele>393.0</ele>
        <time>2019-05-04T06:28:48.000Z</time>
      </trkpt>
      <trkpt lat="42.70595169067383" lon="-8.272059440612793">
        <ele>393.0</ele>
        <time>2019-05-04T06:28:53.000Z</time>
      </trkpt>
      <trkpt lat="42.70594787597656" lon="-8.272101402282715">
        <ele>393.0</ele>
        <time>2019-05-04T06:28:54.000Z</time>
      </trkpt>
      <trkpt lat="42.70595169067383" lon="-8.272112846374512">
        <ele>393.0</ele>
        <time>2019-05-04T06:28:54.000Z</time>
      </trkpt>
      <trkpt lat="42.705955505371094" lon="-8.272104263305664">
        <ele>393.0</ele>
        <time>2019-05-04T06:28:55.000Z</time>
      </trkpt>
      <trkpt lat="42.705963134765625" lon="-8.272086143493652">
        <ele>393.0</ele>
        <time>2019-05-04T06:28:56.000Z</time>
      </trkpt>
      <trkpt lat="42.70596694946289" lon="-8.272102355957031">
        <ele>393.0</ele>
        <time>2019-05-04T06:29:00.000Z</time>
      </trkpt>
      <trkpt lat="42.70597457885742" lon="-8.272123336791992">
        <ele>393.0</ele>
        <time>2019-05-04T06:29:04.000Z</time>
      </trkpt>
      <trkpt lat="42.70598602294922" lon="-8.272146224975586">
        <ele>393.0</ele>
        <time>2019-05-04T06:29:08.000Z</time>
      </trkpt>
      <trkpt lat="42.70599365234375" lon="-8.272171020507812">
        <ele>393.0</ele>
        <time>2019-05-04T06:29:12.000Z</time>
      </trkpt>
      <trkpt lat="42.70600891113281" lon="-8.272214889526367">
        <ele>393.0</ele>
        <time>2019-05-04T06:29:13.000Z</time>
      </trkpt>
      <trkpt lat="42.70614242553711" lon="-8.272640228271484">
        <ele>392.0</ele>
        <time>2019-05-04T06:29:32.000Z</time>
      </trkpt>
      <trkpt lat="42.70631408691406" lon="-8.273056030273438">
        <ele>388.0</ele>
        <time>2019-05-04T06:29:55.000Z</time>
      </trkpt>
      <trkpt lat="42.70656204223633" lon="-8.273427963256836">
        <ele>390.0</ele>
        <time>2019-05-04T06:30:19.000Z</time>
      </trkpt>
      <trkpt lat="42.706790924072266" lon="-8.27380657196045">
        <ele>393.0</ele>
        <time>2019-05-04T06:30:48.000Z</time>
      </trkpt>
      <trkpt lat="42.707054138183594" lon="-8.27413272857666">
        <ele>395.0</ele>
        <time>2019-05-04T06:31:15.000Z</time>
      </trkpt>
      <trkpt lat="42.70729446411133" lon="-8.274486541748047">
        <ele>395.0</ele>
        <time>2019-05-04T06:31:45.000Z</time>
      </trkpt>
      <trkpt lat="42.7073974609375" lon="-8.274616241455078">
        <ele>394.0</ele>
        <time>2019-05-04T06:31:57.000Z</time>
      </trkpt>
      <trkpt lat="42.70744705200195" lon="-8.27462387084961">
        <ele>394.0</ele>
        <time>2019-05-04T06:32:03.000Z</time>
      </trkpt>
      <trkpt lat="42.70750427246094" lon="-8.274622917175293">
        <ele>393.0</ele>
        <time>2019-05-04T06:32:09.000Z</time>
      </trkpt>
      <trkpt lat="42.70757293701172" lon="-8.274614334106445">
        <ele>392.0</ele>
        <time>2019-05-04T06:32:15.000Z</time>
      </trkpt>
      <trkpt lat="42.7076416015625" lon="-8.274601936340332">
        <ele>391.0</ele>
        <time>2019-05-04T06:32:21.000Z</time>
      </trkpt>
      <trkpt lat="42.70772171020508" lon="-8.274599075317383">
        <ele>391.0</ele>
        <time>2019-05-04T06:32:28.000Z</time>
      </trkpt>
      <trkpt lat="42.70780563354492" lon="-8.274595260620117">
        <ele>390.0</ele>
        <time>2019-05-04T06:32:35.000Z</time>
      </trkpt>
      <trkpt lat="42.7078971862793" lon="-8.274591445922852">
        <ele>389.0</ele>
        <time>2019-05-04T06:32:43.000Z</time>
      </trkpt>
      <trkpt lat="42.70799255371094" lon="-8.274588584899902">
        <ele>389.0</ele>
        <time>2019-05-04T06:32:50.000Z</time>
      </trkpt>
      <trkpt lat="42.70815658569336" lon="-8.274664878845215">
        <ele>388.0</ele>
        <time>2019-05-04T06:33:04.000Z</time>
      </trkpt>
      <trkpt lat="42.70832061767578" lon="-8.274779319763184">
        <ele>386.0</ele>
        <time>2019-05-04T06:33:19.000Z</time>
      </trkpt>
      <trkpt lat="42.708370208740234" lon="-8.274821281433105">
        <ele>386.0</ele>
        <time>2019-05-04T06:33:22.000Z</time>
      </trkpt>
      <trkpt lat="42.70840835571289" lon="-8.274861335754395">
        <ele>386.0</ele>
        <time>2019-05-04T06:33:26.000Z</time>
      </trkpt>
      <trkpt lat="42.708438873291016" lon="-8.274898529052734">
        <ele>387.0</ele>
        <time>2019-05-04T06:33:29.000Z</time>
      </trkpt>
      <trkpt lat="42.708465576171875" lon="-8.274935722351074">
        <ele>387.0</ele>
        <time>2019-05-04T06:33:33.000Z</time>
      </trkpt>
      <trkpt lat="42.7085075378418" lon="-8.275036811828613">
        <ele>387.0</ele>
        <time>2019-05-04T06:33:40.000Z</time>
      </trkpt>
      <trkpt lat="42.70853042602539" lon="-8.275148391723633">
        <ele>388.0</ele>
        <time>2019-05-04T06:33:47.000Z</time>
      </trkpt>
      <trkpt lat="42.70853805541992" lon="-8.275168418884277">
        <ele>388.0</ele>
        <time>2019-05-04T06:33:49.000Z</time>
      </trkpt>
      <trkpt lat="42.70854187011719" lon="-8.275174140930176">
        <ele>388.0</ele>
        <time>2019-05-04T06:33:51.000Z</time>
      </trkpt>
      <trkpt lat="42.70854187011719" lon="-8.27517032623291">
        <ele>388.0</ele>
        <time>2019-05-04T06:33:53.000Z</time>
      </trkpt>
      <trkpt lat="42.70854187011719" lon="-8.275161743164062">
        <ele>388.0</ele>
        <time>2019-05-04T06:33:55.000Z</time>
      </trkpt>
      <trkpt lat="42.70854949951172" lon="-8.27517032623291">
        <ele>388.0</ele>
        <time>2019-05-04T06:34:01.000Z</time>
      </trkpt>
      <trkpt lat="42.708553314208984" lon="-8.275181770324707">
        <ele>390.0</ele>
        <time>2019-05-04T06:34:07.000Z</time>
      </trkpt>
      <trkpt lat="42.708560943603516" lon="-8.275195121765137">
        <ele>391.0</ele>
        <time>2019-05-04T06:34:14.000Z</time>
      </trkpt>
      <trkpt lat="42.70856857299805" lon="-8.275208473205566">
        <ele>393.0</ele>
        <time>2019-05-04T06:34:20.000Z</time>
      </trkpt>
      <trkpt lat="42.70857238769531" lon="-8.275217056274414">
        <ele>393.0</ele>
        <time>2019-05-04T06:34:20.000Z</time>
      </trkpt>
      <trkpt lat="42.70857620239258" lon="-8.275224685668945">
        <ele>393.0</ele>
        <time>2019-05-04T06:34:20.000Z</time>
      </trkpt>
      <trkpt lat="42.708580017089844" lon="-8.275232315063477">
        <ele>393.0</ele>
        <time>2019-05-04T06:34:21.000Z</time>
      </trkpt>
      <trkpt lat="42.70858383178711" lon="-8.275238990783691">
        <ele>393.0</ele>
        <time>2019-05-04T06:34:21.000Z</time>
      </trkpt>
      <trkpt lat="42.7086067199707" lon="-8.275273323059082">
        <ele>393.0</ele>
        <time>2019-05-04T06:34:23.000Z</time>
      </trkpt>
      <trkpt lat="42.708641052246094" lon="-8.275318145751953">
        <ele>393.0</ele>
        <time>2019-05-04T06:34:24.000Z</time>
      </trkpt>
      <trkpt lat="42.708675384521484" lon="-8.275369644165039">
        <ele>393.0</ele>
        <time>2019-05-04T06:34:26.000Z</time>
      </trkpt>
      <trkpt lat="42.708717346191406" lon="-8.275425910949707">
        <ele>393.0</ele>
        <time>2019-05-04T06:34:28.000Z</time>
      </trkpt>
      <trkpt lat="42.7087516784668" lon="-8.275456428527832">
        <ele>392.0</ele>
        <time>2019-05-04T06:34:33.000Z</time>
      </trkpt>
      <trkpt lat="42.70878219604492" lon="-8.275480270385742">
        <ele>392.0</ele>
        <time>2019-05-04T06:34:37.000Z</time>
      </trkpt>
      <trkpt lat="42.70881652832031" lon="-8.27549934387207">
        <ele>391.0</ele>
        <time>2019-05-04T06:34:42.000Z</time>
      </trkpt>
      <trkpt lat="42.7088508605957" lon="-8.27551555633545">
        <ele>390.0</ele>
        <time>2019-05-04T06:34:47.000Z</time>
      </trkpt>
      <trkpt lat="42.70887756347656" lon="-8.275532722473145">
        <ele>386.0</ele>
        <time>2019-05-04T06:35:04.000Z</time>
      </trkpt>
      <trkpt lat="42.708900451660156" lon="-8.275546073913574">
        <ele>386.0</ele>
        <time>2019-05-04T06:35:05.000Z</time>
      </trkpt>
      <trkpt lat="42.70901107788086" lon="-8.275611877441406">
        <ele>384.0</ele>
        <time>2019-05-04T06:35:10.000Z</time>
      </trkpt>
      <trkpt lat="42.70904541015625" lon="-8.275632858276367">
        <ele>381.0</ele>
        <time>2019-05-04T06:35:22.000Z</time>
      </trkpt>
      <trkpt lat="42.709068298339844" lon="-8.27564811706543">
        <ele>381.0</ele>
        <time>2019-05-04T06:35:23.000Z</time>
      </trkpt>
      <trkpt lat="42.70913314819336" lon="-8.275623321533203">
        <ele>380.0</ele>
        <time>2019-05-04T06:35:26.000Z</time>
      </trkpt>
      <trkpt lat="42.709224700927734" lon="-8.275585174560547">
        <ele>380.0</ele>
        <time>2019-05-04T06:35:30.000Z</time>
      </trkpt>
      <trkpt lat="42.709228515625" lon="-8.275596618652344">
        <ele>379.0</ele>
        <time>2019-05-04T06:35:32.000Z</time>
      </trkpt>
      <trkpt lat="42.7092170715332" lon="-8.275619506835938">
        <ele>379.0</ele>
        <time>2019-05-04T06:35:33.000Z</time>
      </trkpt>
      <trkpt lat="42.709197998046875" lon="-8.275650024414062">
        <ele>379.0</ele>
        <time>2019-05-04T06:35:35.000Z</time>
      </trkpt>
      <trkpt lat="42.709171295166016" lon="-8.275684356689453">
        <ele>378.0</ele>
        <time>2019-05-04T06:35:37.000Z</time>
      </trkpt>
      <trkpt lat="42.70919418334961" lon="-8.275721549987793">
        <ele>378.0</ele>
        <time>2019-05-04T06:35:42.000Z</time>
      </trkpt>
      <trkpt lat="42.709232330322266" lon="-8.275762557983398">
        <ele>378.0</ele>
        <time>2019-05-04T06:35:47.000Z</time>
      </trkpt>
      <trkpt lat="42.70928192138672" lon="-8.275806427001953">
        <ele>377.0</ele>
        <time>2019-05-04T06:35:52.000Z</time>
      </trkpt>
      <trkpt lat="42.70933151245117" lon="-8.275853157043457">
        <ele>377.0</ele>
        <time>2019-05-04T06:35:57.000Z</time>
      </trkpt>
      <trkpt lat="42.7093505859375" lon="-8.275869369506836">
        <ele>376.0</ele>
        <time>2019-05-04T06:36:00.000Z</time>
      </trkpt>
      <trkpt lat="42.70935821533203" lon="-8.27587604522705">
        <ele>375.0</ele>
        <time>2019-05-04T06:36:04.000Z</time>
      </trkpt>
      <trkpt lat="42.70935821533203" lon="-8.275875091552734">
        <ele>375.0</ele>
        <time>2019-05-04T06:36:07.000Z</time>
      </trkpt>
      <trkpt lat="42.70935821533203" lon="-8.275871276855469">
        <ele>374.0</ele>
        <time>2019-05-04T06:36:11.000Z</time>
      </trkpt>
      <trkpt lat="42.7093620300293" lon="-8.275875091552734">
        <ele>373.0</ele>
        <time>2019-05-04T06:36:11.000Z</time>
      </trkpt>
      <trkpt lat="42.70936965942383" lon="-8.275877952575684">
        <ele>373.0</ele>
        <time>2019-05-04T06:36:11.000Z</time>
      </trkpt>
      <trkpt lat="42.709373474121094" lon="-8.27588176727295">
        <ele>373.0</ele>
        <time>2019-05-04T06:36:12.000Z</time>
      </trkpt>
      <trkpt lat="42.70937728881836" lon="-8.275884628295898">
        <ele>374.0</ele>
        <time>2019-05-04T06:36:12.000Z</time>
      </trkpt>
      <trkpt lat="42.70940017700195" lon="-8.275895118713379">
        <ele>373.0</ele>
        <time>2019-05-04T06:36:14.000Z</time>
      </trkpt>
      <trkpt lat="42.70942687988281" lon="-8.275908470153809">
        <ele>372.0</ele>
        <time>2019-05-04T06:36:15.000Z</time>
      </trkpt>
      <trkpt lat="42.70945739746094" lon="-8.275922775268555">
        <ele>372.0</ele>
        <time>2019-05-04T06:36:17.000Z</time>
      </trkpt>
      <trkpt lat="42.70949172973633" lon="-8.275938987731934">
        <ele>371.0</ele>
        <time>2019-05-04T06:36:19.000Z</time>
      </trkpt>
      <trkpt lat="42.709510803222656" lon="-8.275944709777832">
        <ele>370.0</ele>
        <time>2019-05-04T06:36:23.000Z</time>
      </trkpt>
      <trkpt lat="42.70952224731445" lon="-8.275947570800781">
        <ele>370.0</ele>
        <time>2019-05-04T06:36:27.000Z</time>
      </trkpt>
      <trkpt lat="42.709529876708984" lon="-8.275948524475098">
        <ele>370.0</ele>
        <time>2019-05-04T06:36:32.000Z</time>
      </trkpt>
      <trkpt lat="42.709537506103516" lon="-8.275947570800781">
        <ele>370.0</ele>
        <time>2019-05-04T06:36:36.000Z</time>
      </trkpt>
      <trkpt lat="42.70954895019531" lon="-8.275949478149414">
        <ele>370.0</ele>
        <time>2019-05-04T06:36:36.000Z</time>
      </trkpt>
      <trkpt lat="42.709556579589844" lon="-8.27595043182373">
        <ele>370.0</ele>
        <time>2019-05-04T06:36:36.000Z</time>
      </trkpt>
      <trkpt lat="42.70956039428711" lon="-8.275951385498047">
        <ele>370.0</ele>
        <time>2019-05-04T06:36:37.000Z</time>
      </trkpt>
      <trkpt lat="42.70956802368164" lon="-8.27595329284668">
        <ele>370.0</ele>
        <time>2019-05-04T06:36:37.000Z</time>
      </trkpt>
      <trkpt lat="42.70970153808594" lon="-8.275959968566895">
        <ele>370.0</ele>
        <time>2019-05-04T06:36:39.000Z</time>
      </trkpt>
      <trkpt lat="42.70973587036133" lon="-8.275941848754883">
        <ele>370.0</ele>
        <time>2019-05-04T06:36:42.000Z</time>
      </trkpt>
      <trkpt lat="42.70975875854492" lon="-8.275914192199707">
        <ele>370.0</ele>
        <time>2019-05-04T06:36:46.000Z</time>
      </trkpt>
      <trkpt lat="42.70976638793945" lon="-8.275907516479492">
        <ele>370.0</ele>
        <time>2019-05-04T06:36:51.000Z</time>
      </trkpt>
      <trkpt lat="42.70976638793945" lon="-8.275903701782227">
        <ele>369.0</ele>
        <time>2019-05-04T06:36:55.000Z</time>
      </trkpt>
      <trkpt lat="42.70976638793945" lon="-8.275901794433594">
        <ele>368.0</ele>
        <time>2019-05-04T06:37:00.000Z</time>
      </trkpt>
      <trkpt lat="42.70976638793945" lon="-8.275899887084961">
        <ele>367.0</ele>
        <time>2019-05-04T06:37:05.000Z</time>
      </trkpt>
      <trkpt lat="42.70976638793945" lon="-8.275897026062012">
        <ele>367.0</ele>
        <time>2019-05-04T06:37:05.000Z</time>
      </trkpt>
      <trkpt lat="42.70976638793945" lon="-8.275893211364746">
        <ele>367.0</ele>
        <time>2019-05-04T06:37:05.000Z</time>
      </trkpt>
      <trkpt lat="42.70977020263672" lon="-8.275890350341797">
        <ele>367.0</ele>
        <time>2019-05-04T06:37:06.000Z</time>
      </trkpt>
      <trkpt lat="42.70977020263672" lon="-8.275887489318848">
        <ele>367.0</ele>
        <time>2019-05-04T06:37:06.000Z</time>
      </trkpt>
      <trkpt lat="42.70978927612305" lon="-8.27584171295166">
        <ele>367.0</ele>
        <time>2019-05-04T06:37:08.000Z</time>
      </trkpt>
      <trkpt lat="42.70981216430664" lon="-8.275777816772461">
        <ele>366.0</ele>
        <time>2019-05-04T06:37:10.000Z</time>
      </trkpt>
      <trkpt lat="42.7098388671875" lon="-8.275701522827148">
        <ele>366.0</ele>
        <time>2019-05-04T06:37:12.000Z</time>
      </trkpt>
      <trkpt lat="42.709869384765625" lon="-8.275619506835938">
        <ele>365.0</ele>
        <time>2019-05-04T06:37:14.000Z</time>
      </trkpt>
      <trkpt lat="42.70988845825195" lon="-8.275595664978027">
        <ele>364.0</ele>
        <time>2019-05-04T06:37:18.000Z</time>
      </trkpt>
      <trkpt lat="42.70989990234375" lon="-8.275588035583496">
        <ele>364.0</ele>
        <time>2019-05-04T06:37:23.000Z</time>
      </trkpt>
      <trkpt lat="42.70990753173828" lon="-8.275593757629395">
        <ele>363.0</ele>
        <time>2019-05-04T06:37:27.000Z</time>
      </trkpt>
      <trkpt lat="42.70991897583008" lon="-8.275604248046875">
        <ele>362.0</ele>
        <time>2019-05-04T06:37:32.000Z</time>
      </trkpt>
      <trkpt lat="42.70992660522461" lon="-8.275601387023926">
        <ele>362.0</ele>
        <time>2019-05-04T06:37:32.000Z</time>
      </trkpt>
      <trkpt lat="42.70993423461914" lon="-8.275598526000977">
        <ele>362.0</ele>
        <time>2019-05-04T06:37:32.000Z</time>
      </trkpt>
      <trkpt lat="42.70994186401367" lon="-8.275596618652344">
        <ele>362.0</ele>
        <time>2019-05-04T06:37:33.000Z</time>
      </trkpt>
      <trkpt lat="42.7099494934082" lon="-8.275593757629395">
        <ele>362.0</ele>
        <time>2019-05-04T06:37:33.000Z</time>
      </trkpt>
      <trkpt lat="42.71000671386719" lon="-8.275592803955078">
        <ele>362.0</ele>
        <time>2019-05-04T06:37:36.000Z</time>
      </trkpt>
      <trkpt lat="42.710086822509766" lon="-8.275592803955078">
        <ele>362.0</ele>
        <time>2019-05-04T06:37:39.000Z</time>
      </trkpt>
      <trkpt lat="42.71017837524414" lon="-8.275593757629395">
        <ele>362.0</ele>
        <time>2019-05-04T06:37:42.000Z</time>
      </trkpt>
      <trkpt lat="42.71027755737305" lon="-8.275594711303711">
        <ele>362.0</ele>
        <time>2019-05-04T06:37:45.000Z</time>
      </trkpt>
      <trkpt lat="42.71038818359375" lon="-8.275667190551758">
        <ele>362.0</ele>
        <time>2019-05-04T06:37:55.000Z</time>
      </trkpt>
      <trkpt lat="42.710472106933594" lon="-8.275772094726562">
        <ele>362.0</ele>
        <time>2019-05-04T06:38:05.000Z</time>
      </trkpt>
      <trkpt lat="42.71049499511719" lon="-8.275788307189941">
        <ele>361.0</ele>
        <time>2019-05-04T06:38:09.000Z</time>
      </trkpt>
      <trkpt lat="42.71050262451172" lon="-8.275792121887207">
        <ele>361.0</ele>
        <time>2019-05-04T06:38:13.000Z</time>
      </trkpt>
      <trkpt lat="42.710506439208984" lon="-8.275788307189941">
        <ele>360.0</ele>
        <time>2019-05-04T06:38:17.000Z</time>
      </trkpt>
      <trkpt lat="42.71050262451172" lon="-8.275779724121094">
        <ele>360.0</ele>
        <time>2019-05-04T06:38:21.000Z</time>
      </trkpt>
      <trkpt lat="42.71051025390625" lon="-8.275781631469727">
        <ele>360.0</ele>
        <time>2019-05-04T06:38:21.000Z</time>
      </trkpt>
      <trkpt lat="42.710514068603516" lon="-8.275782585144043">
        <ele>360.0</ele>
        <time>2019-05-04T06:38:21.000Z</time>
      </trkpt>
      <trkpt lat="42.71052169799805" lon="-8.275784492492676">
        <ele>360.0</ele>
        <time>2019-05-04T06:38:22.000Z</time>
      </trkpt>
      <trkpt lat="42.71052551269531" lon="-8.275785446166992">
        <ele>360.0</ele>
        <time>2019-05-04T06:38:22.000Z</time>
      </trkpt>
      <trkpt lat="42.71055221557617" lon="-8.27580738067627">
        <ele>360.0</ele>
        <time>2019-05-04T06:38:24.000Z</time>
      </trkpt>
      <trkpt lat="42.71058654785156" lon="-8.275838851928711">
        <ele>360.0</ele>
        <time>2019-05-04T06:38:25.000Z</time>
      </trkpt>
      <trkpt lat="42.710628509521484" lon="-8.275875091552734">
        <ele>360.0</ele>
        <time>2019-05-04T06:38:27.000Z</time>
      </trkpt>
      <trkpt lat="42.71067428588867" lon="-8.275915145874023">
        <ele>359.0</ele>
        <time>2019-05-04T06:38:29.000Z</time>
      </trkpt>
      <trkpt lat="42.71068572998047" lon="-8.275968551635742">
        <ele>359.0</ele>
        <time>2019-05-04T06:38:32.000Z</time>
      </trkpt>
      <trkpt lat="42.710693359375" lon="-8.276030540466309">
        <ele>359.0</ele>
        <time>2019-05-04T06:38:35.000Z</time>
      </trkpt>
      <trkpt lat="42.710689544677734" lon="-8.276098251342773">
        <ele>359.0</ele>
        <time>2019-05-04T06:38:38.000Z</time>
      </trkpt>
      <trkpt lat="42.71068572998047" lon="-8.276169776916504">
        <ele>359.0</ele>
        <time>2019-05-04T06:38:41.000Z</time>
      </trkpt>
      <trkpt lat="42.71067810058594" lon="-8.27623176574707">
        <ele>359.0</ele>
        <time>2019-05-04T06:38:44.000Z</time>
      </trkpt>
      <trkpt lat="42.710662841796875" lon="-8.276293754577637">
        <ele>359.0</ele>
        <time>2019-05-04T06:38:47.000Z</time>
      </trkpt>
      <trkpt lat="42.71064758300781" lon="-8.276354789733887">
        <ele>358.0</ele>
        <time>2019-05-04T06:38:50.000Z</time>
      </trkpt>
      <trkpt lat="42.710628509521484" lon="-8.276415824890137">
        <ele>358.0</ele>
        <time>2019-05-04T06:38:53.000Z</time>
      </trkpt>
      <trkpt lat="42.71062469482422" lon="-8.276520729064941">
        <ele>359.0</ele>
        <time>2019-05-04T06:39:00.000Z</time>
      </trkpt>
      <trkpt lat="42.71062469482422" lon="-8.276642799377441">
        <ele>359.0</ele>
        <time>2019-05-04T06:39:07.000Z</time>
      </trkpt>
      <trkpt lat="42.710628509521484" lon="-8.276777267456055">
        <ele>360.0</ele>
        <time>2019-05-04T06:39:15.000Z</time>
      </trkpt>
      <trkpt lat="42.71063232421875" lon="-8.276917457580566">
        <ele>362.0</ele>
        <time>2019-05-04T06:39:22.000Z</time>
      </trkpt>
      <trkpt lat="42.71067428588867" lon="-8.277052879333496">
        <ele>362.0</ele>
        <time>2019-05-04T06:39:30.000Z</time>
      </trkpt>
      <trkpt lat="42.71073532104492" lon="-8.277134895324707">
        <ele>362.0</ele>
        <time>2019-05-04T06:39:39.000Z</time>
      </trkpt>
      <trkpt lat="42.71076965332031" lon="-8.277216911315918">
        <ele>361.0</ele>
        <time>2019-05-04T06:39:46.000Z</time>
      </trkpt>
      <trkpt lat="42.7108039855957" lon="-8.27730941772461">
        <ele>360.0</ele>
        <time>2019-05-04T06:39:52.000Z</time>
      </trkpt>
      <trkpt lat="42.71084213256836" lon="-8.277409553527832">
        <ele>359.0</ele>
        <time>2019-05-04T06:39:59.000Z</time>
      </trkpt>
      <trkpt lat="42.710880279541016" lon="-8.27751350402832">
        <ele>358.0</ele>
        <time>2019-05-04T06:40:06.000Z</time>
      </trkpt>
      <trkpt lat="42.710914611816406" lon="-8.27757453918457">
        <ele>357.0</ele>
        <time>2019-05-04T06:40:10.000Z</time>
      </trkpt>
      <trkpt lat="42.71094512939453" lon="-8.277621269226074">
        <ele>356.0</ele>
        <time>2019-05-04T06:40:15.000Z</time>
      </trkpt>
      <trkpt lat="42.71097946166992" lon="-8.277658462524414">
        <ele>355.0</ele>
        <time>2019-05-04T06:40:19.000Z</time>
      </trkpt>
      <trkpt lat="42.71101379394531" lon="-8.277690887451172">
        <ele>354.0</ele>
        <time>2019-05-04T06:40:24.000Z</time>
      </trkpt>
      <trkpt lat="42.71104049682617" lon="-8.277743339538574">
        <ele>353.0</ele>
        <time>2019-05-04T06:40:28.000Z</time>
      </trkpt>
      <trkpt lat="42.711063385009766" lon="-8.277798652648926">
        <ele>352.0</ele>
        <time>2019-05-04T06:40:32.000Z</time>
      </trkpt>
      <trkpt lat="42.711090087890625" lon="-8.277856826782227">
        <ele>352.0</ele>
        <time>2019-05-04T06:40:37.000Z</time>
      </trkpt>
      <trkpt lat="42.71111297607422" lon="-8.277915954589844">
        <ele>351.0</ele>
        <time>2019-05-04T06:40:41.000Z</time>
      </trkpt>
      <trkpt lat="42.711158752441406" lon="-8.277995109558105">
        <ele>349.0</ele>
        <time>2019-05-04T06:40:49.000Z</time>
      </trkpt>
      <trkpt lat="42.711212158203125" lon="-8.278082847595215">
        <ele>347.0</ele>
        <time>2019-05-04T06:40:58.000Z</time>
      </trkpt>
      <trkpt lat="42.71126937866211" lon="-8.278177261352539">
        <ele>345.0</ele>
        <time>2019-05-04T06:41:06.000Z</time>
      </trkpt>
      <trkpt lat="42.711334228515625" lon="-8.278274536132812">
        <ele>343.0</ele>
        <time>2019-05-04T06:41:15.000Z</time>
      </trkpt>
      <trkpt lat="42.71138000488281" lon="-8.278373718261719">
        <ele>342.0</ele>
        <time>2019-05-04T06:41:21.000Z</time>
      </trkpt>
      <trkpt lat="42.71142578125" lon="-8.27847671508789">
        <ele>341.0</ele>
        <time>2019-05-04T06:41:27.000Z</time>
      </trkpt>
      <trkpt lat="42.711463928222656" lon="-8.278581619262695">
        <ele>340.0</ele>
        <time>2019-05-04T06:41:34.000Z</time>
      </trkpt>
      <trkpt lat="42.71150588989258" lon="-8.278688430786133">
        <ele>340.0</ele>
        <time>2019-05-04T06:41:40.000Z</time>
      </trkpt>
      <trkpt lat="42.711700439453125" lon="-8.279084205627441">
        <ele>337.0</ele>
        <time>2019-05-04T06:42:09.000Z</time>
      </trkpt>
      <trkpt lat="42.711917877197266" lon="-8.279436111450195">
        <ele>331.0</ele>
        <time>2019-05-04T06:42:38.000Z</time>
      </trkpt>
      <trkpt lat="42.71207046508789" lon="-8.279869079589844">
        <ele>328.0</ele>
        <time>2019-05-04T06:43:03.000Z</time>
      </trkpt>
      <trkpt lat="42.712257385253906" lon="-8.28027057647705">
        <ele>338.0</ele>
        <time>2019-05-04T06:43:25.000Z</time>
      </trkpt>
      <trkpt lat="42.712486267089844" lon="-8.280632019042969">
        <ele>337.0</ele>
        <time>2019-05-04T06:43:54.000Z</time>
      </trkpt>
      <trkpt lat="42.712669372558594" lon="-8.28104305267334">
        <ele>332.0</ele>
        <time>2019-05-04T06:44:26.000Z</time>
      </trkpt>
      <trkpt lat="42.71281814575195" lon="-8.281476020812988">
        <ele>332.0</ele>
        <time>2019-05-04T06:44:53.000Z</time>
      </trkpt>
      <trkpt lat="42.713050842285156" lon="-8.281832695007324">
        <ele>332.0</ele>
        <time>2019-05-04T06:45:18.000Z</time>
      </trkpt>
      <trkpt lat="42.713260650634766" lon="-8.282203674316406">
        <ele>330.0</ele>
        <time>2019-05-04T06:45:47.000Z</time>
      </trkpt>
      <trkpt lat="42.713417053222656" lon="-8.282331466674805">
        <ele>333.0</ele>
        <time>2019-05-04T06:46:03.000Z</time>
      </trkpt>
      <trkpt lat="42.71357727050781" lon="-8.282447814941406">
        <ele>337.0</ele>
        <time>2019-05-04T06:46:11.000Z</time>
      </trkpt>
      <trkpt lat="42.71376419067383" lon="-8.282526016235352">
        <ele>340.0</ele>
        <time>2019-05-04T06:46:26.000Z</time>
      </trkpt>
      <trkpt lat="42.71406936645508" lon="-8.282732963562012">
        <ele>334.0</ele>
        <time>2019-05-04T06:47:02.000Z</time>
      </trkpt>
      <trkpt lat="42.71440505981445" lon="-8.282885551452637">
        <ele>329.0</ele>
        <time>2019-05-04T06:47:29.000Z</time>
      </trkpt>
      <trkpt lat="42.7147331237793" lon="-8.283060073852539">
        <ele>328.0</ele>
        <time>2019-05-04T06:47:56.000Z</time>
      </trkpt>
      <trkpt lat="42.714962005615234" lon="-8.283143043518066">
        <ele>332.0</ele>
        <time>2019-05-04T06:48:20.000Z</time>
      </trkpt>
      <trkpt lat="42.714988708496094" lon="-8.283135414123535">
        <ele>332.0</ele>
        <time>2019-05-04T06:48:21.000Z</time>
      </trkpt>
      <trkpt lat="42.71500015258789" lon="-8.283116340637207">
        <ele>332.0</ele>
        <time>2019-05-04T06:48:23.000Z</time>
      </trkpt>
      <trkpt lat="42.715003967285156" lon="-8.283089637756348">
        <ele>332.0</ele>
        <time>2019-05-04T06:48:24.000Z</time>
      </trkpt>
      <trkpt lat="42.71500015258789" lon="-8.283059120178223">
        <ele>332.0</ele>
        <time>2019-05-04T06:48:26.000Z</time>
      </trkpt>
      <trkpt lat="42.71500015258789" lon="-8.283095359802246">
        <ele>331.0</ele>
        <time>2019-05-04T06:48:31.000Z</time>
      </trkpt>
      <trkpt lat="42.714996337890625" lon="-8.28315544128418">
        <ele>331.0</ele>
        <time>2019-05-04T06:48:35.000Z</time>
      </trkpt>
      <trkpt lat="42.714988708496094" lon="-8.283231735229492">
        <ele>330.0</ele>
        <time>2019-05-04T06:48:40.000Z</time>
      </trkpt>
      <trkpt lat="42.71498107910156" lon="-8.283315658569336">
        <ele>329.0</ele>
        <time>2019-05-04T06:48:44.000Z</time>
      </trkpt>
      <trkpt lat="42.71493911743164" lon="-8.283370018005371">
        <ele>329.0</ele>
        <time>2019-05-04T06:48:51.000Z</time>
      </trkpt>
      <trkpt lat="42.714881896972656" lon="-8.283421516418457">
        <ele>329.0</ele>
        <time>2019-05-04T06:48:57.000Z</time>
      </trkpt>
      <trkpt lat="42.714813232421875" lon="-8.28347110748291">
        <ele>328.0</ele>
        <time>2019-05-04T06:49:03.000Z</time>
      </trkpt>
      <trkpt lat="42.71473693847656" lon="-8.28351879119873">
        <ele>328.0</ele>
        <time>2019-05-04T06:49:09.000Z</time>
      </trkpt>
      <trkpt lat="42.714691162109375" lon="-8.283555030822754">
        <ele>328.0</ele>
        <time>2019-05-04T06:49:13.000Z</time>
      </trkpt>
      <trkpt lat="42.714656829833984" lon="-8.283584594726562">
        <ele>328.0</ele>
        <time>2019-05-04T06:49:16.000Z</time>
      </trkpt>
      <trkpt lat="42.714622497558594" lon="-8.283610343933105">
        <ele>327.0</ele>
        <time>2019-05-04T06:49:19.000Z</time>
      </trkpt>
      <trkpt lat="42.714595794677734" lon="-8.283634185791016">
        <ele>327.0</ele>
        <time>2019-05-04T06:49:23.000Z</time>
      </trkpt>
      <trkpt lat="42.71458053588867" lon="-8.28366470336914">
        <ele>327.0</ele>
        <time>2019-05-04T06:49:25.000Z</time>
      </trkpt>
      <trkpt lat="42.714576721191406" lon="-8.283696174621582">
        <ele>327.0</ele>
        <time>2019-05-04T06:49:27.000Z</time>
      </trkpt>
      <trkpt lat="42.714576721191406" lon="-8.283727645874023">
        <ele>327.0</ele>
        <time>2019-05-04T06:49:29.000Z</time>
      </trkpt>
      <trkpt lat="42.71458435058594" lon="-8.283759117126465">
        <ele>327.0</ele>
        <time>2019-05-04T06:49:31.000Z</time>
      </trkpt>
      <trkpt lat="42.714622497558594" lon="-8.283809661865234">
        <ele>327.0</ele>
        <time>2019-05-04T06:49:37.000Z</time>
      </trkpt>
      <trkpt lat="42.71467590332031" lon="-8.283866882324219">
        <ele>328.0</ele>
        <time>2019-05-04T06:49:44.000Z</time>
      </trkpt>
      <trkpt lat="42.71474075317383" lon="-8.283929824829102">
        <ele>329.0</ele>
        <time>2019-05-04T06:49:50.000Z</time>
      </trkpt>
      <trkpt lat="42.714813232421875" lon="-8.283994674682617">
        <ele>330.0</ele>
        <time>2019-05-04T06:49:57.000Z</time>
      </trkpt>
      <trkpt lat="42.714881896972656" lon="-8.28405475616455">
        <ele>330.0</ele>
        <time>2019-05-04T06:50:03.000Z</time>
      </trkpt>
      <trkpt lat="42.71495819091797" lon="-8.2841157913208">
        <ele>331.0</ele>
        <time>2019-05-04T06:50:10.000Z</time>
      </trkpt>
      <trkpt lat="42.71503829956055" lon="-8.284175872802734">
        <ele>333.0</ele>
        <time>2019-05-04T06:50:16.000Z</time>
      </trkpt>
      <trkpt lat="42.71512222290039" lon="-8.2842378616333">
        <ele>334.0</ele>
        <time>2019-05-04T06:50:23.000Z</time>
      </trkpt>
      <trkpt lat="42.7151985168457" lon="-8.284296989440918">
        <ele>335.0</ele>
        <time>2019-05-04T06:50:30.000Z</time>
      </trkpt>
      <trkpt lat="42.715274810791016" lon="-8.284357070922852">
        <ele>336.0</ele>
        <time>2019-05-04T06:50:37.000Z</time>
      </trkpt>
      <trkpt lat="42.71535110473633" lon="-8.284417152404785">
        <ele>337.0</ele>
        <time>2019-05-04T06:50:45.000Z</time>
      </trkpt>
      <trkpt lat="42.71542739868164" lon="-8.284476280212402">
        <ele>338.0</ele>
        <time>2019-05-04T06:50:52.000Z</time>
      </trkpt>
      <trkpt lat="42.71550750732422" lon="-8.284536361694336">
        <ele>339.0</ele>
        <time>2019-05-04T06:50:59.000Z</time>
      </trkpt>
      <trkpt lat="42.7155876159668" lon="-8.284597396850586">
        <ele>340.0</ele>
        <time>2019-05-04T06:51:06.000Z</time>
      </trkpt>
      <trkpt lat="42.715667724609375" lon="-8.284658432006836">
        <ele>340.0</ele>
        <time>2019-05-04T06:51:13.000Z</time>
      </trkpt>
      <trkpt lat="42.71575164794922" lon="-8.284719467163086">
        <ele>341.0</ele>
        <time>2019-05-04T06:51:20.000Z</time>
      </trkpt>
      <trkpt lat="42.71582794189453" lon="-8.284778594970703">
        <ele>341.0</ele>
        <time>2019-05-04T06:51:27.000Z</time>
      </trkpt>
      <trkpt lat="42.715904235839844" lon="-8.28483772277832">
        <ele>340.0</ele>
        <time>2019-05-04T06:51:34.000Z</time>
      </trkpt>
      <trkpt lat="42.715980529785156" lon="-8.284896850585938">
        <ele>340.0</ele>
        <time>2019-05-04T06:51:42.000Z</time>
      </trkpt>
      <trkpt lat="42.71605682373047" lon="-8.284955024719238">
        <ele>339.0</ele>
        <time>2019-05-04T06:51:49.000Z</time>
      </trkpt>
      <trkpt lat="42.71613693237305" lon="-8.285006523132324">
        <ele>339.0</ele>
        <time>2019-05-04T06:51:55.000Z</time>
      </trkpt>
      <trkpt lat="42.71622085571289" lon="-8.285056114196777">
        <ele>339.0</ele>
        <time>2019-05-04T06:52:02.000Z</time>
      </trkpt>
      <trkpt lat="42.716304779052734" lon="-8.285102844238281">
        <ele>340.0</ele>
        <time>2019-05-04T06:52:09.000Z</time>
      </trkpt>
      <trkpt lat="42.71638870239258" lon="-8.285149574279785">
        <ele>340.0</ele>
        <time>2019-05-04T06:52:15.000Z</time>
      </trkpt>
      <trkpt lat="42.716712951660156" lon="-8.285372734069824">
        <ele>343.0</ele>
        <time>2019-05-04T06:52:41.000Z</time>
      </trkpt>
      <trkpt lat="42.71696472167969" lon="-8.285604476928711">
        <ele>343.0</ele>
        <time>2019-05-04T06:53:09.000Z</time>
      </trkpt>
      <trkpt lat="42.71697998046875" lon="-8.285652160644531">
        <ele>343.0</ele>
        <time>2019-05-04T06:53:11.000Z</time>
      </trkpt>
      <trkpt lat="42.71697235107422" lon="-8.285696029663086">
        <ele>344.0</ele>
        <time>2019-05-04T06:53:12.000Z</time>
      </trkpt>
      <trkpt lat="42.716957092285156" lon="-8.285736083984375">
        <ele>344.0</ele>
        <time>2019-05-04T06:53:14.000Z</time>
      </trkpt>
      <trkpt lat="42.7169303894043" lon="-8.285775184631348">
        <ele>344.0</ele>
        <time>2019-05-04T06:53:16.000Z</time>
      </trkpt>
      <trkpt lat="42.7169189453125" lon="-8.28581714630127">
        <ele>344.0</ele>
        <time>2019-05-04T06:53:17.000Z</time>
      </trkpt>
      <trkpt lat="42.71690368652344" lon="-8.285858154296875">
        <ele>344.0</ele>
        <time>2019-05-04T06:53:18.000Z</time>
      </trkpt>
      <trkpt lat="42.716888427734375" lon="-8.285900115966797">
        <ele>344.0</ele>
        <time>2019-05-04T06:53:20.000Z</time>
      </trkpt>
      <trkpt lat="42.71686935424805" lon="-8.285941123962402">
        <ele>344.0</ele>
        <time>2019-05-04T06:53:21.000Z</time>
      </trkpt>
      <trkpt lat="42.716915130615234" lon="-8.285929679870605">
        <ele>343.0</ele>
        <time>2019-05-04T06:53:27.000Z</time>
      </trkpt>
      <trkpt lat="42.716983795166016" lon="-8.285898208618164">
        <ele>342.0</ele>
        <time>2019-05-04T06:53:34.000Z</time>
      </trkpt>
      <trkpt lat="42.717071533203125" lon="-8.28585147857666">
        <ele>340.0</ele>
        <time>2019-05-04T06:53:40.000Z</time>
      </trkpt>
      <trkpt lat="42.7171630859375" lon="-8.285797119140625">
        <ele>338.0</ele>
        <time>2019-05-04T06:53:47.000Z</time>
      </trkpt>
      <trkpt lat="42.71720504760742" lon="-8.285812377929688">
        <ele>339.0</ele>
        <time>2019-05-04T06:53:50.000Z</time>
      </trkpt>
      <trkpt lat="42.71723175048828" lon="-8.285848617553711">
        <ele>341.0</ele>
        <time>2019-05-04T06:53:54.000Z</time>
      </trkpt>
      <trkpt lat="42.71725082397461" lon="-8.285900115966797">
        <ele>344.0</ele>
        <time>2019-05-04T06:53:57.000Z</time>
      </trkpt>
      <trkpt lat="42.71726608276367" lon="-8.285958290100098">
        <ele>347.0</ele>
        <time>2019-05-04T06:54:01.000Z</time>
      </trkpt>
      <trkpt lat="42.7172737121582" lon="-8.28597354888916">
        <ele>347.0</ele>
        <time>2019-05-04T06:54:02.000Z</time>
      </trkpt>
      <trkpt lat="42.71727752685547" lon="-8.285978317260742">
        <ele>347.0</ele>
        <time>2019-05-04T06:54:02.000Z</time>
      </trkpt>
      <trkpt lat="42.71727752685547" lon="-8.285975456237793">
        <ele>347.0</ele>
        <time>2019-05-04T06:54:03.000Z</time>
      </trkpt>
      <trkpt lat="42.7172737121582" lon="-8.285969734191895">
        <ele>346.0</ele>
        <time>2019-05-04T06:54:03.000Z</time>
      </trkpt>
      <trkpt lat="42.71727752685547" lon="-8.285980224609375">
        <ele>346.0</ele>
        <time>2019-05-04T06:54:07.000Z</time>
      </trkpt>
      <trkpt lat="42.71728515625" lon="-8.285992622375488">
        <ele>345.0</ele>
        <time>2019-05-04T06:54:10.000Z</time>
      </trkpt>
      <trkpt lat="42.717288970947266" lon="-8.286006927490234">
        <ele>344.0</ele>
        <time>2019-05-04T06:54:13.000Z</time>
      </trkpt>
      <trkpt lat="42.7172966003418" lon="-8.286023139953613">
        <ele>344.0</ele>
        <time>2019-05-04T06:54:16.000Z</time>
      </trkpt>
      <trkpt lat="42.71730041503906" lon="-8.286032676696777">
        <ele>343.0</ele>
        <time>2019-05-04T06:54:16.000Z</time>
      </trkpt>
      <trkpt lat="42.71730422973633" lon="-8.286041259765625">
        <ele>343.0</ele>
        <time>2019-05-04T06:54:16.000Z</time>
      </trkpt>
      <trkpt lat="42.717308044433594" lon="-8.286049842834473">
        <ele>343.0</ele>
        <time>2019-05-04T06:54:17.000Z</time>
      </trkpt>
      <trkpt lat="42.71731185913086" lon="-8.286056518554688">
        <ele>344.0</ele>
        <time>2019-05-04T06:54:17.000Z</time>
      </trkpt>
      <trkpt lat="42.71731948852539" lon="-8.286086082458496">
        <ele>343.0</ele>
        <time>2019-05-04T06:54:17.000Z</time>
      </trkpt>
      <trkpt lat="42.71733093261719" lon="-8.286124229431152">
        <ele>343.0</ele>
        <time>2019-05-04T06:54:18.000Z</time>
      </trkpt>
      <trkpt lat="42.71734619140625" lon="-8.28616714477539">
        <ele>343.0</ele>
        <time>2019-05-04T06:54:18.000Z</time>
      </trkpt>
      <trkpt lat="42.71735763549805" lon="-8.286213874816895">
        <ele>343.0</ele>
        <time>2019-05-04T06:54:19.000Z</time>
      </trkpt>
      <trkpt lat="42.717350006103516" lon="-8.286250114440918">
        <ele>342.0</ele>
        <time>2019-05-04T06:54:20.000Z</time>
      </trkpt>
      <trkpt lat="42.71733474731445" lon="-8.286283493041992">
        <ele>342.0</ele>
        <time>2019-05-04T06:54:21.000Z</time>
      </trkpt>
      <trkpt lat="42.717315673828125" lon="-8.286316871643066">
        <ele>341.0</ele>
        <time>2019-05-04T06:54:23.000Z</time>
      </trkpt>
      <trkpt lat="42.71729278564453" lon="-8.286349296569824">
        <ele>341.0</ele>
        <time>2019-05-04T06:54:24.000Z</time>
      </trkpt>
      <trkpt lat="42.71731948852539" lon="-8.286381721496582">
        <ele>340.0</ele>
        <time>2019-05-04T06:54:28.000Z</time>
      </trkpt>
      <trkpt lat="42.71736526489258" lon="-8.286415100097656">
        <ele>340.0</ele>
        <time>2019-05-04T06:54:32.000Z</time>
      </trkpt>
      <trkpt lat="42.71742248535156" lon="-8.286447525024414">
        <ele>339.0</ele>
        <time>2019-05-04T06:54:37.000Z</time>
      </trkpt>
      <trkpt lat="42.71748733520508" lon="-8.286479949951172">
        <ele>338.0</ele>
        <time>2019-05-04T06:54:41.000Z</time>
      </trkpt>
      <trkpt lat="42.717529296875" lon="-8.286513328552246">
        <ele>337.0</ele>
        <time>2019-05-04T06:54:45.000Z</time>
      </trkpt>
      <trkpt lat="42.717567443847656" lon="-8.28654670715332">
        <ele>336.0</ele>
        <time>2019-05-04T06:54:49.000Z</time>
      </trkpt>
      <trkpt lat="42.71760559082031" lon="-8.286580085754395">
        <ele>335.0</ele>
        <time>2019-05-04T06:54:54.000Z</time>
      </trkpt>
      <trkpt lat="42.71764373779297" lon="-8.286613464355469">
        <ele>334.0</ele>
        <time>2019-05-04T06:54:58.000Z</time>
      </trkpt>
      <trkpt lat="42.71767044067383" lon="-8.286661148071289">
        <ele>332.0</ele>
        <time>2019-05-04T06:55:06.000Z</time>
      </trkpt>
      <trkpt lat="42.71767807006836" lon="-8.286700248718262">
        <ele>331.0</ele>
        <time>2019-05-04T06:55:15.000Z</time>
      </trkpt>
      <trkpt lat="42.717681884765625" lon="-8.286713600158691">
        <ele>330.0</ele>
        <time>2019-05-04T06:55:15.000Z</time>
      </trkpt>
      <trkpt lat="42.71768569946289" lon="-8.286725044250488">
        <ele>330.0</ele>
        <time>2019-05-04T06:55:15.000Z</time>
      </trkpt>
      <trkpt lat="42.717689514160156" lon="-8.286734580993652">
        <ele>330.0</ele>
        <time>2019-05-04T06:55:16.000Z</time>
      </trkpt>
      <trkpt lat="42.71769332885742" lon="-8.286742210388184">
        <ele>331.0</ele>
        <time>2019-05-04T06:55:16.000Z</time>
      </trkpt>
      <trkpt lat="42.71772766113281" lon="-8.286808967590332">
        <ele>331.0</ele>
        <time>2019-05-04T06:55:20.000Z</time>
      </trkpt>
      <trkpt lat="42.7177734375" lon="-8.286898612976074">
        <ele>331.0</ele>
        <time>2019-05-04T06:55:24.000Z</time>
      </trkpt>
      <trkpt lat="42.71782684326172" lon="-8.287003517150879">
        <ele>331.0</ele>
        <time>2019-05-04T06:55:29.000Z</time>
      </trkpt>
      <trkpt lat="42.7178840637207" lon="-8.287117004394531">
        <ele>331.0</ele>
        <time>2019-05-04T06:55:33.000Z</time>
      </trkpt>
      <trkpt lat="42.71792984008789" lon="-8.287216186523438">
        <ele>332.0</ele>
        <time>2019-05-04T06:55:39.000Z</time>
      </trkpt>
      <trkpt lat="42.717979431152344" lon="-8.287317276000977">
        <ele>334.0</ele>
        <time>2019-05-04T06:55:45.000Z</time>
      </trkpt>
      <trkpt lat="42.71802520751953" lon="-8.287421226501465">
        <ele>336.0</ele>
        <time>2019-05-04T06:55:51.000Z</time>
      </trkpt>
      <trkpt lat="42.718074798583984" lon="-8.287525177001953">
        <ele>339.0</ele>
        <time>2019-05-04T06:55:57.000Z</time>
      </trkpt>
      <trkpt lat="42.71812438964844" lon="-8.287623405456543">
        <ele>340.0</ele>
        <time>2019-05-04T06:56:06.000Z</time>
      </trkpt>
      <trkpt lat="42.71818161010742" lon="-8.287718772888184">
        <ele>340.0</ele>
        <time>2019-05-04T06:56:16.000Z</time>
      </trkpt>
      <trkpt lat="42.71823501586914" lon="-8.287813186645508">
        <ele>341.0</ele>
        <time>2019-05-04T06:56:25.000Z</time>
      </trkpt>
      <trkpt lat="42.718292236328125" lon="-8.287907600402832">
        <ele>341.0</ele>
        <time>2019-05-04T06:56:35.000Z</time>
      </trkpt>
      <trkpt lat="42.71834182739258" lon="-8.288007736206055">
        <ele>342.0</ele>
        <time>2019-05-04T06:56:43.000Z</time>
      </trkpt>
      <trkpt lat="42.718387603759766" lon="-8.288110733032227">
        <ele>343.0</ele>
        <time>2019-05-04T06:56:51.000Z</time>
      </trkpt>
      <trkpt lat="42.71843338012695" lon="-8.288213729858398">
        <ele>345.0</ele>
        <time>2019-05-04T06:56:59.000Z</time>
      </trkpt>
      <trkpt lat="42.71847915649414" lon="-8.288318634033203">
        <ele>346.0</ele>
        <time>2019-05-04T06:57:07.000Z</time>
      </trkpt>
      <trkpt lat="42.71867370605469" lon="-8.288721084594727">
        <ele>352.0</ele>
        <time>2019-05-04T06:57:44.000Z</time>
      </trkpt>
      <trkpt lat="42.7188720703125" lon="-8.289118766784668">
        <ele>352.0</ele>
        <time>2019-05-04T06:58:17.000Z</time>
      </trkpt>
      <trkpt lat="42.71904754638672" lon="-8.28952693939209">
        <ele>347.0</ele>
        <time>2019-05-04T06:58:44.000Z</time>
      </trkpt>
      <trkpt lat="42.7192497253418" lon="-8.289915084838867">
        <ele>351.0</ele>
        <time>2019-05-04T06:59:12.000Z</time>
      </trkpt>
      <trkpt lat="42.71946334838867" lon="-8.290302276611328">
        <ele>352.0</ele>
        <time>2019-05-04T06:59:38.000Z</time>
      </trkpt>
      <trkpt lat="42.71962356567383" lon="-8.290739059448242">
        <ele>352.0</ele>
        <time>2019-05-04T07:00:06.000Z</time>
      </trkpt>
      <trkpt lat="42.71978759765625" lon="-8.291163444519043">
        <ele>356.0</ele>
        <time>2019-05-04T07:00:35.000Z</time>
      </trkpt>
      <trkpt lat="42.71990966796875" lon="-8.291610717773438">
        <ele>359.0</ele>
        <time>2019-05-04T07:01:01.000Z</time>
      </trkpt>
      <trkpt lat="42.720001220703125" lon="-8.292094230651855">
        <ele>352.0</ele>
        <time>2019-05-04T07:01:31.000Z</time>
      </trkpt>
      <trkpt lat="42.720176696777344" lon="-8.292529106140137">
        <ele>353.0</ele>
        <time>2019-05-04T07:01:58.000Z</time>
      </trkpt>
      <trkpt lat="42.72032165527344" lon="-8.292985916137695">
        <ele>353.0</ele>
        <time>2019-05-04T07:02:26.000Z</time>
      </trkpt>
      <trkpt lat="42.7204704284668" lon="-8.293428421020508">
        <ele>356.0</ele>
        <time>2019-05-04T07:02:54.000Z</time>
      </trkpt>
      <trkpt lat="42.72062683105469" lon="-8.293878555297852">
        <ele>353.0</ele>
        <time>2019-05-04T07:03:24.000Z</time>
      </trkpt>
      <trkpt lat="42.72077941894531" lon="-8.294337272644043">
        <ele>350.0</ele>
        <time>2019-05-04T07:03:53.000Z</time>
      </trkpt>
      <trkpt lat="42.72090530395508" lon="-8.29480266571045">
        <ele>351.0</ele>
        <time>2019-05-04T07:04:23.000Z</time>
      </trkpt>
      <trkpt lat="42.721038818359375" lon="-8.29525375366211">
        <ele>351.0</ele>
        <time>2019-05-04T07:04:53.000Z</time>
      </trkpt>
      <trkpt lat="42.72114944458008" lon="-8.295722961425781">
        <ele>347.0</ele>
        <time>2019-05-04T07:05:21.000Z</time>
      </trkpt>
      <trkpt lat="42.7213020324707" lon="-8.29616928100586">
        <ele>345.0</ele>
        <time>2019-05-04T07:05:49.000Z</time>
      </trkpt>
      <trkpt lat="42.72141647338867" lon="-8.296628952026367">
        <ele>344.0</ele>
        <time>2019-05-04T07:06:16.000Z</time>
      </trkpt>
      <trkpt lat="42.721492767333984" lon="-8.29710578918457">
        <ele>348.0</ele>
        <time>2019-05-04T07:06:44.000Z</time>
      </trkpt>
      <trkpt lat="42.72152328491211" lon="-8.297589302062988">
        <ele>345.0</ele>
        <time>2019-05-04T07:07:11.000Z</time>
      </trkpt>
      <trkpt lat="42.72151565551758" lon="-8.298080444335938">
        <ele>346.0</ele>
        <time>2019-05-04T07:07:40.000Z</time>
      </trkpt>
      <trkpt lat="42.721534729003906" lon="-8.298576354980469">
        <ele>346.0</ele>
        <time>2019-05-04T07:08:13.000Z</time>
      </trkpt>
      <trkpt lat="42.7215461730957" lon="-8.299062728881836">
        <ele>344.0</ele>
        <time>2019-05-04T07:08:42.000Z</time>
      </trkpt>
      <trkpt lat="42.72158432006836" lon="-8.299242973327637">
        <ele>344.0</ele>
        <time>2019-05-04T07:08:54.000Z</time>
      </trkpt>
      <trkpt lat="42.72166442871094" lon="-8.299345016479492">
        <ele>344.0</ele>
        <time>2019-05-04T07:09:03.000Z</time>
      </trkpt>
      <trkpt lat="42.721771240234375" lon="-8.299452781677246">
        <ele>344.0</ele>
        <time>2019-05-04T07:09:13.000Z</time>
      </trkpt>
      <trkpt lat="42.721832275390625" lon="-8.299524307250977">
        <ele>343.0</ele>
        <time>2019-05-04T07:09:21.000Z</time>
      </trkpt>
      <trkpt lat="42.72189712524414" lon="-8.299604415893555">
        <ele>342.0</ele>
        <time>2019-05-04T07:09:28.000Z</time>
      </trkpt>
      <trkpt lat="42.72196960449219" lon="-8.299688339233398">
        <ele>340.0</ele>
        <time>2019-05-04T07:09:36.000Z</time>
      </trkpt>
      <trkpt lat="42.72203826904297" lon="-8.299776077270508">
        <ele>339.0</ele>
        <time>2019-05-04T07:09:44.000Z</time>
      </trkpt>
      <trkpt lat="42.722110748291016" lon="-8.299853324890137">
        <ele>338.0</ele>
        <time>2019-05-04T07:09:51.000Z</time>
      </trkpt>
      <trkpt lat="42.7221794128418" lon="-8.299928665161133">
        <ele>338.0</ele>
        <time>2019-05-04T07:09:57.000Z</time>
      </trkpt>
      <trkpt lat="42.722251892089844" lon="-8.300003051757812">
        <ele>338.0</ele>
        <time>2019-05-04T07:10:04.000Z</time>
      </trkpt>
      <trkpt lat="42.72232437133789" lon="-8.300076484680176">
        <ele>339.0</ele>
        <time>2019-05-04T07:10:11.000Z</time>
      </trkpt>
      <trkpt lat="42.72239685058594" lon="-8.300148010253906">
        <ele>339.0</ele>
        <time>2019-05-04T07:10:18.000Z</time>
      </trkpt>
      <trkpt lat="42.722469329833984" lon="-8.30021858215332">
        <ele>340.0</ele>
        <time>2019-05-04T07:10:25.000Z</time>
      </trkpt>
      <trkpt lat="42.72254180908203" lon="-8.300287246704102">
        <ele>341.0</ele>
        <time>2019-05-04T07:10:33.000Z</time>
      </trkpt>
      <trkpt lat="42.72261428833008" lon="-8.3003568649292">
        <ele>343.0</ele>
        <time>2019-05-04T07:10:40.000Z</time>
      </trkpt>
      <trkpt lat="42.722679138183594" lon="-8.30044174194336">
        <ele>343.0</ele>
        <time>2019-05-04T07:10:47.000Z</time>
      </trkpt>
      <trkpt lat="42.722740173339844" lon="-8.300532341003418">
        <ele>343.0</ele>
        <time>2019-05-04T07:10:55.000Z</time>
      </trkpt>
      <trkpt lat="42.72279357910156" lon="-8.300628662109375">
        <ele>342.0</ele>
        <time>2019-05-04T07:11:02.000Z</time>
      </trkpt>
      <trkpt lat="42.72285079956055" lon="-8.300725936889648">
        <ele>342.0</ele>
        <time>2019-05-04T07:11:10.000Z</time>
      </trkpt>
      <trkpt lat="42.72288513183594" lon="-8.300834655761719">
        <ele>341.0</ele>
        <time>2019-05-04T07:11:15.000Z</time>
      </trkpt>
      <trkpt lat="42.722877502441406" lon="-8.300908088684082">
        <ele>341.0</ele>
        <time>2019-05-04T07:11:21.000Z</time>
      </trkpt>
      <trkpt lat="42.7229118347168" lon="-8.300955772399902">
        <ele>340.0</ele>
        <time>2019-05-04T07:11:27.000Z</time>
      </trkpt>
      <trkpt lat="42.722957611083984" lon="-8.301003456115723">
        <ele>340.0</ele>
        <time>2019-05-04T07:11:32.000Z</time>
      </trkpt>
      <trkpt lat="42.7230110168457" lon="-8.301053047180176">
        <ele>340.0</ele>
        <time>2019-05-04T07:11:38.000Z</time>
      </trkpt>
      <trkpt lat="42.72306823730469" lon="-8.301102638244629">
        <ele>340.0</ele>
        <time>2019-05-04T07:11:44.000Z</time>
      </trkpt>
      <trkpt lat="42.72309112548828" lon="-8.301118850708008">
        <ele>339.0</ele>
        <time>2019-05-04T07:11:45.000Z</time>
      </trkpt>
      <trkpt lat="42.72309875488281" lon="-8.301121711730957">
        <ele>339.0</ele>
        <time>2019-05-04T07:11:47.000Z</time>
      </trkpt>
      <trkpt lat="42.72310256958008" lon="-8.301115036010742">
        <ele>339.0</ele>
        <time>2019-05-04T07:11:48.000Z</time>
      </trkpt>
      <trkpt lat="42.72309875488281" lon="-8.301103591918945">
        <ele>339.0</ele>
        <time>2019-05-04T07:11:50.000Z</time>
      </trkpt>
      <trkpt lat="42.72312545776367" lon="-8.301084518432617">
        <ele>338.0</ele>
        <time>2019-05-04T07:12:01.000Z</time>
      </trkpt>
      <trkpt lat="42.72315979003906" lon="-8.301057815551758">
        <ele>337.0</ele>
        <time>2019-05-04T07:12:12.000Z</time>
      </trkpt>
      <trkpt lat="42.723167419433594" lon="-8.301050186157227">
        <ele>337.0</ele>
        <time>2019-05-04T07:12:12.000Z</time>
      </trkpt>
      <trkpt lat="42.723175048828125" lon="-8.301044464111328">
        <ele>337.0</ele>
        <time>2019-05-04T07:12:12.000Z</time>
      </trkpt>
      <trkpt lat="42.723182678222656" lon="-8.30103874206543">
        <ele>337.0</ele>
        <time>2019-05-04T07:12:13.000Z</time>
      </trkpt>
      <trkpt lat="42.72319030761719" lon="-8.301034927368164">
        <ele>337.0</ele>
        <time>2019-05-04T07:12:13.000Z</time>
      </trkpt>
      <trkpt lat="42.723236083984375" lon="-8.300978660583496">
        <ele>337.0</ele>
        <time>2019-05-04T07:12:19.000Z</time>
      </trkpt>
      <trkpt lat="42.72330093383789" lon="-8.300902366638184">
        <ele>336.0</ele>
        <time>2019-05-04T07:12:25.000Z</time>
      </trkpt>
      <trkpt lat="42.7233772277832" lon="-8.300811767578125">
        <ele>336.0</ele>
        <time>2019-05-04T07:12:32.000Z</time>
      </trkpt>
      <trkpt lat="42.72346115112305" lon="-8.300713539123535">
        <ele>336.0</ele>
        <time>2019-05-04T07:12:38.000Z</time>
      </trkpt>
      <trkpt lat="42.72351837158203" lon="-8.30062484741211">
        <ele>335.0</ele>
        <time>2019-05-04T07:12:46.000Z</time>
      </trkpt>
      <trkpt lat="42.72357177734375" lon="-8.300531387329102">
        <ele>335.0</ele>
        <time>2019-05-04T07:12:54.000Z</time>
      </trkpt>
      <trkpt lat="42.7236213684082" lon="-8.300435066223145">
        <ele>335.0</ele>
        <time>2019-05-04T07:13:03.000Z</time>
      </trkpt>
      <trkpt lat="42.72366714477539" lon="-8.300337791442871">
        <ele>336.0</ele>
        <time>2019-05-04T07:13:11.000Z</time>
      </trkpt>
      <trkpt lat="42.72373962402344" lon="-8.300339698791504">
        <ele>334.0</ele>
        <time>2019-05-04T07:13:19.000Z</time>
      </trkpt>
      <trkpt lat="42.723819732666016" lon="-8.300381660461426">
        <ele>333.0</ele>
        <time>2019-05-04T07:13:26.000Z</time>
      </trkpt>
      <trkpt lat="42.723907470703125" lon="-8.300451278686523">
        <ele>331.0</ele>
        <time>2019-05-04T07:13:34.000Z</time>
      </trkpt>
      <trkpt lat="42.723995208740234" lon="-8.300533294677734">
        <ele>329.0</ele>
        <time>2019-05-04T07:13:42.000Z</time>
      </trkpt>
      <trkpt lat="42.72417449951172" lon="-8.300552368164062">
        <ele>325.0</ele>
        <time>2019-05-04T07:13:57.000Z</time>
      </trkpt>
      <trkpt lat="42.72435760498047" lon="-8.300535202026367">
        <ele>323.0</ele>
        <time>2019-05-04T07:14:12.000Z</time>
      </trkpt>
      <trkpt lat="42.72444534301758" lon="-8.30052375793457">
        <ele>323.0</ele>
        <time>2019-05-04T07:14:19.000Z</time>
      </trkpt>
      <trkpt lat="42.72453308105469" lon="-8.300507545471191">
        <ele>325.0</ele>
        <time>2019-05-04T07:14:26.000Z</time>
      </trkpt>
      <trkpt lat="42.7246208190918" lon="-8.300488471984863">
        <ele>328.0</ele>
        <time>2019-05-04T07:14:34.000Z</time>
      </trkpt>
      <trkpt lat="42.724708557128906" lon="-8.300467491149902">
        <ele>330.0</ele>
        <time>2019-05-04T07:14:41.000Z</time>
      </trkpt>
      <trkpt lat="42.724796295166016" lon="-8.300457000732422">
        <ele>332.0</ele>
        <time>2019-05-04T07:14:49.000Z</time>
      </trkpt>
      <trkpt lat="42.72488784790039" lon="-8.30044937133789">
        <ele>333.0</ele>
        <time>2019-05-04T07:14:58.000Z</time>
      </trkpt>
      <trkpt lat="42.7249755859375" lon="-8.300442695617676">
        <ele>334.0</ele>
        <time>2019-05-04T07:15:06.000Z</time>
      </trkpt>
      <trkpt lat="42.725067138671875" lon="-8.300436973571777">
        <ele>334.0</ele>
        <time>2019-05-04T07:15:15.000Z</time>
      </trkpt>
      <trkpt lat="42.725154876708984" lon="-8.30044174194336">
        <ele>336.0</ele>
        <time>2019-05-04T07:15:24.000Z</time>
      </trkpt>
      <trkpt lat="42.72524642944336" lon="-8.300451278686523">
        <ele>337.0</ele>
        <time>2019-05-04T07:15:33.000Z</time>
      </trkpt>
      <trkpt lat="42.72533416748047" lon="-8.300464630126953">
        <ele>338.0</ele>
        <time>2019-05-04T07:15:42.000Z</time>
      </trkpt>
      <trkpt lat="42.72542190551758" lon="-8.300479888916016">
        <ele>340.0</ele>
        <time>2019-05-04T07:15:51.000Z</time>
      </trkpt>
      <trkpt lat="42.72550582885742" lon="-8.300501823425293">
        <ele>341.0</ele>
        <time>2019-05-04T07:15:59.000Z</time>
      </trkpt>
      <trkpt lat="42.72559356689453" lon="-8.300528526306152">
        <ele>341.0</ele>
        <time>2019-05-04T07:16:07.000Z</time>
      </trkpt>
      <trkpt lat="42.725677490234375" lon="-8.300558090209961">
        <ele>342.0</ele>
        <time>2019-05-04T07:16:15.000Z</time>
      </trkpt>
      <trkpt lat="42.725765228271484" lon="-8.300590515136719">
        <ele>342.0</ele>
        <time>2019-05-04T07:16:23.000Z</time>
      </trkpt>
      <trkpt lat="42.7259407043457" lon="-8.300556182861328">
        <ele>342.0</ele>
        <time>2019-05-04T07:16:38.000Z</time>
      </trkpt>
      <trkpt lat="42.72611999511719" lon="-8.300481796264648">
        <ele>342.0</ele>
        <time>2019-05-04T07:16:54.000Z</time>
      </trkpt>
      <trkpt lat="42.72621154785156" lon="-8.300477981567383">
        <ele>342.0</ele>
        <time>2019-05-04T07:17:02.000Z</time>
      </trkpt>
      <trkpt lat="42.72630310058594" lon="-8.300484657287598">
        <ele>342.0</ele>
        <time>2019-05-04T07:17:10.000Z</time>
      </trkpt>
      <trkpt lat="42.72639083862305" lon="-8.300498008728027">
        <ele>342.0</ele>
        <time>2019-05-04T07:17:18.000Z</time>
      </trkpt>
      <trkpt lat="42.72648239135742" lon="-8.300514221191406">
        <ele>343.0</ele>
        <time>2019-05-04T07:17:26.000Z</time>
      </trkpt>
      <trkpt lat="42.7265510559082" lon="-8.300578117370605">
        <ele>344.0</ele>
        <time>2019-05-04T07:17:33.000Z</time>
      </trkpt>
      <trkpt lat="42.72661209106445" lon="-8.300666809082031">
        <ele>344.0</ele>
        <time>2019-05-04T07:17:40.000Z</time>
      </trkpt>
      <trkpt lat="42.726661682128906" lon="-8.300769805908203">
        <ele>345.0</ele>
        <time>2019-05-04T07:17:47.000Z</time>
      </trkpt>
      <trkpt lat="42.72671127319336" lon="-8.300882339477539">
        <ele>346.0</ele>
        <time>2019-05-04T07:17:54.000Z</time>
      </trkpt>
      <trkpt lat="42.726776123046875" lon="-8.300969123840332">
        <ele>346.0</ele>
        <time>2019-05-04T07:18:02.000Z</time>
      </trkpt>
      <trkpt lat="42.72684097290039" lon="-8.301054954528809">
        <ele>346.0</ele>
        <time>2019-05-04T07:18:09.000Z</time>
      </trkpt>
      <trkpt lat="42.726905822753906" lon="-8.301139831542969">
        <ele>347.0</ele>
        <time>2019-05-04T07:18:17.000Z</time>
      </trkpt>
      <trkpt lat="42.72697448730469" lon="-8.301223754882812">
        <ele>347.0</ele>
        <time>2019-05-04T07:18:25.000Z</time>
      </trkpt>
      <trkpt lat="42.72704315185547" lon="-8.301301956176758">
        <ele>347.0</ele>
        <time>2019-05-04T07:18:32.000Z</time>
      </trkpt>
      <trkpt lat="42.727115631103516" lon="-8.301377296447754">
        <ele>347.0</ele>
        <time>2019-05-04T07:18:40.000Z</time>
      </trkpt>
      <trkpt lat="42.72718811035156" lon="-8.301450729370117">
        <ele>347.0</ele>
        <time>2019-05-04T07:18:47.000Z</time>
      </trkpt>
      <trkpt lat="42.72726058959961" lon="-8.30152416229248">
        <ele>346.0</ele>
        <time>2019-05-04T07:18:55.000Z</time>
      </trkpt>
      <trkpt lat="42.72734069824219" lon="-8.301583290100098">
        <ele>347.0</ele>
        <time>2019-05-04T07:19:03.000Z</time>
      </trkpt>
      <trkpt lat="42.72742462158203" lon="-8.3016357421875">
        <ele>347.0</ele>
        <time>2019-05-04T07:19:11.000Z</time>
      </trkpt>
      <trkpt lat="42.72751235961914" lon="-8.30168342590332">
        <ele>348.0</ele>
        <time>2019-05-04T07:19:19.000Z</time>
      </trkpt>
      <trkpt lat="42.727603912353516" lon="-8.301729202270508">
        <ele>348.0</ele>
        <time>2019-05-04T07:19:27.000Z</time>
      </trkpt>
      <trkpt lat="42.72768783569336" lon="-8.30177116394043">
        <ele>349.0</ele>
        <time>2019-05-04T07:19:35.000Z</time>
      </trkpt>
      <trkpt lat="42.7277717590332" lon="-8.301809310913086">
        <ele>350.0</ele>
        <time>2019-05-04T07:19:43.000Z</time>
      </trkpt>
      <trkpt lat="42.72785568237305" lon="-8.301843643188477">
        <ele>351.0</ele>
        <time>2019-05-04T07:19:52.000Z</time>
      </trkpt>
      <trkpt lat="42.727943420410156" lon="-8.30187702178955">
        <ele>352.0</ele>
        <time>2019-05-04T07:20:00.000Z</time>
      </trkpt>
      <trkpt lat="42.72802734375" lon="-8.301908493041992">
        <ele>352.0</ele>
        <time>2019-05-04T07:20:06.000Z</time>
      </trkpt>
      <trkpt lat="42.72811508178711" lon="-8.301936149597168">
        <ele>353.0</ele>
        <time>2019-05-04T07:20:13.000Z</time>
      </trkpt>
      <trkpt lat="42.72819900512695" lon="-8.301962852478027">
        <ele>354.0</ele>
        <time>2019-05-04T07:20:20.000Z</time>
      </trkpt>
      <trkpt lat="42.72828674316406" lon="-8.30198860168457">
        <ele>354.0</ele>
        <time>2019-05-04T07:20:26.000Z</time>
      </trkpt>
      <trkpt lat="42.728450775146484" lon="-8.302023887634277">
        <ele>358.0</ele>
        <time>2019-05-04T07:20:43.000Z</time>
      </trkpt>
      <trkpt lat="42.72853088378906" lon="-8.302103996276855">
        <ele>358.0</ele>
        <time>2019-05-04T07:20:52.000Z</time>
      </trkpt>
      <trkpt lat="42.72860336303711" lon="-8.302212715148926">
        <ele>358.0</ele>
        <time>2019-05-04T07:21:00.000Z</time>
      </trkpt>
      <trkpt lat="42.72865676879883" lon="-8.302282333374023">
        <ele>358.0</ele>
        <time>2019-05-04T07:21:08.000Z</time>
      </trkpt>
      <trkpt lat="42.72871780395508" lon="-8.302360534667969">
        <ele>357.0</ele>
        <time>2019-05-04T07:21:16.000Z</time>
      </trkpt>
      <trkpt lat="42.728782653808594" lon="-8.302445411682129">
        <ele>357.0</ele>
        <time>2019-05-04T07:21:24.000Z</time>
      </trkpt>
      <trkpt lat="42.72884750366211" lon="-8.302533149719238">
        <ele>357.0</ele>
        <time>2019-05-04T07:21:32.000Z</time>
      </trkpt>
      <trkpt lat="42.72895431518555" lon="-8.302587509155273">
        <ele>358.0</ele>
        <time>2019-05-04T07:21:37.000Z</time>
      </trkpt>
      <trkpt lat="42.72904968261719" lon="-8.302593231201172">
        <ele>359.0</ele>
        <time>2019-05-04T07:21:42.000Z</time>
      </trkpt>
      <trkpt lat="42.72908401489258" lon="-8.302627563476562">
        <ele>359.0</ele>
        <time>2019-05-04T07:21:45.000Z</time>
      </trkpt>
      <trkpt lat="42.7291145324707" lon="-8.302669525146484">
        <ele>360.0</ele>
        <time>2019-05-04T07:21:48.000Z</time>
      </trkpt>
      <trkpt lat="42.7291374206543" lon="-8.302717208862305">
        <ele>361.0</ele>
        <time>2019-05-04T07:21:52.000Z</time>
      </trkpt>
      <trkpt lat="42.72916030883789" lon="-8.302767753601074">
        <ele>361.0</ele>
        <time>2019-05-04T07:21:55.000Z</time>
      </trkpt>
      <trkpt lat="42.729209899902344" lon="-8.302841186523438">
        <ele>362.0</ele>
        <time>2019-05-04T07:22:03.000Z</time>
      </trkpt>
      <trkpt lat="42.729270935058594" lon="-8.302927017211914">
        <ele>362.0</ele>
        <time>2019-05-04T07:22:11.000Z</time>
      </trkpt>
      <trkpt lat="42.72933578491211" lon="-8.303020477294922">
        <ele>362.0</ele>
        <time>2019-05-04T07:22:19.000Z</time>
      </trkpt>
      <trkpt lat="42.72940444946289" lon="-8.303119659423828">
        <ele>363.0</ele>
        <time>2019-05-04T07:22:27.000Z</time>
      </trkpt>
      <trkpt lat="42.72944259643555" lon="-8.303173065185547">
        <ele>363.0</ele>
        <time>2019-05-04T07:22:32.000Z</time>
      </trkpt>
      <trkpt lat="42.72947311401367" lon="-8.303213119506836">
        <ele>363.0</ele>
        <time>2019-05-04T07:22:38.000Z</time>
      </trkpt>
      <trkpt lat="42.7294921875" lon="-8.303242683410645">
        <ele>363.0</ele>
        <time>2019-05-04T07:22:43.000Z</time>
      </trkpt>
      <trkpt lat="42.72951126098633" lon="-8.303268432617188">
        <ele>362.0</ele>
        <time>2019-05-04T07:22:49.000Z</time>
      </trkpt>
      <trkpt lat="42.729469299316406" lon="-8.30357837677002">
        <ele>366.0</ele>
        <time>2019-05-04T07:45:23.000Z</time>
      </trkpt>
      <trkpt lat="42.72962188720703" lon="-8.303783416748047">
        <ele>363.0</ele>
        <time>2019-05-04T07:45:56.000Z</time>
      </trkpt>
      <trkpt lat="42.72962188720703" lon="-8.303783416748047">
        <ele>363.0</ele>
        <time>2019-05-04T07:45:57.000Z</time>
      </trkpt>
      <trkpt lat="42.72959518432617" lon="-8.303887367248535">
        <ele>362.0</ele>
        <time>2019-05-04T07:46:06.000Z</time>
      </trkpt>
      <trkpt lat="42.72960662841797" lon="-8.30389404296875">
        <ele>362.0</ele>
        <time>2019-05-04T07:46:07.000Z</time>
      </trkpt>
      <trkpt lat="42.72962188720703" lon="-8.3038911819458">
        <ele>362.0</ele>
        <time>2019-05-04T07:46:08.000Z</time>
      </trkpt>
      <trkpt lat="42.72964096069336" lon="-8.303884506225586">
        <ele>362.0</ele>
        <time>2019-05-04T07:46:10.000Z</time>
      </trkpt>
      <trkpt lat="42.72966003417969" lon="-8.303874015808105">
        <ele>362.0</ele>
        <time>2019-05-04T07:46:11.000Z</time>
      </trkpt>
      <trkpt lat="42.72967529296875" lon="-8.303879737854004">
        <ele>362.0</ele>
        <time>2019-05-04T07:46:15.000Z</time>
      </trkpt>
      <trkpt lat="42.72969055175781" lon="-8.303890228271484">
        <ele>363.0</ele>
        <time>2019-05-04T07:46:19.000Z</time>
      </trkpt>
      <trkpt lat="42.72970199584961" lon="-8.303902626037598">
        <ele>364.0</ele>
        <time>2019-05-04T07:46:24.000Z</time>
      </trkpt>
      <trkpt lat="42.729713439941406" lon="-8.303916931152344">
        <ele>365.0</ele>
        <time>2019-05-04T07:46:28.000Z</time>
      </trkpt>
      <trkpt lat="42.7297248840332" lon="-8.303924560546875">
        <ele>365.0</ele>
        <time>2019-05-04T07:46:28.000Z</time>
      </trkpt>
      <trkpt lat="42.729732513427734" lon="-8.303930282592773">
        <ele>365.0</ele>
        <time>2019-05-04T07:46:28.000Z</time>
      </trkpt>
      <trkpt lat="42.729736328125" lon="-8.303935050964355">
        <ele>365.0</ele>
        <time>2019-05-04T07:46:29.000Z</time>
      </trkpt>
      <trkpt lat="42.72974395751953" lon="-8.303939819335938">
        <ele>365.0</ele>
        <time>2019-05-04T07:46:29.000Z</time>
      </trkpt>
      <trkpt lat="42.729793548583984" lon="-8.303983688354492">
        <ele>366.0</ele>
        <time>2019-05-04T07:46:33.000Z</time>
      </trkpt>
      <trkpt lat="42.7298583984375" lon="-8.304043769836426">
        <ele>366.0</ele>
        <time>2019-05-04T07:46:37.000Z</time>
      </trkpt>
      <trkpt lat="42.72993850708008" lon="-8.30411434173584">
        <ele>367.0</ele>
        <time>2019-05-04T07:46:41.000Z</time>
      </trkpt>
      <trkpt lat="42.73002243041992" lon="-8.304190635681152">
        <ele>368.0</ele>
        <time>2019-05-04T07:46:45.000Z</time>
      </trkpt>
      <trkpt lat="42.73008728027344" lon="-8.304229736328125">
        <ele>368.0</ele>
        <time>2019-05-04T07:46:49.000Z</time>
      </trkpt>
      <trkpt lat="42.73015213012695" lon="-8.304259300231934">
        <ele>368.0</ele>
        <time>2019-05-04T07:46:53.000Z</time>
      </trkpt>
      <trkpt lat="42.7302131652832" lon="-8.304282188415527">
        <ele>369.0</ele>
        <time>2019-05-04T07:46:56.000Z</time>
      </trkpt>
      <trkpt lat="42.73027420043945" lon="-8.304301261901855">
        <ele>369.0</ele>
        <time>2019-05-04T07:47:00.000Z</time>
      </trkpt>
      <trkpt lat="42.73032760620117" lon="-8.304365158081055">
        <ele>369.0</ele>
        <time>2019-05-04T07:47:06.000Z</time>
      </trkpt>
      <trkpt lat="42.7303466796875" lon="-8.304431915283203">
        <ele>369.0</ele>
        <time>2019-05-04T07:47:12.000Z</time>
      </trkpt>
      <trkpt lat="42.73036575317383" lon="-8.304468154907227">
        <ele>369.0</ele>
        <time>2019-05-04T07:47:16.000Z</time>
      </trkpt>
      <trkpt lat="42.730384826660156" lon="-8.304505348205566">
        <ele>368.0</ele>
        <time>2019-05-04T07:47:20.000Z</time>
      </trkpt>
      <trkpt lat="42.73040771484375" lon="-8.304544448852539">
        <ele>368.0</ele>
        <time>2019-05-04T07:47:24.000Z</time>
      </trkpt>
      <trkpt lat="42.730430603027344" lon="-8.304584503173828">
        <ele>368.0</ele>
        <time>2019-05-04T07:47:28.000Z</time>
      </trkpt>
      <trkpt lat="42.730438232421875" lon="-8.30460262298584">
        <ele>367.0</ele>
        <time>2019-05-04T07:47:32.000Z</time>
      </trkpt>
      <trkpt lat="42.73044204711914" lon="-8.304612159729004">
        <ele>367.0</ele>
        <time>2019-05-04T07:47:36.000Z</time>
      </trkpt>
      <trkpt lat="42.730438232421875" lon="-8.304616928100586">
        <ele>366.0</ele>
        <time>2019-05-04T07:47:39.000Z</time>
      </trkpt>
      <trkpt lat="42.730438232421875" lon="-8.304618835449219">
        <ele>366.0</ele>
        <time>2019-05-04T07:47:43.000Z</time>
      </trkpt>
      <trkpt lat="42.730438232421875" lon="-8.30462646484375">
        <ele>366.0</ele>
        <time>2019-05-04T07:47:43.000Z</time>
      </trkpt>
      <trkpt lat="42.730438232421875" lon="-8.304633140563965">
        <ele>366.0</ele>
        <time>2019-05-04T07:47:44.000Z</time>
      </trkpt>
      <trkpt lat="42.73044204711914" lon="-8.304638862609863">
        <ele>366.0</ele>
        <time>2019-05-04T07:47:44.000Z</time>
      </trkpt>
      <trkpt lat="42.73044204711914" lon="-8.304645538330078">
        <ele>366.0</ele>
        <time>2019-05-04T07:47:44.000Z</time>
      </trkpt>
      <trkpt lat="42.73045349121094" lon="-8.304697036743164">
        <ele>366.0</ele>
        <time>2019-05-04T07:47:46.000Z</time>
      </trkpt>
      <trkpt lat="42.73046875" lon="-8.304766654968262">
        <ele>366.0</ele>
        <time>2019-05-04T07:47:49.000Z</time>
      </trkpt>
      <trkpt lat="42.73048400878906" lon="-8.304849624633789">
        <ele>366.0</ele>
        <time>2019-05-04T07:47:51.000Z</time>
      </trkpt>
      <trkpt lat="42.73050308227539" lon="-8.304939270019531">
        <ele>366.0</ele>
        <time>2019-05-04T07:47:53.000Z</time>
      </trkpt>
      <trkpt lat="42.73054122924805" lon="-8.304971694946289">
        <ele>366.0</ele>
        <time>2019-05-04T07:47:55.000Z</time>
      </trkpt>
      <trkpt lat="42.7305908203125" lon="-8.304988861083984">
        <ele>366.0</ele>
        <time>2019-05-04T07:47:56.000Z</time>
      </trkpt>
      <trkpt lat="42.73064422607422" lon="-8.304993629455566">
        <ele>366.0</ele>
        <time>2019-05-04T07:47:58.000Z</time>
      </trkpt>
      <trkpt lat="42.7307014465332" lon="-8.304993629455566">
        <ele>366.0</ele>
        <time>2019-05-04T07:47:59.000Z</time>
      </trkpt>
      <trkpt lat="42.73073959350586" lon="-8.305009841918945">
        <ele>366.0</ele>
        <time>2019-05-04T07:48:01.000Z</time>
      </trkpt>
      <trkpt lat="42.73077392578125" lon="-8.305027961730957">
        <ele>366.0</ele>
        <time>2019-05-04T07:48:03.000Z</time>
      </trkpt>
      <trkpt lat="42.730804443359375" lon="-8.305047988891602">
        <ele>366.0</ele>
        <time>2019-05-04T07:48:04.000Z</time>
      </trkpt>
      <trkpt lat="42.730831146240234" lon="-8.30506706237793">
        <ele>366.0</ele>
        <time>2019-05-04T07:48:06.000Z</time>
      </trkpt>
      <trkpt lat="42.73085403442383" lon="-8.305130958557129">
        <ele>366.0</ele>
        <time>2019-05-04T07:48:13.000Z</time>
      </trkpt>
      <trkpt lat="42.730865478515625" lon="-8.30521297454834">
        <ele>365.0</ele>
        <time>2019-05-04T07:48:21.000Z</time>
      </trkpt>
      <trkpt lat="42.73087692260742" lon="-8.30530834197998">
        <ele>364.0</ele>
        <time>2019-05-04T07:48:28.000Z</time>
      </trkpt>
      <trkpt lat="42.73088836669922" lon="-8.30540943145752">
        <ele>364.0</ele>
        <time>2019-05-04T07:48:35.000Z</time>
      </trkpt>
      <trkpt lat="42.730926513671875" lon="-8.305490493774414">
        <ele>363.0</ele>
        <time>2019-05-04T07:48:41.000Z</time>
      </trkpt>
      <trkpt lat="42.73096466064453" lon="-8.305529594421387">
        <ele>364.0</ele>
        <time>2019-05-04T07:48:46.000Z</time>
      </trkpt>
      <trkpt lat="42.730987548828125" lon="-8.305542945861816">
        <ele>364.0</ele>
        <time>2019-05-04T07:48:48.000Z</time>
      </trkpt>
      <trkpt lat="42.73101043701172" lon="-8.305549621582031">
        <ele>363.0</ele>
        <time>2019-05-04T07:48:50.000Z</time>
      </trkpt>
      <trkpt lat="42.73102951049805" lon="-8.305551528930664">
        <ele>363.0</ele>
        <time>2019-05-04T07:48:51.000Z</time>
      </trkpt>
      <trkpt lat="42.731056213378906" lon="-8.305551528930664">
        <ele>363.0</ele>
        <time>2019-05-04T07:48:53.000Z</time>
      </trkpt>
      <trkpt lat="42.7310791015625" lon="-8.305585861206055">
        <ele>363.0</ele>
        <time>2019-05-04T07:48:55.000Z</time>
      </trkpt>
      <trkpt lat="42.731101989746094" lon="-8.305631637573242">
        <ele>362.0</ele>
        <time>2019-05-04T07:48:58.000Z</time>
      </trkpt>
      <trkpt lat="42.73112487792969" lon="-8.305685997009277">
        <ele>362.0</ele>
        <time>2019-05-04T07:49:00.000Z</time>
      </trkpt>
      <trkpt lat="42.73114776611328" lon="-8.305744171142578">
        <ele>362.0</ele>
        <time>2019-05-04T07:49:02.000Z</time>
      </trkpt>
      <trkpt lat="42.73116683959961" lon="-8.305757522583008">
        <ele>362.0</ele>
        <time>2019-05-04T07:49:04.000Z</time>
      </trkpt>
      <trkpt lat="42.73118591308594" lon="-8.305756568908691">
        <ele>362.0</ele>
        <time>2019-05-04T07:49:05.000Z</time>
      </trkpt>
      <trkpt lat="42.731197357177734" lon="-8.305746078491211">
        <ele>362.0</ele>
        <time>2019-05-04T07:49:07.000Z</time>
      </trkpt>
      <trkpt lat="42.7312126159668" lon="-8.305730819702148">
        <ele>362.0</ele>
        <time>2019-05-04T07:49:08.000Z</time>
      </trkpt>
      <trkpt lat="42.731204986572266" lon="-8.305736541748047">
        <ele>361.0</ele>
        <time>2019-05-04T07:49:10.000Z</time>
      </trkpt>
      <trkpt lat="42.7311897277832" lon="-8.305747032165527">
        <ele>361.0</ele>
        <time>2019-05-04T07:49:12.000Z</time>
      </trkpt>
      <trkpt lat="42.73116683959961" lon="-8.305758476257324">
        <ele>361.0</ele>
        <time>2019-05-04T07:49:13.000Z</time>
      </trkpt>
      <trkpt lat="42.73114013671875" lon="-8.30577278137207">
        <ele>360.0</ele>
        <time>2019-05-04T07:49:15.000Z</time>
      </trkpt>
      <trkpt lat="42.731163024902344" lon="-8.305802345275879">
        <ele>360.0</ele>
        <time>2019-05-04T07:49:19.000Z</time>
      </trkpt>
      <trkpt lat="42.731197357177734" lon="-8.305841445922852">
        <ele>359.0</ele>
        <time>2019-05-04T07:49:22.000Z</time>
      </trkpt>
      <trkpt lat="42.73124694824219" lon="-8.305886268615723">
        <ele>359.0</ele>
        <time>2019-05-04T07:49:26.000Z</time>
      </trkpt>
      <trkpt lat="42.73129653930664" lon="-8.305932998657227">
        <ele>358.0</ele>
        <time>2019-05-04T07:49:29.000Z</time>
      </trkpt>
      <trkpt lat="42.731319427490234" lon="-8.305980682373047">
        <ele>358.0</ele>
        <time>2019-05-04T07:49:32.000Z</time>
      </trkpt>
      <trkpt lat="42.73133087158203" lon="-8.306031227111816">
        <ele>357.0</ele>
        <time>2019-05-04T07:49:36.000Z</time>
      </trkpt>
      <trkpt lat="42.7313346862793" lon="-8.306083679199219">
        <ele>357.0</ele>
        <time>2019-05-04T07:49:39.000Z</time>
      </trkpt>
      <trkpt lat="42.73133850097656" lon="-8.306137084960938">
        <ele>357.0</ele>
        <time>2019-05-04T07:49:42.000Z</time>
      </trkpt>
      <trkpt lat="42.73136520385742" lon="-8.306225776672363">
        <ele>356.0</ele>
        <time>2019-05-04T07:49:48.000Z</time>
      </trkpt>
      <trkpt lat="42.73139190673828" lon="-8.306329727172852">
        <ele>355.0</ele>
        <time>2019-05-04T07:49:54.000Z</time>
      </trkpt>
      <trkpt lat="42.73142623901367" lon="-8.306443214416504">
        <ele>353.0</ele>
        <time>2019-05-04T07:50:00.000Z</time>
      </trkpt>
      <trkpt lat="42.73146438598633" lon="-8.306563377380371">
        <ele>352.0</ele>
        <time>2019-05-04T07:50:06.000Z</time>
      </trkpt>
      <trkpt lat="42.73149490356445" lon="-8.306671142578125">
        <ele>349.0</ele>
        <time>2019-05-04T07:50:15.000Z</time>
      </trkpt>
      <trkpt lat="42.73152542114258" lon="-8.306780815124512">
        <ele>346.0</ele>
        <time>2019-05-04T07:50:23.000Z</time>
      </trkpt>
      <trkpt lat="42.7315559387207" lon="-8.306891441345215">
        <ele>342.0</ele>
        <time>2019-05-04T07:50:32.000Z</time>
      </trkpt>
      <trkpt lat="42.73158645629883" lon="-8.307002067565918">
        <ele>339.0</ele>
        <time>2019-05-04T07:50:40.000Z</time>
      </trkpt>
      <trkpt lat="42.731605529785156" lon="-8.307116508483887">
        <ele>338.0</ele>
        <time>2019-05-04T07:50:48.000Z</time>
      </trkpt>
      <trkpt lat="42.73161697387695" lon="-8.307232856750488">
        <ele>338.0</ele>
        <time>2019-05-04T07:50:57.000Z</time>
      </trkpt>
      <trkpt lat="42.73162841796875" lon="-8.307350158691406">
        <ele>339.0</ele>
        <time>2019-05-04T07:51:05.000Z</time>
      </trkpt>
      <trkpt lat="42.73163986206055" lon="-8.30746841430664">
        <ele>341.0</ele>
        <time>2019-05-04T07:51:13.000Z</time>
      </trkpt>
      <trkpt lat="42.73165512084961" lon="-8.307581901550293">
        <ele>341.0</ele>
        <time>2019-05-04T07:51:20.000Z</time>
      </trkpt>
      <trkpt lat="42.73167419433594" lon="-8.307693481445312">
        <ele>340.0</ele>
        <time>2019-05-04T07:51:27.000Z</time>
      </trkpt>
      <trkpt lat="42.731693267822266" lon="-8.307805061340332">
        <ele>340.0</ele>
        <time>2019-05-04T07:51:33.000Z</time>
      </trkpt>
      <trkpt lat="42.731712341308594" lon="-8.307915687561035">
        <ele>339.0</ele>
        <time>2019-05-04T07:51:40.000Z</time>
      </trkpt>
      <trkpt lat="42.731712341308594" lon="-8.30800724029541">
        <ele>339.0</ele>
        <time>2019-05-04T07:51:45.000Z</time>
      </trkpt>
      <trkpt lat="42.73170852661133" lon="-8.308091163635254">
        <ele>339.0</ele>
        <time>2019-05-04T07:51:51.000Z</time>
      </trkpt>
      <trkpt lat="42.7317008972168" lon="-8.3081693649292">
        <ele>340.0</ele>
        <time>2019-05-04T07:51:56.000Z</time>
      </trkpt>
      <trkpt lat="42.731689453125" lon="-8.308244705200195">
        <ele>340.0</ele>
        <time>2019-05-04T07:52:01.000Z</time>
      </trkpt>
      <trkpt lat="42.731712341308594" lon="-8.308289527893066">
        <ele>340.0</ele>
        <time>2019-05-04T07:52:04.000Z</time>
      </trkpt>
      <trkpt lat="42.73175048828125" lon="-8.308320045471191">
        <ele>340.0</ele>
        <time>2019-05-04T07:52:08.000Z</time>
      </trkpt>
      <trkpt lat="42.73179626464844" lon="-8.308340072631836">
        <ele>339.0</ele>
        <time>2019-05-04T07:52:11.000Z</time>
      </trkpt>
      <trkpt lat="42.731849670410156" lon="-8.308354377746582">
        <ele>339.0</ele>
        <time>2019-05-04T07:52:14.000Z</time>
      </trkpt>
      <trkpt lat="42.73191833496094" lon="-8.308392524719238">
        <ele>339.0</ele>
        <time>2019-05-04T07:52:22.000Z</time>
      </trkpt>
      <trkpt lat="42.731998443603516" lon="-8.308435440063477">
        <ele>338.0</ele>
        <time>2019-05-04T07:52:29.000Z</time>
      </trkpt>
      <trkpt lat="42.732086181640625" lon="-8.308481216430664">
        <ele>338.0</ele>
        <time>2019-05-04T07:52:37.000Z</time>
      </trkpt>
      <trkpt lat="42.732181549072266" lon="-8.308527946472168">
        <ele>338.0</ele>
        <time>2019-05-04T07:52:44.000Z</time>
      </trkpt>
      <trkpt lat="42.73222732543945" lon="-8.308578491210938">
        <ele>338.0</ele>
        <time>2019-05-04T07:52:51.000Z</time>
      </trkpt>
      <trkpt lat="42.732215881347656" lon="-8.308611869812012">
        <ele>339.0</ele>
        <time>2019-05-04T07:52:57.000Z</time>
      </trkpt>
      <trkpt lat="42.73222351074219" lon="-8.308623313903809">
        <ele>339.0</ele>
        <time>2019-05-04T07:53:02.000Z</time>
      </trkpt>
      <trkpt lat="42.73222732543945" lon="-8.308629989624023">
        <ele>339.0</ele>
        <time>2019-05-04T07:53:07.000Z</time>
      </trkpt>
      <trkpt lat="42.73223114013672" lon="-8.308634757995605">
        <ele>340.0</ele>
        <time>2019-05-04T07:53:12.000Z</time>
      </trkpt>
      <trkpt lat="42.732234954833984" lon="-8.308637619018555">
        <ele>340.0</ele>
        <time>2019-05-04T07:53:17.000Z</time>
      </trkpt>
      <trkpt lat="42.73223876953125" lon="-8.308643341064453">
        <ele>340.0</ele>
        <time>2019-05-04T07:53:17.000Z</time>
      </trkpt>
      <trkpt lat="42.732242584228516" lon="-8.308648109436035">
        <ele>340.0</ele>
        <time>2019-05-04T07:53:18.000Z</time>
      </trkpt>
      <trkpt lat="42.73224639892578" lon="-8.308652877807617">
        <ele>340.0</ele>
        <time>2019-05-04T07:53:18.000Z</time>
      </trkpt>
      <trkpt lat="42.73225021362305" lon="-8.3086576461792">
        <ele>340.0</ele>
        <time>2019-05-04T07:53:18.000Z</time>
      </trkpt>
      <trkpt lat="42.73229217529297" lon="-8.308713912963867">
        <ele>340.0</ele>
        <time>2019-05-04T07:53:23.000Z</time>
      </trkpt>
      <trkpt lat="42.73235321044922" lon="-8.308792114257812">
        <ele>340.0</ele>
        <time>2019-05-04T07:53:27.000Z</time>
      </trkpt>
      <trkpt lat="42.732425689697266" lon="-8.308883666992188">
        <ele>341.0</ele>
        <time>2019-05-04T07:53:32.000Z</time>
      </trkpt>
      <trkpt lat="42.73250198364258" lon="-8.308982849121094">
        <ele>341.0</ele>
        <time>2019-05-04T07:53:36.000Z</time>
      </trkpt>
      <trkpt lat="42.732540130615234" lon="-8.309028625488281">
        <ele>341.0</ele>
        <time>2019-05-04T07:53:42.000Z</time>
      </trkpt>
      <trkpt lat="42.73256301879883" lon="-8.309059143066406">
        <ele>341.0</ele>
        <time>2019-05-04T07:53:49.000Z</time>
      </trkpt>
      <trkpt lat="42.732582092285156" lon="-8.309080123901367">
        <ele>341.0</ele>
        <time>2019-05-04T07:53:55.000Z</time>
      </trkpt>
      <trkpt lat="42.73259353637695" lon="-8.30909538269043">
        <ele>341.0</ele>
        <time>2019-05-04T07:54:01.000Z</time>
      </trkpt>
      <trkpt lat="42.732608795166016" lon="-8.30910873413086">
        <ele>341.0</ele>
        <time>2019-05-04T07:54:22.000Z</time>
      </trkpt>
      <trkpt lat="42.73262023925781" lon="-8.309115409851074">
        <ele>341.0</ele>
        <time>2019-05-04T07:54:44.000Z</time>
      </trkpt>
      <trkpt lat="42.73263168334961" lon="-8.309118270874023">
        <ele>341.0</ele>
        <time>2019-05-04T07:55:05.000Z</time>
      </trkpt>
      <trkpt lat="42.73263931274414" lon="-8.30911922454834">
        <ele>341.0</ele>
        <time>2019-05-04T07:55:26.000Z</time>
      </trkpt>
      <trkpt lat="42.73267364501953" lon="-8.309136390686035">
        <ele>341.0</ele>
        <time>2019-05-04T07:55:27.000Z</time>
      </trkpt>
      <trkpt lat="42.732906341552734" lon="-8.30926513671875">
        <ele>341.0</ele>
        <time>2019-05-04T07:55:33.000Z</time>
      </trkpt>
      <trkpt lat="42.732933044433594" lon="-8.309293746948242">
        <ele>341.0</ele>
        <time>2019-05-04T07:55:36.000Z</time>
      </trkpt>
      <trkpt lat="42.73294448852539" lon="-8.309320449829102">
        <ele>340.0</ele>
        <time>2019-05-04T07:55:38.000Z</time>
      </trkpt>
      <trkpt lat="42.732948303222656" lon="-8.309347152709961">
        <ele>340.0</ele>
        <time>2019-05-04T07:55:41.000Z</time>
      </trkpt>
      <trkpt lat="42.73294448852539" lon="-8.309372901916504">
        <ele>339.0</ele>
        <time>2019-05-04T07:55:43.000Z</time>
      </trkpt>
      <trkpt lat="42.73295593261719" lon="-8.309388160705566">
        <ele>339.0</ele>
        <time>2019-05-04T07:55:50.000Z</time>
      </trkpt>
      <trkpt lat="42.732967376708984" lon="-8.309386253356934">
        <ele>338.0</ele>
        <time>2019-05-04T07:55:56.000Z</time>
      </trkpt>
      <trkpt lat="42.73297119140625" lon="-8.309388160705566">
        <ele>338.0</ele>
        <time>2019-05-04T07:55:56.000Z</time>
      </trkpt>
      <trkpt lat="42.732975006103516" lon="-8.309391021728516">
        <ele>338.0</ele>
        <time>2019-05-04T07:55:57.000Z</time>
      </trkpt>
      <trkpt lat="42.73297882080078" lon="-8.309393882751465">
        <ele>338.0</ele>
        <time>2019-05-04T07:55:57.000Z</time>
      </trkpt>
      <trkpt lat="42.73298263549805" lon="-8.309395790100098">
        <ele>338.0</ele>
        <time>2019-05-04T07:55:57.000Z</time>
      </trkpt>
      <trkpt lat="42.733036041259766" lon="-8.309431076049805">
        <ele>337.0</ele>
        <time>2019-05-04T07:56:03.000Z</time>
      </trkpt>
      <trkpt lat="42.73311233520508" lon="-8.309479713439941">
        <ele>337.0</ele>
        <time>2019-05-04T07:56:08.000Z</time>
      </trkpt>
      <trkpt lat="42.73320007324219" lon="-8.309537887573242">
        <ele>336.0</ele>
        <time>2019-05-04T07:56:14.000Z</time>
      </trkpt>
      <trkpt lat="42.733299255371094" lon="-8.309599876403809">
        <ele>335.0</ele>
        <time>2019-05-04T07:56:19.000Z</time>
      </trkpt>
      <trkpt lat="42.73334503173828" lon="-8.30962085723877">
        <ele>334.0</ele>
        <time>2019-05-04T07:56:22.000Z</time>
      </trkpt>
      <trkpt lat="42.733375549316406" lon="-8.3096284866333">
        <ele>334.0</ele>
        <time>2019-05-04T07:56:24.000Z</time>
      </trkpt>
      <trkpt lat="42.733394622802734" lon="-8.3096284866333">
        <ele>334.0</ele>
        <time>2019-05-04T07:56:27.000Z</time>
      </trkpt>
      <trkpt lat="42.73341369628906" lon="-8.309623718261719">
        <ele>334.0</ele>
        <time>2019-05-04T07:56:29.000Z</time>
      </trkpt>
      <trkpt lat="42.733428955078125" lon="-8.309626579284668">
        <ele>333.0</ele>
        <time>2019-05-04T07:56:34.000Z</time>
      </trkpt>
      <trkpt lat="42.73344039916992" lon="-8.309627532958984">
        <ele>333.0</ele>
        <time>2019-05-04T07:56:38.000Z</time>
      </trkpt>
      <trkpt lat="42.73344802856445" lon="-8.309627532958984">
        <ele>332.0</ele>
        <time>2019-05-04T07:56:43.000Z</time>
      </trkpt>
      <trkpt lat="42.733455657958984" lon="-8.309626579284668">
        <ele>331.0</ele>
        <time>2019-05-04T07:56:47.000Z</time>
      </trkpt>
      <trkpt lat="42.733463287353516" lon="-8.309627532958984">
        <ele>331.0</ele>
        <time>2019-05-04T07:56:47.000Z</time>
      </trkpt>
      <trkpt lat="42.73347091674805" lon="-8.309627532958984">
        <ele>331.0</ele>
        <time>2019-05-04T07:56:48.000Z</time>
      </trkpt>
      <trkpt lat="42.73347854614258" lon="-8.309627532958984">
        <ele>331.0</ele>
        <time>2019-05-04T07:56:48.000Z</time>
      </trkpt>
      <trkpt lat="42.73348617553711" lon="-8.3096284866333">
        <ele>331.0</ele>
        <time>2019-05-04T07:56:48.000Z</time>
      </trkpt>
      <trkpt lat="42.733585357666016" lon="-8.30964183807373">
        <ele>331.0</ele>
        <time>2019-05-04T07:56:51.000Z</time>
      </trkpt>
      <trkpt lat="42.733585357666016" lon="-8.309640884399414">
        <ele>329.0</ele>
        <time>2019-05-04T07:57:15.000Z</time>
      </trkpt>
      <trkpt lat="42.73358917236328" lon="-8.309640884399414">
        <ele>329.0</ele>
        <time>2019-05-04T07:57:16.000Z</time>
      </trkpt>
      <trkpt lat="42.73365020751953" lon="-8.30963134765625">
        <ele>329.0</ele>
        <time>2019-05-04T07:57:21.000Z</time>
      </trkpt>
      <trkpt lat="42.733680725097656" lon="-8.309627532958984">
        <ele>328.0</ele>
        <time>2019-05-04T07:57:23.000Z</time>
      </trkpt>
      <trkpt lat="42.733699798583984" lon="-8.309625625610352">
        <ele>328.0</ele>
        <time>2019-05-04T07:57:24.000Z</time>
      </trkpt>
      <trkpt lat="42.733787536621094" lon="-8.309614181518555">
        <ele>328.0</ele>
        <time>2019-05-04T07:57:27.000Z</time>
      </trkpt>
      <trkpt lat="42.73389434814453" lon="-8.309608459472656">
        <ele>324.0</ele>
        <time>2019-05-04T07:57:48.000Z</time>
      </trkpt>
      <trkpt lat="42.733943939208984" lon="-8.309606552124023">
        <ele>324.0</ele>
        <time>2019-05-04T07:57:49.000Z</time>
      </trkpt>
      <trkpt lat="42.734256744384766" lon="-8.309475898742676">
        <ele>322.0</ele>
        <time>2019-05-04T07:58:07.000Z</time>
      </trkpt>
      <trkpt lat="42.73428726196289" lon="-8.309477806091309">
        <ele>321.0</ele>
        <time>2019-05-04T07:58:24.000Z</time>
      </trkpt>
      <trkpt lat="42.73430633544922" lon="-8.309478759765625">
        <ele>321.0</ele>
        <time>2019-05-04T07:58:25.000Z</time>
      </trkpt>
      <trkpt lat="42.734405517578125" lon="-8.309481620788574">
        <ele>321.0</ele>
        <time>2019-05-04T07:58:29.000Z</time>
      </trkpt>
      <trkpt lat="42.734458923339844" lon="-8.309464454650879">
        <ele>320.0</ele>
        <time>2019-05-04T07:58:36.000Z</time>
      </trkpt>
      <trkpt lat="42.734493255615234" lon="-8.309453964233398">
        <ele>320.0</ele>
        <time>2019-05-04T07:58:37.000Z</time>
      </trkpt>
      <trkpt lat="42.73482894897461" lon="-8.309332847595215">
        <ele>319.0</ele>
        <time>2019-05-04T07:58:55.000Z</time>
      </trkpt>
      <trkpt lat="42.734893798828125" lon="-8.309258460998535">
        <ele>320.0</ele>
        <time>2019-05-04T07:59:05.000Z</time>
      </trkpt>
      <trkpt lat="42.73497772216797" lon="-8.309198379516602">
        <ele>317.0</ele>
        <time>2019-05-04T07:59:16.000Z</time>
      </trkpt>
      <trkpt lat="42.73500442504883" lon="-8.30917739868164">
        <ele>317.0</ele>
        <time>2019-05-04T07:59:17.000Z</time>
      </trkpt>
      <trkpt lat="42.73515701293945" lon="-8.309100151062012">
        <ele>313.0</ele>
        <time>2019-05-04T07:59:30.000Z</time>
      </trkpt>
      <trkpt lat="42.735267639160156" lon="-8.30906867980957">
        <ele>308.0</ele>
        <time>2019-05-04T07:59:51.000Z</time>
      </trkpt>
      <trkpt lat="42.73530197143555" lon="-8.309059143066406">
        <ele>308.0</ele>
        <time>2019-05-04T07:59:52.000Z</time>
      </trkpt>
      <trkpt lat="42.73548126220703" lon="-8.308991432189941">
        <ele>305.0</ele>
        <time>2019-05-04T08:00:04.000Z</time>
      </trkpt>
      <trkpt lat="42.73554229736328" lon="-8.30894947052002">
        <ele>301.0</ele>
        <time>2019-05-04T08:00:19.000Z</time>
      </trkpt>
      <trkpt lat="42.735572814941406" lon="-8.308929443359375">
        <ele>301.0</ele>
        <time>2019-05-04T08:00:20.000Z</time>
      </trkpt>
      <trkpt lat="42.73573684692383" lon="-8.30884075164795">
        <ele>299.0</ele>
        <time>2019-05-04T08:00:31.000Z</time>
      </trkpt>
      <trkpt lat="42.73579788208008" lon="-8.308830261230469">
        <ele>296.0</ele>
        <time>2019-05-04T08:00:47.000Z</time>
      </trkpt>
      <trkpt lat="42.7358283996582" lon="-8.30882453918457">
        <ele>296.0</ele>
        <time>2019-05-04T08:00:48.000Z</time>
      </trkpt>
      <trkpt lat="42.73604202270508" lon="-8.308738708496094">
        <ele>293.0</ele>
        <time>2019-05-04T08:01:03.000Z</time>
      </trkpt>
      <trkpt lat="42.73612976074219" lon="-8.3087158203125">
        <ele>290.0</ele>
        <time>2019-05-04T08:01:12.000Z</time>
      </trkpt>
      <trkpt lat="42.73616409301758" lon="-8.308706283569336">
        <ele>290.0</ele>
        <time>2019-05-04T08:01:13.000Z</time>
      </trkpt>
      <trkpt lat="42.73651885986328" lon="-8.308722496032715">
        <ele>283.0</ele>
        <time>2019-05-04T08:01:31.000Z</time>
      </trkpt>
      <trkpt lat="42.73655700683594" lon="-8.308698654174805">
        <ele>283.0</ele>
        <time>2019-05-04T08:01:40.000Z</time>
      </trkpt>
      <trkpt lat="42.7365608215332" lon="-8.30870246887207">
        <ele>280.0</ele>
        <time>2019-05-04T08:01:51.000Z</time>
      </trkpt>
      <trkpt lat="42.73656463623047" lon="-8.308711051940918">
        <ele>276.0</ele>
        <time>2019-05-04T08:02:02.000Z</time>
      </trkpt>
      <trkpt lat="42.73656463623047" lon="-8.308722496032715">
        <ele>272.0</ele>
        <time>2019-05-04T08:02:13.000Z</time>
      </trkpt>
      <trkpt lat="42.736568450927734" lon="-8.308734893798828">
        <ele>268.0</ele>
        <time>2019-05-04T08:02:24.000Z</time>
      </trkpt>
      <trkpt lat="42.736568450927734" lon="-8.30874252319336">
        <ele>266.0</ele>
        <time>2019-05-04T08:02:24.000Z</time>
      </trkpt>
      <trkpt lat="42.736572265625" lon="-8.308749198913574">
        <ele>266.0</ele>
        <time>2019-05-04T08:02:25.000Z</time>
      </trkpt>
      <trkpt lat="42.736572265625" lon="-8.308755874633789">
        <ele>267.0</ele>
        <time>2019-05-04T08:02:25.000Z</time>
      </trkpt>
      <trkpt lat="42.736576080322266" lon="-8.308762550354004">
        <ele>268.0</ele>
        <time>2019-05-04T08:02:25.000Z</time>
      </trkpt>
      <trkpt lat="42.736610412597656" lon="-8.308830261230469">
        <ele>267.0</ele>
        <time>2019-05-04T08:02:30.000Z</time>
      </trkpt>
      <trkpt lat="42.736656188964844" lon="-8.30892276763916">
        <ele>266.0</ele>
        <time>2019-05-04T08:02:36.000Z</time>
      </trkpt>
      <trkpt lat="42.73671340942383" lon="-8.309033393859863">
        <ele>265.0</ele>
        <time>2019-05-04T08:02:41.000Z</time>
      </trkpt>
      <trkpt lat="42.73677444458008" lon="-8.309151649475098">
        <ele>263.0</ele>
        <time>2019-05-04T08:02:46.000Z</time>
      </trkpt>
      <trkpt lat="42.73691940307617" lon="-8.309277534484863">
        <ele>265.0</ele>
        <time>2019-05-04T08:03:05.000Z</time>
      </trkpt>
      <trkpt lat="42.73707962036133" lon="-8.309370994567871">
        <ele>268.0</ele>
        <time>2019-05-04T08:03:23.000Z</time>
      </trkpt>
      <trkpt lat="42.73714065551758" lon="-8.309398651123047">
        <ele>269.0</ele>
        <time>2019-05-04T08:03:27.000Z</time>
      </trkpt>
      <trkpt lat="42.73719024658203" lon="-8.309414863586426">
        <ele>270.0</ele>
        <time>2019-05-04T08:03:31.000Z</time>
      </trkpt>
      <trkpt lat="42.73723602294922" lon="-8.309423446655273">
        <ele>270.0</ele>
        <time>2019-05-04T08:03:35.000Z</time>
      </trkpt>
      <trkpt lat="42.73727798461914" lon="-8.309427261352539">
        <ele>271.0</ele>
        <time>2019-05-04T08:03:39.000Z</time>
      </trkpt>
      <trkpt lat="42.73731231689453" lon="-8.309459686279297">
        <ele>272.0</ele>
        <time>2019-05-04T08:03:43.000Z</time>
      </trkpt>
      <trkpt lat="42.737342834472656" lon="-8.309499740600586">
        <ele>272.0</ele>
        <time>2019-05-04T08:03:46.000Z</time>
      </trkpt>
      <trkpt lat="42.73736572265625" lon="-8.309544563293457">
        <ele>272.0</ele>
        <time>2019-05-04T08:03:50.000Z</time>
      </trkpt>
      <trkpt lat="42.73738479614258" lon="-8.309592247009277">
        <ele>273.0</ele>
        <time>2019-05-04T08:03:53.000Z</time>
      </trkpt>
      <trkpt lat="42.737449645996094" lon="-8.309640884399414">
        <ele>273.0</ele>
        <time>2019-05-04T08:04:01.000Z</time>
      </trkpt>
      <trkpt lat="42.737525939941406" lon="-8.309691429138184">
        <ele>274.0</ele>
        <time>2019-05-04T08:04:08.000Z</time>
      </trkpt>
      <trkpt lat="42.73761749267578" lon="-8.309743881225586">
        <ele>275.0</ele>
        <time>2019-05-04T08:04:16.000Z</time>
      </trkpt>
      <trkpt lat="42.737709045410156" lon="-8.309797286987305">
        <ele>276.0</ele>
        <time>2019-05-04T08:04:23.000Z</time>
      </trkpt>
      <trkpt lat="42.73778533935547" lon="-8.309856414794922">
        <ele>275.0</ele>
        <time>2019-05-04T08:04:30.000Z</time>
      </trkpt>
      <trkpt lat="42.737857818603516" lon="-8.309917449951172">
        <ele>274.0</ele>
        <time>2019-05-04T08:04:36.000Z</time>
      </trkpt>
      <trkpt lat="42.73793411254883" lon="-8.309981346130371">
        <ele>273.0</ele>
        <time>2019-05-04T08:04:43.000Z</time>
      </trkpt>
      <trkpt lat="42.73800277709961" lon="-8.31004524230957">
        <ele>272.0</ele>
        <time>2019-05-04T08:04:49.000Z</time>
      </trkpt>
      <trkpt lat="42.73807144165039" lon="-8.3101224899292">
        <ele>270.0</ele>
        <time>2019-05-04T08:04:57.000Z</time>
      </trkpt>
      <trkpt lat="42.738136291503906" lon="-8.31020450592041">
        <ele>269.0</ele>
        <time>2019-05-04T08:05:04.000Z</time>
      </trkpt>
      <trkpt lat="42.73820114135742" lon="-8.310291290283203">
        <ele>267.0</ele>
        <time>2019-05-04T08:05:12.000Z</time>
      </trkpt>
      <trkpt lat="42.73826217651367" lon="-8.310379981994629">
        <ele>266.0</ele>
        <time>2019-05-04T08:05:19.000Z</time>
      </trkpt>
      <trkpt lat="42.73831558227539" lon="-8.310604095458984">
        <ele>265.0</ele>
        <time>2019-05-04T08:05:33.000Z</time>
      </trkpt>
      <trkpt lat="42.73833465576172" lon="-8.310853958129883">
        <ele>265.0</ele>
        <time>2019-05-04T08:05:47.000Z</time>
      </trkpt>
      <trkpt lat="42.73835754394531" lon="-8.3109712600708">
        <ele>265.0</ele>
        <time>2019-05-04T08:05:54.000Z</time>
      </trkpt>
      <trkpt lat="42.73838424682617" lon="-8.311086654663086">
        <ele>264.0</ele>
        <time>2019-05-04T08:06:02.000Z</time>
      </trkpt>
      <trkpt lat="42.7384147644043" lon="-8.311203002929688">
        <ele>264.0</ele>
        <time>2019-05-04T08:06:09.000Z</time>
      </trkpt>
      <trkpt lat="42.738441467285156" lon="-8.311318397521973">
        <ele>263.0</ele>
        <time>2019-05-04T08:06:16.000Z</time>
      </trkpt>
      <trkpt lat="42.73847961425781" lon="-8.311427116394043">
        <ele>263.0</ele>
        <time>2019-05-04T08:06:24.000Z</time>
      </trkpt>
      <trkpt lat="42.738521575927734" lon="-8.31153392791748">
        <ele>263.0</ele>
        <time>2019-05-04T08:06:31.000Z</time>
      </trkpt>
      <trkpt lat="42.73856735229492" lon="-8.311638832092285">
        <ele>264.0</ele>
        <time>2019-05-04T08:06:39.000Z</time>
      </trkpt>
      <trkpt lat="42.73861312866211" lon="-8.311742782592773">
        <ele>264.0</ele>
        <time>2019-05-04T08:06:46.000Z</time>
      </trkpt>
      <trkpt lat="42.738643646240234" lon="-8.311817169189453">
        <ele>264.0</ele>
        <time>2019-05-04T08:06:51.000Z</time>
      </trkpt>
      <trkpt lat="42.73866653442383" lon="-8.311880111694336">
        <ele>264.0</ele>
        <time>2019-05-04T08:06:57.000Z</time>
      </trkpt>
      <trkpt lat="42.73868179321289" lon="-8.311933517456055">
        <ele>264.0</ele>
        <time>2019-05-04T08:07:02.000Z</time>
      </trkpt>
      <trkpt lat="42.73870086669922" lon="-8.311983108520508">
        <ele>264.0</ele>
        <time>2019-05-04T08:07:07.000Z</time>
      </trkpt>
      <trkpt lat="42.738765716552734" lon="-8.312055587768555">
        <ele>265.0</ele>
        <time>2019-05-04T08:07:15.000Z</time>
      </trkpt>
      <trkpt lat="42.73884201049805" lon="-8.31210708618164">
        <ele>266.0</ele>
        <time>2019-05-04T08:07:22.000Z</time>
      </trkpt>
      <trkpt lat="42.73889923095703" lon="-8.31217098236084">
        <ele>266.0</ele>
        <time>2019-05-04T08:07:31.000Z</time>
      </trkpt>
      <trkpt lat="42.73896408081055" lon="-8.312248229980469">
        <ele>267.0</ele>
        <time>2019-05-04T08:07:39.000Z</time>
      </trkpt>
      <trkpt lat="42.739036560058594" lon="-8.312335014343262">
        <ele>267.0</ele>
        <time>2019-05-04T08:07:48.000Z</time>
      </trkpt>
      <trkpt lat="42.73910903930664" lon="-8.312426567077637">
        <ele>267.0</ele>
        <time>2019-05-04T08:07:56.000Z</time>
      </trkpt>
      <trkpt lat="42.73914337158203" lon="-8.312479019165039">
        <ele>267.0</ele>
        <time>2019-05-04T08:07:59.000Z</time>
      </trkpt>
      <trkpt lat="42.73916244506836" lon="-8.312520027160645">
        <ele>268.0</ele>
        <time>2019-05-04T08:08:03.000Z</time>
      </trkpt>
      <trkpt lat="42.73917007446289" lon="-8.312552452087402">
        <ele>268.0</ele>
        <time>2019-05-04T08:08:06.000Z</time>
      </trkpt>
      <trkpt lat="42.73917770385742" lon="-8.312582015991211">
        <ele>269.0</ele>
        <time>2019-05-04T08:08:09.000Z</time>
      </trkpt>
      <trkpt lat="42.73922348022461" lon="-8.312609672546387">
        <ele>269.0</ele>
        <time>2019-05-04T08:08:15.000Z</time>
      </trkpt>
      <trkpt lat="42.73928451538086" lon="-8.312631607055664">
        <ele>270.0</ele>
        <time>2019-05-04T08:08:22.000Z</time>
      </trkpt>
      <trkpt lat="42.73935317993164" lon="-8.312650680541992">
        <ele>270.0</ele>
        <time>2019-05-04T08:08:28.000Z</time>
      </trkpt>
      <trkpt lat="42.73942565917969" lon="-8.312667846679688">
        <ele>270.0</ele>
        <time>2019-05-04T08:08:34.000Z</time>
      </trkpt>
      <trkpt lat="42.73947525024414" lon="-8.312685012817383">
        <ele>270.0</ele>
        <time>2019-05-04T08:08:36.000Z</time>
      </trkpt>
      <trkpt lat="42.73952102661133" lon="-8.312702178955078">
        <ele>270.0</ele>
        <time>2019-05-04T08:08:39.000Z</time>
      </trkpt>
      <trkpt lat="42.73956298828125" lon="-8.312718391418457">
        <ele>269.0</ele>
        <time>2019-05-04T08:08:41.000Z</time>
      </trkpt>
      <trkpt lat="42.739601135253906" lon="-8.31273365020752">
        <ele>268.0</ele>
        <time>2019-05-04T08:08:43.000Z</time>
      </trkpt>
      <trkpt lat="42.73966979980469" lon="-8.312820434570312">
        <ele>268.0</ele>
        <time>2019-05-04T08:08:52.000Z</time>
      </trkpt>
      <trkpt lat="42.73972702026367" lon="-8.312932968139648">
        <ele>269.0</ele>
        <time>2019-05-04T08:09:01.000Z</time>
      </trkpt>
      <trkpt lat="42.7397346496582" lon="-8.312993049621582">
        <ele>269.0</ele>
        <time>2019-05-04T08:09:05.000Z</time>
      </trkpt>
      <trkpt lat="42.73972702026367" lon="-8.313057899475098">
        <ele>269.0</ele>
        <time>2019-05-04T08:09:08.000Z</time>
      </trkpt>
      <trkpt lat="42.739715576171875" lon="-8.313125610351562">
        <ele>269.0</ele>
        <time>2019-05-04T08:09:12.000Z</time>
      </trkpt>
      <trkpt lat="42.73969650268555" lon="-8.31319522857666">
        <ele>269.0</ele>
        <time>2019-05-04T08:09:15.000Z</time>
      </trkpt>
      <trkpt lat="42.73967361450195" lon="-8.313294410705566">
        <ele>268.0</ele>
        <time>2019-05-04T08:09:22.000Z</time>
      </trkpt>
      <trkpt lat="42.73964309692383" lon="-8.313406944274902">
        <ele>267.0</ele>
        <time>2019-05-04T08:09:29.000Z</time>
      </trkpt>
      <trkpt lat="42.73960494995117" lon="-8.313529014587402">
        <ele>265.0</ele>
        <time>2019-05-04T08:09:36.000Z</time>
      </trkpt>
      <trkpt lat="42.73957061767578" lon="-8.313655853271484">
        <ele>264.0</ele>
        <time>2019-05-04T08:09:43.000Z</time>
      </trkpt>
      <trkpt lat="42.73955154418945" lon="-8.313736915588379">
        <ele>264.0</ele>
        <time>2019-05-04T08:09:47.000Z</time>
      </trkpt>
      <trkpt lat="42.73953628540039" lon="-8.313804626464844">
        <ele>264.0</ele>
        <time>2019-05-04T08:09:51.000Z</time>
      </trkpt>
      <trkpt lat="42.73952865600586" lon="-8.313862800598145">
        <ele>264.0</ele>
        <time>2019-05-04T08:09:54.000Z</time>
      </trkpt>
      <trkpt lat="42.73952102661133" lon="-8.313916206359863">
        <ele>264.0</ele>
        <time>2019-05-04T08:09:58.000Z</time>
      </trkpt>
      <trkpt lat="42.739532470703125" lon="-8.31397533416748">
        <ele>265.0</ele>
        <time>2019-05-04T08:10:02.000Z</time>
      </trkpt>
      <trkpt lat="42.73955154418945" lon="-8.314032554626465">
        <ele>266.0</ele>
        <time>2019-05-04T08:10:06.000Z</time>
      </trkpt>
      <trkpt lat="42.73957824707031" lon="-8.314088821411133">
        <ele>266.0</ele>
        <time>2019-05-04T08:10:09.000Z</time>
      </trkpt>
      <trkpt lat="42.73960876464844" lon="-8.314144134521484">
        <ele>267.0</ele>
        <time>2019-05-04T08:10:13.000Z</time>
      </trkpt>
      <trkpt lat="42.73965072631836" lon="-8.314229965209961">
        <ele>268.0</ele>
        <time>2019-05-04T08:10:21.000Z</time>
      </trkpt>
      <trkpt lat="42.73970031738281" lon="-8.31432819366455">
        <ele>269.0</ele>
        <time>2019-05-04T08:10:29.000Z</time>
      </trkpt>
      <trkpt lat="42.73975372314453" lon="-8.314435005187988">
        <ele>269.0</ele>
        <time>2019-05-04T08:10:37.000Z</time>
      </trkpt>
      <trkpt lat="42.739810943603516" lon="-8.314544677734375">
        <ele>270.0</ele>
        <time>2019-05-04T08:10:45.000Z</time>
      </trkpt>
      <trkpt lat="42.73987579345703" lon="-8.314623832702637">
        <ele>270.0</ele>
        <time>2019-05-04T08:10:52.000Z</time>
      </trkpt>
      <trkpt lat="42.73994827270508" lon="-8.31469440460205">
        <ele>270.0</ele>
        <time>2019-05-04T08:10:59.000Z</time>
      </trkpt>
      <trkpt lat="42.74002456665039" lon="-8.31475830078125">
        <ele>271.0</ele>
        <time>2019-05-04T08:11:06.000Z</time>
      </trkpt>
      <trkpt lat="42.7401008605957" lon="-8.314820289611816">
        <ele>271.0</ele>
        <time>2019-05-04T08:11:13.000Z</time>
      </trkpt>
      <trkpt lat="42.74018478393555" lon="-8.314835548400879">
        <ele>271.0</ele>
        <time>2019-05-04T08:11:21.000Z</time>
      </trkpt>
      <trkpt lat="42.74026870727539" lon="-8.314828872680664">
        <ele>271.0</ele>
        <time>2019-05-04T08:11:28.000Z</time>
      </trkpt>
      <trkpt lat="42.7403564453125" lon="-8.314807891845703">
        <ele>272.0</ele>
        <time>2019-05-04T08:11:36.000Z</time>
      </trkpt>
      <trkpt lat="42.740447998046875" lon="-8.314778327941895">
        <ele>272.0</ele>
        <time>2019-05-04T08:11:43.000Z</time>
      </trkpt>
      <trkpt lat="42.74056625366211" lon="-8.314825057983398">
        <ele>272.0</ele>
        <time>2019-05-04T08:11:55.000Z</time>
      </trkpt>
      <trkpt lat="42.74066162109375" lon="-8.314903259277344">
        <ele>273.0</ele>
        <time>2019-05-04T08:12:07.000Z</time>
      </trkpt>
      <trkpt lat="42.74065399169922" lon="-8.314972877502441">
        <ele>273.0</ele>
        <time>2019-05-04T08:12:13.000Z</time>
      </trkpt>
      <trkpt lat="42.740623474121094" lon="-8.315058708190918">
        <ele>273.0</ele>
        <time>2019-05-04T08:12:19.000Z</time>
      </trkpt>
      <trkpt lat="42.74057388305664" lon="-8.315155982971191">
        <ele>274.0</ele>
        <time>2019-05-04T08:12:24.000Z</time>
      </trkpt>
      <trkpt lat="42.740516662597656" lon="-8.31525707244873">
        <ele>274.0</ele>
        <time>2019-05-04T08:12:30.000Z</time>
      </trkpt>
      <trkpt lat="42.74049758911133" lon="-8.315484046936035">
        <ele>276.0</ele>
        <time>2019-05-04T08:12:45.000Z</time>
      </trkpt>
      <trkpt lat="42.74049758911133" lon="-8.315732955932617">
        <ele>279.0</ele>
        <time>2019-05-04T08:13:00.000Z</time>
      </trkpt>
      <trkpt lat="42.74051284790039" lon="-8.315847396850586">
        <ele>279.0</ele>
        <time>2019-05-04T08:13:08.000Z</time>
      </trkpt>
      <trkpt lat="42.740535736083984" lon="-8.315959930419922">
        <ele>280.0</ele>
        <time>2019-05-04T08:13:16.000Z</time>
      </trkpt>
      <trkpt lat="42.740562438964844" lon="-8.316071510314941">
        <ele>280.0</ele>
        <time>2019-05-04T08:13:23.000Z</time>
      </trkpt>
      <trkpt lat="42.74059295654297" lon="-8.316182136535645">
        <ele>281.0</ele>
        <time>2019-05-04T08:13:31.000Z</time>
      </trkpt>
      <trkpt lat="42.740631103515625" lon="-8.316287994384766">
        <ele>281.0</ele>
        <time>2019-05-04T08:13:38.000Z</time>
      </trkpt>
      <trkpt lat="42.74067687988281" lon="-8.316391944885254">
        <ele>281.0</ele>
        <time>2019-05-04T08:13:45.000Z</time>
      </trkpt>
      <trkpt lat="42.740726470947266" lon="-8.31649398803711">
        <ele>281.0</ele>
        <time>2019-05-04T08:13:52.000Z</time>
      </trkpt>
      <trkpt lat="42.740779876708984" lon="-8.316595077514648">
        <ele>282.0</ele>
        <time>2019-05-04T08:13:59.000Z</time>
      </trkpt>
      <trkpt lat="42.740814208984375" lon="-8.316705703735352">
        <ele>282.0</ele>
        <time>2019-05-04T08:14:06.000Z</time>
      </trkpt>
      <trkpt lat="42.7408447265625" lon="-8.31682014465332">
        <ele>282.0</ele>
        <time>2019-05-04T08:14:14.000Z</time>
      </trkpt>
      <trkpt lat="42.74087142944336" lon="-8.316936492919922">
        <ele>282.0</ele>
        <time>2019-05-04T08:14:21.000Z</time>
      </trkpt>
      <trkpt lat="42.74089813232422" lon="-8.31705379486084">
        <ele>282.0</ele>
        <time>2019-05-04T08:14:28.000Z</time>
      </trkpt>
      <trkpt lat="42.74090576171875" lon="-8.317172050476074">
        <ele>282.0</ele>
        <time>2019-05-04T08:14:36.000Z</time>
      </trkpt>
      <trkpt lat="42.740909576416016" lon="-8.317292213439941">
        <ele>282.0</ele>
        <time>2019-05-04T08:14:44.000Z</time>
      </trkpt>
      <trkpt lat="42.74090576171875" lon="-8.317413330078125">
        <ele>282.0</ele>
        <time>2019-05-04T08:14:51.000Z</time>
      </trkpt>
      <trkpt lat="42.74089813232422" lon="-8.317534446716309">
        <ele>282.0</ele>
        <time>2019-05-04T08:14:59.000Z</time>
      </trkpt>
      <trkpt lat="42.74090576171875" lon="-8.317654609680176">
        <ele>283.0</ele>
        <time>2019-05-04T08:15:07.000Z</time>
      </trkpt>
      <trkpt lat="42.74092102050781" lon="-8.317774772644043">
        <ele>285.0</ele>
        <time>2019-05-04T08:15:15.000Z</time>
      </trkpt>
      <trkpt lat="42.740936279296875" lon="-8.31789493560791">
        <ele>286.0</ele>
        <time>2019-05-04T08:15:23.000Z</time>
      </trkpt>
      <trkpt lat="42.7409553527832" lon="-8.318016052246094">
        <ele>288.0</ele>
        <time>2019-05-04T08:15:31.000Z</time>
      </trkpt>
      <trkpt lat="42.74104690551758" lon="-8.318203926086426">
        <ele>292.0</ele>
        <time>2019-05-04T08:16:13.000Z</time>
      </trkpt>
      <trkpt lat="42.741058349609375" lon="-8.318227767944336">
        <ele>296.0</ele>
        <time>2019-05-04T08:16:30.000Z</time>
      </trkpt>
      <trkpt lat="42.74106979370117" lon="-8.318246841430664">
        <ele>296.0</ele>
        <time>2019-05-04T08:16:31.000Z</time>
      </trkpt>
      <trkpt lat="42.741180419921875" lon="-8.31870174407959">
        <ele>297.0</ele>
        <time>2019-05-04T08:16:46.000Z</time>
      </trkpt>
      <trkpt lat="42.741310119628906" lon="-8.319154739379883">
        <ele>293.0</ele>
        <time>2019-05-04T08:17:12.000Z</time>
      </trkpt>
      <trkpt lat="42.741355895996094" lon="-8.319629669189453">
        <ele>293.0</ele>
        <time>2019-05-04T08:17:40.000Z</time>
      </trkpt>
      <trkpt lat="42.741416931152344" lon="-8.320089340209961">
        <ele>290.0</ele>
        <time>2019-05-04T08:18:08.000Z</time>
      </trkpt>
      <trkpt lat="42.7415885925293" lon="-8.320517539978027">
        <ele>287.0</ele>
        <time>2019-05-04T08:18:33.000Z</time>
      </trkpt>
      <trkpt lat="42.741817474365234" lon="-8.320881843566895">
        <ele>287.0</ele>
        <time>2019-05-04T08:18:59.000Z</time>
      </trkpt>
      <trkpt lat="42.74196243286133" lon="-8.321325302124023">
        <ele>290.0</ele>
        <time>2019-05-04T08:19:27.000Z</time>
      </trkpt>
      <trkpt lat="42.74215316772461" lon="-8.32174015045166">
        <ele>285.0</ele>
        <time>2019-05-04T08:19:55.000Z</time>
      </trkpt>
      <trkpt lat="42.74235153198242" lon="-8.322134017944336">
        <ele>287.0</ele>
        <time>2019-05-04T08:20:21.000Z</time>
      </trkpt>
      <trkpt lat="42.7425537109375" lon="-8.32253360748291">
        <ele>293.0</ele>
        <time>2019-05-04T08:20:46.000Z</time>
      </trkpt>
      <trkpt lat="42.7426872253418" lon="-8.322718620300293">
        <ele>293.0</ele>
        <time>2019-05-04T08:21:02.000Z</time>
      </trkpt>
      <trkpt lat="42.74289321899414" lon="-8.323114395141602">
        <ele>291.0</ele>
        <time>2019-05-04T08:21:29.000Z</time>
      </trkpt>
      <trkpt lat="42.74310302734375" lon="-8.323504447937012">
        <ele>292.0</ele>
        <time>2019-05-04T08:21:55.000Z</time>
      </trkpt>
      <trkpt lat="42.743316650390625" lon="-8.323891639709473">
        <ele>291.0</ele>
        <time>2019-05-04T08:22:23.000Z</time>
      </trkpt>
      <trkpt lat="42.74360275268555" lon="-8.32417106628418">
        <ele>291.0</ele>
        <time>2019-05-04T08:22:49.000Z</time>
      </trkpt>
      <trkpt lat="42.74385452270508" lon="-8.324518203735352">
        <ele>294.0</ele>
        <time>2019-05-04T08:23:15.000Z</time>
      </trkpt>
      <trkpt lat="42.74409866333008" lon="-8.324871063232422">
        <ele>294.0</ele>
        <time>2019-05-04T08:23:43.000Z</time>
      </trkpt>
      <trkpt lat="42.744319915771484" lon="-8.325246810913086">
        <ele>295.0</ele>
        <time>2019-05-04T08:24:11.000Z</time>
      </trkpt>
      <trkpt lat="42.74457931518555" lon="-8.32557201385498">
        <ele>295.0</ele>
        <time>2019-05-04T08:24:38.000Z</time>
      </trkpt>
      <trkpt lat="42.744834899902344" lon="-8.325915336608887">
        <ele>292.0</ele>
        <time>2019-05-04T08:25:03.000Z</time>
      </trkpt>
      <trkpt lat="42.74505615234375" lon="-8.326290130615234">
        <ele>292.0</ele>
        <time>2019-05-04T08:25:35.000Z</time>
      </trkpt>
      <trkpt lat="42.745304107666016" lon="-8.326637268066406">
        <ele>292.0</ele>
        <time>2019-05-04T08:25:59.000Z</time>
      </trkpt>
      <trkpt lat="42.74552917480469" lon="-8.327007293701172">
        <ele>294.0</ele>
        <time>2019-05-04T08:26:27.000Z</time>
      </trkpt>
      <trkpt lat="42.745792388916016" lon="-8.327338218688965">
        <ele>294.0</ele>
        <time>2019-05-04T08:26:51.000Z</time>
      </trkpt>
      <trkpt lat="42.74596405029297" lon="-8.327749252319336">
        <ele>295.0</ele>
        <time>2019-05-04T08:27:22.000Z</time>
      </trkpt>
      <trkpt lat="42.74612045288086" lon="-8.328186988830566">
        <ele>296.0</ele>
        <time>2019-05-04T08:27:48.000Z</time>
      </trkpt>
      <trkpt lat="42.74625778198242" lon="-8.328648567199707">
        <ele>292.0</ele>
        <time>2019-05-04T08:28:17.000Z</time>
      </trkpt>
      <trkpt lat="42.74646759033203" lon="-8.329039573669434">
        <ele>291.0</ele>
        <time>2019-05-04T08:28:45.000Z</time>
      </trkpt>
      <trkpt lat="42.74652862548828" lon="-8.32910442352295">
        <ele>290.0</ele>
        <time>2019-05-04T08:28:50.000Z</time>
      </trkpt>
      <trkpt lat="42.7465705871582" lon="-8.329108238220215">
        <ele>290.0</ele>
        <time>2019-05-04T08:28:55.000Z</time>
      </trkpt>
      <trkpt lat="42.7465934753418" lon="-8.32917308807373">
        <ele>291.0</ele>
        <time>2019-05-04T08:29:00.000Z</time>
      </trkpt>
      <trkpt lat="42.746612548828125" lon="-8.32925796508789">
        <ele>291.0</ele>
        <time>2019-05-04T08:29:06.000Z</time>
      </trkpt>
      <trkpt lat="42.74663543701172" lon="-8.32935619354248">
        <ele>291.0</ele>
        <time>2019-05-04T08:29:11.000Z</time>
      </trkpt>
      <trkpt lat="42.74665451049805" lon="-8.329462051391602">
        <ele>291.0</ele>
        <time>2019-05-04T08:29:16.000Z</time>
      </trkpt>
      <trkpt lat="42.74668502807617" lon="-8.329540252685547">
        <ele>291.0</ele>
        <time>2019-05-04T08:29:21.000Z</time>
      </trkpt>
      <trkpt lat="42.74671936035156" lon="-8.32961368560791">
        <ele>291.0</ele>
        <time>2019-05-04T08:29:27.000Z</time>
      </trkpt>
      <trkpt lat="42.746761322021484" lon="-8.329684257507324">
        <ele>291.0</ele>
        <time>2019-05-04T08:29:32.000Z</time>
      </trkpt>
      <trkpt lat="42.74679946899414" lon="-8.329753875732422">
        <ele>291.0</ele>
        <time>2019-05-04T08:29:37.000Z</time>
      </trkpt>
      <trkpt lat="42.74680709838867" lon="-8.329803466796875">
        <ele>291.0</ele>
        <time>2019-05-04T08:29:39.000Z</time>
      </trkpt>
      <trkpt lat="42.74680709838867" lon="-8.329842567443848">
        <ele>292.0</ele>
        <time>2019-05-04T08:29:42.000Z</time>
      </trkpt>
      <trkpt lat="42.746795654296875" lon="-8.329875946044922">
        <ele>292.0</ele>
        <time>2019-05-04T08:29:44.000Z</time>
      </trkpt>
      <trkpt lat="42.74678421020508" lon="-8.32990550994873">
        <ele>293.0</ele>
        <time>2019-05-04T08:29:46.000Z</time>
      </trkpt>
      <trkpt lat="42.746788024902344" lon="-8.329998016357422">
        <ele>292.0</ele>
        <time>2019-05-04T08:29:53.000Z</time>
      </trkpt>
      <trkpt lat="42.74679946899414" lon="-8.330113410949707">
        <ele>291.0</ele>
        <time>2019-05-04T08:30:00.000Z</time>
      </trkpt>
      <trkpt lat="42.74681091308594" lon="-8.330244064331055">
        <ele>290.0</ele>
        <time>2019-05-04T08:30:07.000Z</time>
      </trkpt>
      <trkpt lat="42.746822357177734" lon="-8.330382347106934">
        <ele>289.0</ele>
        <time>2019-05-04T08:30:14.000Z</time>
      </trkpt>
      <trkpt lat="42.7468376159668" lon="-8.330466270446777">
        <ele>288.0</ele>
        <time>2019-05-04T08:30:20.000Z</time>
      </trkpt>
      <trkpt lat="42.746856689453125" lon="-8.330535888671875">
        <ele>287.0</ele>
        <time>2019-05-04T08:30:26.000Z</time>
      </trkpt>
      <trkpt lat="42.74687957763672" lon="-8.330595016479492">
        <ele>287.0</ele>
        <time>2019-05-04T08:30:31.000Z</time>
      </trkpt>
      <trkpt lat="42.74690246582031" lon="-8.330649375915527">
        <ele>287.0</ele>
        <time>2019-05-04T08:30:37.000Z</time>
      </trkpt>
      <trkpt lat="42.746917724609375" lon="-8.33068561553955">
        <ele>286.0</ele>
        <time>2019-05-04T08:30:41.000Z</time>
      </trkpt>
      <trkpt lat="42.74692916870117" lon="-8.330710411071777">
        <ele>286.0</ele>
        <time>2019-05-04T08:30:46.000Z</time>
      </trkpt>
      <trkpt lat="42.746944427490234" lon="-8.33072566986084">
        <ele>286.0</ele>
        <time>2019-05-04T08:30:50.000Z</time>
      </trkpt>
      <trkpt lat="42.74695587158203" lon="-8.330737113952637">
        <ele>286.0</ele>
        <time>2019-05-04T08:30:54.000Z</time>
      </trkpt>
      <trkpt lat="42.74696350097656" lon="-8.330750465393066">
        <ele>286.0</ele>
        <time>2019-05-04T08:30:54.000Z</time>
      </trkpt>
      <trkpt lat="42.746971130371094" lon="-8.330759048461914">
        <ele>286.0</ele>
        <time>2019-05-04T08:30:55.000Z</time>
      </trkpt>
      <trkpt lat="42.74697494506836" lon="-8.330765724182129">
        <ele>286.0</ele>
        <time>2019-05-04T08:30:55.000Z</time>
      </trkpt>
      <trkpt lat="42.746978759765625" lon="-8.330771446228027">
        <ele>286.0</ele>
        <time>2019-05-04T08:30:55.000Z</time>
      </trkpt>
      <trkpt lat="42.74699020385742" lon="-8.330791473388672">
        <ele>286.0</ele>
        <time>2019-05-04T08:30:56.000Z</time>
      </trkpt>
      <trkpt lat="42.74700164794922" lon="-8.330815315246582">
        <ele>286.0</ele>
        <time>2019-05-04T08:30:58.000Z</time>
      </trkpt>
      <trkpt lat="42.74701690673828" lon="-8.330842971801758">
        <ele>285.0</ele>
        <time>2019-05-04T08:30:59.000Z</time>
      </trkpt>
      <trkpt lat="42.74703598022461" lon="-8.330872535705566">
        <ele>285.0</ele>
        <time>2019-05-04T08:31:00.000Z</time>
      </trkpt>
      <trkpt lat="42.747039794921875" lon="-8.33088207244873">
        <ele>284.0</ele>
        <time>2019-05-04T08:31:06.000Z</time>
      </trkpt>
      <trkpt lat="42.74703598022461" lon="-8.330886840820312">
        <ele>284.0</ele>
        <time>2019-05-04T08:31:12.000Z</time>
      </trkpt>
      <trkpt lat="42.747032165527344" lon="-8.330885887145996">
        <ele>283.0</ele>
        <time>2019-05-04T08:31:17.000Z</time>
      </trkpt>
      <trkpt lat="42.74702835083008" lon="-8.330883979797363">
        <ele>283.0</ele>
        <time>2019-05-04T08:31:23.000Z</time>
      </trkpt>
      <trkpt lat="42.74702835083008" lon="-8.330886840820312">
        <ele>282.0</ele>
        <time>2019-05-04T08:31:23.000Z</time>
      </trkpt>
      <trkpt lat="42.74702453613281" lon="-8.330889701843262">
        <ele>282.0</ele>
        <time>2019-05-04T08:31:24.000Z</time>
      </trkpt>
      <trkpt lat="42.74702453613281" lon="-8.330892562866211">
        <ele>282.0</ele>
        <time>2019-05-04T08:31:24.000Z</time>
      </trkpt>
      <trkpt lat="42.74702072143555" lon="-8.33089542388916">
        <ele>283.0</ele>
        <time>2019-05-04T08:31:24.000Z</time>
      </trkpt>
      <trkpt lat="42.74702453613281" lon="-8.330947875976562">
        <ele>283.0</ele>
        <time>2019-05-04T08:31:26.000Z</time>
      </trkpt>
      <trkpt lat="42.74702453613281" lon="-8.331022262573242">
        <ele>283.0</ele>
        <time>2019-05-04T08:31:28.000Z</time>
      </trkpt>
      <trkpt lat="42.74702835083008" lon="-8.331110000610352">
        <ele>283.0</ele>
        <time>2019-05-04T08:31:30.000Z</time>
      </trkpt>
      <trkpt lat="42.74702835083008" lon="-8.331204414367676">
        <ele>283.0</ele>
        <time>2019-05-04T08:31:32.000Z</time>
      </trkpt>
      <trkpt lat="42.74706268310547" lon="-8.331228256225586">
        <ele>282.0</ele>
        <time>2019-05-04T08:31:36.000Z</time>
      </trkpt>
      <trkpt lat="42.747108459472656" lon="-8.331230163574219">
        <ele>282.0</ele>
        <time>2019-05-04T08:31:40.000Z</time>
      </trkpt>
      <trkpt lat="42.74716567993164" lon="-8.331216812133789">
        <ele>281.0</ele>
        <time>2019-05-04T08:31:43.000Z</time>
      </trkpt>
      <trkpt lat="42.74722671508789" lon="-8.331196784973145">
        <ele>280.0</ele>
        <time>2019-05-04T08:31:47.000Z</time>
      </trkpt>
      <trkpt lat="42.74724197387695" lon="-8.331197738647461">
        <ele>280.0</ele>
        <time>2019-05-04T08:31:52.000Z</time>
      </trkpt>
      <trkpt lat="42.747222900390625" lon="-8.331201553344727">
        <ele>280.0</ele>
        <time>2019-05-04T08:31:57.000Z</time>
      </trkpt>
      <trkpt lat="42.747222900390625" lon="-8.331202507019043">
        <ele>280.0</ele>
        <time>2019-05-04T08:31:57.000Z</time>
      </trkpt>
      <trkpt lat="42.747222900390625" lon="-8.33120346069336">
        <ele>280.0</ele>
        <time>2019-05-04T08:31:58.000Z</time>
      </trkpt>
      <trkpt lat="42.747222900390625" lon="-8.331204414367676">
        <ele>280.0</ele>
        <time>2019-05-04T08:31:58.000Z</time>
      </trkpt>
      <trkpt lat="42.747222900390625" lon="-8.331205368041992">
        <ele>280.0</ele>
        <time>2019-05-04T08:31:58.000Z</time>
      </trkpt>
      <trkpt lat="42.747215270996094" lon="-8.331219673156738">
        <ele>280.0</ele>
        <time>2019-05-04T08:31:59.000Z</time>
      </trkpt>
      <trkpt lat="42.7472038269043" lon="-8.331239700317383">
        <ele>280.0</ele>
        <time>2019-05-04T08:32:01.000Z</time>
      </trkpt>
      <trkpt lat="42.747188568115234" lon="-8.331263542175293">
        <ele>280.0</ele>
        <time>2019-05-04T08:32:02.000Z</time>
      </trkpt>
      <trkpt lat="42.74717712402344" lon="-8.33128833770752">
        <ele>280.0</ele>
        <time>2019-05-04T08:32:03.000Z</time>
      </trkpt>
      <trkpt lat="42.74718475341797" lon="-8.331284523010254">
        <ele>279.0</ele>
        <time>2019-05-04T08:32:06.000Z</time>
      </trkpt>
      <trkpt lat="42.7472038269043" lon="-8.331271171569824">
        <ele>279.0</ele>
        <time>2019-05-04T08:32:09.000Z</time>
      </trkpt>
      <trkpt lat="42.747230529785156" lon="-8.331250190734863">
        <ele>278.0</ele>
        <time>2019-05-04T08:32:11.000Z</time>
      </trkpt>
      <trkpt lat="42.74726104736328" lon="-8.331226348876953">
        <ele>278.0</ele>
        <time>2019-05-04T08:32:14.000Z</time>
      </trkpt>
      <trkpt lat="42.747276306152344" lon="-8.3312349319458">
        <ele>277.0</ele>
        <time>2019-05-04T08:32:19.000Z</time>
      </trkpt>
      <trkpt lat="42.74729537963867" lon="-8.331254005432129">
        <ele>277.0</ele>
        <time>2019-05-04T08:32:24.000Z</time>
      </trkpt>
      <trkpt lat="42.747310638427734" lon="-8.331279754638672">
        <ele>276.0</ele>
        <time>2019-05-04T08:32:29.000Z</time>
      </trkpt>
      <trkpt lat="42.7473258972168" lon="-8.33130931854248">
        <ele>275.0</ele>
        <time>2019-05-04T08:32:34.000Z</time>
      </trkpt>
      <trkpt lat="42.74736022949219" lon="-8.331310272216797">
        <ele>275.0</ele>
        <time>2019-05-04T08:32:38.000Z</time>
      </trkpt>
      <trkpt lat="42.747398376464844" lon="-8.331303596496582">
        <ele>275.0</ele>
        <time>2019-05-04T08:32:42.000Z</time>
      </trkpt>
      <trkpt lat="42.747440338134766" lon="-8.331291198730469">
        <ele>275.0</ele>
        <time>2019-05-04T08:32:46.000Z</time>
      </trkpt>
      <trkpt lat="42.74748229980469" lon="-8.331275939941406">
        <ele>275.0</ele>
        <time>2019-05-04T08:32:50.000Z</time>
      </trkpt>
      <trkpt lat="42.74749755859375" lon="-8.33127212524414">
        <ele>275.0</ele>
        <time>2019-05-04T08:32:50.000Z</time>
      </trkpt>
      <trkpt lat="42.74750518798828" lon="-8.331271171569824">
        <ele>275.0</ele>
        <time>2019-05-04T08:32:51.000Z</time>
      </trkpt>
      <trkpt lat="42.74750518798828" lon="-8.331271171569824">
        <ele>275.0</ele>
        <time>2019-05-04T08:32:51.000Z</time>
      </trkpt>
      <trkpt lat="42.747501373291016" lon="-8.33127212524414">
        <ele>275.0</ele>
        <time>2019-05-04T08:32:51.000Z</time>
      </trkpt>
      <trkpt lat="42.74752426147461" lon="-8.331259727478027">
        <ele>274.0</ele>
        <time>2019-05-04T08:32:53.000Z</time>
      </trkpt>
      <trkpt lat="42.74755096435547" lon="-8.331242561340332">
        <ele>274.0</ele>
        <time>2019-05-04T08:32:55.000Z</time>
      </trkpt>
      <trkpt lat="42.747581481933594" lon="-8.331223487854004">
        <ele>273.0</ele>
        <time>2019-05-04T08:32:57.000Z</time>
      </trkpt>
      <trkpt lat="42.74761962890625" lon="-8.331201553344727">
        <ele>272.0</ele>
        <time>2019-05-04T08:32:59.000Z</time>
      </trkpt>
      <trkpt lat="42.74761962890625" lon="-8.331194877624512">
        <ele>273.0</ele>
        <time>2019-05-04T08:33:08.000Z</time>
      </trkpt>
      <trkpt lat="42.74761199951172" lon="-8.331192016601562">
        <ele>274.0</ele>
        <time>2019-05-04T08:33:18.000Z</time>
      </trkpt>
      <trkpt lat="42.74759292602539" lon="-8.331192970275879">
        <ele>276.0</ele>
        <time>2019-05-04T08:33:27.000Z</time>
      </trkpt>
      <trkpt lat="42.74757385253906" lon="-8.331194877624512">
        <ele>278.0</ele>
        <time>2019-05-04T08:33:36.000Z</time>
      </trkpt>
      <trkpt lat="42.747562408447266" lon="-8.331192016601562">
        <ele>278.0</ele>
        <time>2019-05-04T08:33:41.000Z</time>
      </trkpt>
      <trkpt lat="42.747554779052734" lon="-8.33119010925293">
        <ele>278.0</ele>
        <time>2019-05-04T08:33:46.000Z</time>
      </trkpt>
      <trkpt lat="42.74754333496094" lon="-8.33118724822998">
        <ele>278.0</ele>
        <time>2019-05-04T08:33:50.000Z</time>
      </trkpt>
      <trkpt lat="42.747535705566406" lon="-8.331184387207031">
        <ele>278.0</ele>
        <time>2019-05-04T08:33:55.000Z</time>
      </trkpt>
      <trkpt lat="42.747528076171875" lon="-8.331182479858398">
        <ele>278.0</ele>
        <time>2019-05-04T08:33:55.000Z</time>
      </trkpt>
      <trkpt lat="42.747520446777344" lon="-8.331180572509766">
        <ele>278.0</ele>
        <time>2019-05-04T08:33:56.000Z</time>
      </trkpt>
      <trkpt lat="42.74751663208008" lon="-8.331178665161133">
        <ele>278.0</ele>
        <time>2019-05-04T08:33:56.000Z</time>
      </trkpt>
      <trkpt lat="42.74750900268555" lon="-8.3311767578125">
        <ele>278.0</ele>
        <time>2019-05-04T08:33:56.000Z</time>
      </trkpt>
      <trkpt lat="42.74754333496094" lon="-8.331185340881348">
        <ele>278.0</ele>
        <time>2019-05-04T08:34:00.000Z</time>
      </trkpt>
      <trkpt lat="42.74759292602539" lon="-8.331198692321777">
        <ele>279.0</ele>
        <time>2019-05-04T08:34:03.000Z</time>
      </trkpt>
      <trkpt lat="42.747657775878906" lon="-8.331214904785156">
        <ele>279.0</ele>
        <time>2019-05-04T08:34:07.000Z</time>
      </trkpt>
      <trkpt lat="42.74772644042969" lon="-8.331232070922852">
        <ele>280.0</ele>
        <time>2019-05-04T08:34:10.000Z</time>
      </trkpt>
      <trkpt lat="42.747764587402344" lon="-8.331245422363281">
        <ele>279.0</ele>
        <time>2019-05-04T08:34:17.000Z</time>
      </trkpt>
      <trkpt lat="42.74779510498047" lon="-8.331257820129395">
        <ele>276.0</ele>
        <time>2019-05-04T08:34:24.000Z</time>
      </trkpt>
      <trkpt lat="42.74782180786133" lon="-8.331270217895508">
        <ele>272.0</ele>
        <time>2019-05-04T08:34:31.000Z</time>
      </trkpt>
      <trkpt lat="42.74784469604492" lon="-8.331282615661621">
        <ele>269.0</ele>
        <time>2019-05-04T08:34:38.000Z</time>
      </trkpt>
      <trkpt lat="42.747859954833984" lon="-8.331289291381836">
        <ele>268.0</ele>
        <time>2019-05-04T08:34:38.000Z</time>
      </trkpt>
      <trkpt lat="42.747867584228516" lon="-8.331293106079102">
        <ele>268.0</ele>
        <time>2019-05-04T08:34:38.000Z</time>
      </trkpt>
      <trkpt lat="42.74787139892578" lon="-8.331295013427734">
        <ele>268.0</ele>
        <time>2019-05-04T08:34:38.000Z</time>
      </trkpt>
      <trkpt lat="42.74787521362305" lon="-8.33129596710205">
        <ele>269.0</ele>
        <time>2019-05-04T08:34:39.000Z</time>
      </trkpt>
      <trkpt lat="42.7479133605957" lon="-8.331350326538086">
        <ele>268.0</ele>
        <time>2019-05-04T08:34:43.000Z</time>
      </trkpt>
      <trkpt lat="42.74796676635742" lon="-8.331426620483398">
        <ele>268.0</ele>
        <time>2019-05-04T08:34:47.000Z</time>
      </trkpt>
      <trkpt lat="42.747947692871094" lon="-8.331494331359863">
        <ele>267.0</ele>
        <time>2019-05-04T08:34:53.000Z</time>
      </trkpt>
      <trkpt lat="42.7479133605957" lon="-8.331576347351074">
        <ele>267.0</ele>
        <time>2019-05-04T08:35:00.000Z</time>
      </trkpt>
      <trkpt lat="42.74786376953125" lon="-8.331668853759766">
        <ele>266.0</ele>
        <time>2019-05-04T08:35:07.000Z</time>
      </trkpt>
      <trkpt lat="42.74781036376953" lon="-8.331766128540039">
        <ele>265.0</ele>
        <time>2019-05-04T08:35:14.000Z</time>
      </trkpt>
      <trkpt lat="42.74778366088867" lon="-8.331840515136719">
        <ele>265.0</ele>
        <time>2019-05-04T08:35:18.000Z</time>
      </trkpt>
      <trkpt lat="42.747764587402344" lon="-8.331911087036133">
        <ele>265.0</ele>
        <time>2019-05-04T08:35:23.000Z</time>
      </trkpt>
      <trkpt lat="42.74774932861328" lon="-8.331978797912598">
        <ele>265.0</ele>
        <time>2019-05-04T08:35:28.000Z</time>
      </trkpt>
      <trkpt lat="42.74773406982422" lon="-8.33204460144043">
        <ele>265.0</ele>
        <time>2019-05-04T08:35:33.000Z</time>
      </trkpt>
      <trkpt lat="42.74774932861328" lon="-8.332101821899414">
        <ele>265.0</ele>
        <time>2019-05-04T08:35:36.000Z</time>
      </trkpt>
      <trkpt lat="42.74777603149414" lon="-8.332154273986816">
        <ele>265.0</ele>
        <time>2019-05-04T08:35:40.000Z</time>
      </trkpt>
      <trkpt lat="42.7478141784668" lon="-8.332202911376953">
        <ele>264.0</ele>
        <time>2019-05-04T08:35:43.000Z</time>
      </trkpt>
      <trkpt lat="42.74785614013672" lon="-8.33224868774414">
        <ele>264.0</ele>
        <time>2019-05-04T08:35:47.000Z</time>
      </trkpt>
      <trkpt lat="42.747901916503906" lon="-8.332331657409668">
        <ele>264.0</ele>
        <time>2019-05-04T08:35:53.000Z</time>
      </trkpt>
      <trkpt lat="42.747955322265625" lon="-8.332427978515625">
        <ele>264.0</ele>
        <time>2019-05-04T08:36:00.000Z</time>
      </trkpt>
      <trkpt lat="42.74801254272461" lon="-8.33253288269043">
        <ele>264.0</ele>
        <time>2019-05-04T08:36:07.000Z</time>
      </trkpt>
      <trkpt lat="42.74807357788086" lon="-8.332642555236816">
        <ele>264.0</ele>
        <time>2019-05-04T08:36:14.000Z</time>
      </trkpt>
      <trkpt lat="42.74811553955078" lon="-8.33275032043457">
        <ele>265.0</ele>
        <time>2019-05-04T08:36:21.000Z</time>
      </trkpt>
      <trkpt lat="42.748146057128906" lon="-8.332862854003906">
        <ele>266.0</ele>
        <time>2019-05-04T08:36:28.000Z</time>
      </trkpt>
      <trkpt lat="42.74817657470703" lon="-8.332977294921875">
        <ele>267.0</ele>
        <time>2019-05-04T08:36:35.000Z</time>
      </trkpt>
      <trkpt lat="42.74820327758789" lon="-8.333093643188477">
        <ele>269.0</ele>
        <time>2019-05-04T08:36:43.000Z</time>
      </trkpt>
      <trkpt lat="42.74824142456055" lon="-8.333199501037598">
        <ele>270.0</ele>
        <time>2019-05-04T08:36:51.000Z</time>
      </trkpt>
      <trkpt lat="42.748287200927734" lon="-8.333303451538086">
        <ele>270.0</ele>
        <time>2019-05-04T08:36:59.000Z</time>
      </trkpt>
      <trkpt lat="42.74833679199219" lon="-8.333404541015625">
        <ele>271.0</ele>
        <time>2019-05-04T08:37:07.000Z</time>
      </trkpt>
      <trkpt lat="42.74838638305664" lon="-8.333505630493164">
        <ele>272.0</ele>
        <time>2019-05-04T08:37:15.000Z</time>
      </trkpt>
      <trkpt lat="42.74842071533203" lon="-8.333619117736816">
        <ele>272.0</ele>
        <time>2019-05-04T08:37:21.000Z</time>
      </trkpt>
      <trkpt lat="42.74844741821289" lon="-8.33373737335205">
        <ele>273.0</ele>
        <time>2019-05-04T08:37:28.000Z</time>
      </trkpt>
      <trkpt lat="42.74846649169922" lon="-8.333858489990234">
        <ele>273.0</ele>
        <time>2019-05-04T08:37:35.000Z</time>
      </trkpt>
      <trkpt lat="42.74848937988281" lon="-8.33398151397705">
        <ele>274.0</ele>
        <time>2019-05-04T08:37:42.000Z</time>
      </trkpt>
      <trkpt lat="42.748451232910156" lon="-8.334210395812988">
        <ele>276.0</ele>
        <time>2019-05-04T08:37:58.000Z</time>
      </trkpt>
      <trkpt lat="42.74836730957031" lon="-8.334436416625977">
        <ele>278.0</ele>
        <time>2019-05-04T08:38:14.000Z</time>
      </trkpt>
      <trkpt lat="42.74834060668945" lon="-8.334549903869629">
        <ele>279.0</ele>
        <time>2019-05-04T08:38:21.000Z</time>
      </trkpt>
      <trkpt lat="42.748313903808594" lon="-8.334662437438965">
        <ele>280.0</ele>
        <time>2019-05-04T08:38:28.000Z</time>
      </trkpt>
      <trkpt lat="42.748287200927734" lon="-8.3347749710083">
        <ele>280.0</ele>
        <time>2019-05-04T08:38:35.000Z</time>
      </trkpt>
      <trkpt lat="42.74826431274414" lon="-8.33488655090332">
        <ele>281.0</ele>
        <time>2019-05-04T08:38:43.000Z</time>
      </trkpt>
      <trkpt lat="42.74819564819336" lon="-8.335002899169922">
        <ele>282.0</ele>
        <time>2019-05-04T08:38:52.000Z</time>
      </trkpt>
      <trkpt lat="42.74811935424805" lon="-8.335068702697754">
        <ele>284.0</ele>
        <time>2019-05-04T08:39:02.000Z</time>
      </trkpt>
      <trkpt lat="42.748077392578125" lon="-8.335087776184082">
        <ele>283.0</ele>
        <time>2019-05-04T08:39:08.000Z</time>
      </trkpt>
      <trkpt lat="42.74805450439453" lon="-8.335073471069336">
        <ele>283.0</ele>
        <time>2019-05-04T08:39:15.000Z</time>
      </trkpt>
      <trkpt lat="42.748043060302734" lon="-8.335074424743652">
        <ele>282.0</ele>
        <time>2019-05-04T08:39:15.000Z</time>
      </trkpt>
      <trkpt lat="42.7480354309082" lon="-8.335074424743652">
        <ele>282.0</ele>
        <time>2019-05-04T08:39:15.000Z</time>
      </trkpt>
      <trkpt lat="42.74802780151367" lon="-8.335075378417969">
        <ele>282.0</ele>
        <time>2019-05-04T08:39:15.000Z</time>
      </trkpt>
      <trkpt lat="42.74802017211914" lon="-8.335075378417969">
        <ele>283.0</ele>
        <time>2019-05-04T08:39:16.000Z</time>
      </trkpt>
      <trkpt lat="42.74795913696289" lon="-8.335098266601562">
        <ele>282.0</ele>
        <time>2019-05-04T08:39:20.000Z</time>
      </trkpt>
      <trkpt lat="42.74787902832031" lon="-8.335129737854004">
        <ele>282.0</ele>
        <time>2019-05-04T08:39:25.000Z</time>
      </trkpt>
      <trkpt lat="42.74778747558594" lon="-8.33516788482666">
        <ele>281.0</ele>
        <time>2019-05-04T08:39:29.000Z</time>
      </trkpt>
      <trkpt lat="42.747684478759766" lon="-8.335208892822266">
        <ele>280.0</ele>
        <time>2019-05-04T08:39:34.000Z</time>
      </trkpt>
      <trkpt lat="42.74764633178711" lon="-8.335236549377441">
        <ele>279.0</ele>
        <time>2019-05-04T08:39:36.000Z</time>
      </trkpt>
      <trkpt lat="42.7476692199707" lon="-8.335247039794922">
        <ele>279.0</ele>
        <time>2019-05-04T08:39:39.000Z</time>
      </trkpt>
      <trkpt lat="42.74766540527344" lon="-8.335259437561035">
        <ele>278.0</ele>
        <time>2019-05-04T08:39:43.000Z</time>
      </trkpt>
      <trkpt lat="42.74766159057617" lon="-8.335272789001465">
        <ele>277.0</ele>
        <time>2019-05-04T08:39:47.000Z</time>
      </trkpt>
      <trkpt lat="42.747657775878906" lon="-8.335287094116211">
        <ele>276.0</ele>
        <time>2019-05-04T08:39:51.000Z</time>
      </trkpt>
      <trkpt lat="42.74765396118164" lon="-8.335301399230957">
        <ele>275.0</ele>
        <time>2019-05-04T08:39:55.000Z</time>
      </trkpt>
      <trkpt lat="42.747650146484375" lon="-8.335311889648438">
        <ele>275.0</ele>
        <time>2019-05-04T08:39:55.000Z</time>
      </trkpt>
      <trkpt lat="42.747650146484375" lon="-8.335321426391602">
        <ele>275.0</ele>
        <time>2019-05-04T08:39:55.000Z</time>
      </trkpt>
      <trkpt lat="42.74764633178711" lon="-8.33533000946045">
        <ele>275.0</ele>
        <time>2019-05-04T08:39:55.000Z</time>
      </trkpt>
      <trkpt lat="42.74764633178711" lon="-8.335338592529297">
        <ele>275.0</ele>
        <time>2019-05-04T08:39:56.000Z</time>
      </trkpt>
      <trkpt lat="42.74761199951172" lon="-8.335410118103027">
        <ele>275.0</ele>
        <time>2019-05-04T08:40:00.000Z</time>
      </trkpt>
      <trkpt lat="42.74756622314453" lon="-8.3355073928833">
        <ele>275.0</ele>
        <time>2019-05-04T08:40:04.000Z</time>
      </trkpt>
      <trkpt lat="42.74750900268555" lon="-8.33562183380127">
        <ele>275.0</ele>
        <time>2019-05-04T08:40:08.000Z</time>
      </trkpt>
      <trkpt lat="42.74745178222656" lon="-8.335745811462402">
        <ele>275.0</ele>
        <time>2019-05-04T08:40:13.000Z</time>
      </trkpt>
      <trkpt lat="42.74740982055664" lon="-8.33584976196289">
        <ele>275.0</ele>
        <time>2019-05-04T08:40:20.000Z</time>
      </trkpt>
      <trkpt lat="42.747371673583984" lon="-8.335955619812012">
        <ele>276.0</ele>
        <time>2019-05-04T08:40:27.000Z</time>
      </trkpt>
      <trkpt lat="42.747337341308594" lon="-8.336061477661133">
        <ele>276.0</ele>
        <time>2019-05-04T08:40:34.000Z</time>
      </trkpt>
      <trkpt lat="42.7473030090332" lon="-8.336167335510254">
        <ele>277.0</ele>
        <time>2019-05-04T08:40:41.000Z</time>
      </trkpt>
      <trkpt lat="42.747314453125" lon="-8.336382865905762">
        <ele>277.0</ele>
        <time>2019-05-04T08:40:56.000Z</time>
      </trkpt>
      <trkpt lat="42.74736022949219" lon="-8.336600303649902">
        <ele>277.0</ele>
        <time>2019-05-04T08:41:12.000Z</time>
      </trkpt>
      <trkpt lat="42.74736404418945" lon="-8.336658477783203">
        <ele>278.0</ele>
        <time>2019-05-04T08:41:15.000Z</time>
      </trkpt>
      <trkpt lat="42.747371673583984" lon="-8.336695671081543">
        <ele>279.0</ele>
        <time>2019-05-04T08:41:19.000Z</time>
      </trkpt>
      <trkpt lat="42.747371673583984" lon="-8.336718559265137">
        <ele>281.0</ele>
        <time>2019-05-04T08:41:23.000Z</time>
      </trkpt>
      <trkpt lat="42.74737548828125" lon="-8.336734771728516">
        <ele>282.0</ele>
        <time>2019-05-04T08:41:27.000Z</time>
      </trkpt>
      <trkpt lat="42.74737548828125" lon="-8.33675479888916">
        <ele>283.0</ele>
        <time>2019-05-04T08:41:27.000Z</time>
      </trkpt>
      <trkpt lat="42.747379302978516" lon="-8.336769104003906">
        <ele>283.0</ele>
        <time>2019-05-04T08:41:27.000Z</time>
      </trkpt>
      <trkpt lat="42.747379302978516" lon="-8.336779594421387">
        <ele>283.0</ele>
        <time>2019-05-04T08:41:27.000Z</time>
      </trkpt>
      <trkpt lat="42.747379302978516" lon="-8.336787223815918">
        <ele>282.0</ele>
        <time>2019-05-04T08:41:28.000Z</time>
      </trkpt>
      <trkpt lat="42.747379302978516" lon="-8.336871147155762">
        <ele>283.0</ele>
        <time>2019-05-04T08:41:33.000Z</time>
      </trkpt>
      <trkpt lat="42.74737548828125" lon="-8.336983680725098">
        <ele>283.0</ele>
        <time>2019-05-04T08:41:39.000Z</time>
      </trkpt>
      <trkpt lat="42.74737548828125" lon="-8.337116241455078">
        <ele>283.0</ele>
        <time>2019-05-04T08:41:44.000Z</time>
      </trkpt>
      <trkpt lat="42.747371673583984" lon="-8.337259292602539">
        <ele>283.0</ele>
        <time>2019-05-04T08:41:50.000Z</time>
      </trkpt>
      <trkpt lat="42.74732208251953" lon="-8.337422370910645">
        <ele>284.0</ele>
        <time>2019-05-04T08:42:01.000Z</time>
      </trkpt>
      <trkpt lat="42.747257232666016" lon="-8.337552070617676">
        <ele>286.0</ele>
        <time>2019-05-04T08:42:12.000Z</time>
      </trkpt>
      <trkpt lat="42.747249603271484" lon="-8.337589263916016">
        <ele>286.0</ele>
        <time>2019-05-04T08:42:16.000Z</time>
      </trkpt>
      <trkpt lat="42.74724578857422" lon="-8.337610244750977">
        <ele>287.0</ele>
        <time>2019-05-04T08:42:21.000Z</time>
      </trkpt>
      <trkpt lat="42.747249603271484" lon="-8.337621688842773">
        <ele>288.0</ele>
        <time>2019-05-04T08:42:26.000Z</time>
      </trkpt>
      <trkpt lat="42.747257232666016" lon="-8.337627410888672">
        <ele>288.0</ele>
        <time>2019-05-04T08:42:31.000Z</time>
      </trkpt>
      <trkpt lat="42.747257232666016" lon="-8.337640762329102">
        <ele>289.0</ele>
        <time>2019-05-04T08:42:31.000Z</time>
      </trkpt>
      <trkpt lat="42.747257232666016" lon="-8.337652206420898">
        <ele>289.0</ele>
        <time>2019-05-04T08:42:31.000Z</time>
      </trkpt>
      <trkpt lat="42.747257232666016" lon="-8.337661743164062">
        <ele>288.0</ele>
        <time>2019-05-04T08:42:31.000Z</time>
      </trkpt>
      <trkpt lat="42.747257232666016" lon="-8.33767032623291">
        <ele>288.0</ele>
        <time>2019-05-04T08:42:32.000Z</time>
      </trkpt>
      <trkpt lat="42.74726867675781" lon="-8.337705612182617">
        <ele>288.0</ele>
        <time>2019-05-04T08:42:36.000Z</time>
      </trkpt>
      <trkpt lat="42.74728012084961" lon="-8.337750434875488">
        <ele>288.0</ele>
        <time>2019-05-04T08:42:40.000Z</time>
      </trkpt>
      <trkpt lat="42.74729537963867" lon="-8.33780288696289">
        <ele>289.0</ele>
        <time>2019-05-04T08:42:44.000Z</time>
      </trkpt>
      <trkpt lat="42.747310638427734" lon="-8.337858200073242">
        <ele>289.0</ele>
        <time>2019-05-04T08:42:49.000Z</time>
      </trkpt>
      <trkpt lat="42.7473258972168" lon="-8.337871551513672">
        <ele>289.0</ele>
        <time>2019-05-04T08:43:22.000Z</time>
      </trkpt>
      <trkpt lat="42.747344970703125" lon="-8.337870597839355">
        <ele>289.0</ele>
        <time>2019-05-04T08:43:56.000Z</time>
      </trkpt>
      <trkpt lat="42.74736404418945" lon="-8.337861061096191">
        <ele>289.0</ele>
        <time>2019-05-04T08:44:30.000Z</time>
      </trkpt>
      <trkpt lat="42.74738693237305" lon="-8.337846755981445">
        <ele>290.0</ele>
        <time>2019-05-04T08:45:04.000Z</time>
      </trkpt>
      <trkpt lat="42.747398376464844" lon="-8.337844848632812">
        <ele>290.0</ele>
        <time>2019-05-04T08:45:04.000Z</time>
      </trkpt>
      <trkpt lat="42.74740982055664" lon="-8.337843894958496">
        <ele>290.0</ele>
        <time>2019-05-04T08:45:04.000Z</time>
      </trkpt>
      <trkpt lat="42.74741744995117" lon="-8.33784294128418">
        <ele>290.0</ele>
        <time>2019-05-04T08:45:05.000Z</time>
      </trkpt>
      <trkpt lat="42.74742126464844" lon="-8.337841987609863">
        <ele>290.0</ele>
        <time>2019-05-04T08:45:05.000Z</time>
      </trkpt>
      <trkpt lat="42.74748229980469" lon="-8.337830543518066">
        <ele>290.0</ele>
        <time>2019-05-04T08:45:11.000Z</time>
      </trkpt>
      <trkpt lat="42.74756622314453" lon="-8.337814331054688">
        <ele>290.0</ele>
        <time>2019-05-04T08:45:16.000Z</time>
      </trkpt>
      <trkpt lat="42.74766159057617" lon="-8.33779525756836">
        <ele>290.0</ele>
        <time>2019-05-04T08:45:22.000Z</time>
      </trkpt>
      <trkpt lat="42.747764587402344" lon="-8.337775230407715">
        <ele>290.0</ele>
        <time>2019-05-04T08:45:28.000Z</time>
      </trkpt>
      <trkpt lat="42.74785232543945" lon="-8.337766647338867">
        <ele>290.0</ele>
        <time>2019-05-04T08:45:35.000Z</time>
      </trkpt>
      <trkpt lat="42.74794387817383" lon="-8.337761878967285">
        <ele>290.0</ele>
        <time>2019-05-04T08:45:42.000Z</time>
      </trkpt>
      <trkpt lat="42.74803161621094" lon="-8.337759017944336">
        <ele>290.0</ele>
        <time>2019-05-04T08:45:50.000Z</time>
      </trkpt>
      <trkpt lat="42.74811935424805" lon="-8.337757110595703">
        <ele>290.0</ele>
        <time>2019-05-04T08:45:57.000Z</time>
      </trkpt>
      <trkpt lat="42.74821090698242" lon="-8.33775806427002">
        <ele>289.0</ele>
        <time>2019-05-04T08:46:05.000Z</time>
      </trkpt>
      <trkpt lat="42.7483024597168" lon="-8.337760925292969">
        <ele>288.0</ele>
        <time>2019-05-04T08:46:12.000Z</time>
      </trkpt>
      <trkpt lat="42.74839401245117" lon="-8.337764739990234">
        <ele>286.0</ele>
        <time>2019-05-04T08:46:20.000Z</time>
      </trkpt>
      <trkpt lat="42.74848556518555" lon="-8.337769508361816">
        <ele>283.0</ele>
        <time>2019-05-04T08:46:28.000Z</time>
      </trkpt>
      <trkpt lat="42.74857711791992" lon="-8.337760925292969">
        <ele>282.0</ele>
        <time>2019-05-04T08:46:36.000Z</time>
      </trkpt>
      <trkpt lat="42.74866485595703" lon="-8.337745666503906">
        <ele>282.0</ele>
        <time>2019-05-04T08:46:43.000Z</time>
      </trkpt>
      <trkpt lat="42.748756408691406" lon="-8.337727546691895">
        <ele>281.0</ele>
        <time>2019-05-04T08:46:51.000Z</time>
      </trkpt>
      <trkpt lat="42.748844146728516" lon="-8.33770751953125">
        <ele>281.0</ele>
        <time>2019-05-04T08:46:59.000Z</time>
      </trkpt>
      <trkpt lat="42.74919891357422" lon="-8.337697982788086">
        <ele>281.0</ele>
        <time>2019-05-04T08:47:27.000Z</time>
      </trkpt>
      <trkpt lat="42.74956130981445" lon="-8.33767318725586">
        <ele>283.0</ele>
        <time>2019-05-04T08:47:52.000Z</time>
      </trkpt>
      <trkpt lat="42.74992370605469" lon="-8.33765697479248">
        <ele>283.0</ele>
        <time>2019-05-04T08:48:25.000Z</time>
      </trkpt>
      <trkpt lat="42.75013732910156" lon="-8.337600708007812">
        <ele>276.0</ele>
        <time>2019-05-04T08:48:44.000Z</time>
      </trkpt>
      <trkpt lat="42.750492095947266" lon="-8.337566375732422">
        <ele>277.0</ele>
        <time>2019-05-04T08:49:15.000Z</time>
      </trkpt>
      <trkpt lat="42.7508544921875" lon="-8.33757209777832">
        <ele>272.0</ele>
        <time>2019-05-04T08:49:40.000Z</time>
      </trkpt>
      <trkpt lat="42.751216888427734" lon="-8.33755111694336">
        <ele>270.0</ele>
        <time>2019-05-04T08:50:06.000Z</time>
      </trkpt>
      <trkpt lat="42.75156021118164" lon="-8.337443351745605">
        <ele>272.0</ele>
        <time>2019-05-04T08:50:36.000Z</time>
      </trkpt>
      <trkpt lat="42.751922607421875" lon="-8.337401390075684">
        <ele>277.0</ele>
        <time>2019-05-04T08:51:05.000Z</time>
      </trkpt>
      <trkpt lat="42.75227355957031" lon="-8.337328910827637">
        <ele>280.0</ele>
        <time>2019-05-04T08:51:30.000Z</time>
      </trkpt>
      <trkpt lat="42.752620697021484" lon="-8.337203025817871">
        <ele>279.0</ele>
        <time>2019-05-04T08:51:59.000Z</time>
      </trkpt>
      <trkpt lat="42.75296401977539" lon="-8.337197303771973">
        <ele>276.0</ele>
        <time>2019-05-04T08:52:30.000Z</time>
      </trkpt>
      <trkpt lat="42.7530517578125" lon="-8.337142944335938">
        <ele>275.0</ele>
        <time>2019-05-04T08:52:37.000Z</time>
      </trkpt>
      <trkpt lat="42.75307083129883" lon="-8.337153434753418">
        <ele>275.0</ele>
        <time>2019-05-04T08:52:39.000Z</time>
      </trkpt>
      <trkpt lat="42.753089904785156" lon="-8.337173461914062">
        <ele>274.0</ele>
        <time>2019-05-04T08:52:40.000Z</time>
      </trkpt>
      <trkpt lat="42.753108978271484" lon="-8.337200164794922">
        <ele>273.0</ele>
        <time>2019-05-04T08:52:42.000Z</time>
      </trkpt>
      <trkpt lat="42.75312805175781" lon="-8.337230682373047">
        <ele>272.0</ele>
        <time>2019-05-04T08:52:44.000Z</time>
      </trkpt>
      <trkpt lat="42.75316619873047" lon="-8.337236404418945">
        <ele>270.0</ele>
        <time>2019-05-04T08:52:47.000Z</time>
      </trkpt>
      <trkpt lat="42.75321578979492" lon="-8.337235450744629">
        <ele>269.0</ele>
        <time>2019-05-04T08:52:50.000Z</time>
      </trkpt>
      <trkpt lat="42.75326919555664" lon="-8.33722972869873">
        <ele>267.0</ele>
        <time>2019-05-04T08:52:53.000Z</time>
      </trkpt>
      <trkpt lat="42.75332260131836" lon="-8.3372220993042">
        <ele>265.0</ele>
        <time>2019-05-04T08:52:56.000Z</time>
      </trkpt>
      <trkpt lat="42.75336456298828" lon="-8.337226867675781">
        <ele>264.0</ele>
        <time>2019-05-04T08:52:59.000Z</time>
      </trkpt>
      <trkpt lat="42.7534065246582" lon="-8.337233543395996">
        <ele>263.0</ele>
        <time>2019-05-04T08:53:02.000Z</time>
      </trkpt>
      <trkpt lat="42.753440856933594" lon="-8.33724308013916">
        <ele>263.0</ele>
        <time>2019-05-04T08:53:05.000Z</time>
      </trkpt>
      <trkpt lat="42.75347900390625" lon="-8.33725357055664">
        <ele>263.0</ele>
        <time>2019-05-04T08:53:08.000Z</time>
      </trkpt>
      <trkpt lat="42.753509521484375" lon="-8.337236404418945">
        <ele>262.0</ele>
        <time>2019-05-04T08:53:10.000Z</time>
      </trkpt>
      <trkpt lat="42.7535400390625" lon="-8.337209701538086">
        <ele>262.0</ele>
        <time>2019-05-04T08:53:12.000Z</time>
      </trkpt>
      <trkpt lat="42.75356674194336" lon="-8.337176322937012">
        <ele>262.0</ele>
        <time>2019-05-04T08:53:14.000Z</time>
      </trkpt>
      <trkpt lat="42.75358963012695" lon="-8.337140083312988">
        <ele>262.0</ele>
        <time>2019-05-04T08:53:16.000Z</time>
      </trkpt>
      <trkpt lat="42.75361251831055" lon="-8.337140083312988">
        <ele>262.0</ele>
        <time>2019-05-04T08:53:18.000Z</time>
      </trkpt>
      <trkpt lat="42.75363540649414" lon="-8.337152481079102">
        <ele>262.0</ele>
        <time>2019-05-04T08:53:20.000Z</time>
      </trkpt>
      <trkpt lat="42.753658294677734" lon="-8.337173461914062">
        <ele>262.0</ele>
        <time>2019-05-04T08:53:22.000Z</time>
      </trkpt>
      <trkpt lat="42.75367736816406" lon="-8.337197303771973">
        <ele>262.0</ele>
        <time>2019-05-04T08:53:24.000Z</time>
      </trkpt>
      <trkpt lat="42.75373840332031" lon="-8.33723258972168">
        <ele>262.0</ele>
        <time>2019-05-04T08:53:31.000Z</time>
      </trkpt>
      <trkpt lat="42.753814697265625" lon="-8.337276458740234">
        <ele>262.0</ele>
        <time>2019-05-04T08:53:38.000Z</time>
      </trkpt>
      <trkpt lat="42.753902435302734" lon="-8.337326049804688">
        <ele>262.0</ele>
        <time>2019-05-04T08:53:45.000Z</time>
      </trkpt>
      <trkpt lat="42.753997802734375" lon="-8.33737850189209">
        <ele>262.0</ele>
        <time>2019-05-04T08:53:52.000Z</time>
      </trkpt>
      <trkpt lat="42.75408172607422" lon="-8.33741569519043">
        <ele>262.0</ele>
        <time>2019-05-04T08:54:00.000Z</time>
      </trkpt>
      <trkpt lat="42.75416564941406" lon="-8.337449073791504">
        <ele>262.0</ele>
        <time>2019-05-04T08:54:08.000Z</time>
      </trkpt>
      <trkpt lat="42.754249572753906" lon="-8.337480545043945">
        <ele>263.0</ele>
        <time>2019-05-04T08:54:16.000Z</time>
      </trkpt>
      <trkpt lat="42.75433349609375" lon="-8.33751106262207">
        <ele>263.0</ele>
        <time>2019-05-04T08:54:24.000Z</time>
      </trkpt>
      <trkpt lat="42.75442123413086" lon="-8.337532997131348">
        <ele>265.0</ele>
        <time>2019-05-04T08:54:32.000Z</time>
      </trkpt>
      <trkpt lat="42.75450897216797" lon="-8.33755111694336">
        <ele>267.0</ele>
        <time>2019-05-04T08:54:40.000Z</time>
      </trkpt>
      <trkpt lat="42.75459671020508" lon="-8.337566375732422">
        <ele>269.0</ele>
        <time>2019-05-04T08:54:48.000Z</time>
      </trkpt>
      <trkpt lat="42.75468444824219" lon="-8.337579727172852">
        <ele>272.0</ele>
        <time>2019-05-04T08:54:56.000Z</time>
      </trkpt>
      <trkpt lat="42.75483703613281" lon="-8.337687492370605">
        <ele>275.0</ele>
        <time>2019-05-04T08:55:14.000Z</time>
      </trkpt>
      <trkpt lat="42.75497817993164" lon="-8.337828636169434">
        <ele>277.0</ele>
        <time>2019-05-04T08:55:32.000Z</time>
      </trkpt>
      <trkpt lat="42.75501251220703" lon="-8.337849617004395">
        <ele>278.0</ele>
        <time>2019-05-04T08:55:38.000Z</time>
      </trkpt>
      <trkpt lat="42.755027770996094" lon="-8.337852478027344">
        <ele>278.0</ele>
        <time>2019-05-04T08:55:43.000Z</time>
      </trkpt>
      <trkpt lat="42.755035400390625" lon="-8.337843894958496">
        <ele>278.0</ele>
        <time>2019-05-04T08:55:49.000Z</time>
      </trkpt>
      <trkpt lat="42.755035400390625" lon="-8.33782958984375">
        <ele>279.0</ele>
        <time>2019-05-04T08:55:55.000Z</time>
      </trkpt>
      <trkpt lat="42.75504684448242" lon="-8.33782958984375">
        <ele>279.0</ele>
        <time>2019-05-04T08:55:55.000Z</time>
      </trkpt>
      <trkpt lat="42.75505447387695" lon="-8.33782958984375">
        <ele>279.0</ele>
        <time>2019-05-04T08:55:55.000Z</time>
      </trkpt>
      <trkpt lat="42.755062103271484" lon="-8.33782958984375">
        <ele>279.0</ele>
        <time>2019-05-04T08:55:56.000Z</time>
      </trkpt>
      <trkpt lat="42.75506591796875" lon="-8.337830543518066">
        <ele>279.0</ele>
        <time>2019-05-04T08:55:56.000Z</time>
      </trkpt>
      <trkpt lat="42.75508117675781" lon="-8.3378324508667">
        <ele>279.0</ele>
        <time>2019-05-04T08:55:57.000Z</time>
      </trkpt>
      <trkpt lat="42.755096435546875" lon="-8.337835311889648">
        <ele>279.0</ele>
        <time>2019-05-04T08:55:57.000Z</time>
      </trkpt>
      <trkpt lat="42.7551155090332" lon="-8.337838172912598">
        <ele>279.0</ele>
        <time>2019-05-04T08:55:58.000Z</time>
      </trkpt>
      <trkpt lat="42.755130767822266" lon="-8.337841987609863">
        <ele>279.0</ele>
        <time>2019-05-04T08:55:59.000Z</time>
      </trkpt>
      <trkpt lat="42.75514221191406" lon="-8.337845802307129">
        <ele>279.0</ele>
        <time>2019-05-04T08:56:02.000Z</time>
      </trkpt>
      <trkpt lat="42.75514602661133" lon="-8.337849617004395">
        <ele>280.0</ele>
        <time>2019-05-04T08:56:05.000Z</time>
      </trkpt>
      <trkpt lat="42.755149841308594" lon="-8.33785343170166">
        <ele>281.0</ele>
        <time>2019-05-04T08:56:08.000Z</time>
      </trkpt>
      <trkpt lat="42.75515365600586" lon="-8.337858200073242">
        <ele>282.0</ele>
        <time>2019-05-04T08:56:11.000Z</time>
      </trkpt>
      <trkpt lat="42.755157470703125" lon="-8.337861061096191">
        <ele>282.0</ele>
        <time>2019-05-04T08:56:11.000Z</time>
      </trkpt>
      <trkpt lat="42.755165100097656" lon="-8.337864875793457">
        <ele>282.0</ele>
        <time>2019-05-04T08:56:11.000Z</time>
      </trkpt>
      <trkpt lat="42.75516891479492" lon="-8.337867736816406">
        <ele>282.0</ele>
        <time>2019-05-04T08:56:12.000Z</time>
      </trkpt>
      <trkpt lat="42.75517272949219" lon="-8.337870597839355">
        <ele>282.0</ele>
        <time>2019-05-04T08:56:12.000Z</time>
      </trkpt>
      <trkpt lat="42.75545883178711" lon="-8.338162422180176">
        <ele>286.0</ele>
        <time>2019-05-04T08:56:29.000Z</time>
      </trkpt>
      <trkpt lat="42.75553894042969" lon="-8.338171005249023">
        <ele>287.0</ele>
        <time>2019-05-04T08:56:37.000Z</time>
      </trkpt>
      <trkpt lat="42.75562286376953" lon="-8.338152885437012">
        <ele>287.0</ele>
        <time>2019-05-04T08:56:45.000Z</time>
      </trkpt>
      <trkpt lat="42.75571060180664" lon="-8.338116645812988">
        <ele>288.0</ele>
        <time>2019-05-04T08:56:54.000Z</time>
      </trkpt>
      <trkpt lat="42.75579833984375" lon="-8.338071823120117">
        <ele>288.0</ele>
        <time>2019-05-04T08:57:02.000Z</time>
      </trkpt>
      <trkpt lat="42.755859375" lon="-8.338064193725586">
        <ele>289.0</ele>
        <time>2019-05-04T08:57:05.000Z</time>
      </trkpt>
      <trkpt lat="42.75590896606445" lon="-8.338062286376953">
        <ele>289.0</ele>
        <time>2019-05-04T08:57:08.000Z</time>
      </trkpt>
      <trkpt lat="42.75595474243164" lon="-8.338065147399902">
        <ele>289.0</ele>
        <time>2019-05-04T08:57:12.000Z</time>
      </trkpt>
      <trkpt lat="42.75599670410156" lon="-8.338069915771484">
        <ele>289.0</ele>
        <time>2019-05-04T08:57:15.000Z</time>
      </trkpt>
      <trkpt lat="42.756019592285156" lon="-8.338082313537598">
        <ele>289.0</ele>
        <time>2019-05-04T08:57:18.000Z</time>
      </trkpt>
      <trkpt lat="42.75603103637695" lon="-8.33810043334961">
        <ele>289.0</ele>
        <time>2019-05-04T08:57:21.000Z</time>
      </trkpt>
      <trkpt lat="42.75603485107422" lon="-8.33812141418457">
        <ele>289.0</ele>
        <time>2019-05-04T08:57:24.000Z</time>
      </trkpt>
      <trkpt lat="42.75603485107422" lon="-8.338144302368164">
        <ele>289.0</ele>
        <time>2019-05-04T08:57:27.000Z</time>
      </trkpt>
      <trkpt lat="42.75605010986328" lon="-8.338129043579102">
        <ele>289.0</ele>
        <time>2019-05-04T08:57:30.000Z</time>
      </trkpt>
      <trkpt lat="42.75606918334961" lon="-8.33810043334961">
        <ele>288.0</ele>
        <time>2019-05-04T08:57:33.000Z</time>
      </trkpt>
      <trkpt lat="42.75608825683594" lon="-8.338062286376953">
        <ele>288.0</ele>
        <time>2019-05-04T08:57:37.000Z</time>
      </trkpt>
      <trkpt lat="42.75611114501953" lon="-8.338019371032715">
        <ele>288.0</ele>
        <time>2019-05-04T08:57:40.000Z</time>
      </trkpt>
      <trkpt lat="42.75612258911133" lon="-8.338017463684082">
        <ele>288.0</ele>
        <time>2019-05-04T08:57:43.000Z</time>
      </trkpt>
      <trkpt lat="42.756134033203125" lon="-8.33802604675293">
        <ele>288.0</ele>
        <time>2019-05-04T08:57:47.000Z</time>
      </trkpt>
      <trkpt lat="42.75614547729492" lon="-8.338043212890625">
        <ele>287.0</ele>
        <time>2019-05-04T08:57:50.000Z</time>
      </trkpt>
      <trkpt lat="42.75615310668945" lon="-8.338065147399902">
        <ele>287.0</ele>
        <time>2019-05-04T08:57:54.000Z</time>
      </trkpt>
      <trkpt lat="42.756160736083984" lon="-8.338072776794434">
        <ele>287.0</ele>
        <time>2019-05-04T08:57:54.000Z</time>
      </trkpt>
      <trkpt lat="42.756168365478516" lon="-8.338078498840332">
        <ele>287.0</ele>
        <time>2019-05-04T08:57:54.000Z</time>
      </trkpt>
      <trkpt lat="42.75617218017578" lon="-8.33808422088623">
        <ele>287.0</ele>
        <time>2019-05-04T08:57:55.000Z</time>
      </trkpt>
      <trkpt lat="42.75617599487305" lon="-8.338088989257812">
        <ele>287.0</ele>
        <time>2019-05-04T08:57:55.000Z</time>
      </trkpt>
      <trkpt lat="42.756187438964844" lon="-8.338102340698242">
        <ele>287.0</ele>
        <time>2019-05-04T08:57:56.000Z</time>
      </trkpt>
      <trkpt lat="42.75619888305664" lon="-8.338119506835938">
        <ele>287.0</ele>
        <time>2019-05-04T08:57:58.000Z</time>
      </trkpt>
      <trkpt lat="42.7562141418457" lon="-8.33813762664795">
        <ele>287.0</ele>
        <time>2019-05-04T08:57:59.000Z</time>
      </trkpt>
      <trkpt lat="42.756229400634766" lon="-8.338157653808594">
        <ele>287.0</ele>
        <time>2019-05-04T08:58:01.000Z</time>
      </trkpt>
      <trkpt lat="42.7562370300293" lon="-8.33816909790039">
        <ele>286.0</ele>
        <time>2019-05-04T08:58:10.000Z</time>
      </trkpt>
      <trkpt lat="42.75624465942383" lon="-8.338179588317871">
        <ele>285.0</ele>
        <time>2019-05-04T08:58:18.000Z</time>
      </trkpt>
      <trkpt lat="42.75625228881836" lon="-8.338187217712402">
        <ele>284.0</ele>
        <time>2019-05-04T08:58:27.000Z</time>
      </trkpt>
      <trkpt lat="42.75625991821289" lon="-8.33819580078125">
        <ele>282.0</ele>
        <time>2019-05-04T08:58:36.000Z</time>
      </trkpt>
      <trkpt lat="42.75626754760742" lon="-8.338202476501465">
        <ele>282.0</ele>
        <time>2019-05-04T08:58:36.000Z</time>
      </trkpt>
      <trkpt lat="42.75627136230469" lon="-8.338210105895996">
        <ele>282.0</ele>
        <time>2019-05-04T08:58:36.000Z</time>
      </trkpt>
      <trkpt lat="42.75627899169922" lon="-8.338215827941895">
        <ele>282.0</ele>
        <time>2019-05-04T08:58:37.000Z</time>
      </trkpt>
      <trkpt lat="42.756282806396484" lon="-8.338221549987793">
        <ele>282.0</ele>
        <time>2019-05-04T08:58:37.000Z</time>
      </trkpt>
      <trkpt lat="42.756324768066406" lon="-8.33828353881836">
        <ele>283.0</ele>
        <time>2019-05-04T08:58:40.000Z</time>
      </trkpt>
      <trkpt lat="42.756385803222656" lon="-8.338367462158203">
        <ele>283.0</ele>
        <time>2019-05-04T08:58:43.000Z</time>
      </trkpt>
      <trkpt lat="42.7564582824707" lon="-8.338467597961426">
        <ele>284.0</ele>
        <time>2019-05-04T08:58:47.000Z</time>
      </trkpt>
      <trkpt lat="42.75653076171875" lon="-8.338574409484863">
        <ele>284.0</ele>
        <time>2019-05-04T08:58:50.000Z</time>
      </trkpt>
      <trkpt lat="42.75669860839844" lon="-8.338790893554688">
        <ele>289.0</ele>
        <time>2019-05-04T08:59:14.000Z</time>
      </trkpt>
      <trkpt lat="42.756717681884766" lon="-8.338842391967773">
        <ele>290.0</ele>
        <time>2019-05-04T08:59:17.000Z</time>
      </trkpt>
      <trkpt lat="42.7567253112793" lon="-8.338892936706543">
        <ele>291.0</ele>
        <time>2019-05-04T08:59:20.000Z</time>
      </trkpt>
      <trkpt lat="42.7567253112793" lon="-8.338942527770996">
        <ele>291.0</ele>
        <time>2019-05-04T08:59:24.000Z</time>
      </trkpt>
      <trkpt lat="42.75672149658203" lon="-8.33899211883545">
        <ele>292.0</ele>
        <time>2019-05-04T08:59:27.000Z</time>
      </trkpt>
      <trkpt lat="42.75682067871094" lon="-8.33915901184082">
        <ele>295.0</ele>
        <time>2019-05-04T08:59:41.000Z</time>
      </trkpt>
      <trkpt lat="42.756961822509766" lon="-8.339356422424316">
        <ele>299.0</ele>
        <time>2019-05-04T08:59:55.000Z</time>
      </trkpt>
      <trkpt lat="42.757015228271484" lon="-8.33945369720459">
        <ele>300.0</ele>
        <time>2019-05-04T09:00:04.000Z</time>
      </trkpt>
      <trkpt lat="42.7570686340332" lon="-8.339552879333496">
        <ele>301.0</ele>
        <time>2019-05-04T09:00:13.000Z</time>
      </trkpt>
      <trkpt lat="42.75712203979492" lon="-8.339653015136719">
        <ele>302.0</ele>
        <time>2019-05-04T09:00:23.000Z</time>
      </trkpt>
      <trkpt lat="42.757171630859375" lon="-8.339755058288574">
        <ele>303.0</ele>
        <time>2019-05-04T09:00:32.000Z</time>
      </trkpt>
      <trkpt lat="42.75720977783203" lon="-8.339861869812012">
        <ele>304.0</ele>
        <time>2019-05-04T09:00:40.000Z</time>
      </trkpt>
      <trkpt lat="42.75724411010742" lon="-8.339970588684082">
        <ele>305.0</ele>
        <time>2019-05-04T09:00:47.000Z</time>
      </trkpt>
      <trkpt lat="42.75727844238281" lon="-8.340082168579102">
        <ele>306.0</ele>
        <time>2019-05-04T09:00:55.000Z</time>
      </trkpt>
      <trkpt lat="42.75730895996094" lon="-8.340193748474121">
        <ele>306.0</ele>
        <time>2019-05-04T09:01:03.000Z</time>
      </trkpt>
      <trkpt lat="42.7573356628418" lon="-8.34030532836914">
        <ele>307.0</ele>
        <time>2019-05-04T09:01:11.000Z</time>
      </trkpt>
      <trkpt lat="42.757362365722656" lon="-8.340417861938477">
        <ele>306.0</ele>
        <time>2019-05-04T09:01:20.000Z</time>
      </trkpt>
      <trkpt lat="42.75738525390625" lon="-8.340531349182129">
        <ele>306.0</ele>
        <time>2019-05-04T09:01:28.000Z</time>
      </trkpt>
      <trkpt lat="42.757408142089844" lon="-8.340644836425781">
        <ele>306.0</ele>
        <time>2019-05-04T09:01:37.000Z</time>
      </trkpt>
      <trkpt lat="42.757442474365234" lon="-8.3407564163208">
        <ele>306.0</ele>
        <time>2019-05-04T09:01:45.000Z</time>
      </trkpt>
      <trkpt lat="42.757476806640625" lon="-8.34086799621582">
        <ele>306.0</ele>
        <time>2019-05-04T09:01:52.000Z</time>
      </trkpt>
      <trkpt lat="42.75751495361328" lon="-8.340978622436523">
        <ele>306.0</ele>
        <time>2019-05-04T09:02:00.000Z</time>
      </trkpt>
      <trkpt lat="42.7575569152832" lon="-8.341089248657227">
        <ele>307.0</ele>
        <time>2019-05-04T09:02:08.000Z</time>
      </trkpt>
      <trkpt lat="42.75760269165039" lon="-8.341191291809082">
        <ele>307.0</ele>
        <time>2019-05-04T09:02:16.000Z</time>
      </trkpt>
      <trkpt lat="42.757652282714844" lon="-8.341289520263672">
        <ele>308.0</ele>
        <time>2019-05-04T09:02:24.000Z</time>
      </trkpt>
      <trkpt lat="42.75770568847656" lon="-8.341385841369629">
        <ele>309.0</ele>
        <time>2019-05-04T09:02:31.000Z</time>
      </trkpt>
      <trkpt lat="42.75775909423828" lon="-8.341480255126953">
        <ele>310.0</ele>
        <time>2019-05-04T09:02:39.000Z</time>
      </trkpt>
      <trkpt lat="42.75794982910156" lon="-8.341872215270996">
        <ele>313.0</ele>
        <time>2019-05-04T09:03:09.000Z</time>
      </trkpt>
      <trkpt lat="42.75813674926758" lon="-8.342272758483887">
        <ele>310.0</ele>
        <time>2019-05-04T09:03:37.000Z</time>
      </trkpt>
      <trkpt lat="42.758148193359375" lon="-8.342387199401855">
        <ele>309.0</ele>
        <time>2019-05-04T09:03:44.000Z</time>
      </trkpt>
      <trkpt lat="42.75814437866211" lon="-8.342508316040039">
        <ele>309.0</ele>
        <time>2019-05-04T09:03:51.000Z</time>
      </trkpt>
      <trkpt lat="42.75813293457031" lon="-8.342634201049805">
        <ele>308.0</ele>
        <time>2019-05-04T09:03:58.000Z</time>
      </trkpt>
      <trkpt lat="42.758113861083984" lon="-8.342761039733887">
        <ele>308.0</ele>
        <time>2019-05-04T09:04:05.000Z</time>
      </trkpt>
      <trkpt lat="42.75810623168945" lon="-8.34286117553711">
        <ele>308.0</ele>
        <time>2019-05-04T09:04:11.000Z</time>
      </trkpt>
      <trkpt lat="42.75809860229492" lon="-8.342952728271484">
        <ele>308.0</ele>
        <time>2019-05-04T09:04:17.000Z</time>
      </trkpt>
      <trkpt lat="42.75809097290039" lon="-8.343036651611328">
        <ele>308.0</ele>
        <time>2019-05-04T09:04:22.000Z</time>
      </trkpt>
      <trkpt lat="42.75808334350586" lon="-8.343118667602539">
        <ele>308.0</ele>
        <time>2019-05-04T09:04:28.000Z</time>
      </trkpt>
      <trkpt lat="42.75806427001953" lon="-8.343161582946777">
        <ele>308.0</ele>
        <time>2019-05-04T09:04:30.000Z</time>
      </trkpt>
      <trkpt lat="42.75803756713867" lon="-8.343184471130371">
        <ele>308.0</ele>
        <time>2019-05-04T09:04:33.000Z</time>
      </trkpt>
      <trkpt lat="42.75800704956055" lon="-8.343194961547852">
        <ele>308.0</ele>
        <time>2019-05-04T09:04:35.000Z</time>
      </trkpt>
      <trkpt lat="42.75797653198242" lon="-8.3431978225708">
        <ele>308.0</ele>
        <time>2019-05-04T09:04:37.000Z</time>
      </trkpt>
      <trkpt lat="42.757911682128906" lon="-8.34322738647461">
        <ele>308.0</ele>
        <time>2019-05-04T09:04:44.000Z</time>
      </trkpt>
      <trkpt lat="42.757835388183594" lon="-8.343260765075684">
        <ele>307.0</ele>
        <time>2019-05-04T09:04:51.000Z</time>
      </trkpt>
      <trkpt lat="42.757747650146484" lon="-8.34329605102539">
        <ele>307.0</ele>
        <time>2019-05-04T09:04:57.000Z</time>
      </trkpt>
      <trkpt lat="42.757652282714844" lon="-8.34333324432373">
        <ele>306.0</ele>
        <time>2019-05-04T09:05:04.000Z</time>
      </trkpt>
      <trkpt lat="42.757568359375" lon="-8.343358993530273">
        <ele>306.0</ele>
        <time>2019-05-04T09:05:12.000Z</time>
      </trkpt>
      <trkpt lat="42.75748062133789" lon="-8.34338092803955">
        <ele>306.0</ele>
        <time>2019-05-04T09:05:21.000Z</time>
      </trkpt>
      <trkpt lat="42.75739288330078" lon="-8.343400001525879">
        <ele>307.0</ele>
        <time>2019-05-04T09:05:29.000Z</time>
      </trkpt>
      <trkpt lat="42.75730514526367" lon="-8.34341812133789">
        <ele>308.0</ele>
        <time>2019-05-04T09:05:38.000Z</time>
      </trkpt>
      <trkpt lat="42.75721740722656" lon="-8.343445777893066">
        <ele>308.0</ele>
        <time>2019-05-04T09:05:44.000Z</time>
      </trkpt>
      <trkpt lat="42.75713348388672" lon="-8.343476295471191">
        <ele>308.0</ele>
        <time>2019-05-04T09:05:50.000Z</time>
      </trkpt>
      <trkpt lat="42.75704574584961" lon="-8.343507766723633">
        <ele>308.0</ele>
        <time>2019-05-04T09:05:56.000Z</time>
      </trkpt>
      <trkpt lat="42.756961822509766" lon="-8.34354019165039">
        <ele>309.0</ele>
        <time>2019-05-04T09:06:02.000Z</time>
      </trkpt>
      <trkpt lat="42.75691223144531" lon="-8.343561172485352">
        <ele>309.0</ele>
        <time>2019-05-04T09:06:05.000Z</time>
      </trkpt>
      <trkpt lat="42.756874084472656" lon="-8.343578338623047">
        <ele>309.0</ele>
        <time>2019-05-04T09:06:09.000Z</time>
      </trkpt>
      <trkpt lat="42.7568473815918" lon="-8.343592643737793">
        <ele>309.0</ele>
        <time>2019-05-04T09:06:12.000Z</time>
      </trkpt>
      <trkpt lat="42.7568244934082" lon="-8.343605995178223">
        <ele>309.0</ele>
        <time>2019-05-04T09:06:16.000Z</time>
      </trkpt>
      <trkpt lat="42.756752014160156" lon="-8.343709945678711">
        <ele>310.0</ele>
        <time>2019-05-04T09:06:25.000Z</time>
      </trkpt>
      <trkpt lat="42.756675720214844" lon="-8.343847274780273">
        <ele>311.0</ele>
        <time>2019-05-04T09:06:34.000Z</time>
      </trkpt>
      <trkpt lat="42.756622314453125" lon="-8.343926429748535">
        <ele>312.0</ele>
        <time>2019-05-04T09:06:41.000Z</time>
      </trkpt>
      <trkpt lat="42.75656509399414" lon="-8.344014167785645">
        <ele>313.0</ele>
        <time>2019-05-04T09:06:48.000Z</time>
      </trkpt>
      <trkpt lat="42.756500244140625" lon="-8.344107627868652">
        <ele>315.0</ele>
        <time>2019-05-04T09:06:55.000Z</time>
      </trkpt>
      <trkpt lat="42.75643539428711" lon="-8.344202995300293">
        <ele>316.0</ele>
        <time>2019-05-04T09:07:02.000Z</time>
      </trkpt>
      <trkpt lat="42.756385803222656" lon="-8.344305038452148">
        <ele>317.0</ele>
        <time>2019-05-04T09:07:09.000Z</time>
      </trkpt>
      <trkpt lat="42.756343841552734" lon="-8.344412803649902">
        <ele>317.0</ele>
        <time>2019-05-04T09:07:16.000Z</time>
      </trkpt>
      <trkpt lat="42.75630187988281" lon="-8.344524383544922">
        <ele>317.0</ele>
        <time>2019-05-04T09:07:24.000Z</time>
      </trkpt>
      <trkpt lat="42.756263732910156" lon="-8.344636917114258">
        <ele>317.0</ele>
        <time>2019-05-04T09:07:31.000Z</time>
      </trkpt>
      <trkpt lat="42.756221771240234" lon="-8.344744682312012">
        <ele>317.0</ele>
        <time>2019-05-04T09:07:38.000Z</time>
      </trkpt>
      <trkpt lat="42.75617980957031" lon="-8.344850540161133">
        <ele>317.0</ele>
        <time>2019-05-04T09:07:46.000Z</time>
      </trkpt>
      <trkpt lat="42.756134033203125" lon="-8.34495735168457">
        <ele>316.0</ele>
        <time>2019-05-04T09:07:53.000Z</time>
      </trkpt>
      <trkpt lat="42.7560920715332" lon="-8.345063209533691">
        <ele>316.0</ele>
        <time>2019-05-04T09:08:01.000Z</time>
      </trkpt>
      <trkpt lat="42.75605010986328" lon="-8.345169067382812">
        <ele>315.0</ele>
        <time>2019-05-04T09:08:09.000Z</time>
      </trkpt>
      <trkpt lat="42.75600814819336" lon="-8.34527587890625">
        <ele>315.0</ele>
        <time>2019-05-04T09:08:16.000Z</time>
      </trkpt>
      <trkpt lat="42.75596618652344" lon="-8.345381736755371">
        <ele>315.0</ele>
        <time>2019-05-04T09:08:24.000Z</time>
      </trkpt>
      <trkpt lat="42.755924224853516" lon="-8.345487594604492">
        <ele>315.0</ele>
        <time>2019-05-04T09:08:32.000Z</time>
      </trkpt>
      <trkpt lat="42.755889892578125" lon="-8.345599174499512">
        <ele>315.0</ele>
        <time>2019-05-04T09:08:39.000Z</time>
      </trkpt>
      <trkpt lat="42.755859375" lon="-8.34571361541748">
        <ele>316.0</ele>
        <time>2019-05-04T09:08:47.000Z</time>
      </trkpt>
      <trkpt lat="42.755828857421875" lon="-8.34582805633545">
        <ele>316.0</ele>
        <time>2019-05-04T09:08:54.000Z</time>
      </trkpt>
      <trkpt lat="42.75579833984375" lon="-8.34594440460205">
        <ele>317.0</ele>
        <time>2019-05-04T09:09:02.000Z</time>
      </trkpt>
      <trkpt lat="42.75566864013672" lon="-8.346391677856445">
        <ele>320.0</ele>
        <time>2019-05-04T09:09:29.000Z</time>
      </trkpt>
      <trkpt lat="42.755619049072266" lon="-8.34658432006836">
        <ele>325.0</ele>
        <time>2019-05-04T09:09:47.000Z</time>
      </trkpt>
      <trkpt lat="42.755619049072266" lon="-8.346646308898926">
        <ele>326.0</ele>
        <time>2019-05-04T09:09:58.000Z</time>
      </trkpt>
      <trkpt lat="42.755619049072266" lon="-8.346686363220215">
        <ele>326.0</ele>
        <time>2019-05-04T09:09:59.000Z</time>
      </trkpt>
      <trkpt lat="42.75566864013672" lon="-8.347147941589355">
        <ele>328.0</ele>
        <time>2019-05-04T09:10:14.000Z</time>
      </trkpt>
      <trkpt lat="42.75571060180664" lon="-8.34760570526123">
        <ele>332.0</ele>
        <time>2019-05-04T09:10:44.000Z</time>
      </trkpt>
      <trkpt lat="42.755714416503906" lon="-8.348064422607422">
        <ele>335.0</ele>
        <time>2019-05-04T09:11:11.000Z</time>
      </trkpt>
      <trkpt lat="42.755653381347656" lon="-8.348361015319824">
        <ele>334.0</ele>
        <time>2019-05-04T09:11:26.000Z</time>
      </trkpt>
      <trkpt lat="42.755619049072266" lon="-8.348581314086914">
        <ele>335.0</ele>
        <time>2019-05-04T09:11:43.000Z</time>
      </trkpt>
      <trkpt lat="42.755638122558594" lon="-8.348627090454102">
        <ele>336.0</ele>
        <time>2019-05-04T09:11:45.000Z</time>
      </trkpt>
      <trkpt lat="42.75566864013672" lon="-8.348669052124023">
        <ele>336.0</ele>
        <time>2019-05-04T09:11:46.000Z</time>
      </trkpt>
      <trkpt lat="42.755706787109375" lon="-8.348708152770996">
        <ele>336.0</ele>
        <time>2019-05-04T09:11:48.000Z</time>
      </trkpt>
      <trkpt lat="42.7557487487793" lon="-8.348746299743652">
        <ele>336.0</ele>
        <time>2019-05-04T09:11:50.000Z</time>
      </trkpt>
      <trkpt lat="42.75577163696289" lon="-8.348783493041992">
        <ele>336.0</ele>
        <time>2019-05-04T09:11:52.000Z</time>
      </trkpt>
      <trkpt lat="42.75579071044922" lon="-8.348817825317383">
        <ele>336.0</ele>
        <time>2019-05-04T09:11:53.000Z</time>
      </trkpt>
      <trkpt lat="42.75580978393555" lon="-8.348852157592773">
        <ele>336.0</ele>
        <time>2019-05-04T09:11:55.000Z</time>
      </trkpt>
      <trkpt lat="42.75582504272461" lon="-8.348885536193848">
        <ele>337.0</ele>
        <time>2019-05-04T09:11:57.000Z</time>
      </trkpt>
      <trkpt lat="42.755855560302734" lon="-8.348910331726074">
        <ele>337.0</ele>
        <time>2019-05-04T09:11:58.000Z</time>
      </trkpt>
      <trkpt lat="42.75587844848633" lon="-8.348913192749023">
        <ele>337.0</ele>
        <time>2019-05-04T09:11:59.000Z</time>
      </trkpt>
      <trkpt lat="42.7558708190918" lon="-8.348910331726074">
        <ele>337.0</ele>
        <time>2019-05-04T09:12:00.000Z</time>
      </trkpt>
      <trkpt lat="42.75585174560547" lon="-8.348905563354492">
        <ele>337.0</ele>
        <time>2019-05-04T09:12:01.000Z</time>
      </trkpt>
      <trkpt lat="42.75582504272461" lon="-8.348896980285645">
        <ele>337.0</ele>
        <time>2019-05-04T09:12:02.000Z</time>
      </trkpt>
      <trkpt lat="42.755794525146484" lon="-8.34888744354248">
        <ele>337.0</ele>
        <time>2019-05-04T09:12:03.000Z</time>
      </trkpt>
      <trkpt lat="42.75565719604492" lon="-8.34896183013916">
        <ele>337.0</ele>
        <time>2019-05-04T09:12:07.000Z</time>
      </trkpt>
      <trkpt lat="42.75547790527344" lon="-8.349075317382812">
        <ele>336.0</ele>
        <time>2019-05-04T09:12:11.000Z</time>
      </trkpt>
      <trkpt lat="42.755470275878906" lon="-8.349092483520508">
        <ele>336.0</ele>
        <time>2019-05-04T09:12:12.000Z</time>
      </trkpt>
      <trkpt lat="42.755496978759766" lon="-8.349096298217773">
        <ele>336.0</ele>
        <time>2019-05-04T09:12:12.000Z</time>
      </trkpt>
      <trkpt lat="42.75554275512695" lon="-8.349092483520508">
        <ele>336.0</ele>
        <time>2019-05-04T09:12:13.000Z</time>
      </trkpt>
      <trkpt lat="42.75559997558594" lon="-8.34908390045166">
        <ele>337.0</ele>
        <time>2019-05-04T09:12:14.000Z</time>
      </trkpt>
      <trkpt lat="42.75562286376953" lon="-8.349103927612305">
        <ele>337.0</ele>
        <time>2019-05-04T09:12:15.000Z</time>
      </trkpt>
      <trkpt lat="42.75564193725586" lon="-8.349130630493164">
        <ele>337.0</ele>
        <time>2019-05-04T09:12:16.000Z</time>
      </trkpt>
      <trkpt lat="42.75565719604492" lon="-8.349162101745605">
        <ele>337.0</ele>
        <time>2019-05-04T09:12:17.000Z</time>
      </trkpt>
      <trkpt lat="42.755672454833984" lon="-8.349196434020996">
        <ele>337.0</ele>
        <time>2019-05-04T09:12:18.000Z</time>
      </trkpt>
      <trkpt lat="42.75568389892578" lon="-8.349287033081055">
        <ele>336.0</ele>
        <time>2019-05-04T09:12:26.000Z</time>
      </trkpt>
      <trkpt lat="42.75568771362305" lon="-8.34939193725586">
        <ele>336.0</ele>
        <time>2019-05-04T09:12:34.000Z</time>
      </trkpt>
      <trkpt lat="42.7557258605957" lon="-8.349491119384766">
        <ele>335.0</ele>
        <time>2019-05-04T09:12:39.000Z</time>
      </trkpt>
      <trkpt lat="42.75577926635742" lon="-8.349590301513672">
        <ele>335.0</ele>
        <time>2019-05-04T09:12:44.000Z</time>
      </trkpt>
      <trkpt lat="42.755794525146484" lon="-8.349624633789062">
        <ele>335.0</ele>
        <time>2019-05-04T09:12:45.000Z</time>
      </trkpt>
      <trkpt lat="42.75580596923828" lon="-8.349652290344238">
        <ele>335.0</ele>
        <time>2019-05-04T09:12:46.000Z</time>
      </trkpt>
      <trkpt lat="42.75581359863281" lon="-8.349676132202148">
        <ele>335.0</ele>
        <time>2019-05-04T09:12:47.000Z</time>
      </trkpt>
      <trkpt lat="42.755821228027344" lon="-8.34969711303711">
        <ele>335.0</ele>
        <time>2019-05-04T09:12:48.000Z</time>
      </trkpt>
      <trkpt lat="42.75579833984375" lon="-8.34978199005127">
        <ele>335.0</ele>
        <time>2019-05-04T09:12:55.000Z</time>
      </trkpt>
      <trkpt lat="42.755760192871094" lon="-8.34989070892334">
        <ele>335.0</ele>
        <time>2019-05-04T09:13:02.000Z</time>
      </trkpt>
      <trkpt lat="42.755714416503906" lon="-8.350015640258789">
        <ele>334.0</ele>
        <time>2019-05-04T09:13:10.000Z</time>
      </trkpt>
      <trkpt lat="42.75566101074219" lon="-8.35014820098877">
        <ele>334.0</ele>
        <time>2019-05-04T09:13:17.000Z</time>
      </trkpt>
      <trkpt lat="42.755653381347656" lon="-8.350399017333984">
        <ele>336.0</ele>
        <time>2019-05-04T09:13:33.000Z</time>
      </trkpt>
      <trkpt lat="42.755680084228516" lon="-8.350662231445312">
        <ele>338.0</ele>
        <time>2019-05-04T09:13:49.000Z</time>
      </trkpt>
      <trkpt lat="42.755672454833984" lon="-8.350762367248535">
        <ele>337.0</ele>
        <time>2019-05-04T09:13:55.000Z</time>
      </trkpt>
      <trkpt lat="42.75566101074219" lon="-8.350849151611328">
        <ele>337.0</ele>
        <time>2019-05-04T09:14:01.000Z</time>
      </trkpt>
      <trkpt lat="42.75564956665039" lon="-8.35092830657959">
        <ele>335.0</ele>
        <time>2019-05-04T09:14:07.000Z</time>
      </trkpt>
      <trkpt lat="42.75563430786133" lon="-8.35100269317627">
        <ele>334.0</ele>
        <time>2019-05-04T09:14:13.000Z</time>
      </trkpt>
      <trkpt lat="42.7556266784668" lon="-8.35103988647461">
        <ele>333.0</ele>
        <time>2019-05-04T09:14:17.000Z</time>
      </trkpt>
      <trkpt lat="42.755619049072266" lon="-8.351056098937988">
        <ele>333.0</ele>
        <time>2019-05-04T09:14:20.000Z</time>
      </trkpt>
      <trkpt lat="42.755615234375" lon="-8.351059913635254">
        <ele>333.0</ele>
        <time>2019-05-04T09:14:24.000Z</time>
      </trkpt>
      <trkpt lat="42.755611419677734" lon="-8.351057052612305">
        <ele>333.0</ele>
        <time>2019-05-04T09:14:28.000Z</time>
      </trkpt>
      <trkpt lat="42.75560760498047" lon="-8.351067543029785">
        <ele>333.0</ele>
        <time>2019-05-04T09:14:28.000Z</time>
      </trkpt>
      <trkpt lat="42.7556037902832" lon="-8.351076126098633">
        <ele>333.0</ele>
        <time>2019-05-04T09:14:28.000Z</time>
      </trkpt>
      <trkpt lat="42.7556037902832" lon="-8.351083755493164">
        <ele>333.0</ele>
        <time>2019-05-04T09:14:29.000Z</time>
      </trkpt>
      <trkpt lat="42.75559997558594" lon="-8.351091384887695">
        <ele>333.0</ele>
        <time>2019-05-04T09:14:29.000Z</time>
      </trkpt>
      <trkpt lat="42.755584716796875" lon="-8.351176261901855">
        <ele>333.0</ele>
        <time>2019-05-04T09:14:32.000Z</time>
      </trkpt>
      <trkpt lat="42.75556564331055" lon="-8.35129165649414">
        <ele>333.0</ele>
        <time>2019-05-04T09:14:36.000Z</time>
      </trkpt>
      <trkpt lat="42.75554275512695" lon="-8.351428985595703">
        <ele>332.0</ele>
        <time>2019-05-04T09:14:39.000Z</time>
      </trkpt>
      <trkpt lat="42.755516052246094" lon="-8.351576805114746">
        <ele>332.0</ele>
        <time>2019-05-04T09:14:43.000Z</time>
      </trkpt>
      <trkpt lat="42.75550079345703" lon="-8.351696968078613">
        <ele>331.0</ele>
        <time>2019-05-04T09:14:50.000Z</time>
      </trkpt>
      <trkpt lat="42.75548553466797" lon="-8.351816177368164">
        <ele>330.0</ele>
        <time>2019-05-04T09:14:57.000Z</time>
      </trkpt>
      <trkpt lat="42.755470275878906" lon="-8.351936340332031">
        <ele>329.0</ele>
        <time>2019-05-04T09:15:05.000Z</time>
      </trkpt>
      <trkpt lat="42.75545883178711" lon="-8.352055549621582">
        <ele>328.0</ele>
        <time>2019-05-04T09:15:12.000Z</time>
      </trkpt>
      <trkpt lat="42.75551223754883" lon="-8.352279663085938">
        <ele>326.0</ele>
        <time>2019-05-04T09:15:28.000Z</time>
      </trkpt>
      <trkpt lat="42.7556037902832" lon="-8.352498054504395">
        <ele>324.0</ele>
        <time>2019-05-04T09:15:44.000Z</time>
      </trkpt>
      <trkpt lat="42.755653381347656" lon="-8.352598190307617">
        <ele>324.0</ele>
        <time>2019-05-04T09:15:51.000Z</time>
      </trkpt>
      <trkpt lat="42.755706787109375" lon="-8.352694511413574">
        <ele>325.0</ele>
        <time>2019-05-04T09:15:57.000Z</time>
      </trkpt>
      <trkpt lat="42.755767822265625" lon="-8.352787971496582">
        <ele>326.0</ele>
        <time>2019-05-04T09:16:04.000Z</time>
      </trkpt>
      <trkpt lat="42.75582504272461" lon="-8.352879524230957">
        <ele>327.0</ele>
        <time>2019-05-04T09:16:11.000Z</time>
      </trkpt>
      <trkpt lat="42.75587844848633" lon="-8.35297966003418">
        <ele>327.0</ele>
        <time>2019-05-04T09:16:18.000Z</time>
      </trkpt>
      <trkpt lat="42.75593185424805" lon="-8.353079795837402">
        <ele>327.0</ele>
        <time>2019-05-04T09:16:25.000Z</time>
      </trkpt>
      <trkpt lat="42.7559814453125" lon="-8.353181838989258">
        <ele>327.0</ele>
        <time>2019-05-04T09:16:33.000Z</time>
      </trkpt>
      <trkpt lat="42.75603103637695" lon="-8.353283882141113">
        <ele>327.0</ele>
        <time>2019-05-04T09:16:40.000Z</time>
      </trkpt>
      <trkpt lat="42.75608444213867" lon="-8.353381156921387">
        <ele>327.0</ele>
        <time>2019-05-04T09:16:47.000Z</time>
      </trkpt>
      <trkpt lat="42.75613784790039" lon="-8.353476524353027">
        <ele>326.0</ele>
        <time>2019-05-04T09:16:55.000Z</time>
      </trkpt>
      <trkpt lat="42.756195068359375" lon="-8.353570938110352">
        <ele>326.0</ele>
        <time>2019-05-04T09:17:02.000Z</time>
      </trkpt>
      <trkpt lat="42.75625228881836" lon="-8.353665351867676">
        <ele>326.0</ele>
        <time>2019-05-04T09:17:10.000Z</time>
      </trkpt>
      <trkpt lat="42.75628662109375" lon="-8.353723526000977">
        <ele>326.0</ele>
        <time>2019-05-04T09:17:13.000Z</time>
      </trkpt>
      <trkpt lat="42.756317138671875" lon="-8.353765487670898">
        <ele>325.0</ele>
        <time>2019-05-04T09:17:16.000Z</time>
      </trkpt>
      <trkpt lat="42.75634002685547" lon="-8.353797912597656">
        <ele>324.0</ele>
        <time>2019-05-04T09:17:19.000Z</time>
      </trkpt>
      <trkpt lat="42.75636291503906" lon="-8.353825569152832">
        <ele>324.0</ele>
        <time>2019-05-04T09:17:22.000Z</time>
      </trkpt>
      <trkpt lat="42.75637435913086" lon="-8.353889465332031">
        <ele>323.0</ele>
        <time>2019-05-04T09:17:27.000Z</time>
      </trkpt>
      <trkpt lat="42.756378173828125" lon="-8.353963851928711">
        <ele>323.0</ele>
        <time>2019-05-04T09:17:32.000Z</time>
      </trkpt>
      <trkpt lat="42.756378173828125" lon="-8.354043960571289">
        <ele>323.0</ele>
        <time>2019-05-04T09:17:37.000Z</time>
      </trkpt>
      <trkpt lat="42.75637435913086" lon="-8.354127883911133">
        <ele>323.0</ele>
        <time>2019-05-04T09:17:42.000Z</time>
      </trkpt>
      <trkpt lat="42.75632858276367" lon="-8.354203224182129">
        <ele>322.0</ele>
        <time>2019-05-04T09:17:49.000Z</time>
      </trkpt>
      <trkpt lat="42.756263732910156" lon="-8.354278564453125">
        <ele>322.0</ele>
        <time>2019-05-04T09:17:56.000Z</time>
      </trkpt>
      <trkpt lat="42.756187438964844" lon="-8.354352951049805">
        <ele>321.0</ele>
        <time>2019-05-04T09:18:03.000Z</time>
      </trkpt>
      <trkpt lat="42.756099700927734" lon="-8.354427337646484">
        <ele>321.0</ele>
        <time>2019-05-04T09:18:10.000Z</time>
      </trkpt>
      <trkpt lat="42.75603103637695" lon="-8.354504585266113">
        <ele>321.0</ele>
        <time>2019-05-04T09:18:17.000Z</time>
      </trkpt>
      <trkpt lat="42.75596618652344" lon="-8.354583740234375">
        <ele>321.0</ele>
        <time>2019-05-04T09:18:23.000Z</time>
      </trkpt>
      <trkpt lat="42.755897521972656" lon="-8.354662895202637">
        <ele>322.0</ele>
        <time>2019-05-04T09:18:30.000Z</time>
      </trkpt>
      <trkpt lat="42.75583267211914" lon="-8.354742050170898">
        <ele>322.0</ele>
        <time>2019-05-04T09:18:37.000Z</time>
      </trkpt>
      <trkpt lat="42.75579071044922" lon="-8.354803085327148">
        <ele>322.0</ele>
        <time>2019-05-04T09:18:41.000Z</time>
      </trkpt>
      <trkpt lat="42.75575637817383" lon="-8.354857444763184">
        <ele>323.0</ele>
        <time>2019-05-04T09:18:45.000Z</time>
      </trkpt>
      <trkpt lat="42.755733489990234" lon="-8.35490608215332">
        <ele>323.0</ele>
        <time>2019-05-04T09:18:50.000Z</time>
      </trkpt>
      <trkpt lat="42.75571060180664" lon="-8.354951858520508">
        <ele>323.0</ele>
        <time>2019-05-04T09:18:54.000Z</time>
      </trkpt>
      <trkpt lat="42.75571060180664" lon="-8.35498332977295">
        <ele>323.0</ele>
        <time>2019-05-04T09:18:57.000Z</time>
      </trkpt>
      <trkpt lat="42.75572204589844" lon="-8.355005264282227">
        <ele>323.0</ele>
        <time>2019-05-04T09:19:00.000Z</time>
      </trkpt>
      <trkpt lat="42.75574493408203" lon="-8.355021476745605">
        <ele>323.0</ele>
        <time>2019-05-04T09:19:03.000Z</time>
      </trkpt>
      <trkpt lat="42.75577163696289" lon="-8.355034828186035">
        <ele>323.0</ele>
        <time>2019-05-04T09:19:06.000Z</time>
      </trkpt>
      <trkpt lat="42.75578308105469" lon="-8.355047225952148">
        <ele>323.0</ele>
        <time>2019-05-04T09:19:09.000Z</time>
      </trkpt>
      <trkpt lat="42.75579071044922" lon="-8.355056762695312">
        <ele>323.0</ele>
        <time>2019-05-04T09:19:12.000Z</time>
      </trkpt>
      <trkpt lat="42.75579833984375" lon="-8.355063438415527">
        <ele>322.0</ele>
        <time>2019-05-04T09:19:15.000Z</time>
      </trkpt>
      <trkpt lat="42.755802154541016" lon="-8.355069160461426">
        <ele>322.0</ele>
        <time>2019-05-04T09:19:18.000Z</time>
      </trkpt>
      <trkpt lat="42.75580978393555" lon="-8.35507583618164">
        <ele>322.0</ele>
        <time>2019-05-04T09:19:18.000Z</time>
      </trkpt>
      <trkpt lat="42.75581741333008" lon="-8.355081558227539">
        <ele>322.0</ele>
        <time>2019-05-04T09:19:18.000Z</time>
      </trkpt>
      <trkpt lat="42.755821228027344" lon="-8.355087280273438">
        <ele>322.0</ele>
        <time>2019-05-04T09:19:19.000Z</time>
      </trkpt>
      <trkpt lat="42.75582504272461" lon="-8.35509204864502">
        <ele>322.0</ele>
        <time>2019-05-04T09:19:19.000Z</time>
      </trkpt>
      <trkpt lat="42.75587463378906" lon="-8.355143547058105">
        <ele>322.0</ele>
        <time>2019-05-04T09:19:23.000Z</time>
      </trkpt>
      <trkpt lat="42.75593948364258" lon="-8.355213165283203">
        <ele>322.0</ele>
        <time>2019-05-04T09:19:27.000Z</time>
      </trkpt>
      <trkpt lat="42.75601577758789" lon="-8.35529613494873">
        <ele>323.0</ele>
        <time>2019-05-04T09:19:32.000Z</time>
      </trkpt>
      <trkpt lat="42.756099700927734" lon="-8.355385780334473">
        <ele>323.0</ele>
        <time>2019-05-04T09:19:36.000Z</time>
      </trkpt>
      <trkpt lat="42.756168365478516" lon="-8.35545539855957">
        <ele>323.0</ele>
        <time>2019-05-04T09:19:43.000Z</time>
      </trkpt>
      <trkpt lat="42.75624084472656" lon="-8.355523109436035">
        <ele>324.0</ele>
        <time>2019-05-04T09:19:50.000Z</time>
      </trkpt>
      <trkpt lat="42.75631332397461" lon="-8.3555908203125">
        <ele>324.0</ele>
        <time>2019-05-04T09:19:58.000Z</time>
      </trkpt>
      <trkpt lat="42.75638198852539" lon="-8.355656623840332">
        <ele>325.0</ele>
        <time>2019-05-04T09:20:05.000Z</time>
      </trkpt>
      <trkpt lat="42.756473541259766" lon="-8.355860710144043">
        <ele>325.0</ele>
        <time>2019-05-04T09:20:20.000Z</time>
      </trkpt>
      <trkpt lat="42.75653839111328" lon="-8.356095314025879">
        <ele>324.0</ele>
        <time>2019-05-04T09:20:35.000Z</time>
      </trkpt>
      <trkpt lat="42.75658416748047" lon="-8.356199264526367">
        <ele>324.0</ele>
        <time>2019-05-04T09:20:42.000Z</time>
      </trkpt>
      <trkpt lat="42.756629943847656" lon="-8.356301307678223">
        <ele>323.0</ele>
        <time>2019-05-04T09:20:50.000Z</time>
      </trkpt>
      <trkpt lat="42.756675720214844" lon="-8.356402397155762">
        <ele>323.0</ele>
        <time>2019-05-04T09:20:57.000Z</time>
      </trkpt>
      <trkpt lat="42.7567253112793" lon="-8.356502532958984">
        <ele>323.0</ele>
        <time>2019-05-04T09:21:05.000Z</time>
      </trkpt>
      <trkpt lat="42.756771087646484" lon="-8.356600761413574">
        <ele>323.0</ele>
        <time>2019-05-04T09:21:11.000Z</time>
      </trkpt>
      <trkpt lat="42.75682067871094" lon="-8.356698036193848">
        <ele>323.0</ele>
        <time>2019-05-04T09:21:18.000Z</time>
      </trkpt>
      <trkpt lat="42.75687026977539" lon="-8.356795310974121">
        <ele>323.0</ele>
        <time>2019-05-04T09:21:24.000Z</time>
      </trkpt>
      <trkpt lat="42.756919860839844" lon="-8.356890678405762">
        <ele>324.0</ele>
        <time>2019-05-04T09:21:31.000Z</time>
      </trkpt>
      <trkpt lat="42.7569694519043" lon="-8.3569917678833">
        <ele>324.0</ele>
        <time>2019-05-04T09:21:38.000Z</time>
      </trkpt>
      <trkpt lat="42.75701904296875" lon="-8.357094764709473">
        <ele>324.0</ele>
        <time>2019-05-04T09:21:44.000Z</time>
      </trkpt>
      <trkpt lat="42.75706481933594" lon="-8.357197761535645">
        <ele>324.0</ele>
        <time>2019-05-04T09:21:51.000Z</time>
      </trkpt>
      <trkpt lat="42.75711441040039" lon="-8.357301712036133">
        <ele>324.0</ele>
        <time>2019-05-04T09:21:58.000Z</time>
      </trkpt>
      <trkpt lat="42.75715637207031" lon="-8.357406616210938">
        <ele>325.0</ele>
        <time>2019-05-04T09:22:05.000Z</time>
      </trkpt>
      <trkpt lat="42.75719451904297" lon="-8.357511520385742">
        <ele>326.0</ele>
        <time>2019-05-04T09:22:11.000Z</time>
      </trkpt>
      <trkpt lat="42.757232666015625" lon="-8.357617378234863">
        <ele>327.0</ele>
        <time>2019-05-04T09:22:18.000Z</time>
      </trkpt>
      <trkpt lat="42.757266998291016" lon="-8.357723236083984">
        <ele>329.0</ele>
        <time>2019-05-04T09:22:25.000Z</time>
      </trkpt>
      <trkpt lat="42.757301330566406" lon="-8.357831001281738">
        <ele>329.0</ele>
        <time>2019-05-04T09:22:33.000Z</time>
      </trkpt>
      <trkpt lat="42.75733184814453" lon="-8.357940673828125">
        <ele>328.0</ele>
        <time>2019-05-04T09:22:41.000Z</time>
      </trkpt>
      <trkpt lat="42.757362365722656" lon="-8.358051300048828">
        <ele>328.0</ele>
        <time>2019-05-04T09:22:49.000Z</time>
      </trkpt>
      <trkpt lat="42.75739288330078" lon="-8.358161926269531">
        <ele>327.0</ele>
        <time>2019-05-04T09:22:57.000Z</time>
      </trkpt>
      <trkpt lat="42.75752258300781" lon="-8.358591079711914">
        <ele>325.0</ele>
        <time>2019-05-04T09:23:23.000Z</time>
      </trkpt>
      <trkpt lat="42.75773239135742" lon="-8.358986854553223">
        <ele>323.0</ele>
        <time>2019-05-04T09:23:53.000Z</time>
      </trkpt>
      <trkpt lat="42.757930755615234" lon="-8.359378814697266">
        <ele>318.0</ele>
        <time>2019-05-04T09:24:22.000Z</time>
      </trkpt>
      <trkpt lat="42.757957458496094" lon="-8.35955810546875">
        <ele>319.0</ele>
        <time>2019-05-04T09:24:33.000Z</time>
      </trkpt>
      <trkpt lat="42.75795364379883" lon="-8.359729766845703">
        <ele>320.0</ele>
        <time>2019-05-04T09:24:45.000Z</time>
      </trkpt>
      <trkpt lat="42.75796127319336" lon="-8.359766006469727">
        <ele>321.0</ele>
        <time>2019-05-04T09:24:49.000Z</time>
      </trkpt>
      <trkpt lat="42.757965087890625" lon="-8.359780311584473">
        <ele>322.0</ele>
        <time>2019-05-04T09:24:52.000Z</time>
      </trkpt>
      <trkpt lat="42.75796890258789" lon="-8.359779357910156">
        <ele>322.0</ele>
        <time>2019-05-04T09:24:56.000Z</time>
      </trkpt>
      <trkpt lat="42.757972717285156" lon="-8.359771728515625">
        <ele>323.0</ele>
        <time>2019-05-04T09:25:00.000Z</time>
      </trkpt>
      <trkpt lat="42.75797653198242" lon="-8.359780311584473">
        <ele>323.0</ele>
        <time>2019-05-04T09:25:00.000Z</time>
      </trkpt>
      <trkpt lat="42.75798034667969" lon="-8.35978889465332">
        <ele>323.0</ele>
        <time>2019-05-04T09:25:00.000Z</time>
      </trkpt>
      <trkpt lat="42.75798034667969" lon="-8.359796524047852">
        <ele>323.0</ele>
        <time>2019-05-04T09:25:01.000Z</time>
      </trkpt>
      <trkpt lat="42.75798416137695" lon="-8.359803199768066">
        <ele>323.0</ele>
        <time>2019-05-04T09:25:01.000Z</time>
      </trkpt>
      <trkpt lat="42.75800704956055" lon="-8.35987377166748">
        <ele>323.0</ele>
        <time>2019-05-04T09:25:04.000Z</time>
      </trkpt>
      <trkpt lat="42.75804138183594" lon="-8.359971046447754">
        <ele>324.0</ele>
        <time>2019-05-04T09:25:08.000Z</time>
      </trkpt>
      <trkpt lat="42.758079528808594" lon="-8.360084533691406">
        <ele>325.0</ele>
        <time>2019-05-04T09:25:11.000Z</time>
      </trkpt>
      <trkpt lat="42.75811767578125" lon="-8.360207557678223">
        <ele>325.0</ele>
        <time>2019-05-04T09:25:15.000Z</time>
      </trkpt>
      <trkpt lat="42.758201599121094" lon="-8.360332489013672">
        <ele>326.0</ele>
        <time>2019-05-04T09:25:22.000Z</time>
      </trkpt>
      <trkpt lat="42.75829315185547" lon="-8.360421180725098">
        <ele>327.0</ele>
        <time>2019-05-04T09:25:30.000Z</time>
      </trkpt>
      <trkpt lat="42.75830841064453" lon="-8.360447883605957">
        <ele>327.0</ele>
        <time>2019-05-04T09:25:36.000Z</time>
      </trkpt>
      <trkpt lat="42.7582893371582" lon="-8.36043643951416">
        <ele>328.0</ele>
        <time>2019-05-04T09:25:43.000Z</time>
      </trkpt>
      <trkpt lat="42.7582893371582" lon="-8.36043930053711">
        <ele>328.0</ele>
        <time>2019-05-04T09:25:43.000Z</time>
      </trkpt>
      <trkpt lat="42.7582893371582" lon="-8.360443115234375">
        <ele>328.0</ele>
        <time>2019-05-04T09:25:43.000Z</time>
      </trkpt>
      <trkpt lat="42.7582893371582" lon="-8.360445976257324">
        <ele>328.0</ele>
        <time>2019-05-04T09:25:44.000Z</time>
      </trkpt>
      <trkpt lat="42.7582893371582" lon="-8.36044979095459">
        <ele>328.0</ele>
        <time>2019-05-04T09:25:44.000Z</time>
      </trkpt>
      <trkpt lat="42.75828170776367" lon="-8.360526084899902">
        <ele>328.0</ele>
        <time>2019-05-04T09:25:48.000Z</time>
      </trkpt>
      <trkpt lat="42.75826644897461" lon="-8.36063289642334">
        <ele>328.0</ele>
        <time>2019-05-04T09:25:52.000Z</time>
      </trkpt>
      <trkpt lat="42.75825500488281" lon="-8.360760688781738">
        <ele>329.0</ele>
        <time>2019-05-04T09:25:56.000Z</time>
      </trkpt>
      <trkpt lat="42.75823974609375" lon="-8.3608980178833">
        <ele>329.0</ele>
        <time>2019-05-04T09:26:00.000Z</time>
      </trkpt>
      <trkpt lat="42.758235931396484" lon="-8.36093807220459">
        <ele>329.0</ele>
        <time>2019-05-04T09:26:00.000Z</time>
      </trkpt>
      <trkpt lat="42.758235931396484" lon="-8.360947608947754">
        <ele>329.0</ele>
        <time>2019-05-04T09:26:01.000Z</time>
      </trkpt>
      <trkpt lat="42.758235931396484" lon="-8.36093807220459">
        <ele>329.0</ele>
        <time>2019-05-04T09:26:01.000Z</time>
      </trkpt>
      <trkpt lat="42.75823974609375" lon="-8.360917091369629">
        <ele>329.0</ele>
        <time>2019-05-04T09:26:02.000Z</time>
      </trkpt>
      <trkpt lat="42.75825119018555" lon="-8.360949516296387">
        <ele>329.0</ele>
        <time>2019-05-04T09:26:07.000Z</time>
      </trkpt>
      <trkpt lat="42.75826644897461" lon="-8.360993385314941">
        <ele>329.0</ele>
        <time>2019-05-04T09:26:11.000Z</time>
      </trkpt>
      <trkpt lat="42.75828170776367" lon="-8.361044883728027">
        <ele>330.0</ele>
        <time>2019-05-04T09:26:16.000Z</time>
      </trkpt>
      <trkpt lat="42.75830078125" lon="-8.361100196838379">
        <ele>330.0</ele>
        <time>2019-05-04T09:26:21.000Z</time>
      </trkpt>
      <trkpt lat="42.75830841064453" lon="-8.36112117767334">
        <ele>330.0</ele>
        <time>2019-05-04T09:26:21.000Z</time>
      </trkpt>
      <trkpt lat="42.7583122253418" lon="-8.361133575439453">
        <ele>330.0</ele>
        <time>2019-05-04T09:26:21.000Z</time>
      </trkpt>
      <trkpt lat="42.75831604003906" lon="-8.361138343811035">
        <ele>330.0</ele>
        <time>2019-05-04T09:26:22.000Z</time>
      </trkpt>
      <trkpt lat="42.75831604003906" lon="-8.361140251159668">
        <ele>330.0</ele>
        <time>2019-05-04T09:26:22.000Z</time>
      </trkpt>
      <trkpt lat="42.75836181640625" lon="-8.36121654510498">
        <ele>330.0</ele>
        <time>2019-05-04T09:26:25.000Z</time>
      </trkpt>
      <trkpt lat="42.758384704589844" lon="-8.36121940612793">
        <ele>330.0</ele>
        <time>2019-05-04T09:26:26.000Z</time>
      </trkpt>
      <trkpt lat="42.75840759277344" lon="-8.361215591430664">
        <ele>329.0</ele>
        <time>2019-05-04T09:26:27.000Z</time>
      </trkpt>
      <trkpt lat="42.75843811035156" lon="-8.361207008361816">
        <ele>329.0</ele>
        <time>2019-05-04T09:26:29.000Z</time>
      </trkpt>
      <trkpt lat="42.75846862792969" lon="-8.361197471618652">
        <ele>329.0</ele>
        <time>2019-05-04T09:26:30.000Z</time>
      </trkpt>
      <trkpt lat="42.75849914550781" lon="-8.361231803894043">
        <ele>329.0</ele>
        <time>2019-05-04T09:26:35.000Z</time>
      </trkpt>
      <trkpt lat="42.7585334777832" lon="-8.361282348632812">
        <ele>329.0</ele>
        <time>2019-05-04T09:26:41.000Z</time>
      </trkpt>
      <trkpt lat="42.758567810058594" lon="-8.361344337463379">
        <ele>329.0</ele>
        <time>2019-05-04T09:26:46.000Z</time>
      </trkpt>
      <trkpt lat="42.758602142333984" lon="-8.361412048339844">
        <ele>329.0</ele>
        <time>2019-05-04T09:26:52.000Z</time>
      </trkpt>
      <trkpt lat="42.75861740112305" lon="-8.361443519592285">
        <ele>328.0</ele>
        <time>2019-05-04T09:26:54.000Z</time>
      </trkpt>
      <trkpt lat="42.758628845214844" lon="-8.361465454101562">
        <ele>328.0</ele>
        <time>2019-05-04T09:26:56.000Z</time>
      </trkpt>
      <trkpt lat="42.75863265991211" lon="-8.361480712890625">
        <ele>328.0</ele>
        <time>2019-05-04T09:26:58.000Z</time>
      </trkpt>
      <trkpt lat="42.758636474609375" lon="-8.361493110656738">
        <ele>328.0</ele>
        <time>2019-05-04T09:27:00.000Z</time>
      </trkpt>
      <trkpt lat="42.758644104003906" lon="-8.361544609069824">
        <ele>327.0</ele>
        <time>2019-05-04T09:27:06.000Z</time>
      </trkpt>
      <trkpt lat="42.758644104003906" lon="-8.361600875854492">
        <ele>326.0</ele>
        <time>2019-05-04T09:27:12.000Z</time>
      </trkpt>
      <trkpt lat="42.75864791870117" lon="-8.361617088317871">
        <ele>326.0</ele>
        <time>2019-05-04T09:27:12.000Z</time>
      </trkpt>
      <trkpt lat="42.75864791870117" lon="-8.361629486083984">
        <ele>326.0</ele>
        <time>2019-05-04T09:27:12.000Z</time>
      </trkpt>
      <trkpt lat="42.75864791870117" lon="-8.361639022827148">
        <ele>326.0</ele>
        <time>2019-05-04T09:27:13.000Z</time>
      </trkpt>
      <trkpt lat="42.75864791870117" lon="-8.36164665222168">
        <ele>326.0</ele>
        <time>2019-05-04T09:27:13.000Z</time>
      </trkpt>
      <trkpt lat="42.75865936279297" lon="-8.36172866821289">
        <ele>326.0</ele>
        <time>2019-05-04T09:27:17.000Z</time>
      </trkpt>
      <trkpt lat="42.7586784362793" lon="-8.36184024810791">
        <ele>326.0</ele>
        <time>2019-05-04T09:27:22.000Z</time>
      </trkpt>
      <trkpt lat="42.758697509765625" lon="-8.361971855163574">
        <ele>326.0</ele>
        <time>2019-05-04T09:27:26.000Z</time>
      </trkpt>
      <trkpt lat="42.75872039794922" lon="-8.362113952636719">
        <ele>326.0</ele>
        <time>2019-05-04T09:27:31.000Z</time>
      </trkpt>
      <trkpt lat="42.75874328613281" lon="-8.362229347229004">
        <ele>325.0</ele>
        <time>2019-05-04T09:27:38.000Z</time>
      </trkpt>
      <trkpt lat="42.758766174316406" lon="-8.362344741821289">
        <ele>324.0</ele>
        <time>2019-05-04T09:27:45.000Z</time>
      </trkpt>
      <trkpt lat="42.758792877197266" lon="-8.362459182739258">
        <ele>323.0</ele>
        <time>2019-05-04T09:27:52.000Z</time>
      </trkpt>
      <trkpt lat="42.758819580078125" lon="-8.362573623657227">
        <ele>322.0</ele>
        <time>2019-05-04T09:27:59.000Z</time>
      </trkpt>
      <trkpt lat="42.75884246826172" lon="-8.362691879272461">
        <ele>320.0</ele>
        <time>2019-05-04T09:28:06.000Z</time>
      </trkpt>
      <trkpt lat="42.75886535644531" lon="-8.362810134887695">
        <ele>319.0</ele>
        <time>2019-05-04T09:28:13.000Z</time>
      </trkpt>
      <trkpt lat="42.758888244628906" lon="-8.362930297851562">
        <ele>318.0</ele>
        <time>2019-05-04T09:28:21.000Z</time>
      </trkpt>
      <trkpt lat="42.758907318115234" lon="-8.36305046081543">
        <ele>317.0</ele>
        <time>2019-05-04T09:28:28.000Z</time>
      </trkpt>
      <trkpt lat="42.758968353271484" lon="-8.363178253173828">
        <ele>316.0</ele>
        <time>2019-05-04T09:28:36.000Z</time>
      </trkpt>
      <trkpt lat="42.759037017822266" lon="-8.36325454711914">
        <ele>316.0</ele>
        <time>2019-05-04T09:28:45.000Z</time>
      </trkpt>
      <trkpt lat="42.7590446472168" lon="-8.363314628601074">
        <ele>317.0</ele>
        <time>2019-05-04T09:28:48.000Z</time>
      </trkpt>
      <trkpt lat="42.75904083251953" lon="-8.36337947845459">
        <ele>318.0</ele>
        <time>2019-05-04T09:28:51.000Z</time>
      </trkpt>
      <trkpt lat="42.759033203125" lon="-8.363446235656738">
        <ele>319.0</ele>
        <time>2019-05-04T09:28:55.000Z</time>
      </trkpt>
      <trkpt lat="42.75901794433594" lon="-8.36351490020752">
        <ele>320.0</ele>
        <time>2019-05-04T09:28:58.000Z</time>
      </trkpt>
      <trkpt lat="42.75907897949219" lon="-8.363718032836914">
        <ele>321.0</ele>
        <time>2019-05-04T09:29:12.000Z</time>
      </trkpt>
      <trkpt lat="42.75917434692383" lon="-8.3639554977417">
        <ele>322.0</ele>
        <time>2019-05-04T09:29:27.000Z</time>
      </trkpt>
      <trkpt lat="42.75923156738281" lon="-8.36404800415039">
        <ele>323.0</ele>
        <time>2019-05-04T09:29:34.000Z</time>
      </trkpt>
      <trkpt lat="42.75929641723633" lon="-8.36413288116455">
        <ele>325.0</ele>
        <time>2019-05-04T09:29:41.000Z</time>
      </trkpt>
      <trkpt lat="42.759368896484375" lon="-8.364212036132812">
        <ele>327.0</ele>
        <time>2019-05-04T09:29:49.000Z</time>
      </trkpt>
      <trkpt lat="42.75944137573242" lon="-8.364290237426758">
        <ele>329.0</ele>
        <time>2019-05-04T09:29:56.000Z</time>
      </trkpt>
      <trkpt lat="42.75949478149414" lon="-8.364383697509766">
        <ele>331.0</ele>
        <time>2019-05-04T09:30:04.000Z</time>
      </trkpt>
      <trkpt lat="42.75954055786133" lon="-8.364480972290039">
        <ele>332.0</ele>
        <time>2019-05-04T09:30:11.000Z</time>
      </trkpt>
      <trkpt lat="42.75958251953125" lon="-8.364582061767578">
        <ele>334.0</ele>
        <time>2019-05-04T09:30:19.000Z</time>
      </trkpt>
      <trkpt lat="42.75962448120117" lon="-8.364684104919434">
        <ele>335.0</ele>
        <time>2019-05-04T09:30:27.000Z</time>
      </trkpt>
      <trkpt lat="42.75969696044922" lon="-8.364763259887695">
        <ele>337.0</ele>
        <time>2019-05-04T09:30:38.000Z</time>
      </trkpt>
      <trkpt lat="42.759769439697266" lon="-8.364789009094238">
        <ele>339.0</ele>
        <time>2019-05-04T09:30:50.000Z</time>
      </trkpt>
      <trkpt lat="42.759788513183594" lon="-8.364802360534668">
        <ele>340.0</ele>
        <time>2019-05-04T09:30:56.000Z</time>
      </trkpt>
      <trkpt lat="42.75979995727539" lon="-8.364810943603516">
        <ele>341.0</ele>
        <time>2019-05-04T09:31:03.000Z</time>
      </trkpt>
      <trkpt lat="42.75980758666992" lon="-8.364815711975098">
        <ele>342.0</ele>
        <time>2019-05-04T09:31:09.000Z</time>
      </trkpt>
      <trkpt lat="42.75981521606445" lon="-8.364819526672363">
        <ele>343.0</ele>
        <time>2019-05-04T09:31:16.000Z</time>
      </trkpt>
      <trkpt lat="42.759822845458984" lon="-8.364824295043945">
        <ele>343.0</ele>
        <time>2019-05-04T09:31:16.000Z</time>
      </trkpt>
      <trkpt lat="42.75982666015625" lon="-8.364829063415527">
        <ele>343.0</ele>
        <time>2019-05-04T09:31:16.000Z</time>
      </trkpt>
      <trkpt lat="42.75983428955078" lon="-8.364832878112793">
        <ele>343.0</ele>
        <time>2019-05-04T09:31:17.000Z</time>
      </trkpt>
      <trkpt lat="42.75983810424805" lon="-8.364836692810059">
        <ele>343.0</ele>
        <time>2019-05-04T09:31:17.000Z</time>
      </trkpt>
      <trkpt lat="42.75984573364258" lon="-8.364842414855957">
        <ele>343.0</ele>
        <time>2019-05-04T09:31:17.000Z</time>
      </trkpt>
      <trkpt lat="42.75985336303711" lon="-8.364848136901855">
        <ele>343.0</ele>
        <time>2019-05-04T09:31:18.000Z</time>
      </trkpt>
      <trkpt lat="42.759864807128906" lon="-8.364853858947754">
        <ele>343.0</ele>
        <time>2019-05-04T09:31:18.000Z</time>
      </trkpt>
      <trkpt lat="42.75987243652344" lon="-8.364860534667969">
        <ele>343.0</ele>
        <time>2019-05-04T09:31:19.000Z</time>
      </trkpt>
      <trkpt lat="42.75988006591797" lon="-8.364872932434082">
        <ele>343.0</ele>
        <time>2019-05-04T09:31:26.000Z</time>
      </trkpt>
      <trkpt lat="42.7598876953125" lon="-8.364887237548828">
        <ele>344.0</ele>
        <time>2019-05-04T09:31:34.000Z</time>
      </trkpt>
      <trkpt lat="42.7598876953125" lon="-8.364892959594727">
        <ele>344.0</ele>
        <time>2019-05-04T09:31:34.000Z</time>
      </trkpt>
      <trkpt lat="42.759891510009766" lon="-8.364898681640625">
        <ele>344.0</ele>
        <time>2019-05-04T09:31:34.000Z</time>
      </trkpt>
      <trkpt lat="42.75989532470703" lon="-8.364903450012207">
        <ele>344.0</ele>
        <time>2019-05-04T09:31:35.000Z</time>
      </trkpt>
      <trkpt lat="42.7598991394043" lon="-8.364908218383789">
        <ele>344.0</ele>
        <time>2019-05-04T09:31:35.000Z</time>
      </trkpt>
      <trkpt lat="42.75993347167969" lon="-8.364959716796875">
        <ele>344.0</ele>
        <time>2019-05-04T09:31:37.000Z</time>
      </trkpt>
      <trkpt lat="42.759979248046875" lon="-8.365030288696289">
        <ele>345.0</ele>
        <time>2019-05-04T09:31:39.000Z</time>
      </trkpt>
      <trkpt lat="42.760032653808594" lon="-8.365113258361816">
        <ele>345.0</ele>
        <time>2019-05-04T09:31:42.000Z</time>
      </trkpt>
      <trkpt lat="42.760093688964844" lon="-8.365202903747559">
        <ele>346.0</ele>
        <time>2019-05-04T09:31:44.000Z</time>
      </trkpt>
      <trkpt lat="42.760128021240234" lon="-8.365219116210938">
        <ele>345.0</ele>
        <time>2019-05-04T09:31:47.000Z</time>
      </trkpt>
      <trkpt lat="42.76015853881836" lon="-8.365211486816406">
        <ele>344.0</ele>
        <time>2019-05-04T09:31:49.000Z</time>
      </trkpt>
      <trkpt lat="42.76018524169922" lon="-8.365187644958496">
        <ele>343.0</ele>
        <time>2019-05-04T09:31:52.000Z</time>
      </trkpt>
      <trkpt lat="42.76021194458008" lon="-8.365156173706055">
        <ele>341.0</ele>
        <time>2019-05-04T09:31:55.000Z</time>
      </trkpt>
      <trkpt lat="42.760223388671875" lon="-8.365153312683105">
        <ele>341.0</ele>
        <time>2019-05-04T09:31:56.000Z</time>
      </trkpt>
      <trkpt lat="42.76022720336914" lon="-8.365153312683105">
        <ele>341.0</ele>
        <time>2019-05-04T09:31:57.000Z</time>
      </trkpt>
      <trkpt lat="42.760231018066406" lon="-8.365156173706055">
        <ele>341.0</ele>
        <time>2019-05-04T09:31:58.000Z</time>
      </trkpt>
      <trkpt lat="42.76022720336914" lon="-8.36515998840332">
        <ele>342.0</ele>
        <time>2019-05-04T09:31:59.000Z</time>
      </trkpt>
      <trkpt lat="42.7602424621582" lon="-8.365155220031738">
        <ele>343.0</ele>
        <time>2019-05-04T09:32:11.000Z</time>
      </trkpt>
      <trkpt lat="42.760257720947266" lon="-8.365148544311523">
        <ele>344.0</ele>
        <time>2019-05-04T09:32:24.000Z</time>
      </trkpt>
      <trkpt lat="42.76026153564453" lon="-8.365145683288574">
        <ele>344.0</ele>
        <time>2019-05-04T09:32:24.000Z</time>
      </trkpt>
      <trkpt lat="42.76026916503906" lon="-8.365143775939941">
        <ele>344.0</ele>
        <time>2019-05-04T09:32:24.000Z</time>
      </trkpt>
      <trkpt lat="42.76027297973633" lon="-8.365141868591309">
        <ele>344.0</ele>
        <time>2019-05-04T09:32:25.000Z</time>
      </trkpt>
      <trkpt lat="42.760276794433594" lon="-8.365139961242676">
        <ele>344.0</ele>
        <time>2019-05-04T09:32:25.000Z</time>
      </trkpt>
      <trkpt lat="42.76030731201172" lon="-8.36514663696289">
        <ele>344.0</ele>
        <time>2019-05-04T09:32:27.000Z</time>
      </trkpt>
      <trkpt lat="42.760345458984375" lon="-8.365156173706055">
        <ele>344.0</ele>
        <time>2019-05-04T09:32:29.000Z</time>
      </trkpt>
      <trkpt lat="42.76039123535156" lon="-8.365168571472168">
        <ele>344.0</ele>
        <time>2019-05-04T09:32:32.000Z</time>
      </trkpt>
      <trkpt lat="42.760440826416016" lon="-8.365181922912598">
        <ele>344.0</ele>
        <time>2019-05-04T09:32:34.000Z</time>
      </trkpt>
      <trkpt lat="42.76045608520508" lon="-8.365191459655762">
        <ele>346.0</ele>
        <time>2019-05-04T09:32:39.000Z</time>
      </trkpt>
      <trkpt lat="42.760440826416016" lon="-8.365195274353027">
        <ele>348.0</ele>
        <time>2019-05-04T09:32:44.000Z</time>
      </trkpt>
      <trkpt lat="42.760440826416016" lon="-8.365198135375977">
        <ele>348.0</ele>
        <time>2019-05-04T09:32:44.000Z</time>
      </trkpt>
      <trkpt lat="42.760440826416016" lon="-8.365200996398926">
        <ele>348.0</ele>
        <time>2019-05-04T09:32:44.000Z</time>
      </trkpt>
      <trkpt lat="42.760440826416016" lon="-8.365204811096191">
        <ele>348.0</ele>
        <time>2019-05-04T09:32:45.000Z</time>
      </trkpt>
      <trkpt lat="42.760440826416016" lon="-8.36520767211914">
        <ele>348.0</ele>
        <time>2019-05-04T09:32:45.000Z</time>
      </trkpt>
      <trkpt lat="42.76044464111328" lon="-8.36522102355957">
        <ele>348.0</ele>
        <time>2019-05-04T09:32:45.000Z</time>
      </trkpt>
      <trkpt lat="42.76044845581055" lon="-8.365239143371582">
        <ele>348.0</ele>
        <time>2019-05-04T09:32:46.000Z</time>
      </trkpt>
      <trkpt lat="42.76045227050781" lon="-8.365260124206543">
        <ele>348.0</ele>
        <time>2019-05-04T09:32:46.000Z</time>
      </trkpt>
      <trkpt lat="42.76045608520508" lon="-8.365283012390137">
        <ele>348.0</ele>
        <time>2019-05-04T09:32:47.000Z</time>
      </trkpt>
      <trkpt lat="42.76047134399414" lon="-8.365338325500488">
        <ele>348.0</ele>
        <time>2019-05-04T09:32:49.000Z</time>
      </trkpt>
      <trkpt lat="42.760494232177734" lon="-8.365407943725586">
        <ele>348.0</ele>
        <time>2019-05-04T09:32:52.000Z</time>
      </trkpt>
      <trkpt lat="42.76052474975586" lon="-8.365488052368164">
        <ele>349.0</ele>
        <time>2019-05-04T09:32:54.000Z</time>
      </trkpt>
      <trkpt lat="42.760555267333984" lon="-8.36557388305664">
        <ele>350.0</ele>
        <time>2019-05-04T09:32:57.000Z</time>
      </trkpt>
      <trkpt lat="42.760562896728516" lon="-8.365599632263184">
        <ele>350.0</ele>
        <time>2019-05-04T09:33:01.000Z</time>
      </trkpt>
      <trkpt lat="42.760562896728516" lon="-8.365606307983398">
        <ele>350.0</ele>
        <time>2019-05-04T09:33:05.000Z</time>
      </trkpt>
      <trkpt lat="42.760562896728516" lon="-8.365599632263184">
        <ele>351.0</ele>
        <time>2019-05-04T09:33:09.000Z</time>
      </trkpt>
      <trkpt lat="42.76055908203125" lon="-8.365586280822754">
        <ele>351.0</ele>
        <time>2019-05-04T09:33:13.000Z</time>
      </trkpt>
      <trkpt lat="42.76055908203125" lon="-8.365589141845703">
        <ele>351.0</ele>
        <time>2019-05-04T09:33:13.000Z</time>
      </trkpt>
      <trkpt lat="42.76055908203125" lon="-8.365592002868652">
        <ele>351.0</ele>
        <time>2019-05-04T09:33:13.000Z</time>
      </trkpt>
      <trkpt lat="42.76055908203125" lon="-8.365594863891602">
        <ele>351.0</ele>
        <time>2019-05-04T09:33:14.000Z</time>
      </trkpt>
      <trkpt lat="42.760562896728516" lon="-8.36559772491455">
        <ele>351.0</ele>
        <time>2019-05-04T09:33:14.000Z</time>
      </trkpt>
      <trkpt lat="42.76066589355469" lon="-8.366055488586426">
        <ele>351.0</ele>
        <time>2019-05-04T09:33:29.000Z</time>
      </trkpt>
      <trkpt lat="42.760738372802734" lon="-8.366293907165527">
        <ele>352.0</ele>
        <time>2019-05-04T09:33:42.000Z</time>
      </trkpt>
      <trkpt lat="42.76078796386719" lon="-8.366446495056152">
        <ele>353.0</ele>
        <time>2019-05-04T09:33:57.000Z</time>
      </trkpt>
      <trkpt lat="42.76080322265625" lon="-8.366490364074707">
        <ele>353.0</ele>
        <time>2019-05-04T09:33:58.000Z</time>
      </trkpt>
      <trkpt lat="42.76082229614258" lon="-8.366589546203613">
        <ele>354.0</ele>
        <time>2019-05-04T09:34:02.000Z</time>
      </trkpt>
      <trkpt lat="42.76083755493164" lon="-8.366623878479004">
        <ele>353.0</ele>
        <time>2019-05-04T09:34:15.000Z</time>
      </trkpt>
      <trkpt lat="42.76084899902344" lon="-8.366649627685547">
        <ele>353.0</ele>
        <time>2019-05-04T09:34:16.000Z</time>
      </trkpt>
      <trkpt lat="42.760982513427734" lon="-8.367079734802246">
        <ele>352.0</ele>
        <time>2019-05-04T09:34:33.000Z</time>
      </trkpt>
      <trkpt lat="42.761138916015625" lon="-8.367409706115723">
        <ele>351.0</ele>
        <time>2019-05-04T09:34:55.000Z</time>
      </trkpt>
      <trkpt lat="42.76115036010742" lon="-8.367451667785645">
        <ele>353.0</ele>
        <time>2019-05-04T09:35:12.000Z</time>
      </trkpt>
      <trkpt lat="42.76115798950195" lon="-8.36748218536377">
        <ele>353.0</ele>
        <time>2019-05-04T09:35:13.000Z</time>
      </trkpt>
      <trkpt lat="42.761207580566406" lon="-8.367659568786621">
        <ele>353.0</ele>
        <time>2019-05-04T09:35:17.000Z</time>
      </trkpt>
      <trkpt lat="42.76132583618164" lon="-8.367831230163574">
        <ele>353.0</ele>
        <time>2019-05-04T09:35:30.000Z</time>
      </trkpt>
      <trkpt lat="42.76144790649414" lon="-8.36800479888916">
        <ele>351.0</ele>
        <time>2019-05-04T09:35:43.000Z</time>
      </trkpt>
      <trkpt lat="42.76154327392578" lon="-8.368196487426758">
        <ele>351.0</ele>
        <time>2019-05-04T09:36:00.000Z</time>
      </trkpt>
      <trkpt lat="42.76163864135742" lon="-8.368403434753418">
        <ele>351.0</ele>
        <time>2019-05-04T09:36:16.000Z</time>
      </trkpt>
      <trkpt lat="42.76166534423828" lon="-8.368651390075684">
        <ele>346.0</ele>
        <time>2019-05-04T09:36:36.000Z</time>
      </trkpt>
      <trkpt lat="42.76171112060547" lon="-8.368896484375">
        <ele>345.0</ele>
        <time>2019-05-04T09:36:54.000Z</time>
      </trkpt>
      <trkpt lat="42.76172637939453" lon="-8.369009971618652">
        <ele>343.0</ele>
        <time>2019-05-04T09:37:05.000Z</time>
      </trkpt>
      <trkpt lat="42.76173782348633" lon="-8.369039535522461">
        <ele>342.0</ele>
        <time>2019-05-04T09:37:20.000Z</time>
      </trkpt>
      <trkpt lat="42.76174545288086" lon="-8.369062423706055">
        <ele>342.0</ele>
        <time>2019-05-04T09:37:21.000Z</time>
      </trkpt>
      <trkpt lat="42.76176834106445" lon="-8.36912727355957">
        <ele>342.0</ele>
        <time>2019-05-04T09:37:23.000Z</time>
      </trkpt>
      <trkpt lat="42.76180648803711" lon="-8.3694429397583">
        <ele>342.0</ele>
        <time>2019-05-04T09:37:34.000Z</time>
      </trkpt>
      <trkpt lat="42.761837005615234" lon="-8.369482040405273">
        <ele>341.0</ele>
        <time>2019-05-04T09:37:37.000Z</time>
      </trkpt>
      <trkpt lat="42.761878967285156" lon="-8.369504928588867">
        <ele>341.0</ele>
        <time>2019-05-04T09:37:39.000Z</time>
      </trkpt>
      <trkpt lat="42.76192855834961" lon="-8.369516372680664">
        <ele>340.0</ele>
        <time>2019-05-04T09:37:42.000Z</time>
      </trkpt>
      <trkpt lat="42.76198196411133" lon="-8.369522094726562">
        <ele>340.0</ele>
        <time>2019-05-04T09:37:45.000Z</time>
      </trkpt>
      <trkpt lat="42.76201248168945" lon="-8.369538307189941">
        <ele>340.0</ele>
        <time>2019-05-04T09:37:48.000Z</time>
      </trkpt>
      <trkpt lat="42.76203536987305" lon="-8.369553565979004">
        <ele>340.0</ele>
        <time>2019-05-04T09:37:50.000Z</time>
      </trkpt>
      <trkpt lat="42.76205062866211" lon="-8.369566917419434">
        <ele>339.0</ele>
        <time>2019-05-04T09:37:53.000Z</time>
      </trkpt>
      <trkpt lat="42.76206588745117" lon="-8.369580268859863">
        <ele>339.0</ele>
        <time>2019-05-04T09:37:56.000Z</time>
      </trkpt>
      <trkpt lat="42.7620849609375" lon="-8.369603157043457">
        <ele>339.0</ele>
        <time>2019-05-04T09:38:04.000Z</time>
      </trkpt>
      <trkpt lat="42.762088775634766" lon="-8.369622230529785">
        <ele>340.0</ele>
        <time>2019-05-04T09:38:13.000Z</time>
      </trkpt>
      <trkpt lat="42.76209259033203" lon="-8.36963176727295">
        <ele>340.0</ele>
        <time>2019-05-04T09:38:13.000Z</time>
      </trkpt>
      <trkpt lat="42.7620964050293" lon="-8.36963939666748">
        <ele>340.0</ele>
        <time>2019-05-04T09:38:13.000Z</time>
      </trkpt>
      <trkpt lat="42.76210021972656" lon="-8.369646072387695">
        <ele>340.0</ele>
        <time>2019-05-04T09:38:14.000Z</time>
      </trkpt>
      <trkpt lat="42.76210403442383" lon="-8.369653701782227">
        <ele>340.0</ele>
        <time>2019-05-04T09:38:14.000Z</time>
      </trkpt>
      <trkpt lat="42.76213836669922" lon="-8.369722366333008">
        <ele>339.0</ele>
        <time>2019-05-04T09:38:17.000Z</time>
      </trkpt>
      <trkpt lat="42.76218032836914" lon="-8.369816780090332">
        <ele>339.0</ele>
        <time>2019-05-04T09:38:21.000Z</time>
      </trkpt>
      <trkpt lat="42.76223373413086" lon="-8.369928359985352">
        <ele>338.0</ele>
        <time>2019-05-04T09:38:24.000Z</time>
      </trkpt>
      <trkpt lat="42.76228713989258" lon="-8.370049476623535">
        <ele>338.0</ele>
        <time>2019-05-04T09:38:28.000Z</time>
      </trkpt>
      <trkpt lat="42.76234436035156" lon="-8.370126724243164">
        <ele>337.0</ele>
        <time>2019-05-04T09:38:35.000Z</time>
      </trkpt>
      <trkpt lat="42.76240921020508" lon="-8.370194435119629">
        <ele>337.0</ele>
        <time>2019-05-04T09:38:41.000Z</time>
      </trkpt>
      <trkpt lat="42.762474060058594" lon="-8.370257377624512">
        <ele>337.0</ele>
        <time>2019-05-04T09:38:48.000Z</time>
      </trkpt>
      <trkpt lat="42.762542724609375" lon="-8.370316505432129">
        <ele>337.0</ele>
        <time>2019-05-04T09:38:55.000Z</time>
      </trkpt>
      <trkpt lat="42.7625732421875" lon="-8.37035083770752">
        <ele>337.0</ele>
        <time>2019-05-04T09:38:59.000Z</time>
      </trkpt>
      <trkpt lat="42.76258850097656" lon="-8.370370864868164">
        <ele>336.0</ele>
        <time>2019-05-04T09:39:03.000Z</time>
      </trkpt>
      <trkpt lat="42.762596130371094" lon="-8.370381355285645">
        <ele>336.0</ele>
        <time>2019-05-04T09:39:08.000Z</time>
      </trkpt>
      <trkpt lat="42.76259994506836" lon="-8.37038803100586">
        <ele>336.0</ele>
        <time>2019-05-04T09:39:12.000Z</time>
      </trkpt>
      <trkpt lat="42.76260757446289" lon="-8.370400428771973">
        <ele>335.0</ele>
        <time>2019-05-04T09:39:12.000Z</time>
      </trkpt>
      <trkpt lat="42.76261520385742" lon="-8.37040901184082">
        <ele>335.0</ele>
        <time>2019-05-04T09:39:12.000Z</time>
      </trkpt>
      <trkpt lat="42.76261901855469" lon="-8.370416641235352">
        <ele>336.0</ele>
        <time>2019-05-04T09:39:13.000Z</time>
      </trkpt>
      <trkpt lat="42.76262664794922" lon="-8.370424270629883">
        <ele>336.0</ele>
        <time>2019-05-04T09:39:13.000Z</time>
      </trkpt>
      <trkpt lat="42.762847900390625" lon="-8.370767593383789">
        <ele>333.0</ele>
        <time>2019-05-04T09:39:32.000Z</time>
      </trkpt>
      <trkpt lat="42.76314926147461" lon="-8.370996475219727">
        <ele>330.0</ele>
        <time>2019-05-04T09:39:57.000Z</time>
      </trkpt>
      <trkpt lat="42.76338577270508" lon="-8.37133502960205">
        <ele>323.0</ele>
        <time>2019-05-04T09:40:29.000Z</time>
      </trkpt>
      <trkpt lat="42.76346206665039" lon="-8.371435165405273">
        <ele>322.0</ele>
        <time>2019-05-04T09:40:43.000Z</time>
      </trkpt>
      <trkpt lat="42.76348876953125" lon="-8.371474266052246">
        <ele>322.0</ele>
        <time>2019-05-04T09:40:44.000Z</time>
      </trkpt>
      <trkpt lat="42.76377487182617" lon="-8.371752738952637">
        <ele>322.0</ele>
        <time>2019-05-04T09:41:05.000Z</time>
      </trkpt>
      <trkpt lat="42.763919830322266" lon="-8.371805191040039">
        <ele>322.0</ele>
        <time>2019-05-04T09:41:16.000Z</time>
      </trkpt>
      <trkpt lat="42.76393127441406" lon="-8.371825218200684">
        <ele>322.0</ele>
        <time>2019-05-04T09:41:17.000Z</time>
      </trkpt>
      <trkpt lat="42.76393127441406" lon="-8.371849060058594">
        <ele>322.0</ele>
        <time>2019-05-04T09:41:19.000Z</time>
      </trkpt>
      <trkpt lat="42.7639274597168" lon="-8.371874809265137">
        <ele>322.0</ele>
        <time>2019-05-04T09:41:20.000Z</time>
      </trkpt>
      <trkpt lat="42.763919830322266" lon="-8.371901512145996">
        <ele>322.0</ele>
        <time>2019-05-04T09:41:22.000Z</time>
      </trkpt>
      <trkpt lat="42.763954162597656" lon="-8.37199592590332">
        <ele>322.0</ele>
        <time>2019-05-04T09:41:29.000Z</time>
      </trkpt>
      <trkpt lat="42.763999938964844" lon="-8.372112274169922">
        <ele>322.0</ele>
        <time>2019-05-04T09:41:36.000Z</time>
      </trkpt>
      <trkpt lat="42.764041900634766" lon="-8.372138977050781">
        <ele>322.0</ele>
        <time>2019-05-04T09:41:38.000Z</time>
      </trkpt>
      <trkpt lat="42.76409149169922" lon="-8.37215518951416">
        <ele>322.0</ele>
        <time>2019-05-04T09:41:40.000Z</time>
      </trkpt>
      <trkpt lat="42.7641487121582" lon="-8.372163772583008">
        <ele>322.0</ele>
        <time>2019-05-04T09:41:43.000Z</time>
      </trkpt>
      <trkpt lat="42.76420974731445" lon="-8.37216854095459">
        <ele>321.0</ele>
        <time>2019-05-04T09:41:45.000Z</time>
      </trkpt>
      <trkpt lat="42.764217376708984" lon="-8.372185707092285">
        <ele>321.0</ele>
        <time>2019-05-04T09:41:46.000Z</time>
      </trkpt>
      <trkpt lat="42.76420974731445" lon="-8.372204780578613">
        <ele>320.0</ele>
        <time>2019-05-04T09:41:48.000Z</time>
      </trkpt>
      <trkpt lat="42.764190673828125" lon="-8.372223854064941">
        <ele>319.0</ele>
        <time>2019-05-04T09:41:49.000Z</time>
      </trkpt>
      <trkpt lat="42.764163970947266" lon="-8.372243881225586">
        <ele>319.0</ele>
        <time>2019-05-04T09:41:51.000Z</time>
      </trkpt>
      <trkpt lat="42.76418685913086" lon="-8.372262954711914">
        <ele>319.0</ele>
        <time>2019-05-04T09:41:53.000Z</time>
      </trkpt>
      <trkpt lat="42.76422119140625" lon="-8.372282028198242">
        <ele>319.0</ele>
        <time>2019-05-04T09:41:56.000Z</time>
      </trkpt>
      <trkpt lat="42.76426696777344" lon="-8.37230110168457">
        <ele>319.0</ele>
        <time>2019-05-04T09:41:58.000Z</time>
      </trkpt>
      <trkpt lat="42.76431655883789" lon="-8.372320175170898">
        <ele>319.0</ele>
        <time>2019-05-04T09:42:01.000Z</time>
      </trkpt>
      <trkpt lat="42.76436233520508" lon="-8.372339248657227">
        <ele>320.0</ele>
        <time>2019-05-04T09:42:05.000Z</time>
      </trkpt>
      <trkpt lat="42.76441192626953" lon="-8.372359275817871">
        <ele>321.0</ele>
        <time>2019-05-04T09:42:08.000Z</time>
      </trkpt>
      <trkpt lat="42.764461517333984" lon="-8.3723783493042">
        <ele>322.0</ele>
        <time>2019-05-04T09:42:12.000Z</time>
      </trkpt>
      <trkpt lat="42.76451110839844" lon="-8.372398376464844">
        <ele>323.0</ele>
        <time>2019-05-04T09:42:16.000Z</time>
      </trkpt>
      <trkpt lat="42.76457214355469" lon="-8.372476577758789">
        <ele>323.0</ele>
        <time>2019-05-04T09:42:24.000Z</time>
      </trkpt>
      <trkpt lat="42.764617919921875" lon="-8.372574806213379">
        <ele>322.0</ele>
        <time>2019-05-04T09:42:32.000Z</time>
      </trkpt>
      <trkpt lat="42.76467514038086" lon="-8.37263298034668">
        <ele>323.0</ele>
        <time>2019-05-04T09:42:40.000Z</time>
      </trkpt>
      <trkpt lat="42.76474380493164" lon="-8.372696876525879">
        <ele>323.0</ele>
        <time>2019-05-04T09:42:48.000Z</time>
      </trkpt>
      <trkpt lat="42.76482391357422" lon="-8.37276554107666">
        <ele>323.0</ele>
        <time>2019-05-04T09:42:56.000Z</time>
      </trkpt>
      <trkpt lat="42.76490783691406" lon="-8.372836112976074">
        <ele>323.0</ele>
        <time>2019-05-04T09:43:04.000Z</time>
      </trkpt>
      <trkpt lat="42.764976501464844" lon="-8.37291145324707">
        <ele>323.0</ele>
        <time>2019-05-04T09:43:11.000Z</time>
      </trkpt>
      <trkpt lat="42.76504135131836" lon="-8.372992515563965">
        <ele>323.0</ele>
        <time>2019-05-04T09:43:19.000Z</time>
      </trkpt>
      <trkpt lat="42.765106201171875" lon="-8.373076438903809">
        <ele>323.0</ele>
        <time>2019-05-04T09:43:26.000Z</time>
      </trkpt>
      <trkpt lat="42.765167236328125" lon="-8.373161315917969">
        <ele>323.0</ele>
        <time>2019-05-04T09:43:34.000Z</time>
      </trkpt>
      <trkpt lat="42.765228271484375" lon="-8.373247146606445">
        <ele>322.0</ele>
        <time>2019-05-04T09:43:42.000Z</time>
      </trkpt>
      <trkpt lat="42.76528549194336" lon="-8.373335838317871">
        <ele>322.0</ele>
        <time>2019-05-04T09:43:50.000Z</time>
      </trkpt>
      <trkpt lat="42.76533889770508" lon="-8.373425483703613">
        <ele>322.0</ele>
        <time>2019-05-04T09:43:58.000Z</time>
      </trkpt>
      <trkpt lat="42.7653923034668" lon="-8.373516082763672">
        <ele>321.0</ele>
        <time>2019-05-04T09:44:06.000Z</time>
      </trkpt>
      <trkpt lat="42.76545333862305" lon="-8.373598098754883">
        <ele>321.0</ele>
        <time>2019-05-04T09:44:13.000Z</time>
      </trkpt>
      <trkpt lat="42.76551818847656" lon="-8.373677253723145">
        <ele>321.0</ele>
        <time>2019-05-04T09:44:19.000Z</time>
      </trkpt>
      <trkpt lat="42.76558303833008" lon="-8.37375545501709">
        <ele>322.0</ele>
        <time>2019-05-04T09:44:26.000Z</time>
      </trkpt>
      <trkpt lat="42.765647888183594" lon="-8.373831748962402">
        <ele>322.0</ele>
        <time>2019-05-04T09:44:33.000Z</time>
      </trkpt>
      <trkpt lat="42.76567077636719" lon="-8.373860359191895">
        <ele>322.0</ele>
        <time>2019-05-04T09:44:33.000Z</time>
      </trkpt>
      <trkpt lat="42.76567459106445" lon="-8.37386703491211">
        <ele>322.0</ele>
        <time>2019-05-04T09:44:34.000Z</time>
      </trkpt>
      <trkpt lat="42.76566696166992" lon="-8.373859405517578">
        <ele>322.0</ele>
        <time>2019-05-04T09:44:34.000Z</time>
      </trkpt>
      <trkpt lat="42.765655517578125" lon="-8.373845100402832">
        <ele>322.0</ele>
        <time>2019-05-04T09:44:35.000Z</time>
      </trkpt>
      <trkpt lat="42.76565933227539" lon="-8.373908042907715">
        <ele>318.0</ele>
        <time>2019-05-04T09:44:51.000Z</time>
      </trkpt>
      <trkpt lat="42.765663146972656" lon="-8.373948097229004">
        <ele>318.0</ele>
        <time>2019-05-04T09:44:52.000Z</time>
      </trkpt>
      <trkpt lat="42.76567840576172" lon="-8.374427795410156">
        <ele>313.0</ele>
        <time>2019-05-04T09:45:17.000Z</time>
      </trkpt>
      <trkpt lat="42.76570510864258" lon="-8.374502182006836">
        <ele>312.0</ele>
        <time>2019-05-04T09:45:23.000Z</time>
      </trkpt>
      <trkpt lat="42.76573944091797" lon="-8.374557495117188">
        <ele>311.0</ele>
        <time>2019-05-04T09:45:28.000Z</time>
      </trkpt>
      <trkpt lat="42.765777587890625" lon="-8.374600410461426">
        <ele>311.0</ele>
        <time>2019-05-04T09:45:34.000Z</time>
      </trkpt>
      <trkpt lat="42.76581954956055" lon="-8.37463665008545">
        <ele>310.0</ele>
        <time>2019-05-04T09:45:40.000Z</time>
      </trkpt>
      <trkpt lat="42.76583480834961" lon="-8.37468433380127">
        <ele>307.0</ele>
        <time>2019-05-04T09:45:50.000Z</time>
      </trkpt>
      <trkpt lat="42.76582336425781" lon="-8.374706268310547">
        <ele>304.0</ele>
        <time>2019-05-04T09:46:01.000Z</time>
      </trkpt>
      <trkpt lat="42.76582336425781" lon="-8.37471866607666">
        <ele>303.0</ele>
        <time>2019-05-04T09:46:01.000Z</time>
      </trkpt>
      <trkpt lat="42.76582336425781" lon="-8.374730110168457">
        <ele>303.0</ele>
        <time>2019-05-04T09:46:01.000Z</time>
      </trkpt>
      <trkpt lat="42.76582336425781" lon="-8.374738693237305">
        <ele>304.0</ele>
        <time>2019-05-04T09:46:02.000Z</time>
      </trkpt>
      <trkpt lat="42.76582336425781" lon="-8.374747276306152">
        <ele>304.0</ele>
        <time>2019-05-04T09:46:02.000Z</time>
      </trkpt>
      <trkpt lat="42.765838623046875" lon="-8.374828338623047">
        <ele>303.0</ele>
        <time>2019-05-04T09:46:07.000Z</time>
      </trkpt>
      <trkpt lat="42.7658576965332" lon="-8.374938011169434">
        <ele>303.0</ele>
        <time>2019-05-04T09:46:12.000Z</time>
      </trkpt>
      <trkpt lat="42.76588439941406" lon="-8.375066757202148">
        <ele>302.0</ele>
        <time>2019-05-04T09:46:18.000Z</time>
      </trkpt>
      <trkpt lat="42.765907287597656" lon="-8.375205993652344">
        <ele>301.0</ele>
        <time>2019-05-04T09:46:23.000Z</time>
      </trkpt>
      <trkpt lat="42.766014099121094" lon="-8.375396728515625">
        <ele>299.0</ele>
        <time>2019-05-04T09:46:35.000Z</time>
      </trkpt>
      <trkpt lat="42.76614761352539" lon="-8.375569343566895">
        <ele>298.0</ele>
        <time>2019-05-04T09:46:48.000Z</time>
      </trkpt>
      <trkpt lat="42.766212463378906" lon="-8.375652313232422">
        <ele>297.0</ele>
        <time>2019-05-04T09:46:55.000Z</time>
      </trkpt>
      <trkpt lat="42.76628112792969" lon="-8.375733375549316">
        <ele>297.0</ele>
        <time>2019-05-04T09:47:02.000Z</time>
      </trkpt>
      <trkpt lat="42.76634979248047" lon="-8.375811576843262">
        <ele>297.0</ele>
        <time>2019-05-04T09:47:09.000Z</time>
      </trkpt>
      <trkpt lat="42.76641845703125" lon="-8.37588882446289">
        <ele>296.0</ele>
        <time>2019-05-04T09:47:16.000Z</time>
      </trkpt>
      <trkpt lat="42.76649475097656" lon="-8.375957489013672">
        <ele>296.0</ele>
        <time>2019-05-04T09:47:24.000Z</time>
      </trkpt>
      <trkpt lat="42.76656723022461" lon="-8.376020431518555">
        <ele>296.0</ele>
        <time>2019-05-04T09:47:31.000Z</time>
      </trkpt>
      <trkpt lat="42.76664352416992" lon="-8.376081466674805">
        <ele>296.0</ele>
        <time>2019-05-04T09:47:39.000Z</time>
      </trkpt>
      <trkpt lat="42.7667236328125" lon="-8.376140594482422">
        <ele>296.0</ele>
        <time>2019-05-04T09:47:47.000Z</time>
      </trkpt>
      <trkpt lat="42.76679611206055" lon="-8.37620735168457">
        <ele>296.0</ele>
        <time>2019-05-04T09:47:53.000Z</time>
      </trkpt>
      <trkpt lat="42.76686477661133" lon="-8.376276016235352">
        <ele>296.0</ele>
        <time>2019-05-04T09:48:00.000Z</time>
      </trkpt>
      <trkpt lat="42.76693344116211" lon="-8.376344680786133">
        <ele>296.0</ele>
        <time>2019-05-04T09:48:06.000Z</time>
      </trkpt>
      <trkpt lat="42.76700210571289" lon="-8.376415252685547">
        <ele>296.0</ele>
        <time>2019-05-04T09:48:13.000Z</time>
      </trkpt>
      <trkpt lat="42.76707458496094" lon="-8.376479148864746">
        <ele>296.0</ele>
        <time>2019-05-04T09:48:20.000Z</time>
      </trkpt>
      <trkpt lat="42.76715087890625" lon="-8.376540184020996">
        <ele>295.0</ele>
        <time>2019-05-04T09:48:26.000Z</time>
      </trkpt>
      <trkpt lat="42.7672233581543" lon="-8.376601219177246">
        <ele>294.0</ele>
        <time>2019-05-04T09:48:33.000Z</time>
      </trkpt>
      <trkpt lat="42.76729965209961" lon="-8.376660346984863">
        <ele>293.0</ele>
        <time>2019-05-04T09:48:40.000Z</time>
      </trkpt>
      <trkpt lat="42.76736831665039" lon="-8.376733779907227">
        <ele>293.0</ele>
        <time>2019-05-04T09:48:48.000Z</time>
      </trkpt>
      <trkpt lat="42.767433166503906" lon="-8.376811981201172">
        <ele>292.0</ele>
        <time>2019-05-04T09:48:55.000Z</time>
      </trkpt>
      <trkpt lat="42.76749801635742" lon="-8.376893043518066">
        <ele>291.0</ele>
        <time>2019-05-04T09:49:03.000Z</time>
      </trkpt>
      <trkpt lat="42.76755905151367" lon="-8.376976013183594">
        <ele>290.0</ele>
        <time>2019-05-04T09:49:11.000Z</time>
      </trkpt>
      <trkpt lat="42.767860412597656" lon="-8.377246856689453">
        <ele>291.0</ele>
        <time>2019-05-04T09:49:43.000Z</time>
      </trkpt>
      <trkpt lat="42.76815414428711" lon="-8.377446174621582">
        <ele>296.0</ele>
        <time>2019-05-04T09:50:06.000Z</time>
      </trkpt>
      <trkpt lat="42.76842498779297" lon="-8.377769470214844">
        <ele>296.0</ele>
        <time>2019-05-04T09:50:31.000Z</time>
      </trkpt>
      <trkpt lat="42.76852798461914" lon="-8.377954483032227">
        <ele>296.0</ele>
        <time>2019-05-04T09:50:41.000Z</time>
      </trkpt>
      <trkpt lat="42.76861572265625" lon="-8.378005981445312">
        <ele>296.0</ele>
        <time>2019-05-04T09:50:50.000Z</time>
      </trkpt>
      <trkpt lat="42.768714904785156" lon="-8.37803840637207">
        <ele>296.0</ele>
        <time>2019-05-04T09:50:58.000Z</time>
      </trkpt>
      <trkpt lat="42.76879119873047" lon="-8.378071784973145">
        <ele>295.0</ele>
        <time>2019-05-04T09:51:06.000Z</time>
      </trkpt>
      <trkpt lat="42.76887893676758" lon="-8.3781099319458">
        <ele>293.0</ele>
        <time>2019-05-04T09:51:14.000Z</time>
      </trkpt>
      <trkpt lat="42.76897048950195" lon="-8.378150939941406">
        <ele>292.0</ele>
        <time>2019-05-04T09:51:21.000Z</time>
      </trkpt>
      <trkpt lat="42.76906967163086" lon="-8.378193855285645">
        <ele>291.0</ele>
        <time>2019-05-04T09:51:29.000Z</time>
      </trkpt>
      <trkpt lat="42.76913070678711" lon="-8.378232955932617">
        <ele>290.0</ele>
        <time>2019-05-04T09:51:34.000Z</time>
      </trkpt>
      <trkpt lat="42.76918411254883" lon="-8.378271102905273">
        <ele>289.0</ele>
        <time>2019-05-04T09:51:40.000Z</time>
      </trkpt>
      <trkpt lat="42.76922607421875" lon="-8.378310203552246">
        <ele>288.0</ele>
        <time>2019-05-04T09:51:45.000Z</time>
      </trkpt>
      <trkpt lat="42.76926803588867" lon="-8.378348350524902">
        <ele>287.0</ele>
        <time>2019-05-04T09:51:50.000Z</time>
      </trkpt>
      <trkpt lat="42.76930618286133" lon="-8.37836742401123">
        <ele>287.0</ele>
        <time>2019-05-04T09:51:55.000Z</time>
      </trkpt>
      <trkpt lat="42.76933288574219" lon="-8.378377914428711">
        <ele>286.0</ele>
        <time>2019-05-04T09:52:01.000Z</time>
      </trkpt>
      <trkpt lat="42.76935958862305" lon="-8.378381729125977">
        <ele>286.0</ele>
        <time>2019-05-04T09:52:06.000Z</time>
      </trkpt>
      <trkpt lat="42.769386291503906" lon="-8.37838363647461">
        <ele>286.0</ele>
        <time>2019-05-04T09:52:11.000Z</time>
      </trkpt>
      <trkpt lat="42.76940155029297" lon="-8.378388404846191">
        <ele>285.0</ele>
        <time>2019-05-04T09:52:12.000Z</time>
      </trkpt>
      <trkpt lat="42.7694091796875" lon="-8.37839126586914">
        <ele>285.0</ele>
        <time>2019-05-04T09:52:12.000Z</time>
      </trkpt>
      <trkpt lat="42.76941680908203" lon="-8.378392219543457">
        <ele>285.0</ele>
        <time>2019-05-04T09:52:12.000Z</time>
      </trkpt>
      <trkpt lat="42.76941680908203" lon="-8.378393173217773">
        <ele>286.0</ele>
        <time>2019-05-04T09:52:12.000Z</time>
      </trkpt>
      <trkpt lat="42.76942443847656" lon="-8.378395080566406">
        <ele>286.0</ele>
        <time>2019-05-04T09:52:13.000Z</time>
      </trkpt>
      <trkpt lat="42.76942443847656" lon="-8.378396987915039">
        <ele>286.0</ele>
        <time>2019-05-04T09:52:14.000Z</time>
      </trkpt>
      <trkpt lat="42.76942825317383" lon="-8.378398895263672">
        <ele>286.0</ele>
        <time>2019-05-04T09:52:15.000Z</time>
      </trkpt>
      <trkpt lat="42.769432067871094" lon="-8.378399848937988">
        <ele>286.0</ele>
        <time>2019-05-04T09:52:15.000Z</time>
      </trkpt>
      <trkpt lat="42.76949691772461" lon="-8.378430366516113">
        <ele>283.0</ele>
        <time>2019-05-04T09:52:29.000Z</time>
      </trkpt>
      <trkpt lat="42.76953125" lon="-8.378445625305176">
        <ele>283.0</ele>
        <time>2019-05-04T09:52:30.000Z</time>
      </trkpt>
      <trkpt lat="42.76982879638672" lon="-8.378694534301758">
        <ele>281.0</ele>
        <time>2019-05-04T09:52:48.000Z</time>
      </trkpt>
      <trkpt lat="42.77010726928711" lon="-8.378962516784668">
        <ele>278.0</ele>
        <time>2019-05-04T09:53:13.000Z</time>
      </trkpt>
      <trkpt lat="42.770408630371094" lon="-8.379223823547363">
        <ele>281.0</ele>
        <time>2019-05-04T09:53:39.000Z</time>
      </trkpt>
      <trkpt lat="42.770606994628906" lon="-8.379355430603027">
        <ele>280.0</ele>
        <time>2019-05-04T09:53:58.000Z</time>
      </trkpt>
      <trkpt lat="42.77065658569336" lon="-8.379434585571289">
        <ele>280.0</ele>
        <time>2019-05-04T09:54:05.000Z</time>
      </trkpt>
      <trkpt lat="42.77068328857422" lon="-8.379520416259766">
        <ele>281.0</ele>
        <time>2019-05-04T09:54:12.000Z</time>
      </trkpt>
      <trkpt lat="42.77070999145508" lon="-8.379560470581055">
        <ele>281.0</ele>
        <time>2019-05-04T09:54:15.000Z</time>
      </trkpt>
      <trkpt lat="42.77073669433594" lon="-8.379598617553711">
        <ele>280.0</ele>
        <time>2019-05-04T09:54:18.000Z</time>
      </trkpt>
      <trkpt lat="42.77076721191406" lon="-8.379636764526367">
        <ele>278.0</ele>
        <time>2019-05-04T09:54:21.000Z</time>
      </trkpt>
      <trkpt lat="42.77079772949219" lon="-8.379674911499023">
        <ele>276.0</ele>
        <time>2019-05-04T09:54:25.000Z</time>
      </trkpt>
      <trkpt lat="42.77081298828125" lon="-8.379691123962402">
        <ele>275.0</ele>
        <time>2019-05-04T09:54:28.000Z</time>
      </trkpt>
      <trkpt lat="42.77082443237305" lon="-8.379697799682617">
        <ele>275.0</ele>
        <time>2019-05-04T09:54:32.000Z</time>
      </trkpt>
      <trkpt lat="42.77082824707031" lon="-8.379698753356934">
        <ele>274.0</ele>
        <time>2019-05-04T09:54:35.000Z</time>
      </trkpt>
      <trkpt lat="42.770835876464844" lon="-8.3796968460083">
        <ele>273.0</ele>
        <time>2019-05-04T09:54:39.000Z</time>
      </trkpt>
      <trkpt lat="42.77083969116211" lon="-8.379700660705566">
        <ele>273.0</ele>
        <time>2019-05-04T09:54:39.000Z</time>
      </trkpt>
      <trkpt lat="42.77084732055664" lon="-8.379704475402832">
        <ele>273.0</ele>
        <time>2019-05-04T09:54:39.000Z</time>
      </trkpt>
      <trkpt lat="42.77085494995117" lon="-8.379708290100098">
        <ele>273.0</ele>
        <time>2019-05-04T09:54:39.000Z</time>
      </trkpt>
      <trkpt lat="42.77085876464844" lon="-8.379711151123047">
        <ele>273.0</ele>
        <time>2019-05-04T09:54:40.000Z</time>
      </trkpt>
      <trkpt lat="42.770904541015625" lon="-8.379769325256348">
        <ele>274.0</ele>
        <time>2019-05-04T09:54:44.000Z</time>
      </trkpt>
      <trkpt lat="42.770965576171875" lon="-8.379850387573242">
        <ele>274.0</ele>
        <time>2019-05-04T09:54:49.000Z</time>
      </trkpt>
      <trkpt lat="42.77103805541992" lon="-8.3799467086792">
        <ele>275.0</ele>
        <time>2019-05-04T09:54:53.000Z</time>
      </trkpt>
      <trkpt lat="42.7711181640625" lon="-8.380050659179688">
        <ele>276.0</ele>
        <time>2019-05-04T09:54:58.000Z</time>
      </trkpt>
      <trkpt lat="42.771175384521484" lon="-8.380142211914062">
        <ele>276.0</ele>
        <time>2019-05-04T09:55:06.000Z</time>
      </trkpt>
      <trkpt lat="42.77123260498047" lon="-8.380236625671387">
        <ele>277.0</ele>
        <time>2019-05-04T09:55:14.000Z</time>
      </trkpt>
      <trkpt lat="42.77128601074219" lon="-8.380331993103027">
        <ele>278.0</ele>
        <time>2019-05-04T09:55:22.000Z</time>
      </trkpt>
      <trkpt lat="42.771339416503906" lon="-8.3804292678833">
        <ele>279.0</ele>
        <time>2019-05-04T09:55:31.000Z</time>
      </trkpt>
      <trkpt lat="42.771636962890625" lon="-8.38067626953125">
        <ele>278.0</ele>
        <time>2019-05-04T09:56:00.000Z</time>
      </trkpt>
      <trkpt lat="42.77165985107422" lon="-8.380704879760742">
        <ele>279.0</ele>
        <time>2019-05-04T09:56:05.000Z</time>
      </trkpt>
      <trkpt lat="42.771697998046875" lon="-8.38075065612793">
        <ele>277.0</ele>
        <time>2019-05-04T09:56:21.000Z</time>
      </trkpt>
      <trkpt lat="42.771724700927734" lon="-8.380779266357422">
        <ele>277.0</ele>
        <time>2019-05-04T09:56:22.000Z</time>
      </trkpt>
      <trkpt lat="42.771968841552734" lon="-8.381134986877441">
        <ele>274.0</ele>
        <time>2019-05-04T09:56:44.000Z</time>
      </trkpt>
      <trkpt lat="42.77204895019531" lon="-8.38129997253418">
        <ele>274.0</ele>
        <time>2019-05-04T09:56:57.000Z</time>
      </trkpt>
      <trkpt lat="42.77214050292969" lon="-8.381368637084961">
        <ele>273.0</ele>
        <time>2019-05-04T09:57:04.000Z</time>
      </trkpt>
      <trkpt lat="42.772254943847656" lon="-8.381431579589844">
        <ele>272.0</ele>
        <time>2019-05-04T09:57:11.000Z</time>
      </trkpt>
      <trkpt lat="42.7723274230957" lon="-8.381476402282715">
        <ele>271.0</ele>
        <time>2019-05-04T09:57:17.000Z</time>
      </trkpt>
      <trkpt lat="42.772403717041016" lon="-8.381526947021484">
        <ele>271.0</ele>
        <time>2019-05-04T09:57:24.000Z</time>
      </trkpt>
      <trkpt lat="42.772483825683594" lon="-8.381579399108887">
        <ele>271.0</ele>
        <time>2019-05-04T09:57:31.000Z</time>
      </trkpt>
      <trkpt lat="42.7725715637207" lon="-8.381634712219238">
        <ele>271.0</ele>
        <time>2019-05-04T09:57:38.000Z</time>
      </trkpt>
      <trkpt lat="42.77267837524414" lon="-8.381807327270508">
        <ele>272.0</ele>
        <time>2019-05-04T09:57:51.000Z</time>
      </trkpt>
      <trkpt lat="42.77276611328125" lon="-8.382013320922852">
        <ele>273.0</ele>
        <time>2019-05-04T09:58:04.000Z</time>
      </trkpt>
      <trkpt lat="42.772789001464844" lon="-8.382084846496582">
        <ele>273.0</ele>
        <time>2019-05-04T09:58:07.000Z</time>
      </trkpt>
      <trkpt lat="42.772804260253906" lon="-8.382145881652832">
        <ele>273.0</ele>
        <time>2019-05-04T09:58:11.000Z</time>
      </trkpt>
      <trkpt lat="42.77281188964844" lon="-8.382201194763184">
        <ele>272.0</ele>
        <time>2019-05-04T09:58:15.000Z</time>
      </trkpt>
      <trkpt lat="42.7728157043457" lon="-8.38225269317627">
        <ele>272.0</ele>
        <time>2019-05-04T09:58:19.000Z</time>
      </trkpt>
      <trkpt lat="42.772850036621094" lon="-8.382342338562012">
        <ele>270.0</ele>
        <time>2019-05-04T09:58:26.000Z</time>
      </trkpt>
      <trkpt lat="42.772891998291016" lon="-8.382444381713867">
        <ele>269.0</ele>
        <time>2019-05-04T09:58:33.000Z</time>
      </trkpt>
      <trkpt lat="42.7729377746582" lon="-8.38255500793457">
        <ele>267.0</ele>
        <time>2019-05-04T09:58:40.000Z</time>
      </trkpt>
      <trkpt lat="42.772987365722656" lon="-8.382669448852539">
        <ele>266.0</ele>
        <time>2019-05-04T09:58:48.000Z</time>
      </trkpt>
      <trkpt lat="42.773048400878906" lon="-8.382749557495117">
        <ele>264.0</ele>
        <time>2019-05-04T09:58:53.000Z</time>
      </trkpt>
      <trkpt lat="42.77309799194336" lon="-8.382771492004395">
        <ele>262.0</ele>
        <time>2019-05-04T09:58:58.000Z</time>
      </trkpt>
      <trkpt lat="42.77313995361328" lon="-8.38290786743164">
        <ele>262.0</ele>
        <time>2019-05-04T09:59:07.000Z</time>
      </trkpt>
      <trkpt lat="42.77317810058594" lon="-8.383085250854492">
        <ele>263.0</ele>
        <time>2019-05-04T09:59:17.000Z</time>
      </trkpt>
      <trkpt lat="42.773197174072266" lon="-8.383193016052246">
        <ele>263.0</ele>
        <time>2019-05-04T09:59:24.000Z</time>
      </trkpt>
      <trkpt lat="42.773216247558594" lon="-8.38331413269043">
        <ele>263.0</ele>
        <time>2019-05-04T09:59:31.000Z</time>
      </trkpt>
      <trkpt lat="42.77323913574219" lon="-8.383442878723145">
        <ele>264.0</ele>
        <time>2019-05-04T09:59:38.000Z</time>
      </trkpt>
      <trkpt lat="42.773258209228516" lon="-8.383576393127441">
        <ele>264.0</ele>
        <time>2019-05-04T09:59:46.000Z</time>
      </trkpt>
      <trkpt lat="42.77327346801758" lon="-8.383681297302246">
        <ele>264.0</ele>
        <time>2019-05-04T09:59:52.000Z</time>
      </trkpt>
      <trkpt lat="42.77328872680664" lon="-8.383777618408203">
        <ele>264.0</ele>
        <time>2019-05-04T09:59:58.000Z</time>
      </trkpt>
      <trkpt lat="42.77330017089844" lon="-8.383868217468262">
        <ele>264.0</ele>
        <time>2019-05-04T10:00:04.000Z</time>
      </trkpt>
      <trkpt lat="42.7733154296875" lon="-8.383956909179688">
        <ele>264.0</ele>
        <time>2019-05-04T10:00:10.000Z</time>
      </trkpt>
      <trkpt lat="42.77330017089844" lon="-8.384084701538086">
        <ele>264.0</ele>
        <time>2019-05-04T10:00:19.000Z</time>
      </trkpt>
      <trkpt lat="42.77326965332031" lon="-8.384183883666992">
        <ele>264.0</ele>
        <time>2019-05-04T10:00:28.000Z</time>
      </trkpt>
      <trkpt lat="42.773258209228516" lon="-8.384209632873535">
        <ele>264.0</ele>
        <time>2019-05-04T10:00:31.000Z</time>
      </trkpt>
      <trkpt lat="42.77325439453125" lon="-8.384195327758789">
        <ele>264.0</ele>
        <time>2019-05-04T10:00:35.000Z</time>
      </trkpt>
      <trkpt lat="42.77326202392578" lon="-8.384208679199219">
        <ele>264.0</ele>
        <time>2019-05-04T10:00:40.000Z</time>
      </trkpt>
      <trkpt lat="42.77326965332031" lon="-8.38422679901123">
        <ele>263.0</ele>
        <time>2019-05-04T10:00:45.000Z</time>
      </trkpt>
      <trkpt lat="42.77328109741211" lon="-8.384247779846191">
        <ele>261.0</ele>
        <time>2019-05-04T10:00:50.000Z</time>
      </trkpt>
      <trkpt lat="42.77329635620117" lon="-8.384270668029785">
        <ele>260.0</ele>
        <time>2019-05-04T10:00:56.000Z</time>
      </trkpt>
      <trkpt lat="42.7733039855957" lon="-8.384284019470215">
        <ele>260.0</ele>
        <time>2019-05-04T10:00:56.000Z</time>
      </trkpt>
      <trkpt lat="42.77330780029297" lon="-8.384295463562012">
        <ele>260.0</ele>
        <time>2019-05-04T10:00:56.000Z</time>
      </trkpt>
      <trkpt lat="42.773311614990234" lon="-8.38430404663086">
        <ele>260.0</ele>
        <time>2019-05-04T10:00:56.000Z</time>
      </trkpt>
      <trkpt lat="42.7733154296875" lon="-8.384312629699707">
        <ele>260.0</ele>
        <time>2019-05-04T10:00:57.000Z</time>
      </trkpt>
      <trkpt lat="42.77334213256836" lon="-8.38438892364502">
        <ele>260.0</ele>
        <time>2019-05-04T10:01:02.000Z</time>
      </trkpt>
      <trkpt lat="42.77337646484375" lon="-8.384492874145508">
        <ele>260.0</ele>
        <time>2019-05-04T10:01:07.000Z</time>
      </trkpt>
      <trkpt lat="42.77341842651367" lon="-8.384615898132324">
        <ele>260.0</ele>
        <time>2019-05-04T10:01:12.000Z</time>
      </trkpt>
      <trkpt lat="42.773460388183594" lon="-8.384747505187988">
        <ele>259.0</ele>
        <time>2019-05-04T10:01:17.000Z</time>
      </trkpt>
      <trkpt lat="42.77349090576172" lon="-8.384862899780273">
        <ele>260.0</ele>
        <time>2019-05-04T10:01:24.000Z</time>
      </trkpt>
      <trkpt lat="42.77351379394531" lon="-8.384982109069824">
        <ele>262.0</ele>
        <time>2019-05-04T10:01:32.000Z</time>
      </trkpt>
      <trkpt lat="42.773536682128906" lon="-8.385102272033691">
        <ele>264.0</ele>
        <time>2019-05-04T10:01:40.000Z</time>
      </trkpt>
      <trkpt lat="42.773555755615234" lon="-8.385224342346191">
        <ele>266.0</ele>
        <time>2019-05-04T10:01:48.000Z</time>
      </trkpt>
      <trkpt lat="42.773582458496094" lon="-8.38533878326416">
        <ele>266.0</ele>
        <time>2019-05-04T10:01:55.000Z</time>
      </trkpt>
      <trkpt lat="42.773616790771484" lon="-8.38545036315918">
        <ele>265.0</ele>
        <time>2019-05-04T10:02:03.000Z</time>
      </trkpt>
      <trkpt lat="42.773651123046875" lon="-8.3855619430542">
        <ele>263.0</ele>
        <time>2019-05-04T10:02:10.000Z</time>
      </trkpt>
      <trkpt lat="42.773685455322266" lon="-8.385672569274902">
        <ele>262.0</ele>
        <time>2019-05-04T10:02:18.000Z</time>
      </trkpt>
      <trkpt lat="42.77373504638672" lon="-8.385767936706543">
        <ele>261.0</ele>
        <time>2019-05-04T10:02:25.000Z</time>
      </trkpt>
      <trkpt lat="42.77379608154297" lon="-8.385855674743652">
        <ele>260.0</ele>
        <time>2019-05-04T10:02:33.000Z</time>
      </trkpt>
      <trkpt lat="42.773860931396484" lon="-8.38593864440918">
        <ele>259.0</ele>
        <time>2019-05-04T10:02:40.000Z</time>
      </trkpt>
      <trkpt lat="42.773929595947266" lon="-8.386019706726074">
        <ele>258.0</ele>
        <time>2019-05-04T10:02:48.000Z</time>
      </trkpt>
      <trkpt lat="42.77417755126953" lon="-8.386374473571777">
        <ele>255.0</ele>
        <time>2019-05-04T10:03:19.000Z</time>
      </trkpt>
      <trkpt lat="42.7744026184082" lon="-8.386759757995605">
        <ele>253.0</ele>
        <time>2019-05-04T10:03:50.000Z</time>
      </trkpt>
      <trkpt lat="42.77463912963867" lon="-8.387118339538574">
        <ele>253.0</ele>
        <time>2019-05-04T10:04:21.000Z</time>
      </trkpt>
      <trkpt lat="42.77471923828125" lon="-8.387163162231445">
        <ele>253.0</ele>
        <time>2019-05-04T10:04:28.000Z</time>
      </trkpt>
      <trkpt lat="42.77480697631836" lon="-8.387188911437988">
        <ele>253.0</ele>
        <time>2019-05-04T10:04:35.000Z</time>
      </trkpt>
      <trkpt lat="42.77489471435547" lon="-8.387201309204102">
        <ele>254.0</ele>
        <time>2019-05-04T10:04:42.000Z</time>
      </trkpt>
      <trkpt lat="42.77499008178711" lon="-8.387207984924316">
        <ele>254.0</ele>
        <time>2019-05-04T10:04:50.000Z</time>
      </trkpt>
      <trkpt lat="42.77505111694336" lon="-8.38720989227295">
        <ele>254.0</ele>
        <time>2019-05-04T10:04:54.000Z</time>
      </trkpt>
      <trkpt lat="42.77510070800781" lon="-8.387203216552734">
        <ele>254.0</ele>
        <time>2019-05-04T10:04:58.000Z</time>
      </trkpt>
      <trkpt lat="42.775146484375" lon="-8.387190818786621">
        <ele>254.0</ele>
        <time>2019-05-04T10:05:02.000Z</time>
      </trkpt>
      <trkpt lat="42.775184631347656" lon="-8.387176513671875">
        <ele>254.0</ele>
        <time>2019-05-04T10:05:07.000Z</time>
      </trkpt>
      <trkpt lat="42.77526092529297" lon="-8.38711929321289">
        <ele>254.0</ele>
        <time>2019-05-04T10:05:13.000Z</time>
      </trkpt>
      <trkpt lat="42.77532958984375" lon="-8.387042045593262">
        <ele>254.0</ele>
        <time>2019-05-04T10:05:20.000Z</time>
      </trkpt>
      <trkpt lat="42.775394439697266" lon="-8.387004852294922">
        <ele>254.0</ele>
        <time>2019-05-04T10:05:27.000Z</time>
      </trkpt>
      <trkpt lat="42.77547836303711" lon="-8.386966705322266">
        <ele>253.0</ele>
        <time>2019-05-04T10:05:35.000Z</time>
      </trkpt>
      <trkpt lat="42.77556610107422" lon="-8.386926651000977">
        <ele>252.0</ele>
        <time>2019-05-04T10:05:43.000Z</time>
      </trkpt>
      <trkpt lat="42.77566146850586" lon="-8.386885643005371">
        <ele>251.0</ele>
        <time>2019-05-04T10:05:51.000Z</time>
      </trkpt>
      <trkpt lat="42.7757453918457" lon="-8.386847496032715">
        <ele>251.0</ele>
        <time>2019-05-04T10:05:58.000Z</time>
      </trkpt>
      <trkpt lat="42.77582931518555" lon="-8.386808395385742">
        <ele>251.0</ele>
        <time>2019-05-04T10:06:06.000Z</time>
      </trkpt>
      <trkpt lat="42.77591323852539" lon="-8.386771202087402">
        <ele>251.0</ele>
        <time>2019-05-04T10:06:13.000Z</time>
      </trkpt>
      <trkpt lat="42.775997161865234" lon="-8.386733055114746">
        <ele>251.0</ele>
        <time>2019-05-04T10:06:21.000Z</time>
      </trkpt>
      <trkpt lat="42.77608108520508" lon="-8.38669490814209">
        <ele>251.0</ele>
        <time>2019-05-04T10:06:28.000Z</time>
      </trkpt>
      <trkpt lat="42.77616882324219" lon="-8.38665771484375">
        <ele>251.0</ele>
        <time>2019-05-04T10:06:35.000Z</time>
      </trkpt>
      <trkpt lat="42.7762565612793" lon="-8.38662052154541">
        <ele>251.0</ele>
        <time>2019-05-04T10:06:42.000Z</time>
      </trkpt>
      <trkpt lat="42.776344299316406" lon="-8.38658332824707">
        <ele>252.0</ele>
        <time>2019-05-04T10:06:50.000Z</time>
      </trkpt>
      <trkpt lat="42.77642822265625" lon="-8.386539459228516">
        <ele>252.0</ele>
        <time>2019-05-04T10:06:57.000Z</time>
      </trkpt>
      <trkpt lat="42.776512145996094" lon="-8.386493682861328">
        <ele>251.0</ele>
        <time>2019-05-04T10:07:05.000Z</time>
      </trkpt>
      <trkpt lat="42.77659225463867" lon="-8.386445045471191">
        <ele>251.0</ele>
        <time>2019-05-04T10:07:13.000Z</time>
      </trkpt>
      <trkpt lat="42.77667236328125" lon="-8.386396408081055">
        <ele>250.0</ele>
        <time>2019-05-04T10:07:21.000Z</time>
      </trkpt>
      <trkpt lat="42.776756286621094" lon="-8.386354446411133">
        <ele>250.0</ele>
        <time>2019-05-04T10:07:30.000Z</time>
      </trkpt>
      <trkpt lat="42.77684020996094" lon="-8.38631534576416">
        <ele>249.0</ele>
        <time>2019-05-04T10:07:39.000Z</time>
      </trkpt>
      <trkpt lat="42.77692794799805" lon="-8.386277198791504">
        <ele>249.0</ele>
        <time>2019-05-04T10:07:48.000Z</time>
      </trkpt>
      <trkpt lat="42.777015686035156" lon="-8.386240005493164">
        <ele>249.0</ele>
        <time>2019-05-04T10:07:57.000Z</time>
      </trkpt>
      <trkpt lat="42.777191162109375" lon="-8.386240005493164">
        <ele>247.0</ele>
        <time>2019-05-04T10:08:15.000Z</time>
      </trkpt>
      <trkpt lat="42.77737045288086" lon="-8.38627815246582">
        <ele>245.0</ele>
        <time>2019-05-04T10:08:33.000Z</time>
      </trkpt>
      <trkpt lat="42.77743148803711" lon="-8.3862886428833">
        <ele>244.0</ele>
        <time>2019-05-04T10:08:39.000Z</time>
      </trkpt>
      <trkpt lat="42.7774772644043" lon="-8.386299133300781">
        <ele>243.0</ele>
        <time>2019-05-04T10:08:46.000Z</time>
      </trkpt>
      <trkpt lat="42.77751922607422" lon="-8.386310577392578">
        <ele>242.0</ele>
        <time>2019-05-04T10:08:52.000Z</time>
      </trkpt>
      <trkpt lat="42.77755355834961" lon="-8.386322021484375">
        <ele>241.0</ele>
        <time>2019-05-04T10:08:59.000Z</time>
      </trkpt>
      <trkpt lat="42.777584075927734" lon="-8.386332511901855">
        <ele>241.0</ele>
        <time>2019-05-04T10:09:22.000Z</time>
      </trkpt>
      <trkpt lat="42.77760696411133" lon="-8.386343955993652">
        <ele>240.0</ele>
        <time>2019-05-04T10:09:45.000Z</time>
      </trkpt>
      <trkpt lat="42.777626037597656" lon="-8.386354446411133">
        <ele>239.0</ele>
        <time>2019-05-04T10:10:08.000Z</time>
      </trkpt>
      <trkpt lat="42.77763748168945" lon="-8.386364936828613">
        <ele>239.0</ele>
        <time>2019-05-04T10:10:31.000Z</time>
      </trkpt>
      <trkpt lat="42.777652740478516" lon="-8.386371612548828">
        <ele>238.0</ele>
        <time>2019-05-04T10:10:31.000Z</time>
      </trkpt>
      <trkpt lat="42.77766036987305" lon="-8.38637638092041">
        <ele>238.0</ele>
        <time>2019-05-04T10:10:31.000Z</time>
      </trkpt>
      <trkpt lat="42.77766799926758" lon="-8.386380195617676">
        <ele>239.0</ele>
        <time>2019-05-04T10:10:31.000Z</time>
      </trkpt>
      <trkpt lat="42.77767562866211" lon="-8.386383056640625">
        <ele>239.0</ele>
        <time>2019-05-04T10:10:32.000Z</time>
      </trkpt>
      <trkpt lat="42.77770233154297" lon="-8.38640308380127">
        <ele>238.0</ele>
        <time>2019-05-04T10:10:34.000Z</time>
      </trkpt>
      <trkpt lat="42.777740478515625" lon="-8.386430740356445">
        <ele>237.0</ele>
        <time>2019-05-04T10:10:37.000Z</time>
      </trkpt>
      <trkpt lat="42.77778244018555" lon="-8.386463165283203">
        <ele>236.0</ele>
        <time>2019-05-04T10:10:39.000Z</time>
      </trkpt>
      <trkpt lat="42.777828216552734" lon="-8.386497497558594">
        <ele>235.0</ele>
        <time>2019-05-04T10:10:42.000Z</time>
      </trkpt>
      <trkpt lat="42.77787399291992" lon="-8.386512756347656">
        <ele>234.0</ele>
        <time>2019-05-04T10:10:47.000Z</time>
      </trkpt>
      <trkpt lat="42.777923583984375" lon="-8.38652229309082">
        <ele>233.0</ele>
        <time>2019-05-04T10:10:52.000Z</time>
      </trkpt>
      <trkpt lat="42.77797317504883" lon="-8.386528015136719">
        <ele>231.0</ele>
        <time>2019-05-04T10:10:57.000Z</time>
      </trkpt>
      <trkpt lat="42.77802276611328" lon="-8.386531829833984">
        <ele>230.0</ele>
        <time>2019-05-04T10:11:03.000Z</time>
      </trkpt>
      <trkpt lat="42.778377532958984" lon="-8.386432647705078">
        <ele>226.0</ele>
        <time>2019-05-04T10:11:37.000Z</time>
      </trkpt>
      <trkpt lat="42.778438568115234" lon="-8.386446952819824">
        <ele>226.0</ele>
        <time>2019-05-04T10:11:41.000Z</time>
      </trkpt>
      <trkpt lat="42.77848434448242" lon="-8.386478424072266">
        <ele>225.0</ele>
        <time>2019-05-04T10:11:45.000Z</time>
      </trkpt>
      <trkpt lat="42.77852249145508" lon="-8.386520385742188">
        <ele>225.0</ele>
        <time>2019-05-04T10:11:49.000Z</time>
      </trkpt>
      <trkpt lat="42.77855682373047" lon="-8.386568069458008">
        <ele>224.0</ele>
        <time>2019-05-04T10:11:53.000Z</time>
      </trkpt>
      <trkpt lat="42.77864074707031" lon="-8.386570930480957">
        <ele>223.0</ele>
        <time>2019-05-04T10:12:01.000Z</time>
      </trkpt>
      <trkpt lat="42.77872848510742" lon="-8.386544227600098">
        <ele>221.0</ele>
        <time>2019-05-04T10:12:10.000Z</time>
      </trkpt>
      <trkpt lat="42.77887725830078" lon="-8.386619567871094">
        <ele>220.0</ele>
        <time>2019-05-04T10:12:27.000Z</time>
      </trkpt>
      <trkpt lat="42.779056549072266" lon="-8.386734962463379">
        <ele>218.0</ele>
        <time>2019-05-04T10:12:45.000Z</time>
      </trkpt>
      <trkpt lat="42.77910614013672" lon="-8.386826515197754">
        <ele>218.0</ele>
        <time>2019-05-04T10:12:52.000Z</time>
      </trkpt>
      <trkpt lat="42.77914810180664" lon="-8.386935234069824">
        <ele>218.0</ele>
        <time>2019-05-04T10:13:00.000Z</time>
      </trkpt>
      <trkpt lat="42.779178619384766" lon="-8.387056350708008">
        <ele>218.0</ele>
        <time>2019-05-04T10:13:08.000Z</time>
      </trkpt>
      <trkpt lat="42.779205322265625" lon="-8.387184143066406">
        <ele>218.0</ele>
        <time>2019-05-04T10:13:16.000Z</time>
      </trkpt>
      <trkpt lat="42.77920913696289" lon="-8.387356758117676">
        <ele>215.0</ele>
        <time>2019-05-04T10:13:29.000Z</time>
      </trkpt>
      <trkpt lat="42.779178619384766" lon="-8.387506484985352">
        <ele>212.0</ele>
        <time>2019-05-04T10:13:42.000Z</time>
      </trkpt>
      <trkpt lat="42.77919006347656" lon="-8.38755989074707">
        <ele>211.0</ele>
        <time>2019-05-04T10:13:44.000Z</time>
      </trkpt>
      <trkpt lat="42.77920913696289" lon="-8.387602806091309">
        <ele>211.0</ele>
        <time>2019-05-04T10:13:47.000Z</time>
      </trkpt>
      <trkpt lat="42.77923583984375" lon="-8.3876371383667">
        <ele>211.0</ele>
        <time>2019-05-04T10:13:49.000Z</time>
      </trkpt>
      <trkpt lat="42.779266357421875" lon="-8.387667655944824">
        <ele>211.0</ele>
        <time>2019-05-04T10:13:52.000Z</time>
      </trkpt>
      <trkpt lat="42.7792854309082" lon="-8.387704849243164">
        <ele>211.0</ele>
        <time>2019-05-04T10:13:55.000Z</time>
      </trkpt>
      <trkpt lat="42.779300689697266" lon="-8.387741088867188">
        <ele>210.0</ele>
        <time>2019-05-04T10:13:59.000Z</time>
      </trkpt>
      <trkpt lat="42.77931594848633" lon="-8.387776374816895">
        <ele>210.0</ele>
        <time>2019-05-04T10:14:02.000Z</time>
      </trkpt>
      <trkpt lat="42.77933120727539" lon="-8.387811660766602">
        <ele>210.0</ele>
        <time>2019-05-04T10:14:06.000Z</time>
      </trkpt>
      <trkpt lat="42.779354095458984" lon="-8.387804985046387">
        <ele>209.0</ele>
        <time>2019-05-04T10:14:09.000Z</time>
      </trkpt>
      <trkpt lat="42.779380798339844" lon="-8.387781143188477">
        <ele>209.0</ele>
        <time>2019-05-04T10:14:12.000Z</time>
      </trkpt>
      <trkpt lat="42.7794075012207" lon="-8.387744903564453">
        <ele>209.0</ele>
        <time>2019-05-04T10:14:15.000Z</time>
      </trkpt>
      <trkpt lat="42.77943420410156" lon="-8.387702941894531">
        <ele>209.0</ele>
        <time>2019-05-04T10:14:19.000Z</time>
      </trkpt>
      <trkpt lat="42.7794303894043" lon="-8.38770866394043">
        <ele>209.0</ele>
        <time>2019-05-04T10:14:21.000Z</time>
      </trkpt>
      <trkpt lat="42.779415130615234" lon="-8.387727737426758">
        <ele>209.0</ele>
        <time>2019-05-04T10:14:23.000Z</time>
      </trkpt>
      <trkpt lat="42.779388427734375" lon="-8.38775634765625">
        <ele>209.0</ele>
        <time>2019-05-04T10:14:25.000Z</time>
      </trkpt>
      <trkpt lat="42.77935791015625" lon="-8.387788772583008">
        <ele>209.0</ele>
        <time>2019-05-04T10:14:27.000Z</time>
      </trkpt>
      <trkpt lat="42.779361724853516" lon="-8.387811660766602">
        <ele>210.0</ele>
        <time>2019-05-04T10:14:29.000Z</time>
      </trkpt>
      <trkpt lat="42.77937698364258" lon="-8.387835502624512">
        <ele>211.0</ele>
        <time>2019-05-04T10:14:32.000Z</time>
      </trkpt>
      <trkpt lat="42.779396057128906" lon="-8.387859344482422">
        <ele>211.0</ele>
        <time>2019-05-04T10:14:34.000Z</time>
      </trkpt>
      <trkpt lat="42.779415130615234" lon="-8.387883186340332">
        <ele>212.0</ele>
        <time>2019-05-04T10:14:37.000Z</time>
      </trkpt>
      <trkpt lat="42.779449462890625" lon="-8.387889862060547">
        <ele>214.0</ele>
        <time>2019-05-04T10:14:40.000Z</time>
      </trkpt>
      <trkpt lat="42.77949142456055" lon="-8.387889862060547">
        <ele>215.0</ele>
        <time>2019-05-04T10:14:43.000Z</time>
      </trkpt>
      <trkpt lat="42.779537200927734" lon="-8.387884140014648">
        <ele>216.0</ele>
        <time>2019-05-04T10:14:46.000Z</time>
      </trkpt>
      <trkpt lat="42.77958679199219" lon="-8.3878755569458">
        <ele>218.0</ele>
        <time>2019-05-04T10:14:50.000Z</time>
      </trkpt>
      <trkpt lat="42.7796630859375" lon="-8.387884140014648">
        <ele>219.0</ele>
        <time>2019-05-04T10:14:59.000Z</time>
      </trkpt>
      <trkpt lat="42.779747009277344" lon="-8.387897491455078">
        <ele>219.0</ele>
        <time>2019-05-04T10:15:08.000Z</time>
      </trkpt>
      <trkpt lat="42.779842376708984" lon="-8.38791275024414">
        <ele>219.0</ele>
        <time>2019-05-04T10:15:17.000Z</time>
      </trkpt>
      <trkpt lat="42.77994155883789" lon="-8.387930870056152">
        <ele>220.0</ele>
        <time>2019-05-04T10:15:27.000Z</time>
      </trkpt>
      <trkpt lat="42.779998779296875" lon="-8.387969017028809">
        <ele>220.0</ele>
        <time>2019-05-04T10:15:31.000Z</time>
      </trkpt>
      <trkpt lat="42.78000259399414" lon="-8.388011932373047">
        <ele>219.0</ele>
        <time>2019-05-04T10:15:36.000Z</time>
      </trkpt>
      <trkpt lat="42.779998779296875" lon="-8.388086318969727">
        <ele>218.0</ele>
        <time>2019-05-04T10:15:43.000Z</time>
      </trkpt>
      <trkpt lat="42.77998733520508" lon="-8.388184547424316">
        <ele>216.0</ele>
        <time>2019-05-04T10:15:50.000Z</time>
      </trkpt>
      <trkpt lat="42.77996826171875" lon="-8.388297080993652">
        <ele>214.0</ele>
        <time>2019-05-04T10:15:57.000Z</time>
      </trkpt>
      <trkpt lat="42.779945373535156" lon="-8.388418197631836">
        <ele>212.0</ele>
        <time>2019-05-04T10:16:05.000Z</time>
      </trkpt>
      <trkpt lat="42.779937744140625" lon="-8.388531684875488">
        <ele>210.0</ele>
        <time>2019-05-04T10:16:14.000Z</time>
      </trkpt>
      <trkpt lat="42.77993392944336" lon="-8.388650894165039">
        <ele>207.0</ele>
        <time>2019-05-04T10:16:23.000Z</time>
      </trkpt>
      <trkpt lat="42.77993392944336" lon="-8.388772964477539">
        <ele>205.0</ele>
        <time>2019-05-04T10:16:32.000Z</time>
      </trkpt>
      <trkpt lat="42.77993392944336" lon="-8.388896942138672">
        <ele>203.0</ele>
        <time>2019-05-04T10:16:42.000Z</time>
      </trkpt>
      <trkpt lat="42.77991485595703" lon="-8.389009475708008">
        <ele>201.0</ele>
        <time>2019-05-04T10:16:50.000Z</time>
      </trkpt>
      <trkpt lat="42.779884338378906" lon="-8.389119148254395">
        <ele>199.0</ele>
        <time>2019-05-04T10:16:58.000Z</time>
      </trkpt>
      <trkpt lat="42.77984619140625" lon="-8.389227867126465">
        <ele>197.0</ele>
        <time>2019-05-04T10:17:06.000Z</time>
      </trkpt>
      <trkpt lat="42.779808044433594" lon="-8.389334678649902">
        <ele>195.0</ele>
        <time>2019-05-04T10:17:15.000Z</time>
      </trkpt>
      <trkpt lat="42.77979278564453" lon="-8.389418601989746">
        <ele>193.0</ele>
        <time>2019-05-04T10:17:20.000Z</time>
      </trkpt>
      <trkpt lat="42.77978515625" lon="-8.38949203491211">
        <ele>193.0</ele>
        <time>2019-05-04T10:17:25.000Z</time>
      </trkpt>
      <trkpt lat="42.779781341552734" lon="-8.389558792114258">
        <ele>192.0</ele>
        <time>2019-05-04T10:17:30.000Z</time>
      </trkpt>
      <trkpt lat="42.779781341552734" lon="-8.38962173461914">
        <ele>191.0</ele>
        <time>2019-05-04T10:17:36.000Z</time>
      </trkpt>
      <trkpt lat="42.7797737121582" lon="-8.389678001403809">
        <ele>190.0</ele>
        <time>2019-05-04T10:17:40.000Z</time>
      </trkpt>
      <trkpt lat="42.779762268066406" lon="-8.389727592468262">
        <ele>189.0</ele>
        <time>2019-05-04T10:17:45.000Z</time>
      </trkpt>
      <trkpt lat="42.77975082397461" lon="-8.389772415161133">
        <ele>187.0</ele>
        <time>2019-05-04T10:17:50.000Z</time>
      </trkpt>
      <trkpt lat="42.77973937988281" lon="-8.389815330505371">
        <ele>186.0</ele>
        <time>2019-05-04T10:17:55.000Z</time>
      </trkpt>
      <trkpt lat="42.77973175048828" lon="-8.389842987060547">
        <ele>185.0</ele>
        <time>2019-05-04T10:17:59.000Z</time>
      </trkpt>
      <trkpt lat="42.77973175048828" lon="-8.389862060546875">
        <ele>184.0</ele>
        <time>2019-05-04T10:18:04.000Z</time>
      </trkpt>
      <trkpt lat="42.77973175048828" lon="-8.389875411987305">
        <ele>183.0</ele>
        <time>2019-05-04T10:18:09.000Z</time>
      </trkpt>
      <trkpt lat="42.77973556518555" lon="-8.389884948730469">
        <ele>182.0</ele>
        <time>2019-05-04T10:18:14.000Z</time>
      </trkpt>
      <trkpt lat="42.77973175048828" lon="-8.38992691040039">
        <ele>182.0</ele>
        <time>2019-05-04T10:18:15.000Z</time>
      </trkpt>
      <trkpt lat="42.77971649169922" lon="-8.39013671875">
        <ele>181.0</ele>
        <time>2019-05-04T10:18:22.000Z</time>
      </trkpt>
      <trkpt lat="42.77968978881836" lon="-8.390356063842773">
        <ele>178.0</ele>
        <time>2019-05-04T10:18:39.000Z</time>
      </trkpt>
      <trkpt lat="42.7796745300293" lon="-8.390589714050293">
        <ele>178.0</ele>
        <time>2019-05-04T10:18:55.000Z</time>
      </trkpt>
      <trkpt lat="42.77970504760742" lon="-8.391071319580078">
        <ele>180.0</ele>
        <time>2019-05-04T10:19:28.000Z</time>
      </trkpt>
      <trkpt lat="42.779701232910156" lon="-8.391289710998535">
        <ele>178.0</ele>
        <time>2019-05-04T10:19:49.000Z</time>
      </trkpt>
      <trkpt lat="42.77972412109375" lon="-8.391343116760254">
        <ele>178.0</ele>
        <time>2019-05-04T10:19:54.000Z</time>
      </trkpt>
      <trkpt lat="42.77975845336914" lon="-8.391395568847656">
        <ele>179.0</ele>
        <time>2019-05-04T10:19:59.000Z</time>
      </trkpt>
      <trkpt lat="42.77980041503906" lon="-8.391448020935059">
        <ele>179.0</ele>
        <time>2019-05-04T10:20:04.000Z</time>
      </trkpt>
      <trkpt lat="42.779842376708984" lon="-8.391500473022461">
        <ele>179.0</ele>
        <time>2019-05-04T10:20:10.000Z</time>
      </trkpt>
      <trkpt lat="42.77986526489258" lon="-8.391532897949219">
        <ele>179.0</ele>
        <time>2019-05-04T10:20:12.000Z</time>
      </trkpt>
      <trkpt lat="42.779876708984375" lon="-8.391558647155762">
        <ele>179.0</ele>
        <time>2019-05-04T10:20:14.000Z</time>
      </trkpt>
      <trkpt lat="42.779884338378906" lon="-8.391578674316406">
        <ele>179.0</ele>
        <time>2019-05-04T10:20:16.000Z</time>
      </trkpt>
      <trkpt lat="42.77989196777344" lon="-8.391595840454102">
        <ele>179.0</ele>
        <time>2019-05-04T10:20:19.000Z</time>
      </trkpt>
      <trkpt lat="42.77988052368164" lon="-8.391631126403809">
        <ele>179.0</ele>
        <time>2019-05-04T10:20:24.000Z</time>
      </trkpt>
      <trkpt lat="42.77986145019531" lon="-8.391671180725098">
        <ele>178.0</ele>
        <time>2019-05-04T10:20:30.000Z</time>
      </trkpt>
      <trkpt lat="42.77983474731445" lon="-8.391715049743652">
        <ele>178.0</ele>
        <time>2019-05-04T10:20:35.000Z</time>
      </trkpt>
      <trkpt lat="42.77980422973633" lon="-8.391759872436523">
        <ele>177.0</ele>
        <time>2019-05-04T10:20:41.000Z</time>
      </trkpt>
      <trkpt lat="42.77980041503906" lon="-8.391779899597168">
        <ele>177.0</ele>
        <time>2019-05-04T10:20:51.000Z</time>
      </trkpt>
      <trkpt lat="42.779808044433594" lon="-8.391791343688965">
        <ele>176.0</ele>
        <time>2019-05-04T10:21:01.000Z</time>
      </trkpt>
      <trkpt lat="42.779815673828125" lon="-8.391796112060547">
        <ele>175.0</ele>
        <time>2019-05-04T10:21:11.000Z</time>
      </trkpt>
      <trkpt lat="42.77982711791992" lon="-8.391798973083496">
        <ele>175.0</ele>
        <time>2019-05-04T10:21:21.000Z</time>
      </trkpt>
      <trkpt lat="42.77983093261719" lon="-8.391806602478027">
        <ele>174.0</ele>
        <time>2019-05-04T10:21:21.000Z</time>
      </trkpt>
      <trkpt lat="42.77983474731445" lon="-8.391814231872559">
        <ele>174.0</ele>
        <time>2019-05-04T10:21:21.000Z</time>
      </trkpt>
      <trkpt lat="42.77983856201172" lon="-8.391819953918457">
        <ele>174.0</ele>
        <time>2019-05-04T10:21:21.000Z</time>
      </trkpt>
      <trkpt lat="42.779842376708984" lon="-8.391826629638672">
        <ele>175.0</ele>
        <time>2019-05-04T10:21:22.000Z</time>
      </trkpt>
      <trkpt lat="42.779869079589844" lon="-8.391871452331543">
        <ele>175.0</ele>
        <time>2019-05-04T10:21:25.000Z</time>
      </trkpt>
      <trkpt lat="42.77989959716797" lon="-8.391932487487793">
        <ele>174.0</ele>
        <time>2019-05-04T10:21:29.000Z</time>
      </trkpt>
      <trkpt lat="42.779937744140625" lon="-8.39200496673584">
        <ele>174.0</ele>
        <time>2019-05-04T10:21:33.000Z</time>
      </trkpt>
      <trkpt lat="42.77997970581055" lon="-8.392082214355469">
        <ele>174.0</ele>
        <time>2019-05-04T10:21:37.000Z</time>
      </trkpt>
      <trkpt lat="42.780006408691406" lon="-8.392105102539062">
        <ele>173.0</ele>
        <time>2019-05-04T10:21:42.000Z</time>
      </trkpt>
      <trkpt lat="42.780033111572266" lon="-8.392110824584961">
        <ele>172.0</ele>
        <time>2019-05-04T10:21:47.000Z</time>
      </trkpt>
      <trkpt lat="42.780052185058594" lon="-8.392104148864746">
        <ele>170.0</ele>
        <time>2019-05-04T10:21:52.000Z</time>
      </trkpt>
      <trkpt lat="42.78007125854492" lon="-8.39209270477295">
        <ele>168.0</ele>
        <time>2019-05-04T10:21:57.000Z</time>
      </trkpt>
      <trkpt lat="42.780086517333984" lon="-8.392094612121582">
        <ele>167.0</ele>
        <time>2019-05-04T10:21:57.000Z</time>
      </trkpt>
      <trkpt lat="42.780094146728516" lon="-8.392095565795898">
        <ele>167.0</ele>
        <time>2019-05-04T10:21:57.000Z</time>
      </trkpt>
      <trkpt lat="42.78010177612305" lon="-8.392096519470215">
        <ele>167.0</ele>
        <time>2019-05-04T10:21:57.000Z</time>
      </trkpt>
      <trkpt lat="42.78010559082031" lon="-8.392096519470215">
        <ele>168.0</ele>
        <time>2019-05-04T10:21:58.000Z</time>
      </trkpt>
      <trkpt lat="42.78015899658203" lon="-8.392053604125977">
        <ele>166.0</ele>
        <time>2019-05-04T10:22:05.000Z</time>
      </trkpt>
      <trkpt lat="42.78023147583008" lon="-8.391988754272461">
        <ele>163.0</ele>
        <time>2019-05-04T10:22:13.000Z</time>
      </trkpt>
      <trkpt lat="42.780242919921875" lon="-8.391965866088867">
        <ele>162.0</ele>
        <time>2019-05-04T10:22:19.000Z</time>
      </trkpt>
      <trkpt lat="42.78024673461914" lon="-8.391945838928223">
        <ele>161.0</ele>
        <time>2019-05-04T10:22:25.000Z</time>
      </trkpt>
      <trkpt lat="42.780242919921875" lon="-8.391926765441895">
        <ele>160.0</ele>
        <time>2019-05-04T10:22:31.000Z</time>
      </trkpt>
      <trkpt lat="42.78023910522461" lon="-8.391907691955566">
        <ele>158.0</ele>
        <time>2019-05-04T10:22:38.000Z</time>
      </trkpt>
      <trkpt lat="42.78023910522461" lon="-8.39189338684082">
        <ele>158.0</ele>
        <time>2019-05-04T10:22:38.000Z</time>
      </trkpt>
      <trkpt lat="42.780242919921875" lon="-8.391880989074707">
        <ele>158.0</ele>
        <time>2019-05-04T10:22:38.000Z</time>
      </trkpt>
      <trkpt lat="42.780242919921875" lon="-8.39186954498291">
        <ele>158.0</ele>
        <time>2019-05-04T10:22:38.000Z</time>
      </trkpt>
      <trkpt lat="42.780242919921875" lon="-8.39185905456543">
        <ele>158.0</ele>
        <time>2019-05-04T10:22:39.000Z</time>
      </trkpt>
      <trkpt lat="42.78024673461914" lon="-8.391824722290039">
        <ele>158.0</ele>
        <time>2019-05-04T10:22:40.000Z</time>
      </trkpt>
      <trkpt lat="42.78025436401367" lon="-8.391779899597168">
        <ele>158.0</ele>
        <time>2019-05-04T10:22:41.000Z</time>
      </trkpt>
      <trkpt lat="42.7802619934082" lon="-8.391729354858398">
        <ele>157.0</ele>
        <time>2019-05-04T10:22:42.000Z</time>
      </trkpt>
      <trkpt lat="42.780269622802734" lon="-8.39167594909668">
        <ele>157.0</ele>
        <time>2019-05-04T10:22:43.000Z</time>
      </trkpt>
      <trkpt lat="42.780296325683594" lon="-8.391627311706543">
        <ele>155.0</ele>
        <time>2019-05-04T10:22:51.000Z</time>
      </trkpt>
      <trkpt lat="42.780330657958984" lon="-8.391599655151367">
        <ele>152.0</ele>
        <time>2019-05-04T10:22:59.000Z</time>
      </trkpt>
      <trkpt lat="42.780338287353516" lon="-8.391587257385254">
        <ele>152.0</ele>
        <time>2019-05-04T10:22:59.000Z</time>
      </trkpt>
      <trkpt lat="42.78034591674805" lon="-8.39157772064209">
        <ele>152.0</ele>
        <time>2019-05-04T10:22:59.000Z</time>
      </trkpt>
      <trkpt lat="42.78035354614258" lon="-8.391570091247559">
        <ele>152.0</ele>
        <time>2019-05-04T10:22:59.000Z</time>
      </trkpt>
      <trkpt lat="42.780357360839844" lon="-8.391563415527344">
        <ele>152.0</ele>
        <time>2019-05-04T10:23:00.000Z</time>
      </trkpt>
      <trkpt lat="42.78037643432617" lon="-8.391535758972168">
        <ele>152.0</ele>
        <time>2019-05-04T10:23:01.000Z</time>
      </trkpt>
      <trkpt lat="42.780399322509766" lon="-8.391501426696777">
        <ele>151.0</ele>
        <time>2019-05-04T10:23:03.000Z</time>
      </trkpt>
      <trkpt lat="42.78042221069336" lon="-8.391461372375488">
        <ele>151.0</ele>
        <time>2019-05-04T10:23:04.000Z</time>
      </trkpt>
      <trkpt lat="42.78044891357422" lon="-8.391419410705566">
        <ele>150.0</ele>
        <time>2019-05-04T10:23:06.000Z</time>
      </trkpt>
      <trkpt lat="42.780460357666016" lon="-8.391401290893555">
        <ele>149.0</ele>
        <time>2019-05-04T10:23:10.000Z</time>
      </trkpt>
      <trkpt lat="42.78046798706055" lon="-8.391389846801758">
        <ele>148.0</ele>
        <time>2019-05-04T10:23:14.000Z</time>
      </trkpt>
      <trkpt lat="42.78047561645508" lon="-8.39138412475586">
        <ele>147.0</ele>
        <time>2019-05-04T10:23:18.000Z</time>
      </trkpt>
      <trkpt lat="42.78047561645508" lon="-8.391380310058594">
        <ele>145.0</ele>
        <time>2019-05-04T10:23:22.000Z</time>
      </trkpt>
      <trkpt lat="42.78048324584961" lon="-8.391372680664062">
        <ele>145.0</ele>
        <time>2019-05-04T10:23:22.000Z</time>
      </trkpt>
      <trkpt lat="42.780487060546875" lon="-8.391365051269531">
        <ele>145.0</ele>
        <time>2019-05-04T10:23:22.000Z</time>
      </trkpt>
      <trkpt lat="42.78049087524414" lon="-8.391359329223633">
        <ele>145.0</ele>
        <time>2019-05-04T10:23:22.000Z</time>
      </trkpt>
      <trkpt lat="42.780494689941406" lon="-8.391352653503418">
        <ele>145.0</ele>
        <time>2019-05-04T10:23:23.000Z</time>
      </trkpt>
      <trkpt lat="42.78054428100586" lon="-8.391298294067383">
        <ele>145.0</ele>
        <time>2019-05-04T10:23:27.000Z</time>
      </trkpt>
      <trkpt lat="42.78060531616211" lon="-8.39122486114502">
        <ele>144.0</ele>
        <time>2019-05-04T10:23:31.000Z</time>
      </trkpt>
      <trkpt lat="42.78068161010742" lon="-8.391138076782227">
        <ele>142.0</ele>
        <time>2019-05-04T10:23:35.000Z</time>
      </trkpt>
      <trkpt lat="42.780765533447266" lon="-8.391043663024902">
        <ele>141.0</ele>
        <time>2019-05-04T10:23:40.000Z</time>
      </trkpt>
      <trkpt lat="42.78107452392578" lon="-8.390870094299316">
        <ele>139.0</ele>
        <time>2019-05-04T10:24:09.000Z</time>
      </trkpt>
      <trkpt lat="42.781105041503906" lon="-8.390862464904785">
        <ele>138.0</ele>
        <time>2019-05-04T10:24:12.000Z</time>
      </trkpt>
      <trkpt lat="42.78111267089844" lon="-8.390870094299316">
        <ele>138.0</ele>
        <time>2019-05-04T10:24:15.000Z</time>
      </trkpt>
      <trkpt lat="42.78110885620117" lon="-8.390887260437012">
        <ele>138.0</ele>
        <time>2019-05-04T10:24:18.000Z</time>
      </trkpt>
      <trkpt lat="42.781097412109375" lon="-8.390909194946289">
        <ele>138.0</ele>
        <time>2019-05-04T10:24:22.000Z</time>
      </trkpt>
      <trkpt lat="42.78110122680664" lon="-8.390917778015137">
        <ele>138.0</ele>
        <time>2019-05-04T10:24:22.000Z</time>
      </trkpt>
      <trkpt lat="42.781105041503906" lon="-8.390924453735352">
        <ele>138.0</ele>
        <time>2019-05-04T10:24:22.000Z</time>
      </trkpt>
      <trkpt lat="42.78110885620117" lon="-8.390932083129883">
        <ele>138.0</ele>
        <time>2019-05-04T10:24:22.000Z</time>
      </trkpt>
      <trkpt lat="42.78111267089844" lon="-8.390937805175781">
        <ele>138.0</ele>
        <time>2019-05-04T10:24:23.000Z</time>
      </trkpt>
      <trkpt lat="42.781158447265625" lon="-8.390993118286133">
        <ele>138.0</ele>
        <time>2019-05-04T10:24:28.000Z</time>
      </trkpt>
      <trkpt lat="42.78122329711914" lon="-8.391067504882812">
        <ele>139.0</ele>
        <time>2019-05-04T10:24:33.000Z</time>
      </trkpt>
      <trkpt lat="42.78129577636719" lon="-8.391155242919922">
        <ele>139.0</ele>
        <time>2019-05-04T10:24:38.000Z</time>
      </trkpt>
      <trkpt lat="42.781375885009766" lon="-8.391249656677246">
        <ele>140.0</ele>
        <time>2019-05-04T10:24:44.000Z</time>
      </trkpt>
      <trkpt lat="42.78144073486328" lon="-8.391334533691406">
        <ele>140.0</ele>
        <time>2019-05-04T10:24:54.000Z</time>
      </trkpt>
      <trkpt lat="42.781497955322266" lon="-8.3914213180542">
        <ele>141.0</ele>
        <time>2019-05-04T10:25:05.000Z</time>
      </trkpt>
      <trkpt lat="42.781558990478516" lon="-8.391510009765625">
        <ele>142.0</ele>
        <time>2019-05-04T10:25:15.000Z</time>
      </trkpt>
      <trkpt lat="42.7816162109375" lon="-8.391599655151367">
        <ele>143.0</ele>
        <time>2019-05-04T10:25:26.000Z</time>
      </trkpt>
      <trkpt lat="42.78164291381836" lon="-8.391658782958984">
        <ele>143.0</ele>
        <time>2019-05-04T10:25:30.000Z</time>
      </trkpt>
      <trkpt lat="42.781620025634766" lon="-8.3916654586792">
        <ele>143.0</ele>
        <time>2019-05-04T10:25:35.000Z</time>
      </trkpt>
      <trkpt lat="42.78160858154297" lon="-8.391684532165527">
        <ele>142.0</ele>
        <time>2019-05-04T10:25:40.000Z</time>
      </trkpt>
      <trkpt lat="42.781593322753906" lon="-8.391703605651855">
        <ele>142.0</ele>
        <time>2019-05-04T10:25:46.000Z</time>
      </trkpt>
      <trkpt lat="42.78157424926758" lon="-8.3917236328125">
        <ele>141.0</ele>
        <time>2019-05-04T10:25:52.000Z</time>
      </trkpt>
      <trkpt lat="42.781551361083984" lon="-8.391743659973145">
        <ele>141.0</ele>
        <time>2019-05-04T10:25:58.000Z</time>
      </trkpt>
      <trkpt lat="42.78153991699219" lon="-8.391756057739258">
        <ele>141.0</ele>
        <time>2019-05-04T10:25:58.000Z</time>
      </trkpt>
      <trkpt lat="42.781532287597656" lon="-8.391766548156738">
        <ele>141.0</ele>
        <time>2019-05-04T10:25:58.000Z</time>
      </trkpt>
      <trkpt lat="42.781524658203125" lon="-8.39177417755127">
        <ele>141.0</ele>
        <time>2019-05-04T10:25:58.000Z</time>
      </trkpt>
      <trkpt lat="42.78152084350586" lon="-8.391780853271484">
        <ele>141.0</ele>
        <time>2019-05-04T10:25:59.000Z</time>
      </trkpt>
      <trkpt lat="42.781471252441406" lon="-8.391840934753418">
        <ele>140.0</ele>
        <time>2019-05-04T10:26:05.000Z</time>
      </trkpt>
      <trkpt lat="42.781410217285156" lon="-8.391921997070312">
        <ele>140.0</ele>
        <time>2019-05-04T10:26:11.000Z</time>
      </trkpt>
      <trkpt lat="42.78133773803711" lon="-8.392016410827637">
        <ele>139.0</ele>
        <time>2019-05-04T10:26:17.000Z</time>
      </trkpt>
      <trkpt lat="42.7812614440918" lon="-8.392118453979492">
        <ele>138.0</ele>
        <time>2019-05-04T10:26:23.000Z</time>
      </trkpt>
      <trkpt lat="42.78121566772461" lon="-8.392172813415527">
        <ele>137.0</ele>
        <time>2019-05-04T10:26:28.000Z</time>
      </trkpt>
      <trkpt lat="42.78117370605469" lon="-8.392215728759766">
        <ele>136.0</ele>
        <time>2019-05-04T10:26:34.000Z</time>
      </trkpt>
      <trkpt lat="42.78114318847656" lon="-8.392250061035156">
        <ele>136.0</ele>
        <time>2019-05-04T10:26:39.000Z</time>
      </trkpt>
      <trkpt lat="42.78111267089844" lon="-8.392280578613281">
        <ele>135.0</ele>
        <time>2019-05-04T10:26:45.000Z</time>
      </trkpt>
      <trkpt lat="42.7811164855957" lon="-8.39234733581543">
        <ele>134.0</ele>
        <time>2019-05-04T10:26:50.000Z</time>
      </trkpt>
      <trkpt lat="42.78113555908203" lon="-8.392425537109375">
        <ele>133.0</ele>
        <time>2019-05-04T10:26:55.000Z</time>
      </trkpt>
      <trkpt lat="42.78116989135742" lon="-8.392510414123535">
        <ele>132.0</ele>
        <time>2019-05-04T10:27:00.000Z</time>
      </trkpt>
      <trkpt lat="42.78120803833008" lon="-8.392600059509277">
        <ele>131.0</ele>
        <time>2019-05-04T10:27:06.000Z</time>
      </trkpt>
      <trkpt lat="42.781192779541016" lon="-8.392698287963867">
        <ele>130.0</ele>
        <time>2019-05-04T10:27:13.000Z</time>
      </trkpt>
      <trkpt lat="42.78116226196289" lon="-8.392804145812988">
        <ele>129.0</ele>
        <time>2019-05-04T10:27:20.000Z</time>
      </trkpt>
      <trkpt lat="42.78112030029297" lon="-8.392914772033691">
        <ele>128.0</ele>
        <time>2019-05-04T10:27:27.000Z</time>
      </trkpt>
      <trkpt lat="42.781070709228516" lon="-8.393028259277344">
        <ele>126.0</ele>
        <time>2019-05-04T10:27:35.000Z</time>
      </trkpt>
      <trkpt lat="42.781070709228516" lon="-8.393195152282715">
        <ele>124.0</ele>
        <time>2019-05-04T10:27:54.000Z</time>
      </trkpt>
      <trkpt lat="42.78110122680664" lon="-8.393339157104492">
        <ele>123.0</ele>
        <time>2019-05-04T10:28:13.000Z</time>
      </trkpt>
      <trkpt lat="42.78110122680664" lon="-8.3933687210083">
        <ele>121.0</ele>
        <time>2019-05-04T10:28:26.000Z</time>
      </trkpt>
      <trkpt lat="42.78110122680664" lon="-8.393378257751465">
        <ele>120.0</ele>
        <time>2019-05-04T10:28:40.000Z</time>
      </trkpt>
      <trkpt lat="42.781097412109375" lon="-8.393375396728516">
        <ele>119.0</ele>
        <time>2019-05-04T10:28:53.000Z</time>
      </trkpt>
      <trkpt lat="42.781089782714844" lon="-8.393364906311035">
        <ele>118.0</ele>
        <time>2019-05-04T10:29:07.000Z</time>
      </trkpt>
      <trkpt lat="42.781089782714844" lon="-8.39337158203125">
        <ele>118.0</ele>
        <time>2019-05-04T10:29:07.000Z</time>
      </trkpt>
      <trkpt lat="42.78108596801758" lon="-8.393376350402832">
        <ele>117.0</ele>
        <time>2019-05-04T10:29:07.000Z</time>
      </trkpt>
      <trkpt lat="42.78108596801758" lon="-8.39338207244873">
        <ele>118.0</ele>
        <time>2019-05-04T10:29:07.000Z</time>
      </trkpt>
      <trkpt lat="42.78108215332031" lon="-8.393386840820312">
        <ele>118.0</ele>
        <time>2019-05-04T10:29:08.000Z</time>
      </trkpt>
      <trkpt lat="42.78105545043945" lon="-8.39345645904541">
        <ele>117.0</ele>
        <time>2019-05-04T10:29:13.000Z</time>
      </trkpt>
      <trkpt lat="42.78101348876953" lon="-8.393553733825684">
        <ele>116.0</ele>
        <time>2019-05-04T10:29:18.000Z</time>
      </trkpt>
      <trkpt lat="42.780967712402344" lon="-8.393669128417969">
        <ele>114.0</ele>
        <time>2019-05-04T10:29:23.000Z</time>
      </trkpt>
      <trkpt lat="42.780914306640625" lon="-8.393793106079102">
        <ele>112.0</ele>
        <time>2019-05-04T10:29:28.000Z</time>
      </trkpt>
      <trkpt lat="42.78085708618164" lon="-8.393877983093262">
        <ele>109.0</ele>
        <time>2019-05-04T10:29:36.000Z</time>
      </trkpt>
      <trkpt lat="42.78078842163086" lon="-8.393956184387207">
        <ele>106.0</ele>
        <time>2019-05-04T10:29:45.000Z</time>
      </trkpt>
      <trkpt lat="42.78071975708008" lon="-8.39402961730957">
        <ele>102.0</ele>
        <time>2019-05-04T10:29:53.000Z</time>
      </trkpt>
      <trkpt lat="42.78064727783203" lon="-8.394100189208984">
        <ele>98.0</ele>
        <time>2019-05-04T10:30:02.000Z</time>
      </trkpt>
      <trkpt lat="42.78059387207031" lon="-8.394194602966309">
        <ele>95.0</ele>
        <time>2019-05-04T10:30:08.000Z</time>
      </trkpt>
      <trkpt lat="42.78054428100586" lon="-8.394295692443848">
        <ele>92.0</ele>
        <time>2019-05-04T10:30:14.000Z</time>
      </trkpt>
      <trkpt lat="42.78050231933594" lon="-8.394401550292969">
        <ele>89.0</ele>
        <time>2019-05-04T10:30:20.000Z</time>
      </trkpt>
      <trkpt lat="42.780460357666016" lon="-8.394510269165039">
        <ele>86.0</ele>
        <time>2019-05-04T10:30:27.000Z</time>
      </trkpt>
      <trkpt lat="42.780399322509766" lon="-8.394742965698242">
        <ele>81.0</ele>
        <time>2019-05-04T10:30:52.000Z</time>
      </trkpt>
      <trkpt lat="42.7802848815918" lon="-8.394886016845703">
        <ele>80.0</ele>
        <time>2019-05-04T10:31:04.000Z</time>
      </trkpt>
      <trkpt lat="42.780128479003906" lon="-8.395041465759277">
        <ele>79.0</ele>
        <time>2019-05-04T10:31:17.000Z</time>
      </trkpt>
      <trkpt lat="42.780067443847656" lon="-8.395089149475098">
        <ele>78.0</ele>
        <time>2019-05-04T10:31:20.000Z</time>
      </trkpt>
      <trkpt lat="42.78001022338867" lon="-8.395125389099121">
        <ele>78.0</ele>
        <time>2019-05-04T10:31:23.000Z</time>
      </trkpt>
      <trkpt lat="42.77995300292969" lon="-8.395153999328613">
        <ele>77.0</ele>
        <time>2019-05-04T10:31:26.000Z</time>
      </trkpt>
      <trkpt lat="42.77989959716797" lon="-8.39517879486084">
        <ele>77.0</ele>
        <time>2019-05-04T10:31:30.000Z</time>
      </trkpt>
      <trkpt lat="42.779869079589844" lon="-8.395214080810547">
        <ele>77.0</ele>
        <time>2019-05-04T10:31:31.000Z</time>
      </trkpt>
      <trkpt lat="42.77985382080078" lon="-8.395249366760254">
        <ele>77.0</ele>
        <time>2019-05-04T10:31:32.000Z</time>
      </trkpt>
      <trkpt lat="42.77984619140625" lon="-8.395284652709961">
        <ele>76.0</ele>
        <time>2019-05-04T10:31:33.000Z</time>
      </trkpt>
      <trkpt lat="42.77984619140625" lon="-8.395320892333984">
        <ele>76.0</ele>
        <time>2019-05-04T10:31:35.000Z</time>
      </trkpt>
      <trkpt lat="42.779808044433594" lon="-8.395368576049805">
        <ele>75.0</ele>
        <time>2019-05-04T10:31:44.000Z</time>
      </trkpt>
      <trkpt lat="42.77976989746094" lon="-8.395406723022461">
        <ele>73.0</ele>
        <time>2019-05-04T10:31:54.000Z</time>
      </trkpt>
      <trkpt lat="42.779762268066406" lon="-8.39539909362793">
        <ele>73.0</ele>
        <time>2019-05-04T10:31:56.000Z</time>
      </trkpt>
      <trkpt lat="42.77975845336914" lon="-8.395379066467285">
        <ele>72.0</ele>
        <time>2019-05-04T10:31:58.000Z</time>
      </trkpt>
      <trkpt lat="42.77975845336914" lon="-8.395350456237793">
        <ele>72.0</ele>
        <time>2019-05-04T10:32:00.000Z</time>
      </trkpt>
      <trkpt lat="42.77975845336914" lon="-8.395318031311035">
        <ele>72.0</ele>
        <time>2019-05-04T10:32:02.000Z</time>
      </trkpt>
      <trkpt lat="42.77975082397461" lon="-8.39531421661377">
        <ele>72.0</ele>
        <time>2019-05-04T10:32:05.000Z</time>
      </trkpt>
      <trkpt lat="42.779747009277344" lon="-8.395318031311035">
        <ele>71.0</ele>
        <time>2019-05-04T10:32:09.000Z</time>
      </trkpt>
      <trkpt lat="42.77973937988281" lon="-8.3953275680542">
        <ele>71.0</ele>
        <time>2019-05-04T10:32:13.000Z</time>
      </trkpt>
      <trkpt lat="42.77973175048828" lon="-8.395339012145996">
        <ele>71.0</ele>
        <time>2019-05-04T10:32:17.000Z</time>
      </trkpt>
      <trkpt lat="42.77972412109375" lon="-8.395342826843262">
        <ele>70.0</ele>
        <time>2019-05-04T10:32:17.000Z</time>
      </trkpt>
      <trkpt lat="42.779720306396484" lon="-8.395346641540527">
        <ele>70.0</ele>
        <time>2019-05-04T10:32:17.000Z</time>
      </trkpt>
      <trkpt lat="42.77971267700195" lon="-8.395350456237793">
        <ele>70.0</ele>
        <time>2019-05-04T10:32:17.000Z</time>
      </trkpt>
      <trkpt lat="42.77970886230469" lon="-8.395353317260742">
        <ele>71.0</ele>
        <time>2019-05-04T10:32:18.000Z</time>
      </trkpt>
      <trkpt lat="42.779659271240234" lon="-8.395384788513184">
        <ele>70.0</ele>
        <time>2019-05-04T10:32:21.000Z</time>
      </trkpt>
      <trkpt lat="42.77959060668945" lon="-8.395426750183105">
        <ele>70.0</ele>
        <time>2019-05-04T10:32:24.000Z</time>
      </trkpt>
      <trkpt lat="42.779510498046875" lon="-8.395476341247559">
        <ele>70.0</ele>
        <time>2019-05-04T10:32:27.000Z</time>
      </trkpt>
      <trkpt lat="42.779422760009766" lon="-8.395530700683594">
        <ele>70.0</ele>
        <time>2019-05-04T10:32:30.000Z</time>
      </trkpt>
      <trkpt lat="42.77939224243164" lon="-8.395538330078125">
        <ele>70.0</ele>
        <time>2019-05-04T10:32:31.000Z</time>
      </trkpt>
      <trkpt lat="42.77937698364258" lon="-8.395530700683594">
        <ele>70.0</ele>
        <time>2019-05-04T10:32:33.000Z</time>
      </trkpt>
      <trkpt lat="42.77937316894531" lon="-8.395512580871582">
        <ele>70.0</ele>
        <time>2019-05-04T10:32:35.000Z</time>
      </trkpt>
      <trkpt lat="42.77937316894531" lon="-8.395489692687988">
        <ele>70.0</ele>
        <time>2019-05-04T10:32:37.000Z</time>
      </trkpt>
      <trkpt lat="42.77934265136719" lon="-8.395502090454102">
        <ele>70.0</ele>
        <time>2019-05-04T10:32:40.000Z</time>
      </trkpt>
      <trkpt lat="42.77930450439453" lon="-8.395523071289062">
        <ele>70.0</ele>
        <time>2019-05-04T10:32:43.000Z</time>
      </trkpt>
      <trkpt lat="42.77926254272461" lon="-8.395550727844238">
        <ele>70.0</ele>
        <time>2019-05-04T10:32:46.000Z</time>
      </trkpt>
      <trkpt lat="42.77921676635742" lon="-8.395581245422363">
        <ele>70.0</ele>
        <time>2019-05-04T10:32:50.000Z</time>
      </trkpt>
      <trkpt lat="42.77925109863281" lon="-8.395601272583008">
        <ele>71.0</ele>
        <time>2019-05-04T10:32:53.000Z</time>
      </trkpt>
      <trkpt lat="42.779319763183594" lon="-8.39561939239502">
        <ele>71.0</ele>
        <time>2019-05-04T10:32:57.000Z</time>
      </trkpt>
      <trkpt lat="42.77940368652344" lon="-8.395637512207031">
        <ele>71.0</ele>
        <time>2019-05-04T10:33:01.000Z</time>
      </trkpt>
      <trkpt lat="42.77949905395508" lon="-8.395654678344727">
        <ele>71.0</ele>
        <time>2019-05-04T10:33:05.000Z</time>
      </trkpt>
      <trkpt lat="42.779518127441406" lon="-8.395710945129395">
        <ele>71.0</ele>
        <time>2019-05-04T10:33:08.000Z</time>
      </trkpt>
      <trkpt lat="42.779518127441406" lon="-8.395783424377441">
        <ele>71.0</ele>
        <time>2019-05-04T10:33:11.000Z</time>
      </trkpt>
      <trkpt lat="42.779502868652344" lon="-8.395867347717285">
        <ele>71.0</ele>
        <time>2019-05-04T10:33:14.000Z</time>
      </trkpt>
      <trkpt lat="42.779483795166016" lon="-8.395956039428711">
        <ele>71.0</ele>
        <time>2019-05-04T10:33:18.000Z</time>
      </trkpt>
      <trkpt lat="42.779483795166016" lon="-8.396025657653809">
        <ele>71.0</ele>
        <time>2019-05-04T10:33:19.000Z</time>
      </trkpt>
      <trkpt lat="42.77948760986328" lon="-8.396093368530273">
        <ele>71.0</ele>
        <time>2019-05-04T10:33:21.000Z</time>
      </trkpt>
      <trkpt lat="42.77949142456055" lon="-8.396159172058105">
        <ele>71.0</ele>
        <time>2019-05-04T10:33:23.000Z</time>
      </trkpt>
      <trkpt lat="42.77949905395508" lon="-8.396224975585938">
        <ele>71.0</ele>
        <time>2019-05-04T10:33:25.000Z</time>
      </trkpt>
      <trkpt lat="42.77946853637695" lon="-8.39624309539795">
        <ele>71.0</ele>
        <time>2019-05-04T10:33:27.000Z</time>
      </trkpt>
      <trkpt lat="42.77942657470703" lon="-8.396241188049316">
        <ele>71.0</ele>
        <time>2019-05-04T10:33:29.000Z</time>
      </trkpt>
      <trkpt lat="42.77937698364258" lon="-8.396224975585938">
        <ele>71.0</ele>
        <time>2019-05-04T10:33:31.000Z</time>
      </trkpt>
      <trkpt lat="42.77932357788086" lon="-8.396202087402344">
        <ele>71.0</ele>
        <time>2019-05-04T10:33:33.000Z</time>
      </trkpt>
      <trkpt lat="42.77931213378906" lon="-8.396230697631836">
        <ele>71.0</ele>
        <time>2019-05-04T10:33:35.000Z</time>
      </trkpt>
      <trkpt lat="42.77931213378906" lon="-8.39627456665039">
        <ele>71.0</ele>
        <time>2019-05-04T10:33:37.000Z</time>
      </trkpt>
      <trkpt lat="42.779319763183594" lon="-8.39632797241211">
        <ele>71.0</ele>
        <time>2019-05-04T10:33:39.000Z</time>
      </trkpt>
      <trkpt lat="42.77933120727539" lon="-8.396387100219727">
        <ele>71.0</ele>
        <time>2019-05-04T10:33:42.000Z</time>
      </trkpt>
      <trkpt lat="42.77933120727539" lon="-8.396455764770508">
        <ele>71.0</ele>
        <time>2019-05-04T10:33:46.000Z</time>
      </trkpt>
      <trkpt lat="42.779335021972656" lon="-8.39653491973877">
        <ele>71.0</ele>
        <time>2019-05-04T10:33:50.000Z</time>
      </trkpt>
      <trkpt lat="42.77933883666992" lon="-8.396620750427246">
        <ele>72.0</ele>
        <time>2019-05-04T10:33:54.000Z</time>
      </trkpt>
      <trkpt lat="42.77933883666992" lon="-8.396709442138672">
        <ele>73.0</ele>
        <time>2019-05-04T10:33:58.000Z</time>
      </trkpt>
      <trkpt lat="42.77936935424805" lon="-8.396794319152832">
        <ele>73.0</ele>
        <time>2019-05-04T10:34:03.000Z</time>
      </trkpt>
      <trkpt lat="42.77941131591797" lon="-8.396845817565918">
        <ele>74.0</ele>
        <time>2019-05-04T10:34:09.000Z</time>
      </trkpt>
      <trkpt lat="42.7794303894043" lon="-8.39693546295166">
        <ele>75.0</ele>
        <time>2019-05-04T10:34:15.000Z</time>
      </trkpt>
      <trkpt lat="42.779449462890625" lon="-8.397048950195312">
        <ele>77.0</ele>
        <time>2019-05-04T10:34:22.000Z</time>
      </trkpt>
      <trkpt lat="42.77946853637695" lon="-8.397177696228027">
        <ele>79.0</ele>
        <time>2019-05-04T10:34:28.000Z</time>
      </trkpt>
      <trkpt lat="42.77949142456055" lon="-8.39731502532959">
        <ele>81.0</ele>
        <time>2019-05-04T10:34:35.000Z</time>
      </trkpt>
      <trkpt lat="42.779510498046875" lon="-8.397392272949219">
        <ele>82.0</ele>
        <time>2019-05-04T10:34:39.000Z</time>
      </trkpt>
      <trkpt lat="42.77952575683594" lon="-8.397454261779785">
        <ele>83.0</ele>
        <time>2019-05-04T10:34:44.000Z</time>
      </trkpt>
      <trkpt lat="42.779541015625" lon="-8.397504806518555">
        <ele>83.0</ele>
        <time>2019-05-04T10:34:48.000Z</time>
      </trkpt>
      <trkpt lat="42.77955627441406" lon="-8.397549629211426">
        <ele>84.0</ele>
        <time>2019-05-04T10:34:53.000Z</time>
      </trkpt>
      <trkpt lat="42.77957534790039" lon="-8.397590637207031">
        <ele>84.0</ele>
        <time>2019-05-04T10:34:57.000Z</time>
      </trkpt>
      <trkpt lat="42.77959442138672" lon="-8.397624015808105">
        <ele>85.0</ele>
        <time>2019-05-04T10:35:01.000Z</time>
      </trkpt>
      <trkpt lat="42.77961349487305" lon="-8.397652626037598">
        <ele>85.0</ele>
        <time>2019-05-04T10:35:05.000Z</time>
      </trkpt>
      <trkpt lat="42.779632568359375" lon="-8.397679328918457">
        <ele>86.0</ele>
        <time>2019-05-04T10:35:09.000Z</time>
      </trkpt>
      <trkpt lat="42.77964782714844" lon="-8.397699356079102">
        <ele>86.0</ele>
        <time>2019-05-04T10:35:17.000Z</time>
      </trkpt>
      <trkpt lat="42.779659271240234" lon="-8.397714614868164">
        <ele>86.0</ele>
        <time>2019-05-04T10:35:26.000Z</time>
      </trkpt>
      <trkpt lat="42.77967071533203" lon="-8.397727012634277">
        <ele>87.0</ele>
        <time>2019-05-04T10:35:35.000Z</time>
      </trkpt>
      <trkpt lat="42.77968215942383" lon="-8.397737503051758">
        <ele>87.0</ele>
        <time>2019-05-04T10:35:44.000Z</time>
      </trkpt>
      <trkpt lat="42.77968978881836" lon="-8.397747993469238">
        <ele>87.0</ele>
        <time>2019-05-04T10:35:44.000Z</time>
      </trkpt>
      <trkpt lat="42.77969741821289" lon="-8.397756576538086">
        <ele>87.0</ele>
        <time>2019-05-04T10:35:44.000Z</time>
      </trkpt>
      <trkpt lat="42.779701232910156" lon="-8.397764205932617">
        <ele>87.0</ele>
        <time>2019-05-04T10:35:44.000Z</time>
      </trkpt>
      <trkpt lat="42.77970886230469" lon="-8.397770881652832">
        <ele>87.0</ele>
        <time>2019-05-04T10:35:45.000Z</time>
      </trkpt>
      <trkpt lat="42.779781341552734" lon="-8.39799690246582">
        <ele>87.0</ele>
        <time>2019-05-04T10:35:52.000Z</time>
      </trkpt>
      <trkpt lat="42.77976608276367" lon="-8.398040771484375">
        <ele>87.0</ele>
        <time>2019-05-04T10:35:54.000Z</time>
      </trkpt>
      <trkpt lat="42.77973937988281" lon="-8.398078918457031">
        <ele>87.0</ele>
        <time>2019-05-04T10:35:57.000Z</time>
      </trkpt>
      <trkpt lat="42.779701232910156" lon="-8.398114204406738">
        <ele>87.0</ele>
        <time>2019-05-04T10:36:00.000Z</time>
      </trkpt>
      <trkpt lat="42.779659271240234" lon="-8.398146629333496">
        <ele>87.0</ele>
        <time>2019-05-04T10:36:03.000Z</time>
      </trkpt>
      <trkpt lat="42.77964782714844" lon="-8.398177146911621">
        <ele>87.0</ele>
        <time>2019-05-04T10:36:05.000Z</time>
      </trkpt>
      <trkpt lat="42.7796516418457" lon="-8.398204803466797">
        <ele>87.0</ele>
        <time>2019-05-04T10:36:08.000Z</time>
      </trkpt>
      <trkpt lat="42.77965545654297" lon="-8.39823055267334">
        <ele>87.0</ele>
        <time>2019-05-04T10:36:10.000Z</time>
      </trkpt>
      <trkpt lat="42.779666900634766" lon="-8.398256301879883">
        <ele>87.0</ele>
        <time>2019-05-04T10:36:13.000Z</time>
      </trkpt>
      <trkpt lat="42.77967834472656" lon="-8.398309707641602">
        <ele>87.0</ele>
        <time>2019-05-04T10:36:18.000Z</time>
      </trkpt>
      <trkpt lat="42.779693603515625" lon="-8.398374557495117">
        <ele>88.0</ele>
        <time>2019-05-04T10:36:23.000Z</time>
      </trkpt>
      <trkpt lat="42.77971267700195" lon="-8.398446083068848">
        <ele>89.0</ele>
        <time>2019-05-04T10:36:28.000Z</time>
      </trkpt>
      <trkpt lat="42.77973556518555" lon="-8.398521423339844">
        <ele>90.0</ele>
        <time>2019-05-04T10:36:33.000Z</time>
      </trkpt>
      <trkpt lat="42.77973937988281" lon="-8.398547172546387">
        <ele>89.0</ele>
        <time>2019-05-04T10:36:40.000Z</time>
      </trkpt>
      <trkpt lat="42.77973937988281" lon="-8.398554801940918">
        <ele>88.0</ele>
        <time>2019-05-04T10:36:48.000Z</time>
      </trkpt>
      <trkpt lat="42.77973937988281" lon="-8.398550987243652">
        <ele>87.0</ele>
        <time>2019-05-04T10:36:56.000Z</time>
      </trkpt>
      <trkpt lat="42.77973556518555" lon="-8.398542404174805">
        <ele>86.0</ele>
        <time>2019-05-04T10:37:04.000Z</time>
      </trkpt>
      <trkpt lat="42.77973556518555" lon="-8.398547172546387">
        <ele>86.0</ele>
        <time>2019-05-04T10:37:04.000Z</time>
      </trkpt>
      <trkpt lat="42.77973556518555" lon="-8.398551940917969">
        <ele>86.0</ele>
        <time>2019-05-04T10:37:04.000Z</time>
      </trkpt>
      <trkpt lat="42.77973556518555" lon="-8.398555755615234">
        <ele>86.0</ele>
        <time>2019-05-04T10:37:04.000Z</time>
      </trkpt>
      <trkpt lat="42.77973556518555" lon="-8.398560523986816">
        <ele>86.0</ele>
        <time>2019-05-04T10:37:05.000Z</time>
      </trkpt>
      <trkpt lat="42.77973937988281" lon="-8.398622512817383">
        <ele>86.0</ele>
        <time>2019-05-04T10:37:06.000Z</time>
      </trkpt>
      <trkpt lat="42.779747009277344" lon="-8.39870834350586">
        <ele>85.0</ele>
        <time>2019-05-04T10:37:07.000Z</time>
      </trkpt>
      <trkpt lat="42.779754638671875" lon="-8.398810386657715">
        <ele>85.0</ele>
        <time>2019-05-04T10:37:08.000Z</time>
      </trkpt>
      <trkpt lat="42.77975845336914" lon="-8.398920059204102">
        <ele>85.0</ele>
        <time>2019-05-04T10:37:10.000Z</time>
      </trkpt>
      <trkpt lat="42.77973175048828" lon="-8.399073600769043">
        <ele>84.0</ele>
        <time>2019-05-04T10:37:17.000Z</time>
      </trkpt>
      <trkpt lat="42.779685974121094" lon="-8.399215698242188">
        <ele>83.0</ele>
        <time>2019-05-04T10:37:24.000Z</time>
      </trkpt>
      <trkpt lat="42.77964401245117" lon="-8.399284362792969">
        <ele>80.0</ele>
        <time>2019-05-04T10:37:42.000Z</time>
      </trkpt>
      <trkpt lat="42.779598236083984" lon="-8.399316787719727">
        <ele>75.0</ele>
        <time>2019-05-04T10:38:00.000Z</time>
      </trkpt>
      <trkpt lat="42.77958297729492" lon="-8.399333000183105">
        <ele>75.0</ele>
        <time>2019-05-04T10:38:00.000Z</time>
      </trkpt>
      <trkpt lat="42.779571533203125" lon="-8.399347305297852">
        <ele>74.0</ele>
        <time>2019-05-04T10:38:00.000Z</time>
      </trkpt>
      <trkpt lat="42.77956008911133" lon="-8.399358749389648">
        <ele>75.0</ele>
        <time>2019-05-04T10:38:00.000Z</time>
      </trkpt>
      <trkpt lat="42.77954864501953" lon="-8.399369239807129">
        <ele>75.0</ele>
        <time>2019-05-04T10:38:01.000Z</time>
      </trkpt>
      <trkpt lat="42.77949905395508" lon="-8.399415016174316">
        <ele>75.0</ele>
        <time>2019-05-04T10:38:04.000Z</time>
      </trkpt>
      <trkpt lat="42.77943420410156" lon="-8.39947509765625">
        <ele>74.0</ele>
        <time>2019-05-04T10:38:08.000Z</time>
      </trkpt>
      <trkpt lat="42.77935791015625" lon="-8.399543762207031">
        <ele>72.0</ele>
        <time>2019-05-04T10:38:11.000Z</time>
      </trkpt>
      <trkpt lat="42.779273986816406" lon="-8.399617195129395">
        <ele>71.0</ele>
        <time>2019-05-04T10:38:15.000Z</time>
      </trkpt>
      <trkpt lat="42.77924346923828" lon="-8.399646759033203">
        <ele>70.0</ele>
        <time>2019-05-04T10:38:16.000Z</time>
      </trkpt>
      <trkpt lat="42.77922821044922" lon="-8.399662017822266">
        <ele>70.0</ele>
        <time>2019-05-04T10:38:18.000Z</time>
      </trkpt>
      <trkpt lat="42.77922058105469" lon="-8.399667739868164">
        <ele>69.0</ele>
        <time>2019-05-04T10:38:20.000Z</time>
      </trkpt>
      <trkpt lat="42.77922058105469" lon="-8.39966869354248">
        <ele>69.0</ele>
        <time>2019-05-04T10:38:22.000Z</time>
      </trkpt>
      <trkpt lat="42.77920150756836" lon="-8.39968204498291">
        <ele>68.0</ele>
        <time>2019-05-04T10:38:25.000Z</time>
      </trkpt>
      <trkpt lat="42.77918243408203" lon="-8.399696350097656">
        <ele>67.0</ele>
        <time>2019-05-04T10:38:29.000Z</time>
      </trkpt>
      <trkpt lat="42.7791633605957" lon="-8.399710655212402">
        <ele>66.0</ele>
        <time>2019-05-04T10:38:32.000Z</time>
      </trkpt>
      <trkpt lat="42.77914047241211" lon="-8.399724960327148">
        <ele>65.0</ele>
        <time>2019-05-04T10:38:36.000Z</time>
      </trkpt>
      <trkpt lat="42.77912521362305" lon="-8.399734497070312">
        <ele>64.0</ele>
        <time>2019-05-04T10:38:36.000Z</time>
      </trkpt>
      <trkpt lat="42.779117584228516" lon="-8.399741172790527">
        <ele>64.0</ele>
        <time>2019-05-04T10:38:36.000Z</time>
      </trkpt>
      <trkpt lat="42.779109954833984" lon="-8.399746894836426">
        <ele>64.0</ele>
        <time>2019-05-04T10:38:36.000Z</time>
      </trkpt>
      <trkpt lat="42.77910232543945" lon="-8.399750709533691">
        <ele>65.0</ele>
        <time>2019-05-04T10:38:37.000Z</time>
      </trkpt>
      <trkpt lat="42.778812408447266" lon="-8.399956703186035">
        <ele>59.0</ele>
        <time>2019-05-04T10:38:58.000Z</time>
      </trkpt>
      <trkpt lat="42.77865219116211" lon="-8.400099754333496">
        <ele>55.0</ele>
        <time>2019-05-04T10:39:15.000Z</time>
      </trkpt>
      <trkpt lat="42.77843475341797" lon="-8.400195121765137">
        <ele>58.0</ele>
        <time>2019-05-04T10:39:30.000Z</time>
      </trkpt>
      <trkpt lat="42.77827072143555" lon="-8.400317192077637">
        <ele>59.0</ele>
        <time>2019-05-04T10:39:47.000Z</time>
      </trkpt>
      <trkpt lat="42.77815628051758" lon="-8.40038776397705">
        <ele>58.0</ele>
        <time>2019-05-04T10:39:59.000Z</time>
      </trkpt>
      <trkpt lat="42.77815628051758" lon="-8.400370597839355">
        <ele>58.0</ele>
        <time>2019-05-04T10:40:00.000Z</time>
      </trkpt>
      <trkpt lat="42.77816390991211" lon="-8.400339126586914">
        <ele>58.0</ele>
        <time>2019-05-04T10:40:02.000Z</time>
      </trkpt>
      <trkpt lat="42.77817916870117" lon="-8.400297164916992">
        <ele>58.0</ele>
        <time>2019-05-04T10:40:04.000Z</time>
      </trkpt>
      <trkpt lat="42.7781982421875" lon="-8.400251388549805">
        <ele>57.0</ele>
        <time>2019-05-04T10:40:06.000Z</time>
      </trkpt>
      <trkpt lat="42.7781867980957" lon="-8.400240898132324">
        <ele>57.0</ele>
        <time>2019-05-04T10:40:08.000Z</time>
      </trkpt>
      <trkpt lat="42.77816390991211" lon="-8.400240898132324">
        <ele>57.0</ele>
        <time>2019-05-04T10:40:11.000Z</time>
      </trkpt>
      <trkpt lat="42.77813720703125" lon="-8.400246620178223">
        <ele>57.0</ele>
        <time>2019-05-04T10:40:13.000Z</time>
      </trkpt>
      <trkpt lat="42.778106689453125" lon="-8.400256156921387">
        <ele>57.0</ele>
        <time>2019-05-04T10:40:16.000Z</time>
      </trkpt>
      <trkpt lat="42.7780876159668" lon="-8.400282859802246">
        <ele>57.0</ele>
        <time>2019-05-04T10:40:20.000Z</time>
      </trkpt>
      <trkpt lat="42.778076171875" lon="-8.400320053100586">
        <ele>57.0</ele>
        <time>2019-05-04T10:40:24.000Z</time>
      </trkpt>
      <trkpt lat="42.77806091308594" lon="-8.40036392211914">
        <ele>56.0</ele>
        <time>2019-05-04T10:40:28.000Z</time>
      </trkpt>
      <trkpt lat="42.77804946899414" lon="-8.400411605834961">
        <ele>56.0</ele>
        <time>2019-05-04T10:40:33.000Z</time>
      </trkpt>
      <trkpt lat="42.778045654296875" lon="-8.400506973266602">
        <ele>54.0</ele>
        <time>2019-05-04T10:40:44.000Z</time>
      </trkpt>
      <trkpt lat="42.77804946899414" lon="-8.40061092376709">
        <ele>52.0</ele>
        <time>2019-05-04T10:40:56.000Z</time>
      </trkpt>
      <trkpt lat="42.77804946899414" lon="-8.400634765625">
        <ele>52.0</ele>
        <time>2019-05-04T10:40:56.000Z</time>
      </trkpt>
      <trkpt lat="42.77804946899414" lon="-8.400649070739746">
        <ele>52.0</ele>
        <time>2019-05-04T10:40:56.000Z</time>
      </trkpt>
      <trkpt lat="42.77804946899414" lon="-8.400655746459961">
        <ele>52.0</ele>
        <time>2019-05-04T10:40:56.000Z</time>
      </trkpt>
      <trkpt lat="42.77804946899414" lon="-8.40065860748291">
        <ele>52.0</ele>
        <time>2019-05-04T10:40:57.000Z</time>
      </trkpt>
      <trkpt lat="42.77805709838867" lon="-8.400701522827148">
        <ele>53.0</ele>
        <time>2019-05-04T10:41:00.000Z</time>
      </trkpt>
      <trkpt lat="42.778072357177734" lon="-8.400757789611816">
        <ele>53.0</ele>
        <time>2019-05-04T10:41:03.000Z</time>
      </trkpt>
      <trkpt lat="42.77808380126953" lon="-8.400822639465332">
        <ele>54.0</ele>
        <time>2019-05-04T10:41:06.000Z</time>
      </trkpt>
      <trkpt lat="42.778099060058594" lon="-8.400891304016113">
        <ele>55.0</ele>
        <time>2019-05-04T10:41:09.000Z</time>
      </trkpt>
      <trkpt lat="42.778099060058594" lon="-8.400948524475098">
        <ele>57.0</ele>
        <time>2019-05-04T10:41:20.000Z</time>
      </trkpt>
      <trkpt lat="42.77808380126953" lon="-8.400979042053223">
        <ele>59.0</ele>
        <time>2019-05-04T10:41:31.000Z</time>
      </trkpt>
      <trkpt lat="42.77809524536133" lon="-8.40100383758545">
        <ele>59.0</ele>
        <time>2019-05-04T10:41:42.000Z</time>
      </trkpt>
      <trkpt lat="42.778106689453125" lon="-8.401028633117676">
        <ele>60.0</ele>
        <time>2019-05-04T10:41:54.000Z</time>
      </trkpt>
      <trkpt lat="42.77812194824219" lon="-8.401054382324219">
        <ele>61.0</ele>
        <time>2019-05-04T10:42:05.000Z</time>
      </trkpt>
      <trkpt lat="42.778141021728516" lon="-8.401080131530762">
        <ele>61.0</ele>
        <time>2019-05-04T10:42:17.000Z</time>
      </trkpt>
      <trkpt lat="42.77814865112305" lon="-8.401094436645508">
        <ele>61.0</ele>
        <time>2019-05-04T10:42:17.000Z</time>
      </trkpt>
      <trkpt lat="42.77815246582031" lon="-8.401103973388672">
        <ele>61.0</ele>
        <time>2019-05-04T10:42:17.000Z</time>
      </trkpt>
      <trkpt lat="42.77815628051758" lon="-8.40110969543457">
        <ele>61.0</ele>
        <time>2019-05-04T10:42:17.000Z</time>
      </trkpt>
      <trkpt lat="42.778160095214844" lon="-8.401114463806152">
        <ele>61.0</ele>
        <time>2019-05-04T10:42:18.000Z</time>
      </trkpt>
      <trkpt lat="42.77819061279297" lon="-8.401189804077148">
        <ele>62.0</ele>
        <time>2019-05-04T10:42:26.000Z</time>
      </trkpt>
      <trkpt lat="42.778228759765625" lon="-8.401291847229004">
        <ele>64.0</ele>
        <time>2019-05-04T10:42:34.000Z</time>
      </trkpt>
      <trkpt lat="42.77827453613281" lon="-8.401412963867188">
        <ele>66.0</ele>
        <time>2019-05-04T10:42:42.000Z</time>
      </trkpt>
      <trkpt lat="42.778324127197266" lon="-8.401542663574219">
        <ele>68.0</ele>
        <time>2019-05-04T10:42:51.000Z</time>
      </trkpt>
      <trkpt lat="42.778350830078125" lon="-8.401656150817871">
        <ele>69.0</ele>
        <time>2019-05-04T10:42:58.000Z</time>
      </trkpt>
      <trkpt lat="42.77837371826172" lon="-8.401772499084473">
        <ele>68.0</ele>
        <time>2019-05-04T10:43:06.000Z</time>
      </trkpt>
      <trkpt lat="42.77839279174805" lon="-8.40188980102539">
        <ele>68.0</ele>
        <time>2019-05-04T10:43:14.000Z</time>
      </trkpt>
      <trkpt lat="42.77840805053711" lon="-8.402008056640625">
        <ele>67.0</ele>
        <time>2019-05-04T10:43:22.000Z</time>
      </trkpt>
      <trkpt lat="42.7784423828125" lon="-8.402116775512695">
        <ele>66.0</ele>
        <time>2019-05-04T10:43:30.000Z</time>
      </trkpt>
      <trkpt lat="42.77848434448242" lon="-8.402222633361816">
        <ele>65.0</ele>
        <time>2019-05-04T10:43:39.000Z</time>
      </trkpt>
      <trkpt lat="42.778526306152344" lon="-8.402326583862305">
        <ele>63.0</ele>
        <time>2019-05-04T10:43:47.000Z</time>
      </trkpt>
      <trkpt lat="42.7785758972168" lon="-8.402429580688477">
        <ele>62.0</ele>
        <time>2019-05-04T10:43:56.000Z</time>
      </trkpt>
      <trkpt lat="42.7785758972168" lon="-8.402642250061035">
        <ele>62.0</ele>
        <time>2019-05-04T10:44:11.000Z</time>
      </trkpt>
      <trkpt lat="42.778541564941406" lon="-8.402856826782227">
        <ele>63.0</ele>
        <time>2019-05-04T10:44:27.000Z</time>
      </trkpt>
      <trkpt lat="42.77853775024414" lon="-8.402894973754883">
        <ele>63.0</ele>
        <time>2019-05-04T10:44:27.000Z</time>
      </trkpt>
      <trkpt lat="42.77853775024414" lon="-8.402905464172363">
        <ele>63.0</ele>
        <time>2019-05-04T10:44:28.000Z</time>
      </trkpt>
      <trkpt lat="42.77853775024414" lon="-8.402896881103516">
        <ele>63.0</ele>
        <time>2019-05-04T10:44:29.000Z</time>
      </trkpt>
      <trkpt lat="42.778541564941406" lon="-8.402878761291504">
        <ele>63.0</ele>
        <time>2019-05-04T10:44:30.000Z</time>
      </trkpt>
      <trkpt lat="42.77853775024414" lon="-8.402892112731934">
        <ele>63.0</ele>
        <time>2019-05-04T10:44:40.000Z</time>
      </trkpt>
      <trkpt lat="42.77852249145508" lon="-8.402945518493652">
        <ele>63.0</ele>
        <time>2019-05-04T10:45:06.000Z</time>
      </trkpt>
      <trkpt lat="42.778526306152344" lon="-8.402937889099121">
        <ele>63.0</ele>
        <time>2019-05-04T10:45:01.000Z</time>
      </trkpt>
      <trkpt lat="42.77853012084961" lon="-8.402924537658691">
        <ele>63.0</ele>
        <time>2019-05-04T10:44:56.000Z</time>
      </trkpt>
      <trkpt lat="42.77853012084961" lon="-8.402924537658691">
        <ele>63.0</ele>
        <time>2019-05-04T10:45:14.000Z</time>
      </trkpt>
      <trkpt lat="42.846622467041016" lon="-8.521391868591309">
        <ele>125.0</ele>
        <time>2019-05-05T06:26:39.000Z</time>
      </trkpt>
      <trkpt lat="42.846744537353516" lon="-8.521472930908203">
        <ele>130.0</ele>
        <time>2019-05-05T06:26:48.000Z</time>
      </trkpt>
      <trkpt lat="42.84683609008789" lon="-8.52175235748291">
        <ele>134.0</ele>
        <time>2019-05-05T06:27:12.000Z</time>
      </trkpt>
      <trkpt lat="42.846866607666016" lon="-8.52178955078125">
        <ele>135.0</ele>
        <time>2019-05-05T06:27:15.000Z</time>
      </trkpt>
      <trkpt lat="42.846900939941406" lon="-8.521811485290527">
        <ele>135.0</ele>
        <time>2019-05-05T06:27:18.000Z</time>
      </trkpt>
      <trkpt lat="42.8469352722168" lon="-8.521824836730957">
        <ele>135.0</ele>
        <time>2019-05-05T06:27:20.000Z</time>
      </trkpt>
      <trkpt lat="42.84697341918945" lon="-8.521833419799805">
        <ele>136.0</ele>
        <time>2019-05-05T06:27:23.000Z</time>
      </trkpt>
      <trkpt lat="42.84702682495117" lon="-8.52189826965332">
        <ele>136.0</ele>
        <time>2019-05-05T06:27:30.000Z</time>
      </trkpt>
      <trkpt lat="42.84708786010742" lon="-8.521982192993164">
        <ele>137.0</ele>
        <time>2019-05-05T06:27:37.000Z</time>
      </trkpt>
      <trkpt lat="42.84715270996094" lon="-8.522079467773438">
        <ele>138.0</ele>
        <time>2019-05-05T06:27:43.000Z</time>
      </trkpt>
      <trkpt lat="42.84721755981445" lon="-8.522181510925293">
        <ele>140.0</ele>
        <time>2019-05-05T06:27:50.000Z</time>
      </trkpt>
      <trkpt lat="42.84727478027344" lon="-8.52224063873291">
        <ele>140.0</ele>
        <time>2019-05-05T06:27:54.000Z</time>
      </trkpt>
      <trkpt lat="42.847328186035156" lon="-8.52228832244873">
        <ele>141.0</ele>
        <time>2019-05-05T06:27:58.000Z</time>
      </trkpt>
      <trkpt lat="42.847381591796875" lon="-8.522327423095703">
        <ele>141.0</ele>
        <time>2019-05-05T06:28:02.000Z</time>
      </trkpt>
      <trkpt lat="42.847434997558594" lon="-8.52236270904541">
        <ele>142.0</ele>
        <time>2019-05-05T06:28:06.000Z</time>
      </trkpt>
      <trkpt lat="42.8475227355957" lon="-8.522374153137207">
        <ele>143.0</ele>
        <time>2019-05-05T06:28:15.000Z</time>
      </trkpt>
      <trkpt lat="42.847599029541016" lon="-8.522350311279297">
        <ele>144.0</ele>
        <time>2019-05-05T06:28:24.000Z</time>
      </trkpt>
      <trkpt lat="42.84762954711914" lon="-8.52237606048584">
        <ele>142.0</ele>
        <time>2019-05-05T06:28:34.000Z</time>
      </trkpt>
      <trkpt lat="42.847660064697266" lon="-8.522414207458496">
        <ele>139.0</ele>
        <time>2019-05-05T06:28:44.000Z</time>
      </trkpt>
      <trkpt lat="42.847686767578125" lon="-8.5224609375">
        <ele>135.0</ele>
        <time>2019-05-05T06:28:54.000Z</time>
      </trkpt>
      <trkpt lat="42.847713470458984" lon="-8.522510528564453">
        <ele>131.0</ele>
        <time>2019-05-05T06:29:04.000Z</time>
      </trkpt>
      <trkpt lat="42.84772872924805" lon="-8.522526741027832">
        <ele>130.0</ele>
        <time>2019-05-05T06:29:05.000Z</time>
      </trkpt>
      <trkpt lat="42.84773254394531" lon="-8.52253246307373">
        <ele>130.0</ele>
        <time>2019-05-05T06:29:05.000Z</time>
      </trkpt>
      <trkpt lat="42.84772872924805" lon="-8.522531509399414">
        <ele>130.0</ele>
        <time>2019-05-05T06:29:05.000Z</time>
      </trkpt>
      <trkpt lat="42.84772872924805" lon="-8.522526741027832">
        <ele>131.0</ele>
        <time>2019-05-05T06:29:05.000Z</time>
      </trkpt>
      <trkpt lat="42.84773254394531" lon="-8.522542953491211">
        <ele>131.0</ele>
        <time>2019-05-05T06:29:06.000Z</time>
      </trkpt>
      <trkpt lat="42.847740173339844" lon="-8.522562980651855">
        <ele>131.0</ele>
        <time>2019-05-05T06:29:07.000Z</time>
      </trkpt>
      <trkpt lat="42.847747802734375" lon="-8.522587776184082">
        <ele>131.0</ele>
        <time>2019-05-05T06:29:08.000Z</time>
      </trkpt>
      <trkpt lat="42.847755432128906" lon="-8.522612571716309">
        <ele>131.0</ele>
        <time>2019-05-05T06:29:08.000Z</time>
      </trkpt>
      <trkpt lat="42.84776306152344" lon="-8.52263069152832">
        <ele>132.0</ele>
        <time>2019-05-05T06:29:11.000Z</time>
      </trkpt>
      <trkpt lat="42.84777069091797" lon="-8.5226469039917">
        <ele>134.0</ele>
        <time>2019-05-05T06:29:13.000Z</time>
      </trkpt>
      <trkpt lat="42.8477783203125" lon="-8.522661209106445">
        <ele>136.0</ele>
        <time>2019-05-05T06:29:15.000Z</time>
      </trkpt>
      <trkpt lat="42.84778594970703" lon="-8.522675514221191">
        <ele>138.0</ele>
        <time>2019-05-05T06:29:17.000Z</time>
      </trkpt>
      <trkpt lat="42.8477897644043" lon="-8.52268123626709">
        <ele>141.0</ele>
        <time>2019-05-05T06:29:29.000Z</time>
      </trkpt>
      <trkpt lat="42.84779357910156" lon="-8.522683143615723">
        <ele>144.0</ele>
        <time>2019-05-05T06:29:40.000Z</time>
      </trkpt>
      <trkpt lat="42.84779357910156" lon="-8.52268123626709">
        <ele>147.0</ele>
        <time>2019-05-05T06:29:51.000Z</time>
      </trkpt>
      <trkpt lat="42.84779357910156" lon="-8.52267837524414">
        <ele>150.0</ele>
        <time>2019-05-05T06:30:02.000Z</time>
      </trkpt>
      <trkpt lat="42.84779357910156" lon="-8.522679328918457">
        <ele>151.0</ele>
        <time>2019-05-05T06:30:03.000Z</time>
      </trkpt>
      <trkpt lat="42.84779357910156" lon="-8.522680282592773">
        <ele>151.0</ele>
        <time>2019-05-05T06:30:03.000Z</time>
      </trkpt>
      <trkpt lat="42.84779739379883" lon="-8.522680282592773">
        <ele>151.0</ele>
        <time>2019-05-05T06:30:03.000Z</time>
      </trkpt>
      <trkpt lat="42.84779739379883" lon="-8.52268123626709">
        <ele>150.0</ele>
        <time>2019-05-05T06:30:03.000Z</time>
      </trkpt>
      <trkpt lat="42.847816467285156" lon="-8.522690773010254">
        <ele>150.0</ele>
        <time>2019-05-05T06:30:05.000Z</time>
      </trkpt>
      <trkpt lat="42.84796905517578" lon="-8.522765159606934">
        <ele>151.0</ele>
        <time>2019-05-05T06:30:15.000Z</time>
      </trkpt>
      <trkpt lat="42.848079681396484" lon="-8.522828102111816">
        <ele>154.0</ele>
        <time>2019-05-05T06:30:38.000Z</time>
      </trkpt>
      <trkpt lat="42.84814453125" lon="-8.522865295410156">
        <ele>154.0</ele>
        <time>2019-05-05T06:30:39.000Z</time>
      </trkpt>
      <trkpt lat="42.84818649291992" lon="-8.522882461547852">
        <ele>154.0</ele>
        <time>2019-05-05T06:30:42.000Z</time>
      </trkpt>
      <trkpt lat="42.848228454589844" lon="-8.52290153503418">
        <ele>157.0</ele>
        <time>2019-05-05T06:30:54.000Z</time>
      </trkpt>
      <trkpt lat="42.84825897216797" lon="-8.522916793823242">
        <ele>157.0</ele>
        <time>2019-05-05T06:30:55.000Z</time>
      </trkpt>
      <trkpt lat="42.8486328125" lon="-8.523096084594727">
        <ele>158.0</ele>
        <time>2019-05-05T06:31:06.000Z</time>
      </trkpt>
      <trkpt lat="42.84870910644531" lon="-8.523151397705078">
        <ele>159.0</ele>
        <time>2019-05-05T06:31:12.000Z</time>
      </trkpt>
      <trkpt lat="42.84872817993164" lon="-8.523150444030762">
        <ele>159.0</ele>
        <time>2019-05-05T06:31:14.000Z</time>
      </trkpt>
      <trkpt lat="42.848751068115234" lon="-8.523141860961914">
        <ele>159.0</ele>
        <time>2019-05-05T06:31:16.000Z</time>
      </trkpt>
      <trkpt lat="42.84877395629883" lon="-8.5231294631958">
        <ele>159.0</ele>
        <time>2019-05-05T06:31:18.000Z</time>
      </trkpt>
      <trkpt lat="42.84880065917969" lon="-8.523115158081055">
        <ele>160.0</ele>
        <time>2019-05-05T06:31:19.000Z</time>
      </trkpt>
      <trkpt lat="42.848838806152344" lon="-8.523118019104004">
        <ele>160.0</ele>
        <time>2019-05-05T06:31:24.000Z</time>
      </trkpt>
      <trkpt lat="42.848880767822266" lon="-8.5231294631958">
        <ele>161.0</ele>
        <time>2019-05-05T06:31:28.000Z</time>
      </trkpt>
      <trkpt lat="42.84892654418945" lon="-8.523176193237305">
        <ele>161.0</ele>
        <time>2019-05-05T06:31:33.000Z</time>
      </trkpt>
      <trkpt lat="42.848976135253906" lon="-8.523241996765137">
        <ele>161.0</ele>
        <time>2019-05-05T06:31:37.000Z</time>
      </trkpt>
      <trkpt lat="42.84901428222656" lon="-8.523250579833984">
        <ele>161.0</ele>
        <time>2019-05-05T06:31:43.000Z</time>
      </trkpt>
      <trkpt lat="42.849056243896484" lon="-8.5232515335083">
        <ele>162.0</ele>
        <time>2019-05-05T06:31:48.000Z</time>
      </trkpt>
      <trkpt lat="42.84910202026367" lon="-8.523246765136719">
        <ele>162.0</ele>
        <time>2019-05-05T06:31:54.000Z</time>
      </trkpt>
      <trkpt lat="42.84914779663086" lon="-8.523239135742188">
        <ele>163.0</ele>
        <time>2019-05-05T06:31:59.000Z</time>
      </trkpt>
      <trkpt lat="42.84923553466797" lon="-8.523287773132324">
        <ele>163.0</ele>
        <time>2019-05-05T06:32:08.000Z</time>
      </trkpt>
      <trkpt lat="42.84932327270508" lon="-8.523359298706055">
        <ele>163.0</ele>
        <time>2019-05-05T06:32:16.000Z</time>
      </trkpt>
      <trkpt lat="42.849388122558594" lon="-8.523412704467773">
        <ele>163.0</ele>
        <time>2019-05-05T06:32:23.000Z</time>
      </trkpt>
      <trkpt lat="42.849456787109375" lon="-8.523476600646973">
        <ele>163.0</ele>
        <time>2019-05-05T06:32:29.000Z</time>
      </trkpt>
      <trkpt lat="42.84953308105469" lon="-8.523547172546387">
        <ele>162.0</ele>
        <time>2019-05-05T06:32:36.000Z</time>
      </trkpt>
      <trkpt lat="42.849613189697266" lon="-8.52362060546875">
        <ele>162.0</ele>
        <time>2019-05-05T06:32:42.000Z</time>
      </trkpt>
      <trkpt lat="42.84965896606445" lon="-8.523653030395508">
        <ele>162.0</ele>
        <time>2019-05-05T06:32:46.000Z</time>
      </trkpt>
      <trkpt lat="42.84968948364258" lon="-8.523672103881836">
        <ele>162.0</ele>
        <time>2019-05-05T06:32:49.000Z</time>
      </trkpt>
      <trkpt lat="42.84971237182617" lon="-8.523681640625">
        <ele>161.0</ele>
        <time>2019-05-05T06:32:53.000Z</time>
      </trkpt>
      <trkpt lat="42.8497314453125" lon="-8.523687362670898">
        <ele>160.0</ele>
        <time>2019-05-05T06:32:56.000Z</time>
      </trkpt>
      <trkpt lat="42.849761962890625" lon="-8.523701667785645">
        <ele>161.0</ele>
        <time>2019-05-05T06:33:04.000Z</time>
      </trkpt>
      <trkpt lat="42.84978485107422" lon="-8.523714065551758">
        <ele>161.0</ele>
        <time>2019-05-05T06:33:12.000Z</time>
      </trkpt>
      <trkpt lat="42.84981155395508" lon="-8.523725509643555">
        <ele>161.0</ele>
        <time>2019-05-05T06:33:20.000Z</time>
      </trkpt>
      <trkpt lat="42.84983825683594" lon="-8.523736953735352">
        <ele>162.0</ele>
        <time>2019-05-05T06:33:27.000Z</time>
      </trkpt>
      <trkpt lat="42.849853515625" lon="-8.523744583129883">
        <ele>162.0</ele>
        <time>2019-05-05T06:33:28.000Z</time>
      </trkpt>
      <trkpt lat="42.8498649597168" lon="-8.523750305175781">
        <ele>162.0</ele>
        <time>2019-05-05T06:33:28.000Z</time>
      </trkpt>
      <trkpt lat="42.849876403808594" lon="-8.523755073547363">
        <ele>162.0</ele>
        <time>2019-05-05T06:33:28.000Z</time>
      </trkpt>
      <trkpt lat="42.849884033203125" lon="-8.523758888244629">
        <ele>162.0</ele>
        <time>2019-05-05T06:33:28.000Z</time>
      </trkpt>
      <trkpt lat="42.84993362426758" lon="-8.523812294006348">
        <ele>162.0</ele>
        <time>2019-05-05T06:33:33.000Z</time>
      </trkpt>
      <trkpt lat="42.849998474121094" lon="-8.523885726928711">
        <ele>162.0</ele>
        <time>2019-05-05T06:33:38.000Z</time>
      </trkpt>
      <trkpt lat="42.850074768066406" lon="-8.52397346496582">
        <ele>161.0</ele>
        <time>2019-05-05T06:33:43.000Z</time>
      </trkpt>
      <trkpt lat="42.85015869140625" lon="-8.524066925048828">
        <ele>161.0</ele>
        <time>2019-05-05T06:33:47.000Z</time>
      </trkpt>
      <trkpt lat="42.8504524230957" lon="-8.524234771728516">
        <ele>163.0</ele>
        <time>2019-05-05T06:34:16.000Z</time>
      </trkpt>
      <trkpt lat="42.85052490234375" lon="-8.524250984191895">
        <ele>164.0</ele>
        <time>2019-05-05T06:34:31.000Z</time>
      </trkpt>
      <trkpt lat="42.85055923461914" lon="-8.524258613586426">
        <ele>164.0</ele>
        <time>2019-05-05T06:34:32.000Z</time>
      </trkpt>
      <trkpt lat="42.850807189941406" lon="-8.524353981018066">
        <ele>165.0</ele>
        <time>2019-05-05T06:34:50.000Z</time>
      </trkpt>
      <trkpt lat="42.85086441040039" lon="-8.524384498596191">
        <ele>167.0</ele>
        <time>2019-05-05T06:35:06.000Z</time>
      </trkpt>
      <trkpt lat="42.850894927978516" lon="-8.52440071105957">
        <ele>167.0</ele>
        <time>2019-05-05T06:35:07.000Z</time>
      </trkpt>
      <trkpt lat="42.85124206542969" lon="-8.524521827697754">
        <ele>169.0</ele>
        <time>2019-05-05T06:35:31.000Z</time>
      </trkpt>
      <trkpt lat="42.85158157348633" lon="-8.524677276611328">
        <ele>169.0</ele>
        <time>2019-05-05T06:36:01.000Z</time>
      </trkpt>
      <trkpt lat="42.851688385009766" lon="-8.52475643157959">
        <ele>170.0</ele>
        <time>2019-05-05T06:36:13.000Z</time>
      </trkpt>
      <trkpt lat="42.85173034667969" lon="-8.524774551391602">
        <ele>172.0</ele>
        <time>2019-05-05T06:36:31.000Z</time>
      </trkpt>
      <trkpt lat="42.85176086425781" lon="-8.524785995483398">
        <ele>172.0</ele>
        <time>2019-05-05T06:36:32.000Z</time>
      </trkpt>
      <trkpt lat="42.85209655761719" lon="-8.524883270263672">
        <ele>173.0</ele>
        <time>2019-05-05T06:36:53.000Z</time>
      </trkpt>
      <trkpt lat="42.852195739746094" lon="-8.52491569519043">
        <ele>173.0</ele>
        <time>2019-05-05T06:37:03.000Z</time>
      </trkpt>
      <trkpt lat="42.85230255126953" lon="-8.52492904663086">
        <ele>175.0</ele>
        <time>2019-05-05T06:37:29.000Z</time>
      </trkpt>
      <trkpt lat="42.852352142333984" lon="-8.524934768676758">
        <ele>175.0</ele>
        <time>2019-05-05T06:37:30.000Z</time>
      </trkpt>
      <trkpt lat="42.85256576538086" lon="-8.525004386901855">
        <ele>175.0</ele>
        <time>2019-05-05T06:37:38.000Z</time>
      </trkpt>
      <trkpt lat="42.852622985839844" lon="-8.524991035461426">
        <ele>175.0</ele>
        <time>2019-05-05T06:37:43.000Z</time>
      </trkpt>
      <trkpt lat="42.852657318115234" lon="-8.524955749511719">
        <ele>175.0</ele>
        <time>2019-05-05T06:37:47.000Z</time>
      </trkpt>
      <trkpt lat="42.852684020996094" lon="-8.524954795837402">
        <ele>176.0</ele>
        <time>2019-05-05T06:37:56.000Z</time>
      </trkpt>
      <trkpt lat="42.852699279785156" lon="-8.524964332580566">
        <ele>176.0</ele>
        <time>2019-05-05T06:38:05.000Z</time>
      </trkpt>
      <trkpt lat="42.85271072387695" lon="-8.524965286254883">
        <ele>176.0</ele>
        <time>2019-05-05T06:38:06.000Z</time>
      </trkpt>
      <trkpt lat="42.852718353271484" lon="-8.524967193603516">
        <ele>176.0</ele>
        <time>2019-05-05T06:38:06.000Z</time>
      </trkpt>
      <trkpt lat="42.852725982666016" lon="-8.524969100952148">
        <ele>176.0</ele>
        <time>2019-05-05T06:38:06.000Z</time>
      </trkpt>
      <trkpt lat="42.85273361206055" lon="-8.524970054626465">
        <ele>176.0</ele>
        <time>2019-05-05T06:38:06.000Z</time>
      </trkpt>
      <trkpt lat="42.8527946472168" lon="-8.524978637695312">
        <ele>176.0</ele>
        <time>2019-05-05T06:38:08.000Z</time>
      </trkpt>
      <trkpt lat="42.852882385253906" lon="-8.524991035461426">
        <ele>176.0</ele>
        <time>2019-05-05T06:38:10.000Z</time>
      </trkpt>
      <trkpt lat="42.85298156738281" lon="-8.525004386901855">
        <ele>176.0</ele>
        <time>2019-05-05T06:38:12.000Z</time>
      </trkpt>
      <trkpt lat="42.85308837890625" lon="-8.525018692016602">
        <ele>176.0</ele>
        <time>2019-05-05T06:38:13.000Z</time>
      </trkpt>
      <trkpt lat="42.853118896484375" lon="-8.525023460388184">
        <ele>176.0</ele>
        <time>2019-05-05T06:38:14.000Z</time>
      </trkpt>
      <trkpt lat="42.85312271118164" lon="-8.525023460388184">
        <ele>176.0</ele>
        <time>2019-05-05T06:38:15.000Z</time>
      </trkpt>
      <trkpt lat="42.853111267089844" lon="-8.525022506713867">
        <ele>176.0</ele>
        <time>2019-05-05T06:38:16.000Z</time>
      </trkpt>
      <trkpt lat="42.853092193603516" lon="-8.525019645690918">
        <ele>176.0</ele>
        <time>2019-05-05T06:38:16.000Z</time>
      </trkpt>
      <trkpt lat="42.85310363769531" lon="-8.525016784667969">
        <ele>176.0</ele>
        <time>2019-05-05T06:38:25.000Z</time>
      </trkpt>
      <trkpt lat="42.85312271118164" lon="-8.525012016296387">
        <ele>177.0</ele>
        <time>2019-05-05T06:38:33.000Z</time>
      </trkpt>
      <trkpt lat="42.85314178466797" lon="-8.525007247924805">
        <ele>177.0</ele>
        <time>2019-05-05T06:38:41.000Z</time>
      </trkpt>
      <trkpt lat="42.85316467285156" lon="-8.525001525878906">
        <ele>177.0</ele>
        <time>2019-05-05T06:38:49.000Z</time>
      </trkpt>
      <trkpt lat="42.85317611694336" lon="-8.524999618530273">
        <ele>177.0</ele>
        <time>2019-05-05T06:38:50.000Z</time>
      </trkpt>
      <trkpt lat="42.85318374633789" lon="-8.524996757507324">
        <ele>177.0</ele>
        <time>2019-05-05T06:38:50.000Z</time>
      </trkpt>
      <trkpt lat="42.85319137573242" lon="-8.524995803833008">
        <ele>177.0</ele>
        <time>2019-05-05T06:38:50.000Z</time>
      </trkpt>
      <trkpt lat="42.85319519042969" lon="-8.524993896484375">
        <ele>177.0</ele>
        <time>2019-05-05T06:38:50.000Z</time>
      </trkpt>
      <trkpt lat="42.85335159301758" lon="-8.524935722351074">
        <ele>178.0</ele>
        <time>2019-05-05T06:39:03.000Z</time>
      </trkpt>
      <trkpt lat="42.853397369384766" lon="-8.524948120117188">
        <ele>178.0</ele>
        <time>2019-05-05T06:39:09.000Z</time>
      </trkpt>
      <trkpt lat="42.85344696044922" lon="-8.524971961975098">
        <ele>178.0</ele>
        <time>2019-05-05T06:39:14.000Z</time>
      </trkpt>
      <trkpt lat="42.853492736816406" lon="-8.525002479553223">
        <ele>179.0</ele>
        <time>2019-05-05T06:39:20.000Z</time>
      </trkpt>
      <trkpt lat="42.85354232788086" lon="-8.52503776550293">
        <ele>180.0</ele>
        <time>2019-05-05T06:39:25.000Z</time>
      </trkpt>
      <trkpt lat="42.853580474853516" lon="-8.525040626525879">
        <ele>182.0</ele>
        <time>2019-05-05T06:39:36.000Z</time>
      </trkpt>
      <trkpt lat="42.85359191894531" lon="-8.525022506713867">
        <ele>185.0</ele>
        <time>2019-05-05T06:39:46.000Z</time>
      </trkpt>
      <trkpt lat="42.85360336303711" lon="-8.525019645690918">
        <ele>185.0</ele>
        <time>2019-05-05T06:39:47.000Z</time>
      </trkpt>
      <trkpt lat="42.85361099243164" lon="-8.525017738342285">
        <ele>186.0</ele>
        <time>2019-05-05T06:39:47.000Z</time>
      </trkpt>
      <trkpt lat="42.85361862182617" lon="-8.525014877319336">
        <ele>185.0</ele>
        <time>2019-05-05T06:39:47.000Z</time>
      </trkpt>
      <trkpt lat="42.8536262512207" lon="-8.525012969970703">
        <ele>185.0</ele>
        <time>2019-05-05T06:39:47.000Z</time>
      </trkpt>
      <trkpt lat="42.85368728637695" lon="-8.525003433227539">
        <ele>186.0</ele>
        <time>2019-05-05T06:39:54.000Z</time>
      </trkpt>
      <trkpt lat="42.85376739501953" lon="-8.52499008178711">
        <ele>186.0</ele>
        <time>2019-05-05T06:40:00.000Z</time>
      </trkpt>
      <trkpt lat="42.853858947753906" lon="-8.524974822998047">
        <ele>187.0</ele>
        <time>2019-05-05T06:40:06.000Z</time>
      </trkpt>
      <trkpt lat="42.85396194458008" lon="-8.524958610534668">
        <ele>188.0</ele>
        <time>2019-05-05T06:40:12.000Z</time>
      </trkpt>
      <trkpt lat="42.85401153564453" lon="-8.524974822998047">
        <ele>189.0</ele>
        <time>2019-05-05T06:40:18.000Z</time>
      </trkpt>
      <trkpt lat="42.85404968261719" lon="-8.525004386901855">
        <ele>188.0</ele>
        <time>2019-05-05T06:40:24.000Z</time>
      </trkpt>
      <trkpt lat="42.85407638549805" lon="-8.525042533874512">
        <ele>188.0</ele>
        <time>2019-05-05T06:40:30.000Z</time>
      </trkpt>
      <trkpt lat="42.85409927368164" lon="-8.525084495544434">
        <ele>188.0</ele>
        <time>2019-05-05T06:40:35.000Z</time>
      </trkpt>
      <trkpt lat="42.85411834716797" lon="-8.52509880065918">
        <ele>188.0</ele>
        <time>2019-05-05T06:40:36.000Z</time>
      </trkpt>
      <trkpt lat="42.8541259765625" lon="-8.525106430053711">
        <ele>188.0</ele>
        <time>2019-05-05T06:40:36.000Z</time>
      </trkpt>
      <trkpt lat="42.854129791259766" lon="-8.525110244750977">
        <ele>188.0</ele>
        <time>2019-05-05T06:40:36.000Z</time>
      </trkpt>
      <trkpt lat="42.854129791259766" lon="-8.525110244750977">
        <ele>188.0</ele>
        <time>2019-05-05T06:40:36.000Z</time>
      </trkpt>
      <trkpt lat="42.85415267944336" lon="-8.525132179260254">
        <ele>188.0</ele>
        <time>2019-05-05T06:40:39.000Z</time>
      </trkpt>
      <trkpt lat="42.85418701171875" lon="-8.52515983581543">
        <ele>188.0</ele>
        <time>2019-05-05T06:40:41.000Z</time>
      </trkpt>
      <trkpt lat="42.85422134399414" lon="-8.525191307067871">
        <ele>188.0</ele>
        <time>2019-05-05T06:40:44.000Z</time>
      </trkpt>
      <trkpt lat="42.8542594909668" lon="-8.525225639343262">
        <ele>188.0</ele>
        <time>2019-05-05T06:40:46.000Z</time>
      </trkpt>
      <trkpt lat="42.85429382324219" lon="-8.525257110595703">
        <ele>189.0</ele>
        <time>2019-05-05T06:40:53.000Z</time>
      </trkpt>
      <trkpt lat="42.85432434082031" lon="-8.525291442871094">
        <ele>190.0</ele>
        <time>2019-05-05T06:40:59.000Z</time>
      </trkpt>
      <trkpt lat="42.8543586730957" lon="-8.525325775146484">
        <ele>192.0</ele>
        <time>2019-05-05T06:41:05.000Z</time>
      </trkpt>
      <trkpt lat="42.85438919067383" lon="-8.525361061096191">
        <ele>193.0</ele>
        <time>2019-05-05T06:41:11.000Z</time>
      </trkpt>
      <trkpt lat="42.854400634765625" lon="-8.525375366210938">
        <ele>194.0</ele>
        <time>2019-05-05T06:41:12.000Z</time>
      </trkpt>
      <trkpt lat="42.854408264160156" lon="-8.525382041931152">
        <ele>194.0</ele>
        <time>2019-05-05T06:41:12.000Z</time>
      </trkpt>
      <trkpt lat="42.854408264160156" lon="-8.525382995605469">
        <ele>194.0</ele>
        <time>2019-05-05T06:41:12.000Z</time>
      </trkpt>
      <trkpt lat="42.854408264160156" lon="-8.525382041931152">
        <ele>193.0</ele>
        <time>2019-05-05T06:41:12.000Z</time>
      </trkpt>
      <trkpt lat="42.85444641113281" lon="-8.525399208068848">
        <ele>194.0</ele>
        <time>2019-05-05T06:41:20.000Z</time>
      </trkpt>
      <trkpt lat="42.85449981689453" lon="-8.525422096252441">
        <ele>196.0</ele>
        <time>2019-05-05T06:41:28.000Z</time>
      </trkpt>
      <trkpt lat="42.85456085205078" lon="-8.525447845458984">
        <ele>197.0</ele>
        <time>2019-05-05T06:41:36.000Z</time>
      </trkpt>
      <trkpt lat="42.8546257019043" lon="-8.52547550201416">
        <ele>199.0</ele>
        <time>2019-05-05T06:41:43.000Z</time>
      </trkpt>
      <trkpt lat="42.85472869873047" lon="-8.525583267211914">
        <ele>199.0</ele>
        <time>2019-05-05T06:42:01.000Z</time>
      </trkpt>
      <trkpt lat="42.85475540161133" lon="-8.52561092376709">
        <ele>199.0</ele>
        <time>2019-05-05T06:42:02.000Z</time>
      </trkpt>
      <trkpt lat="42.85486602783203" lon="-8.52568244934082">
        <ele>200.0</ele>
        <time>2019-05-05T06:42:09.000Z</time>
      </trkpt>
      <trkpt lat="42.854949951171875" lon="-8.525708198547363">
        <ele>202.0</ele>
        <time>2019-05-05T06:42:33.000Z</time>
      </trkpt>
      <trkpt lat="42.854984283447266" lon="-8.525718688964844">
        <ele>202.0</ele>
        <time>2019-05-05T06:42:34.000Z</time>
      </trkpt>
      <trkpt lat="42.85514831542969" lon="-8.525712966918945">
        <ele>205.0</ele>
        <time>2019-05-05T06:42:59.000Z</time>
      </trkpt>
      <trkpt lat="42.855201721191406" lon="-8.525731086730957">
        <ele>207.0</ele>
        <time>2019-05-05T06:43:23.000Z</time>
      </trkpt>
      <trkpt lat="42.85523986816406" lon="-8.52574348449707">
        <ele>207.0</ele>
        <time>2019-05-05T06:43:24.000Z</time>
      </trkpt>
      <trkpt lat="42.855594635009766" lon="-8.525901794433594">
        <ele>210.0</ele>
        <time>2019-05-05T06:43:40.000Z</time>
      </trkpt>
      <trkpt lat="42.85561752319336" lon="-8.52591323852539">
        <ele>210.0</ele>
        <time>2019-05-05T06:43:43.000Z</time>
      </trkpt>
      <trkpt lat="42.8557243347168" lon="-8.525903701782227">
        <ele>211.0</ele>
        <time>2019-05-05T06:43:49.000Z</time>
      </trkpt>
      <trkpt lat="42.855743408203125" lon="-8.525908470153809">
        <ele>211.0</ele>
        <time>2019-05-05T06:43:50.000Z</time>
      </trkpt>
      <trkpt lat="42.855751037597656" lon="-8.525918960571289">
        <ele>211.0</ele>
        <time>2019-05-05T06:43:51.000Z</time>
      </trkpt>
      <trkpt lat="42.855796813964844" lon="-8.52591323852539">
        <ele>211.0</ele>
        <time>2019-05-05T06:43:57.000Z</time>
      </trkpt>
      <trkpt lat="42.85585403442383" lon="-8.525899887084961">
        <ele>211.0</ele>
        <time>2019-05-05T06:44:02.000Z</time>
      </trkpt>
      <trkpt lat="42.85591506958008" lon="-8.525918006896973">
        <ele>211.0</ele>
        <time>2019-05-05T06:44:06.000Z</time>
      </trkpt>
      <trkpt lat="42.855979919433594" lon="-8.525948524475098">
        <ele>211.0</ele>
        <time>2019-05-05T06:44:10.000Z</time>
      </trkpt>
      <trkpt lat="42.85602951049805" lon="-8.525961875915527">
        <ele>211.0</ele>
        <time>2019-05-05T06:44:16.000Z</time>
      </trkpt>
      <trkpt lat="42.8560905456543" lon="-8.525975227355957">
        <ele>212.0</ele>
        <time>2019-05-05T06:44:22.000Z</time>
      </trkpt>
      <trkpt lat="42.85615539550781" lon="-8.52599048614502">
        <ele>212.0</ele>
        <time>2019-05-05T06:44:28.000Z</time>
      </trkpt>
      <trkpt lat="42.856224060058594" lon="-8.526004791259766">
        <ele>213.0</ele>
        <time>2019-05-05T06:44:34.000Z</time>
      </trkpt>
      <trkpt lat="42.85626220703125" lon="-8.52602481842041">
        <ele>213.0</ele>
        <time>2019-05-05T06:44:37.000Z</time>
      </trkpt>
      <trkpt lat="42.85628890991211" lon="-8.526046752929688">
        <ele>213.0</ele>
        <time>2019-05-05T06:44:39.000Z</time>
      </trkpt>
      <trkpt lat="42.8563117980957" lon="-8.526071548461914">
        <ele>212.0</ele>
        <time>2019-05-05T06:44:41.000Z</time>
      </trkpt>
      <trkpt lat="42.85633087158203" lon="-8.52609634399414">
        <ele>212.0</ele>
        <time>2019-05-05T06:44:43.000Z</time>
      </trkpt>
      <trkpt lat="42.856483459472656" lon="-8.526118278503418">
        <ele>212.0</ele>
        <time>2019-05-05T06:44:56.000Z</time>
      </trkpt>
      <trkpt lat="42.85668182373047" lon="-8.526128768920898">
        <ele>211.0</ele>
        <time>2019-05-05T06:45:08.000Z</time>
      </trkpt>
      <trkpt lat="42.85676574707031" lon="-8.526158332824707">
        <ele>211.0</ele>
        <time>2019-05-05T06:45:16.000Z</time>
      </trkpt>
      <trkpt lat="42.856849670410156" lon="-8.526196479797363">
        <ele>212.0</ele>
        <time>2019-05-05T06:45:23.000Z</time>
      </trkpt>
      <trkpt lat="42.856929779052734" lon="-8.526240348815918">
        <ele>212.0</ele>
        <time>2019-05-05T06:45:31.000Z</time>
      </trkpt>
      <trkpt lat="42.85700988769531" lon="-8.526288032531738">
        <ele>213.0</ele>
        <time>2019-05-05T06:45:38.000Z</time>
      </trkpt>
      <trkpt lat="42.85711669921875" lon="-8.526411056518555">
        <ele>213.0</ele>
        <time>2019-05-05T06:45:53.000Z</time>
      </trkpt>
      <trkpt lat="42.85719680786133" lon="-8.526555061340332">
        <ele>213.0</ele>
        <time>2019-05-05T06:46:08.000Z</time>
      </trkpt>
      <trkpt lat="42.857215881347656" lon="-8.526577949523926">
        <ele>214.0</ele>
        <time>2019-05-05T06:46:16.000Z</time>
      </trkpt>
      <trkpt lat="42.85721969604492" lon="-8.526582717895508">
        <ele>214.0</ele>
        <time>2019-05-05T06:46:23.000Z</time>
      </trkpt>
      <trkpt lat="42.857215881347656" lon="-8.526576042175293">
        <ele>214.0</ele>
        <time>2019-05-05T06:46:30.000Z</time>
      </trkpt>
      <trkpt lat="42.85721206665039" lon="-8.526562690734863">
        <ele>214.0</ele>
        <time>2019-05-05T06:46:37.000Z</time>
      </trkpt>
      <trkpt lat="42.85721206665039" lon="-8.526565551757812">
        <ele>214.0</ele>
        <time>2019-05-05T06:46:38.000Z</time>
      </trkpt>
      <trkpt lat="42.857215881347656" lon="-8.526567459106445">
        <ele>214.0</ele>
        <time>2019-05-05T06:46:38.000Z</time>
      </trkpt>
      <trkpt lat="42.85721969604492" lon="-8.526569366455078">
        <ele>214.0</ele>
        <time>2019-05-05T06:46:38.000Z</time>
      </trkpt>
      <trkpt lat="42.85722351074219" lon="-8.526571273803711">
        <ele>214.0</ele>
        <time>2019-05-05T06:46:38.000Z</time>
      </trkpt>
      <trkpt lat="42.85723876953125" lon="-8.526582717895508">
        <ele>214.0</ele>
        <time>2019-05-05T06:46:39.000Z</time>
      </trkpt>
      <trkpt lat="42.857261657714844" lon="-8.52659797668457">
        <ele>214.0</ele>
        <time>2019-05-05T06:46:39.000Z</time>
      </trkpt>
      <trkpt lat="42.85729217529297" lon="-8.526616096496582">
        <ele>214.0</ele>
        <time>2019-05-05T06:46:40.000Z</time>
      </trkpt>
      <trkpt lat="42.857322692871094" lon="-8.52663516998291">
        <ele>214.0</ele>
        <time>2019-05-05T06:46:40.000Z</time>
      </trkpt>
      <trkpt lat="42.85738754272461" lon="-8.526678085327148">
        <ele>214.0</ele>
        <time>2019-05-05T06:46:43.000Z</time>
      </trkpt>
      <trkpt lat="42.85746765136719" lon="-8.5267333984375">
        <ele>214.0</ele>
        <time>2019-05-05T06:46:46.000Z</time>
      </trkpt>
      <trkpt lat="42.85755920410156" lon="-8.526795387268066">
        <ele>214.0</ele>
        <time>2019-05-05T06:46:49.000Z</time>
      </trkpt>
      <trkpt lat="42.8576545715332" lon="-8.526861190795898">
        <ele>214.0</ele>
        <time>2019-05-05T06:46:52.000Z</time>
      </trkpt>
      <trkpt lat="42.857688903808594" lon="-8.526881217956543">
        <ele>214.0</ele>
        <time>2019-05-05T06:46:54.000Z</time>
      </trkpt>
      <trkpt lat="42.857704162597656" lon="-8.526886940002441">
        <ele>215.0</ele>
        <time>2019-05-05T06:46:55.000Z</time>
      </trkpt>
      <trkpt lat="42.857704162597656" lon="-8.526883125305176">
        <ele>215.0</ele>
        <time>2019-05-05T06:46:57.000Z</time>
      </trkpt>
      <trkpt lat="42.857696533203125" lon="-8.526873588562012">
        <ele>215.0</ele>
        <time>2019-05-05T06:46:58.000Z</time>
      </trkpt>
      <trkpt lat="42.85771179199219" lon="-8.526871681213379">
        <ele>215.0</ele>
        <time>2019-05-05T06:47:09.000Z</time>
      </trkpt>
      <trkpt lat="42.857723236083984" lon="-8.52686595916748">
        <ele>216.0</ele>
        <time>2019-05-05T06:47:20.000Z</time>
      </trkpt>
      <trkpt lat="42.857730865478516" lon="-8.526864051818848">
        <ele>216.0</ele>
        <time>2019-05-05T06:47:21.000Z</time>
      </trkpt>
      <trkpt lat="42.85773468017578" lon="-8.526863098144531">
        <ele>216.0</ele>
        <time>2019-05-05T06:47:21.000Z</time>
      </trkpt>
      <trkpt lat="42.85773849487305" lon="-8.526862144470215">
        <ele>216.0</ele>
        <time>2019-05-05T06:47:21.000Z</time>
      </trkpt>
      <trkpt lat="42.85774230957031" lon="-8.526860237121582">
        <ele>216.0</ele>
        <time>2019-05-05T06:47:21.000Z</time>
      </trkpt>
      <trkpt lat="42.8577880859375" lon="-8.526860237121582">
        <ele>216.0</ele>
        <time>2019-05-05T06:47:24.000Z</time>
      </trkpt>
      <trkpt lat="42.857845306396484" lon="-8.526861190795898">
        <ele>216.0</ele>
        <time>2019-05-05T06:47:27.000Z</time>
      </trkpt>
      <trkpt lat="42.857913970947266" lon="-8.526863098144531">
        <ele>216.0</ele>
        <time>2019-05-05T06:47:30.000Z</time>
      </trkpt>
      <trkpt lat="42.85798645019531" lon="-8.526864051818848">
        <ele>216.0</ele>
        <time>2019-05-05T06:47:33.000Z</time>
      </trkpt>
      <trkpt lat="42.85802459716797" lon="-8.52688217163086">
        <ele>216.0</ele>
        <time>2019-05-05T06:47:42.000Z</time>
      </trkpt>
      <trkpt lat="42.858028411865234" lon="-8.526908874511719">
        <ele>215.0</ele>
        <time>2019-05-05T06:47:51.000Z</time>
      </trkpt>
      <trkpt lat="42.858036041259766" lon="-8.526917457580566">
        <ele>215.0</ele>
        <time>2019-05-05T06:47:52.000Z</time>
      </trkpt>
      <trkpt lat="42.8580436706543" lon="-8.526924133300781">
        <ele>215.0</ele>
        <time>2019-05-05T06:47:52.000Z</time>
      </trkpt>
      <trkpt lat="42.85805130004883" lon="-8.526930809020996">
        <ele>215.0</ele>
        <time>2019-05-05T06:47:52.000Z</time>
      </trkpt>
      <trkpt lat="42.858055114746094" lon="-8.526937484741211">
        <ele>215.0</ele>
        <time>2019-05-05T06:47:52.000Z</time>
      </trkpt>
      <trkpt lat="42.85808181762695" lon="-8.52696704864502">
        <ele>215.0</ele>
        <time>2019-05-05T06:47:54.000Z</time>
      </trkpt>
      <trkpt lat="42.85811233520508" lon="-8.527006149291992">
        <ele>215.0</ele>
        <time>2019-05-05T06:47:56.000Z</time>
      </trkpt>
      <trkpt lat="42.858150482177734" lon="-8.527050971984863">
        <ele>215.0</ele>
        <time>2019-05-05T06:47:58.000Z</time>
      </trkpt>
      <trkpt lat="42.85818862915039" lon="-8.527099609375">
        <ele>215.0</ele>
        <time>2019-05-05T06:47:59.000Z</time>
      </trkpt>
      <trkpt lat="42.85820770263672" lon="-8.527132987976074">
        <ele>215.0</ele>
        <time>2019-05-05T06:48:06.000Z</time>
      </trkpt>
      <trkpt lat="42.858219146728516" lon="-8.527164459228516">
        <ele>216.0</ele>
        <time>2019-05-05T06:48:12.000Z</time>
      </trkpt>
      <trkpt lat="42.85822677612305" lon="-8.527193069458008">
        <ele>217.0</ele>
        <time>2019-05-05T06:48:18.000Z</time>
      </trkpt>
      <trkpt lat="42.85823440551758" lon="-8.5272216796875">
        <ele>217.0</ele>
        <time>2019-05-05T06:48:24.000Z</time>
      </trkpt>
      <trkpt lat="42.85824203491211" lon="-8.527240753173828">
        <ele>217.0</ele>
        <time>2019-05-05T06:48:25.000Z</time>
      </trkpt>
      <trkpt lat="42.858245849609375" lon="-8.52725601196289">
        <ele>218.0</ele>
        <time>2019-05-05T06:48:25.000Z</time>
      </trkpt>
      <trkpt lat="42.85824966430664" lon="-8.527267456054688">
        <ele>217.0</ele>
        <time>2019-05-05T06:48:25.000Z</time>
      </trkpt>
      <trkpt lat="42.858253479003906" lon="-8.527277946472168">
        <ele>217.0</ele>
        <time>2019-05-05T06:48:25.000Z</time>
      </trkpt>
      <trkpt lat="42.85828399658203" lon="-8.527336120605469">
        <ele>218.0</ele>
        <time>2019-05-05T06:48:30.000Z</time>
      </trkpt>
      <trkpt lat="42.85832595825195" lon="-8.527413368225098">
        <ele>218.0</ele>
        <time>2019-05-05T06:48:35.000Z</time>
      </trkpt>
      <trkpt lat="42.858375549316406" lon="-8.527502059936523">
        <ele>219.0</ele>
        <time>2019-05-05T06:48:40.000Z</time>
      </trkpt>
      <trkpt lat="42.85842514038086" lon="-8.52759838104248">
        <ele>220.0</ele>
        <time>2019-05-05T06:48:45.000Z</time>
      </trkpt>
      <trkpt lat="42.85843276977539" lon="-8.527609825134277">
        <ele>220.0</ele>
        <time>2019-05-05T06:48:50.000Z</time>
      </trkpt>
      <trkpt lat="42.85844421386719" lon="-8.527616500854492">
        <ele>221.0</ele>
        <time>2019-05-05T06:49:08.000Z</time>
      </trkpt>
      <trkpt lat="42.85845947265625" lon="-8.52762222290039">
        <ele>221.0</ele>
        <time>2019-05-05T06:49:25.000Z</time>
      </trkpt>
      <trkpt lat="42.85846710205078" lon="-8.52762508392334">
        <ele>221.0</ele>
        <time>2019-05-05T06:49:26.000Z</time>
      </trkpt>
      <trkpt lat="42.85847473144531" lon="-8.527627944946289">
        <ele>221.0</ele>
        <time>2019-05-05T06:49:26.000Z</time>
      </trkpt>
      <trkpt lat="42.85847854614258" lon="-8.527629852294922">
        <ele>221.0</ele>
        <time>2019-05-05T06:49:26.000Z</time>
      </trkpt>
      <trkpt lat="42.858482360839844" lon="-8.527632713317871">
        <ele>221.0</ele>
        <time>2019-05-05T06:49:26.000Z</time>
      </trkpt>
      <trkpt lat="42.85853958129883" lon="-8.527666091918945">
        <ele>221.0</ele>
        <time>2019-05-05T06:49:31.000Z</time>
      </trkpt>
      <trkpt lat="42.85861587524414" lon="-8.52771282196045">
        <ele>220.0</ele>
        <time>2019-05-05T06:49:35.000Z</time>
      </trkpt>
      <trkpt lat="42.858707427978516" lon="-8.527767181396484">
        <ele>220.0</ele>
        <time>2019-05-05T06:49:39.000Z</time>
      </trkpt>
      <trkpt lat="42.85880661010742" lon="-8.527827262878418">
        <ele>219.0</ele>
        <time>2019-05-05T06:49:43.000Z</time>
      </trkpt>
      <trkpt lat="42.85886764526367" lon="-8.527877807617188">
        <ele>219.0</ele>
        <time>2019-05-05T06:49:49.000Z</time>
      </trkpt>
      <trkpt lat="42.858917236328125" lon="-8.52793025970459">
        <ele>218.0</ele>
        <time>2019-05-05T06:49:55.000Z</time>
      </trkpt>
      <trkpt lat="42.85895919799805" lon="-8.527982711791992">
        <ele>218.0</ele>
        <time>2019-05-05T06:50:01.000Z</time>
      </trkpt>
      <trkpt lat="42.85900115966797" lon="-8.528036117553711">
        <ele>218.0</ele>
        <time>2019-05-05T06:50:06.000Z</time>
      </trkpt>
      <trkpt lat="42.85903549194336" lon="-8.528111457824707">
        <ele>217.0</ele>
        <time>2019-05-05T06:50:16.000Z</time>
      </trkpt>
      <trkpt lat="42.85904312133789" lon="-8.528173446655273">
        <ele>218.0</ele>
        <time>2019-05-05T06:50:26.000Z</time>
      </trkpt>
      <trkpt lat="42.859046936035156" lon="-8.528192520141602">
        <ele>218.0</ele>
        <time>2019-05-05T06:50:26.000Z</time>
      </trkpt>
      <trkpt lat="42.85905075073242" lon="-8.528203964233398">
        <ele>218.0</ele>
        <time>2019-05-05T06:50:26.000Z</time>
      </trkpt>
      <trkpt lat="42.85905456542969" lon="-8.52821159362793">
        <ele>218.0</ele>
        <time>2019-05-05T06:50:27.000Z</time>
      </trkpt>
      <trkpt lat="42.85905456542969" lon="-8.528216361999512">
        <ele>218.0</ele>
        <time>2019-05-05T06:50:27.000Z</time>
      </trkpt>
      <trkpt lat="42.85906219482422" lon="-8.528254508972168">
        <ele>218.0</ele>
        <time>2019-05-05T06:50:29.000Z</time>
      </trkpt>
      <trkpt lat="42.85906982421875" lon="-8.528305053710938">
        <ele>218.0</ele>
        <time>2019-05-05T06:50:31.000Z</time>
      </trkpt>
      <trkpt lat="42.85907745361328" lon="-8.528362274169922">
        <ele>218.0</ele>
        <time>2019-05-05T06:50:34.000Z</time>
      </trkpt>
      <trkpt lat="42.85908508300781" lon="-8.528424263000488">
        <ele>218.0</ele>
        <time>2019-05-05T06:50:36.000Z</time>
      </trkpt>
      <trkpt lat="42.859066009521484" lon="-8.52845573425293">
        <ele>218.0</ele>
        <time>2019-05-05T06:50:38.000Z</time>
      </trkpt>
      <trkpt lat="42.859039306640625" lon="-8.528478622436523">
        <ele>218.0</ele>
        <time>2019-05-05T06:50:39.000Z</time>
      </trkpt>
      <trkpt lat="42.85900115966797" lon="-8.528495788574219">
        <ele>218.0</ele>
        <time>2019-05-05T06:50:41.000Z</time>
      </trkpt>
      <trkpt lat="42.85896301269531" lon="-8.528511047363281">
        <ele>217.0</ele>
        <time>2019-05-05T06:50:43.000Z</time>
      </trkpt>
      <trkpt lat="42.85895538330078" lon="-8.528519630432129">
        <ele>218.0</ele>
        <time>2019-05-05T06:50:46.000Z</time>
      </trkpt>
      <trkpt lat="42.85895538330078" lon="-8.528523445129395">
        <ele>218.0</ele>
        <time>2019-05-05T06:50:49.000Z</time>
      </trkpt>
      <trkpt lat="42.85896301269531" lon="-8.528523445129395">
        <ele>219.0</ele>
        <time>2019-05-05T06:50:53.000Z</time>
      </trkpt>
      <trkpt lat="42.85897445678711" lon="-8.528522491455078">
        <ele>220.0</ele>
        <time>2019-05-05T06:50:56.000Z</time>
      </trkpt>
      <trkpt lat="42.858978271484375" lon="-8.528524398803711">
        <ele>220.0</ele>
        <time>2019-05-05T06:50:56.000Z</time>
      </trkpt>
      <trkpt lat="42.85898208618164" lon="-8.52852725982666">
        <ele>220.0</ele>
        <time>2019-05-05T06:50:56.000Z</time>
      </trkpt>
      <trkpt lat="42.858985900878906" lon="-8.528529167175293">
        <ele>220.0</ele>
        <time>2019-05-05T06:50:57.000Z</time>
      </trkpt>
      <trkpt lat="42.858985900878906" lon="-8.528531074523926">
        <ele>220.0</ele>
        <time>2019-05-05T06:50:57.000Z</time>
      </trkpt>
      <trkpt lat="42.859004974365234" lon="-8.528548240661621">
        <ele>220.0</ele>
        <time>2019-05-05T06:50:58.000Z</time>
      </trkpt>
      <trkpt lat="42.85902786254883" lon="-8.528570175170898">
        <ele>220.0</ele>
        <time>2019-05-05T06:50:59.000Z</time>
      </trkpt>
      <trkpt lat="42.85905075073242" lon="-8.528596878051758">
        <ele>220.0</ele>
        <time>2019-05-05T06:51:01.000Z</time>
      </trkpt>
      <trkpt lat="42.85908126831055" lon="-8.52862548828125">
        <ele>221.0</ele>
        <time>2019-05-05T06:51:02.000Z</time>
      </trkpt>
      <trkpt lat="42.859107971191406" lon="-8.528650283813477">
        <ele>222.0</ele>
        <time>2019-05-05T06:51:22.000Z</time>
      </trkpt>
      <trkpt lat="42.85913848876953" lon="-8.52867603302002">
        <ele>224.0</ele>
        <time>2019-05-05T06:51:42.000Z</time>
      </trkpt>
      <trkpt lat="42.85917282104492" lon="-8.528702735900879">
        <ele>226.0</ele>
        <time>2019-05-05T06:52:02.000Z</time>
      </trkpt>
      <trkpt lat="42.85920715332031" lon="-8.528729438781738">
        <ele>228.0</ele>
        <time>2019-05-05T06:52:22.000Z</time>
      </trkpt>
      <trkpt lat="42.85922622680664" lon="-8.5287446975708">
        <ele>229.0</ele>
        <time>2019-05-05T06:52:22.000Z</time>
      </trkpt>
      <trkpt lat="42.85923767089844" lon="-8.528755187988281">
        <ele>229.0</ele>
        <time>2019-05-05T06:52:23.000Z</time>
      </trkpt>
      <trkpt lat="42.85924530029297" lon="-8.528762817382812">
        <ele>228.0</ele>
        <time>2019-05-05T06:52:23.000Z</time>
      </trkpt>
      <trkpt lat="42.8592529296875" lon="-8.528769493103027">
        <ele>228.0</ele>
        <time>2019-05-05T06:52:23.000Z</time>
      </trkpt>
      <trkpt lat="42.85926055908203" lon="-8.528773307800293">
        <ele>228.0</ele>
        <time>2019-05-05T06:52:23.000Z</time>
      </trkpt>
      <trkpt lat="42.85926055908203" lon="-8.52877426147461">
        <ele>228.0</ele>
        <time>2019-05-05T06:52:24.000Z</time>
      </trkpt>
      <trkpt lat="42.85926055908203" lon="-8.528773307800293">
        <ele>228.0</ele>
        <time>2019-05-05T06:52:24.000Z</time>
      </trkpt>
      <trkpt lat="42.859256744384766" lon="-8.52877140045166">
        <ele>228.0</ele>
        <time>2019-05-05T06:52:24.000Z</time>
      </trkpt>
      <trkpt lat="42.859310150146484" lon="-8.52880859375">
        <ele>229.0</ele>
        <time>2019-05-05T06:52:29.000Z</time>
      </trkpt>
      <trkpt lat="42.85934066772461" lon="-8.528830528259277">
        <ele>229.0</ele>
        <time>2019-05-05T06:52:30.000Z</time>
      </trkpt>
      <trkpt lat="42.8594856262207" lon="-8.528911590576172">
        <ele>230.0</ele>
        <time>2019-05-05T06:52:36.000Z</time>
      </trkpt>
      <trkpt lat="42.85951232910156" lon="-8.528912544250488">
        <ele>230.0</ele>
        <time>2019-05-05T06:53:06.000Z</time>
      </trkpt>
      <trkpt lat="42.85951614379883" lon="-8.528894424438477">
        <ele>230.0</ele>
        <time>2019-05-05T06:53:35.000Z</time>
      </trkpt>
      <trkpt lat="42.85952377319336" lon="-8.528891563415527">
        <ele>230.0</ele>
        <time>2019-05-05T06:53:35.000Z</time>
      </trkpt>
      <trkpt lat="42.859527587890625" lon="-8.528887748718262">
        <ele>230.0</ele>
        <time>2019-05-05T06:53:36.000Z</time>
      </trkpt>
      <trkpt lat="42.85953140258789" lon="-8.528884887695312">
        <ele>230.0</ele>
        <time>2019-05-05T06:53:36.000Z</time>
      </trkpt>
      <trkpt lat="42.85953903198242" lon="-8.528882026672363">
        <ele>230.0</ele>
        <time>2019-05-05T06:53:36.000Z</time>
      </trkpt>
      <trkpt lat="42.85957336425781" lon="-8.528846740722656">
        <ele>230.0</ele>
        <time>2019-05-05T06:53:40.000Z</time>
      </trkpt>
      <trkpt lat="42.859615325927734" lon="-8.52879810333252">
        <ele>229.0</ele>
        <time>2019-05-05T06:53:45.000Z</time>
      </trkpt>
      <trkpt lat="42.85966873168945" lon="-8.528739929199219">
        <ele>229.0</ele>
        <time>2019-05-05T06:53:49.000Z</time>
      </trkpt>
      <trkpt lat="42.85972595214844" lon="-8.528677940368652">
        <ele>228.0</ele>
        <time>2019-05-05T06:53:53.000Z</time>
      </trkpt>
      <trkpt lat="42.859764099121094" lon="-8.528592109680176">
        <ele>228.0</ele>
        <time>2019-05-05T06:53:58.000Z</time>
      </trkpt>
      <trkpt lat="42.859779357910156" lon="-8.52851390838623">
        <ele>228.0</ele>
        <time>2019-05-05T06:54:03.000Z</time>
      </trkpt>
      <trkpt lat="42.859798431396484" lon="-8.528491020202637">
        <ele>228.0</ele>
        <time>2019-05-05T06:54:07.000Z</time>
      </trkpt>
      <trkpt lat="42.85981369018555" lon="-8.528494834899902">
        <ele>228.0</ele>
        <time>2019-05-05T06:54:11.000Z</time>
      </trkpt>
      <trkpt lat="42.85982894897461" lon="-8.528495788574219">
        <ele>227.0</ele>
        <time>2019-05-05T06:54:18.000Z</time>
      </trkpt>
      <trkpt lat="42.859840393066406" lon="-8.528501510620117">
        <ele>226.0</ele>
        <time>2019-05-05T06:54:25.000Z</time>
      </trkpt>
      <trkpt lat="42.85984802246094" lon="-8.528502464294434">
        <ele>226.0</ele>
        <time>2019-05-05T06:54:25.000Z</time>
      </trkpt>
      <trkpt lat="42.8598518371582" lon="-8.52850341796875">
        <ele>226.0</ele>
        <time>2019-05-05T06:54:26.000Z</time>
      </trkpt>
      <trkpt lat="42.859859466552734" lon="-8.528505325317383">
        <ele>226.0</ele>
        <time>2019-05-05T06:54:26.000Z</time>
      </trkpt>
      <trkpt lat="42.85986328125" lon="-8.5285062789917">
        <ele>226.0</ele>
        <time>2019-05-05T06:54:26.000Z</time>
      </trkpt>
      <trkpt lat="42.85992431640625" lon="-8.528509140014648">
        <ele>226.0</ele>
        <time>2019-05-05T06:54:31.000Z</time>
      </trkpt>
      <trkpt lat="42.860008239746094" lon="-8.52851390838623">
        <ele>225.0</ele>
        <time>2019-05-05T06:54:36.000Z</time>
      </trkpt>
      <trkpt lat="42.860107421875" lon="-8.528518676757812">
        <ele>225.0</ele>
        <time>2019-05-05T06:54:41.000Z</time>
      </trkpt>
      <trkpt lat="42.86021041870117" lon="-8.528524398803711">
        <ele>225.0</ele>
        <time>2019-05-05T06:54:46.000Z</time>
      </trkpt>
      <trkpt lat="42.86030197143555" lon="-8.528532028198242">
        <ele>224.0</ele>
        <time>2019-05-05T06:54:53.000Z</time>
      </trkpt>
      <trkpt lat="42.860389709472656" lon="-8.528541564941406">
        <ele>224.0</ele>
        <time>2019-05-05T06:55:00.000Z</time>
      </trkpt>
      <trkpt lat="42.860477447509766" lon="-8.52855110168457">
        <ele>223.0</ele>
        <time>2019-05-05T06:55:07.000Z</time>
      </trkpt>
      <trkpt lat="42.86056900024414" lon="-8.52856159210205">
        <ele>223.0</ele>
        <time>2019-05-05T06:55:14.000Z</time>
      </trkpt>
      <trkpt lat="42.86064529418945" lon="-8.528564453125">
        <ele>223.0</ele>
        <time>2019-05-05T06:55:21.000Z</time>
      </trkpt>
      <trkpt lat="42.8607177734375" lon="-8.528565406799316">
        <ele>223.0</ele>
        <time>2019-05-05T06:55:28.000Z</time>
      </trkpt>
      <trkpt lat="42.86078643798828" lon="-8.528564453125">
        <ele>223.0</ele>
        <time>2019-05-05T06:55:35.000Z</time>
      </trkpt>
      <trkpt lat="42.8608512878418" lon="-8.528562545776367">
        <ele>223.0</ele>
        <time>2019-05-05T06:55:42.000Z</time>
      </trkpt>
      <trkpt lat="42.86088180541992" lon="-8.528562545776367">
        <ele>223.0</ele>
        <time>2019-05-05T06:55:46.000Z</time>
      </trkpt>
      <trkpt lat="42.860897064208984" lon="-8.52856159210205">
        <ele>223.0</ele>
        <time>2019-05-05T06:55:50.000Z</time>
      </trkpt>
      <trkpt lat="42.86090087890625" lon="-8.52856159210205">
        <ele>223.0</ele>
        <time>2019-05-05T06:55:54.000Z</time>
      </trkpt>
      <trkpt lat="42.860897064208984" lon="-8.528560638427734">
        <ele>223.0</ele>
        <time>2019-05-05T06:55:58.000Z</time>
      </trkpt>
      <trkpt lat="42.860923767089844" lon="-8.528560638427734">
        <ele>223.0</ele>
        <time>2019-05-05T06:55:59.000Z</time>
      </trkpt>
      <trkpt lat="42.86114501953125" lon="-8.52861213684082">
        <ele>223.0</ele>
        <time>2019-05-05T06:56:09.000Z</time>
      </trkpt>
      <trkpt lat="42.861183166503906" lon="-8.528603553771973">
        <ele>222.0</ele>
        <time>2019-05-05T06:56:26.000Z</time>
      </trkpt>
      <trkpt lat="42.8612060546875" lon="-8.528597831726074">
        <ele>222.0</ele>
        <time>2019-05-05T06:56:27.000Z</time>
      </trkpt>
      <trkpt lat="42.86154556274414" lon="-8.528453826904297">
        <ele>224.0</ele>
        <time>2019-05-05T06:56:45.000Z</time>
      </trkpt>
      <trkpt lat="42.861759185791016" lon="-8.528433799743652">
        <ele>225.0</ele>
        <time>2019-05-05T06:57:03.000Z</time>
      </trkpt>
      <trkpt lat="42.86181640625" lon="-8.528424263000488">
        <ele>225.0</ele>
        <time>2019-05-05T06:57:15.000Z</time>
      </trkpt>
      <trkpt lat="42.861846923828125" lon="-8.528419494628906">
        <ele>225.0</ele>
        <time>2019-05-05T06:57:16.000Z</time>
      </trkpt>
      <trkpt lat="42.86203384399414" lon="-8.528374671936035">
        <ele>225.0</ele>
        <time>2019-05-05T06:57:25.000Z</time>
      </trkpt>
      <trkpt lat="42.862117767333984" lon="-8.52837085723877">
        <ele>226.0</ele>
        <time>2019-05-05T06:57:51.000Z</time>
      </trkpt>
      <trkpt lat="42.86216354370117" lon="-8.528368949890137">
        <ele>226.0</ele>
        <time>2019-05-05T06:57:52.000Z</time>
      </trkpt>
      <trkpt lat="42.86239242553711" lon="-8.528345108032227">
        <ele>227.0</ele>
        <time>2019-05-05T06:58:01.000Z</time>
      </trkpt>
      <trkpt lat="42.86245346069336" lon="-8.528376579284668">
        <ele>230.0</ele>
        <time>2019-05-05T06:58:15.000Z</time>
      </trkpt>
      <trkpt lat="42.86248779296875" lon="-8.52839469909668">
        <ele>230.0</ele>
        <time>2019-05-05T06:58:16.000Z</time>
      </trkpt>
      <trkpt lat="42.86270523071289" lon="-8.528467178344727">
        <ele>231.0</ele>
        <time>2019-05-05T06:58:28.000Z</time>
      </trkpt>
      <trkpt lat="42.86277389526367" lon="-8.528474807739258">
        <ele>232.0</ele>
        <time>2019-05-05T06:58:40.000Z</time>
      </trkpt>
      <trkpt lat="42.86280822753906" lon="-8.52847957611084">
        <ele>232.0</ele>
        <time>2019-05-05T06:58:41.000Z</time>
      </trkpt>
      <trkpt lat="42.862972259521484" lon="-8.528517723083496">
        <ele>232.0</ele>
        <time>2019-05-05T06:58:50.000Z</time>
      </trkpt>
      <trkpt lat="42.86304473876953" lon="-8.528529167175293">
        <ele>234.0</ele>
        <time>2019-05-05T06:59:13.000Z</time>
      </trkpt>
      <trkpt lat="42.86307907104492" lon="-8.528534889221191">
        <ele>234.0</ele>
        <time>2019-05-05T06:59:14.000Z</time>
      </trkpt>
      <trkpt lat="42.86310577392578" lon="-8.528536796569824">
        <ele>234.0</ele>
        <time>2019-05-05T06:59:16.000Z</time>
      </trkpt>
      <trkpt lat="42.863128662109375" lon="-8.528541564941406">
        <ele>235.0</ele>
        <time>2019-05-05T06:59:26.000Z</time>
      </trkpt>
      <trkpt lat="42.8631477355957" lon="-8.528544425964355">
        <ele>235.0</ele>
        <time>2019-05-05T06:59:27.000Z</time>
      </trkpt>
      <trkpt lat="42.86348342895508" lon="-8.528643608093262">
        <ele>236.0</ele>
        <time>2019-05-05T06:59:41.000Z</time>
      </trkpt>
      <trkpt lat="42.86362838745117" lon="-8.528716087341309">
        <ele>238.0</ele>
        <time>2019-05-05T06:59:53.000Z</time>
      </trkpt>
      <trkpt lat="42.86366271972656" lon="-8.528715133666992">
        <ele>242.0</ele>
        <time>2019-05-05T07:00:17.000Z</time>
      </trkpt>
      <trkpt lat="42.86368942260742" lon="-8.528714179992676">
        <ele>242.0</ele>
        <time>2019-05-05T07:00:18.000Z</time>
      </trkpt>
      <trkpt lat="42.86404800415039" lon="-8.52878475189209">
        <ele>247.0</ele>
        <time>2019-05-05T07:00:38.000Z</time>
      </trkpt>
      <trkpt lat="42.864070892333984" lon="-8.52878189086914">
        <ele>247.0</ele>
        <time>2019-05-05T07:00:42.000Z</time>
      </trkpt>
      <trkpt lat="42.86408233642578" lon="-8.528786659240723">
        <ele>248.0</ele>
        <time>2019-05-05T07:00:51.000Z</time>
      </trkpt>
      <trkpt lat="42.86409378051758" lon="-8.528793334960938">
        <ele>250.0</ele>
        <time>2019-05-05T07:01:01.000Z</time>
      </trkpt>
      <trkpt lat="42.864097595214844" lon="-8.528796195983887">
        <ele>250.0</ele>
        <time>2019-05-05T07:01:01.000Z</time>
      </trkpt>
      <trkpt lat="42.86410140991211" lon="-8.52879810333252">
        <ele>250.0</ele>
        <time>2019-05-05T07:01:01.000Z</time>
      </trkpt>
      <trkpt lat="42.86410903930664" lon="-8.528800010681152">
        <ele>250.0</ele>
        <time>2019-05-05T07:01:02.000Z</time>
      </trkpt>
      <trkpt lat="42.864112854003906" lon="-8.528802871704102">
        <ele>250.0</ele>
        <time>2019-05-05T07:01:02.000Z</time>
      </trkpt>
      <trkpt lat="42.86418151855469" lon="-8.52881145477295">
        <ele>250.0</ele>
        <time>2019-05-05T07:01:06.000Z</time>
      </trkpt>
      <trkpt lat="42.86427307128906" lon="-8.528822898864746">
        <ele>251.0</ele>
        <time>2019-05-05T07:01:11.000Z</time>
      </trkpt>
      <trkpt lat="42.86438751220703" lon="-8.528836250305176">
        <ele>251.0</ele>
        <time>2019-05-05T07:01:15.000Z</time>
      </trkpt>
      <trkpt lat="42.86450958251953" lon="-8.528849601745605">
        <ele>252.0</ele>
        <time>2019-05-05T07:01:20.000Z</time>
      </trkpt>
      <trkpt lat="42.864585876464844" lon="-8.5288724899292">
        <ele>252.0</ele>
        <time>2019-05-05T07:01:27.000Z</time>
      </trkpt>
      <trkpt lat="42.86465072631836" lon="-8.528898239135742">
        <ele>253.0</ele>
        <time>2019-05-05T07:01:33.000Z</time>
      </trkpt>
      <trkpt lat="42.864707946777344" lon="-8.52892780303955">
        <ele>253.0</ele>
        <time>2019-05-05T07:01:40.000Z</time>
      </trkpt>
      <trkpt lat="42.86476135253906" lon="-8.528958320617676">
        <ele>254.0</ele>
        <time>2019-05-05T07:01:47.000Z</time>
      </trkpt>
      <trkpt lat="42.86479187011719" lon="-8.528969764709473">
        <ele>254.0</ele>
        <time>2019-05-05T07:01:51.000Z</time>
      </trkpt>
      <trkpt lat="42.864803314208984" lon="-8.528973579406738">
        <ele>255.0</ele>
        <time>2019-05-05T07:01:56.000Z</time>
      </trkpt>
      <trkpt lat="42.864803314208984" lon="-8.528972625732422">
        <ele>255.0</ele>
        <time>2019-05-05T07:02:00.000Z</time>
      </trkpt>
      <trkpt lat="42.86479949951172" lon="-8.528968811035156">
        <ele>256.0</ele>
        <time>2019-05-05T07:02:05.000Z</time>
      </trkpt>
      <trkpt lat="42.86480712890625" lon="-8.528971672058105">
        <ele>256.0</ele>
        <time>2019-05-05T07:02:05.000Z</time>
      </trkpt>
      <trkpt lat="42.86481475830078" lon="-8.528973579406738">
        <ele>256.0</ele>
        <time>2019-05-05T07:02:05.000Z</time>
      </trkpt>
      <trkpt lat="42.86481857299805" lon="-8.528974533081055">
        <ele>256.0</ele>
        <time>2019-05-05T07:02:06.000Z</time>
      </trkpt>
      <trkpt lat="42.86482620239258" lon="-8.528976440429688">
        <ele>256.0</ele>
        <time>2019-05-05T07:02:06.000Z</time>
      </trkpt>
      <trkpt lat="42.86521911621094" lon="-8.529106140136719">
        <ele>258.0</ele>
        <time>2019-05-05T07:02:27.000Z</time>
      </trkpt>
      <trkpt lat="42.86549758911133" lon="-8.529208183288574">
        <ele>260.0</ele>
        <time>2019-05-05T07:02:56.000Z</time>
      </trkpt>
      <trkpt lat="42.86561965942383" lon="-8.529356002807617">
        <ele>262.0</ele>
        <time>2019-05-05T07:03:11.000Z</time>
      </trkpt>
      <trkpt lat="42.8657341003418" lon="-8.529549598693848">
        <ele>264.0</ele>
        <time>2019-05-05T07:03:25.000Z</time>
      </trkpt>
      <trkpt lat="42.86579132080078" lon="-8.529605865478516">
        <ele>264.0</ele>
        <time>2019-05-05T07:03:30.000Z</time>
      </trkpt>
      <trkpt lat="42.8658447265625" lon="-8.529650688171387">
        <ele>265.0</ele>
        <time>2019-05-05T07:03:35.000Z</time>
      </trkpt>
      <trkpt lat="42.865901947021484" lon="-8.52968692779541">
        <ele>266.0</ele>
        <time>2019-05-05T07:03:40.000Z</time>
      </trkpt>
      <trkpt lat="42.86595916748047" lon="-8.529719352722168">
        <ele>266.0</ele>
        <time>2019-05-05T07:03:44.000Z</time>
      </trkpt>
      <trkpt lat="42.86599349975586" lon="-8.5297269821167">
        <ele>266.0</ele>
        <time>2019-05-05T07:03:47.000Z</time>
      </trkpt>
      <trkpt lat="42.866024017333984" lon="-8.529720306396484">
        <ele>266.0</ele>
        <time>2019-05-05T07:03:49.000Z</time>
      </trkpt>
      <trkpt lat="42.86604690551758" lon="-8.529703140258789">
        <ele>266.0</ele>
        <time>2019-05-05T07:03:52.000Z</time>
      </trkpt>
      <trkpt lat="42.866065979003906" lon="-8.529681205749512">
        <ele>266.0</ele>
        <time>2019-05-05T07:03:54.000Z</time>
      </trkpt>
      <trkpt lat="42.866092681884766" lon="-8.529669761657715">
        <ele>266.0</ele>
        <time>2019-05-05T07:03:57.000Z</time>
      </trkpt>
      <trkpt lat="42.86612319946289" lon="-8.529657363891602">
        <ele>266.0</ele>
        <time>2019-05-05T07:04:00.000Z</time>
      </trkpt>
      <trkpt lat="42.86614990234375" lon="-8.529644012451172">
        <ele>266.0</ele>
        <time>2019-05-05T07:04:03.000Z</time>
      </trkpt>
      <trkpt lat="42.86617660522461" lon="-8.529631614685059">
        <ele>266.0</ele>
        <time>2019-05-05T07:04:06.000Z</time>
      </trkpt>
      <trkpt lat="42.86620330810547" lon="-8.529629707336426">
        <ele>267.0</ele>
        <time>2019-05-05T07:04:14.000Z</time>
      </trkpt>
      <trkpt lat="42.86621856689453" lon="-8.52963924407959">
        <ele>267.0</ele>
        <time>2019-05-05T07:04:21.000Z</time>
      </trkpt>
      <trkpt lat="42.86623001098633" lon="-8.529640197753906">
        <ele>267.0</ele>
        <time>2019-05-05T07:04:22.000Z</time>
      </trkpt>
      <trkpt lat="42.866233825683594" lon="-8.529642105102539">
        <ele>267.0</ele>
        <time>2019-05-05T07:04:22.000Z</time>
      </trkpt>
      <trkpt lat="42.866241455078125" lon="-8.529643058776855">
        <ele>267.0</ele>
        <time>2019-05-05T07:04:22.000Z</time>
      </trkpt>
      <trkpt lat="42.866249084472656" lon="-8.529644012451172">
        <ele>267.0</ele>
        <time>2019-05-05T07:04:22.000Z</time>
      </trkpt>
      <trkpt lat="42.86630630493164" lon="-8.52966594696045">
        <ele>267.0</ele>
        <time>2019-05-05T07:04:28.000Z</time>
      </trkpt>
      <trkpt lat="42.866390228271484" lon="-8.529696464538574">
        <ele>267.0</ele>
        <time>2019-05-05T07:04:34.000Z</time>
      </trkpt>
      <trkpt lat="42.866485595703125" lon="-8.529732704162598">
        <ele>266.0</ele>
        <time>2019-05-05T07:04:40.000Z</time>
      </trkpt>
      <trkpt lat="42.8665885925293" lon="-8.529770851135254">
        <ele>266.0</ele>
        <time>2019-05-05T07:04:45.000Z</time>
      </trkpt>
      <trkpt lat="42.86664581298828" lon="-8.529789924621582">
        <ele>266.0</ele>
        <time>2019-05-05T07:04:55.000Z</time>
      </trkpt>
      <trkpt lat="42.86669158935547" lon="-8.529802322387695">
        <ele>266.0</ele>
        <time>2019-05-05T07:05:05.000Z</time>
      </trkpt>
      <trkpt lat="42.866729736328125" lon="-8.529810905456543">
        <ele>266.0</ele>
        <time>2019-05-05T07:05:15.000Z</time>
      </trkpt>
      <trkpt lat="42.86676025390625" lon="-8.529817581176758">
        <ele>266.0</ele>
        <time>2019-05-05T07:05:24.000Z</time>
      </trkpt>
      <trkpt lat="42.866817474365234" lon="-8.529874801635742">
        <ele>267.0</ele>
        <time>2019-05-05T07:05:44.000Z</time>
      </trkpt>
      <trkpt lat="42.866859436035156" lon="-8.529948234558105">
        <ele>269.0</ele>
        <time>2019-05-05T07:06:04.000Z</time>
      </trkpt>
      <trkpt lat="42.86687088012695" lon="-8.529964447021484">
        <ele>269.0</ele>
        <time>2019-05-05T07:06:05.000Z</time>
      </trkpt>
      <trkpt lat="42.866878509521484" lon="-8.529973983764648">
        <ele>269.0</ele>
        <time>2019-05-05T07:06:05.000Z</time>
      </trkpt>
      <trkpt lat="42.86688232421875" lon="-8.529977798461914">
        <ele>269.0</ele>
        <time>2019-05-05T07:06:05.000Z</time>
      </trkpt>
      <trkpt lat="42.866886138916016" lon="-8.529979705810547">
        <ele>269.0</ele>
        <time>2019-05-05T07:06:05.000Z</time>
      </trkpt>
      <trkpt lat="42.86690139770508" lon="-8.530022621154785">
        <ele>269.0</ele>
        <time>2019-05-05T07:06:07.000Z</time>
      </trkpt>
      <trkpt lat="42.86692428588867" lon="-8.53007984161377">
        <ele>270.0</ele>
        <time>2019-05-05T07:06:09.000Z</time>
      </trkpt>
      <trkpt lat="42.866947174072266" lon="-8.530146598815918">
        <ele>270.0</ele>
        <time>2019-05-05T07:06:11.000Z</time>
      </trkpt>
      <trkpt lat="42.866973876953125" lon="-8.530218124389648">
        <ele>271.0</ele>
        <time>2019-05-05T07:06:12.000Z</time>
      </trkpt>
      <trkpt lat="42.86700439453125" lon="-8.530226707458496">
        <ele>272.0</ele>
        <time>2019-05-05T07:06:15.000Z</time>
      </trkpt>
      <trkpt lat="42.867034912109375" lon="-8.530214309692383">
        <ele>273.0</ele>
        <time>2019-05-05T07:06:17.000Z</time>
      </trkpt>
      <trkpt lat="42.867069244384766" lon="-8.530187606811523">
        <ele>274.0</ele>
        <time>2019-05-05T07:06:20.000Z</time>
      </trkpt>
      <trkpt lat="42.867103576660156" lon="-8.53015422821045">
        <ele>275.0</ele>
        <time>2019-05-05T07:06:22.000Z</time>
      </trkpt>
      <trkpt lat="42.867122650146484" lon="-8.530163764953613">
        <ele>275.0</ele>
        <time>2019-05-05T07:06:27.000Z</time>
      </trkpt>
      <trkpt lat="42.86714172363281" lon="-8.530183792114258">
        <ele>276.0</ele>
        <time>2019-05-05T07:06:32.000Z</time>
      </trkpt>
      <trkpt lat="42.86715316772461" lon="-8.530210494995117">
        <ele>275.0</ele>
        <time>2019-05-05T07:06:37.000Z</time>
      </trkpt>
      <trkpt lat="42.86716842651367" lon="-8.530241012573242">
        <ele>275.0</ele>
        <time>2019-05-05T07:06:42.000Z</time>
      </trkpt>
      <trkpt lat="42.86717224121094" lon="-8.530272483825684">
        <ele>275.0</ele>
        <time>2019-05-05T07:06:44.000Z</time>
      </trkpt>
      <trkpt lat="42.86717224121094" lon="-8.53030776977539">
        <ele>275.0</ele>
        <time>2019-05-05T07:06:46.000Z</time>
      </trkpt>
      <trkpt lat="42.86717224121094" lon="-8.530345916748047">
        <ele>275.0</ele>
        <time>2019-05-05T07:06:48.000Z</time>
      </trkpt>
      <trkpt lat="42.86716842651367" lon="-8.530384063720703">
        <ele>274.0</ele>
        <time>2019-05-05T07:06:49.000Z</time>
      </trkpt>
      <trkpt lat="42.8671875" lon="-8.530388832092285">
        <ele>274.0</ele>
        <time>2019-05-05T07:06:51.000Z</time>
      </trkpt>
      <trkpt lat="42.86721420288086" lon="-8.530381202697754">
        <ele>274.0</ele>
        <time>2019-05-05T07:06:53.000Z</time>
      </trkpt>
      <trkpt lat="42.867244720458984" lon="-8.530364036560059">
        <ele>274.0</ele>
        <time>2019-05-05T07:06:55.000Z</time>
      </trkpt>
      <trkpt lat="42.867279052734375" lon="-8.530343055725098">
        <ele>274.0</ele>
        <time>2019-05-05T07:06:57.000Z</time>
      </trkpt>
      <trkpt lat="42.86730194091797" lon="-8.530364990234375">
        <ele>273.0</ele>
        <time>2019-05-05T07:07:02.000Z</time>
      </trkpt>
      <trkpt lat="42.8673210144043" lon="-8.530399322509766">
        <ele>272.0</ele>
        <time>2019-05-05T07:07:06.000Z</time>
      </trkpt>
      <trkpt lat="42.867340087890625" lon="-8.530444145202637">
        <ele>270.0</ele>
        <time>2019-05-05T07:07:11.000Z</time>
      </trkpt>
      <trkpt lat="42.86735534667969" lon="-8.530492782592773">
        <ele>269.0</ele>
        <time>2019-05-05T07:07:15.000Z</time>
      </trkpt>
      <trkpt lat="42.867366790771484" lon="-8.530510902404785">
        <ele>269.0</ele>
        <time>2019-05-05T07:07:16.000Z</time>
      </trkpt>
      <trkpt lat="42.86737060546875" lon="-8.53052043914795">
        <ele>269.0</ele>
        <time>2019-05-05T07:07:16.000Z</time>
      </trkpt>
      <trkpt lat="42.867374420166016" lon="-8.530525207519531">
        <ele>269.0</ele>
        <time>2019-05-05T07:07:16.000Z</time>
      </trkpt>
      <trkpt lat="42.867374420166016" lon="-8.530527114868164">
        <ele>269.0</ele>
        <time>2019-05-05T07:07:16.000Z</time>
      </trkpt>
      <trkpt lat="42.86738204956055" lon="-8.530547142028809">
        <ele>269.0</ele>
        <time>2019-05-05T07:07:18.000Z</time>
      </trkpt>
      <trkpt lat="42.867393493652344" lon="-8.530572891235352">
        <ele>269.0</ele>
        <time>2019-05-05T07:07:19.000Z</time>
      </trkpt>
      <trkpt lat="42.867408752441406" lon="-8.53060245513916">
        <ele>268.0</ele>
        <time>2019-05-05T07:07:21.000Z</time>
      </trkpt>
      <trkpt lat="42.8674201965332" lon="-8.530632972717285">
        <ele>268.0</ele>
        <time>2019-05-05T07:07:22.000Z</time>
      </trkpt>
      <trkpt lat="42.86744689941406" lon="-8.530660629272461">
        <ele>265.0</ele>
        <time>2019-05-05T07:07:42.000Z</time>
      </trkpt>
      <trkpt lat="42.86747360229492" lon="-8.53067684173584">
        <ele>261.0</ele>
        <time>2019-05-05T07:08:01.000Z</time>
      </trkpt>
      <trkpt lat="42.86748504638672" lon="-8.530685424804688">
        <ele>260.0</ele>
        <time>2019-05-05T07:08:02.000Z</time>
      </trkpt>
      <trkpt lat="42.86749267578125" lon="-8.530692100524902">
        <ele>260.0</ele>
        <time>2019-05-05T07:08:02.000Z</time>
      </trkpt>
      <trkpt lat="42.86750411987305" lon="-8.530698776245117">
        <ele>260.0</ele>
        <time>2019-05-05T07:08:02.000Z</time>
      </trkpt>
      <trkpt lat="42.86750793457031" lon="-8.530705451965332">
        <ele>261.0</ele>
        <time>2019-05-05T07:08:02.000Z</time>
      </trkpt>
      <trkpt lat="42.867515563964844" lon="-8.530710220336914">
        <ele>261.0</ele>
        <time>2019-05-05T07:08:03.000Z</time>
      </trkpt>
      <trkpt lat="42.86751937866211" lon="-8.53071403503418">
        <ele>261.0</ele>
        <time>2019-05-05T07:08:03.000Z</time>
      </trkpt>
      <trkpt lat="42.86752700805664" lon="-8.530717849731445">
        <ele>261.0</ele>
        <time>2019-05-05T07:08:03.000Z</time>
      </trkpt>
      <trkpt lat="42.867530822753906" lon="-8.530721664428711">
        <ele>261.0</ele>
        <time>2019-05-05T07:08:03.000Z</time>
      </trkpt>
      <trkpt lat="42.86754608154297" lon="-8.530735969543457">
        <ele>261.0</ele>
        <time>2019-05-05T07:08:08.000Z</time>
      </trkpt>
      <trkpt lat="42.8675651550293" lon="-8.530755043029785">
        <ele>261.0</ele>
        <time>2019-05-05T07:08:12.000Z</time>
      </trkpt>
      <trkpt lat="42.86758804321289" lon="-8.530776023864746">
        <ele>261.0</ele>
        <time>2019-05-05T07:08:17.000Z</time>
      </trkpt>
      <trkpt lat="42.867610931396484" lon="-8.530799865722656">
        <ele>261.0</ele>
        <time>2019-05-05T07:08:21.000Z</time>
      </trkpt>
      <trkpt lat="42.86762237548828" lon="-8.53081226348877">
        <ele>261.0</ele>
        <time>2019-05-05T07:08:22.000Z</time>
      </trkpt>
      <trkpt lat="42.86763381958008" lon="-8.53082275390625">
        <ele>261.0</ele>
        <time>2019-05-05T07:08:22.000Z</time>
      </trkpt>
      <trkpt lat="42.86764144897461" lon="-8.530830383300781">
        <ele>261.0</ele>
        <time>2019-05-05T07:08:22.000Z</time>
      </trkpt>
      <trkpt lat="42.86764907836914" lon="-8.530837059020996">
        <ele>261.0</ele>
        <time>2019-05-05T07:08:22.000Z</time>
      </trkpt>
      <trkpt lat="42.867706298828125" lon="-8.53088665008545">
        <ele>260.0</ele>
        <time>2019-05-05T07:08:27.000Z</time>
      </trkpt>
      <trkpt lat="42.86777877807617" lon="-8.530951499938965">
        <ele>258.0</ele>
        <time>2019-05-05T07:08:31.000Z</time>
      </trkpt>
      <trkpt lat="42.86787033081055" lon="-8.531027793884277">
        <ele>257.0</ele>
        <time>2019-05-05T07:08:36.000Z</time>
      </trkpt>
      <trkpt lat="42.86796569824219" lon="-8.531109809875488">
        <ele>255.0</ele>
        <time>2019-05-05T07:08:40.000Z</time>
      </trkpt>
      <trkpt lat="42.86809158325195" lon="-8.531281471252441">
        <ele>252.0</ele>
        <time>2019-05-05T07:08:55.000Z</time>
      </trkpt>
      <trkpt lat="42.868228912353516" lon="-8.531421661376953">
        <ele>249.0</ele>
        <time>2019-05-05T07:09:07.000Z</time>
      </trkpt>
      <trkpt lat="42.8682746887207" lon="-8.531441688537598">
        <ele>249.0</ele>
        <time>2019-05-05T07:09:10.000Z</time>
      </trkpt>
      <trkpt lat="42.86830520629883" lon="-8.531437873840332">
        <ele>249.0</ele>
        <time>2019-05-05T07:09:12.000Z</time>
      </trkpt>
      <trkpt lat="42.868309020996094" lon="-8.53145694732666">
        <ele>248.0</ele>
        <time>2019-05-05T07:09:16.000Z</time>
      </trkpt>
      <trkpt lat="42.86830520629883" lon="-8.531482696533203">
        <ele>247.0</ele>
        <time>2019-05-05T07:09:20.000Z</time>
      </trkpt>
      <trkpt lat="42.86830139160156" lon="-8.531512260437012">
        <ele>246.0</ele>
        <time>2019-05-05T07:09:24.000Z</time>
      </trkpt>
      <trkpt lat="42.868289947509766" lon="-8.531543731689453">
        <ele>245.0</ele>
        <time>2019-05-05T07:09:28.000Z</time>
      </trkpt>
      <trkpt lat="42.8682975769043" lon="-8.531558990478516">
        <ele>245.0</ele>
        <time>2019-05-05T07:09:34.000Z</time>
      </trkpt>
      <trkpt lat="42.86830520629883" lon="-8.531569480895996">
        <ele>244.0</ele>
        <time>2019-05-05T07:09:40.000Z</time>
      </trkpt>
      <trkpt lat="42.86832046508789" lon="-8.531576156616211">
        <ele>243.0</ele>
        <time>2019-05-05T07:09:46.000Z</time>
      </trkpt>
      <trkpt lat="42.86833190917969" lon="-8.53158187866211">
        <ele>242.0</ele>
        <time>2019-05-05T07:09:51.000Z</time>
      </trkpt>
      <trkpt lat="42.86833953857422" lon="-8.531588554382324">
        <ele>241.0</ele>
        <time>2019-05-05T07:09:52.000Z</time>
      </trkpt>
      <trkpt lat="42.86834716796875" lon="-8.531595230102539">
        <ele>241.0</ele>
        <time>2019-05-05T07:09:52.000Z</time>
      </trkpt>
      <trkpt lat="42.86835479736328" lon="-8.531601905822754">
        <ele>241.0</ele>
        <time>2019-05-05T07:09:52.000Z</time>
      </trkpt>
      <trkpt lat="42.86836242675781" lon="-8.531607627868652">
        <ele>242.0</ele>
        <time>2019-05-05T07:09:52.000Z</time>
      </trkpt>
      <trkpt lat="42.868412017822266" lon="-8.531649589538574">
        <ele>241.0</ele>
        <time>2019-05-05T07:09:56.000Z</time>
      </trkpt>
      <trkpt lat="42.86848068237305" lon="-8.531706809997559">
        <ele>240.0</ele>
        <time>2019-05-05T07:10:00.000Z</time>
      </trkpt>
      <trkpt lat="42.868560791015625" lon="-8.531774520874023">
        <ele>239.0</ele>
        <time>2019-05-05T07:10:04.000Z</time>
      </trkpt>
      <trkpt lat="42.868648529052734" lon="-8.53184700012207">
        <ele>238.0</ele>
        <time>2019-05-05T07:10:07.000Z</time>
      </trkpt>
      <trkpt lat="42.86867904663086" lon="-8.531871795654297">
        <ele>238.0</ele>
        <time>2019-05-05T07:10:13.000Z</time>
      </trkpt>
      <trkpt lat="42.868690490722656" lon="-8.531883239746094">
        <ele>237.0</ele>
        <time>2019-05-05T07:10:18.000Z</time>
      </trkpt>
      <trkpt lat="42.868690490722656" lon="-8.53188419342041">
        <ele>237.0</ele>
        <time>2019-05-05T07:10:23.000Z</time>
      </trkpt>
      <trkpt lat="42.868682861328125" lon="-8.531881332397461">
        <ele>237.0</ele>
        <time>2019-05-05T07:10:28.000Z</time>
      </trkpt>
      <trkpt lat="42.868690490722656" lon="-8.53188705444336">
        <ele>237.0</ele>
        <time>2019-05-05T07:10:29.000Z</time>
      </trkpt>
      <trkpt lat="42.86869430541992" lon="-8.531893730163574">
        <ele>237.0</ele>
        <time>2019-05-05T07:10:29.000Z</time>
      </trkpt>
      <trkpt lat="42.86869812011719" lon="-8.531898498535156">
        <ele>237.0</ele>
        <time>2019-05-05T07:10:29.000Z</time>
      </trkpt>
      <trkpt lat="42.86870574951172" lon="-8.531903266906738">
        <ele>237.0</ele>
        <time>2019-05-05T07:10:29.000Z</time>
      </trkpt>
      <trkpt lat="42.868709564208984" lon="-8.53190803527832">
        <ele>237.0</ele>
        <time>2019-05-05T07:10:32.000Z</time>
      </trkpt>
      <trkpt lat="42.86871337890625" lon="-8.531911849975586">
        <ele>237.0</ele>
        <time>2019-05-05T07:10:35.000Z</time>
      </trkpt>
      <trkpt lat="42.868717193603516" lon="-8.531914710998535">
        <ele>237.0</ele>
        <time>2019-05-05T07:10:38.000Z</time>
      </trkpt>
      <trkpt lat="42.86872100830078" lon="-8.5319185256958">
        <ele>237.0</ele>
        <time>2019-05-05T07:10:40.000Z</time>
      </trkpt>
      <trkpt lat="42.868812561035156" lon="-8.532012939453125">
        <ele>236.0</ele>
        <time>2019-05-05T07:10:42.000Z</time>
      </trkpt>
      <trkpt lat="42.86884307861328" lon="-8.532047271728516">
        <ele>236.0</ele>
        <time>2019-05-05T07:10:43.000Z</time>
      </trkpt>
      <trkpt lat="42.868896484375" lon="-8.532118797302246">
        <ele>236.0</ele>
        <time>2019-05-05T07:10:46.000Z</time>
      </trkpt>
      <trkpt lat="42.868900299072266" lon="-8.532121658325195">
        <ele>234.0</ele>
        <time>2019-05-05T07:11:12.000Z</time>
      </trkpt>
      <trkpt lat="42.868900299072266" lon="-8.532124519348145">
        <ele>234.0</ele>
        <time>2019-05-05T07:11:13.000Z</time>
      </trkpt>
      <trkpt lat="42.869014739990234" lon="-8.532207489013672">
        <ele>234.0</ele>
        <time>2019-05-05T07:11:23.000Z</time>
      </trkpt>
      <trkpt lat="42.869197845458984" lon="-8.532325744628906">
        <ele>235.0</ele>
        <time>2019-05-05T07:11:32.000Z</time>
      </trkpt>
      <trkpt lat="42.869503021240234" lon="-8.532610893249512">
        <ele>234.0</ele>
        <time>2019-05-05T07:12:02.000Z</time>
      </trkpt>
      <trkpt lat="42.86951446533203" lon="-8.532626152038574">
        <ele>233.0</ele>
        <time>2019-05-05T07:12:03.000Z</time>
      </trkpt>
      <trkpt lat="42.86952209472656" lon="-8.532686233520508">
        <ele>232.0</ele>
        <time>2019-05-05T07:12:12.000Z</time>
      </trkpt>
      <trkpt lat="42.86953353881836" lon="-8.532770156860352">
        <ele>231.0</ele>
        <time>2019-05-05T07:12:20.000Z</time>
      </trkpt>
      <trkpt lat="42.86953353881836" lon="-8.53278923034668">
        <ele>230.0</ele>
        <time>2019-05-05T07:12:21.000Z</time>
      </trkpt>
      <trkpt lat="42.869537353515625" lon="-8.532800674438477">
        <ele>230.0</ele>
        <time>2019-05-05T07:12:21.000Z</time>
      </trkpt>
      <trkpt lat="42.869537353515625" lon="-8.532808303833008">
        <ele>231.0</ele>
        <time>2019-05-05T07:12:21.000Z</time>
      </trkpt>
      <trkpt lat="42.869537353515625" lon="-8.53281307220459">
        <ele>231.0</ele>
        <time>2019-05-05T07:12:21.000Z</time>
      </trkpt>
      <trkpt lat="42.8696174621582" lon="-8.532916069030762">
        <ele>229.0</ele>
        <time>2019-05-05T07:12:38.000Z</time>
      </trkpt>
      <trkpt lat="42.86973571777344" lon="-8.53305721282959">
        <ele>227.0</ele>
        <time>2019-05-05T07:12:54.000Z</time>
      </trkpt>
      <trkpt lat="42.86976623535156" lon="-8.533095359802246">
        <ele>226.0</ele>
        <time>2019-05-05T07:13:01.000Z</time>
      </trkpt>
      <trkpt lat="42.869789123535156" lon="-8.533124923706055">
        <ele>225.0</ele>
        <time>2019-05-05T07:13:08.000Z</time>
      </trkpt>
      <trkpt lat="42.86980438232422" lon="-8.533147811889648">
        <ele>225.0</ele>
        <time>2019-05-05T07:13:15.000Z</time>
      </trkpt>
      <trkpt lat="42.86981964111328" lon="-8.533167839050293">
        <ele>225.0</ele>
        <time>2019-05-05T07:13:22.000Z</time>
      </trkpt>
      <trkpt lat="42.86983108520508" lon="-8.533184051513672">
        <ele>224.0</ele>
        <time>2019-05-05T07:13:23.000Z</time>
      </trkpt>
      <trkpt lat="42.86983871459961" lon="-8.533196449279785">
        <ele>224.0</ele>
        <time>2019-05-05T07:13:23.000Z</time>
      </trkpt>
      <trkpt lat="42.86984634399414" lon="-8.53320598602295">
        <ele>224.0</ele>
        <time>2019-05-05T07:13:23.000Z</time>
      </trkpt>
      <trkpt lat="42.86985397338867" lon="-8.53321361541748">
        <ele>225.0</ele>
        <time>2019-05-05T07:13:23.000Z</time>
      </trkpt>
      <trkpt lat="42.86988067626953" lon="-8.53328800201416">
        <ele>225.0</ele>
        <time>2019-05-05T07:13:28.000Z</time>
      </trkpt>
      <trkpt lat="42.86991882324219" lon="-8.533390045166016">
        <ele>225.0</ele>
        <time>2019-05-05T07:13:33.000Z</time>
      </trkpt>
      <trkpt lat="42.86996078491211" lon="-8.53350830078125">
        <ele>226.0</ele>
        <time>2019-05-05T07:13:38.000Z</time>
      </trkpt>
      <trkpt lat="42.8700065612793" lon="-8.533637046813965">
        <ele>226.0</ele>
        <time>2019-05-05T07:13:43.000Z</time>
      </trkpt>
      <trkpt lat="42.870059967041016" lon="-8.533698081970215">
        <ele>227.0</ele>
        <time>2019-05-05T07:13:55.000Z</time>
      </trkpt>
      <trkpt lat="42.8701057434082" lon="-8.533689498901367">
        <ele>229.0</ele>
        <time>2019-05-05T07:14:06.000Z</time>
      </trkpt>
      <trkpt lat="42.870121002197266" lon="-8.533697128295898">
        <ele>229.0</ele>
        <time>2019-05-05T07:14:07.000Z</time>
      </trkpt>
      <trkpt lat="42.87013244628906" lon="-8.533703804016113">
        <ele>229.0</ele>
        <time>2019-05-05T07:14:07.000Z</time>
      </trkpt>
      <trkpt lat="42.870140075683594" lon="-8.533708572387695">
        <ele>229.0</ele>
        <time>2019-05-05T07:14:07.000Z</time>
      </trkpt>
      <trkpt lat="42.870147705078125" lon="-8.533712387084961">
        <ele>229.0</ele>
        <time>2019-05-05T07:14:07.000Z</time>
      </trkpt>
      <trkpt lat="42.870201110839844" lon="-8.533751487731934">
        <ele>229.0</ele>
        <time>2019-05-05T07:14:14.000Z</time>
      </trkpt>
      <trkpt lat="42.87027359008789" lon="-8.533805847167969">
        <ele>229.0</ele>
        <time>2019-05-05T07:14:21.000Z</time>
      </trkpt>
      <trkpt lat="42.87035369873047" lon="-8.533868789672852">
        <ele>229.0</ele>
        <time>2019-05-05T07:14:28.000Z</time>
      </trkpt>
      <trkpt lat="42.87044143676758" lon="-8.533936500549316">
        <ele>229.0</ele>
        <time>2019-05-05T07:14:35.000Z</time>
      </trkpt>
      <trkpt lat="42.870487213134766" lon="-8.533970832824707">
        <ele>229.0</ele>
        <time>2019-05-05T07:14:39.000Z</time>
      </trkpt>
      <trkpt lat="42.870521545410156" lon="-8.533994674682617">
        <ele>229.0</ele>
        <time>2019-05-05T07:14:43.000Z</time>
      </trkpt>
      <trkpt lat="42.87054443359375" lon="-8.534013748168945">
        <ele>229.0</ele>
        <time>2019-05-05T07:14:47.000Z</time>
      </trkpt>
      <trkpt lat="42.87056350708008" lon="-8.534029006958008">
        <ele>229.0</ele>
        <time>2019-05-05T07:14:50.000Z</time>
      </trkpt>
      <trkpt lat="42.87059783935547" lon="-8.53405475616455">
        <ele>228.0</ele>
        <time>2019-05-05T07:14:52.000Z</time>
      </trkpt>
      <trkpt lat="42.87063217163086" lon="-8.534082412719727">
        <ele>228.0</ele>
        <time>2019-05-05T07:14:54.000Z</time>
      </trkpt>
      <trkpt lat="42.870670318603516" lon="-8.534110069274902">
        <ele>227.0</ele>
        <time>2019-05-05T07:14:56.000Z</time>
      </trkpt>
      <trkpt lat="42.870704650878906" lon="-8.534138679504395">
        <ele>226.0</ele>
        <time>2019-05-05T07:14:58.000Z</time>
      </trkpt>
      <trkpt lat="42.87076950073242" lon="-8.53427505493164">
        <ele>224.0</ele>
        <time>2019-05-05T07:15:08.000Z</time>
      </trkpt>
      <trkpt lat="42.87083435058594" lon="-8.534448623657227">
        <ele>221.0</ele>
        <time>2019-05-05T07:15:18.000Z</time>
      </trkpt>
      <trkpt lat="42.870853424072266" lon="-8.534480094909668">
        <ele>220.0</ele>
        <time>2019-05-05T07:15:24.000Z</time>
      </trkpt>
      <trkpt lat="42.87086486816406" lon="-8.534492492675781">
        <ele>219.0</ele>
        <time>2019-05-05T07:15:30.000Z</time>
      </trkpt>
      <trkpt lat="42.870872497558594" lon="-8.534491539001465">
        <ele>218.0</ele>
        <time>2019-05-05T07:15:36.000Z</time>
      </trkpt>
      <trkpt lat="42.870880126953125" lon="-8.53448486328125">
        <ele>217.0</ele>
        <time>2019-05-05T07:15:42.000Z</time>
      </trkpt>
      <trkpt lat="42.870887756347656" lon="-8.534491539001465">
        <ele>217.0</ele>
        <time>2019-05-05T07:15:43.000Z</time>
      </trkpt>
      <trkpt lat="42.87089538574219" lon="-8.53449821472168">
        <ele>217.0</ele>
        <time>2019-05-05T07:15:43.000Z</time>
      </trkpt>
      <trkpt lat="42.87090301513672" lon="-8.534503936767578">
        <ele>217.0</ele>
        <time>2019-05-05T07:15:43.000Z</time>
      </trkpt>
      <trkpt lat="42.87091064453125" lon="-8.534509658813477">
        <ele>217.0</ele>
        <time>2019-05-05T07:15:43.000Z</time>
      </trkpt>
      <trkpt lat="42.870941162109375" lon="-8.534542083740234">
        <ele>217.0</ele>
        <time>2019-05-05T07:15:46.000Z</time>
      </trkpt>
      <trkpt lat="42.87098693847656" lon="-8.534584999084473">
        <ele>217.0</ele>
        <time>2019-05-05T07:15:49.000Z</time>
      </trkpt>
      <trkpt lat="42.871036529541016" lon="-8.534635543823242">
        <ele>216.0</ele>
        <time>2019-05-05T07:15:52.000Z</time>
      </trkpt>
      <trkpt lat="42.87109375" lon="-8.534689903259277">
        <ele>216.0</ele>
        <time>2019-05-05T07:15:54.000Z</time>
      </trkpt>
      <trkpt lat="42.87113571166992" lon="-8.534719467163086">
        <ele>216.0</ele>
        <time>2019-05-05T07:16:02.000Z</time>
      </trkpt>
      <trkpt lat="42.87117385864258" lon="-8.53474235534668">
        <ele>217.0</ele>
        <time>2019-05-05T07:16:10.000Z</time>
      </trkpt>
      <trkpt lat="42.871212005615234" lon="-8.534760475158691">
        <ele>218.0</ele>
        <time>2019-05-05T07:16:18.000Z</time>
      </trkpt>
      <trkpt lat="42.87125015258789" lon="-8.534777641296387">
        <ele>219.0</ele>
        <time>2019-05-05T07:16:25.000Z</time>
      </trkpt>
      <trkpt lat="42.871273040771484" lon="-8.5347900390625">
        <ele>219.0</ele>
        <time>2019-05-05T07:16:26.000Z</time>
      </trkpt>
      <trkpt lat="42.87128829956055" lon="-8.534799575805664">
        <ele>219.0</ele>
        <time>2019-05-05T07:16:26.000Z</time>
      </trkpt>
      <trkpt lat="42.871299743652344" lon="-8.534806251525879">
        <ele>219.0</ele>
        <time>2019-05-05T07:16:26.000Z</time>
      </trkpt>
      <trkpt lat="42.87131118774414" lon="-8.534811973571777">
        <ele>219.0</ele>
        <time>2019-05-05T07:16:26.000Z</time>
      </trkpt>
      <trkpt lat="42.871543884277344" lon="-8.53516960144043">
        <ele>219.0</ele>
        <time>2019-05-05T07:16:43.000Z</time>
      </trkpt>
      <trkpt lat="42.87171936035156" lon="-8.535385131835938">
        <ele>220.0</ele>
        <time>2019-05-05T07:17:04.000Z</time>
      </trkpt>
      <trkpt lat="42.87173080444336" lon="-8.535396575927734">
        <ele>220.0</ele>
        <time>2019-05-05T07:17:21.000Z</time>
      </trkpt>
      <trkpt lat="42.87173843383789" lon="-8.535408020019531">
        <ele>220.0</ele>
        <time>2019-05-05T07:17:22.000Z</time>
      </trkpt>
      <trkpt lat="42.87199783325195" lon="-8.535687446594238">
        <ele>219.0</ele>
        <time>2019-05-05T07:17:37.000Z</time>
      </trkpt>
      <trkpt lat="42.87223434448242" lon="-8.535811424255371">
        <ele>220.0</ele>
        <time>2019-05-05T07:17:51.000Z</time>
      </trkpt>
      <trkpt lat="42.87224578857422" lon="-8.535834312438965">
        <ele>220.0</ele>
        <time>2019-05-05T07:17:55.000Z</time>
      </trkpt>
      <trkpt lat="42.87223815917969" lon="-8.535853385925293">
        <ele>220.0</ele>
        <time>2019-05-05T07:17:59.000Z</time>
      </trkpt>
      <trkpt lat="42.872215270996094" lon="-8.535870552062988">
        <ele>220.0</ele>
        <time>2019-05-05T07:18:03.000Z</time>
      </trkpt>
      <trkpt lat="42.872188568115234" lon="-8.535886764526367">
        <ele>220.0</ele>
        <time>2019-05-05T07:18:06.000Z</time>
      </trkpt>
      <trkpt lat="42.87220764160156" lon="-8.535881996154785">
        <ele>220.0</ele>
        <time>2019-05-05T07:18:10.000Z</time>
      </trkpt>
      <trkpt lat="42.87224197387695" lon="-8.535867691040039">
        <ele>221.0</ele>
        <time>2019-05-05T07:18:13.000Z</time>
      </trkpt>
      <trkpt lat="42.872283935546875" lon="-8.535845756530762">
        <ele>221.0</ele>
        <time>2019-05-05T07:18:17.000Z</time>
      </trkpt>
      <trkpt lat="42.87232971191406" lon="-8.535821914672852">
        <ele>221.0</ele>
        <time>2019-05-05T07:18:20.000Z</time>
      </trkpt>
      <trkpt lat="42.872352600097656" lon="-8.535811424255371">
        <ele>221.0</ele>
        <time>2019-05-05T07:18:21.000Z</time>
      </trkpt>
      <trkpt lat="42.87236785888672" lon="-8.535804748535156">
        <ele>221.0</ele>
        <time>2019-05-05T07:18:21.000Z</time>
      </trkpt>
      <trkpt lat="42.872379302978516" lon="-8.535799026489258">
        <ele>221.0</ele>
        <time>2019-05-05T07:18:21.000Z</time>
      </trkpt>
      <trkpt lat="42.87239074707031" lon="-8.535794258117676">
        <ele>221.0</ele>
        <time>2019-05-05T07:18:21.000Z</time>
      </trkpt>
      <trkpt lat="42.87240219116211" lon="-8.535786628723145">
        <ele>221.0</ele>
        <time>2019-05-05T07:18:22.000Z</time>
      </trkpt>
      <trkpt lat="42.87241744995117" lon="-8.535778045654297">
        <ele>221.0</ele>
        <time>2019-05-05T07:18:23.000Z</time>
      </trkpt>
      <trkpt lat="42.87242889404297" lon="-8.53576946258545">
        <ele>221.0</ele>
        <time>2019-05-05T07:18:24.000Z</time>
      </trkpt>
      <trkpt lat="42.872440338134766" lon="-8.535760879516602">
        <ele>221.0</ele>
        <time>2019-05-05T07:18:25.000Z</time>
      </trkpt>
      <trkpt lat="42.8724479675293" lon="-8.535760879516602">
        <ele>221.0</ele>
        <time>2019-05-05T07:18:33.000Z</time>
      </trkpt>
      <trkpt lat="42.8724479675293" lon="-8.535764694213867">
        <ele>220.0</ele>
        <time>2019-05-05T07:18:41.000Z</time>
      </trkpt>
      <trkpt lat="42.87245178222656" lon="-8.535770416259766">
        <ele>220.0</ele>
        <time>2019-05-05T07:18:49.000Z</time>
      </trkpt>
      <trkpt lat="42.87245178222656" lon="-8.535778045654297">
        <ele>220.0</ele>
        <time>2019-05-05T07:18:57.000Z</time>
      </trkpt>
      <trkpt lat="42.87245559692383" lon="-8.535781860351562">
        <ele>219.0</ele>
        <time>2019-05-05T07:18:58.000Z</time>
      </trkpt>
      <trkpt lat="42.87245559692383" lon="-8.535784721374512">
        <ele>219.0</ele>
        <time>2019-05-05T07:18:58.000Z</time>
      </trkpt>
      <trkpt lat="42.872459411621094" lon="-8.535788536071777">
        <ele>219.0</ele>
        <time>2019-05-05T07:18:58.000Z</time>
      </trkpt>
      <trkpt lat="42.87246322631836" lon="-8.535792350769043">
        <ele>220.0</ele>
        <time>2019-05-05T07:18:58.000Z</time>
      </trkpt>
      <trkpt lat="42.87250518798828" lon="-8.535840034484863">
        <ele>220.0</ele>
        <time>2019-05-05T07:19:01.000Z</time>
      </trkpt>
      <trkpt lat="42.872562408447266" lon="-8.535907745361328">
        <ele>220.0</ele>
        <time>2019-05-05T07:19:04.000Z</time>
      </trkpt>
      <trkpt lat="42.87263488769531" lon="-8.53598690032959">
        <ele>220.0</ele>
        <time>2019-05-05T07:19:07.000Z</time>
      </trkpt>
      <trkpt lat="42.87270736694336" lon="-8.536072731018066">
        <ele>220.0</ele>
        <time>2019-05-05T07:19:10.000Z</time>
      </trkpt>
      <trkpt lat="42.87276840209961" lon="-8.536138534545898">
        <ele>220.0</ele>
        <time>2019-05-05T07:19:17.000Z</time>
      </trkpt>
      <trkpt lat="42.872825622558594" lon="-8.536202430725098">
        <ele>220.0</ele>
        <time>2019-05-05T07:19:24.000Z</time>
      </trkpt>
      <trkpt lat="42.87288284301758" lon="-8.53626537322998">
        <ele>220.0</ele>
        <time>2019-05-05T07:19:31.000Z</time>
      </trkpt>
      <trkpt lat="42.87294387817383" lon="-8.536328315734863">
        <ele>220.0</ele>
        <time>2019-05-05T07:19:37.000Z</time>
      </trkpt>
      <trkpt lat="42.87297058105469" lon="-8.536371231079102">
        <ele>220.0</ele>
        <time>2019-05-05T07:19:41.000Z</time>
      </trkpt>
      <trkpt lat="42.872989654541016" lon="-8.536405563354492">
        <ele>221.0</ele>
        <time>2019-05-05T07:19:45.000Z</time>
      </trkpt>
      <trkpt lat="42.87300109863281" lon="-8.5364351272583">
        <ele>221.0</ele>
        <time>2019-05-05T07:19:49.000Z</time>
      </trkpt>
      <trkpt lat="42.87300491333008" lon="-8.536460876464844">
        <ele>222.0</ele>
        <time>2019-05-05T07:19:52.000Z</time>
      </trkpt>
      <trkpt lat="42.873016357421875" lon="-8.536478042602539">
        <ele>222.0</ele>
        <time>2019-05-05T07:19:53.000Z</time>
      </trkpt>
      <trkpt lat="42.87302017211914" lon="-8.53648853302002">
        <ele>222.0</ele>
        <time>2019-05-05T07:19:53.000Z</time>
      </trkpt>
      <trkpt lat="42.873023986816406" lon="-8.536494255065918">
        <ele>222.0</ele>
        <time>2019-05-05T07:19:53.000Z</time>
      </trkpt>
      <trkpt lat="42.873023986816406" lon="-8.536498069763184">
        <ele>222.0</ele>
        <time>2019-05-05T07:19:53.000Z</time>
      </trkpt>
      <trkpt lat="42.87316131591797" lon="-8.536723136901855">
        <ele>222.0</ele>
        <time>2019-05-05T07:20:06.000Z</time>
      </trkpt>
      <trkpt lat="42.8731575012207" lon="-8.53675651550293">
        <ele>222.0</ele>
        <time>2019-05-05T07:20:09.000Z</time>
      </trkpt>
      <trkpt lat="42.87313461303711" lon="-8.53678035736084">
        <ele>222.0</ele>
        <time>2019-05-05T07:20:12.000Z</time>
      </trkpt>
      <trkpt lat="42.87310028076172" lon="-8.536798477172852">
        <ele>222.0</ele>
        <time>2019-05-05T07:20:15.000Z</time>
      </trkpt>
      <trkpt lat="42.87306213378906" lon="-8.536812782287598">
        <ele>222.0</ele>
        <time>2019-05-05T07:20:18.000Z</time>
      </trkpt>
      <trkpt lat="42.87303924560547" lon="-8.536825180053711">
        <ele>222.0</ele>
        <time>2019-05-05T07:20:21.000Z</time>
      </trkpt>
      <trkpt lat="42.87302017211914" lon="-8.536832809448242">
        <ele>221.0</ele>
        <time>2019-05-05T07:20:24.000Z</time>
      </trkpt>
      <trkpt lat="42.87300109863281" lon="-8.53683853149414">
        <ele>221.0</ele>
        <time>2019-05-05T07:20:27.000Z</time>
      </trkpt>
      <trkpt lat="42.87298583984375" lon="-8.536842346191406">
        <ele>220.0</ele>
        <time>2019-05-05T07:20:30.000Z</time>
      </trkpt>
      <trkpt lat="42.87297058105469" lon="-8.536831855773926">
        <ele>220.0</ele>
        <time>2019-05-05T07:20:33.000Z</time>
      </trkpt>
      <trkpt lat="42.872962951660156" lon="-8.536813735961914">
        <ele>220.0</ele>
        <time>2019-05-05T07:20:36.000Z</time>
      </trkpt>
      <trkpt lat="42.87295150756836" lon="-8.536789894104004">
        <ele>220.0</ele>
        <time>2019-05-05T07:20:39.000Z</time>
      </trkpt>
      <trkpt lat="42.872947692871094" lon="-8.536764144897461">
        <ele>221.0</ele>
        <time>2019-05-05T07:20:41.000Z</time>
      </trkpt>
      <trkpt lat="42.8729362487793" lon="-8.536772727966309">
        <ele>220.0</ele>
        <time>2019-05-05T07:20:44.000Z</time>
      </trkpt>
      <trkpt lat="42.8729248046875" lon="-8.536791801452637">
        <ele>220.0</ele>
        <time>2019-05-05T07:20:46.000Z</time>
      </trkpt>
      <trkpt lat="42.87291717529297" lon="-8.536818504333496">
        <ele>220.0</ele>
        <time>2019-05-05T07:20:48.000Z</time>
      </trkpt>
      <trkpt lat="42.87290573120117" lon="-8.536849021911621">
        <ele>220.0</ele>
        <time>2019-05-05T07:20:50.000Z</time>
      </trkpt>
      <trkpt lat="42.872867584228516" lon="-8.536853790283203">
        <ele>220.0</ele>
        <time>2019-05-05T07:20:53.000Z</time>
      </trkpt>
      <trkpt lat="42.87282180786133" lon="-8.536850929260254">
        <ele>220.0</ele>
        <time>2019-05-05T07:20:56.000Z</time>
      </trkpt>
      <trkpt lat="42.872764587402344" lon="-8.536843299865723">
        <ele>220.0</ele>
        <time>2019-05-05T07:20:59.000Z</time>
      </trkpt>
      <trkpt lat="42.872703552246094" lon="-8.536833763122559">
        <ele>220.0</ele>
        <time>2019-05-05T07:21:01.000Z</time>
      </trkpt>
      <trkpt lat="42.87267303466797" lon="-8.536816596984863">
        <ele>220.0</ele>
        <time>2019-05-05T07:21:05.000Z</time>
      </trkpt>
      <trkpt lat="42.87265396118164" lon="-8.53679370880127">
        <ele>220.0</ele>
        <time>2019-05-05T07:21:08.000Z</time>
      </trkpt>
      <trkpt lat="42.872642517089844" lon="-8.53676700592041">
        <ele>220.0</ele>
        <time>2019-05-05T07:21:11.000Z</time>
      </trkpt>
      <trkpt lat="42.87263107299805" lon="-8.536738395690918">
        <ele>220.0</ele>
        <time>2019-05-05T07:21:14.000Z</time>
      </trkpt>
      <trkpt lat="42.87260818481445" lon="-8.53676986694336">
        <ele>220.0</ele>
        <time>2019-05-05T07:21:18.000Z</time>
      </trkpt>
      <trkpt lat="42.87258529663086" lon="-8.536824226379395">
        <ele>220.0</ele>
        <time>2019-05-05T07:21:22.000Z</time>
      </trkpt>
      <trkpt lat="42.872562408447266" lon="-8.536893844604492">
        <ele>219.0</ele>
        <time>2019-05-05T07:21:26.000Z</time>
      </trkpt>
      <trkpt lat="42.87253952026367" lon="-8.536971092224121">
        <ele>219.0</ele>
        <time>2019-05-05T07:21:30.000Z</time>
      </trkpt>
      <trkpt lat="42.87246322631836" lon="-8.537036895751953">
        <ele>219.0</ele>
        <time>2019-05-05T07:21:37.000Z</time>
      </trkpt>
      <trkpt lat="42.87237548828125" lon="-8.537078857421875">
        <ele>219.0</ele>
        <time>2019-05-05T07:21:44.000Z</time>
      </trkpt>
      <trkpt lat="42.87234878540039" lon="-8.537095069885254">
        <ele>219.0</ele>
        <time>2019-05-05T07:21:47.000Z</time>
      </trkpt>
      <trkpt lat="42.8723258972168" lon="-8.53710651397705">
        <ele>219.0</ele>
        <time>2019-05-05T07:21:49.000Z</time>
      </trkpt>
      <trkpt lat="42.87230682373047" lon="-8.537114143371582">
        <ele>219.0</ele>
        <time>2019-05-05T07:21:51.000Z</time>
      </trkpt>
      <trkpt lat="42.87228775024414" lon="-8.537120819091797">
        <ele>219.0</ele>
        <time>2019-05-05T07:21:53.000Z</time>
      </trkpt>
      <trkpt lat="42.8722038269043" lon="-8.537206649780273">
        <ele>216.0</ele>
        <time>2019-05-05T07:25:07.000Z</time>
      </trkpt>
      <trkpt lat="42.87238693237305" lon="-8.537059783935547">
        <ele>217.0</ele>
        <time>2019-05-05T07:25:22.000Z</time>
      </trkpt>
      <trkpt lat="42.87238693237305" lon="-8.537059783935547">
        <ele>217.0</ele>
        <time>2019-05-05T07:25:23.000Z</time>
      </trkpt>
      <trkpt lat="42.87239074707031" lon="-8.537054061889648">
        <ele>217.0</ele>
        <time>2019-05-05T07:25:26.000Z</time>
      </trkpt>
      <trkpt lat="42.87240219116211" lon="-8.537049293518066">
        <ele>216.0</ele>
        <time>2019-05-05T07:25:34.000Z</time>
      </trkpt>
      <trkpt lat="42.872413635253906" lon="-8.537044525146484">
        <ele>214.0</ele>
        <time>2019-05-05T07:25:41.000Z</time>
      </trkpt>
      <trkpt lat="42.87242126464844" lon="-8.537041664123535">
        <ele>214.0</ele>
        <time>2019-05-05T07:25:42.000Z</time>
      </trkpt>
      <trkpt lat="42.8724250793457" lon="-8.537039756774902">
        <ele>214.0</ele>
        <time>2019-05-05T07:25:42.000Z</time>
      </trkpt>
      <trkpt lat="42.87242889404297" lon="-8.53703784942627">
        <ele>214.0</ele>
        <time>2019-05-05T07:25:42.000Z</time>
      </trkpt>
      <trkpt lat="42.872432708740234" lon="-8.537035942077637">
        <ele>214.0</ele>
        <time>2019-05-05T07:25:42.000Z</time>
      </trkpt>
      <trkpt lat="42.87248992919922" lon="-8.53701114654541">
        <ele>213.0</ele>
        <time>2019-05-05T07:25:48.000Z</time>
      </trkpt>
      <trkpt lat="42.8725700378418" lon="-8.53697681427002">
        <ele>212.0</ele>
        <time>2019-05-05T07:25:53.000Z</time>
      </trkpt>
      <trkpt lat="42.87266540527344" lon="-8.536935806274414">
        <ele>211.0</ele>
        <time>2019-05-05T07:25:58.000Z</time>
      </trkpt>
      <trkpt lat="42.872764587402344" lon="-8.536890983581543">
        <ele>209.0</ele>
        <time>2019-05-05T07:26:03.000Z</time>
      </trkpt>
      <trkpt lat="42.872802734375" lon="-8.536866188049316">
        <ele>208.0</ele>
        <time>2019-05-05T07:26:05.000Z</time>
      </trkpt>
      <trkpt lat="42.87282180786133" lon="-8.536845207214355">
        <ele>208.0</ele>
        <time>2019-05-05T07:26:07.000Z</time>
      </trkpt>
      <trkpt lat="42.872825622558594" lon="-8.53682804107666">
        <ele>208.0</ele>
        <time>2019-05-05T07:26:09.000Z</time>
      </trkpt>
      <trkpt lat="42.872825622558594" lon="-8.536811828613281">
        <ele>208.0</ele>
        <time>2019-05-05T07:26:11.000Z</time>
      </trkpt>
      <trkpt lat="42.87287902832031" lon="-8.536809921264648">
        <ele>207.0</ele>
        <time>2019-05-05T07:26:17.000Z</time>
      </trkpt>
      <trkpt lat="42.872947692871094" lon="-8.53681468963623">
        <ele>206.0</ele>
        <time>2019-05-05T07:26:23.000Z</time>
      </trkpt>
      <trkpt lat="42.873023986816406" lon="-8.536824226379395">
        <ele>206.0</ele>
        <time>2019-05-05T07:26:29.000Z</time>
      </trkpt>
      <trkpt lat="42.87310791015625" lon="-8.536836624145508">
        <ele>205.0</ele>
        <time>2019-05-05T07:26:34.000Z</time>
      </trkpt>
      <trkpt lat="42.87313461303711" lon="-8.536840438842773">
        <ele>204.0</ele>
        <time>2019-05-05T07:26:35.000Z</time>
      </trkpt>
      <trkpt lat="42.873146057128906" lon="-8.536843299865723">
        <ele>204.0</ele>
        <time>2019-05-05T07:26:36.000Z</time>
      </trkpt>
      <trkpt lat="42.873146057128906" lon="-8.536846160888672">
        <ele>204.0</ele>
        <time>2019-05-05T07:26:37.000Z</time>
      </trkpt>
      <trkpt lat="42.873138427734375" lon="-8.536849021911621">
        <ele>205.0</ele>
        <time>2019-05-05T07:26:38.000Z</time>
      </trkpt>
      <trkpt lat="42.873146057128906" lon="-8.536852836608887">
        <ele>205.0</ele>
        <time>2019-05-05T07:26:47.000Z</time>
      </trkpt>
      <trkpt lat="42.87314224243164" lon="-8.536855697631836">
        <ele>205.0</ele>
        <time>2019-05-05T07:26:55.000Z</time>
      </trkpt>
      <trkpt lat="42.873146057128906" lon="-8.536857604980469">
        <ele>205.0</ele>
        <time>2019-05-05T07:26:56.000Z</time>
      </trkpt>
      <trkpt lat="42.873146057128906" lon="-8.536859512329102">
        <ele>205.0</ele>
        <time>2019-05-05T07:26:56.000Z</time>
      </trkpt>
      <trkpt lat="42.873146057128906" lon="-8.536861419677734">
        <ele>205.0</ele>
        <time>2019-05-05T07:26:56.000Z</time>
      </trkpt>
      <trkpt lat="42.87314987182617" lon="-8.53686237335205">
        <ele>205.0</ele>
        <time>2019-05-05T07:26:56.000Z</time>
      </trkpt>
      <trkpt lat="42.873172760009766" lon="-8.536905288696289">
        <ele>205.0</ele>
        <time>2019-05-05T07:27:00.000Z</time>
      </trkpt>
      <trkpt lat="42.873207092285156" lon="-8.536964416503906">
        <ele>205.0</ele>
        <time>2019-05-05T07:27:03.000Z</time>
      </trkpt>
      <trkpt lat="42.87324523925781" lon="-8.53703498840332">
        <ele>205.0</ele>
        <time>2019-05-05T07:27:06.000Z</time>
      </trkpt>
      <trkpt lat="42.873291015625" lon="-8.537111282348633">
        <ele>205.0</ele>
        <time>2019-05-05T07:27:09.000Z</time>
      </trkpt>
      <trkpt lat="42.87330627441406" lon="-8.537152290344238">
        <ele>204.0</ele>
        <time>2019-05-05T07:27:12.000Z</time>
      </trkpt>
      <trkpt lat="42.87331771850586" lon="-8.53718376159668">
        <ele>204.0</ele>
        <time>2019-05-05T07:27:15.000Z</time>
      </trkpt>
      <trkpt lat="42.87332534790039" lon="-8.537210464477539">
        <ele>204.0</ele>
        <time>2019-05-05T07:27:18.000Z</time>
      </trkpt>
      <trkpt lat="42.873329162597656" lon="-8.537233352661133">
        <ele>204.0</ele>
        <time>2019-05-05T07:27:20.000Z</time>
      </trkpt>
      <trkpt lat="42.87333297729492" lon="-8.537251472473145">
        <ele>204.0</ele>
        <time>2019-05-05T07:27:21.000Z</time>
      </trkpt>
      <trkpt lat="42.87333679199219" lon="-8.537263870239258">
        <ele>204.0</ele>
        <time>2019-05-05T07:27:21.000Z</time>
      </trkpt>
      <trkpt lat="42.87334060668945" lon="-8.537272453308105">
        <ele>204.0</ele>
        <time>2019-05-05T07:27:21.000Z</time>
      </trkpt>
      <trkpt lat="42.87334442138672" lon="-8.53727912902832">
        <ele>204.0</ele>
        <time>2019-05-05T07:27:21.000Z</time>
      </trkpt>
      <trkpt lat="42.873348236083984" lon="-8.537293434143066">
        <ele>204.0</ele>
        <time>2019-05-05T07:27:22.000Z</time>
      </trkpt>
      <trkpt lat="42.87335205078125" lon="-8.537309646606445">
        <ele>204.0</ele>
        <time>2019-05-05T07:27:23.000Z</time>
      </trkpt>
      <trkpt lat="42.873355865478516" lon="-8.53732681274414">
        <ele>204.0</ele>
        <time>2019-05-05T07:27:24.000Z</time>
      </trkpt>
      <trkpt lat="42.87336349487305" lon="-8.537343978881836">
        <ele>204.0</ele>
        <time>2019-05-05T07:27:24.000Z</time>
      </trkpt>
      <trkpt lat="42.87336730957031" lon="-8.537362098693848">
        <ele>198.0</ele>
        <time>2019-05-05T07:28:09.000Z</time>
      </trkpt>
      <trkpt lat="42.87337112426758" lon="-8.537379264831543">
        <ele>198.0</ele>
        <time>2019-05-05T07:28:10.000Z</time>
      </trkpt>
      <trkpt lat="42.873504638671875" lon="-8.537734985351562">
        <ele>201.0</ele>
        <time>2019-05-05T07:28:14.000Z</time>
      </trkpt>
      <trkpt lat="42.87367630004883" lon="-8.538159370422363">
        <ele>205.0</ele>
        <time>2019-05-05T07:28:20.000Z</time>
      </trkpt>
      <trkpt lat="42.87380599975586" lon="-8.538335800170898">
        <ele>210.0</ele>
        <time>2019-05-05T07:28:38.000Z</time>
      </trkpt>
      <trkpt lat="42.8738899230957" lon="-8.538372993469238">
        <ele>213.0</ele>
        <time>2019-05-05T07:28:44.000Z</time>
      </trkpt>
      <trkpt lat="42.873985290527344" lon="-8.538387298583984">
        <ele>215.0</ele>
        <time>2019-05-05T07:28:50.000Z</time>
      </trkpt>
      <trkpt lat="42.87405014038086" lon="-8.538434982299805">
        <ele>217.0</ele>
        <time>2019-05-05T07:28:57.000Z</time>
      </trkpt>
      <trkpt lat="42.87412643432617" lon="-8.538496971130371">
        <ele>220.0</ele>
        <time>2019-05-05T07:29:04.000Z</time>
      </trkpt>
      <trkpt lat="42.87420654296875" lon="-8.538569450378418">
        <ele>222.0</ele>
        <time>2019-05-05T07:29:11.000Z</time>
      </trkpt>
      <trkpt lat="42.874290466308594" lon="-8.53864574432373">
        <ele>226.0</ele>
        <time>2019-05-05T07:29:18.000Z</time>
      </trkpt>
      <trkpt lat="42.87432098388672" lon="-8.538678169250488">
        <ele>226.0</ele>
        <time>2019-05-05T07:29:20.000Z</time>
      </trkpt>
      <trkpt lat="42.874332427978516" lon="-8.5386962890625">
        <ele>226.0</ele>
        <time>2019-05-05T07:29:22.000Z</time>
      </trkpt>
      <trkpt lat="42.874332427978516" lon="-8.538705825805664">
        <ele>226.0</ele>
        <time>2019-05-05T07:29:24.000Z</time>
      </trkpt>
      <trkpt lat="42.874324798583984" lon="-8.538710594177246">
        <ele>225.0</ele>
        <time>2019-05-05T07:29:25.000Z</time>
      </trkpt>
      <trkpt lat="42.874351501464844" lon="-8.538735389709473">
        <ele>224.0</ele>
        <time>2019-05-05T07:29:32.000Z</time>
      </trkpt>
      <trkpt lat="42.8743896484375" lon="-8.53875732421875">
        <ele>223.0</ele>
        <time>2019-05-05T07:29:38.000Z</time>
      </trkpt>
      <trkpt lat="42.87439727783203" lon="-8.538763999938965">
        <ele>223.0</ele>
        <time>2019-05-05T07:29:39.000Z</time>
      </trkpt>
      <trkpt lat="42.87440490722656" lon="-8.538769721984863">
        <ele>223.0</ele>
        <time>2019-05-05T07:29:39.000Z</time>
      </trkpt>
      <trkpt lat="42.87440872192383" lon="-8.538773536682129">
        <ele>223.0</ele>
        <time>2019-05-05T07:29:39.000Z</time>
      </trkpt>
      <trkpt lat="42.87441635131836" lon="-8.538777351379395">
        <ele>223.0</ele>
        <time>2019-05-05T07:29:39.000Z</time>
      </trkpt>
      <trkpt lat="42.874427795410156" lon="-8.53879451751709">
        <ele>223.0</ele>
        <time>2019-05-05T07:29:40.000Z</time>
      </trkpt>
      <trkpt lat="42.87444305419922" lon="-8.538817405700684">
        <ele>222.0</ele>
        <time>2019-05-05T07:29:41.000Z</time>
      </trkpt>
      <trkpt lat="42.87446212768555" lon="-8.538843154907227">
        <ele>222.0</ele>
        <time>2019-05-05T07:29:42.000Z</time>
      </trkpt>
      <trkpt lat="42.87447738647461" lon="-8.538869857788086">
        <ele>222.0</ele>
        <time>2019-05-05T07:29:43.000Z</time>
      </trkpt>
      <trkpt lat="42.87459182739258" lon="-8.538923263549805">
        <ele>223.0</ele>
        <time>2019-05-05T07:29:53.000Z</time>
      </trkpt>
      <trkpt lat="42.87474060058594" lon="-8.538980484008789">
        <ele>225.0</ele>
        <time>2019-05-05T07:30:03.000Z</time>
      </trkpt>
      <trkpt lat="42.874820709228516" lon="-8.53901195526123">
        <ele>224.0</ele>
        <time>2019-05-05T07:30:11.000Z</time>
      </trkpt>
      <trkpt lat="42.87490463256836" lon="-8.539046287536621">
        <ele>224.0</ele>
        <time>2019-05-05T07:30:19.000Z</time>
      </trkpt>
      <trkpt lat="42.87499237060547" lon="-8.539081573486328">
        <ele>223.0</ele>
        <time>2019-05-05T07:30:27.000Z</time>
      </trkpt>
      <trkpt lat="42.875083923339844" lon="-8.539117813110352">
        <ele>222.0</ele>
        <time>2019-05-05T07:30:35.000Z</time>
      </trkpt>
      <trkpt lat="42.87511444091797" lon="-8.539130210876465">
        <ele>222.0</ele>
        <time>2019-05-05T07:30:36.000Z</time>
      </trkpt>
      <trkpt lat="42.8751220703125" lon="-8.53913402557373">
        <ele>222.0</ele>
        <time>2019-05-05T07:30:37.000Z</time>
      </trkpt>
      <trkpt lat="42.8751106262207" lon="-8.539131164550781">
        <ele>222.0</ele>
        <time>2019-05-05T07:30:38.000Z</time>
      </trkpt>
      <trkpt lat="42.875091552734375" lon="-8.539125442504883">
        <ele>222.0</ele>
        <time>2019-05-05T07:30:39.000Z</time>
      </trkpt>
      <trkpt lat="42.875099182128906" lon="-8.539130210876465">
        <ele>222.0</ele>
        <time>2019-05-05T07:30:43.000Z</time>
      </trkpt>
      <trkpt lat="42.8751106262207" lon="-8.53913688659668">
        <ele>222.0</ele>
        <time>2019-05-05T07:30:47.000Z</time>
      </trkpt>
      <trkpt lat="42.875125885009766" lon="-8.539143562316895">
        <ele>221.0</ele>
        <time>2019-05-05T07:30:51.000Z</time>
      </trkpt>
      <trkpt lat="42.87513732910156" lon="-8.539151191711426">
        <ele>221.0</ele>
        <time>2019-05-05T07:30:54.000Z</time>
      </trkpt>
      <trkpt lat="42.875144958496094" lon="-8.539155960083008">
        <ele>221.0</ele>
        <time>2019-05-05T07:30:55.000Z</time>
      </trkpt>
      <trkpt lat="42.875152587890625" lon="-8.53916072845459">
        <ele>221.0</ele>
        <time>2019-05-05T07:30:55.000Z</time>
      </trkpt>
      <trkpt lat="42.875160217285156" lon="-8.539163589477539">
        <ele>221.0</ele>
        <time>2019-05-05T07:30:55.000Z</time>
      </trkpt>
      <trkpt lat="42.87516784667969" lon="-8.539167404174805">
        <ele>221.0</ele>
        <time>2019-05-05T07:30:55.000Z</time>
      </trkpt>
      <trkpt lat="42.87517547607422" lon="-8.53917121887207">
        <ele>221.0</ele>
        <time>2019-05-05T07:30:56.000Z</time>
      </trkpt>
      <trkpt lat="42.87518310546875" lon="-8.539175987243652">
        <ele>221.0</ele>
        <time>2019-05-05T07:30:57.000Z</time>
      </trkpt>
      <trkpt lat="42.87519454956055" lon="-8.539180755615234">
        <ele>221.0</ele>
        <time>2019-05-05T07:30:58.000Z</time>
      </trkpt>
      <trkpt lat="42.87520217895508" lon="-8.5391845703125">
        <ele>221.0</ele>
        <time>2019-05-05T07:30:58.000Z</time>
      </trkpt>
      <trkpt lat="42.87521743774414" lon="-8.539199829101562">
        <ele>220.0</ele>
        <time>2019-05-05T07:31:18.000Z</time>
      </trkpt>
      <trkpt lat="42.87522888183594" lon="-8.539212226867676">
        <ele>220.0</ele>
        <time>2019-05-05T07:31:19.000Z</time>
      </trkpt>
      <trkpt lat="42.87544250488281" lon="-8.539534568786621">
        <ele>220.0</ele>
        <time>2019-05-05T07:31:26.000Z</time>
      </trkpt>
      <trkpt lat="42.87565612792969" lon="-8.539816856384277">
        <ele>220.0</ele>
        <time>2019-05-05T07:31:45.000Z</time>
      </trkpt>
      <trkpt lat="42.87568664550781" lon="-8.539836883544922">
        <ele>220.0</ele>
        <time>2019-05-05T07:31:48.000Z</time>
      </trkpt>
      <trkpt lat="42.875709533691406" lon="-8.539836883544922">
        <ele>221.0</ele>
        <time>2019-05-05T07:31:50.000Z</time>
      </trkpt>
      <trkpt lat="42.87572479248047" lon="-8.539822578430176">
        <ele>222.0</ele>
        <time>2019-05-05T07:31:53.000Z</time>
      </trkpt>
      <trkpt lat="42.87574005126953" lon="-8.539801597595215">
        <ele>223.0</ele>
        <time>2019-05-05T07:31:55.000Z</time>
      </trkpt>
      <trkpt lat="42.87575912475586" lon="-8.53984546661377">
        <ele>223.0</ele>
        <time>2019-05-05T07:32:01.000Z</time>
      </trkpt>
      <trkpt lat="42.87578201293945" lon="-8.539908409118652">
        <ele>224.0</ele>
        <time>2019-05-05T07:32:06.000Z</time>
      </trkpt>
      <trkpt lat="42.87580490112305" lon="-8.539984703063965">
        <ele>224.0</ele>
        <time>2019-05-05T07:32:11.000Z</time>
      </trkpt>
      <trkpt lat="42.87582778930664" lon="-8.540067672729492">
        <ele>225.0</ele>
        <time>2019-05-05T07:32:16.000Z</time>
      </trkpt>
      <trkpt lat="42.87582778930664" lon="-8.540098190307617">
        <ele>225.0</ele>
        <time>2019-05-05T07:32:31.000Z</time>
      </trkpt>
      <trkpt lat="42.87582015991211" lon="-8.54011344909668">
        <ele>227.0</ele>
        <time>2019-05-05T07:32:45.000Z</time>
      </trkpt>
      <trkpt lat="42.87580490112305" lon="-8.540118217468262">
        <ele>228.0</ele>
        <time>2019-05-05T07:33:00.000Z</time>
      </trkpt>
      <trkpt lat="42.875789642333984" lon="-8.540118217468262">
        <ele>229.0</ele>
        <time>2019-05-05T07:33:14.000Z</time>
      </trkpt>
      <trkpt lat="42.87578201293945" lon="-8.54012680053711">
        <ele>230.0</ele>
        <time>2019-05-05T07:33:15.000Z</time>
      </trkpt>
      <trkpt lat="42.87577819824219" lon="-8.54013442993164">
        <ele>230.0</ele>
        <time>2019-05-05T07:33:15.000Z</time>
      </trkpt>
      <trkpt lat="42.87577438354492" lon="-8.540141105651855">
        <ele>229.0</ele>
        <time>2019-05-05T07:33:15.000Z</time>
      </trkpt>
      <trkpt lat="42.875770568847656" lon="-8.54014778137207">
        <ele>229.0</ele>
        <time>2019-05-05T07:33:15.000Z</time>
      </trkpt>
      <trkpt lat="42.875755310058594" lon="-8.540167808532715">
        <ele>229.0</ele>
        <time>2019-05-05T07:33:17.000Z</time>
      </trkpt>
      <trkpt lat="42.875736236572266" lon="-8.540193557739258">
        <ele>229.0</ele>
        <time>2019-05-05T07:33:18.000Z</time>
      </trkpt>
      <trkpt lat="42.87571334838867" lon="-8.540223121643066">
        <ele>229.0</ele>
        <time>2019-05-05T07:33:19.000Z</time>
      </trkpt>
      <trkpt lat="42.87569046020508" lon="-8.540253639221191">
        <ele>229.0</ele>
        <time>2019-05-05T07:33:20.000Z</time>
      </trkpt>
      <trkpt lat="42.87567901611328" lon="-8.540266990661621">
        <ele>229.0</ele>
        <time>2019-05-05T07:33:25.000Z</time>
      </trkpt>
      <trkpt lat="42.875675201416016" lon="-8.540274620056152">
        <ele>229.0</ele>
        <time>2019-05-05T07:33:30.000Z</time>
      </trkpt>
      <trkpt lat="42.875675201416016" lon="-8.540278434753418">
        <ele>229.0</ele>
        <time>2019-05-05T07:33:35.000Z</time>
      </trkpt>
      <trkpt lat="42.875675201416016" lon="-8.54028034210205">
        <ele>229.0</ele>
        <time>2019-05-05T07:33:39.000Z</time>
      </trkpt>
      <trkpt lat="42.875675201416016" lon="-8.54028606414795">
        <ele>229.0</ele>
        <time>2019-05-05T07:33:40.000Z</time>
      </trkpt>
      <trkpt lat="42.87567138671875" lon="-8.540290832519531">
        <ele>229.0</ele>
        <time>2019-05-05T07:33:40.000Z</time>
      </trkpt>
      <trkpt lat="42.875667572021484" lon="-8.540295600891113">
        <ele>229.0</ele>
        <time>2019-05-05T07:33:40.000Z</time>
      </trkpt>
      <trkpt lat="42.875667572021484" lon="-8.540300369262695">
        <ele>229.0</ele>
        <time>2019-05-05T07:33:40.000Z</time>
      </trkpt>
      <trkpt lat="42.87562561035156" lon="-8.540362358093262">
        <ele>229.0</ele>
        <time>2019-05-05T07:33:44.000Z</time>
      </trkpt>
      <trkpt lat="42.875572204589844" lon="-8.540448188781738">
        <ele>230.0</ele>
        <time>2019-05-05T07:33:48.000Z</time>
      </trkpt>
      <trkpt lat="42.87550735473633" lon="-8.540549278259277">
        <ele>231.0</ele>
        <time>2019-05-05T07:33:52.000Z</time>
      </trkpt>
      <trkpt lat="42.87543487548828" lon="-8.540658950805664">
        <ele>232.0</ele>
        <time>2019-05-05T07:33:56.000Z</time>
      </trkpt>
      <trkpt lat="42.87530517578125" lon="-8.540803909301758">
        <ele>231.0</ele>
        <time>2019-05-05T07:34:14.000Z</time>
      </trkpt>
      <trkpt lat="42.87527084350586" lon="-8.540864944458008">
        <ele>228.0</ele>
        <time>2019-05-05T07:34:37.000Z</time>
      </trkpt>
      <trkpt lat="42.875247955322266" lon="-8.540901184082031">
        <ele>228.0</ele>
        <time>2019-05-05T07:34:38.000Z</time>
      </trkpt>
      <trkpt lat="42.875030517578125" lon="-8.54106330871582">
        <ele>228.0</ele>
        <time>2019-05-05T07:34:45.000Z</time>
      </trkpt>
      <trkpt lat="42.875038146972656" lon="-8.54112720489502">
        <ele>228.0</ele>
        <time>2019-05-05T07:34:48.000Z</time>
      </trkpt>
      <trkpt lat="42.87507629394531" lon="-8.541200637817383">
        <ele>228.0</ele>
        <time>2019-05-05T07:34:51.000Z</time>
      </trkpt>
      <trkpt lat="42.87512969970703" lon="-8.541279792785645">
        <ele>228.0</ele>
        <time>2019-05-05T07:34:54.000Z</time>
      </trkpt>
      <trkpt lat="42.87519073486328" lon="-8.541362762451172">
        <ele>228.0</ele>
        <time>2019-05-05T07:34:57.000Z</time>
      </trkpt>
      <trkpt lat="42.87521743774414" lon="-8.541457176208496">
        <ele>228.0</ele>
        <time>2019-05-05T07:35:04.000Z</time>
      </trkpt>
      <trkpt lat="42.87523651123047" lon="-8.541558265686035">
        <ele>228.0</ele>
        <time>2019-05-05T07:35:10.000Z</time>
      </trkpt>
      <trkpt lat="42.8752555847168" lon="-8.541666030883789">
        <ele>227.0</ele>
        <time>2019-05-05T07:35:16.000Z</time>
      </trkpt>
      <trkpt lat="42.87527084350586" lon="-8.541775703430176">
        <ele>227.0</ele>
        <time>2019-05-05T07:35:22.000Z</time>
      </trkpt>
      <trkpt lat="42.87529373168945" lon="-8.5418119430542">
        <ele>228.0</ele>
        <time>2019-05-05T07:35:25.000Z</time>
      </trkpt>
      <trkpt lat="42.87531280517578" lon="-8.541818618774414">
        <ele>228.0</ele>
        <time>2019-05-05T07:35:28.000Z</time>
      </trkpt>
      <trkpt lat="42.875335693359375" lon="-8.541807174682617">
        <ele>229.0</ele>
        <time>2019-05-05T07:35:31.000Z</time>
      </trkpt>
      <trkpt lat="42.87535858154297" lon="-8.541786193847656">
        <ele>229.0</ele>
        <time>2019-05-05T07:35:33.000Z</time>
      </trkpt>
      <trkpt lat="42.875370025634766" lon="-8.541787147521973">
        <ele>229.0</ele>
        <time>2019-05-05T07:35:34.000Z</time>
      </trkpt>
      <trkpt lat="42.87538146972656" lon="-8.541788101196289">
        <ele>229.0</ele>
        <time>2019-05-05T07:35:34.000Z</time>
      </trkpt>
      <trkpt lat="42.875389099121094" lon="-8.541789054870605">
        <ele>229.0</ele>
        <time>2019-05-05T07:35:34.000Z</time>
      </trkpt>
      <trkpt lat="42.87539291381836" lon="-8.541790008544922">
        <ele>229.0</ele>
        <time>2019-05-05T07:35:34.000Z</time>
      </trkpt>
      <trkpt lat="42.875404357910156" lon="-8.541794776916504">
        <ele>229.0</ele>
        <time>2019-05-05T07:35:36.000Z</time>
      </trkpt>
      <trkpt lat="42.87541961669922" lon="-8.541800498962402">
        <ele>230.0</ele>
        <time>2019-05-05T07:35:38.000Z</time>
      </trkpt>
      <trkpt lat="42.87543487548828" lon="-8.541808128356934">
        <ele>230.0</ele>
        <time>2019-05-05T07:35:40.000Z</time>
      </trkpt>
      <trkpt lat="42.875450134277344" lon="-8.541815757751465">
        <ele>230.0</ele>
        <time>2019-05-05T07:35:41.000Z</time>
      </trkpt>
      <trkpt lat="42.875457763671875" lon="-8.541828155517578">
        <ele>232.0</ele>
        <time>2019-05-05T07:35:47.000Z</time>
      </trkpt>
      <trkpt lat="42.875457763671875" lon="-8.541842460632324">
        <ele>233.0</ele>
        <time>2019-05-05T07:35:53.000Z</time>
      </trkpt>
      <trkpt lat="42.875457763671875" lon="-8.541858673095703">
        <ele>235.0</ele>
        <time>2019-05-05T07:35:59.000Z</time>
      </trkpt>
      <trkpt lat="42.87545394897461" lon="-8.541875839233398">
        <ele>238.0</ele>
        <time>2019-05-05T07:36:04.000Z</time>
      </trkpt>
      <trkpt lat="42.87545394897461" lon="-8.541888236999512">
        <ele>238.0</ele>
        <time>2019-05-05T07:36:05.000Z</time>
      </trkpt>
      <trkpt lat="42.87545394897461" lon="-8.541899681091309">
        <ele>238.0</ele>
        <time>2019-05-05T07:36:05.000Z</time>
      </trkpt>
      <trkpt lat="42.87545394897461" lon="-8.541909217834473">
        <ele>238.0</ele>
        <time>2019-05-05T07:36:05.000Z</time>
      </trkpt>
      <trkpt lat="42.875457763671875" lon="-8.541919708251953">
        <ele>238.0</ele>
        <time>2019-05-05T07:36:05.000Z</time>
      </trkpt>
      <trkpt lat="42.87546920776367" lon="-8.541980743408203">
        <ele>238.0</ele>
        <time>2019-05-05T07:36:07.000Z</time>
      </trkpt>
      <trkpt lat="42.87548828125" lon="-8.542062759399414">
        <ele>238.0</ele>
        <time>2019-05-05T07:36:09.000Z</time>
      </trkpt>
      <trkpt lat="42.87550735473633" lon="-8.542159080505371">
        <ele>238.0</ele>
        <time>2019-05-05T07:36:11.000Z</time>
      </trkpt>
      <trkpt lat="42.87553024291992" lon="-8.54226303100586">
        <ele>239.0</ele>
        <time>2019-05-05T07:36:12.000Z</time>
      </trkpt>
      <trkpt lat="42.875518798828125" lon="-8.542292594909668">
        <ele>239.0</ele>
        <time>2019-05-05T07:36:39.000Z</time>
      </trkpt>
      <trkpt lat="42.87549591064453" lon="-8.542298316955566">
        <ele>240.0</ele>
        <time>2019-05-05T07:37:06.000Z</time>
      </trkpt>
      <trkpt lat="42.875465393066406" lon="-8.542288780212402">
        <ele>242.0</ele>
        <time>2019-05-05T07:37:33.000Z</time>
      </trkpt>
      <trkpt lat="42.87542724609375" lon="-8.542271614074707">
        <ele>243.0</ele>
        <time>2019-05-05T07:37:59.000Z</time>
      </trkpt>
      <trkpt lat="42.87541198730469" lon="-8.542272567749023">
        <ele>243.0</ele>
        <time>2019-05-05T07:38:00.000Z</time>
      </trkpt>
      <trkpt lat="42.875404357910156" lon="-8.54227352142334">
        <ele>244.0</ele>
        <time>2019-05-05T07:38:00.000Z</time>
      </trkpt>
      <trkpt lat="42.875396728515625" lon="-8.54227352142334">
        <ele>243.0</ele>
        <time>2019-05-05T07:38:00.000Z</time>
      </trkpt>
      <trkpt lat="42.87539291381836" lon="-8.542274475097656">
        <ele>243.0</ele>
        <time>2019-05-05T07:38:00.000Z</time>
      </trkpt>
      <trkpt lat="42.8753776550293" lon="-8.542278289794922">
        <ele>243.0</ele>
        <time>2019-05-05T07:38:02.000Z</time>
      </trkpt>
      <trkpt lat="42.87535858154297" lon="-8.542283058166504">
        <ele>243.0</ele>
        <time>2019-05-05T07:38:03.000Z</time>
      </trkpt>
      <trkpt lat="42.87533950805664" lon="-8.542289733886719">
        <ele>243.0</ele>
        <time>2019-05-05T07:38:05.000Z</time>
      </trkpt>
      <trkpt lat="42.87531661987305" lon="-8.542296409606934">
        <ele>244.0</ele>
        <time>2019-05-05T07:38:06.000Z</time>
      </trkpt>
      <trkpt lat="42.875308990478516" lon="-8.542298316955566">
        <ele>244.0</ele>
        <time>2019-05-05T07:38:30.000Z</time>
      </trkpt>
      <trkpt lat="42.87530517578125" lon="-8.54229736328125">
        <ele>244.0</ele>
        <time>2019-05-05T07:38:53.000Z</time>
      </trkpt>
      <trkpt lat="42.87530517578125" lon="-8.542296409606934">
        <ele>244.0</ele>
        <time>2019-05-05T07:39:17.000Z</time>
      </trkpt>
      <trkpt lat="42.875308990478516" lon="-8.542293548583984">
        <ele>244.0</ele>
        <time>2019-05-05T07:39:40.000Z</time>
      </trkpt>
      <trkpt lat="42.87530517578125" lon="-8.542293548583984">
        <ele>244.0</ele>
        <time>2019-05-05T07:39:41.000Z</time>
      </trkpt>
      <trkpt lat="42.875301361083984" lon="-8.542292594909668">
        <ele>244.0</ele>
        <time>2019-05-05T07:39:41.000Z</time>
      </trkpt>
      <trkpt lat="42.875301361083984" lon="-8.542292594909668">
        <ele>244.0</ele>
        <time>2019-05-05T07:39:41.000Z</time>
      </trkpt>
      <trkpt lat="42.87529754638672" lon="-8.542291641235352">
        <ele>244.0</ele>
        <time>2019-05-05T07:39:41.000Z</time>
      </trkpt>
      <trkpt lat="42.875282287597656" lon="-8.542288780212402">
        <ele>244.0</ele>
        <time>2019-05-05T07:39:42.000Z</time>
      </trkpt>
      <trkpt lat="42.8752555847168" lon="-8.542284965515137">
        <ele>244.0</ele>
        <time>2019-05-05T07:39:43.000Z</time>
      </trkpt>
      <trkpt lat="42.87522888183594" lon="-8.542280197143555">
        <ele>244.0</ele>
        <time>2019-05-05T07:39:44.000Z</time>
      </trkpt>
      <trkpt lat="42.87519836425781" lon="-8.542275428771973">
        <ele>245.0</ele>
        <time>2019-05-05T07:39:44.000Z</time>
      </trkpt>
      <trkpt lat="42.875205993652344" lon="-8.542277336120605">
        <ele>245.0</ele>
        <time>2019-05-05T07:39:46.000Z</time>
      </trkpt>
      <trkpt lat="42.87522888183594" lon="-8.542283058166504">
        <ele>245.0</ele>
        <time>2019-05-05T07:39:48.000Z</time>
      </trkpt>
      <trkpt lat="42.87526321411133" lon="-8.542289733886719">
        <ele>245.0</ele>
        <time>2019-05-05T07:39:50.000Z</time>
      </trkpt>
      <trkpt lat="42.875301361083984" lon="-8.54229736328125">
        <ele>245.0</ele>
        <time>2019-05-05T07:39:52.000Z</time>
      </trkpt>
      <trkpt lat="42.87529754638672" lon="-8.542317390441895">
        <ele>246.0</ele>
        <time>2019-05-05T07:39:57.000Z</time>
      </trkpt>
      <trkpt lat="42.875282287597656" lon="-8.542342185974121">
        <ele>247.0</ele>
        <time>2019-05-05T07:40:01.000Z</time>
      </trkpt>
      <trkpt lat="42.87525939941406" lon="-8.542370796203613">
        <ele>247.0</ele>
        <time>2019-05-05T07:40:05.000Z</time>
      </trkpt>
      <trkpt lat="42.8752326965332" lon="-8.542402267456055">
        <ele>248.0</ele>
        <time>2019-05-05T07:40:09.000Z</time>
      </trkpt>
      <trkpt lat="42.875240325927734" lon="-8.54240608215332">
        <ele>249.0</ele>
        <time>2019-05-05T07:40:17.000Z</time>
      </trkpt>
      <trkpt lat="42.8752555847168" lon="-8.542401313781738">
        <ele>251.0</ele>
        <time>2019-05-05T07:40:24.000Z</time>
      </trkpt>
      <trkpt lat="42.87527847290039" lon="-8.542389869689941">
        <ele>252.0</ele>
        <time>2019-05-05T07:40:31.000Z</time>
      </trkpt>
      <trkpt lat="42.87530517578125" lon="-8.542375564575195">
        <ele>254.0</ele>
        <time>2019-05-05T07:40:38.000Z</time>
      </trkpt>
      <trkpt lat="42.87531661987305" lon="-8.542370796203613">
        <ele>254.0</ele>
        <time>2019-05-05T07:40:39.000Z</time>
      </trkpt>
      <trkpt lat="42.875328063964844" lon="-8.542367935180664">
        <ele>254.0</ele>
        <time>2019-05-05T07:40:39.000Z</time>
      </trkpt>
      <trkpt lat="42.875335693359375" lon="-8.542365074157715">
        <ele>254.0</ele>
        <time>2019-05-05T07:40:39.000Z</time>
      </trkpt>
      <trkpt lat="42.875343322753906" lon="-8.542362213134766">
        <ele>254.0</ele>
        <time>2019-05-05T07:40:39.000Z</time>
      </trkpt>
      <trkpt lat="42.87535858154297" lon="-8.542349815368652">
        <ele>254.0</ele>
        <time>2019-05-05T07:40:41.000Z</time>
      </trkpt>
      <trkpt lat="42.87538146972656" lon="-8.542333602905273">
        <ele>254.0</ele>
        <time>2019-05-05T07:40:42.000Z</time>
      </trkpt>
      <trkpt lat="42.87540817260742" lon="-8.542315483093262">
        <ele>254.0</ele>
        <time>2019-05-05T07:40:43.000Z</time>
      </trkpt>
      <trkpt lat="42.87543487548828" lon="-8.542295455932617">
        <ele>254.0</ele>
        <time>2019-05-05T07:40:44.000Z</time>
      </trkpt>
      <trkpt lat="42.87543869018555" lon="-8.542293548583984">
        <ele>254.0</ele>
        <time>2019-05-05T07:40:51.000Z</time>
      </trkpt>
      <trkpt lat="42.875431060791016" lon="-8.542298316955566">
        <ele>255.0</ele>
        <time>2019-05-05T07:40:57.000Z</time>
      </trkpt>
      <trkpt lat="42.875423431396484" lon="-8.54230785369873">
        <ele>255.0</ele>
        <time>2019-05-05T07:41:03.000Z</time>
      </trkpt>
      <trkpt lat="42.87540817260742" lon="-8.542320251464844">
        <ele>256.0</ele>
        <time>2019-05-05T07:41:09.000Z</time>
      </trkpt>
      <trkpt lat="42.875404357910156" lon="-8.542325019836426">
        <ele>256.0</ele>
        <time>2019-05-05T07:41:10.000Z</time>
      </trkpt>
      <trkpt lat="42.87540054321289" lon="-8.542329788208008">
        <ele>256.0</ele>
        <time>2019-05-05T07:41:10.000Z</time>
      </trkpt>
      <trkpt lat="42.87539291381836" lon="-8.54233455657959">
        <ele>256.0</ele>
        <time>2019-05-05T07:41:10.000Z</time>
      </trkpt>
      <trkpt lat="42.875389099121094" lon="-8.542339324951172">
        <ele>256.0</ele>
        <time>2019-05-05T07:41:10.000Z</time>
      </trkpt>
      <trkpt lat="42.87535095214844" lon="-8.542398452758789">
        <ele>256.0</ele>
        <time>2019-05-05T07:41:14.000Z</time>
      </trkpt>
      <trkpt lat="42.875301361083984" lon="-8.542481422424316">
        <ele>256.0</ele>
        <time>2019-05-05T07:41:18.000Z</time>
      </trkpt>
      <trkpt lat="42.875240325927734" lon="-8.542579650878906">
        <ele>256.0</ele>
        <time>2019-05-05T07:41:22.000Z</time>
      </trkpt>
      <trkpt lat="42.87517547607422" lon="-8.542685508728027">
        <ele>257.0</ele>
        <time>2019-05-05T07:41:26.000Z</time>
      </trkpt>
      <trkpt lat="42.875160217285156" lon="-8.542695045471191">
        <ele>257.0</ele>
        <time>2019-05-05T07:41:28.000Z</time>
      </trkpt>
      <trkpt lat="42.875160217285156" lon="-8.542673110961914">
        <ele>257.0</ele>
        <time>2019-05-05T07:41:29.000Z</time>
      </trkpt>
      <trkpt lat="42.87517166137695" lon="-8.54262924194336">
        <ele>257.0</ele>
        <time>2019-05-05T07:41:31.000Z</time>
      </trkpt>
      <trkpt lat="42.87519073486328" lon="-8.54257583618164">
        <ele>257.0</ele>
        <time>2019-05-05T07:41:32.000Z</time>
      </trkpt>
      <trkpt lat="42.87519454956055" lon="-8.542576789855957">
        <ele>257.0</ele>
        <time>2019-05-05T07:41:36.000Z</time>
      </trkpt>
      <trkpt lat="42.87519836425781" lon="-8.542590141296387">
        <ele>257.0</ele>
        <time>2019-05-05T07:41:39.000Z</time>
      </trkpt>
      <trkpt lat="42.87519836425781" lon="-8.542612075805664">
        <ele>257.0</ele>
        <time>2019-05-05T07:41:42.000Z</time>
      </trkpt>
      <trkpt lat="42.87520217895508" lon="-8.542637825012207">
        <ele>257.0</ele>
        <time>2019-05-05T07:41:45.000Z</time>
      </trkpt>
      <trkpt lat="42.87520980834961" lon="-8.542633056640625">
        <ele>256.0</ele>
        <time>2019-05-05T07:41:52.000Z</time>
      </trkpt>
      <trkpt lat="42.875221252441406" lon="-8.542621612548828">
        <ele>254.0</ele>
        <time>2019-05-05T07:41:58.000Z</time>
      </trkpt>
      <trkpt lat="42.87523651123047" lon="-8.542603492736816">
        <ele>251.0</ele>
        <time>2019-05-05T07:42:05.000Z</time>
      </trkpt>
      <trkpt lat="42.87525177001953" lon="-8.542583465576172">
        <ele>249.0</ele>
        <time>2019-05-05T07:42:11.000Z</time>
      </trkpt>
      <trkpt lat="42.87525939941406" lon="-8.542572975158691">
        <ele>248.0</ele>
        <time>2019-05-05T07:42:12.000Z</time>
      </trkpt>
      <trkpt lat="42.87527084350586" lon="-8.542564392089844">
        <ele>248.0</ele>
        <time>2019-05-05T07:42:12.000Z</time>
      </trkpt>
      <trkpt lat="42.87527847290039" lon="-8.542555809020996">
        <ele>248.0</ele>
        <time>2019-05-05T07:42:12.000Z</time>
      </trkpt>
      <trkpt lat="42.875282287597656" lon="-8.542547225952148">
        <ele>249.0</ele>
        <time>2019-05-05T07:42:12.000Z</time>
      </trkpt>
      <trkpt lat="42.87528610229492" lon="-8.542539596557617">
        <ele>258.0</ele>
        <time>2019-05-05T07:42:37.000Z</time>
      </trkpt>
      <trkpt lat="42.875282287597656" lon="-8.542536735534668">
        <ele>271.0</ele>
        <time>2019-05-05T07:43:01.000Z</time>
      </trkpt>
      <trkpt lat="42.87527847290039" lon="-8.542537689208984">
        <ele>267.0</ele>
        <time>2019-05-05T07:43:18.000Z</time>
      </trkpt>
      <trkpt lat="42.875267028808594" lon="-8.542539596557617">
        <ele>259.0</ele>
        <time>2019-05-05T07:43:35.000Z</time>
      </trkpt>
      <trkpt lat="42.87525939941406" lon="-8.542543411254883">
        <ele>248.0</ele>
        <time>2019-05-05T07:43:52.000Z</time>
      </trkpt>
      <trkpt lat="42.875244140625" lon="-8.542547225952148">
        <ele>237.0</ele>
        <time>2019-05-05T07:44:09.000Z</time>
      </trkpt>
      <trkpt lat="42.875240325927734" lon="-8.542549133300781">
        <ele>234.0</ele>
        <time>2019-05-05T07:44:10.000Z</time>
      </trkpt>
      <trkpt lat="42.8752326965332" lon="-8.542551040649414">
        <ele>233.0</ele>
        <time>2019-05-05T07:44:10.000Z</time>
      </trkpt>
      <trkpt lat="42.87522506713867" lon="-8.54255199432373">
        <ele>234.0</ele>
        <time>2019-05-05T07:44:10.000Z</time>
      </trkpt>
      <trkpt lat="42.875221252441406" lon="-8.542553901672363">
        <ele>237.0</ele>
        <time>2019-05-05T07:44:10.000Z</time>
      </trkpt>
      <trkpt lat="42.87519073486328" lon="-8.542576789855957">
        <ele>237.0</ele>
        <time>2019-05-05T07:44:12.000Z</time>
      </trkpt>
      <trkpt lat="42.87514877319336" lon="-8.542608261108398">
        <ele>237.0</ele>
        <time>2019-05-05T07:44:14.000Z</time>
      </trkpt>
      <trkpt lat="42.87510299682617" lon="-8.542645454406738">
        <ele>237.0</ele>
        <time>2019-05-05T07:44:16.000Z</time>
      </trkpt>
      <trkpt lat="42.87504959106445" lon="-8.542685508728027">
        <ele>238.0</ele>
        <time>2019-05-05T07:44:18.000Z</time>
      </trkpt>
      <trkpt lat="42.87502670288086" lon="-8.542733192443848">
        <ele>238.0</ele>
        <time>2019-05-05T07:44:23.000Z</time>
      </trkpt>
      <trkpt lat="42.87501525878906" lon="-8.542787551879883">
        <ele>239.0</ele>
        <time>2019-05-05T07:44:27.000Z</time>
      </trkpt>
      <trkpt lat="42.87500762939453" lon="-8.5428466796875">
        <ele>239.0</ele>
        <time>2019-05-05T07:44:31.000Z</time>
      </trkpt>
      <trkpt lat="42.875003814697266" lon="-8.542906761169434">
        <ele>240.0</ele>
        <time>2019-05-05T07:44:35.000Z</time>
      </trkpt>
      <trkpt lat="42.875" lon="-8.542928695678711">
        <ele>241.0</ele>
        <time>2019-05-05T07:44:36.000Z</time>
      </trkpt>
      <trkpt lat="42.875" lon="-8.542936325073242">
        <ele>241.0</ele>
        <time>2019-05-05T07:44:37.000Z</time>
      </trkpt>
      <trkpt lat="42.875" lon="-8.54293441772461">
        <ele>241.0</ele>
        <time>2019-05-05T07:44:38.000Z</time>
      </trkpt>
      <trkpt lat="42.875" lon="-8.542926788330078">
        <ele>241.0</ele>
        <time>2019-05-05T07:44:38.000Z</time>
      </trkpt>
      <trkpt lat="42.874996185302734" lon="-8.542957305908203">
        <ele>242.0</ele>
        <time>2019-05-05T07:44:42.000Z</time>
      </trkpt>
      <trkpt lat="42.8749885559082" lon="-8.542997360229492">
        <ele>244.0</ele>
        <time>2019-05-05T07:44:45.000Z</time>
      </trkpt>
      <trkpt lat="42.87498092651367" lon="-8.543044090270996">
        <ele>246.0</ele>
        <time>2019-05-05T07:44:48.000Z</time>
      </trkpt>
      <trkpt lat="42.87497329711914" lon="-8.543094635009766">
        <ele>248.0</ele>
        <time>2019-05-05T07:44:51.000Z</time>
      </trkpt>
      <trkpt lat="42.874969482421875" lon="-8.543115615844727">
        <ele>249.0</ele>
        <time>2019-05-05T07:44:52.000Z</time>
      </trkpt>
      <trkpt lat="42.874969482421875" lon="-8.54312801361084">
        <ele>249.0</ele>
        <time>2019-05-05T07:44:52.000Z</time>
      </trkpt>
      <trkpt lat="42.87496566772461" lon="-8.543134689331055">
        <ele>249.0</ele>
        <time>2019-05-05T07:44:52.000Z</time>
      </trkpt>
      <trkpt lat="42.87496566772461" lon="-8.54313850402832">
        <ele>248.0</ele>
        <time>2019-05-05T07:44:52.000Z</time>
      </trkpt>
      <trkpt lat="42.874969482421875" lon="-8.543169975280762">
        <ele>249.0</ele>
        <time>2019-05-05T07:44:54.000Z</time>
      </trkpt>
      <trkpt lat="42.87497329711914" lon="-8.543210983276367">
        <ele>251.0</ele>
        <time>2019-05-05T07:44:55.000Z</time>
      </trkpt>
      <trkpt lat="42.874977111816406" lon="-8.543258666992188">
        <ele>253.0</ele>
        <time>2019-05-05T07:44:57.000Z</time>
      </trkpt>
      <trkpt lat="42.87498092651367" lon="-8.54330825805664">
        <ele>255.0</ele>
        <time>2019-05-05T07:44:58.000Z</time>
      </trkpt>
      <trkpt lat="42.8750114440918" lon="-8.543347358703613">
        <ele>255.0</ele>
        <time>2019-05-05T07:45:02.000Z</time>
      </trkpt>
      <trkpt lat="42.875057220458984" lon="-8.543384552001953">
        <ele>254.0</ele>
        <time>2019-05-05T07:45:05.000Z</time>
      </trkpt>
      <trkpt lat="42.8751106262207" lon="-8.543421745300293">
        <ele>253.0</ele>
        <time>2019-05-05T07:45:08.000Z</time>
      </trkpt>
      <trkpt lat="42.87516403198242" lon="-8.543457984924316">
        <ele>252.0</ele>
        <time>2019-05-05T07:45:11.000Z</time>
      </trkpt>
      <trkpt lat="42.875205993652344" lon="-8.54350471496582">
        <ele>252.0</ele>
        <time>2019-05-05T07:45:16.000Z</time>
      </trkpt>
      <trkpt lat="42.875244140625" lon="-8.543556213378906">
        <ele>253.0</ele>
        <time>2019-05-05T07:45:21.000Z</time>
      </trkpt>
      <trkpt lat="42.87527847290039" lon="-8.543609619140625">
        <ele>254.0</ele>
        <time>2019-05-05T07:45:26.000Z</time>
      </trkpt>
      <trkpt lat="42.87531280517578" lon="-8.543664932250977">
        <ele>256.0</ele>
        <time>2019-05-05T07:45:31.000Z</time>
      </trkpt>
      <trkpt lat="42.875328063964844" lon="-8.543684959411621">
        <ele>257.0</ele>
        <time>2019-05-05T07:45:39.000Z</time>
      </trkpt>
      <trkpt lat="42.87533187866211" lon="-8.543692588806152">
        <ele>258.0</ele>
        <time>2019-05-05T07:45:46.000Z</time>
      </trkpt>
      <trkpt lat="42.87533187866211" lon="-8.54369068145752">
        <ele>260.0</ele>
        <time>2019-05-05T07:45:54.000Z</time>
      </trkpt>
      <trkpt lat="42.875328063964844" lon="-8.543684959411621">
        <ele>261.0</ele>
        <time>2019-05-05T07:46:01.000Z</time>
      </trkpt>
      <trkpt lat="42.87533187866211" lon="-8.543689727783203">
        <ele>261.0</ele>
        <time>2019-05-05T07:46:02.000Z</time>
      </trkpt>
      <trkpt lat="42.875335693359375" lon="-8.543693542480469">
        <ele>261.0</ele>
        <time>2019-05-05T07:46:02.000Z</time>
      </trkpt>
      <trkpt lat="42.87533950805664" lon="-8.543697357177734">
        <ele>261.0</ele>
        <time>2019-05-05T07:46:02.000Z</time>
      </trkpt>
      <trkpt lat="42.875343322753906" lon="-8.543702125549316">
        <ele>261.0</ele>
        <time>2019-05-05T07:46:02.000Z</time>
      </trkpt>
      <trkpt lat="42.87538528442383" lon="-8.543756484985352">
        <ele>262.0</ele>
        <time>2019-05-05T07:46:08.000Z</time>
      </trkpt>
      <trkpt lat="42.87544250488281" lon="-8.543832778930664">
        <ele>263.0</ele>
        <time>2019-05-05T07:46:13.000Z</time>
      </trkpt>
      <trkpt lat="42.875511169433594" lon="-8.543922424316406">
        <ele>265.0</ele>
        <time>2019-05-05T07:46:18.000Z</time>
      </trkpt>
      <trkpt lat="42.875587463378906" lon="-8.54401969909668">
        <ele>267.0</ele>
        <time>2019-05-05T07:46:23.000Z</time>
      </trkpt>
      <trkpt lat="42.875648498535156" lon="-8.544044494628906">
        <ele>267.0</ele>
        <time>2019-05-05T07:46:25.000Z</time>
      </trkpt>
      <trkpt lat="42.875709533691406" lon="-8.544047355651855">
        <ele>267.0</ele>
        <time>2019-05-05T07:46:27.000Z</time>
      </trkpt>
      <trkpt lat="42.87577438354492" lon="-8.544034957885742">
        <ele>267.0</ele>
        <time>2019-05-05T07:46:29.000Z</time>
      </trkpt>
      <trkpt lat="42.87583541870117" lon="-8.544014930725098">
        <ele>266.0</ele>
        <time>2019-05-05T07:46:31.000Z</time>
      </trkpt>
      <trkpt lat="42.87586975097656" lon="-8.54399585723877">
        <ele>266.0</ele>
        <time>2019-05-05T07:46:33.000Z</time>
      </trkpt>
      <trkpt lat="42.875892639160156" lon="-8.54396915435791">
        <ele>266.0</ele>
        <time>2019-05-05T07:46:34.000Z</time>
      </trkpt>
      <trkpt lat="42.87590789794922" lon="-8.543937683105469">
        <ele>265.0</ele>
        <time>2019-05-05T07:46:35.000Z</time>
      </trkpt>
      <trkpt lat="42.875919342041016" lon="-8.543903350830078">
        <ele>265.0</ele>
        <time>2019-05-05T07:46:36.000Z</time>
      </trkpt>
      <trkpt lat="42.87594985961914" lon="-8.543931007385254">
        <ele>265.0</ele>
        <time>2019-05-05T07:46:42.000Z</time>
      </trkpt>
      <trkpt lat="42.8759880065918" lon="-8.543981552124023">
        <ele>265.0</ele>
        <time>2019-05-05T07:46:48.000Z</time>
      </trkpt>
      <trkpt lat="42.87602615356445" lon="-8.544048309326172">
        <ele>265.0</ele>
        <time>2019-05-05T07:46:54.000Z</time>
      </trkpt>
      <trkpt lat="42.87606430053711" lon="-8.544121742248535">
        <ele>265.0</ele>
        <time>2019-05-05T07:47:00.000Z</time>
      </trkpt>
      <trkpt lat="42.876102447509766" lon="-8.544137001037598">
        <ele>265.0</ele>
        <time>2019-05-05T07:47:03.000Z</time>
      </trkpt>
      <trkpt lat="42.87614059448242" lon="-8.544135093688965">
        <ele>265.0</ele>
        <time>2019-05-05T07:47:05.000Z</time>
      </trkpt>
      <trkpt lat="42.87617874145508" lon="-8.544121742248535">
        <ele>265.0</ele>
        <time>2019-05-05T07:47:08.000Z</time>
      </trkpt>
      <trkpt lat="42.876220703125" lon="-8.544102668762207">
        <ele>266.0</ele>
        <time>2019-05-05T07:47:10.000Z</time>
      </trkpt>
      <trkpt lat="42.87626647949219" lon="-8.54411792755127">
        <ele>267.0</ele>
        <time>2019-05-05T07:47:15.000Z</time>
      </trkpt>
      <trkpt lat="42.87630081176758" lon="-8.544143676757812">
        <ele>268.0</ele>
        <time>2019-05-05T07:47:20.000Z</time>
      </trkpt>
      <trkpt lat="42.876304626464844" lon="-8.544177055358887">
        <ele>268.0</ele>
        <time>2019-05-05T07:47:24.000Z</time>
      </trkpt>
      <trkpt lat="42.87629699707031" lon="-8.544220924377441">
        <ele>269.0</ele>
        <time>2019-05-05T07:47:27.000Z</time>
      </trkpt>
      <trkpt lat="42.876285552978516" lon="-8.544270515441895">
        <ele>269.0</ele>
        <time>2019-05-05T07:47:30.000Z</time>
      </trkpt>
      <trkpt lat="42.87627410888672" lon="-8.544323921203613">
        <ele>270.0</ele>
        <time>2019-05-05T07:47:33.000Z</time>
      </trkpt>
      <trkpt lat="42.87645721435547" lon="-8.54446792602539">
        <ele>271.0</ele>
        <time>2019-05-05T07:49:43.000Z</time>
      </trkpt>
      <trkpt lat="42.87645721435547" lon="-8.544455528259277">
        <ele>272.0</ele>
        <time>2019-05-05T07:49:47.000Z</time>
      </trkpt>
      <trkpt lat="42.87645721435547" lon="-8.544455528259277">
        <ele>272.0</ele>
        <time>2019-05-05T07:49:53.000Z</time>
      </trkpt>
      <trkpt lat="42.876461029052734" lon="-8.544455528259277">
        <ele>272.0</ele>
        <time>2019-05-05T07:49:59.000Z</time>
      </trkpt>
      <trkpt lat="42.87646484375" lon="-8.544456481933594">
        <ele>271.0</ele>
        <time>2019-05-05T07:50:05.000Z</time>
      </trkpt>
      <trkpt lat="42.876468658447266" lon="-8.544458389282227">
        <ele>271.0</ele>
        <time>2019-05-05T07:50:11.000Z</time>
      </trkpt>
      <trkpt lat="42.876468658447266" lon="-8.544459342956543">
        <ele>271.0</ele>
        <time>2019-05-05T07:50:12.000Z</time>
      </trkpt>
      <trkpt lat="42.87647247314453" lon="-8.544459342956543">
        <ele>271.0</ele>
        <time>2019-05-05T07:50:12.000Z</time>
      </trkpt>
      <trkpt lat="42.8764762878418" lon="-8.54446029663086">
        <ele>271.0</ele>
        <time>2019-05-05T07:50:12.000Z</time>
      </trkpt>
      <trkpt lat="42.8764762878418" lon="-8.544461250305176">
        <ele>271.0</ele>
        <time>2019-05-05T07:50:12.000Z</time>
      </trkpt>
      <trkpt lat="42.876502990722656" lon="-8.544459342956543">
        <ele>271.0</ele>
        <time>2019-05-05T07:50:13.000Z</time>
      </trkpt>
      <trkpt lat="42.87654113769531" lon="-8.54445743560791">
        <ele>271.0</ele>
        <time>2019-05-05T07:50:14.000Z</time>
      </trkpt>
      <trkpt lat="42.876583099365234" lon="-8.544454574584961">
        <ele>271.0</ele>
        <time>2019-05-05T07:50:15.000Z</time>
      </trkpt>
      <trkpt lat="42.87663269042969" lon="-8.544451713562012">
        <ele>271.0</ele>
        <time>2019-05-05T07:50:16.000Z</time>
      </trkpt>
      <trkpt lat="42.87663650512695" lon="-8.544413566589355">
        <ele>271.0</ele>
        <time>2019-05-05T07:50:19.000Z</time>
      </trkpt>
      <trkpt lat="42.876625061035156" lon="-8.544360160827637">
        <ele>271.0</ele>
        <time>2019-05-05T07:50:21.000Z</time>
      </trkpt>
      <trkpt lat="42.87660598754883" lon="-8.544296264648438">
        <ele>270.0</ele>
        <time>2019-05-05T07:50:24.000Z</time>
      </trkpt>
      <trkpt lat="42.876583099365234" lon="-8.544227600097656">
        <ele>270.0</ele>
        <time>2019-05-05T07:50:26.000Z</time>
      </trkpt>
      <trkpt lat="42.876590728759766" lon="-8.54420280456543">
        <ele>270.0</ele>
        <time>2019-05-05T07:50:31.000Z</time>
      </trkpt>
      <trkpt lat="42.876609802246094" lon="-8.544190406799316">
        <ele>270.0</ele>
        <time>2019-05-05T07:50:35.000Z</time>
      </trkpt>
      <trkpt lat="42.87663269042969" lon="-8.544187545776367">
        <ele>270.0</ele>
        <time>2019-05-05T07:50:40.000Z</time>
      </trkpt>
      <trkpt lat="42.87665939331055" lon="-8.544187545776367">
        <ele>270.0</ele>
        <time>2019-05-05T07:50:44.000Z</time>
      </trkpt>
      <trkpt lat="42.876670837402344" lon="-8.544182777404785">
        <ele>270.0</ele>
        <time>2019-05-05T07:51:08.000Z</time>
      </trkpt>
      <trkpt lat="42.876678466796875" lon="-8.544179916381836">
        <ele>269.0</ele>
        <time>2019-05-05T07:51:31.000Z</time>
      </trkpt>
      <trkpt lat="42.876686096191406" lon="-8.544178009033203">
        <ele>269.0</ele>
        <time>2019-05-05T07:51:55.000Z</time>
      </trkpt>
      <trkpt lat="42.87668991088867" lon="-8.544177055358887">
        <ele>269.0</ele>
        <time>2019-05-05T07:52:18.000Z</time>
      </trkpt>
      <trkpt lat="42.8766975402832" lon="-8.544175148010254">
        <ele>269.0</ele>
        <time>2019-05-05T07:52:19.000Z</time>
      </trkpt>
      <trkpt lat="42.87670135498047" lon="-8.544172286987305">
        <ele>269.0</ele>
        <time>2019-05-05T07:52:19.000Z</time>
      </trkpt>
      <trkpt lat="42.876708984375" lon="-8.544170379638672">
        <ele>269.0</ele>
        <time>2019-05-05T07:52:19.000Z</time>
      </trkpt>
      <trkpt lat="42.87671661376953" lon="-8.544168472290039">
        <ele>269.0</ele>
        <time>2019-05-05T07:52:19.000Z</time>
      </trkpt>
      <trkpt lat="42.876747131347656" lon="-8.544158935546875">
        <ele>269.0</ele>
        <time>2019-05-05T07:52:21.000Z</time>
      </trkpt>
      <trkpt lat="42.876792907714844" lon="-8.544145584106445">
        <ele>269.0</ele>
        <time>2019-05-05T07:52:23.000Z</time>
      </trkpt>
      <trkpt lat="42.87685012817383" lon="-8.5441312789917">
        <ele>268.0</ele>
        <time>2019-05-05T07:52:25.000Z</time>
      </trkpt>
      <trkpt lat="42.87690734863281" lon="-8.54411506652832">
        <ele>268.0</ele>
        <time>2019-05-05T07:52:26.000Z</time>
      </trkpt>
      <trkpt lat="42.87697982788086" lon="-8.544116973876953">
        <ele>268.0</ele>
        <time>2019-05-05T07:52:31.000Z</time>
      </trkpt>
      <trkpt lat="42.8770637512207" lon="-8.544124603271484">
        <ele>268.0</ele>
        <time>2019-05-05T07:52:35.000Z</time>
      </trkpt>
      <trkpt lat="42.87715530395508" lon="-8.544137001037598">
        <ele>267.0</ele>
        <time>2019-05-05T07:52:39.000Z</time>
      </trkpt>
      <trkpt lat="42.87725067138672" lon="-8.544151306152344">
        <ele>267.0</ele>
        <time>2019-05-05T07:52:43.000Z</time>
      </trkpt>
      <trkpt lat="42.87729263305664" lon="-8.544153213500977">
        <ele>266.0</ele>
        <time>2019-05-05T07:52:48.000Z</time>
      </trkpt>
      <trkpt lat="42.8773193359375" lon="-8.544151306152344">
        <ele>265.0</ele>
        <time>2019-05-05T07:52:52.000Z</time>
      </trkpt>
      <trkpt lat="42.87733459472656" lon="-8.544147491455078">
        <ele>264.0</ele>
        <time>2019-05-05T07:52:56.000Z</time>
      </trkpt>
      <trkpt lat="42.877342224121094" lon="-8.544142723083496">
        <ele>263.0</ele>
        <time>2019-05-05T07:53:00.000Z</time>
      </trkpt>
      <trkpt lat="42.87738037109375" lon="-8.544139862060547">
        <ele>263.0</ele>
        <time>2019-05-05T07:53:01.000Z</time>
      </trkpt>
      <trkpt lat="42.87749481201172" lon="-8.544153213500977">
        <ele>263.0</ele>
        <time>2019-05-05T07:53:07.000Z</time>
      </trkpt>
      <trkpt lat="42.87752914428711" lon="-8.54413890838623">
        <ele>261.0</ele>
        <time>2019-05-05T07:53:37.000Z</time>
      </trkpt>
      <trkpt lat="42.877559661865234" lon="-8.544127464294434">
        <ele>261.0</ele>
        <time>2019-05-05T07:53:38.000Z</time>
      </trkpt>
      <trkpt lat="42.8778076171875" lon="-8.544002532958984">
        <ele>261.0</ele>
        <time>2019-05-05T07:53:41.000Z</time>
      </trkpt>
      <trkpt lat="42.87784957885742" lon="-8.54394245147705">
        <ele>261.0</ele>
        <time>2019-05-05T07:53:47.000Z</time>
      </trkpt>
      <trkpt lat="42.87785720825195" lon="-8.543883323669434">
        <ele>261.0</ele>
        <time>2019-05-05T07:53:52.000Z</time>
      </trkpt>
      <trkpt lat="42.877864837646484" lon="-8.543868064880371">
        <ele>261.0</ele>
        <time>2019-05-05T07:53:53.000Z</time>
      </trkpt>
      <trkpt lat="42.87786865234375" lon="-8.543859481811523">
        <ele>261.0</ele>
        <time>2019-05-05T07:53:54.000Z</time>
      </trkpt>
      <trkpt lat="42.87787628173828" lon="-8.543854713439941">
        <ele>261.0</ele>
        <time>2019-05-05T07:53:55.000Z</time>
      </trkpt>
      <trkpt lat="42.87788009643555" lon="-8.543851852416992">
        <ele>261.0</ele>
        <time>2019-05-05T07:53:56.000Z</time>
      </trkpt>
      <trkpt lat="42.877891540527344" lon="-8.543848037719727">
        <ele>261.0</ele>
        <time>2019-05-05T07:54:01.000Z</time>
      </trkpt>
      <trkpt lat="42.87790298461914" lon="-8.543846130371094">
        <ele>260.0</ele>
        <time>2019-05-05T07:54:05.000Z</time>
      </trkpt>
      <trkpt lat="42.8779182434082" lon="-8.543844223022461">
        <ele>259.0</ele>
        <time>2019-05-05T07:54:10.000Z</time>
      </trkpt>
      <trkpt lat="42.877933502197266" lon="-8.543843269348145">
        <ele>259.0</ele>
        <time>2019-05-05T07:54:14.000Z</time>
      </trkpt>
      <trkpt lat="42.8779411315918" lon="-8.543842315673828">
        <ele>258.0</ele>
        <time>2019-05-05T07:54:15.000Z</time>
      </trkpt>
      <trkpt lat="42.877952575683594" lon="-8.543840408325195">
        <ele>258.0</ele>
        <time>2019-05-05T07:54:15.000Z</time>
      </trkpt>
      <trkpt lat="42.877960205078125" lon="-8.543839454650879">
        <ele>258.0</ele>
        <time>2019-05-05T07:54:15.000Z</time>
      </trkpt>
      <trkpt lat="42.877967834472656" lon="-8.543838500976562">
        <ele>259.0</ele>
        <time>2019-05-05T07:54:15.000Z</time>
      </trkpt>
      <trkpt lat="42.878028869628906" lon="-8.543824195861816">
        <ele>259.0</ele>
        <time>2019-05-05T07:54:20.000Z</time>
      </trkpt>
      <trkpt lat="42.878108978271484" lon="-8.543804168701172">
        <ele>259.0</ele>
        <time>2019-05-05T07:54:24.000Z</time>
      </trkpt>
      <trkpt lat="42.87820816040039" lon="-8.543781280517578">
        <ele>259.0</ele>
        <time>2019-05-05T07:54:28.000Z</time>
      </trkpt>
      <trkpt lat="42.87831497192383" lon="-8.543756484985352">
        <ele>259.0</ele>
        <time>2019-05-05T07:54:32.000Z</time>
      </trkpt>
      <trkpt lat="42.878379821777344" lon="-8.543721199035645">
        <ele>260.0</ele>
        <time>2019-05-05T07:54:38.000Z</time>
      </trkpt>
      <trkpt lat="42.87843704223633" lon="-8.543680191040039">
        <ele>261.0</ele>
        <time>2019-05-05T07:54:43.000Z</time>
      </trkpt>
      <trkpt lat="42.87848663330078" lon="-8.543635368347168">
        <ele>262.0</ele>
        <time>2019-05-05T07:54:48.000Z</time>
      </trkpt>
      <trkpt lat="42.87853240966797" lon="-8.543588638305664">
        <ele>263.0</ele>
        <time>2019-05-05T07:54:53.000Z</time>
      </trkpt>
      <trkpt lat="42.87855911254883" lon="-8.543574333190918">
        <ele>263.0</ele>
        <time>2019-05-05T07:54:59.000Z</time>
      </trkpt>
      <trkpt lat="42.87857437133789" lon="-8.543571472167969">
        <ele>263.0</ele>
        <time>2019-05-05T07:55:04.000Z</time>
      </trkpt>
      <trkpt lat="42.878578186035156" lon="-8.54357624053955">
        <ele>263.0</ele>
        <time>2019-05-05T07:55:10.000Z</time>
      </trkpt>
      <trkpt lat="42.87858200073242" lon="-8.543584823608398">
        <ele>262.0</ele>
        <time>2019-05-05T07:55:15.000Z</time>
      </trkpt>
      <trkpt lat="42.87858963012695" lon="-8.543583869934082">
        <ele>262.0</ele>
        <time>2019-05-05T07:55:16.000Z</time>
      </trkpt>
      <trkpt lat="42.878597259521484" lon="-8.543582916259766">
        <ele>262.0</ele>
        <time>2019-05-05T07:55:16.000Z</time>
      </trkpt>
      <trkpt lat="42.878604888916016" lon="-8.543582916259766">
        <ele>262.0</ele>
        <time>2019-05-05T07:55:16.000Z</time>
      </trkpt>
      <trkpt lat="42.87861251831055" lon="-8.54358196258545">
        <ele>262.0</ele>
        <time>2019-05-05T07:55:16.000Z</time>
      </trkpt>
      <trkpt lat="42.87895202636719" lon="-8.543529510498047">
        <ele>263.0</ele>
        <time>2019-05-05T07:55:32.000Z</time>
      </trkpt>
      <trkpt lat="42.878963470458984" lon="-8.543516159057617">
        <ele>263.0</ele>
        <time>2019-05-05T07:55:35.000Z</time>
      </trkpt>
      <trkpt lat="42.87898254394531" lon="-8.543501853942871">
        <ele>263.0</ele>
        <time>2019-05-05T07:55:52.000Z</time>
      </trkpt>
      <trkpt lat="42.878997802734375" lon="-8.543490409851074">
        <ele>263.0</ele>
        <time>2019-05-05T07:55:53.000Z</time>
      </trkpt>
      <trkpt lat="42.87919616699219" lon="-8.543360710144043">
        <ele>263.0</ele>
        <time>2019-05-05T07:56:04.000Z</time>
      </trkpt>
      <trkpt lat="42.87925720214844" lon="-8.543354034423828">
        <ele>263.0</ele>
        <time>2019-05-05T07:56:11.000Z</time>
      </trkpt>
      <trkpt lat="42.87929153442383" lon="-8.543350219726562">
        <ele>263.0</ele>
        <time>2019-05-05T07:56:12.000Z</time>
      </trkpt>
      <trkpt lat="42.87942886352539" lon="-8.543318748474121">
        <ele>264.0</ele>
        <time>2019-05-05T07:56:18.000Z</time>
      </trkpt>
      <trkpt lat="42.879493713378906" lon="-8.543336868286133">
        <ele>263.0</ele>
        <time>2019-05-05T07:56:35.000Z</time>
      </trkpt>
      <trkpt lat="42.8795280456543" lon="-8.543347358703613">
        <ele>263.0</ele>
        <time>2019-05-05T07:56:36.000Z</time>
      </trkpt>
      <trkpt lat="42.87977981567383" lon="-8.543604850769043">
        <ele>264.0</ele>
        <time>2019-05-05T07:56:57.000Z</time>
      </trkpt>
      <trkpt lat="42.87980270385742" lon="-8.543647766113281">
        <ele>264.0</ele>
        <time>2019-05-05T07:57:05.000Z</time>
      </trkpt>
      <trkpt lat="42.879783630371094" lon="-8.543648719787598">
        <ele>263.0</ele>
        <time>2019-05-05T07:57:12.000Z</time>
      </trkpt>
      <trkpt lat="42.879783630371094" lon="-8.543658256530762">
        <ele>263.0</ele>
        <time>2019-05-05T07:57:13.000Z</time>
      </trkpt>
      <trkpt lat="42.879783630371094" lon="-8.54366683959961">
        <ele>263.0</ele>
        <time>2019-05-05T07:57:13.000Z</time>
      </trkpt>
      <trkpt lat="42.879783630371094" lon="-8.54367446899414">
        <ele>263.0</ele>
        <time>2019-05-05T07:57:13.000Z</time>
      </trkpt>
      <trkpt lat="42.879783630371094" lon="-8.543682098388672">
        <ele>263.0</ele>
        <time>2019-05-05T07:57:13.000Z</time>
      </trkpt>
      <trkpt lat="42.87979507446289" lon="-8.543761253356934">
        <ele>262.0</ele>
        <time>2019-05-05T07:57:17.000Z</time>
      </trkpt>
      <trkpt lat="42.87981414794922" lon="-8.543871879577637">
        <ele>262.0</ele>
        <time>2019-05-05T07:57:20.000Z</time>
      </trkpt>
      <trkpt lat="42.87983703613281" lon="-8.544001579284668">
        <ele>261.0</ele>
        <time>2019-05-05T07:57:23.000Z</time>
      </trkpt>
      <trkpt lat="42.879859924316406" lon="-8.544140815734863">
        <ele>260.0</ele>
        <time>2019-05-05T07:57:26.000Z</time>
      </trkpt>
      <trkpt lat="42.87986755371094" lon="-8.544191360473633">
        <ele>260.0</ele>
        <time>2019-05-05T07:57:29.000Z</time>
      </trkpt>
      <trkpt lat="42.8798713684082" lon="-8.54421615600586">
        <ele>260.0</ele>
        <time>2019-05-05T07:57:31.000Z</time>
      </trkpt>
      <trkpt lat="42.87987518310547" lon="-8.544222831726074">
        <ele>259.0</ele>
        <time>2019-05-05T07:57:33.000Z</time>
      </trkpt>
      <trkpt lat="42.87987518310547" lon="-8.544219970703125">
        <ele>259.0</ele>
        <time>2019-05-05T07:57:35.000Z</time>
      </trkpt>
      <trkpt lat="42.879878997802734" lon="-8.544233322143555">
        <ele>259.0</ele>
        <time>2019-05-05T07:57:40.000Z</time>
      </trkpt>
      <trkpt lat="42.879878997802734" lon="-8.544244766235352">
        <ele>259.0</ele>
        <time>2019-05-05T07:57:44.000Z</time>
      </trkpt>
      <trkpt lat="42.879878997802734" lon="-8.5442533493042">
        <ele>259.0</ele>
        <time>2019-05-05T07:57:49.000Z</time>
      </trkpt>
      <trkpt lat="42.879878997802734" lon="-8.544261932373047">
        <ele>259.0</ele>
        <time>2019-05-05T07:57:53.000Z</time>
      </trkpt>
      <trkpt lat="42.879878997802734" lon="-8.544270515441895">
        <ele>259.0</ele>
        <time>2019-05-05T07:57:54.000Z</time>
      </trkpt>
      <trkpt lat="42.8798828125" lon="-8.544278144836426">
        <ele>259.0</ele>
        <time>2019-05-05T07:57:54.000Z</time>
      </trkpt>
      <trkpt lat="42.8798828125" lon="-8.544285774230957">
        <ele>259.0</ele>
        <time>2019-05-05T07:57:54.000Z</time>
      </trkpt>
      <trkpt lat="42.8798828125" lon="-8.544293403625488">
        <ele>259.0</ele>
        <time>2019-05-05T07:57:54.000Z</time>
      </trkpt>
      <trkpt lat="42.87989807128906" lon="-8.544395446777344">
        <ele>260.0</ele>
        <time>2019-05-05T07:57:56.000Z</time>
      </trkpt>
      <trkpt lat="42.879920959472656" lon="-8.544561386108398">
        <ele>260.0</ele>
        <time>2019-05-05T07:57:59.000Z</time>
      </trkpt>
      <trkpt lat="42.87990951538086" lon="-8.544584274291992">
        <ele>260.0</ele>
        <time>2019-05-05T07:58:02.000Z</time>
      </trkpt>
      <trkpt lat="42.87989044189453" lon="-8.544600486755371">
        <ele>260.0</ele>
        <time>2019-05-05T07:58:05.000Z</time>
      </trkpt>
      <trkpt lat="42.87986373901367" lon="-8.544611930847168">
        <ele>260.0</ele>
        <time>2019-05-05T07:58:08.000Z</time>
      </trkpt>
      <trkpt lat="42.87983703613281" lon="-8.544621467590332">
        <ele>261.0</ele>
        <time>2019-05-05T07:58:11.000Z</time>
      </trkpt>
      <trkpt lat="42.87983322143555" lon="-8.544700622558594">
        <ele>260.0</ele>
        <time>2019-05-05T07:58:17.000Z</time>
      </trkpt>
      <trkpt lat="42.87983703613281" lon="-8.544807434082031">
        <ele>260.0</ele>
        <time>2019-05-05T07:58:22.000Z</time>
      </trkpt>
      <trkpt lat="42.879844665527344" lon="-8.544931411743164">
        <ele>259.0</ele>
        <time>2019-05-05T07:58:28.000Z</time>
      </trkpt>
      <trkpt lat="42.87985610961914" lon="-8.545064926147461">
        <ele>258.0</ele>
        <time>2019-05-05T07:58:33.000Z</time>
      </trkpt>
      <trkpt lat="42.87985610961914" lon="-8.545104026794434">
        <ele>258.0</ele>
        <time>2019-05-05T07:58:34.000Z</time>
      </trkpt>
      <trkpt lat="42.879859924316406" lon="-8.545114517211914">
        <ele>258.0</ele>
        <time>2019-05-05T07:58:35.000Z</time>
      </trkpt>
      <trkpt lat="42.879859924316406" lon="-8.545104026794434">
        <ele>258.0</ele>
        <time>2019-05-05T07:58:36.000Z</time>
      </trkpt>
      <trkpt lat="42.879859924316406" lon="-8.545083999633789">
        <ele>258.0</ele>
        <time>2019-05-05T07:58:36.000Z</time>
      </trkpt>
      <trkpt lat="42.8798713684082" lon="-8.545089721679688">
        <ele>258.0</ele>
        <time>2019-05-05T07:58:40.000Z</time>
      </trkpt>
      <trkpt lat="42.879886627197266" lon="-8.545095443725586">
        <ele>258.0</ele>
        <time>2019-05-05T07:58:43.000Z</time>
      </trkpt>
      <trkpt lat="42.879905700683594" lon="-8.545101165771484">
        <ele>258.0</ele>
        <time>2019-05-05T07:58:47.000Z</time>
      </trkpt>
      <trkpt lat="42.87992477416992" lon="-8.5451078414917">
        <ele>258.0</ele>
        <time>2019-05-05T07:58:50.000Z</time>
      </trkpt>
      <trkpt lat="42.87993621826172" lon="-8.545112609863281">
        <ele>258.0</ele>
        <time>2019-05-05T07:58:51.000Z</time>
      </trkpt>
      <trkpt lat="42.879947662353516" lon="-8.54511547088623">
        <ele>258.0</ele>
        <time>2019-05-05T07:58:51.000Z</time>
      </trkpt>
      <trkpt lat="42.87995529174805" lon="-8.54511833190918">
        <ele>258.0</ele>
        <time>2019-05-05T07:58:51.000Z</time>
      </trkpt>
      <trkpt lat="42.87996292114258" lon="-8.545121192932129">
        <ele>258.0</ele>
        <time>2019-05-05T07:58:51.000Z</time>
      </trkpt>
      <trkpt lat="42.88001251220703" lon="-8.545169830322266">
        <ele>258.0</ele>
        <time>2019-05-05T07:58:56.000Z</time>
      </trkpt>
      <trkpt lat="42.88007736206055" lon="-8.545236587524414">
        <ele>258.0</ele>
        <time>2019-05-05T07:59:01.000Z</time>
      </trkpt>
      <trkpt lat="42.880157470703125" lon="-8.545316696166992">
        <ele>258.0</ele>
        <time>2019-05-05T07:59:06.000Z</time>
      </trkpt>
      <trkpt lat="42.88024139404297" lon="-8.545402526855469">
        <ele>258.0</ele>
        <time>2019-05-05T07:59:11.000Z</time>
      </trkpt>
      <trkpt lat="42.880287170410156" lon="-8.545453071594238">
        <ele>258.0</ele>
        <time>2019-05-05T07:59:16.000Z</time>
      </trkpt>
      <trkpt lat="42.88032150268555" lon="-8.54549503326416">
        <ele>258.0</ele>
        <time>2019-05-05T07:59:20.000Z</time>
      </trkpt>
      <trkpt lat="42.880348205566406" lon="-8.5455322265625">
        <ele>257.0</ele>
        <time>2019-05-05T07:59:25.000Z</time>
      </trkpt>
      <trkpt lat="42.880374908447266" lon="-8.54556655883789">
        <ele>257.0</ele>
        <time>2019-05-05T07:59:29.000Z</time>
      </trkpt>
      <trkpt lat="42.880393981933594" lon="-8.545592308044434">
        <ele>256.0</ele>
        <time>2019-05-05T07:59:32.000Z</time>
      </trkpt>
      <trkpt lat="42.88043212890625" lon="-8.54564094543457">
        <ele>256.0</ele>
        <time>2019-05-05T07:59:37.000Z</time>
      </trkpt>
      <trkpt lat="42.880428314208984" lon="-8.545635223388672">
        <ele>256.0</ele>
        <time>2019-05-05T07:59:36.000Z</time>
      </trkpt>
      <trkpt lat="42.88041687011719" lon="-8.545624732971191">
        <ele>256.0</ele>
        <time>2019-05-05T07:59:35.000Z</time>
      </trkpt>
      <trkpt lat="42.88041687011719" lon="-8.545624732971191">
        <ele>256.0</ele>
        <time>2019-05-05T07:59:39.000Z</time>
      </trkpt>
    </trkseg>
  </trk>
</gpx>
